/* DATA DESCRIPTION:
Citation:	Vuilleumier, Laurent (2026): Radiosonde measurements from station Payerne (2025-10) [dataset]. Federal Office of Meteorology and Climatology MeteoSwiss, Payerne, PANGAEA, https://doi.org/10.1594/PANGAEA.992985
Other version:	Vuilleumier, Laurent (2026): BSRN Station-to-archive file for station Payerne (2025-10) [dataset]. ftp://ftp.bsrn.awi.de/pay/pay1025.dat.gz
Project(s):	Baseline Surface Radiation Network (BSRN) (URI: https://bsrn.awi.de/)
Coverage:	LATITUDE: 46.812300 * LONGITUDE: 6.942200
	DATE/TIME START: 2025-10-01T00:00:00 * DATE/TIME END: 2025-10-31T12:00:00
	MINIMUM ALTITUDE: 491 m * MAXIMUM ALTITUDE: 38650 m
Event(s):	PAY (Payerne) * LATITUDE: 46.812300 * LONGITUDE: 6.942200 * DATE/TIME: 1992-09-01T00:00:00 * ELEVATION: 491.0 m * LOCATION: Switzerland * METHOD/DEVICE: Monitoring station (MONS) * COMMENT: BSRN station no: 21; Surface type: cultivated; Topography type: hilly, rural; Horizon: doi:10.1594/PANGAEA.947035; Station scientist: Laurent Vuilleumier (laurent.vuilleumier@meteoswiss.ch)
Parameter(s):	DATE/TIME (Date/Time) * GEOCODE * PI: Vuilleumier, Laurent (https://orcid.org/0000-0003-0222-2566, laurent.vuilleumier@meteoswiss.ch)
	ALTITUDE [m] (Altitude) * GEOCODE * PI: Vuilleumier, Laurent (https://orcid.org/0000-0003-0222-2566, laurent.vuilleumier@meteoswiss.ch)
	Pressure, at given altitude [hPa] (PPPP) * PI: Vuilleumier, Laurent (https://orcid.org/0000-0003-0222-2566, laurent.vuilleumier@meteoswiss.ch) * METHOD/DEVICE: Radiosonde, Vaisala, RS41 (URI: http://www.vaisala.com/en/products/soundingsystemsandradiosondes/radiosondes/Pages/RS41.aspx)
	Temperature, air [°C] (TTT) * PI: Vuilleumier, Laurent (https://orcid.org/0000-0003-0222-2566, laurent.vuilleumier@meteoswiss.ch) * METHOD/DEVICE: Radiosonde, Vaisala, RS41 (URI: http://www.vaisala.com/en/products/soundingsystemsandradiosondes/radiosondes/Pages/RS41.aspx)
	Dew/frost point [°C] (TdTdTd) * PI: Vuilleumier, Laurent (https://orcid.org/0000-0003-0222-2566, laurent.vuilleumier@meteoswiss.ch) * METHOD/DEVICE: Radiosonde, Vaisala, RS41 (URI: http://www.vaisala.com/en/products/soundingsystemsandradiosondes/radiosondes/Pages/RS41.aspx)
	Wind direction [deg] (dd) * PI: Vuilleumier, Laurent (https://orcid.org/0000-0003-0222-2566, laurent.vuilleumier@meteoswiss.ch) * METHOD/DEVICE: Radiosonde, Vaisala, RS41 (URI: http://www.vaisala.com/en/products/soundingsystemsandradiosondes/radiosondes/Pages/RS41.aspx)
	Wind speed [m/s] (ff) * PI: Vuilleumier, Laurent (https://orcid.org/0000-0003-0222-2566, laurent.vuilleumier@meteoswiss.ch) * METHOD/DEVICE: Radiosonde, Vaisala, RS41 (URI: http://www.vaisala.com/en/products/soundingsystemsandradiosondes/radiosondes/Pages/RS41.aspx)
	Ozone, partial pressure [mPa] (pO3) * PI: Vuilleumier, Laurent (https://orcid.org/0000-0003-0222-2566, laurent.vuilleumier@meteoswiss.ch) * METHOD/DEVICE: Radiosonde, Vaisala, RS41 (URI: http://www.vaisala.com/en/products/soundingsystemsandradiosondes/radiosondes/Pages/RS41.aspx)
License:	Baseline Surface Radiation Network License 1.0 (BSRN-1.0) (URI: https://bsrn.awi.de/data/conditions-of-data-release/)
Status:	Curation Level: Enhanced curation (URI: https://wiki.pangaea.de/wiki/Curation_levels)
Size:	296913 data points
*/
Date/Time	Altitude [m]	PPPP [hPa]	TTT [°C]	TdTdTd [°C]	dd [deg]	ff [m/s]	pO3 [mPa]
2025-10-01T00:00	491	966	11.1	9.0	61	1	
2025-10-01T00:00	501	964	11.3	8.9	49	2	
2025-10-01T00:00	520	962	11.5	9.0	47	2	
2025-10-01T00:00	540	960	11.5	8.8	48	3	
2025-10-01T00:00	560	958	11.5	8.7	49	4	
2025-10-01T00:00	580	956	11.4	8.6	50	4	
2025-10-01T00:00	600	953	11.2	8.5	51	5	
2025-10-01T00:00	620	951	11.4	7.7	51	5	
2025-10-01T00:00	640	949	11.4	7.5	51	6	
2025-10-01T00:00	660	946	11.2	7.5	50	6	
2025-10-01T00:00	680	944	11.1	7.4	48	7	
2025-10-01T00:00	700	942	11.1	7.2	47	7	
2025-10-01T00:00	720	939	11.1	7.1	46	7	
2025-10-01T00:00	740	938	11.1	7.1	45	8	
2025-10-01T00:00	760	935	11.0	7.1	45	8	
2025-10-01T00:00	780	933	10.9	7.1	46	9	
2025-10-01T00:00	800	931	10.8	7.0	47	9	
2025-10-01T00:00	820	929	10.7	6.9	48	9	
2025-10-01T00:00	840	927	10.5	6.8	49	9	
2025-10-01T00:00	860	924	10.4	6.6	49	10	
2025-10-01T00:00	880	922	10.2	6.5	50	10	
2025-10-01T00:00	900	920	10.1	6.4	50	10	
2025-10-01T00:00	920	917	9.9	6.3	50	10	
2025-10-01T00:00	940	915	9.7	6.3	50	10	
2025-10-01T00:00	960	913	9.5	6.3	50	10	
2025-10-01T00:00	980	911	9.3	6.2	50	10	
2025-10-01T00:00	1000	909	9.1	6.1	49	10	
2025-10-01T00:00	1020	906	9.0	6.0	49	10	
2025-10-01T00:00	1040	904	8.8	6.0	48	10	
2025-10-01T00:00	1060	902	8.6	6.1	48	10	
2025-10-01T00:00	1080	900	8.4	6.1	48	10	
2025-10-01T00:00	1100	898	8.2	6.0	49	10	
2025-10-01T00:00	1120	896	8.0	6.0	50	10	
2025-10-01T00:00	1140	894	7.8	5.9	51	10	
2025-10-01T00:00	1160	891	7.7	5.5	53	10	
2025-10-01T00:00	1180	889	7.5	5.3	54	9	
2025-10-01T00:00	1200	887	7.4	4.8	56	9	
2025-10-01T00:00	1220	885	7.3	4.4	57	9	
2025-10-01T00:00	1240	882	7.2	4.4	59	9	
2025-10-01T00:00	1260	881	7.1	4.7	60	9	
2025-10-01T00:00	1280	879	7.0	4.6	61	9	
2025-10-01T00:00	1300	876	6.8	4.6	61	9	
2025-10-01T00:00	1320	874	6.7	4.5	62	9	
2025-10-01T00:00	1340	872	6.5	4.4	63	9	
2025-10-01T00:00	1360	870	6.5	4.2	63	8	
2025-10-01T00:00	1380	868	6.4	4.1	64	8	
2025-10-01T00:00	1400	865	6.2	4.0	65	8	
2025-10-01T00:00	1420	863	6.1	4.0	66	8	
2025-10-01T00:00	1440	861	5.9	3.9	67	8	
2025-10-01T00:00	1460	859	5.8	4.0	67	8	
2025-10-01T00:00	1480	857	5.8	3.7	68	8	
2025-10-01T00:00	1500	855	5.6	3.5	68	8	
2025-10-01T00:00	1520	853	5.5	3.9	68	8	
2025-10-01T00:00	1540	851	5.3	3.9	68	8	
2025-10-01T00:00	1560	849	5.2	3.7	68	8	
2025-10-01T00:00	1580	847	5.1	2.9	68	8	
2025-10-01T00:00	1600	845	5.0	2.3	70	8	
2025-10-01T00:00	1620	843	4.9	2.4	71	8	
2025-10-01T00:00	1640	841	4.7	2.4	72	8	
2025-10-01T00:00	1660	839	4.6	2.4	73	8	
2025-10-01T00:00	1680	837	4.4	2.2	74	8	
2025-10-01T00:00	1700	835	4.3	2.0	75	7	
2025-10-01T00:00	1720	832	4.3	1.8	75	7	
2025-10-01T00:00	1740	830	4.2	1.8	74	7	
2025-10-01T00:00	1760	828	4.1	1.8	74	7	
2025-10-01T00:00	1780	826	4.0	1.8	73	7	
2025-10-01T00:00	1800	824	3.8	1.7	73	7	
2025-10-01T00:00	1820	822	3.7	1.4	72	7	
2025-10-01T00:00	1840	820	3.6	1.2	72	7	
2025-10-01T00:00	1860	818	3.4	0.9	71	7	
2025-10-01T00:00	1880	816	3.3	0.6	70	7	
2025-10-01T00:00	1900	814	3.2	0.3	69	7	
2025-10-01T00:00	1920	812	3.1	-0.4	68	7	
2025-10-01T00:00	1940	810	3.1	-0.7	66	7	
2025-10-01T00:00	1960	808	2.9	-0.7	65	7	
2025-10-01T00:00	1980	806	2.8	-0.7	64	6	
2025-10-01T00:00	2000	804	2.6	-0.7	64	6	
2025-10-01T00:00	2020	802	2.4	-0.5	63	6	
2025-10-01T00:00	2040	800	2.2	-0.4	63	5	
2025-10-01T00:00	2060	798	2.1	-0.4	61	5	
2025-10-01T00:00	2080	796	1.9	-0.4	59	5	
2025-10-01T00:00	2100	794	1.7	-0.4	56	5	
2025-10-01T00:00	2120	792	1.6	-0.2	54	5	
2025-10-01T00:00	2140	790	1.4	0.0	50	5	
2025-10-01T00:00	2160	788	1.2	0.0	48	5	
2025-10-01T00:00	2180	786	1.1	-0.1	47	5	
2025-10-01T00:00	2200	785	1.0	-0.3	46	5	
2025-10-01T00:00	2220	783	1.0	-0.7	46	5	
2025-10-01T00:00	2240	781	0.9	-1.1	45	5	
2025-10-01T00:00	2260	779	0.9	-1.2	45	5	
2025-10-01T00:00	2280	777	0.9	-1.4	44	5	
2025-10-01T00:00	2300	775	0.8	-1.2	43	4	
2025-10-01T00:00	2320	773	0.6	-1.3	40	4	
2025-10-01T00:00	2340	771	0.6	-1.7	37	4	
2025-10-01T00:00	2360	769	0.5	-1.4	35	4	
2025-10-01T00:00	2380	767	0.4	-1.4	31	4	
2025-10-01T00:00	2400	765	0.2	-1.2	28	4	
2025-10-01T00:00	2420	763	0.0	-1.2	25	4	
2025-10-01T00:00	2440	761	-0.1	-1.1	21	4	
2025-10-01T00:00	2460	759	-0.2	-1.2	17	4	
2025-10-01T00:00	2480	758	-0.3	-1.3	15	4	
2025-10-01T00:00	2500	756	-0.3	-1.8	13	4	
2025-10-01T00:00	2520	754	-0.4	-2.2	12	4	
2025-10-01T00:00	2540	752	-0.5	-2.3	10	4	
2025-10-01T00:00	2560	750	-0.6	-2.3	8	4	
2025-10-01T00:00	2580	748	-0.9	-2.4	6	4	
2025-10-01T00:00	2600	746	-1.0	-2.6	1	4	
2025-10-01T00:00	2620	745	-1.2	-2.6	357	3	
2025-10-01T00:00	2640	743	-1.3	-2.9	352	3	
2025-10-01T00:00	2660	741	-1.3	-3.2	347	3	
2025-10-01T00:00	2680	739	-1.4	-3.5	341	3	
2025-10-01T00:00	2700	737	-1.6	-3.6	334	3	
2025-10-01T00:00	2720	735	-1.7	-3.6	326	3	
2025-10-01T00:00	2740	733	-1.8	-3.6	315	2	
2025-10-01T00:00	2760	731	-1.8	-3.7	306	2	
2025-10-01T00:00	2780	730	-1.9	-3.8	299	2	
2025-10-01T00:00	2800	728	-1.9	-3.9	294	2	
2025-10-01T00:00	2820	726	-2.0	-4.1	292	2	
2025-10-01T00:00	2840	724	-2.2	-4.2	293	2	
2025-10-01T00:00	2860	722	-2.3	-4.3	296	2	
2025-10-01T00:00	2880	721	-2.5	-4.4	299	3	
2025-10-01T00:00	2900	719	-2.7	-4.4	302	3	
2025-10-01T00:00	2920	717	-2.8	-4.6	304	3	
2025-10-01T00:00	2940	715	-3.0	-4.7	306	4	
2025-10-01T00:00	2960	713	-3.1	-4.9	307	4	
2025-10-01T00:00	2980	711	-3.2	-5.3	309	4	
2025-10-01T00:00	3000	710	-3.4	-5.5	311	4	
2025-10-01T00:00	3020	708	-3.5	-5.6	313	4	
2025-10-01T00:00	3040	706	-3.7	-5.7	315	4	
2025-10-01T00:00	3060	704	-3.8	-5.9	317	5	
2025-10-01T00:00	3080	703	-4.0	-5.9	320	5	
2025-10-01T00:00	3100	701	-4.2	-6.0	322	4	
2025-10-01T00:00	3120	699	-4.3	-6.3	322	4	
2025-10-01T00:00	3140	697	-4.4	-6.8	323	4	
2025-10-01T00:00	3160	696	-4.5	-6.7	324	4	
2025-10-01T00:00	3180	694	-4.8	-6.7	325	4	
2025-10-01T00:00	3200	692	-4.9	-6.8	326	5	
2025-10-01T00:00	3220	690	-5.0	-7.3	328	5	
2025-10-01T00:00	3240	688	-5.1	-7.8	329	6	
2025-10-01T00:00	3260	687	-5.1	-8.0	330	6	
2025-10-01T00:00	3280	685	-5.1	-8.6	332	6	
2025-10-01T00:00	3300	683	-5.1	-9.1	333	7	
2025-10-01T00:00	3320	681	-5.1	-9.2	334	7	
2025-10-01T00:00	3340	680	-5.3	-9.1	336	7	
2025-10-01T00:00	3360	678	-5.4	-9.1	337	7	
2025-10-01T00:00	3380	676	-5.5	-9.1	338	7	
2025-10-01T00:00	3400	674	-5.7	-9.1	339	8	
2025-10-01T00:00	3420	673	-5.8	-9.0	340	8	
2025-10-01T00:00	3440	671	-6.0	-9.2	341	9	
2025-10-01T00:00	3460	669	-6.0	-11.0	342	9	
2025-10-01T00:00	3480	668	-5.7	-19.4	343	9	
2025-10-01T00:00	3500	666	-5.5	-27.2	345	10	
2025-10-01T00:00	3520	664	-5.7	-28.6	347	10	
2025-10-01T00:00	3540	663	-5.8	-32.0	348	10	
2025-10-01T00:00	3560	661	-5.9	-33.7	350	11	
2025-10-01T00:00	3580	659	-6.0	-33.8	350	11	
2025-10-01T00:00	3600	657	-6.1	-33.8	351	11	
2025-10-01T00:00	3620	656	-6.3	-33.8	352	12	
2025-10-01T00:00	3640	654	-6.4	-33.8	352	12	
2025-10-01T00:00	3660	653	-6.6	-33.5	352	12	
2025-10-01T00:00	3680	651	-6.7	-33.3	352	12	
2025-10-01T00:00	3700	649	-6.9	-33.4	352	12	
2025-10-01T00:00	3720	648	-7.0	-33.7	352	12	
2025-10-01T00:00	3740	646	-7.1	-33.8	351	12	
2025-10-01T00:00	3760	644	-7.2	-33.9	350	12	
2025-10-01T00:00	3780	643	-7.4	-34.0	349	12	
2025-10-01T00:00	3800	641	-7.5	-34.2	347	12	
2025-10-01T00:00	3820	639	-7.5	-34.7	346	12	
2025-10-01T00:00	3840	638	-7.4	-35.9	345	12	
2025-10-01T00:00	3860	636	-7.3	-37.3	344	12	
2025-10-01T00:00	3880	634	-7.2	-37.2	344	12	
2025-10-01T00:00	3900	633	-7.2	-36.7	345	13	
2025-10-01T00:00	3920	631	-7.3	-36.9	346	13	
2025-10-01T00:00	3940	630	-7.3	-37.1	347	14	
2025-10-01T00:00	3960	628	-7.3	-37.7	348	14	
2025-10-01T00:00	3980	626	-7.2	-39.3	350	15	
2025-10-01T00:00	4000	625	-7.1	-40.4	350	15	
2025-10-01T00:00	4020	623	-7.1	-41.0	350	16	
2025-10-01T00:00	4040	621	-7.2	-41.7	349	16	
2025-10-01T00:00	4060	620	-7.3	-42.1	349	16	
2025-10-01T00:00	4080	618	-7.2	-42.9	348	16	
2025-10-01T00:00	4100	617	-7.1	-42.2	346	16	
2025-10-01T00:00	4120	615	-7.2	-39.3	345	16	
2025-10-01T00:00	4140	614	-7.2	-34.9	343	16	
2025-10-01T00:00	4160	612	-7.2	-31.6	342	16	
2025-10-01T00:00	4180	610	-7.2	-31.9	342	16	
2025-10-01T00:00	4200	609	-7.2	-32.5	342	15	
2025-10-01T00:00	4220	607	-7.3	-31.5	343	16	
2025-10-01T00:00	4240	606	-7.5	-31.9	344	16	
2025-10-01T00:00	4260	604	-7.5	-31.4	344	16	
2025-10-01T00:00	4280	602	-7.7	-28.9	345	16	
2025-10-01T00:00	4300	601	-7.8	-28.0	345	16	
2025-10-01T00:00	4320	600	-7.9	-23.0	346	16	
2025-10-01T00:00	4340	598	-8.2	-20.4	346	16	
2025-10-01T00:00	4360	596	-8.3	-18.0	346	16	
2025-10-01T00:00	4380	595	-8.5	-17.0	347	16	
2025-10-01T00:00	4400	593	-8.6	-16.9	347	17	
2025-10-01T00:00	4420	592	-8.7	-16.2	347	17	
2025-10-01T00:00	4440	590	-8.8	-16.1	347	17	
2025-10-01T00:00	4460	589	-8.9	-16.2	347	18	
2025-10-01T00:00	4480	587	-9.0	-16.4	346	18	
2025-10-01T00:00	4500	586	-9.2	-16.6	345	18	
2025-10-01T00:00	4520	584	-9.4	-16.7	344	18	
2025-10-01T00:00	4540	583	-9.6	-16.8	343	17	
2025-10-01T00:00	4560	581	-9.7	-17.1	342	17	
2025-10-01T00:00	4580	580	-9.9	-17.0	342	17	
2025-10-01T00:00	4600	578	-10.1	-17.0	341	17	
2025-10-01T00:00	4620	577	-10.3	-17.0	341	17	
2025-10-01T00:00	4640	575	-10.4	-17.1	340	17	
2025-10-01T00:00	4660	574	-10.5	-17.6	339	17	
2025-10-01T00:00	4680	572	-10.6	-17.8	339	18	
2025-10-01T00:00	4700	571	-10.8	-18.1	339	18	
2025-10-01T00:00	4720	569	-10.9	-18.8	339	18	
2025-10-01T00:00	4740	568	-11.0	-19.5	339	18	
2025-10-01T00:00	4760	566	-11.1	-20.2	340	18	
2025-10-01T00:00	4780	565	-11.1	-20.4	341	18	
2025-10-01T00:00	4800	563	-11.2	-20.1	342	19	
2025-10-01T00:00	4820	562	-11.4	-20.1	344	19	
2025-10-01T00:00	4840	560	-11.6	-19.9	345	20	
2025-10-01T00:00	4860	559	-11.8	-19.8	346	20	
2025-10-01T00:00	4880	557	-12.0	-19.7	346	20	
2025-10-01T00:00	4900	556	-12.2	-19.5	347	20	
2025-10-01T00:00	4920	554	-12.4	-19.2	346	20	
2025-10-01T00:00	4940	553	-12.6	-19.1	346	19	
2025-10-01T00:00	4960	552	-12.7	-18.9	345	19	
2025-10-01T00:00	4980	550	-12.9	-18.6	344	19	
2025-10-01T00:00	5000	549	-13.0	-18.9	343	18	
2025-10-01T00:00	5020	547	-13.2	-18.5	342	18	
2025-10-01T00:00	5040	546	-13.4	-18.1	341	18	
2025-10-01T00:00	5060	544	-13.6	-17.9	340	18	
2025-10-01T00:00	5080	543	-13.7	-18.0	339	17	
2025-10-01T00:00	5100	541	-13.8	-18.3	337	17	
2025-10-01T00:00	5120	540	-14.0	-18.4	336	17	
2025-10-01T00:00	5140	539	-14.1	-18.5	335	17	
2025-10-01T00:00	5160	537	-14.2	-18.8	334	17	
2025-10-01T00:00	5180	536	-14.2	-19.9	334	17	
2025-10-01T00:00	5200	535	-14.3	-19.4	333	17	
2025-10-01T00:00	5220	533	-14.5	-19.0	333	17	
2025-10-01T00:00	5240	532	-14.7	-18.9	334	16	
2025-10-01T00:00	5260	530	-14.8	-19.0	334	16	
2025-10-01T00:00	5280	529	-14.7	-19.7	335	16	
2025-10-01T00:00	5300	528	-14.5	-20.5	335	16	
2025-10-01T00:00	5320	526	-14.5	-21.0	336	16	
2025-10-01T00:00	5340	525	-14.4	-22.4	336	16	
2025-10-01T00:00	5360	523	-14.5	-22.7	337	16	
2025-10-01T00:00	5380	522	-14.6	-22.9	338	16	
2025-10-01T00:00	5400	521	-14.7	-23.2	338	17	
2025-10-01T00:00	5420	519	-14.7	-24.4	339	17	
2025-10-01T00:00	5440	518	-14.8	-25.7	340	18	
2025-10-01T00:00	5460	517	-14.8	-29.4	340	18	
2025-10-01T00:00	5480	515	-14.8	-36.9	340	19	
2025-10-01T00:00	5500	514	-14.8	-39.2	340	19	
2025-10-01T00:00	5520	512	-14.8	-35.8	339	19	
2025-10-01T00:00	5540	511	-15.0	-34.0	338	19	
2025-10-01T00:00	5560	510	-15.2	-33.1	338	19	
2025-10-01T00:00	5580	508	-15.3	-33.0	338	19	
2025-10-01T00:00	5600	507	-15.5	-31.1	338	19	
2025-10-01T00:00	5620	505	-15.8	-29.4	339	18	
2025-10-01T00:00	5640	504	-15.9	-28.6	340	18	
2025-10-01T00:00	5660	503	-16.1	-26.9	341	18	
2025-10-01T00:00	5680	502	-16.3	-26.0	342	18	
2025-10-01T00:00	5700	500	-16.5	-26.2	343	18	
2025-10-01T00:00	5720	499	-16.7	-26.2	343	18	
2025-10-01T00:00	5740	498	-16.9	-26.4	343	17	
2025-10-01T00:00	5760	496	-17.0	-26.4	342	17	
2025-10-01T00:00	5780	495	-17.2	-26.4	342	17	
2025-10-01T00:00	5800	494	-17.4	-26.4	342	17	
2025-10-01T00:00	5820	492	-17.6	-26.6	342	17	
2025-10-01T00:00	5840	491	-17.8	-27.2	343	18	
2025-10-01T00:00	5860	490	-17.9	-27.8	343	18	
2025-10-01T00:00	5880	488	-18.0	-28.2	343	18	
2025-10-01T00:00	5900	487	-18.2	-28.7	343	18	
2025-10-01T00:00	5920	486	-18.3	-29.5	343	18	
2025-10-01T00:00	5940	485	-18.4	-30.3	342	18	
2025-10-01T00:00	5960	483	-18.6	-30.1	342	18	
2025-10-01T00:00	5980	482	-18.8	-30.1	342	18	
2025-10-01T00:00	6000	481	-18.9	-29.6	342	18	
2025-10-01T00:00	6020	479	-19.1	-29.0	342	18	
2025-10-01T00:00	6040	478	-19.3	-28.6	342	18	
2025-10-01T00:00	6060	477	-19.4	-28.5	342	18	
2025-10-01T00:00	6080	475	-19.5	-29.3	342	19	
2025-10-01T00:00	6100	474	-19.6	-30.5	342	19	
2025-10-01T00:00	6120	473	-19.7	-31.4	341	19	
2025-10-01T00:00	6140	472	-19.9	-31.5	340	20	
2025-10-01T00:00	6160	470	-20.0	-31.9	339	20	
2025-10-01T00:00	6180	469	-20.2	-32.7	338	21	
2025-10-01T00:00	6200	468	-20.3	-33.4	337	21	
2025-10-01T00:00	6220	467	-20.4	-34.0	337	21	
2025-10-01T00:00	6240	465	-20.6	-34.7	337	21	
2025-10-01T00:00	6260	464	-20.7	-35.2	337	21	
2025-10-01T00:00	6280	463	-20.7	-35.9	337	21	
2025-10-01T00:00	6300	462	-20.8	-36.0	337	21	
2025-10-01T00:00	6320	460	-21.0	-36.1	337	21	
2025-10-01T00:00	6340	459	-21.2	-36.1	338	21	
2025-10-01T00:00	6360	458	-21.4	-36.1	338	21	
2025-10-01T00:00	6380	457	-21.6	-36.1	338	21	
2025-10-01T00:00	6400	455	-21.8	-36.2	338	21	
2025-10-01T00:00	6420	454	-21.9	-36.3	338	21	
2025-10-01T00:00	6440	453	-22.1	-36.5	337	21	
2025-10-01T00:00	6460	452	-22.2	-36.8	337	21	
2025-10-01T00:00	6480	451	-22.4	-36.9	337	21	
2025-10-01T00:00	6500	449	-22.5	-37.1	336	21	
2025-10-01T00:00	6520	448	-22.7	-37.7	335	21	
2025-10-01T00:00	6540	447	-22.9	-37.7	335	21	
2025-10-01T00:00	6560	446	-23.0	-37.8	334	21	
2025-10-01T00:00	6580	444	-23.2	-37.9	334	21	
2025-10-01T00:00	6600	443	-23.4	-38.0	334	21	
2025-10-01T00:00	6620	442	-23.5	-38.0	333	21	
2025-10-01T00:00	6640	441	-23.6	-38.1	333	22	
2025-10-01T00:00	6660	440	-23.8	-38.0	332	22	
2025-10-01T00:00	6680	438	-24.0	-38.0	332	22	
2025-10-01T00:00	6700	437	-24.2	-38.0	331	22	
2025-10-01T00:00	6720	436	-24.4	-37.9	331	22	
2025-10-01T00:00	6740	435	-24.5	-37.8	331	22	
2025-10-01T00:00	6760	434	-24.7	-37.9	331	22	
2025-10-01T00:00	6780	432	-24.9	-37.8	332	22	
2025-10-01T00:00	6800	431	-25.1	-37.8	332	21	
2025-10-01T00:00	6820	430	-25.3	-38.0	333	22	
2025-10-01T00:00	6840	429	-25.4	-38.2	334	21	
2025-10-01T00:00	6860	428	-25.6	-38.5	334	21	
2025-10-01T00:00	6880	426	-25.8	-38.7	335	21	
2025-10-01T00:00	6900	425	-26.0	-38.6	335	21	
2025-10-01T00:00	6920	424	-26.2	-38.6	335	21	
2025-10-01T00:00	6940	423	-26.4	-38.5	334	20	
2025-10-01T00:00	6960	422	-26.6	-38.5	334	20	
2025-10-01T00:00	6980	420	-26.7	-38.5	334	20	
2025-10-01T00:00	7000	419	-26.9	-38.8	334	20	
2025-10-01T00:00	7020	418	-27.0	-39.3	334	20	
2025-10-01T00:00	7040	417	-27.2	-40.2	334	20	
2025-10-01T00:00	7060	416	-27.4	-40.3	335	20	
2025-10-01T00:00	7080	415	-27.6	-40.2	335	20	
2025-10-01T00:00	7100	414	-27.7	-40.2	334	20	
2025-10-01T00:00	7120	413	-27.9	-40.4	334	20	
2025-10-01T00:00	7140	411	-28.1	-40.4	333	20	
2025-10-01T00:00	7160	410	-28.3	-40.6	331	20	
2025-10-01T00:00	7180	409	-28.5	-40.9	330	21	
2025-10-01T00:00	7200	408	-28.7	-41.5	329	21	
2025-10-01T00:00	7220	407	-28.9	-41.6	328	21	
2025-10-01T00:00	7240	406	-29.0	-41.7	327	21	
2025-10-01T00:00	7260	405	-29.2	-42.3	326	21	
2025-10-01T00:00	7280	403	-29.3	-43.5	325	21	
2025-10-01T00:00	7300	402	-29.4	-44.8	324	21	
2025-10-01T00:00	7320	401	-29.5	-45.0	324	21	
2025-10-01T00:00	7340	400	-29.7	-45.5	324	21	
2025-10-01T00:00	7360	399	-29.8	-46.3	325	21	
2025-10-01T00:00	7380	398	-29.9	-47.0	325	21	
2025-10-01T00:00	7400	397	-30.0	-48.2	326	21	
2025-10-01T00:00	7420	396	-30.1	-48.8	327	22	
2025-10-01T00:00	7440	395	-30.3	-49.1	328	22	
2025-10-01T00:00	7460	393	-30.4	-49.7	328	22	
2025-10-01T00:00	7480	392	-30.6	-50.4	329	22	
2025-10-01T00:00	7500	391	-30.7	-50.6	329	23	
2025-10-01T00:00	7520	390	-30.9	-50.7	330	23	
2025-10-01T00:00	7540	389	-31.1	-50.8	330	23	
2025-10-01T00:00	7560	388	-31.2	-51.1	330	23	
2025-10-01T00:00	7580	387	-31.3	-51.4	331	24	
2025-10-01T00:00	7600	386	-31.4	-51.4	331	24	
2025-10-01T00:00	7620	384	-31.5	-51.7	331	24	
2025-10-01T00:00	7640	383	-31.6	-52.4	332	25	
2025-10-01T00:00	7660	382	-31.8	-52.8	332	25	
2025-10-01T00:00	7680	381	-31.9	-53.0	332	26	
2025-10-01T00:00	7700	380	-32.0	-53.5	332	26	
2025-10-01T00:00	7720	379	-32.2	-53.8	331	26	
2025-10-01T00:00	7740	378	-32.3	-53.7	331	27	
2025-10-01T00:00	7760	377	-32.5	-53.7	330	27	
2025-10-01T00:00	7780	376	-32.6	-53.3	329	27	
2025-10-01T00:00	7800	375	-32.7	-52.8	328	27	
2025-10-01T00:00	7820	374	-32.8	-52.3	328	27	
2025-10-01T00:00	7840	373	-33.0	-52.0	327	27	
2025-10-01T00:00	7860	372	-33.2	-51.9	327	28	
2025-10-01T00:00	7880	371	-33.3	-51.8	327	28	
2025-10-01T00:00	7900	370	-33.5	-51.6	327	28	
2025-10-01T00:00	7920	368	-33.6	-51.3	327	28	
2025-10-01T00:00	7940	367	-33.7	-51.0	327	28	
2025-10-01T00:00	7960	366	-33.8	-50.5	327	28	
2025-10-01T00:00	7980	365	-34.0	-50.5	327	28	
2025-10-01T00:00	8000	364	-34.2	-50.6	327	28	
2025-10-01T00:00	8020	363	-34.4	-50.8	327	28	
2025-10-01T00:00	8040	362	-34.5	-51.0	327	28	
2025-10-01T00:00	8060	361	-34.7	-51.1	327	28	
2025-10-01T00:00	8080	360	-34.9	-50.8	327	28	
2025-10-01T00:00	8100	359	-35.0	-50.6	326	28	
2025-10-01T00:00	8120	358	-35.2	-50.7	326	28	
2025-10-01T00:00	8140	357	-35.4	-50.5	326	29	
2025-10-01T00:00	8160	356	-35.6	-50.4	325	29	
2025-10-01T00:00	8180	355	-35.8	-50.0	325	29	
2025-10-01T00:00	8200	354	-36.0	-50.2	324	29	
2025-10-01T00:00	8220	353	-36.1	-50.2	323	29	
2025-10-01T00:00	8240	352	-36.3	-50.3	323	28	
2025-10-01T00:00	8260	351	-36.5	-50.4	322	28	
2025-10-01T00:00	8280	350	-36.7	-50.2	322	28	
2025-10-01T00:00	8300	349	-36.9	-49.8	322	28	
2025-10-01T00:00	8320	348	-37.1	-49.7	323	28	
2025-10-01T00:00	8340	347	-37.3	-49.7	323	28	
2025-10-01T00:00	8360	346	-37.5	-49.7	323	28	
2025-10-01T00:00	8380	345	-37.7	-49.7	324	28	
2025-10-01T00:00	8400	344	-37.9	-49.6	324	29	
2025-10-01T00:00	8420	343	-38.1	-49.6	324	29	
2025-10-01T00:00	8440	342	-38.2	-49.6	323	29	
2025-10-01T00:00	8460	341	-38.4	-49.6	322	29	
2025-10-01T00:00	8480	340	-38.6	-49.7	322	29	
2025-10-01T00:00	8500	339	-38.8	-49.8	321	29	
2025-10-01T00:00	8520	338	-38.9	-49.9	320	29	
2025-10-01T00:00	8540	337	-39.1	-50.5	320	29	
2025-10-01T00:00	8560	336	-39.2	-51.6	320	29	
2025-10-01T00:00	8580	335	-39.4	-51.9	320	29	
2025-10-01T00:00	8600	334	-39.5	-51.9	321	29	
2025-10-01T00:00	8620	333	-39.7	-51.5	321	29	
2025-10-01T00:00	8640	332	-39.9	-51.1	321	29	
2025-10-01T00:00	8660	331	-40.1	-51.1	321	29	
2025-10-01T00:00	8680	330	-40.3	-51.4	321	28	
2025-10-01T00:00	8700	329	-40.4	-51.4	321	28	
2025-10-01T00:00	8720	328	-40.7	-51.3	320	28	
2025-10-01T00:00	8740	327	-40.9	-51.4	320	28	
2025-10-01T00:00	8760	326	-41.0	-51.6	320	28	
2025-10-01T00:00	8780	325	-41.2	-51.7	319	28	
2025-10-01T00:00	8800	324	-41.4	-51.7	319	28	
2025-10-01T00:00	8820	323	-41.6	-51.7	319	28	
2025-10-01T00:00	8840	323	-41.8	-51.8	319	28	
2025-10-01T00:00	8860	322	-42.0	-51.9	319	28	
2025-10-01T00:00	8880	321	-42.2	-51.9	319	28	
2025-10-01T00:00	8900	320	-42.4	-51.9	320	28	
2025-10-01T00:00	8920	319	-42.6	-52.0	320	28	
2025-10-01T00:00	8940	318	-42.8	-52.1	320	28	
2025-10-01T00:00	8960	317	-43.0	-52.3	320	29	
2025-10-01T00:00	8980	316	-43.1	-52.4	320	29	
2025-10-01T00:00	9000	315	-43.3	-52.5	320	29	
2025-10-01T00:00	9020	314	-43.5	-52.9	320	29	
2025-10-01T00:00	9040	313	-43.7	-53.4	321	29	
2025-10-01T00:00	9060	312	-43.8	-53.8	321	29	
2025-10-01T00:00	9080	311	-44.0	-54.2	322	29	
2025-10-01T00:00	9100	310	-44.1	-54.3	323	30	
2025-10-01T00:00	9120	309	-44.3	-54.7	323	30	
2025-10-01T00:00	9140	308	-44.4	-54.9	323	30	
2025-10-01T00:00	9160	307	-44.6	-55.1	324	30	
2025-10-01T00:00	9180	307	-44.7	-55.3	324	29	
2025-10-01T00:00	9200	306	-44.8	-56.0	324	29	
2025-10-01T00:00	9220	305	-44.9	-56.9	324	29	
2025-10-01T00:00	9240	304	-45.0	-57.6	324	29	
2025-10-01T00:00	9260	303	-45.1	-58.1	324	29	
2025-10-01T00:00	9280	302	-45.1	-58.7	324	29	
2025-10-01T00:00	9300	301	-45.2	-59.3	324	29	
2025-10-01T00:00	9320	300	-45.3	-59.7	324	29	
2025-10-01T00:00	9340	299	-45.3	-60.1	324	29	
2025-10-01T00:00	9360	298	-45.4	-60.6	325	29	
2025-10-01T00:00	9380	298	-45.5	-61.0	325	29	
2025-10-01T00:00	9400	297	-45.7	-61.3	325	28	
2025-10-01T00:00	9420	296	-45.8	-61.6	325	28	
2025-10-01T00:00	9440	295	-45.8	-62.1	325	28	
2025-10-01T00:00	9460	294	-45.9	-62.5	326	28	
2025-10-01T00:00	9480	293	-45.9	-62.8	326	28	
2025-10-01T00:00	9500	292	-46.0	-62.9	326	28	
2025-10-01T00:00	9520	291	-46.1	-62.8	326	28	
2025-10-01T00:00	9540	290	-46.2	-62.6	326	28	
2025-10-01T00:00	9560	289	-46.3	-62.6	327	28	
2025-10-01T00:00	9580	289	-46.4	-62.9	327	28	
2025-10-01T00:00	9600	288	-46.5	-63.2	327	28	
2025-10-01T00:00	9620	287	-46.7	-63.4	327	28	
2025-10-01T00:00	9640	286	-46.9	-63.4	328	28	
2025-10-01T00:00	9660	285	-47.0	-63.4	327	28	
2025-10-01T00:00	9680	284	-47.2	-63.4	327	27	
2025-10-01T00:00	9700	283	-47.3	-63.2	327	27	
2025-10-01T00:00	9720	283	-47.4	-63.1	326	27	
2025-10-01T00:00	9740	282	-47.4	-63.1	326	27	
2025-10-01T00:00	9760	281	-47.4	-63.1	325	26	
2025-10-01T00:00	9780	280	-47.5	-63.2	324	26	
2025-10-01T00:00	9800	279	-47.7	-63.2	324	26	
2025-10-01T00:00	9820	278	-47.8	-63.2	323	27	
2025-10-01T00:00	9840	278	-47.9	-63.2	323	27	
2025-10-01T00:00	9860	277	-48.1	-63.2	323	27	
2025-10-01T00:00	9880	276	-48.1	-63.5	323	27	
2025-10-01T00:00	9900	275	-48.2	-63.8	323	28	
2025-10-01T00:00	9920	274	-48.3	-64.0	323	28	
2025-10-01T00:00	9940	273	-48.3	-64.0	323	28	
2025-10-01T00:00	9960	273	-48.4	-64.0	324	27	
2025-10-01T00:00	9980	272	-48.5	-64.1	324	27	
2025-10-01T00:00	10000	271	-48.5	-64.3	325	27	
2025-10-01T00:00	10018	270	-48.7	-64.4	326	27	
2025-10-01T00:00	10050	269	-48.8	-64.7	327	27	
2025-10-01T00:00	10100	267	-48.9	-65.3	329	26	
2025-10-01T00:00	10150	265	-48.9	-66.0	328	26	
2025-10-01T00:00	10200	263	-49.0	-66.6	327	25	
2025-10-01T00:00	10250	261	-49.1	-67.0	326	25	
2025-10-01T00:00	10300	259	-49.2	-67.3	327	25	
2025-10-01T00:00	10350	257	-49.3	-67.6	327	26	
2025-10-01T00:00	10400	255	-49.4	-68.0	326	26	
2025-10-01T00:00	10450	253	-49.5	-68.5	324	25	
2025-10-01T00:00	10500	251	-49.7	-68.6	323	25	
2025-10-01T00:00	10550	249	-49.9	-68.9	323	25	
2025-10-01T00:00	10600	247	-50.2	-69.1	323	25	
2025-10-01T00:00	10650	245	-50.6	-69.4	323	25	
2025-10-01T00:00	10700	243	-50.8	-69.6	325	26	
2025-10-01T00:00	10750	242	-51.1	-69.9	326	26	
2025-10-01T00:00	10800	240	-51.4	-70.1	326	26	
2025-10-01T00:00	10850	238	-51.6	-70.5	327	26	
2025-10-01T00:00	10900	236	-51.3	-71.0	328	26	
2025-10-01T00:00	10950	234	-51.5	-71.3	328	26	
2025-10-01T00:00	11000	232	-51.6	-71.5	327	26	
2025-10-01T00:00	11050	231	-51.8	-71.9	325	25	
2025-10-01T00:00	11100	229	-51.8	-72.2	324	24	
2025-10-01T00:00	11150	227	-51.9	-72.2	324	24	
2025-10-01T00:00	11200	225	-52.2	-72.1	324	23	
2025-10-01T00:00	11250	224	-52.6	-72.1	325	23	
2025-10-01T00:00	11300	222	-52.8	-72.1	325	24	
2025-10-01T00:00	11350	220	-53.0	-72.2	324	24	
2025-10-01T00:00	11400	219	-53.2	-72.4	323	24	
2025-10-01T00:00	11450	217	-53.3	-72.5	323	25	
2025-10-01T00:00	11500	215	-53.3	-72.4	324	25	
2025-10-01T00:00	11550	213	-53.3	-72.2	324	25	
2025-10-01T00:00	11600	212	-53.5	-72.1	324	25	
2025-10-01T00:00	11650	210	-53.4	-72.1	323	24	
2025-10-01T00:00	11700	208	-53.6	-72.7	322	24	
2025-10-01T00:00	11750	207	-53.6	-73.2	322	24	
2025-10-01T00:00	11800	205	-53.9	-73.3	321	24	
2025-10-01T00:00	11850	204	-54.2	-73.4	321	24	
2025-10-01T00:00	11900	202	-54.4	-73.7	321	24	
2025-10-01T00:00	11950	201	-54.6	-74.1	321	24	
2025-10-01T00:00	12000	199	-54.6	-74.5	321	23	
2025-10-01T00:00	12050	198	-54.6	-74.8	322	23	
2025-10-01T00:00	12100	196	-54.6	-75.3	323	23	
2025-10-01T00:00	12150	194	-54.4	-76.0	324	22	
2025-10-01T00:00	12200	193	-54.4	-76.3	324	21	
2025-10-01T00:00	12250	191	-54.4	-76.2	323	21	
2025-10-01T00:00	12300	190	-54.4	-76.2	322	21	
2025-10-01T00:00	12350	188	-54.5	-76.3	321	21	
2025-10-01T00:00	12400	187	-54.5	-76.6	320	22	
2025-10-01T00:00	12450	186	-54.6	-76.8	319	22	
2025-10-01T00:00	12500	184	-54.7	-77.2	318	22	
2025-10-01T00:00	12550	183	-54.7	-77.4	318	22	
2025-10-01T00:00	12600	181	-54.9	-77.6	320	23	
2025-10-01T00:00	12650	180	-55.0	-77.8	320	24	
2025-10-01T00:00	12700	178	-54.8	-78.0	320	23	
2025-10-01T00:00	12750	177	-55.0	-78.2	319	23	
2025-10-01T00:00	12800	176	-55.3	-78.4	316	24	
2025-10-01T00:00	12850	174	-55.4	-78.5	314	24	
2025-10-01T00:00	12900	173	-55.4	-78.8	312	25	
2025-10-01T00:00	12950	172	-55.2	-78.9	312	25	
2025-10-01T00:00	13000	170	-55.2	-79.1	315	25	
2025-10-01T00:00	13050	169	-55.2	-79.2	316	24	
2025-10-01T00:00	13100	168	-55.0	-79.3	315	23	
2025-10-01T00:00	13150	166	-54.8	-79.5	312	22	
2025-10-01T00:00	13200	165	-54.9	-79.5	311	23	
2025-10-01T00:00	13250	164	-54.9	-79.5	311	23	
2025-10-01T00:00	13300	162	-55.2	-79.6	312	24	
2025-10-01T00:00	13350	161	-55.5	-79.7	312	25	
2025-10-01T00:00	13400	160	-55.8	-79.7	312	25	
2025-10-01T00:00	13450	159	-56.3	-79.8	313	26	
2025-10-01T00:00	13500	157	-56.7	-79.9	316	26	
2025-10-01T00:00	13550	156	-57.0	-80.0	319	27	
2025-10-01T00:00	13600	155	-57.1	-80.2	322	27	
2025-10-01T00:00	13650	154	-57.2	-80.3	326	27	
2025-10-01T00:00	13700	152	-57.3	-80.5	330	26	
2025-10-01T00:00	13750	151	-57.5	-80.7	333	24	
2025-10-01T00:00	13800	150	-57.4	-80.8	336	22	
2025-10-01T00:00	13850	149	-57.6	-81.0	337	21	
2025-10-01T00:00	13900	148	-58.0	-81.1	336	20	
2025-10-01T00:00	13950	146	-58.3	-81.4	335	18	
2025-10-01T00:00	14000	145	-58.0	-81.5	334	17	
2025-10-01T00:00	14050	144	-57.8	-81.7	333	17	
2025-10-01T00:00	14100	143	-57.8	-82.0	334	17	
2025-10-01T00:00	14150	142	-58.1	-82.2	332	16	
2025-10-01T00:00	14200	141	-58.1	-82.4	329	15	
2025-10-01T00:00	14250	140	-58.1	-82.5	327	14	
2025-10-01T00:00	14300	139	-58.3	-82.5	325	14	
2025-10-01T00:00	14350	138	-58.8	-82.5	323	14	
2025-10-01T00:00	14400	136	-59.2	-82.6	320	14	
2025-10-01T00:00	14450	135	-59.7	-82.6	317	14	
2025-10-01T00:00	14500	134	-59.9	-82.6	314	15	
2025-10-01T00:00	14550	133	-60.0	-82.5	314	15	
2025-10-01T00:00	14600	132	-60.2	-82.6	313	16	
2025-10-01T00:00	14650	131	-60.3	-82.7	311	16	
2025-10-01T00:00	14700	130	-60.2	-82.7	311	17	
2025-10-01T00:00	14750	129	-60.6	-82.9	312	18	
2025-10-01T00:00	14800	128	-60.9	-83.1	313	19	
2025-10-01T00:00	14850	127	-60.9	-83.3	313	19	
2025-10-01T00:00	14900	126	-60.8	-83.4	314	18	
2025-10-01T00:00	14950	125	-60.9	-83.5	312	17	
2025-10-01T00:00	15000	124	-60.5	-83.3	311	16	
2025-10-01T00:00	15050	123	-60.6	-83.2	310	15	
2025-10-01T00:00	15100	122	-60.9	-83.3	312	16	
2025-10-01T00:00	15150	121	-60.9	-83.3	315	17	
2025-10-01T00:00	15200	120	-60.9	-83.7	318	18	
2025-10-01T00:00	15250	119	-60.8	-84.0	320	17	
2025-10-01T00:00	15300	118	-60.7	-84.3	322	17	
2025-10-01T00:00	15350	117	-60.5	-84.3	324	16	
2025-10-01T00:00	15400	116	-60.3	-84.2	323	15	
2025-10-01T00:00	15450	115	-60.6	-84.3	320	14	
2025-10-01T00:00	15500	114	-60.9	-84.3	316	15	
2025-10-01T00:00	15550	113	-61.1	-84.2	315	16	
2025-10-01T00:00	15600	112	-61.0	-84.0	317	16	
2025-10-01T00:00	15650	112	-60.4	-83.7	318	16	
2025-10-01T00:00	15700	111	-60.1	-83.7	314	16	
2025-10-01T00:00	15750	110	-59.9	-83.8	312	15	
2025-10-01T00:00	15800	109	-59.7	-83.8	313	15	
2025-10-01T00:00	15850	108	-59.6	-84.1	316	15	
2025-10-01T00:00	15900	107	-59.0	-84.1	316	15	
2025-10-01T00:00	15950	106	-58.8	-84.3	317	15	
2025-10-01T00:00	16000	106	-58.6	-84.4	320	14	
2025-10-01T00:00	16050	105	-58.4	-84.2	324	12	
2025-10-01T00:00	16100	104	-58.5	-84.2	328	11	
2025-10-01T00:00	16150	103	-58.6	-84.3	327	10	
2025-10-01T00:00	16200	102	-58.5	-84.3	321	9	
2025-10-01T00:00	16250	101	-58.5	-84.3	313	9	
2025-10-01T00:00	16300	101	-58.9	-84.4	304	8	
2025-10-01T00:00	16350	100	-59.3	-84.4	294	8	
2025-10-01T00:00	16400	99	-59.6	-84.5	289	8	
2025-10-01T00:00	16450	98	-60.0	-84.6	288	9	
2025-10-01T00:00	16500	97	-60.4	-84.7	290	9	
2025-10-01T00:00	16550	97	-60.6	-84.8	295	10	
2025-10-01T00:00	16600	96	-60.9	-85.0	299	10	
2025-10-01T00:00	16650	95	-60.9	-85.1	303	11	
2025-10-01T00:00	16700	94	-61.1	-85.2	306	12	
2025-10-01T00:00	16750	94	-61.2	-85.4	309	13	
2025-10-01T00:00	16800	93	-61.2	-85.5	312	12	
2025-10-01T00:00	16850	92	-61.1	-85.6	314	11	
2025-10-01T00:00	16900	91	-61.3	-85.7	314	10	
2025-10-01T00:00	16950	91	-61.5	-85.7	316	10	
2025-10-01T00:00	17000	90	-61.3	-85.5	320	11	
2025-10-01T00:00	17050	89	-61.3	-85.6	326	12	
2025-10-01T00:00	17100	88	-60.9	-85.7	332	12	
2025-10-01T00:00	17150	88	-60.6	-85.8	333	12	
2025-10-01T00:00	17200	87	-60.3	-85.9	328	11	
2025-10-01T00:00	17250	86	-59.7	-85.7	319	11	
2025-10-01T00:00	17300	86	-59.8	-85.8	312	12	
2025-10-01T00:00	17350	85	-60.0	-85.8	312	13	
2025-10-01T00:00	17400	84	-59.8	-85.6	314	13	
2025-10-01T00:00	17450	84	-59.8	-85.7	316	12	
2025-10-01T00:00	17500	83	-59.8	-85.6	316	12	
2025-10-01T00:00	17550	82	-59.9	-85.6	318	12	
2025-10-01T00:00	17600	82	-60.0	-85.7	321	12	
2025-10-01T00:00	17650	81	-60.2	-85.8	324	11	
2025-10-01T00:00	17700	80	-60.1	-85.8	324	10	
2025-10-01T00:00	17750	80	-60.2	-85.9	320	9	
2025-10-01T00:00	17800	79	-60.2	-86.1	311	8	
2025-10-01T00:00	17850	78	-59.9	-86.1	298	7	
2025-10-01T00:00	17900	78	-59.2	-85.8	286	6	
2025-10-01T00:00	17950	77	-59.4	-85.9	282	6	
2025-10-01T00:00	18000	77	-59.6	-86.1	284	6	
2025-10-01T00:00	18050	76	-59.0	-85.9	292	7	
2025-10-01T00:00	18100	75	-59.0	-85.9	299	8	
2025-10-01T00:00	18150	75	-59.1	-85.8	302	9	
2025-10-01T00:00	18200	74	-59.2	-85.9	306	10	
2025-10-01T00:00	18250	74	-59.1	-85.9	310	10	
2025-10-01T00:00	18300	73	-59.1	-85.9	311	11	
2025-10-01T00:00	18350	72	-59.2	-86.0	311	11	
2025-10-01T00:00	18400	72	-59.0	-86.0	314	11	
2025-10-01T00:00	18450	71	-58.7	-85.9	320	10	
2025-10-01T00:00	18500	71	-58.9	-86.0	327	9	
2025-10-01T00:00	18550	70	-58.9	-85.9	332	8	
2025-10-01T00:00	18600	70	-58.9	-85.9	330	8	
2025-10-01T00:00	18650	69	-58.7	-85.8	326	9	
2025-10-01T00:00	18700	68	-58.6	-85.9	324	10	
2025-10-01T00:00	18750	68	-58.7	-85.9	326	10	
2025-10-01T00:00	18800	67	-58.8	-85.9	330	9	
2025-10-01T00:00	18850	67	-58.7	-85.8	334	8	
2025-10-01T00:00	18900	66	-59.0	-85.8	338	6	
2025-10-01T00:00	18950	66	-59.2	-85.9	338	5	
2025-10-01T00:00	19000	65	-59.2	-85.9	330	4	
2025-10-01T00:00	19050	65	-59.4	-86.0	318	4	
2025-10-01T00:00	19100	64	-59.6	-86.2	314	5	
2025-10-01T00:00	19150	64	-59.4	-86.2	317	6	
2025-10-01T00:00	19200	63	-59.0	-86.1	324	7	
2025-10-01T00:00	19250	63	-59.3	-86.2	331	8	
2025-10-01T00:00	19300	62	-59.3	-86.1	336	9	
2025-10-01T00:00	19350	62	-59.5	-86.3	333	8	
2025-10-01T00:00	19400	61	-59.3	-86.2	324	8	
2025-10-01T00:00	19450	61	-59.4	-86.1	313	7	
2025-10-01T00:00	19500	60	-59.7	-86.2	301	7	
2025-10-01T00:00	19550	60	-59.9	-86.3	292	8	
2025-10-01T00:00	19600	59	-60.1	-86.7	294	8	
2025-10-01T00:00	19650	59	-59.3	-86.5	300	8	
2025-10-01T00:00	19700	58	-59.0	-86.5	309	8	
2025-10-01T00:00	19750	58	-58.7	-86.3	314	8	
2025-10-01T00:00	19800	57	-58.7	-86.2	311	7	
2025-10-01T00:00	19850	57	-58.5	-86.1	301	6	
2025-10-01T00:00	19900	57	-58.3	-86.2	292	6	
2025-10-01T00:00	19950	56	-58.0	-85.9	291	6	
2025-10-01T00:00	20000	56	-58.1	-85.9	297	7	
2025-10-01T00:00	20050	55	-58.1		306	7	
2025-10-01T00:00	20100	55	-58.2		313	8	
2025-10-01T00:00	20150	54	-58.3		316	8	
2025-10-01T00:00	20200	54	-58.3		315	8	
2025-10-01T00:00	20250	53	-58.4		316	8	
2025-10-01T00:00	20300	53	-58.3		318	8	
2025-10-01T00:00	20350	53	-58.3		321	9	
2025-10-01T00:00	20400	52	-58.4		322	8	
2025-10-01T00:00	20450	52	-58.1		323	8	
2025-10-01T00:00	20500	51	-57.8		323	7	
2025-10-01T00:00	20550	51	-57.8		322	7	
2025-10-01T00:00	20600	51	-57.9		323	6	
2025-10-01T00:00	20650	50	-58.2		324	6	
2025-10-01T00:00	20700	50	-58.5		323	6	
2025-10-01T00:00	20750	49	-58.7		320	6	
2025-10-01T00:00	20800	49	-58.8		318	5	
2025-10-01T00:00	20850	49	-58.8		314	5	
2025-10-01T00:00	20900	48	-58.8		309	5	
2025-10-01T00:00	20950	48	-58.7		305	6	
2025-10-01T00:00	21000	47	-58.3		300	6	
2025-10-01T00:00	21050	47	-58.2		297	6	
2025-10-01T00:00	21100	47	-57.7		295	7	
2025-10-01T00:00	21150	46	-57.6		296	7	
2025-10-01T00:00	21200	46	-57.6		300	7	
2025-10-01T00:00	21250	46	-57.4		306	7	
2025-10-01T00:00	21300	45	-57.6		310	7	
2025-10-01T00:00	21350	45	-57.6		311	7	
2025-10-01T00:00	21400	45	-57.6		312	7	
2025-10-01T00:00	21450	44	-57.7		314	6	
2025-10-01T00:00	21500	44	-57.8		316	5	
2025-10-01T00:00	21550	43	-57.8		316	3	
2025-10-01T00:00	21600	43	-58.0		314	2	
2025-10-01T00:00	21650	43	-58.3		307	1	
2025-10-01T00:00	21700	42	-58.5		281	1	
2025-10-01T00:00	21750	42	-58.8		244	1	
2025-10-01T00:00	21800	42	-59.0		242	2	
2025-10-01T00:00	21850	41	-58.0		254	2	
2025-10-01T00:00	21900	41	-57.9		264	3	
2025-10-01T00:00	21950	41	-58.0		272	3	
2025-10-01T00:00	22000	40	-58.0		276	4	
2025-10-01T00:00	22050	40	-58.3		278	5	
2025-10-01T00:00	22100	40	-58.1		281	5	
2025-10-01T00:00	22150	40	-58.5		284	6	
2025-10-01T00:00	22200	39	-58.8		285	7	
2025-10-01T00:00	22250	39	-59.2		286	8	
2025-10-01T00:00	22300	39	-59.5		290	8	
2025-10-01T00:00	22350	38	-59.3		298	8	
2025-10-01T00:00	22400	38	-59.0		304	8	
2025-10-01T00:00	22450	38	-58.9		303	8	
2025-10-01T00:00	22500	37	-58.7		299	7	
2025-10-01T00:00	22550	37	-58.9		298	6	
2025-10-01T00:00	22600	37	-59.2		302	5	
2025-10-01T00:00	22650	37	-59.4		311	5	
2025-10-01T00:00	22700	36	-59.0		316	5	
2025-10-01T00:00	22750	36	-58.9		314	6	
2025-10-01T00:00	22800	36	-58.9		311	7	
2025-10-01T00:00	22850	35	-58.9		310	7	
2025-10-01T00:00	22900	35	-58.7		311	6	
2025-10-01T00:00	22950	35	-58.9		311	6	
2025-10-01T00:00	23000	35	-58.9		310	6	
2025-10-01T00:00	23050	34	-58.9		308	6	
2025-10-01T00:00	23100	34	-58.9		302	5	
2025-10-01T00:00	23150	34	-58.6		293	5	
2025-10-01T00:00	23200	33	-58.4		285	5	
2025-10-01T00:00	23250	33	-58.5		283	6	
2025-10-01T00:00	23300	33	-58.7		286	6	
2025-10-01T00:00	23350	33	-58.4		293	7	
2025-10-01T00:00	23400	32	-58.0		300	9	
2025-10-01T00:00	23450	32	-57.5		304	10	
2025-10-01T00:00	23500	32	-57.3		308	11	
2025-10-01T00:00	23550	32	-56.8		313	11	
2025-10-01T00:00	23600	31	-56.3		319	11	
2025-10-01T00:00	23650	31	-56.1		326	10	
2025-10-01T00:00	23700	31	-56.2		332	11	
2025-10-01T00:00	23750	31	-56.3		338	11	
2025-10-01T00:00	23800	30	-56.3		343	11	
2025-10-01T00:00	23850	30	-56.0		351	9	
2025-10-01T00:00	23900	30	-55.5		1	7	
2025-10-01T00:00	23950	30	-55.4		10	5	
2025-10-01T00:00	24000	29	-55.1		14	3	
2025-10-01T00:00	24050	29	-54.9		15	2	
2025-10-01T00:00	24100	29	-54.8		35	1	
2025-10-01T00:00	24150	29	-54.8		131	0	
2025-10-01T00:00	24200	29	-55.0		204	1	
2025-10-01T00:00	24250	28	-55.3		222	2	
2025-10-01T00:00	24300	28	-55.7		224	3	
2025-10-01T00:00	24350	28	-56.0		226	4	
2025-10-01T00:00	24400	28	-55.9		229	4	
2025-10-01T00:00	24450	27	-55.9		236	4	
2025-10-01T00:00	24500	27	-55.8		244	3	
2025-10-01T00:00	24550	27	-55.9		251	2	
2025-10-01T00:00	24600	27	-56.1		254	2	
2025-10-01T00:00	24650	27	-56.2		268	2	
2025-10-01T00:00	24700	26	-56.2		287	2	
2025-10-01T00:00	24750	26	-56.2		298	4	
2025-10-01T00:00	24800	26	-56.2		307	4	
2025-10-01T00:00	24850	26	-56.2		317	5	
2025-10-01T00:00	24900	26	-56.1		328	5	
2025-10-01T00:00	24950	25	-56.2		337	5	
2025-10-01T00:00	25000	25	-56.2		345	5	
2025-10-01T00:00	25050	25	-56.2		350	5	
2025-10-01T00:00	25100	25	-56.5		355	4	
2025-10-01T00:00	25150	25	-56.6		357	4	
2025-10-01T00:00	25200	24	-56.5		359	2	
2025-10-01T00:00	25250	24	-56.3		342	1	
2025-10-01T00:00	25300	24	-56.4		261	1	
2025-10-01T00:00	25350	24	-56.6		254	2	
2025-10-01T00:00	25400	24	-56.5		266	2	
2025-10-01T00:00	25450	23	-56.5		274	3	
2025-10-01T00:00	25500	23	-56.7		273	4	
2025-10-01T00:00	25550	23	-56.8		268	4	
2025-10-01T00:00	25600	23	-57.1		267	4	
2025-10-01T00:00	25650	23	-57.0		268	4	
2025-10-01T00:00	25700	23	-57.1		265	4	
2025-10-01T00:00	25750	22	-57.1		259	4	
2025-10-01T00:00	25800	22	-57.1		257	5	
2025-10-01T00:00	25850	22	-57.2		262	6	
2025-10-01T00:00	25900	22	-57.3		269	6	
2025-10-01T00:00	25950	22	-57.3		276	6	
2025-10-01T00:00	26000	22	-57.1		278	5	
2025-10-01T00:00	26050	21	-56.7		277	5	
2025-10-01T00:00	26100	21	-56.5		280	5	
2025-10-01T00:00	26150	21	-56.4		289	5	
2025-10-01T00:00	26200	21	-56.4		300	5	
2025-10-01T00:00	26250	21	-56.2		310	6	
2025-10-01T00:00	26300	21	-56.1		322	5	
2025-10-01T00:00	26350	20	-56.4		333	5	
2025-10-01T00:00	26400	20	-56.5		340	5	
2025-10-01T00:00	26450	20	-56.6		340	5	
2025-10-01T00:00	26500	20	-56.8		330	4	
2025-10-01T00:00	26550	20	-56.9		313	4	
2025-10-01T00:00	26600	20	-57.0		303	5	
2025-10-01T00:00	26650	19	-57.3		299	6	
2025-10-01T00:00	26700	19	-57.7		299	7	
2025-10-01T00:00	26750	19	-58.0		301	7	
2025-10-01T00:00	26800	19	-58.0		303	7	
2025-10-01T00:00	26850	19	-58.0		304	7	
2025-10-01T00:00	26900	19	-57.9		303	6	
2025-10-01T00:00	26950	19	-57.6		300	5	
2025-10-01T00:00	27000	18	-57.0		292	4	
2025-10-01T00:00	27050	18	-56.7		278	4	
2025-10-01T00:00	27100	18	-56.8		269	3	
2025-10-01T00:00	27150	18	-56.3		273	3	
2025-10-01T00:00	27200	18	-56.1		286	4	
2025-10-01T00:00	27250	18	-56.0		297	5	
2025-10-01T00:00	27300	18	-56.0		302	5	
2025-10-01T00:00	27350	17	-55.9		302	5	
2025-10-01T00:00	27400	17	-56.0		297	4	
2025-10-01T00:00	27450	17	-56.1		289	4	
2025-10-01T00:00	27500	17	-56.0		284	3	
2025-10-01T00:00	27550	17	-55.6		281	4	
2025-10-01T00:00	27600	17	-55.3		279	4	
2025-10-01T00:00	27650	17	-55.2		278	4	
2025-10-01T00:00	27700	16	-54.8		275	5	
2025-10-01T00:00	27750	16	-54.7		270	6	
2025-10-01T00:00	27800	16	-54.5		269	7	
2025-10-01T00:00	27850	16	-54.7		273	8	
2025-10-01T00:00	27900	16	-54.5		280	8	
2025-10-01T00:00	27950	16	-54.4		291	7	
2025-10-01T00:00	28000	16	-54.1		304	7	
2025-10-01T00:00	28050	16	-54.3		315	6	
2025-10-01T00:00	28100	15	-54.3		316	5	
2025-10-01T00:00	28150	15	-54.2		303	5	
2025-10-01T00:00	28200	15	-54.0		281	5	
2025-10-01T00:00	28250	15	-53.6		266	6	
2025-10-01T00:00	28300	15	-53.5		260	7	
2025-10-01T00:00	28350	15	-53.5		257	7	
2025-10-01T00:00	28400	15	-53.6		255	7	
2025-10-01T00:00	28450	15	-53.6		252	6	
2025-10-01T00:00	28500	15	-53.7		253	6	
2025-10-01T00:00	28550	14	-53.7		258	6	
2025-10-01T00:00	28600	14	-53.7		269	5	
2025-10-01T00:00	28650	14	-53.8		285	5	
2025-10-01T00:00	28700	14	-53.9		298	5	
2025-10-01T00:00	28750	14	-54.1		305	6	
2025-10-01T00:00	28800	14	-54.1		304	6	
2025-10-01T00:00	28850	14	-54.1		298	6	
2025-10-01T00:00	28900	14	-54.2		291	7	
2025-10-01T00:00	28950	14	-54.5		286	7	
2025-10-01T00:00	29000	13	-54.8		283	6	
2025-10-01T00:00	29050	13	-55.1		281	6	
2025-10-01T00:00	29100	13	-55.6		278	6	
2025-10-01T00:00	29150	13	-55.9		273	6	
2025-10-01T00:00	29200	13	-56.0		270	6	
2025-10-01T00:00	29250	13	-56.1		269	6	
2025-10-01T00:00	29300	13	-55.9		270	7	
2025-10-01T00:00	29350	13	-55.8		273	7	
2025-10-01T00:00	29400	13	-55.8		276	7	
2025-10-01T00:00	29450	13	-55.6		279	8	
2025-10-01T00:00	29500	12	-55.2		279	9	
2025-10-01T00:00	29550	12	-55.0		279	9	
2025-10-01T00:00	29600	12	-55.1		280	9	
2025-10-01T00:00	29650	12	-55.2		281	10	
2025-10-01T00:00	29700	12	-55.6		282	10	
2025-10-01T00:00	29750	12	-56.0		280	10	
2025-10-01T00:00	29800	12	-56.1		278	10	
2025-10-01T00:00	29850	12	-56.0		277	10	
2025-10-01T00:00	29900	12	-55.9		277	11	
2025-10-01T00:00	29950	12	-55.5		278	11	
2025-10-01T00:00	30000	11	-55.1		280	11	
2025-10-01T00:00	30050	11	-55.1		285	10	
2025-10-01T00:00	30100	11	-55.3		291	9	
2025-10-01T00:00	30150	11	-55.2		295	9	
2025-10-01T00:00	30200	11	-55.2		298	9	
2025-10-01T00:00	30250	11	-55.3		300	9	
2025-10-01T00:00	30300	11	-55.3		303	8	
2025-10-01T00:00	30350	11	-55.1		303	8	
2025-10-01T00:00	30400	11	-54.9		300	8	
2025-10-01T00:00	30450	11	-54.4		295	8	
2025-10-01T00:00	30500	11	-54.1		292	9	
2025-10-01T00:00	30550	11	-53.6		293	9	
2025-10-01T00:00	30600	10	-53.0		295	9	
2025-10-01T00:00	30650	10	-52.0		299	9	
2025-10-01T00:00	30700	10	-51.5		304	8	
2025-10-01T00:00	30750	10	-51.1		309	8	
2025-10-01T00:00	30800	10	-51.0		312	8	
2025-10-01T00:00	30850	10	-51.0		311	8	
2025-10-01T00:00	30900	10	-50.7		305	9	
2025-10-01T00:00	30950	10	-50.8		297	10	
2025-10-01T00:00	31000	10	-51.1		292	10	
2025-10-01T00:00	31050	10	-51.1		293	10	
2025-10-01T00:00	31100	10	-50.8		297	10	
2025-10-01T00:00	31150	10	-50.9		301	10	
2025-10-01T00:00	31200	10	-51.2		302	10	
2025-10-01T00:00	31250	9	-51.1		300	10	
2025-10-01T00:00	31300	9	-50.7		296	10	
2025-10-01T00:00	31350	9	-50.2		289	10	
2025-10-01T00:00	31400	9	-50.0		284	10	
2025-10-01T00:00	31450	9	-49.8		281	10	
2025-10-01T00:00	31500	9	-49.5		282	12	
2025-10-01T00:00	31550	9	-49.5		285	12	
2025-10-01T00:00	31600	9	-49.2		289	13	
2025-10-01T00:00	31650	9	-48.9		293	14	
2025-10-01T00:00	31700	9	-48.9		293	15	
2025-10-01T00:00	31750	9	-48.8		293	15	
2025-10-01T00:00	31800	9	-48.4		293	15	
2025-10-01T00:00	31850	9	-48.0		293	15	
2025-10-01T00:00	31900	9	-47.8		294	15	
2025-10-01T00:00	31950	8	-48.0		296	16	
2025-10-01T00:00	32000	8	-48.3		299	16	
2025-10-01T00:00	32050	8	-48.4		302	17	
2025-10-01T00:00	32100	8	-48.3		303	17	
2025-10-01T00:00	32150	8	-48.5		303	16	
2025-10-01T00:00	32200	8	-48.6		302	16	
2025-10-01T00:00	32250	8	-48.8		300	15	
2025-10-01T00:00	32300	8	-49.0		297	14	
2025-10-01T00:00	32350	8	-49.4		293	13	
2025-10-01T00:00	32400	8	-49.5		288	13	
2025-10-01T00:00	32450	8	-49.2		284	14	
2025-10-01T00:00	32500	8	-48.9		283	15	
2025-10-01T00:00	32550	8	-49.1		282	15	
2025-10-01T00:00	32600	8	-49.3		281	16	
2025-10-01T00:00	32650	8	-49.3		281	16	
2025-10-01T00:00	32700	8	-49.2		283	16	
2025-10-01T00:00	32750	8	-48.6		287	16	
2025-10-01T00:00	32800	7	-48.3		291	16	
2025-10-01T00:00	32850	7	-47.9		296	15	
2025-10-01T00:00	32900	7	-47.7		300	14	
2025-10-01T00:00	32950	7	-47.6		301	14	
2025-10-01T00:00	33000	7	-47.7		301	14	
2025-10-01T00:00	33050	7	-47.9		303	14	
2025-10-01T00:00	33100	7	-47.1		303	15	
2025-10-01T00:00	33150	7	-46.7		301	16	
2025-10-01T00:00	33200	7	-46.0		298	17	
2025-10-01T00:00	33250	7	-45.5		297	17	
2025-10-01T00:00	33300	7	-44.8		300	17	
2025-10-01T00:00	33350	7	-44.8		304	17	
2025-10-01T00:00	33400	7	-44.9		306	18	
2025-10-01T00:00	33450	7	-44.3		307	20	
2025-10-01T00:00	33500	7	-43.7		307	22	
2025-10-01T00:00	33550	7	-42.7		308	23	
2025-10-01T00:00	33600	7	-42.4		309	23	
2025-10-01T00:00	33650	7	-42.8		309	22	
2025-10-01T00:00	33700	7	-42.8		309	20	
2025-10-01T00:00	33750	6	-41.4		308	19	
2025-10-01T00:00	33800	6	-41.0		306	18	
2025-10-01T00:00	33850	6	-41.0		303	17	
2025-10-01T00:00	33900	6	-41.0		300	16	
2025-10-01T00:00	33950	6	-40.9		295	15	
2025-10-01T00:00	34000	6	-40.8		289	14	
2025-10-01T00:00	34050	6	-40.7		284	14	
2025-10-01T00:00	34100	6	-40.6		283	13	
2025-10-01T00:00	34150	6	-40.4		286	13	
2025-10-01T00:00	34200	6	-39.8		291	13	
2025-10-01T00:00	34250	6	-39.8		296	12	
2025-10-01T00:00	34300	6	-40.0		300	12	
2025-10-01T00:00	34350	6	-40.3		303	12	
2025-10-01T00:00	34400	6	-40.3		305	13	
2025-10-01T00:00	34450	6	-39.9		305	14	
2025-10-01T00:00	34500	6	-39.9		304	15	
2025-10-01T00:00	34550	6	-39.9		304	16	
2025-10-01T00:00	34600	6	-39.7		305	16	
2025-10-01T00:00	34650	6	-38.8		307	17	
2025-10-01T00:00	34700	6	-37.8		309	17	
2025-10-01T00:00	34750	6	-37.5		309	17	
2025-10-01T00:00	34800	6	-37.1		307	16	
2025-10-01T00:00	34850	6	-37.1		304	14	
2025-10-01T00:00	34900	5	-37.4		300	13	
2025-10-01T00:00	34950	5	-37.2		294	12	
2025-10-01T00:00	35000	5	-37.0		286	11	
2025-10-01T00:00	35050	5	-36.7		279	11	
2025-10-01T00:00	35100	5	-36.6		272	11	
2025-10-01T00:00	35150	5	-36.9		265	11	
2025-10-01T00:00	35200	5	-36.9		255	11	
2025-10-01T00:00	35250	5	-36.3		247	12	
2025-10-01T00:00	35300	5	-35.8		243	13	
2025-10-01T00:00	35350	5	-35.8		242	14	
2025-10-01T00:00	35400	5	-35.7		242	15	
2025-10-01T00:00	35450	5	-35.9		242	16	
2025-10-01T00:00	35500	5	-36.2		243	16	
2025-10-01T00:00	35550	5	-36.6		246	17	
2025-10-01T00:00	35600	5	-36.8		249	18	
2025-10-01T00:00	35650	5	-36.3		250	19	
2025-10-01T00:00	35700	5	-35.4		251	19	
2025-10-01T00:00	35750	5	-35.1		253	19	
2025-10-01T00:00	35800	5	-34.9		257	18	
2025-10-01T00:00	35850	5	-35.1		259	17	
2025-10-01T00:00	35900	5	-35.3		263	16	
2025-10-01T00:00	35950	5	-35.6		268	15	
2025-10-01T00:00	36000	5	-35.8		274	15	
2025-10-01T00:00	36050	5	-35.8		278	15	
2025-10-01T00:00	36100	5	-36.1		282	15	
2025-10-01T00:00	36150	5	-36.5		286	15	
2025-10-01T00:00	36200	5	-36.8		291	15	
2025-10-01T00:00	36250	5	-36.8		297	16	
2025-10-01T00:00	36300	4	-36.9		302	16	
2025-10-01T00:00	36350	4	-37.2		307	16	
2025-10-01T00:00	36400	4	-36.7		312	16	
2025-10-01T00:00	36450	4	-35.9		313	15	
2025-10-01T00:00	36500	4	-35.6		312	14	
2025-10-01T00:00	36550	4	-35.8		309	13	
2025-10-01T00:00	36600	4	-36.0		303	12	
2025-10-01T00:00	36650	4	-36.2		296	11	
2025-10-01T00:00	36700	4	-36.2		289	10	
2025-10-01T00:00	36750	4	-36.0		283	10	
2025-10-01T00:00	36800	4	-35.7		279	11	
2025-10-01T00:00	36850	4	-35.1		279	12	
2025-10-01T00:00	36900	4	-34.7		278	14	
2025-10-01T00:00	36950	4	-34.6		279	15	
2025-10-01T00:00	37000	4	-34.8		280	16	
2025-10-01T00:00	37050	4	-35.2		281	17	
2025-10-01T00:00	37100	4	-35.5		281	18	
2025-10-01T00:00	37150	4	-35.8		281	20	
2025-10-01T00:00	37200	4	-35.9		281	20	
2025-10-01T00:00	37250	4	-35.8		282	20	
2025-10-01T00:00	37300	4	-35.6		284	20	
2025-10-01T00:00	37350	4	-35.6		288	20	
2025-10-01T00:00	37400	4	-35.7		290	21	
2025-10-01T00:00	37450	4	-35.7		289	21	
2025-10-01T12:00	491	967	15.4	7.9	14	4	3.4
2025-10-01T12:00	501	966	12.8	7.1	42	2	3.4
2025-10-01T12:00	520	964	12.5	6.9	47	3	3.4
2025-10-01T12:00	540	961	12.3	6.6	46	3	3.4
2025-10-01T12:00	560	959	12.0	6.5	45	3	3.4
2025-10-01T12:00	580	957	11.9	6.5	45	4	3.4
2025-10-01T12:00	600	955	11.7	6.5	44	4	3.4
2025-10-01T12:00	620	952	11.5	6.3	44	4	3.5
2025-10-01T12:00	640	950	11.2	6.3	44	5	3.5
2025-10-01T12:00	660	948	11.0	6.2	43	5	3.5
2025-10-01T12:00	680	945	10.8	6.3	41	5	3.5
2025-10-01T12:00	700	943	10.6	6.2	39	5	3.5
2025-10-01T12:00	720	941	10.4	6.1	37	6	3.5
2025-10-01T12:00	740	939	10.2	6.0	35	6	3.5
2025-10-01T12:00	760	937	10.0	6.0	33	6	3.6
2025-10-01T12:00	780	934	9.8	5.9	32	6	3.5
2025-10-01T12:00	800	932	9.5	5.9	31	7	3.5
2025-10-01T12:00	820	930	9.4	5.8	32	7	3.5
2025-10-01T12:00	840	928	9.2	5.9	33	7	3.6
2025-10-01T12:00	860	925	9.0	5.9	34	8	3.6
2025-10-01T12:00	880	923	8.8	5.8	38	8	3.6
2025-10-01T12:00	900	921	8.7	6.0	41	8	3.6
2025-10-01T12:00	920	919	8.6	5.7	46	8	3.6
2025-10-01T12:00	940	916	8.4	5.5	51	8	3.6
2025-10-01T12:00	960	914	8.1	5.4	55	8	3.6
2025-10-01T12:00	980	912	8.0	5.1	56	7	3.6
2025-10-01T12:00	1000	910	7.8	4.9	57	7	3.6
2025-10-01T12:00	1020	908	7.6	4.9	56	7	3.7
2025-10-01T12:00	1040	905	7.5	4.7	55	7	3.7
2025-10-01T12:00	1060	903	7.2	4.8	55	7	3.7
2025-10-01T12:00	1080	901	7.0	4.9	55	7	3.7
2025-10-01T12:00	1100	899	6.9	4.8	55	8	3.7
2025-10-01T12:00	1120	897	6.7	4.7	55	7	3.7
2025-10-01T12:00	1140	894	6.5	4.7	57	7	3.6
2025-10-01T12:00	1160	892	6.4	4.5	58	7	3.6
2025-10-01T12:00	1180	890	6.3	4.6	61	7	3.6
2025-10-01T12:00	1200	888	6.1	4.7	63	7	3.7
2025-10-01T12:00	1220	886	5.9	4.7	65	7	3.7
2025-10-01T12:00	1240	883	5.8	4.4	66	7	3.7
2025-10-01T12:00	1260	881	5.5	4.3	66	8	3.6
2025-10-01T12:00	1280	879	5.4	4.4	65	8	3.6
2025-10-01T12:00	1300	877	5.3	3.9	64	8	3.7
2025-10-01T12:00	1320	875	5.2	3.6	63	9	3.6
2025-10-01T12:00	1340	873	4.9	3.8	62	9	3.6
2025-10-01T12:00	1360	871	4.9	3.7	61	10	3.7
2025-10-01T12:00	1380	869	4.6	3.5	61	10	3.7
2025-10-01T12:00	1400	866	4.6	2.2	62	10	3.7
2025-10-01T12:00	1420	864	5.3	-1.3	63	10	3.7
2025-10-01T12:00	1440	862	5.7	-2.1	65	10	3.7
2025-10-01T12:00	1460	860	5.8	-2.4	67	10	3.8
2025-10-01T12:00	1480	858	5.7	-2.4	70	10	3.9
2025-10-01T12:00	1500	856	5.7	-2.6	73	10	4.0
2025-10-01T12:00	1520	854	5.8	-2.9	75	10	4.1
2025-10-01T12:00	1540	852	5.6	-2.8	78	9	4.2
2025-10-01T12:00	1560	850	5.4	-3.0	80	10	4.3
2025-10-01T12:00	1580	848	5.5	-3.5	83	10	4.3
2025-10-01T12:00	1600	845	5.5	-3.8	85	10	4.4
2025-10-01T12:00	1620	843	5.3	-3.8	86	10	4.4
2025-10-01T12:00	1640	841	5.1	-3.9	87	10	4.4
2025-10-01T12:00	1660	839	5.0	-3.9	87	10	4.4
2025-10-01T12:00	1680	837	4.8	-4.0	86	10	4.5
2025-10-01T12:00	1700	835	4.7	-4.6	85	10	4.5
2025-10-01T12:00	1720	833	4.7	-5.0	84	10	4.4
2025-10-01T12:00	1740	831	4.5	-5.0	83	10	4.4
2025-10-01T12:00	1760	829	4.4	-5.4	82	11	4.5
2025-10-01T12:00	1780	827	4.3	-5.8	81	11	4.5
2025-10-01T12:00	1800	825	4.1	-5.8	80	11	4.5
2025-10-01T12:00	1820	823	3.9	-5.9	78	10	4.5
2025-10-01T12:00	1840	821	3.7	-6.0	77	9	4.5
2025-10-01T12:00	1860	819	3.6	-6.1	76	8	4.5
2025-10-01T12:00	1880	817	3.4	-6.0	77	8	4.5
2025-10-01T12:00	1900	815	3.2	-6.2	80	8	4.5
2025-10-01T12:00	1920	813	3.0	-6.2	82	8	4.4
2025-10-01T12:00	1940	811	2.9	-6.4	84	9	4.4
2025-10-01T12:00	1960	809	2.8	-6.3	83	9	4.4
2025-10-01T12:00	1980	807	2.6	-6.4	82	9	4.4
2025-10-01T12:00	2000	805	2.4	-6.3	80	9	4.4
2025-10-01T12:00	2020	803	2.2	-6.4	77	9	4.4
2025-10-01T12:00	2040	801	2.2	-6.5	73	9	4.4
2025-10-01T12:00	2060	799	2.0	-6.4	71	9	4.4
2025-10-01T12:00	2080	797	1.8	-6.4	67	9	4.4
2025-10-01T12:00	2100	795	1.5	-6.5	64	9	4.4
2025-10-01T12:00	2120	793	1.4	-6.8	62	9	4.3
2025-10-01T12:00	2140	791	1.4	-6.8	60	9	4.3
2025-10-01T12:00	2160	789	1.1	-6.6	57	9	4.3
2025-10-01T12:00	2180	787	0.8	-6.7	55	9	4.3
2025-10-01T12:00	2200	785	0.7	-6.9	52	9	4.2
2025-10-01T12:00	2220	783	0.6	-6.9	49	9	4.2
2025-10-01T12:00	2240	781	0.3	-6.8	45	9	4.2
2025-10-01T12:00	2260	779	0.1	-6.8	40	9	4.2
2025-10-01T12:00	2280	777	0.0	-7.0	35	9	4.2
2025-10-01T12:00	2300	775	-0.2	-7.0	31	9	4.2
2025-10-01T12:00	2320	774	-0.4	-7.0	29	9	4.2
2025-10-01T12:00	2340	772	-0.5	-7.0	28	8	4.2
2025-10-01T12:00	2360	770	-0.7	-7.0	28	8	4.2
2025-10-01T12:00	2380	768	-0.9	-7.1	30	8	4.1
2025-10-01T12:00	2400	766	-1.0	-7.1	33	8	4.1
2025-10-01T12:00	2420	764	-1.1	-7.0	36	8	4.1
2025-10-01T12:00	2440	762	-1.2	-6.9	37	9	4.1
2025-10-01T12:00	2460	760	-1.4	-7.0	36	9	4.1
2025-10-01T12:00	2480	758	-1.7	-6.9	34	10	4.1
2025-10-01T12:00	2500	756	-1.9	-6.9	30	11	4.1
2025-10-01T12:00	2520	754	-2.0	-6.8	27	11	4.1
2025-10-01T12:00	2540	753	-2.2	-6.8	25	12	4.1
2025-10-01T12:00	2560	751	-2.4	-6.9	24	12	4.1
2025-10-01T12:00	2580	749	-2.6	-7.0	24	13	4.1
2025-10-01T12:00	2600	747	-2.8	-7.1	24	13	4.1
2025-10-01T12:00	2620	745	-2.9	-7.5	24	13	4.1
2025-10-01T12:00	2640	743	-2.9	-8.3	23	12	4.2
2025-10-01T12:00	2660	741	-2.3	-11.0	23	12	4.2
2025-10-01T12:00	2680	739	-1.8	-11.5	22	11	4.2
2025-10-01T12:00	2700	737	-1.7	-13.5	21	10	4.1
2025-10-01T12:00	2720	736	-1.6	-11.6	20	10	4.1
2025-10-01T12:00	2740	734	-1.6	-11.7	20	10	4.0
2025-10-01T12:00	2760	732	-1.7	-11.1	20	10	4.0
2025-10-01T12:00	2780	730	-1.7	-11.0	21	9	3.9
2025-10-01T12:00	2800	728	-1.7	-12.0	23	9	3.9
2025-10-01T12:00	2820	726	-1.6	-14.9	25	8	3.8
2025-10-01T12:00	2840	725	-1.5	-18.0	28	8	3.8
2025-10-01T12:00	2860	723	-1.3	-25.9	30	7	3.9
2025-10-01T12:00	2880	721	-1.2	-32.0	31	7	4.0
2025-10-01T12:00	2900	719	-1.3	-38.3	32	7	4.1
2025-10-01T12:00	2920	717	-1.4	-43.4	31	6	4.1
2025-10-01T12:00	2940	715	-1.3	-45.6	28	6	4.1
2025-10-01T12:00	2960	714	-1.3	-45.0	24	6	4.1
2025-10-01T12:00	2980	712	-1.3	-44.5	19	6	4.1
2025-10-01T12:00	3000	710	-1.3	-44.1	15	7	4.0
2025-10-01T12:00	3020	708	-1.4	-42.8	12	7	4.0
2025-10-01T12:00	3040	707	-1.6	-42.8	11	7	4.0
2025-10-01T12:00	3060	705	-1.6	-43.0	11	7	4.0
2025-10-01T12:00	3080	703	-1.7	-43.4	11	8	3.9
2025-10-01T12:00	3100	701	-1.9	-44.0	11	8	3.9
2025-10-01T12:00	3120	700	-2.0	-43.6	12	8	3.9
2025-10-01T12:00	3140	698	-2.1	-44.2	12	9	3.9
2025-10-01T12:00	3160	696	-2.1	-43.5	11	9	3.9
2025-10-01T12:00	3180	694	-2.1	-42.7	11	8	3.8
2025-10-01T12:00	3200	692	-2.1	-42.9	11	8	3.8
2025-10-01T12:00	3220	691	-2.1	-42.6	11	8	3.8
2025-10-01T12:00	3240	689	-2.2	-42.9	11	9	3.8
2025-10-01T12:00	3260	687	-2.3	-43.2	12	9	3.8
2025-10-01T12:00	3280	686	-2.4	-43.4	13	9	3.8
2025-10-01T12:00	3300	684	-2.5	-43.6	16	8	3.8
2025-10-01T12:00	3320	682	-2.6	-43.9	20	8	3.8
2025-10-01T12:00	3340	680	-2.7	-44.6	27	8	3.8
2025-10-01T12:00	3360	679	-2.8	-44.5	34	8	3.8
2025-10-01T12:00	3380	677	-2.9	-44.3	39	8	3.8
2025-10-01T12:00	3400	675	-3.0	-43.8	41	8	3.8
2025-10-01T12:00	3420	674	-3.1	-46.2	40	8	3.8
2025-10-01T12:00	3440	672	-3.2	-46.5	36	7	3.8
2025-10-01T12:00	3460	670	-3.3	-46.1	28	7	3.8
2025-10-01T12:00	3480	669	-3.4	-46.0	20	7	3.8
2025-10-01T12:00	3500	667	-3.6	-46.0	13	6	3.8
2025-10-01T12:00	3520	665	-3.7	-46.1	9	6	3.8
2025-10-01T12:00	3540	663	-3.7	-45.2	6	6	3.8
2025-10-01T12:00	3560	662	-3.8	-43.6	7	6	3.8
2025-10-01T12:00	3580	660	-3.9	-41.9	10	5	4.0
2025-10-01T12:00	3600	658	-4.0	-40.7	16	5	4.2
2025-10-01T12:00	3620	657	-4.1	-41.3	23	5	4.4
2025-10-01T12:00	3640	655	-4.3	-40.9	29	6	4.6
2025-10-01T12:00	3660	654	-4.5	-41.0	34	6	4.8
2025-10-01T12:00	3680	652	-4.6	-42.6	36	6	4.9
2025-10-01T12:00	3700	650	-4.7	-43.1	38	7	4.9
2025-10-01T12:00	3720	648	-4.8	-42.5	40	7	4.8
2025-10-01T12:00	3740	647	-4.9	-41.7	41	7	4.9
2025-10-01T12:00	3760	645	-5.1	-41.5	42	7	4.9
2025-10-01T12:00	3780	643	-5.2	-41.6	41	7	4.9
2025-10-01T12:00	3800	642	-5.3	-41.7	39	8	5.0
2025-10-01T12:00	3820	640	-5.4	-43.0	37	8	5.0
2025-10-01T12:00	3840	639	-5.6	-43.1	34	9	5.0
2025-10-01T12:00	3860	637	-5.8	-43.7	31	10	5.0
2025-10-01T12:00	3880	635	-5.9	-45.4	28	10	4.9
2025-10-01T12:00	3900	634	-5.9	-46.3	26	11	4.8
2025-10-01T12:00	3920	632	-5.9	-45.1	24	11	4.7
2025-10-01T12:00	3940	630	-6.1	-44.0	22	12	4.7
2025-10-01T12:00	3960	629	-6.2	-40.3	20	12	4.8
2025-10-01T12:00	3980	627	-6.3	-37.9	18	12	4.8
2025-10-01T12:00	4000	626	-6.4	-37.6	17	11	4.8
2025-10-01T12:00	4020	624	-6.6	-37.3	16	11	4.8
2025-10-01T12:00	4040	622	-6.8	-37.4	15	10	4.7
2025-10-01T12:00	4060	621	-7.0	-34.9	14	10	4.7
2025-10-01T12:00	4080	619	-7.1	-34.4	13	9	4.7
2025-10-01T12:00	4100	618	-7.2	-35.3	12	9	4.6
2025-10-01T12:00	4120	616	-7.4	-33.1	11	9	4.6
2025-10-01T12:00	4140	615	-7.6	-31.4	11	9	4.5
2025-10-01T12:00	4160	613	-7.7	-28.7	10	10	4.5
2025-10-01T12:00	4180	611	-8.0	-27.6	9	10	4.5
2025-10-01T12:00	4200	610	-8.2	-27.8	9	10	4.3
2025-10-01T12:00	4220	608	-8.3	-27.6	10	11	4.3
2025-10-01T12:00	4240	607	-8.5	-27.2	11	11	4.3
2025-10-01T12:00	4260	605	-8.7	-27.2	12	11	4.1
2025-10-01T12:00	4280	603	-8.8	-27.3	13	11	4.0
2025-10-01T12:00	4300	602	-9.0	-27.4	14	12	4.0
2025-10-01T12:00	4320	600	-9.1	-28.0	14	12	3.8
2025-10-01T12:00	4340	599	-9.3	-28.7	14	12	3.7
2025-10-01T12:00	4360	597	-9.3	-29.0	13	12	3.6
2025-10-01T12:00	4380	596	-9.5	-29.1	11	12	3.5
2025-10-01T12:00	4400	594	-9.7	-29.1	9	12	3.5
2025-10-01T12:00	4420	593	-9.8	-29.1	8	12	3.5
2025-10-01T12:00	4440	591	-10.0	-29.2	6	11	3.4
2025-10-01T12:00	4460	590	-10.2	-29.1	5	11	3.4
2025-10-01T12:00	4480	588	-10.4	-29.2	6	11	3.3
2025-10-01T12:00	4500	586	-10.6	-29.3	7	10	3.3
2025-10-01T12:00	4520	585	-10.6	-29.4	9	10	3.3
2025-10-01T12:00	4540	583	-10.8	-29.6	11	9	3.3
2025-10-01T12:00	4560	582	-10.9	-29.9	13	9	3.3
2025-10-01T12:00	4580	581	-11.0	-30.1	16	9	3.3
2025-10-01T12:00	4600	579	-11.2	-30.2	19	9	3.3
2025-10-01T12:00	4620	577	-11.3	-30.4	21	9	3.3
2025-10-01T12:00	4640	576	-11.6	-30.8	21	9	3.4
2025-10-01T12:00	4660	574	-11.6	-31.3	20	9	3.4
2025-10-01T12:00	4680	573	-11.7	-31.6	15	10	3.4
2025-10-01T12:00	4700	572	-11.9	-31.8	11	10	3.4
2025-10-01T12:00	4720	570	-12.1	-31.8	7	11	3.4
2025-10-01T12:00	4740	569	-12.3	-31.7	3	11	3.4
2025-10-01T12:00	4760	567	-12.4	-31.7	1	12	3.3
2025-10-01T12:00	4780	565	-12.5	-31.9	359	12	3.3
2025-10-01T12:00	4800	564	-12.6	-32.0	359	13	3.3
2025-10-01T12:00	4820	563	-12.7	-32.2	360	13	3.3
2025-10-01T12:00	4840	561	-13.0	-32.5	1	13	3.3
2025-10-01T12:00	4860	559	-13.1	-33.2	3	13	3.3
2025-10-01T12:00	4880	558	-13.2	-33.5	4	13	3.3
2025-10-01T12:00	4900	557	-13.3	-33.8	6	13	3.3
2025-10-01T12:00	4920	555	-13.4	-34.2	6	13	3.3
2025-10-01T12:00	4940	554	-13.6	-34.2	7	13	3.3
2025-10-01T12:00	4960	552	-13.7	-34.4	8	14	3.3
2025-10-01T12:00	4980	551	-13.8	-35.1	9	14	3.4
2025-10-01T12:00	5000	549	-13.9	-35.6	10	14	3.4
2025-10-01T12:00	5020	548	-14.0	-36.1	11	14	3.4
2025-10-01T12:00	5040	547	-14.0	-36.8	12	14	3.4
2025-10-01T12:00	5060	545	-14.0	-38.4	12	14	3.5
2025-10-01T12:00	5080	544	-14.0	-41.6	11	14	3.6
2025-10-01T12:00	5100	542	-13.8	-41.5	10	14	3.6
2025-10-01T12:00	5120	541	-13.8	-42.1	7	15	3.8
2025-10-01T12:00	5140	539	-13.9	-42.2	5	15	3.9
2025-10-01T12:00	5160	538	-13.9	-42.9	4	16	4.0
2025-10-01T12:00	5180	537	-13.9	-44.7	3	16	4.0
2025-10-01T12:00	5200	535	-14.0	-45.8	3	17	4.1
2025-10-01T12:00	5220	534	-14.0	-46.5	3	17	4.2
2025-10-01T12:00	5240	532	-14.1	-46.9	4	17	4.4
2025-10-01T12:00	5260	531	-14.3	-47.2	4	17	4.5
2025-10-01T12:00	5280	529	-14.3	-47.2	5	17	4.5
2025-10-01T12:00	5300	528	-14.3	-47.6	6	18	4.6
2025-10-01T12:00	5320	527	-14.5	-48.2	7	18	4.7
2025-10-01T12:00	5340	525	-14.7	-47.6	8	18	4.7
2025-10-01T12:00	5360	524	-14.7	-46.0	9	19	4.8
2025-10-01T12:00	5380	522	-14.8	-45.2	10	20	4.8
2025-10-01T12:00	5400	521	-14.9	-44.4	10	20	4.8
2025-10-01T12:00	5420	520	-14.9	-43.2	9	20	4.7
2025-10-01T12:00	5440	518	-14.9	-41.8	9	20	4.6
2025-10-01T12:00	5460	517	-15.0	-41.6	8	20	4.4
2025-10-01T12:00	5480	516	-15.0	-40.3	7	21	4.3
2025-10-01T12:00	5500	514	-15.2	-37.4	6	21	4.2
2025-10-01T12:00	5520	513	-15.4	-34.1	6	21	4.0
2025-10-01T12:00	5540	512	-15.5	-32.9	5	21	3.8
2025-10-01T12:00	5560	510	-15.7	-32.7	4	21	3.7
2025-10-01T12:00	5580	509	-15.9	-31.7	4	21	3.6
2025-10-01T12:00	5600	507	-16.0	-31.8	3	21	3.5
2025-10-01T12:00	5620	506	-16.2	-32.4	3	20	3.5
2025-10-01T12:00	5640	505	-16.3	-32.8	4	20	3.4
2025-10-01T12:00	5660	503	-16.4	-34.5	5	20	3.3
2025-10-01T12:00	5680	502	-16.6	-35.7	6	20	3.3
2025-10-01T12:00	5700	501	-16.6	-33.6	7	20	3.3
2025-10-01T12:00	5720	500	-16.9	-32.3	7	20	3.2
2025-10-01T12:00	5740	498	-17.0	-32.3	7	20	3.1
2025-10-01T12:00	5760	497	-17.2	-31.6	7	21	3.1
2025-10-01T12:00	5780	495	-17.4	-31.3	7	21	3.1
2025-10-01T12:00	5800	494	-17.5	-31.3	6	21	3.1
2025-10-01T12:00	5820	493	-17.7	-31.5	6	22	3.1
2025-10-01T12:00	5840	491	-17.8	-31.8	5	22	3.1
2025-10-01T12:00	5860	490	-17.9	-31.6	4	22	3.1
2025-10-01T12:00	5880	489	-18.1	-31.5	3	22	3.1
2025-10-01T12:00	5900	488	-18.2	-31.5	1	22	3.0
2025-10-01T12:00	5920	486	-18.4	-31.6	360	22	3.0
2025-10-01T12:00	5940	485	-18.3	-32.3	359	22	3.0
2025-10-01T12:00	5960	484	-18.5	-33.2	360	22	3.0
2025-10-01T12:00	5980	482	-18.5	-33.9	1	22	3.0
2025-10-01T12:00	6000	481	-18.6	-35.7	2	22	3.0
2025-10-01T12:00	6020	480	-18.7	-38.0	2	22	3.0
2025-10-01T12:00	6040	479	-18.8	-39.7	2	22	3.0
2025-10-01T12:00	6060	477	-18.9	-40.9	2	23	3.0
2025-10-01T12:00	6080	476	-18.9	-41.9	1	23	3.1
2025-10-01T12:00	6100	475	-19.1	-41.6	1	23	3.1
2025-10-01T12:00	6120	473	-19.2	-42.3	1	23	3.1
2025-10-01T12:00	6140	472	-19.4	-41.8	1	24	3.1
2025-10-01T12:00	6160	471	-19.6	-41.5	2	24	3.1
2025-10-01T12:00	6180	470	-19.7	-42.5	2	24	3.1
2025-10-01T12:00	6200	468	-19.8	-44.1	2	24	3.1
2025-10-01T12:00	6220	467	-19.9	-43.3	3	24	3.1
2025-10-01T12:00	6240	466	-20.2	-45.2	3	24	3.1
2025-10-01T12:00	6260	465	-20.4	-46.8	3	24	3.1
2025-10-01T12:00	6280	463	-20.6	-46.5	4	24	3.1
2025-10-01T12:00	6300	462	-20.7	-46.4	4	24	3.0
2025-10-01T12:00	6320	461	-20.9	-43.7	5	23	3.1
2025-10-01T12:00	6340	460	-21.2	-43.2	5	23	3.1
2025-10-01T12:00	6360	458	-21.3	-42.2	6	22	3.0
2025-10-01T12:00	6380	457	-21.5	-40.9	6	22	3.0
2025-10-01T12:00	6400	456	-21.7	-40.3	6	21	3.0
2025-10-01T12:00	6420	454	-21.9	-39.3	5	21	3.0
2025-10-01T12:00	6440	453	-22.1	-38.5	5	22	3.0
2025-10-01T12:00	6460	452	-22.2	-38.3	4	22	3.0
2025-10-01T12:00	6480	451	-22.4	-38.5	3	21	3.0
2025-10-01T12:00	6500	450	-22.6	-38.6	2	21	3.0
2025-10-01T12:00	6520	448	-22.7	-38.8	2	21	3.0
2025-10-01T12:00	6540	447	-22.8	-39.3	1	21	3.0
2025-10-01T12:00	6560	446	-23.1	-39.5	1	21	2.9
2025-10-01T12:00	6580	445	-23.4	-39.3	1	21	2.9
2025-10-01T12:00	6600	444	-23.5	-39.6	2	21	2.9
2025-10-01T12:00	6620	442	-23.8	-39.5	2	21	2.9
2025-10-01T12:00	6640	441	-23.9	-39.4	3	22	2.9
2025-10-01T12:00	6660	440	-24.1	-39.4	3	22	2.9
2025-10-01T12:00	6680	439	-24.2	-40.1	2	23	2.9
2025-10-01T12:00	6700	437	-24.5	-39.8	1	23	2.9
2025-10-01T12:00	6720	436	-24.6	-39.8	0	23	2.9
2025-10-01T12:00	6740	435	-24.8	-39.1	360	23	2.9
2025-10-01T12:00	6760	434	-25.0	-39.5	360	23	2.9
2025-10-01T12:00	6780	433	-25.2	-40.1	0	23	2.9
2025-10-01T12:00	6800	432	-25.4	-39.7	1	22	2.9
2025-10-01T12:00	6820	430	-25.5	-39.7	3	22	2.9
2025-10-01T12:00	6840	429	-25.6	-40.0	4	22	2.9
2025-10-01T12:00	6860	428	-25.9	-40.2	4	23	2.9
2025-10-01T12:00	6880	427	-26.0	-40.5	5	23	2.9
2025-10-01T12:00	6900	426	-26.1	-41.0	5	23	2.9
2025-10-01T12:00	6920	425	-26.2	-42.6	5	23	2.8
2025-10-01T12:00	6940	423	-26.3	-43.9	4	23	2.9
2025-10-01T12:00	6960	422	-26.4	-45.9	3	24	2.9
2025-10-01T12:00	6980	421	-26.5	-46.5	3	24	3.0
2025-10-01T12:00	7000	420	-26.7	-46.7	3	24	3.0
2025-10-01T12:00	7020	419	-26.8	-47.3	3	24	3.0
2025-10-01T12:00	7040	417	-26.8	-48.3	3	24	3.0
2025-10-01T12:00	7060	416	-26.8	-49.6	3	24	3.0
2025-10-01T12:00	7080	415	-27.0	-50.2	3	24	2.9
2025-10-01T12:00	7100	414	-27.1	-51.3	3	24	2.9
2025-10-01T12:00	7120	413	-27.2	-52.0	3	24	2.9
2025-10-01T12:00	7140	412	-27.3	-52.3	2	24	3.0
2025-10-01T12:00	7160	411	-27.5	-52.4	1	24	3.1
2025-10-01T12:00	7180	409	-27.6	-52.5	1	24	3.1
2025-10-01T12:00	7200	408	-27.7	-53.3	1	24	3.2
2025-10-01T12:00	7220	407	-27.8	-54.2	1	25	3.3
2025-10-01T12:00	7240	406	-28.0	-54.5	2	25	3.3
2025-10-01T12:00	7260	405	-28.0	-55.6	2	25	3.3
2025-10-01T12:00	7280	404	-28.2	-55.6	3	25	3.3
2025-10-01T12:00	7300	403	-28.3	-55.5	4	25	3.3
2025-10-01T12:00	7320	402	-28.4	-55.5	4	25	3.3
2025-10-01T12:00	7340	400	-28.5	-55.3	5	25	3.4
2025-10-01T12:00	7360	399	-28.6	-55.0	6	25	3.5
2025-10-01T12:00	7380	398	-28.7	-55.4	6	25	3.7
2025-10-01T12:00	7400	397	-28.7	-55.8	6	26	3.8
2025-10-01T12:00	7420	396	-28.6	-56.1	6	26	3.9
2025-10-01T12:00	7440	395	-28.6	-56.3	6	27	4.0
2025-10-01T12:00	7460	394	-28.7	-56.5	6	27	4.0
2025-10-01T12:00	7480	393	-28.8	-56.5	7	28	4.1
2025-10-01T12:00	7500	392	-28.9	-56.8	7	29	4.1
2025-10-01T12:00	7520	390	-28.9	-56.9	8	29	4.1
2025-10-01T12:00	7540	389	-29.0	-57.1	9	30	4.2
2025-10-01T12:00	7560	388	-29.1	-57.3	9	30	4.1
2025-10-01T12:00	7580	387	-29.2	-57.5	9	31	4.0
2025-10-01T12:00	7600	386	-29.3	-57.7	9	31	4.0
2025-10-01T12:00	7620	385	-29.3	-57.4	8	31	3.9
2025-10-01T12:00	7640	384	-29.5	-57.1	8	32	3.9
2025-10-01T12:00	7660	383	-29.6	-56.9	7	32	3.8
2025-10-01T12:00	7680	382	-29.7	-56.9	6	32	3.7
2025-10-01T12:00	7700	381	-29.8	-57.1	6	32	3.6
2025-10-01T12:00	7720	380	-29.8	-57.5	6	32	3.5
2025-10-01T12:00	7740	379	-29.9	-57.5	6	32	3.4
2025-10-01T12:00	7760	378	-30.0	-57.5	7	32	3.4
2025-10-01T12:00	7780	376	-30.2	-57.1	7	32	3.4
2025-10-01T12:00	7800	375	-30.3	-57.2	8	32	3.3
2025-10-01T12:00	7820	374	-30.4	-57.1	9	32	3.3
2025-10-01T12:00	7840	373	-30.6	-56.6	9	33	3.2
2025-10-01T12:00	7860	372	-30.8	-55.7	9	33	3.2
2025-10-01T12:00	7880	371	-30.9	-55.1	9	33	3.2
2025-10-01T12:00	7900	370	-31.0	-54.1	9	34	3.2
2025-10-01T12:00	7920	369	-31.1	-52.2	9	34	3.2
2025-10-01T12:00	7940	368	-31.2	-52.4	10	34	3.1
2025-10-01T12:00	7960	367	-31.4	-52.7	10	34	3.1
2025-10-01T12:00	7980	366	-31.6	-52.5	10	34	3.1
2025-10-01T12:00	8000	365	-31.7	-51.8	10	34	3.0
2025-10-01T12:00	8020	364	-31.9	-51.7	10	34	3.0
2025-10-01T12:00	8040	363	-32.0	-51.4	10	34	2.9
2025-10-01T12:00	8060	362	-32.2	-50.9	10	35	2.8
2025-10-01T12:00	8080	361	-32.4	-50.4	10	35	2.8
2025-10-01T12:00	8100	360	-32.5	-49.9	9	35	2.7
2025-10-01T12:00	8120	359	-32.6	-49.4	9	35	2.7
2025-10-01T12:00	8140	358	-32.7	-49.0	8	35	2.6
2025-10-01T12:00	8160	357	-32.9	-48.3	8	35	2.6
2025-10-01T12:00	8180	356	-32.8	-48.5	8	36	2.5
2025-10-01T12:00	8200	355	-32.9	-48.6	8	36	2.4
2025-10-01T12:00	8220	354	-33.1	-48.3	8	36	2.3
2025-10-01T12:00	8240	353	-33.3	-48.3	8	36	2.3
2025-10-01T12:00	8260	352	-33.5	-48.8	8	37	2.3
2025-10-01T12:00	8280	351	-33.7	-48.9	8	37	2.2
2025-10-01T12:00	8300	350	-33.8	-48.8	8	36	2.2
2025-10-01T12:00	8320	349	-33.9	-49.3	7	36	2.2
2025-10-01T12:00	8340	348	-34.0	-48.4	7	36	2.2
2025-10-01T12:00	8360	347	-34.2	-48.5	7	36	2.2
2025-10-01T12:00	8380	346	-34.4	-49.0	7	36	2.1
2025-10-01T12:00	8400	345	-34.4	-49.9	7	36	2.1
2025-10-01T12:00	8420	344	-34.5	-49.8	7	36	2.1
2025-10-01T12:00	8440	343	-34.8	-49.5	7	36	2.1
2025-10-01T12:00	8460	342	-34.9	-49.6	7	36	2.1
2025-10-01T12:00	8480	341	-35.1	-49.4	7	36	2.1
2025-10-01T12:00	8500	340	-35.4	-49.3	7	36	2.1
2025-10-01T12:00	8520	339	-35.5	-49.4	7	36	2.1
2025-10-01T12:00	8540	338	-35.7	-49.9	7	36	2.1
2025-10-01T12:00	8560	337	-35.7	-50.1	7	36	2.1
2025-10-01T12:00	8580	336	-35.9	-50.1	7	36	2.1
2025-10-01T12:00	8600	335	-36.1	-49.8	6	36	2.1
2025-10-01T12:00	8620	334	-36.3	-50.5	6	36	2.1
2025-10-01T12:00	8640	333	-36.3	-51.0	5	36	2.1
2025-10-01T12:00	8660	332	-36.5	-50.7	4	36	2.1
2025-10-01T12:00	8680	331	-36.5	-50.9	3	36	2.1
2025-10-01T12:00	8700	330	-36.8	-51.1	3	36	2.1
2025-10-01T12:00	8720	329	-37.0	-51.1	3	36	2.1
2025-10-01T12:00	8740	328	-37.2	-51.4	3	36	2.1
2025-10-01T12:00	8760	327	-37.3	-52.3	4	37	2.1
2025-10-01T12:00	8780	326	-37.5	-52.0	4	37	2.1
2025-10-01T12:00	8800	325	-37.5	-51.9	4	37	2.1
2025-10-01T12:00	8820	325	-37.7	-51.9	4	37	2.1
2025-10-01T12:00	8840	324	-37.8	-51.9	4	37	2.0
2025-10-01T12:00	8860	323	-38.0	-52.1	4	37	2.0
2025-10-01T12:00	8880	322	-38.2	-52.1	4	36	2.0
2025-10-01T12:00	8900	321	-38.4	-52.0	4	36	2.0
2025-10-01T12:00	8920	320	-38.5	-52.2	4	36	1.9
2025-10-01T12:00	8940	319	-38.8	-52.1	4	36	1.9
2025-10-01T12:00	8960	318	-38.9	-52.1	4	36	1.9
2025-10-01T12:00	8980	317	-39.2	-52.4	4	36	1.9
2025-10-01T12:00	9000	316	-39.3	-52.5	4	36	1.9
2025-10-01T12:00	9020	315	-39.4	-52.8	5	36	1.9
2025-10-01T12:00	9040	314	-39.7	-53.1	5	36	1.9
2025-10-01T12:00	9060	313	-39.7	-53.3	5	36	1.9
2025-10-01T12:00	9080	312	-39.9	-53.5	5	36	1.8
2025-10-01T12:00	9100	312	-40.1	-53.3	4	36	1.8
2025-10-01T12:00	9120	311	-40.3	-53.3	4	36	1.8
2025-10-01T12:00	9140	310	-40.4	-53.7	4	36	1.8
2025-10-01T12:00	9160	309	-40.6	-53.9	4	36	1.8
2025-10-01T12:00	9180	308	-40.8	-53.5	4	37	1.9
2025-10-01T12:00	9200	307	-40.9	-53.6	4	37	1.9
2025-10-01T12:00	9220	306	-41.2	-53.8	4	37	1.9
2025-10-01T12:00	9240	305	-41.2	-53.5	4	37	1.9
2025-10-01T12:00	9260	304	-41.4	-53.5	4	37	1.9
2025-10-01T12:00	9280	303	-41.5	-53.1	4	37	1.9
2025-10-01T12:00	9300	303	-41.8	-53.3	4	37	1.9
2025-10-01T12:00	9320	302	-42.0	-53.4	4	37	1.9
2025-10-01T12:00	9340	301	-42.1	-54.4	4	37	1.9
2025-10-01T12:00	9360	300	-42.1	-54.8	4	37	2.0
2025-10-01T12:00	9380	299	-42.2	-54.7	3	37	2.0
2025-10-01T12:00	9400	298	-42.3	-54.7	3	37	2.0
2025-10-01T12:00	9420	297	-42.4	-54.5	3	37	2.0
2025-10-01T12:00	9440	296	-42.6	-54.3	3	38	1.9
2025-10-01T12:00	9460	295	-42.7	-54.3	3	38	1.9
2025-10-01T12:00	9480	295	-42.9	-54.3	3	38	1.8
2025-10-01T12:00	9500	294	-43.1	-53.4	3	38	1.8
2025-10-01T12:00	9520	293	-43.3	-53.5	2	38	1.8
2025-10-01T12:00	9540	292	-43.6	-53.2	3	38	1.9
2025-10-01T12:00	9560	291	-43.7	-53.2	3	38	1.8
2025-10-01T12:00	9580	290	-43.9	-53.2	3	38	1.8
2025-10-01T12:00	9600	289	-44.0	-53.4	3	38	1.7
2025-10-01T12:00	9620	288	-44.1	-53.6	2	38	1.6
2025-10-01T12:00	9640	288	-44.2	-53.6	2	38	1.6
2025-10-01T12:00	9660	287	-44.3	-54.0	2	38	1.6
2025-10-01T12:00	9680	286	-44.4	-53.9	2	38	1.6
2025-10-01T12:00	9700	285	-44.5	-53.6	2	39	1.6
2025-10-01T12:00	9720	284	-44.6	-53.4	2	39	1.6
2025-10-01T12:00	9740	283	-44.7	-53.5	2	39	1.6
2025-10-01T12:00	9760	282	-44.8	-53.9	3	39	1.6
2025-10-01T12:00	9780	282	-44.8	-54.0	3	39	1.6
2025-10-01T12:00	9800	281	-45.0	-53.7	4	40	1.7
2025-10-01T12:00	9820	280	-45.2	-54.0	4	40	1.9
2025-10-01T12:00	9840	279	-45.3	-55.4	4	40	1.9
2025-10-01T12:00	9860	278	-45.4	-55.4	5	40	1.8
2025-10-01T12:00	9880	277	-45.5	-57.1	5	40	1.8
2025-10-01T12:00	9900	277	-45.6	-58.8	5	40	1.8
2025-10-01T12:00	9920	276	-45.7	-58.0	5	40	1.8
2025-10-01T12:00	9940	275	-45.8	-57.7	5	40	1.9
2025-10-01T12:00	9960	274	-46.0	-57.3	5	40	1.9
2025-10-01T12:00	9980	273	-46.1	-56.7	5	40	2.0
2025-10-01T12:00	10000	272	-46.4	-57.1	5	40	2.0
2025-10-01T12:00	10018	272	-46.6	-57.0	5	40	2.0
2025-10-01T12:00	10050	271	-46.8	-57.1	5	41	2.0
2025-10-01T12:00	10100	268	-47.2	-58.5	4	40	2.0
2025-10-01T12:00	10150	266	-47.6	-58.9	4	40	2.0
2025-10-01T12:00	10200	264	-48.0	-59.1	4	40	2.0
2025-10-01T12:00	10250	262	-48.4	-59.1	4	41	2.0
2025-10-01T12:00	10300	260	-48.7	-58.8	4	41	2.0
2025-10-01T12:00	10350	258	-49.1	-59.1	4	41	2.2
2025-10-01T12:00	10400	256	-49.3	-59.3	3	41	2.4
2025-10-01T12:00	10450	254	-49.5	-59.3	3	42	2.4
2025-10-01T12:00	10500	253	-49.9	-59.6	2	43	2.4
2025-10-01T12:00	10550	251	-50.3	-59.7	2	43	2.4
2025-10-01T12:00	10600	249	-50.7	-59.6	2	43	2.3
2025-10-01T12:00	10650	247	-51.2	-59.9	2	43	2.3
2025-10-01T12:00	10700	245	-51.5	-60.1	1	43	2.3
2025-10-01T12:00	10750	243	-51.8	-60.5	360	42	2.2
2025-10-01T12:00	10800	241	-52.2	-60.8	0	41	2.2
2025-10-01T12:00	10850	239	-52.7	-60.7	1	41	2.3
2025-10-01T12:00	10900	238	-53.1	-60.8	1	41	2.3
2025-10-01T12:00	10950	236	-53.5	-60.7	1	40	2.3
2025-10-01T12:00	11000	234	-54.0	-61.1	0	40	2.3
2025-10-01T12:00	11050	232	-54.5	-61.0	0	40	2.3
2025-10-01T12:00	11100	230	-54.7	-62.3	0	38	2.3
2025-10-01T12:00	11150	228	-54.1	-65.5	0	37	2.3
2025-10-01T12:00	11200	227	-54.2	-65.2	0	36	2.4
2025-10-01T12:00	11250	225	-54.7	-64.5	0	36	2.4
2025-10-01T12:00	11300	223	-55.2	-64.5	0	36	2.4
2025-10-01T12:00	11350	221	-55.6	-64.6	360	36	2.4
2025-10-01T12:00	11400	220	-55.9	-64.8	360	35	2.4
2025-10-01T12:00	11450	218	-56.3	-65.0	359	34	2.3
2025-10-01T12:00	11500	216	-56.7	-65.5	358	35	2.3
2025-10-01T12:00	11550	214	-56.8	-66.2	358	36	2.3
2025-10-01T12:00	11600	213	-56.8	-66.9	359	37	2.4
2025-10-01T12:00	11650	211	-57.2	-66.8	359	37	2.3
2025-10-01T12:00	11700	209	-57.2	-68.0	359	37	2.3
2025-10-01T12:00	11750	208	-56.9	-69.7	357	36	2.4
2025-10-01T12:00	11800	206	-56.9	-70.3	356	36	2.3
2025-10-01T12:00	11850	205	-57.1	-70.2	356	36	2.2
2025-10-01T12:00	11900	203	-57.5	-69.7	355	36	2.2
2025-10-01T12:00	11950	201	-57.4	-69.2	355	35	2.2
2025-10-01T12:00	12000	200	-57.1	-69.8	356	34	2.3
2025-10-01T12:00	12050	198	-57.4	-69.8	357	34	2.3
2025-10-01T12:00	12100	197	-57.6	-70.0	356	34	2.2
2025-10-01T12:00	12150	195	-57.8	-70.7	354	34	2.1
2025-10-01T12:00	12200	194	-57.7	-71.6	351	34	2.2
2025-10-01T12:00	12250	192	-57.7	-72.2	351	35	2.4
2025-10-01T12:00	12300	190	-57.5	-73.1	352	35	2.6
2025-10-01T12:00	12350	189	-57.5	-74.1	352	35	2.7
2025-10-01T12:00	12400	187	-57.5	-74.8	351	36	2.7
2025-10-01T12:00	12450	186	-57.6	-75.2	351	36	2.7
2025-10-01T12:00	12500	185	-57.5	-75.3	350	36	2.7
2025-10-01T12:00	12550	183	-57.6	-75.5	350	37	2.7
2025-10-01T12:00	12600	182	-58.0	-75.5	350	37	2.8
2025-10-01T12:00	12650	180	-58.0	-76.0	352	37	2.7
2025-10-01T12:00	12700	179	-57.6	-76.7	353	36	2.7
2025-10-01T12:00	12750	177	-57.4	-77.5	354	35	2.9
2025-10-01T12:00	12800	176	-57.6	-77.6	355	33	3.0
2025-10-01T12:00	12850	175	-57.9	-77.6	354	32	3.0
2025-10-01T12:00	12900	173	-58.3	-77.4	354	32	2.8
2025-10-01T12:00	12950	172	-58.7	-77.6	353	31	2.8
2025-10-01T12:00	13000	170	-58.9	-77.8	352	31	2.7
2025-10-01T12:00	13050	169	-58.6	-78.5	352	31	2.7
2025-10-01T12:00	13100	168	-58.4	-79.4	352	31	3.0
2025-10-01T12:00	13150	166	-58.4	-80.0	353	32	3.2
2025-10-01T12:00	13200	165	-58.6	-80.3	354	32	3.4
2025-10-01T12:00	13250	164	-58.6	-80.5	354	31	3.6
2025-10-01T12:00	13300	163	-58.5	-80.9	354	30	3.8
2025-10-01T12:00	13350	161	-58.2	-81.2	354	29	3.8
2025-10-01T12:00	13400	160	-57.8	-81.8	354	28	4.0
2025-10-01T12:00	13450	159	-58.1	-82.0	352	27	4.1
2025-10-01T12:00	13500	157	-58.5	-81.9	351	26	4.3
2025-10-01T12:00	13550	156	-59.0	-82.0	348	26	4.4
2025-10-01T12:00	13600	155	-58.8	-82.1	346	26	4.6
2025-10-01T12:00	13650	154	-58.6	-82.4	347	26	4.6
2025-10-01T12:00	13700	152	-58.7	-82.4	348	27	4.7
2025-10-01T12:00	13750	151	-59.1	-82.6	350	27	4.8
2025-10-01T12:00	13800	150	-59.1	-82.6	352	28	4.8
2025-10-01T12:00	13850	149	-58.9	-82.7	353	29	4.8
2025-10-01T12:00	13900	148	-58.8	-82.8	354	29	4.7
2025-10-01T12:00	13950	147	-59.1	-82.8	356	28	4.7
2025-10-01T12:00	14000	145	-59.4	-82.8	357	27	4.8
2025-10-01T12:00	14050	144	-59.5	-83.0	358	26	4.8
2025-10-01T12:00	14100	143	-59.8	-83.0	357	25	4.9
2025-10-01T12:00	14150	142	-60.1	-82.8	356	24	4.8
2025-10-01T12:00	14200	141	-60.4	-82.8	355	23	4.6
2025-10-01T12:00	14250	140	-60.4	-82.8	356	22	4.4
2025-10-01T12:00	14300	139	-60.1	-82.7	358	22	4.3
2025-10-01T12:00	14350	137	-60.3	-83.2	0	21	4.2
2025-10-01T12:00	14400	136	-59.6	-83.4	3	20	4.2
2025-10-01T12:00	14450	135	-59.5	-83.5	6	19	4.3
2025-10-01T12:00	14500	134	-59.7	-83.5	7	18	4.6
2025-10-01T12:00	14550	133	-59.5	-83.7	4	17	4.8
2025-10-01T12:00	14600	132	-59.6	-83.8	2	16	4.9
2025-10-01T12:00	14650	131	-59.6	-83.9	358	15	4.9
2025-10-01T12:00	14700	130	-59.7	-83.9	353	14	4.9
2025-10-01T12:00	14750	129	-59.7	-83.9	348	14	4.9
2025-10-01T12:00	14800	128	-59.6	-84.4	344	15	4.8
2025-10-01T12:00	14850	127	-59.6	-84.3	342	15	4.9
2025-10-01T12:00	14900	126	-59.5	-84.2	342	14	4.9
2025-10-01T12:00	14950	125	-59.5	-84.4	341	15	5.0
2025-10-01T12:00	15000	124	-59.8	-84.6	338	16	5.1
2025-10-01T12:00	15050	123	-60.0	-84.6	337	16	5.2
2025-10-01T12:00	15100	122	-60.2	-84.8	337	16	5.2
2025-10-01T12:00	15150	121	-59.9	-84.9	335	16	5.3
2025-10-01T12:00	15200	120	-59.9	-84.9	333	15	5.5
2025-10-01T12:00	15250	119	-60.1	-84.9	332	15	5.6
2025-10-01T12:00	15300	118	-60.3	-85.1	332	14	5.8
2025-10-01T12:00	15350	117	-60.4	-85.2	331	15	5.8
2025-10-01T12:00	15400	116	-60.4	-85.3	330	15	5.9
2025-10-01T12:00	15450	115	-60.5	-85.3	329	16	5.9
2025-10-01T12:00	15500	114	-60.4	-85.2	327	15	5.8
2025-10-01T12:00	15550	113	-60.5	-85.3	328	15	5.7
2025-10-01T12:00	15600	113	-60.6	-85.2	331	14	5.7
2025-10-01T12:00	15650	112	-60.6	-85.2	332	14	5.7
2025-10-01T12:00	15700	111	-60.8	-85.5	330	14	5.7
2025-10-01T12:00	15750	110	-60.9	-85.5	327	14	5.7
2025-10-01T12:00	15800	109	-61.1	-85.4	325	15	5.7
2025-10-01T12:00	15850	108	-61.4	-85.4	324	16	5.6
2025-10-01T12:00	15900	107	-61.6	-85.6	325	16	5.6
2025-10-01T12:00	15950	106	-61.6	-85.8	328	17	5.5
2025-10-01T12:00	16000	105	-61.6	-85.8	330	18	5.5
2025-10-01T12:00	16050	105	-61.2	-85.4	333	18	5.5
2025-10-01T12:00	16100	104	-61.2	-85.5	335	17	5.5
2025-10-01T12:00	16150	103	-61.2	-85.4	337	16	5.4
2025-10-01T12:00	16200	102	-61.2	-85.6	335	16	5.2
2025-10-01T12:00	16250	101	-61.0	-85.8	331	15	5.1
2025-10-01T12:00	16300	101	-60.7	-85.9	326	15	5.2
2025-10-01T12:00	16350	100	-60.8	-86.3	322	14	5.5
2025-10-01T12:00	16400	99	-60.8	-86.5	320	14	5.8
2025-10-01T12:00	16450	98	-59.9	-86.4	321	15	6.2
2025-10-01T12:00	16500	97	-59.4	-86.4	325	15	6.4
2025-10-01T12:00	16550	97	-59.2	-86.5	329	15	6.6
2025-10-01T12:00	16600	96	-59.3	-86.6	334	16	6.8
2025-10-01T12:00	16650	95	-59.0	-86.2	337	16	6.9
2025-10-01T12:00	16700	94	-59.0	-86.2	337	16	6.9
2025-10-01T12:00	16750	94	-59.3	-86.6	337	17	6.8
2025-10-01T12:00	16800	93	-59.2	-86.4	339	16	6.8
2025-10-01T12:00	16850	92	-59.1	-86.0	340	15	6.8
2025-10-01T12:00	16900	91	-59.6	-86.2	341	13	6.7
2025-10-01T12:00	16950	91	-59.9	-86.3	339	11	6.6
2025-10-01T12:00	17000	90	-60.0	-86.8	336	10	6.6
2025-10-01T12:00	17050	89	-59.8	-86.6	332	10	6.6
2025-10-01T12:00	17100	88	-60.0	-86.5	327	10	6.7
2025-10-01T12:00	17150	88	-60.2	-86.7	322	10	6.8
2025-10-01T12:00	17200	87	-60.1	-86.9	318	10	6.8
2025-10-01T12:00	17250	86	-59.7	-86.9	319	10	6.9
2025-10-01T12:00	17300	86	-59.6	-87.0	320	10	7.0
2025-10-01T12:00	17350	85	-59.8	-87.1	318	10	7.1
2025-10-01T12:00	17400	84	-60.2	-87.1	316	10	7.1
2025-10-01T12:00	17450	84	-60.3	-86.9	317	10	7.2
2025-10-01T12:00	17500	83	-60.3	-86.8	320	11	7.2
2025-10-01T12:00	17550	82	-60.0	-86.9	321	11	7.3
2025-10-01T12:00	17600	82	-60.1	-87.2	319	12	7.4
2025-10-01T12:00	17650	81	-60.0	-87.1	319	12	7.3
2025-10-01T12:00	17700	80	-60.0	-86.9	323	12	7.1
2025-10-01T12:00	17750	80	-60.0	-86.9	328	12	7.1
2025-10-01T12:00	17800	79	-60.1	-87.2	333	11	7.1
2025-10-01T12:00	17850	78	-59.8	-87.1	334	11	7.2
2025-10-01T12:00	17900	78	-59.7	-87.1	333	11	7.2
2025-10-01T12:00	17950	77	-59.4	-87.1	334	11	7.3
2025-10-01T12:00	18000	77	-59.4	-87.1	333	10	7.6
2025-10-01T12:00	18050	76	-59.6	-87.1	330	9	7.7
2025-10-01T12:00	18100	75	-59.9	-87.1	326	8	7.8
2025-10-01T12:00	18150	75	-59.6	-86.9	326	8	8.1
2025-10-01T12:00	18200	74	-59.7	-87.1	330	9	8.5
2025-10-01T12:00	18250	74	-59.8	-87.1	333	9	8.8
2025-10-01T12:00	18300	73	-59.9	-87.1	337	9	9.1
2025-10-01T12:00	18350	72	-60.0	-87.0	343	8	9.2
2025-10-01T12:00	18400	72	-60.3	-87.3	345	8	9.1
2025-10-01T12:00	18450	71	-60.5	-87.5	342	7	9.0
2025-10-01T12:00	18500	71	-60.7	-87.6	336	7	9.0
2025-10-01T12:00	18550	70	-60.7	-87.6	333	6	9.1
2025-10-01T12:00	18600	70	-60.4	-87.5	333	6	9.4
2025-10-01T12:00	18650	69	-60.6	-87.6	329	5	9.9
2025-10-01T12:00	18700	68	-60.2	-87.3	315	5	10.1
2025-10-01T12:00	18750	68	-60.1	-87.4	302	6	10.4
2025-10-01T12:00	18800	67	-60.1	-87.5	299	7	10.6
2025-10-01T12:00	18850	67	-60.3	-87.5	300	8	10.8
2025-10-01T12:00	18900	66	-60.4	-87.5	302	9	10.8
2025-10-01T12:00	18950	66	-60.7	-87.7	306	10	10.9
2025-10-01T12:00	19000	65	-60.5	-87.7	313	10	11.0
2025-10-01T12:00	19050	65	-60.0	-87.5	325	9	11.1
2025-10-01T12:00	19100	64	-59.9	-87.5	338	9	11.1
2025-10-01T12:00	19150	64	-59.7	-87.5	345	9	11.2
2025-10-01T12:00	19200	63	-59.7	-87.6	344	8	11.2
2025-10-01T12:00	19250	63	-59.6	-87.6	337	7	11.2
2025-10-01T12:00	19300	62	-59.7	-87.6	326	6	11.3
2025-10-01T12:00	19350	62	-59.8	-87.6	313	6	11.4
2025-10-01T12:00	19400	61	-59.8	-87.5	298	6	11.5
2025-10-01T12:00	19450	61	-59.9	-87.4	287	7	11.6
2025-10-01T12:00	19500	60	-60.1	-87.3	283	8	11.5
2025-10-01T12:00	19550	60	-60.1	-87.6	286	8	11.5
2025-10-01T12:00	19600	59	-60.0	-87.9	290	9	11.4
2025-10-01T12:00	19650	59	-59.6	-87.7	294	10	11.3
2025-10-01T12:00	19700	58	-59.7	-87.7	299	11	11.3
2025-10-01T12:00	19750	58	-59.7	-87.6	304	10	11.4
2025-10-01T12:00	19800	57	-59.4	-87.4	310	10	11.4
2025-10-01T12:00	19850	57	-59.4	-87.4	318	9	11.4
2025-10-01T12:00	19900	56	-59.3	-87.3	326	8	11.4
2025-10-01T12:00	19950	56	-59.6	-87.5	335	8	11.5
2025-10-01T12:00	20000	56	-59.8	-87.7	344	7	11.5
2025-10-01T12:00	20050	55	-59.5		350	6	11.4
2025-10-01T12:00	20100	55	-59.4		349	5	11.5
2025-10-01T12:00	20150	54	-59.3		340	5	11.5
2025-10-01T12:00	20200	54	-59.3		328	5	11.6
2025-10-01T12:00	20250	53	-59.4		318	5	11.5
2025-10-01T12:00	20300	53	-59.8		313	6	11.5
2025-10-01T12:00	20350	53	-60.0		313	7	11.5
2025-10-01T12:00	20400	52	-59.6		317	6	11.4
2025-10-01T12:00	20450	52	-59.5		320	6	11.3
2025-10-01T12:00	20500	51	-59.0		313	6	11.3
2025-10-01T12:00	20550	51	-58.8		301	7	11.3
2025-10-01T12:00	20600	50	-59.1		292	8	11.3
2025-10-01T12:00	20650	50	-59.2		291	8	11.4
2025-10-01T12:00	20700	50	-58.7		299	7	11.5
2025-10-01T12:00	20750	49	-58.7		314	7	11.6
2025-10-01T12:00	20800	49	-58.7		323	6	11.8
2025-10-01T12:00	20850	49	-58.7		326	6	11.9
2025-10-01T12:00	20900	48	-58.7		324	6	11.8
2025-10-01T12:00	20950	48	-58.7		319	6	11.8
2025-10-01T12:00	21000	47	-58.8		315	6	11.8
2025-10-01T12:00	21050	47	-58.5		317	6	11.7
2025-10-01T12:00	21100	47	-58.0		324	6	11.6
2025-10-01T12:00	21150	46	-58.2		331	5	11.5
2025-10-01T12:00	21200	46	-58.3		331	4	11.4
2025-10-01T12:00	21250	46	-58.1		322	3	11.4
2025-10-01T12:00	21300	45	-57.8		311	3	11.4
2025-10-01T12:00	21350	45	-57.9		305	4	11.5
2025-10-01T12:00	21400	44	-58.3		302	5	11.6
2025-10-01T12:00	21450	44	-58.6		297	5	11.6
2025-10-01T12:00	21500	44	-58.4		291	4	11.6
2025-10-01T12:00	21550	43	-58.6		280	3	11.7
2025-10-01T12:00	21600	43	-59.0		257	2	11.6
2025-10-01T12:00	21650	43	-59.1		232	2	11.7
2025-10-01T12:00	21700	42	-58.9		230	3	11.7
2025-10-01T12:00	21750	42	-58.2		246	3	11.7
2025-10-01T12:00	21800	42	-58.0		264	4	11.8
2025-10-01T12:00	21850	41	-58.2		277	5	11.8
2025-10-01T12:00	21900	41	-58.5		289	6	11.8
2025-10-01T12:00	21950	41	-58.6		302	7	11.9
2025-10-01T12:00	22000	40	-58.7		312	7	11.9
2025-10-01T12:00	22050	40	-58.4		316	7	11.9
2025-10-01T12:00	22100	40	-58.1		316	6	11.8
2025-10-01T12:00	22150	39	-58.0		314	4	11.9
2025-10-01T12:00	22200	39	-58.0		306	3	11.9
2025-10-01T12:00	22250	39	-58.0		285	3	11.9
2025-10-01T12:00	22300	39	-57.8		269	4	11.9
2025-10-01T12:00	22350	38	-57.7		269	5	11.8
2025-10-01T12:00	22400	38	-57.1		276	6	11.9
2025-10-01T12:00	22450	38	-56.6		284	6	12.1
2025-10-01T12:00	22500	37	-56.5		287	7	12.1
2025-10-01T12:00	22550	37	-56.6		288	7	12.2
2025-10-01T12:00	22600	37	-56.8		287	7	12.4
2025-10-01T12:00	22650	36	-56.9		287	6	12.4
2025-10-01T12:00	22700	36	-56.9		290	6	12.5
2025-10-01T12:00	22750	36	-56.5		297	6	12.5
2025-10-01T12:00	22800	36	-56.4		304	6	12.6
2025-10-01T12:00	22850	35	-56.6		310	5	12.7
2025-10-01T12:00	22900	35	-56.6		318	4	12.9
2025-10-01T12:00	22950	35	-56.6		329	4	12.8
2025-10-01T12:00	23000	34	-56.6		340	4	13.0
2025-10-01T12:00	23050	34	-56.6		349	4	13.0
2025-10-01T12:00	23100	34	-56.6		357	4	13.1
2025-10-01T12:00	23150	34	-56.5		7	3	13.0
2025-10-01T12:00	23200	33	-56.3		34	2	13.2
2025-10-01T12:00	23250	33	-56.3		83	1	13.3
2025-10-01T12:00	23300	33	-56.7		113	2	13.1
2025-10-01T12:00	23350	33	-57.1		137	1	13.4
2025-10-01T12:00	23400	32	-57.2		183	1	13.5
2025-10-01T12:00	23450	32	-57.2		222	2	13.4
2025-10-01T12:00	23500	32	-57.4		234	3	13.2
2025-10-01T12:00	23550	32	-57.6		237	4	13.1
2025-10-01T12:00	23600	31	-57.6		237	6	13.1
2025-10-01T12:00	23650	31	-57.8		238	7	13.1
2025-10-01T12:00	23700	31	-57.9		242	8	12.9
2025-10-01T12:00	23750	31	-57.6		248	9	12.9
2025-10-01T12:00	23800	30	-57.5		255	10	12.9
2025-10-01T12:00	23850	30	-57.5		261	10	12.9
2025-10-01T12:00	23900	30	-57.6		266	11	12.8
2025-10-01T12:00	23950	30	-57.3		272	11	12.6
2025-10-01T12:00	24000	29	-57.3		278	10	12.7
2025-10-01T12:00	24050	29	-57.6		285	10	12.8
2025-10-01T12:00	24100	29	-57.7		290	11	12.7
2025-10-01T12:00	24150	29	-57.5		296	10	12.5
2025-10-01T12:00	24200	29	-57.2		301	10	12.5
2025-10-01T12:00	24250	28	-57.0		305	9	12.5
2025-10-01T12:00	24300	28	-56.8		306	8	12.4
2025-10-01T12:00	24350	28	-56.9		305	8	12.3
2025-10-01T12:00	24400	28	-57.0		309	8	12.2
2025-10-01T12:00	24450	27	-57.0		316	7	12.2
2025-10-01T12:00	24500	27	-57.0		325	7	12.2
2025-10-01T12:00	24550	27	-57.1		337	6	12.2
2025-10-01T12:00	24600	27	-57.0		348	6	11.9
2025-10-01T12:00	24650	27	-56.8		355	5	12.0
2025-10-01T12:00	24700	26	-56.8		357	3	12.0
2025-10-01T12:00	24750	26	-56.7		350	2	11.8
2025-10-01T12:00	24800	26	-56.7		267	1	11.8
2025-10-01T12:00	24850	26	-56.7		229	2	11.9
2025-10-01T12:00	24900	26	-56.8		233	3	11.8
2025-10-01T12:00	24950	25	-56.5		243	4	11.9
2025-10-01T12:00	25000	25	-56.8		251	5	11.7
2025-10-01T12:00	25050	25	-57.0		258	6	11.6
2025-10-01T12:00	25100	25	-57.3		265	7	11.5
2025-10-01T12:00	25150	25	-57.6		273	8	11.5
2025-10-01T12:00	25200	24	-57.6		285	8	11.4
2025-10-01T12:00	25250	24	-57.5		295	8	11.3
2025-10-01T12:00	25300	24	-57.5		304	8	11.2
2025-10-01T12:00	25350	24	-57.6		314	8	11.2
2025-10-01T12:00	25400	24	-57.6		320	8	11.1
2025-10-01T12:00	25450	23	-57.6		326	7	11.2
2025-10-01T12:00	25500	23	-57.6		331	6	11.0
2025-10-01T12:00	25550	23	-57.3		338	5	11.0
2025-10-01T12:00	25600	23	-57.0		345	3	11.0
2025-10-01T12:00	25650	23	-57.0		350	1	11.0
2025-10-01T12:00	25700	22	-56.9		211	0	11.1
2025-10-01T12:00	25750	22	-56.8		196	1	11.0
2025-10-01T12:00	25800	22	-57.0		201	2	11.0
2025-10-01T12:00	25850	22	-57.0		210	3	10.9
2025-10-01T12:00	25900	22	-56.6		220	3	10.9
2025-10-01T12:00	25950	22	-56.3		228	3	11.0
2025-10-01T12:00	26000	21	-56.2		232	4	11.0
2025-10-01T12:00	26050	21	-56.1		235	4	11.0
2025-10-01T12:00	26100	21	-55.8		238	4	10.9
2025-10-01T12:00	26150	21	-55.6		243	5	10.8
2025-10-01T12:00	26200	21	-55.2		248	5	10.8
2025-10-01T12:00	26250	21	-55.0		252	4	10.8
2025-10-01T12:00	26300	20	-55.1		254	4	10.7
2025-10-01T12:00	26350	20	-55.1		251	4	10.8
2025-10-01T12:00	26400	20	-54.9		239	3	10.6
2025-10-01T12:00	26450	20	-54.7		220	3	10.6
2025-10-01T12:00	26500	20	-54.8		209	4	10.6
2025-10-01T12:00	26550	20	-54.9		209	5	10.5
2025-10-01T12:00	26600	20	-54.8		213	6	10.4
2025-10-01T12:00	26650	19	-55.0		218	6	10.5
2025-10-01T12:00	26700	19	-54.9		220	7	10.4
2025-10-01T12:00	26750	19	-55.1		222	6	10.3
2025-10-01T12:00	26800	19	-55.2		224	6	10.4
2025-10-01T12:00	26850	19	-55.4		227	6	10.4
2025-10-01T12:00	26900	19	-55.5		232	5	10.3
2025-10-01T12:00	26950	18	-55.8		239	5	10.1
2025-10-01T12:00	27000	18	-55.9		246	4	10.2
2025-10-01T12:00	27050	18	-55.9		251	5	10.1
2025-10-01T12:00	27100	18	-55.8		253	5	10.1
2025-10-01T12:00	27150	18	-56.0		253	6	10.1
2025-10-01T12:00	27200	18	-56.1		253	6	10.0
2025-10-01T12:00	27250	18	-56.0		256	7	10.0
2025-10-01T12:00	27300	17	-55.7		260	8	10.0
2025-10-01T12:00	27350	17	-55.7		265	8	9.8
2025-10-01T12:00	27400	17	-55.6		270	8	9.8
2025-10-01T12:00	27450	17	-55.7		273	9	9.7
2025-10-01T12:00	27500	17	-55.7		275	9	9.8
2025-10-01T12:00	27550	17	-55.7		277	10	9.6
2025-10-01T12:00	27600	17	-55.7		278	10	9.6
2025-10-01T12:00	27650	17	-55.6		278	11	9.6
2025-10-01T12:00	27700	16	-55.3		279	11	9.5
2025-10-01T12:00	27750	16	-55.2		282	12	9.4
2025-10-01T12:00	27800	16	-55.2		286	12	9.4
2025-10-01T12:00	27850	16	-54.8		289	13	9.4
2025-10-01T12:00	27900	16	-54.8		291	13	9.3
2025-10-01T12:00	27950	16	-54.7		294	13	9.3
2025-10-01T12:00	28000	16	-54.6		297	13	9.1
2025-10-01T12:00	28050	16	-54.5		299	12	9.1
2025-10-01T12:00	28100	15	-54.2		299	10	9.0
2025-10-01T12:00	28150	15	-54.2		299	9	9.2
2025-10-01T12:00	28200	15	-54.1		300	8	9.1
2025-10-01T12:00	28250	15	-54.1		301	7	9.0
2025-10-01T12:00	28300	15	-54.0		303	6	9.0
2025-10-01T12:00	28350	15	-53.9		305	4	9.0
2025-10-01T12:00	28400	15	-53.9		307	3	8.9
2025-10-01T12:00	28450	15	-53.9		306	3	9.0
2025-10-01T12:00	28500	15	-53.9		296	3	8.8
2025-10-01T12:00	28550	14	-54.0		281	3	8.7
2025-10-01T12:00	28600	14	-54.1		271	4	8.7
2025-10-01T12:00	28650	14	-54.3		270	5	8.7
2025-10-01T12:00	28700	14	-54.1		272	5	8.7
2025-10-01T12:00	28750	14	-54.2		275	6	8.6
2025-10-01T12:00	28800	14	-54.5		279	6	8.5
2025-10-01T12:00	28850	14	-54.6		283	6	8.5
2025-10-01T12:00	28900	14	-54.7		286	7	8.4
2025-10-01T12:00	28950	14	-54.6		290	7	8.2
2025-10-01T12:00	29000	13	-54.5		293	7	8.1
2025-10-01T12:00	29050	13	-54.1		295	7	8.1
2025-10-01T12:00	29100	13	-53.7		294	8	8.1
2025-10-01T12:00	29150	13	-53.5		290	8	7.9
2025-10-01T12:00	29200	13	-53.5		284	7	7.9
2025-10-01T12:00	29250	13	-53.8		277	7	7.9
2025-10-01T12:00	29300	13	-54.0		272	7	7.9
2025-10-01T12:00	29350	13	-54.1		271	7	7.8
2025-10-01T12:00	29400	13	-53.8		272	7	7.7
2025-10-01T12:00	29450	13	-53.5		273	7	7.7
2025-10-01T12:00	29500	12	-53.4		272	7	7.7
2025-10-01T12:00	29550	12	-53.0		269	7	7.7
2025-10-01T12:00	29600	12	-52.3		264	8	7.7
2025-10-01T12:00	29650	12	-52.0		260	8	7.6
2025-10-01T12:00	29700	12	-51.9		257	9	7.6
2025-10-01T12:00	29750	12	-51.8		257	9	7.5
2025-10-01T12:00	29800	12	-51.7		258	9	7.4
2025-10-01T12:00	29850	12	-51.5		259	9	7.3
2025-10-01T12:00	29900	12	-51.4		260	10	7.4
2025-10-01T12:00	29950	12	-51.4		260	10	7.3
2025-10-01T12:00	30000	11	-51.2		260	11	7.3
2025-10-01T12:00	30050	11	-51.1		260	11	7.3
2025-10-01T12:00	30100	11	-51.1		262	11	7.3
2025-10-01T12:00	30150	11	-51.2		265	10	7.2
2025-10-01T12:00	30200	11	-51.4		269	9	7.1
2025-10-01T12:00	30250	11	-51.5		274	9	7.0
2025-10-01T12:00	30300	11	-51.5		277	10	7.0
2025-10-01T12:00	30350	11	-51.4		277	11	7.0
2025-10-01T12:00	30400	11	-51.2		277	12	7.0
2025-10-01T12:00	30450	11	-51.2		276	13	6.8
2025-10-01T12:00	30500	11	-51.3		276	13	6.8
2025-10-01T12:00	30550	11	-51.2		275	11	6.7
2025-10-01T12:00	30600	10	-51.1		273	10	6.7
2025-10-01T12:00	30650	10	-51.4		270	9	6.6
2025-10-01T12:00	30700	10	-51.3		266	8	6.5
2025-10-01T12:00	30750	10	-51.2		261	8	6.4
2025-10-01T12:00	30800	10	-51.1		258	9	6.5
2025-10-01T12:00	30850	10	-51.1		257	9	6.5
2025-10-01T12:00	30900	10	-50.7		257	9	6.5
2025-10-01T12:00	30950	10	-50.5		260	10	6.4
2025-10-01T12:00	31000	10	-50.4		265	11	6.3
2025-10-01T12:00	31050	10	-50.4		271	12	6.3
2025-10-01T12:00	31100	10	-50.5		278	13	6.3
2025-10-01T12:00	31150	10	-50.4		283	15	6.2
2025-10-01T12:00	31200	10	-50.3		286	16	6.2
2025-10-01T12:00	31250	9	-50.0		288	16	6.1
2025-10-01T12:00	31300	9	-49.8		288	16	6.0
2025-10-01T12:00	31350	9	-49.4		285	15	6.0
2025-10-01T12:00	31400	9	-49.3		281	13	6.0
2025-10-01T12:00	31450	9	-49.5		277	12	6.0
2025-10-01T12:00	31500	9	-49.5		272	11	5.8
2025-10-01T12:00	31550	9	-49.4		269	11	5.8
2025-10-01T12:00	31600	9	-49.4		267	11	5.8
2025-10-01T12:00	31650	9	-49.0		267	12	5.7
2025-10-01T12:00	31700	9	-48.8		271	12	5.7
2025-10-01T12:00	31750	9	-48.8		278	13	5.7
2025-10-01T12:00	31800	9	-48.9		286	13	5.6
2025-10-01T12:00	31850	9	-48.6		292	14	5.6
2025-10-01T12:00	31900	9	-48.1		294	14	5.6
2025-10-01T12:00	31950	9	-47.6		291	14	5.6
2025-10-01T12:00	32000	8	-47.6		286	12	
2025-10-01T12:00	32050	8	-47.2		280	11	
2025-10-01T12:00	32100	8	-46.6		277	10	
2025-10-01T12:00	32150	8	-46.3		282	10	
2025-10-01T12:00	32200	8	-46.3		289	11	
2025-10-01T12:00	32250	8	-46.2		296	12	
2025-10-01T12:00	32300	8	-45.9		298	14	
2025-10-01T12:00	32350	8	-45.4		296	15	
2025-10-01T12:00	32400	8	-44.9		291	15	
2025-10-01T12:00	32450	8	-44.6		286	14	
2025-10-01T12:00	32500	8	-44.4		281	12	
2025-10-01T12:00	32550	8	-44.5		276	11	
2025-10-01T12:00	32600	8	-44.5		269	11	
2025-10-01T12:00	32650	8	-44.5		264	11	
2025-10-01T12:00	32700	8	-44.6		262	11	
2025-10-01T12:00	32750	8	-44.7		263	10	
2025-10-01T12:00	32800	7	-45.1		267	10	
2025-10-01T12:00	32850	7	-45.4		273	10	
2025-10-01T12:00	32900	7	-45.5		279	11	
2025-10-01T12:00	32950	7	-45.5		283	13	
2025-10-01T12:00	33000	7	-45.6		287	14	
2025-10-01T12:00	33050	7	-45.8		291	15	
2025-10-01T12:00	33100	7	-45.7		294	15	
2025-10-01T12:00	33150	7	-45.3		294	14	
2025-10-01T12:00	33200	7	-45.2		290	13	
2025-10-01T12:00	33250	7	-45.4		284	11	
2025-10-01T12:00	33300	7	-45.6		276	10	
2025-10-01T12:00	33350	7	-45.7		270	10	
2025-10-01T12:00	33400	7	-45.7		268	10	
2025-10-02T00:00	491	967	6.4	4.7	63	1	
2025-10-02T00:00	520	964	7.7	4.3	64	1	
2025-10-02T00:00	540	962	7.8	4.2	60	2	
2025-10-02T00:00	560	960	7.7	4.1	57	2	
2025-10-02T00:00	580	957	7.5	3.9	54	3	
2025-10-02T00:00	600	955	7.9	3.6	53	3	
2025-10-02T00:00	620	953	7.9	3.5	53	4	
2025-10-02T00:00	640	950	7.7	3.4	54	4	
2025-10-02T00:00	660	948	7.6	3.3	55	5	
2025-10-02T00:00	680	946	7.4	3.3	57	5	
2025-10-02T00:00	700	943	7.3	3.3	59	6	
2025-10-02T00:00	720	941	7.2	3.2	61	7	
2025-10-02T00:00	740	939	7.2	3.0	62	7	
2025-10-02T00:00	760	936	7.1	2.9	63	8	
2025-10-02T00:00	780	934	6.9	2.9	64	9	
2025-10-02T00:00	800	932	6.8	2.8	64	9	
2025-10-02T00:00	820	930	6.8	2.6	64	10	
2025-10-02T00:00	840	927	6.7	2.5	64	10	
2025-10-02T00:00	860	925	6.7	2.2	64	10	
2025-10-02T00:00	880	923	7.1	1.9	63	10	
2025-10-02T00:00	900	921	7.2	1.7	63	10	
2025-10-02T00:00	920	918	7.3	1.6	62	10	
2025-10-02T00:00	940	916	7.5	1.2	61	10	
2025-10-02T00:00	960	914	7.6	0.9	60	11	
2025-10-02T00:00	980	912	7.8	0.3	60	11	
2025-10-02T00:00	1000	909	7.8	0.0	61	12	
2025-10-02T00:00	1020	907	7.7	-0.2	62	12	
2025-10-02T00:00	1040	905	7.6	-0.3	62	12	
2025-10-02T00:00	1060	903	7.4	-0.5	63	12	
2025-10-02T00:00	1080	901	7.2	-0.8	64	12	
2025-10-02T00:00	1100	899	7.1	-0.8	65	12	
2025-10-02T00:00	1120	896	6.9	-1.0	65	12	
2025-10-02T00:00	1140	894	6.8	-1.1	65	12	
2025-10-02T00:00	1160	892	6.6	-1.2	65	12	
2025-10-02T00:00	1180	890	6.4	-1.2	66	11	
2025-10-02T00:00	1200	887	6.3	-1.2	67	11	
2025-10-02T00:00	1220	885	6.1	-1.6	67	11	
2025-10-02T00:00	1240	883	6.0	-1.9	68	11	
2025-10-02T00:00	1260	881	5.8	-2.0	68	11	
2025-10-02T00:00	1280	879	5.7	-2.2	68	11	
2025-10-02T00:00	1300	877	5.5	-2.2	68	11	
2025-10-02T00:00	1320	875	5.3	-2.3	67	11	
2025-10-02T00:00	1340	873	5.2	-2.6	66	11	
2025-10-02T00:00	1360	870	5.0	-2.9	64	11	
2025-10-02T00:00	1380	868	4.9	-3.3	63	11	
2025-10-02T00:00	1400	866	4.7	-3.8	62	12	
2025-10-02T00:00	1420	864	4.6	-4.2	61	11	
2025-10-02T00:00	1440	862	4.5	-4.4	60	11	
2025-10-02T00:00	1460	860	4.5	-4.2	60	11	
2025-10-02T00:00	1480	858	4.3	-4.2	60	11	
2025-10-02T00:00	1500	855	4.1	-4.2	60	11	
2025-10-02T00:00	1520	854	3.9	-4.3	61	11	
2025-10-02T00:00	1540	851	3.8	-4.3	61	10	
2025-10-02T00:00	1560	849	3.7	-4.2	61	10	
2025-10-02T00:00	1580	847	3.5	-4.3	61	10	
2025-10-02T00:00	1600	845	3.3	-4.1	62	10	
2025-10-02T00:00	1620	843	3.2	-3.9	63	10	
2025-10-02T00:00	1640	841	3.1	-3.8	65	10	
2025-10-02T00:00	1660	839	2.9	-3.9	66	9	
2025-10-02T00:00	1680	837	2.8	-4.1	67	9	
2025-10-02T00:00	1700	835	2.6	-4.2	68	9	
2025-10-02T00:00	1720	833	2.4	-4.3	68	9	
2025-10-02T00:00	1740	831	2.2	-4.4	68	9	
2025-10-02T00:00	1760	828	2.1	-4.5	68	8	
2025-10-02T00:00	1780	826	1.9	-4.6	67	8	
2025-10-02T00:00	1800	824	1.8	-4.3	66	8	
2025-10-02T00:00	1820	822	1.7	-3.8	64	7	
2025-10-02T00:00	1840	820	1.6	-3.2	64	7	
2025-10-02T00:00	1860	818	1.4	-2.8	63	6	
2025-10-02T00:00	1880	816	1.3	-2.5	63	6	
2025-10-02T00:00	1900	814	1.3	-2.5	63	5	
2025-10-02T00:00	1920	812	1.4	-2.7	65	5	
2025-10-02T00:00	1940	810	1.4	-2.8	67	4	
2025-10-02T00:00	1960	808	1.3	-2.9	69	4	
2025-10-02T00:00	1980	806	1.2	-2.9	70	4	
2025-10-02T00:00	2000	804	1.1	-2.9	70	4	
2025-10-02T00:00	2020	802	0.9	-2.9	69	4	
2025-10-02T00:00	2040	800	0.8	-2.8	67	4	
2025-10-02T00:00	2060	798	0.7	-2.5	66	4	
2025-10-02T00:00	2080	796	0.7	-3.3	65	4	
2025-10-02T00:00	2100	794	0.9	-5.9	65	5	
2025-10-02T00:00	2120	793	1.3	-10.6	66	5	
2025-10-02T00:00	2140	791	1.9	-16.9	67	5	
2025-10-02T00:00	2160	788	2.9	-26.0	70	5	
2025-10-02T00:00	2180	786	3.4	-31.9	72	5	
2025-10-02T00:00	2200	785	3.5	-35.2	73	6	
2025-10-02T00:00	2220	783	3.6	-40.4	73	6	
2025-10-02T00:00	2240	781	3.6	-41.6	72	6	
2025-10-02T00:00	2260	779	3.5	-42.3	71	6	
2025-10-02T00:00	2280	777	3.4	-42.6	69	6	
2025-10-02T00:00	2300	775	3.4	-43.6	68	6	
2025-10-02T00:00	2320	773	3.4	-42.1	66	6	
2025-10-02T00:00	2340	771	3.2	-34.3	66	6	
2025-10-02T00:00	2360	769	3.1	-32.7	65	6	
2025-10-02T00:00	2380	767	2.9	-31.9	65	6	
2025-10-02T00:00	2400	765	2.7	-31.0	65	6	
2025-10-02T00:00	2420	764	2.6	-30.1	64	6	
2025-10-02T00:00	2440	762	2.4	-30.3	63	6	
2025-10-02T00:00	2460	760	2.3	-30.5	62	6	
2025-10-02T00:00	2480	758	2.2	-30.9	60	6	
2025-10-02T00:00	2500	756	2.2	-31.5	58	6	
2025-10-02T00:00	2520	754	2.1	-31.2	57	6	
2025-10-02T00:00	2540	752	2.0	-31.3	54	6	
2025-10-02T00:00	2560	750	1.9	-32.0	52	6	
2025-10-02T00:00	2580	749	1.8	-32.7	51	7	
2025-10-02T00:00	2600	747	1.7	-33.1	49	7	
2025-10-02T00:00	2620	745	1.6	-33.3	48	7	
2025-10-02T00:00	2640	743	1.4	-33.3	47	7	
2025-10-02T00:00	2660	741	1.3	-33.2	46	7	
2025-10-02T00:00	2680	739	1.1	-33.4	44	7	
2025-10-02T00:00	2700	737	1.0	-33.3	43	7	
2025-10-02T00:00	2720	736	0.9	-33.1	42	7	
2025-10-02T00:00	2740	734	0.9	-33.2	39	7	
2025-10-02T00:00	2760	732	0.8	-33.5	36	7	
2025-10-02T00:00	2780	730	0.6	-33.8	33	7	
2025-10-02T00:00	2800	728	0.5	-34.1	29	8	
2025-10-02T00:00	2820	726	0.4	-35.0	25	8	
2025-10-02T00:00	2840	725	0.7	-39.1	21	8	
2025-10-02T00:00	2860	723	0.9	-42.2	17	8	
2025-10-02T00:00	2880	721	0.9	-42.8	14	9	
2025-10-02T00:00	2900	719	0.8	-42.8	12	9	
2025-10-02T00:00	2920	717	0.7	-42.8	10	9	
2025-10-02T00:00	2940	716	0.6	-42.3	8	8	
2025-10-02T00:00	2960	714	0.7	-40.7	6	8	
2025-10-02T00:00	2980	712	0.6	-39.4	5	8	
2025-10-02T00:00	3000	711	0.5	-38.1	4	8	
2025-10-02T00:00	3020	709	0.4	-38.2	2	8	
2025-10-02T00:00	3040	707	0.2	-38.0	2	8	
2025-10-02T00:00	3060	705	0.1	-37.9	2	8	
2025-10-02T00:00	3080	703	-0.1	-38.0	2	8	
2025-10-02T00:00	3100	702	-0.2	-38.0	3	8	
2025-10-02T00:00	3120	700	-0.4	-37.8	3	8	
2025-10-02T00:00	3140	698	-0.5	-37.7	4	8	
2025-10-02T00:00	3160	696	-0.7	-37.4	4	8	
2025-10-02T00:00	3180	695	-0.9	-37.3	4	8	
2025-10-02T00:00	3200	693	-1.0	-37.2	5	8	
2025-10-02T00:00	3220	691	-1.2	-37.0	6	8	
2025-10-02T00:00	3240	689	-1.3	-36.8	6	8	
2025-10-02T00:00	3260	688	-1.5	-36.6	7	9	
2025-10-02T00:00	3280	686	-1.6	-36.8	8	9	
2025-10-02T00:00	3300	684	-1.7	-37.2	8	9	
2025-10-02T00:00	3320	683	-1.8	-38.0	9	9	
2025-10-02T00:00	3340	681	-1.9	-36.9	10	9	
2025-10-02T00:00	3360	679	-2.1	-35.5	11	9	
2025-10-02T00:00	3380	677	-2.3	-35.5	11	9	
2025-10-02T00:00	3400	676	-2.4	-35.1	12	9	
2025-10-02T00:00	3420	674	-2.6	-34.2	12	9	
2025-10-02T00:00	3440	672	-2.8	-33.7	12	9	
2025-10-02T00:00	3460	670	-3.0	-33.4	11	9	
2025-10-02T00:00	3480	669	-3.2	-33.4	10	9	
2025-10-02T00:00	3500	667	-3.3	-33.6	8	9	
2025-10-02T00:00	3520	665	-3.5	-34.7	7	10	
2025-10-02T00:00	3540	664	-3.6	-37.1	6	10	
2025-10-02T00:00	3560	662	-3.7	-39.2	5	10	
2025-10-02T00:00	3580	660	-3.8	-43.8	4	10	
2025-10-02T00:00	3600	659	-3.8	-45.9	3	10	
2025-10-02T00:00	3620	657	-3.9	-45.2	1	10	
2025-10-02T00:00	3640	655	-4.1	-45.0	359	10	
2025-10-02T00:00	3660	654	-4.3	-45.1	358	10	
2025-10-02T00:00	3680	652	-4.5	-45.6	357	10	
2025-10-02T00:00	3700	651	-4.6	-45.7	356	10	
2025-10-02T00:00	3720	649	-4.7	-42.1	356	11	
2025-10-02T00:00	3740	647	-4.8	-34.6	357	11	
2025-10-02T00:00	3760	645	-4.9	-30.9	357	11	
2025-10-02T00:00	3780	644	-5.1	-26.6	358	12	
2025-10-02T00:00	3800	642	-5.2	-26.3	359	12	
2025-10-02T00:00	3820	641	-5.4	-27.4	1	12	
2025-10-02T00:00	3840	639	-5.5	-27.9	2	12	
2025-10-02T00:00	3860	637	-5.8	-27.3	4	12	
2025-10-02T00:00	3880	636	-5.9	-26.4	7	12	
2025-10-02T00:00	3900	634	-6.1	-26.4	9	12	
2025-10-02T00:00	3920	632	-6.3	-26.6	12	12	
2025-10-02T00:00	3940	631	-6.5	-26.6	14	12	
2025-10-02T00:00	3960	629	-6.7	-26.5	15	12	
2025-10-02T00:00	3980	627	-6.9	-26.5	16	11	
2025-10-02T00:00	4000	626	-7.1	-26.5	16	11	
2025-10-02T00:00	4020	624	-7.2	-26.4	15	11	
2025-10-02T00:00	4040	623	-7.4	-26.6	14	11	
2025-10-02T00:00	4060	621	-7.6	-26.8	12	11	
2025-10-02T00:00	4080	620	-7.8	-26.9	10	11	
2025-10-02T00:00	4100	618	-7.9	-27.1	7	11	
2025-10-02T00:00	4120	616	-8.1	-27.3	3	10	
2025-10-02T00:00	4140	615	-8.3	-27.6	0	10	
2025-10-02T00:00	4160	613	-8.4	-27.7	358	11	
2025-10-02T00:00	4180	611	-8.6	-27.7	356	11	
2025-10-02T00:00	4200	610	-8.8	-27.7	354	11	
2025-10-02T00:00	4220	609	-8.7	-27.8	353	11	
2025-10-02T00:00	4240	607	-8.7	-28.2	353	12	
2025-10-02T00:00	4260	605	-8.7	-29.6	354	12	
2025-10-02T00:00	4280	604	-8.7	-31.0	356	13	
2025-10-02T00:00	4300	602	-8.8	-32.5	357	14	
2025-10-02T00:00	4320	601	-8.8	-34.8	359	15	
2025-10-02T00:00	4340	599	-8.7	-37.7	360	16	
2025-10-02T00:00	4360	598	-8.5	-42.5	1	17	
2025-10-02T00:00	4380	596	-8.4	-46.0	0	18	
2025-10-02T00:00	4400	594	-8.4	-46.8	360	18	
2025-10-02T00:00	4420	593	-8.2	-43.6	360	18	
2025-10-02T00:00	4440	591	-8.2	-37.3	360	18	
2025-10-02T00:00	4460	590	-8.3	-35.5	0	18	
2025-10-02T00:00	4480	588	-8.4	-34.0	1	18	
2025-10-02T00:00	4500	587	-8.5	-32.6	2	17	
2025-10-02T00:00	4520	585	-8.7	-31.7	4	17	
2025-10-02T00:00	4540	584	-8.7	-33.0	6	17	
2025-10-02T00:00	4560	582	-8.8	-33.7	7	17	
2025-10-02T00:00	4580	581	-8.9	-33.8	7	17	
2025-10-02T00:00	4600	579	-9.0	-33.7	6	17	
2025-10-02T00:00	4620	578	-9.1	-34.0	6	18	
2025-10-02T00:00	4640	576	-9.1	-37.9	5	18	
2025-10-02T00:00	4660	575	-9.1	-42.3	4	18	
2025-10-02T00:00	4680	573	-9.1	-45.4	3	19	
2025-10-02T00:00	4700	572	-9.3	-45.4	3	19	
2025-10-02T00:00	4720	570	-9.4	-45.3	3	19	
2025-10-02T00:00	4740	569	-9.4	-43.4	3	19	
2025-10-02T00:00	4760	567	-9.6	-34.3	3	20	
2025-10-02T00:00	4780	566	-9.8	-31.8	4	20	
2025-10-02T00:00	4800	565	-9.9	-32.0	4	20	
2025-10-02T00:00	4820	563	-10.1	-32.6	4	20	
2025-10-02T00:00	4840	562	-10.2	-34.3	3	20	
2025-10-02T00:00	4860	560	-10.3	-35.8	3	19	
2025-10-02T00:00	4880	559	-10.5	-34.1	2	19	
2025-10-02T00:00	4900	557	-10.6	-31.9	1	19	
2025-10-02T00:00	4920	556	-10.8	-31.4	1	18	
2025-10-02T00:00	4940	554	-10.9	-31.3	0	18	
2025-10-02T00:00	4960	553	-11.1	-31.0	0	18	
2025-10-02T00:00	4980	551	-11.2	-30.8	0	18	
2025-10-02T00:00	5000	550	-11.4	-30.7	0	18	
2025-10-02T00:00	5020	548	-11.5	-30.8	0	18	
2025-10-02T00:00	5040	547	-11.6	-30.4	360	18	
2025-10-02T00:00	5060	546	-11.8	-30.1	360	19	
2025-10-02T00:00	5080	544	-11.9	-30.8	359	19	
2025-10-02T00:00	5100	543	-12.0	-31.1	359	19	
2025-10-02T00:00	5120	542	-12.2	-30.5	358	19	
2025-10-02T00:00	5140	540	-12.3	-29.9	358	18	
2025-10-02T00:00	5160	538	-12.5	-29.6	357	18	
2025-10-02T00:00	5180	537	-12.6	-29.7	356	18	
2025-10-02T00:00	5200	536	-12.7	-29.7	356	18	
2025-10-02T00:00	5220	534	-12.9	-29.9	356	19	
2025-10-02T00:00	5240	533	-13.1	-30.1	356	19	
2025-10-02T00:00	5260	532	-13.3	-30.4	357	19	
2025-10-02T00:00	5280	530	-13.4	-30.7	357	19	
2025-10-02T00:00	5300	529	-13.6	-30.9	358	19	
2025-10-02T00:00	5320	527	-13.8	-31.0	359	19	
2025-10-02T00:00	5340	526	-13.9	-31.2	359	19	
2025-10-02T00:00	5360	525	-14.1	-31.3	359	19	
2025-10-02T00:00	5380	523	-14.3	-31.5	359	19	
2025-10-02T00:00	5400	522	-14.4	-31.7	359	19	
2025-10-02T00:00	5420	521	-14.5	-31.8	359	19	
2025-10-02T00:00	5440	519	-14.6	-31.8	359	20	
2025-10-02T00:00	5460	518	-14.7	-32.0	358	20	
2025-10-02T00:00	5480	516	-14.7	-32.2	358	20	
2025-10-02T00:00	5500	515	-14.9	-32.1	359	20	
2025-10-02T00:00	5520	514	-15.0	-32.2	359	20	
2025-10-02T00:00	5540	512	-15.1	-32.6	359	21	
2025-10-02T00:00	5560	511	-15.2	-32.8	360	21	
2025-10-02T00:00	5580	510	-15.3	-32.2	0	22	
2025-10-02T00:00	5600	508	-15.4	-31.3	1	23	
2025-10-02T00:00	5620	507	-15.5	-30.8	1	23	
2025-10-02T00:00	5640	506	-15.7	-29.7	0	23	
2025-10-02T00:00	5660	504	-15.9	-28.8	0	23	
2025-10-02T00:00	5680	503	-16.1	-28.1	359	23	
2025-10-02T00:00	5700	502	-16.2	-27.7	358	22	
2025-10-02T00:00	5720	500	-16.3	-28.9	357	22	
2025-10-02T00:00	5740	499	-16.4	-28.7	356	22	
2025-10-02T00:00	5760	497	-16.6	-28.9	355	22	
2025-10-02T00:00	5780	496	-16.7	-29.0	355	22	
2025-10-02T00:00	5800	495	-16.6	-28.8	355	22	
2025-10-02T00:00	5820	494	-16.6	-26.9	355	23	
2025-10-02T00:00	5840	492	-16.8	-25.2	355	23	
2025-10-02T00:00	5860	491	-16.9	-25.2	355	23	
2025-10-02T00:00	5880	490	-17.1	-25.5	355	23	
2025-10-02T00:00	5900	488	-17.3	-25.5	355	23	
2025-10-02T00:00	5920	487	-17.4	-25.5	355	22	
2025-10-02T00:00	5940	486	-17.6	-25.1	355	22	
2025-10-02T00:00	5960	485	-17.8	-24.6	356	22	
2025-10-02T00:00	5980	483	-18.0	-24.6	356	22	
2025-10-02T00:00	6000	482	-18.2	-24.5	356	22	
2025-10-02T00:00	6020	481	-18.4	-24.4	357	23	
2025-10-02T00:00	6040	479	-18.6	-24.5	356	23	
2025-10-02T00:00	6060	478	-18.7	-24.5	356	23	
2025-10-02T00:00	6080	477	-18.9	-24.2	355	23	
2025-10-02T00:00	6100	475	-19.0	-23.9	355	23	
2025-10-02T00:00	6120	474	-19.2	-23.5	354	23	
2025-10-02T00:00	6140	473	-19.3	-22.9	354	23	
2025-10-02T00:00	6160	472	-19.4	-23.0	355	24	
2025-10-02T00:00	6180	471	-19.4	-23.0	355	24	
2025-10-02T00:00	6200	469	-19.4	-23.0	355	25	
2025-10-02T00:00	6220	468	-19.5	-23.1	356	25	
2025-10-02T00:00	6240	467	-19.5	-23.3	357	26	
2025-10-02T00:00	6260	465	-19.5	-23.5	357	26	
2025-10-02T00:00	6280	464	-19.5	-23.7	357	27	
2025-10-02T00:00	6300	463	-19.7	-24.0	357	27	
2025-10-02T00:00	6320	462	-19.8	-24.1	357	27	
2025-10-02T00:00	6340	460	-20.0	-24.3	356	27	
2025-10-02T00:00	6360	459	-20.2	-24.5	356	27	
2025-10-02T00:00	6380	458	-20.3	-24.7	356	27	
2025-10-02T00:00	6400	457	-20.4	-25.0	356	27	
2025-10-02T00:00	6420	455	-20.6	-25.4	356	27	
2025-10-02T00:00	6440	454	-20.7	-25.8	357	28	
2025-10-02T00:00	6460	453	-20.8	-26.5	357	28	
2025-10-02T00:00	6480	452	-21.0	-26.6	358	28	
2025-10-02T00:00	6500	451	-21.1	-26.2	359	28	
2025-10-02T00:00	6520	449	-21.3	-26.2	360	29	
2025-10-02T00:00	6540	448	-21.4	-26.2	0	29	
2025-10-02T00:00	6560	447	-21.6	-26.4	1	29	
2025-10-02T00:00	6580	446	-21.7	-26.6	2	29	
2025-10-02T00:00	6600	444	-21.9	-27.0	2	29	
2025-10-02T00:00	6620	443	-22.0	-27.2	3	29	
2025-10-02T00:00	6640	442	-22.0	-27.9	3	29	
2025-10-02T00:00	6660	441	-22.0	-28.5	3	28	
2025-10-02T00:00	6680	440	-22.1	-28.7	3	28	
2025-10-02T00:00	6700	438	-22.3	-28.9	2	27	
2025-10-02T00:00	6720	437	-22.4	-29.3	1	27	
2025-10-02T00:00	6740	436	-22.5	-29.6	1	27	
2025-10-02T00:00	6760	435	-22.6	-29.7	360	27	
2025-10-02T00:00	6780	434	-22.8	-29.8	359	26	
2025-10-02T00:00	6800	432	-23.0	-30.0	359	26	
2025-10-02T00:00	6820	431	-23.2	-30.0	358	26	
2025-10-02T00:00	6840	430	-23.3	-30.1	358	26	
2025-10-02T00:00	6860	429	-23.5	-30.2	358	26	
2025-10-02T00:00	6880	428	-23.7	-30.4	358	26	
2025-10-02T00:00	6900	427	-23.9	-30.5	358	26	
2025-10-02T00:00	6920	425	-24.1	-30.5	358	27	
2025-10-02T00:00	6940	424	-24.3	-30.5	358	27	
2025-10-02T00:00	6960	423	-24.4	-30.4	358	27	
2025-10-02T00:00	6980	422	-24.6	-30.7	358	28	
2025-10-02T00:00	7000	421	-24.8	-30.8	358	28	
2025-10-02T00:00	7020	420	-25.0	-30.7	358	28	
2025-10-02T00:00	7040	419	-25.1	-30.7	358	28	
2025-10-02T00:00	7060	417	-25.4	-30.6	358	28	
2025-10-02T00:00	7080	416	-25.6	-30.8	358	28	
2025-10-02T00:00	7100	415	-25.7	-31.0	357	28	
2025-10-02T00:00	7120	414	-25.9	-31.0	356	28	
2025-10-02T00:00	7140	413	-26.1	-30.9	355	27	
2025-10-02T00:00	7160	412	-26.3	-30.9	354	27	
2025-10-02T00:00	7180	411	-26.4	-30.9	354	27	
2025-10-02T00:00	7200	409	-26.6	-31.1	353	26	
2025-10-02T00:00	7220	408	-26.8	-31.3	352	26	
2025-10-02T00:00	7240	407	-27.0	-31.4	352	26	
2025-10-02T00:00	7260	406	-27.1	-31.3	353	26	
2025-10-02T00:00	7280	405	-27.3	-31.3	353	26	
2025-10-02T00:00	7300	404	-27.5	-31.6	353	26	
2025-10-02T00:00	7320	403	-27.7	-31.7	354	26	
2025-10-02T00:00	7340	401	-27.9	-31.8	354	27	
2025-10-02T00:00	7360	400	-28.1	-32.1	353	27	
2025-10-02T00:00	7380	399	-28.2	-32.6	353	27	
2025-10-02T00:00	7400	398	-28.3	-33.1	353	27	
2025-10-02T00:00	7420	397	-28.3	-33.4	352	28	
2025-10-02T00:00	7440	396	-28.4	-33.4	351	28	
2025-10-02T00:00	7460	395	-28.5	-33.2	351	28	
2025-10-02T00:00	7480	394	-28.7	-32.9	350	29	
2025-10-02T00:00	7500	393	-28.8	-32.2	349	29	
2025-10-02T00:00	7520	392	-29.0	-32.1	349	29	
2025-10-02T00:00	7540	390	-29.2	-32.3	348	29	
2025-10-02T00:00	7560	389	-29.3	-31.9	348	30	
2025-10-02T00:00	7580	388	-29.5	-31.8	348	30	
2025-10-02T00:00	7600	387	-29.7	-31.7	347	30	
2025-10-02T00:00	7620	386	-29.9	-31.5	347	31	
2025-10-02T00:00	7640	385	-30.0	-31.7	347	31	
2025-10-02T00:00	7660	384	-29.9	-31.7	347	31	
2025-10-02T00:00	7680	383	-30.0	-31.7	348	32	
2025-10-02T00:00	7700	382	-30.1	-32.1	348	32	
2025-10-02T00:00	7720	381	-30.2	-32.3	348	32	
2025-10-02T00:00	7740	380	-30.3	-32.8	349	32	
2025-10-02T00:00	7760	379	-30.1	-35.6	350	32	
2025-10-02T00:00	7780	377	-30.0	-37.1	350	32	
2025-10-02T00:00	7800	376	-30.1	-39.2	351	32	
2025-10-02T00:00	7820	376	-30.1	-40.3	351	32	
2025-10-02T00:00	7840	374	-30.2	-40.9	352	32	
2025-10-02T00:00	7860	373	-30.3	-41.6	352	32	
2025-10-02T00:00	7880	372	-30.4	-42.0	352	33	
2025-10-02T00:00	7900	371	-30.5	-42.1	351	33	
2025-10-02T00:00	7920	370	-30.7	-42.2	351	33	
2025-10-02T00:00	7940	369	-30.8	-42.3	351	33	
2025-10-02T00:00	7960	368	-31.0	-42.7	350	33	
2025-10-02T00:00	7980	367	-31.0	-43.4	350	33	
2025-10-02T00:00	8000	366	-31.1	-44.5	350	33	
2025-10-02T00:00	8020	365	-31.2	-45.1	350	33	
2025-10-02T00:00	8040	364	-31.3	-46.0	350	33	
2025-10-02T00:00	8060	363	-31.4	-46.7	351	33	
2025-10-02T00:00	8080	362	-31.6	-46.9	351	33	
2025-10-02T00:00	8100	361	-31.7	-47.2	351	33	
2025-10-02T00:00	8120	360	-31.9	-47.3	351	33	
2025-10-02T00:00	8140	359	-32.1	-47.4	352	33	
2025-10-02T00:00	8160	358	-32.3	-47.6	352	33	
2025-10-02T00:00	8180	357	-32.4	-48.3	352	33	
2025-10-02T00:00	8200	356	-32.6	-48.5	353	33	
2025-10-02T00:00	8220	355	-32.7	-49.0	353	33	
2025-10-02T00:00	8240	354	-32.8	-50.0	353	33	
2025-10-02T00:00	8260	353	-33.0	-50.3	353	33	
2025-10-02T00:00	8280	352	-33.1	-49.1	352	33	
2025-10-02T00:00	8300	351	-33.3	-47.7	352	33	
2025-10-02T00:00	8320	350	-33.5	-48.1	352	33	
2025-10-02T00:00	8340	349	-33.7	-48.1	352	33	
2025-10-02T00:00	8360	348	-33.8	-48.0	352	33	
2025-10-02T00:00	8380	347	-34.0	-48.5	351	32	
2025-10-02T00:00	8400	346	-34.2	-48.4	351	32	
2025-10-02T00:00	8420	345	-34.4	-47.9	352	32	
2025-10-02T00:00	8440	344	-34.6	-48.2	352	32	
2025-10-02T00:00	8460	343	-34.7	-48.4	352	32	
2025-10-02T00:00	8480	342	-34.9	-48.4	352	33	
2025-10-02T00:00	8500	341	-35.1	-48.7	352	33	
2025-10-02T00:00	8520	340	-35.3	-48.6	352	33	
2025-10-02T00:00	8540	339	-35.5	-48.3	352	33	
2025-10-02T00:00	8560	338	-35.7	-48.3	352	33	
2025-10-02T00:00	8580	337	-35.9	-48.2	352	33	
2025-10-02T00:00	8600	336	-36.1	-48.3	352	33	
2025-10-02T00:00	8620	335	-36.3	-48.3	352	33	
2025-10-02T00:00	8640	334	-36.5	-48.3	352	32	
2025-10-02T00:00	8660	333	-36.7	-48.2	352	32	
2025-10-02T00:00	8680	332	-36.9	-47.9	352	32	
2025-10-02T00:00	8700	331	-37.1	-48.0	353	32	
2025-10-02T00:00	8720	330	-37.2	-48.3	353	31	
2025-10-02T00:00	8740	329	-37.4	-48.5	353	32	
2025-10-02T00:00	8760	328	-37.6	-48.6	353	32	
2025-10-02T00:00	8780	327	-37.8	-48.8	354	32	
2025-10-02T00:00	8800	326	-38.0	-49.1	354	32	
2025-10-02T00:00	8820	325	-38.1	-49.0	354	32	
2025-10-02T00:00	8840	324	-38.3	-50.2	355	32	
2025-10-02T00:00	8860	324	-38.4	-50.8	355	32	
2025-10-02T00:00	8880	323	-38.5	-51.1	355	32	
2025-10-02T00:00	8900	322	-38.6	-51.8	356	33	
2025-10-02T00:00	8920	321	-38.7	-52.0	356	33	
2025-10-02T00:00	8940	320	-38.8	-52.9	356	33	
2025-10-02T00:00	8960	319	-38.8	-53.4	356	33	
2025-10-02T00:00	8980	318	-39.0	-53.6	356	33	
2025-10-02T00:00	9000	317	-38.9	-54.7	356	33	
2025-10-02T00:00	9020	316	-38.9	-56.0	356	33	
2025-10-02T00:00	9040	315	-38.8	-56.9	357	33	
2025-10-02T00:00	9060	314	-39.0	-56.9	357	33	
2025-10-02T00:00	9080	313	-39.1	-57.5	357	33	
2025-10-02T00:00	9100	312	-39.2	-59.0	357	33	
2025-10-02T00:00	9120	312	-39.2	-60.2	357	34	
2025-10-02T00:00	9140	311	-39.3	-60.7	357	34	
2025-10-02T00:00	9160	310	-39.3	-60.9	356	34	
2025-10-02T00:00	9180	309	-39.5	-60.8	355	34	
2025-10-02T00:00	9200	308	-39.5	-60.9	355	34	
2025-10-02T00:00	9220	307	-39.7	-60.8	354	34	
2025-10-02T00:00	9240	306	-39.8	-60.8	353	34	
2025-10-02T00:00	9260	305	-40.0	-61.0	353	34	
2025-10-02T00:00	9280	304	-40.2	-61.2	353	34	
2025-10-02T00:00	9300	303	-40.3	-61.3	353	34	
2025-10-02T00:00	9320	303	-40.5	-61.3	352	34	
2025-10-02T00:00	9340	302	-40.7	-61.3	352	35	
2025-10-02T00:00	9360	301	-40.9	-61.5	352	35	
2025-10-02T00:00	9380	300	-41.0	-61.5	351	35	
2025-10-02T00:00	9400	299	-41.2	-61.6	351	35	
2025-10-02T00:00	9420	298	-41.4	-61.7	350	35	
2025-10-02T00:00	9440	297	-41.5	-61.8	350	36	
2025-10-02T00:00	9460	296	-41.7	-61.9	349	36	
2025-10-02T00:00	9480	296	-41.9	-62.1	348	36	
2025-10-02T00:00	9500	295	-42.0	-62.2	348	36	
2025-10-02T00:00	9520	294	-42.2	-62.2	348	36	
2025-10-02T00:00	9540	293	-42.3	-62.6	348	36	
2025-10-02T00:00	9560	292	-42.4	-62.9	348	35	
2025-10-02T00:00	9580	291	-42.6	-63.1	348	35	
2025-10-02T00:00	9600	290	-42.8	-63.2	349	35	
2025-10-02T00:00	9620	289	-43.0	-63.1	349	35	
2025-10-02T00:00	9640	289	-43.2	-63.2	349	35	
2025-10-02T00:00	9660	288	-43.4	-63.2	349	34	
2025-10-02T00:00	9680	287	-43.6	-63.2	349	34	
2025-10-02T00:00	9700	286	-43.8	-63.4	349	35	
2025-10-02T00:00	9720	285	-43.9	-63.8	349	35	
2025-10-02T00:00	9740	284	-43.9	-64.2	349	35	
2025-10-02T00:00	9760	283	-44.1	-64.2	349	35	
2025-10-02T00:00	9780	283	-44.2	-64.3	350	36	
2025-10-02T00:00	9800	282	-44.4	-64.2	350	36	
2025-10-02T00:00	9820	281	-44.5	-64.2	350	37	
2025-10-02T00:00	9840	280	-44.7	-64.2	351	37	
2025-10-02T00:00	9860	279	-44.9	-64.2	351	37	
2025-10-02T00:00	9880	278	-45.1	-64.3	352	37	
2025-10-02T00:00	9900	278	-45.3	-64.3	352	37	
2025-10-02T00:00	9920	277	-45.4	-64.2	353	38	
2025-10-02T00:00	9940	276	-45.6	-64.3	353	38	
2025-10-02T00:00	9960	275	-45.8	-64.4	353	38	
2025-10-02T00:00	9980	274	-45.9	-64.5	354	38	
2025-10-02T00:00	10000	273	-46.1	-64.5	354	38	
2025-10-02T00:00	10018	273	-46.2	-64.6	354	38	
2025-10-02T00:00	10050	271	-46.5	-64.5	354	38	
2025-10-02T00:00	10100	269	-46.9	-64.6	354	38	
2025-10-02T00:00	10150	267	-47.3	-64.9	355	38	
2025-10-02T00:00	10200	265	-47.7	-65.0	356	38	
2025-10-02T00:00	10250	263	-48.1	-65.0	357	38	
2025-10-02T00:00	10300	261	-48.5	-65.2	358	39	
2025-10-02T00:00	10350	259	-48.8	-65.4	357	39	
2025-10-02T00:00	10400	257	-49.0	-66.0	357	40	
2025-10-02T00:00	10450	255	-49.2	-66.0	357	41	
2025-10-02T00:00	10500	253	-49.4	-67.1	358	41	
2025-10-02T00:00	10550	252	-49.7	-68.4	359	41	
2025-10-02T00:00	10600	250	-49.9	-68.8	360	41	
2025-10-02T00:00	10650	248	-50.0	-69.2	360	41	
2025-10-02T00:00	10700	246	-50.2	-69.2	360	41	
2025-10-02T00:00	10750	244	-50.5	-69.3	360	41	
2025-10-02T00:00	10800	242	-50.9	-69.3	360	40	
2025-10-02T00:00	10850	240	-51.3	-69.3	359	39	
2025-10-02T00:00	10900	238	-51.7	-69.4	359	39	
2025-10-02T00:00	10950	237	-52.0	-69.4	358	39	
2025-10-02T00:00	11000	235	-52.4	-69.5	357	39	
2025-10-02T00:00	11050	233	-52.7	-69.4	355	39	
2025-10-02T00:00	11100	231	-52.9	-69.4	353	38	
2025-10-02T00:00	11150	229	-53.1	-69.1	351	38	
2025-10-02T00:00	11200	228	-53.3	-69.4	351	38	
2025-10-02T00:00	11250	226	-53.5	-69.2	352	38	
2025-10-02T00:00	11300	224	-53.6	-68.3	353	39	
2025-10-02T00:00	11350	222	-53.9	-67.8	354	39	
2025-10-02T00:00	11400	221	-54.3	-67.5	355	40	
2025-10-02T00:00	11450	219	-54.5	-67.1	355	41	
2025-10-02T00:00	11500	217	-54.6	-67.0	355	42	
2025-10-02T00:00	11550	216	-54.4	-67.2	356	43	
2025-10-02T00:00	11600	214	-54.4	-67.4	357	42	
2025-10-02T00:00	11650	212	-54.1	-68.8	358	42	
2025-10-02T00:00	11700	211	-53.9	-69.3	358	43	
2025-10-02T00:00	11750	209	-54.4	-69.0	357	43	
2025-10-02T00:00	11800	207	-54.9	-68.8	356	44	
2025-10-02T00:00	11850	205	-55.4	-68.7	354	45	
2025-10-02T00:00	11900	204	-55.8	-68.5	352	45	
2025-10-02T00:00	11950	202	-56.1	-68.3	352	46	
2025-10-02T00:00	12000	201	-56.4	-68.3	352	46	
2025-10-02T00:00	12050	199	-56.7	-68.4	354	45	
2025-10-02T00:00	12100	198	-56.9	-69.0	355	44	
2025-10-02T00:00	12150	196	-56.7	-69.6	357	43	
2025-10-02T00:00	12200	195	-56.8	-70.1	358	42	
2025-10-02T00:00	12250	193	-57.0	-70.4	359	41	
2025-10-02T00:00	12300	192	-57.3	-70.6	0	41	
2025-10-02T00:00	12350	190	-57.6	-70.7	1	40	
2025-10-02T00:00	12400	189	-57.9	-70.9	2	39	
2025-10-02T00:00	12450	187	-58.2	-71.1	2	38	
2025-10-02T00:00	12500	186	-58.5	-71.4	2	36	
2025-10-02T00:00	12550	184	-58.6	-71.7	1	35	
2025-10-02T00:00	12600	183	-58.8	-72.1	359	34	
2025-10-02T00:00	12650	181	-59.1	-72.2	357	33	
2025-10-02T00:00	12700	180	-59.4	-72.5	355	33	
2025-10-02T00:00	12750	178	-59.6	-73.0	352	32	
2025-10-02T00:00	12800	177	-59.9	-73.1	350	32	
2025-10-02T00:00	12850	175	-60.1	-73.4	348	33	
2025-10-02T00:00	12900	174	-60.4	-73.5	346	34	
2025-10-02T00:00	12950	173	-60.5	-73.4	345	34	
2025-10-02T00:00	13000	171	-60.8	-73.6	345	35	
2025-10-02T00:00	13050	170	-61.0	-73.7	345	35	
2025-10-02T00:00	13100	169	-61.3	-74.0	344	36	
2025-10-02T00:00	13150	167	-61.5	-74.5	343	36	
2025-10-02T00:00	13200	166	-61.3	-74.9	342	36	
2025-10-02T00:00	13250	165	-61.4	-75.2	341	36	
2025-10-02T00:00	13300	163	-61.5	-75.4	341	37	
2025-10-02T00:00	13350	162	-61.7	-75.8	344	36	
2025-10-02T00:00	13400	161	-61.4	-76.4	347	36	
2025-10-02T00:00	13450	159	-61.1	-76.9	350	35	
2025-10-02T00:00	13500	158	-61.2	-77.4	352	34	
2025-10-02T00:00	13550	157	-61.4	-77.7	353	32	
2025-10-02T00:00	13600	155	-61.8	-77.9	354	31	
2025-10-02T00:00	13650	154	-62.2	-78.0	355	30	
2025-10-02T00:00	13700	153	-62.5	-78.2	355	29	
2025-10-02T00:00	13750	152	-62.9	-78.5	354	28	
2025-10-02T00:00	13800	150	-62.9	-78.8	353	27	
2025-10-02T00:00	13850	149	-62.8	-79.2	351	28	
2025-10-02T00:00	13900	148	-63.0	-79.5	350	28	
2025-10-02T00:00	13950	147	-63.1	-79.8	351	28	
2025-10-02T00:00	14000	146	-62.7	-79.9	351	28	
2025-10-02T00:00	14050	145	-62.8	-80.2	350	28	
2025-10-02T00:00	14100	143	-62.9	-80.4	347	28	
2025-10-02T00:00	14150	142	-62.9	-80.8	344	27	
2025-10-02T00:00	14200	141	-62.9	-81.3	340	27	
2025-10-02T00:00	14250	140	-62.7	-81.7	339	27	
2025-10-02T00:00	14300	139	-61.9	-82.1	340	27	
2025-10-02T00:00	14350	138	-61.0	-82.1	342	26	
2025-10-02T00:00	14400	137	-60.9	-82.2	343	25	
2025-10-02T00:00	14450	135	-61.0	-82.4	345	25	
2025-10-02T00:00	14500	134	-60.7	-82.4	345	25	
2025-10-02T00:00	14550	133	-60.5	-82.4	345	25	
2025-10-02T00:00	14600	132	-60.7	-82.6	344	25	
2025-10-02T00:00	14650	131	-60.7	-82.7	344	26	
2025-10-02T00:00	14700	130	-60.7	-82.7	345	26	
2025-10-02T00:00	14750	129	-60.7	-82.9	348	25	
2025-10-02T00:00	14800	128	-60.5	-82.9	351	24	
2025-10-02T00:00	14850	127	-60.8	-83.0	354	24	
2025-10-02T00:00	14900	126	-61.1	-83.0	355	23	
2025-10-02T00:00	14950	125	-61.3	-83.1	356	22	
2025-10-02T00:00	15000	124	-61.6	-83.2	356	20	
2025-10-02T00:00	15050	123	-61.8	-83.3	355	20	
2025-10-02T00:00	15100	122	-61.9	-83.5	352	19	
2025-10-02T00:00	15150	121	-61.9	-83.6	350	19	
2025-10-02T00:00	15200	120	-62.0	-83.8	347	19	
2025-10-02T00:00	15250	119	-61.8	-83.8	347	19	
2025-10-02T00:00	15300	118	-61.8	-83.9	347	20	
2025-10-02T00:00	15350	117	-62.0	-84.0	347	20	
2025-10-02T00:00	15400	116	-62.0	-84.1	347	21	
2025-10-02T00:00	15450	115	-62.3	-84.3	348	20	
2025-10-02T00:00	15500	114	-62.2	-84.2	349	20	
2025-10-02T00:00	15550	113	-62.3	-84.4	348	19	
2025-10-02T00:00	15600	113	-62.3	-84.6	345	19	
2025-10-02T00:00	15650	112	-62.2	-84.6	340	19	
2025-10-02T00:00	15700	111	-62.3	-84.9	337	19	
2025-10-02T00:00	15750	110	-62.2	-85.0	336	20	
2025-10-02T00:00	15800	109	-61.8	-85.0	338	20	
2025-10-02T00:00	15850	108	-61.5	-85.0	340	20	
2025-10-02T00:00	15900	107	-61.4	-84.9	342	19	
2025-10-02T00:00	15950	106	-61.3	-84.8	344	17	
2025-10-02T00:00	16000	105	-61.1	-84.7	346	16	
2025-10-02T00:00	16050	105	-61.3	-84.8	348	16	
2025-10-02T00:00	16100	104	-61.5	-84.8	348	16	
2025-10-02T00:00	16150	103	-61.7	-84.8	348	16	
2025-10-02T00:00	16200	102	-61.9	-84.8	347	15	
2025-10-02T00:00	16250	101	-61.9	-85.0	346	15	
2025-10-02T00:00	16300	101	-61.9	-85.1	345	15	
2025-10-02T00:00	16350	100	-62.0	-85.2	344	15	
2025-10-02T00:00	16400	99	-62.0	-85.2	346	14	
2025-10-02T00:00	16450	98	-62.2	-85.3	345	13	
2025-10-02T00:00	16500	97	-62.3	-85.4	343	12	
2025-10-02T00:00	16550	97	-62.4	-85.6	341	12	
2025-10-02T00:00	16600	96	-62.1	-85.7	338	13	
2025-10-02T00:00	16650	95	-61.6	-85.7	335	13	
2025-10-02T00:00	16700	94	-61.6	-85.9	333	13	
2025-10-02T00:00	16750	93	-61.6	-85.9	332	13	
2025-10-02T00:00	16800	93	-61.7	-85.9	332	14	
2025-10-02T00:00	16850	92	-61.6	-86.0	334	15	
2025-10-02T00:00	16900	91	-61.0	-86.1	339	15	
2025-10-02T00:00	16950	90	-60.2	-85.9	342	16	
2025-10-02T00:00	17000	90	-59.9	-85.8	344	16	
2025-10-02T00:00	17050	89	-60.3	-85.9	345	16	
2025-10-02T00:00	17100	88	-60.3	-85.8	348	15	
2025-10-02T00:00	17150	88	-60.4	-85.8	351	14	
2025-10-02T00:00	17200	87	-60.5	-85.8	353	13	
2025-10-02T00:00	17250	86	-60.9	-85.8	354	14	
2025-10-02T00:00	17300	86	-61.2	-85.9	355	13	
2025-10-02T00:00	17350	85	-61.4	-85.9	356	13	
2025-10-02T00:00	17400	84	-61.4	-86.0	357	12	
2025-10-02T00:00	17450	83	-61.6	-86.2	353	12	
2025-10-02T00:00	17500	83	-61.7	-86.3	345	11	
2025-10-02T00:00	17550	82	-61.7	-86.4	339	12	
2025-10-02T00:00	17600	81	-61.5	-86.3	337	12	
2025-10-02T00:00	17650	81	-61.7	-86.4	338	12	
2025-10-02T00:00	17700	80	-61.7	-86.4	341	12	
2025-10-02T00:00	17750	80	-61.8	-86.4	339	12	
2025-10-02T00:00	17800	79	-61.8	-86.5	337	11	
2025-10-02T00:00	17850	78	-61.8	-86.5	335	11	
2025-10-02T00:00	17900	78	-61.8	-86.6	334	10	
2025-10-02T00:00	17950	77	-61.8	-86.6	328	9	
2025-10-02T00:00	18000	76	-61.7	-86.7	318	8	
2025-10-02T00:00	18050	76	-61.7	-86.8	309	9	
2025-10-02T00:00	18100	75	-61.6	-86.8	303	9	
2025-10-02T00:00	18150	75	-60.9	-86.6	303	9	
2025-10-02T00:00	18200	74	-60.9	-86.7	308	10	
2025-10-02T00:00	18250	73	-60.9	-86.7	313	10	
2025-10-02T00:00	18300	73	-60.5	-86.5	313	10	
2025-10-02T00:00	18350	72	-60.4	-86.4	308	10	
2025-10-02T00:00	18400	72	-60.6	-86.4	304	11	
2025-10-02T00:00	18450	71	-60.9	-86.6	307	11	
2025-10-02T00:00	18500	70	-60.6	-86.5	315	10	
2025-10-02T00:00	18550	70	-60.6	-86.5	326	10	
2025-10-02T00:00	18600	69	-60.6	-86.4	332	10	
2025-10-02T00:00	18650	69	-60.8	-86.5	331	9	
2025-10-02T00:00	18700	68	-60.7	-86.4	325	9	
2025-10-02T00:00	18750	68	-60.8	-86.4	319	8	
2025-10-02T00:00	18800	67	-61.2	-86.5	315	8	
2025-10-02T00:00	18850	67	-61.4	-86.7	310	7	
2025-10-02T00:00	18900	66	-61.3	-86.6	306	7	
2025-10-02T00:00	18950	66	-61.5	-86.7	304	7	
2025-10-02T00:00	19000	65	-61.5	-86.8	304	7	
2025-10-02T00:00	19050	64	-61.3	-86.9	306	7	
2025-10-02T00:00	19100	64	-61.0	-86.9	313	8	
2025-10-02T00:00	19150	63	-60.7	-87.0	324	8	
2025-10-02T00:00	19200	63	-59.9	-86.7	331	8	
2025-10-02T00:00	19250	62	-59.5	-86.7	330	8	
2025-10-02T00:00	19300	62	-59.2	-86.6	326	8	
2025-10-02T00:00	19350	61	-59.0	-86.5	325	8	
2025-10-02T00:00	19400	61	-58.5	-86.2	326	8	
2025-10-02T00:00	19450	60	-58.3	-86.1	326	8	
2025-10-02T00:00	19500	60	-58.3	-86.0	328	8	
2025-10-02T00:00	19550	60	-58.3	-86.0	331	7	
2025-10-02T00:00	19600	59	-58.4	-85.9	328	6	
2025-10-02T00:00	19650	59	-58.5	-85.9	324	6	
2025-10-02T00:00	19700	58	-58.8	-86.0	320	6	
2025-10-02T00:00	19750	58	-58.9	-86.0	315	5	
2025-10-02T00:00	19800	57	-59.0	-86.0	311	6	
2025-10-02T00:00	19850	57	-59.4	-86.1	308	6	
2025-10-02T00:00	19900	56	-59.7	-86.3	307	7	
2025-10-02T00:00	19950	56	-59.8	-86.4	307	8	
2025-10-02T00:00	20000	55	-59.7	-86.4	310	9	
2025-10-02T00:00	20050	55	-59.6		317	8	
2025-10-02T00:00	20100	55	-59.1		325	7	
2025-10-02T00:00	20150	54	-59.1		329	6	
2025-10-02T00:00	20200	54	-59.2		324	6	
2025-10-02T00:00	20250	53	-59.0		313	5	
2025-10-02T00:00	20300	53	-59.1		300	5	
2025-10-02T00:00	20350	52	-59.3		288	4	
2025-10-02T00:00	20400	52	-59.7		281	4	
2025-10-02T00:00	20450	52	-60.1		283	5	
2025-10-02T00:00	20500	51	-60.4		290	5	
2025-10-02T00:00	20550	51	-60.6		295	5	
2025-10-02T00:00	20600	50	-60.6		297	6	
2025-10-02T00:00	20650	50	-60.3		299	7	
2025-10-02T00:00	20700	50	-60.1		303	7	
2025-10-02T00:00	20750	49	-59.9		309	7	
2025-10-02T00:00	20800	49	-59.6		310	7	
2025-10-02T00:00	20850	48	-59.4		307	7	
2025-10-02T00:00	20900	48	-59.1		302	8	
2025-10-02T00:00	20950	48	-59.3		298	9	
2025-10-02T00:00	21000	47	-59.4		297	9	
2025-10-02T00:00	21050	47	-59.1		297	9	
2025-10-02T00:00	21100	46	-59.1		300	10	
2025-10-02T00:00	21150	46	-59.0		304	10	
2025-10-02T00:00	21200	46	-58.6		308	12	
2025-10-02T00:00	21250	45	-58.5		311	12	
2025-10-02T00:00	21300	45	-58.3		314	12	
2025-10-02T00:00	21350	45	-58.4		318	12	
2025-10-02T00:00	21400	44	-58.6		322	11	
2025-10-02T00:00	21450	44	-58.7		329	9	
2025-10-02T00:00	21500	44	-58.6		336	8	
2025-10-02T00:00	21550	43	-58.2		337	6	
2025-10-02T00:00	21600	43	-58.3		331	5	
2025-10-02T00:00	21650	43	-58.4		312	4	
2025-10-02T00:00	21700	42	-58.2		286	3	
2025-10-02T00:00	21750	42	-58.4		268	4	
2025-10-02T00:00	21800	42	-58.7		262	4	
2025-10-02T00:00	21850	41	-58.6		264	4	
2025-10-02T00:00	21900	41	-58.6		269	5	
2025-10-02T00:00	21950	41	-58.2		275	6	
2025-10-02T00:00	22000	40	-57.9		281	6	
2025-10-02T00:00	22050	40	-58.1		286	7	
2025-10-02T00:00	22100	40	-58.4		290	7	
2025-10-02T00:00	22150	39	-58.7		292	8	
2025-10-02T00:00	22200	39	-58.8		290	8	
2025-10-02T00:00	22250	39	-58.9		286	7	
2025-10-02T00:00	22300	38	-59.1		284	7	
2025-10-02T00:00	22350	38	-59.0		287	7	
2025-10-02T00:00	22400	38	-58.9		291	8	
2025-10-02T00:00	22450	37	-58.9		293	8	
2025-10-02T00:00	22500	37	-59.0		291	7	
2025-10-02T00:00	22550	37	-59.1		292	7	
2025-10-02T00:00	22600	37	-59.1		295	8	
2025-10-02T00:00	22650	36	-58.7		298	9	
2025-10-02T00:00	22700	36	-58.0		299	9	
2025-10-02T00:00	22750	36	-58.0		302	10	
2025-10-02T00:00	22800	35	-57.5		308	10	
2025-10-02T00:00	22850	35	-57.3		315	10	
2025-10-02T00:00	22900	35	-57.4		320	10	
2025-10-02T00:00	22950	35	-57.5		324	9	
2025-10-02T00:00	23000	34	-57.5		329	9	
2025-10-02T00:00	23050	34	-57.6		333	8	
2025-10-02T00:00	23100	34	-57.5		334	7	
2025-10-02T00:00	23150	34	-57.4		328	7	
2025-10-02T00:00	23200	33	-57.4		321	7	
2025-10-02T00:00	23250	33	-57.2		321	8	
2025-10-02T00:00	23300	33	-56.8		323	9	
2025-10-02T00:00	23350	32	-56.6		326	9	
2025-10-02T00:00	23400	32	-56.4		331	9	
2025-10-02T00:00	23450	32	-56.5		338	9	
2025-10-02T00:00	23500	32	-56.6		349	7	
2025-10-02T00:00	23550	31	-56.6		2	6	
2025-10-02T00:00	23600	31	-56.4		15	5	
2025-10-02T00:00	23650	31	-56.4		21	5	
2025-10-02T00:00	23700	31	-56.5		18	5	
2025-10-02T00:00	23750	31	-56.7		14	5	
2025-10-02T00:00	23800	30	-56.7		16	6	
2025-10-02T00:00	23850	30	-56.4		23	6	
2025-10-02T00:00	23900	30	-56.4		32	5	
2025-10-02T00:00	23950	30	-56.6		42	5	
2025-10-02T00:00	24000	29	-56.7		60	4	
2025-10-02T00:00	24050	29	-56.6		88	4	
2025-10-02T00:00	24100	29	-56.7		118	4	
2025-10-02T00:00	24150	29	-56.8		135	5	
2025-10-02T00:00	24200	28	-57.0		144	6	
2025-10-02T00:00	24250	28	-57.3		150	6	
2025-10-02T00:00	24300	28	-57.7		158	6	
2025-10-02T00:00	24350	28	-58.1		171	6	
2025-10-02T00:00	24400	28	-58.3		188	5	
2025-10-02T00:00	24450	27	-57.7		204	5	
2025-10-02T00:00	24500	27	-57.5		219	5	
2025-10-02T00:00	24550	27	-57.8		231	5	
2025-10-02T00:00	24600	27	-58.0		241	5	
2025-10-02T00:00	24650	26	-58.2		251	5	
2025-10-02T00:00	24700	26	-58.3		261	4	
2025-10-02T00:00	24750	26	-58.3		272	4	
2025-10-02T00:00	24800	26	-58.1		280	4	
2025-10-02T00:00	24850	26	-57.9		287	4	
2025-10-02T00:00	24900	25	-57.9		294	4	
2025-10-02T00:00	24950	25	-57.5		302	5	
2025-10-02T00:00	25000	25	-57.4		308	5	
2025-10-02T00:00	25050	25	-57.2		310	5	
2025-10-02T00:00	25100	25	-57.0		306	4	
2025-10-02T00:00	25150	24	-57.0		294	4	
2025-10-02T00:00	25200	24	-56.7		280	5	
2025-10-02T00:00	25250	24	-56.7		268	5	
2025-10-02T00:00	25300	24	-56.9		261	5	
2025-10-02T00:00	25350	24	-57.0		258	5	
2025-10-02T00:00	25400	24	-56.9		260	4	
2025-10-02T00:00	25450	23	-57.2		266	4	
2025-10-02T00:00	25500	23	-57.4		273	4	
2025-10-02T00:00	25550	23	-57.4		277	3	
2025-10-02T00:00	25600	23	-57.5		281	3	
2025-10-02T00:00	25650	23	-57.8		287	4	
2025-10-02T00:00	25700	22	-57.7		294	4	
2025-10-02T00:00	25750	22	-57.6		304	5	
2025-10-02T00:00	25800	22	-57.7		314	5	
2025-10-02T00:00	25850	22	-57.8		322	5	
2025-10-02T00:00	25900	22	-57.7		327	5	
2025-10-02T00:00	25950	22	-57.6		326	4	
2025-10-02T00:00	26000	21	-57.5		312	3	
2025-10-02T00:00	26050	21	-57.4		283	3	
2025-10-02T00:00	26100	21	-57.3		257	3	
2025-10-02T00:00	26150	21	-56.7		251	3	
2025-10-02T00:00	26200	21	-56.5		259	4	
2025-10-02T00:00	26250	21	-56.3		269	5	
2025-10-02T00:00	26300	20	-55.9		275	5	
2025-10-02T00:00	26350	20	-55.5		280	5	
2025-10-02T00:00	26400	20	-55.3		285	4	
2025-10-02T00:00	26450	20	-55.2		288	4	
2025-10-02T00:00	26500	20	-55.3		283	4	
2025-10-02T00:00	26550	20	-55.1		279	4	
2025-10-02T00:00	26600	19	-55.0		280	4	
2025-10-02T00:00	26650	19	-54.9		283	4	
2025-10-02T00:00	26700	19	-55.0		278	4	
2025-10-02T00:00	26750	19	-55.0		262	4	
2025-10-02T00:00	26800	19	-54.6		243	4	
2025-10-02T00:00	26850	19	-54.7		232	4	
2025-10-02T00:00	26900	19	-54.8		237	4	
2025-10-02T00:00	26950	18	-54.5		249	5	
2025-10-02T00:00	27000	18	-54.3		254	5	
2025-10-02T00:00	27050	18	-54.3		249	6	
2025-10-02T00:00	27100	18	-54.3		242	6	
2025-10-02T00:00	27150	18	-54.5		239	5	
2025-10-02T00:00	27200	18	-54.5		240	5	
2025-10-02T00:00	27250	18	-54.4		239	5	
2025-10-02T00:00	27300	17	-54.7		232	5	
2025-10-02T00:00	27350	17	-55.0		222	5	
2025-10-02T00:00	27400	17	-55.2		211	6	
2025-10-02T00:00	27450	17	-55.6		206	6	
2025-10-02T00:00	27500	17	-56.0		205	6	
2025-10-02T00:00	27550	17	-56.5		208	7	
2025-10-02T00:00	27600	17	-56.9		214	7	
2025-10-02T00:00	27650	16	-57.2		222	6	
2025-10-02T00:00	27700	16	-57.3		233	6	
2025-10-02T00:00	27750	16	-57.2		243	6	
2025-10-02T00:00	27800	16	-57.3		251	6	
2025-10-02T00:00	27850	16	-57.3		253	7	
2025-10-02T00:00	27900	16	-57.1		254	8	
2025-10-02T00:00	27950	16	-57.2		255	10	
2025-10-02T00:00	28000	16	-57.3		258	11	
2025-10-02T00:00	28050	15	-57.3		259	12	
2025-10-02T00:00	28100	15	-56.7		260	11	
2025-10-02T00:00	28150	15	-56.2		265	11	
2025-10-02T00:00	28200	15	-56.0		274	11	
2025-10-02T00:00	28250	15	-55.2		282	11	
2025-10-02T00:00	28300	15	-54.4		286	11	
2025-10-02T00:00	28350	15	-53.9		288	11	
2025-10-02T00:00	28400	15	-53.6		290	10	
2025-10-02T00:00	28450	15	-53.3		293	10	
2025-10-02T00:00	28500	14	-52.8		293	10	
2025-10-02T00:00	28550	14	-52.4		294	10	
2025-10-02T00:00	28600	14	-52.4		295	10	
2025-10-02T00:00	28650	14	-52.4		295	10	
2025-10-02T00:00	28700	14	-52.4		295	10	
2025-10-02T00:00	28750	14	-52.7		295	10	
2025-10-02T00:00	28800	14	-52.9		295	10	
2025-10-02T00:00	28850	14	-53.0		295	10	
2025-10-02T00:00	28900	14	-53.3		294	10	
2025-10-02T00:00	28950	13	-53.4		293	10	
2025-10-02T00:00	29000	13	-53.2		291	10	
2025-10-02T00:00	29050	13	-53.3		288	9	
2025-10-02T00:00	29100	13	-52.9		286	9	
2025-10-02T00:00	29150	13	-52.7		286	9	
2025-10-02T00:00	29200	13	-52.4		286	9	
2025-10-02T00:00	29250	13	-52.3		286	9	
2025-10-02T00:00	29300	13	-52.2		288	9	
2025-10-02T00:00	29350	13	-52.2		291	9	
2025-10-02T00:00	29400	13	-52.1		295	10	
2025-10-02T00:00	29450	12	-52.1		298	10	
2025-10-02T00:00	29500	12	-52.4		300	10	
2025-10-02T00:00	29550	12	-52.8		301	10	
2025-10-02T00:00	29600	12	-53.2		301	10	
2025-10-02T00:00	29650	12	-53.5		300	10	
2025-10-02T00:00	29700	12	-53.7		300	9	
2025-10-02T00:00	29750	12	-53.3		297	8	
2025-10-02T00:00	29800	12	-52.7		289	7	
2025-10-02T00:00	29850	12	-52.5		279	7	
2025-10-02T00:00	29900	12	-52.6		268	7	
2025-10-02T00:00	29950	12	-52.7		255	7	
2025-10-02T00:00	30000	11	-52.5		241	8	
2025-10-02T00:00	30050	11	-52.3		232	8	
2025-10-02T00:00	30100	11	-52.2		230	9	
2025-10-02T00:00	30150	11	-51.7		231	9	
2025-10-02T00:00	30200	11	-51.5		232	10	
2025-10-02T00:00	30250	11	-51.3		233	10	
2025-10-02T00:00	30300	11	-51.1		235	10	
2025-10-02T00:00	30350	11	-50.6		238	10	
2025-10-02T00:00	30400	11	-49.9		243	10	
2025-10-02T00:00	30450	11	-49.4		247	9	
2025-10-02T00:00	30500	11	-49.1		250	9	
2025-10-02T00:00	30550	11	-49.2		251	10	
2025-10-02T00:00	30600	10	-49.1		249	10	
2025-10-02T00:00	30650	10	-48.9		249	11	
2025-10-02T00:00	30700	10	-48.7		249	12	
2025-10-02T00:00	30750	10	-48.9		250	12	
2025-10-02T00:00	30800	10	-49.3		251	12	
2025-10-02T00:00	30850	10	-49.7		252	13	
2025-10-02T00:00	30900	10	-50.0		254	13	
2025-10-02T00:00	30950	10	-50.4		258	14	
2025-10-02T00:00	31000	10	-50.6		262	14	
2025-10-02T00:00	31050	10	-50.7		266	14	
2025-10-02T00:00	31100	10	-50.8		269	14	
2025-10-02T00:00	31150	10	-51.2		271	14	
2025-10-02T00:00	31200	10	-51.2		273	14	
2025-10-02T00:00	31250	9	-50.9		273	15	
2025-10-02T00:00	31300	9	-50.8		274	15	
2025-10-02T00:00	31350	9	-50.9		275	15	
2025-10-02T00:00	31400	9	-50.3		278	15	
2025-10-02T00:00	31450	9	-50.2		283	14	
2025-10-02T00:00	31500	9	-50.4		289	13	
2025-10-02T00:00	31550	9	-50.4		295	12	
2025-10-02T00:00	31600	9	-50.4		300	11	
2025-10-02T00:00	31650	9	-50.5		304	11	
2025-10-02T00:00	31700	9	-50.7		303	11	
2025-10-02T00:00	31750	9	-50.6		298	10	
2025-10-02T00:00	31800	9	-50.5		292	10	
2025-10-02T00:00	31850	9	-50.0		285	10	
2025-10-02T00:00	31900	9	-50.0		281	11	
2025-10-02T00:00	31950	8	-49.8		278	12	
2025-10-02T00:00	32000	8	-49.5		277	12	
2025-10-02T00:00	32050	8	-49.5		279	13	
2025-10-02T00:00	32100	8	-49.3		281	14	
2025-10-02T00:00	32150	8	-49.3		283	14	
2025-10-02T00:00	32200	8	-49.4		281	14	
2025-10-02T00:00	32250	8	-49.4		278	14	
2025-10-02T00:00	32300	8	-49.5		276	15	
2025-10-02T00:00	32350	8	-49.4		273	17	
2025-10-02T00:00	32400	8	-49.0		273	18	
2025-10-02T00:00	32450	8	-48.8		274	18	
2025-10-02T00:00	32500	8	-48.6		278	18	
2025-10-02T00:00	32550	8	-48.7		284	18	
2025-10-02T00:00	32600	8	-48.7		289	19	
2025-10-02T00:00	32650	8	-48.9		292	20	
2025-10-02T00:00	32700	8	-48.8		293	21	
2025-10-02T00:00	32750	8	-48.7		292	22	
2025-10-02T00:00	32800	7	-48.1		290	22	
2025-10-02T00:00	32850	7	-47.5		287	22	
2025-10-02T00:00	32900	7	-47.1		286	22	
2025-10-02T00:00	32950	7	-46.9		286	22	
2025-10-02T00:00	33000	7	-46.5		287	21	
2025-10-02T00:00	33050	7	-46.3		288	20	
2025-10-02T00:00	33100	7	-46.3		290	19	
2025-10-02T00:00	33150	7	-46.1		290	19	
2025-10-02T00:00	33200	7	-46.0		288	19	
2025-10-02T00:00	33250	7	-45.8		284	19	
2025-10-02T00:00	33300	7	-45.4		280	19	
2025-10-02T00:00	33350	7	-45.0		276	19	
2025-10-02T00:00	33400	7	-44.8		275	19	
2025-10-02T00:00	33450	7	-44.4		277	20	
2025-10-02T00:00	33500	7	-43.8		280	20	
2025-10-02T00:00	33550	7	-43.4		285	20	
2025-10-02T00:00	33600	7	-42.8		290	21	
2025-10-02T00:00	33650	7	-42.8		293	22	
2025-10-02T00:00	33700	7	-42.8		294	22	
2025-10-02T00:00	33750	6	-42.4		293	22	
2025-10-02T00:00	33800	6	-41.9		289	20	
2025-10-02T00:00	33850	6	-42.0		287	20	
2025-10-02T00:00	33900	6	-42.0		287	20	
2025-10-02T00:00	33950	6	-41.4		289	21	
2025-10-02T00:00	34000	6	-41.1		291	22	
2025-10-02T00:00	34050	6	-41.0		293	22	
2025-10-02T00:00	34100	6	-41.0		294	22	
2025-10-02T00:00	34150	6	-41.0		295	22	
2025-10-02T00:00	34200	6	-41.0		294	21	
2025-10-02T12:00	491	968	11.6	6.1	51	3	
2025-10-02T12:00	501	967	10.7	5.7	29	2	
2025-10-02T12:00	520	964	10.1	5.2	23	2	
2025-10-02T12:00	540	962	9.9	5.0	24	2	
2025-10-02T12:00	560	960	9.6	4.9	24	2	
2025-10-02T12:00	580	958	9.4	4.8	25	3	
2025-10-02T12:00	600	955	9.0	4.7	26	3	
2025-10-02T12:00	620	953	9.0	4.7	28	3	
2025-10-02T12:00	640	951	8.6	4.6	30	3	
2025-10-02T12:00	660	948	8.4	4.6	34	2	
2025-10-02T12:00	680	946	8.2	4.6	36	2	
2025-10-02T12:00	700	944	8.1	4.6	37	2	
2025-10-02T12:00	720	941	8.0	4.8	35	2	
2025-10-02T12:00	740	939	7.8	4.8	28	2	
2025-10-02T12:00	760	937	7.6	4.8	20	2	
2025-10-02T12:00	780	935	7.4	4.6	15	2	
2025-10-02T12:00	800	932	7.2	4.6	12	2	
2025-10-02T12:00	820	930	7.0	4.6	10	2	
2025-10-02T12:00	840	928	6.8	4.5	9	3	
2025-10-02T12:00	860	925	6.6	4.5	8	3	
2025-10-02T12:00	880	923	6.5	4.5	8	3	
2025-10-02T12:00	900	921	6.3	4.4	9	3	
2025-10-02T12:00	920	919	6.1	4.4	11	3	
2025-10-02T12:00	940	917	5.9	4.4	17	3	
2025-10-02T12:00	960	915	5.7	4.3	25	3	
2025-10-02T12:00	980	912	5.5	4.3	34	3	
2025-10-02T12:00	1000	910	5.3	4.3	41	3	
2025-10-02T12:00	1020	908	5.1	4.2	47	3	
2025-10-02T12:00	1040	906	4.9	4.1	51	3	
2025-10-02T12:00	1060	903	4.8	3.9	52	3	
2025-10-02T12:00	1080	901	5.0	2.9	51	4	
2025-10-02T12:00	1100	899	5.1	1.9	50	4	
2025-10-02T12:00	1120	897	5.1	0.9	49	4	
2025-10-02T12:00	1140	894	5.1	0.6	47	5	
2025-10-02T12:00	1160	892	5.1	0.3	46	5	
2025-10-02T12:00	1180	890	5.0	-0.2	45	6	
2025-10-02T12:00	1200	888	5.0	-0.8	45	6	
2025-10-02T12:00	1220	886	5.1	-1.4	44	7	
2025-10-02T12:00	1240	883	5.2	-2.1	45	7	
2025-10-02T12:00	1260	881	5.2	-2.5	46	8	
2025-10-02T12:00	1280	879	5.2	-2.6	47	8	
2025-10-02T12:00	1300	877	5.1	-2.6	49	8	
2025-10-02T12:00	1320	875	5.0	-2.8	50	9	
2025-10-02T12:00	1340	873	4.9	-2.3	50	9	
2025-10-02T12:00	1360	871	4.8	-2.3	50	9	
2025-10-02T12:00	1380	869	4.6	-2.5	51	8	
2025-10-02T12:00	1400	866	4.5	-2.4	51	8	
2025-10-02T12:00	1420	864	4.5	-2.7	52	7	
2025-10-02T12:00	1440	862	4.4	-3.4	52	7	
2025-10-02T12:00	1460	860	4.5	-4.2	53	6	
2025-10-02T12:00	1480	858	4.6	-4.2	54	6	
2025-10-02T12:00	1500	856	4.7	-6.0	55	6	
2025-10-02T12:00	1520	854	4.7	-7.7	56	5	
2025-10-02T12:00	1540	852	4.7	-8.9	57	5	
2025-10-02T12:00	1560	850	5.2	-15.5	58	5	
2025-10-02T12:00	1580	848	5.6	-18.5	60	5	
2025-10-02T12:00	1600	846	5.6	-18.8	64	6	
2025-10-02T12:00	1620	843	5.6	-19.9	68	6	
2025-10-02T12:00	1640	841	5.5	-20.5	70	7	
2025-10-02T12:00	1660	839	5.4	-21.5	72	7	
2025-10-02T12:00	1680	837	5.4	-22.5	73	7	
2025-10-02T12:00	1700	835	5.3	-22.7	74	7	
2025-10-02T12:00	1720	833	5.2	-22.8	74	7	
2025-10-02T12:00	1740	831	5.1	-23.0	75	7	
2025-10-02T12:00	1760	829	5.0	-23.2	76	7	
2025-10-02T12:00	1780	827	4.9	-23.4	76	7	
2025-10-02T12:00	1800	825	4.8	-24.0	75	7	
2025-10-02T12:00	1820	823	4.8	-24.6	73	7	
2025-10-02T12:00	1840	821	4.7	-24.8	72	7	
2025-10-02T12:00	1860	819	4.6	-24.8	71	7	
2025-10-02T12:00	1880	817	4.4	-24.9	70	7	
2025-10-02T12:00	1900	815	4.4	-25.4	69	7	
2025-10-02T12:00	1920	813	4.3	-25.5	70	7	
2025-10-02T12:00	1940	811	4.2	-25.5	70	7	
2025-10-02T12:00	1960	809	4.1	-23.4	70	6	
2025-10-02T12:00	1980	807	4.0	-23.5	70	6	
2025-10-02T12:00	2000	805	3.9	-24.8	70	6	
2025-10-02T12:00	2020	803	3.8	-23.8	70	6	
2025-10-02T12:00	2040	801	3.6	-23.2	70	5	
2025-10-02T12:00	2060	799	3.5	-23.1	72	5	
2025-10-02T12:00	2080	797	3.4	-24.5	73	5	
2025-10-02T12:00	2100	795	3.4	-23.9	76	5	
2025-10-02T12:00	2120	793	3.3	-23.8	77	5	
2025-10-02T12:00	2140	791	3.2	-23.6	78	5	
2025-10-02T12:00	2160	789	3.1	-23.7	77	5	
2025-10-02T12:00	2180	787	2.9	-23.8	76	5	
2025-10-02T12:00	2200	785	2.7	-23.9	73	5	
2025-10-02T12:00	2220	783	2.5	-23.8	71	4	
2025-10-02T12:00	2240	781	2.3	-23.7	70	4	
2025-10-02T12:00	2260	779	2.2	-23.9	69	4	
2025-10-02T12:00	2280	777	2.1	-24.6	69	3	
2025-10-02T12:00	2300	776	1.9	-24.9	72	3	
2025-10-02T12:00	2320	774	1.8	-25.1	76	3	
2025-10-02T12:00	2340	772	1.6	-25.1	79	3	
2025-10-02T12:00	2360	770	1.5	-25.2	81	3	
2025-10-02T12:00	2380	768	1.3	-25.4	81	3	
2025-10-02T12:00	2400	766	1.1	-25.4	81	4	
2025-10-02T12:00	2420	764	1.0	-25.6	80	4	
2025-10-02T12:00	2440	762	0.8	-25.9	78	4	
2025-10-02T12:00	2460	760	0.7	-26.0	76	5	
2025-10-02T12:00	2480	758	0.5	-26.1	74	5	
2025-10-02T12:00	2500	756	0.4	-26.4	70	5	
2025-10-02T12:00	2520	755	0.3	-26.7	65	4	
2025-10-02T12:00	2540	753	0.1	-26.9	59	4	
2025-10-02T12:00	2560	751	0.0	-27.2	52	4	
2025-10-02T12:00	2580	749	-0.1	-27.8	42	4	
2025-10-02T12:00	2600	747	-0.3	-28.1	35	4	
2025-10-02T12:00	2620	746	-0.4	-28.5	31	4	
2025-10-02T12:00	2640	743	-0.6	-29.2	29	5	
2025-10-02T12:00	2660	742	-0.7	-30.0	29	5	
2025-10-02T12:00	2680	740	-0.9	-30.7	30	6	
2025-10-02T12:00	2700	738	-1.0	-31.7	32	6	
2025-10-02T12:00	2720	736	-1.1	-32.6	35	6	
2025-10-02T12:00	2740	734	-1.0	-32.5	38	6	
2025-10-02T12:00	2760	732	-1.1	-32.2	41	6	
2025-10-02T12:00	2780	731	-1.1	-31.9	43	6	
2025-10-02T12:00	2800	729	-1.2	-31.0	43	6	
2025-10-02T12:00	2820	727	-1.3	-30.6	43	5	
2025-10-02T12:00	2840	725	-1.3	-32.3	42	5	
2025-10-02T12:00	2860	723	-1.5	-33.3	40	5	
2025-10-02T12:00	2880	722	-1.5	-33.9	38	6	
2025-10-02T12:00	2900	720	-1.6	-34.9	36	6	
2025-10-02T12:00	2920	718	-1.6	-36.7	34	7	
2025-10-02T12:00	2940	716	-1.6	-38.5	32	8	
2025-10-02T12:00	2960	714	-1.6	-40.6	30	8	
2025-10-02T12:00	2980	712	-1.6	-42.0	27	9	
2025-10-02T12:00	3000	710	-1.7	-42.1	25	9	
2025-10-02T12:00	3020	709	-1.6	-41.3	23	9	
2025-10-02T12:00	3040	707	-1.7	-40.9	23	9	
2025-10-02T12:00	3060	705	-1.8	-40.2	23	9	
2025-10-02T12:00	3080	703	-1.8	-39.8	24	9	
2025-10-02T12:00	3100	702	-1.9	-39.5	25	9	
2025-10-02T12:00	3120	700	-2.0	-39.3	26	8	
2025-10-02T12:00	3140	698	-2.1	-39.3	27	8	
2025-10-02T12:00	3160	696	-2.2	-39.3	28	8	
2025-10-02T12:00	3180	695	-2.3	-39.3	29	7	
2025-10-02T12:00	3200	693	-2.3	-39.0	28	7	
2025-10-02T12:00	3220	691	-2.4	-39.0	27	7	
2025-10-02T12:00	3240	689	-2.5	-38.9	26	7	
2025-10-02T12:00	3260	688	-2.6	-38.7	24	8	
2025-10-02T12:00	3280	686	-2.6	-38.9	23	8	
2025-10-02T12:00	3300	684	-2.7	-39.8	22	9	
2025-10-02T12:00	3320	682	-2.7	-39.8	21	9	
2025-10-02T12:00	3340	681	-2.8	-36.8	19	10	
2025-10-02T12:00	3360	679	-2.9	-33.7	17	10	
2025-10-02T12:00	3380	677	-3.0	-37.6	15	10	
2025-10-02T12:00	3400	676	-3.0	-40.6	12	10	
2025-10-02T12:00	3420	674	-3.0	-37.4	8	10	
2025-10-02T12:00	3440	672	-3.1	-33.6	6	10	
2025-10-02T12:00	3460	670	-3.1	-29.5	4	9	
2025-10-02T12:00	3480	669	-3.2	-28.2	4	9	
2025-10-02T12:00	3500	667	-3.3	-29.1	5	9	
2025-10-02T12:00	3520	665	-3.4	-29.4	6	10	
2025-10-02T12:00	3540	664	-3.5	-28.4	7	10	
2025-10-02T12:00	3560	662	-3.7	-28.4	8	10	
2025-10-02T12:00	3580	660	-3.8	-27.4	8	11	
2025-10-02T12:00	3600	659	-4.0	-26.4	9	11	
2025-10-02T12:00	3620	657	-4.2	-25.8	9	11	
2025-10-02T12:00	3640	655	-4.3	-26.6	10	11	
2025-10-02T12:00	3660	654	-4.4	-28.0	11	12	
2025-10-02T12:00	3680	652	-4.5	-29.5	12	12	
2025-10-02T12:00	3700	650	-4.6	-30.8	13	12	
2025-10-02T12:00	3720	649	-4.5	-30.5	13	12	
2025-10-02T12:00	3740	647	-4.6	-26.9	14	12	
2025-10-02T12:00	3760	645	-4.7	-20.4	14	13	
2025-10-02T12:00	3780	644	-4.8	-18.2	15	13	
2025-10-02T12:00	3800	642	-5.0	-17.4	14	13	
2025-10-02T12:00	3820	640	-5.2	-17.0	13	13	
2025-10-02T12:00	3840	639	-5.4	-17.0	12	14	
2025-10-02T12:00	3860	637	-5.6	-17.1	11	14	
2025-10-02T12:00	3880	636	-5.7	-17.8	9	14	
2025-10-02T12:00	3900	634	-5.8	-18.2	8	15	
2025-10-02T12:00	3920	632	-6.0	-18.6	7	15	
2025-10-02T12:00	3940	631	-6.1	-19.2	6	15	
2025-10-02T12:00	3960	629	-6.1	-20.3	5	15	
2025-10-02T12:00	3980	628	-6.0	-23.6	4	15	
2025-10-02T12:00	4000	626	-6.1	-25.8	3	15	
2025-10-02T12:00	4020	624	-6.1	-29.5	3	15	
2025-10-02T12:00	4040	623	-6.1	-31.2	3	15	
2025-10-02T12:00	4060	621	-6.2	-31.5	3	16	
2025-10-02T12:00	4080	620	-6.3	-32.1	4	16	
2025-10-02T12:00	4100	618	-6.4	-32.7	7	16	
2025-10-02T12:00	4120	616	-6.5	-33.3	9	17	
2025-10-02T12:00	4140	615	-6.5	-32.5	11	17	
2025-10-02T12:00	4160	613	-6.6	-33.5	13	17	
2025-10-02T12:00	4180	612	-6.6	-31.5	15	18	
2025-10-02T12:00	4200	610	-6.6	-29.5	15	18	
2025-10-02T12:00	4220	609	-6.6	-29.9	15	18	
2025-10-02T12:00	4240	607	-6.8	-30.2	13	18	
2025-10-02T12:00	4260	605	-6.9	-30.6	12	18	
2025-10-02T12:00	4280	604	-6.9	-29.3	10	18	
2025-10-02T12:00	4300	602	-7.0	-20.0	9	18	
2025-10-02T12:00	4320	601	-7.1	-18.8	8	18	
2025-10-02T12:00	4340	599	-7.3	-14.5	7	18	
2025-10-02T12:00	4360	598	-7.4	-12.4	6	19	
2025-10-02T12:00	4380	596	-7.4	-12.7	6	19	
2025-10-02T12:00	4400	595	-7.5	-12.9	5	19	
2025-10-02T12:00	4420	593	-7.5	-13.3	5	19	
2025-10-02T12:00	4440	592	-7.6	-13.7	4	19	
2025-10-02T12:00	4460	590	-7.7	-13.9	3	20	
2025-10-02T12:00	4480	589	-7.7	-14.1	2	20	
2025-10-02T12:00	4500	587	-7.9	-13.9	0	20	
2025-10-02T12:00	4520	586	-8.0	-14.3	360	20	
2025-10-02T12:00	4540	584	-7.9	-16.9	360	20	
2025-10-02T12:00	4560	583	-7.9	-19.9	360	20	
2025-10-02T12:00	4580	581	-8.0	-22.0	0	20	
2025-10-02T12:00	4600	579	-8.1	-22.7	1	20	
2025-10-02T12:00	4620	578	-8.3	-22.7	1	20	
2025-10-02T12:00	4640	577	-8.4	-22.4	1	20	
2025-10-02T12:00	4660	575	-8.6	-22.0	1	20	
2025-10-02T12:00	4680	574	-8.7	-21.9	1	20	
2025-10-02T12:00	4700	572	-8.9	-21.6	1	20	
2025-10-02T12:00	4720	571	-9.1	-21.3	1	20	
2025-10-02T12:00	4740	569	-9.2	-21.1	1	20	
2025-10-02T12:00	4760	568	-9.4	-21.0	2	20	
2025-10-02T12:00	4780	566	-9.6	-20.9	2	19	
2025-10-02T12:00	4800	565	-9.8	-20.7	3	19	
2025-10-02T12:00	4820	563	-9.9	-20.5	2	19	
2025-10-02T12:00	4840	562	-10.1	-20.2	2	18	
2025-10-02T12:00	4860	560	-10.3	-19.9	1	18	
2025-10-02T12:00	4880	559	-10.5	-19.6	359	18	
2025-10-02T12:00	4900	558	-10.6	-19.6	358	18	
2025-10-02T12:00	4920	556	-10.8	-19.8	358	18	
2025-10-02T12:00	4940	555	-11.0	-20.0	357	19	
2025-10-02T12:00	4960	553	-11.2	-20.2	358	19	
2025-10-02T12:00	4980	552	-11.4	-20.2	358	19	
2025-10-02T12:00	5000	550	-11.6	-20.2	358	19	
2025-10-02T12:00	5020	549	-11.7	-20.3	358	19	
2025-10-02T12:00	5040	547	-11.9	-20.2	358	18	
2025-10-02T12:00	5060	546	-12.1	-20.1	358	18	
2025-10-02T12:00	5080	545	-12.3	-20.0	357	18	
2025-10-02T12:00	5100	543	-12.5	-20.0	357	19	
2025-10-02T12:00	5120	542	-12.7	-20.0	357	19	
2025-10-02T12:00	5140	540	-12.8	-20.0	357	19	
2025-10-02T12:00	5160	539	-13.0	-19.9	356	20	
2025-10-02T12:00	5180	538	-13.2	-20.0	356	20	
2025-10-02T12:00	5200	536	-13.4	-20.3	356	21	
2025-10-02T12:00	5220	535	-13.5	-20.6	355	21	
2025-10-02T12:00	5240	533	-13.6	-20.5	355	22	
2025-10-02T12:00	5260	532	-13.7	-20.3	355	22	
2025-10-02T12:00	5280	530	-13.8	-20.2	356	21	
2025-10-02T12:00	5300	529	-14.0	-20.2	357	21	
2025-10-02T12:00	5320	528	-14.1	-20.1	358	20	
2025-10-02T12:00	5340	526	-14.0	-21.1	359	20	
2025-10-02T12:00	5360	525	-13.9	-23.2	358	20	
2025-10-02T12:00	5380	524	-13.8	-25.4	358	19	
2025-10-02T12:00	5400	522	-13.7	-29.1	357	19	
2025-10-02T12:00	5420	521	-13.5	-33.0	357	19	
2025-10-02T12:00	5440	519	-13.4	-34.3	357	19	
2025-10-02T12:00	5460	518	-13.5	-34.4	357	19	
2025-10-02T12:00	5480	517	-13.6	-34.5	357	20	
2025-10-02T12:00	5500	515	-13.6	-35.1	357	20	
2025-10-02T12:00	5520	514	-13.7	-34.7	357	21	
2025-10-02T12:00	5540	513	-13.7	-33.5	358	21	
2025-10-02T12:00	5560	511	-13.8	-32.7	358	22	
2025-10-02T12:00	5580	510	-13.9	-32.4	359	22	
2025-10-02T12:00	5600	509	-14.1	-32.3	360	23	
2025-10-02T12:00	5620	507	-14.1	-32.1	0	23	
2025-10-02T12:00	5640	506	-14.2	-32.0	1	23	
2025-10-02T12:00	5660	504	-14.2	-30.6	1	22	
2025-10-02T12:00	5680	503	-14.3	-29.7	1	23	
2025-10-02T12:00	5700	502	-14.4	-29.3	0	23	
2025-10-02T12:00	5720	501	-14.6	-28.7	360	23	
2025-10-02T12:00	5740	499	-14.8	-28.4	360	23	
2025-10-02T12:00	5760	498	-15.0	-28.2	359	24	
2025-10-02T12:00	5780	497	-15.1	-28.0	359	24	
2025-10-02T12:00	5800	495	-15.3	-28.2	359	25	
2025-10-02T12:00	5820	494	-15.4	-28.8	359	25	
2025-10-02T12:00	5840	493	-15.5	-29.8	358	26	
2025-10-02T12:00	5860	492	-15.6	-31.8	358	26	
2025-10-02T12:00	5880	490	-15.6	-31.9	358	26	
2025-10-02T12:00	5900	489	-15.7	-29.1	358	27	
2025-10-02T12:00	5920	488	-15.9	-27.8	358	27	
2025-10-02T12:00	5940	486	-16.1	-27.6	357	27	
2025-10-02T12:00	5960	485	-16.3	-26.3	357	26	
2025-10-02T12:00	5980	484	-16.5	-25.7	356	26	
2025-10-02T12:00	6000	482	-16.6	-25.6	356	26	
2025-10-02T12:00	6020	481	-16.8	-26.1	355	26	
2025-10-02T12:00	6040	480	-16.9	-26.2	355	25	
2025-10-02T12:00	6060	478	-17.1	-25.9	355	25	
2025-10-02T12:00	6080	477	-17.2	-26.4	355	25	
2025-10-02T12:00	6100	476	-17.3	-27.0	355	25	
2025-10-02T12:00	6120	475	-17.4	-26.9	356	25	
2025-10-02T12:00	6140	473	-17.6	-28.7	357	25	
2025-10-02T12:00	6160	472	-17.7	-30.3	357	25	
2025-10-02T12:00	6180	471	-17.8	-32.7	357	25	
2025-10-02T12:00	6200	470	-17.9	-33.7	357	25	
2025-10-02T12:00	6220	468	-18.1	-33.6	357	25	
2025-10-02T12:00	6240	467	-18.3	-34.0	357	24	
2025-10-02T12:00	6260	466	-18.5	-35.2	356	24	
2025-10-02T12:00	6280	465	-18.6	-35.7	356	23	
2025-10-02T12:00	6300	463	-18.7	-36.9	355	23	
2025-10-02T12:00	6320	462	-18.8	-37.8	355	23	
2025-10-02T12:00	6340	461	-19.0	-36.6	354	23	
2025-10-02T12:00	6360	460	-19.1	-36.1	353	23	
2025-10-02T12:00	6380	458	-19.2	-37.3	352	23	
2025-10-02T12:00	6400	457	-19.3	-34.9	350	23	
2025-10-02T12:00	6420	456	-19.4	-35.3	349	23	
2025-10-02T12:00	6440	455	-19.6	-36.0	348	23	
2025-10-02T12:00	6460	453	-19.8	-35.9	347	23	
2025-10-02T12:00	6480	452	-19.9	-34.6	346	23	
2025-10-02T12:00	6500	451	-20.1	-34.5	345	23	
2025-10-02T12:00	6520	450	-20.3	-32.4	344	23	
2025-10-02T12:00	6540	449	-20.4	-28.8	344	22	
2025-10-02T12:00	6560	447	-20.3	-29.2	343	22	
2025-10-02T12:00	6580	446	-20.4	-29.7	343	22	
2025-10-02T12:00	6600	445	-20.5	-29.9	343	22	
2025-10-02T12:00	6620	444	-20.7	-30.2	343	22	
2025-10-02T12:00	6640	443	-20.9	-30.5	344	22	
2025-10-02T12:00	6660	441	-21.0	-30.3	344	22	
2025-10-02T12:00	6680	440	-21.2	-30.1	344	23	
2025-10-02T12:00	6700	439	-21.3	-30.2	345	23	
2025-10-02T12:00	6720	438	-21.5	-30.4	346	23	
2025-10-02T12:00	6740	437	-21.6	-30.6	347	23	
2025-10-02T12:00	6760	435	-21.8	-30.8	348	23	
2025-10-02T12:00	6780	434	-21.9	-30.8	349	23	
2025-10-02T12:00	6800	433	-22.1	-31.2	349	23	
2025-10-02T12:00	6820	432	-22.2	-31.5	349	24	
2025-10-02T12:00	6840	431	-22.3	-32.1	350	24	
2025-10-02T12:00	6860	430	-22.4	-32.8	350	24	
2025-10-02T12:00	6880	428	-22.6	-32.8	349	25	
2025-10-02T12:00	6900	427	-22.7	-32.9	349	25	
2025-10-02T12:00	6920	426	-22.8	-33.3	349	25	
2025-10-02T12:00	6940	425	-22.9	-33.6	349	25	
2025-10-02T12:00	6960	424	-23.0	-34.1	350	25	
2025-10-02T12:00	6980	423	-23.1	-34.4	350	24	
2025-10-02T12:00	7000	421	-23.3	-34.7	351	24	
2025-10-02T12:00	7020	420	-23.4	-34.8	351	24	
2025-10-02T12:00	7040	419	-23.6	-35.1	351	24	
2025-10-02T12:00	7060	418	-23.7	-35.6	351	24	
2025-10-02T12:00	7080	417	-23.9	-35.9	351	24	
2025-10-02T12:00	7100	416	-24.0	-36.3	351	24	
2025-10-02T12:00	7120	415	-24.1	-36.5	351	24	
2025-10-02T12:00	7140	413	-24.2	-36.6	351	24	
2025-10-02T12:00	7160	412	-24.4	-36.7	351	24	
2025-10-02T12:00	7180	411	-24.6	-37.0	351	24	
2025-10-02T12:00	7200	410	-24.6	-37.7	351	24	
2025-10-02T12:00	7220	409	-24.7	-38.7	351	24	
2025-10-02T12:00	7240	408	-24.8	-39.0	351	24	
2025-10-02T12:00	7260	407	-25.0	-39.8	350	24	
2025-10-02T12:00	7280	405	-25.0	-42.3	350	25	
2025-10-02T12:00	7300	404	-25.0	-44.9	350	25	
2025-10-02T12:00	7320	403	-25.0	-45.0	349	25	
2025-10-02T12:00	7340	402	-25.1	-44.5	349	26	
2025-10-02T12:00	7360	401	-25.2	-44.6	348	26	
2025-10-02T12:00	7380	400	-25.3	-44.5	348	26	
2025-10-02T12:00	7400	399	-25.5	-44.7	348	26	
2025-10-02T12:00	7420	398	-25.6	-45.2	348	26	
2025-10-02T12:00	7440	397	-25.6	-46.3	348	27	
2025-10-02T12:00	7460	396	-25.6	-43.3	348	27	
2025-10-02T12:00	7480	395	-25.6	-43.0	349	27	
2025-10-02T12:00	7500	393	-25.7	-38.6	350	27	
2025-10-02T12:00	7520	392	-25.9	-36.8	351	27	
2025-10-02T12:00	7540	391	-26.0	-36.5	351	27	
2025-10-02T12:00	7560	390	-26.2	-36.2	352	27	
2025-10-02T12:00	7580	389	-26.3	-36.2	352	27	
2025-10-02T12:00	7600	388	-26.4	-36.6	352	27	
2025-10-02T12:00	7620	387	-26.5	-36.6	352	27	
2025-10-02T12:00	7640	386	-26.7	-36.6	352	28	
2025-10-02T12:00	7660	385	-26.8	-36.7	352	28	
2025-10-02T12:00	7680	384	-27.0	-36.7	352	28	
2025-10-02T12:00	7700	383	-27.1	-36.8	351	28	
2025-10-02T12:00	7720	382	-27.2	-37.4	351	28	
2025-10-02T12:00	7740	381	-27.3	-38.4	350	28	
2025-10-02T12:00	7760	380	-27.5	-39.0	349	28	
2025-10-02T12:00	7780	379	-27.7	-39.3	348	28	
2025-10-02T12:00	7800	377	-27.8	-39.6	347	28	
2025-10-02T12:00	7820	376	-28.0	-40.1	347	28	
2025-10-02T12:00	7840	375	-28.1	-40.4	347	28	
2025-10-02T12:00	7860	374	-28.3	-40.6	346	28	
2025-10-02T12:00	7880	373	-28.4	-41.3	347	28	
2025-10-02T12:00	7900	372	-28.6	-42.7	347	28	
2025-10-02T12:00	7920	371	-28.7	-44.0	347	28	
2025-10-02T12:00	7940	370	-28.9	-43.9	347	28	
2025-10-02T12:00	7960	369	-29.0	-43.9	347	28	
2025-10-02T12:00	7980	368	-29.2	-44.1	347	28	
2025-10-02T12:00	8000	367	-29.3	-44.7	346	29	
2025-10-02T12:00	8020	366	-29.5	-44.7	346	29	
2025-10-02T12:00	8040	365	-29.7	-44.6	345	29	
2025-10-02T12:00	8060	364	-29.8	-43.5	345	29	
2025-10-02T12:00	8080	363	-30.0	-43.2	345	29	
2025-10-02T12:00	8100	362	-30.2	-43.6	345	30	
2025-10-02T12:00	8120	361	-30.4	-44.8	346	30	
2025-10-02T12:00	8140	360	-30.5	-45.5	346	30	
2025-10-02T12:00	8160	359	-30.7	-44.0	347	30	
2025-10-02T12:00	8180	358	-30.8	-45.3	347	30	
2025-10-02T12:00	8200	357	-31.0	-45.0	347	30	
2025-10-02T12:00	8220	356	-31.2	-44.9	348	30	
2025-10-02T12:00	8240	355	-31.4	-44.7	348	30	
2025-10-02T12:00	8260	354	-31.6	-43.4	348	30	
2025-10-02T12:00	8280	353	-31.8	-41.7	348	30	
2025-10-02T12:00	8300	352	-32.0	-41.0	348	30	
2025-10-02T12:00	8320	351	-32.1	-41.6	348	30	
2025-10-02T12:00	8340	350	-32.3	-41.9	348	30	
2025-10-02T12:00	8360	349	-32.5	-41.9	348	30	
2025-10-02T12:00	8380	348	-32.7	-41.7	347	30	
2025-10-02T12:00	8400	347	-32.8	-41.5	347	30	
2025-10-02T12:00	8420	346	-33.1	-41.3	347	31	
2025-10-02T12:00	8440	345	-33.2	-41.4	346	31	
2025-10-02T12:00	8460	344	-33.4	-41.4	346	31	
2025-10-02T12:00	8480	343	-33.6	-41.5	346	31	
2025-10-02T12:00	8500	342	-33.8	-41.7	345	31	
2025-10-02T12:00	8520	341	-33.9	-41.6	345	31	
2025-10-02T12:00	8540	340	-34.1	-41.8	345	31	
2025-10-02T12:00	8560	339	-34.3	-42.4	345	31	
2025-10-02T12:00	8580	338	-34.5	-42.6	344	31	
2025-10-02T12:00	8600	337	-34.7	-43.2	345	30	
2025-10-02T12:00	8620	336	-34.8	-43.1	345	30	
2025-10-02T12:00	8640	335	-35.0	-42.5	345	30	
2025-10-02T12:00	8660	334	-35.2	-42.1	346	30	
2025-10-02T12:00	8680	333	-35.3	-43.0	346	30	
2025-10-02T12:00	8700	332	-35.5	-43.2	347	30	
2025-10-02T12:00	8720	331	-35.6	-40.8	347	30	
2025-10-02T12:00	8740	330	-35.8	-40.4	348	30	
2025-10-02T12:00	8760	329	-35.9	-41.4	349	31	
2025-10-02T12:00	8780	329	-36.1	-41.0	349	31	
2025-10-02T12:00	8800	328	-36.2	-40.7	350	31	
2025-10-02T12:00	8820	327	-36.4	-40.9	350	31	
2025-10-02T12:00	8840	326	-36.5	-41.4	351	31	
2025-10-02T12:00	8860	325	-36.5	-42.2	352	31	
2025-10-02T12:00	8880	324	-36.5	-42.2	352	32	
2025-10-02T12:00	8900	323	-36.6	-42.2	352	32	
2025-10-02T12:00	8920	322	-36.7	-42.7	352	32	
2025-10-02T12:00	8940	321	-36.7	-43.5	352	32	
2025-10-02T12:00	8960	320	-36.8	-43.7	352	32	
2025-10-02T12:00	8980	319	-36.8	-43.8	352	32	
2025-10-02T12:00	9000	318	-36.9	-44.0	352	32	
2025-10-02T12:00	9020	317	-37.0	-44.4	352	32	
2025-10-02T12:00	9040	316	-37.1	-45.0	351	32	
2025-10-02T12:00	9060	315	-37.1	-46.0	351	32	
2025-10-02T12:00	9080	315	-37.2	-46.4	351	32	
2025-10-02T12:00	9100	314	-37.3	-46.2	350	32	
2025-10-02T12:00	9120	313	-37.4	-46.1	349	33	
2025-10-02T12:00	9140	312	-37.6	-46.2	349	33	
2025-10-02T12:00	9160	311	-37.7	-46.5	348	33	
2025-10-02T12:00	9180	310	-37.8	-46.8	348	33	
2025-10-02T12:00	9200	309	-37.9	-46.9	347	33	
2025-10-02T12:00	9220	308	-38.0	-47.1	346	33	
2025-10-02T12:00	9240	307	-38.1	-47.0	345	33	
2025-10-02T12:00	9260	307	-38.3	-46.9	345	33	
2025-10-02T12:00	9280	306	-38.5	-46.8	344	33	
2025-10-02T12:00	9300	305	-38.6	-46.8	344	34	
2025-10-02T12:00	9320	304	-38.8	-47.0	343	34	
2025-10-02T12:00	9340	303	-38.9	-47.5	343	34	
2025-10-02T12:00	9360	302	-39.0	-48.1	343	34	
2025-10-02T12:00	9380	301	-39.1	-48.1	343	35	
2025-10-02T12:00	9400	300	-39.2	-47.9	343	35	
2025-10-02T12:00	9420	300	-39.3	-48.2	344	35	
2025-10-02T12:00	9440	299	-39.4	-48.0	344	36	
2025-10-02T12:00	9460	298	-39.5	-47.4	344	36	
2025-10-02T12:00	9480	297	-39.6	-46.7	343	36	
2025-10-02T12:00	9500	296	-39.8	-46.5	343	36	
2025-10-02T12:00	9520	295	-39.8	-46.9	343	36	
2025-10-02T12:00	9540	294	-39.9	-47.3	343	36	
2025-10-02T12:00	9560	293	-40.1	-47.2	343	36	
2025-10-02T12:00	9580	293	-40.3	-47.0	343	36	
2025-10-02T12:00	9600	292	-40.5	-46.9	343	37	
2025-10-02T12:00	9620	291	-40.6	-47.0	343	37	
2025-10-02T12:00	9640	290	-40.8	-47.2	343	37	
2025-10-02T12:00	9660	289	-41.0	-47.6	343	38	
2025-10-02T12:00	9680	288	-41.1	-47.7	343	38	
2025-10-02T12:00	9700	287	-41.3	-47.9	342	38	
2025-10-02T12:00	9720	287	-41.4	-48.3	342	39	
2025-10-02T12:00	9740	286	-41.5	-47.8	342	39	
2025-10-02T12:00	9760	285	-41.6	-47.2	342	39	
2025-10-02T12:00	9780	284	-41.8	-47.3	342	39	
2025-10-02T12:00	9800	283	-41.9	-47.6	342	39	
2025-10-02T12:00	9820	282	-42.0	-47.2	342	39	
2025-10-02T12:00	9840	282	-42.2	-47.1	342	39	
2025-10-02T12:00	9860	281	-42.4	-47.7	342	39	
2025-10-02T12:00	9880	280	-42.5	-47.7	342	39	
2025-10-02T12:00	9900	279	-42.6	-47.9	342	39	
2025-10-02T12:00	9920	278	-42.7	-48.6	342	40	
2025-10-02T12:00	9940	277	-42.8	-48.7	342	40	
2025-10-02T12:00	9960	277	-43.0	-48.5	342	40	
2025-10-02T12:00	9980	276	-43.1	-48.6	342	40	
2025-10-02T12:00	10000	275	-43.3	-49.1	342	40	
2025-10-02T12:00	10018	274	-43.4	-49.5	342	40	
2025-10-02T12:00	10050	273	-43.6	-50.3	342	40	
2025-10-02T12:00	10100	271	-43.9	-51.1	341	40	
2025-10-02T12:00	10150	269	-44.2	-51.8	341	40	
2025-10-02T12:00	10200	267	-44.5	-53.2	341	40	
2025-10-02T12:00	10250	265	-44.9	-53.6	340	40	
2025-10-02T12:00	10300	263	-45.4	-53.3	340	40	
2025-10-02T12:00	10350	261	-45.8	-53.5	340	40	
2025-10-02T12:00	10400	259	-46.2	-54.1	340	40	
2025-10-02T12:00	10450	257	-46.6	-54.8	340	40	
2025-10-02T12:00	10500	255	-47.1	-54.8	340	40	
2025-10-02T12:00	10550	253	-47.5	-54.3	340	40	
2025-10-02T12:00	10600	251	-48.0	-54.7	340	40	
2025-10-02T12:00	10650	249	-48.4	-55.8	340	40	
2025-10-02T12:00	10700	247	-48.8	-56.9	340	39	
2025-10-02T12:00	10750	246	-49.2	-57.5	340	39	
2025-10-02T12:00	10800	244	-49.6	-59.2	341	39	
2025-10-02T12:00	10850	242	-49.9	-60.1	341	40	
2025-10-02T12:00	10900	240	-50.3	-59.8	341	40	
2025-10-02T12:00	10950	238	-50.8	-59.8	340	39	
2025-10-02T12:00	11000	236	-51.1	-60.6	340	39	
2025-10-02T12:00	11050	235	-51.5	-61.7	340	40	
2025-10-02T12:00	11100	233	-51.9	-62.2	340	40	
2025-10-02T12:00	11150	231	-52.0	-62.7	339	40	
2025-10-02T12:00	11200	229	-52.2	-62.5	339	39	
2025-10-02T12:00	11250	227	-52.7	-62.9	338	39	
2025-10-02T12:00	11300	226	-53.1	-62.7	338	39	
2025-10-02T12:00	11350	224	-53.6	-62.9	339	39	
2025-10-02T12:00	11400	222	-53.9	-63.4	339	39	
2025-10-02T12:00	11450	220	-54.3	-63.2	340	39	
2025-10-02T12:00	11500	219	-54.7	-64.0	339	39	
2025-10-02T12:00	11550	217	-55.2	-64.1	339	39	
2025-10-02T12:00	11600	215	-55.6	-64.3	338	39	
2025-10-02T12:00	11650	214	-56.1	-64.4	339	39	
2025-10-02T12:00	11700	212	-56.5	-64.4	339	39	
2025-10-02T12:00	11750	210	-56.9	-64.8	339	39	
2025-10-02T12:00	11800	209	-57.3	-65.6	339	39	
2025-10-02T12:00	11850	207	-57.6	-67.6	340	40	
2025-10-02T12:00	11900	205	-57.8	-68.6	340	40	
2025-10-02T12:00	11950	204	-58.1	-68.5	340	41	
2025-10-02T12:00	12000	202	-58.5	-68.5	340	41	
2025-10-02T12:00	12050	201	-59.0	-68.7	339	41	
2025-10-02T12:00	12100	199	-59.4	-69.4	339	40	
2025-10-02T12:00	12150	197	-59.7	-70.6	339	40	
2025-10-02T12:00	12200	196	-60.1	-70.7	339	40	
2025-10-02T12:00	12250	194	-60.5	-70.9	339	40	
2025-10-02T12:00	12300	193	-60.9	-71.1	339	40	
2025-10-02T12:00	12350	191	-61.3	-71.5	339	39	
2025-10-02T12:00	12400	190	-61.6	-71.6	339	38	
2025-10-02T12:00	12450	188	-62.0	-71.3	339	39	
2025-10-02T12:00	12500	187	-62.1	-71.3	339	39	
2025-10-02T12:00	12550	185	-62.2	-71.9	340	41	
2025-10-02T12:00	12600	184	-62.3	-72.6	342	41	
2025-10-02T12:00	12650	182	-62.2	-72.1	344	40	
2025-10-02T12:00	12700	181	-61.8	-70.8	346	38	
2025-10-02T12:00	12750	179	-61.8	-71.4	347	37	
2025-10-02T12:00	12800	178	-61.6	-72.3	347	36	
2025-10-02T12:00	12850	176	-61.8	-72.5	347	36	
2025-10-02T12:00	12900	175	-62.2	-72.5	347	36	
2025-10-02T12:00	12950	173	-62.5	-72.8	347	35	
2025-10-02T12:00	13000	172	-62.6	-73.3	348	34	
2025-10-02T12:00	13050	171	-62.3	-73.7	347	32	
2025-10-02T12:00	13100	169	-62.2	-73.9	345	31	
2025-10-02T12:00	13150	168	-62.1	-74.0	343	31	
2025-10-02T12:00	13200	167	-61.8	-74.7	342	32	
2025-10-02T12:00	13250	165	-62.2	-75.4	342	32	
2025-10-02T12:00	13300	164	-62.4	-75.7	342	31	
2025-10-02T12:00	13350	163	-62.3	-76.0	343	30	
2025-10-02T12:00	13400	161	-62.3	-76.2	342	28	
2025-10-02T12:00	13450	160	-62.5	-76.4	341	28	
2025-10-02T12:00	13500	159	-62.9	-76.3	340	27	
2025-10-02T12:00	13550	157	-63.1	-76.2	339	27	
2025-10-02T12:00	13600	156	-63.5	-76.3	337	27	
2025-10-02T12:00	13650	155	-63.8	-76.4	335	27	
2025-10-02T12:00	13700	154	-64.2	-76.6	333	27	
2025-10-02T12:00	13750	152	-64.4	-76.8	330	28	
2025-10-02T12:00	13800	151	-64.6	-77.2	327	28	
2025-10-02T12:00	13850	150	-64.4	-77.8	327	29	
2025-10-02T12:00	13900	149	-64.1	-78.5	329	29	
2025-10-02T12:00	13950	147	-63.9	-79.3	330	29	
2025-10-02T12:00	14000	146	-63.4	-79.9	331	30	
2025-10-02T12:00	14050	145	-63.2	-80.4	333	30	
2025-10-02T12:00	14100	144	-63.2	-80.7	335	30	
2025-10-02T12:00	14150	143	-63.1	-81.1	336	29	
2025-10-02T12:00	14200	142	-63.1	-81.6	336	28	
2025-10-02T12:00	14250	140	-63.1	-82.0	337	26	
2025-10-02T12:00	14300	139	-63.3	-82.4	338	25	
2025-10-02T12:00	14350	138	-63.2	-82.8	337	23	
2025-10-02T12:00	14400	137	-62.9	-82.9	336	22	
2025-10-02T12:00	14450	136	-63.0	-83.0	334	22	
2025-10-02T12:00	14500	135	-63.5	-83.2	331	22	
2025-10-02T12:00	14550	134	-63.7	-83.2	329	23	
2025-10-02T12:00	14600	133	-63.8	-83.4	327	24	
2025-10-02T12:00	14650	132	-63.8	-83.4	326	26	
2025-10-02T12:00	14700	130	-63.8	-83.3	326	27	
2025-10-02T12:00	14750	129	-63.7	-82.8	326	28	
2025-10-02T12:00	14800	128	-63.8	-82.5	328	29	
2025-10-02T12:00	14850	127	-63.6	-82.6	331	28	
2025-10-02T12:00	14900	126	-62.9	-82.8	335	26	
2025-10-02T12:00	14950	125	-62.6	-83.3	336	24	
2025-10-02T12:00	15000	124	-62.3	-83.7	336	23	
2025-10-02T12:00	15050	123	-61.8	-84.0	337	23	
2025-10-02T12:00	15100	122	-61.6	-84.1	340	24	
2025-10-02T12:00	15150	121	-61.8	-84.1	341	25	
2025-10-02T12:00	15200	120	-62.1	-84.1	343	25	
2025-10-02T12:00	15250	119	-62.3	-84.1	345	25	
2025-10-02T12:00	15300	118	-62.6	-84.1	347	24	
2025-10-02T12:00	15350	117	-62.9	-84.2	348	23	
2025-10-02T12:00	15400	116	-63.2	-84.2	348	22	
2025-10-02T12:00	15450	115	-63.5	-84.3	346	21	
2025-10-02T12:00	15500	115	-63.9	-84.3	344	20	
2025-10-02T12:00	15550	114	-64.3	-84.4	340	20	
2025-10-02T12:00	15600	113	-64.6	-84.5	336	19	
2025-10-02T12:00	15650	112	-64.8	-84.7	334	19	
2025-10-02T12:00	15700	111	-64.7	-84.9	334	20	
2025-10-02T12:00	15750	110	-64.6	-85.0	334	20	
2025-10-02T12:00	15800	109	-64.5	-85.2	334	21	
2025-10-02T12:00	15850	108	-64.1	-85.4	334	21	
2025-10-02T12:00	15900	107	-63.4	-85.2	334	20	
2025-10-02T12:00	15950	106	-63.3	-85.3	333	20	
2025-10-02T12:00	16000	106	-63.1	-85.4	331	20	
2025-10-02T12:00	16050	105	-62.6	-85.4	330	21	
2025-10-02T12:00	16100	104	-62.5	-85.7	334	20	
2025-10-02T12:00	16150	103	-61.9	-85.4	339	19	
2025-10-02T12:00	16200	102	-61.9	-85.5	344	18	
2025-10-02T12:00	16250	101	-61.9	-85.5	349	17	
2025-10-02T12:00	16300	101	-62.0	-85.6	352	16	
2025-10-02T12:00	16350	100	-62.1	-85.8	354	14	
2025-10-02T12:00	16400	99	-62.1	-85.8	354	13	
2025-10-02T12:00	16450	98	-62.2	-86.0	352	12	
2025-10-02T12:00	16500	97	-62.4	-86.1	348	12	
2025-10-02T12:00	16550	97	-62.4	-86.2	343	12	
2025-10-02T12:00	16600	96	-62.3	-86.3	341	11	
2025-10-02T12:00	16650	95	-62.1	-86.3	342	11	
2025-10-02T12:00	16700	94	-61.9	-86.3	343	11	
2025-10-02T12:00	16750	93	-62.1	-86.2	343	10	
2025-10-02T12:00	16800	93	-62.4	-86.3	343	10	
2025-10-02T12:00	16850	92	-62.8	-86.4	341	10	
2025-10-02T12:00	16900	91	-62.8	-86.4	337	11	
2025-10-02T12:00	16950	91	-63.0	-86.4	332	11	
2025-10-02T12:00	17000	90	-63.4	-86.6	326	11	
2025-10-02T12:00	17050	89	-63.5	-86.9	317	11	
2025-10-02T12:00	17100	88	-62.9	-86.9	310	11	
2025-10-02T12:00	17150	88	-62.4	-86.9	308	12	
2025-10-02T12:00	17200	87	-62.5	-87.0	310	12	
2025-10-02T12:00	17250	86	-62.6	-87.0	315	13	
2025-10-02T12:00	17300	85	-62.7	-87.1	321	14	
2025-10-02T12:00	17350	85	-62.7	-87.3	328	13	
2025-10-02T12:00	17400	84	-62.2	-87.2	333	12	
2025-10-02T12:00	17450	83	-62.1	-87.3	334	11	
2025-10-02T12:00	17500	83	-62.0	-87.3	332	10	
2025-10-02T12:00	17550	82	-62.0	-87.2	330	9	
2025-10-02T12:00	17600	81	-61.9	-87.2	326	9	
2025-10-02T12:00	17650	81	-62.0	-87.2	320	9	
2025-10-02T12:00	17700	80	-62.1	-87.2	317	9	
2025-10-02T12:00	17750	79	-62.1	-87.2	318	10	
2025-10-02T12:00	17800	79	-62.0	-87.2	323	11	
2025-10-02T12:00	17850	78	-62.1	-87.4	330	11	
2025-10-02T12:00	17900	78	-62.0	-87.4	338	12	
2025-10-02T12:00	17950	77	-61.9	-87.4	343	12	
2025-10-02T12:00	18000	76	-62.0	-87.4	345	12	
2025-10-02T12:00	18050	76	-62.1	-87.4	348	12	
2025-10-02T12:00	18100	75	-62.0	-87.4	350	11	
2025-10-02T12:00	18150	75	-62.1	-87.5	347	10	
2025-10-02T12:00	18200	74	-62.0	-87.6	336	9	
2025-10-02T12:00	18250	73	-61.9	-87.6	322	9	
2025-10-02T12:00	18300	73	-61.9	-87.7	308	9	
2025-10-02T12:00	18350	72	-61.9	-88.0	301	10	
2025-10-02T12:00	18400	72	-61.1	-87.9	298	10	
2025-10-02T12:00	18450	71	-60.2	-87.8	300	10	
2025-10-02T12:00	18500	70	-59.7	-87.7	309	10	
2025-10-02T12:00	18550	70	-59.6	-87.5	317	10	
2025-10-02T12:00	18600	69	-59.4	-87.4	325	10	
2025-10-02T12:00	18650	69	-59.2	-87.3	333	9	
2025-10-02T12:00	18700	68	-59.1	-87.2	343	8	
2025-10-02T12:00	18750	68	-59.2	-87.2	352	7	
2025-10-02T12:00	18800	67	-59.3	-87.3	360	6	
2025-10-02T12:00	18850	67	-59.2	-87.3	1	5	
2025-10-02T12:00	18900	66	-59.1	-87.2	351	4	
2025-10-02T12:00	18950	66	-59.3	-87.2	335	4	
2025-10-02T12:00	19000	65	-59.3	-87.2	322	4	
2025-10-02T12:00	19050	65	-59.2	-87.2	306	4	
2025-10-02T12:00	19100	64	-59.2	-87.4	286	4	
2025-10-02T12:00	19150	63	-58.9	-87.3	272	4	
2025-10-02T12:00	19200	63	-58.7	-87.2	268	4	
2025-10-02T12:00	19250	62	-59.0	-87.2	271	5	
2025-10-02T12:00	19300	62	-59.4	-87.1	273	5	
2025-10-02T12:00	19350	61	-59.7	-87.2	276	5	
2025-10-02T12:00	19400	61	-59.9	-87.3	280	6	
2025-10-02T12:00	19450	61	-60.1	-87.4	287	6	
2025-10-02T12:00	19500	60	-60.3	-87.4	293	7	
2025-10-02T12:00	19550	60	-60.5	-87.5	294	8	
2025-10-02T12:00	19600	59	-60.6	-87.7	293	10	
2025-10-02T12:00	19650	59	-60.5	-87.8	296	12	
2025-10-02T12:00	19700	58	-60.5	-87.9	300	13	
2025-10-02T12:00	19750	58	-60.0	-87.9	305	12	
2025-10-02T12:00	19800	57	-59.6	-87.9	310	10	
2025-10-02T12:00	19850	57	-59.2	-87.8	313	9	
2025-10-02T12:00	19900	56	-59.2	-87.8	312	10	
2025-10-02T12:00	19950	56	-58.9	-87.6	311	11	
2025-10-02T12:00	20000	55	-58.8	-87.7	311	10	
2025-10-02T12:00	20050	55	-58.5		313	9	
2025-10-02T12:00	20100	55	-58.1		315	9	
2025-10-02T12:00	20150	54	-58.1		316	9	
2025-10-02T12:00	20200	54	-58.1		317	9	
2025-10-02T12:00	20250	53	-57.8		317	8	
2025-10-02T12:00	20300	53	-57.6		316	8	
2025-10-02T12:00	20350	52	-57.5		310	7	
2025-10-02T12:00	20400	52	-57.4		297	7	
2025-10-02T12:00	20450	52	-57.3		284	7	
2025-10-02T12:00	20500	51	-57.5		279	8	
2025-10-02T12:00	20550	51	-57.3		280	9	
2025-10-02T12:00	20600	50	-57.4		284	9	
2025-10-02T12:00	20650	50	-57.5		289	9	
2025-10-02T12:00	20700	50	-57.6		295	9	
2025-10-02T12:00	20750	49	-57.8		299	8	
2025-10-02T12:00	20800	49	-58.0		302	8	
2025-10-02T12:00	20850	48	-58.0		306	8	
2025-10-02T12:00	20900	48	-58.3		310	8	
2025-10-02T12:00	20950	48	-58.7		315	8	
2025-10-02T12:00	21000	47	-59.1		319	8	
2025-10-02T12:00	21050	47	-59.3		324	7	
2025-10-02T12:00	21100	47	-59.4		328	6	
2025-10-02T12:00	21150	46	-59.3		332	6	
2025-10-02T12:00	21200	46	-59.4		331	5	
2025-10-02T12:00	21250	45	-59.6		323	5	
2025-10-02T12:00	21300	45	-59.8		309	5	
2025-10-02T12:00	21350	45	-60.1		299	6	
2025-10-02T12:00	21400	44	-60.1		294	7	
2025-10-02T12:00	21450	44	-59.9		292	9	
2025-10-02T12:00	21500	44	-59.7		294	11	
2025-10-02T12:00	21550	43	-58.9		299	11	
2025-10-02T12:00	21600	43	-58.7		305	10	
2025-10-02T12:00	21650	43	-58.5		310	9	
2025-10-02T12:00	21700	42	-58.4		315	8	
2025-10-02T12:00	21750	42	-58.3		318	7	
2025-10-02T12:00	21800	42	-58.1		316	6	
2025-10-02T12:00	21850	41	-58.1		312	6	
2025-10-02T12:00	21900	41	-57.6		310	7	
2025-10-02T12:00	21950	41	-57.4		309	8	
2025-10-02T12:00	22000	40	-57.6		308	8	
2025-10-02T12:00	22050	40	-57.4		306	7	
2025-10-02T12:00	22100	40	-57.2		302	6	
2025-10-02T12:00	22150	39	-57.1		301	5	
2025-10-02T12:00	22200	39	-57.2		305	5	
2025-10-02T12:00	22250	39	-57.4		311	5	
2025-10-02T12:00	22300	38	-57.5		313	5	
2025-10-02T12:00	22350	38	-57.7		310	5	
2025-10-02T12:00	22400	38	-58.0		301	4	
2025-10-02T12:00	22450	38	-58.1		286	4	
2025-10-02T12:00	22500	37	-58.4		273	4	
2025-10-02T12:00	22550	37	-58.6		270	4	
2025-10-02T12:00	22600	37	-58.6		277	4	
2025-10-02T12:00	22650	36	-58.7		286	4	
2025-10-02T12:00	22700	36	-58.9		289	4	
2025-10-02T12:00	22750	36	-59.1		286	4	
2025-10-02T12:00	22800	36	-59.0		280	4	
2025-10-02T12:00	22850	35	-59.0		271	5	
2025-10-02T12:00	22900	35	-59.1		262	5	
2025-10-02T12:00	22950	35	-59.1		258	6	
2025-10-02T12:00	23000	34	-58.8		258	8	
2025-10-02T12:00	23050	34	-58.5		259	8	
2025-10-02T12:00	23100	34	-58.2		261	8	
2025-10-02T12:00	23150	34	-58.2		264	8	
2025-10-02T12:00	23200	33	-58.2		270	7	
2025-10-02T12:00	23250	33	-58.3		280	7	
2025-10-02T12:00	23300	33	-58.2		291	7	
2025-10-02T12:00	23350	33	-58.1		296	7	
2025-10-02T12:00	23400	32	-58.0		297	7	
2025-10-02T12:00	23450	32	-57.8		296	6	
2025-10-02T12:00	23500	32	-57.7		294	5	
2025-10-02T12:00	23550	32	-57.6		288	4	
2025-10-02T12:00	23600	31	-57.3		273	3	
2025-10-02T12:00	23650	31	-57.2		251	3	
2025-10-02T12:00	23700	31	-57.2		240	4	
2025-10-02T12:00	23750	31	-57.2		242	5	
2025-10-02T12:00	23800	30	-57.0		252	6	
2025-10-02T12:00	23850	30	-56.7		265	7	
2025-10-02T12:00	23900	30	-56.5		277	7	
2025-10-02T12:00	23950	30	-56.4		285	8	
2025-10-02T12:00	24000	29	-56.4		292	7	
2025-10-02T12:00	24050	29	-56.3		297	7	
2025-10-02T12:00	24100	29	-56.3		302	6	
2025-10-02T12:00	24150	29	-56.3		305	5	
2025-10-02T12:00	24200	28	-56.1		308	5	
2025-10-02T12:00	24250	28	-55.7		310	4	
2025-10-02T12:00	24300	28	-55.3		307	3	
2025-10-02T12:00	24350	28	-55.0		289	2	
2025-10-02T12:00	24400	28	-54.6		239	2	
2025-10-02T12:00	24450	27	-54.7		210	3	
2025-10-02T12:00	24500	27	-54.9		204	4	
2025-10-02T12:00	24550	27	-55.2		203	6	
2025-10-02T12:00	24600	27	-55.4		204	7	
2025-10-02T12:00	24650	26	-55.3		206	9	
2025-10-02T12:00	24700	26	-55.4		208	9	
2025-10-02T12:00	24750	26	-55.6		211	9	
2025-10-02T12:00	24800	26	-56.0		215	9	
2025-10-02T12:00	24850	26	-55.9		219	8	
2025-10-02T12:00	24900	25	-55.9		222	7	
2025-10-02T12:00	24950	25	-56.1		225	6	
2025-10-02T12:00	25000	25	-56.4		228	5	
2025-10-02T12:00	25050	25	-56.5		231	5	
2025-10-02T12:00	25100	25	-56.6		233	5	
2025-10-02T12:00	25150	24	-56.5		233	6	
2025-10-02T12:00	25200	24	-56.5		234	7	
2025-10-02T12:00	25250	24	-56.4		236	7	
2025-10-02T12:00	25300	24	-56.2		240	7	
2025-10-02T12:00	25350	24	-55.9		246	7	
2025-10-02T12:00	25400	24	-55.9		250	6	
2025-10-02T12:00	25450	23	-56.1		253	6	
2025-10-02T12:00	25500	23	-56.0		252	5	
2025-10-02T12:00	25550	23	-55.9		246	5	
2025-10-02T12:00	25600	23	-55.7		238	6	
2025-10-02T12:00	25650	23	-55.9		237	6	
2025-10-02T12:00	25700	22	-56.0		240	6	
2025-10-02T12:00	25750	22	-55.9		243	6	
2025-10-02T12:00	25800	22	-55.9		241	6	
2025-10-02T12:00	25850	22	-55.6		239	5	
2025-10-02T12:00	25900	22	-55.5		244	5	
2025-10-02T12:00	25950	22	-55.5		256	5	
2025-10-02T12:00	26000	21	-55.6		268	6	
2025-10-02T12:00	26050	21	-55.6		274	7	
2025-10-02T12:00	26100	21	-55.6		275	7	
2025-10-02T12:00	26150	21	-55.5		272	6	
2025-10-02T12:00	26200	21	-55.3		266	6	
2025-10-02T12:00	26250	21	-55.0		262	5	
2025-10-02T12:00	26300	20	-54.9		259	5	
2025-10-02T12:00	26350	20	-55.0		254	5	
2025-10-02T12:00	26400	20	-55.2		250	6	
2025-10-02T12:00	26450	20	-55.4		249	6	
2025-10-02T12:00	26500	20	-55.5		250	8	
2025-10-02T12:00	26550	20	-55.6		251	9	
2025-10-02T12:00	26600	20	-55.6		253	10	
2025-10-02T12:00	26650	19	-55.8		256	10	
2025-10-02T12:00	26700	19	-55.9		259	9	
2025-10-02T12:00	26750	19	-55.7		261	8	
2025-10-02T12:00	26800	19	-55.7		264	6	
2025-10-02T12:00	26850	19	-55.8		263	5	
2025-10-02T12:00	26900	19	-55.8		259	4	
2025-10-02T12:00	26950	18	-55.4		254	4	
2025-10-02T12:00	27000	18	-55.5		253	4	
2025-10-02T12:00	27050	18	-55.4		256	6	
2025-10-02T12:00	27100	18	-55.1		258	7	
2025-10-02T12:00	27150	18	-55.2		259	8	
2025-10-02T12:00	27200	18	-55.4		260	8	
2025-10-02T12:00	27250	18	-55.0		259	7	
2025-10-02T12:00	27300	17	-54.7		256	6	
2025-10-02T12:00	27350	17	-54.6		248	6	
2025-10-02T12:00	27400	17	-54.4		235	5	
2025-10-02T12:00	27450	17	-54.0		218	5	
2025-10-02T12:00	27500	17	-53.2		205	6	
2025-10-02T12:00	27550	17	-52.3		199	7	
2025-10-02T12:00	27600	17	-51.9		195	8	
2025-10-02T12:00	27650	17	-51.9		193	10	
2025-10-02T12:00	27700	16	-52.0		191	11	
2025-10-02T12:00	27750	16	-52.3		190	13	
2025-10-02T12:00	27800	16	-52.4		189	14	
2025-10-02T12:00	27850	16	-52.6		190	15	
2025-10-02T12:00	27900	16	-52.6		192	15	
2025-10-02T12:00	27950	16	-52.6		193	15	
2025-10-02T12:00	28000	16	-52.9		196	14	
2025-10-02T12:00	28050	16	-53.3		198	13	
2025-10-02T12:00	28100	15	-53.6		202	12	
2025-10-02T12:00	28150	15	-53.8		206	12	
2025-10-02T12:00	28200	15	-53.8		211	11	
2025-10-02T12:00	28250	15	-53.9		216	11	
2025-10-02T12:00	28300	15	-54.2		221	11	
2025-10-02T12:00	28350	15	-54.3		226	11	
2025-10-02T12:00	28400	15	-54.4		229	11	
2025-10-02T12:00	28450	15	-54.3		232	12	
2025-10-02T12:00	28500	15	-54.0		236	13	
2025-10-02T12:00	28550	14	-53.6		241	14	
2025-10-02T12:00	28600	14	-53.6		247	15	
2025-10-02T12:00	28650	14	-53.4		253	16	
2025-10-02T12:00	28700	14	-53.0		259	16	
2025-10-02T12:00	28750	14	-52.5		263	16	
2025-10-02T12:00	28800	14	-52.3		265	16	
2025-10-02T12:00	28850	14	-52.5		264	15	
2025-10-02T12:00	28900	14	-52.6		262	15	
2025-10-02T12:00	28950	14	-52.6		258	16	
2025-10-02T12:00	29000	13	-52.4		256	17	
2025-10-02T12:00	29050	13	-52.2		255	18	
2025-10-02T12:00	29100	13	-52.1		257	18	
2025-10-02T12:00	29150	13	-51.8		260	18	
2025-10-02T12:00	29200	13	-52.1		264	18	
2025-10-02T12:00	29250	13	-52.3		267	18	
2025-10-02T12:00	29300	13	-52.1		266	18	
2025-10-02T12:00	29350	13	-52.2		262	18	
2025-10-02T12:00	29400	13	-52.4		258	18	
2025-10-02T12:00	29450	13	-52.5		254	19	
2025-10-02T12:00	29500	12	-52.5		252	19	
2025-10-02T12:00	29550	12	-52.6		252	19	
2025-10-02T12:00	29600	12	-52.6		254	19	
2025-10-02T12:00	29650	12	-52.7		257	19	
2025-10-02T12:00	29700	12	-53.0		260	19	
2025-10-02T12:00	29750	12	-53.4		262	18	
2025-10-02T12:00	29800	12	-53.9		264	18	
2025-10-02T12:00	29850	12	-54.3		265	17	
2025-10-02T12:00	29900	12	-54.7		266	16	
2025-10-02T12:00	29950	12	-54.6		267	16	
2025-10-02T12:00	30000	11	-54.7		269	15	
2025-10-02T12:00	30050	11	-54.7		270	14	
2025-10-02T12:00	30100	11	-54.3		271	14	
2025-10-02T12:00	30150	11	-53.9		270	14	
2025-10-02T12:00	30200	11	-53.6		268	14	
2025-10-02T12:00	30250	11	-53.3		265	15	
2025-10-02T12:00	30300	11	-53.1		262	16	
2025-10-02T12:00	30350	11	-52.9		260	16	
2025-10-02T12:00	30400	11	-52.7		260	17	
2025-10-02T12:00	30450	11	-52.3		261	17	
2025-10-02T12:00	30500	11	-52.1		262	17	
2025-10-02T12:00	30550	11	-52.1		261	17	
2025-10-02T12:00	30600	10	-52.1		259	17	
2025-10-02T12:00	30650	10	-52.0		257	18	
2025-10-02T12:00	30700	10	-51.4		256	18	
2025-10-02T12:00	30750	10	-50.6		256	18	
2025-10-02T12:00	30800	10	-50.1		257	17	
2025-10-02T12:00	30850	10	-50.2		258	16	
2025-10-02T12:00	30900	10	-50.5		259	16	
2025-10-02T12:00	30950	10	-50.5		258	16	
2025-10-02T12:00	31000	10	-50.0		256	17	
2025-10-02T12:00	31050	10	-49.8		255	18	
2025-10-02T12:00	31100	10	-49.9		256	19	
2025-10-02T12:00	31150	10	-49.7		260	20	
2025-10-02T12:00	31200	10	-49.2		264	21	
2025-10-02T12:00	31250	9	-48.9		268	21	
2025-10-02T12:00	31300	9	-48.9		270	20	
2025-10-02T12:00	31350	9	-49.2		272	19	
2025-10-02T12:00	31400	9	-49.5		273	18	
2025-10-02T12:00	31450	9	-49.6		275	17	
2025-10-02T12:00	31500	9	-49.3		276	17	
2025-10-02T12:00	31550	9	-48.9		277	17	
2025-10-02T12:00	31600	9	-48.5		278	19	
2025-10-02T12:00	31650	9	-48.5		279	21	
2025-10-02T12:00	31700	9	-48.5		280	22	
2025-10-02T12:00	31750	9	-48.2		280	23	
2025-10-02T12:00	31800	9	-48.1		280	24	
2025-10-02T12:00	31850	9	-48.1		280	23	
2025-10-02T12:00	31900	9	-48.0		281	23	
2025-10-02T12:00	31950	9	-47.8		283	22	
2025-10-02T12:00	32000	8	-47.4		285	20	
2025-10-02T12:00	32050	8	-47.2		288	19	
2025-10-02T12:00	32100	8	-47.0		291	18	
2025-10-02T12:00	32150	8	-46.8		293	17	
2025-10-02T12:00	32200	8	-46.9		293	17	
2025-10-02T12:00	32250	8	-46.9		292	17	
2025-10-02T12:00	32300	8	-47.0		289	17	
2025-10-02T12:00	32350	8	-46.6		286	16	
2025-10-02T12:00	32400	8	-46.2		284	16	
2025-10-02T12:00	32450	8	-46.2		282	16	
2025-10-02T12:00	32500	8	-46.1		284	17	
2025-10-02T12:00	32550	8	-45.7		287	17	
2025-10-02T12:00	32600	8	-45.2		291	17	
2025-10-02T12:00	32650	8	-44.6		295	16	
2025-10-02T12:00	32700	8	-44.0		299	15	
2025-10-02T12:00	32750	8	-43.8		303	14	
2025-10-02T12:00	32800	7	-43.8		305	14	
2025-10-02T12:00	32850	7	-44.0		305	14	
2025-10-02T12:00	32900	7	-44.0		304	14	
2025-10-02T12:00	32950	7	-43.7		303	16	
2025-10-02T12:00	33000	7	-43.2		303	17	
2025-10-02T12:00	33050	7	-42.7		303	18	
2025-10-02T12:00	33100	7	-42.2		301	18	
2025-10-02T12:00	33150	7	-41.7		297	18	
2025-10-02T12:00	33200	7	-41.3		291	17	
2025-10-02T12:00	33250	7	-41.0		286	17	
2025-10-02T12:00	33300	7	-40.7		284	16	
2025-10-02T12:00	33350	7	-40.4		285	16	
2025-10-02T12:00	33400	7	-40.2		289	15	
2025-10-02T12:00	33450	7	-40.1		293	15	
2025-10-02T12:00	33500	7	-40.3		297	15	
2025-10-02T12:00	33550	7	-40.4		298	15	
2025-10-02T12:00	33600	7	-40.4		296	14	
2025-10-02T12:00	33650	7	-40.2		291	13	
2025-10-02T12:00	33700	7	-40.0		285	13	
2025-10-02T12:00	33750	7	-39.8		280	13	
2025-10-02T12:00	33800	6	-39.9		276	13	
2025-10-02T12:00	33850	6	-39.9		273	13	
2025-10-02T12:00	33900	6	-39.9		273	12	
2025-10-02T12:00	33950	6	-39.9		272	11	
2025-10-02T12:00	34000	6	-40.1		273	10	
2025-10-02T12:00	34050	6	-40.4		274	9	
2025-10-02T12:00	34100	6	-40.6		276	9	
2025-10-02T12:00	34150	6	-40.7		277	10	
2025-10-02T12:00	34200	6	-40.6		278	11	
2025-10-02T12:00	34250	6	-40.2		277	12	
2025-10-02T12:00	34300	6	-39.8		275	13	
2025-10-02T12:00	34350	6	-39.5		274	14	
2025-10-02T12:00	34400	6	-39.3		273	14	
2025-10-02T12:00	34450	6	-39.2		274	15	
2025-10-02T12:00	34500	6	-39.1		275	16	
2025-10-02T12:00	34550	6	-39.2		277	18	
2025-10-02T12:00	34600	6	-39.3		280	19	
2025-10-02T12:00	34650	6	-39.4		282	19	
2025-10-02T12:00	34700	6	-39.6		284	19	
2025-10-02T12:00	34750	6	-39.7		285	19	
2025-10-02T12:00	34800	6	-39.2		286	18	
2025-10-02T12:00	34850	6	-38.9		287	17	
2025-10-02T12:00	34900	6	-39.1		289	17	
2025-10-02T12:00	34950	5	-39.2		293	17	
2025-10-02T12:00	35000	5	-39.2		296	17	
2025-10-02T12:00	35050	5	-39.2		298	18	
2025-10-02T12:00	35100	5	-39.1		298	19	
2025-10-03T00:00	491	966	4.1	3.7	173	1	
2025-10-03T00:00	501	964	4.7	3.9	195	1	
2025-10-03T00:00	520	963	5.8	4.6	205	1	
2025-10-03T00:00	540	960	6.8	4.5	199	0	
2025-10-03T00:00	560	958	6.8	4.5	184	0	
2025-10-03T00:00	580	956	6.9	4.4	56	0	
2025-10-03T00:00	600	953	7.1	4.2	31	1	
2025-10-03T00:00	620	951	7.1	4.2	27	1	
2025-10-03T00:00	640	949	7.3	4.3	25	2	
2025-10-03T00:00	660	946	7.6	4.4	25	3	
2025-10-03T00:00	680	944	7.7	4.3	26	3	
2025-10-03T00:00	700	942	7.7	4.1	28	3	
2025-10-03T00:00	720	939	7.7	4.0	30	4	
2025-10-03T00:00	740	937	7.5	3.9	32	4	
2025-10-03T00:00	760	935	7.4	3.8	35	4	
2025-10-03T00:00	780	933	7.3	3.6	39	4	
2025-10-03T00:00	800	930	7.2	3.5	44	4	
2025-10-03T00:00	820	928	7.1	3.5	47	4	
2025-10-03T00:00	840	926	7.1	3.4	51	4	
2025-10-03T00:00	860	924	7.0	3.4	54	5	
2025-10-03T00:00	880	921	6.9	3.4	57	5	
2025-10-03T00:00	900	919	6.8	3.4	59	5	
2025-10-03T00:00	920	917	6.7	3.3	60	4	
2025-10-03T00:00	940	915	6.7	3.3	60	4	
2025-10-03T00:00	960	912	6.5	3.4	59	4	
2025-10-03T00:00	980	910	6.4	3.4	57	4	
2025-10-03T00:00	1000	908	6.4	3.5	53	4	
2025-10-03T00:00	1020	906	6.6	3.5	48	3	
2025-10-03T00:00	1040	903	6.5	3.5	46	3	
2025-10-03T00:00	1060	901	6.4	3.4	44	4	
2025-10-03T00:00	1080	899	6.3	3.3	44	4	
2025-10-03T00:00	1100	897	6.2	3.4	45	4	
2025-10-03T00:00	1120	895	6.2	3.3	46	4	
2025-10-03T00:00	1140	893	6.2	3.3	46	4	
2025-10-03T00:00	1160	890	6.2	2.5	48	4	
2025-10-03T00:00	1180	888	6.1	3.1	50	4	
2025-10-03T00:00	1200	886	6.0	3.3	52	3	
2025-10-03T00:00	1220	884	5.9	3.4	54	3	
2025-10-03T00:00	1240	882	5.8	3.5	59	3	
2025-10-03T00:00	1260	880	5.7	3.5	64	3	
2025-10-03T00:00	1280	878	5.7	3.3	70	2	
2025-10-03T00:00	1300	876	5.5	3.3	75	2	
2025-10-03T00:00	1320	873	5.4	3.1	78	3	
2025-10-03T00:00	1340	871	5.5	2.8	79	3	
2025-10-03T00:00	1360	869	5.6	2.6	78	3	
2025-10-03T00:00	1380	867	5.5	2.6	75	3	
2025-10-03T00:00	1400	865	5.7	2.3	73	3	
2025-10-03T00:00	1420	863	5.7	2.1	72	3	
2025-10-03T00:00	1440	860	5.7	1.6	72	3	
2025-10-03T00:00	1460	858	5.5	1.1	74	3	
2025-10-03T00:00	1480	856	5.5	-0.1	77	3	
2025-10-03T00:00	1500	854	5.4	-0.6	80	3	
2025-10-03T00:00	1520	852	5.5	-1.9	83	3	
2025-10-03T00:00	1540	850	5.7	-6.0	86	3	
2025-10-03T00:00	1560	848	6.1	-12.7	88	3	
2025-10-03T00:00	1580	846	6.1	-10.7	90	3	
2025-10-03T00:00	1600	844	5.9	-8.7	92	3	
2025-10-03T00:00	1620	842	5.9	-10.0	92	3	
2025-10-03T00:00	1640	840	6.0	-12.2	91	3	
2025-10-03T00:00	1660	838	6.1	-15.5	87	2	
2025-10-03T00:00	1680	836	6.1	-16.8	81	2	
2025-10-03T00:00	1700	834	6.3	-20.2	73	2	
2025-10-03T00:00	1720	832	6.4	-22.8	66	2	
2025-10-03T00:00	1740	830	6.4	-23.8	64	2	
2025-10-03T00:00	1760	828	6.3	-24.2	68	2	
2025-10-03T00:00	1780	825	6.2	-24.8	79	2	
2025-10-03T00:00	1800	823	6.1	-24.9	94	2	
2025-10-03T00:00	1820	821	6.0	-25.2	106	2	
2025-10-03T00:00	1840	820	5.8	-25.5	111	2	
2025-10-03T00:00	1860	817	5.7	-25.7	111	2	
2025-10-03T00:00	1880	815	5.6	-25.7	106	2	
2025-10-03T00:00	1900	813	5.4	-25.7	99	2	
2025-10-03T00:00	1920	811	5.3	-25.8	92	1	
2025-10-03T00:00	1940	809	5.2	-25.9	87	1	
2025-10-03T00:00	1960	807	5.2	-26.3	81	1	
2025-10-03T00:00	1980	805	5.1	-26.5	72	1	
2025-10-03T00:00	2000	803	4.9	-26.7	53	1	
2025-10-03T00:00	2020	801	4.9	-27.5	32	1	
2025-10-03T00:00	2040	800	4.9	-28.8	18	1	
2025-10-03T00:00	2060	798	4.8	-29.5	7	1	
2025-10-03T00:00	2080	796	4.7	-29.9	2	2	
2025-10-03T00:00	2100	794	4.5	-30.1	0	2	
2025-10-03T00:00	2120	792	4.4	-30.8	1	2	
2025-10-03T00:00	2140	790	4.2	-30.8	4	2	
2025-10-03T00:00	2160	788	4.1	-30.8	8	2	
2025-10-03T00:00	2180	786	4.0	-30.9	12	2	
2025-10-03T00:00	2200	784	3.9	-30.7	11	2	
2025-10-03T00:00	2220	782	3.9	-30.7	7	2	
2025-10-03T00:00	2240	780	3.7	-30.9	360	3	
2025-10-03T00:00	2260	779	3.6	-31.1	354	3	
2025-10-03T00:00	2280	776	3.4	-31.3	350	4	
2025-10-03T00:00	2300	774	3.3	-31.6	348	4	
2025-10-03T00:00	2320	773	3.2	-31.8	347	4	
2025-10-03T00:00	2340	771	3.2	-32.2	350	4	
2025-10-03T00:00	2360	769	3.1	-32.6	357	4	
2025-10-03T00:00	2380	767	3.0	-32.8	6	3	
2025-10-03T00:00	2400	765	2.9	-33.1	19	3	
2025-10-03T00:00	2420	763	2.7	-33.3	30	3	
2025-10-03T00:00	2440	761	2.6	-33.4	34	3	
2025-10-03T00:00	2460	759	2.5	-33.7	34	3	
2025-10-03T00:00	2480	757	2.4	-33.9	33	3	
2025-10-03T00:00	2500	755	2.3	-34.5	32	2	
2025-10-03T00:00	2520	754	2.3	-34.8	34	2	
2025-10-03T00:00	2540	752	2.2	-35.1	38	3	
2025-10-03T00:00	2560	750	2.1	-35.3	42	3	
2025-10-03T00:00	2580	748	2.0	-35.5	46	3	
2025-10-03T00:00	2600	746	2.0	-35.6	48	3	
2025-10-03T00:00	2620	745	2.0	-36.0	49	4	
2025-10-03T00:00	2640	742	1.9	-36.2	49	4	
2025-10-03T00:00	2660	741	1.8	-36.0	47	4	
2025-10-03T00:00	2680	739	1.6	-35.9	44	4	
2025-10-03T00:00	2700	737	1.5	-36.1	38	4	
2025-10-03T00:00	2720	735	1.4	-36.2	32	4	
2025-10-03T00:00	2740	733	1.4	-36.3	26	4	
2025-10-03T00:00	2760	731	1.3	-36.9	19	4	
2025-10-03T00:00	2780	730	1.3	-37.4	14	4	
2025-10-03T00:00	2800	728	1.2	-37.6	9	5	
2025-10-03T00:00	2820	726	1.1	-37.7	5	5	
2025-10-03T00:00	2840	724	1.0	-37.8	3	5	
2025-10-03T00:00	2860	722	0.9	-37.8	2	6	
2025-10-03T00:00	2880	721	0.9	-38.2	2	6	
2025-10-03T00:00	2900	719	0.9	-38.7	2	7	
2025-10-03T00:00	2920	717	0.9	-37.8	2	7	
2025-10-03T00:00	2940	715	0.9	-34.7	3	8	
2025-10-03T00:00	2960	713	0.8	-31.2	3	8	
2025-10-03T00:00	2980	712	0.7	-29.7	3	8	
2025-10-03T00:00	3000	710	0.5	-30.5	4	8	
2025-10-03T00:00	3020	708	0.4	-29.5	4	8	
2025-10-03T00:00	3040	706	0.2	-29.3	3	8	
2025-10-03T00:00	3060	705	0.0	-29.1	3	7	
2025-10-03T00:00	3080	703	-0.2	-28.6	3	7	
2025-10-03T00:00	3100	701	-0.4	-27.9	2	7	
2025-10-03T00:00	3120	699	-0.6	-26.0	2	6	
2025-10-03T00:00	3140	698	-0.8	-25.9	1	6	
2025-10-03T00:00	3160	696	-0.9	-26.7	360	6	
2025-10-03T00:00	3180	694	-1.0	-27.7	359	6	
2025-10-03T00:00	3200	692	-1.2	-29.6	358	6	
2025-10-03T00:00	3220	691	-1.4	-31.1	355	6	
2025-10-03T00:00	3240	689	-1.5	-32.1	353	6	
2025-10-03T00:00	3260	687	-1.6	-33.5	351	6	
2025-10-03T00:00	3280	685	-1.7	-35.0	349	7	
2025-10-03T00:00	3300	684	-1.8	-34.3	347	7	
2025-10-03T00:00	3320	682	-2.0	-33.9	345	7	
2025-10-03T00:00	3340	680	-2.1	-33.0	344	7	
2025-10-03T00:00	3360	679	-2.2	-31.8	344	7	
2025-10-03T00:00	3380	677	-2.3	-30.9	344	8	
2025-10-03T00:00	3400	675	-2.5	-32.3	345	8	
2025-10-03T00:00	3420	673	-2.6	-28.3	347	8	
2025-10-03T00:00	3440	672	-2.7	-26.6	349	9	
2025-10-03T00:00	3460	670	-2.8	-27.3	351	9	
2025-10-03T00:00	3480	668	-2.9	-27.3	353	9	
2025-10-03T00:00	3500	667	-3.1	-27.2	354	9	
2025-10-03T00:00	3520	665	-3.2	-27.9	355	9	
2025-10-03T00:00	3540	663	-3.3	-28.1	354	9	
2025-10-03T00:00	3560	662	-3.4	-27.6	353	10	
2025-10-03T00:00	3580	660	-3.6	-23.5	352	10	
2025-10-03T00:00	3600	658	-3.7	-21.2	351	10	
2025-10-03T00:00	3620	657	-3.8	-20.6	351	10	
2025-10-03T00:00	3640	655	-4.0	-20.3	351	10	
2025-10-03T00:00	3660	653	-4.2	-19.7	351	10	
2025-10-03T00:00	3680	652	-4.3	-19.3	352	10	
2025-10-03T00:00	3700	650	-4.4	-18.3	353	10	
2025-10-03T00:00	3720	648	-4.5	-19.2	354	10	
2025-10-03T00:00	3740	647	-4.5	-25.5	354	10	
2025-10-03T00:00	3760	645	-4.4	-30.0	354	10	
2025-10-03T00:00	3780	644	-4.3	-31.8	354	10	
2025-10-03T00:00	3800	642	-4.0	-36.9	353	10	
2025-10-03T00:00	3820	640	-3.7	-40.0	353	10	
2025-10-03T00:00	3840	639	-3.5	-41.4	353	10	
2025-10-03T00:00	3860	637	-3.4	-41.8	353	10	
2025-10-03T00:00	3880	635	-3.5	-41.6	354	11	
2025-10-03T00:00	3900	634	-3.5	-40.9	355	11	
2025-10-03T00:00	3920	632	-3.6	-40.0	356	12	
2025-10-03T00:00	3940	631	-3.6	-40.8	357	12	
2025-10-03T00:00	3960	629	-3.7	-41.2	359	12	
2025-10-03T00:00	3980	627	-3.6	-34.5	360	13	
2025-10-03T00:00	4000	626	-3.7	-27.2	360	13	
2025-10-03T00:00	4020	624	-3.8	-23.7	360	13	
2025-10-03T00:00	4040	623	-4.0	-21.7	359	14	
2025-10-03T00:00	4060	621	-4.1	-19.1	359	14	
2025-10-03T00:00	4080	619	-4.2	-18.3	358	14	
2025-10-03T00:00	4100	618	-4.4	-17.9	358	14	
2025-10-03T00:00	4120	616	-4.5	-16.8	358	14	
2025-10-03T00:00	4140	615	-4.6	-15.8	358	15	
2025-10-03T00:00	4160	613	-4.8	-14.4	358	15	
2025-10-03T00:00	4180	612	-5.0	-13.6	357	15	
2025-10-03T00:00	4200	610	-5.2	-13.1	357	15	
2025-10-03T00:00	4220	608	-5.3	-12.6	357	15	
2025-10-03T00:00	4240	607	-5.5	-12.3	357	15	
2025-10-03T00:00	4260	605	-5.6	-11.7	358	15	
2025-10-03T00:00	4280	604	-5.8	-11.4	358	15	
2025-10-03T00:00	4300	602	-6.0	-11.4	359	15	
2025-10-03T00:00	4320	601	-6.2	-11.6	360	15	
2025-10-03T00:00	4340	599	-6.3	-11.9	360	15	
2025-10-03T00:00	4360	598	-6.5	-12.3	358	15	
2025-10-03T00:00	4380	596	-6.5	-12.4	356	15	
2025-10-03T00:00	4400	595	-6.7	-12.7	354	15	
2025-10-03T00:00	4420	593	-6.8	-12.7	352	15	
2025-10-03T00:00	4440	592	-7.0	-13.0	350	16	
2025-10-03T00:00	4460	590	-7.1	-13.0	349	16	
2025-10-03T00:00	4480	589	-7.3	-12.3	348	16	
2025-10-03T00:00	4500	587	-7.4	-11.5	346	16	
2025-10-03T00:00	4520	586	-7.5	-12.3	344	16	
2025-10-03T00:00	4540	584	-7.6	-12.7	343	16	
2025-10-03T00:00	4560	583	-7.8	-12.5	341	16	
2025-10-03T00:00	4580	581	-8.0	-12.1	339	15	
2025-10-03T00:00	4600	580	-8.2	-11.9	339	15	
2025-10-03T00:00	4620	578	-8.4	-11.3	339	14	
2025-10-03T00:00	4640	577	-8.6	-11.2	340	14	
2025-10-03T00:00	4660	575	-8.8	-11.0	343	14	
2025-10-03T00:00	4680	574	-9.0	-11.0	345	13	
2025-10-03T00:00	4700	572	-9.1	-11.5	348	13	
2025-10-03T00:00	4720	571	-9.2	-12.2	350	13	
2025-10-03T00:00	4740	569	-9.2	-12.3	350	14	
2025-10-03T00:00	4760	568	-9.4	-12.2	349	14	
2025-10-03T00:00	4780	566	-9.4	-12.0	348	15	
2025-10-03T00:00	4800	565	-9.5	-12.0	347	15	
2025-10-03T00:00	4820	563	-9.6	-12.8	346	15	
2025-10-03T00:00	4840	562	-9.6	-14.5	346	15	
2025-10-03T00:00	4860	561	-9.5	-14.3	346	15	
2025-10-03T00:00	4880	559	-9.6	-13.7	347	14	
2025-10-03T00:00	4900	557	-9.7	-13.7	347	13	
2025-10-03T00:00	4920	556	-9.8	-14.0	347	13	
2025-10-03T00:00	4940	555	-9.9	-14.2	346	13	
2025-10-03T00:00	4960	553	-10.1	-14.5	345	13	
2025-10-03T00:00	4980	552	-10.2	-14.4	343	13	
2025-10-03T00:00	5000	550	-10.4	-14.4	342	14	
2025-10-03T00:00	5020	549	-10.6	-14.4	342	15	
2025-10-03T00:00	5040	547	-10.7	-14.3	341	15	
2025-10-03T00:00	5060	546	-10.8	-14.2	341	15	
2025-10-03T00:00	5080	545	-10.9	-14.4	341	15	
2025-10-03T00:00	5100	543	-10.8	-15.1	341	15	
2025-10-03T00:00	5120	542	-10.8	-15.4	341	15	
2025-10-03T00:00	5140	540	-10.9	-15.8	342	15	
2025-10-03T00:00	5160	539	-10.9	-16.4	342	15	
2025-10-03T00:00	5180	538	-11.0	-16.6	343	15	
2025-10-03T00:00	5200	536	-11.1	-16.7	343	15	
2025-10-03T00:00	5220	535	-11.2	-17.1	344	15	
2025-10-03T00:00	5240	533	-11.4	-17.2	344	15	
2025-10-03T00:00	5260	532	-11.6	-17.3	344	15	
2025-10-03T00:00	5280	531	-11.8	-17.4	344	15	
2025-10-03T00:00	5300	529	-12.0	-17.6	345	15	
2025-10-03T00:00	5320	528	-12.2	-17.7	345	15	
2025-10-03T00:00	5340	527	-12.2	-18.1	345	16	
2025-10-03T00:00	5360	525	-12.4	-18.3	345	16	
2025-10-03T00:00	5380	524	-12.6	-18.5	345	16	
2025-10-03T00:00	5400	522	-12.7	-18.4	344	16	
2025-10-03T00:00	5420	521	-12.9	-18.5	344	17	
2025-10-03T00:00	5440	520	-13.1	-18.5	342	17	
2025-10-03T00:00	5460	518	-13.2	-18.6	341	17	
2025-10-03T00:00	5480	517	-13.4	-18.6	341	17	
2025-10-03T00:00	5500	516	-13.6	-18.8	340	17	
2025-10-03T00:00	5520	514	-13.7	-18.9	340	17	
2025-10-03T00:00	5540	513	-13.9	-19.0	339	17	
2025-10-03T00:00	5560	511	-14.1	-19.0	340	17	
2025-10-03T00:00	5580	510	-14.3	-18.9	341	17	
2025-10-03T00:00	5600	509	-14.4	-19.0	341	17	
2025-10-03T00:00	5620	508	-14.6	-19.2	342	17	
2025-10-03T00:00	5640	506	-14.8	-19.6	342	17	
2025-10-03T00:00	5660	505	-15.0	-19.5	342	17	
2025-10-03T00:00	5680	503	-15.2	-19.5	342	17	
2025-10-03T00:00	5700	502	-15.3	-19.6	342	16	
2025-10-03T00:00	5720	501	-15.5	-19.9	341	16	
2025-10-03T00:00	5740	500	-15.6	-20.3	341	16	
2025-10-03T00:00	5760	498	-15.8	-20.7	341	15	
2025-10-03T00:00	5780	497	-15.9	-20.6	342	15	
2025-10-03T00:00	5800	496	-16.1	-20.4	342	15	
2025-10-03T00:00	5820	494	-16.3	-20.3	342	15	
2025-10-03T00:00	5840	493	-16.5	-20.4	341	15	
2025-10-03T00:00	5860	492	-16.7	-20.5	341	15	
2025-10-03T00:00	5880	490	-16.8	-20.7	341	15	
2025-10-03T00:00	5900	489	-17.0	-21.0	340	16	
2025-10-03T00:00	5920	488	-17.1	-21.1	339	16	
2025-10-03T00:00	5940	486	-17.3	-21.2	339	16	
2025-10-03T00:00	5960	485	-17.5	-21.6	338	17	
2025-10-03T00:00	5980	484	-17.6	-22.1	338	17	
2025-10-03T00:00	6000	482	-17.8	-22.5	338	17	
2025-10-03T00:00	6020	481	-17.9	-22.6	338	17	
2025-10-03T00:00	6040	480	-18.0	-22.7	338	17	
2025-10-03T00:00	6060	479	-18.2	-22.8	338	17	
2025-10-03T00:00	6080	477	-18.4	-22.8	339	17	
2025-10-03T00:00	6100	476	-18.5	-23.2	340	17	
2025-10-03T00:00	6120	475	-18.6	-23.6	342	17	
2025-10-03T00:00	6140	474	-18.7	-24.1	343	17	
2025-10-03T00:00	6160	472	-18.8	-24.4	345	17	
2025-10-03T00:00	6180	471	-19.0	-24.7	347	16	
2025-10-03T00:00	6200	470	-19.1	-25.1	348	16	
2025-10-03T00:00	6220	469	-19.2	-25.3	349	16	
2025-10-03T00:00	6240	467	-19.4	-25.6	349	16	
2025-10-03T00:00	6260	466	-19.5	-26.9	350	16	
2025-10-03T00:00	6280	465	-19.4	-27.1	349	16	
2025-10-03T00:00	6300	464	-19.5	-27.4	349	16	
2025-10-03T00:00	6320	462	-19.5	-28.0	349	17	
2025-10-03T00:00	6340	461	-19.6	-29.4	348	17	
2025-10-03T00:00	6360	460	-19.5	-29.2	348	17	
2025-10-03T00:00	6380	458	-19.5	-29.1	348	18	
2025-10-03T00:00	6400	457	-19.5	-31.9	349	18	
2025-10-03T00:00	6420	456	-19.6	-32.4	349	18	
2025-10-03T00:00	6440	455	-19.8	-32.1	350	18	
2025-10-03T00:00	6460	454	-19.9	-33.0	350	18	
2025-10-03T00:00	6480	452	-20.0	-34.0	350	18	
2025-10-03T00:00	6500	451	-20.1	-34.0	350	18	
2025-10-03T00:00	6520	450	-20.2	-33.6	350	18	
2025-10-03T00:00	6540	449	-20.4	-34.5	350	18	
2025-10-03T00:00	6560	448	-20.5	-36.8	350	18	
2025-10-03T00:00	6580	446	-20.7	-36.4	349	18	
2025-10-03T00:00	6600	445	-20.8	-34.6	349	18	
2025-10-03T00:00	6620	444	-21.0	-32.4	350	18	
2025-10-03T00:00	6640	443	-21.2	-31.7	350	18	
2025-10-03T00:00	6660	442	-21.4	-28.8	350	18	
2025-10-03T00:00	6680	440	-21.6	-26.4	350	18	
2025-10-03T00:00	6700	439	-21.7	-25.7	350	18	
2025-10-03T00:00	6720	438	-21.8	-26.0	350	17	
2025-10-03T00:00	6740	437	-21.9	-26.6	349	18	
2025-10-03T00:00	6760	436	-22.1	-26.8	349	18	
2025-10-03T00:00	6780	434	-22.1	-26.6	348	18	
2025-10-03T00:00	6800	433	-22.2	-26.8	347	19	
2025-10-03T00:00	6820	432	-22.3	-26.9	345	19	
2025-10-03T00:00	6840	431	-22.3	-26.9	343	20	
2025-10-03T00:00	6860	430	-22.4	-26.9	342	20	
2025-10-03T00:00	6880	429	-22.5	-26.9	340	21	
2025-10-03T00:00	6900	427	-22.6	-26.8	339	21	
2025-10-03T00:00	6920	426	-22.8	-26.9	338	21	
2025-10-03T00:00	6940	425	-22.8	-26.4	338	22	
2025-10-03T00:00	6960	424	-22.8	-25.4	338	22	
2025-10-03T00:00	6980	423	-22.9	-25.4	338	22	
2025-10-03T00:00	7000	422	-22.9	-25.8	339	22	
2025-10-03T00:00	7020	420	-23.0	-26.1	339	22	
2025-10-03T00:00	7040	419	-23.2	-26.5	338	22	
2025-10-03T00:00	7060	418	-23.3	-26.7	338	22	
2025-10-03T00:00	7080	417	-23.5	-27.3	338	22	
2025-10-03T00:00	7100	416	-23.6	-27.6	339	21	
2025-10-03T00:00	7120	415	-23.8	-27.7	339	21	
2025-10-03T00:00	7140	414	-23.9	-28.1	339	21	
2025-10-03T00:00	7160	412	-24.0	-28.3	340	21	
2025-10-03T00:00	7180	411	-24.1	-27.9	340	21	
2025-10-03T00:00	7200	410	-24.3	-27.8	341	22	
2025-10-03T00:00	7220	409	-24.4	-27.8	342	22	
2025-10-03T00:00	7240	408	-24.6	-28.3	343	22	
2025-10-03T00:00	7260	407	-24.7	-28.6	343	22	
2025-10-03T00:00	7280	406	-24.9	-28.7	344	22	
2025-10-03T00:00	7300	405	-25.1	-29.1	344	22	
2025-10-03T00:00	7320	404	-25.2	-29.4	345	22	
2025-10-03T00:00	7340	402	-25.4	-29.2	345	22	
2025-10-03T00:00	7360	401	-25.6	-29.1	345	22	
2025-10-03T00:00	7380	400	-25.8	-28.6	345	22	
2025-10-03T00:00	7400	399	-26.0	-28.5	345	22	
2025-10-03T00:00	7420	398	-26.1	-28.6	344	22	
2025-10-03T00:00	7440	397	-26.3	-28.6	344	22	
2025-10-03T00:00	7460	396	-26.4	-29.3	343	22	
2025-10-03T00:00	7480	395	-26.5	-30.2	343	22	
2025-10-03T00:00	7500	393	-26.6	-30.1	342	22	
2025-10-03T00:00	7520	392	-26.8	-29.7	341	22	
2025-10-03T00:00	7540	392	-26.9	-30.0	341	22	
2025-10-03T00:00	7560	390	-27.1	-30.1	340	22	
2025-10-03T00:00	7580	389	-27.3	-30.1	340	22	
2025-10-03T00:00	7600	388	-27.4	-30.5	340	22	
2025-10-03T00:00	7620	387	-27.6	-30.7	339	22	
2025-10-03T00:00	7640	386	-27.7	-31.1	338	22	
2025-10-03T00:00	7660	385	-27.9	-31.1	337	23	
2025-10-03T00:00	7680	384	-28.0	-31.1	337	23	
2025-10-03T00:00	7700	383	-28.1	-31.6	336	23	
2025-10-03T00:00	7720	382	-28.2	-32.5	335	24	
2025-10-03T00:00	7740	381	-28.3	-32.8	334	24	
2025-10-03T00:00	7760	380	-28.5	-32.7	334	24	
2025-10-03T00:00	7780	379	-28.7	-32.8	334	24	
2025-10-03T00:00	7800	378	-28.8	-33.0	334	24	
2025-10-03T00:00	7820	376	-29.0	-33.2	334	24	
2025-10-03T00:00	7840	375	-29.2	-33.1	334	24	
2025-10-03T00:00	7860	374	-29.4	-33.2	334	24	
2025-10-03T00:00	7880	373	-29.6	-33.3	334	24	
2025-10-03T00:00	7900	372	-29.8	-33.4	334	24	
2025-10-03T00:00	7920	371	-30.0	-33.4	334	24	
2025-10-03T00:00	7940	370	-30.1	-33.5	334	24	
2025-10-03T00:00	7960	369	-30.3	-33.4	335	24	
2025-10-03T00:00	7980	368	-30.5	-33.6	336	24	
2025-10-03T00:00	8000	367	-30.7	-33.6	336	24	
2025-10-03T00:00	8020	366	-30.9	-33.8	337	24	
2025-10-03T00:00	8040	365	-31.1	-33.9	338	23	
2025-10-03T00:00	8060	364	-31.2	-34.2	338	23	
2025-10-03T00:00	8080	363	-31.3	-34.9	338	23	
2025-10-03T00:00	8100	362	-31.3	-35.8	339	23	
2025-10-03T00:00	8120	361	-31.4	-36.0	339	23	
2025-10-03T00:00	8140	360	-31.5	-36.4	339	23	
2025-10-03T00:00	8160	359	-31.7	-37.2	339	23	
2025-10-03T00:00	8180	358	-31.8	-38.1	339	23	
2025-10-03T00:00	8200	357	-31.9	-38.2	338	24	
2025-10-03T00:00	8220	356	-32.1	-38.3	338	24	
2025-10-03T00:00	8240	355	-32.1	-39.2	337	24	
2025-10-03T00:00	8260	354	-32.1	-39.7	337	25	
2025-10-03T00:00	8280	353	-32.2	-40.1	337	25	
2025-10-03T00:00	8300	352	-32.4	-40.6	336	25	
2025-10-03T00:00	8320	351	-32.6	-41.1	336	24	
2025-10-03T00:00	8340	350	-32.8	-40.9	336	24	
2025-10-03T00:00	8360	349	-32.9	-40.7	337	24	
2025-10-03T00:00	8380	348	-33.1	-41.4	337	24	
2025-10-03T00:00	8400	347	-33.2	-42.0	338	24	
2025-10-03T00:00	8420	346	-33.4	-42.5	338	24	
2025-10-03T00:00	8440	345	-33.5	-43.2	338	24	
2025-10-03T00:00	8460	344	-33.7	-43.7	338	24	
2025-10-03T00:00	8480	343	-33.8	-43.8	337	24	
2025-10-03T00:00	8500	342	-34.0	-44.3	337	24	
2025-10-03T00:00	8520	341	-34.1	-44.9	336	25	
2025-10-03T00:00	8540	340	-34.2	-44.9	335	25	
2025-10-03T00:00	8560	339	-34.4	-44.6	335	25	
2025-10-03T00:00	8580	338	-34.5	-44.6	335	26	
2025-10-03T00:00	8600	337	-34.7	-44.3	336	26	
2025-10-03T00:00	8620	336	-34.8	-44.2	336	26	
2025-10-03T00:00	8640	335	-35.0	-44.6	338	27	
2025-10-03T00:00	8660	334	-35.1	-44.5	339	27	
2025-10-03T00:00	8680	333	-35.3	-44.2	340	27	
2025-10-03T00:00	8700	332	-35.4	-44.3	341	27	
2025-10-03T00:00	8720	331	-35.5	-44.5	342	27	
2025-10-03T00:00	8740	330	-35.7	-44.4	342	27	
2025-10-03T00:00	8760	329	-35.8	-44.0	342	27	
2025-10-03T00:00	8780	329	-35.9	-43.7	342	27	
2025-10-03T00:00	8800	328	-36.0	-44.3	342	27	
2025-10-03T00:00	8820	327	-36.1	-45.2	341	27	
2025-10-03T00:00	8840	326	-36.2	-45.4	340	27	
2025-10-03T00:00	8860	325	-36.4	-45.4	340	27	
2025-10-03T00:00	8880	324	-36.5	-46.0	340	27	
2025-10-03T00:00	8900	323	-36.6	-46.3	340	27	
2025-10-03T00:00	8920	322	-36.8	-46.3	340	27	
2025-10-03T00:00	8940	321	-37.0	-47.4	340	27	
2025-10-03T00:00	8960	320	-37.2	-47.3	340	27	
2025-10-03T00:00	8980	319	-37.4	-47.2	341	27	
2025-10-03T00:00	9000	318	-37.6	-46.8	341	26	
2025-10-03T00:00	9020	317	-37.8	-46.5	340	26	
2025-10-03T00:00	9040	316	-37.9	-46.6	340	26	
2025-10-03T00:00	9060	315	-38.1	-46.4	340	26	
2025-10-03T00:00	9080	314	-38.3	-46.2	339	26	
2025-10-03T00:00	9100	314	-38.4	-46.1	339	26	
2025-10-03T00:00	9120	313	-38.6	-47.2	339	26	
2025-10-03T00:00	9140	312	-38.7	-48.5	338	26	
2025-10-03T00:00	9160	311	-38.8	-48.7	338	26	
2025-10-03T00:00	9180	310	-39.0	-48.2	338	26	
2025-10-03T00:00	9200	309	-39.2	-48.3	337	27	
2025-10-03T00:00	9220	308	-39.3	-50.3	337	27	
2025-10-03T00:00	9240	307	-39.5	-51.2	337	27	
2025-10-03T00:00	9260	306	-39.6	-51.0	337	27	
2025-10-03T00:00	9280	305	-39.8	-51.4	337	27	
2025-10-03T00:00	9300	305	-40.0	-52.1	337	27	
2025-10-03T00:00	9320	304	-40.1	-52.1	337	27	
2025-10-03T00:00	9340	303	-40.3	-51.6	338	27	
2025-10-03T00:00	9360	302	-40.4	-51.4	338	27	
2025-10-03T00:00	9380	301	-40.6	-52.0	338	26	
2025-10-03T00:00	9400	300	-40.7	-53.9	338	26	
2025-10-03T00:00	9420	299	-40.8	-54.5	338	26	
2025-10-03T00:00	9440	298	-41.0	-56.4	338	26	
2025-10-03T00:00	9460	297	-41.1	-56.6	337	26	
2025-10-03T00:00	9480	297	-41.3	-56.0	337	26	
2025-10-03T00:00	9500	296	-41.4	-56.4	336	27	
2025-10-03T00:00	9520	295	-41.5	-58.2	336	27	
2025-10-03T00:00	9540	294	-41.7	-60.2	335	27	
2025-10-03T00:00	9560	293	-41.8	-61.9	335	27	
2025-10-03T00:00	9580	292	-42.0	-63.1	335	27	
2025-10-03T00:00	9600	291	-42.2	-63.0	335	28	
2025-10-03T00:00	9620	291	-42.4	-63.3	335	28	
2025-10-03T00:00	9640	290	-42.5	-64.4	335	28	
2025-10-03T00:00	9660	289	-42.7	-65.8	335	28	
2025-10-03T00:00	9680	288	-42.8	-65.6	336	28	
2025-10-03T00:00	9700	287	-43.0	-64.9	336	28	
2025-10-03T00:00	9720	286	-43.1	-64.4	337	28	
2025-10-03T00:00	9740	285	-43.3	-64.0	337	28	
2025-10-03T00:00	9760	285	-43.4	-61.4	337	28	
2025-10-03T00:00	9780	284	-43.4	-58.4	337	28	
2025-10-03T00:00	9800	283	-43.6	-57.7	338	28	
2025-10-03T00:00	9820	282	-43.8	-57.5	338	28	
2025-10-03T00:00	9840	281	-43.9	-57.0	338	29	
2025-10-03T00:00	9860	280	-44.1	-56.1	338	29	
2025-10-03T00:00	9880	280	-44.3	-55.9	339	29	
2025-10-03T00:00	9900	279	-44.5	-56.2	339	29	
2025-10-03T00:00	9920	278	-44.7	-56.2	339	29	
2025-10-03T00:00	9940	277	-44.9	-55.7	339	29	
2025-10-03T00:00	9960	276	-45.1	-55.2	338	29	
2025-10-03T00:00	9980	275	-45.3	-55.3	338	29	
2025-10-03T00:00	10000	275	-45.5	-55.4	338	29	
2025-10-03T00:00	10018	274	-45.7	-55.5	337	29	
2025-10-03T00:00	10050	272	-46.0	-55.2	337	29	
2025-10-03T00:00	10100	271	-46.4	-55.4	337	29	
2025-10-03T00:00	10150	269	-46.9	-55.6	337	29	
2025-10-03T00:00	10200	266	-47.4	-55.8	337	30	
2025-10-03T00:00	10250	264	-47.9	-55.7	337	30	
2025-10-03T00:00	10300	262	-48.4	-55.8	338	29	
2025-10-03T00:00	10350	260	-48.9	-56.4	337	30	
2025-10-03T00:00	10400	258	-49.4	-57.2	336	31	
2025-10-03T00:00	10450	257	-49.8	-56.8	336	31	
2025-10-03T00:00	10500	255	-50.3	-56.8	336	32	
2025-10-03T00:00	10550	253	-50.8	-57.5	334	32	
2025-10-03T00:00	10600	251	-51.3	-57.5	333	32	
2025-10-03T00:00	10650	249	-51.7	-57.7	332	32	
2025-10-03T00:00	10700	247	-52.2	-58.3	333	32	
2025-10-03T00:00	10750	245	-52.6	-59.0	334	33	
2025-10-03T00:00	10800	243	-53.0	-59.3	334	34	
2025-10-03T00:00	10850	241	-53.4	-59.2	335	34	
2025-10-03T00:00	10900	239	-53.8	-59.4	336	34	
2025-10-03T00:00	10950	237	-54.2	-60.0	336	34	
2025-10-03T00:00	11000	236	-54.7	-61.2	336	34	
2025-10-03T00:00	11050	234	-55.1	-61.9	337	34	
2025-10-03T00:00	11100	232	-55.5	-62.2	337	34	
2025-10-03T00:00	11150	230	-55.7	-62.9	337	34	
2025-10-03T00:00	11200	228	-56.0	-63.5	337	34	
2025-10-03T00:00	11250	226	-56.4	-64.2	337	34	
2025-10-03T00:00	11300	225	-56.9	-64.7	338	34	
2025-10-03T00:00	11350	223	-57.3	-65.3	338	35	
2025-10-03T00:00	11400	221	-57.7	-65.8	338	35	
2025-10-03T00:00	11450	219	-58.2	-65.8	337	35	
2025-10-03T00:00	11500	218	-58.7	-65.6	337	35	
2025-10-03T00:00	11550	216	-59.1	-66.1	337	36	
2025-10-03T00:00	11600	214	-59.5	-67.3	337	37	
2025-10-03T00:00	11650	212	-59.9	-68.1	337	38	
2025-10-03T00:00	11700	211	-60.2	-68.5	337	39	
2025-10-03T00:00	11750	209	-60.5	-68.6	337	40	
2025-10-03T00:00	11800	207	-60.9	-68.6	336	41	
2025-10-03T00:00	11850	206	-61.3	-68.6	336	41	
2025-10-03T00:00	11900	204	-61.7	-68.5	335	41	
2025-10-03T00:00	11950	203	-62.1	-68.1	335	42	
2025-10-03T00:00	12000	201	-62.6	-68.4	335	42	
2025-10-03T00:00	12050	199	-62.9	-68.8	335	42	
2025-10-03T00:00	12100	198	-63.2	-69.7	336	41	
2025-10-03T00:00	12150	196	-63.4	-71.2	337	40	
2025-10-03T00:00	12200	194	-63.3	-71.6	337	39	
2025-10-03T00:00	12250	193	-63.5	-71.6	337	38	
2025-10-03T00:00	12300	191	-63.1	-71.5	337	39	
2025-10-03T00:00	12350	190	-62.9	-71.0	337	41	
2025-10-03T00:00	12400	188	-62.9	-70.7	337	42	
2025-10-03T00:00	12450	187	-62.9	-71.1	338	43	
2025-10-03T00:00	12500	185	-63.0	-71.1	339	43	
2025-10-03T00:00	12550	184	-63.4	-70.9	340	43	
2025-10-03T00:00	12600	182	-63.9	-70.9	342	43	
2025-10-03T00:00	12650	181	-63.7	-70.9	343	42	
2025-10-03T00:00	12700	179	-63.7	-71.1	344	41	
2025-10-03T00:00	12750	178	-64.0	-71.6	343	39	
2025-10-03T00:00	12800	176	-64.2	-72.0	342	38	
2025-10-03T00:00	12850	175	-64.6	-72.4	342	36	
2025-10-03T00:00	12900	173	-64.8	-73.1	340	34	
2025-10-03T00:00	12950	172	-64.8	-73.6	339	33	
2025-10-03T00:00	13000	171	-64.8	-74.2	337	31	
2025-10-03T00:00	13050	169	-64.9	-74.6	334	31	
2025-10-03T00:00	13100	168	-65.0	-75.0	330	30	
2025-10-03T00:00	13150	167	-65.1	-75.2	327	30	
2025-10-03T00:00	13200	165	-65.1	-75.3	324	30	
2025-10-03T00:00	13250	164	-65.2	-75.5	321	30	
2025-10-03T00:00	13300	162	-65.0	-75.5	317	31	
2025-10-03T00:00	13350	161	-65.1	-75.7	314	31	
2025-10-03T00:00	13400	160	-65.0	-76.8	314	33	
2025-10-03T00:00	13450	158	-64.1	-79.1	315	33	
2025-10-03T00:00	13500	157	-62.7	-81.2	316	33	
2025-10-03T00:00	13550	156	-62.4	-81.7	315	33	
2025-10-03T00:00	13600	155	-62.6	-81.6	315	34	
2025-10-03T00:00	13650	153	-62.6	-81.6	316	34	
2025-10-03T00:00	13700	152	-61.9	-81.6	318	34	
2025-10-03T00:00	13750	151	-61.6	-81.8	320	34	
2025-10-03T00:00	13800	150	-61.3	-82.1	323	34	
2025-10-03T00:00	13850	149	-60.7	-82.3	326	33	
2025-10-03T00:00	13900	147	-60.1	-82.2	330	31	
2025-10-03T00:00	13950	146	-59.9	-82.3	332	29	
2025-10-03T00:00	14000	145	-59.8	-82.2	333	27	
2025-10-03T00:00	14050	144	-59.7	-82.0	333	26	
2025-10-03T00:00	14100	143	-59.7	-81.7	333	24	
2025-10-03T00:00	14150	142	-59.8	-81.6	334	23	
2025-10-03T00:00	14200	141	-60.0	-81.4	334	22	
2025-10-03T00:00	14250	139	-60.2	-81.1	333	21	
2025-10-03T00:00	14300	138	-60.6	-80.9	333	20	
2025-10-03T00:00	14350	137	-61.0	-80.7	332	18	
2025-10-03T00:00	14400	136	-61.3	-80.5	329	18	
2025-10-03T00:00	14450	135	-61.6	-80.5	325	18	
2025-10-03T00:00	14500	134	-61.9	-80.6	323	18	
2025-10-03T00:00	14550	133	-62.2	-80.8	321	19	
2025-10-03T00:00	14600	132	-62.4	-81.0	317	20	
2025-10-03T00:00	14650	131	-62.5	-81.3	313	21	
2025-10-03T00:00	14700	130	-62.5	-82.0	311	21	
2025-10-03T00:00	14750	129	-61.3	-82.9	313	22	
2025-10-03T00:00	14800	127	-59.5	-83.2	316	22	
2025-10-03T00:00	14850	126	-59.1	-83.3	316	21	
2025-10-03T00:00	14900	126	-59.3	-83.1	316	21	
2025-10-03T00:00	14950	124	-59.8	-83.0	314	21	
2025-10-03T00:00	15000	124	-59.7	-83.0	315	22	
2025-10-03T00:00	15050	123	-59.6	-83.0	317	22	
2025-10-03T00:00	15100	122	-59.4	-83.0	321	22	
2025-10-03T00:00	15150	121	-59.3	-83.1	323	23	
2025-10-03T00:00	15200	120	-59.3	-83.2	323	22	
2025-10-03T00:00	15250	119	-59.1	-83.3	322	20	
2025-10-03T00:00	15300	118	-59.4	-83.5	321	18	
2025-10-03T00:00	15350	117	-59.7	-83.7	319	17	
2025-10-03T00:00	15400	116	-59.5	-83.6	315	16	
2025-10-03T00:00	15450	115	-59.4	-83.6	311	16	
2025-10-03T00:00	15500	114	-59.4	-83.5	309	17	
2025-10-03T00:00	15550	113	-59.4	-83.4	309	18	
2025-10-03T00:00	15600	112	-59.6	-83.4	309	19	
2025-10-03T00:00	15650	111	-59.9	-83.5	309	20	
2025-10-03T00:00	15700	110	-60.0	-83.5	309	21	
2025-10-03T00:00	15750	110	-60.3	-83.5	308	22	
2025-10-03T00:00	15800	109	-60.4	-83.6	308	23	
2025-10-03T00:00	15850	108	-60.4	-83.7	310	23	
2025-10-03T00:00	15900	107	-60.5	-83.8	313	22	
2025-10-03T00:00	15950	106	-60.5	-83.9	316	22	
2025-10-03T00:00	16000	105	-60.2	-83.9	319	22	
2025-10-03T00:00	16050	104	-60.0	-83.9	322	22	
2025-10-03T00:00	16100	104	-60.3	-84.0	325	21	
2025-10-03T00:00	16150	103	-60.3	-84.1	328	20	
2025-10-03T00:00	16200	102	-59.9	-83.9	330	19	
2025-10-03T00:00	16250	101	-59.9	-84.0	329	17	
2025-10-03T00:00	16300	100	-60.2	-84.1	328	15	
2025-10-03T00:00	16350	99	-60.5	-84.2	327	13	
2025-10-03T00:00	16400	99	-60.6	-84.2	325	12	
2025-10-03T00:00	16450	98	-60.8	-84.3	320	11	
2025-10-03T00:00	16500	97	-61.0	-84.4	313	11	
2025-10-03T00:00	16550	96	-61.0	-84.6	308	12	
2025-10-03T00:00	16600	96	-60.5	-84.7	308	13	
2025-10-03T00:00	16650	95	-60.3	-84.7	308	13	
2025-10-03T00:00	16700	94	-60.3	-84.9	307	13	
2025-10-03T00:00	16750	93	-59.9	-84.7	305	14	
2025-10-03T00:00	16800	93	-60.0	-84.7	304	15	
2025-10-03T00:00	16850	92	-60.1	-84.8	305	16	
2025-10-03T00:00	16900	91	-60.3	-84.9	308	16	
2025-10-03T00:00	16950	90	-60.1	-84.8	312	17	
2025-10-03T00:00	17000	90	-60.1	-84.9	317	17	
2025-10-03T00:00	17050	89	-59.8	-85.0	321	17	
2025-10-03T00:00	17100	88	-59.6	-85.0	324	16	
2025-10-03T00:00	17150	87	-59.6	-85.0	328	15	
2025-10-03T00:00	17200	87	-59.7	-85.0	332	15	
2025-10-03T00:00	17250	86	-59.7	-85.2	335	14	
2025-10-03T00:00	17300	85	-59.3	-85.1	336	12	
2025-10-03T00:00	17350	85	-59.2	-85.0	337	10	
2025-10-03T00:00	17400	84	-59.6	-85.1	338	9	
2025-10-03T00:00	17450	83	-59.9	-85.1	334	8	
2025-10-03T00:00	17500	83	-60.1	-85.2	328	8	
2025-10-03T00:00	17550	82	-60.3	-85.3	321	8	
2025-10-03T00:00	17600	81	-60.4	-85.3	317	9	
2025-10-03T00:00	17650	81	-60.7	-85.4	316	10	
2025-10-03T00:00	17700	80	-60.8	-85.5	316	11	
2025-10-03T00:00	17750	79	-61.1	-85.7	313	11	
2025-10-03T00:00	17800	79	-61.2	-85.8	311	11	
2025-10-03T00:00	17850	78	-60.7	-85.7	312	11	
2025-10-03T00:00	17900	78	-60.5	-85.7	316	11	
2025-10-03T00:00	17950	77	-60.5	-85.8	320	11	
2025-10-03T00:00	18000	76	-60.3	-85.7	323	10	
2025-10-03T00:00	18050	76	-60.3	-85.6	320	9	
2025-10-03T00:00	18100	75	-60.5	-85.7	316	9	
2025-10-03T00:00	18150	75	-60.6	-85.6	314	9	
2025-10-03T00:00	18200	74	-60.7	-85.8	314	9	
2025-10-03T00:00	18250	73	-60.8	-85.9	315	10	
2025-10-03T00:00	18300	73	-60.5	-85.9	319	10	
2025-10-03T00:00	18350	72	-60.1	-85.8	326	10	
2025-10-03T00:00	18400	72	-60.1	-85.8	330	10	
2025-10-03T00:00	18450	71	-60.3	-85.9	331	10	
2025-10-03T00:00	18500	70	-60.3	-85.9	330	9	
2025-10-03T00:00	18550	70	-60.3	-85.9	325	7	
2025-10-03T00:00	18600	69	-60.4	-86.0	312	6	
2025-10-03T00:00	18650	69	-60.1	-85.9	298	6	
2025-10-03T00:00	18700	68	-59.8	-85.8	293	7	
2025-10-03T00:00	18750	68	-59.9	-85.9	298	8	
2025-10-03T00:00	18800	67	-59.8	-85.8	306	9	
2025-10-03T00:00	18850	67	-59.7	-85.8	315	9	
2025-10-03T00:00	18900	66	-59.7	-85.9	322	10	
2025-10-03T00:00	18950	66	-59.3	-85.9	327	10	
2025-10-03T00:00	19000	65	-58.6	-85.6	333	9	
2025-10-03T00:00	19050	65	-58.5	-85.5	338	8	
2025-10-03T00:00	19100	64	-58.6	-85.4	339	7	
2025-10-03T00:00	19150	63	-58.7	-85.4	331	7	
2025-10-03T00:00	19200	63	-58.7	-85.4	320	7	
2025-10-03T00:00	19250	62	-59.0	-85.5	310	8	
2025-10-03T00:00	19300	62	-59.0	-85.6	302	9	
2025-10-03T00:00	19350	61	-59.0	-85.6	295	11	
2025-10-03T00:00	19400	61	-59.1	-85.7	294	12	
2025-10-03T00:00	19450	61	-58.7	-85.7	297	12	
2025-10-03T00:00	19500	60	-58.0	-85.6	302	11	
2025-10-03T00:00	19550	60	-57.6	-85.4	306	9	
2025-10-03T00:00	19600	59	-57.3	-85.3	310	7	
2025-10-03T00:00	19650	59	-57.0	-84.9	314	6	
2025-10-03T00:00	19700	58	-57.0	-84.7	315	6	
2025-10-03T00:00	19750	58	-57.4	-84.8	312	5	
2025-10-03T00:00	19800	57	-57.7	-84.8	302	5	
2025-10-03T00:00	19850	57	-58.0	-84.9	290	5	
2025-10-03T00:00	19900	56	-58.3	-85.1	287	5	
2025-10-03T00:00	19950	56	-58.5	-85.2	293	5	
2025-10-03T00:00	20000	55	-58.6	-85.3	302	7	
2025-10-03T00:00	20050	55	-58.7		306	8	
2025-10-03T00:00	20100	55	-58.8		308	10	
2025-10-03T00:00	20150	54	-58.9		308	11	
2025-10-03T00:00	20200	54	-59.2		310	11	
2025-10-03T00:00	20250	53	-59.2		313	11	
2025-10-03T00:00	20300	53	-58.8		318	11	
2025-10-03T00:00	20350	52	-58.8		322	11	
2025-10-03T00:00	20400	52	-58.7		325	10	
2025-10-03T00:00	20450	52	-58.8		329	9	
2025-10-03T00:00	20500	51	-58.9		332	9	
2025-10-03T00:00	20550	51	-59.1		333	9	
2025-10-03T00:00	20600	50	-59.2		329	8	
2025-10-03T00:00	20650	50	-59.3		322	8	
2025-10-03T00:00	20700	50	-59.2		317	7	
2025-10-03T00:00	20750	49	-59.1		319	7	
2025-10-03T00:00	20800	49	-58.9		322	8	
2025-10-03T00:00	20850	48	-58.7		324	8	
2025-10-03T00:00	20900	48	-58.7		323	7	
2025-10-03T00:00	20950	48	-58.5		317	6	
2025-10-03T00:00	21000	47	-58.4		308	5	
2025-10-03T00:00	21050	47	-58.5		299	4	
2025-10-03T00:00	21100	47	-58.3		293	4	
2025-10-03T00:00	21150	46	-58.5		294	5	
2025-10-03T00:00	21200	46	-58.7		299	7	
2025-10-03T00:00	21250	45	-58.4		306	7	
2025-10-03T00:00	21300	45	-57.9		311	7	
2025-10-03T00:00	21350	45	-58.1		308	6	
2025-10-03T00:00	21400	44	-57.6		301	5	
2025-10-03T00:00	21450	44	-57.5		301	5	
2025-10-03T00:00	21500	44	-57.9		304	5	
2025-10-03T00:00	21550	43	-58.2		302	5	
2025-10-03T00:00	21600	43	-58.3		295	5	
2025-10-03T00:00	21650	43	-58.3		287	5	
2025-10-03T00:00	21700	42	-58.3		277	5	
2025-10-03T00:00	21750	42	-58.3		265	5	
2025-10-03T00:00	21800	42	-58.1		255	5	
2025-10-03T00:00	21850	41	-57.8		252	6	
2025-10-03T00:00	21900	41	-57.8		256	6	
2025-10-03T00:00	21950	41	-58.1		266	7	
2025-10-03T00:00	22000	40	-58.0		276	8	
2025-10-03T00:00	22050	40	-58.0		284	9	
2025-10-03T00:00	22100	40	-58.2		291	9	
2025-10-03T00:00	22150	39	-58.2		295	9	
2025-10-03T00:00	22200	39	-57.9		298	9	
2025-10-03T00:00	22250	39	-57.9		301	9	
2025-10-03T00:00	22300	38	-57.8		302	9	
2025-10-03T00:00	22350	38	-57.6		303	8	
2025-10-03T00:00	22400	38	-57.3		300	7	
2025-10-03T00:00	22450	38	-57.3		295	7	
2025-10-03T00:00	22500	37	-57.1		288	7	
2025-10-03T00:00	22550	37	-57.1		283	8	
2025-10-03T00:00	22600	37	-57.4		284	8	
2025-10-03T00:00	22650	36	-57.6		289	8	
2025-10-03T00:00	22700	36	-57.8		290	8	
2025-10-03T00:00	22750	36	-57.7		283	8	
2025-10-03T00:00	22800	36	-57.8		274	7	
2025-10-03T00:00	22850	35	-57.6		269	8	
2025-10-03T00:00	22900	35	-57.4		270	9	
2025-10-03T00:00	22950	35	-57.3		274	9	
2025-10-03T00:00	23000	34	-57.1		277	8	
2025-10-03T00:00	23050	34	-57.2		275	7	
2025-10-03T00:00	23100	34	-56.9		270	7	
2025-10-03T00:00	23150	34	-56.0		266	8	
2025-10-03T00:00	23200	33	-56.1		268	8	
2025-10-03T00:00	23250	33	-56.3		272	9	
2025-10-03T00:00	23300	33	-56.4		274	9	
2025-10-03T00:00	23350	33	-56.3		276	8	
2025-10-03T00:00	23400	32	-56.3		280	7	
2025-10-03T00:00	23450	32	-56.4		283	7	
2025-10-03T00:00	23500	32	-56.4		284	7	
2025-10-03T00:00	23550	32	-56.2		284	8	
2025-10-03T00:00	23600	31	-56.4		284	8	
2025-10-03T00:00	23650	31	-56.8		282	8	
2025-10-03T00:00	23700	31	-56.7		277	8	
2025-10-03T00:00	23750	31	-56.6		269	7	
2025-10-03T00:00	23800	30	-56.3		260	7	
2025-10-03T00:00	23850	30	-56.4		255	7	
2025-10-03T00:00	23900	30	-56.4		253	8	
2025-10-03T00:00	23950	30	-56.1		254	8	
2025-10-03T00:00	24000	29	-55.8		258	8	
2025-10-03T00:00	24050	29	-55.7		263	9	
2025-10-03T00:00	24100	29	-55.9		268	10	
2025-10-03T00:00	24150	29	-56.2		272	11	
2025-10-03T00:00	24200	29	-56.3		277	11	
2025-10-03T00:00	24250	28	-56.3		283	11	
2025-10-03T00:00	24300	28	-56.4		287	11	
2025-10-03T00:00	24350	28	-56.4		289	10	
2025-10-03T00:00	24400	28	-56.1		289	8	
2025-10-03T00:00	24450	27	-56.1		287	7	
2025-10-03T00:00	24500	27	-55.7		281	6	
2025-10-03T00:00	24550	27	-55.8		271	5	
2025-10-03T00:00	24600	27	-56.1		261	5	
2025-10-03T00:00	24650	27	-56.3		258	6	
2025-10-03T00:00	24700	26	-56.5		266	7	
2025-10-03T00:00	24750	26	-56.0		277	9	
2025-10-03T00:00	24800	26	-55.7		286	11	
2025-10-03T00:00	24850	26	-55.5		289	12	
2025-10-03T00:00	24900	26	-55.3		290	12	
2025-10-03T00:00	24950	25	-54.9		293	12	
2025-10-03T00:00	25000	25	-54.8		297	11	
2025-10-03T00:00	25050	25	-55.1		302	10	
2025-10-03T00:00	25100	25	-55.2		308	8	
2025-10-03T00:00	25150	25	-54.9		315	8	
2025-10-03T00:00	25200	24	-54.9		319	9	
2025-10-03T00:00	25250	24	-54.6		322	8	
2025-10-03T00:00	25300	24	-54.1		325	7	
2025-10-03T00:00	25350	24	-53.8		329	5	
2025-10-03T00:00	25400	24	-53.9		331	3	
2025-10-03T00:00	25450	23	-54.0		327	1	
2025-10-03T00:00	25500	23	-54.1		173	0	
2025-10-03T00:00	25550	23	-54.3		148	1	
2025-10-03T00:00	25600	23	-54.5		151	2	
2025-10-03T00:00	25650	23	-54.8		159	3	
2025-10-03T00:00	25700	23	-55.0		172	3	
2025-10-03T00:00	25750	22	-55.2		190	3	
2025-10-03T00:00	25800	22	-55.3		206	4	
2025-10-03T00:00	25850	22	-55.4		215	5	
2025-10-03T00:00	25900	22	-55.7		218	5	
2025-10-03T00:00	25950	22	-56.0		219	6	
2025-10-03T00:00	26000	21	-56.3		220	7	
2025-10-03T00:00	26050	21	-56.4		226	8	
2025-10-03T00:00	26100	21	-56.3		236	8	
2025-10-03T00:00	26150	21	-56.1		246	9	
2025-10-03T00:00	26200	21	-55.6		255	10	
2025-10-03T00:00	26250	21	-55.4		262	11	
2025-10-03T00:00	26300	20	-55.6		265	11	
2025-10-03T00:00	26350	20	-55.8		263	10	
2025-10-03T00:00	26400	20	-55.0		257	10	
2025-10-03T00:00	26450	20	-55.0		253	11	
2025-10-03T00:00	26500	20	-55.3		255	11	
2025-10-03T00:00	26550	20	-55.6		258	11	
2025-10-03T00:00	26600	20	-55.7		260	10	
2025-10-03T00:00	26650	19	-56.0		259	9	
2025-10-03T00:00	26700	19	-55.9		257	8	
2025-10-03T00:00	26750	19	-55.9		254	8	
2025-10-03T00:00	26800	19	-55.2		255	8	
2025-10-03T00:00	26850	19	-54.9		257	8	
2025-10-03T00:00	26900	19	-54.9		255	8	
2025-10-03T00:00	26950	19	-54.5		250	8	
2025-10-03T00:00	27000	18	-54.3		243	8	
2025-10-03T00:00	27050	18	-54.4		239	9	
2025-10-03T00:00	27100	18	-54.7		236	9	
2025-10-03T00:00	27150	18	-54.5		234	10	
2025-10-03T00:00	27200	18	-54.3		233	10	
2025-10-03T00:00	27250	18	-54.2		233	10	
2025-10-03T00:00	27300	18	-53.6		235	10	
2025-10-03T00:00	27350	17	-53.6		237	10	
2025-10-03T00:00	27400	17	-53.9		238	9	
2025-10-03T00:00	27450	17	-54.1		237	8	
2025-10-03T00:00	27500	17	-53.7		235	8	
2025-10-03T00:00	27550	17	-53.4		235	8	
2025-10-03T00:00	27600	17	-53.3		236	8	
2025-10-03T00:00	27650	17	-53.4		234	8	
2025-10-03T00:00	27700	16	-53.5		228	9	
2025-10-03T00:00	27750	16	-53.7		224	10	
2025-10-03T00:00	27800	16	-53.8		223	11	
2025-10-03T00:00	27850	16	-53.9		226	11	
2025-10-03T00:00	27900	16	-54.1		230	12	
2025-10-03T00:00	27950	16	-54.4		233	13	
2025-10-03T00:00	28000	16	-54.3		233	13	
2025-10-03T00:00	28050	16	-53.9		231	14	
2025-10-03T00:00	28100	15	-53.9		232	14	
2025-10-03T00:00	28150	15	-53.3		235	13	
2025-10-03T00:00	28200	15	-53.1		238	13	
2025-10-03T00:00	28250	15	-53.3		238	12	
2025-10-03T00:00	28300	15	-53.1		236	12	
2025-10-03T00:00	28350	15	-52.9		235	12	
2025-10-03T00:00	28400	15	-52.8		236	12	
2025-10-03T00:00	28450	15	-53.0		237	12	
2025-10-03T00:00	28500	15	-53.3		237	13	
2025-10-03T00:00	28550	14	-53.7		236	13	
2025-10-03T00:00	28600	14	-54.1		237	13	
2025-10-03T00:00	28650	14	-54.4		240	13	
2025-10-03T00:00	28700	14	-54.7		246	12	
2025-10-03T00:00	28750	14	-54.8		254	12	
2025-10-03T00:00	28800	14	-54.5		257	13	
2025-10-03T00:00	28850	14	-54.5		257	14	
2025-10-03T00:00	28900	14	-54.7		255	15	
2025-10-03T00:00	28950	14	-54.8		253	16	
2025-10-03T00:00	29000	13	-55.0		254	16	
2025-10-03T00:00	29050	13	-55.1		257	16	
2025-10-03T00:00	29100	13	-54.9		259	15	
2025-10-03T00:00	29150	13	-54.9		261	14	
2025-10-03T00:00	29200	13	-55.2		261	13	
2025-10-03T00:00	29250	13	-55.5		261	13	
2025-10-03T00:00	29300	13	-55.4		261	14	
2025-10-03T00:00	29350	13	-55.4		262	14	
2025-10-03T00:00	29400	13	-55.0		262	14	
2025-10-03T00:00	29450	13	-54.1		261	13	
2025-10-03T00:00	29500	12	-54.1		259	12	
2025-10-03T00:00	29550	12	-54.2		257	12	
2025-10-03T00:00	29600	12	-53.9		258	12	
2025-10-03T00:00	29650	12	-53.9		260	14	
2025-10-03T00:00	29700	12	-53.3		262	15	
2025-10-03T00:00	29750	12	-52.4		266	16	
2025-10-03T00:00	29800	12	-51.8		269	16	
2025-10-03T00:00	29850	12	-51.5		273	16	
2025-10-03T00:00	29900	12	-51.8		275	16	
2025-10-03T00:00	29950	12	-52.2		275	16	
2025-10-03T00:00	30000	12	-52.0		272	16	
2025-10-03T00:00	30050	11	-52.1		270	15	
2025-10-03T00:00	30100	11	-52.2		268	15	
2025-10-03T00:00	30150	11	-52.0		268	15	
2025-10-03T00:00	30200	11	-51.7		269	16	
2025-10-03T00:00	30250	11	-51.3		270	16	
2025-10-03T00:00	30300	11	-51.0		270	16	
2025-10-03T00:00	30350	11	-50.9		271	16	
2025-10-03T00:00	30400	11	-50.6		274	15	
2025-10-03T00:00	30450	11	-50.4		278	14	
2025-10-03T00:00	30500	11	-50.7		283	14	
2025-10-03T00:00	30550	11	-50.3		285	14	
2025-10-03T00:00	30600	10	-49.8		287	14	
2025-10-03T00:00	30650	10	-49.7		285	13	
2025-10-03T00:00	30700	10	-49.5		280	12	
2025-10-03T00:00	30750	10	-49.4		274	13	
2025-10-03T00:00	30800	10	-48.6		271	14	
2025-10-03T00:00	30850	10	-48.4		270	15	
2025-10-03T00:00	30900	10	-48.3		271	16	
2025-10-03T00:00	30950	10	-48.3		272	17	
2025-10-03T00:00	31000	10	-48.4		274	18	
2025-10-03T00:00	31050	10	-48.1		274	19	
2025-10-03T00:00	31100	10	-47.5		273	20	
2025-10-03T00:00	31150	10	-46.9		272	21	
2025-10-03T00:00	31200	10	-46.5		273	21	
2025-10-03T00:00	31250	10	-46.6		274	21	
2025-10-03T00:00	31300	9	-46.6		277	21	
2025-10-03T00:00	31350	9	-46.3		279	22	
2025-10-03T00:00	31400	9	-46.1		280	23	
2025-10-03T00:00	31450	9	-45.9		282	24	
2025-10-03T00:00	31500	9	-45.7		283	25	
2025-10-03T00:00	31550	9	-45.7		285	25	
2025-10-03T00:00	31600	9	-45.6		287	25	
2025-10-03T00:00	31650	9	-45.3		287	24	
2025-10-03T00:00	31700	9	-45.3		288	23	
2025-10-03T00:00	31750	9	-45.3		289	23	
2025-10-03T00:00	31800	9	-45.6		290	24	
2025-10-03T00:00	31850	9	-45.4		292	25	
2025-10-03T00:00	31900	9	-44.9		293	26	
2025-10-03T00:00	31950	9	-43.6		294	26	
2025-10-03T00:00	32000	8	-43.2		295	25	
2025-10-03T00:00	32050	8	-43.4		297	24	
2025-10-03T00:00	32100	8	-43.7		299	22	
2025-10-03T00:00	32150	8	-43.6		298	21	
2025-10-03T00:00	32200	8	-43.3		297	20	
2025-10-03T00:00	32250	8	-43.0		297	19	
2025-10-03T00:00	32300	8	-42.8		300	20	
2025-10-03T00:00	32350	8	-42.8		304	21	
2025-10-03T00:00	32400	8	-42.7		306	22	
2025-10-03T00:00	32450	8	-42.9		308	22	
2025-10-03T00:00	32500	8	-42.4		309	21	
2025-10-03T00:00	32550	8	-42.1		310	19	
2025-10-03T00:00	32600	8	-41.9		312	18	
2025-10-03T00:00	32650	8	-41.8		314	19	
2025-10-03T00:00	32700	8	-41.0		313	20	
2025-10-03T00:00	32750	8	-40.8		312	21	
2025-10-03T00:00	32800	8	-40.7		310	20	
2025-10-03T00:00	32850	7	-40.0		307	19	
2025-10-03T00:00	32900	7	-39.8		304	18	
2025-10-03T00:00	32950	7	-39.7		299	17	
2025-10-03T00:00	33000	7	-39.1		294	16	
2025-10-03T00:00	33050	7	-39.2		290	16	
2025-10-03T00:00	33100	7	-39.1		289	16	
2025-10-03T00:00	33150	7	-39.1		290	16	
2025-10-03T00:00	33200	7	-38.5		293	16	
2025-10-03T00:00	33250	7	-37.6		296	16	
2025-10-03T00:00	33300	7	-37.0		298	17	
2025-10-03T00:00	33350	7	-36.7		300	17	
2025-10-03T00:00	33400	7	-36.8		302	18	
2025-10-03T00:00	33450	7	-36.9		303	19	
2025-10-03T00:00	33500	7	-36.8		302	19	
2025-10-03T00:00	33550	7	-36.9		302	19	
2025-10-03T12:00	491	965	9.9	6.4	65	1	1.8
2025-10-03T12:00	501	964	9.7	6.4	68	1	1.8
2025-10-03T12:00	520	962	9.7	6.5	82	1	1.8
2025-10-03T12:00	540	959	9.4	6.0	88	1	1.8
2025-10-03T12:00	560	957	9.1	6.1	88	1	1.9
2025-10-03T12:00	580	955	8.9	6.0	84	1	1.9
2025-10-03T12:00	600	952	8.7	6.0	78	0	1.9
2025-10-03T12:00	620	950	8.5	6.1	77	0	1.9
2025-10-03T12:00	640	948	8.4	6.0	101	0	1.9
2025-10-03T12:00	660	946	8.1	5.9	202	0	1.9
2025-10-03T12:00	680	943	7.9	5.9	218	0	1.9
2025-10-03T12:00	700	941	7.8	5.9	222	1	1.9
2025-10-03T12:00	720	939	7.7	5.9	224	1	1.9
2025-10-03T12:00	740	937	7.4	5.8	228	1	1.8
2025-10-03T12:00	760	935	7.2	5.7	229	2	1.9
2025-10-03T12:00	780	932	7.1	5.8	228	2	1.8
2025-10-03T12:00	800	930	7.2	6.1	226	2	1.8
2025-10-03T12:00	820	927	7.2	6.1	223	3	1.8
2025-10-03T12:00	840	925	7.2	6.0	220	3	1.8
2025-10-03T12:00	860	923	7.1	6.0	217	3	1.9
2025-10-03T12:00	880	921	7.1	6.1	214	4	1.9
2025-10-03T12:00	900	918	7.0	6.0	212	4	1.9
2025-10-03T12:00	920	916	6.9	5.9	210	4	1.9
2025-10-03T12:00	940	914	6.8	5.9	210	4	1.9
2025-10-03T12:00	960	912	6.7	5.8	210	5	1.9
2025-10-03T12:00	980	910	6.7	5.6	212	5	2.0
2025-10-03T12:00	1000	907	6.7	5.2	214	5	2.0
2025-10-03T12:00	1020	905	7.0	4.4	216	6	2.0
2025-10-03T12:00	1040	903	7.3	3.6	219	6	2.2
2025-10-03T12:00	1060	901	8.1	2.9	221	6	2.3
2025-10-03T12:00	1080	899	8.6	2.4	223	7	2.5
2025-10-03T12:00	1100	897	8.8	2.3	224	7	2.7
2025-10-03T12:00	1120	894	8.7	2.2	225	7	2.8
2025-10-03T12:00	1140	892	8.6	1.9	225	7	2.9
2025-10-03T12:00	1160	890	8.7	1.7	225	7	3.0
2025-10-03T12:00	1180	888	8.7	1.3	225	7	3.1
2025-10-03T12:00	1200	886	8.7	0.8	225	7	3.2
2025-10-03T12:00	1220	884	8.8	1.0	224	7	3.3
2025-10-03T12:00	1240	882	8.7	1.0	224	7	3.3
2025-10-03T12:00	1260	880	8.7	0.8	224	7	3.3
2025-10-03T12:00	1280	877	8.7	-0.9	224	7	3.4
2025-10-03T12:00	1300	875	9.1	-7.8	224	7	3.5
2025-10-03T12:00	1320	873	9.4	-14.8	224	7	3.5
2025-10-03T12:00	1340	871	9.5	-17.4	224	6	3.6
2025-10-03T12:00	1360	869	9.5	-21.2	223	6	3.8
2025-10-03T12:00	1380	867	9.5	-23.1	222	6	3.9
2025-10-03T12:00	1400	865	9.4	-23.1	221	6	4.0
2025-10-03T12:00	1420	863	9.3	-23.8	220	6	4.1
2025-10-03T12:00	1440	860	9.3	-24.6	217	5	4.1
2025-10-03T12:00	1460	858	9.2	-25.5	215	5	4.2
2025-10-03T12:00	1480	856	9.2	-26.2	213	5	4.3
2025-10-03T12:00	1500	854	9.1	-27.0	211	4	4.4
2025-10-03T12:00	1520	852	9.0	-27.5	210	4	4.4
2025-10-03T12:00	1540	850	8.9	-27.6	211	4	4.5
2025-10-03T12:00	1560	848	8.8	-27.7	211	4	4.6
2025-10-03T12:00	1580	846	8.7	-28.0	211	4	4.6
2025-10-03T12:00	1600	844	8.6	-28.4	211	4	4.6
2025-10-03T12:00	1620	842	8.5	-28.5	209	4	4.6
2025-10-03T12:00	1640	840	8.4	-28.8	207	4	4.6
2025-10-03T12:00	1660	838	8.3	-29.1	205	4	4.6
2025-10-03T12:00	1680	836	8.2	-29.2	202	4	4.6
2025-10-03T12:00	1700	834	8.1	-29.3	200	4	4.6
2025-10-03T12:00	1720	832	7.9	-27.8	198	4	4.7
2025-10-03T12:00	1740	830	7.8	-22.9	195	4	4.7
2025-10-03T12:00	1760	828	7.7	-19.9	192	3	4.7
2025-10-03T12:00	1780	826	7.5	-19.2	188	3	4.7
2025-10-03T12:00	1800	824	7.3	-18.8	183	3	4.7
2025-10-03T12:00	1820	822	7.1	-18.3	179	2	4.7
2025-10-03T12:00	1840	820	6.9	-17.1	176	2	4.7
2025-10-03T12:00	1860	818	6.8	-17.6	176	2	4.7
2025-10-03T12:00	1880	816	6.9	-19.5	181	2	4.7
2025-10-03T12:00	1900	814	6.9	-18.9	190	2	4.6
2025-10-03T12:00	1920	812	6.8	-18.1	201	2	4.6
2025-10-03T12:00	1940	810	6.6	-17.3	214	2	4.6
2025-10-03T12:00	1960	808	6.4	-16.0	230	2	4.6
2025-10-03T12:00	1980	806	6.3	-17.2	242	2	4.6
2025-10-03T12:00	2000	804	6.3	-20.2	250	2	4.6
2025-10-03T12:00	2020	802	6.2	-26.4	254	2	4.6
2025-10-03T12:00	2040	800	6.0	-30.0	257	3	4.6
2025-10-03T12:00	2060	798	5.9	-35.1	259	3	4.7
2025-10-03T12:00	2080	796	5.7	-36.6	261	3	4.8
2025-10-03T12:00	2100	794	5.6	-38.2	263	3	4.9
2025-10-03T12:00	2120	792	5.4	-38.5	267	3	4.9
2025-10-03T12:00	2140	790	5.4	-39.1	271	4	4.8
2025-10-03T12:00	2160	788	5.3	-38.4	275	4	4.8
2025-10-03T12:00	2180	786	5.3	-35.4	280	4	4.8
2025-10-03T12:00	2200	784	5.2	-34.2	286	4	4.8
2025-10-03T12:00	2220	782	5.0	-27.0	292	4	4.8
2025-10-03T12:00	2240	780	4.8	-26.7	297	4	4.8
2025-10-03T12:00	2260	779	4.7	-17.2	300	4	4.8
2025-10-03T12:00	2280	777	4.5	-17.5	303	4	4.7
2025-10-03T12:00	2300	775	4.3	-17.8	304	5	4.6
2025-10-03T12:00	2320	773	4.1	-17.1	304	5	4.6
2025-10-03T12:00	2340	771	3.9	-14.0	304	5	4.6
2025-10-03T12:00	2360	769	3.7	-13.2	304	5	4.6
2025-10-03T12:00	2380	767	3.5	-10.5	303	4	4.5
2025-10-03T12:00	2400	766	3.3	-12.2	302	4	4.5
2025-10-03T12:00	2420	763	3.1	-11.3	301	4	4.5
2025-10-03T12:00	2440	761	2.9	-8.2	300	4	4.4
2025-10-03T12:00	2460	760	2.7	-7.7	300	4	4.4
2025-10-03T12:00	2480	758	2.5	-8.3	299	4	4.4
2025-10-03T12:00	2500	756	2.3	-8.7	298	4	4.4
2025-10-03T12:00	2520	754	2.1	-9.6	298	4	4.5
2025-10-03T12:00	2540	752	2.0	-9.3	297	5	4.4
2025-10-03T12:00	2560	750	1.8	-8.4	297	5	4.3
2025-10-03T12:00	2580	748	1.6	-9.1	297	5	4.2
2025-10-03T12:00	2600	747	1.4	-9.2	297	5	4.1
2025-10-03T12:00	2620	745	1.2	-9.0	298	5	4.1
2025-10-03T12:00	2640	743	1.0	-8.6	298	5	4.0
2025-10-03T12:00	2660	741	0.8	-8.0	299	5	4.0
2025-10-03T12:00	2680	739	0.5	-7.4	300	5	4.0
2025-10-03T12:00	2700	737	0.3	-6.4	301	5	4.0
2025-10-03T12:00	2720	736	0.1	-6.3	302	5	4.0
2025-10-03T12:00	2740	734	-0.1	-6.7	303	5	4.0
2025-10-03T12:00	2760	732	-0.2	-7.3	306	5	4.0
2025-10-03T12:00	2780	730	-0.5	-5.7	308	5	4.0
2025-10-03T12:00	2800	728	-0.7	-6.0	312	5	4.0
2025-10-03T12:00	2820	726	-0.9	-5.6	315	5	4.0
2025-10-03T12:00	2840	725	-1.1	-5.3	318	5	4.0
2025-10-03T12:00	2860	723	-1.3	-5.4	320	5	3.9
2025-10-03T12:00	2880	721	-1.4	-5.6	321	6	3.9
2025-10-03T12:00	2900	719	-1.6	-5.8	321	6	3.8
2025-10-03T12:00	2920	717	-1.8	-5.8	320	6	3.8
2025-10-03T12:00	2940	716	-1.9	-5.7	318	6	3.8
2025-10-03T12:00	2960	714	-2.1	-5.5	315	6	3.8
2025-10-03T12:00	2980	712	-2.3	-5.4	313	6	3.8
2025-10-03T12:00	3000	710	-2.5	-5.1	311	6	3.7
2025-10-03T12:00	3020	709	-2.7	-4.9	310	6	3.7
2025-10-03T12:00	3040	707	-2.7	-4.6	309	6	3.7
2025-10-03T12:00	3060	705	-2.8	-4.4	308	6	3.7
2025-10-03T12:00	3080	703	-3.0	-4.3	308	6	3.6
2025-10-03T12:00	3100	701	-3.2	-4.2	308	6	3.6
2025-10-03T12:00	3120	700	-3.3	-4.2	308	6	3.6
2025-10-03T12:00	3140	698	-3.4	-3.9	307	7	3.6
2025-10-03T12:00	3160	696	-3.5	-3.9	306	7	3.6
2025-10-03T12:00	3180	694	-3.6	-3.9	304	7	3.6
2025-10-03T12:00	3200	692	-3.7	-3.9	303	7	3.5
2025-10-03T12:00	3220	691	-3.8	-3.9	301	7	3.5
2025-10-03T12:00	3240	689	-3.9	-3.9	300	7	3.5
2025-10-03T12:00	3260	687	-4.0	-4.0	299	7	3.5
2025-10-03T12:00	3280	686	-4.1	-4.1	298	7	3.5
2025-10-03T12:00	3300	684	-4.2	-4.3	299	7	3.5
2025-10-03T12:00	3320	682	-4.3	-4.4	300	7	3.6
2025-10-03T12:00	3340	680	-4.4	-4.5	301	7	3.6
2025-10-03T12:00	3360	679	-4.4	-4.5	305	7	3.5
2025-10-03T12:00	3380	677	-4.5	-4.5	310	7	3.5
2025-10-03T12:00	3400	675	-4.5	-4.6	315	8	3.4
2025-10-03T12:00	3420	673	-4.4	-4.6	320	8	3.4
2025-10-03T12:00	3440	672	-4.4	-4.6	323	8	3.4
2025-10-03T12:00	3460	670	-4.3	-4.6	326	9	3.4
2025-10-03T12:00	3480	668	-4.3	-4.6	328	9	3.4
2025-10-03T12:00	3500	667	-4.3	-4.5	328	9	3.4
2025-10-03T12:00	3520	665	-4.3	-4.6	328	9	3.4
2025-10-03T12:00	3540	663	-4.3	-4.6	328	9	3.4
2025-10-03T12:00	3560	662	-4.3	-4.7	329	9	3.4
2025-10-03T12:00	3580	660	-4.3	-4.8	329	9	3.4
2025-10-03T12:00	3600	658	-4.3	-4.8	330	10	3.4
2025-10-03T12:00	3620	656	-4.4	-4.9	331	10	3.4
2025-10-03T12:00	3640	655	-4.3	-4.9	333	10	3.4
2025-10-03T12:00	3660	653	-4.3	-4.9	334	11	3.3
2025-10-03T12:00	3680	652	-4.3	-4.9	335	11	3.3
2025-10-03T12:00	3700	650	-4.4	-5.0	336	11	3.3
2025-10-03T12:00	3720	648	-4.5	-5.1	336	11	3.3
2025-10-03T12:00	3740	647	-4.5	-5.3	336	12	3.3
2025-10-03T12:00	3760	645	-4.5	-5.2	336	12	3.3
2025-10-03T12:00	3780	643	-4.5	-5.3	336	12	3.3
2025-10-03T12:00	3800	642	-4.5	-5.3	336	12	3.3
2025-10-03T12:00	3820	640	-4.6	-5.5	336	12	3.3
2025-10-03T12:00	3840	639	-4.7	-5.6	337	12	3.2
2025-10-03T12:00	3860	637	-4.7	-5.7	338	12	3.2
2025-10-03T12:00	3880	635	-4.8	-5.8	339	12	3.2
2025-10-03T12:00	3900	634	-4.8	-5.9	341	12	3.2
2025-10-03T12:00	3920	632	-4.9	-6.2	341	12	3.2
2025-10-03T12:00	3940	630	-4.9	-6.5	342	12	3.2
2025-10-03T12:00	3960	629	-5.0	-6.6	342	11	3.2
2025-10-03T12:00	3980	627	-5.1	-6.7	342	11	3.2
2025-10-03T12:00	4000	626	-5.1	-6.8	342	11	3.2
2025-10-03T12:00	4020	624	-5.2	-7.0	342	10	3.2
2025-10-03T12:00	4040	622	-5.3	-7.0	342	10	3.2
2025-10-03T12:00	4060	621	-5.5	-7.1	342	10	3.2
2025-10-03T12:00	4080	619	-5.6	-7.2	342	10	3.2
2025-10-03T12:00	4100	618	-5.8	-7.4	343	10	3.1
2025-10-03T12:00	4120	616	-6.0	-7.6	343	10	3.1
2025-10-03T12:00	4140	615	-6.0	-7.6	343	10	3.1
2025-10-03T12:00	4160	613	-6.2	-7.7	343	11	3.2
2025-10-03T12:00	4180	611	-6.3	-7.9	344	11	3.1
2025-10-03T12:00	4200	610	-6.4	-8.1	344	12	3.1
2025-10-03T12:00	4220	608	-6.5	-8.2	344	12	3.2
2025-10-03T12:00	4240	607	-6.7	-8.3	345	12	3.2
2025-10-03T12:00	4260	605	-6.8	-8.5	345	13	3.2
2025-10-03T12:00	4280	604	-6.9	-8.6	345	13	3.2
2025-10-03T12:00	4300	602	-7.0	-8.8	345	13	3.2
2025-10-03T12:00	4320	600	-7.1	-8.9	345	13	3.2
2025-10-03T12:00	4340	599	-7.2	-8.9	344	13	3.2
2025-10-03T12:00	4360	597	-7.3	-9.0	343	13	3.2
2025-10-03T12:00	4380	596	-7.4	-9.2	342	13	3.2
2025-10-03T12:00	4400	594	-7.5	-9.4	342	13	3.1
2025-10-03T12:00	4420	593	-7.6	-9.6	342	13	3.1
2025-10-03T12:00	4440	591	-7.7	-9.7	342	13	3.1
2025-10-03T12:00	4460	590	-7.8	-9.8	342	13	3.1
2025-10-03T12:00	4480	589	-7.9	-9.9	342	13	3.2
2025-10-03T12:00	4500	587	-8.1	-10.0	342	13	3.2
2025-10-03T12:00	4520	585	-8.2	-10.1	342	12	3.1
2025-10-03T12:00	4540	584	-8.3	-10.2	341	12	3.0
2025-10-03T12:00	4560	582	-8.4	-10.1	340	12	3.0
2025-10-03T12:00	4580	581	-8.5	-10.3	339	12	2.9
2025-10-03T12:00	4600	579	-8.6	-10.4	338	11	3.0
2025-10-03T12:00	4620	578	-8.7	-10.6	337	11	3.0
2025-10-03T12:00	4640	577	-8.9	-10.7	336	11	3.0
2025-10-03T12:00	4660	575	-9.0	-10.8	336	11	2.9
2025-10-03T12:00	4680	573	-9.1	-10.9	335	11	2.9
2025-10-03T12:00	4700	572	-9.2	-11.0	333	11	2.9
2025-10-03T12:00	4720	571	-9.3	-11.0	332	12	3.0
2025-10-03T12:00	4740	569	-9.5	-11.2	330	12	2.9
2025-10-03T12:00	4760	567	-9.6	-11.3	329	12	2.9
2025-10-03T12:00	4780	566	-9.7	-11.4	328	12	3.0
2025-10-03T12:00	4800	565	-9.8	-11.4	328	12	2.9
2025-10-03T12:00	4820	563	-9.9	-11.5	329	12	2.9
2025-10-03T12:00	4840	562	-10.0	-11.4	330	12	2.9
2025-10-03T12:00	4860	560	-10.0	-11.3	332	12	2.9
2025-10-03T12:00	4880	559	-10.0	-11.4	333	12	2.9
2025-10-03T12:00	4900	557	-10.1	-11.6	334	12	2.9
2025-10-03T12:00	4920	556	-10.1	-11.7	335	12	2.9
2025-10-03T12:00	4940	554	-10.2	-11.8	335	12	2.9
2025-10-03T12:00	4960	553	-10.3	-12.0	335	12	2.9
2025-10-03T12:00	4980	552	-10.3	-12.1	334	12	2.9
2025-10-03T12:00	5000	550	-10.4	-12.1	333	12	2.8
2025-10-03T12:00	5020	549	-10.4	-12.2	332	12	2.8
2025-10-03T12:00	5040	547	-10.5	-12.2	331	12	2.8
2025-10-03T12:00	5060	546	-10.6	-12.3	330	12	2.8
2025-10-03T12:00	5080	544	-10.7	-12.5	329	12	2.8
2025-10-03T12:00	5100	543	-10.9	-12.6	329	12	2.7
2025-10-03T12:00	5120	542	-11.0	-12.7	329	13	2.7
2025-10-03T12:00	5140	540	-11.2	-12.7	329	13	2.7
2025-10-03T12:00	5160	539	-11.3	-12.9	330	13	2.7
2025-10-03T12:00	5180	537	-11.4	-13.1	330	14	2.7
2025-10-03T12:00	5200	536	-11.5	-13.4	330	14	2.7
2025-10-03T12:00	5220	535	-11.7	-13.6	330	14	2.7
2025-10-03T12:00	5240	533	-11.9	-13.9	330	14	2.7
2025-10-03T12:00	5260	532	-12.0	-13.9	330	15	2.7
2025-10-03T12:00	5280	530	-12.2	-14.0	329	15	2.7
2025-10-03T12:00	5300	529	-12.3	-14.1	327	15	2.7
2025-10-03T12:00	5320	528	-12.4	-14.2	326	15	2.7
2025-10-03T12:00	5340	526	-12.5	-14.4	324	15	2.7
2025-10-03T12:00	5360	525	-12.6	-14.4	322	15	2.6
2025-10-03T12:00	5380	523	-12.6	-14.5	320	15	2.7
2025-10-03T12:00	5400	522	-12.6	-14.5	319	15	2.7
2025-10-03T12:00	5420	521	-12.7	-14.6	318	15	2.6
2025-10-03T12:00	5440	519	-12.8	-14.7	317	16	2.6
2025-10-03T12:00	5460	518	-12.8	-14.7	317	16	2.6
2025-10-03T12:00	5480	517	-12.9	-14.8	317	16	2.6
2025-10-03T12:00	5500	515	-13.0	-14.9	317	16	2.6
2025-10-03T12:00	5520	514	-13.1	-15.0	317	16	2.6
2025-10-03T12:00	5540	513	-13.3	-15.1	318	16	2.6
2025-10-03T12:00	5560	511	-13.4	-15.2	318	16	2.6
2025-10-03T12:00	5580	510	-13.5	-15.3	317	16	2.6
2025-10-03T12:00	5600	509	-13.6	-15.5	317	16	2.6
2025-10-03T12:00	5620	507	-13.7	-15.6	317	16	2.6
2025-10-03T12:00	5640	506	-13.9	-15.7	316	16	2.6
2025-10-03T12:00	5660	505	-14.0	-15.7	315	16	2.6
2025-10-03T12:00	5680	503	-14.1	-15.9	315	16	2.6
2025-10-03T12:00	5700	502	-14.2	-16.1	314	16	2.6
2025-10-03T12:00	5720	501	-14.4	-16.2	314	16	2.6
2025-10-03T12:00	5740	500	-14.5	-16.4	314	17	2.6
2025-10-03T12:00	5760	498	-14.7	-16.6	314	17	2.5
2025-10-03T12:00	5780	497	-14.8	-16.6	314	17	2.6
2025-10-03T12:00	5800	495	-14.9	-16.8	314	18	2.6
2025-10-03T12:00	5820	494	-15.1	-16.9	315	18	2.6
2025-10-03T12:00	5840	493	-15.1	-17.0	315	18	2.6
2025-10-03T12:00	5860	491	-15.3	-17.2	315	19	2.5
2025-10-03T12:00	5880	490	-15.4	-17.3	315	19	2.5
2025-10-03T12:00	5900	489	-15.5	-17.4	315	19	2.5
2025-10-03T12:00	5920	488	-15.6	-17.6	315	19	2.5
2025-10-03T12:00	5940	486	-15.7	-17.8	315	19	2.5
2025-10-03T12:00	5960	485	-15.9	-17.8	315	19	2.5
2025-10-03T12:00	5980	484	-16.0	-18.0	315	19	2.5
2025-10-03T12:00	6000	482	-16.2	-18.0	316	20	2.5
2025-10-03T12:00	6020	481	-16.3	-18.2	317	20	2.5
2025-10-03T12:00	6040	480	-16.5	-18.3	317	20	2.5
2025-10-03T12:00	6060	479	-16.6	-18.5	317	20	2.4
2025-10-03T12:00	6080	477	-16.7	-18.7	318	20	2.4
2025-10-03T12:00	6100	476	-16.8	-18.8	318	20	2.4
2025-10-03T12:00	6120	475	-16.9	-18.9	319	20	2.4
2025-10-03T12:00	6140	474	-17.1	-19.0	319	20	2.4
2025-10-03T12:00	6160	472	-17.2	-19.1	319	20	2.4
2025-10-03T12:00	6180	471	-17.3	-19.2	319	20	2.4
2025-10-03T12:00	6200	470	-17.5	-19.5	319	20	2.4
2025-10-03T12:00	6220	469	-17.6	-19.6	319	20	2.4
2025-10-03T12:00	6240	467	-17.7	-19.8	320	20	2.4
2025-10-03T12:00	6260	466	-17.8	-20.0	320	20	2.4
2025-10-03T12:00	6280	465	-18.0	-20.1	320	19	2.3
2025-10-03T12:00	6300	464	-18.1	-20.2	321	19	2.3
2025-10-03T12:00	6320	462	-18.2	-20.3	322	19	2.3
2025-10-03T12:00	6340	461	-18.2	-20.3	323	19	2.3
2025-10-03T12:00	6360	460	-18.2	-20.5	325	19	2.3
2025-10-03T12:00	6380	459	-18.3	-20.6	326	19	2.3
2025-10-03T12:00	6400	457	-18.3	-20.7	327	19	2.3
2025-10-03T12:00	6420	456	-18.5	-20.8	328	19	2.2
2025-10-03T12:00	6440	455	-18.5	-20.7	328	19	2.2
2025-10-03T12:00	6460	454	-18.6	-20.7	329	19	2.2
2025-10-03T12:00	6480	453	-18.7	-20.9	329	19	2.1
2025-10-03T12:00	6500	451	-18.8	-20.9	329	19	2.1
2025-10-03T12:00	6520	450	-18.9	-21.0	329	20	2.1
2025-10-03T12:00	6540	449	-19.0	-21.1	329	20	2.0
2025-10-03T12:00	6560	448	-19.2	-21.4	328	20	2.0
2025-10-03T12:00	6580	447	-19.3	-21.3	328	20	2.0
2025-10-03T12:00	6600	445	-19.4	-21.3	328	20	1.9
2025-10-03T12:00	6620	444	-19.5	-21.5	328	20	1.9
2025-10-03T12:00	6640	443	-19.6	-21.8	329	20	1.9
2025-10-03T12:00	6660	442	-19.6	-21.9	329	21	1.9
2025-10-03T12:00	6680	441	-19.8	-22.0	329	21	1.9
2025-10-03T12:00	6700	439	-20.0	-22.2	328	21	1.9
2025-10-03T12:00	6720	438	-20.1	-22.4	328	21	1.9
2025-10-03T12:00	6740	437	-20.2	-22.6	328	21	1.9
2025-10-03T12:00	6760	436	-20.3	-22.5	328	21	1.9
2025-10-03T12:00	6780	435	-20.4	-22.6	328	22	1.8
2025-10-03T12:00	6800	434	-20.6	-22.7	328	22	1.8
2025-10-03T12:00	6820	432	-20.7	-22.9	328	22	1.8
2025-10-03T12:00	6840	431	-20.9	-23.1	328	22	1.7
2025-10-03T12:00	6860	430	-21.1	-23.2	329	22	1.7
2025-10-03T12:00	6880	429	-21.2	-23.5	329	22	1.7
2025-10-03T12:00	6900	428	-21.2	-23.5	329	22	1.7
2025-10-03T12:00	6920	427	-21.3	-23.4	330	22	1.8
2025-10-03T12:00	6940	425	-21.4	-23.5	330	22	1.8
2025-10-03T12:00	6960	424	-21.6	-23.9	330	22	1.8
2025-10-03T12:00	6980	423	-21.8	-24.2	330	22	1.7
2025-10-03T12:00	7000	422	-21.9	-24.3	330	23	1.7
2025-10-03T12:00	7020	421	-22.0	-24.2	329	23	1.7
2025-10-03T12:00	7040	420	-22.2	-24.4	329	23	1.7
2025-10-03T12:00	7060	418	-22.3	-24.6	329	24	1.7
2025-10-03T12:00	7080	417	-22.4	-24.8	329	24	1.7
2025-10-03T12:00	7100	416	-22.5	-24.8	329	24	1.7
2025-10-03T12:00	7120	415	-22.7	-24.9	329	24	1.7
2025-10-03T12:00	7140	414	-22.7	-25.0	328	24	1.7
2025-10-03T12:00	7160	413	-22.9	-25.2	328	24	1.7
2025-10-03T12:00	7180	412	-23.1	-25.3	328	24	1.7
2025-10-03T12:00	7200	411	-23.2	-25.5	327	24	1.8
2025-10-03T12:00	7220	409	-23.3	-25.7	327	24	1.8
2025-10-03T12:00	7240	408	-23.4	-25.8	327	24	1.8
2025-10-03T12:00	7260	407	-23.5	-26.0	327	24	1.8
2025-10-03T12:00	7280	406	-23.7	-26.1	328	24	1.8
2025-10-03T12:00	7300	405	-23.8	-26.3	328	24	1.8
2025-10-03T12:00	7320	404	-24.0	-26.5	328	24	1.8
2025-10-03T12:00	7340	403	-24.2	-26.6	329	24	1.8
2025-10-03T12:00	7360	402	-24.3	-26.7	329	24	1.8
2025-10-03T12:00	7380	400	-24.5	-27.0	329	24	1.8
2025-10-03T12:00	7400	400	-24.5	-27.2	329	24	1.8
2025-10-03T12:00	7420	398	-24.6	-27.2	329	24	1.8
2025-10-03T12:00	7440	397	-24.9	-27.2	329	24	1.8
2025-10-03T12:00	7460	396	-25.0	-27.6	329	24	1.8
2025-10-03T12:00	7480	395	-25.1	-27.9	329	24	1.8
2025-10-03T12:00	7500	394	-25.3	-28.0	328	24	1.8
2025-10-03T12:00	7520	393	-25.5	-28.0	328	24	1.8
2025-10-03T12:00	7540	392	-25.6	-28.1	328	24	1.8
2025-10-03T12:00	7560	391	-25.8	-28.5	328	25	1.8
2025-10-03T12:00	7580	390	-25.9	-28.6	329	25	1.8
2025-10-03T12:00	7600	389	-26.1	-28.5	329	25	1.8
2025-10-03T12:00	7620	387	-26.2	-28.7	330	25	1.8
2025-10-03T12:00	7640	386	-26.4	-29.0	330	25	1.8
2025-10-03T12:00	7660	385	-26.5	-29.3	331	25	1.8
2025-10-03T12:00	7680	384	-26.7	-29.5	332	25	1.8
2025-10-03T12:00	7700	383	-26.8	-29.5	333	25	1.8
2025-10-03T12:00	7720	382	-27.0	-29.7	333	25	1.8
2025-10-03T12:00	7740	381	-27.2	-30.1	334	25	1.8
2025-10-03T12:00	7760	380	-27.3	-30.4	334	25	1.8
2025-10-03T12:00	7780	379	-27.4	-30.5	335	25	1.8
2025-10-03T12:00	7800	378	-27.6	-30.7	335	25	1.8
2025-10-03T12:00	7820	377	-27.8	-30.9	336	25	1.8
2025-10-03T12:00	7840	376	-27.9	-31.1	336	25	1.9
2025-10-03T12:00	7860	375	-28.1	-31.1	336	25	1.9
2025-10-03T12:00	7880	374	-28.2	-31.3	336	25	1.9
2025-10-03T12:00	7900	373	-28.3	-31.4	336	25	1.9
2025-10-03T12:00	7920	372	-28.6	-31.4	336	25	1.9
2025-10-03T12:00	7940	371	-28.8	-31.5	335	25	1.9
2025-10-03T12:00	7960	370	-28.9	-31.8	335	26	1.9
2025-10-03T12:00	7980	369	-29.1	-32.2	335	26	1.9
2025-10-03T12:00	8000	368	-29.1	-32.2	335	26	1.9
2025-10-03T12:00	8020	367	-29.2	-32.2	335	26	1.9
2025-10-03T12:00	8040	366	-29.5	-32.3	335	26	1.9
2025-10-03T12:00	8060	364	-29.6	-32.6	335	26	1.8
2025-10-03T12:00	8080	363	-29.6	-33.0	336	27	1.8
2025-10-03T12:00	8100	362	-29.8	-33.0	336	27	1.8
2025-10-03T12:00	8120	361	-29.9	-32.9	336	27	1.8
2025-10-03T12:00	8140	360	-30.0	-33.1	335	27	1.8
2025-10-03T12:00	8160	359	-30.2	-33.3	335	27	1.8
2025-10-03T12:00	8180	358	-30.2	-33.5	334	28	1.8
2025-10-03T12:00	8200	357	-30.5	-33.5	333	27	1.8
2025-10-03T12:00	8220	356	-30.6	-33.8	332	27	1.8
2025-10-03T12:00	8240	355	-30.8	-33.9	332	27	1.8
2025-10-03T12:00	8260	354	-30.9	-34.2	331	27	1.8
2025-10-03T12:00	8280	353	-31.1	-34.5	331	27	1.7
2025-10-03T12:00	8300	352	-31.3	-34.6	330	27	1.7
2025-10-03T12:00	8320	351	-31.4	-34.7	330	27	1.7
2025-10-03T12:00	8340	350	-31.6	-34.8	330	27	1.7
2025-10-03T12:00	8360	349	-31.7	-35.0	329	28	1.7
2025-10-03T12:00	8380	348	-31.9	-35.2	329	28	1.7
2025-10-03T12:00	8400	347	-32.0	-35.4	329	28	1.7
2025-10-03T12:00	8420	347	-32.2	-35.5	329	28	1.7
2025-10-03T12:00	8440	345	-32.4	-35.7	328	29	1.7
2025-10-03T12:00	8460	344	-32.5	-35.9	328	29	1.7
2025-10-03T12:00	8480	344	-32.7	-36.0	328	29	1.7
2025-10-03T12:00	8500	343	-32.8	-36.1	328	29	1.6
2025-10-03T12:00	8520	342	-33.0	-36.3	328	30	1.6
2025-10-03T12:00	8540	341	-33.1	-36.5	328	30	1.6
2025-10-03T12:00	8560	340	-33.3	-36.6	327	30	1.6
2025-10-03T12:00	8580	339	-33.4	-36.7	327	30	1.6
2025-10-03T12:00	8600	338	-33.5	-37.0	327	30	1.6
2025-10-03T12:00	8620	337	-33.7	-37.1	327	30	1.6
2025-10-03T12:00	8640	336	-33.8	-37.1	326	30	1.6
2025-10-03T12:00	8660	335	-34.0	-37.5	327	30	1.6
2025-10-03T12:00	8680	334	-34.2	-37.8	327	30	1.6
2025-10-03T12:00	8700	333	-34.4	-37.8	327	30	1.6
2025-10-03T12:00	8720	332	-34.5	-38.0	328	30	1.6
2025-10-03T12:00	8740	331	-34.7	-38.2	328	30	1.6
2025-10-03T12:00	8760	330	-34.8	-38.1	329	30	1.6
2025-10-03T12:00	8780	329	-34.8	-38.3	330	30	1.6
2025-10-03T12:00	8800	328	-35.0	-38.6	330	30	1.6
2025-10-03T12:00	8820	327	-35.2	-38.6	330	30	1.6
2025-10-03T12:00	8840	326	-35.4	-38.8	331	30	1.6
2025-10-03T12:00	8860	325	-35.4	-39.2	331	30	1.6
2025-10-03T12:00	8880	324	-35.7	-39.3	331	30	1.6
2025-10-03T12:00	8900	324	-35.9	-39.2	332	30	1.6
2025-10-03T12:00	8920	323	-36.1	-39.5	332	30	1.6
2025-10-03T12:00	8940	322	-36.3	-39.6	333	30	1.6
2025-10-03T12:00	8960	321	-36.5	-39.9	334	30	1.6
2025-10-03T12:00	8980	320	-36.7	-40.2	334	29	1.6
2025-10-03T12:00	9000	319	-36.8	-40.4	335	29	1.6
2025-10-03T12:00	9020	318	-37.0	-40.5	335	29	1.6
2025-10-03T12:00	9040	317	-37.1	-40.8	335	29	1.6
2025-10-03T12:00	9060	316	-37.3	-41.0	336	29	1.6
2025-10-03T12:00	9080	315	-37.5	-41.1	336	29	1.6
2025-10-03T12:00	9100	314	-37.6	-41.3	336	29	1.6
2025-10-03T12:00	9120	313	-37.8	-41.4	336	29	1.6
2025-10-03T12:00	9140	312	-38.1	-41.4	336	29	1.6
2025-10-03T12:00	9160	312	-38.2	-41.6	336	29	1.6
2025-10-03T12:00	9180	311	-38.4	-42.0	337	30	1.6
2025-10-03T12:00	9200	310	-38.5	-42.1	337	30	1.6
2025-10-03T12:00	9220	309	-38.6	-42.5	337	30	1.6
2025-10-03T12:00	9240	308	-38.8	-42.7	337	30	1.6
2025-10-03T12:00	9260	307	-38.9	-42.8	337	30	1.6
2025-10-03T12:00	9280	306	-39.0	-43.0	337	31	1.6
2025-10-03T12:00	9300	305	-39.3	-43.3	337	31	1.5
2025-10-03T12:00	9320	304	-39.5	-43.3	337	31	1.5
2025-10-03T12:00	9340	303	-39.6	-43.4	336	31	1.5
2025-10-03T12:00	9360	302	-39.7	-43.6	336	31	1.5
2025-10-03T12:00	9380	302	-39.9	-43.7	336	32	1.5
2025-10-03T12:00	9400	301	-40.0	-43.6	335	32	1.5
2025-10-03T12:00	9420	300	-40.1	-43.7	335	32	1.5
2025-10-03T12:00	9440	299	-40.2	-44.0	334	33	1.5
2025-10-03T12:00	9460	298	-40.3	-44.1	334	33	1.5
2025-10-03T12:00	9480	297	-40.5	-43.9	334	34	1.5
2025-10-03T12:00	9500	296	-40.6	-44.1	334	34	1.5
2025-10-03T12:00	9520	295	-40.8	-44.6	334	35	1.4
2025-10-03T12:00	9540	295	-40.8	-44.6	334	35	1.4
2025-10-03T12:00	9560	294	-40.9	-44.6	334	36	1.4
2025-10-03T12:00	9580	293	-41.0	-44.5	334	36	1.4
2025-10-03T12:00	9600	292	-41.0	-44.5	335	37	1.4
2025-10-03T12:00	9620	291	-41.1	-44.6	335	37	1.4
2025-10-03T12:00	9640	290	-41.3	-44.9	335	37	1.4
2025-10-03T12:00	9660	290	-41.5	-45.1	336	38	1.4
2025-10-03T12:00	9680	289	-41.6	-45.2	337	38	1.4
2025-10-03T12:00	9700	288	-41.8	-45.6	337	38	1.4
2025-10-03T12:00	9720	287	-41.9	-45.8	338	38	1.4
2025-10-03T12:00	9740	286	-42.1	-45.8	338	38	1.4
2025-10-03T12:00	9760	285	-42.3	-46.0	338	38	1.4
2025-10-03T12:00	9780	284	-42.4	-46.4	339	39	1.4
2025-10-03T12:00	9800	284	-42.5	-46.5	339	39	1.4
2025-10-03T12:00	9820	283	-42.7	-46.5	339	39	1.4
2025-10-03T12:00	9840	282	-42.9	-46.8	339	39	1.3
2025-10-03T12:00	9860	281	-43.0	-47.0	339	39	1.3
2025-10-03T12:00	9880	280	-43.2	-47.0	340	40	1.3
2025-10-03T12:00	9900	279	-43.4	-47.1	340	40	1.3
2025-10-03T12:00	9920	279	-43.6	-47.5	340	40	1.3
2025-10-03T12:00	9940	278	-43.7	-47.8	340	40	1.3
2025-10-03T12:00	9960	277	-43.8	-47.9	341	41	1.3
2025-10-03T12:00	9980	276	-43.9	-47.8	341	41	1.3
2025-10-03T12:00	10000	275	-44.0	-47.9	341	41	1.2
2025-10-03T12:00	10018	274	-44.1	-48.2	341	41	1.2
2025-10-03T12:00	10050	273	-44.4	-48.7	342	42	1.2
2025-10-03T12:00	10100	271	-44.7	-48.8	343	43	1.2
2025-10-03T12:00	10150	269	-45.1	-49.4	343	44	1.1
2025-10-03T12:00	10200	267	-45.5	-49.8	344	44	1.1
2025-10-03T12:00	10250	265	-45.9	-50.0	344	45	1.1
2025-10-03T12:00	10300	263	-46.2	-50.5	345	46	1.1
2025-10-03T12:00	10350	261	-46.5	-50.7	345	47	1.0
2025-10-03T12:00	10400	259	-46.9	-51.1	345	48	1.0
2025-10-03T12:00	10450	257	-47.2	-51.8	346	48	1.0
2025-10-03T12:00	10500	255	-47.6	-52.0	346	49	1.0
2025-10-03T12:00	10550	253	-47.8	-52.3	347	50	1.0
2025-10-03T12:00	10600	252	-48.1	-52.4	348	50	1.0
2025-10-03T12:00	10650	250	-48.5	-53.2	349	51	1.1
2025-10-03T12:00	10700	248	-48.8	-53.8	350	51	1.1
2025-10-03T12:00	10750	246	-49.2	-54.2	351	52	1.2
2025-10-03T12:00	10800	244	-49.7	-54.6	351	53	1.3
2025-10-03T12:00	10850	242	-50.0	-54.6	351	54	1.3
2025-10-03T12:00	10900	240	-50.2	-54.8	351	54	1.4
2025-10-03T12:00	10950	238	-50.8	-55.1	351	55	1.4
2025-10-03T12:00	11000	237	-51.3	-55.6	351	56	1.4
2025-10-03T12:00	11050	235	-51.7	-56.2	351	57	1.4
2025-10-03T12:00	11100	233	-52.0	-56.7	352	58	1.4
2025-10-03T12:00	11150	231	-52.3	-57.2	352	60	1.4
2025-10-03T12:00	11200	229	-52.6	-57.5	352	61	1.4
2025-10-03T12:00	11250	228	-53.0	-57.7	352	61	1.4
2025-10-03T12:00	11300	226	-53.3	-58.2	352	62	1.4
2025-10-03T12:00	11350	224	-53.8	-58.5	352	63	1.4
2025-10-03T12:00	11400	222	-54.1	-59.0	351	63	1.4
2025-10-03T12:00	11450	221	-54.6	-59.4	351	64	1.4
2025-10-03T12:00	11500	219	-55.0	-59.6	351	65	1.3
2025-10-03T12:00	11550	217	-55.4	-60.3	351	66	1.3
2025-10-03T12:00	11600	216	-55.8	-60.9	351	67	1.3
2025-10-03T12:00	11650	214	-56.2	-61.1	351	67	1.3
2025-10-03T12:00	11700	212	-56.5	-61.5	351	67	1.3
2025-10-03T12:00	11750	211	-57.0	-61.8	351	68	1.2
2025-10-03T12:00	11800	209	-57.4	-62.5	351	69	1.2
2025-10-03T12:00	11850	207	-57.8	-63.5	351	70	1.2
2025-10-03T12:00	11900	206	-58.1	-64.0	351	70	1.2
2025-10-03T12:00	11950	204	-58.4	-64.0	352	71	1.1
2025-10-03T12:00	12000	202	-58.7	-64.5	352	70	1.1
2025-10-03T12:00	12050	201	-58.9	-64.5	353	69	1.1
2025-10-03T12:00	12100	199	-59.2	-63.9	354	68	1.2
2025-10-03T12:00	12150	198	-59.3	-63.3	354	67	1.3
2025-10-03T12:00	12200	196	-59.6	-62.9	355	66	1.4
2025-10-03T12:00	12250	194	-59.9	-62.5	355	65	1.5
2025-10-03T12:00	12300	193	-60.3	-63.9	355	65	1.7
2025-10-03T12:00	12350	191	-60.2	-67.6	354	65	1.8
2025-10-03T12:00	12400	190	-59.9	-72.2	353	65	1.9
2025-10-03T12:00	12450	188	-60.0	-73.9	352	65	2.0
2025-10-03T12:00	12500	187	-60.3	-73.7	353	66	2.1
2025-10-03T12:00	12550	185	-60.4	-73.5	353	66	2.1
2025-10-03T12:00	12600	184	-60.6	-73.4	353	66	2.2
2025-10-03T12:00	12650	182	-60.8	-73.3	353	65	2.2
2025-10-03T12:00	12700	181	-61.2	-73.1	352	65	2.1
2025-10-03T12:00	12750	180	-61.5	-73.0	352	65	2.1
2025-10-03T12:00	12800	178	-61.8	-73.1	351	65	2.1
2025-10-03T12:00	12850	176	-62.3	-73.2	351	65	2.1
2025-10-03T12:00	12900	175	-62.5	-73.2	352	65	2.0
2025-10-03T12:00	12950	174	-62.8	-73.5	351	64	2.0
2025-10-03T12:00	13000	172	-63.0	-73.6	351	64	2.0
2025-10-03T12:00	13050	171	-63.2	-74.1	352	63	1.9
2025-10-03T12:00	13100	170	-63.4	-74.7	352	62	1.9
2025-10-03T12:00	13150	168	-63.6	-75.8	352	61	1.9
2025-10-03T12:00	13200	167	-63.5	-77.0	352	59	2.0
2025-10-03T12:00	13250	165	-63.0	-78.6	353	57	2.2
2025-10-03T12:00	13300	164	-62.7	-80.7	353	55	2.6
2025-10-03T12:00	13350	163	-62.3	-82.1	353	54	3.2
2025-10-03T12:00	13400	161	-62.0	-82.1	353	53	3.6
2025-10-03T12:00	13450	160	-62.0	-82.0	353	51	3.9
2025-10-03T12:00	13500	159	-62.0	-82.6	354	49	4.1
2025-10-03T12:00	13550	157	-61.9	-83.0	354	47	4.3
2025-10-03T12:00	13600	156	-61.8	-83.3	354	46	4.8
2025-10-03T12:00	13650	155	-61.7	-83.1	354	45	5.3
2025-10-03T12:00	13700	154	-61.2	-82.8	353	44	5.7
2025-10-03T12:00	13750	153	-61.0	-83.2	354	43	5.9
2025-10-03T12:00	13800	151	-60.4	-83.2	355	41	6.1
2025-10-03T12:00	13850	150	-60.4	-83.4	357	40	6.3
2025-10-03T12:00	13900	149	-60.4	-83.4	358	38	6.3
2025-10-03T12:00	13950	148	-60.4	-83.5	358	38	6.3
2025-10-03T12:00	14000	147	-60.6	-83.4	359	37	6.3
2025-10-03T12:00	14050	145	-61.1	-83.6	359	36	6.5
2025-10-03T12:00	14100	144	-61.4	-83.4	359	35	6.4
2025-10-03T12:00	14150	143	-61.8	-83.5	360	34	6.4
2025-10-03T12:00	14200	142	-61.5	-83.3	1	33	6.3
2025-10-03T12:00	14250	141	-61.3	-82.9	1	31	6.1
2025-10-03T12:00	14300	140	-61.4	-83.0	360	30	5.9
2025-10-03T12:00	14350	139	-61.5	-83.2	358	30	5.7
2025-10-03T12:00	14400	137	-61.9	-83.2	357	29	5.5
2025-10-03T12:00	14450	136	-62.1	-83.1	355	28	5.3
2025-10-03T12:00	14500	135	-62.3	-83.1	355	27	5.2
2025-10-03T12:00	14550	134	-62.6	-83.0	355	27	5.1
2025-10-03T12:00	14600	133	-63.0	-83.0	355	27	5.0
2025-10-03T12:00	14650	132	-63.0	-83.2	355	27	4.9
2025-10-03T12:00	14700	131	-62.9	-83.4	354	26	4.9
2025-10-03T12:00	14750	130	-62.9	-83.5	353	25	4.9
2025-10-03T12:00	14800	129	-63.3	-83.5	350	25	4.9
2025-10-03T12:00	14850	128	-63.4	-83.5	347	24	4.8
2025-10-03T12:00	14900	127	-63.3	-83.8	346	24	4.8
2025-10-03T12:00	14950	126	-62.7	-83.9	346	25	4.8
2025-10-03T12:00	15000	125	-62.5	-84.1	346	25	4.8
2025-10-03T12:00	15050	124	-62.2	-84.2	344	24	5.0
2025-10-03T12:00	15100	123	-62.3	-84.5	343	24	5.2
2025-10-03T12:00	15150	122	-62.2	-84.6	342	25	5.2
2025-10-03T12:00	15200	121	-62.1	-84.7	343	26	5.4
2025-10-03T12:00	15250	120	-61.8	-84.7	343	27	5.6
2025-10-03T12:00	15300	119	-61.9	-84.9	343	27	5.9
2025-10-03T12:00	15350	118	-62.1	-84.9	342	27	6.0
2025-10-03T12:00	15400	117	-62.6	-85.2	343	26	6.1
2025-10-03T12:00	15450	116	-62.1	-85.2	345	25	6.2
2025-10-03T12:00	15500	115	-61.6	-85.1	346	23	6.3
2025-10-03T12:00	15550	114	-62.0	-85.3	348	22	6.3
2025-10-03T12:00	15600	113	-61.9	-85.2	350	21	6.3
2025-10-03T12:00	15650	112	-62.0	-85.3	351	21	6.3
2025-10-03T12:00	15700	111	-62.2	-85.3	350	20	6.4
2025-10-03T12:00	15750	110	-62.7	-85.5	348	20	6.5
2025-10-03T12:00	15800	109	-63.2	-85.7	346	19	6.7
2025-10-03T12:00	15850	109	-63.3	-85.6	342	20	6.8
2025-10-03T12:00	15900	108	-63.4	-85.8	339	21	6.9
2025-10-03T12:00	15950	107	-63.2	-85.8	339	21	7.0
2025-10-03T12:00	16000	106	-63.3	-85.9	339	21	7.1
2025-10-03T12:00	16050	105	-63.4	-86.0	339	20	7.1
2025-10-03T12:00	16100	104	-63.4	-86.0	339	20	7.2
2025-10-03T12:00	16150	103	-63.4	-86.3	337	19	7.2
2025-10-03T12:00	16200	103	-62.5	-86.2	337	18	7.3
2025-10-03T12:00	16250	102	-62.3	-86.2	336	18	7.3
2025-10-03T12:00	16300	101	-62.1	-86.0	335	18	7.1
2025-10-03T12:00	16350	100	-62.2	-86.0	334	18	6.8
2025-10-03T12:00	16400	99	-62.3	-86.1	334	18	6.5
2025-10-03T12:00	16450	98	-61.9	-86.1	334	18	6.4
2025-10-03T12:00	16500	98	-61.8	-86.1	334	18	6.3
2025-10-03T12:00	16550	97	-61.7	-85.9	334	18	6.1
2025-10-03T12:00	16600	96	-61.6	-85.9	333	19	5.8
2025-10-03T12:00	16650	95	-61.3	-85.8	331	19	5.5
2025-10-03T12:00	16700	95	-61.6	-85.9	330	19	5.5
2025-10-03T12:00	16750	94	-61.9	-86.1	330	19	5.5
2025-10-03T12:00	16800	93	-61.6	-86.0	332	20	5.6
2025-10-03T12:00	16850	92	-61.6	-86.3	335	20	5.9
2025-10-03T12:00	16900	92	-61.2	-86.4	339	20	6.1
2025-10-03T12:00	16950	91	-60.8	-86.4	344	20	6.3
2025-10-03T12:00	17000	90	-60.2	-86.2	348	19	6.3
2025-10-03T12:00	17050	89	-60.4	-86.3	351	19	6.3
2025-10-03T12:00	17100	89	-60.6	-86.4	355	18	6.3
2025-10-03T12:00	17150	88	-60.9	-86.4	356	18	6.3
2025-10-03T12:00	17200	87	-61.2	-86.5	355	16	6.3
2025-10-03T12:00	17250	87	-61.2	-86.5	350	15	6.3
2025-10-03T12:00	17300	86	-61.3	-86.6	343	15	6.4
2025-10-03T12:00	17350	85	-61.3	-86.7	339	15	6.4
2025-10-03T12:00	17400	85	-60.7	-86.8	339	15	6.2
2025-10-03T12:00	17450	84	-60.3	-86.9	342	15	6.2
2025-10-03T12:00	17500	83	-59.6	-86.7	347	16	6.3
2025-10-03T12:00	17550	83	-59.5	-86.9	351	16	6.4
2025-10-03T12:00	17600	82	-59.5	-86.9	356	15	6.5
2025-10-03T12:00	17650	81	-59.5	-86.6	357	14	6.7
2025-10-03T12:00	17700	81	-59.6	-86.7	353	13	6.9
2025-10-03T12:00	17750	80	-59.6	-87.0	350	13	7.3
2025-10-03T12:00	17800	79	-59.6	-87.0	352	12	7.6
2025-10-03T12:00	17850	79	-59.4	-87.1	353	11	7.8
2025-10-03T12:00	17900	78	-59.4	-87.4	347	11	7.8
2025-10-03T12:00	17950	77	-59.2	-87.2	341	11	7.9
2025-10-03T12:00	18000	77	-59.1	-87.3	341	11	8.0
2025-10-03T12:00	18050	76	-58.8	-87.2	345	10	8.0
2025-10-03T12:00	18100	76	-58.8	-87.2	350	9	8.1
2025-10-03T12:00	18150	75	-59.1	-87.2	355	8	8.2
2025-10-03T12:00	18200	74	-59.3	-86.9	359	7	8.3
2025-10-03T12:00	18250	74	-59.7	-87.1	359	6	8.3
2025-10-03T12:00	18300	73	-59.8	-87.3	358	6	8.3
2025-10-03T12:00	18350	73	-60.0	-87.5	356	6	8.4
2025-10-03T12:00	18400	72	-60.1	-87.5	352	7	8.4
2025-10-03T12:00	18450	71	-60.2	-87.6	348	8	8.4
2025-10-03T12:00	18500	71	-60.1	-87.7	345	8	8.4
2025-10-03T12:00	18550	70	-60.2	-87.7	343	9	8.6
2025-10-03T12:00	18600	70	-60.5	-87.6	342	9	8.6
2025-10-03T12:00	18650	69	-60.9	-87.6	341	10	8.6
2025-10-03T12:00	18700	69	-61.3	-87.9	339	10	8.5
2025-10-03T12:00	18750	68	-61.5	-88.0	337	10	8.3
2025-10-03T12:00	18800	68	-61.3	-87.8	335	9	8.3
2025-10-03T12:00	18850	67	-61.6	-87.9	329	8	8.2
2025-10-03T12:00	18900	66	-61.9	-88.2	323	7	8.2
2025-10-03T12:00	18950	66	-61.9	-88.3	324	8	8.2
2025-10-03T12:00	19000	65	-61.9	-88.4	331	8	8.2
2025-10-03T12:00	19050	65	-61.7	-88.5	335	9	8.2
2025-10-03T12:00	19100	64	-61.2	-88.6	328	9	8.3
2025-10-03T12:00	19150	64	-60.6	-88.6	315	10	8.4
2025-10-03T12:00	19200	63	-60.1	-88.4	305	11	8.7
2025-10-03T12:00	19250	63	-60.0	-88.4	301	11	9.0
2025-10-03T12:00	19300	62	-60.3	-88.4	301	12	9.2
2025-10-03T12:00	19350	62	-60.2	-88.2	307	11	9.4
2025-10-03T12:00	19400	61	-60.1	-88.3	316	11	9.6
2025-10-03T12:00	19450	61	-59.9	-88.2	325	11	9.8
2025-10-03T12:00	19500	60	-59.8	-88.2	335	11	10.0
2025-10-03T12:00	19550	60	-59.8	-88.2	346	10	10.2
2025-10-03T12:00	19600	59	-59.7	-88.2	356	9	10.3
2025-10-03T12:00	19650	59	-59.4	-88.3	2	7	10.4
2025-10-03T12:00	19700	58	-59.2	-88.3	2	6	10.6
2025-10-03T12:00	19750	58	-59.1	-88.1	355	5	10.9
2025-10-03T12:00	19800	58	-59.3	-88.0	344	4	11.1
2025-10-03T12:00	19850	57	-59.6	-88.0	331	5	11.2
2025-10-03T12:00	19900	57	-59.7	-88.0	319	5	11.3
2025-10-03T12:00	19950	56	-59.8	-88.1	308	6	11.3
2025-10-03T12:00	20000	56	-59.9	-88.2	300	8	11.4
2025-10-03T12:00	20050	55	-59.8		298	9	11.4
2025-10-03T12:00	20100	55	-59.0		301	10	11.5
2025-10-03T12:00	20150	54	-58.4		309	10	11.5
2025-10-03T12:00	20200	54	-58.1		315	10	11.7
2025-10-03T12:00	20250	54	-57.9		321	9	11.9
2025-10-03T12:00	20300	53	-57.7		326	9	12.0
2025-10-03T12:00	20350	53	-57.6		330	9	12.2
2025-10-03T12:00	20400	52	-57.9		336	9	12.3
2025-10-03T12:00	20450	52	-57.8		340	8	12.3
2025-10-03T12:00	20500	51	-57.7		343	7	12.4
2025-10-03T12:00	20550	51	-57.6		345	6	12.5
2025-10-03T12:00	20600	51	-57.9		343	4	12.6
2025-10-03T12:00	20650	50	-58.1		331	4	12.6
2025-10-03T12:00	20700	50	-58.3		314	3	12.6
2025-10-03T12:00	20750	49	-58.3		300	4	12.6
2025-10-03T12:00	20800	49	-58.6		303	4	12.6
2025-10-03T12:00	20850	49	-58.7		313	4	12.6
2025-10-03T12:00	20900	48	-58.6		315	5	12.5
2025-10-03T12:00	20950	48	-58.4		313	6	12.5
2025-10-03T12:00	21000	48	-58.5		315	6	12.4
2025-10-03T12:00	21050	47	-58.7		315	7	12.2
2025-10-03T12:00	21100	47	-58.8		314	8	12.1
2025-10-03T12:00	21150	46	-58.8		316	9	11.9
2025-10-03T12:00	21200	46	-58.7		319	10	11.8
2025-10-03T12:00	21250	46	-58.7		323	10	11.6
2025-10-03T12:00	21300	45	-58.8		330	8	11.5
2025-10-03T12:00	21350	45	-58.7		343	7	11.4
2025-10-03T12:00	21400	45	-58.7		354	5	11.3
2025-10-03T12:00	21450	44	-58.8		359	4	11.2
2025-10-03T12:00	21500	44	-59.0		354	2	11.0
2025-10-03T12:00	21550	44	-59.1		338	2	10.9
2025-10-03T12:00	21600	43	-59.2		331	2	10.9
2025-10-03T12:00	21650	43	-59.4		324	2	10.8
2025-10-03T12:00	21700	42	-59.6		311	3	10.7
2025-10-03T12:00	21750	42	-59.7		301	4	10.6
2025-10-03T12:00	21800	42	-60.1		297	5	10.5
2025-10-03T12:00	21850	41	-60.2		298	6	10.5
2025-10-03T12:00	21900	41	-60.0		300	5	10.4
2025-10-03T12:00	21950	41	-59.9		302	5	10.4
2025-10-03T12:00	22000	41	-59.9		301	5	10.3
2025-10-03T12:00	22050	40	-59.6		298	4	10.3
2025-10-03T12:00	22100	40	-59.5		296	5	10.2
2025-10-03T12:00	22150	40	-59.4		293	6	10.1
2025-10-03T12:00	22200	39	-58.8		290	7	10.0
2025-10-03T12:00	22250	39	-58.5		290	8	10.2
2025-10-03T12:00	22300	39	-58.7		296	8	10.3
2025-10-03T12:00	22350	38	-58.8		301	9	10.4
2025-10-03T12:00	22400	38	-59.1		307	10	10.6
2025-10-03T12:00	22450	38	-59.2		313	9	10.7
2025-10-03T12:00	22500	37	-59.1		315	7	10.8
2025-10-03T12:00	22550	37	-58.8		310	6	10.7
2025-10-03T12:00	22600	37	-58.8		300	5	10.6
2025-10-03T12:00	22650	37	-58.9		291	5	10.9
2025-10-03T12:00	22700	36	-59.2		289	4	11.3
2025-10-03T12:00	22750	36	-59.4		292	4	11.7
2025-10-03T12:00	22800	36	-59.4		290	4	11.9
2025-10-03T12:00	22850	35	-59.0		284	4	12.1
2025-10-03T12:00	22900	35	-58.7		280	6	12.1
2025-10-03T12:00	22950	35	-58.7		281	7	12.0
2025-10-03T12:00	23000	35	-58.7		286	7	11.8
2025-10-03T12:00	23050	34	-58.6		292	7	11.6
2025-10-03T12:00	23100	34	-58.4		297	7	11.2
2025-10-03T12:00	23150	34	-58.3		302	7	10.8
2025-10-03T12:00	23200	33	-58.2		307	7	10.5
2025-10-03T12:00	23250	33	-57.8		314	5	10.3
2025-10-03T12:00	23300	33	-57.7		322	5	10.0
2025-10-03T12:00	23350	33	-57.6		323	4	9.9
2025-10-03T12:00	23400	32	-57.6		317	4	10.0
2025-10-03T12:00	23450	32	-57.8		309	4	10.1
2025-10-03T12:00	23500	32	-57.4		295	3	10.1
2025-10-03T12:00	23550	32	-56.9		277	3	10.1
2025-10-03T12:00	23600	31	-56.7		252	2	10.1
2025-10-03T12:00	23650	31	-56.2		215	3	10.1
2025-10-03T12:00	23700	31	-56.1		202	5	10.3
2025-10-03T12:00	23750	31	-55.9		203	6	10.6
2025-10-03T12:00	23800	30	-55.7		206	8	11.0
2025-10-03T12:00	23850	30	-56.0		209	8	11.5
2025-10-03T12:00	23900	30	-56.4		215	9	11.8
2025-10-03T12:00	23950	30	-56.7		223	9	12.0
2025-10-03T12:00	24000	29	-56.9		233	9	12.2
2025-10-03T12:00	24050	29	-57.0		242	10	12.4
2025-10-03T12:00	24100	29	-55.9		252	10	12.6
2025-10-03T12:00	24150	29	-55.0		259	10	13.0
2025-10-03T12:00	24200	29	-54.9		264	9	13.2
2025-10-03T12:00	24250	28	-55.1		265	9	13.3
2025-10-03T12:00	24300	28	-54.6		265	8	13.4
2025-10-03T12:00	24350	28	-54.4		265	7	13.4
2025-10-03T12:00	24400	28	-54.3		268	6	13.4
2025-10-03T12:00	24450	27	-54.0		268	5	13.3
2025-10-03T12:00	24500	27	-53.9		261	4	13.3
2025-10-03T12:00	24550	27	-53.9		257	3	13.2
2025-10-03T12:00	24600	27	-53.9		256	3	13.2
2025-10-03T12:00	24650	27	-54.2		251	4	13.3
2025-10-03T12:00	24700	26	-54.4		246	5	13.3
2025-10-03T12:00	24750	26	-54.8		245	6	13.4
2025-10-03T12:00	24800	26	-55.1		244	7	13.3
2025-10-03T12:00	24850	26	-55.3		239	7	13.3
2025-10-03T12:00	24900	26	-55.2		234	7	13.3
2025-10-03T12:00	24950	25	-55.2		236	7	13.3
2025-10-03T12:00	25000	25	-55.3		242	7	13.3
2025-10-03T12:00	25050	25	-55.5		249	8	13.2
2025-10-03T12:00	25100	25	-55.6		256	8	13.2
2025-10-03T12:00	25150	25	-55.6		263	8	13.2
2025-10-03T12:00	25200	24	-55.6		271	8	13.1
2025-10-03T12:00	25250	24	-55.4		280	8	13.2
2025-10-03T12:00	25300	24	-54.9		287	7	13.2
2025-10-03T12:00	25350	24	-54.3		290	7	13.1
2025-10-03T12:00	25400	24	-54.0		292	6	13.1
2025-10-03T12:00	25450	23	-54.1		290	4	13.2
2025-10-03T12:00	25500	23	-54.1		275	3	13.1
2025-10-03T12:00	25550	23	-54.0		249	3	13.1
2025-10-03T12:00	25600	23	-54.1		231	4	13.0
2025-10-03T12:00	25650	23	-54.3		227	5	13.0
2025-10-03T12:00	25700	23	-54.5		233	5	13.0
2025-10-03T12:00	25750	22	-54.4		242	6	12.9
2025-10-03T12:00	25800	22	-54.3		251	6	12.9
2025-10-03T12:00	25850	22	-54.7		259	7	12.8
2025-10-03T12:00	25900	22	-54.8		263	8	12.8
2025-10-03T12:00	25950	22	-54.7		260	8	12.7
2025-10-03T12:00	26000	22	-54.4		253	8	12.7
2025-10-03T12:00	26050	21	-54.2		246	7	12.7
2025-10-03T12:00	26100	21	-54.4		242	8	12.7
2025-10-03T12:00	26150	21	-54.7		242	8	12.6
2025-10-03T12:00	26200	21	-54.4		245	7	12.5
2025-10-03T12:00	26250	21	-54.2		251	6	12.6
2025-10-03T12:00	26300	21	-54.2		255	6	12.6
2025-10-03T12:00	26350	20	-54.4		255	6	12.6
2025-10-03T12:00	26400	20	-54.5		254	7	12.4
2025-10-03T12:00	26450	20	-54.6		250	7	12.4
2025-10-03T12:00	26500	20	-54.5		240	7	12.3
2025-10-03T12:00	26550	20	-54.1		226	6	12.2
2025-10-03T12:00	26600	20	-54.0		216	7	12.2
2025-10-03T12:00	26650	19	-54.2		211	8	12.0
2025-10-03T12:00	26700	19	-54.5		211	8	11.9
2025-10-03T12:00	26750	19	-54.8		216	9	11.7
2025-10-03T12:00	26800	19	-55.0		222	10	11.7
2025-10-03T12:00	26850	19	-55.2		226	11	11.7
2025-10-03T12:00	26900	19	-55.3		228	12	11.6
2025-10-03T12:00	26950	19	-55.1		228	13	11.6
2025-10-03T12:00	27000	18	-54.6		225	13	11.6
2025-10-03T12:00	27050	18	-54.0		222	14	11.7
2025-10-03T12:00	27100	18	-53.4		222	14	11.6
2025-10-03T12:00	27150	18	-53.4		227	14	11.4
2025-10-03T12:00	27200	18	-53.8		231	14	11.3
2025-10-03T12:00	27250	18	-53.8		232	14	11.1
2025-10-03T12:00	27300	18	-53.8		231	15	11.0
2025-10-03T12:00	27350	17	-53.5		229	16	11.1
2025-10-03T12:00	27400	17	-53.4		231	17	11.0
2025-10-03T12:00	27450	17	-53.4		237	17	10.9
2025-10-03T12:00	27500	17	-52.9		244	18	10.8
2025-10-03T12:00	27550	17	-52.3		249	17	10.8
2025-10-03T12:00	27600	17	-52.4		253	17	10.8
2025-10-03T12:00	27650	17	-52.2		256	17	10.7
2025-10-03T12:00	27700	17	-52.1		258	17	10.5
2025-10-03T12:00	27750	16	-52.1		261	18	10.4
2025-10-03T12:00	27800	16	-52.2		262	18	10.3
2025-10-03T12:00	27850	16	-51.8		262	18	10.3
2025-10-03T12:00	27900	16	-51.5		262	18	10.2
2025-10-03T12:00	27950	16	-51.1		264	18	10.1
2025-10-03T12:00	28000	16	-51.1		267	17	10.2
2025-10-03T12:00	28050	16	-50.9		268	15	10.1
2025-10-03T12:00	28100	16	-50.5		267	15	10.0
2025-10-03T12:00	28150	15	-50.0		264	15	9.9
2025-10-03T12:00	28200	15	-49.8		260	15	9.7
2025-10-03T12:00	28250	15	-49.7		256	15	9.6
2025-10-03T12:00	28300	15	-49.4		254	16	9.4
2025-10-03T12:00	28350	15	-49.0		256	16	9.3
2025-10-03T12:00	28400	15	-48.7		260	16	9.3
2025-10-03T12:00	28450	15	-49.0		266	15	9.2
2025-10-03T12:00	28500	15	-49.3		271	15	9.2
2025-10-03T12:00	28550	15	-49.5		273	16	9.2
2025-10-03T12:00	28600	14	-49.1		271	17	9.1
2025-10-03T12:00	28650	14	-48.6		268	18	9.1
2025-10-03T12:00	28700	14	-48.6		267	19	9.1
2025-10-03T12:00	28750	14	-48.6		267	21	9.1
2025-10-03T12:00	28800	14	-48.6		268	22	9.1
2025-10-03T12:00	28850	14	-48.5		270	23	9.0
2025-10-03T12:00	28900	14	-48.1		273	22	9.1
2025-10-03T12:00	28950	14	-47.6		276	20	9.1
2025-10-03T12:00	29000	14	-47.5		277	19	9.1
2025-10-03T12:00	29050	13	-47.7		279	18	8.9
2025-10-03T12:00	29100	13	-47.9		282	16	8.9
2025-10-03T12:00	29150	13	-48.1		286	15	8.9
2025-10-03T12:00	29200	13	-48.4		290	14	8.8
2025-10-03T12:00	29250	13	-48.8		294	14	8.7
2025-10-03T12:00	29300	13	-49.0		299	13	8.6
2025-10-03T12:00	29350	13	-48.9		302	13	8.5
2025-10-03T12:00	29400	13	-48.6		301	13	8.5
2025-10-03T12:00	29450	13	-48.5		298	13	8.5
2025-10-03T12:00	29500	13	-48.6		296	14	8.4
2025-10-03T12:00	29550	12	-48.7		294	13	8.4
2025-10-03T12:00	29600	12	-48.6		291	12	8.4
2025-10-03T12:00	29650	12	-48.6		289	12	8.3
2025-10-03T12:00	29700	12	-48.3		290	13	8.4
2025-10-03T12:00	29750	12	-48.0		295	15	8.3
2025-10-03T12:00	29800	12	-48.1		300	16	8.2
2025-10-03T12:00	29850	12	-48.3		303	17	8.1
2025-10-03T12:00	29900	12	-48.3		304	17	8.1
2025-10-03T12:00	29950	12	-48.3		306	16	8.0
2025-10-03T12:00	30000	12	-48.6		309	16	7.9
2025-10-03T12:00	30050	12	-48.7		309	16	7.8
2025-10-03T12:00	30100	11	-48.3		304	16	7.8
2025-10-03T12:00	30150	11	-48.1		300	16	7.8
2025-10-03T12:00	30200	11	-47.8		299	16	7.8
2025-10-03T12:00	30250	11	-47.9		299	15	7.7
2025-10-03T12:00	30300	11	-48.0		299	14	7.6
2025-10-03T12:00	30350	11	-48.0		296	14	7.5
2025-10-03T12:00	30400	11	-47.6		292	15	7.5
2025-10-03T12:00	30450	11	-47.1		289	15	7.4
2025-10-03T12:00	30500	11	-46.8		286	14	7.4
2025-10-03T12:00	30550	11	-46.3		285	12	7.5
2025-10-03T12:00	30600	11	-45.8		287	12	7.4
2025-10-03T12:00	30650	11	-45.3		290	14	7.4
2025-10-03T12:00	30700	10	-44.6		291	15	7.4
2025-10-03T12:00	30750	10	-44.4		292	17	7.3
2025-10-03T12:00	30800	10	-44.4		290	17	7.3
2025-10-03T12:00	30850	10	-43.6		285	15	7.3
2025-10-03T12:00	30900	10	-43.1		279	13	7.3
2025-10-03T12:00	30950	10	-43.0		274	12	7.3
2025-10-03T12:00	31000	10	-43.1		266	11	7.1
2025-10-03T12:00	31050	10	-43.3		254	10	7.2
2025-10-03T12:00	31100	10	-43.3		240	10	7.1
2025-10-03T12:00	31150	10	-43.1		235	10	7.1
2025-10-03T12:00	31200	10	-42.3		241	10	7.1
2025-10-03T12:00	31250	10	-41.9		250	10	7.1
2025-10-03T12:00	31300	10	-42.0		258	11	7.0
2025-10-03T12:00	31350	10	-42.2		263	12	7.0
2025-10-03T12:00	31400	9	-42.3		267	12	6.9
2025-10-03T12:00	31450	9	-42.4		271	13	7.0
2025-10-03T12:00	31500	9	-42.7		273	13	6.9
2025-10-03T12:00	31550	9	-42.9		274	14	6.8
2025-10-03T12:00	31600	9	-43.0		276	15	6.8
2025-10-03T12:00	31650	9	-43.2		279	16	6.7
2025-10-03T12:00	31700	9	-43.5		282	17	6.6
2025-10-03T12:00	31750	9	-43.7		285	18	6.6
2025-10-03T12:00	31800	9	-43.8		288	18	6.6
2025-10-03T12:00	31850	9	-43.2		290	18	6.5
2025-10-03T12:00	31900	9	-41.8		288	17	6.5
2025-10-03T12:00	31950	9	-41.6		282	15	6.4
2025-10-03T12:00	32000	9	-41.7		274	13	6.5
2025-10-03T12:00	32050	9	-41.6		265	11	6.4
2025-10-03T12:00	32100	9	-41.5		252	10	6.3
2025-10-03T12:00	32150	8	-41.1		238	10	6.2
2025-10-03T12:00	32200	8	-40.7		228	10	6.2
2025-10-03T12:00	32250	8	-40.4		223	10	6.1
2025-10-03T12:00	32300	8	-40.6		219	11	6.0
2025-10-03T12:00	32350	8	-41.1		217	12	6.0
2025-10-03T12:00	32400	8	-41.2		220	13	6.0
2025-10-03T12:00	32450	8	-40.9		226	13	5.9
2025-10-03T12:00	32500	8	-40.8		233	13	5.9
2025-10-03T12:00	32550	8	-40.9		239	13	5.8
2025-10-03T12:00	32600	8	-40.6		245	14	5.8
2025-10-03T12:00	32650	8	-40.6		251	15	5.8
2025-10-03T12:00	32700	8	-40.6		256	16	5.8
2025-10-03T12:00	32750	8	-40.5		259	17	5.8
2025-10-03T12:00	32800	8	-40.5		262	17	5.7
2025-10-03T12:00	32850	8	-40.5		264	17	5.7
2025-10-03T12:00	32900	8	-40.3		268	17	5.6
2025-10-03T12:00	32950	8	-40.5		274	18	5.5
2025-10-03T12:00	33000	7	-40.5		279	19	5.5
2025-10-03T12:00	33050	7	-40.1		281	20	5.5
2025-10-03T12:00	33100	7	-39.6		281	19	5.4
2025-10-03T12:00	33150	7	-39.3		279	18	5.4
2025-10-03T12:00	33200	7	-39.3		277	16	5.3
2025-10-03T12:00	33250	7	-39.4		276	14	5.2
2025-10-03T12:00	33300	7	-39.6		278	13	5.3
2025-10-03T12:00	33350	7	-39.4		280	12	5.2
2025-10-03T12:00	33400	7	-39.0		286	12	5.1
2025-10-03T12:00	33450	7	-38.6		291	13	5.0
2025-10-03T12:00	33500	7	-37.8		289	12	5.0
2025-10-03T12:00	33550	7	-37.5		281	12	5.0
2025-10-03T12:00	33600	7	-37.5		274	12	5.0
2025-10-03T12:00	33650	7	-37.6		266	12	4.9
2025-10-03T12:00	33700	7	-37.9		260	13	4.9
2025-10-03T12:00	33750	7	-38.2		256	13	4.8
2025-10-03T12:00	33800	7	-38.5		253	14	4.7
2025-10-03T12:00	33850	7	-38.9		252	15	4.8
2025-10-03T12:00	33900	7	-39.3		253	16	4.7
2025-10-03T12:00	33950	6	-39.7		255	17	4.7
2025-10-03T12:00	34000	6	-40.1		257	18	4.6
2025-10-03T12:00	34050	6	-40.4		262	19	4.5
2025-10-03T12:00	34100	6	-40.2		265	17	4.5
2025-10-03T12:00	34150	6	-39.7		265	15	4.5
2025-10-03T12:00	34200	6	-39.6		265	13	4.4
2025-10-03T12:00	34250	6	-39.6		267	11	4.5
2025-10-03T12:00	34300	6	-39.5		274	11	4.4
2025-10-03T12:00	34350	6	-39.4		283	11	4.4
2025-10-03T12:00	34400	6	-39.3		293	12	4.3
2025-10-03T12:00	34450	6	-39.1		300	14	4.3
2025-10-03T12:00	34500	6	-38.9		305	15	4.3
2025-10-03T12:00	34550	6	-38.5		305	14	4.2
2025-10-03T12:00	34600	6	-37.8		301	12	4.1
2025-10-03T12:00	34650	6	-37.6		292	10	4.1
2025-10-03T12:00	34700	6	-37.5		283	9	4.0
2025-10-03T12:00	34750	6	-37.5		273	8	4.0
2025-10-03T12:00	34800	6	-37.5		257	7	4.0
2025-10-03T12:00	34850	6	-37.6		242	7	4.0
2025-10-03T12:00	34900	6	-37.6		232	8	
2025-10-03T12:00	34950	6	-37.5		225	9	
2025-10-03T12:00	35000	6	-37.6		221	10	
2025-10-03T12:00	35050	6	-37.7		219	12	
2025-10-03T12:00	35100	5	-37.5		218	13	
2025-10-03T12:00	35150	5	-37.4		216	14	
2025-10-03T12:00	35200	5	-37.4		217	14	
2025-10-03T12:00	35250	5	-37.5		221	14	
2025-10-03T12:00	35300	5	-37.3		224	15	
2025-10-03T12:00	35350	5	-36.9		229	15	
2025-10-03T12:00	35400	5	-36.6		231	16	
2025-10-03T12:00	35450	5	-36.3		234	16	
2025-10-03T12:00	35500	5	-35.9		238	17	
2025-10-03T12:00	35550	5	-36.1		239	17	
2025-10-03T12:00	35600	5	-36.4		238	18	
2025-10-03T12:00	35650	5	-36.6		239	18	
2025-10-03T12:00	35700	5	-36.9		243	18	
2025-10-03T12:00	35750	5	-36.9		249	18	
2025-10-03T12:00	35800	5	-36.8		255	18	
2025-10-03T12:00	35850	5	-36.6		261	19	
2025-10-03T12:00	35900	5	-35.6		264	18	
2025-10-03T12:00	35950	5	-34.5		263	17	
2025-10-03T12:00	36000	5	-34.2		265	16	
2025-10-03T12:00	36050	5	-34.4		263	15	
2025-10-03T12:00	36100	5	-34.5		261	14	
2025-10-03T12:00	36150	5	-34.7		263	12	
2025-10-03T12:00	36200	5	-34.9		267	11	
2025-10-03T12:00	36250	5	-35.3		272	10	
2025-10-03T12:00	36300	5	-35.7		279	9	
2025-10-03T12:00	36350	5	-35.9		287	7	
2025-10-03T12:00	36400	5	-35.9		290	7	
2025-10-04T00:00	491	961	10.1	9.0	200	2	
2025-10-04T00:00	501	959	10.2	8.7	213	3	
2025-10-04T00:00	520	958	10.4	8.6	216	4	
2025-10-04T00:00	540	955	10.4	8.1	215	4	
2025-10-04T00:00	560	953	10.6	7.6	214	5	
2025-10-04T00:00	580	951	11.0	7.1	212	5	
2025-10-04T00:00	600	949	11.1	6.8	209	6	
2025-10-04T00:00	620	946	11.6	6.5	208	6	
2025-10-04T00:00	640	944	11.7	6.4	207	6	
2025-10-04T00:00	660	942	11.9	6.5	207	6	
2025-10-04T00:00	680	940	12.1	6.4	210	6	
2025-10-04T00:00	700	937	11.9	6.4	212	7	
2025-10-04T00:00	720	935	11.8	6.3	215	7	
2025-10-04T00:00	740	933	11.8	6.3	218	8	
2025-10-04T00:00	760	931	11.7	6.3	220	8	
2025-10-04T00:00	780	929	11.5	6.3	222	9	
2025-10-04T00:00	800	926	11.3	6.3	224	9	
2025-10-04T00:00	820	924	11.2	6.2	225	9	
2025-10-04T00:00	840	922	11.0	6.1	226	10	
2025-10-04T00:00	860	920	10.9	6.0	228	10	
2025-10-04T00:00	880	917	10.8	5.7	231	10	
2025-10-04T00:00	900	916	10.8	5.5	233	11	
2025-10-04T00:00	920	913	10.8	5.0	236	11	
2025-10-04T00:00	940	911	10.9	4.2	238	11	
2025-10-04T00:00	960	909	11.4	1.9	241	11	
2025-10-04T00:00	980	907	12.5	-0.2	243	11	
2025-10-04T00:00	1000	905	12.6	-0.8	245	11	
2025-10-04T00:00	1020	902	12.6	-1.2	246	11	
2025-10-04T00:00	1040	900	12.6	-1.5	246	10	
2025-10-04T00:00	1060	898	12.4	-1.7	246	10	
2025-10-04T00:00	1080	896	12.2	-1.7	245	10	
2025-10-04T00:00	1100	894	12.0	-1.7	244	10	
2025-10-04T00:00	1120	891	11.9	-1.8	243	9	
2025-10-04T00:00	1140	889	11.7	-2.0	243	9	
2025-10-04T00:00	1160	887	11.6	-2.0	242	9	
2025-10-04T00:00	1180	885	11.4	-2.1	242	9	
2025-10-04T00:00	1200	883	11.3	-2.2	242	9	
2025-10-04T00:00	1220	881	11.1	-2.3	243	9	
2025-10-04T00:00	1240	879	10.9	-2.5	243	9	
2025-10-04T00:00	1260	877	10.8	-2.5	244	9	
2025-10-04T00:00	1280	875	10.6	-2.4	245	9	
2025-10-04T00:00	1300	872	10.4	-2.2	245	9	
2025-10-04T00:00	1320	870	10.3	-2.0	246	9	
2025-10-04T00:00	1340	868	10.1	-2.3	246	9	
2025-10-04T00:00	1360	866	9.9	-2.4	247	9	
2025-10-04T00:00	1380	864	9.7	-2.3	247	9	
2025-10-04T00:00	1400	862	9.5	-2.0	247	9	
2025-10-04T00:00	1420	860	9.3	-1.3	248	9	
2025-10-04T00:00	1440	858	9.2	-0.6	248	9	
2025-10-04T00:00	1460	856	9.0	-0.6	249	9	
2025-10-04T00:00	1480	854	8.9	-1.5	250	9	
2025-10-04T00:00	1500	852	9.0	-2.4	249	9	
2025-10-04T00:00	1520	850	8.8	-2.5	247	8	
2025-10-04T00:00	1540	848	8.6	-2.6	245	8	
2025-10-04T00:00	1560	846	8.4	-2.4	242	8	
2025-10-04T00:00	1580	844	8.2	-2.4	239	8	
2025-10-04T00:00	1600	841	8.0	-2.5	235	7	
2025-10-04T00:00	1620	839	7.9	-2.8	232	7	
2025-10-04T00:00	1640	837	7.8	-3.0	231	7	
2025-10-04T00:00	1660	835	7.7	-3.2	230	7	
2025-10-04T00:00	1680	833	7.5	-3.3	230	7	
2025-10-04T00:00	1700	831	7.5	-3.6	230	7	
2025-10-04T00:00	1720	829	7.4	-4.2	231	7	
2025-10-04T00:00	1740	827	7.3	-4.5	232	8	
2025-10-04T00:00	1760	825	7.3	-4.3	233	9	
2025-10-04T00:00	1780	824	7.3	-3.5	233	9	
2025-10-04T00:00	1800	821	7.2	-3.0	234	10	
2025-10-04T00:00	1820	819	7.1	-2.4	234	11	
2025-10-04T00:00	1840	817	7.0	-1.9	234	12	
2025-10-04T00:00	1860	815	7.0	-1.7	233	12	
2025-10-04T00:00	1880	813	6.9	-2.0	232	13	
2025-10-04T00:00	1900	811	7.1	-3.3	231	13	
2025-10-04T00:00	1920	809	7.0	-4.7	229	13	
2025-10-04T00:00	1940	807	7.0	-6.5	228	13	
2025-10-04T00:00	1960	806	6.9	-6.7	227	13	
2025-10-04T00:00	1980	803	6.8	-7.3	226	13	
2025-10-04T00:00	2000	801	6.9	-4.7	226	13	
2025-10-04T00:00	2020	800	6.8	-2.1	226	13	
2025-10-04T00:00	2040	798	6.6	-1.7	227	12	
2025-10-04T00:00	2060	796	6.4	-1.5	230	12	
2025-10-04T00:00	2080	794	6.2	-1.5	234	11	
2025-10-04T00:00	2100	792	6.1	-1.5	238	11	
2025-10-04T00:00	2120	790	5.9	-1.1	240	12	
2025-10-04T00:00	2140	788	5.8	-1.0	241	12	
2025-10-04T00:00	2160	786	5.6	-0.7	242	13	
2025-10-04T00:00	2180	784	5.4	-0.9	242	13	
2025-10-04T00:00	2200	782	5.2	-0.8	242	13	
2025-10-04T00:00	2220	780	5.1	-0.7	242	13	
2025-10-04T00:00	2240	779	4.9	-0.4	242	13	
2025-10-04T00:00	2260	776	4.7	-0.4	244	13	
2025-10-04T00:00	2280	775	4.5	-0.4	245	13	
2025-10-04T00:00	2300	773	4.3	-0.4	247	13	
2025-10-04T00:00	2320	771	4.1	-0.4	249	13	
2025-10-04T00:00	2340	769	3.9	-0.3	251	13	
2025-10-04T00:00	2360	767	3.7	0.0	253	12	
2025-10-04T00:00	2380	765	3.4	0.3	255	12	
2025-10-04T00:00	2400	763	3.3	0.1	256	12	
2025-10-04T00:00	2420	761	3.1	0.0	256	12	
2025-10-04T00:00	2440	760	3.0	0.0	257	12	
2025-10-04T00:00	2460	758	2.7	0.2	258	11	
2025-10-04T00:00	2480	756	2.5	0.1	259	11	
2025-10-04T00:00	2500	754	2.3	0.3	261	11	
2025-10-04T00:00	2520	752	2.3	1.2	263	11	
2025-10-04T00:00	2540	750	2.8	2.5	265	11	
2025-10-04T00:00	2560	748	2.8	2.6	267	11	
2025-10-04T00:00	2580	747	2.9	2.8	270	11	
2025-10-04T00:00	2600	745	3.1	3.1	273	11	
2025-10-04T00:00	2620	743	3.1	3.1	276	11	
2025-10-04T00:00	2640	741	3.2	3.2	279	10	
2025-10-04T00:00	2660	739	3.3	3.3	281	10	
2025-10-04T00:00	2680	737	3.3	3.3	283	9	
2025-10-04T00:00	2700	736	3.2	3.2	284	9	
2025-10-04T00:00	2720	734	3.1	3.1	284	9	
2025-10-04T00:00	2740	732	3.0	3.0	285	8	
2025-10-04T00:00	2760	730	2.9	2.9	286	9	
2025-10-04T00:00	2780	728	2.8	2.8	288	9	
2025-10-04T00:00	2800	726	2.7	2.7	289	9	
2025-10-04T00:00	2820	725	2.6	2.6	291	10	
2025-10-04T00:00	2840	723	2.5	2.5	292	11	
2025-10-04T00:00	2860	721	2.4	2.4	293	11	
2025-10-04T00:00	2880	719	2.4	2.4	293	12	
2025-10-04T00:00	2900	718	2.4	2.4	294	12	
2025-10-04T00:00	2920	716	2.4	2.4	295	13	
2025-10-04T00:00	2940	714	2.3	2.3	296	13	
2025-10-04T00:00	2960	712	2.2	2.2	298	14	
2025-10-04T00:00	2980	711	2.1	2.1	300	14	
2025-10-04T00:00	3000	709	2.1	2.1	301	14	
2025-10-04T00:00	3020	707	2.0	2.0	303	14	
2025-10-04T00:00	3040	705	1.9	1.9	305	13	
2025-10-04T00:00	3060	704	1.9	1.9	306	13	
2025-10-04T00:00	3080	702	1.7	1.7	306	13	
2025-10-04T00:00	3100	700	1.6	1.6	306	13	
2025-10-04T00:00	3120	699	1.5	1.5	306	13	
2025-10-04T00:00	3140	697	1.4	1.4	306	13	
2025-10-04T00:00	3160	695	1.3	1.3	306	14	
2025-10-04T00:00	3180	693	1.2	1.2	306	14	
2025-10-04T00:00	3200	691	1.0	1.0	306	15	
2025-10-04T00:00	3220	690	0.9	0.9	305	15	
2025-10-04T00:00	3240	688	0.8	0.8	305	15	
2025-10-04T00:00	3260	686	0.7	0.7	304	15	
2025-10-04T00:00	3280	685	0.6	0.6	303	15	
2025-10-04T00:00	3300	683	0.5	0.5	301	15	
2025-10-04T00:00	3320	681	0.3	0.3	299	14	
2025-10-04T00:00	3340	680	0.2	0.2	298	14	
2025-10-04T00:00	3360	678	0.1	0.1	297	14	
2025-10-04T00:00	3380	676	0.0	0.0	298	14	
2025-10-04T00:00	3400	674	-0.2	-0.2	300	13	
2025-10-04T00:00	3420	673	-0.3	-0.3	302	13	
2025-10-04T00:00	3440	671	-0.4	-0.4	303	13	
2025-10-04T00:00	3460	669	-0.5	-0.5	304	13	
2025-10-04T00:00	3480	668	-0.6	-0.7	303	14	
2025-10-04T00:00	3500	666	-0.7	-0.8	303	14	
2025-10-04T00:00	3520	664	-0.8	-0.9	302	14	
2025-10-04T00:00	3540	663	-1.0	-1.0	302	14	
2025-10-04T00:00	3560	661	-1.1	-1.1	302	14	
2025-10-04T00:00	3580	659	-1.2	-1.2	303	14	
2025-10-04T00:00	3600	658	-1.3	-1.5	304	14	
2025-10-04T00:00	3620	656	-1.3	-1.7	305	14	
2025-10-04T00:00	3640	655	-1.4	-1.8	307	14	
2025-10-04T00:00	3660	653	-1.5	-1.9	310	15	
2025-10-04T00:00	3680	651	-1.5	-2.0	312	15	
2025-10-04T00:00	3700	650	-1.6	-2.0	313	15	
2025-10-04T00:00	3720	648	-1.6	-2.0	314	15	
2025-10-04T00:00	3740	646	-1.7	-2.1	314	15	
2025-10-04T00:00	3760	645	-1.6	-2.3	313	14	
2025-10-04T00:00	3780	643	-1.5	-2.3	312	14	
2025-10-04T00:00	3800	642	-1.5	-2.4	311	14	
2025-10-04T00:00	3820	640	-1.5	-2.6	310	14	
2025-10-04T00:00	3840	638	-1.6	-2.7	310	14	
2025-10-04T00:00	3860	637	-1.7	-2.8	309	15	
2025-10-04T00:00	3880	635	-1.8	-2.8	309	15	
2025-10-04T00:00	3900	633	-1.9	-2.8	308	15	
2025-10-04T00:00	3920	632	-2.0	-3.0	308	15	
2025-10-04T00:00	3940	630	-2.2	-3.1	307	15	
2025-10-04T00:00	3960	629	-2.3	-3.2	307	14	
2025-10-04T00:00	3980	627	-2.4	-3.3	306	14	
2025-10-04T00:00	4000	626	-2.5	-3.5	307	14	
2025-10-04T00:00	4020	624	-2.6	-3.5	308	14	
2025-10-04T00:00	4040	622	-2.7	-3.7	309	13	
2025-10-04T00:00	4060	621	-2.8	-3.7	309	13	
2025-10-04T00:00	4080	619	-2.9	-3.9	309	13	
2025-10-04T00:00	4100	618	-3.0	-4.0	309	13	
2025-10-04T00:00	4120	616	-3.1	-4.1	308	14	
2025-10-04T00:00	4140	615	-3.3	-4.1	308	14	
2025-10-04T00:00	4160	613	-3.4	-4.1	308	15	
2025-10-04T00:00	4180	612	-3.4	-4.2	308	15	
2025-10-04T00:00	4200	610	-3.5	-4.4	309	15	
2025-10-04T00:00	4220	609	-3.7	-4.4	310	15	
2025-10-04T00:00	4240	607	-3.8	-4.6	311	15	
2025-10-04T00:00	4260	605	-3.9	-4.7	313	15	
2025-10-04T00:00	4280	604	-3.9	-4.7	313	16	
2025-10-04T00:00	4300	602	-4.1	-4.8	314	16	
2025-10-04T00:00	4320	601	-4.2	-4.9	313	16	
2025-10-04T00:00	4340	599	-4.2	-5.0	312	16	
2025-10-04T00:00	4360	598	-4.3	-5.1	312	17	
2025-10-04T00:00	4380	596	-4.4	-5.2	311	17	
2025-10-04T00:00	4400	595	-4.6	-5.4	310	16	
2025-10-04T00:00	4420	593	-4.6	-5.4	309	16	
2025-10-04T00:00	4440	592	-4.7	-5.5	309	16	
2025-10-04T00:00	4460	590	-4.8	-5.6	309	15	
2025-10-04T00:00	4480	589	-4.9	-5.7	309	15	
2025-10-04T00:00	4500	587	-5.0	-5.8	310	15	
2025-10-04T00:00	4520	586	-5.1	-6.0	310	15	
2025-10-04T00:00	4540	584	-5.2	-6.1	311	15	
2025-10-04T00:00	4560	583	-5.3	-6.4	311	15	
2025-10-04T00:00	4580	581	-5.5	-6.4	311	15	
2025-10-04T00:00	4600	580	-5.6	-6.4	311	15	
2025-10-04T00:00	4620	578	-5.8	-6.5	310	15	
2025-10-04T00:00	4640	577	-6.0	-6.7	309	15	
2025-10-04T00:00	4660	576	-6.1	-6.8	307	16	
2025-10-04T00:00	4680	574	-6.2	-6.8	307	16	
2025-10-04T00:00	4700	573	-6.2	-7.0	307	16	
2025-10-04T00:00	4720	571	-6.3	-7.1	307	16	
2025-10-04T00:00	4740	570	-6.3	-7.3	309	16	
2025-10-04T00:00	4760	568	-6.4	-7.2	310	16	
2025-10-04T00:00	4780	567	-6.5	-7.3	312	16	
2025-10-04T00:00	4800	565	-6.6	-7.2	315	16	
2025-10-04T00:00	4820	564	-6.6	-7.2	317	15	
2025-10-04T00:00	4840	562	-6.6	-7.3	318	15	
2025-10-04T00:00	4860	561	-6.7	-7.6	318	15	
2025-10-04T00:00	4880	559	-6.7	-7.7	317	15	
2025-10-04T00:00	4900	558	-6.8	-7.8	317	15	
2025-10-04T00:00	4920	557	-7.0	-7.8	318	15	
2025-10-04T00:00	4940	555	-7.1	-7.8	319	15	
2025-10-04T00:00	4960	554	-7.3	-7.8	321	16	
2025-10-04T00:00	4980	552	-7.4	-7.9	322	16	
2025-10-04T00:00	5000	551	-7.5	-8.0	324	16	
2025-10-04T00:00	5020	550	-7.6	-8.1	325	16	
2025-10-04T00:00	5040	548	-7.7	-8.2	325	15	
2025-10-04T00:00	5060	547	-7.7	-8.3	326	15	
2025-10-04T00:00	5080	545	-7.8	-8.4	327	15	
2025-10-04T00:00	5100	544	-7.9	-8.6	328	15	
2025-10-04T00:00	5120	543	-8.0	-8.6	328	15	
2025-10-04T00:00	5140	541	-8.0	-8.7	328	16	
2025-10-04T00:00	5160	540	-8.1	-8.7	328	16	
2025-10-04T00:00	5180	538	-8.2	-8.7	327	16	
2025-10-04T00:00	5200	537	-8.2	-8.9	327	16	
2025-10-04T00:00	5220	536	-8.3	-9.1	327	16	
2025-10-04T00:00	5240	534	-8.4	-9.3	326	16	
2025-10-04T00:00	5260	533	-8.4	-9.3	326	16	
2025-10-04T00:00	5280	531	-8.5	-9.5	326	16	
2025-10-04T00:00	5300	530	-8.5	-9.6	326	16	
2025-10-04T00:00	5320	529	-8.6	-9.7	327	17	
2025-10-04T00:00	5340	527	-8.7	-9.8	327	17	
2025-10-04T00:00	5360	526	-8.8	-9.9	328	18	
2025-10-04T00:00	5380	525	-8.9	-10.0	329	18	
2025-10-04T00:00	5400	523	-8.9	-10.2	329	18	
2025-10-04T00:00	5420	522	-8.9	-10.1	330	18	
2025-10-04T00:00	5440	521	-9.0	-10.1	331	18	
2025-10-04T00:00	5460	519	-9.2	-10.1	332	17	
2025-10-04T00:00	5480	518	-9.4	-10.1	334	17	
2025-10-04T00:00	5500	516	-9.6	-10.2	336	17	
2025-10-04T00:00	5520	515	-9.7	-10.2	337	17	
2025-10-04T00:00	5540	514	-9.9	-10.3	337	18	
2025-10-04T00:00	5560	513	-10.1	-10.3	337	19	
2025-10-04T00:00	5580	511	-10.3	-10.4	336	19	
2025-10-04T00:00	5600	510	-10.5	-10.6	334	19	
2025-10-04T00:00	5620	508	-10.6	-10.6	333	19	
2025-10-04T00:00	5640	507	-10.5	-10.6	332	19	
2025-10-04T00:00	5660	506	-10.5	-10.5	331	18	
2025-10-04T00:00	5680	505	-10.6	-10.6	331	18	
2025-10-04T00:00	5700	503	-10.5	-10.8	330	18	
2025-10-04T00:00	5720	502	-10.6	-10.8	330	18	
2025-10-04T00:00	5740	501	-10.7	-10.9	329	18	
2025-10-04T00:00	5760	499	-10.8	-11.0	329	18	
2025-10-04T00:00	5780	498	-10.9	-11.1	329	18	
2025-10-04T00:00	5800	497	-10.9	-11.3	329	18	
2025-10-04T00:00	5820	496	-11.0	-11.5	329	18	
2025-10-04T00:00	5840	494	-11.0	-11.7	329	18	
2025-10-04T00:00	5860	493	-11.1	-11.8	330	19	
2025-10-04T00:00	5880	492	-11.1	-12.0	329	19	
2025-10-04T00:00	5900	490	-11.2	-12.2	329	19	
2025-10-04T00:00	5920	489	-11.2	-12.5	329	19	
2025-10-04T00:00	5940	488	-11.2	-12.6	328	19	
2025-10-04T00:00	5960	487	-11.3	-12.7	328	19	
2025-10-04T00:00	5980	485	-11.4	-12.8	329	20	
2025-10-04T00:00	6000	484	-11.5	-13.0	329	20	
2025-10-04T00:00	6020	483	-11.5	-13.2	330	20	
2025-10-04T00:00	6040	482	-11.5	-13.3	330	21	
2025-10-04T00:00	6060	480	-11.5	-13.6	331	21	
2025-10-04T00:00	6080	479	-11.6	-13.8	331	22	
2025-10-04T00:00	6100	478	-11.6	-13.8	331	22	
2025-10-04T00:00	6120	477	-11.7	-13.9	332	22	
2025-10-04T00:00	6140	475	-11.8	-14.1	332	23	
2025-10-04T00:00	6160	474	-11.9	-14.2	332	23	
2025-10-04T00:00	6180	473	-11.9	-14.4	332	23	
2025-10-04T00:00	6200	472	-12.0	-14.7	333	23	
2025-10-04T00:00	6220	470	-12.1	-14.9	334	23	
2025-10-04T00:00	6240	469	-12.1	-15.2	335	23	
2025-10-04T00:00	6260	468	-12.1	-15.6	336	22	
2025-10-04T00:00	6280	467	-12.1	-15.8	337	22	
2025-10-04T00:00	6300	465	-12.2	-16.0	337	22	
2025-10-04T00:00	6320	464	-12.2	-16.2	337	22	
2025-10-04T00:00	6340	463	-12.3	-16.5	337	21	
2025-10-04T00:00	6360	462	-12.4	-16.7	337	21	
2025-10-04T00:00	6380	461	-12.5	-16.8	337	21	
2025-10-04T00:00	6400	459	-12.6	-16.8	337	21	
2025-10-04T00:00	6420	458	-12.7	-16.9	336	21	
2025-10-04T00:00	6440	457	-12.9	-16.8	336	22	
2025-10-04T00:00	6460	456	-13.0	-17.0	336	22	
2025-10-04T00:00	6480	455	-13.1	-17.2	336	22	
2025-10-04T00:00	6500	453	-13.2	-17.3	335	23	
2025-10-04T00:00	6520	452	-13.3	-17.2	336	23	
2025-10-04T00:00	6540	451	-13.5	-17.0	336	23	
2025-10-04T00:00	6560	450	-13.7	-16.9	336	23	
2025-10-04T00:00	6580	449	-13.8	-16.9	337	23	
2025-10-04T00:00	6600	447	-13.9	-17.0	338	23	
2025-10-04T00:00	6620	446	-14.1	-17.1	339	23	
2025-10-04T00:00	6640	445	-14.1	-17.3	339	24	
2025-10-04T00:00	6660	444	-14.2	-17.4	340	24	
2025-10-04T00:00	6680	443	-14.3	-17.5	340	24	
2025-10-04T00:00	6700	442	-14.4	-17.7	341	24	
2025-10-04T00:00	6720	440	-14.4	-17.7	342	25	
2025-10-04T00:00	6740	439	-14.5	-17.8	342	25	
2025-10-04T00:00	6760	438	-14.5	-17.9	343	25	
2025-10-04T00:00	6780	437	-14.5	-18.0	343	26	
2025-10-04T00:00	6800	436	-14.4	-18.1	344	26	
2025-10-04T00:00	6820	435	-14.4	-18.1	344	26	
2025-10-04T00:00	6840	434	-14.5	-18.1	344	26	
2025-10-04T00:00	6860	432	-14.6	-18.1	344	27	
2025-10-04T00:00	6880	431	-14.8	-18.1	344	27	
2025-10-04T00:00	6900	430	-14.9	-18.1	344	27	
2025-10-04T00:00	6920	429	-15.1	-18.2	344	26	
2025-10-04T00:00	6940	428	-15.2	-18.2	344	26	
2025-10-04T00:00	6960	427	-15.3	-18.4	345	26	
2025-10-04T00:00	6980	426	-15.4	-18.6	345	25	
2025-10-04T00:00	7000	425	-15.6	-18.6	345	25	
2025-10-04T00:00	7020	423	-15.7	-18.8	345	25	
2025-10-04T00:00	7040	422	-15.8	-19.0	345	25	
2025-10-04T00:00	7060	421	-15.9	-19.4	345	25	
2025-10-04T00:00	7080	420	-16.1	-19.6	345	25	
2025-10-04T00:00	7100	419	-16.2	-19.7	345	25	
2025-10-04T00:00	7120	418	-16.4	-19.7	345	25	
2025-10-04T00:00	7140	417	-16.6	-19.7	345	25	
2025-10-04T00:00	7160	416	-16.7	-19.7	345	25	
2025-10-04T00:00	7180	415	-16.9	-19.9	345	26	
2025-10-04T00:00	7200	413	-17.0	-20.0	345	26	
2025-10-04T00:00	7220	412	-17.2	-20.2	345	26	
2025-10-04T00:00	7240	411	-17.4	-20.3	345	26	
2025-10-04T00:00	7260	410	-17.5	-20.4	344	26	
2025-10-04T00:00	7280	409	-17.7	-20.4	344	26	
2025-10-04T00:00	7300	408	-17.8	-20.6	344	26	
2025-10-04T00:00	7320	407	-17.9	-20.9	344	27	
2025-10-04T00:00	7340	406	-18.0	-21.0	344	27	
2025-10-04T00:00	7360	405	-18.0	-21.4	345	27	
2025-10-04T00:00	7380	404	-18.1	-21.6	346	27	
2025-10-04T00:00	7400	403	-18.2	-21.8	347	27	
2025-10-04T00:00	7420	402	-18.3	-22.0	348	27	
2025-10-04T00:00	7440	400	-18.4	-22.2	348	27	
2025-10-04T00:00	7460	399	-18.6	-22.2	349	27	
2025-10-04T00:00	7480	398	-18.7	-22.2	349	27	
2025-10-04T00:00	7500	397	-18.9	-22.3	349	27	
2025-10-04T00:00	7520	396	-19.0	-22.5	348	27	
2025-10-04T00:00	7540	395	-19.1	-22.7	348	27	
2025-10-04T00:00	7560	394	-19.2	-22.8	348	27	
2025-10-04T00:00	7580	393	-19.3	-23.1	347	27	
2025-10-04T00:00	7600	392	-19.4	-23.3	347	27	
2025-10-04T00:00	7620	391	-19.5	-23.5	347	27	
2025-10-04T00:00	7640	390	-19.6	-23.6	346	27	
2025-10-04T00:00	7660	389	-19.7	-23.8	346	26	
2025-10-04T00:00	7680	388	-19.9	-23.9	346	26	
2025-10-04T00:00	7700	387	-20.1	-24.0	346	26	
2025-10-04T00:00	7720	386	-20.2	-24.2	347	26	
2025-10-04T00:00	7740	385	-20.3	-24.3	347	27	
2025-10-04T00:00	7760	383	-20.5	-24.3	347	27	
2025-10-04T00:00	7780	382	-20.7	-24.3	347	27	
2025-10-04T00:00	7800	381	-20.9	-24.4	347	27	
2025-10-04T00:00	7820	380	-21.1	-24.5	347	27	
2025-10-04T00:00	7840	379	-21.2	-24.8	348	27	
2025-10-04T00:00	7860	378	-21.3	-25.0	348	27	
2025-10-04T00:00	7880	377	-21.4	-25.1	349	27	
2025-10-04T00:00	7900	376	-21.5	-25.3	349	27	
2025-10-04T00:00	7920	375	-21.6	-25.4	349	27	
2025-10-04T00:00	7940	374	-21.7	-25.8	348	27	
2025-10-04T00:00	7960	373	-21.8	-25.9	348	27	
2025-10-04T00:00	7980	372	-22.0	-26.0	347	27	
2025-10-04T00:00	8000	371	-22.2	-26.1	346	27	
2025-10-04T00:00	8020	370	-22.3	-26.2	346	28	
2025-10-04T00:00	8040	369	-22.5	-26.4	346	28	
2025-10-04T00:00	8060	368	-22.6	-26.8	346	28	
2025-10-04T00:00	8080	367	-22.7	-27.1	347	28	
2025-10-04T00:00	8100	366	-22.8	-27.2	347	28	
2025-10-04T00:00	8120	365	-23.0	-27.2	348	28	
2025-10-04T00:00	8140	364	-23.1	-27.4	349	28	
2025-10-04T00:00	8160	363	-23.3	-27.6	349	28	
2025-10-04T00:00	8180	362	-23.4	-27.8	349	28	
2025-10-04T00:00	8200	361	-23.6	-28.0	350	28	
2025-10-04T00:00	8220	360	-23.7	-28.1	350	28	
2025-10-04T00:00	8240	359	-23.9	-28.3	350	28	
2025-10-04T00:00	8260	358	-24.0	-28.3	350	28	
2025-10-04T00:00	8280	357	-24.2	-28.4	349	28	
2025-10-04T00:00	8300	356	-24.3	-28.5	349	28	
2025-10-04T00:00	8320	355	-24.5	-28.6	349	29	
2025-10-04T00:00	8340	354	-24.7	-28.7	349	29	
2025-10-04T00:00	8360	353	-24.8	-28.8	349	29	
2025-10-04T00:00	8380	353	-25.0	-28.9	349	29	
2025-10-04T00:00	8400	351	-25.2	-28.8	350	29	
2025-10-04T00:00	8420	350	-25.3	-28.9	350	29	
2025-10-04T00:00	8440	349	-25.5	-28.9	350	30	
2025-10-04T00:00	8460	349	-25.6	-29.1	351	30	
2025-10-04T00:00	8480	348	-25.6	-29.3	351	30	
2025-10-04T00:00	8500	347	-25.7	-29.5	352	30	
2025-10-04T00:00	8520	346	-25.9	-29.6	352	31	
2025-10-04T00:00	8540	345	-26.0	-29.8	352	31	
2025-10-04T00:00	8560	344	-26.2	-30.0	352	31	
2025-10-04T00:00	8580	343	-26.3	-30.2	352	32	
2025-10-04T00:00	8600	342	-26.4	-30.4	351	32	
2025-10-04T00:00	8620	341	-26.6	-30.7	351	32	
2025-10-04T00:00	8640	340	-26.7	-31.0	350	33	
2025-10-04T00:00	8660	339	-26.9	-31.1	350	33	
2025-10-04T00:00	8680	338	-27.0	-31.2	350	33	
2025-10-04T00:00	8700	337	-27.2	-31.3	349	33	
2025-10-04T00:00	8720	336	-27.4	-31.4	349	33	
2025-10-04T00:00	8740	335	-27.5	-31.4	349	34	
2025-10-04T00:00	8760	334	-27.7	-31.6	349	34	
2025-10-04T00:00	8780	333	-27.8	-31.8	349	34	
2025-10-04T00:00	8800	332	-27.9	-31.9	349	34	
2025-10-04T00:00	8820	332	-28.1	-32.0	349	35	
2025-10-04T00:00	8840	331	-28.2	-32.0	349	35	
2025-10-04T00:00	8860	330	-28.4	-32.0	349	35	
2025-10-04T00:00	8880	329	-28.5	-32.1	349	35	
2025-10-04T00:00	8900	328	-28.7	-32.4	348	35	
2025-10-04T00:00	8920	327	-28.8	-32.6	348	35	
2025-10-04T00:00	8940	326	-29.1	-32.6	348	35	
2025-10-04T00:00	8960	325	-29.2	-32.9	347	35	
2025-10-04T00:00	8980	324	-29.4	-33.1	347	35	
2025-10-04T00:00	9000	323	-29.5	-33.3	346	35	
2025-10-04T00:00	9020	322	-29.7	-33.5	346	36	
2025-10-04T00:00	9040	322	-29.8	-33.6	346	36	
2025-10-04T00:00	9060	321	-30.0	-33.6	345	36	
2025-10-04T00:00	9080	320	-30.2	-33.6	345	36	
2025-10-04T00:00	9100	319	-30.3	-33.5	345	36	
2025-10-04T00:00	9120	318	-30.5	-33.8	345	37	
2025-10-04T00:00	9140	317	-30.6	-34.0	344	37	
2025-10-04T00:00	9160	316	-30.8	-34.2	344	37	
2025-10-04T00:00	9180	315	-31.0	-34.5	344	36	
2025-10-04T00:00	9200	314	-31.1	-34.9	344	36	
2025-10-04T00:00	9220	313	-31.3	-35.0	344	36	
2025-10-04T00:00	9240	313	-31.4	-35.0	344	36	
2025-10-04T00:00	9260	312	-31.6	-35.3	344	36	
2025-10-04T00:00	9280	311	-31.8	-35.4	344	36	
2025-10-04T00:00	9300	310	-32.0	-35.2	344	36	
2025-10-04T00:00	9320	309	-32.1	-35.4	343	36	
2025-10-04T00:00	9340	308	-32.3	-35.8	343	36	
2025-10-04T00:00	9360	307	-32.5	-36.0	343	36	
2025-10-04T00:00	9380	307	-32.7	-36.1	343	36	
2025-10-04T00:00	9400	306	-32.8	-36.1	343	36	
2025-10-04T00:00	9420	305	-33.0	-36.0	344	36	
2025-10-04T00:00	9440	304	-33.2	-36.3	344	36	
2025-10-04T00:00	9460	303	-33.4	-36.6	344	36	
2025-10-04T00:00	9480	302	-33.5	-36.8	344	36	
2025-10-04T00:00	9500	301	-33.7	-36.9	344	36	
2025-10-04T00:00	9520	300	-33.9	-36.9	344	36	
2025-10-04T00:00	9540	300	-34.0	-36.9	344	36	
2025-10-04T00:00	9560	299	-34.2	-37.1	344	36	
2025-10-04T00:00	9580	298	-34.4	-37.3	344	36	
2025-10-04T00:00	9600	297	-34.6	-37.4	343	36	
2025-10-04T00:00	9620	296	-34.7	-37.3	343	36	
2025-10-04T00:00	9640	295	-34.9	-37.6	343	35	
2025-10-04T00:00	9660	294	-35.1	-38.0	343	35	
2025-10-04T00:00	9680	294	-35.2	-38.3	343	35	
2025-10-04T00:00	9700	293	-35.4	-38.3	344	35	
2025-10-04T00:00	9720	292	-35.6	-38.6	344	35	
2025-10-04T00:00	9740	291	-35.8	-39.0	344	36	
2025-10-04T00:00	9760	290	-35.9	-39.3	344	36	
2025-10-04T00:00	9780	289	-36.0	-39.6	344	36	
2025-10-04T00:00	9800	289	-36.2	-39.7	344	36	
2025-10-04T00:00	9820	288	-36.4	-39.8	344	36	
2025-10-04T00:00	9840	287	-36.5	-40.1	344	36	
2025-10-04T00:00	9860	286	-36.7	-40.2	343	36	
2025-10-04T00:00	9880	285	-36.8	-40.7	343	36	
2025-10-04T00:00	9900	284	-36.9	-41.7	343	36	
2025-10-04T00:00	9920	284	-37.0	-41.9	342	36	
2025-10-04T00:00	9940	283	-37.1	-41.9	342	36	
2025-10-04T00:00	9960	282	-37.2	-42.6	342	37	
2025-10-04T00:00	9980	281	-37.3	-43.3	342	37	
2025-10-04T00:00	10000	280	-37.4	-43.4	342	37	
2025-10-04T00:00	10018	280	-37.5	-43.6	342	37	
2025-10-04T00:00	10050	278	-37.8	-43.9	343	37	
2025-10-04T00:00	10100	276	-38.2	-44.0	344	38	
2025-10-04T00:00	10150	274	-38.7	-44.2	344	38	
2025-10-04T00:00	10200	272	-39.1	-44.6	345	38	
2025-10-04T00:00	10250	270	-39.5	-45.3	346	38	
2025-10-04T00:00	10300	268	-39.8	-45.6	346	37	
2025-10-04T00:00	10350	266	-40.2	-46.6	346	37	
2025-10-04T00:00	10400	264	-40.6	-47.1	347	36	
2025-10-04T00:00	10450	263	-40.9	-47.3	347	35	
2025-10-04T00:00	10500	261	-41.3	-47.7	346	35	
2025-10-04T00:00	10550	259	-41.7	-48.4	345	35	
2025-10-04T00:00	10600	257	-42.0	-49.1	343	35	
2025-10-04T00:00	10650	255	-42.4	-49.2	342	34	
2025-10-04T00:00	10700	253	-42.7	-50.1	341	34	
2025-10-04T00:00	10750	251	-42.9	-51.3	340	34	
2025-10-04T00:00	10800	249	-43.3	-51.5	340	34	
2025-10-04T00:00	10850	247	-43.7	-51.0	341	33	
2025-10-04T00:00	10900	246	-44.2	-51.1	342	33	
2025-10-04T00:00	10950	244	-44.7	-51.2	342	33	
2025-10-04T00:00	11000	242	-45.1	-51.3	342	33	
2025-10-04T00:00	11050	240	-45.5	-51.8	342	33	
2025-10-04T00:00	11100	238	-46.0	-52.1	342	33	
2025-10-04T00:00	11150	237	-46.5	-52.5	343	33	
2025-10-04T00:00	11200	235	-47.0	-53.5	343	34	
2025-10-04T00:00	11250	233	-47.4	-55.1	342	34	
2025-10-04T00:00	11300	231	-47.8	-55.6	342	35	
2025-10-04T00:00	11350	230	-48.3	-55.4	341	35	
2025-10-04T00:00	11400	228	-48.7	-55.3	340	35	
2025-10-04T00:00	11450	226	-49.2	-55.5	339	35	
2025-10-04T00:00	11500	224	-49.7	-55.5	339	34	
2025-10-04T00:00	11550	223	-50.1	-54.8	339	35	
2025-10-04T00:00	11600	221	-50.5	-55.3	339	35	
2025-10-04T00:00	11650	219	-51.0	-55.8	340	35	
2025-10-04T00:00	11700	218	-51.5	-55.7	340	36	
2025-10-04T00:00	11750	216	-51.9	-56.4	341	36	
2025-10-04T00:00	11800	214	-52.3	-57.5	341	36	
2025-10-04T00:00	11850	213	-52.7	-58.4	341	36	
2025-10-04T00:00	11900	211	-53.1	-59.0	342	36	
2025-10-04T00:00	11950	209	-53.4	-59.8	342	36	
2025-10-04T00:00	12000	208	-53.7	-61.2	341	37	
2025-10-04T00:00	12050	206	-54.0	-62.3	340	38	
2025-10-04T00:00	12100	204	-54.0	-61.8	340	39	
2025-10-04T00:00	12150	203	-54.4	-61.3	339	39	
2025-10-04T00:00	12200	201	-54.8	-61.1	340	39	
2025-10-04T00:00	12250	200	-55.2	-61.2	340	40	
2025-10-04T00:00	12300	198	-55.5	-62.0	340	41	
2025-10-04T00:00	12350	197	-55.7	-62.3	341	42	
2025-10-04T00:00	12400	195	-55.9	-62.4	341	43	
2025-10-04T00:00	12450	194	-56.2	-62.5	341	43	
2025-10-04T00:00	12500	192	-56.6	-62.7	342	43	
2025-10-04T00:00	12550	190	-57.0	-62.8	342	43	
2025-10-04T00:00	12600	189	-57.3	-63.1	341	44	
2025-10-04T00:00	12650	188	-57.6	-63.5	340	44	
2025-10-04T00:00	12700	186	-57.9	-64.1	340	45	
2025-10-04T00:00	12750	185	-58.0	-64.6	339	46	
2025-10-04T00:00	12800	183	-58.2	-65.3	339	47	
2025-10-04T00:00	12850	182	-58.5	-64.9	340	47	
2025-10-04T00:00	12900	180	-58.8	-64.9	340	47	
2025-10-04T00:00	12950	179	-59.1	-65.4	340	47	
2025-10-04T00:00	13000	177	-59.4	-65.5	340	47	
2025-10-04T00:00	13050	176	-59.8	-66.0	340	47	
2025-10-04T00:00	13100	175	-60.2	-66.3	340	48	
2025-10-04T00:00	13150	173	-60.4	-66.7	341	48	
2025-10-04T00:00	13200	172	-60.6	-67.3	342	48	
2025-10-04T00:00	13250	170	-60.8	-67.7	343	47	
2025-10-04T00:00	13300	169	-61.1	-68.1	343	47	
2025-10-04T00:00	13350	168	-61.4	-68.1	344	47	
2025-10-04T00:00	13400	166	-61.7	-68.1	345	46	
2025-10-04T00:00	13450	165	-61.9	-68.5	346	46	
2025-10-04T00:00	13500	164	-62.2	-68.7	346	46	
2025-10-04T00:00	13550	162	-62.5	-69.0	346	46	
2025-10-04T00:00	13600	161	-62.7	-69.0	346	46	
2025-10-04T00:00	13650	160	-63.1	-68.8	345	47	
2025-10-04T00:00	13700	158	-63.2	-69.5	344	46	
2025-10-04T00:00	13750	157	-63.4	-70.1	343	46	
2025-10-04T00:00	13800	156	-63.6	-70.5	344	45	
2025-10-04T00:00	13850	155	-63.9	-70.7	344	45	
2025-10-04T00:00	13900	153	-64.3	-70.9	345	44	
2025-10-04T00:00	13950	152	-64.7	-71.1	346	44	
2025-10-04T00:00	14000	151	-65.1	-71.8	347	43	
2025-10-04T00:00	14050	150	-65.3	-72.8	347	43	
2025-10-04T00:00	14100	148	-64.9	-73.4	349	42	
2025-10-04T00:00	14150	147	-65.0	-74.5	351	41	
2025-10-04T00:00	14200	146	-65.5	-75.8	353	41	
2025-10-04T00:00	14250	145	-65.3	-76.5	355	40	
2025-10-04T00:00	14300	144	-65.1	-77.4	357	39	
2025-10-04T00:00	14350	142	-65.3	-78.2	359	38	
2025-10-04T00:00	14400	141	-65.7	-78.5	2	36	
2025-10-04T00:00	14450	140	-65.7	-78.5	4	35	
2025-10-04T00:00	14500	139	-66.2	-78.7	6	34	
2025-10-04T00:00	14550	138	-66.6	-78.7	7	34	
2025-10-04T00:00	14600	137	-67.0	-78.7	8	34	
2025-10-04T00:00	14650	135	-67.6	-78.8	11	33	
2025-10-04T00:00	14700	134	-67.9	-79.0	14	30	
2025-10-04T00:00	14750	133	-68.2	-79.4	15	29	
2025-10-04T00:00	14800	132	-68.6	-79.6	15	29	
2025-10-04T00:00	14850	131	-69.1	-79.9	15	28	
2025-10-04T00:00	14900	130	-69.5	-80.1	16	27	
2025-10-04T00:00	14950	129	-70.0	-80.3	17	26	
2025-10-04T00:00	15000	128	-70.4	-80.6	17	25	
2025-10-04T00:00	15050	127	-70.6	-80.9	13	24	
2025-10-04T00:00	15100	126	-70.8	-81.0	11	25	
2025-10-04T00:00	15150	125	-71.2	-81.2	10	24	
2025-10-04T00:00	15200	124	-71.6	-81.3	9	24	
2025-10-04T00:00	15250	123	-72.0	-81.3	7	24	
2025-10-04T00:00	15300	122	-72.3	-81.4	4	23	
2025-10-04T00:00	15350	120	-72.6	-81.6	1	23	
2025-10-04T00:00	15400	119	-72.9	-81.8	358	24	
2025-10-04T00:00	15450	118	-73.1	-81.9	355	24	
2025-10-04T00:00	15500	117	-73.3	-82.1	351	25	
2025-10-04T00:00	15550	116	-73.5	-82.3	348	26	
2025-10-04T00:00	15600	115	-73.7	-82.7	347	27	
2025-10-04T00:00	15650	114	-73.3	-83.1	349	29	
2025-10-04T00:00	15700	114	-72.1	-83.2	351	29	
2025-10-04T00:00	15750	113	-71.3	-83.4	353	29	
2025-10-04T00:00	15800	112	-71.4	-84.0	354	28	
2025-10-04T00:00	15850	111	-71.3	-84.4	357	28	
2025-10-04T00:00	15900	110	-70.7	-84.5	1	26	
2025-10-04T00:00	15950	109	-70.2	-84.4	2	25	
2025-10-04T00:00	16000	108	-70.3	-84.7	1	23	
2025-10-04T00:00	16050	107	-70.6	-85.0	358	22	
2025-10-04T00:00	16100	106	-70.8	-85.1	354	22	
2025-10-04T00:00	16150	105	-70.8	-85.3	349	21	
2025-10-04T00:00	16200	104	-70.5	-85.2	344	21	
2025-10-04T00:00	16250	103	-70.2	-85.1	342	21	
2025-10-04T00:00	16300	103	-70.1	-85.3	344	22	
2025-10-04T00:00	16350	102	-69.6	-85.3	345	23	
2025-10-04T00:00	16400	101	-69.1	-85.2	345	23	
2025-10-04T00:00	16450	100	-68.8	-85.2	346	22	
2025-10-04T00:00	16500	99	-68.4	-85.2	349	21	
2025-10-04T00:00	16550	98	-67.9	-85.2	350	20	
2025-10-04T00:00	16600	98	-67.5	-85.3	349	19	
2025-10-04T00:00	16650	97	-67.1	-85.5	345	19	
2025-10-04T00:00	16700	96	-66.6	-85.7	342	19	
2025-10-04T00:00	16750	95	-65.9	-85.7	343	19	
2025-10-04T00:00	16800	94	-65.0	-85.4	343	18	
2025-10-04T00:00	16850	94	-65.2	-85.7	342	17	
2025-10-04T00:00	16900	93	-65.0	-85.6	340	17	
2025-10-04T00:00	16950	92	-65.0	-85.7	341	18	
2025-10-04T00:00	17000	91	-65.0	-85.8	343	18	
2025-10-04T00:00	17050	91	-64.8	-85.9	347	17	
2025-10-04T00:00	17100	90	-64.2	-85.9	352	16	
2025-10-04T00:00	17150	89	-63.6	-86.0	357	14	
2025-10-04T00:00	17200	88	-62.8	-85.7	357	13	
2025-10-04T00:00	17250	88	-62.8	-85.7	353	13	
2025-10-04T00:00	17300	87	-62.9	-85.7	350	13	
2025-10-04T00:00	17350	86	-63.1	-85.6	347	13	
2025-10-04T00:00	17400	86	-63.1	-85.6	345	13	
2025-10-04T00:00	17450	85	-62.9	-85.8	348	13	
2025-10-04T00:00	17500	84	-62.1	-85.9	356	11	
2025-10-04T00:00	17550	83	-61.4	-85.7	5	9	
2025-10-04T00:00	17600	83	-61.7	-85.6	18	7	
2025-10-04T00:00	17650	82	-62.0	-85.6	33	6	
2025-10-04T00:00	17700	81	-62.2	-85.5	43	6	
2025-10-04T00:00	17750	81	-62.3	-85.5	46	6	
2025-10-04T00:00	17800	80	-62.8	-85.6	45	6	
2025-10-04T00:00	17850	80	-63.2	-85.6	41	6	
2025-10-04T00:00	17900	79	-63.7	-85.7	37	7	
2025-10-04T00:00	17950	78	-64.2	-85.9	32	7	
2025-10-04T00:00	18000	78	-64.6	-86.1	26	7	
2025-10-04T00:00	18050	77	-64.9	-86.3	21	7	
2025-10-04T00:00	18100	76	-64.9	-86.4	18	8	
2025-10-04T00:00	18150	76	-65.1	-86.5	18	8	
2025-10-04T00:00	18200	75	-65.4	-86.5	17	9	
2025-10-04T00:00	18250	74	-65.8	-86.7	16	9	
2025-10-04T00:00	18300	74	-66.0	-86.8	13	9	
2025-10-04T00:00	18350	73	-66.1	-86.8	9	9	
2025-10-04T00:00	18400	73	-66.2	-87.0	8	9	
2025-10-04T00:00	18450	72	-66.0	-87.1	8	9	
2025-10-04T00:00	18500	71	-65.9	-87.3	1	8	
2025-10-04T00:00	18550	71	-65.3	-87.2	347	8	
2025-10-04T00:00	18600	70	-64.9	-87.2	336	8	
2025-10-04T00:00	18650	70	-64.3	-87.1	329	8	
2025-10-04T00:00	18700	69	-64.1	-87.1	322	8	
2025-10-04T00:00	18750	69	-64.1	-87.2	311	8	
2025-10-04T00:00	18800	68	-63.5	-87.0	299	8	
2025-10-04T00:00	18850	68	-63.3	-87.0	295	9	
2025-10-04T00:00	18900	67	-63.2	-86.9	301	8	
2025-10-04T00:00	18950	66	-63.3	-86.9	313	8	
2025-10-04T00:00	19000	66	-63.5	-87.0	325	8	
2025-10-04T00:00	19050	65	-63.5	-86.9	334	8	
2025-10-04T00:00	19100	65	-63.5	-87.0	343	8	
2025-10-04T00:00	19150	64	-63.5	-87.1	351	7	
2025-10-04T00:00	19200	64	-63.2	-87.0	357	5	
2025-10-04T00:00	19250	63	-63.3	-87.0	358	4	
2025-10-04T00:00	19300	63	-63.6	-87.0	351	3	
2025-10-04T00:00	19350	62	-63.8	-87.1	330	2	
2025-10-04T00:00	19400	62	-64.1	-87.3	310	3	
2025-10-04T00:00	19450	61	-64.0	-87.2	312	3	
2025-10-04T00:00	19500	61	-63.9	-87.3	324	4	
2025-10-04T00:00	19550	60	-63.8	-87.4	331	4	
2025-10-04T00:00	19600	60	-63.4	-87.3	331	4	
2025-10-04T00:00	19650	59	-63.1	-87.0	323	4	
2025-10-04T00:00	19700	59	-63.1	-86.9	314	4	
2025-10-04T00:00	19750	58	-62.9	-87.0	315	5	
2025-10-04T00:00	19800	58	-62.5	-87.2	323	5	
2025-10-04T00:00	19850	57	-61.8	-87.1	327	4	
2025-10-04T00:00	19900	57	-61.3	-86.9	324	4	
2025-10-04T00:00	19950	56	-61.0	-86.6	325	4	
2025-10-04T00:00	20000	56	-61.1	-86.5	331	3	
2025-10-04T00:00	20050	56	-61.2		334	3	
2025-10-04T00:00	20100	55	-61.1		332	4	
2025-10-04T00:00	20150	55	-61.1		330	4	
2025-10-04T00:00	20200	54	-61.3		328	4	
2025-10-04T00:00	20250	54	-61.3		319	3	
2025-10-04T00:00	20300	53	-60.8		301	3	
2025-10-04T00:00	20350	53	-60.0		293	4	
2025-10-04T00:00	20400	52	-59.6		292	5	
2025-10-04T00:00	20450	52	-59.6		290	6	
2025-10-04T00:00	20500	52	-59.8		289	7	
2025-10-04T00:00	20550	51	-60.1		293	8	
2025-10-04T00:00	20600	51	-60.3		300	10	
2025-10-04T00:00	20650	50	-60.3		303	11	
2025-10-04T00:00	20700	50	-60.1		303	12	
2025-10-04T00:00	20750	50	-59.8		304	11	
2025-10-04T00:00	20800	49	-59.7		306	10	
2025-10-04T00:00	20850	49	-59.8		310	9	
2025-10-04T00:00	20900	48	-59.7		315	8	
2025-10-04T00:00	20950	48	-60.0		323	8	
2025-10-04T00:00	21000	48	-60.2		325	7	
2025-10-04T00:00	21050	47	-59.9		320	8	
2025-10-04T00:00	21100	47	-59.8		314	8	
2025-10-04T00:00	21150	47	-59.8		314	8	
2025-10-04T00:00	21200	46	-59.6		320	7	
2025-10-04T00:00	21250	46	-59.1		331	6	
2025-10-04T00:00	21300	45	-59.1		344	4	
2025-10-04T00:00	21350	45	-59.3		355	3	
2025-10-04T00:00	21400	45	-59.5		351	2	
2025-10-04T00:00	21450	44	-59.7		292	1	
2025-10-04T00:00	21500	44	-59.8		268	2	
2025-10-04T00:00	21550	44	-59.9		273	3	
2025-10-04T00:00	21600	43	-59.9		285	4	
2025-10-04T00:00	21650	43	-60.2		295	5	
2025-10-04T00:00	21700	43	-60.3		300	5	
2025-10-04T00:00	21750	42	-60.2		306	4	
2025-10-04T00:00	21800	42	-60.0		320	2	
2025-10-04T00:00	21850	42	-59.5		9	1	
2025-10-04T00:00	21900	41	-59.6		55	1	
2025-10-04T00:00	21950	41	-59.8		8	1	
2025-10-04T00:00	22000	41	-59.6		334	1	
2025-10-04T00:00	22050	40	-59.5		299	1	
2025-10-04T00:00	22100	40	-59.3		248	2	
2025-10-04T00:00	22150	40	-59.5		230	3	
2025-10-04T00:00	22200	39	-59.3		229	4	
2025-10-04T00:00	22250	39	-59.1		236	5	
2025-10-04T00:00	22300	39	-59.1		245	5	
2025-10-04T00:00	22350	38	-59.2		255	5	
2025-10-04T00:00	22400	38	-59.4		265	6	
2025-10-04T00:00	22450	38	-59.5		274	6	
2025-10-04T00:00	22500	38	-59.8		281	6	
2025-10-04T00:00	22550	37	-59.8		282	6	
2025-10-04T00:00	22600	37	-59.7		278	5	
2025-10-04T00:00	22650	37	-59.2		273	4	
2025-10-04T00:00	22700	36	-58.8		276	4	
2025-10-04T00:00	22750	36	-58.8		282	5	
2025-10-04T00:00	22800	36	-58.7		282	5	
2025-10-04T00:00	22850	35	-58.7		277	6	
2025-10-04T00:00	22900	35	-58.7		272	6	
2025-10-04T00:00	22950	35	-58.7		273	6	
2025-10-04T00:00	23000	35	-58.3		283	6	
2025-10-04T00:00	23050	34	-57.7		296	7	
2025-10-04T00:00	23100	34	-57.6		304	8	
2025-10-04T00:00	23150	34	-57.4		306	8	
2025-10-04T00:00	23200	34	-57.3		306	7	
2025-10-04T00:00	23250	33	-57.2		310	6	
2025-10-04T00:00	23300	33	-57.2		319	5	
2025-10-04T00:00	23350	33	-57.2		327	4	
2025-10-04T00:00	23400	33	-57.2		325	3	
2025-10-04T00:00	23450	32	-56.9		309	3	
2025-10-04T00:00	23500	32	-57.1		292	3	
2025-10-04T00:00	23550	32	-57.4		286	4	
2025-10-04T00:00	23600	32	-57.6		286	5	
2025-10-04T00:00	23650	31	-57.8		287	5	
2025-10-04T00:00	23700	31	-57.4		288	5	
2025-10-04T00:00	23750	31	-57.1		283	4	
2025-10-04T00:00	23800	31	-56.4		273	4	
2025-10-04T00:00	23850	30	-56.4		255	3	
2025-10-04T00:00	23900	30	-56.3		232	4	
2025-10-04T00:00	23950	30	-56.2		214	5	
2025-10-04T00:00	24000	30	-56.2		205	6	
2025-10-04T00:00	24050	29	-55.9		204	7	
2025-10-04T00:00	24100	29	-55.6		210	8	
2025-10-04T00:00	24150	29	-55.4		218	9	
2025-10-04T00:00	24200	29	-55.0		224	10	
2025-10-04T00:00	24250	28	-55.1		227	11	
2025-10-04T00:00	24300	28	-55.5		230	11	
2025-10-04T00:00	24350	28	-55.8		232	11	
2025-10-04T00:00	24400	28	-55.9		232	10	
2025-10-04T00:00	24450	28	-55.7		233	9	
2025-10-04T00:00	24500	27	-55.3		235	9	
2025-10-04T00:00	24550	27	-55.1		240	9	
2025-10-04T00:00	24600	27	-55.2		245	8	
2025-10-04T00:00	24650	27	-55.4		250	8	
2025-10-04T00:00	24700	26	-55.1		255	8	
2025-10-04T00:00	24750	26	-55.0		259	7	
2025-10-04T00:00	24800	26	-54.7		267	6	
2025-10-04T00:00	24850	26	-54.7		281	6	
2025-10-04T00:00	24900	26	-54.9		292	6	
2025-10-04T00:00	24950	25	-55.0		295	7	
2025-10-04T00:00	25000	25	-54.8		294	7	
2025-10-04T00:00	25050	25	-54.7		293	6	
2025-10-04T00:00	25100	25	-54.6		295	5	
2025-10-04T00:00	25150	25	-54.6		297	3	
2025-10-04T00:00	25200	25	-54.8		295	3	
2025-10-04T00:00	25250	24	-54.7		291	3	
2025-10-04T00:00	25300	24	-54.7		283	4	
2025-10-04T00:00	25350	24	-54.6		272	5	
2025-10-04T00:00	25400	24	-54.6		259	6	
2025-10-04T00:00	25450	24	-54.1		249	7	
2025-10-04T00:00	25500	23	-53.8		242	7	
2025-10-04T00:00	25550	23	-53.3		234	7	
2025-10-04T00:00	25600	23	-53.0		227	5	
2025-10-04T00:00	25650	23	-52.9		222	4	
2025-10-04T00:00	25700	23	-52.7		217	3	
2025-10-04T00:00	25750	22	-52.9		207	2	
2025-10-04T00:00	25800	22	-53.3		193	2	
2025-10-04T00:00	25850	22	-53.3		189	2	
2025-10-04T00:00	25900	22	-52.9		197	3	
2025-10-04T00:00	25950	22	-53.3		210	4	
2025-10-04T00:00	26000	22	-53.3		223	5	
2025-10-04T00:00	26050	21	-53.3		233	6	
2025-10-04T00:00	26100	21	-53.5		239	8	
2025-10-04T00:00	26150	21	-53.7		243	10	
2025-10-04T00:00	26200	21	-53.9		244	12	
2025-10-04T00:00	26250	21	-54.1		245	13	
2025-10-04T00:00	26300	21	-54.4		247	14	
2025-10-04T00:00	26350	20	-54.5		249	14	
2025-10-04T00:00	26400	20	-53.9		254	13	
2025-10-04T00:00	26450	20	-54.1		261	12	
2025-10-04T00:00	26500	20	-54.2		267	11	
2025-10-04T00:00	26550	20	-53.9		269	10	
2025-10-04T00:00	26600	20	-53.7		266	8	
2025-10-04T00:00	26650	20	-53.8		258	7	
2025-10-04T00:00	26700	19	-53.8		249	7	
2025-10-04T00:00	26750	19	-54.1		237	7	
2025-10-04T00:00	26800	19	-54.1		228	8	
2025-10-04T00:00	26850	19	-54.0		222	10	
2025-10-04T00:00	26900	19	-53.9		218	11	
2025-10-04T00:00	26950	19	-53.8		216	12	
2025-10-04T00:00	27000	19	-53.0		217	13	
2025-10-04T00:00	27050	18	-52.8		221	13	
2025-10-04T00:00	27100	18	-52.8		225	13	
2025-10-04T00:00	27150	18	-53.1		228	13	
2025-10-04T00:00	27200	18	-53.4		232	13	
2025-10-04T00:00	27250	18	-53.4		236	13	
2025-10-04T00:00	27300	18	-53.7		240	13	
2025-10-04T00:00	27350	18	-54.0		245	14	
2025-10-04T00:00	27400	17	-53.9		249	15	
2025-10-04T00:00	27450	17	-53.4		252	16	
2025-10-04T00:00	27500	17	-53.3		255	18	
2025-10-04T00:00	27550	17	-53.5		258	19	
2025-10-04T00:00	27600	17	-53.7		260	19	
2025-10-04T00:00	27650	17	-53.6		260	19	
2025-10-04T00:00	27700	17	-53.0		257	18	
2025-10-04T00:00	27750	16	-51.8		254	19	
2025-10-04T00:00	27800	16	-50.4		253	19	
2025-10-04T00:00	27850	16	-49.6		253	18	
2025-10-04T00:00	27900	16	-49.6		255	17	
2025-10-04T00:00	27950	16	-49.9		257	17	
2025-10-04T00:00	28000	16	-50.3		259	16	
2025-10-04T00:00	28050	16	-50.7		263	16	
2025-10-04T00:00	28100	16	-50.9		267	17	
2025-10-04T00:00	28150	15	-50.8		271	18	
2025-10-04T00:00	28200	15	-50.5		273	19	
2025-10-04T00:00	28250	15	-50.5		274	20	
2025-10-04T00:00	28300	15	-50.5		273	20	
2025-10-04T00:00	28350	15	-50.5		273	21	
2025-10-04T00:00	28400	15	-50.7		273	21	
2025-10-04T00:00	28450	15	-50.7		273	20	
2025-10-04T00:00	28500	15	-50.4		274	19	
2025-10-04T00:00	28550	15	-50.4		276	18	
2025-10-04T00:00	28600	14	-50.1		280	18	
2025-10-04T00:00	28650	14	-49.3		285	19	
2025-10-04T00:00	28700	14	-49.1		289	19	
2025-10-04T00:00	28750	14	-49.3		292	19	
2025-10-04T00:00	28800	14	-49.2		292	19	
2025-10-04T00:00	28850	14	-48.8		291	18	
2025-10-04T00:00	28900	14	-48.8		290	17	
2025-10-04T00:00	28950	14	-48.7		291	18	
2025-10-04T00:00	29000	14	-48.5		291	18	
2025-10-04T00:00	29050	14	-48.1		291	18	
2025-10-04T00:00	29100	13	-47.1		292	19	
2025-10-04T00:00	29150	13	-46.7		294	19	
2025-10-04T00:00	29200	13	-46.4		298	19	
2025-10-04T00:00	29250	13	-46.4		301	18	
2025-10-04T00:00	29300	13	-46.6		305	19	
2025-10-04T00:00	29350	13	-46.5		308	19	
2025-10-04T00:00	29400	13	-46.3		310	19	
2025-10-04T00:00	29450	13	-46.2		310	18	
2025-10-04T00:00	29500	13	-45.2		307	16	
2025-10-04T00:00	29550	13	-44.7		302	14	
2025-10-04T00:00	29600	12	-44.6		294	13	
2025-10-04T00:00	29650	12	-44.5		285	11	
2025-10-04T00:00	29700	12	-44.5		277	11	
2025-10-04T00:00	29750	12	-44.6		273	10	
2025-10-04T00:00	29800	12	-44.6		272	10	
2025-10-04T00:00	29850	12	-44.3		273	9	
2025-10-04T00:00	29900	12	-44.4		275	9	
2025-10-04T00:00	29950	12	-44.6		280	8	
2025-10-04T00:00	30000	12	-44.5		288	7	
2025-10-04T00:00	30050	12	-44.3		294	8	
2025-10-04T00:00	30100	12	-44.6		298	9	
2025-10-04T00:00	30150	11	-44.9		301	10	
2025-10-04T00:00	30200	11	-45.1		304	12	
2025-10-04T00:00	30250	11	-45.3		308	14	
2025-10-04T00:00	30300	11	-45.3		311	15	
2025-10-04T00:00	30350	11	-45.1		313	16	
2025-10-04T00:00	30400	11	-44.6		313	15	
2025-10-04T00:00	30450	11	-44.2		311	14	
2025-10-04T00:00	30500	11	-44.3		308	12	
2025-10-04T00:00	30550	11	-43.8		304	11	
2025-10-04T00:00	30600	11	-43.1		303	10	
2025-10-04T00:00	30650	11	-42.9		305	10	
2025-10-04T00:00	30700	11	-43.1		307	10	
2025-10-04T00:00	30750	10	-43.1		305	10	
2025-10-04T00:00	30800	10	-43.0		299	10	
2025-10-04T00:00	30850	10	-43.1		292	11	
2025-10-04T00:00	30900	10	-43.0		285	11	
2025-10-04T00:00	30950	10	-42.7		280	12	
2025-10-04T00:00	31000	10	-42.6		275	12	
2025-10-04T00:00	31050	10	-42.6		271	12	
2025-10-04T00:00	31100	10	-42.8		269	12	
2025-10-04T00:00	31150	10	-43.0		269	12	
2025-10-04T00:00	31200	10	-43.0		271	11	
2025-10-04T00:00	31250	10	-43.2		270	10	
2025-10-04T00:00	31300	10	-43.2		266	10	
2025-10-04T00:00	31350	10	-43.2		261	10	
2025-10-04T00:00	31400	10	-43.5		258	10	
2025-10-04T00:00	31450	9	-43.8		254	10	
2025-10-04T00:00	31500	9	-44.1		251	11	
2025-10-04T00:00	31550	9	-44.2		249	11	
2025-10-04T00:00	31600	9	-44.1		248	12	
2025-10-04T00:00	31650	9	-44.0		248	11	
2025-10-04T00:00	31700	9	-44.0		250	11	
2025-10-04T00:00	31750	9	-44.1		254	10	
2025-10-04T00:00	31800	9	-44.2		261	9	
2025-10-04T00:00	31850	9	-44.4		269	9	
2025-10-04T00:00	31900	9	-44.5		276	8	
2025-10-04T00:00	31950	9	-44.5		281	9	
2025-10-04T00:00	32000	9	-44.4		279	9	
2025-10-04T00:00	32050	9	-43.5		275	11	
2025-10-04T00:00	32100	9	-43.0		271	13	
2025-10-04T00:00	32150	8	-43.2		270	14	
2025-10-04T00:00	32200	8	-43.6		270	15	
2025-10-04T00:00	32250	8	-44.0		273	16	
2025-10-04T00:00	32300	8	-44.3		276	16	
2025-10-04T00:00	32350	8	-44.0		280	17	
2025-10-04T00:00	32400	8	-44.2		283	17	
2025-10-04T00:00	32450	8	-44.3		285	17	
2025-10-04T00:00	32500	8	-44.6		288	17	
2025-10-04T00:00	32550	8	-44.9		291	17	
2025-10-04T00:00	32600	8	-45.2		296	16	
2025-10-04T00:00	32650	8	-45.3		303	16	
2025-10-04T00:00	32700	8	-44.3		310	16	
2025-10-04T00:00	32750	8	-42.9		314	15	
2025-10-04T00:00	32800	8	-42.4		315	14	
2025-10-04T00:00	32850	8	-42.3		313	13	
2025-10-04T00:00	32900	8	-42.6		312	12	
2025-10-04T00:00	32950	8	-42.3		311	12	
2025-10-04T00:00	33000	7	-41.9		309	13	
2025-10-04T00:00	33050	7	-41.7		304	12	
2025-10-04T00:00	33100	7	-41.5		298	12	
2025-10-04T00:00	33150	7	-41.1		292	12	
2025-10-04T00:00	33200	7	-40.8		288	11	
2025-10-04T00:00	33250	7	-40.9		284	11	
2025-10-04T00:00	33300	7	-41.2		280	12	
2025-10-04T00:00	33350	7	-41.5		274	12	
2025-10-04T00:00	33400	7	-41.7		267	12	
2025-10-04T00:00	33450	7	-41.5		262	14	
2025-10-04T00:00	33500	7	-41.4		259	15	
2025-10-04T00:00	33550	7	-41.6		257	15	
2025-10-04T00:00	33600	7	-41.8		257	16	
2025-10-04T00:00	33650	7	-42.1		257	16	
2025-10-04T00:00	33700	7	-42.4		257	16	
2025-10-04T00:00	33750	7	-42.8		257	15	
2025-10-04T00:00	33800	7	-43.2		258	15	
2025-10-04T00:00	33850	7	-43.4		261	15	
2025-10-04T00:00	33900	7	-43.4		264	15	
2025-10-04T00:00	33950	7	-43.5		268	16	
2025-10-04T00:00	34000	6	-43.6		271	16	
2025-10-04T00:00	34050	6	-43.4		274	16	
2025-10-04T00:00	34100	6	-42.9		276	15	
2025-10-04T00:00	34150	6	-42.0		280	15	
2025-10-04T00:00	34200	6	-40.9		285	15	
2025-10-04T00:00	34250	6	-40.2		286	15	
2025-10-04T00:00	34300	6	-39.7		283	15	
2025-10-04T00:00	34350	6	-39.6		278	14	
2025-10-04T00:00	34400	6	-39.5		274	14	
2025-10-04T00:00	34450	6	-39.4		274	14	
2025-10-04T00:00	34500	6	-39.1		277	14	
2025-10-04T00:00	34550	6	-39.3		282	14	
2025-10-04T00:00	34600	6	-39.4		287	14	
2025-10-04T00:00	34650	6	-39.3		293	15	
2025-10-04T00:00	34700	6	-39.2		298	14	
2025-10-04T00:00	34750	6	-39.0		301	14	
2025-10-04T00:00	34800	6	-38.4		304	12	
2025-10-04T00:00	34850	6	-37.4		310	11	
2025-10-04T00:00	34900	6	-36.9		317	10	
2025-10-04T00:00	34950	6	-36.1		325	9	
2025-10-04T00:00	35000	6	-35.3		330	7	
2025-10-04T00:00	35050	6	-35.1		337	6	
2025-10-04T00:00	35100	6	-35.1		346	5	
2025-10-04T00:00	35150	5	-35.3		358	5	
2025-10-04T00:00	35200	5	-35.5		10	5	
2025-10-04T00:00	35250	5	-35.4		22	4	
2025-10-04T00:00	35300	5	-35.4		32	3	
2025-10-04T00:00	35350	5	-35.5		50	2	
2025-10-04T00:00	35400	5	-35.5		89	1	
2025-10-04T00:00	35450	5	-35.7		114	2	
2025-10-04T00:00	35500	5	-35.4		130	2	
2025-10-04T00:00	35550	5	-35.4		149	2	
2025-10-04T00:00	35600	5	-35.4		165	3	
2025-10-04T00:00	35650	5	-35.4		176	3	
2025-10-04T00:00	35700	5	-35.5		184	4	
2025-10-04T00:00	35750	5	-35.7		191	5	
2025-10-04T00:00	35800	5	-35.8		199	6	
2025-10-04T00:00	35850	5	-35.6		208	6	
2025-10-04T00:00	35900	5	-35.0		220	7	
2025-10-04T00:00	35950	5	-34.5		231	7	
2025-10-04T00:00	36000	5	-34.7		240	8	
2025-10-04T00:00	36050	5	-34.9		247	8	
2025-10-04T00:00	36100	5	-35.2		252	9	
2025-10-04T00:00	36150	5	-35.5		254	10	
2025-10-04T00:00	36200	5	-35.9		255	11	
2025-10-04T00:00	36250	5	-36.1		258	12	
2025-10-04T00:00	36300	5	-36.2		261	13	
2025-10-04T00:00	36350	5	-36.2		261	15	
2025-10-04T00:00	36400	5	-35.8		257	16	
2025-10-04T00:00	36450	5	-35.7		256	17	
2025-10-04T00:00	36500	4	-35.7		257	17	
2025-10-04T00:00	36550	4	-35.6		258	16	
2025-10-04T00:00	36600	4	-35.9		259	15	
2025-10-04T00:00	36650	4	-36.1		259	14	
2025-10-04T00:00	36700	4	-36.1		262	14	
2025-10-04T00:00	36750	4	-36.4		265	13	
2025-10-04T00:00	36800	4	-36.6		267	13	
2025-10-04T00:00	36850	4	-36.9		269	13	
2025-10-04T00:00	36900	4	-37.2		270	12	
2025-10-04T00:00	36950	4	-37.5		268	11	
2025-10-04T12:00	491	954	18.3	9.1	204	12	
2025-10-04T12:00	501	952	18.0	8.6	213	8	
2025-10-04T12:00	520	951	17.9	8.5	216	8	
2025-10-04T12:00	540	948	17.8	8.4	215	11	
2025-10-04T12:00	560	946	17.7	8.4	214	12	
2025-10-04T12:00	580	944	17.5	8.4	214	13	
2025-10-04T12:00	600	942	17.3	8.3	213	15	
2025-10-04T12:00	620	940	17.3	8.3	214	15	
2025-10-04T12:00	640	937	17.1	8.3	214	16	
2025-10-04T12:00	660	935	16.9	8.2	215	17	
2025-10-04T12:00	680	933	16.7	8.2	216	18	
2025-10-04T12:00	700	931	16.5	8.1	217	19	
2025-10-04T12:00	720	929	16.3	8.1	217	19	
2025-10-04T12:00	740	927	16.3	8.5	219	20	
2025-10-04T12:00	760	925	16.4	8.7	220	21	
2025-10-04T12:00	780	922	16.3	8.7	220	21	
2025-10-04T12:00	800	920	16.1	8.7	220	22	
2025-10-04T12:00	820	918	15.9	8.7	221	22	
2025-10-04T12:00	840	916	15.6	8.6	221	22	
2025-10-04T12:00	860	914	15.5	8.5	221	23	
2025-10-04T12:00	880	911	15.3	8.6	221	23	
2025-10-04T12:00	900	909	15.1	8.6	222	24	
2025-10-04T12:00	920	907	14.9	8.5	222	24	
2025-10-04T12:00	940	905	14.8	8.6	222	25	
2025-10-04T12:00	960	903	14.8	8.6	222	25	
2025-10-04T12:00	980	901	14.8	9.0	222	25	
2025-10-04T12:00	1000	899	14.9	9.5	222	25	
2025-10-04T12:00	1020	897	14.9	9.7	222	25	
2025-10-04T12:00	1040	894	14.8	9.7	222	25	
2025-10-04T12:00	1060	892	14.6	9.8	222	25	
2025-10-04T12:00	1080	890	14.4	9.7	222	25	
2025-10-04T12:00	1100	888	14.2	9.6	221	25	
2025-10-04T12:00	1120	886	14.0	9.8	221	25	
2025-10-04T12:00	1140	884	13.9	9.8	221	25	
2025-10-04T12:00	1160	882	13.7	9.7	221	25	
2025-10-04T12:00	1180	880	13.6	9.6	222	25	
2025-10-04T12:00	1200	878	13.5	9.6	222	26	
2025-10-04T12:00	1220	876	13.4	9.6	223	26	
2025-10-04T12:00	1240	873	13.2	9.6	223	26	
2025-10-04T12:00	1260	872	13.1	9.5	224	25	
2025-10-04T12:00	1280	870	12.9	9.5	225	25	
2025-10-04T12:00	1300	867	12.7	9.6	226	25	
2025-10-04T12:00	1320	865	12.5	9.5	227	25	
2025-10-04T12:00	1340	863	12.4	9.5	227	25	
2025-10-04T12:00	1360	861	12.3	9.4	228	25	
2025-10-04T12:00	1380	859	12.2	9.3	228	25	
2025-10-04T12:00	1400	857	12.0	9.3	228	25	
2025-10-04T12:00	1420	855	11.9	9.2	228	25	
2025-10-04T12:00	1440	853	11.7	9.2	229	25	
2025-10-04T12:00	1460	851	11.5	9.1	230	25	
2025-10-04T12:00	1480	849	11.4	9.1	231	25	
2025-10-04T12:00	1500	847	11.3	9.0	232	25	
2025-10-04T12:00	1520	845	11.2	8.9	233	25	
2025-10-04T12:00	1540	843	11.1	9.0	233	25	
2025-10-04T12:00	1560	841	11.0	8.9	234	25	
2025-10-04T12:00	1580	839	10.9	8.8	235	25	
2025-10-04T12:00	1600	837	10.7	8.9	235	25	
2025-10-04T12:00	1620	835	10.5	8.9	236	25	
2025-10-04T12:00	1640	833	10.3	8.8	236	25	
2025-10-04T12:00	1660	831	10.1	8.9	237	25	
2025-10-04T12:00	1680	829	9.9	8.8	237	25	
2025-10-04T12:00	1700	827	9.8	8.8	237	25	
2025-10-04T12:00	1720	825	9.6	8.7	237	25	
2025-10-04T12:00	1740	823	9.5	8.7	238	25	
2025-10-04T12:00	1760	821	9.3	8.7	238	25	
2025-10-04T12:00	1780	819	9.1	8.7	238	25	
2025-10-04T12:00	1800	817	8.9	8.6	238	25	
2025-10-04T12:00	1820	815	8.7	8.5	239	25	
2025-10-04T12:00	1840	813	8.5	8.5	240	25	
2025-10-04T12:00	1860	811	8.4	8.4	241	25	
2025-10-04T12:00	1880	809	8.3	8.3	243	25	
2025-10-04T12:00	1900	807	8.2	8.2	244	25	
2025-10-04T12:00	1920	805	8.1	8.1	245	25	
2025-10-04T12:00	1940	803	8.0	8.0	246	25	
2025-10-04T12:00	1960	801	8.0	8.0	247	25	
2025-10-04T12:00	1980	799	7.9	7.9	247	25	
2025-10-04T12:00	2000	797	7.9	7.9	247	25	
2025-10-04T12:00	2020	795	7.8	7.8	247	25	
2025-10-04T12:00	2040	794	7.7	7.7	247	25	
2025-10-04T12:00	2060	792	7.6	7.6	247	24	
2025-10-04T12:00	2080	790	7.4	7.4	247	24	
2025-10-04T12:00	2100	788	7.3	7.3	247	24	
2025-10-04T12:00	2120	786	7.2	7.2	247	24	
2025-10-04T12:00	2140	784	7.1	7.1	248	24	
2025-10-04T12:00	2160	782	7.1	7.1	248	24	
2025-10-04T12:00	2180	780	7.0	7.0	248	25	
2025-10-04T12:00	2200	778	6.9	6.9	248	25	
2025-10-04T12:00	2220	776	6.7	6.7	248	25	
2025-10-04T12:00	2240	775	6.7	6.7	248	25	
2025-10-04T12:00	2260	773	6.6	6.6	249	25	
2025-10-04T12:00	2280	771	6.4	6.4	249	25	
2025-10-04T12:00	2300	769	6.3	6.3	250	25	
2025-10-04T12:00	2320	767	6.2	6.2	251	25	
2025-10-04T12:00	2340	765	6.1	6.1	252	25	
2025-10-04T12:00	2360	763	6.0	6.0	253	25	
2025-10-04T12:00	2380	762	5.9	5.9	254	25	
2025-10-04T12:00	2400	760	5.7	5.7	254	25	
2025-10-04T12:00	2420	758	5.6	5.6	254	25	
2025-10-04T12:00	2440	756	5.6	5.6	254	25	
2025-10-04T12:00	2460	754	5.5	5.5	253	25	
2025-10-04T12:00	2480	752	5.3	5.3	252	25	
2025-10-04T12:00	2500	750	5.4	5.0	252	25	
2025-10-04T12:00	2520	749	5.3	4.8	251	26	
2025-10-04T12:00	2540	747	5.2	4.8	251	26	
2025-10-04T12:00	2560	745	5.1	4.9	250	26	
2025-10-04T12:00	2580	743	5.0	5.0	250	26	
2025-10-04T12:00	2600	741	5.0	5.0	250	26	
2025-10-04T12:00	2620	739	4.9	4.8	250	26	
2025-10-04T12:00	2640	738	5.0	4.2	249	26	
2025-10-04T12:00	2660	736	5.1	3.5	249	26	
2025-10-04T12:00	2680	734	5.1	3.4	249	27	
2025-10-04T12:00	2700	732	5.1	3.1	249	27	
2025-10-04T12:00	2720	731	5.0	2.9	249	27	
2025-10-04T12:00	2740	729	4.9	2.8	249	27	
2025-10-04T12:00	2760	727	4.7	2.7	249	27	
2025-10-04T12:00	2780	725	4.5	2.6	249	27	
2025-10-04T12:00	2800	723	4.4	2.5	249	27	
2025-10-04T12:00	2820	722	4.2	2.4	250	27	
2025-10-04T12:00	2840	720	4.1	2.3	250	27	
2025-10-04T12:00	2860	718	3.9	2.2	250	27	
2025-10-04T12:00	2880	716	3.8	2.1	250	27	
2025-10-04T12:00	2900	714	3.7	1.9	250	27	
2025-10-04T12:00	2920	713	3.6	1.8	250	27	
2025-10-04T12:00	2940	711	3.5	0.9	250	26	
2025-10-04T12:00	2960	709	3.6	0.5	250	26	
2025-10-04T12:00	2980	707	3.6	0.5	250	26	
2025-10-04T12:00	3000	706	3.7	0.0	250	26	
2025-10-04T12:00	3020	704	3.8	-0.7	250	26	
2025-10-04T12:00	3040	702	3.8	-1.4	251	26	
2025-10-04T12:00	3060	700	3.7	-1.5	251	26	
2025-10-04T12:00	3080	699	3.6	-0.7	251	26	
2025-10-04T12:00	3100	697	3.6	0.0	252	26	
2025-10-04T12:00	3120	695	3.5	-0.1	252	26	
2025-10-04T12:00	3140	694	3.3	-0.1	253	26	
2025-10-04T12:00	3160	692	3.2	-0.1	254	26	
2025-10-04T12:00	3180	690	3.0	-0.1	255	26	
2025-10-04T12:00	3200	689	2.7	-0.2	256	26	
2025-10-04T12:00	3220	687	2.5	-0.2	257	26	
2025-10-04T12:00	3240	685	2.4	-0.3	257	26	
2025-10-04T12:00	3260	684	2.2	-0.3	257	27	
2025-10-04T12:00	3280	682	2.1	-0.4	258	27	
2025-10-04T12:00	3300	680	1.9	-0.4	258	27	
2025-10-04T12:00	3320	678	1.8	-0.5	259	27	
2025-10-04T12:00	3340	677	1.7	-0.7	259	27	
2025-10-04T12:00	3360	675	1.6	-0.8	260	26	
2025-10-04T12:00	3380	674	1.4	-1.0	260	26	
2025-10-04T12:00	3400	672	1.3	-1.2	260	26	
2025-10-04T12:00	3420	670	1.3	-1.5	260	25	
2025-10-04T12:00	3440	669	1.4	-1.9	260	25	
2025-10-04T12:00	3460	667	1.6	-2.7	260	25	
2025-10-04T12:00	3480	665	1.6	-3.6	260	24	
2025-10-04T12:00	3500	663	1.6	-4.3	260	25	
2025-10-04T12:00	3520	662	1.5	-4.9	260	25	
2025-10-04T12:00	3540	660	1.4	-5.5	260	25	
2025-10-04T12:00	3560	658	1.3	-5.9	259	25	
2025-10-04T12:00	3580	657	1.3	-5.6	259	25	
2025-10-04T12:00	3600	655	1.2	-5.4	259	25	
2025-10-04T12:00	3620	654	1.2	-5.8	259	25	
2025-10-04T12:00	3640	652	1.1	-5.8	260	25	
2025-10-04T12:00	3660	650	1.0	-6.1	260	25	
2025-10-04T12:00	3680	649	0.9	-6.5	260	25	
2025-10-04T12:00	3700	647	0.8	-7.1	260	25	
2025-10-04T12:00	3720	646	0.7	-7.3	260	25	
2025-10-04T12:00	3740	644	0.5	-7.5	260	25	
2025-10-04T12:00	3760	643	0.4	-7.4	261	25	
2025-10-04T12:00	3780	641	0.2	-7.5	261	25	
2025-10-04T12:00	3800	639	0.0	-7.4	261	25	
2025-10-04T12:00	3820	637	-0.2	-7.5	262	25	
2025-10-04T12:00	3840	636	-0.4	-7.6	262	26	
2025-10-04T12:00	3860	634	-0.6	-7.6	263	26	
2025-10-04T12:00	3880	633	-0.8	-7.7	264	26	
2025-10-04T12:00	3900	631	-1.0	-7.7	265	26	
2025-10-04T12:00	3920	630	-1.1	-7.9	266	26	
2025-10-04T12:00	3940	628	-1.3	-7.7	266	26	
2025-10-04T12:00	3960	627	-1.5	-7.6	267	26	
2025-10-04T12:00	3980	625	-1.7	-7.6	267	26	
2025-10-04T12:00	4000	623	-1.9	-7.7	267	26	
2025-10-04T12:00	4020	622	-2.1	-7.5	267	26	
2025-10-04T12:00	4040	620	-2.3	-7.6	266	26	
2025-10-04T12:00	4060	619	-2.4	-7.7	266	26	
2025-10-04T12:00	4080	617	-2.6	-7.8	266	26	
2025-10-04T12:00	4100	616	-2.7	-7.8	265	26	
2025-10-04T12:00	4120	614	-2.8	-7.9	265	26	
2025-10-04T12:00	4140	612	-2.9	-7.8	265	26	
2025-10-04T12:00	4160	611	-3.1	-7.9	265	26	
2025-10-04T12:00	4180	609	-3.3	-8.1	265	27	
2025-10-04T12:00	4200	608	-3.3	-8.5	265	26	
2025-10-04T12:00	4220	606	-3.4	-8.6	264	26	
2025-10-04T12:00	4240	605	-3.5	-9.1	263	26	
2025-10-04T12:00	4260	603	-3.6	-10.0	263	26	
2025-10-04T12:00	4280	602	-3.6	-11.6	262	25	
2025-10-04T12:00	4300	600	-3.7	-11.1	262	25	
2025-10-04T12:00	4320	599	-3.8	-9.0	261	24	
2025-10-04T12:00	4340	597	-3.9	-8.7	262	24	
2025-10-04T12:00	4360	596	-4.0	-8.9	262	24	
2025-10-04T12:00	4380	594	-4.1	-9.1	262	24	
2025-10-04T12:00	4400	593	-4.3	-9.4	263	24	
2025-10-04T12:00	4420	591	-4.4	-9.5	264	24	
2025-10-04T12:00	4440	590	-4.6	-9.5	264	25	
2025-10-04T12:00	4460	588	-4.8	-9.7	263	25	
2025-10-04T12:00	4480	587	-4.9	-10.1	263	25	
2025-10-04T12:00	4500	585	-5.0	-11.0	262	25	
2025-10-04T12:00	4520	584	-5.2	-11.2	260	25	
2025-10-04T12:00	4540	582	-5.3	-11.2	259	25	
2025-10-04T12:00	4560	581	-5.5	-11.1	258	25	
2025-10-04T12:00	4580	579	-5.6	-10.3	257	25	
2025-10-04T12:00	4600	578	-5.7	-10.1	257	25	
2025-10-04T12:00	4620	576	-5.8	-10.1	257	25	
2025-10-04T12:00	4640	575	-6.0	-10.3	257	26	
2025-10-04T12:00	4660	573	-6.0	-10.6	257	26	
2025-10-04T12:00	4680	572	-6.0	-11.0	258	26	
2025-10-04T12:00	4700	570	-6.0	-10.8	259	26	
2025-10-04T12:00	4720	569	-6.1	-10.8	259	27	
2025-10-04T12:00	4740	568	-6.0	-11.6	260	27	
2025-10-04T12:00	4760	566	-6.0	-11.5	261	27	
2025-10-04T12:00	4780	565	-5.9	-13.7	261	28	
2025-10-04T12:00	4800	563	-5.7	-18.0	262	28	
2025-10-04T12:00	4820	562	-5.7	-18.6	262	28	
2025-10-04T12:00	4840	561	-5.7	-18.6	262	28	
2025-10-04T12:00	4860	559	-5.6	-18.4	262	28	
2025-10-04T12:00	4880	558	-5.6	-17.5	262	28	
2025-10-04T12:00	4900	556	-5.6	-16.8	261	28	
2025-10-04T12:00	4920	555	-5.7	-14.5	261	28	
2025-10-04T12:00	4940	553	-5.9	-11.9	261	28	
2025-10-04T12:00	4960	552	-6.0	-11.5	262	28	
2025-10-04T12:00	4980	551	-6.0	-11.1	262	28	
2025-10-04T12:00	5000	549	-6.1	-11.1	263	29	
2025-10-04T12:00	5020	548	-6.3	-11.7	263	29	
2025-10-04T12:00	5040	546	-6.4	-13.5	264	29	
2025-10-04T12:00	5060	545	-6.5	-16.2	265	29	
2025-10-04T12:00	5080	544	-6.5	-18.1	266	29	
2025-10-04T12:00	5100	542	-6.6	-18.5	266	29	
2025-10-04T12:00	5120	541	-6.6	-18.2	267	29	
2025-10-04T12:00	5140	539	-6.7	-19.1	267	29	
2025-10-04T12:00	5160	538	-6.8	-19.5	267	29	
2025-10-04T12:00	5180	537	-6.9	-20.6	267	29	
2025-10-04T12:00	5200	535	-6.9	-21.3	267	29	
2025-10-04T12:00	5220	534	-7.0	-21.4	267	29	
2025-10-04T12:00	5240	532	-7.1	-21.9	268	29	
2025-10-04T12:00	5260	531	-7.1	-22.4	268	29	
2025-10-04T12:00	5280	530	-7.1	-21.5	268	29	
2025-10-04T12:00	5300	528	-7.2	-21.0	268	29	
2025-10-04T12:00	5320	527	-7.3	-21.5	268	29	
2025-10-04T12:00	5340	526	-7.4	-21.9	267	29	
2025-10-04T12:00	5360	524	-7.6	-22.4	267	29	
2025-10-04T12:00	5380	523	-7.8	-21.9	266	28	
2025-10-04T12:00	5400	522	-8.0	-22.0	266	28	
2025-10-04T12:00	5420	520	-8.1	-22.6	267	28	
2025-10-04T12:00	5440	519	-8.3	-22.9	268	29	
2025-10-04T12:00	5460	518	-8.4	-23.2	268	29	
2025-10-04T12:00	5480	516	-8.6	-23.1	269	29	
2025-10-04T12:00	5500	515	-8.7	-22.8	270	29	
2025-10-04T12:00	5520	513	-8.8	-22.4	270	29	
2025-10-04T12:00	5540	512	-8.9	-22.5	269	29	
2025-10-04T12:00	5560	511	-9.1	-21.9	269	29	
2025-10-04T12:00	5580	510	-9.3	-21.2	269	29	
2025-10-04T12:00	5600	508	-9.4	-20.3	268	29	
2025-10-04T12:00	5620	507	-9.5	-20.6	268	29	
2025-10-04T12:00	5640	506	-9.7	-21.1	268	29	
2025-10-04T12:00	5660	504	-9.8	-21.9	268	29	
2025-10-04T12:00	5680	503	-9.9	-22.3	269	30	
2025-10-04T12:00	5700	502	-10.0	-22.8	269	30	
2025-10-04T12:00	5720	500	-10.2	-22.9	269	30	
2025-10-04T12:00	5740	499	-10.3	-22.8	269	30	
2025-10-04T12:00	5760	498	-10.4	-22.9	269	30	
2025-10-04T12:00	5780	497	-10.5	-22.8	268	30	
2025-10-04T12:00	5800	495	-10.6	-22.4	267	30	
2025-10-04T12:00	5820	494	-10.8	-22.5	266	29	
2025-10-04T12:00	5840	493	-10.9	-22.8	265	29	
2025-10-04T12:00	5860	491	-11.0	-23.1	265	29	
2025-10-04T12:00	5880	490	-11.1	-22.9	265	29	
2025-10-04T12:00	5900	489	-11.2	-23.4	265	29	
2025-10-04T12:00	5920	488	-11.3	-24.0	266	29	
2025-10-04T12:00	5940	486	-11.4	-24.8	266	30	
2025-10-04T12:00	5960	485	-11.4	-26.6	267	30	
2025-10-04T12:00	5980	484	-11.5	-27.1	267	30	
2025-10-04T12:00	6000	483	-11.6	-27.1	268	31	
2025-10-04T12:00	6020	481	-11.8	-27.1	268	31	
2025-10-04T12:00	6040	480	-12.0	-27.2	268	31	
2025-10-04T12:00	6060	479	-12.2	-27.2	268	30	
2025-10-04T12:00	6080	478	-12.4	-27.1	268	30	
2025-10-04T12:00	6100	476	-12.5	-27.3	268	30	
2025-10-04T12:00	6120	475	-12.6	-27.1	268	30	
2025-10-04T12:00	6140	474	-12.7	-27.2	267	30	
2025-10-04T12:00	6160	472	-12.8	-27.7	267	29	
2025-10-04T12:00	6180	471	-12.9	-27.9	266	30	
2025-10-04T12:00	6200	470	-13.0	-28.0	265	29	
2025-10-04T12:00	6220	469	-13.0	-29.2	265	30	
2025-10-04T12:00	6240	468	-13.2	-28.9	264	30	
2025-10-04T12:00	6260	466	-13.3	-28.4	264	30	
2025-10-04T12:00	6280	465	-13.4	-28.6	264	30	
2025-10-04T12:00	6300	464	-13.5	-29.5	264	30	
2025-10-04T12:00	6320	463	-13.6	-29.7	264	30	
2025-10-04T12:00	6340	461	-13.7	-28.9	264	30	
2025-10-04T12:00	6360	460	-13.7	-28.5	264	30	
2025-10-04T12:00	6380	459	-13.9	-28.2	264	30	
2025-10-04T12:00	6400	458	-14.0	-28.5	264	29	
2025-10-04T12:00	6420	457	-14.1	-29.1	264	29	
2025-10-04T12:00	6440	455	-14.1	-30.2	264	29	
2025-10-04T12:00	6460	454	-14.2	-31.2	264	29	
2025-10-04T12:00	6480	453	-14.2	-31.9	264	29	
2025-10-04T12:00	6500	452	-14.3	-32.5	264	29	
2025-10-04T12:00	6520	451	-14.4	-32.6	264	29	
2025-10-04T12:00	6540	450	-14.5	-33.4	264	29	
2025-10-04T12:00	6560	448	-14.7	-33.9	264	30	
2025-10-04T12:00	6580	447	-14.8	-33.8	264	30	
2025-10-04T12:00	6600	446	-14.9	-33.1	265	30	
2025-10-04T12:00	6620	445	-15.0	-32.8	265	30	
2025-10-04T12:00	6640	443	-15.2	-33.2	266	31	
2025-10-04T12:00	6660	442	-15.4	-33.5	266	31	
2025-10-04T12:00	6680	441	-15.5	-33.9	267	31	
2025-10-04T12:00	6700	440	-15.7	-34.0	268	31	
2025-10-04T12:00	6720	439	-15.8	-34.7	268	31	
2025-10-04T12:00	6740	438	-15.9	-35.1	269	31	
2025-10-04T12:00	6760	437	-16.1	-35.4	269	31	
2025-10-04T12:00	6780	435	-16.3	-35.5	269	31	
2025-10-04T12:00	6800	434	-16.5	-35.8	268	31	
2025-10-04T12:00	6820	433	-16.7	-35.9	268	32	
2025-10-04T12:00	6840	432	-16.8	-36.2	268	32	
2025-10-04T12:00	6860	431	-16.9	-36.6	269	32	
2025-10-04T12:00	6880	430	-17.1	-36.6	269	32	
2025-10-04T12:00	6900	429	-17.2	-36.4	269	32	
2025-10-04T12:00	6920	427	-17.2	-36.3	269	33	
2025-10-04T12:00	6940	426	-17.2	-36.6	269	33	
2025-10-04T12:00	6960	425	-17.2	-36.5	269	34	
2025-10-04T12:00	6980	424	-17.3	-36.4	269	34	
2025-10-04T12:00	7000	423	-17.4	-36.7	270	35	
2025-10-04T12:00	7020	422	-17.5	-36.7	270	35	
2025-10-04T12:00	7040	421	-17.7	-36.5	270	36	
2025-10-04T12:00	7060	420	-17.7	-37.2	270	36	
2025-10-04T12:00	7080	418	-17.4	-37.0	270	36	
2025-10-04T12:00	7100	417	-17.3	-32.1	270	37	
2025-10-04T12:00	7120	416	-17.3	-29.7	270	37	
2025-10-04T12:00	7140	415	-17.1	-30.7	270	37	
2025-10-04T12:00	7160	414	-17.2	-31.2	271	37	
2025-10-04T12:00	7180	413	-17.4	-31.7	271	37	
2025-10-04T12:00	7200	412	-17.6	-32.8	271	37	
2025-10-04T12:00	7220	411	-17.7	-35.0	271	38	
2025-10-04T12:00	7240	409	-17.8	-36.3	271	38	
2025-10-04T12:00	7260	408	-17.9	-35.6	270	38	
2025-10-04T12:00	7280	407	-18.0	-34.0	270	38	
2025-10-04T12:00	7300	406	-18.2	-33.8	270	38	
2025-10-04T12:00	7320	405	-18.4	-32.6	269	38	
2025-10-04T12:00	7340	404	-18.6	-30.4	269	38	
2025-10-04T12:00	7360	403	-18.8	-29.3	269	38	
2025-10-04T12:00	7380	402	-19.0	-28.6	268	38	
2025-10-04T12:00	7400	401	-19.2	-27.7	268	38	
2025-10-04T12:00	7420	400	-19.3	-28.4	268	38	
2025-10-04T12:00	7440	399	-19.5	-28.3	268	38	
2025-10-04T12:00	7460	398	-19.7	-28.0	268	38	
2025-10-04T12:00	7480	396	-19.9	-27.9	268	38	
2025-10-04T12:00	7500	395	-20.0	-28.0	269	37	
2025-10-04T12:00	7520	394	-20.2	-28.1	269	37	
2025-10-04T12:00	7540	393	-20.4	-28.6	269	37	
2025-10-04T12:00	7560	392	-20.5	-29.4	269	37	
2025-10-04T12:00	7580	391	-20.6	-30.5	269	36	
2025-10-04T12:00	7600	390	-20.7	-33.2	268	36	
2025-10-04T12:00	7620	389	-20.8	-35.1	268	36	
2025-10-04T12:00	7640	388	-20.8	-37.5	267	36	
2025-10-04T12:00	7660	387	-21.0	-38.5	267	36	
2025-10-04T12:00	7680	386	-21.1	-38.6	267	36	
2025-10-04T12:00	7700	385	-21.2	-38.5	267	36	
2025-10-04T12:00	7720	384	-21.4	-39.2	267	36	
2025-10-04T12:00	7740	383	-21.5	-40.4	267	36	
2025-10-04T12:00	7760	382	-21.7	-40.6	268	36	
2025-10-04T12:00	7780	381	-21.8	-40.6	268	36	
2025-10-04T12:00	7800	380	-22.0	-40.4	269	36	
2025-10-04T12:00	7820	379	-22.1	-39.5	269	36	
2025-10-04T12:00	7840	378	-22.2	-39.5	270	36	
2025-10-04T12:00	7860	377	-22.2	-40.2	270	36	
2025-10-04T12:00	7880	376	-22.2	-40.4	270	36	
2025-10-04T12:00	7900	375	-22.4	-41.0	270	36	
2025-10-04T12:00	7920	373	-22.5	-42.0	270	36	
2025-10-04T12:00	7940	372	-22.6	-42.7	270	36	
2025-10-04T12:00	7960	372	-22.8	-42.2	270	36	
2025-10-04T12:00	7980	371	-22.9	-42.3	270	36	
2025-10-04T12:00	8000	369	-23.0	-42.5	270	36	
2025-10-04T12:00	8020	368	-23.1	-43.0	270	37	
2025-10-04T12:00	8040	368	-23.2	-43.6	270	37	
2025-10-04T12:00	8060	366	-23.3	-43.2	270	37	
2025-10-04T12:00	8080	365	-23.4	-41.8	270	37	
2025-10-04T12:00	8100	364	-23.6	-41.5	270	37	
2025-10-04T12:00	8120	364	-23.7	-41.5	269	37	
2025-10-04T12:00	8140	363	-23.9	-41.5	269	37	
2025-10-04T12:00	8160	362	-24.1	-41.5	269	37	
2025-10-04T12:00	8180	361	-24.3	-41.5	269	37	
2025-10-04T12:00	8200	359	-24.4	-41.6	269	37	
2025-10-04T12:00	8220	359	-24.6	-41.7	268	37	
2025-10-04T12:00	8240	358	-24.7	-41.7	268	37	
2025-10-04T12:00	8260	357	-24.9	-41.7	268	36	
2025-10-04T12:00	8280	356	-25.1	-41.6	267	36	
2025-10-04T12:00	8300	355	-25.2	-41.8	267	36	
2025-10-04T12:00	8320	354	-25.4	-41.8	267	36	
2025-10-04T12:00	8340	353	-25.6	-41.7	267	36	
2025-10-04T12:00	8360	352	-25.8	-41.7	267	36	
2025-10-04T12:00	8380	351	-26.0	-41.7	267	36	
2025-10-04T12:00	8400	350	-26.1	-41.8	268	36	
2025-10-04T12:00	8420	349	-26.3	-41.9	268	35	
2025-10-04T12:00	8440	348	-26.4	-42.2	268	35	
2025-10-04T12:00	8460	347	-26.5	-42.7	268	35	
2025-10-04T12:00	8480	346	-26.6	-43.2	268	35	
2025-10-04T12:00	8500	345	-26.8	-43.3	268	35	
2025-10-04T12:00	8520	344	-27.0	-43.4	268	35	
2025-10-04T12:00	8540	343	-27.1	-43.5	268	35	
2025-10-04T12:00	8560	342	-27.3	-43.5	268	35	
2025-10-04T12:00	8580	341	-27.4	-43.5	269	35	
2025-10-04T12:00	8600	340	-27.6	-43.3	270	35	
2025-10-04T12:00	8620	339	-27.7	-43.0	270	35	
2025-10-04T12:00	8640	338	-27.8	-43.0	271	35	
2025-10-04T12:00	8660	337	-27.9	-43.2	271	35	
2025-10-04T12:00	8680	336	-27.9	-43.5	271	35	
2025-10-04T12:00	8700	335	-28.0	-42.8	271	35	
2025-10-04T12:00	8720	335	-28.1	-40.1	271	35	
2025-10-04T12:00	8740	334	-28.2	-36.9	271	35	
2025-10-04T12:00	8760	333	-28.3	-34.3	271	35	
2025-10-04T12:00	8780	332	-28.4	-32.6	271	35	
2025-10-04T12:00	8800	331	-28.7	-32.7	271	35	
2025-10-04T12:00	8820	330	-28.9	-33.0	271	35	
2025-10-04T12:00	8840	329	-29.1	-33.0	272	35	
2025-10-04T12:00	8860	328	-29.2	-32.8	272	35	
2025-10-04T12:00	8880	327	-29.4	-32.6	272	35	
2025-10-04T12:00	8900	326	-29.6	-32.4	272	35	
2025-10-04T12:00	8920	325	-29.8	-32.1	273	35	
2025-10-04T12:00	8940	324	-29.9	-32.1	273	35	
2025-10-04T12:00	8960	323	-30.1	-32.3	273	35	
2025-10-04T12:00	8980	323	-30.3	-32.4	273	35	
2025-10-04T12:00	9000	322	-30.5	-32.7	273	36	
2025-10-04T12:00	9020	321	-30.6	-32.7	274	36	
2025-10-04T12:00	9040	320	-30.8	-32.5	274	36	
2025-10-04T12:00	9060	319	-31.0	-31.9	274	36	
2025-10-04T12:00	9080	318	-31.1	-31.3	275	36	
2025-10-04T12:00	9100	317	-31.3	-31.4	275	37	
2025-10-04T12:00	9120	316	-31.5	-31.7	275	37	
2025-10-04T12:00	9140	315	-31.6	-31.9	275	37	
2025-10-04T12:00	9160	314	-31.8	-32.3	275	37	
2025-10-04T12:00	9180	314	-31.8	-32.7	275	36	
2025-10-04T12:00	9200	313	-31.9	-32.9	275	36	
2025-10-04T12:00	9220	312	-32.0	-33.1	275	36	
2025-10-04T12:00	9240	311	-32.1	-33.3	274	36	
2025-10-04T12:00	9260	310	-32.2	-34.1	274	36	
2025-10-04T12:00	9280	309	-32.2	-35.3	274	35	
2025-10-04T12:00	9300	308	-32.3	-35.9	274	35	
2025-10-04T12:00	9320	308	-32.4	-35.9	274	35	
2025-10-04T12:00	9340	307	-32.5	-35.7	274	35	
2025-10-04T12:00	9360	306	-32.6	-35.6	274	35	
2025-10-04T12:00	9380	305	-32.7	-35.5	274	36	
2025-10-04T12:00	9400	304	-32.8	-35.5	274	36	
2025-10-04T12:00	9420	303	-32.9	-35.5	274	36	
2025-10-04T12:00	9440	302	-33.1	-35.5	275	36	
2025-10-04T12:00	9460	301	-33.2	-35.5	274	36	
2025-10-04T12:00	9480	300	-33.3	-35.7	274	36	
2025-10-04T12:00	9500	300	-33.5	-35.8	274	36	
2025-10-04T12:00	9520	299	-33.7	-35.9	274	36	
2025-10-04T12:00	9540	298	-33.8	-36.5	274	36	
2025-10-04T12:00	9560	297	-34.0	-38.0	274	36	
2025-10-04T12:00	9580	296	-34.2	-38.2	274	36	
2025-10-04T12:00	9600	295	-34.4	-37.9	275	36	
2025-10-04T12:00	9620	294	-34.6	-37.9	275	36	
2025-10-04T12:00	9640	294	-34.8	-38.0	275	36	
2025-10-04T12:00	9660	293	-35.0	-38.2	275	37	
2025-10-04T12:00	9680	292	-35.1	-38.2	275	37	
2025-10-04T12:00	9700	291	-35.3	-38.3	275	37	
2025-10-04T12:00	9720	290	-35.6	-38.2	275	37	
2025-10-04T12:00	9740	289	-35.8	-38.8	275	38	
2025-10-04T12:00	9760	289	-35.9	-40.3	275	38	
2025-10-04T12:00	9780	288	-35.9	-43.2	275	39	
2025-10-04T12:00	9800	287	-36.0	-45.4	275	39	
2025-10-04T12:00	9820	286	-35.9	-46.7	276	40	
2025-10-04T12:00	9840	285	-36.0	-47.9	276	40	
2025-10-04T12:00	9860	285	-36.1	-48.3	276	41	
2025-10-04T12:00	9880	284	-36.2	-48.9	276	41	
2025-10-04T12:00	9900	283	-36.3	-50.1	276	41	
2025-10-04T12:00	9920	282	-36.5	-50.4	276	41	
2025-10-04T12:00	9940	281	-36.6	-50.8	276	41	
2025-10-04T12:00	9960	280	-36.8	-51.7	277	41	
2025-10-04T12:00	9980	280	-36.8	-53.1	277	41	
2025-10-04T12:00	10000	279	-36.9	-53.3	277	42	
2025-10-04T12:00	10018	278	-36.9	-52.8	277	42	
2025-10-04T12:00	10050	277	-37.0	-53.9	277	43	
2025-10-04T12:00	10100	275	-37.1	-55.6	278	44	
2025-10-04T12:00	10150	273	-37.3	-57.2	279	44	
2025-10-04T12:00	10200	271	-37.7	-59.2	280	45	
2025-10-04T12:00	10250	269	-38.0	-60.7	280	45	
2025-10-04T12:00	10300	267	-38.3	-61.1	280	45	
2025-10-04T12:00	10350	265	-38.7	-60.4	280	45	
2025-10-04T12:00	10400	263	-39.2	-59.7	280	45	
2025-10-04T12:00	10450	261	-39.5	-59.8	280	45	
2025-10-04T12:00	10500	259	-39.8	-60.4	280	44	
2025-10-04T12:00	10550	257	-40.1	-61.3	281	44	
2025-10-04T12:00	10600	256	-40.5	-62.0	281	45	
2025-10-04T12:00	10650	254	-40.9	-61.4	281	45	
2025-10-04T12:00	10700	252	-41.3	-61.2	281	46	
2025-10-04T12:00	10750	250	-41.7	-61.2	282	47	
2025-10-04T12:00	10800	248	-42.1	-60.9	282	47	
2025-10-04T12:00	10850	246	-42.6	-60.4	283	48	
2025-10-04T12:00	10900	245	-43.0	-59.2	283	48	
2025-10-04T12:00	10950	243	-43.2	-59.3	283	48	
2025-10-04T12:00	11000	241	-43.5	-60.4	283	48	
2025-10-04T12:00	11050	239	-43.7	-60.6	284	48	
2025-10-04T12:00	11100	237	-44.0	-61.4	284	48	
2025-10-04T12:00	11150	236	-44.4	-61.8	283	48	
2025-10-04T12:00	11200	234	-44.7	-62.3	283	48	
2025-10-04T12:00	11250	232	-45.1	-63.0	282	48	
2025-10-04T12:00	11300	230	-45.5	-63.8	282	48	
2025-10-04T12:00	11350	229	-45.9	-63.8	282	48	
2025-10-04T12:00	11400	227	-46.4	-63.7	283	48	
2025-10-04T12:00	11450	225	-46.8	-63.8	283	48	
2025-10-04T12:00	11500	224	-47.2	-63.9	283	49	
2025-10-04T12:00	11550	222	-47.7	-64.0	283	48	
2025-10-04T12:00	11600	220	-48.1	-64.7	283	48	
2025-10-04T12:00	11650	218	-48.4	-65.5	282	48	
2025-10-04T12:00	11700	217	-48.6	-66.8	282	47	
2025-10-04T12:00	11750	215	-48.9	-67.2	282	47	
2025-10-04T12:00	11800	214	-49.3	-67.2	281	46	
2025-10-04T12:00	11850	212	-49.8	-67.4	281	46	
2025-10-04T12:00	11900	210	-50.2	-67.5	281	46	
2025-10-04T12:00	11950	209	-50.6	-67.1	282	46	
2025-10-04T12:00	12000	207	-50.9	-67.5	282	46	
2025-10-04T12:00	12050	205	-51.2	-68.8	282	45	
2025-10-04T12:00	12100	204	-51.5	-68.7	282	45	
2025-10-04T12:00	12150	202	-52.0	-68.6	282	45	
2025-10-04T12:00	12200	201	-52.5	-68.7	282	45	
2025-10-04T12:00	12250	199	-52.9	-68.8	282	45	
2025-10-04T12:00	12300	198	-53.4	-68.7	282	45	
2025-10-04T12:00	12350	196	-53.9	-68.7	281	44	
2025-10-04T12:00	12400	195	-54.3	-68.8	281	43	
2025-10-04T12:00	12450	193	-54.6	-69.7	281	42	
2025-10-04T12:00	12500	192	-54.9	-70.7	281	42	
2025-10-04T12:00	12550	190	-55.2	-71.2	282	42	
2025-10-04T12:00	12600	189	-55.4	-71.8	282	41	
2025-10-04T12:00	12650	187	-55.6	-71.8	282	40	
2025-10-04T12:00	12700	186	-55.8	-71.7	281	40	
2025-10-04T12:00	12750	184	-56.1	-71.7	280	39	
2025-10-04T12:00	12800	183	-56.3	-71.3	279	38	
2025-10-04T12:00	12850	181	-56.7	-70.9	279	38	
2025-10-04T12:00	12900	180	-57.1	-70.9	279	38	
2025-10-04T12:00	12950	179	-57.6	-71.1	279	38	
2025-10-04T12:00	13000	177	-58.0	-71.4	279	38	
2025-10-04T12:00	13050	176	-58.3	-71.7	279	38	
2025-10-04T12:00	13100	174	-58.6	-72.0	279	38	
2025-10-04T12:00	13150	173	-58.9	-72.5	279	38	
2025-10-04T12:00	13200	172	-59.2	-73.3	279	38	
2025-10-04T12:00	13250	170	-59.5	-73.8	280	38	
2025-10-04T12:00	13300	169	-59.9	-73.9	280	38	
2025-10-04T12:00	13350	168	-60.4	-73.9	281	38	
2025-10-04T12:00	13400	166	-60.8	-74.1	281	38	
2025-10-04T12:00	13450	165	-61.2	-74.6	282	38	
2025-10-04T12:00	13500	163	-61.5	-75.1	283	38	
2025-10-04T12:00	13550	162	-61.8	-75.3	283	38	
2025-10-04T12:00	13600	161	-62.2	-75.2	283	37	
2025-10-04T12:00	13650	160	-62.6	-75.3	282	37	
2025-10-04T12:00	13700	158	-63.0	-75.0	281	36	
2025-10-04T12:00	13750	157	-63.4	-74.4	280	36	
2025-10-04T12:00	13800	156	-63.8	-73.4	279	35	
2025-10-04T12:00	13850	155	-64.1	-72.9	278	34	
2025-10-04T12:00	13900	153	-64.4	-73.2	276	33	
2025-10-04T12:00	13950	152	-64.4	-73.5	274	32	
2025-10-04T12:00	14000	151	-64.6	-73.9	273	31	
2025-10-04T12:00	14050	150	-64.9	-74.3	272	30	
2025-10-04T12:00	14100	148	-65.2	-74.8	270	30	
2025-10-04T12:00	14150	147	-65.2	-75.8	268	29	
2025-10-04T12:00	14200	146	-65.1	-77.1	267	28	
2025-10-04T12:00	14250	145	-65.3	-78.0	266	27	
2025-10-04T12:00	14300	143	-65.5	-78.4	264	26	
2025-10-04T12:00	14350	142	-65.5	-78.8	264	26	
2025-10-04T12:00	14400	141	-65.7	-79.1	264	26	
2025-10-04T12:00	14450	140	-66.1	-79.1	263	26	
2025-10-04T12:00	14500	139	-66.5	-79.0	264	26	
2025-10-04T12:00	14550	138	-67.0	-79.0	264	26	
2025-10-04T12:00	14600	137	-67.5	-78.9	265	26	
2025-10-04T12:00	14650	135	-67.9	-78.9	265	26	
2025-10-04T12:00	14700	134	-68.3	-78.9	264	26	
2025-10-04T12:00	14750	133	-68.7	-78.8	263	26	
2025-10-04T12:00	14800	132	-69.1	-78.7	262	25	
2025-10-04T12:00	14850	131	-69.4	-78.9	263	23	
2025-10-04T12:00	14900	130	-69.2	-78.9	264	20	
2025-10-04T12:00	14950	129	-69.2	-79.1	263	19	
2025-10-04T12:00	15000	128	-69.3	-79.5	261	18	
2025-10-04T12:00	15050	127	-69.5	-79.9	258	18	
2025-10-04T12:00	15100	126	-69.6	-80.3	256	18	
2025-10-04T12:00	15150	125	-69.9	-80.5	253	18	
2025-10-04T12:00	15200	124	-70.2	-80.7	248	18	
2025-10-04T12:00	15250	123	-70.6	-80.8	245	19	
2025-10-04T12:00	15300	121	-71.0	-81.0	241	19	
2025-10-04T12:00	15350	120	-71.3	-81.3	240	18	
2025-10-04T12:00	15400	119	-71.7	-81.6	240	18	
2025-10-04T12:00	15450	118	-72.1	-81.8	240	19	
2025-10-04T12:00	15500	117	-72.5	-82.1	242	20	
2025-10-04T12:00	15550	116	-72.7	-82.2	245	21	
2025-10-04T12:00	15600	115	-72.5	-82.2	249	23	
2025-10-04T12:00	15650	114	-72.3	-82.2	251	25	
2025-10-04T12:00	15700	114	-72.5	-82.4	251	26	
2025-10-04T12:00	15750	113	-72.8	-82.7	253	28	
2025-10-04T12:00	15800	111	-72.8	-82.9	256	29	
2025-10-04T12:00	15850	111	-72.6	-83.0	261	30	
2025-10-04T12:00	15900	110	-72.7	-83.5	269	30	
2025-10-04T12:00	15950	109	-72.2	-83.7	275	30	
2025-10-04T12:00	16000	108	-71.9	-84.0	280	29	
2025-10-04T12:00	16050	107	-71.6	-84.2	285	29	
2025-10-04T12:00	16100	106	-71.6	-84.3	288	29	
2025-10-04T12:00	16150	105	-71.5	-84.5	289	28	
2025-10-04T12:00	16200	104	-71.6	-84.9	287	25	
2025-10-04T12:00	16250	103	-70.7	-84.6	282	23	
2025-10-04T12:00	16300	102	-69.9	-84.3	278	22	
2025-10-04T12:00	16350	102	-69.9	-84.5	273	21	
2025-10-04T12:00	16400	101	-69.9	-84.8	269	20	
2025-10-04T12:00	16450	100	-69.9	-85.1	264	20	
2025-10-04T12:00	16500	99	-69.3	-85.2	262	20	
2025-10-04T12:00	16550	98	-68.8	-85.6	265	20	
2025-10-04T12:00	16600	97	-68.3	-85.9	271	20	
2025-10-04T12:00	16650	97	-67.3	-86.1	277	19	
2025-10-04T12:00	16700	96	-66.4	-86.4	282	17	
2025-10-04T12:00	16750	95	-65.1	-86.2	288	15	
2025-10-04T12:00	16800	94	-64.7	-86.6	295	14	
2025-10-04T12:00	16850	94	-64.6	-86.7	300	13	
2025-10-04T12:00	16900	93	-64.9	-86.8	303	11	
2025-10-04T12:00	16950	92	-64.8	-86.5	305	10	
2025-10-04T12:00	17000	91	-64.8	-86.2	304	9	
2025-10-04T12:00	17050	90	-65.2	-86.4	296	8	
2025-10-04T12:00	17100	90	-65.1	-86.4	279	7	
2025-10-04T12:00	17150	89	-64.6	-86.4	251	6	
2025-10-04T12:00	17200	88	-64.6	-86.6	227	8	
2025-10-04T12:00	17250	88	-63.9	-86.3	217	9	
2025-10-04T12:00	17300	87	-64.0	-86.3	215	10	
2025-10-04T12:00	17350	86	-64.3	-86.3	219	10	
2025-10-04T12:00	17400	85	-64.6	-86.4	224	11	
2025-10-04T12:00	17450	85	-64.7	-86.4	230	12	
2025-10-04T12:00	17500	84	-64.9	-86.4	234	13	
2025-10-04T12:00	17550	83	-65.0	-86.4	237	14	
2025-10-04T12:00	17600	83	-65.1	-86.5	240	14	
2025-10-04T12:00	17650	82	-65.3	-86.7	246	14	
2025-10-04T12:00	17700	81	-65.2	-86.7	253	14	
2025-10-04T12:00	17750	81	-65.0	-86.7	260	15	
2025-10-04T12:00	17800	80	-65.0	-86.8	264	16	
2025-10-04T12:00	17850	79	-65.0	-86.7	266	17	
2025-10-04T12:00	17900	79	-65.2	-86.8	269	17	
2025-10-04T12:00	17950	78	-65.0	-87.0	272	17	
2025-10-04T12:00	18000	77	-64.3	-86.9	275	16	
2025-10-04T12:00	18050	77	-63.8	-86.9	278	15	
2025-10-04T12:00	18100	76	-63.5	-86.9	281	14	
2025-10-04T12:00	18150	76	-63.4	-86.9	285	14	
2025-10-04T12:00	18200	75	-63.1	-86.9	290	13	
2025-10-04T12:00	18250	74	-62.7	-86.8	293	12	
2025-10-04T12:00	18300	74	-62.5	-86.6	295	11	
2025-10-04T12:00	18350	73	-62.7	-86.8	296	11	
2025-10-04T12:00	18400	73	-62.6	-86.7	294	10	
2025-10-04T12:00	18450	72	-62.7	-86.6	291	11	
2025-10-04T12:00	18500	71	-63.0	-86.8	289	11	
2025-10-04T12:00	18550	71	-63.0	-87.0	289	11	
2025-10-04T12:00	18600	70	-62.5	-86.9	289	9	
2025-10-04T12:00	18650	70	-62.1	-87.0	283	8	
2025-10-04T12:00	18700	69	-61.5	-86.8	270	7	
2025-10-04T12:00	18750	69	-61.4	-86.7	256	6	
2025-10-04T12:00	18800	68	-61.5	-86.5	247	7	
2025-10-04T12:00	18850	67	-61.8	-86.5	242	8	
2025-10-04T12:00	18900	67	-62.3	-86.6	238	9	
2025-10-04T12:00	18950	66	-62.4	-86.7	235	11	
2025-10-04T12:00	19000	66	-62.4	-86.7	236	12	
2025-10-04T12:00	19050	65	-62.5	-86.8	238	13	
2025-10-04T12:00	19100	65	-62.6	-86.9	239	13	
2025-10-04T12:00	19150	64	-62.6	-86.9	239	12	
2025-10-04T12:00	19200	64	-62.7	-87.1	239	11	
2025-10-04T12:00	19250	63	-62.3	-87.0	240	9	
2025-10-04T12:00	19300	63	-62.2	-87.0	241	8	
2025-10-04T12:00	19350	62	-62.2	-86.9	237	7	
2025-10-04T12:00	19400	62	-62.3	-86.9	230	7	
2025-10-04T12:00	19450	61	-62.5	-86.9	227	7	
2025-10-04T12:00	19500	61	-62.7	-87.0	230	7	
2025-10-04T12:00	19550	60	-63.0	-87.2	234	7	
2025-10-04T12:00	19600	60	-62.7	-87.2	233	7	
2025-10-04T12:00	19650	59	-62.4	-87.0	229	7	
2025-10-04T12:00	19700	59	-62.7	-87.1	228	8	
2025-10-04T12:00	19750	58	-63.1	-87.1	232	9	
2025-10-04T12:00	19800	58	-63.5	-87.3	241	10	
2025-10-04T12:00	19850	57	-63.5	-87.4	249	11	
2025-10-04T12:00	19900	57	-63.0	-87.4	257	12	
2025-10-04T12:00	19950	56	-62.6	-87.4	262	12	
2025-10-04T12:00	20000	56	-62.5	-87.3	265	13	
2025-10-04T12:00	20050	56	-62.6		269	14	
2025-10-04T12:00	20100	55	-62.8		275	15	
2025-10-04T12:00	20150	55	-62.7		281	15	
2025-10-04T12:00	20200	54	-62.5		286	14	
2025-10-04T12:00	20250	54	-62.0		290	12	
2025-10-04T12:00	20300	53	-61.0		291	10	
2025-10-04T12:00	20350	53	-60.5		288	8	
2025-10-04T12:00	20400	52	-60.6		282	7	
2025-10-04T12:00	20450	52	-60.4		274	6	
2025-10-04T12:00	20500	52	-60.6		262	5	
2025-10-04T12:00	20550	51	-61.1		246	4	
2025-10-04T12:00	20600	51	-61.2		225	3	
2025-10-04T12:00	20650	50	-60.9		217	3	
2025-10-04T12:00	20700	50	-60.7		227	3	
2025-10-04T12:00	20750	50	-60.7		239	4	
2025-10-04T12:00	20800	49	-60.5		245	5	
2025-10-04T12:00	20850	49	-60.6		247	6	
2025-10-04T12:00	20900	48	-60.9		252	6	
2025-10-04T12:00	20950	48	-61.1		257	7	
2025-10-04T12:00	21000	48	-61.2		259	7	
2025-10-04T12:00	21050	47	-61.0		260	7	
2025-10-04T12:00	21100	47	-61.1		260	6	
2025-10-04T12:00	21150	47	-61.1		249	6	
2025-10-04T12:00	21200	46	-60.6		235	6	
2025-10-04T12:00	21250	46	-60.3		229	7	
2025-10-04T12:00	21300	45	-60.5		232	8	
2025-10-04T12:00	21350	45	-60.4		237	9	
2025-10-04T12:00	21400	45	-60.1		242	8	
2025-10-04T12:00	21450	44	-59.8		243	8	
2025-10-04T12:00	21500	44	-59.6		238	7	
2025-10-04T12:00	21550	44	-59.5		229	7	
2025-10-04T12:00	21600	43	-59.1		225	6	
2025-10-04T12:00	21650	43	-58.7		231	6	
2025-10-04T12:00	21700	43	-58.8		240	5	
2025-10-04T12:00	21750	42	-58.7		244	5	
2025-10-04T12:00	21800	42	-58.5		245	5	
2025-10-04T12:00	21850	42	-58.2		247	5	
2025-10-04T12:00	21900	41	-57.8		247	6	
2025-10-04T12:00	21950	41	-57.7		248	6	
2025-10-04T12:00	22000	41	-57.8		250	6	
2025-10-04T12:00	22050	40	-58.0		250	6	
2025-10-04T12:00	22100	40	-58.2		249	6	
2025-10-04T12:00	22150	40	-58.4		247	7	
2025-10-04T12:00	22200	39	-58.5		245	7	
2025-10-04T12:00	22250	39	-58.6		244	8	
2025-10-04T12:00	22300	39	-58.5		243	8	
2025-10-04T12:00	22350	38	-58.5		241	7	
2025-10-04T12:00	22400	38	-58.6		240	6	
2025-10-04T12:00	22450	38	-58.5		234	5	
2025-10-04T12:00	22500	38	-58.0		224	5	
2025-10-04T12:00	22550	37	-57.8		215	6	
2025-10-04T12:00	22600	37	-57.7		215	7	
2025-10-04T12:00	22650	37	-57.7		219	8	
2025-10-04T12:00	22700	36	-57.3		223	8	
2025-10-04T12:00	22750	36	-56.9		228	8	
2025-10-04T12:00	22800	36	-56.5		229	9	
2025-10-04T12:00	22850	35	-56.0		229	9	
2025-10-04T12:00	22900	35	-55.6		230	10	
2025-10-04T12:00	22950	35	-55.5		232	11	
2025-10-04T12:00	23000	35	-55.7		235	12	
2025-10-04T12:00	23050	34	-55.8		239	12	
2025-10-04T12:00	23100	34	-55.7		244	12	
2025-10-04T12:00	23150	34	-55.7		250	12	
2025-10-04T12:00	23200	34	-55.4		257	12	
2025-10-04T12:00	23250	33	-54.7		265	12	
2025-10-04T12:00	23300	33	-54.8		271	12	
2025-10-04T12:00	23350	33	-55.1		277	11	
2025-10-04T12:00	23400	33	-55.0		278	11	
2025-10-04T12:00	23450	32	-55.1		274	10	
2025-10-04T12:00	23500	32	-55.0		270	10	
2025-10-04T12:00	23550	32	-54.9		269	10	
2025-10-04T12:00	23600	32	-54.7		271	10	
2025-10-04T12:00	23650	31	-54.3		275	10	
2025-10-04T12:00	23700	31	-54.1		279	10	
2025-10-04T12:00	23750	31	-54.1		283	10	
2025-10-04T12:00	23800	31	-54.3		285	9	
2025-10-04T12:00	23850	30	-54.5		286	9	
2025-10-04T12:00	23900	30	-54.6		285	8	
2025-10-04T12:00	23950	30	-54.6		282	8	
2025-10-04T12:00	24000	30	-54.8		278	7	
2025-10-04T12:00	24050	29	-55.0		277	7	
2025-10-04T12:00	24100	29	-55.1		276	6	
2025-10-04T12:00	24150	29	-55.0		271	6	
2025-10-04T12:00	24200	29	-55.2		261	6	
2025-10-04T12:00	24250	29	-55.3		253	6	
2025-10-04T12:00	24300	28	-55.5		249	7	
2025-10-04T12:00	24350	28	-55.7		252	8	
2025-10-04T12:00	24400	28	-55.9		257	9	
2025-10-04T12:00	24450	28	-55.6		259	10	
2025-10-04T12:00	24500	27	-55.7		260	10	
2025-10-04T12:00	24550	27	-55.8		260	10	
2025-10-04T12:00	24600	27	-55.8		262	10	
2025-10-04T12:00	24650	27	-55.9		264	11	
2025-10-04T12:00	24700	27	-55.9		266	11	
2025-10-04T12:00	24750	26	-56.0		264	11	
2025-10-04T12:00	24800	26	-56.1		262	11	
2025-10-04T12:00	24850	26	-56.3		258	11	
2025-10-04T12:00	24900	26	-56.4		254	11	
2025-10-04T12:00	24950	26	-56.5		251	11	
2025-10-04T12:00	25000	25	-56.6		249	11	
2025-10-04T12:00	25050	25	-56.7		248	11	
2025-10-04T12:00	25100	25	-56.9		249	11	
2025-10-04T12:00	25150	25	-57.1		251	11	
2025-10-04T12:00	25200	25	-57.1		256	11	
2025-10-04T12:00	25250	24	-57.2		262	11	
2025-10-04T12:00	25300	24	-57.4		268	10	
2025-10-04T12:00	25350	24	-57.0		269	10	
2025-10-04T12:00	25400	24	-56.7		267	10	
2025-10-04T12:00	25450	24	-56.8		263	10	
2025-10-04T12:00	25500	23	-56.9		258	10	
2025-10-04T12:00	25550	23	-56.9		255	10	
2025-10-04T12:00	25600	23	-57.0		258	11	
2025-10-04T12:00	25650	23	-56.7		263	12	
2025-10-04T12:00	25700	23	-56.0		269	13	
2025-10-04T12:00	25750	22	-55.7		275	13	
2025-10-04T12:00	25800	22	-55.5		284	13	
2025-10-04T12:00	25850	22	-55.2		293	12	
2025-10-04T12:00	25900	22	-55.0		297	11	
2025-10-04T12:00	25950	22	-54.7		295	10	
2025-10-04T12:00	26000	22	-54.0		293	10	
2025-10-04T12:00	26050	21	-53.4		291	10	
2025-10-04T12:00	26100	21	-53.3		291	9	
2025-10-04T12:00	26150	21	-53.3		291	9	
2025-10-04T12:00	26200	21	-53.3		288	8	
2025-10-04T12:00	26250	21	-53.0		283	6	
2025-10-04T12:00	26300	21	-52.4		279	5	
2025-10-04T12:00	26350	20	-52.0		272	5	
2025-10-04T12:00	26400	20	-51.9		261	4	
2025-10-04T12:00	26450	20	-51.9		249	4	
2025-10-04T12:00	26500	20	-51.8		238	4	
2025-10-04T12:00	26550	20	-51.6		230	5	
2025-10-04T12:00	26600	20	-51.3		226	7	
2025-10-04T12:00	26650	20	-51.2		225	8	
2025-10-04T12:00	26700	19	-51.1		224	9	
2025-10-04T12:00	26750	19	-51.0		223	9	
2025-10-04T12:00	26800	19	-51.1		222	8	
2025-10-04T12:00	26850	19	-51.4		221	8	
2025-10-04T12:00	26900	19	-51.4		221	8	
2025-10-04T12:00	26950	19	-51.4		221	10	
2025-10-04T12:00	27000	19	-51.4		222	11	
2025-10-04T12:00	27050	18	-51.2		223	13	
2025-10-04T12:00	27100	18	-51.0		224	14	
2025-10-04T12:00	27150	18	-51.2		225	15	
2025-10-04T12:00	27200	18	-51.4		225	16	
2025-10-04T12:00	27250	18	-51.6		225	15	
2025-10-04T12:00	27300	18	-51.5		227	14	
2025-10-04T12:00	27350	18	-51.6		227	14	
2025-10-04T12:00	27400	17	-51.5		225	14	
2025-10-04T12:00	27450	17	-51.3		221	14	
2025-10-04T12:00	27500	17	-51.2		218	15	
2025-10-04T12:00	27550	17	-51.3		220	15	
2025-10-04T12:00	27600	17	-51.4		228	15	
2025-10-04T12:00	27650	17	-51.3		238	15	
2025-10-04T12:00	27700	17	-50.7		247	15	
2025-10-04T12:00	27750	17	-50.2		254	16	
2025-10-04T12:00	27800	16	-50.1		259	17	
2025-10-04T12:00	27850	16	-49.9		264	18	
2025-10-04T12:00	27900	16	-49.8		267	19	
2025-10-04T12:00	27950	16	-49.4		269	20	
2025-10-04T12:00	28000	16	-49.1		270	20	
2025-10-04T12:00	28050	16	-49.2		271	20	
2025-10-04T12:00	28100	16	-49.3		273	20	
2025-10-04T12:00	28150	16	-49.3		274	19	
2025-10-04T12:00	28200	15	-49.5		275	18	
2025-10-04T12:00	28250	15	-49.6		275	17	
2025-10-04T12:00	28300	15	-49.6		275	16	
2025-10-04T12:00	28350	15	-49.9		276	15	
2025-10-04T12:00	28400	15	-50.1		279	15	
2025-10-04T12:00	28450	15	-50.2		281	15	
2025-10-04T12:00	28500	15	-49.9		285	16	
2025-10-04T12:00	28550	15	-50.0		287	17	
2025-10-04T12:00	28600	14	-50.2		287	18	
2025-10-04T12:00	28650	14	-50.2		285	17	
2025-10-04T12:00	28700	14	-50.0		282	17	
2025-10-04T12:00	28750	14	-49.9		279	17	
2025-10-04T12:00	28800	14	-49.7		279	17	
2025-10-04T12:00	28850	14	-49.5		281	18	
2025-10-04T12:00	28900	14	-49.5		282	18	
2025-10-04T12:00	28950	14	-49.4		283	18	
2025-10-04T12:00	29000	14	-49.5		282	18	
2025-10-04T12:00	29050	14	-49.6		281	17	
2025-10-04T12:00	29100	13	-49.6		280	16	
2025-10-04T12:00	29150	13	-49.7		280	15	
2025-10-04T12:00	29200	13	-49.4		282	15	
2025-10-04T12:00	29250	13	-48.8		284	16	
2025-10-04T12:00	29300	13	-48.5		285	17	
2025-10-04T12:00	29350	13	-48.0		286	18	
2025-10-04T12:00	29400	13	-47.6		287	18	
2025-10-04T12:00	29450	13	-47.1		289	18	
2025-10-04T12:00	29500	13	-46.9		293	17	
2025-10-04T12:00	29550	13	-47.0		295	16	
2025-10-04T12:00	29600	12	-47.0		296	16	
2025-10-04T12:00	29650	12	-46.8		296	15	
2025-10-04T12:00	29700	12	-46.6		295	16	
2025-10-04T12:00	29750	12	-46.2		294	17	
2025-10-04T12:00	29800	12	-45.5		295	18	
2025-10-04T12:00	29850	12	-44.8		296	18	
2025-10-04T12:00	29900	12	-44.4		296	18	
2025-10-04T12:00	29950	12	-43.7		295	16	
2025-10-04T12:00	30000	12	-43.2		293	16	
2025-10-04T12:00	30050	12	-43.1		293	16	
2025-10-04T12:00	30100	12	-42.9		294	16	
2025-10-04T12:00	30150	11	-43.0		294	16	
2025-10-04T12:00	30200	11	-42.9		293	16	
2025-10-04T12:00	30250	11	-42.5		290	16	
2025-10-04T12:00	30300	11	-41.9		286	16	
2025-10-04T12:00	30350	11	-41.4		284	16	
2025-10-04T12:00	30400	11	-41.3		284	16	
2025-10-04T12:00	30450	11	-41.3		284	16	
2025-10-04T12:00	30500	11	-41.3		284	17	
2025-10-04T12:00	30550	11	-41.4		282	18	
2025-10-04T12:00	30600	11	-41.3		282	19	
2025-10-04T12:00	30650	11	-41.1		283	21	
2025-10-04T12:00	30700	11	-40.8		285	22	
2025-10-04T12:00	30750	10	-40.4		289	22	
2025-10-04T12:00	30800	10	-40.1		293	22	
2025-10-04T12:00	30850	10	-40.1		297	22	
2025-10-04T12:00	30900	10	-40.0		301	22	
2025-10-04T12:00	30950	10	-39.9		305	22	
2025-10-04T12:00	31000	10	-40.0		309	22	
2025-10-04T12:00	31050	10	-40.2		312	22	
2025-10-04T12:00	31100	10	-40.3		314	22	
2025-10-04T12:00	31150	10	-40.6		315	21	
2025-10-04T12:00	31200	10	-40.6		314	20	
2025-10-04T12:00	31250	10	-40.2		311	19	
2025-10-04T12:00	31300	10	-40.1		309	18	
2025-10-04T12:00	31350	10	-40.2		307	18	
2025-10-04T12:00	31400	10	-40.3		306	17	
2025-10-04T12:00	31450	9	-40.3		308	17	
2025-10-04T12:00	31500	9	-40.4		311	17	
2025-10-04T12:00	31550	9	-40.5		313	17	
2025-10-04T12:00	31600	9	-40.7		314	16	
2025-10-04T12:00	31650	9	-40.8		312	16	
2025-10-04T12:00	31700	9	-41.0		310	15	
2025-10-04T12:00	31750	9	-41.2		307	14	
2025-10-04T12:00	31800	9	-41.4		304	13	
2025-10-04T12:00	31850	9	-41.5		299	13	
2025-10-04T12:00	31900	9	-41.6		295	12	
2025-10-04T12:00	31950	9	-41.3		290	12	
2025-10-04T12:00	32000	9	-40.7		286	12	
2025-10-04T12:00	32050	9	-40.3		281	11	
2025-10-04T12:00	32100	9	-40.3		276	12	
2025-10-04T12:00	32150	9	-40.5		272	12	
2025-10-04T12:00	32200	8	-40.7		271	12	
2025-10-04T12:00	32250	8	-40.9		272	13	
2025-10-04T12:00	32300	8	-41.0		273	13	
2025-10-04T12:00	32350	8	-40.9		273	12	
2025-10-04T12:00	32400	8	-40.9		275	12	
2025-10-04T12:00	32450	8	-41.1		276	12	
2025-10-04T12:00	32500	8	-41.4		277	12	
2025-10-04T12:00	32550	8	-41.5		276	12	
2025-10-04T12:00	32600	8	-41.8		272	12	
2025-10-04T12:00	32650	8	-41.8		267	13	
2025-10-04T12:00	32700	8	-41.6		263	13	
2025-10-04T12:00	32750	8	-41.8		260	13	
2025-10-04T12:00	32800	8	-42.1		259	13	
2025-10-04T12:00	32850	8	-42.3		258	14	
2025-10-04T12:00	32900	8	-42.2		257	14	
2025-10-04T12:00	32950	8	-42.2		256	15	
2025-10-04T12:00	33000	8	-42.2		255	15	
2025-10-04T12:00	33050	7	-42.4		255	15	
2025-10-04T12:00	33100	7	-42.2		258	15	
2025-10-04T12:00	33150	7	-41.4		262	15	
2025-10-04T12:00	33200	7	-40.7		267	16	
2025-10-04T12:00	33250	7	-40.6		272	17	
2025-10-04T12:00	33300	7	-40.6		277	18	
2025-10-04T12:00	33350	7	-40.8		282	19	
2025-10-04T12:00	33400	7	-40.8		286	20	
2025-10-04T12:00	33450	7	-40.6		289	21	
2025-10-04T12:00	33500	7	-40.3		290	21	
2025-10-04T12:00	33550	7	-39.8		290	21	
2025-10-04T12:00	33600	7	-39.3		290	21	
2025-10-04T12:00	33650	7	-39.0		290	20	
2025-10-04T12:00	33700	7	-38.8		290	19	
2025-10-04T12:00	33750	7	-38.8		290	18	
2025-10-04T12:00	33800	7	-38.8		290	17	
2025-10-04T12:00	33850	7	-38.7		290	17	
2025-10-04T12:00	33900	7	-38.7		292	17	
2025-10-04T12:00	33950	7	-38.8		293	17	
2025-10-04T12:00	34000	7	-38.9		294	18	
2025-10-04T12:00	34050	6	-39.0		295	18	
2025-10-04T12:00	34100	6	-39.1		296	18	
2025-10-04T12:00	34150	6	-39.4		296	18	
2025-10-04T12:00	34200	6	-39.3		296	17	
2025-10-04T12:00	34250	6	-39.1		294	16	
2025-10-04T12:00	34300	6	-38.8		290	15	
2025-10-04T12:00	34350	6	-38.5		286	14	
2025-10-04T12:00	34400	6	-37.9		283	14	
2025-10-04T12:00	34450	6	-37.3		282	13	
2025-10-04T12:00	34500	6	-37.1		280	13	
2025-10-04T12:00	34550	6	-37.0		276	11	
2025-10-04T12:00	34600	6	-37.0		272	10	
2025-10-04T12:00	34650	6	-37.3		267	10	
2025-10-04T12:00	34700	6	-37.5		261	9	
2025-10-04T12:00	34750	6	-37.8		254	9	
2025-10-04T12:00	34800	6	-38.1		244	9	
2025-10-04T12:00	34850	6	-38.3		236	10	
2025-10-04T12:00	34900	6	-38.3		233	10	
2025-10-05T00:00	491	960	8.9	7.0	184	6	
2025-10-05T00:00	501	958	9.3	6.4	196	4	
2025-10-05T00:00	520	956	9.6	6.1	201	5	
2025-10-05T00:00	540	954	9.8	5.6	201	6	
2025-10-05T00:00	560	952	9.8	5.3	202	7	
2025-10-05T00:00	580	950	10.0	4.5	203	8	
2025-10-05T00:00	600	947	10.2	4.0	205	8	
2025-10-05T00:00	620	945	10.1	4.0	207	9	
2025-10-05T00:00	640	943	9.9	4.0	210	9	
2025-10-05T00:00	660	940	9.6	3.9	212	9	
2025-10-05T00:00	680	938	9.4	3.9	216	9	
2025-10-05T00:00	700	936	9.2	3.9	221	9	
2025-10-05T00:00	720	934	9.0	3.7	226	9	
2025-10-05T00:00	740	931	9.0	3.3	230	9	
2025-10-05T00:00	760	929	9.1	3.0	233	10	
2025-10-05T00:00	780	927	8.8	3.0	236	10	
2025-10-05T00:00	800	925	8.7	3.0	238	10	
2025-10-05T00:00	820	922	8.6	2.8	241	11	
2025-10-05T00:00	840	920	8.4	2.6	243	11	
2025-10-05T00:00	860	918	8.4	2.3	245	11	
2025-10-05T00:00	880	916	8.3	1.9	246	11	
2025-10-05T00:00	900	914	8.3	1.6	248	12	
2025-10-05T00:00	920	911	8.1	1.6	250	12	
2025-10-05T00:00	940	909	8.0	1.4	251	12	
2025-10-05T00:00	960	907	7.8	1.3	251	12	
2025-10-05T00:00	980	905	7.6	1.3	252	12	
2025-10-05T00:00	1000	903	7.5	1.3	252	12	
2025-10-05T00:00	1020	900	7.3	1.2	252	12	
2025-10-05T00:00	1040	898	7.1	1.2	251	12	
2025-10-05T00:00	1060	896	6.9	1.1	251	12	
2025-10-05T00:00	1080	894	6.7	1.1	251	12	
2025-10-05T00:00	1100	892	6.5	1.1	251	12	
2025-10-05T00:00	1120	889	6.3	1.1	251	12	
2025-10-05T00:00	1140	887	6.1	1.1	252	12	
2025-10-05T00:00	1160	885	5.9	1.0	252	12	
2025-10-05T00:00	1180	883	5.7	1.0	253	12	
2025-10-05T00:00	1200	881	5.5	0.9	253	12	
2025-10-05T00:00	1220	879	5.3	0.9	253	12	
2025-10-05T00:00	1240	877	5.2	0.8	254	12	
2025-10-05T00:00	1260	874	5.0	0.8	254	12	
2025-10-05T00:00	1280	872	4.8	0.7	254	12	
2025-10-05T00:00	1300	870	4.6	0.7	254	12	
2025-10-05T00:00	1320	868	4.4	0.8	254	12	
2025-10-05T00:00	1340	866	4.2	0.7	254	12	
2025-10-05T00:00	1360	864	4.0	0.6	254	11	
2025-10-05T00:00	1380	861	3.8	0.5	254	11	
2025-10-05T00:00	1400	859	3.6	0.5	255	11	
2025-10-05T00:00	1420	857	3.4	0.4	256	11	
2025-10-05T00:00	1440	855	3.2	0.5	257	11	
2025-10-05T00:00	1460	853	3.0	0.4	258	11	
2025-10-05T00:00	1480	851	2.8	0.4	259	11	
2025-10-05T00:00	1500	849	2.6	0.3	261	11	
2025-10-05T00:00	1520	847	2.4	0.3	262	11	
2025-10-05T00:00	1540	845	2.3	0.3	264	11	
2025-10-05T00:00	1560	843	2.1	0.0	265	11	
2025-10-05T00:00	1580	841	2.0	-0.4	267	11	
2025-10-05T00:00	1600	838	1.9	-1.1	269	11	
2025-10-05T00:00	1620	836	1.8	-1.3	270	12	
2025-10-05T00:00	1640	834	1.7	-1.8	271	12	
2025-10-05T00:00	1660	832	1.6	-1.8	271	12	
2025-10-05T00:00	1680	830	1.4	-2.0	272	12	
2025-10-05T00:00	1700	828	1.3	-2.5	272	12	
2025-10-05T00:00	1720	826	1.3	-3.1	272	12	
2025-10-05T00:00	1740	824	1.1	-3.2	272	12	
2025-10-05T00:00	1760	822	0.9	-3.3	273	12	
2025-10-05T00:00	1780	820	0.7	-3.3	273	12	
2025-10-05T00:00	1800	818	0.6	-3.3	274	12	
2025-10-05T00:00	1820	816	0.4	-3.3	275	12	
2025-10-05T00:00	1840	814	0.2	-3.5	275	12	
2025-10-05T00:00	1860	812	0.0	-3.8	276	11	
2025-10-05T00:00	1880	810	-0.1	-3.9	277	11	
2025-10-05T00:00	1900	808	-0.2	-4.2	278	11	
2025-10-05T00:00	1920	806	-0.3	-4.6	278	11	
2025-10-05T00:00	1940	804	-0.5	-4.8	278	11	
2025-10-05T00:00	1960	802	-0.5	-5.5	277	11	
2025-10-05T00:00	1980	800	-0.6	-5.7	277	11	
2025-10-05T00:00	2000	798	-0.7	-5.9	276	11	
2025-10-05T00:00	2020	796	-0.9	-6.0	275	11	
2025-10-05T00:00	2040	794	-1.1	-6.0	274	11	
2025-10-05T00:00	2060	792	-1.2	-6.0	273	11	
2025-10-05T00:00	2080	790	-1.4	-6.1	273	11	
2025-10-05T00:00	2100	788	-1.6	-6.2	272	11	
2025-10-05T00:00	2120	786	-1.8	-6.3	271	10	
2025-10-05T00:00	2140	784	-2.0	-6.2	271	10	
2025-10-05T00:00	2160	782	-2.2	-6.2	270	10	
2025-10-05T00:00	2180	780	-2.3	-6.2	270	10	
2025-10-05T00:00	2200	778	-2.5	-6.4	269	10	
2025-10-05T00:00	2220	776	-2.7	-6.4	269	9	
2025-10-05T00:00	2240	774	-2.9	-6.4	269	9	
2025-10-05T00:00	2260	772	-3.2	-6.5	268	9	
2025-10-05T00:00	2280	770	-3.3	-6.6	268	9	
2025-10-05T00:00	2300	768	-3.3	-6.7	268	9	
2025-10-05T00:00	2320	766	-3.5	-6.8	267	9	
2025-10-05T00:00	2340	764	-3.6	-6.9	266	9	
2025-10-05T00:00	2360	762	-3.8	-7.0	266	9	
2025-10-05T00:00	2380	760	-3.8	-7.6	265	9	
2025-10-05T00:00	2400	758	-3.8	-7.9	264	10	
2025-10-05T00:00	2420	756	-3.8	-8.3	263	10	
2025-10-05T00:00	2440	755	-3.9	-8.3	263	10	
2025-10-05T00:00	2460	753	-4.2	-8.0	262	10	
2025-10-05T00:00	2480	751	-4.4	-8.2	262	10	
2025-10-05T00:00	2500	749	-4.7	-8.1	261	10	
2025-10-05T00:00	2520	747	-4.7	-8.4	261	10	
2025-10-05T00:00	2540	745	-4.9	-8.6	262	10	
2025-10-05T00:00	2560	743	-4.9	-8.8	262	10	
2025-10-05T00:00	2580	741	-5.0	-9.0	263	10	
2025-10-05T00:00	2600	740	-5.2	-9.1	264	10	
2025-10-05T00:00	2620	738	-5.5	-8.9	264	10	
2025-10-05T00:00	2640	736	-5.7	-8.9	265	10	
2025-10-05T00:00	2660	734	-5.9	-9.0	266	10	
2025-10-05T00:00	2680	732	-6.1	-9.1	266	10	
2025-10-05T00:00	2700	730	-6.2	-9.2	266	11	
2025-10-05T00:00	2720	728	-6.3	-9.5	266	11	
2025-10-05T00:00	2740	726	-6.4	-9.7	267	11	
2025-10-05T00:00	2760	725	-6.5	-9.9	267	11	
2025-10-05T00:00	2780	723	-6.6	-10.3	268	12	
2025-10-05T00:00	2800	721	-6.6	-10.9	269	12	
2025-10-05T00:00	2820	719	-6.6	-11.4	269	12	
2025-10-05T00:00	2840	717	-6.6	-11.9	270	12	
2025-10-05T00:00	2860	715	-6.8	-12.1	271	12	
2025-10-05T00:00	2880	714	-6.9	-12.3	272	12	
2025-10-05T00:00	2900	712	-7.1	-12.3	273	12	
2025-10-05T00:00	2920	710	-7.3	-12.4	274	12	
2025-10-05T00:00	2940	708	-7.4	-12.8	275	12	
2025-10-05T00:00	2960	706	-7.5	-13.2	276	12	
2025-10-05T00:00	2980	704	-7.7	-13.5	277	12	
2025-10-05T00:00	3000	703	-7.8	-13.8	278	12	
2025-10-05T00:00	3020	701	-7.9	-14.0	280	12	
2025-10-05T00:00	3040	699	-8.1	-14.3	281	12	
2025-10-05T00:00	3060	697	-8.2	-14.7	282	12	
2025-10-05T00:00	3080	695	-8.4	-14.9	283	12	
2025-10-05T00:00	3100	694	-8.6	-14.8	283	12	
2025-10-05T00:00	3120	692	-8.8	-14.9	284	12	
2025-10-05T00:00	3140	690	-9.0	-15.0	285	12	
2025-10-05T00:00	3160	688	-9.1	-15.0	285	12	
2025-10-05T00:00	3180	687	-9.3	-15.1	286	12	
2025-10-05T00:00	3200	685	-9.5	-15.1	286	12	
2025-10-05T00:00	3220	683	-9.7	-15.1	286	12	
2025-10-05T00:00	3240	681	-9.9	-15.2	286	12	
2025-10-05T00:00	3260	679	-10.1	-15.2	286	12	
2025-10-05T00:00	3280	678	-10.3	-15.3	286	12	
2025-10-05T00:00	3300	676	-10.5	-15.3	286	12	
2025-10-05T00:00	3320	674	-10.7	-15.3	286	12	
2025-10-05T00:00	3340	672	-10.9	-15.3	286	12	
2025-10-05T00:00	3360	671	-11.1	-15.1	287	12	
2025-10-05T00:00	3380	669	-11.2	-15.0	287	12	
2025-10-05T00:00	3400	667	-11.4	-15.1	287	12	
2025-10-05T00:00	3420	665	-11.7	-14.9	288	11	
2025-10-05T00:00	3440	664	-11.8	-14.8	288	11	
2025-10-05T00:00	3460	662	-11.7	-15.0	288	11	
2025-10-05T00:00	3480	660	-11.7	-15.4	287	11	
2025-10-05T00:00	3500	659	-11.8	-15.7	286	11	
2025-10-05T00:00	3520	657	-11.9	-15.9	285	11	
2025-10-05T00:00	3540	655	-12.0	-16.8	284	11	
2025-10-05T00:00	3560	653	-11.9	-17.1	284	12	
2025-10-05T00:00	3580	652	-12.0	-17.1	284	12	
2025-10-05T00:00	3600	650	-12.1	-17.3	284	12	
2025-10-05T00:00	3620	648	-12.2	-17.9	284	12	
2025-10-05T00:00	3640	646	-12.3	-18.5	284	13	
2025-10-05T00:00	3660	645	-12.4	-18.5	284	13	
2025-10-05T00:00	3680	643	-12.6	-18.6	284	13	
2025-10-05T00:00	3700	642	-12.8	-18.7	284	13	
2025-10-05T00:00	3720	640	-13.0	-19.0	284	13	
2025-10-05T00:00	3740	638	-13.2	-19.2	283	13	
2025-10-05T00:00	3760	636	-13.3	-19.3	283	13	
2025-10-05T00:00	3780	635	-13.5	-19.4	282	13	
2025-10-05T00:00	3800	633	-13.7	-19.4	282	12	
2025-10-05T00:00	3820	631	-13.9	-19.5	281	12	
2025-10-05T00:00	3840	630	-14.1	-19.6	281	12	
2025-10-05T00:00	3860	628	-14.3	-19.4	280	12	
2025-10-05T00:00	3880	626	-14.3	-19.5	279	12	
2025-10-05T00:00	3900	625	-14.4	-19.7	278	12	
2025-10-05T00:00	3920	623	-14.3	-19.2	277	12	
2025-10-05T00:00	3940	622	-14.3	-19.0	276	12	
2025-10-05T00:00	3960	620	-14.5	-19.1	275	12	
2025-10-05T00:00	3980	618	-14.7	-19.2	274	12	
2025-10-05T00:00	4000	616	-14.8	-19.3	273	12	
2025-10-05T00:00	4020	615	-14.9	-19.4	272	12	
2025-10-05T00:00	4040	613	-15.1	-19.5	272	12	
2025-10-05T00:00	4060	612	-15.3	-19.6	271	12	
2025-10-05T00:00	4080	610	-15.4	-19.7	270	12	
2025-10-05T00:00	4100	608	-15.6	-19.8	269	12	
2025-10-05T00:00	4120	607	-15.8	-19.8	269	12	
2025-10-05T00:00	4140	605	-16.0	-19.9	268	12	
2025-10-05T00:00	4160	604	-16.2	-20.1	269	12	
2025-10-05T00:00	4180	602	-16.3	-20.1	269	12	
2025-10-05T00:00	4200	600	-16.4	-20.3	270	12	
2025-10-05T00:00	4220	599	-16.6	-20.4	271	12	
2025-10-05T00:00	4240	597	-16.7	-20.5	272	12	
2025-10-05T00:00	4260	596	-16.9	-20.6	273	12	
2025-10-05T00:00	4280	594	-17.1	-20.7	274	12	
2025-10-05T00:00	4300	593	-17.2	-20.8	275	12	
2025-10-05T00:00	4320	591	-17.4	-20.8	276	12	
2025-10-05T00:00	4340	589	-17.6	-21.0	277	12	
2025-10-05T00:00	4360	588	-17.8	-21.2	278	12	
2025-10-05T00:00	4380	586	-18.0	-21.3	279	12	
2025-10-05T00:00	4400	585	-18.2	-21.4	279	12	
2025-10-05T00:00	4420	583	-18.3	-21.5	280	12	
2025-10-05T00:00	4440	582	-18.5	-21.5	281	12	
2025-10-05T00:00	4460	580	-18.7	-21.7	281	12	
2025-10-05T00:00	4480	578	-18.9	-21.9	281	12	
2025-10-05T00:00	4500	577	-19.1	-22.1	281	12	
2025-10-05T00:00	4520	575	-19.2	-22.1	280	12	
2025-10-05T00:00	4540	574	-19.4	-22.2	280	12	
2025-10-05T00:00	4560	572	-19.6	-22.4	281	13	
2025-10-05T00:00	4580	571	-19.7	-22.9	281	13	
2025-10-05T00:00	4600	569	-19.8	-23.2	282	13	
2025-10-05T00:00	4620	568	-19.8	-23.5	283	14	
2025-10-05T00:00	4640	566	-20.0	-23.6	283	14	
2025-10-05T00:00	4660	565	-20.1	-23.6	284	14	
2025-10-05T00:00	4680	563	-20.2	-23.6	283	15	
2025-10-05T00:00	4700	562	-20.4	-23.7	283	15	
2025-10-05T00:00	4720	560	-20.6	-23.7	283	15	
2025-10-05T00:00	4740	558	-20.8	-23.9	282	15	
2025-10-05T00:00	4760	557	-21.0	-23.8	282	15	
2025-10-05T00:00	4780	556	-21.2	-24.0	282	16	
2025-10-05T00:00	4800	554	-21.3	-24.0	282	16	
2025-10-05T00:00	4820	553	-21.5	-24.0	283	16	
2025-10-05T00:00	4840	551	-21.6	-24.2	283	16	
2025-10-05T00:00	4860	549	-21.7	-24.6	284	17	
2025-10-05T00:00	4880	548	-21.8	-24.9	284	17	
2025-10-05T00:00	4900	547	-21.9	-24.8	285	17	
2025-10-05T00:00	4920	545	-22.1	-24.9	286	17	
2025-10-05T00:00	4940	544	-22.3	-25.0	286	17	
2025-10-05T00:00	4960	542	-22.5	-25.1	287	17	
2025-10-05T00:00	4980	541	-22.6	-25.2	288	18	
2025-10-05T00:00	5000	539	-22.8	-25.3	289	17	
2025-10-05T00:00	5020	538	-23.0	-25.3	289	17	
2025-10-05T00:00	5040	536	-23.1	-25.4	290	17	
2025-10-05T00:00	5060	535	-23.3	-25.3	290	17	
2025-10-05T00:00	5080	533	-23.5	-25.4	290	17	
2025-10-05T00:00	5100	532	-23.7	-25.5	290	17	
2025-10-05T00:00	5120	530	-23.9	-25.5	289	17	
2025-10-05T00:00	5140	529	-24.1	-25.6	289	17	
2025-10-05T00:00	5160	528	-24.2	-25.8	289	17	
2025-10-05T00:00	5180	526	-24.4	-25.8	289	17	
2025-10-05T00:00	5200	525	-24.6	-25.8	289	17	
2025-10-05T00:00	5220	523	-24.8	-25.9	289	18	
2025-10-05T00:00	5240	522	-25.0	-26.0	289	18	
2025-10-05T00:00	5260	520	-25.1	-26.0	289	18	
2025-10-05T00:00	5280	519	-25.3	-26.1	290	18	
2025-10-05T00:00	5300	517	-25.5	-26.3	290	18	
2025-10-05T00:00	5320	516	-25.7	-26.2	290	18	
2025-10-05T00:00	5340	515	-25.8	-26.3	290	18	
2025-10-05T00:00	5360	513	-26.0	-26.4	290	18	
2025-10-05T00:00	5380	512	-26.2	-26.6	291	18	
2025-10-05T00:00	5400	510	-26.3	-26.7	291	18	
2025-10-05T00:00	5420	509	-26.5	-26.8	291	18	
2025-10-05T00:00	5440	508	-26.7	-26.9	292	19	
2025-10-05T00:00	5460	506	-26.8	-27.1	292	19	
2025-10-05T00:00	5480	505	-27.0	-27.3	292	19	
2025-10-05T00:00	5500	503	-27.1	-27.5	293	19	
2025-10-05T00:00	5520	502	-27.3	-27.6	293	19	
2025-10-05T00:00	5540	500	-27.5	-27.7	293	19	
2025-10-05T00:00	5560	499	-27.6	-28.0	293	19	
2025-10-05T00:00	5580	498	-27.8	-28.2	293	18	
2025-10-05T00:00	5600	496	-27.9	-28.3	292	18	
2025-10-05T00:00	5620	495	-28.0	-28.2	292	18	
2025-10-05T00:00	5640	494	-28.2	-28.5	291	18	
2025-10-05T00:00	5660	492	-28.3	-28.8	291	18	
2025-10-05T00:00	5680	491	-28.5	-29.0	291	18	
2025-10-05T00:00	5700	490	-28.6	-29.1	290	18	
2025-10-05T00:00	5720	488	-28.8	-29.4	289	19	
2025-10-05T00:00	5740	487	-29.0	-29.6	287	19	
2025-10-05T00:00	5760	485	-29.2	-29.8	286	20	
2025-10-05T00:00	5780	484	-29.4	-29.9	285	21	
2025-10-05T00:00	5800	483	-29.5	-29.8	284	22	
2025-10-05T00:00	5820	481	-29.6	-30.2	283	23	
2025-10-05T00:00	5840	480	-29.6	-30.3	282	24	
2025-10-05T00:00	5860	479	-29.9	-30.6	281	26	
2025-10-05T00:00	5880	477	-29.6	-31.4	278	28	
2025-10-05T00:00	5900	476	-29.6	-32.0	276	29	
2025-10-05T00:00	5920	475	-29.5	-33.7	273	31	
2025-10-05T00:00	5940	473	-28.7	-37.5	271	32	
2025-10-05T00:00	5960	472	-28.6	-38.1	269	34	
2025-10-05T00:00	5980	471	-27.9	-41.9	268	35	
2025-10-05T00:00	6000	469	-27.1	-45.5	267	36	
2025-10-05T00:00	6020	468	-26.5	-45.3	267	38	
2025-10-05T00:00	6040	467	-26.0	-46.7	267	39	
2025-10-05T00:00	6060	465	-25.8	-44.6	268	40	
2025-10-05T00:00	6080	464	-25.6	-46.1	268	41	
2025-10-05T00:00	6100	463	-25.6	-46.8	268	41	
2025-10-05T00:00	6120	462	-25.4	-44.8	268	42	
2025-10-05T00:00	6140	460	-25.3	-43.8	268	42	
2025-10-05T00:00	6160	459	-25.3	-43.8	268	43	
2025-10-05T00:00	6180	458	-25.2	-44.0	267	43	
2025-10-05T00:00	6200	457	-25.0	-44.4	266	44	
2025-10-05T00:00	6220	455	-24.7	-45.7	265	45	
2025-10-05T00:00	6240	454	-24.6	-45.6	265	45	
2025-10-05T00:00	6260	453	-24.3	-46.3	264	46	
2025-10-05T00:00	6280	452	-24.1	-46.8	263	47	
2025-10-05T00:00	6300	450	-24.0	-46.6	263	48	
2025-10-05T00:00	6320	449	-23.8	-46.2	263	49	
2025-10-05T00:00	6340	448	-23.6	-47.2	263	49	
2025-10-05T00:00	6360	447	-23.4	-46.5	263	50	
2025-10-05T00:00	6380	445	-23.3	-47.8	263	51	
2025-10-05T00:00	6400	444	-23.2	-48.1	263	51	
2025-10-05T00:00	6420	443	-23.1	-48.1	263	51	
2025-10-05T00:00	6440	442	-23.1	-47.3	263	52	
2025-10-05T00:00	6460	441	-23.0	-47.6	263	52	
2025-10-05T00:00	6480	439	-23.0	-48.6	262	52	
2025-10-05T00:00	6500	438	-23.0	-48.0	262	53	
2025-10-05T00:00	6520	437	-23.0	-47.9	262	53	
2025-10-05T00:00	6540	436	-23.1	-48.5	263	54	
2025-10-05T00:00	6560	435	-23.1	-48.3	263	54	
2025-10-05T00:00	6580	434	-23.3	-48.4	263	54	
2025-10-05T00:00	6600	432	-23.4	-48.9	263	54	
2025-10-05T00:00	6620	431	-23.6	-49.2	263	54	
2025-10-05T00:00	6640	430	-23.7	-49.6	263	54	
2025-10-05T00:00	6660	429	-23.9	-49.9	263	54	
2025-10-05T00:00	6680	427	-24.0	-50.2	263	53	
2025-10-05T00:00	6700	426	-24.1	-50.3	263	53	
2025-10-05T00:00	6720	425	-24.3	-50.3	263	53	
2025-10-05T00:00	6740	424	-24.4	-50.0	263	53	
2025-10-05T00:00	6760	423	-24.6	-50.0	263	53	
2025-10-05T00:00	6780	422	-24.8	-50.0	263	53	
2025-10-05T00:00	6800	421	-24.9	-49.7	263	53	
2025-10-05T00:00	6820	419	-25.1	-49.7	264	53	
2025-10-05T00:00	6840	418	-25.3	-49.7	264	53	
2025-10-05T00:00	6860	417	-25.5	-49.9	264	53	
2025-10-05T00:00	6880	416	-25.6	-49.9	264	53	
2025-10-05T00:00	6900	415	-25.8	-49.8	264	54	
2025-10-05T00:00	6920	414	-26.0	-49.7	264	54	
2025-10-05T00:00	6940	413	-26.1	-49.8	264	54	
2025-10-05T00:00	6960	411	-26.3	-50.0	264	54	
2025-10-05T00:00	6980	410	-26.5	-50.2	264	54	
2025-10-05T00:00	7000	409	-26.6	-50.5	264	54	
2025-10-05T00:00	7020	408	-26.7	-50.6	264	54	
2025-10-05T00:00	7040	407	-26.8	-50.5	264	55	
2025-10-05T00:00	7060	406	-27.0	-50.5	265	55	
2025-10-05T00:00	7080	405	-27.1	-50.4	265	55	
2025-10-05T00:00	7100	403	-27.2	-49.9	265	55	
2025-10-05T00:00	7120	402	-27.4	-50.0	265	55	
2025-10-05T00:00	7140	401	-27.5	-50.2	265	55	
2025-10-05T00:00	7160	400	-27.7	-50.6	265	55	
2025-10-05T00:00	7180	399	-27.8	-50.8	265	55	
2025-10-05T00:00	7200	398	-28.0	-51.2	264	55	
2025-10-05T00:00	7220	397	-28.1	-51.2	264	55	
2025-10-05T00:00	7240	396	-28.2	-51.4	264	54	
2025-10-05T00:00	7260	395	-28.3	-51.3	264	54	
2025-10-05T00:00	7280	394	-28.4	-51.3	264	54	
2025-10-05T00:00	7300	392	-28.6	-51.4	264	54	
2025-10-05T00:00	7320	391	-28.6	-50.7	264	54	
2025-10-05T00:00	7340	390	-28.7	-50.3	263	54	
2025-10-05T00:00	7360	389	-28.8	-50.4	263	54	
2025-10-05T00:00	7380	388	-28.9	-50.5	263	54	
2025-10-05T00:00	7400	387	-29.1	-50.5	263	54	
2025-10-05T00:00	7420	386	-29.3	-50.4	263	54	
2025-10-05T00:00	7440	385	-29.4	-50.4	263	54	
2025-10-05T00:00	7460	384	-29.6	-50.4	263	54	
2025-10-05T00:00	7480	383	-29.7	-50.5	263	54	
2025-10-05T00:00	7500	382	-29.8	-50.7	263	54	
2025-10-05T00:00	7520	380	-30.0	-50.9	263	54	
2025-10-05T00:00	7540	379	-30.1	-51.1	263	54	
2025-10-05T00:00	7560	378	-30.2	-51.0	263	54	
2025-10-05T00:00	7580	377	-30.4	-51.1	263	54	
2025-10-05T00:00	7600	376	-30.5	-51.4	263	54	
2025-10-05T00:00	7620	375	-30.6	-51.5	263	55	
2025-10-05T00:00	7640	374	-30.7	-50.9	263	55	
2025-10-05T00:00	7660	373	-30.9	-50.9	263	55	
2025-10-05T00:00	7680	372	-31.0	-50.6	263	55	
2025-10-05T00:00	7700	371	-31.2	-50.4	263	55	
2025-10-05T00:00	7720	370	-31.3	-50.3	263	55	
2025-10-05T00:00	7740	369	-31.5	-50.4	263	55	
2025-10-05T00:00	7760	368	-31.6	-50.7	263	55	
2025-10-05T00:00	7780	367	-31.6	-50.6	263	55	
2025-10-05T00:00	7800	366	-31.8	-50.9	263	55	
2025-10-05T00:00	7820	365	-32.0	-51.1	263	55	
2025-10-05T00:00	7840	364	-32.1	-51.0	263	55	
2025-10-05T00:00	7860	363	-32.2	-50.5	262	55	
2025-10-05T00:00	7880	362	-32.3	-50.4	262	55	
2025-10-05T00:00	7900	361	-32.4	-51.0	262	55	
2025-10-05T00:00	7920	360	-32.6	-51.8	262	55	
2025-10-05T00:00	7940	358	-32.7	-52.3	262	55	
2025-10-05T00:00	7960	358	-32.8	-52.2	262	55	
2025-10-05T00:00	7980	357	-32.9	-50.9	262	55	
2025-10-05T00:00	8000	356	-33.1	-50.2	262	55	
2025-10-05T00:00	8020	355	-33.2	-50.0	262	55	
2025-10-05T00:00	8040	353	-33.4	-50.3	262	55	
2025-10-05T00:00	8060	352	-33.6	-50.8	262	55	
2025-10-05T00:00	8080	351	-33.7	-50.8	262	56	
2025-10-05T00:00	8100	350	-33.9	-50.7	262	56	
2025-10-05T00:00	8120	349	-34.0	-50.9	262	56	
2025-10-05T00:00	8140	348	-34.2	-50.9	261	56	
2025-10-05T00:00	8160	347	-34.3	-50.4	261	56	
2025-10-05T00:00	8180	347	-34.5	-50.5	261	56	
2025-10-05T00:00	8200	346	-34.6	-50.2	261	56	
2025-10-05T00:00	8220	344	-34.8	-49.9	261	56	
2025-10-05T00:00	8240	343	-35.0	-49.7	261	56	
2025-10-05T00:00	8260	342	-35.2	-50.2	261	56	
2025-10-05T00:00	8280	341	-35.3	-50.2	261	55	
2025-10-05T00:00	8300	341	-35.4	-50.4	261	55	
2025-10-05T00:00	8320	340	-35.6	-50.5	261	55	
2025-10-05T00:00	8340	339	-35.7	-50.6	262	55	
2025-10-05T00:00	8360	338	-35.9	-50.7	262	55	
2025-10-05T00:00	8380	337	-36.1	-50.8	262	56	
2025-10-05T00:00	8400	336	-36.2	-50.9	262	56	
2025-10-05T00:00	8420	335	-36.4	-51.2	263	56	
2025-10-05T00:00	8440	334	-36.5	-51.7	263	56	
2025-10-05T00:00	8460	333	-36.7	-51.6	263	56	
2025-10-05T00:00	8480	332	-36.9	-51.6	263	57	
2025-10-05T00:00	8500	331	-37.1	-51.9	263	57	
2025-10-05T00:00	8520	330	-37.2	-52.1	263	57	
2025-10-05T00:00	8540	329	-37.4	-52.2	263	57	
2025-10-05T00:00	8560	328	-37.5	-52.3	263	56	
2025-10-05T00:00	8580	327	-37.7	-52.3	263	56	
2025-10-05T00:00	8600	326	-37.8	-52.3	263	56	
2025-10-05T00:00	8620	325	-37.9	-52.4	263	56	
2025-10-05T00:00	8640	324	-38.1	-52.4	262	56	
2025-10-05T00:00	8660	323	-38.2	-52.4	263	56	
2025-10-05T00:00	8680	322	-38.3	-52.4	263	57	
2025-10-05T00:00	8700	321	-38.5	-52.5	263	57	
2025-10-05T00:00	8720	320	-38.7	-52.3	263	57	
2025-10-05T00:00	8740	320	-38.8	-52.4	263	57	
2025-10-05T00:00	8760	319	-39.1	-52.5	264	57	
2025-10-05T00:00	8780	318	-39.2	-52.9	264	57	
2025-10-05T00:00	8800	317	-39.4	-53.0	264	56	
2025-10-05T00:00	8820	316	-39.6	-52.6	264	56	
2025-10-05T00:00	8840	315	-39.8	-52.4	264	56	
2025-10-05T00:00	8860	314	-40.0	-52.4	264	56	
2025-10-05T00:00	8880	313	-40.2	-52.6	264	56	
2025-10-05T00:00	8900	312	-40.3	-52.6	264	56	
2025-10-05T00:00	8920	311	-40.5	-52.9	264	56	
2025-10-05T00:00	8940	310	-40.7	-53.0	264	56	
2025-10-05T00:00	8960	309	-40.9	-52.9	264	56	
2025-10-05T00:00	8980	309	-40.9	-53.5	264	56	
2025-10-05T00:00	9000	308	-40.9	-54.1	264	56	
2025-10-05T00:00	9020	307	-41.0	-53.8	264	56	
2025-10-05T00:00	9040	306	-41.1	-53.6	264	56	
2025-10-05T00:00	9060	305	-41.3	-53.4	264	56	
2025-10-05T00:00	9080	304	-41.5	-53.5	264	56	
2025-10-05T00:00	9100	303	-41.7	-53.9	264	56	
2025-10-05T00:00	9120	302	-41.8	-54.8	264	56	
2025-10-05T00:00	9140	301	-42.0	-55.9	264	56	
2025-10-05T00:00	9160	300	-42.1	-56.3	265	56	
2025-10-05T00:00	9180	300	-42.3	-56.2	265	56	
2025-10-05T00:00	9200	299	-42.4	-56.2	265	56	
2025-10-05T00:00	9220	298	-42.5	-56.0	265	57	
2025-10-05T00:00	9240	297	-42.6	-55.7	265	57	
2025-10-05T00:00	9260	296	-42.8	-55.5	265	57	
2025-10-05T00:00	9280	295	-42.9	-55.7	265	57	
2025-10-05T00:00	9300	294	-43.0	-56.0	266	57	
2025-10-05T00:00	9320	293	-43.1	-56.0	266	58	
2025-10-05T00:00	9340	292	-43.3	-56.0	266	58	
2025-10-05T00:00	9360	292	-43.4	-56.1	266	58	
2025-10-05T00:00	9380	291	-43.5	-56.3	267	58	
2025-10-05T00:00	9400	290	-43.6	-56.6	267	58	
2025-10-05T00:00	9420	289	-43.7	-57.1	267	58	
2025-10-05T00:00	9440	288	-43.8	-57.6	268	58	
2025-10-05T00:00	9460	287	-43.8	-57.8	268	58	
2025-10-05T00:00	9480	286	-43.8	-58.1	268	58	
2025-10-05T00:00	9500	286	-43.9	-58.2	267	58	
2025-10-05T00:00	9520	285	-44.0	-58.0	267	58	
2025-10-05T00:00	9540	284	-44.1	-57.6	267	57	
2025-10-05T00:00	9560	283	-44.1	-57.5	267	57	
2025-10-05T00:00	9580	282	-44.2	-57.6	267	57	
2025-10-05T00:00	9600	281	-44.2	-57.8	267	57	
2025-10-05T00:00	9620	281	-44.2	-58.1	267	57	
2025-10-05T00:00	9640	280	-44.4	-58.3	268	57	
2025-10-05T00:00	9660	279	-44.5	-58.2	268	57	
2025-10-05T00:00	9680	278	-44.7	-58.4	268	57	
2025-10-05T00:00	9700	277	-44.9	-58.8	268	57	
2025-10-05T00:00	9720	276	-45.0	-59.3	268	57	
2025-10-05T00:00	9740	276	-45.2	-59.6	267	56	
2025-10-05T00:00	9760	275	-45.4	-59.8	267	56	
2025-10-05T00:00	9780	274	-45.5	-60.3	267	55	
2025-10-05T00:00	9800	273	-45.5	-61.1	267	55	
2025-10-05T00:00	9820	272	-45.5	-61.6	267	54	
2025-10-05T00:00	9840	272	-45.5	-62.2	267	54	
2025-10-05T00:00	9860	271	-45.3	-63.1	266	54	
2025-10-05T00:00	9880	270	-45.3	-63.7	266	54	
2025-10-05T00:00	9900	269	-45.3	-63.9	266	54	
2025-10-05T00:00	9920	268	-45.0	-63.4	267	54	
2025-10-05T00:00	9940	267	-44.9	-62.9	267	55	
2025-10-05T00:00	9960	267	-45.0	-63.1	267	55	
2025-10-05T00:00	9980	266	-45.1	-63.7	268	55	
2025-10-05T00:00	10000	265	-45.2	-64.2	268	55	
2025-10-05T00:00	10018	264	-45.3	-64.1	268	55	
2025-10-05T00:00	10050	263	-45.4	-63.9	269	56	
2025-10-05T00:00	10100	261	-45.7	-64.5	269	56	
2025-10-05T00:00	10150	259	-46.0	-65.1	269	56	
2025-10-05T00:00	10200	257	-46.1	-66.2	270	55	
2025-10-05T00:00	10250	255	-46.3	-67.1	271	55	
2025-10-05T00:00	10300	253	-46.2	-68.2	272	54	
2025-10-05T00:00	10350	252	-45.9	-69.1	272	54	
2025-10-05T00:00	10400	250	-45.2	-70.2	272	53	
2025-10-05T00:00	10450	248	-45.2	-70.4	271	53	
2025-10-05T00:00	10500	246	-45.6	-70.4	270	54	
2025-10-05T00:00	10550	244	-45.8	-70.6	270	55	
2025-10-05T00:00	10600	242	-45.9	-70.8	272	55	
2025-10-05T00:00	10650	240	-45.8	-71.3	274	55	
2025-10-05T00:00	10700	239	-45.6	-71.7	276	54	
2025-10-05T00:00	10750	237	-45.8	-71.8	277	54	
2025-10-05T00:00	10800	235	-46.0	-72.0	278	53	
2025-10-05T00:00	10850	233	-46.1	-72.1	278	52	
2025-10-05T00:00	10900	232	-46.0	-72.5	278	52	
2025-10-05T00:00	10950	230	-45.7	-72.9	278	51	
2025-10-05T00:00	11000	228	-45.8	-73.0	279	50	
2025-10-05T00:00	11050	226	-46.0	-73.2	279	49	
2025-10-05T00:00	11100	225	-46.2	-73.5	279	47	
2025-10-05T00:00	11150	223	-46.0	-73.9	279	46	
2025-10-05T00:00	11200	221	-46.1	-74.1	278	44	
2025-10-05T00:00	11250	220	-46.2	-74.2	277	44	
2025-10-05T00:00	11300	218	-46.3	-74.5	276	44	
2025-10-05T00:00	11350	216	-46.1	-74.7	275	43	
2025-10-05T00:00	11400	215	-46.5	-74.9	273	43	
2025-10-05T00:00	11450	213	-46.4	-75.0	271	43	
2025-10-05T00:00	11500	211	-46.6	-75.1	270	43	
2025-10-05T00:00	11550	210	-46.9	-75.2	270	44	
2025-10-05T00:00	11600	208	-47.1	-75.3	271	44	
2025-10-05T00:00	11650	207	-47.3	-75.5	272	44	
2025-10-05T00:00	11700	205	-47.3	-75.6	273	44	
2025-10-05T00:00	11750	204	-47.3	-75.8	274	44	
2025-10-05T00:00	11800	202	-47.5	-75.9	274	43	
2025-10-05T00:00	11850	201	-47.9	-76.1	275	43	
2025-10-05T00:00	11900	199	-48.1	-76.3	275	42	
2025-10-05T00:00	11950	198	-48.4	-76.6	275	41	
2025-10-05T00:00	12000	196	-48.5	-76.8	274	40	
2025-10-05T00:00	12050	195	-48.4	-76.8	273	39	
2025-10-05T00:00	12100	193	-48.4	-76.8	273	38	
2025-10-05T00:00	12150	192	-48.6	-76.9	272	38	
2025-10-05T00:00	12200	190	-48.8	-76.9	271	38	
2025-10-05T00:00	12250	189	-49.0	-77.0	270	38	
2025-10-05T00:00	12300	187	-49.3	-77.0	270	38	
2025-10-05T00:00	12350	186	-49.7	-77.2	270	39	
2025-10-05T00:00	12400	184	-49.9	-77.3	271	38	
2025-10-05T00:00	12450	183	-49.9	-77.6	272	38	
2025-10-05T00:00	12500	182	-49.4	-78.0	273	37	
2025-10-05T00:00	12550	180	-49.1	-78.2	272	37	
2025-10-05T00:00	12600	179	-49.3	-78.4	270	36	
2025-10-05T00:00	12650	178	-49.3	-78.4	268	35	
2025-10-05T00:00	12700	176	-49.7	-78.5	267	35	
2025-10-05T00:00	12750	175	-50.1	-78.6	267	35	
2025-10-05T00:00	12800	174	-50.6	-78.7	267	35	
2025-10-05T00:00	12850	172	-51.0	-78.8	267	35	
2025-10-05T00:00	12900	171	-51.4	-78.9	266	36	
2025-10-05T00:00	12950	170	-51.9	-79.1	265	36	
2025-10-05T00:00	13000	168	-52.3	-79.2	265	37	
2025-10-05T00:00	13050	167	-52.4	-79.5	265	37	
2025-10-05T00:00	13100	166	-52.6	-79.6	265	38	
2025-10-05T00:00	13150	164	-52.8	-79.8	266	39	
2025-10-05T00:00	13200	163	-52.9	-79.9	267	40	
2025-10-05T00:00	13250	162	-52.6	-80.0	267	40	
2025-10-05T00:00	13300	161	-52.4	-80.0	266	41	
2025-10-05T00:00	13350	159	-52.4	-79.9	265	41	
2025-10-05T00:00	13400	158	-52.8	-80.0	265	42	
2025-10-05T00:00	13450	157	-53.3	-80.1	264	42	
2025-10-05T00:00	13500	156	-53.6	-80.2	264	43	
2025-10-05T00:00	13550	155	-53.9	-80.2	263	43	
2025-10-05T00:00	13600	153	-54.1	-80.2	263	43	
2025-10-05T00:00	13650	152	-54.4	-80.3	263	42	
2025-10-05T00:00	13700	151	-54.4	-80.4	264	41	
2025-10-05T00:00	13750	150	-54.6	-80.5	264	40	
2025-10-05T00:00	13800	149	-54.7	-80.6	266	40	
2025-10-05T00:00	13850	147	-54.8	-80.8	268	40	
2025-10-05T00:00	13900	146	-54.9	-80.9	270	41	
2025-10-05T00:00	13950	145	-54.8	-80.9	271	41	
2025-10-05T00:00	14000	144	-54.8	-81.1	273	40	
2025-10-05T00:00	14050	143	-54.8	-81.2	273	39	
2025-10-05T00:00	14100	142	-55.1	-81.3	273	39	
2025-10-05T00:00	14150	141	-55.4	-81.4	272	38	
2025-10-05T00:00	14200	140	-55.2	-81.3	270	38	
2025-10-05T00:00	14250	139	-55.3	-81.4	268	38	
2025-10-05T00:00	14300	137	-55.1	-81.5	266	38	
2025-10-05T00:00	14350	136	-54.7	-81.4	264	38	
2025-10-05T00:00	14400	135	-55.1	-81.4	264	39	
2025-10-05T00:00	14450	134	-55.5	-81.5	264	39	
2025-10-05T00:00	14500	133	-55.9	-81.6	266	40	
2025-10-05T00:00	14550	132	-56.1	-81.7	268	40	
2025-10-05T00:00	14600	131	-56.1	-81.9	271	40	
2025-10-05T00:00	14650	130	-56.0	-82.0	273	39	
2025-10-05T00:00	14700	129	-55.9	-82.0	275	38	
2025-10-05T00:00	14750	128	-56.2	-82.1	277	37	
2025-10-05T00:00	14800	127	-56.5	-82.1	278	36	
2025-10-05T00:00	14850	126	-56.8	-82.2	281	35	
2025-10-05T00:00	14900	125	-56.9	-82.4	283	34	
2025-10-05T00:00	14950	124	-56.8	-82.5	284	33	
2025-10-05T00:00	15000	123	-57.2	-82.7	286	32	
2025-10-05T00:00	15050	122	-57.0	-82.9	288	30	
2025-10-05T00:00	15100	121	-56.4	-82.9	291	29	
2025-10-05T00:00	15150	120	-56.0	-82.9	292	27	
2025-10-05T00:00	15200	119	-56.3	-83.0	292	27	
2025-10-05T00:00	15250	118	-56.7	-83.0	291	26	
2025-10-05T00:00	15300	117	-56.9	-82.9	289	25	
2025-10-05T00:00	15350	116	-57.2	-83.1	287	25	
2025-10-05T00:00	15400	116	-57.3	-83.2	284	25	
2025-10-05T00:00	15450	115	-57.5	-83.2	282	25	
2025-10-05T00:00	15500	114	-58.0	-83.3	281	26	
2025-10-05T00:00	15550	113	-58.3	-83.3	280	26	
2025-10-05T00:00	15600	112	-58.7	-83.5	281	25	
2025-10-05T00:00	15650	111	-58.9	-83.7	280	24	
2025-10-05T00:00	15700	110	-59.0	-83.8	278	23	
2025-10-05T00:00	15750	109	-59.0	-83.8	275	22	
2025-10-05T00:00	15800	108	-59.2	-83.9	271	21	
2025-10-05T00:00	15850	108	-59.1	-83.9	267	21	
2025-10-05T00:00	15900	107	-59.4	-84.1	263	20	
2025-10-05T00:00	15950	106	-59.5	-84.1	259	21	
2025-10-05T00:00	16000	105	-59.6	-84.2	257	22	
2025-10-05T00:00	16050	104	-59.7	-84.2	256	23	
2025-10-05T00:00	16100	103	-60.0	-84.2	256	24	
2025-10-05T00:00	16150	103	-60.4	-84.3	255	25	
2025-10-05T00:00	16200	102	-60.7	-84.4	255	27	
2025-10-05T00:00	16250	101	-61.0	-84.6	254	28	
2025-10-05T00:00	16300	100	-61.2	-85.0	254	30	
2025-10-05T00:00	16350	99	-60.4	-84.8	254	30	
2025-10-05T00:00	16400	99	-60.1	-85.0	255	31	
2025-10-05T00:00	16450	98	-59.8	-85.0	256	30	
2025-10-05T00:00	16500	97	-59.6	-84.8	257	30	
2025-10-05T00:00	16550	96	-60.0	-85.0	260	30	
2025-10-05T00:00	16600	95	-59.8	-85.0	264	30	
2025-10-05T00:00	16650	95	-59.4	-84.8	267	30	
2025-10-05T00:00	16700	94	-59.4	-84.8	270	31	
2025-10-05T00:00	16750	93	-59.6	-84.8	272	32	
2025-10-05T00:00	16800	92	-59.8	-84.8	273	32	
2025-10-05T00:00	16850	92	-60.1	-84.9	275	32	
2025-10-05T00:00	16900	91	-60.3	-85.0	277	32	
2025-10-05T00:00	16950	90	-60.3	-85.0	280	32	
2025-10-05T00:00	17000	89	-60.3	-85.0	282	31	
2025-10-05T00:00	17050	89	-60.4	-85.2	285	30	
2025-10-05T00:00	17100	88	-60.4	-85.4	287	29	
2025-10-05T00:00	17150	87	-59.7	-85.5	284	28	
2025-10-05T00:00	17200	87	-57.6	-85.2	277	29	
2025-10-05T00:00	17250	86	-55.8	-84.5	271	32	
2025-10-05T00:00	17300	85	-54.6	-84.1	275	32	
2025-10-05T00:00	17350	85	-52.9	-83.5	282	28	
2025-10-05T00:00	17400	84	-52.3	-83.2	285	26	
2025-10-05T00:00	17450	83	-52.1	-83.0	285	23	
2025-10-05T00:00	17500	83	-51.8	-82.8	286	20	
2025-10-05T00:00	17550	82	-51.3	-82.4	288	17	
2025-10-05T00:00	17600	81	-51.5	-82.3	289	15	
2025-10-05T00:00	17650	81	-52.0	-82.4	287	12	
2025-10-05T00:00	17700	80	-52.2	-82.4	278	9	
2025-10-05T00:00	17750	80	-52.5	-82.6	263	8	
2025-10-05T00:00	17800	79	-52.6	-82.6	249	7	
2025-10-05T00:00	17850	78	-52.6	-82.7	243	6	
2025-10-05T00:00	17900	78	-51.9	-82.2	242	6	
2025-10-05T00:00	17950	77	-52.3	-82.4	240	5	
2025-10-05T00:00	18000	77	-52.8	-82.5	233	5	
2025-10-05T00:00	18050	76	-53.2	-82.5	224	5	
2025-10-05T00:00	18100	75	-53.8	-82.7	217	5	
2025-10-05T00:00	18150	75	-54.3	-82.8	214	6	
2025-10-05T00:00	18200	74	-54.6	-82.8	214	8	
2025-10-05T00:00	18250	74	-55.2	-83.1	214	9	
2025-10-05T00:00	18300	73	-55.8	-83.4	214	9	
2025-10-05T00:00	18350	72	-56.3	-83.6	215	10	
2025-10-05T00:00	18400	72	-56.7	-83.8	215	10	
2025-10-05T00:00	18450	71	-57.1	-83.9	217	9	
2025-10-05T00:00	18500	71	-57.6	-84.2	220	10	
2025-10-05T00:00	18550	70	-58.0	-84.4	225	10	
2025-10-05T00:00	18600	70	-58.4	-84.8	231	10	
2025-10-05T00:00	18650	69	-58.3	-84.7	236	10	
2025-10-05T00:00	18700	69	-58.4	-84.9	241	9	
2025-10-05T00:00	18750	68	-58.4	-84.9	248	8	
2025-10-05T00:00	18800	67	-58.6	-85.0	255	8	
2025-10-05T00:00	18850	67	-58.9	-85.0	261	8	
2025-10-05T00:00	18900	66	-59.2	-85.1	263	8	
2025-10-05T00:00	18950	66	-59.4	-85.3	265	8	
2025-10-05T00:00	19000	65	-59.3	-85.4	270	7	
2025-10-05T00:00	19050	65	-59.4	-85.5	278	8	
2025-10-05T00:00	19100	64	-59.1	-85.4	285	10	
2025-10-05T00:00	19150	64	-59.2	-85.5	288	11	
2025-10-05T00:00	19200	63	-59.3	-85.5	288	11	
2025-10-05T00:00	19250	63	-59.4	-85.6	284	9	
2025-10-05T00:00	19300	62	-59.3	-85.5	277	8	
2025-10-05T00:00	19350	62	-59.4	-85.5	268	6	
2025-10-05T00:00	19400	61	-59.6	-85.5	261	6	
2025-10-05T00:00	19450	61	-59.9	-85.5	255	6	
2025-10-05T00:00	19500	60	-60.2	-85.6	252	6	
2025-10-05T00:00	19550	60	-60.6	-85.7	251	6	
2025-10-05T00:00	19600	59	-61.0	-85.9	252	7	
2025-10-05T00:00	19650	59	-61.3	-86.1	256	7	
2025-10-05T00:00	19700	58	-61.4	-86.3	265	7	
2025-10-05T00:00	19750	58	-60.9	-86.4	276	8	
2025-10-05T00:00	19800	57	-60.4	-86.2	284	9	
2025-10-05T00:00	19850	57	-60.5	-86.2	289	10	
2025-10-05T00:00	19900	57	-60.7	-86.2	290	11	
2025-10-05T00:00	19950	56	-60.8	-86.3	286	11	
2025-10-05T00:00	20000	56	-60.1	-86.0	278	11	
2025-10-05T00:00	20050	55	-60.2		268	11	
2025-10-05T00:00	20100	55	-60.3		261	12	
2025-10-05T00:00	20150	54	-59.4		257	11	
2025-10-05T00:00	20200	54	-58.5		255	10	
2025-10-05T00:00	20250	54	-58.0		253	10	
2025-10-05T00:00	20300	53	-58.3		252	9	
2025-10-05T00:00	20350	53	-58.5		254	9	
2025-10-05T00:00	20400	52	-58.9		256	10	
2025-10-05T00:00	20450	52	-59.3		258	11	
2025-10-05T00:00	20500	51	-59.8		261	12	
2025-10-05T00:00	20550	51	-60.1		265	13	
2025-10-05T00:00	20600	51	-59.5		268	13	
2025-10-05T00:00	20650	50	-59.0		271	13	
2025-10-05T00:00	20700	50	-58.6		274	13	
2025-10-05T00:00	20750	49	-58.0		277	13	
2025-10-05T00:00	20800	49	-57.9		281	13	
2025-10-05T00:00	20850	49	-57.7		285	13	
2025-10-05T00:00	20900	48	-57.1		286	12	
2025-10-05T00:00	20950	48	-56.8		284	11	
2025-10-05T00:00	21000	47	-56.8		278	10	
2025-10-05T00:00	21050	47	-57.0		270	10	
2025-10-05T00:00	21100	47	-57.1		264	10	
2025-10-05T00:00	21150	46	-57.3		261	11	
2025-10-05T00:00	21200	46	-57.6		259	12	
2025-10-05T00:00	21250	46	-57.9		258	13	
2025-10-05T00:00	21300	45	-57.4		261	13	
2025-10-05T00:00	21350	45	-56.3		268	12	
2025-10-05T00:00	21400	45	-56.2		279	11	
2025-10-05T00:00	21450	44	-55.8		291	10	
2025-10-05T00:00	21500	44	-55.5		300	9	
2025-10-05T00:00	21550	44	-55.3		306	7	
2025-10-05T00:00	21600	43	-55.1		309	5	
2025-10-05T00:00	21650	43	-55.1		311	4	
2025-10-05T00:00	21700	43	-55.5		306	3	
2025-10-05T00:00	21750	42	-55.9		290	2	
2025-10-05T00:00	21800	42	-56.2		267	3	
2025-10-05T00:00	21850	42	-56.3		257	3	
2025-10-05T00:00	21900	41	-56.4		258	4	
2025-10-05T00:00	21950	41	-56.7		264	5	
2025-10-05T00:00	22000	41	-57.0		268	6	
2025-10-05T00:00	22050	40	-57.4		268	7	
2025-10-05T00:00	22100	40	-57.6		265	8	
2025-10-05T00:00	22150	40	-57.9		264	9	
2025-10-05T00:00	22200	39	-58.0		264	10	
2025-10-05T00:00	22250	39	-58.2		264	11	
2025-10-05T00:00	22300	39	-58.1		265	12	
2025-10-05T00:00	22350	38	-58.1		269	12	
2025-10-05T00:00	22400	38	-58.5		274	13	
2025-10-05T00:00	22450	38	-58.6		278	13	
2025-10-05T00:00	22500	37	-58.3		282	13	
2025-10-05T00:00	22550	37	-58.2		286	12	
2025-10-05T00:00	22600	37	-58.2		289	12	
2025-10-05T00:00	22650	37	-58.4		293	12	
2025-10-05T00:00	22700	36	-58.5		297	12	
2025-10-05T00:00	22750	36	-58.3		300	12	
2025-10-05T00:00	22800	36	-58.0		303	10	
2025-10-05T00:00	22850	35	-57.8		307	8	
2025-10-05T00:00	22900	35	-57.9		311	7	
2025-10-05T00:00	22950	35	-58.1		318	5	
2025-10-05T00:00	23000	35	-58.2		327	4	
2025-10-05T00:00	23050	34	-58.4		334	3	
2025-10-05T00:00	23100	34	-58.7		336	2	
2025-10-05T00:00	23150	34	-58.8		319	2	
2025-10-05T00:00	23200	34	-59.0		277	2	
2025-10-05T00:00	23250	33	-59.1		252	3	
2025-10-05T00:00	23300	33	-59.1		243	5	
2025-10-05T00:00	23350	33	-58.8		237	7	
2025-10-05T00:00	23400	32	-58.6		236	8	
2025-10-05T00:00	23450	32	-58.8		239	8	
2025-10-05T00:00	23500	32	-58.8		245	9	
2025-10-05T00:00	23550	32	-59.0		251	10	
2025-10-05T00:00	23600	31	-59.2		256	11	
2025-10-05T00:00	23650	31	-59.2		260	12	
2025-10-05T00:00	23700	31	-59.0		262	12	
2025-10-05T00:00	23750	31	-58.8		264	12	
2025-10-05T00:00	23800	30	-58.7		266	11	
2025-10-05T00:00	23850	30	-59.0		267	11	
2025-10-05T00:00	23900	30	-59.0		267	10	
2025-10-05T00:00	23950	30	-58.6		265	10	
2025-10-05T00:00	24000	30	-58.4		260	9	
2025-10-05T00:00	24050	29	-58.0		254	10	
2025-10-05T00:00	24100	29	-57.7		248	10	
2025-10-05T00:00	24150	29	-57.8		246	11	
2025-10-05T00:00	24200	29	-57.8		244	12	
2025-10-05T00:00	24250	28	-57.9		243	12	
2025-10-05T00:00	24300	28	-58.2		241	12	
2025-10-05T00:00	24350	28	-58.2		237	12	
2025-10-05T00:00	24400	28	-58.2		232	11	
2025-10-05T00:00	24450	27	-58.4		227	11	
2025-10-05T00:00	24500	27	-58.5		226	11	
2025-10-05T00:00	24550	27	-58.5		229	10	
2025-10-05T00:00	24600	27	-58.2		233	10	
2025-10-05T00:00	24650	27	-57.5		234	10	
2025-10-05T00:00	24700	26	-56.8		233	9	
2025-10-05T00:00	24750	26	-55.9		230	8	
2025-10-05T00:00	24800	26	-55.5		226	8	
2025-10-05T00:00	24850	26	-54.8		225	8	
2025-10-05T00:00	24900	26	-54.0		229	9	
2025-10-05T00:00	24950	25	-53.9		236	10	
2025-10-05T00:00	25000	25	-53.7		245	11	
2025-10-05T00:00	25050	25	-53.4		253	11	
2025-10-05T00:00	25100	25	-52.9		262	10	
2025-10-05T00:00	25150	25	-52.7		271	10	
2025-10-05T00:00	25200	24	-52.6		280	9	
2025-10-05T00:00	25250	24	-52.4		288	9	
2025-10-05T00:00	25300	24	-52.4		293	8	
2025-10-05T00:00	25350	24	-52.1		295	8	
2025-10-05T00:00	25400	24	-52.4		294	7	
2025-10-05T00:00	25450	23	-52.7		293	7	
2025-10-05T00:00	25500	23	-52.9		294	6	
2025-10-05T00:00	25550	23	-53.1		297	7	
2025-10-05T00:00	25600	23	-53.2		301	7	
2025-10-05T00:00	25650	23	-53.5		301	8	
2025-10-05T00:00	25700	23	-53.2		298	9	
2025-10-05T00:00	25750	22	-53.3		295	10	
2025-10-05T00:00	25800	22	-53.5		292	10	
2025-10-05T00:00	25850	22	-53.5		291	11	
2025-10-05T00:00	25900	22	-53.7		290	12	
2025-10-05T00:00	25950	22	-53.9		288	12	
2025-10-05T00:00	26000	22	-54.2		286	13	
2025-10-05T00:00	26050	21	-54.4		284	14	
2025-10-05T00:00	26100	21	-54.4		283	15	
2025-10-05T00:00	26150	21	-54.3		284	15	
2025-10-05T00:00	26200	21	-53.9		288	15	
2025-10-05T00:00	26250	21	-54.3		292	14	
2025-10-05T00:00	26300	21	-54.5		294	15	
2025-10-05T00:00	26350	20	-54.6		293	15	
2025-10-05T00:00	26400	20	-54.2		291	16	
2025-10-05T00:00	26450	20	-53.6		291	17	
2025-10-05T00:00	26500	20	-53.4		294	17	
2025-10-05T00:00	26550	20	-53.2		298	18	
2025-10-05T00:00	26600	20	-52.9		302	18	
2025-10-05T00:00	26650	19	-52.8		305	17	
2025-10-05T00:00	26700	19	-53.0		306	17	
2025-10-05T00:00	26750	19	-53.0		306	17	
2025-10-05T00:00	26800	19	-53.0		306	17	
2025-10-05T00:00	26850	19	-52.3		308	16	
2025-10-05T00:00	26900	19	-52.1		309	14	
2025-10-05T00:00	26950	19	-52.2		310	12	
2025-10-05T00:00	27000	18	-51.9		309	10	
2025-10-05T00:00	27050	18	-51.3		306	10	
2025-10-05T00:00	27100	18	-50.9		305	11	
2025-10-05T00:00	27150	18	-50.7		303	12	
2025-10-05T00:00	27200	18	-50.1		300	13	
2025-10-05T00:00	27250	18	-49.6		297	13	
2025-10-05T00:00	27300	18	-48.6		293	12	
2025-10-05T00:00	27350	17	-48.7		286	11	
2025-10-05T00:00	27400	17	-48.7		276	9	
2025-10-05T00:00	27450	17	-48.8		262	9	
2025-10-05T00:00	27500	17	-48.5		253	9	
2025-10-05T00:00	27550	17	-47.1		255	9	
2025-10-05T00:00	27600	17	-46.5		264	9	
2025-10-05T00:00	27650	17	-46.8		276	9	
2025-10-05T00:00	27700	17	-47.1		286	9	
2025-10-05T00:00	27750	16	-47.5		293	9	
2025-10-05T00:00	27800	16	-47.9		299	9	
2025-10-05T00:00	27850	16	-48.4		305	9	
2025-10-05T00:00	27900	16	-48.9		311	9	
2025-10-05T00:00	27950	16	-49.3		317	9	
2025-10-05T00:00	28000	16	-49.7		321	8	
2025-10-05T00:00	28050	16	-49.7		318	8	
2025-10-05T00:00	28100	16	-49.7		311	8	
2025-10-05T00:00	28150	15	-50.0		304	8	
2025-10-05T00:00	28200	15	-49.7		300	9	
2025-10-05T00:00	28250	15	-49.2		298	9	
2025-10-05T00:00	28300	15	-48.5		298	10	
2025-10-05T00:00	28350	15	-47.9		299	9	
2025-10-05T00:00	28400	15	-47.7		303	8	
2025-10-05T00:00	28450	15	-47.7		306	7	
2025-10-05T00:00	28500	15	-47.1		306	6	
2025-10-05T00:00	28550	15	-47.1		302	5	
2025-10-05T00:00	28600	14	-47.0		295	4	
2025-10-05T00:00	28650	14	-47.1		286	4	
2025-10-05T00:00	28700	14	-47.4		278	4	
2025-10-05T00:00	28750	14	-47.8		272	4	
2025-10-05T00:00	28800	14	-48.1		269	5	
2025-10-05T00:00	28850	14	-48.4		267	6	
2025-10-05T00:00	28900	14	-48.5		268	8	
2025-10-05T00:00	28950	14	-48.4		270	9	
2025-10-05T00:00	29000	14	-48.0		273	10	
2025-10-05T00:00	29050	14	-47.7		274	11	
2025-10-05T00:00	29100	13	-47.6		273	11	
2025-10-05T00:00	29150	13	-47.2		272	12	
2025-10-05T00:00	29200	13	-47.2		271	14	
2025-10-05T00:00	29250	13	-47.4		270	15	
2025-10-05T00:00	29300	13	-47.6		270	15	
2025-10-05T00:00	29350	13	-47.4		274	16	
2025-10-05T00:00	29400	13	-47.5		278	16	
2025-10-05T00:00	29450	13	-47.4		282	17	
2025-10-05T00:00	29500	13	-47.4		284	18	
2025-10-05T00:00	29550	13	-47.5		285	19	
2025-10-05T00:00	29600	12	-47.6		288	20	
2025-10-05T00:00	29650	12	-47.5		291	21	
2025-10-05T00:00	29700	12	-47.6		295	21	
2025-10-05T00:00	29750	12	-47.9		297	21	
2025-10-05T00:00	29800	12	-48.0		299	20	
2025-10-05T00:00	29850	12	-48.3		300	20	
2025-10-05T00:00	29900	12	-48.3		300	19	
2025-10-05T00:00	29950	12	-48.5		300	18	
2025-10-05T00:00	30000	12	-48.8		301	17	
2025-10-05T00:00	30050	12	-49.1		302	17	
2025-10-05T00:00	30100	12	-49.2		302	17	
2025-10-05T00:00	30150	11	-49.3		301	18	
2025-10-05T00:00	30200	11	-49.0		299	19	
2025-10-05T00:00	30250	11	-48.3		298	19	
2025-10-05T00:00	30300	11	-48.2		298	20	
2025-10-05T00:00	30350	11	-47.8		298	20	
2025-10-05T00:00	30400	11	-47.7		298	19	
2025-10-05T00:00	30450	11	-47.7		298	19	
2025-10-05T00:00	30500	11	-47.6		297	20	
2025-10-05T00:00	30550	11	-47.8		296	20	
2025-10-05T00:00	30600	11	-48.0		295	20	
2025-10-05T00:00	30650	11	-48.2		293	21	
2025-10-05T00:00	30700	11	-48.3		292	21	
2025-10-05T00:00	30750	10	-48.6		292	21	
2025-10-05T00:00	30800	10	-48.8		294	21	
2025-10-05T00:00	30850	10	-48.3		297	20	
2025-10-05T00:00	30900	10	-47.7		299	19	
2025-10-05T00:00	30950	10	-47.2		299	19	
2025-10-05T00:00	31000	10	-46.2		297	19	
2025-10-05T00:00	31050	10	-45.8		295	20	
2025-10-05T00:00	31100	10	-45.4		295	21	
2025-10-05T00:00	31150	10	-44.8		297	21	
2025-10-05T00:00	31200	10	-44.1		301	21	
2025-10-05T00:00	31250	10	-43.8		304	21	
2025-10-05T00:00	31300	10	-43.2		305	21	
2025-10-05T00:00	31350	10	-42.9		304	21	
2025-10-05T00:00	31400	9	-42.8		302	22	
2025-10-05T00:00	31450	9	-42.7		302	22	
2025-10-05T00:00	31500	9	-42.8		302	22	
2025-10-05T00:00	31550	9	-42.9		304	22	
2025-10-05T00:00	31600	9	-41.7		307	21	
2025-10-05T00:00	31650	9	-41.5		310	20	
2025-10-05T00:00	31700	9	-41.7		313	18	
2025-10-05T00:00	31750	9	-42.0		316	17	
2025-10-05T00:00	31800	9	-42.3		319	16	
2025-10-05T00:00	31850	9	-42.6		322	15	
2025-10-05T00:00	31900	9	-42.9		324	15	
2025-10-05T00:00	31950	9	-43.2		327	14	
2025-10-05T00:00	32000	9	-43.5		329	13	
2025-10-05T00:00	32050	9	-43.9		331	11	
2025-10-05T00:00	32100	9	-44.2		331	10	
2025-10-05T00:00	32150	8	-43.7		327	9	
2025-10-05T00:00	32200	8	-43.5		321	10	
2025-10-05T00:00	32250	8	-43.3		315	11	
2025-10-05T00:00	32300	8	-42.9		311	13	
2025-10-05T00:00	32350	8	-42.6		310	15	
2025-10-05T00:00	32400	8	-42.6		309	17	
2025-10-05T00:00	32450	8	-42.7		308	19	
2025-10-05T00:00	32500	8	-42.7		308	21	
2025-10-05T00:00	32550	8	-42.4		310	22	
2025-10-05T00:00	32600	8	-42.2		312	22	
2025-10-05T00:00	32650	8	-41.1		316	20	
2025-10-05T00:00	32700	8	-40.3		318	19	
2025-10-05T00:00	32750	8	-39.6		318	18	
2025-10-05T00:00	32800	8	-38.7		317	18	
2025-10-05T00:00	32850	8	-38.4		316	17	
2025-10-05T00:00	32900	8	-37.6		315	15	
2025-10-05T00:00	32950	8	-37.5		315	13	
2025-10-05T00:00	33000	7	-37.4		313	11	
2025-10-05T00:00	33050	7	-37.3		308	10	
2025-10-05T00:00	33100	7	-37.4		302	10	
2025-10-05T00:00	33150	7	-37.6		293	9	
2025-10-05T00:00	33200	7	-37.9		284	9	
2025-10-05T00:00	33250	7	-38.1		274	9	
2025-10-05T00:00	33300	7	-38.3		266	10	
2025-10-05T00:00	33350	7	-38.6		259	11	
2025-10-05T00:00	33400	7	-38.7		255	12	
2025-10-05T00:00	33450	7	-38.7		252	13	
2025-10-05T00:00	33500	7	-38.5		252	13	
2025-10-05T00:00	33550	7	-38.5		252	14	
2025-10-05T00:00	33600	7	-38.5		252	15	
2025-10-05T00:00	33650	7	-38.6		252	16	
2025-10-05T00:00	33700	7	-38.9		252	16	
2025-10-05T00:00	33750	7	-39.2		250	17	
2025-10-05T00:00	33800	7	-39.5		248	18	
2025-10-05T00:00	33850	7	-39.8		247	19	
2025-10-05T00:00	33900	7	-40.1		248	19	
2025-10-05T00:00	33950	7	-40.4		251	20	
2025-10-05T00:00	34000	6	-40.3		254	19	
2025-10-05T00:00	34050	6	-40.0		260	18	
2025-10-05T00:00	34100	6	-40.1		268	17	
2025-10-05T00:00	34150	6	-40.1		273	17	
2025-10-05T00:00	34200	6	-40.1		276	16	
2025-10-05T00:00	34250	6	-40.1		277	15	
2025-10-05T00:00	34300	6	-40.0		275	14	
2025-10-05T00:00	34350	6	-39.6		272	14	
2025-10-05T00:00	34400	6	-39.6		273	13	
2025-10-05T00:00	34450	6	-39.3		279	13	
2025-10-05T00:00	34500	6	-38.9		287	12	
2025-10-05T00:00	34550	6	-38.5		295	12	
2025-10-05T00:00	34600	6	-38.1		302	13	
2025-10-05T00:00	34650	6	-38.1		307	13	
2025-10-05T00:00	34700	6	-38.4		311	13	
2025-10-05T00:00	34750	6	-38.8		314	13	
2025-10-05T00:00	34800	6	-38.4		315	11	
2025-10-05T00:00	34850	6	-38.2		312	10	
2025-10-05T00:00	34900	6	-38.3		307	8	
2025-10-05T00:00	34950	6	-38.2		303	7	
2025-10-05T00:00	35000	6	-38.1		300	7	
2025-10-05T00:00	35050	6	-37.9		299	7	
2025-10-05T00:00	35100	6	-38.1		298	7	
2025-10-05T00:00	35150	5	-38.4		296	7	
2025-10-05T00:00	35200	5	-38.7		294	8	
2025-10-05T00:00	35250	5	-38.9		294	9	
2025-10-05T00:00	35300	5	-39.3		294	10	
2025-10-05T00:00	35350	5	-39.5		295	10	
2025-10-05T00:00	35400	5	-39.8		298	11	
2025-10-05T00:00	35450	5	-40.0		301	12	
2025-10-05T00:00	35500	5	-40.0		303	12	
2025-10-05T00:00	35550	5	-40.1		303	13	
2025-10-05T00:00	35600	5	-40.1		301	13	
2025-10-05T00:00	35650	5	-40.0		300	13	
2025-10-05T00:00	35700	5	-40.1		299	12	
2025-10-05T00:00	35750	5	-40.1		301	12	
2025-10-05T00:00	35800	5	-40.1		304	12	
2025-10-05T00:00	35850	5	-40.1		306	12	
2025-10-05T00:00	35900	5	-39.9		307	12	
2025-10-05T00:00	35950	5	-39.9		307	13	
2025-10-05T00:00	36000	5	-39.5		308	13	
2025-10-05T00:00	36050	5	-38.8		310	12	
2025-10-05T00:00	36100	5	-38.4		313	12	
2025-10-05T00:00	36150	5	-38.5		315	11	
2025-10-05T00:00	36200	5	-38.2		312	10	
2025-10-05T00:00	36250	5	-37.2		304	9	
2025-10-05T00:00	36300	5	-36.3		292	9	
2025-10-05T00:00	36350	5	-35.0		281	9	
2025-10-05T00:00	36400	5	-34.7		273	9	
2025-10-05T00:00	36450	5	-34.7		270	10	
2025-10-05T00:00	36500	4	-34.7		268	11	
2025-10-05T00:00	36550	4	-34.6		266	11	
2025-10-05T00:00	36600	4	-34.5		264	11	
2025-10-05T00:00	36650	4	-33.7		263	9	
2025-10-05T00:00	36700	4	-32.9		263	7	
2025-10-05T00:00	36750	4	-31.8		263	6	
2025-10-05T00:00	36800	4	-31.6		264	6	
2025-10-05T00:00	36850	4	-31.8		263	5	
2025-10-05T00:00	36900	4	-32.1		263	4	
2025-10-05T00:00	36950	4	-32.3		266	4	
2025-10-05T00:00	37000	4	-32.4		269	5	
2025-10-05T00:00	37050	4	-32.3		268	6	
2025-10-05T00:00	37100	4	-32.4		264	7	
2025-10-05T00:00	37150	4	-32.6		260	8	
2025-10-05T00:00	37200	4	-32.9		257	10	
2025-10-05T00:00	37250	4	-33.1		254	11	
2025-10-05T00:00	37300	4	-33.3		255	11	
2025-10-05T00:00	37350	4	-33.5		257	11	
2025-10-05T12:00	491	963	11.5	6.2	224	4	
2025-10-05T12:00	520	960	10.9	5.5	214	4	
2025-10-05T12:00	540	957	10.7	5.4	214	5	
2025-10-05T12:00	560	955	10.4	5.1	215	5	
2025-10-05T12:00	580	953	10.1	4.8	217	6	
2025-10-05T12:00	600	950	9.7	4.4	220	7	
2025-10-05T12:00	620	948	9.4	4.2	222	8	
2025-10-05T12:00	640	946	9.1	4.0	226	8	
2025-10-05T12:00	660	944	8.9	3.7	229	9	
2025-10-05T12:00	680	941	8.7	3.6	232	9	
2025-10-05T12:00	700	939	8.5	3.9	234	10	
2025-10-05T12:00	720	937	8.4	4.1	236	10	
2025-10-05T12:00	740	935	8.1	3.7	237	10	
2025-10-05T12:00	760	932	7.9	3.8	238	10	
2025-10-05T12:00	780	930	7.7	3.7	238	10	
2025-10-05T12:00	800	928	7.5	3.7	238	9	
2025-10-05T12:00	820	926	7.3	3.6	237	9	
2025-10-05T12:00	840	923	7.1	3.6	237	9	
2025-10-05T12:00	860	921	6.9	3.6	238	9	
2025-10-05T12:00	880	919	6.7	3.6	238	9	
2025-10-05T12:00	900	917	6.6	3.5	240	9	
2025-10-05T12:00	920	914	6.4	3.4	242	9	
2025-10-05T12:00	940	912	6.2	2.9	244	9	
2025-10-05T12:00	960	910	6.1	2.7	246	10	
2025-10-05T12:00	980	908	5.9	2.8	248	10	
2025-10-05T12:00	1000	906	5.7	2.8	249	10	
2025-10-05T12:00	1020	904	5.5	2.7	251	10	
2025-10-05T12:00	1040	901	5.3	2.2	252	11	
2025-10-05T12:00	1060	899	5.2	1.9	252	11	
2025-10-05T12:00	1080	897	5.0	1.9	252	11	
2025-10-05T12:00	1100	895	4.8	1.9	251	11	
2025-10-05T12:00	1120	893	4.6	1.8	250	11	
2025-10-05T12:00	1140	890	4.4	1.4	249	11	
2025-10-05T12:00	1160	888	4.2	1.5	249	11	
2025-10-05T12:00	1180	886	4.1	1.5	248	12	
2025-10-05T12:00	1200	883	3.9	1.3	248	12	
2025-10-05T12:00	1220	881	3.6	1.6	247	12	
2025-10-05T12:00	1240	879	3.5	0.8	247	12	
2025-10-05T12:00	1260	877	3.3	0.7	248	12	
2025-10-05T12:00	1280	875	3.1	0.9	249	12	
2025-10-05T12:00	1300	873	2.9	0.9	250	12	
2025-10-05T12:00	1320	871	2.7	0.8	251	12	
2025-10-05T12:00	1340	869	2.6	0.6	252	12	
2025-10-05T12:00	1360	866	2.4	0.6	253	12	
2025-10-05T12:00	1380	864	2.2	0.7	254	13	
2025-10-05T12:00	1400	862	2.0	0.5	256	12	
2025-10-05T12:00	1420	860	1.9	0.2	257	12	
2025-10-05T12:00	1440	858	2.0	0.0	258	12	
2025-10-05T12:00	1460	856	1.9	-0.1	259	12	
2025-10-05T12:00	1480	854	1.6	-0.1	259	12	
2025-10-05T12:00	1500	851	1.4	-0.2	259	12	
2025-10-05T12:00	1520	849	1.3	-0.5	259	12	
2025-10-05T12:00	1540	847	1.2	-0.7	259	12	
2025-10-05T12:00	1560	845	1.1	-0.9	260	12	
2025-10-05T12:00	1580	843	1.0	-1.0	260	12	
2025-10-05T12:00	1600	841	0.9	-1.2	260	12	
2025-10-05T12:00	1620	839	0.7	-1.3	260	12	
2025-10-05T12:00	1640	837	0.6	-1.3	260	12	
2025-10-05T12:00	1660	835	0.4	-1.3	261	12	
2025-10-05T12:00	1680	833	0.2	-1.6	261	12	
2025-10-05T12:00	1700	830	0.1	-1.8	262	11	
2025-10-05T12:00	1720	828	-0.1	-2.1	263	11	
2025-10-05T12:00	1740	827	-0.3	-2.6	265	11	
2025-10-05T12:00	1760	824	-0.5	-2.4	266	11	
2025-10-05T12:00	1780	822	-0.6	-2.5	267	11	
2025-10-05T12:00	1800	820	-0.8	-2.7	269	11	
2025-10-05T12:00	1820	818	-0.9	-3.0	270	11	
2025-10-05T12:00	1840	816	-1.1	-3.1	271	10	
2025-10-05T12:00	1860	814	-1.3	-3.1	272	10	
2025-10-05T12:00	1880	812	-1.4	-3.2	272	10	
2025-10-05T12:00	1900	810	-1.6	-3.1	271	9	
2025-10-05T12:00	1920	808	-1.7	-3.1	270	9	
2025-10-05T12:00	1940	806	-1.8	-3.0	269	9	
2025-10-05T12:00	1960	804	-1.8	-3.2	267	9	
2025-10-05T12:00	1980	802	-1.8	-3.4	265	9	
2025-10-05T12:00	2000	800	-1.9	-3.6	264	9	
2025-10-05T12:00	2020	798	-2.0	-4.0	264	9	
2025-10-05T12:00	2040	796	-2.2	-3.9	264	9	
2025-10-05T12:00	2060	794	-2.3	-3.9	264	9	
2025-10-05T12:00	2080	792	-2.5	-3.9	264	9	
2025-10-05T12:00	2100	790	-2.7	-4.0	265	9	
2025-10-05T12:00	2120	788	-2.9	-4.0	265	9	
2025-10-05T12:00	2140	786	-3.1	-4.1	266	9	
2025-10-05T12:00	2160	784	-3.2	-4.3	266	10	
2025-10-05T12:00	2180	782	-3.4	-4.6	266	10	
2025-10-05T12:00	2200	780	-3.5	-4.9	266	10	
2025-10-05T12:00	2220	778	-3.7	-5.5	267	10	
2025-10-05T12:00	2240	776	-3.9	-5.3	267	10	
2025-10-05T12:00	2260	774	-4.0	-5.6	268	10	
2025-10-05T12:00	2280	772	-4.3	-5.6	269	10	
2025-10-05T12:00	2300	770	-4.4	-5.6	270	10	
2025-10-05T12:00	2320	768	-4.5	-6.0	271	11	
2025-10-05T12:00	2340	766	-4.7	-6.2	272	11	
2025-10-05T12:00	2360	764	-4.8	-6.5	273	10	
2025-10-05T12:00	2380	762	-4.9	-6.5	272	10	
2025-10-05T12:00	2400	760	-5.1	-6.6	271	10	
2025-10-05T12:00	2420	759	-5.2	-6.6	271	10	
2025-10-05T12:00	2440	757	-5.3	-6.8	270	10	
2025-10-05T12:00	2460	754	-5.5	-6.8	269	9	
2025-10-05T12:00	2480	753	-5.6	-7.0	269	9	
2025-10-05T12:00	2500	751	-5.8	-7.0	271	9	
2025-10-05T12:00	2520	749	-6.0	-7.0	272	10	
2025-10-05T12:00	2540	747	-6.1	-7.1	274	10	
2025-10-05T12:00	2560	745	-6.2	-7.1	276	10	
2025-10-05T12:00	2580	743	-6.3	-7.2	277	10	
2025-10-05T12:00	2600	741	-6.5	-7.1	278	10	
2025-10-05T12:00	2620	739	-6.6	-7.0	277	10	
2025-10-05T12:00	2640	737	-6.8	-7.0	276	9	
2025-10-05T12:00	2660	736	-7.0	-7.0	275	9	
2025-10-05T12:00	2680	734	-7.1	-7.2	273	9	
2025-10-05T12:00	2700	732	-7.2	-7.5	271	9	
2025-10-05T12:00	2720	730	-7.4	-7.6	269	9	
2025-10-05T12:00	2740	728	-7.5	-7.6	268	9	
2025-10-05T12:00	2760	726	-7.7	-7.8	268	9	
2025-10-05T12:00	2780	724	-7.9	-7.9	269	9	
2025-10-05T12:00	2800	723	-8.0	-8.0	270	9	
2025-10-05T12:00	2820	721	-8.2	-8.2	271	9	
2025-10-05T12:00	2840	719	-8.3	-8.3	273	9	
2025-10-05T12:00	2860	717	-8.5	-8.5	276	9	
2025-10-05T12:00	2880	715	-8.5	-8.5	278	9	
2025-10-05T12:00	2900	713	-8.7	-8.7	280	10	
2025-10-05T12:00	2920	711	-8.8	-8.8	283	10	
2025-10-05T12:00	2940	710	-8.9	-8.9	285	10	
2025-10-05T12:00	2960	708	-9.1	-9.1	288	11	
2025-10-05T12:00	2980	706	-9.3	-9.3	290	11	
2025-10-05T12:00	3000	704	-9.3	-10.0	293	12	
2025-10-05T12:00	3020	702	-9.2	-11.3	296	13	
2025-10-05T12:00	3040	700	-9.2	-11.9	297	13	
2025-10-05T12:00	3060	699	-9.2	-12.6	299	14	
2025-10-05T12:00	3080	697	-9.2	-13.2	300	14	
2025-10-05T12:00	3100	695	-9.4	-13.6	302	15	
2025-10-05T12:00	3120	693	-9.4	-14.0	304	15	
2025-10-05T12:00	3140	692	-9.4	-14.4	304	15	
2025-10-05T12:00	3160	690	-9.5	-14.5	304	16	
2025-10-05T12:00	3180	688	-9.5	-15.2	303	16	
2025-10-05T12:00	3200	686	-9.6	-15.6	302	16	
2025-10-05T12:00	3220	684	-9.6	-16.7	301	16	
2025-10-05T12:00	3240	683	-9.7	-17.4	300	17	
2025-10-05T12:00	3260	681	-9.8	-17.9	299	17	
2025-10-05T12:00	3280	679	-9.9	-18.5	299	17	
2025-10-05T12:00	3300	677	-9.9	-19.2	299	17	
2025-10-05T12:00	3320	676	-10.0	-19.4	300	17	
2025-10-05T12:00	3340	674	-10.1	-19.1	301	18	
2025-10-05T12:00	3360	672	-10.2	-19.8	302	18	
2025-10-05T12:00	3380	670	-10.2	-21.3	302	18	
2025-10-05T12:00	3400	669	-10.4	-22.3	303	19	
2025-10-05T12:00	3420	667	-10.4	-22.3	303	19	
2025-10-05T12:00	3440	665	-10.5	-21.9	303	19	
2025-10-05T12:00	3460	663	-10.7	-22.4	303	19	
2025-10-05T12:00	3480	662	-10.8	-22.4	302	19	
2025-10-05T12:00	3500	660	-11.0	-22.7	302	19	
2025-10-05T12:00	3520	658	-11.1	-23.2	303	19	
2025-10-05T12:00	3540	657	-11.2	-23.3	303	19	
2025-10-05T12:00	3560	655	-11.3	-23.3	303	19	
2025-10-05T12:00	3580	653	-11.4	-23.8	303	19	
2025-10-05T12:00	3600	651	-11.6	-24.1	302	19	
2025-10-05T12:00	3620	650	-11.7	-24.6	302	20	
2025-10-05T12:00	3640	648	-11.8	-25.2	301	20	
2025-10-05T12:00	3660	646	-12.0	-25.7	299	19	
2025-10-05T12:00	3680	645	-12.1	-25.5	298	19	
2025-10-05T12:00	3700	643	-12.2	-25.5	298	19	
2025-10-05T12:00	3720	641	-12.3	-26.1	297	18	
2025-10-05T12:00	3740	640	-12.4	-26.0	296	18	
2025-10-05T12:00	3760	638	-12.5	-26.6	295	17	
2025-10-05T12:00	3780	636	-12.6	-26.9	294	17	
2025-10-05T12:00	3800	634	-12.7	-27.1	294	17	
2025-10-05T12:00	3820	633	-12.8	-27.1	294	17	
2025-10-05T12:00	3840	631	-13.0	-27.6	295	17	
2025-10-05T12:00	3860	630	-13.2	-28.0	295	18	
2025-10-05T12:00	3880	628	-13.3	-28.4	295	18	
2025-10-05T12:00	3900	626	-13.5	-29.0	295	18	
2025-10-05T12:00	3920	625	-13.6	-29.4	295	18	
2025-10-05T12:00	3940	623	-13.7	-29.7	295	18	
2025-10-05T12:00	3960	622	-13.9	-30.2	296	18	
2025-10-05T12:00	3980	620	-14.0	-30.5	297	19	
2025-10-05T12:00	4000	618	-14.1	-30.9	298	19	
2025-10-05T12:00	4020	617	-14.2	-31.3	299	19	
2025-10-05T12:00	4040	615	-14.3	-31.5	300	19	
2025-10-05T12:00	4060	613	-14.4	-31.4	300	19	
2025-10-05T12:00	4080	612	-14.6	-31.2	300	19	
2025-10-05T12:00	4100	610	-14.8	-30.8	299	19	
2025-10-05T12:00	4120	608	-14.9	-30.6	299	19	
2025-10-05T12:00	4140	607	-15.1	-30.7	299	18	
2025-10-05T12:00	4160	605	-15.2	-30.6	300	18	
2025-10-05T12:00	4180	604	-15.4	-30.3	301	18	
2025-10-05T12:00	4200	602	-15.5	-29.3	302	17	
2025-10-05T12:00	4220	600	-15.7	-29.0	303	17	
2025-10-05T12:00	4240	599	-15.8	-28.4	304	17	
2025-10-05T12:00	4260	597	-16.0	-28.3	305	16	
2025-10-05T12:00	4280	596	-16.2	-28.4	306	16	
2025-10-05T12:00	4300	594	-16.4	-28.5	307	16	
2025-10-05T12:00	4320	592	-16.6	-28.1	308	16	
2025-10-05T12:00	4340	591	-16.8	-28.1	309	16	
2025-10-05T12:00	4360	589	-16.9	-28.3	311	16	
2025-10-05T12:00	4380	588	-17.1	-28.2	312	16	
2025-10-05T12:00	4400	586	-17.2	-28.5	312	16	
2025-10-05T12:00	4420	585	-17.4	-28.8	313	17	
2025-10-05T12:00	4440	583	-17.5	-29.1	312	17	
2025-10-05T12:00	4460	582	-17.6	-29.1	311	17	
2025-10-05T12:00	4480	580	-17.8	-29.4	310	17	
2025-10-05T12:00	4500	578	-18.0	-29.5	308	17	
2025-10-05T12:00	4520	577	-18.1	-29.7	307	17	
2025-10-05T12:00	4540	575	-18.2	-29.7	306	17	
2025-10-05T12:00	4560	574	-18.3	-29.7	304	17	
2025-10-05T12:00	4580	572	-18.4	-29.9	303	16	
2025-10-05T12:00	4600	571	-18.6	-29.9	303	16	
2025-10-05T12:00	4620	569	-18.7	-29.7	302	17	
2025-10-05T12:00	4640	568	-18.9	-29.4	302	17	
2025-10-05T12:00	4660	566	-19.1	-29.4	302	17	
2025-10-05T12:00	4680	565	-19.2	-29.1	302	18	
2025-10-05T12:00	4700	563	-19.4	-28.8	302	18	
2025-10-05T12:00	4720	562	-19.6	-28.6	302	18	
2025-10-05T12:00	4740	560	-19.7	-28.3	303	18	
2025-10-05T12:00	4760	559	-19.9	-27.6	303	18	
2025-10-05T12:00	4780	557	-19.9	-27.2	303	18	
2025-10-05T12:00	4800	556	-20.0	-27.7	303	18	
2025-10-05T12:00	4820	554	-20.1	-28.3	302	18	
2025-10-05T12:00	4840	553	-20.3	-28.7	302	18	
2025-10-05T12:00	4860	551	-20.4	-30.1	301	18	
2025-10-05T12:00	4880	550	-20.5	-30.0	301	18	
2025-10-05T12:00	4900	548	-20.7	-30.0	301	18	
2025-10-05T12:00	4920	547	-20.8	-29.9	301	18	
2025-10-05T12:00	4940	545	-21.0	-29.7	302	18	
2025-10-05T12:00	4960	544	-21.2	-29.4	303	18	
2025-10-05T12:00	4980	542	-21.3	-28.4	304	18	
2025-10-05T12:00	5000	541	-21.5	-28.0	304	18	
2025-10-05T12:00	5020	539	-21.6	-28.0	305	18	
2025-10-05T12:00	5040	538	-21.8	-28.2	305	19	
2025-10-05T12:00	5060	536	-22.0	-28.8	306	19	
2025-10-05T12:00	5080	535	-22.1	-29.6	307	19	
2025-10-05T12:00	5100	533	-22.2	-30.3	308	20	
2025-10-05T12:00	5120	532	-22.4	-30.6	310	20	
2025-10-05T12:00	5140	531	-22.5	-31.2	311	20	
2025-10-05T12:00	5160	529	-22.7	-32.0	312	20	
2025-10-05T12:00	5180	528	-22.8	-33.1	313	20	
2025-10-05T12:00	5200	526	-22.9	-34.2	313	20	
2025-10-05T12:00	5220	525	-23.0	-34.2	313	20	
2025-10-05T12:00	5240	524	-23.2	-33.8	312	19	
2025-10-05T12:00	5260	522	-23.4	-33.3	311	19	
2025-10-05T12:00	5280	520	-23.6	-33.1	310	19	
2025-10-05T12:00	5300	519	-23.8	-32.9	310	19	
2025-10-05T12:00	5320	518	-24.0	-32.6	309	19	
2025-10-05T12:00	5340	516	-24.1	-32.4	309	19	
2025-10-05T12:00	5360	515	-24.2	-32.0	309	18	
2025-10-05T12:00	5380	513	-24.3	-31.5	309	18	
2025-10-05T12:00	5400	512	-24.5	-31.1	309	19	
2025-10-05T12:00	5420	511	-24.7	-31.1	309	19	
2025-10-05T12:00	5440	509	-24.9	-31.2	308	19	
2025-10-05T12:00	5460	508	-25.1	-31.3	307	20	
2025-10-05T12:00	5480	506	-25.2	-32.4	307	20	
2025-10-05T12:00	5500	505	-25.3	-34.4	307	20	
2025-10-05T12:00	5520	504	-25.4	-37.0	307	20	
2025-10-05T12:00	5540	502	-25.4	-38.8	307	21	
2025-10-05T12:00	5560	501	-25.4	-40.0	307	21	
2025-10-05T12:00	5580	500	-25.5	-40.0	308	22	
2025-10-05T12:00	5600	498	-25.7	-40.5	309	22	
2025-10-05T12:00	5620	497	-25.8	-41.1	310	23	
2025-10-05T12:00	5640	495	-25.9	-41.7	311	24	
2025-10-05T12:00	5660	494	-25.9	-42.5	312	24	
2025-10-05T12:00	5680	493	-26.0	-44.1	312	24	
2025-10-05T12:00	5700	491	-26.0	-45.4	312	24	
2025-10-05T12:00	5720	490	-26.1	-45.7	312	24	
2025-10-05T12:00	5740	488	-26.2	-45.6	312	24	
2025-10-05T12:00	5760	487	-26.4	-45.7	312	24	
2025-10-05T12:00	5780	486	-26.5	-45.9	312	23	
2025-10-05T12:00	5800	485	-26.7	-46.0	311	23	
2025-10-05T12:00	5820	483	-26.9	-46.1	311	22	
2025-10-05T12:00	5840	482	-27.0	-46.3	311	22	
2025-10-05T12:00	5860	480	-27.2	-46.5	311	22	
2025-10-05T12:00	5880	479	-27.3	-46.8	311	21	
2025-10-05T12:00	5900	478	-27.5	-47.0	311	21	
2025-10-05T12:00	5920	477	-27.7	-47.0	312	21	
2025-10-05T12:00	5940	475	-27.8	-47.0	312	21	
2025-10-05T12:00	5960	474	-27.9	-46.0	312	22	
2025-10-05T12:00	5980	473	-28.0	-45.0	312	22	
2025-10-05T12:00	6000	471	-28.1	-44.8	312	22	
2025-10-05T12:00	6020	470	-28.3	-44.3	312	22	
2025-10-05T12:00	6040	469	-28.5	-44.1	312	22	
2025-10-05T12:00	6060	467	-28.6	-43.8	313	22	
2025-10-05T12:00	6080	466	-28.7	-43.5	313	21	
2025-10-05T12:00	6100	465	-28.9	-43.4	312	21	
2025-10-05T12:00	6120	463	-29.1	-43.3	312	21	
2025-10-05T12:00	6140	462	-29.3	-43.2	310	21	
2025-10-05T12:00	6160	461	-29.4	-43.3	309	21	
2025-10-05T12:00	6180	460	-29.5	-43.4	307	21	
2025-10-05T12:00	6200	458	-29.6	-43.5	306	21	
2025-10-05T12:00	6220	457	-29.7	-43.8	306	22	
2025-10-05T12:00	6240	456	-29.8	-44.1	306	23	
2025-10-05T12:00	6260	454	-29.9	-44.4	306	23	
2025-10-05T12:00	6280	453	-30.0	-44.5	306	24	
2025-10-05T12:00	6300	452	-30.2	-44.8	307	24	
2025-10-05T12:00	6320	450	-30.3	-45.3	307	25	
2025-10-05T12:00	6340	449	-30.4	-45.5	307	25	
2025-10-05T12:00	6360	448	-30.5	-45.9	308	26	
2025-10-05T12:00	6380	447	-30.5	-46.2	308	26	
2025-10-05T12:00	6400	445	-30.6	-46.8	308	27	
2025-10-05T12:00	6420	444	-30.7	-47.3	308	27	
2025-10-05T12:00	6440	443	-30.8	-47.7	308	28	
2025-10-05T12:00	6460	442	-30.8	-48.1	308	28	
2025-10-05T12:00	6480	441	-30.9	-48.3	309	28	
2025-10-05T12:00	6500	439	-31.1	-48.5	309	29	
2025-10-05T12:00	6520	438	-31.2	-48.5	310	29	
2025-10-05T12:00	6540	437	-31.3	-48.6	310	30	
2025-10-05T12:00	6560	436	-31.4	-48.6	311	30	
2025-10-05T12:00	6580	434	-31.4	-48.4	312	30	
2025-10-05T12:00	6600	433	-31.5	-48.4	313	31	
2025-10-05T12:00	6620	432	-31.6	-48.4	314	31	
2025-10-05T12:00	6640	431	-31.7	-48.7	315	31	
2025-10-05T12:00	6660	430	-31.8	-48.7	316	32	
2025-10-05T12:00	6680	428	-32.0	-48.1	316	32	
2025-10-05T12:00	6700	427	-32.0	-46.8	317	32	
2025-10-05T12:00	6720	426	-32.1	-46.5	318	32	
2025-10-05T12:00	6740	425	-32.3	-46.3	318	32	
2025-10-05T12:00	6760	423	-32.4	-45.2	318	32	
2025-10-05T12:00	6780	422	-32.5	-44.5	318	32	
2025-10-05T12:00	6800	421	-32.6	-44.1	319	33	
2025-10-05T12:00	6820	420	-32.7	-43.9	319	33	
2025-10-05T12:00	6840	419	-32.8	-43.8	319	33	
2025-10-05T12:00	6860	417	-33.0	-43.4	319	33	
2025-10-05T12:00	6880	416	-33.1	-42.7	320	33	
2025-10-05T12:00	6900	415	-33.1	-42.0	320	34	
2025-10-05T12:00	6920	414	-33.3	-41.9	320	34	
2025-10-05T12:00	6940	413	-33.4	-41.9	321	35	
2025-10-05T12:00	6960	411	-33.6	-42.0	321	35	
2025-10-05T12:00	6980	410	-33.6	-42.0	322	35	
2025-10-05T12:00	7000	409	-33.7	-42.2	322	35	
2025-10-05T12:00	7020	408	-33.8	-42.7	322	35	
2025-10-05T12:00	7040	407	-33.8	-44.6	321	35	
2025-10-05T12:00	7060	406	-34.0	-46.9	321	35	
2025-10-05T12:00	7080	405	-34.1	-50.1	320	35	
2025-10-05T12:00	7100	403	-34.2	-50.8	319	35	
2025-10-05T12:00	7120	402	-34.2	-52.0	319	35	
2025-10-05T12:00	7140	401	-34.2	-55.8	319	35	
2025-10-05T12:00	7160	400	-34.2	-55.1	318	35	
2025-10-05T12:00	7180	399	-34.2	-51.7	318	35	
2025-10-05T12:00	7200	398	-34.2	-49.5	319	35	
2025-10-05T12:00	7220	396	-34.3	-48.6	319	36	
2025-10-05T12:00	7240	395	-34.4	-49.1	320	36	
2025-10-05T12:00	7260	394	-34.5	-49.8	320	36	
2025-10-05T12:00	7280	393	-34.4	-49.4	320	36	
2025-10-05T12:00	7300	392	-34.5	-48.3	321	36	
2025-10-05T12:00	7320	391	-34.7	-48.2	321	36	
2025-10-05T12:00	7340	390	-34.9	-47.9	321	37	
2025-10-05T12:00	7360	389	-35.0	-48.0	321	37	
2025-10-05T12:00	7380	388	-35.2	-48.2	321	37	
2025-10-05T12:00	7400	386	-35.5	-47.6	321	37	
2025-10-05T12:00	7420	385	-35.6	-47.5	321	37	
2025-10-05T12:00	7440	384	-35.8	-46.8	321	38	
2025-10-05T12:00	7460	383	-36.0	-46.5	321	38	
2025-10-05T12:00	7480	382	-36.1	-46.6	322	38	
2025-10-05T12:00	7500	381	-36.3	-46.4	322	39	
2025-10-05T12:00	7520	380	-36.3	-46.0	322	39	
2025-10-05T12:00	7540	379	-36.2	-44.8	322	39	
2025-10-05T12:00	7560	378	-36.2	-43.0	323	39	
2025-10-05T12:00	7580	377	-36.2	-42.7	323	39	
2025-10-05T12:00	7600	375	-36.3	-43.9	323	39	
2025-10-05T12:00	7620	374	-36.5	-44.3	323	39	
2025-10-05T12:00	7640	373	-36.6	-44.0	323	39	
2025-10-05T12:00	7660	372	-36.8	-44.4	323	39	
2025-10-05T12:00	7680	371	-37.0	-45.1	323	39	
2025-10-05T12:00	7700	370	-37.1	-45.8	323	39	
2025-10-05T12:00	7720	369	-37.2	-47.1	323	39	
2025-10-05T12:00	7740	368	-37.4	-46.8	323	39	
2025-10-05T12:00	7760	367	-37.5	-46.7	323	38	
2025-10-05T12:00	7780	366	-37.7	-46.9	323	38	
2025-10-05T12:00	7800	365	-37.9	-47.1	323	38	
2025-10-05T12:00	7820	364	-38.0	-47.0	323	37	
2025-10-05T12:00	7840	363	-38.2	-47.0	323	37	
2025-10-05T12:00	7860	362	-38.4	-47.1	322	37	
2025-10-05T12:00	7880	361	-38.5	-47.5	322	36	
2025-10-05T12:00	7900	360	-38.6	-47.9	321	36	
2025-10-05T12:00	7920	359	-38.7	-47.9	321	36	
2025-10-05T12:00	7940	357	-38.8	-48.2	321	35	
2025-10-05T12:00	7960	356	-38.9	-48.5	321	35	
2025-10-05T12:00	7980	355	-39.0	-48.5	320	34	
2025-10-05T12:00	8000	354	-39.1	-48.6	320	34	
2025-10-05T12:00	8020	353	-39.2	-49.0	320	34	
2025-10-05T12:00	8040	352	-39.2	-49.7	320	34	
2025-10-05T12:00	8060	351	-39.3	-49.5	319	34	
2025-10-05T12:00	8080	350	-39.6	-49.1	319	34	
2025-10-05T12:00	8100	349	-39.7	-48.8	319	34	
2025-10-05T12:00	8120	348	-39.9	-48.8	319	34	
2025-10-05T12:00	8140	347	-40.0	-49.0	320	34	
2025-10-05T12:00	8160	346	-40.1	-49.7	321	34	
2025-10-05T12:00	8180	345	-40.3	-50.2	321	34	
2025-10-05T12:00	8200	344	-40.4	-50.2	322	34	
2025-10-05T12:00	8220	343	-40.6	-50.0	323	35	
2025-10-05T12:00	8240	342	-40.7	-50.1	323	35	
2025-10-05T12:00	8260	341	-40.8	-50.6	324	34	
2025-10-05T12:00	8280	340	-40.9	-51.5	324	34	
2025-10-05T12:00	8300	339	-41.0	-52.0	325	34	
2025-10-05T12:00	8320	338	-41.1	-52.1	325	33	
2025-10-05T12:00	8340	337	-41.1	-52.1	325	33	
2025-10-05T12:00	8360	336	-41.3	-52.2	324	33	
2025-10-05T12:00	8380	335	-41.4	-52.2	323	33	
2025-10-05T12:00	8400	334	-41.3	-52.6	323	34	
2025-10-05T12:00	8420	333	-41.4	-52.8	322	34	
2025-10-05T12:00	8440	332	-41.6	-53.5	322	34	
2025-10-05T12:00	8460	331	-41.6	-54.2	321	34	
2025-10-05T12:00	8480	330	-41.8	-54.0	321	35	
2025-10-05T12:00	8500	329	-41.9	-53.8	320	35	
2025-10-05T12:00	8520	328	-42.1	-53.5	320	35	
2025-10-05T12:00	8540	327	-42.3	-53.5	320	35	
2025-10-05T12:00	8560	326	-42.5	-53.4	320	35	
2025-10-05T12:00	8580	325	-42.6	-53.3	320	35	
2025-10-05T12:00	8600	324	-42.8	-53.5	319	35	
2025-10-05T12:00	8620	323	-42.9	-53.6	318	36	
2025-10-05T12:00	8640	322	-43.0	-53.6	317	36	
2025-10-05T12:00	8660	321	-43.2	-53.4	316	37	
2025-10-05T12:00	8680	320	-43.4	-53.4	316	37	
2025-10-05T12:00	8700	320	-43.5	-53.5	315	38	
2025-10-05T12:00	8720	319	-43.6	-53.7	314	38	
2025-10-05T12:00	8740	318	-43.8	-53.6	313	38	
2025-10-05T12:00	8760	317	-44.0	-53.2	313	39	
2025-10-05T12:00	8780	316	-44.2	-53.2	312	39	
2025-10-05T12:00	8800	315	-44.3	-53.2	312	39	
2025-10-05T12:00	8820	314	-44.5	-53.3	312	39	
2025-10-05T12:00	8840	313	-44.7	-53.5	312	39	
2025-10-05T12:00	8860	312	-44.8	-53.6	312	39	
2025-10-05T12:00	8880	311	-45.0	-53.6	312	39	
2025-10-05T12:00	8900	310	-45.2	-53.6	312	40	
2025-10-05T12:00	8920	309	-45.3	-53.5	313	40	
2025-10-05T12:00	8940	308	-45.5	-53.5	313	40	
2025-10-05T12:00	8960	307	-45.6	-53.6	313	40	
2025-10-05T12:00	8980	306	-45.8	-53.7	314	40	
2025-10-05T12:00	9000	305	-45.9	-53.8	314	40	
2025-10-05T12:00	9020	305	-46.1	-53.7	315	41	
2025-10-05T12:00	9040	304	-46.2	-53.9	316	41	
2025-10-05T12:00	9060	303	-46.3	-54.2	316	41	
2025-10-05T12:00	9080	302	-46.4	-54.4	317	41	
2025-10-05T12:00	9100	301	-46.4	-54.9	318	41	
2025-10-05T12:00	9120	300	-46.4	-55.4	319	41	
2025-10-05T12:00	9140	299	-46.4	-55.9	319	41	
2025-10-05T12:00	9160	298	-46.5	-56.3	320	40	
2025-10-05T12:00	9180	297	-46.6	-56.9	321	40	
2025-10-05T12:00	9200	296	-46.7	-57.3	321	39	
2025-10-05T12:00	9220	296	-46.8	-58.0	321	38	
2025-10-05T12:00	9240	295	-46.7	-59.0	322	37	
2025-10-05T12:00	9260	294	-46.8	-59.6	322	37	
2025-10-05T12:00	9280	293	-46.8	-60.0	322	36	
2025-10-05T12:00	9300	292	-46.6	-61.0	321	35	
2025-10-05T12:00	9320	291	-46.0	-61.4	320	34	
2025-10-05T12:00	9340	290	-45.9	-60.8	319	33	
2025-10-05T12:00	9360	289	-45.9	-60.5	318	33	
2025-10-05T12:00	9380	289	-45.8	-60.4	317	32	
2025-10-05T12:00	9400	288	-45.9	-60.5	316	32	
2025-10-05T12:00	9420	287	-46.0	-60.4	316	31	
2025-10-05T12:00	9440	286	-46.1	-60.6	316	31	
2025-10-05T12:00	9460	285	-46.3	-60.8	315	31	
2025-10-05T12:00	9480	284	-46.4	-61.2	315	30	
2025-10-05T12:00	9500	283	-46.5	-61.8	314	30	
2025-10-05T12:00	9520	282	-46.5	-62.2	313	30	
2025-10-05T12:00	9540	282	-46.6	-62.2	313	30	
2025-10-05T12:00	9560	281	-46.6	-62.6	312	30	
2025-10-05T12:00	9580	280	-46.4	-63.2	310	30	
2025-10-05T12:00	9600	279	-46.3	-64.1	310	31	
2025-10-05T12:00	9620	278	-46.3	-65.5	309	31	
2025-10-05T12:00	9640	277	-46.0	-67.5	309	31	
2025-10-05T12:00	9660	277	-45.6	-69.7	309	31	
2025-10-05T12:00	9680	276	-45.3	-70.7	309	32	
2025-10-05T12:00	9700	275	-44.8	-70.6	310	32	
2025-10-05T12:00	9720	274	-44.6	-69.3	310	32	
2025-10-05T12:00	9740	273	-44.6	-68.7	311	32	
2025-10-05T12:00	9760	273	-44.4	-68.6	312	32	
2025-10-05T12:00	9780	272	-44.4	-68.9	312	32	
2025-10-05T12:00	9800	271	-44.4	-69.3	312	32	
2025-10-05T12:00	9820	270	-44.2	-69.9	312	32	
2025-10-05T12:00	9840	269	-44.1	-70.5	312	32	
2025-10-05T12:00	9860	268	-44.1	-70.6	312	32	
2025-10-05T12:00	9880	268	-44.1	-70.5	312	32	
2025-10-05T12:00	9900	267	-44.1	-70.0	311	33	
2025-10-05T12:00	9920	266	-44.3	-69.8	311	33	
2025-10-05T12:00	9940	265	-44.4	-69.7	310	33	
2025-10-05T12:00	9960	265	-44.4	-69.9	310	33	
2025-10-05T12:00	9980	264	-44.4	-70.4	310	33	
2025-10-05T12:00	10000	263	-44.5	-70.6	310	32	
2025-10-05T12:00	10018	262	-44.6	-70.7	311	32	
2025-10-05T12:00	10050	261	-44.4	-71.5	312	32	
2025-10-05T12:00	10100	259	-44.0	-73.0	314	31	
2025-10-05T12:00	10150	257	-43.5	-73.4	315	30	
2025-10-05T12:00	10200	255	-43.5	-73.0	315	30	
2025-10-05T12:00	10250	253	-43.4	-72.5	315	29	
2025-10-05T12:00	10300	251	-43.4	-72.5	313	28	
2025-10-05T12:00	10350	250	-43.5	-72.5	311	28	
2025-10-05T12:00	10400	248	-43.5	-72.9	309	28	
2025-10-05T12:00	10450	246	-43.5	-73.7	307	27	
2025-10-05T12:00	10500	244	-43.7	-74.6	305	27	
2025-10-05T12:00	10550	242	-43.8	-75.3	302	28	
2025-10-05T12:00	10600	240	-44.1	-75.8	300	28	
2025-10-05T12:00	10650	239	-44.2	-75.9	300	29	
2025-10-05T12:00	10700	237	-44.3	-76.1	301	29	
2025-10-05T12:00	10750	235	-44.4	-76.2	302	29	
2025-10-05T12:00	10800	233	-44.4	-76.2	301	28	
2025-10-05T12:00	10850	232	-44.1	-76.5	299	28	
2025-10-05T12:00	10900	230	-44.0	-76.4	298	28	
2025-10-05T12:00	10950	228	-44.3	-76.5	297	29	
2025-10-05T12:00	11000	227	-44.5	-76.6	296	30	
2025-10-05T12:00	11050	225	-44.6	-76.6	296	31	
2025-10-05T12:00	11100	223	-44.9	-76.7	297	30	
2025-10-05T12:00	11150	221	-44.9	-76.9	297	30	
2025-10-05T12:00	11200	220	-44.9	-76.9	298	29	
2025-10-05T12:00	11250	218	-45.2	-77.1	299	29	
2025-10-05T12:00	11300	217	-45.5	-77.2	300	29	
2025-10-05T12:00	11350	215	-45.8	-77.3	301	29	
2025-10-05T12:00	11400	213	-46.1	-77.4	302	29	
2025-10-05T12:00	11450	212	-46.4	-77.6	303	30	
2025-10-05T12:00	11500	210	-46.2	-77.6	304	30	
2025-10-05T12:00	11550	209	-46.3	-77.8	304	29	
2025-10-05T12:00	11600	207	-46.4	-77.8	303	29	
2025-10-05T12:00	11650	205	-46.5	-77.9	302	28	
2025-10-05T12:00	11700	204	-46.7	-78.0	302	28	
2025-10-05T12:00	11750	202	-46.8	-78.0	303	28	
2025-10-05T12:00	11800	201	-46.6	-78.0	305	27	
2025-10-05T12:00	11850	199	-46.5	-78.0	305	26	
2025-10-05T12:00	11900	198	-46.8	-78.1	303	25	
2025-10-05T12:00	11950	196	-46.7	-78.0	302	26	
2025-10-05T12:00	12000	195	-46.6	-78.0	302	26	
2025-10-05T12:00	12050	193	-46.9	-78.1	304	27	
2025-10-05T12:00	12100	192	-47.2	-78.2	306	27	
2025-10-05T12:00	12150	191	-47.6	-78.4	308	27	
2025-10-05T12:00	12200	189	-47.8	-78.5	309	26	
2025-10-05T12:00	12250	188	-48.2	-78.5	309	26	
2025-10-05T12:00	12300	186	-48.6	-78.7	310	26	
2025-10-05T12:00	12350	185	-48.9	-78.8	310	27	
2025-10-05T12:00	12400	183	-49.2	-79.0	309	26	
2025-10-05T12:00	12450	182	-49.5	-79.1	308	26	
2025-10-05T12:00	12500	181	-49.7	-79.3	308	25	
2025-10-05T12:00	12550	179	-49.9	-79.3	309	25	
2025-10-05T12:00	12600	178	-50.2	-79.5	309	25	
2025-10-05T12:00	12650	177	-50.5	-79.6	309	25	
2025-10-05T12:00	12700	175	-50.8	-79.7	309	24	
2025-10-05T12:00	12750	174	-51.2	-79.8	309	23	
2025-10-05T12:00	12800	172	-51.6	-80.0	309	23	
2025-10-05T12:00	12850	171	-51.7	-80.1	308	22	
2025-10-05T12:00	12900	170	-52.1	-80.2	308	22	
2025-10-05T12:00	12950	169	-52.5	-80.4	308	23	
2025-10-05T12:00	13000	167	-52.7	-80.4	308	23	
2025-10-05T12:00	13050	166	-53.0	-80.6	308	23	
2025-10-05T12:00	13100	165	-53.3	-80.7	308	24	
2025-10-05T12:00	13150	163	-53.5	-80.8	309	24	
2025-10-05T12:00	13200	162	-53.8	-80.9	309	24	
2025-10-05T12:00	13250	161	-54.0	-81.0	307	24	
2025-10-05T12:00	13300	160	-54.1	-81.1	306	24	
2025-10-05T12:00	13350	158	-54.2	-81.3	307	25	
2025-10-05T12:00	13400	157	-53.9	-81.2	308	25	
2025-10-05T12:00	13450	156	-54.0	-81.4	308	25	
2025-10-05T12:00	13500	155	-53.9	-81.4	307	27	
2025-10-05T12:00	13550	154	-53.9	-81.5	305	28	
2025-10-05T12:00	13600	152	-53.7	-81.7	302	28	
2025-10-05T12:00	13650	151	-53.7	-81.7	299	29	
2025-10-05T12:00	13700	150	-54.0	-81.8	297	29	
2025-10-05T12:00	13750	149	-54.1	-81.8	298	29	
2025-10-05T12:00	13800	148	-54.3	-81.9	299	29	
2025-10-05T12:00	13850	147	-54.5	-82.0	299	29	
2025-10-05T12:00	13900	145	-54.6	-82.2	298	29	
2025-10-05T12:00	13950	144	-54.6	-82.2	297	29	
2025-10-05T12:00	14000	143	-54.5	-82.2	298	28	
2025-10-05T12:00	14050	142	-54.7	-82.2	299	27	
2025-10-05T12:00	14100	141	-55.0	-82.2	301	27	
2025-10-05T12:00	14150	140	-55.0	-82.2	302	27	
2025-10-05T12:00	14200	139	-55.1	-82.3	302	28	
2025-10-05T12:00	14250	138	-55.3	-82.3	303	28	
2025-10-05T12:00	14300	137	-55.5	-82.5	303	28	
2025-10-05T12:00	14350	135	-55.6	-82.7	304	28	
2025-10-05T12:00	14400	134	-55.1	-82.6	304	27	
2025-10-05T12:00	14450	133	-55.2	-82.6	304	26	
2025-10-05T12:00	14500	132	-55.3	-82.7	303	26	
2025-10-05T12:00	14550	131	-55.2	-82.6	303	26	
2025-10-05T12:00	14600	130	-55.5	-82.7	302	26	
2025-10-05T12:00	14650	129	-56.0	-82.8	301	26	
2025-10-05T12:00	14700	128	-56.1	-82.8	300	27	
2025-10-05T12:00	14750	127	-56.0	-83.0	299	27	
2025-10-05T12:00	14800	126	-55.9	-83.2	300	26	
2025-10-05T12:00	14850	125	-55.5	-83.0	299	25	
2025-10-05T12:00	14900	124	-55.4	-83.1	297	25	
2025-10-05T12:00	14950	123	-55.0	-83.1	295	24	
2025-10-05T12:00	15000	122	-55.0	-83.1	296	25	
2025-10-05T12:00	15050	121	-55.0	-83.0	297	25	
2025-10-05T12:00	15100	120	-54.8	-82.9	298	26	
2025-10-05T12:00	15150	120	-54.7	-82.9	298	27	
2025-10-05T12:00	15200	119	-54.7	-82.9	298	27	
2025-10-05T12:00	15250	118	-54.7	-83.0	297	27	
2025-10-05T12:00	15300	117	-54.5	-83.0	295	26	
2025-10-05T12:00	15350	116	-54.5	-82.9	295	26	
2025-10-05T12:00	15400	115	-54.5	-83.0	296	25	
2025-10-05T12:00	15450	114	-54.5	-83.1	296	24	
2025-10-05T12:00	15500	113	-54.4	-83.1	296	24	
2025-10-05T12:00	15550	112	-54.3	-83.1	297	24	
2025-10-05T12:00	15600	111	-54.5	-83.2	299	25	
2025-10-05T12:00	15650	111	-54.5	-83.2	299	25	
2025-10-05T12:00	15700	110	-54.6	-83.2	300	24	
2025-10-05T12:00	15750	109	-54.7	-83.2	301	24	
2025-10-05T12:00	15800	108	-54.9	-83.4	301	23	
2025-10-05T12:00	15850	107	-54.5	-83.3	299	22	
2025-10-05T12:00	15900	106	-54.4	-83.4	297	22	
2025-10-05T12:00	15950	106	-53.8	-83.3	296	22	
2025-10-05T12:00	16000	105	-52.9	-83.2	297	21	
2025-10-05T12:00	16050	104	-52.7	-83.1	300	19	
2025-10-05T12:00	16100	103	-52.9	-83.0	303	19	
2025-10-05T12:00	16150	102	-52.9	-82.9	304	18	
2025-10-05T12:00	16200	101	-53.2	-82.9	305	18	
2025-10-05T12:00	16250	101	-53.5	-83.0	305	18	
2025-10-05T12:00	16300	100	-53.6	-83.1	306	17	
2025-10-05T12:00	16350	99	-53.7	-83.2	308	17	
2025-10-05T12:00	16400	98	-53.6	-83.3	310	16	
2025-10-05T12:00	16450	98	-53.1	-83.4	312	15	
2025-10-05T12:00	16500	97	-52.3	-83.2	314	13	
2025-10-05T12:00	16550	96	-52.1	-83.1	317	11	
2025-10-05T12:00	16600	95	-51.8	-82.8	320	11	
2025-10-05T12:00	16650	95	-52.1	-82.7	324	10	
2025-10-05T12:00	16700	94	-52.5	-82.7	327	10	
2025-10-05T12:00	16750	93	-53.0	-82.8	328	10	
2025-10-05T12:00	16800	92	-53.4	-83.0	328	10	
2025-10-05T12:00	16850	92	-53.9	-83.1	327	9	
2025-10-05T12:00	16900	91	-54.3	-83.3	323	8	
2025-10-05T12:00	16950	90	-54.7	-83.4	317	7	
2025-10-05T12:00	17000	90	-55.0	-83.5	310	6	
2025-10-05T12:00	17050	89	-55.3	-83.7	301	5	
2025-10-05T12:00	17100	88	-55.6	-83.9	288	4	
2025-10-05T12:00	17150	87	-55.8	-83.9	272	4	
2025-10-05T12:00	17200	87	-56.2	-83.9	257	4	
2025-10-05T12:00	17250	86	-56.7	-84.1	249	4	
2025-10-05T12:00	17300	85	-57.1	-84.3	245	4	
2025-10-05T12:00	17350	85	-57.6	-84.5	241	5	
2025-10-05T12:00	17400	84	-57.9	-84.6	238	6	
2025-10-05T12:00	17450	83	-58.3	-84.8	234	8	
2025-10-05T12:00	17500	83	-58.3	-84.9	226	9	
2025-10-05T12:00	17550	82	-58.5	-85.1	219	9	
2025-10-05T12:00	17600	81	-58.6	-85.1	215	10	
2025-10-05T12:00	17650	81	-58.9	-85.2	216	11	
2025-10-05T12:00	17700	80	-59.2	-85.2	220	11	
2025-10-05T12:00	17750	80	-59.5	-85.2	223	12	
2025-10-05T12:00	17800	79	-59.9	-85.4	228	13	
2025-10-05T12:00	17850	78	-60.3	-85.8	235	13	
2025-10-05T12:00	17900	78	-60.0	-85.8	244	13	
2025-10-05T12:00	17950	77	-59.7	-85.8	255	13	
2025-10-05T12:00	18000	76	-59.4	-85.9	264	13	
2025-10-05T12:00	18050	76	-58.5	-85.7	268	14	
2025-10-05T12:00	18100	75	-58.4	-85.7	265	14	
2025-10-05T12:00	18150	75	-58.1	-85.4	258	15	
2025-10-05T12:00	18200	74	-58.3	-85.3	253	16	
2025-10-05T12:00	18250	73	-58.7	-85.4	252	17	
2025-10-05T12:00	18300	73	-59.2	-85.4	253	18	
2025-10-05T12:00	18350	72	-59.6	-85.6	256	19	
2025-10-05T12:00	18400	72	-59.8	-85.8	261	20	
2025-10-05T12:00	18450	71	-59.4	-86.0	268	20	
2025-10-05T12:00	18500	71	-58.7	-85.8	275	19	
2025-10-05T12:00	18550	70	-58.6	-85.8	280	19	
2025-10-05T12:00	18600	69	-58.7	-85.8	284	19	
2025-10-05T12:00	18650	69	-58.9	-85.8	288	18	
2025-10-05T12:00	18700	68	-58.9	-85.8	292	18	
2025-10-05T12:00	18750	68	-58.7	-85.8	295	18	
2025-10-05T12:00	18800	67	-58.2	-85.7	298	17	
2025-10-05T12:00	18850	67	-57.7	-85.7	303	16	
2025-10-05T12:00	18900	66	-57.3	-85.7	308	15	
2025-10-05T12:00	18950	66	-56.8	-85.7	313	13	
2025-10-05T12:00	19000	65	-56.0	-85.3	321	11	
2025-10-05T12:00	19050	65	-55.6	-85.0	327	9	
2025-10-05T12:00	19100	64	-55.4	-84.8	325	8	
2025-10-05T12:00	19150	64	-55.5	-84.7	324	8	
2025-10-05T12:00	19200	63	-55.7	-84.7	326	7	
2025-10-05T12:00	19250	63	-55.7	-84.6	327	6	
2025-10-05T12:00	19300	62	-56.0	-84.7	327	5	
2025-10-05T12:00	19350	62	-56.1	-84.7	329	4	
2025-10-05T12:00	19400	61	-56.1	-84.7	332	3	
2025-10-05T12:00	19450	61	-56.5	-84.9	331	2	
2025-10-05T12:00	19500	60	-56.6	-84.8	326	2	
2025-10-05T12:00	19550	60	-56.7	-84.8	321	1	
2025-10-05T12:00	19600	59	-57.0	-84.9	313	2	
2025-10-05T12:00	19650	59	-57.5	-85.0	303	2	
2025-10-05T12:00	19700	58	-57.9	-85.0	300	2	
2025-10-05T12:00	19750	58	-58.4	-85.3	305	3	
2025-10-05T12:00	19800	57	-58.7	-85.4	309	4	
2025-10-05T12:00	19850	57	-59.2	-85.7	309	4	
2025-10-05T12:00	19900	57	-59.3	-85.6	307	5	
2025-10-05T12:00	19950	56	-59.5	-85.7	307	6	
2025-10-05T12:00	20000	56	-59.9	-85.9	308	7	
2025-10-05T12:00	20050	55	-59.9		307	8	
2025-10-05T12:00	20100	55	-59.9		304	9	
2025-10-05T12:00	20150	54	-60.2		301	9	
2025-10-05T12:00	20200	54	-60.2		301	10	
2025-10-05T12:00	20250	53	-59.9		303	10	
2025-10-05T12:00	20300	53	-60.0		303	10	
2025-10-05T12:00	20350	53	-60.3		304	11	
2025-10-05T12:00	20400	52	-60.5		309	11	
2025-10-05T12:00	20450	52	-60.3		317	11	
2025-10-05T12:00	20500	51	-60.3		324	10	
2025-10-05T12:00	20550	51	-60.5		329	9	
2025-10-05T12:00	20600	51	-60.8		331	9	
2025-10-05T12:00	20650	50	-61.3		324	8	
2025-10-05T12:00	20700	50	-61.4		312	8	
2025-10-05T12:00	20750	49	-61.2		298	8	
2025-10-05T12:00	20800	49	-60.0		287	9	
2025-10-05T12:00	20850	49	-59.6		278	10	
2025-10-05T12:00	20900	48	-59.3		272	10	
2025-10-05T12:00	20950	48	-58.4		274	10	
2025-10-05T12:00	21000	47	-58.1		279	9	
2025-10-05T12:00	21050	47	-58.4		282	9	
2025-10-05T12:00	21100	47	-58.5		289	9	
2025-10-05T12:00	21150	46	-58.3		303	8	
2025-10-05T12:00	21200	46	-57.6		315	7	
2025-10-05T12:00	21250	46	-57.2		328	5	
2025-10-05T12:00	21300	45	-56.7		340	4	
2025-10-05T12:00	21350	45	-56.7		346	3	
2025-10-05T12:00	21400	45	-57.2		352	1	
2025-10-05T12:00	21450	44	-57.5		36	1	
2025-10-05T12:00	21500	44	-57.8		70	0	
2025-10-05T12:00	21550	43	-58.1		336	1	
2025-10-05T12:00	21600	43	-58.1		297	2	
2025-10-05T12:00	21650	43	-58.3		274	2	
2025-10-05T12:00	21700	42	-58.6		256	3	
2025-10-05T12:00	21750	42	-59.0		248	4	
2025-10-05T12:00	21800	42	-59.4		249	5	
2025-10-05T12:00	21850	41	-59.8		253	6	
2025-10-05T12:00	21900	41	-60.1		253	8	
2025-10-05T12:00	21950	41	-60.0		253	9	
2025-10-05T12:00	22000	40	-58.5		255	9	
2025-10-05T12:00	22050	40	-57.8		261	9	
2025-10-05T12:00	22100	40	-57.4		266	8	
2025-10-05T12:00	22150	39	-57.2		271	7	
2025-10-05T12:00	22200	39	-57.4		275	6	
2025-10-05T12:00	22250	39	-57.2		280	4	
2025-10-05T12:00	22300	39	-57.3		291	3	
2025-10-05T12:00	22350	38	-57.4		313	2	
2025-10-05T12:00	22400	38	-57.5		338	1	
2025-10-05T12:00	22450	38	-57.8		349	2	
2025-10-05T12:00	22500	37	-58.0		357	2	
2025-10-05T12:00	22550	37	-58.2		10	2	
2025-10-05T12:00	22600	37	-58.2		30	2	
2025-10-05T12:00	22650	36	-58.4		50	3	
2025-10-05T12:00	22700	36	-58.8		61	3	
2025-10-05T12:00	22750	36	-59.2		66	4	
2025-10-05T12:00	22800	36	-59.4		68	4	
2025-10-05T12:00	22850	35	-59.7		69	4	
2025-10-05T12:00	22900	35	-60.2		65	3	
2025-10-05T12:00	22950	35	-60.6		52	2	
2025-10-05T12:00	23000	34	-60.4		358	1	
2025-10-05T12:00	23050	34	-60.2		271	2	
2025-10-05T12:00	23100	34	-60.3		254	3	
2025-10-05T12:00	23150	34	-60.6		247	4	
2025-10-05T12:00	23200	33	-61.0		244	5	
2025-10-05T12:00	23250	33	-61.2		247	7	
2025-10-05T12:00	23300	33	-60.4		254	10	
2025-10-05T12:00	23350	33	-59.6		260	12	
2025-10-05T12:00	23400	32	-59.0		264	12	
2025-10-05T12:00	23450	32	-58.3		266	12	
2025-10-05T12:00	23500	32	-58.2		264	11	
2025-10-05T12:00	23550	32	-58.0		259	11	
2025-10-05T12:00	23600	31	-57.6		257	11	
2025-10-05T12:00	23650	31	-56.8		258	11	
2025-10-05T12:00	23700	31	-56.5		262	11	
2025-10-05T12:00	23750	31	-56.4		267	10	
2025-10-05T12:00	23800	30	-56.2		273	10	
2025-10-05T12:00	23850	30	-55.9		276	9	
2025-10-05T12:00	23900	30	-55.7		275	8	
2025-10-05T12:00	23950	30	-55.5		271	8	
2025-10-05T12:00	24000	29	-55.4		264	7	
2025-10-05T12:00	24050	29	-55.3		258	7	
2025-10-05T12:00	24100	29	-55.4		254	6	
2025-10-05T12:00	24150	29	-55.6		249	5	
2025-10-05T12:00	24200	29	-56.0		243	5	
2025-10-05T12:00	24250	28	-56.4		237	5	
2025-10-05T12:00	24300	28	-56.5		237	5	
2025-10-05T12:00	24350	28	-56.7		241	6	
2025-10-05T12:00	24400	28	-56.7		244	7	
2025-10-05T12:00	24450	27	-56.7		246	8	
2025-10-05T12:00	24500	27	-56.9		250	9	
2025-10-05T12:00	24550	27	-56.7		255	9	
2025-10-05T12:00	24600	27	-56.5		262	7	
2025-10-05T12:00	24650	27	-56.4		270	7	
2025-10-05T12:00	24700	26	-56.2		274	7	
2025-10-05T12:00	24750	26	-55.8		270	7	
2025-10-05T12:00	24800	26	-55.0		266	7	
2025-10-05T12:00	24850	26	-54.4		263	7	
2025-10-05T12:00	24900	26	-53.6		258	7	
2025-10-05T12:00	24950	25	-53.2		252	6	
2025-10-05T12:00	25000	25	-53.2		249	6	
2025-10-05T12:00	25050	25	-53.1		247	6	
2025-10-05T12:00	25100	25	-52.8		244	7	
2025-10-05T12:00	25150	25	-52.7		242	8	
2025-10-05T12:00	25200	24	-52.8		240	8	
2025-10-05T12:00	25250	24	-53.0		236	9	
2025-10-05T12:00	25300	24	-53.2		233	10	
2025-10-05T12:00	25350	24	-53.4		232	10	
2025-10-05T12:00	25400	24	-53.7		231	11	
2025-10-05T12:00	25450	23	-54.1		231	11	
2025-10-05T12:00	25500	23	-54.5		232	12	
2025-10-05T12:00	25550	23	-54.9		233	13	
2025-10-05T12:00	25600	23	-55.3		236	13	
2025-10-05T12:00	25650	23	-55.7		240	14	
2025-10-05T12:00	25700	23	-56.0		244	14	
2025-10-05T12:00	25750	22	-56.1		247	15	
2025-10-05T12:00	25800	22	-56.2		250	15	
2025-10-05T12:00	25850	22	-56.1		253	14	
2025-10-05T12:00	25900	22	-56.2		257	14	
2025-10-05T12:00	25950	22	-56.5		261	14	
2025-10-05T12:00	26000	22	-56.7		265	13	
2025-10-05T12:00	26050	21	-56.8		269	13	
2025-10-05T12:00	26100	21	-56.8		272	13	
2025-10-05T12:00	26150	21	-56.8		275	13	
2025-10-05T12:00	26200	21	-56.5		279	14	
2025-10-05T12:00	26250	21	-56.0		282	14	
2025-10-05T12:00	26300	21	-55.5		285	15	
2025-10-05T12:00	26350	20	-55.0		288	14	
2025-10-05T12:00	26400	20	-55.0		290	13	
2025-10-05T12:00	26450	20	-54.4		292	12	
2025-10-05T12:00	26500	20	-54.0		292	11	
2025-10-05T12:00	26550	20	-53.1		286	13	
2025-10-05T12:00	26600	20	-52.1		279	14	
2025-10-05T12:00	26650	19	-51.6		277	14	
2025-10-05T12:00	26700	19	-50.9		280	13	
2025-10-05T12:00	26750	19	-51.0		280	13	
2025-10-05T12:00	26800	19	-51.0		278	14	
2025-10-05T12:00	26850	19	-49.7		277	14	
2025-10-05T12:00	26900	19	-48.2		280	15	
2025-10-05T12:00	26950	19	-48.1		286	16	
2025-10-05T12:00	27000	18	-48.1		291	16	
2025-10-05T12:00	27050	18	-47.9		296	17	
2025-10-05T12:00	27100	18	-47.8		298	17	
2025-10-05T12:00	27150	18	-48.1		299	17	
2025-10-05T12:00	27200	18	-48.3		298	17	
2025-10-05T12:00	27250	18	-48.5		296	17	
2025-10-05T12:00	27300	18	-48.5		293	16	
2025-10-05T12:00	27350	17	-48.4		291	16	
2025-10-05T12:00	27400	17	-48.1		290	16	
2025-10-05T12:00	27450	17	-48.0		289	16	
2025-10-05T12:00	27500	17	-48.0		289	17	
2025-10-05T12:00	27550	17	-47.9		290	17	
2025-10-05T12:00	27600	17	-47.7		291	17	
2025-10-05T12:00	27650	17	-47.4		291	18	
2025-10-05T12:00	27700	17	-47.1		291	18	
2025-10-05T12:00	27750	16	-46.7		291	17	
2025-10-05T12:00	27800	16	-46.4		291	17	
2025-10-05T12:00	27850	16	-45.6		292	15	
2025-10-05T12:00	27900	16	-44.8		294	14	
2025-10-05T12:00	27950	16	-44.3		298	12	
2025-10-05T12:00	28000	16	-44.3		302	11	
2025-10-05T12:00	28050	16	-44.5		305	11	
2025-10-05T12:00	28100	16	-44.8		304	10	
2025-10-05T12:00	28150	15	-44.9		299	9	
2025-10-05T12:00	28200	15	-44.9		291	9	
2025-10-05T12:00	28250	15	-44.9		282	8	
2025-10-05T12:00	28300	15	-44.9		276	8	
2025-10-05T12:00	28350	15	-44.6		270	9	
2025-10-05T12:00	28400	15	-44.6		266	9	
2025-10-05T12:00	28450	15	-44.7		263	10	
2025-10-05T12:00	28500	15	-44.8		260	11	
2025-10-05T12:00	28550	15	-45.0		259	12	
2025-10-05T12:00	28600	14	-45.2		260	13	
2025-10-05T12:00	28650	14	-45.3		262	14	
2025-10-05T12:00	28700	14	-45.6		266	15	
2025-10-05T12:00	28750	14	-45.8		271	15	
2025-10-05T12:00	28800	14	-45.7		277	15	
2025-10-05T12:00	28850	14	-45.6		281	15	
2025-10-05T12:00	28900	14	-45.6		283	15	
2025-10-05T12:00	28950	14	-45.9		284	15	
2025-10-05T12:00	29000	14	-46.1		286	15	
2025-10-05T12:00	29050	14	-46.2		288	14	
2025-10-05T12:00	29100	13	-46.2		290	13	
2025-10-05T12:00	29150	13	-46.3		292	13	
2025-10-05T12:00	29200	13	-46.6		293	12	
2025-10-05T12:00	29250	13	-46.8		292	11	
2025-10-05T12:00	29300	13	-47.0		291	11	
2025-10-05T12:00	29350	13	-47.2		291	10	
2025-10-05T12:00	29400	13	-47.6		292	9	
2025-10-05T12:00	29450	13	-47.9		291	9	
2025-10-05T12:00	29500	13	-48.4		287	8	
2025-10-05T12:00	29550	13	-48.6		278	7	
2025-10-05T12:00	29600	12	-48.4		270	7	
2025-10-05T12:00	29650	12	-48.2		270	7	
2025-10-05T12:00	29700	12	-48.1		275	8	
2025-10-05T12:00	29750	12	-48.3		280	10	
2025-10-05T12:00	29800	12	-48.4		285	12	
2025-10-05T12:00	29850	12	-48.6		291	13	
2025-10-05T12:00	29900	12	-48.4		295	13	
2025-10-05T12:00	29950	12	-47.9		298	13	
2025-10-05T12:00	30000	12	-47.5		297	12	
2025-10-05T12:00	30050	12	-47.7		295	10	
2025-10-05T12:00	30100	12	-47.9		294	9	
2025-10-05T12:00	30150	11	-47.6		298	8	
2025-10-05T12:00	30200	11	-47.2		303	8	
2025-10-05T12:00	30250	11	-46.9		305	9	
2025-10-05T12:00	30300	11	-46.7		306	9	
2025-10-05T12:00	30350	11	-46.8		304	10	
2025-10-05T12:00	30400	11	-46.9		302	11	
2025-10-05T12:00	30450	11	-46.9		300	12	
2025-10-05T12:00	30500	11	-47.1		298	12	
2025-10-05T12:00	30550	11	-47.5		297	13	
2025-10-05T12:00	30600	11	-47.8		296	14	
2025-10-05T12:00	30650	11	-48.0		294	16	
2025-10-05T12:00	30700	11	-47.9		292	17	
2025-10-05T12:00	30750	10	-47.8		291	17	
2025-10-05T12:00	30800	10	-47.6		289	18	
2025-10-05T12:00	30850	10	-47.5		287	17	
2025-10-05T12:00	30900	10	-47.2		286	17	
2025-10-05T12:00	30950	10	-47.0		285	16	
2025-10-05T12:00	31000	10	-47.0		286	16	
2025-10-05T12:00	31050	10	-47.0		286	16	
2025-10-05T12:00	31100	10	-47.4		286	16	
2025-10-05T12:00	31150	10	-47.8		287	15	
2025-10-05T12:00	31200	10	-47.9		289	15	
2025-10-05T12:00	31250	10	-47.9		292	14	
2025-10-05T12:00	31300	10	-48.0		294	14	
2025-10-05T12:00	31350	10	-48.2		295	14	
2025-10-05T12:00	31400	9	-48.4		294	13	
2025-10-05T12:00	31450	9	-48.4		292	14	
2025-10-05T12:00	31500	9	-48.2		290	15	
2025-10-05T12:00	31550	9	-47.9		289	16	
2025-10-05T12:00	31600	9	-47.5		291	17	
2025-10-05T12:00	31650	9	-47.2		293	17	
2025-10-05T12:00	31700	9	-47.1		296	17	
2025-10-05T12:00	31750	9	-47.1		297	17	
2025-10-05T12:00	31800	9	-47.2		295	16	
2025-10-05T12:00	31850	9	-46.8		292	16	
2025-10-05T12:00	31900	9	-46.3		292	18	
2025-10-05T12:00	31950	9	-45.3		293	19	
2025-10-05T12:00	32000	9	-44.6		295	21	
2025-10-05T12:00	32050	9	-44.3		298	22	
2025-10-05T12:00	32100	9	-44.1		300	22	
2025-10-05T12:00	32150	8	-43.9		302	21	
2025-10-05T12:00	32200	8	-43.7		303	20	
2025-10-05T12:00	32250	8	-43.4		306	19	
2025-10-05T12:00	32300	8	-43.2		308	17	
2025-10-05T12:00	32350	8	-43.1		310	16	
2025-10-05T12:00	32400	8	-43.0		311	15	
2025-10-05T12:00	32450	8	-43.0		313	14	
2025-10-05T12:00	32500	8	-43.0		314	14	
2025-10-05T12:00	32550	8	-43.1		315	13	
2025-10-05T12:00	32600	8	-43.2		313	12	
2025-10-05T12:00	32650	8	-43.2		309	10	
2025-10-05T12:00	32700	8	-43.5		303	9	
2025-10-05T12:00	32750	8	-43.5		296	8	
2025-10-05T12:00	32800	8	-43.5		291	8	
2025-10-05T12:00	32850	8	-43.6		288	9	
2025-10-05T12:00	32900	8	-43.8		287	9	
2025-10-05T12:00	32950	8	-44.0		286	10	
2025-10-05T12:00	33000	7	-44.2		284	12	
2025-10-05T12:00	33050	7	-44.3		282	13	
2025-10-05T12:00	33100	7	-44.3		281	14	
2025-10-05T12:00	33150	7	-44.2		282	15	
2025-10-05T12:00	33200	7	-44.0		286	16	
2025-10-05T12:00	33250	7	-43.3		289	16	
2025-10-05T12:00	33300	7	-43.0		290	16	
2025-10-05T12:00	33350	7	-42.8		287	15	
2025-10-05T12:00	33400	7	-42.3		283	14	
2025-10-05T12:00	33450	7	-41.9		281	14	
2025-10-05T12:00	33500	7	-41.8		284	14	
2025-10-05T12:00	33550	7	-41.7		289	15	
2025-10-05T12:00	33600	7	-41.5		295	16	
2025-10-05T12:00	33650	7	-41.0		299	15	
2025-10-05T12:00	33700	7	-39.8		300	13	
2025-10-05T12:00	33750	7	-38.5		297	11	
2025-10-05T12:00	33800	7	-37.8		289	10	
2025-10-05T12:00	33850	7	-37.7		280	9	
2025-10-05T12:00	33900	7	-37.8		274	10	
2025-10-05T12:00	33950	6	-37.8		269	10	
2025-10-05T12:00	34000	6	-37.7		264	11	
2025-10-05T12:00	34050	6	-37.4		261	11	
2025-10-05T12:00	34100	6	-37.4		259	12	
2025-10-05T12:00	34150	6	-37.5		259	13	
2025-10-05T12:00	34200	6	-37.5		260	13	
2025-10-05T12:00	34250	6	-37.2		260	13	
2025-10-05T12:00	34300	6	-36.9		260	12	
2025-10-05T12:00	34350	6	-36.8		260	12	
2025-10-05T12:00	34400	6	-36.9		261	11	
2025-10-05T12:00	34450	6	-37.2		264	10	
2025-10-05T12:00	34500	6	-37.5		268	10	
2025-10-05T12:00	34550	6	-37.7		273	9	
2025-10-05T12:00	34600	6	-38.0		280	9	
2025-10-05T12:00	34650	6	-38.3		286	8	
2025-10-05T12:00	34700	6	-38.5		293	8	
2025-10-05T12:00	34750	6	-38.8		301	8	
2025-10-05T12:00	34800	6	-39.1		308	9	
2025-10-05T12:00	34850	6	-39.3		315	10	
2025-10-05T12:00	34900	6	-39.4		320	13	
2025-10-05T12:00	34950	6	-39.3		324	14	
2025-10-05T12:00	35000	6	-39.2		328	16	
2025-10-05T12:00	35050	6	-39.1		330	15	
2025-10-05T12:00	35100	5	-38.0		329	13	
2025-10-05T12:00	35150	5	-36.9		326	10	
2025-10-05T12:00	35200	5	-36.7		320	9	
2025-10-05T12:00	35250	5	-36.7		313	7	
2025-10-05T12:00	35300	5	-36.7		305	6	
2025-10-05T12:00	35350	5	-36.9		298	6	
2025-10-05T12:00	35400	5	-37.0		298	6	
2025-10-06T00:00	491	968	8.4	7.3	192	2	
2025-10-06T00:00	501	966	8.2	7.2	182	2	
2025-10-06T00:00	520	964	8.2	6.8	178	2	
2025-10-06T00:00	540	962	8.2	6.5	181	3	
2025-10-06T00:00	560	960	8.2	6.1	185	3	
2025-10-06T00:00	580	957	8.3	5.6	189	4	
2025-10-06T00:00	600	955	8.5	5.2	193	4	
2025-10-06T00:00	620	953	8.5	5.1	197	5	
2025-10-06T00:00	640	950	8.4	5.1	202	5	
2025-10-06T00:00	660	948	8.3	5.0	204	5	
2025-10-06T00:00	680	946	8.2	4.9	206	6	
2025-10-06T00:00	700	943	8.2	5.0	207	6	
2025-10-06T00:00	720	941	8.2	5.1	208	6	
2025-10-06T00:00	740	939	8.0	5.0	209	6	
2025-10-06T00:00	760	937	7.9	5.0	212	6	
2025-10-06T00:00	780	934	7.7	4.8	217	5	
2025-10-06T00:00	800	932	7.7	4.3	224	5	
2025-10-06T00:00	820	930	7.6	4.0	230	5	
2025-10-06T00:00	840	928	7.5	3.8	234	5	
2025-10-06T00:00	860	925	7.2	3.8	236	5	
2025-10-06T00:00	880	923	7.0	3.8	236	5	
2025-10-06T00:00	900	921	6.8	3.8	235	5	
2025-10-06T00:00	920	919	6.6	3.8	234	5	
2025-10-06T00:00	940	917	6.4	3.7	234	5	
2025-10-06T00:00	960	914	6.2	3.7	235	5	
2025-10-06T00:00	980	912	6.0	3.6	235	5	
2025-10-06T00:00	1000	910	5.9	3.6	236	5	
2025-10-06T00:00	1020	908	5.7	3.5	238	5	
2025-10-06T00:00	1040	905	5.5	3.6	239	5	
2025-10-06T00:00	1060	903	5.3	3.5	241	5	
2025-10-06T00:00	1080	901	5.1	3.5	242	5	
2025-10-06T00:00	1100	899	5.0	3.2	242	5	
2025-10-06T00:00	1120	897	4.8	3.2	242	5	
2025-10-06T00:00	1140	895	4.6	3.2	243	5	
2025-10-06T00:00	1160	892	4.4	3.1	246	4	
2025-10-06T00:00	1180	890	4.2	3.0	250	4	
2025-10-06T00:00	1200	888	4.0	2.9	255	4	
2025-10-06T00:00	1220	885	3.8	2.8	260	3	
2025-10-06T00:00	1240	883	3.8	2.4	266	3	
2025-10-06T00:00	1260	881	3.7	2.3	270	3	
2025-10-06T00:00	1280	879	3.5	2.1	274	3	
2025-10-06T00:00	1300	877	3.5	1.6	278	3	
2025-10-06T00:00	1320	875	3.3	1.6	281	3	
2025-10-06T00:00	1340	873	3.2	1.5	283	3	
2025-10-06T00:00	1360	871	3.1	1.6	286	3	
2025-10-06T00:00	1380	868	2.8	1.6	288	4	
2025-10-06T00:00	1400	866	2.6	1.5	291	4	
2025-10-06T00:00	1420	864	2.4	1.5	294	4	
2025-10-06T00:00	1440	862	2.2	1.5	298	4	
2025-10-06T00:00	1460	860	1.9	1.6	300	4	
2025-10-06T00:00	1480	858	2.0	0.9	302	4	
2025-10-06T00:00	1500	856	1.9	0.6	300	3	
2025-10-06T00:00	1520	854	1.9	0.3	296	3	
2025-10-06T00:00	1540	851	1.8	0.5	291	3	
2025-10-06T00:00	1560	849	1.6	0.4	287	4	
2025-10-06T00:00	1580	847	1.4	0.3	285	4	
2025-10-06T00:00	1600	845	1.1	0.9	286	4	
2025-10-06T00:00	1620	843	0.9	0.9	290	5	
2025-10-06T00:00	1640	841	0.8	0.8	294	5	
2025-10-06T00:00	1660	839	0.7	0.4	299	6	
2025-10-06T00:00	1680	837	0.9	-0.3	303	6	
2025-10-06T00:00	1700	835	0.8	-0.4	306	7	
2025-10-06T00:00	1720	833	0.7	-0.8	308	7	
2025-10-06T00:00	1740	830	0.7	-1.0	310	7	
2025-10-06T00:00	1760	828	0.5	-1.2	310	7	
2025-10-06T00:00	1780	826	0.4	-1.4	310	8	
2025-10-06T00:00	1800	824	0.3	-1.4	309	8	
2025-10-06T00:00	1820	822	0.1	-1.5	308	7	
2025-10-06T00:00	1840	820	-0.1	-1.5	308	7	
2025-10-06T00:00	1860	818	-0.3	-1.6	307	7	
2025-10-06T00:00	1880	816	-0.4	-1.8	307	7	
2025-10-06T00:00	1900	814	-0.6	-2.0	307	7	
2025-10-06T00:00	1920	812	-0.7	-2.0	308	7	
2025-10-06T00:00	1940	810	-0.9	-2.1	309	7	
2025-10-06T00:00	1960	808	-1.1	-2.1	309	7	
2025-10-06T00:00	1980	806	-1.2	-2.4	310	7	
2025-10-06T00:00	2000	804	-1.4	-2.7	311	7	
2025-10-06T00:00	2020	802	-1.5	-2.7	311	8	
2025-10-06T00:00	2040	800	-1.7	-2.7	311	8	
2025-10-06T00:00	2060	798	-1.8	-2.8	311	8	
2025-10-06T00:00	2080	796	-2.0	-2.9	311	8	
2025-10-06T00:00	2100	794	-2.2	-3.0	310	8	
2025-10-06T00:00	2120	792	-2.3	-3.4	309	8	
2025-10-06T00:00	2140	790	-2.3	-3.7	308	9	
2025-10-06T00:00	2160	788	-2.4	-4.0	306	9	
2025-10-06T00:00	2180	786	-2.5	-4.3	305	9	
2025-10-06T00:00	2200	784	-2.2	-4.9	304	9	
2025-10-06T00:00	2220	782	-2.2	-5.2	304	9	
2025-10-06T00:00	2240	780	-2.3	-5.2	303	9	
2025-10-06T00:00	2260	778	-2.5	-5.2	303	9	
2025-10-06T00:00	2280	776	-2.7	-5.2	303	9	
2025-10-06T00:00	2300	774	-2.8	-5.4	303	9	
2025-10-06T00:00	2320	772	-2.7	-5.4	303	9	
2025-10-06T00:00	2340	770	-2.8	-5.3	303	9	
2025-10-06T00:00	2360	768	-2.9	-5.3	302	9	
2025-10-06T00:00	2380	766	-3.2	-5.4	302	9	
2025-10-06T00:00	2400	765	-3.4	-5.4	301	9	
2025-10-06T00:00	2420	763	-3.5	-5.4	300	9	
2025-10-06T00:00	2440	761	-3.7	-5.6	299	9	
2025-10-06T00:00	2460	759	-3.8	-5.8	299	9	
2025-10-06T00:00	2480	757	-4.0	-5.9	298	9	
2025-10-06T00:00	2500	755	-4.2	-5.8	297	9	
2025-10-06T00:00	2520	753	-4.4	-5.8	297	9	
2025-10-06T00:00	2540	751	-4.6	-5.8	297	9	
2025-10-06T00:00	2560	749	-4.8	-5.9	297	9	
2025-10-06T00:00	2580	747	-4.9	-6.0	297	9	
2025-10-06T00:00	2600	745	-5.1	-6.0	296	9	
2025-10-06T00:00	2620	743	-5.3	-6.0	296	9	
2025-10-06T00:00	2640	741	-5.5	-6.2	296	9	
2025-10-06T00:00	2660	740	-5.7	-6.2	296	9	
2025-10-06T00:00	2680	738	-5.8	-6.2	296	9	
2025-10-06T00:00	2700	736	-6.0	-6.4	296	9	
2025-10-06T00:00	2720	734	-6.2	-6.4	297	9	
2025-10-06T00:00	2740	732	-6.4	-6.4	297	9	
2025-10-06T00:00	2760	730	-6.6	-6.6	297	9	
2025-10-06T00:00	2780	728	-6.7	-6.7	297	9	
2025-10-06T00:00	2800	727	-6.8	-6.8	297	9	
2025-10-06T00:00	2820	725	-7.0	-7.0	296	9	
2025-10-06T00:00	2840	723	-7.1	-7.1	296	9	
2025-10-06T00:00	2860	721	-7.2	-7.2	296	9	
2025-10-06T00:00	2880	719	-7.3	-7.3	295	9	
2025-10-06T00:00	2900	717	-7.5	-7.5	295	9	
2025-10-06T00:00	2920	715	-7.6	-7.6	295	9	
2025-10-06T00:00	2940	713	-7.7	-7.7	295	9	
2025-10-06T00:00	2960	712	-7.9	-7.9	295	9	
2025-10-06T00:00	2980	710	-8.0	-8.0	295	9	
2025-10-06T00:00	3000	708	-8.2	-8.2	295	9	
2025-10-06T00:00	3020	706	-8.3	-8.3	295	9	
2025-10-06T00:00	3040	704	-8.5	-8.5	295	9	
2025-10-06T00:00	3060	703	-8.7	-8.7	294	9	
2025-10-06T00:00	3080	701	-8.9	-8.9	294	9	
2025-10-06T00:00	3100	699	-9.1	-9.1	293	8	
2025-10-06T00:00	3120	697	-9.0	-10.3	292	8	
2025-10-06T00:00	3140	695	-9.0	-11.1	291	8	
2025-10-06T00:00	3160	694	-9.1	-11.3	290	9	
2025-10-06T00:00	3180	692	-9.3	-11.7	290	9	
2025-10-06T00:00	3200	690	-9.4	-11.9	290	9	
2025-10-06T00:00	3220	688	-9.5	-11.4	290	9	
2025-10-06T00:00	3240	686	-9.5	-11.1	290	9	
2025-10-06T00:00	3260	684	-9.7	-11.4	290	10	
2025-10-06T00:00	3280	683	-9.8	-11.2	290	10	
2025-10-06T00:00	3300	681	-10.0	-11.0	290	10	
2025-10-06T00:00	3320	679	-10.1	-11.3	290	10	
2025-10-06T00:00	3340	678	-10.3	-11.7	291	10	
2025-10-06T00:00	3360	676	-10.4	-13.6	292	10	
2025-10-06T00:00	3380	674	-10.4	-15.8	294	9	
2025-10-06T00:00	3400	673	-10.5	-16.3	296	9	
2025-10-06T00:00	3420	671	-10.5	-19.0	297	9	
2025-10-06T00:00	3440	669	-10.6	-20.2	299	9	
2025-10-06T00:00	3460	667	-10.6	-22.2	301	9	
2025-10-06T00:00	3480	665	-10.4	-26.2	302	9	
2025-10-06T00:00	3500	664	-9.9	-31.0	303	9	
2025-10-06T00:00	3520	662	-9.8	-31.7	303	9	
2025-10-06T00:00	3540	660	-9.7	-32.3	304	9	
2025-10-06T00:00	3560	659	-9.7	-33.1	305	9	
2025-10-06T00:00	3580	657	-9.7	-33.6	306	9	
2025-10-06T00:00	3600	655	-9.8	-33.6	306	10	
2025-10-06T00:00	3620	653	-10.0	-33.7	307	10	
2025-10-06T00:00	3640	652	-10.2	-34.7	307	11	
2025-10-06T00:00	3660	650	-10.3	-34.5	307	11	
2025-10-06T00:00	3680	649	-10.5	-34.3	307	11	
2025-10-06T00:00	3700	647	-10.6	-33.7	307	12	
2025-10-06T00:00	3720	645	-10.6	-33.0	309	12	
2025-10-06T00:00	3740	643	-10.6	-32.7	310	12	
2025-10-06T00:00	3760	642	-10.6	-33.4	311	12	
2025-10-06T00:00	3780	640	-10.7	-33.5	313	13	
2025-10-06T00:00	3800	638	-10.6	-33.8	316	13	
2025-10-06T00:00	3820	636	-10.7	-34.2	318	13	
2025-10-06T00:00	3840	635	-10.9	-34.3	321	13	
2025-10-06T00:00	3860	633	-11.0	-34.4	323	14	
2025-10-06T00:00	3880	632	-11.1	-34.1	324	14	
2025-10-06T00:00	3900	630	-11.2	-33.6	324	14	
2025-10-06T00:00	3920	628	-11.3	-34.1	324	14	
2025-10-06T00:00	3940	627	-11.3	-33.4	325	15	
2025-10-06T00:00	3960	625	-11.4	-32.3	326	15	
2025-10-06T00:00	3980	624	-11.5	-31.8	327	15	
2025-10-06T00:00	4000	622	-11.6	-31.2	329	15	
2025-10-06T00:00	4020	620	-11.6	-31.0	330	15	
2025-10-06T00:00	4040	619	-11.5	-30.9	332	16	
2025-10-06T00:00	4060	617	-11.4	-30.5	333	16	
2025-10-06T00:00	4080	615	-11.4	-29.9	334	17	
2025-10-06T00:00	4100	614	-11.6	-29.0	334	17	
2025-10-06T00:00	4120	612	-11.6	-26.9	335	17	
2025-10-06T00:00	4140	611	-11.8	-24.1	336	16	
2025-10-06T00:00	4160	609	-11.8	-22.3	338	16	
2025-10-06T00:00	4180	608	-11.9	-21.9	340	16	
2025-10-06T00:00	4200	606	-12.0	-22.2	341	16	
2025-10-06T00:00	4220	604	-12.1	-22.8	341	16	
2025-10-06T00:00	4240	603	-12.1	-24.6	342	17	
2025-10-06T00:00	4260	601	-12.1	-25.2	343	17	
2025-10-06T00:00	4280	600	-12.1	-25.3	343	17	
2025-10-06T00:00	4300	598	-12.1	-26.5	343	18	
2025-10-06T00:00	4320	596	-12.2	-26.6	343	19	
2025-10-06T00:00	4340	595	-12.3	-25.4	343	19	
2025-10-06T00:00	4360	593	-12.4	-25.4	343	20	
2025-10-06T00:00	4380	592	-12.4	-26.0	343	20	
2025-10-06T00:00	4400	590	-12.4	-26.6	343	21	
2025-10-06T00:00	4420	588	-12.5	-26.8	342	21	
2025-10-06T00:00	4440	587	-12.5	-26.7	342	22	
2025-10-06T00:00	4460	585	-12.6	-26.9	342	22	
2025-10-06T00:00	4480	584	-12.7	-27.2	342	22	
2025-10-06T00:00	4500	583	-12.8	-27.3	342	22	
2025-10-06T00:00	4520	581	-12.9	-27.4	342	22	
2025-10-06T00:00	4540	579	-13.1	-27.2	342	22	
2025-10-06T00:00	4560	578	-13.2	-26.9	342	22	
2025-10-06T00:00	4580	577	-13.4	-26.7	342	22	
2025-10-06T00:00	4600	575	-13.6	-26.1	341	22	
2025-10-06T00:00	4620	573	-13.7	-25.9	340	22	
2025-10-06T00:00	4640	572	-13.8	-25.9	340	22	
2025-10-06T00:00	4660	570	-14.0	-26.0	340	22	
2025-10-06T00:00	4680	569	-14.1	-26.2	340	22	
2025-10-06T00:00	4700	567	-14.2	-26.3	341	22	
2025-10-06T00:00	4720	566	-14.4	-26.2	342	22	
2025-10-06T00:00	4740	564	-14.6	-26.4	343	22	
2025-10-06T00:00	4760	563	-14.7	-26.4	343	22	
2025-10-06T00:00	4780	561	-14.8	-26.3	344	22	
2025-10-06T00:00	4800	560	-14.8	-27.0	344	22	
2025-10-06T00:00	4820	558	-14.9	-28.7	344	23	
2025-10-06T00:00	4840	557	-14.9	-29.5	344	23	
2025-10-06T00:00	4860	555	-15.0	-29.7	344	23	
2025-10-06T00:00	4880	554	-15.2	-29.7	344	23	
2025-10-06T00:00	4900	552	-15.2	-29.5	345	24	
2025-10-06T00:00	4920	551	-15.2	-29.5	345	24	
2025-10-06T00:00	4940	550	-15.2	-30.7	346	24	
2025-10-06T00:00	4960	548	-15.3	-31.3	346	24	
2025-10-06T00:00	4980	547	-15.3	-32.6	346	24	
2025-10-06T00:00	5000	545	-15.3	-36.1	346	24	
2025-10-06T00:00	5020	544	-15.3	-37.5	346	24	
2025-10-06T00:00	5040	542	-15.5	-37.8	345	24	
2025-10-06T00:00	5060	541	-15.6	-38.2	344	24	
2025-10-06T00:00	5080	540	-15.8	-39.1	344	25	
2025-10-06T00:00	5100	538	-15.9	-41.7	344	26	
2025-10-06T00:00	5120	537	-16.0	-43.6	344	27	
2025-10-06T00:00	5140	535	-16.1	-44.0	345	27	
2025-10-06T00:00	5160	534	-16.2	-44.3	347	27	
2025-10-06T00:00	5180	532	-16.2	-45.0	348	26	
2025-10-06T00:00	5200	531	-16.3	-46.0	349	26	
2025-10-06T00:00	5220	530	-16.5	-46.6	349	25	
2025-10-06T00:00	5240	528	-16.5	-47.2	349	25	
2025-10-06T00:00	5260	527	-16.5	-47.1	349	24	
2025-10-06T00:00	5280	525	-16.5	-46.1	348	25	
2025-10-06T00:00	5300	524	-16.5	-44.6	348	25	
2025-10-06T00:00	5320	523	-16.5	-41.3	349	26	
2025-10-06T00:00	5340	521	-16.6	-31.9	350	26	
2025-10-06T00:00	5360	520	-16.8	-30.2	351	26	
2025-10-06T00:00	5380	519	-17.0	-29.7	351	26	
2025-10-06T00:00	5400	517	-17.2	-29.2	351	26	
2025-10-06T00:00	5420	516	-17.4	-28.5	350	26	
2025-10-06T00:00	5440	514	-17.6	-28.1	348	26	
2025-10-06T00:00	5460	513	-17.8	-27.9	347	27	
2025-10-06T00:00	5480	512	-18.0	-27.0	347	28	
2025-10-06T00:00	5500	510	-18.2	-26.4	348	29	
2025-10-06T00:00	5520	509	-18.3	-24.8	349	30	
2025-10-06T00:00	5540	508	-18.5	-23.8	351	31	
2025-10-06T00:00	5560	506	-18.6	-23.3	352	31	
2025-10-06T00:00	5580	505	-18.8	-23.6	353	31	
2025-10-06T00:00	5600	503	-18.9	-23.7	354	31	
2025-10-06T00:00	5620	502	-19.0	-23.9	355	30	
2025-10-06T00:00	5640	501	-19.1	-24.2	355	30	
2025-10-06T00:00	5660	499	-19.3	-24.1	356	29	
2025-10-06T00:00	5680	498	-19.4	-24.2	357	29	
2025-10-06T00:00	5700	497	-19.5	-25.2	357	28	
2025-10-06T00:00	5720	495	-19.6	-25.8	358	28	
2025-10-06T00:00	5740	494	-19.7	-25.9	358	28	
2025-10-06T00:00	5760	493	-19.9	-25.9	358	28	
2025-10-06T00:00	5780	491	-20.0	-26.0	358	28	
2025-10-06T00:00	5800	490	-20.1	-25.4	357	29	
2025-10-06T00:00	5820	489	-20.3	-25.0	357	29	
2025-10-06T00:00	5840	487	-20.5	-24.9	356	30	
2025-10-06T00:00	5860	486	-20.7	-25.1	355	30	
2025-10-06T00:00	5880	485	-20.9	-25.3	353	31	
2025-10-06T00:00	5900	483	-21.0	-25.4	352	31	
2025-10-06T00:00	5920	482	-21.2	-25.5	351	31	
2025-10-06T00:00	5940	481	-21.4	-25.7	349	30	
2025-10-06T00:00	5960	479	-21.6	-25.8	349	30	
2025-10-06T00:00	5980	478	-21.7	-25.9	349	30	
2025-10-06T00:00	6000	477	-21.9	-26.1	349	29	
2025-10-06T00:00	6020	476	-22.1	-26.2	350	29	
2025-10-06T00:00	6040	474	-22.3	-26.3	351	29	
2025-10-06T00:00	6060	473	-22.4	-26.4	351	29	
2025-10-06T00:00	6080	472	-22.6	-26.4	351	30	
2025-10-06T00:00	6100	471	-22.8	-26.4	350	30	
2025-10-06T00:00	6120	469	-23.0	-26.5	348	31	
2025-10-06T00:00	6140	468	-23.1	-26.9	346	31	
2025-10-06T00:00	6160	467	-23.2	-27.1	344	31	
2025-10-06T00:00	6180	465	-23.4	-27.3	343	30	
2025-10-06T00:00	6200	464	-23.6	-27.5	342	30	
2025-10-06T00:00	6220	463	-23.7	-28.2	343	29	
2025-10-06T00:00	6240	462	-23.7	-28.8	344	29	
2025-10-06T00:00	6260	460	-23.9	-29.2	345	28	
2025-10-06T00:00	6280	459	-23.9	-29.7	347	28	
2025-10-06T00:00	6300	458	-24.1	-29.9	349	28	
2025-10-06T00:00	6320	456	-24.2	-30.5	351	29	
2025-10-06T00:00	6340	455	-24.3	-30.8	351	30	
2025-10-06T00:00	6360	454	-24.4	-31.3	351	30	
2025-10-06T00:00	6380	453	-24.5	-31.4	350	30	
2025-10-06T00:00	6400	452	-24.6	-31.5	349	30	
2025-10-06T00:00	6420	450	-24.8	-31.4	348	30	
2025-10-06T00:00	6440	449	-24.9	-31.8	347	30	
2025-10-06T00:00	6460	448	-24.9	-32.6	348	30	
2025-10-06T00:00	6480	447	-25.0	-33.2	349	30	
2025-10-06T00:00	6500	445	-25.1	-33.8	350	30	
2025-10-06T00:00	6520	444	-25.2	-34.1	351	30	
2025-10-06T00:00	6540	443	-25.3	-34.7	351	31	
2025-10-06T00:00	6560	442	-25.4	-35.7	351	31	
2025-10-06T00:00	6580	441	-25.4	-36.3	350	32	
2025-10-06T00:00	6600	439	-25.6	-36.4	349	32	
2025-10-06T00:00	6620	438	-25.6	-37.1	349	33	
2025-10-06T00:00	6640	437	-25.8	-37.3	348	33	
2025-10-06T00:00	6660	436	-25.9	-37.2	348	33	
2025-10-06T00:00	6680	434	-26.1	-37.4	347	33	
2025-10-06T00:00	6700	433	-26.3	-37.6	347	34	
2025-10-06T00:00	6720	432	-26.4	-38.4	347	33	
2025-10-06T00:00	6740	431	-26.5	-39.1	347	33	
2025-10-06T00:00	6760	430	-26.6	-40.2	348	33	
2025-10-06T00:00	6780	429	-26.6	-41.3	348	34	
2025-10-06T00:00	6800	427	-26.7	-41.7	349	34	
2025-10-06T00:00	6820	426	-26.8	-41.7	349	35	
2025-10-06T00:00	6840	425	-27.0	-41.4	350	35	
2025-10-06T00:00	6860	424	-27.1	-41.1	350	35	
2025-10-06T00:00	6880	423	-27.3	-41.0	351	35	
2025-10-06T00:00	6900	421	-27.4	-40.7	351	35	
2025-10-06T00:00	6920	420	-27.5	-40.9	352	35	
2025-10-06T00:00	6940	419	-27.6	-41.2	352	35	
2025-10-06T00:00	6960	418	-27.7	-42.2	352	35	
2025-10-06T00:00	6980	417	-27.8	-42.6	351	36	
2025-10-06T00:00	7000	416	-27.9	-43.6	351	36	
2025-10-06T00:00	7020	414	-28.0	-45.2	351	37	
2025-10-06T00:00	7040	413	-28.0	-46.4	352	37	
2025-10-06T00:00	7060	412	-28.1	-48.0	352	37	
2025-10-06T00:00	7080	411	-28.2	-49.1	352	38	
2025-10-06T00:00	7100	410	-28.3	-50.3	352	38	
2025-10-06T00:00	7120	409	-28.5	-51.2	351	39	
2025-10-06T00:00	7140	408	-28.6	-52.0	351	39	
2025-10-06T00:00	7160	406	-28.7	-53.3	351	39	
2025-10-06T00:00	7180	405	-28.7	-54.9	351	39	
2025-10-06T00:00	7200	404	-28.8	-56.2	352	38	
2025-10-06T00:00	7220	403	-28.9	-56.7	353	38	
2025-10-06T00:00	7240	402	-29.0	-56.9	354	38	
2025-10-06T00:00	7260	401	-29.2	-57.0	354	39	
2025-10-06T00:00	7280	400	-29.3	-57.1	354	39	
2025-10-06T00:00	7300	399	-29.4	-57.3	354	39	
2025-10-06T00:00	7320	397	-29.6	-57.3	354	40	
2025-10-06T00:00	7340	396	-29.8	-57.4	354	40	
2025-10-06T00:00	7360	395	-29.9	-57.6	353	40	
2025-10-06T00:00	7380	394	-30.1	-57.6	353	39	
2025-10-06T00:00	7400	393	-30.3	-57.7	353	39	
2025-10-06T00:00	7420	392	-30.4	-57.5	353	39	
2025-10-06T00:00	7440	391	-30.6	-57.5	353	39	
2025-10-06T00:00	7460	390	-30.8	-57.4	353	40	
2025-10-06T00:00	7480	389	-31.0	-57.4	353	40	
2025-10-06T00:00	7500	388	-31.2	-57.4	353	40	
2025-10-06T00:00	7520	387	-31.3	-57.6	353	40	
2025-10-06T00:00	7540	385	-31.5	-57.4	354	40	
2025-10-06T00:00	7560	384	-31.7	-55.9	354	39	
2025-10-06T00:00	7580	383	-31.9	-53.6	355	40	
2025-10-06T00:00	7600	382	-32.1	-52.5	356	40	
2025-10-06T00:00	7620	381	-32.2	-52.9	357	40	
2025-10-06T00:00	7640	380	-32.4	-52.2	357	41	
2025-10-06T00:00	7660	379	-32.6	-49.8	356	42	
2025-10-06T00:00	7680	378	-32.7	-48.4	356	42	
2025-10-06T00:00	7700	377	-32.9	-48.3	356	42	
2025-10-06T00:00	7720	376	-33.0	-47.9	356	41	
2025-10-06T00:00	7740	374	-33.2	-47.4	357	41	
2025-10-06T00:00	7760	373	-33.3	-47.5	357	41	
2025-10-06T00:00	7780	372	-33.5	-48.0	358	41	
2025-10-06T00:00	7800	371	-33.6	-48.3	359	41	
2025-10-06T00:00	7820	370	-33.8	-48.3	359	41	
2025-10-06T00:00	7840	369	-33.9	-48.4	359	42	
2025-10-06T00:00	7860	368	-34.1	-48.3	358	43	
2025-10-06T00:00	7880	367	-34.2	-48.4	358	43	
2025-10-06T00:00	7900	366	-34.4	-48.4	357	43	
2025-10-06T00:00	7920	365	-34.5	-48.5	357	43	
2025-10-06T00:00	7940	364	-34.7	-48.6	357	44	
2025-10-06T00:00	7960	363	-34.8	-48.6	357	44	
2025-10-06T00:00	7980	362	-34.9	-48.8	358	44	
2025-10-06T00:00	8000	361	-34.9	-49.3	358	45	
2025-10-06T00:00	8020	360	-35.0	-49.5	358	45	
2025-10-06T00:00	8040	359	-35.1	-49.7	358	45	
2025-10-06T00:00	8060	358	-35.2	-50.1	359	45	
2025-10-06T00:00	8080	357	-35.1	-50.8	359	45	
2025-10-06T00:00	8100	356	-35.1	-51.2	360	45	
2025-10-06T00:00	8120	355	-35.2	-51.4	1	45	
2025-10-06T00:00	8140	354	-35.2	-52.0	1	46	
2025-10-06T00:00	8160	353	-35.3	-52.1	1	46	
2025-10-06T00:00	8180	352	-35.4	-51.9	1	47	
2025-10-06T00:00	8200	351	-35.5	-51.9	1	47	
2025-10-06T00:00	8220	350	-35.6	-52.0	0	47	
2025-10-06T00:00	8240	349	-35.6	-51.9	360	48	
2025-10-06T00:00	8260	348	-35.6	-51.5	359	48	
2025-10-06T00:00	8280	347	-35.7	-51.1	358	48	
2025-10-06T00:00	8300	346	-35.8	-50.8	358	48	
2025-10-06T00:00	8320	345	-35.9	-50.7	357	49	
2025-10-06T00:00	8340	344	-36.1	-50.6	357	49	
2025-10-06T00:00	8360	343	-36.2	-50.3	357	49	
2025-10-06T00:00	8380	342	-36.3	-50.2	357	49	
2025-10-06T00:00	8400	341	-36.4	-50.0	357	49	
2025-10-06T00:00	8420	340	-36.6	-50.1	358	49	
2025-10-06T00:00	8440	339	-36.7	-50.2	358	49	
2025-10-06T00:00	8460	338	-36.9	-50.3	359	49	
2025-10-06T00:00	8480	337	-37.1	-50.4	359	49	
2025-10-06T00:00	8500	336	-37.3	-50.4	360	48	
2025-10-06T00:00	8520	335	-37.5	-50.5	0	49	
2025-10-06T00:00	8540	334	-37.7	-50.6	1	49	
2025-10-06T00:00	8560	333	-37.9	-50.6	1	49	
2025-10-06T00:00	8580	332	-38.1	-50.4	2	49	
2025-10-06T00:00	8600	331	-38.3	-50.6	2	50	
2025-10-06T00:00	8620	330	-38.5	-50.7	2	50	
2025-10-06T00:00	8640	329	-38.6	-50.8	2	51	
2025-10-06T00:00	8660	328	-38.8	-51.0	2	51	
2025-10-06T00:00	8680	327	-38.9	-51.1	1	51	
2025-10-06T00:00	8700	326	-38.9	-50.9	1	51	
2025-10-06T00:00	8720	325	-39.0	-51.2	360	51	
2025-10-06T00:00	8740	324	-39.2	-51.4	359	50	
2025-10-06T00:00	8760	323	-39.3	-51.4	359	50	
2025-10-06T00:00	8780	322	-39.5	-51.5	358	50	
2025-10-06T00:00	8800	321	-39.6	-51.5	358	50	
2025-10-06T00:00	8820	321	-39.8	-51.9	358	50	
2025-10-06T00:00	8840	320	-39.9	-52.2	358	51	
2025-10-06T00:00	8860	319	-40.0	-52.4	358	52	
2025-10-06T00:00	8880	318	-40.1	-52.7	358	52	
2025-10-06T00:00	8900	317	-40.3	-52.8	357	53	
2025-10-06T00:00	8920	316	-40.4	-53.2	357	53	
2025-10-06T00:00	8940	315	-40.5	-53.4	357	53	
2025-10-06T00:00	8960	314	-40.6	-53.7	357	53	
2025-10-06T00:00	8980	313	-40.7	-54.1	357	53	
2025-10-06T00:00	9000	312	-40.8	-54.2	357	53	
2025-10-06T00:00	9020	311	-40.9	-54.2	358	53	
2025-10-06T00:00	9040	310	-41.1	-54.3	358	53	
2025-10-06T00:00	9060	309	-41.2	-54.6	358	53	
2025-10-06T00:00	9080	308	-41.4	-54.6	359	54	
2025-10-06T00:00	9100	308	-41.5	-54.5	359	54	
2025-10-06T00:00	9120	307	-41.7	-54.7	359	54	
2025-10-06T00:00	9140	306	-41.8	-54.7	359	55	
2025-10-06T00:00	9160	305	-42.0	-54.8	359	55	
2025-10-06T00:00	9180	304	-42.1	-54.9	359	55	
2025-10-06T00:00	9200	303	-42.2	-55.2	359	55	
2025-10-06T00:00	9220	302	-42.4	-55.2	359	55	
2025-10-06T00:00	9240	301	-42.5	-55.3	359	54	
2025-10-06T00:00	9260	300	-42.6	-55.5	359	54	
2025-10-06T00:00	9280	300	-42.7	-55.8	359	54	
2025-10-06T00:00	9300	299	-42.8	-56.0	359	54	
2025-10-06T00:00	9320	298	-42.8	-55.7	359	54	
2025-10-06T00:00	9340	297	-42.9	-55.6	358	55	
2025-10-06T00:00	9360	296	-42.9	-55.8	357	55	
2025-10-06T00:00	9380	295	-43.0	-56.0	357	56	
2025-10-06T00:00	9400	294	-43.1	-55.7	356	56	
2025-10-06T00:00	9420	293	-43.2	-55.3	356	56	
2025-10-06T00:00	9440	292	-43.4	-54.9	356	56	
2025-10-06T00:00	9460	292	-43.5	-54.7	356	57	
2025-10-06T00:00	9480	291	-43.7	-54.4	356	57	
2025-10-06T00:00	9500	290	-43.8	-53.8	357	57	
2025-10-06T00:00	9520	289	-43.9	-53.1	357	58	
2025-10-06T00:00	9540	288	-44.0	-52.8	357	59	
2025-10-06T00:00	9560	287	-44.2	-52.7	358	59	
2025-10-06T00:00	9580	287	-44.3	-52.7	358	59	
2025-10-06T00:00	9600	286	-44.5	-52.6	358	59	
2025-10-06T00:00	9620	285	-44.7	-52.5	358	60	
2025-10-06T00:00	9640	284	-44.9	-52.5	358	59	
2025-10-06T00:00	9660	283	-45.1	-52.6	358	59	
2025-10-06T00:00	9680	282	-45.2	-52.6	359	59	
2025-10-06T00:00	9700	281	-45.4	-52.7	359	59	
2025-10-06T00:00	9720	281	-45.6	-52.7	359	59	
2025-10-06T00:00	9740	280	-45.8	-52.7	359	59	
2025-10-06T00:00	9760	279	-46.0	-52.8	359	59	
2025-10-06T00:00	9780	278	-46.1	-52.9	359	59	
2025-10-06T00:00	9800	277	-46.3	-53.0	359	59	
2025-10-06T00:00	9820	276	-46.5	-53.0	359	59	
2025-10-06T00:00	9840	275	-46.7	-53.0	360	59	
2025-10-06T00:00	9860	275	-46.9	-53.0	360	59	
2025-10-06T00:00	9880	274	-47.0	-53.2	0	59	
2025-10-06T00:00	9900	273	-47.2	-53.3	1	59	
2025-10-06T00:00	9920	272	-47.3	-53.3	1	58	
2025-10-06T00:00	9940	271	-47.5	-53.4	1	58	
2025-10-06T00:00	9960	271	-47.7	-53.4	1	58	
2025-10-06T00:00	9980	270	-47.8	-53.4	2	58	
2025-10-06T00:00	10000	269	-48.0	-53.7	2	58	
2025-10-06T00:00	10018	268	-48.1	-54.1	3	58	
2025-10-06T00:00	10050	267	-48.2	-55.3	3	57	
2025-10-06T00:00	10100	265	-48.4	-55.5	4	56	
2025-10-06T00:00	10150	263	-48.4	-56.4	4	55	
2025-10-06T00:00	10200	261	-48.4	-57.5	4	54	
2025-10-06T00:00	10250	259	-48.6	-58.6	4	53	
2025-10-06T00:00	10300	257	-48.5	-61.1	3	52	
2025-10-06T00:00	10350	255	-48.4	-63.2	2	52	
2025-10-06T00:00	10400	253	-48.6	-63.1	1	52	
2025-10-06T00:00	10450	251	-49.0	-63.3	1	52	
2025-10-06T00:00	10500	249	-49.3	-63.6	360	52	
2025-10-06T00:00	10550	247	-49.5	-64.2	359	53	
2025-10-06T00:00	10600	245	-49.6	-64.8	359	53	
2025-10-06T00:00	10650	244	-49.4	-65.9	358	53	
2025-10-06T00:00	10700	242	-49.1	-67.6	358	52	
2025-10-06T00:00	10750	240	-48.8	-68.4	358	52	
2025-10-06T00:00	10800	238	-48.5	-69.4	358	51	
2025-10-06T00:00	10850	236	-48.5	-69.8	359	51	
2025-10-06T00:00	10900	235	-48.7	-70.0	358	50	
2025-10-06T00:00	10950	233	-48.9	-70.0	358	50	
2025-10-06T00:00	11000	231	-49.2	-69.9	357	49	
2025-10-06T00:00	11050	229	-49.4	-69.9	357	48	
2025-10-06T00:00	11100	227	-49.7	-70.1	356	48	
2025-10-06T00:00	11150	226	-50.1	-70.5	355	47	
2025-10-06T00:00	11200	224	-50.2	-71.2	354	47	
2025-10-06T00:00	11250	222	-49.6	-72.2	353	46	
2025-10-06T00:00	11300	221	-49.0	-73.2	352	46	
2025-10-06T00:00	11350	219	-48.8	-73.3	352	47	
2025-10-06T00:00	11400	217	-48.9	-73.2	352	47	
2025-10-06T00:00	11450	216	-49.1	-73.3	352	47	
2025-10-06T00:00	11500	214	-49.3	-73.6	352	46	
2025-10-06T00:00	11550	212	-49.6	-73.7	352	46	
2025-10-06T00:00	11600	211	-49.9	-74.0	352	46	
2025-10-06T00:00	11650	209	-50.0	-74.1	353	47	
2025-10-06T00:00	11700	208	-50.4	-74.0	353	47	
2025-10-06T00:00	11750	206	-50.8	-74.1	353	48	
2025-10-06T00:00	11800	204	-50.8	-74.4	352	47	
2025-10-06T00:00	11850	203	-51.2	-74.7	352	46	
2025-10-06T00:00	11900	201	-51.3	-75.6	352	45	
2025-10-06T00:00	11950	200	-51.4	-76.4	352	45	
2025-10-06T00:00	12000	198	-51.7	-76.4	352	46	
2025-10-06T00:00	12050	197	-52.0	-76.2	352	47	
2025-10-06T00:00	12100	195	-52.2	-76.0	352	47	
2025-10-06T00:00	12150	194	-52.2	-76.5	351	47	
2025-10-06T00:00	12200	192	-52.1	-77.5	350	46	
2025-10-06T00:00	12250	191	-52.1	-78.3	351	46	
2025-10-06T00:00	12300	189	-51.9	-78.1	352	45	
2025-10-06T00:00	12350	188	-51.7	-78.7	353	44	
2025-10-06T00:00	12400	186	-51.6	-78.9	353	44	
2025-10-06T00:00	12450	185	-51.7	-78.8	352	44	
2025-10-06T00:00	12500	183	-51.9	-78.9	351	44	
2025-10-06T00:00	12550	182	-51.8	-79.0	349	43	
2025-10-06T00:00	12600	181	-51.7	-79.1	349	42	
2025-10-06T00:00	12650	179	-51.5	-79.1	350	42	
2025-10-06T00:00	12700	178	-51.8	-79.1	351	41	
2025-10-06T00:00	12750	176	-52.2	-79.3	352	41	
2025-10-06T00:00	12800	175	-52.4	-79.3	351	40	
2025-10-06T00:00	12850	174	-52.7	-79.3	351	40	
2025-10-06T00:00	12900	172	-52.8	-79.4	352	39	
2025-10-06T00:00	12950	171	-52.8	-79.3	352	38	
2025-10-06T00:00	13000	170	-53.0	-79.5	352	37	
2025-10-06T00:00	13050	168	-53.1	-79.6	351	36	
2025-10-06T00:00	13100	167	-53.0	-79.8	351	36	
2025-10-06T00:00	13150	166	-52.8	-79.9	352	35	
2025-10-06T00:00	13200	165	-52.9	-80.0	352	35	
2025-10-06T00:00	13250	163	-53.2	-80.1	351	34	
2025-10-06T00:00	13300	162	-53.3	-80.2	351	34	
2025-10-06T00:00	13350	161	-53.6	-80.2	350	33	
2025-10-06T00:00	13400	160	-53.8	-80.5	349	33	
2025-10-06T00:00	13450	158	-53.9	-80.5	350	34	
2025-10-06T00:00	13500	157	-54.2	-80.6	351	34	
2025-10-06T00:00	13550	156	-54.5	-80.6	352	34	
2025-10-06T00:00	13600	155	-54.8	-80.8	352	35	
2025-10-06T00:00	13650	153	-55.2	-80.9	352	34	
2025-10-06T00:00	13700	152	-55.5	-81.1	351	33	
2025-10-06T00:00	13750	151	-55.7	-81.1	349	31	
2025-10-06T00:00	13800	150	-55.7	-81.1	349	30	
2025-10-06T00:00	13850	149	-55.8	-81.1	348	30	
2025-10-06T00:00	13900	148	-55.8	-81.1	347	30	
2025-10-06T00:00	13950	146	-55.9	-81.2	346	29	
2025-10-06T00:00	14000	145	-55.9	-81.3	347	29	
2025-10-06T00:00	14050	144	-56.0	-81.3	348	29	
2025-10-06T00:00	14100	143	-56.0	-81.3	349	28	
2025-10-06T00:00	14150	142	-56.1	-81.4	349	28	
2025-10-06T00:00	14200	141	-56.2	-81.5	350	28	
2025-10-06T00:00	14250	140	-56.4	-81.5	350	27	
2025-10-06T00:00	14300	139	-56.8	-81.6	351	28	
2025-10-06T00:00	14350	137	-57.2	-81.7	351	27	
2025-10-06T00:00	14400	136	-57.4	-81.9	351	26	
2025-10-06T00:00	14450	135	-57.3	-82.0	350	25	
2025-10-06T00:00	14500	134	-57.4	-82.3	349	24	
2025-10-06T00:00	14550	133	-57.8	-82.5	348	23	
2025-10-06T00:00	14600	132	-58.1	-82.6	346	22	
2025-10-06T00:00	14650	131	-58.3	-82.7	343	22	
2025-10-06T00:00	14700	130	-58.4	-82.9	341	23	
2025-10-06T00:00	14750	129	-58.6	-83.0	341	23	
2025-10-06T00:00	14800	128	-58.7	-83.1	343	24	
2025-10-06T00:00	14850	127	-58.6	-83.3	343	25	
2025-10-06T00:00	14900	126	-58.9	-83.3	341	25	
2025-10-06T00:00	14950	125	-59.0	-83.4	340	25	
2025-10-06T00:00	15000	124	-58.9	-83.5	339	25	
2025-10-06T00:00	15050	123	-58.9	-83.5	339	25	
2025-10-06T00:00	15100	122	-58.8	-83.4	338	25	
2025-10-06T00:00	15150	121	-59.0	-83.7	338	25	
2025-10-06T00:00	15200	120	-59.2	-83.7	339	26	
2025-10-06T00:00	15250	119	-59.5	-83.7	339	26	
2025-10-06T00:00	15300	118	-59.7	-83.8	337	26	
2025-10-06T00:00	15350	117	-59.9	-83.8	336	27	
2025-10-06T00:00	15400	116	-60.0	-83.8	335	28	
2025-10-06T00:00	15450	115	-60.0	-83.8	333	28	
2025-10-06T00:00	15500	114	-60.1	-83.9	332	29	
2025-10-06T00:00	15550	114	-60.1	-84.0	332	29	
2025-10-06T00:00	15600	113	-59.9	-84.0	334	28	
2025-10-06T00:00	15650	112	-60.1	-84.2	335	27	
2025-10-06T00:00	15700	111	-60.0	-84.4	335	27	
2025-10-06T00:00	15750	110	-59.1	-84.3	335	28	
2025-10-06T00:00	15800	109	-58.7	-84.4	336	28	
2025-10-06T00:00	15850	108	-58.6	-84.4	336	27	
2025-10-06T00:00	15900	107	-58.4	-84.3	336	27	
2025-10-06T00:00	15950	106	-58.3	-84.2	338	28	
2025-10-06T00:00	16000	106	-58.7	-84.3	339	28	
2025-10-06T00:00	16050	105	-59.0	-84.3	339	28	
2025-10-06T00:00	16100	104	-58.9	-84.4	340	26	
2025-10-06T00:00	16150	103	-58.6	-84.5	341	25	
2025-10-06T00:00	16200	102	-58.4	-84.4	343	25	
2025-10-06T00:00	16250	102	-58.5	-84.4	345	24	
2025-10-06T00:00	16300	101	-58.6	-84.5	346	24	
2025-10-06T00:00	16350	100	-58.7	-84.5	347	25	
2025-10-06T00:00	16400	99	-58.6	-84.5	349	25	
2025-10-06T00:00	16450	98	-58.5	-84.5	350	25	
2025-10-06T00:00	16500	98	-58.8	-84.5	348	24	
2025-10-06T00:00	16550	97	-59.0	-84.8	347	24	
2025-10-06T00:00	16600	96	-58.3	-84.8	345	24	
2025-10-06T00:00	16650	95	-57.2	-84.8	342	21	
2025-10-06T00:00	16700	95	-56.2	-84.6	342	18	
2025-10-06T00:00	16750	94	-55.5	-84.2	346	16	
2025-10-06T00:00	16800	93	-55.1	-84.0	350	15	
2025-10-06T00:00	16850	92	-55.0	-83.7	355	13	
2025-10-06T00:00	16900	92	-55.3	-83.7	360	12	
2025-10-06T00:00	16950	91	-55.3	-83.6	3	11	
2025-10-06T00:00	17000	90	-55.4	-83.7	4	9	
2025-10-06T00:00	17050	89	-55.6	-83.8	356	7	
2025-10-06T00:00	17100	89	-55.4	-83.8	337	5	
2025-10-06T00:00	17150	88	-55.5	-83.9	320	3	
2025-10-06T00:00	17200	87	-55.4	-83.7	318	2	
2025-10-06T00:00	17250	87	-55.5	-83.6	355	1	
2025-10-06T00:00	17300	86	-56.1	-83.8	79	1	
2025-10-06T00:00	17350	85	-56.6	-83.9	100	1	
2025-10-06T00:00	17400	85	-57.1	-83.9	127	1	
2025-10-06T00:00	17450	84	-57.5	-84.1	232	0	
2025-10-06T00:00	17500	83	-58.0	-84.3	289	1	
2025-10-06T00:00	17550	83	-58.7	-84.5	312	1	
2025-10-06T00:00	17600	82	-59.1	-84.7	318	2	
2025-10-06T00:00	17650	81	-59.4	-84.8	319	2	
2025-10-06T00:00	17700	81	-59.9	-85.1	323	2	
2025-10-06T00:00	17750	80	-60.3	-85.2	327	3	
2025-10-06T00:00	17800	79	-60.7	-85.3	328	4	
2025-10-06T00:00	17850	79	-61.0	-85.4	327	5	
2025-10-06T00:00	17900	78	-61.4	-85.6	327	6	
2025-10-06T00:00	17950	78	-61.7	-85.7	326	6	
2025-10-06T00:00	18000	77	-62.0	-85.8	325	7	
2025-10-06T00:00	18050	76	-62.3	-86.0	325	8	
2025-10-06T00:00	18100	76	-62.4	-86.1	325	10	
2025-10-06T00:00	18150	75	-62.6	-86.2	323	10	
2025-10-06T00:00	18200	74	-62.7	-86.2	318	11	
2025-10-06T00:00	18250	74	-63.0	-86.6	313	12	
2025-10-06T00:00	18300	73	-62.1	-86.3	308	13	
2025-10-06T00:00	18350	73	-61.7	-86.3	305	14	
2025-10-06T00:00	18400	72	-61.8	-86.5	306	15	
2025-10-06T00:00	18450	72	-61.8	-86.4	310	16	
2025-10-06T00:00	18500	71	-61.7	-86.3	315	16	
2025-10-06T00:00	18550	70	-61.7	-86.3	319	16	
2025-10-06T00:00	18600	70	-61.8	-86.5	320	16	
2025-10-06T00:00	18650	69	-61.1	-86.3	321	16	
2025-10-06T00:00	18700	69	-60.7	-86.3	319	15	
2025-10-06T00:00	18750	68	-60.4	-86.3	319	15	
2025-10-06T00:00	18800	68	-59.2	-86.0	325	14	
2025-10-06T00:00	18850	67	-58.3	-85.7	334	13	
2025-10-06T00:00	18900	67	-58.5	-85.8	339	11	
2025-10-06T00:00	18950	66	-58.3	-85.6	340	9	
2025-10-06T00:00	19000	65	-57.6	-85.3	341	6	
2025-10-06T00:00	19050	65	-57.3	-85.0	346	4	
2025-10-06T00:00	19100	64	-57.6	-85.0	351	2	
2025-10-06T00:00	19150	64	-58.0	-85.0	342	1	
2025-10-06T00:00	19200	63	-58.4	-85.0	308	1	
2025-10-06T00:00	19250	63	-58.8	-85.0	254	1	
2025-10-06T00:00	19300	62	-59.2	-85.2	228	2	
2025-10-06T00:00	19350	62	-59.6	-85.4	222	3	
2025-10-06T00:00	19400	61	-59.9	-85.5	226	4	
2025-10-06T00:00	19450	61	-60.2	-85.7	233	4	
2025-10-06T00:00	19500	60	-60.6	-85.8	240	5	
2025-10-06T00:00	19550	60	-61.0	-86.0	248	5	
2025-10-06T00:00	19600	59	-61.4	-86.0	259	5	
2025-10-06T00:00	19650	59	-61.7	-86.1	275	4	
2025-10-06T00:00	19700	59	-61.9	-86.3	294	5	
2025-10-06T00:00	19750	58	-62.1	-86.4	311	5	
2025-10-06T00:00	19800	58	-62.6	-86.5	318	6	
2025-10-06T00:00	19850	57	-63.0	-86.7	319	7	
2025-10-06T00:00	19900	57	-63.0	-86.7	318	8	
2025-10-06T00:00	19950	56	-63.1	-86.8	318	8	
2025-10-06T00:00	20000	56	-63.1	-86.9	320	8	
2025-10-06T00:00	20050	55	-63.2		318	7	
2025-10-06T00:00	20100	55	-63.3		309	6	
2025-10-06T00:00	20150	54	-63.2		295	6	
2025-10-06T00:00	20200	54	-63.4		288	7	
2025-10-06T00:00	20250	54	-62.2		288	8	
2025-10-06T00:00	20300	53	-60.6		290	9	
2025-10-06T00:00	20350	53	-60.6		289	10	
2025-10-06T00:00	20400	52	-60.7		286	12	
2025-10-06T00:00	20450	52	-60.2		286	13	
2025-10-06T00:00	20500	51	-59.8		286	14	
2025-10-06T00:00	20550	51	-59.4		288	16	
2025-10-06T00:00	20600	51	-59.2		291	16	
2025-10-06T00:00	20650	50	-58.8		296	16	
2025-10-06T00:00	20700	50	-58.4		301	15	
2025-10-06T00:00	20750	49	-58.4		306	14	
2025-10-06T00:00	20800	49	-58.6		313	13	
2025-10-06T00:00	20850	49	-58.7		323	12	
2025-10-06T00:00	20900	48	-58.4		333	11	
2025-10-06T00:00	20950	48	-57.6		342	10	
2025-10-06T00:00	21000	47	-57.4		347	9	
2025-10-06T00:00	21050	47	-57.1		345	8	
2025-10-06T00:00	21100	47	-57.3		339	8	
2025-10-06T00:00	21150	46	-57.6		333	7	
2025-10-06T00:00	21200	46	-57.7		328	6	
2025-10-06T00:00	21250	46	-57.8		319	4	
2025-10-06T00:00	21300	45	-58.0		305	3	
2025-10-06T00:00	21350	45	-58.3		283	3	
2025-10-06T00:00	21400	45	-58.6		259	3	
2025-10-06T00:00	21450	44	-58.9		247	3	
2025-10-06T00:00	21500	44	-59.2		251	4	
2025-10-06T00:00	21550	44	-59.0		263	5	
2025-10-06T00:00	21600	43	-58.9		276	5	
2025-10-06T00:00	21650	43	-59.1		291	5	
2025-10-06T00:00	21700	42	-59.0		310	5	
2025-10-06T00:00	21750	42	-59.0		325	6	
2025-10-06T00:00	21800	42	-59.0		333	7	
2025-10-06T00:00	21850	41	-59.3		340	7	
2025-10-06T00:00	21900	41	-59.6		347	8	
2025-10-06T00:00	21950	41	-59.8		355	9	
2025-10-06T00:00	22000	41	-60.0		3	9	
2025-10-06T00:00	22050	40	-60.4		11	10	
2025-10-06T00:00	22100	40	-60.6		18	11	
2025-10-06T00:00	22150	40	-60.6		24	11	
2025-10-06T00:00	22200	39	-61.0		29	11	
2025-10-06T00:00	22250	39	-61.3		36	11	
2025-10-06T00:00	22300	39	-60.8		43	10	
2025-10-06T00:00	22350	38	-60.7		47	10	
2025-10-06T00:00	22400	38	-60.8		49	8	
2025-10-06T00:00	22450	38	-61.1		55	7	
2025-10-06T00:00	22500	37	-61.0		67	5	
2025-10-06T00:00	22550	37	-60.9		86	4	
2025-10-06T00:00	22600	37	-61.0		121	3	
2025-10-06T00:00	22650	36	-60.9		161	3	
2025-10-06T00:00	22700	36	-61.1		188	4	
2025-10-06T00:00	22750	36	-61.2		206	6	
2025-10-06T00:00	22800	36	-61.1		217	6	
2025-10-06T00:00	22850	35	-61.0		226	6	
2025-10-06T00:00	22900	35	-60.8		236	5	
2025-10-06T00:00	22950	35	-60.2		249	5	
2025-10-06T00:00	23000	34	-60.2		260	6	
2025-10-06T00:00	23050	34	-60.0		266	7	
2025-10-06T00:00	23100	34	-59.7		270	8	
2025-10-06T00:00	23150	34	-59.4		274	8	
2025-10-06T00:00	23200	33	-58.8		281	7	
2025-10-06T00:00	23250	33	-58.7		288	7	
2025-10-06T00:00	23300	33	-58.3		293	8	
2025-10-06T00:00	23350	33	-57.3		300	7	
2025-10-06T00:00	23400	32	-56.6		310	6	
2025-10-06T00:00	23450	32	-56.8		321	5	
2025-10-06T00:00	23500	32	-57.0		334	3	
2025-10-06T00:00	23550	32	-57.2		351	1	
2025-10-06T00:00	23600	31	-57.4		47	0	
2025-10-06T00:00	23650	31	-57.6		157	1	
2025-10-06T00:00	23700	31	-58.0		166	2	
2025-10-06T00:00	23750	31	-58.4		173	3	
2025-10-06T00:00	23800	30	-58.5		183	4	
2025-10-06T00:00	23850	30	-58.4		191	6	
2025-10-06T00:00	23900	30	-58.5		196	6	
2025-10-06T00:00	23950	30	-58.7		204	7	
2025-10-06T00:00	24000	29	-58.9		217	7	
2025-10-06T00:00	24050	29	-59.2		232	7	
2025-10-06T00:00	24100	29	-58.9		244	8	
2025-10-06T00:00	24150	29	-58.1		251	9	
2025-10-06T00:00	24200	28	-57.7		259	10	
2025-10-06T00:00	24250	28	-57.6		268	10	
2025-10-06T00:00	24300	28	-57.3		275	11	
2025-10-06T00:00	24350	28	-57.4		280	12	
2025-10-06T00:00	24400	28	-57.7		284	12	
2025-10-06T00:00	24450	27	-57.7		288	11	
2025-10-06T00:00	24500	27	-57.3		289	9	
2025-10-06T00:00	24550	27	-57.4		283	8	
2025-10-06T00:00	24600	27	-57.1		272	8	
2025-10-06T00:00	24650	27	-56.7		264	8	
2025-10-06T00:00	24700	26	-56.1		262	9	
2025-10-06T00:00	24750	26	-55.7		268	10	
2025-10-06T00:00	24800	26	-55.6		273	11	
2025-10-06T00:00	24850	26	-55.0		275	11	
2025-10-06T00:00	24900	26	-54.5		273	10	
2025-10-06T00:00	24950	25	-54.4		269	10	
2025-10-06T00:00	25000	25	-53.9		262	9	
2025-10-06T00:00	25050	25	-53.4		253	9	
2025-10-06T00:00	25100	25	-53.2		246	9	
2025-10-06T00:00	25150	25	-53.3		243	9	
2025-10-06T00:00	25200	24	-53.5		244	9	
2025-10-06T00:00	25250	24	-53.4		249	10	
2025-10-06T00:00	25300	24	-53.2		256	10	
2025-10-06T00:00	25350	24	-52.1		265	9	
2025-10-06T00:00	25400	24	-52.3		271	9	
2025-10-06T00:00	25450	23	-52.3		276	9	
2025-10-06T00:00	25500	23	-52.5		279	9	
2025-10-06T00:00	25550	23	-53.0		284	9	
2025-10-06T00:00	25600	23	-53.4		291	9	
2025-10-06T00:00	25650	23	-53.8		298	10	
2025-10-06T00:00	25700	23	-53.9		303	11	
2025-10-06T00:00	25750	22	-53.5		305	11	
2025-10-06T00:00	25800	22	-53.3		305	11	
2025-10-06T00:00	25850	22	-53.6		304	10	
2025-10-06T00:00	25900	22	-53.8		301	9	
2025-10-06T00:00	25950	22	-53.9		297	9	
2025-10-06T00:00	26000	22	-54.1		293	8	
2025-10-06T00:00	26050	21	-54.4		288	8	
2025-10-06T00:00	26100	21	-54.4		281	8	
2025-10-06T00:00	26150	21	-54.6		276	8	
2025-10-06T00:00	26200	21	-54.3		273	9	
2025-10-06T00:00	26250	21	-53.6		274	9	
2025-10-06T00:00	26300	21	-53.3		276	9	
2025-10-06T00:00	26350	20	-53.3		278	8	
2025-10-06T00:00	26400	20	-53.5		277	7	
2025-10-06T00:00	26450	20	-53.7		274	6	
2025-10-06T00:00	26500	20	-54.0		270	6	
2025-10-06T00:00	26550	20	-54.4		262	5	
2025-10-06T00:00	26600	20	-54.2		256	5	
2025-10-06T00:00	26650	19	-54.1		252	6	
2025-10-06T00:00	26700	19	-54.3		252	7	
2025-10-06T00:00	26750	19	-54.5		255	8	
2025-10-06T00:00	26800	19	-54.3		261	9	
2025-10-06T00:00	26850	19	-53.9		268	10	
2025-10-06T00:00	26900	19	-54.2		274	11	
2025-10-06T00:00	26950	19	-54.2		277	12	
2025-10-06T00:00	27000	18	-53.6		278	13	
2025-10-06T00:00	27050	18	-53.3		280	13	
2025-10-06T00:00	27100	18	-53.1		282	14	
2025-10-06T00:00	27150	18	-53.0		283	14	
2025-10-06T00:00	27200	18	-52.3		283	15	
2025-10-06T00:00	27250	18	-51.8		282	15	
2025-10-06T00:00	27300	18	-51.3		281	15	
2025-10-06T00:00	27350	17	-51.3		280	14	
2025-10-06T00:00	27400	17	-51.2		279	14	
2025-10-06T00:00	27450	17	-50.9		280	14	
2025-10-06T00:00	27500	17	-51.0		282	15	
2025-10-06T00:00	27550	17	-50.8		282	15	
2025-10-06T00:00	27600	17	-50.8		283	16	
2025-10-06T00:00	27650	17	-50.7		286	16	
2025-10-06T00:00	27700	17	-50.6		290	17	
2025-10-06T00:00	27750	16	-50.2		295	17	
2025-10-06T00:00	27800	16	-50.3		300	16	
2025-10-06T00:00	27850	16	-50.4		301	16	
2025-10-06T00:00	27900	16	-50.5		299	15	
2025-10-06T00:00	27950	16	-50.3		295	14	
2025-10-06T00:00	28000	16	-50.1		289	13	
2025-10-06T00:00	28050	16	-49.9		285	12	
2025-10-06T00:00	28100	16	-49.9		283	11	
2025-10-06T00:00	28150	15	-50.0		279	11	
2025-10-06T00:00	28200	15	-49.9		275	11	
2025-10-06T00:00	28250	15	-49.8		273	11	
2025-10-06T00:00	28300	15	-49.7		273	11	
2025-10-06T00:00	28350	15	-49.6		274	12	
2025-10-06T00:00	28400	15	-49.9		277	12	
2025-10-06T00:00	28450	15	-50.3		282	12	
2025-10-06T00:00	28500	15	-50.6		286	13	
2025-10-06T00:00	28550	14	-50.7		289	13	
2025-10-06T00:00	28600	14	-50.6		290	14	
2025-10-06T00:00	28650	14	-50.3		292	14	
2025-10-06T00:00	28700	14	-50.1		296	14	
2025-10-06T00:00	28750	14	-49.8		302	14	
2025-10-06T00:00	28800	14	-49.3		307	15	
2025-10-06T00:00	28850	14	-48.9		310	15	
2025-10-06T00:00	28900	14	-48.8		310	15	
2025-10-06T00:00	28950	14	-48.8		308	15	
2025-10-06T00:00	29000	14	-48.9		304	14	
2025-10-06T00:00	29050	13	-48.6		302	13	
2025-10-06T00:00	29100	13	-48.0		301	13	
2025-10-06T00:00	29150	13	-47.8		302	13	
2025-10-06T00:00	29200	13	-47.7		301	13	
2025-10-06T00:00	29250	13	-47.0		300	14	
2025-10-06T00:00	29300	13	-47.0		298	14	
2025-10-06T00:00	29350	13	-47.0		299	14	
2025-10-06T00:00	29400	13	-46.7		301	14	
2025-10-06T00:00	29450	13	-46.4		304	13	
2025-10-06T00:00	29500	13	-46.4		308	13	
2025-10-06T00:00	29550	12	-46.7		310	12	
2025-10-06T00:00	29600	12	-46.6		312	11	
2025-10-06T00:00	29650	12	-46.2		314	11	
2025-10-06T00:00	29700	12	-46.1		313	10	
2025-10-06T00:00	29750	12	-46.3		306	9	
2025-10-06T00:00	29800	12	-46.3		294	9	
2025-10-06T00:00	29850	12	-46.3		284	10	
2025-10-06T00:00	29900	12	-46.0		279	11	
2025-10-06T00:00	29950	12	-46.0		276	12	
2025-10-06T00:00	30000	12	-46.1		273	12	
2025-10-06T00:00	30050	12	-45.2		268	11	
2025-10-06T00:00	30100	11	-44.9		262	10	
2025-10-06T00:00	30150	11	-44.8		259	9	
2025-10-06T00:00	30200	11	-45.0		259	8	
2025-10-06T00:00	30250	11	-45.3		257	6	
2025-10-06T00:00	30300	11	-45.6		252	5	
2025-10-06T00:00	30350	11	-45.5		239	4	
2025-10-06T00:00	30400	11	-45.4		216	4	
2025-10-06T00:00	30450	11	-45.2		200	5	
2025-10-06T00:00	30500	11	-45.1		193	6	
2025-10-06T00:00	30550	11	-45.3		190	7	
2025-10-06T00:00	30600	11	-45.7		190	7	
2025-10-06T00:00	30650	11	-46.2		192	8	
2025-10-06T00:00	30700	10	-46.7		194	8	
2025-10-06T00:00	30750	10	-47.0		198	8	
2025-10-06T00:00	30800	10	-47.4		206	9	
2025-10-06T00:00	30850	10	-47.8		215	9	
2025-10-06T00:00	30900	10	-47.6		226	9	
2025-10-06T00:00	30950	10	-47.8		237	9	
2025-10-06T00:00	31000	10	-47.9		247	10	
2025-10-06T00:00	31050	10	-48.1		254	12	
2025-10-06T00:00	31100	10	-47.7		260	13	
2025-10-06T00:00	31150	10	-47.2		264	13	
2025-10-06T00:00	31200	10	-47.0		265	14	
2025-10-06T00:00	31250	10	-46.9		267	14	
2025-10-06T00:00	31300	10	-46.7		269	15	
2025-10-06T00:00	31350	9	-46.5		271	15	
2025-10-06T00:00	31400	9	-46.2		274	14	
2025-10-06T00:00	31450	9	-46.2		277	13	
2025-10-06T00:00	31500	9	-46.5		283	12	
2025-10-06T00:00	31550	9	-46.7		288	12	
2025-10-06T00:00	31600	9	-47.0		292	12	
2025-10-06T00:00	31650	9	-47.0		291	12	
2025-10-06T00:00	31700	9	-47.0		288	13	
2025-10-06T00:00	31750	9	-47.4		283	13	
2025-10-06T00:00	31800	9	-47.8		280	13	
2025-10-06T00:00	31850	9	-48.1		279	13	
2025-10-06T00:00	31900	9	-48.1		279	12	
2025-10-06T00:00	31950	9	-47.5		279	11	
2025-10-06T00:00	32000	9	-47.4		277	11	
2025-10-06T00:00	32050	9	-47.4		275	10	
2025-10-06T00:00	32100	8	-47.2		274	10	
2025-10-06T00:00	32150	8	-46.8		272	10	
2025-10-06T00:00	32200	8	-46.3		270	10	
2025-10-06T00:00	32250	8	-46.1		267	11	
2025-10-06T00:00	32300	8	-46.4		264	12	
2025-10-06T00:00	32350	8	-46.5		261	13	
2025-10-06T00:00	32400	8	-46.7		259	15	
2025-10-06T00:00	32450	8	-46.7		258	16	
2025-10-06T00:00	32500	8	-46.7		258	17	
2025-10-06T00:00	32550	8	-46.7		259	17	
2025-10-06T00:00	32600	8	-46.7		261	18	
2025-10-06T00:00	32650	8	-46.6		264	18	
2025-10-06T00:00	32700	8	-46.6		267	18	
2025-10-06T00:00	32750	8	-46.5		271	17	
2025-10-06T00:00	32800	8	-46.4		275	17	
2025-10-06T00:00	32850	8	-46.3		281	16	
2025-10-06T00:00	32900	8	-46.4		287	16	
2025-10-06T00:00	32950	7	-46.4		292	16	
2025-10-06T00:00	33000	7	-46.2		296	15	
2025-10-06T00:00	33050	7	-46.0		297	13	
2025-10-06T00:00	33100	7	-45.2		295	12	
2025-10-06T00:00	33150	7	-44.9		290	10	
2025-10-06T00:00	33200	7	-44.6		283	10	
2025-10-06T00:00	33250	7	-44.5		278	10	
2025-10-06T00:00	33300	7	-44.4		275	12	
2025-10-06T00:00	33350	7	-44.2		276	13	
2025-10-06T00:00	33400	7	-44.0		279	14	
2025-10-06T00:00	33450	7	-43.8		286	15	
2025-10-06T00:00	33500	7	-43.6		294	16	
2025-10-06T00:00	33550	7	-43.6		301	16	
2025-10-06T00:00	33600	7	-43.5		307	16	
2025-10-06T00:00	33650	7	-43.6		311	16	
2025-10-06T00:00	33700	7	-43.8		314	16	
2025-10-06T00:00	33750	7	-43.7		315	15	
2025-10-06T00:00	33800	7	-43.4		314	14	
2025-10-06T00:00	33850	7	-43.2		311	14	
2025-10-06T00:00	33900	6	-43.3		308	14	
2025-10-06T00:00	33950	6	-43.1		306	14	
2025-10-06T00:00	34000	6	-42.9		306	15	
2025-10-06T00:00	34050	6	-42.5		305	15	
2025-10-06T00:00	34100	6	-42.2		305	16	
2025-10-06T00:00	34150	6	-42.2		305	16	
2025-10-06T00:00	34200	6	-42.4		305	16	
2025-10-06T00:00	34250	6	-42.4		306	16	
2025-10-06T00:00	34300	6	-42.3		307	16	
2025-10-06T00:00	34350	6	-42.2		308	15	
2025-10-06T00:00	34400	6	-42.0		309	15	
2025-10-06T00:00	34450	6	-41.9		310	14	
2025-10-06T00:00	34500	6	-42.0		310	13	
2025-10-06T00:00	34550	6	-41.9		311	12	
2025-10-06T00:00	34600	6	-41.6		312	11	
2025-10-06T00:00	34650	6	-40.8		313	10	
2025-10-06T00:00	34700	6	-40.7		312	9	
2025-10-06T00:00	34750	6	-40.9		306	9	
2025-10-06T00:00	34800	6	-40.8		296	9	
2025-10-06T00:00	34850	6	-40.2		286	9	
2025-10-06T00:00	34900	6	-39.4		278	9	
2025-10-06T00:00	34950	6	-39.5		276	9	
2025-10-06T00:00	35000	6	-39.7		278	9	
2025-10-06T00:00	35050	5	-40.1		282	10	
2025-10-06T00:00	35100	5	-40.4		283	10	
2025-10-06T00:00	35150	5	-40.1		281	11	
2025-10-06T00:00	35200	5	-39.7		279	12	
2025-10-06T00:00	35250	5	-39.6		278	12	
2025-10-06T00:00	35300	5	-39.4		280	13	
2025-10-06T00:00	35350	5	-39.1		285	13	
2025-10-06T00:00	35400	5	-39.1		288	13	
2025-10-06T00:00	35450	5	-39.1		291	14	
2025-10-06T00:00	35500	5	-39.2		291	14	
2025-10-06T00:00	35550	5	-38.9		290	13	
2025-10-06T00:00	35600	5	-38.7		286	13	
2025-10-06T00:00	35650	5	-38.6		283	13	
2025-10-06T00:00	35700	5	-38.6		281	14	
2025-10-06T00:00	35750	5	-38.6		281	14	
2025-10-06T00:00	35800	5	-38.6		282	14	
2025-10-06T00:00	35850	5	-38.8		282	14	
2025-10-06T00:00	35900	5	-38.9		283	13	
2025-10-06T00:00	35950	5	-38.9		283	13	
2025-10-06T00:00	36000	5	-39.0		283	13	
2025-10-06T00:00	36050	5	-39.2		282	14	
2025-10-06T00:00	36100	5	-39.2		281	14	
2025-10-06T00:00	36150	5	-39.3		281	15	
2025-10-06T00:00	36200	5	-39.4		281	15	
2025-10-06T00:00	36250	5	-39.3		282	16	
2025-10-06T00:00	36300	5	-39.3		282	17	
2025-10-06T00:00	36350	5	-39.4		283	17	
2025-10-06T00:00	36400	4	-39.3		284	16	
2025-10-06T00:00	36450	4	-39.2		284	16	
2025-10-06T00:00	36500	4	-39.1		286	15	
2025-10-06T00:00	36550	4	-39.1		288	14	
2025-10-06T00:00	36600	4	-39.0		293	14	
2025-10-06T00:00	36650	4	-39.0		299	15	
2025-10-06T00:00	36700	4	-38.2		302	16	
2025-10-06T00:00	36750	4	-37.4		305	16	
2025-10-06T00:00	36800	4	-36.1		312	17	
2025-10-06T00:00	36850	4	-34.6		313	15	
2025-10-06T00:00	36900	4	-34.3		306	13	
2025-10-06T00:00	36950	4	-34.1		298	11	
2025-10-06T00:00	37000	4	-34.1		292	11	
2025-10-06T00:00	37050	4	-34.4		288	12	
2025-10-06T00:00	37100	4	-34.6		283	12	
2025-10-06T00:00	37150	4	-34.7		279	12	
2025-10-06T00:00	37200	4	-34.6		277	11	
2025-10-06T00:00	37250	4	-34.3		278	11	
2025-10-06T00:00	37300	4	-34.1		279	10	
2025-10-06T00:00	37350	4	-34.1		282	10	
2025-10-06T12:00	491	970	12.6	4.1	218	0	2.8
2025-10-06T12:00	501	969	12.8	5.0	358	1	2.8
2025-10-06T12:00	520	967	12.5	4.6	349	1	2.9
2025-10-06T12:00	540	964	12.3	4.5	346	1	2.9
2025-10-06T12:00	560	962	12.1	4.4	346	1	2.9
2025-10-06T12:00	580	960	11.8	4.2	348	1	2.9
2025-10-06T12:00	600	957	11.5	4.1	351	1	2.9
2025-10-06T12:00	620	955	11.4	4.1	354	1	2.9
2025-10-06T12:00	640	953	11.2	4.1	356	1	2.9
2025-10-06T12:00	660	951	11.0	4.2	358	2	2.9
2025-10-06T12:00	680	948	10.7	4.0	360	2	2.9
2025-10-06T12:00	700	946	10.5	3.9	1	2	2.9
2025-10-06T12:00	720	944	10.4	3.9	3	2	2.9
2025-10-06T12:00	740	942	10.1	3.5	5	2	2.9
2025-10-06T12:00	760	939	9.6	3.1	8	2	3.0
2025-10-06T12:00	780	937	9.3	3.0	12	2	3.0
2025-10-06T12:00	800	935	9.1	3.0	16	2	3.0
2025-10-06T12:00	820	933	8.9	2.9	19	2	3.0
2025-10-06T12:00	840	930	8.7	2.9	22	2	3.0
2025-10-06T12:00	860	928	8.6	2.8	23	2	3.0
2025-10-06T12:00	880	926	8.3	2.9	22	2	3.0
2025-10-06T12:00	900	924	8.2	2.9	19	2	3.0
2025-10-06T12:00	920	921	8.1	2.9	15	1	3.0
2025-10-06T12:00	940	919	7.9	2.8	8	1	3.1
2025-10-06T12:00	960	917	7.7	2.7	359	1	3.1
2025-10-06T12:00	980	915	7.5	2.7	345	1	3.0
2025-10-06T12:00	1000	912	7.3	2.8	327	1	3.0
2025-10-06T12:00	1020	910	7.2	2.7	316	1	3.0
2025-10-06T12:00	1040	908	6.9	2.8	312	1	3.0
2025-10-06T12:00	1060	906	6.7	2.6	311	1	3.0
2025-10-06T12:00	1080	904	6.5	2.5	314	1	3.1
2025-10-06T12:00	1100	902	6.3	2.4	319	1	3.0
2025-10-06T12:00	1120	899	6.0	2.2	327	1	3.0
2025-10-06T12:00	1140	897	5.8	2.1	343	1	3.0
2025-10-06T12:00	1160	895	5.6	1.9	8	1	3.1
2025-10-06T12:00	1180	893	5.4	2.0	29	1	3.1
2025-10-06T12:00	1200	890	5.3	1.5	39	1	3.1
2025-10-06T12:00	1220	888	5.1	1.0	43	1	3.1
2025-10-06T12:00	1240	886	5.1	0.2	42	2	3.1
2025-10-06T12:00	1260	884	5.0	-1.4	41	2	3.2
2025-10-06T12:00	1280	882	4.9	-1.6	38	2	3.2
2025-10-06T12:00	1300	880	4.7	-1.7	32	2	3.2
2025-10-06T12:00	1320	878	4.6	-1.7	25	1	3.3
2025-10-06T12:00	1340	875	4.4	-0.9	15	1	3.3
2025-10-06T12:00	1360	873	4.1	-0.3	4	1	3.3
2025-10-06T12:00	1380	871	4.0	-1.2	358	1	3.3
2025-10-06T12:00	1400	869	3.9	-1.4	355	1	3.4
2025-10-06T12:00	1420	867	3.6	-1.2	354	1	3.4
2025-10-06T12:00	1440	865	3.5	-1.4	354	1	3.4
2025-10-06T12:00	1460	862	3.3	-1.3	353	1	3.4
2025-10-06T12:00	1480	860	3.1	-1.6	352	1	3.4
2025-10-06T12:00	1500	858	2.9	-1.8	350	1	3.5
2025-10-06T12:00	1520	856	2.7	-2.1	348	1	3.5
2025-10-06T12:00	1540	854	2.6	-2.0	346	1	3.5
2025-10-06T12:00	1560	852	2.4	-1.8	344	1	3.5
2025-10-06T12:00	1580	850	2.2	-1.7	343	1	3.5
2025-10-06T12:00	1600	848	2.0	-1.6	342	1	3.5
2025-10-06T12:00	1620	846	1.8	-1.6	342	1	3.5
2025-10-06T12:00	1640	843	1.6	-1.9	342	1	3.5
2025-10-06T12:00	1660	841	1.4	-1.8	342	1	3.5
2025-10-06T12:00	1680	839	1.2	-1.8	342	1	3.5
2025-10-06T12:00	1700	837	1.0	-1.9	342	1	3.4
2025-10-06T12:00	1720	835	0.8	-1.9	341	1	3.4
2025-10-06T12:00	1740	833	0.7	-2.2	340	1	3.4
2025-10-06T12:00	1760	831	0.5	-2.4	337	1	3.4
2025-10-06T12:00	1780	829	0.3	-2.4	333	1	3.4
2025-10-06T12:00	1800	827	0.1	-2.4	328	1	3.4
2025-10-06T12:00	1820	825	-0.1	-2.2	321	1	3.4
2025-10-06T12:00	1840	823	-0.3	-2.3	314	1	3.4
2025-10-06T12:00	1860	821	-0.5	-2.3	305	1	3.4
2025-10-06T12:00	1880	819	-0.6	-2.0	296	1	3.4
2025-10-06T12:00	1900	817	-0.7	-1.6	289	1	3.4
2025-10-06T12:00	1920	815	-0.8	-1.4	283	1	3.4
2025-10-06T12:00	1940	813	-1.0	-1.3	278	1	3.4
2025-10-06T12:00	1960	811	-1.1	-1.3	273	1	3.3
2025-10-06T12:00	1980	809	-1.3	-1.4	268	1	3.3
2025-10-06T12:00	2000	806	-1.4	-1.6	264	1	3.3
2025-10-06T12:00	2020	804	-1.6	-1.7	260	1	3.3
2025-10-06T12:00	2040	803	-1.7	-1.7	257	1	3.3
2025-10-06T12:00	2060	801	-1.8	-1.9	255	1	3.2
2025-10-06T12:00	2080	799	-2.0	-2.0	255	2	3.2
2025-10-06T12:00	2100	797	-2.1	-2.1	255	1	3.3
2025-10-06T12:00	2120	794	-2.2	-2.3	258	1	3.3
2025-10-06T12:00	2140	792	-2.3	-2.3	263	1	3.2
2025-10-06T12:00	2160	790	-2.4	-2.4	277	1	3.2
2025-10-06T12:00	2180	788	-2.6	-2.6	304	1	3.2
2025-10-06T12:00	2200	786	-2.7	-2.7	325	1	3.2
2025-10-06T12:00	2220	784	-2.8	-2.8	334	2	3.2
2025-10-06T12:00	2240	782	-2.9	-2.9	336	2	3.2
2025-10-06T12:00	2260	781	-3.1	-3.1	338	3	3.2
2025-10-06T12:00	2280	779	-3.3	-3.4	340	4	3.2
2025-10-06T12:00	2300	777	-3.5	-5.1	343	5	3.1
2025-10-06T12:00	2320	775	-3.4	-7.3	345	5	3.2
2025-10-06T12:00	2340	773	-3.3	-8.7	349	6	3.2
2025-10-06T12:00	2360	771	-2.7	-9.2	353	7	3.3
2025-10-06T12:00	2380	769	-2.1	-9.5	357	7	3.4
2025-10-06T12:00	2400	767	-1.8	-10.3	0	8	3.4
2025-10-06T12:00	2420	765	-1.6	-10.6	3	8	3.5
2025-10-06T12:00	2440	763	-1.5	-11.7	6	9	3.5
2025-10-06T12:00	2460	761	-1.4	-12.4	7	9	3.6
2025-10-06T12:00	2480	759	-1.3	-10.8	8	10	3.6
2025-10-06T12:00	2500	757	-1.3	-9.9	8	10	3.7
2025-10-06T12:00	2520	755	-1.4	-9.8	8	11	3.7
2025-10-06T12:00	2540	753	-1.4	-8.6	7	11	3.8
2025-10-06T12:00	2560	752	-1.4	-6.0	7	11	3.8
2025-10-06T12:00	2580	750	-1.2	-5.0	7	11	3.8
2025-10-06T12:00	2600	748	-1.3	-5.4	7	11	3.8
2025-10-06T12:00	2620	746	-1.4	-5.5	6	10	3.8
2025-10-06T12:00	2640	744	-1.5	-5.5	6	10	3.8
2025-10-06T12:00	2660	742	-1.6	-5.4	6	11	3.8
2025-10-06T12:00	2680	740	-1.7	-5.2	7	11	3.8
2025-10-06T12:00	2700	738	-1.7	-5.3	7	11	3.7
2025-10-06T12:00	2720	736	-1.7	-5.7	9	11	3.7
2025-10-06T12:00	2740	735	-1.4	-6.1	10	12	3.7
2025-10-06T12:00	2760	733	-1.1	-6.9	11	12	3.7
2025-10-06T12:00	2780	731	-0.8	-7.7	13	12	3.7
2025-10-06T12:00	2800	729	-0.5	-8.0	14	12	3.7
2025-10-06T12:00	2820	728	-0.3	-8.5	15	12	3.7
2025-10-06T12:00	2840	726	-0.1	-8.1	16	12	3.7
2025-10-06T12:00	2860	724	-0.3	-7.7	16	12	3.8
2025-10-06T12:00	2880	722	-0.5	-7.7	16	13	3.8
2025-10-06T12:00	2900	720	-0.6	-7.7	16	13	3.8
2025-10-06T12:00	2920	719	-0.6	-7.8	15	13	3.8
2025-10-06T12:00	2940	717	-0.5	-7.9	14	13	3.8
2025-10-06T12:00	2960	715	-0.8	-7.9	14	14	3.8
2025-10-06T12:00	2980	713	-1.0	-7.9	13	14	3.8
2025-10-06T12:00	3000	711	-1.2	-8.0	13	14	3.8
2025-10-06T12:00	3020	709	-1.4	-8.0	13	14	3.9
2025-10-06T12:00	3040	708	-1.6	-8.1	13	15	3.8
2025-10-06T12:00	3060	706	-1.8	-8.1	13	15	3.8
2025-10-06T12:00	3080	704	-1.9	-8.5	13	15	3.9
2025-10-06T12:00	3100	702	-1.9	-8.8	12	15	3.9
2025-10-06T12:00	3120	701	-1.9	-8.8	12	15	3.9
2025-10-06T12:00	3140	699	-2.0	-8.6	11	15	3.9
2025-10-06T12:00	3160	697	-2.0	-8.4	11	16	3.8
2025-10-06T12:00	3180	695	-2.1	-8.1	11	16	3.9
2025-10-06T12:00	3200	694	-2.1	-8.0	11	16	3.9
2025-10-06T12:00	3220	692	-2.2	-8.2	11	16	3.8
2025-10-06T12:00	3240	690	-2.4	-7.9	11	16	3.8
2025-10-06T12:00	3260	689	-2.6	-7.7	11	16	3.8
2025-10-06T12:00	3280	687	-2.7	-7.6	11	16	3.8
2025-10-06T12:00	3300	685	-2.8	-7.6	11	16	3.8
2025-10-06T12:00	3320	683	-3.1	-7.5	11	16	3.8
2025-10-06T12:00	3340	681	-3.2	-7.6	11	16	3.8
2025-10-06T12:00	3360	680	-3.4	-7.5	11	17	3.8
2025-10-06T12:00	3380	678	-3.4	-7.5	11	17	3.8
2025-10-06T12:00	3400	676	-3.6	-7.6	10	17	3.8
2025-10-06T12:00	3420	675	-3.8	-7.6	10	17	3.8
2025-10-06T12:00	3440	673	-4.0	-7.4	9	17	3.8
2025-10-06T12:00	3460	671	-4.0	-8.1	8	18	3.8
2025-10-06T12:00	3480	669	-4.0	-10.9	7	18	3.8
2025-10-06T12:00	3500	668	-3.9	-10.7	6	18	3.7
2025-10-06T12:00	3520	666	-3.7	-11.1	5	18	3.7
2025-10-06T12:00	3540	665	-3.6	-11.9	5	18	3.7
2025-10-06T12:00	3560	663	-3.6	-12.1	4	18	3.7
2025-10-06T12:00	3580	661	-3.6	-11.2	4	18	3.7
2025-10-06T12:00	3600	659	-3.6	-10.3	4	18	3.7
2025-10-06T12:00	3620	658	-3.8	-10.2	5	18	3.7
2025-10-06T12:00	3640	656	-3.9	-10.1	5	18	3.7
2025-10-06T12:00	3660	654	-4.0	-9.0	6	18	3.7
2025-10-06T12:00	3680	653	-4.1	-8.6	6	18	3.7
2025-10-06T12:00	3700	651	-4.1	-8.5	6	18	3.7
2025-10-06T12:00	3720	650	-4.3	-8.6	6	18	3.7
2025-10-06T12:00	3740	648	-4.4	-9.4	6	18	3.7
2025-10-06T12:00	3760	646	-4.5	-9.9	6	17	3.7
2025-10-06T12:00	3780	645	-4.6	-10.7	6	18	3.7
2025-10-06T12:00	3800	643	-4.7	-10.9	6	18	3.7
2025-10-06T12:00	3820	641	-4.8	-11.1	6	18	3.7
2025-10-06T12:00	3840	640	-4.9	-11.4	6	18	3.7
2025-10-06T12:00	3860	638	-5.0	-12.3	6	18	3.7
2025-10-06T12:00	3880	636	-5.1	-12.5	6	17	3.6
2025-10-06T12:00	3900	635	-5.2	-10.3	5	17	3.7
2025-10-06T12:00	3920	633	-5.3	-10.3	5	17	3.7
2025-10-06T12:00	3940	631	-5.4	-10.5	5	17	3.7
2025-10-06T12:00	3960	630	-5.6	-10.6	5	17	3.6
2025-10-06T12:00	3980	628	-5.7	-10.6	4	17	3.6
2025-10-06T12:00	4000	627	-5.7	-10.9	4	16	3.6
2025-10-06T12:00	4020	625	-5.8	-10.9	4	16	3.6
2025-10-06T12:00	4040	624	-6.0	-10.8	4	16	3.6
2025-10-06T12:00	4060	622	-6.1	-10.6	4	16	3.6
2025-10-06T12:00	4080	620	-6.2	-10.7	4	16	3.6
2025-10-06T12:00	4100	619	-6.3	-10.8	4	16	3.6
2025-10-06T12:00	4120	617	-6.5	-11.0	4	16	3.6
2025-10-06T12:00	4140	616	-6.7	-11.1	4	16	3.6
2025-10-06T12:00	4160	614	-6.8	-11.2	4	17	3.6
2025-10-06T12:00	4180	613	-6.9	-11.3	4	17	3.6
2025-10-06T12:00	4200	611	-7.1	-11.4	3	17	3.6
2025-10-06T12:00	4220	609	-7.2	-11.7	3	17	3.6
2025-10-06T12:00	4240	608	-7.3	-12.0	3	17	3.5
2025-10-06T12:00	4260	606	-7.4	-12.0	2	17	3.5
2025-10-06T12:00	4280	605	-7.6	-12.0	2	17	3.5
2025-10-06T12:00	4300	603	-7.8	-12.1	1	17	3.5
2025-10-06T12:00	4320	602	-7.9	-12.3	1	18	3.5
2025-10-06T12:00	4340	600	-8.1	-12.5	1	18	3.5
2025-10-06T12:00	4360	599	-8.2	-12.2	1	18	3.5
2025-10-06T12:00	4380	597	-8.4	-11.9	0	18	3.5
2025-10-06T12:00	4400	596	-8.5	-12.0	1	18	3.5
2025-10-06T12:00	4420	594	-8.7	-12.4	1	18	3.5
2025-10-06T12:00	4440	592	-8.8	-13.3	1	19	3.5
2025-10-06T12:00	4460	591	-8.8	-14.0	1	19	3.5
2025-10-06T12:00	4480	589	-9.0	-14.0	2	19	3.5
2025-10-06T12:00	4500	588	-9.0	-13.2	2	20	3.4
2025-10-06T12:00	4520	586	-9.1	-13.0	1	20	3.4
2025-10-06T12:00	4540	585	-9.1	-12.9	1	20	3.4
2025-10-06T12:00	4560	583	-9.2	-12.6	1	20	3.4
2025-10-06T12:00	4580	582	-9.4	-12.4	0	20	3.4
2025-10-06T12:00	4600	580	-9.4	-12.2	360	20	3.4
2025-10-06T12:00	4620	579	-9.6	-12.3	360	20	3.4
2025-10-06T12:00	4640	577	-9.7	-12.5	359	20	3.4
2025-10-06T12:00	4660	576	-9.9	-12.7	358	20	3.5
2025-10-06T12:00	4680	574	-10.0	-12.9	357	21	3.4
2025-10-06T12:00	4700	573	-10.2	-12.8	356	21	3.4
2025-10-06T12:00	4720	571	-10.3	-12.9	354	21	3.4
2025-10-06T12:00	4740	570	-10.4	-13.0	353	21	3.4
2025-10-06T12:00	4760	568	-10.3	-13.0	352	22	3.4
2025-10-06T12:00	4780	567	-10.1	-13.1	351	22	3.4
2025-10-06T12:00	4800	566	-10.3	-13.1	351	22	3.4
2025-10-06T12:00	4820	564	-10.3	-13.3	351	23	3.4
2025-10-06T12:00	4840	562	-10.4	-13.4	352	23	3.4
2025-10-06T12:00	4860	561	-10.5	-13.5	353	23	3.4
2025-10-06T12:00	4880	560	-10.5	-13.7	353	23	3.4
2025-10-06T12:00	4900	558	-10.3	-14.2	355	23	3.4
2025-10-06T12:00	4920	557	-10.2	-14.7	356	23	3.4
2025-10-06T12:00	4940	555	-10.2	-14.9	357	23	3.4
2025-10-06T12:00	4960	554	-10.2	-15.2	357	23	3.5
2025-10-06T12:00	4980	553	-10.2	-15.3	358	24	3.5
2025-10-06T12:00	5000	551	-10.3	-15.2	358	24	3.5
2025-10-06T12:00	5020	549	-10.3	-15.2	359	24	3.5
2025-10-06T12:00	5040	548	-10.4	-15.4	359	24	3.4
2025-10-06T12:00	5060	547	-10.4	-15.7	359	24	3.4
2025-10-06T12:00	5080	545	-10.6	-15.9	359	24	3.4
2025-10-06T12:00	5100	544	-10.7	-16.3	359	25	3.4
2025-10-06T12:00	5120	542	-10.8	-16.7	359	25	3.4
2025-10-06T12:00	5140	541	-10.9	-16.9	359	25	3.4
2025-10-06T12:00	5160	540	-10.9	-17.2	359	25	3.4
2025-10-06T12:00	5180	538	-10.9	-17.5	358	25	3.4
2025-10-06T12:00	5200	537	-10.9	-17.8	358	25	3.4
2025-10-06T12:00	5220	535	-10.9	-18.1	358	25	3.4
2025-10-06T12:00	5240	534	-11.0	-18.0	358	26	3.4
2025-10-06T12:00	5260	533	-11.1	-18.3	358	26	3.4
2025-10-06T12:00	5280	531	-11.2	-18.5	358	26	3.4
2025-10-06T12:00	5300	530	-11.3	-18.7	358	26	3.4
2025-10-06T12:00	5320	528	-11.4	-18.9	358	26	3.4
2025-10-06T12:00	5340	527	-11.5	-19.0	358	26	3.4
2025-10-06T12:00	5360	526	-11.7	-18.9	358	27	3.4
2025-10-06T12:00	5380	524	-11.8	-19.2	358	27	3.4
2025-10-06T12:00	5400	523	-11.8	-19.7	358	27	3.4
2025-10-06T12:00	5420	522	-12.0	-20.0	358	28	3.4
2025-10-06T12:00	5440	520	-12.2	-20.3	358	28	3.4
2025-10-06T12:00	5460	519	-12.2	-20.7	358	28	3.4
2025-10-06T12:00	5480	518	-12.3	-21.3	358	29	3.4
2025-10-06T12:00	5500	516	-12.4	-22.0	358	29	3.4
2025-10-06T12:00	5520	515	-12.5	-22.2	358	29	3.5
2025-10-06T12:00	5540	513	-12.6	-22.5	359	29	3.5
2025-10-06T12:00	5560	512	-12.7	-22.9	359	29	3.5
2025-10-06T12:00	5580	511	-12.9	-22.7	359	29	3.5
2025-10-06T12:00	5600	509	-13.1	-22.4	359	29	3.5
2025-10-06T12:00	5620	508	-13.0	-23.2	359	29	3.5
2025-10-06T12:00	5640	507	-12.9	-24.2	359	29	3.5
2025-10-06T12:00	5660	506	-12.8	-25.6	359	29	3.5
2025-10-06T12:00	5680	504	-12.9	-25.4	359	29	3.5
2025-10-06T12:00	5700	503	-12.9	-25.3	359	29	3.5
2025-10-06T12:00	5720	502	-13.1	-24.1	359	30	3.5
2025-10-06T12:00	5740	500	-13.3	-23.1	359	30	3.6
2025-10-06T12:00	5760	499	-13.3	-22.9	360	30	3.6
2025-10-06T12:00	5780	498	-13.0	-26.8	360	31	3.6
2025-10-06T12:00	5800	496	-12.9	-26.9	0	31	3.6
2025-10-06T12:00	5820	495	-13.0	-25.9	1	31	3.6
2025-10-06T12:00	5840	494	-13.0	-25.4	1	32	3.6
2025-10-06T12:00	5860	492	-13.1	-24.9	1	32	3.6
2025-10-06T12:00	5880	491	-13.2	-23.8	2	33	3.6
2025-10-06T12:00	5900	490	-13.4	-23.0	2	33	3.6
2025-10-06T12:00	5920	488	-13.5	-22.6	2	33	3.5
2025-10-06T12:00	5940	487	-13.7	-22.2	2	33	3.5
2025-10-06T12:00	5960	486	-13.8	-21.7	3	33	3.4
2025-10-06T12:00	5980	485	-14.1	-21.0	3	33	3.3
2025-10-06T12:00	6000	483	-14.3	-20.3	3	33	3.3
2025-10-06T12:00	6020	482	-14.3	-20.5	3	33	3.2
2025-10-06T12:00	6040	481	-14.4	-20.6	3	34	3.2
2025-10-06T12:00	6060	480	-14.6	-20.7	3	34	3.1
2025-10-06T12:00	6080	478	-14.6	-20.9	3	34	3.1
2025-10-06T12:00	6100	477	-14.7	-21.0	4	34	3.0
2025-10-06T12:00	6120	476	-14.8	-20.9	4	35	3.0
2025-10-06T12:00	6140	474	-14.8	-21.4	4	35	3.1
2025-10-06T12:00	6160	473	-15.0	-21.7	4	36	3.1
2025-10-06T12:00	6180	472	-15.1	-21.7	5	36	3.1
2025-10-06T12:00	6200	471	-15.2	-21.9	5	36	3.1
2025-10-06T12:00	6220	470	-15.3	-22.1	5	37	3.0
2025-10-06T12:00	6240	468	-15.2	-23.4	5	37	3.0
2025-10-06T12:00	6260	467	-15.3	-24.4	5	37	2.9
2025-10-06T12:00	6280	466	-15.4	-24.5	5	37	2.9
2025-10-06T12:00	6300	465	-15.6	-24.6	5	37	2.9
2025-10-06T12:00	6320	463	-15.8	-24.6	5	37	2.8
2025-10-06T12:00	6340	462	-15.8	-24.8	5	37	2.8
2025-10-06T12:00	6360	461	-16.0	-24.8	4	37	2.8
2025-10-06T12:00	6380	460	-16.2	-24.8	4	37	2.8
2025-10-06T12:00	6400	459	-16.4	-24.9	4	37	2.7
2025-10-06T12:00	6420	457	-16.5	-24.9	4	37	2.7
2025-10-06T12:00	6440	456	-16.7	-25.1	3	37	2.7
2025-10-06T12:00	6460	455	-17.0	-25.1	3	37	2.7
2025-10-06T12:00	6480	454	-17.2	-25.2	3	37	2.7
2025-10-06T12:00	6500	452	-17.4	-25.3	3	37	2.6
2025-10-06T12:00	6520	451	-17.6	-25.3	3	37	2.6
2025-10-06T12:00	6540	450	-17.7	-25.4	3	37	2.6
2025-10-06T12:00	6560	449	-18.0	-25.3	2	38	2.6
2025-10-06T12:00	6580	448	-18.1	-25.4	2	38	2.6
2025-10-06T12:00	6600	446	-18.2	-25.5	2	38	2.5
2025-10-06T12:00	6620	445	-18.3	-25.6	2	39	2.5
2025-10-06T12:00	6640	444	-18.3	-25.9	2	39	2.5
2025-10-06T12:00	6660	443	-18.3	-26.1	2	39	2.5
2025-10-06T12:00	6680	442	-18.3	-26.2	2	39	2.5
2025-10-06T12:00	6700	441	-18.5	-26.1	2	39	2.5
2025-10-06T12:00	6720	439	-18.8	-26.3	1	40	2.4
2025-10-06T12:00	6740	438	-18.9	-26.6	1	40	2.4
2025-10-06T12:00	6760	437	-19.0	-26.6	1	40	2.4
2025-10-06T12:00	6780	436	-19.3	-26.2	1	40	2.4
2025-10-06T12:00	6800	434	-19.4	-26.2	1	40	2.3
2025-10-06T12:00	6820	433	-19.4	-26.8	1	40	2.3
2025-10-06T12:00	6840	432	-19.5	-26.9	1	40	2.3
2025-10-06T12:00	6860	431	-19.6	-26.9	0	40	2.3
2025-10-06T12:00	6880	430	-19.7	-27.7	0	40	2.3
2025-10-06T12:00	6900	429	-19.7	-28.9	360	40	2.3
2025-10-06T12:00	6920	428	-19.7	-29.4	360	40	2.3
2025-10-06T12:00	6940	427	-19.8	-29.7	359	40	2.3
2025-10-06T12:00	6960	425	-19.7	-30.5	359	40	2.4
2025-10-06T12:00	6980	424	-19.8	-31.3	359	40	2.4
2025-10-06T12:00	7000	423	-20.0	-31.8	359	40	2.4
2025-10-06T12:00	7020	422	-20.1	-32.6	359	40	2.4
2025-10-06T12:00	7040	421	-20.2	-32.8	359	40	2.4
2025-10-06T12:00	7060	420	-20.3	-32.9	359	40	2.4
2025-10-06T12:00	7080	419	-20.5	-33.5	359	40	2.4
2025-10-06T12:00	7100	417	-20.6	-34.1	359	40	2.4
2025-10-06T12:00	7120	416	-20.8	-34.4	359	40	2.5
2025-10-06T12:00	7140	415	-20.9	-34.7	358	40	2.5
2025-10-06T12:00	7160	414	-21.1	-34.7	358	40	2.4
2025-10-06T12:00	7180	413	-21.3	-35.2	358	39	2.4
2025-10-06T12:00	7200	412	-21.5	-35.7	357	39	2.4
2025-10-06T12:00	7220	411	-21.6	-35.4	357	39	2.4
2025-10-06T12:00	7240	410	-21.7	-35.4	356	40	2.4
2025-10-06T12:00	7260	408	-21.8	-35.7	356	40	2.4
2025-10-06T12:00	7280	407	-22.0	-35.6	356	40	2.4
2025-10-06T12:00	7300	406	-22.1	-35.8	356	40	2.4
2025-10-06T12:00	7320	405	-22.2	-36.2	356	40	2.4
2025-10-06T12:00	7340	404	-22.4	-35.5	356	40	2.4
2025-10-06T12:00	7360	403	-22.5	-35.2	355	40	2.3
2025-10-06T12:00	7380	402	-22.6	-35.1	355	40	2.3
2025-10-06T12:00	7400	401	-22.8	-35.2	355	40	2.3
2025-10-06T12:00	7420	400	-22.8	-35.2	355	40	2.2
2025-10-06T12:00	7440	399	-23.0	-35.6	356	40	2.2
2025-10-06T12:00	7460	397	-23.2	-35.6	356	40	2.1
2025-10-06T12:00	7480	396	-23.4	-35.7	356	40	2.1
2025-10-06T12:00	7500	395	-23.6	-36.0	356	40	2.0
2025-10-06T12:00	7520	394	-23.8	-36.1	356	40	2.0
2025-10-06T12:00	7540	393	-23.8	-36.4	356	40	2.0
2025-10-06T12:00	7560	392	-24.0	-36.8	356	40	2.0
2025-10-06T12:00	7580	391	-24.2	-36.8	356	40	2.0
2025-10-06T12:00	7600	390	-24.4	-36.8	356	40	2.0
2025-10-06T12:00	7620	389	-24.6	-36.7	355	40	1.9
2025-10-06T12:00	7640	388	-24.7	-36.7	355	40	1.9
2025-10-06T12:00	7660	387	-24.9	-36.7	355	40	1.9
2025-10-06T12:00	7680	386	-25.1	-36.5	354	41	1.9
2025-10-06T12:00	7700	384	-25.3	-36.5	354	41	1.8
2025-10-06T12:00	7720	383	-25.5	-36.6	354	41	1.8
2025-10-06T12:00	7740	383	-25.6	-36.6	354	41	1.8
2025-10-06T12:00	7760	381	-25.8	-36.6	353	41	1.8
2025-10-06T12:00	7780	380	-25.9	-36.7	353	41	1.8
2025-10-06T12:00	7800	379	-26.1	-36.4	353	41	1.8
2025-10-06T12:00	7820	378	-26.3	-36.4	352	41	1.8
2025-10-06T12:00	7840	377	-26.5	-36.7	352	41	1.8
2025-10-06T12:00	7860	376	-26.7	-36.8	352	42	1.8
2025-10-06T12:00	7880	375	-26.9	-36.9	352	42	1.8
2025-10-06T12:00	7900	374	-26.9	-37.6	351	42	1.8
2025-10-06T12:00	7920	373	-27.1	-38.9	351	42	1.8
2025-10-06T12:00	7940	372	-27.2	-38.8	351	42	1.8
2025-10-06T12:00	7960	371	-27.3	-38.6	351	41	1.8
2025-10-06T12:00	7980	370	-27.5	-38.7	350	41	1.8
2025-10-06T12:00	8000	369	-27.8	-38.9	350	41	1.7
2025-10-06T12:00	8020	368	-28.0	-38.9	350	41	1.7
2025-10-06T12:00	8040	367	-28.2	-39.0	350	41	1.8
2025-10-06T12:00	8060	366	-28.4	-38.9	349	41	1.8
2025-10-06T12:00	8080	365	-28.5	-38.3	349	41	1.7
2025-10-06T12:00	8100	364	-28.7	-37.8	349	41	1.7
2025-10-06T12:00	8120	363	-28.8	-37.3	349	41	1.7
2025-10-06T12:00	8140	362	-29.0	-37.1	349	41	1.7
2025-10-06T12:00	8160	361	-29.2	-37.2	349	41	1.7
2025-10-06T12:00	8180	360	-29.4	-37.1	349	41	1.7
2025-10-06T12:00	8200	359	-29.5	-37.0	349	41	1.7
2025-10-06T12:00	8220	358	-29.7	-36.8	349	41	1.7
2025-10-06T12:00	8240	357	-29.9	-36.7	349	41	1.7
2025-10-06T12:00	8260	356	-30.0	-36.7	349	41	1.7
2025-10-06T12:00	8280	355	-30.2	-37.2	349	41	1.7
2025-10-06T12:00	8300	354	-30.5	-37.6	349	41	1.7
2025-10-06T12:00	8320	353	-30.6	-37.6	349	42	1.7
2025-10-06T12:00	8340	352	-30.8	-37.8	349	42	1.7
2025-10-06T12:00	8360	351	-30.9	-37.7	349	42	1.7
2025-10-06T12:00	8380	350	-31.1	-37.0	349	42	1.7
2025-10-06T12:00	8400	349	-31.2	-37.2	349	42	1.7
2025-10-06T12:00	8420	348	-31.4	-38.1	349	42	1.7
2025-10-06T12:00	8440	347	-31.6	-39.4	349	42	1.7
2025-10-06T12:00	8460	346	-31.8	-39.2	350	42	1.7
2025-10-06T12:00	8480	345	-31.9	-39.2	350	42	1.7
2025-10-06T12:00	8500	344	-32.0	-39.5	350	42	1.7
2025-10-06T12:00	8520	343	-32.2	-39.8	351	42	1.7
2025-10-06T12:00	8540	342	-32.3	-39.6	351	42	1.8
2025-10-06T12:00	8560	341	-32.3	-41.0	352	42	1.8
2025-10-06T12:00	8580	340	-32.3	-41.9	352	42	1.8
2025-10-06T12:00	8600	339	-32.5	-41.5	353	42	1.8
2025-10-06T12:00	8620	338	-32.7	-41.3	353	42	1.8
2025-10-06T12:00	8640	337	-32.8	-41.6	354	42	1.8
2025-10-06T12:00	8660	336	-33.0	-41.8	355	42	1.8
2025-10-06T12:00	8680	335	-33.1	-42.1	355	42	1.8
2025-10-06T12:00	8700	334	-33.2	-42.7	355	42	1.7
2025-10-06T12:00	8720	333	-33.3	-42.7	356	42	1.7
2025-10-06T12:00	8740	332	-33.5	-42.5	356	42	1.7
2025-10-06T12:00	8760	331	-33.5	-42.9	356	42	1.7
2025-10-06T12:00	8780	330	-33.6	-43.5	356	42	1.7
2025-10-06T12:00	8800	330	-33.7	-43.5	355	42	1.7
2025-10-06T12:00	8820	329	-33.8	-43.6	355	42	1.7
2025-10-06T12:00	8840	328	-34.0	-44.1	355	42	1.7
2025-10-06T12:00	8860	327	-34.2	-44.5	354	42	1.7
2025-10-06T12:00	8880	326	-34.3	-45.0	354	42	1.7
2025-10-06T12:00	8900	325	-34.3	-45.5	354	42	1.7
2025-10-06T12:00	8920	324	-34.5	-45.8	354	42	1.7
2025-10-06T12:00	8940	323	-34.7	-45.9	353	42	1.7
2025-10-06T12:00	8960	322	-34.8	-45.9	353	42	1.7
2025-10-06T12:00	8980	321	-35.0	-45.8	353	42	1.7
2025-10-06T12:00	9000	320	-35.2	-45.9	353	42	1.7
2025-10-06T12:00	9020	319	-35.4	-46.3	353	43	1.7
2025-10-06T12:00	9040	318	-35.5	-46.6	352	43	1.7
2025-10-06T12:00	9060	317	-35.5	-46.8	352	43	1.7
2025-10-06T12:00	9080	317	-35.7	-47.0	352	43	1.7
2025-10-06T12:00	9100	316	-36.0	-47.2	352	43	1.7
2025-10-06T12:00	9120	315	-36.1	-47.5	352	43	1.7
2025-10-06T12:00	9140	314	-36.3	-48.0	353	43	1.7
2025-10-06T12:00	9160	313	-36.4	-49.0	353	43	1.7
2025-10-06T12:00	9180	312	-36.6	-50.4	353	43	1.8
2025-10-06T12:00	9200	311	-36.8	-51.3	353	43	1.8
2025-10-06T12:00	9220	310	-36.9	-51.2	353	43	1.8
2025-10-06T12:00	9240	309	-37.0	-51.1	354	43	1.8
2025-10-06T12:00	9260	308	-37.2	-51.0	354	43	1.9
2025-10-06T12:00	9280	307	-37.4	-52.6	354	43	1.9
2025-10-06T12:00	9300	307	-37.4	-55.3	354	43	1.9
2025-10-06T12:00	9320	306	-37.5	-55.9	354	43	1.9
2025-10-06T12:00	9340	305	-37.8	-55.6	353	43	2.0
2025-10-06T12:00	9360	304	-37.9	-55.8	353	43	2.0
2025-10-06T12:00	9380	303	-38.1	-56.1	353	43	2.1
2025-10-06T12:00	9400	302	-38.3	-56.4	353	43	2.1
2025-10-06T12:00	9420	301	-38.6	-56.3	353	43	2.1
2025-10-06T12:00	9440	301	-38.8	-56.2	353	43	2.1
2025-10-06T12:00	9460	300	-38.9	-56.4	352	44	2.1
2025-10-06T12:00	9480	299	-39.1	-56.6	352	44	2.1
2025-10-06T12:00	9500	298	-39.3	-56.6	351	44	2.1
2025-10-06T12:00	9520	297	-39.5	-56.7	351	44	2.1
2025-10-06T12:00	9540	296	-39.5	-57.3	350	44	2.1
2025-10-06T12:00	9560	295	-39.6	-58.3	350	45	2.1
2025-10-06T12:00	9580	294	-39.5	-58.9	350	45	2.1
2025-10-06T12:00	9600	294	-39.6	-59.0	350	45	2.1
2025-10-06T12:00	9620	293	-39.7	-59.2	350	45	2.1
2025-10-06T12:00	9640	292	-39.7	-59.8	350	45	2.1
2025-10-06T12:00	9660	291	-39.8	-59.9	350	45	2.0
2025-10-06T12:00	9680	290	-39.9	-60.0	350	45	2.0
2025-10-06T12:00	9700	289	-40.1	-59.9	351	45	2.0
2025-10-06T12:00	9720	288	-40.3	-59.9	351	45	2.0
2025-10-06T12:00	9740	288	-40.5	-59.9	351	45	2.0
2025-10-06T12:00	9760	287	-40.7	-60.0	351	45	2.0
2025-10-06T12:00	9780	286	-41.0	-59.8	352	45	2.0
2025-10-06T12:00	9800	285	-41.1	-59.5	352	45	2.0
2025-10-06T12:00	9820	284	-41.3	-59.5	352	45	2.0
2025-10-06T12:00	9840	283	-41.4	-59.5	352	45	2.0
2025-10-06T12:00	9860	283	-41.7	-59.6	352	45	2.0
2025-10-06T12:00	9880	282	-41.8	-59.7	352	45	2.0
2025-10-06T12:00	9900	281	-41.9	-59.9	352	45	1.9
2025-10-06T12:00	9920	280	-42.2	-59.9	353	45	1.9
2025-10-06T12:00	9940	279	-42.4	-59.8	353	45	1.9
2025-10-06T12:00	9960	278	-42.6	-59.8	353	45	1.9
2025-10-06T12:00	9980	278	-42.8	-60.0	353	45	1.9
2025-10-06T12:00	10000	277	-42.9	-60.2	353	45	1.9
2025-10-06T12:00	10018	276	-43.0	-60.3	353	45	1.9
2025-10-06T12:00	10050	275	-43.4	-60.3	353	45	1.9
2025-10-06T12:00	10100	273	-43.9	-60.3	353	45	1.9
2025-10-06T12:00	10150	271	-44.4	-60.2	353	45	1.9
2025-10-06T12:00	10200	269	-44.9	-60.3	352	46	1.9
2025-10-06T12:00	10250	267	-45.3	-59.6	352	46	1.8
2025-10-06T12:00	10300	265	-45.6	-59.1	352	47	1.9
2025-10-06T12:00	10350	263	-45.9	-59.4	352	48	1.8
2025-10-06T12:00	10400	261	-46.2	-59.9	352	48	1.8
2025-10-06T12:00	10450	259	-46.3	-60.0	351	48	1.7
2025-10-06T12:00	10500	257	-46.6	-60.2	350	49	1.6
2025-10-06T12:00	10550	255	-46.9	-60.5	350	49	1.5
2025-10-06T12:00	10600	253	-47.0	-61.5	350	50	1.4
2025-10-06T12:00	10650	251	-47.3	-62.1	350	50	1.4
2025-10-06T12:00	10700	249	-47.4	-64.5	351	51	1.3
2025-10-06T12:00	10750	247	-47.7	-64.4	351	51	1.4
2025-10-06T12:00	10800	245	-48.2	-64.1	351	51	1.5
2025-10-06T12:00	10850	244	-48.7	-64.1	351	50	1.5
2025-10-06T12:00	10900	242	-49.0	-64.0	350	50	1.6
2025-10-06T12:00	10950	240	-49.3	-63.8	350	51	1.7
2025-10-06T12:00	11000	238	-49.7	-63.7	350	52	1.8
2025-10-06T12:00	11050	236	-50.0	-64.1	350	53	1.9
2025-10-06T12:00	11100	234	-50.5	-64.2	351	54	1.9
2025-10-06T12:00	11150	233	-50.6	-63.9	351	54	1.8
2025-10-06T12:00	11200	231	-50.8	-63.4	352	54	1.7
2025-10-06T12:00	11250	229	-51.4	-62.7	352	55	1.6
2025-10-06T12:00	11300	227	-51.7	-62.7	352	55	1.5
2025-10-06T12:00	11350	226	-52.2	-63.6	352	55	1.4
2025-10-06T12:00	11400	224	-52.7	-65.0	352	54	1.4
2025-10-06T12:00	11450	222	-53.1	-66.3	352	54	1.4
2025-10-06T12:00	11500	220	-53.3	-65.7	351	54	1.4
2025-10-06T12:00	11550	219	-53.3	-66.2	351	54	1.5
2025-10-06T12:00	11600	217	-53.4	-67.3	351	54	1.6
2025-10-06T12:00	11650	215	-53.7	-68.5	352	54	1.7
2025-10-06T12:00	11700	214	-53.8	-68.2	352	53	1.8
2025-10-06T12:00	11750	212	-54.0	-67.3	351	53	1.9
2025-10-06T12:00	11800	210	-54.4	-67.4	351	52	1.9
2025-10-06T12:00	11850	209	-54.6	-67.8	351	52	2.0
2025-10-06T12:00	11900	207	-54.7	-68.3	351	52	2.0
2025-10-06T12:00	11950	205	-54.8	-68.8	351	52	2.1
2025-10-06T12:00	12000	204	-54.9	-69.5	351	52	2.1
2025-10-06T12:00	12050	202	-54.7	-70.5	351	53	2.1
2025-10-06T12:00	12100	201	-55.0	-70.7	351	53	2.0
2025-10-06T12:00	12150	199	-55.3	-70.9	351	53	2.0
2025-10-06T12:00	12200	198	-55.0	-71.6	352	53	2.0
2025-10-06T12:00	12250	196	-54.8	-72.4	353	53	2.0
2025-10-06T12:00	12300	194	-54.9	-73.1	354	52	2.0
2025-10-06T12:00	12350	193	-55.3	-73.5	354	51	2.1
2025-10-06T12:00	12400	191	-55.6	-74.0	353	50	2.2
2025-10-06T12:00	12450	190	-55.6	-74.4	353	50	2.3
2025-10-06T12:00	12500	188	-55.8	-74.7	352	49	2.4
2025-10-06T12:00	12550	187	-56.1	-74.9	351	49	2.4
2025-10-06T12:00	12600	186	-56.1	-75.2	352	49	2.5
2025-10-06T12:00	12650	184	-56.2	-75.4	352	49	2.5
2025-10-06T12:00	12700	183	-56.2	-75.7	353	48	2.5
2025-10-06T12:00	12750	181	-56.4	-75.9	353	48	2.5
2025-10-06T12:00	12800	180	-56.4	-76.1	353	48	2.5
2025-10-06T12:00	12850	178	-56.6	-76.5	352	48	2.5
2025-10-06T12:00	12900	177	-56.8	-76.7	351	48	2.6
2025-10-06T12:00	12950	176	-56.7	-76.9	351	48	2.7
2025-10-06T12:00	13000	174	-56.3	-77.3	352	47	2.7
2025-10-06T12:00	13050	173	-56.1	-77.5	352	46	2.7
2025-10-06T12:00	13100	172	-56.1	-77.7	352	45	2.7
2025-10-06T12:00	13150	170	-56.4	-78.0	353	44	2.8
2025-10-06T12:00	13200	169	-56.4	-78.1	353	44	2.8
2025-10-06T12:00	13250	168	-56.5	-78.3	354	43	2.8
2025-10-06T12:00	13300	166	-56.4	-78.3	355	42	2.8
2025-10-06T12:00	13350	165	-56.8	-78.4	355	41	2.8
2025-10-06T12:00	13400	164	-57.2	-78.4	355	40	2.8
2025-10-06T12:00	13450	162	-57.6	-78.5	355	39	2.8
2025-10-06T12:00	13500	161	-57.8	-78.5	354	39	2.8
2025-10-06T12:00	13550	160	-57.8	-78.6	354	38	2.6
2025-10-06T12:00	13600	159	-57.7	-78.9	354	37	2.5
2025-10-06T12:00	13650	157	-57.4	-79.0	355	37	2.3
2025-10-06T12:00	13700	156	-57.4	-79.3	355	36	2.1
2025-10-06T12:00	13750	155	-57.8	-79.5	356	36	2.0
2025-10-06T12:00	13800	153	-58.1	-79.5	356	35	2.0
2025-10-06T12:00	13850	152	-58.7	-79.6	356	34	1.9
2025-10-06T12:00	13900	151	-59.0	-79.9	355	33	2.0
2025-10-06T12:00	13950	150	-59.3	-80.4	354	33	2.1
2025-10-06T12:00	14000	149	-59.4	-80.8	353	33	2.1
2025-10-06T12:00	14050	147	-59.1	-81.2	352	33	2.1
2025-10-06T12:00	14100	146	-59.2	-81.4	352	33	2.1
2025-10-06T12:00	14150	145	-59.4	-81.4	352	33	2.0
2025-10-06T12:00	14200	144	-59.7	-81.3	353	34	2.0
2025-10-06T12:00	14250	143	-60.0	-81.3	354	35	2.1
2025-10-06T12:00	14300	142	-60.2	-81.3	355	35	2.1
2025-10-06T12:00	14350	141	-60.6	-81.5	356	34	2.1
2025-10-06T12:00	14400	139	-60.8	-81.6	357	34	2.1
2025-10-06T12:00	14450	138	-61.1	-81.8	358	33	2.1
2025-10-06T12:00	14500	137	-61.4	-81.8	359	32	2.0
2025-10-06T12:00	14550	136	-61.7	-81.9	359	31	2.0
2025-10-06T12:00	14600	135	-61.8	-82.0	359	30	2.0
2025-10-06T12:00	14650	134	-61.8	-81.9	358	29	2.1
2025-10-06T12:00	14700	133	-62.1	-82.1	357	29	2.2
2025-10-06T12:00	14750	132	-62.5	-82.1	356	28	2.2
2025-10-06T12:00	14800	131	-63.2	-82.3	355	28	2.2
2025-10-06T12:00	14850	130	-63.5	-82.4	355	28	2.2
2025-10-06T12:00	14900	129	-63.9	-82.6	355	28	2.2
2025-10-06T12:00	14950	128	-64.1	-82.8	356	28	2.1
2025-10-06T12:00	15000	127	-64.1	-82.9	357	29	2.2
2025-10-06T12:00	15050	126	-64.3	-83.0	358	29	2.2
2025-10-06T12:00	15100	124	-64.7	-83.1	358	28	2.2
2025-10-06T12:00	15150	123	-65.1	-83.3	357	28	2.3
2025-10-06T12:00	15200	122	-65.3	-83.3	356	27	2.3
2025-10-06T12:00	15250	121	-65.4	-83.4	353	27	2.3
2025-10-06T12:00	15300	120	-65.5	-83.5	351	27	2.4
2025-10-06T12:00	15350	119	-65.7	-83.5	351	28	2.5
2025-10-06T12:00	15400	118	-65.7	-83.5	352	28	2.6
2025-10-06T12:00	15450	117	-65.7	-83.5	354	28	2.8
2025-10-06T12:00	15500	117	-65.8	-83.6	357	27	2.9
2025-10-06T12:00	15550	116	-65.7	-83.5	357	26	3.0
2025-10-06T12:00	15600	115	-65.6	-83.5	355	25	3.1
2025-10-06T12:00	15650	114	-65.8	-83.6	352	25	3.1
2025-10-06T12:00	15700	113	-65.9	-83.8	350	25	3.0
2025-10-06T12:00	15750	112	-65.8	-83.9	348	25	2.9
2025-10-06T12:00	15800	111	-65.9	-84.1	347	25	3.0
2025-10-06T12:00	15850	110	-65.8	-84.1	347	26	3.0
2025-10-06T12:00	15900	109	-65.8	-84.3	351	26	3.1
2025-10-06T12:00	15950	108	-65.7	-84.4	355	26	3.2
2025-10-06T12:00	16000	107	-65.3	-84.4	358	25	3.3
2025-10-06T12:00	16050	106	-65.1	-84.5	360	24	3.4
2025-10-06T12:00	16100	106	-65.3	-84.6	360	22	3.6
2025-10-06T12:00	16150	105	-65.5	-84.6	356	21	3.8
2025-10-06T12:00	16200	104	-65.7	-84.7	353	21	3.9
2025-10-06T12:00	16250	103	-65.8	-84.8	354	21	4.0
2025-10-06T12:00	16300	102	-65.5	-84.8	356	21	4.1
2025-10-06T12:00	16350	101	-65.8	-84.9	356	21	4.2
2025-10-06T12:00	16400	100	-66.0	-84.9	354	20	4.3
2025-10-06T12:00	16450	100	-66.3	-85.0	351	20	4.4
2025-10-06T12:00	16500	99	-66.4	-85.1	346	19	4.5
2025-10-06T12:00	16550	98	-66.3	-85.3	342	20	4.6
2025-10-06T12:00	16600	97	-66.0	-85.6	340	20	4.9
2025-10-06T12:00	16650	96	-65.5	-85.7	342	21	5.2
2025-10-06T12:00	16700	96	-64.8	-85.8	342	22	5.6
2025-10-06T12:00	16750	95	-64.2	-85.9	342	22	6.0
2025-10-06T12:00	16800	94	-63.5	-85.8	340	22	6.4
2025-10-06T12:00	16850	93	-63.7	-85.9	340	23	6.9
2025-10-06T12:00	16900	93	-64.0	-86.2	341	23	7.4
2025-10-06T12:00	16950	92	-63.2	-85.9	343	23	7.7
2025-10-06T12:00	17000	91	-63.1	-85.9	346	23	7.8
2025-10-06T12:00	17050	90	-63.0	-85.9	350	22	7.8
2025-10-06T12:00	17100	90	-62.8	-86.1	355	21	7.6
2025-10-06T12:00	17150	89	-61.7	-86.0	358	20	7.5
2025-10-06T12:00	17200	88	-60.8	-85.7	1	19	7.4
2025-10-06T12:00	17250	87	-60.7	-85.6	4	18	7.4
2025-10-06T12:00	17300	87	-60.8	-85.5	7	17	7.2
2025-10-06T12:00	17350	86	-61.1	-85.5	10	15	7.1
2025-10-06T12:00	17400	85	-61.2	-85.7	12	14	6.9
2025-10-06T12:00	17450	85	-60.8	-85.6	12	13	7.0
2025-10-06T12:00	17500	84	-60.7	-85.6	9	13	7.2
2025-10-06T12:00	17550	83	-60.8	-85.6	6	13	7.5
2025-10-06T12:00	17600	83	-60.8	-85.5	3	13	7.6
2025-10-06T12:00	17650	82	-61.2	-85.6	1	14	7.5
2025-10-06T12:00	17700	81	-61.5	-85.9	4	14	7.3
2025-10-06T12:00	17750	81	-60.9	-85.8	9	14	7.3
2025-10-06T12:00	17800	80	-60.6	-86.0	15	14	7.5
2025-10-06T12:00	17850	79	-59.7	-85.8	22	12	7.9
2025-10-06T12:00	17900	79	-59.4	-85.6	33	10	8.4
2025-10-06T12:00	17950	78	-59.6	-85.5	41	8	8.6
2025-10-06T12:00	18000	78	-59.8	-85.5	45	7	8.8
2025-10-06T12:00	18050	77	-60.1	-85.5	49	5	9.0
2025-10-06T12:00	18100	76	-60.4	-85.5	59	3	9.2
2025-10-06T12:00	18150	76	-60.7	-85.6	93	2	9.4
2025-10-06T12:00	18200	75	-61.1	-85.8	121	2	9.6
2025-10-06T12:00	18250	74	-61.6	-85.8	124	2	9.9
2025-10-06T12:00	18300	74	-62.0	-86.0	70	0	10.1
2025-10-06T12:00	18350	73	-62.1	-86.0	354	1	10.2
2025-10-06T12:00	18400	73	-62.5	-86.1	346	1	10.5
2025-10-06T12:00	18450	72	-62.7	-86.2	323	1	10.5
2025-10-06T12:00	18500	72	-63.0	-86.4	309	2	10.7
2025-10-06T12:00	18550	71	-63.2	-86.5	312	3	10.8
2025-10-06T12:00	18600	70	-63.4	-86.6	320	4	10.8
2025-10-06T12:00	18650	70	-63.4	-86.6	329	5	10.9
2025-10-06T12:00	18700	69	-63.6	-86.7	338	6	11.0
2025-10-06T12:00	18750	69	-63.9	-86.7	343	6	10.9
2025-10-06T12:00	18800	68	-64.3	-86.8	342	7	10.9
2025-10-06T12:00	18850	68	-64.7	-86.9	339	8	10.8
2025-10-06T12:00	18900	67	-64.9	-87.2	340	8	10.9
2025-10-06T12:00	18950	66	-64.2	-87.3	341	8	10.9
2025-10-06T12:00	19000	66	-63.3	-87.2	337	8	11.0
2025-10-06T12:00	19050	65	-62.7	-87.0	330	9	11.3
2025-10-06T12:00	19100	65	-62.6	-86.8	322	9	11.5
2025-10-06T12:00	19150	64	-62.5	-86.8	316	10	11.6
2025-10-06T12:00	19200	64	-61.9	-86.6	316	10	11.8
2025-10-06T12:00	19250	63	-62.0	-86.6	319	10	11.9
2025-10-06T12:00	19300	63	-62.1	-86.5	322	10	12.0
2025-10-06T12:00	19350	62	-62.1	-86.7	327	10	12.0
2025-10-06T12:00	19400	62	-61.8	-86.9	336	9	12.1
2025-10-06T12:00	19450	61	-60.2	-86.4	346	9	12.3
2025-10-06T12:00	19500	61	-59.7	-86.3	350	8	12.6
2025-10-06T12:00	19550	60	-59.4	-86.0	351	8	12.8
2025-10-06T12:00	19600	60	-59.3	-85.8	350	8	12.9
2025-10-06T12:00	19650	59	-59.6	-85.8	353	7	12.9
2025-10-06T12:00	19700	59	-59.7	-85.8	360	6	13.0
2025-10-06T12:00	19750	58	-59.7	-85.8	10	4	12.9
2025-10-06T12:00	19800	58	-59.9	-85.8	20	3	12.9
2025-10-06T12:00	19850	57	-60.2	-85.9	15	2	13.0
2025-10-06T12:00	19900	57	-60.6	-86.0	11	3	12.9
2025-10-06T12:00	19950	57	-60.9	-86.1	14	4	12.8
2025-10-06T12:00	20000	56	-61.2	-86.1	16	4	12.6
2025-10-06T12:00	20050	56	-61.6		21	5	12.7
2025-10-06T12:00	20100	55	-61.9		35	5	12.6
2025-10-06T12:00	20150	55	-61.8		54	6	12.5
2025-10-06T12:00	20200	54	-61.6		64	7	12.3
2025-10-06T12:00	20250	54	-61.6		68	9	12.3
2025-10-06T12:00	20300	53	-61.8		72	9	12.4
2025-10-06T12:00	20350	53	-61.7		79	9	12.5
2025-10-06T12:00	20400	53	-61.5		87	8	12.4
2025-10-06T12:00	20450	52	-61.5		96	8	12.4
2025-10-06T12:00	20500	52	-61.8		102	8	12.2
2025-10-06T12:00	20550	51	-62.2		106	7	11.8
2025-10-06T12:00	20600	51	-62.5		108	6	11.8
2025-10-06T12:00	20650	51	-62.7		111	4	11.8
2025-10-06T12:00	20700	50	-62.7		127	1	11.5
2025-10-06T12:00	20750	50	-61.5		270	1	11.2
2025-10-06T12:00	20800	49	-61.1		269	3	11.3
2025-10-06T12:00	20850	49	-61.2		264	4	11.4
2025-10-06T12:00	20900	49	-61.4		264	6	11.4
2025-10-06T12:00	20950	48	-61.5		269	7	11.4
2025-10-06T12:00	21000	48	-61.6		278	7	11.4
2025-10-06T12:00	21050	47	-61.1		286	7	11.5
2025-10-06T12:00	21100	47	-61.0		290	7	11.5
2025-10-06T12:00	21150	47	-60.8		288	7	11.7
2025-10-06T12:00	21200	46	-60.7		285	6	11.6
2025-10-06T12:00	21250	46	-60.7		288	5	11.6
2025-10-06T12:00	21300	46	-60.5		297	5	11.6
2025-10-06T12:00	21350	45	-60.4		307	4	11.7
2025-10-06T12:00	21400	45	-60.6		317	4	11.8
2025-10-06T12:00	21450	44	-60.1		324	3	11.7
2025-10-06T12:00	21500	44	-59.3		316	3	11.7
2025-10-06T12:00	21550	44	-58.6		307	3	11.9
2025-10-06T12:00	21600	43	-58.6		307	3	12.0
2025-10-06T12:00	21650	43	-58.9		300	2	12.0
2025-10-06T12:00	21700	43	-59.2		288	2	12.0
2025-10-06T12:00	21750	42	-59.5		286	3	11.8
2025-10-06T12:00	21800	42	-59.6		295	3	11.8
2025-10-06T12:00	21850	42	-59.5		307	3	11.7
2025-10-06T12:00	21900	41	-59.8		321	4	11.7
2025-10-06T12:00	21950	41	-60.0		331	4	11.7
2025-10-06T12:00	22000	41	-60.3		336	5	11.7
2025-10-06T12:00	22050	40	-60.6		334	7	11.5
2025-10-06T12:00	22100	40	-60.9		331	7	11.5
2025-10-06T12:00	22150	40	-61.2		334	8	11.4
2025-10-06T12:00	22200	39	-61.1		342	7	11.3
2025-10-06T12:00	22250	39	-60.2		351	5	11.4
2025-10-06T12:00	22300	39	-59.9		355	4	11.3
2025-10-06T12:00	22350	38	-59.8		354	2	11.3
2025-10-06T12:00	22400	38	-60.1		346	2	11.3
2025-10-06T12:00	22450	38	-60.4		311	1	11.3
2025-10-06T12:00	22500	38	-60.8		237	1	11.2
2025-10-06T12:00	22550	37	-61.1		190	1	11.1
2025-10-06T12:00	22600	37	-61.3		171	1	11.0
2025-10-06T12:00	22650	37	-61.3		174	2	11.0
2025-10-06T12:00	22700	36	-61.1		202	1	11.0
2025-10-06T12:00	22750	36	-61.2		250	2	10.9
2025-10-06T12:00	22800	36	-61.4		266	3	10.9
2025-10-06T12:00	22850	35	-61.3		278	4	10.9
2025-10-06T12:00	22900	35	-61.1		291	5	10.8
2025-10-06T12:00	22950	35	-61.1		304	5	10.8
2025-10-06T12:00	23000	35	-61.2		315	5	10.8
2025-10-06T12:00	23050	34	-61.3		319	5	10.8
2025-10-06T12:00	23100	34	-60.9		314	4	10.8
2025-10-06T12:00	23150	34	-60.4		297	3	10.8
2025-10-06T12:00	23200	34	-60.4		275	2	10.7
2025-10-06T12:00	23250	33	-60.1		259	2	10.7
2025-10-06T12:00	23300	33	-60.0		248	3	10.6
2025-10-06T12:00	23350	33	-60.1		241	5	10.6
2025-10-06T12:00	23400	32	-60.3		238	6	10.5
2025-10-06T12:00	23450	32	-60.4		238	8	10.5
2025-10-06T12:00	23500	32	-60.4		240	8	10.4
2025-10-06T12:00	23550	32	-60.1		243	8	10.2
2025-10-06T12:00	23600	31	-59.9		248	7	10.2
2025-10-06T12:00	23650	31	-59.6		257	6	10.2
2025-10-06T12:00	23700	31	-58.8		273	4	10.2
2025-10-06T12:00	23750	31	-58.7		295	3	10.3
2025-10-06T12:00	23800	30	-58.7		306	3	10.3
2025-10-06T12:00	23850	30	-58.4		294	3	10.3
2025-10-06T12:00	23900	30	-58.1		281	5	10.3
2025-10-06T12:00	23950	30	-58.3		277	7	10.4
2025-10-06T12:00	24000	30	-58.5		279	8	10.5
2025-10-06T12:00	24050	29	-58.5		288	8	10.4
2025-10-06T12:00	24100	29	-58.1		301	8	10.4
2025-10-06T12:00	24150	29	-57.8		312	8	10.6
2025-10-06T12:00	24200	29	-57.7		314	9	10.6
2025-10-06T12:00	24250	28	-57.4		307	9	10.6
2025-10-06T12:00	24300	28	-57.1		298	9	10.8
2025-10-06T12:00	24350	28	-57.1		291	9	11.0
2025-10-06T12:00	24400	28	-57.3		288	9	11.0
2025-10-06T12:00	24450	27	-57.4		289	8	11.1
2025-10-06T12:00	24500	27	-57.2		291	7	11.2
2025-10-06T12:00	24550	27	-57.0		292	6	11.2
2025-10-06T12:00	24600	27	-57.3		289	4	11.3
2025-10-06T12:00	24650	27	-57.2		270	2	11.2
2025-10-06T12:00	24700	26	-56.9		222	2	11.2
2025-10-06T12:00	24750	26	-56.6		200	3	11.2
2025-10-06T12:00	24800	26	-56.6		198	4	11.2
2025-10-06T12:00	24850	26	-56.4		205	4	11.2
2025-10-06T12:00	24900	26	-56.4		209	4	11.2
2025-10-06T12:00	24950	25	-56.4		207	4	11.2
2025-10-06T12:00	25000	25	-56.3		204	4	11.2
2025-10-06T12:00	25050	25	-56.4		209	5	11.2
2025-10-06T12:00	25100	25	-56.6		219	5	11.2
2025-10-06T12:00	25150	25	-56.7		226	6	11.2
2025-10-06T12:00	25200	24	-56.6		227	6	11.2
2025-10-06T12:00	25250	24	-56.6		229	6	11.2
2025-10-06T12:00	25300	24	-56.6		235	6	11.2
2025-10-06T12:00	25350	24	-56.4		246	7	11.1
2025-10-06T12:00	25400	24	-56.5		256	7	11.1
2025-10-06T12:00	25450	23	-56.5		264	7	11.0
2025-10-06T12:00	25500	23	-56.6		269	7	11.0
2025-10-06T12:00	25550	23	-56.6		269	8	11.1
2025-10-06T12:00	25600	23	-56.7		265	9	11.1
2025-10-06T12:00	25650	23	-56.6		262	9	11.1
2025-10-06T12:00	25700	23	-56.3		263	8	11.2
2025-10-06T12:00	25750	22	-56.4		265	7	11.3
2025-10-06T12:00	25800	22	-56.4		264	8	11.2
2025-10-06T12:00	25850	22	-56.3		263	10	11.1
2025-10-06T12:00	25900	22	-56.0		266	11	11.1
2025-10-06T12:00	25950	22	-55.3		270	10	11.2
2025-10-06T12:00	26000	22	-54.0		274	9	11.3
2025-10-06T12:00	26050	21	-54.0		279	8	11.3
2025-10-06T12:00	26100	21	-54.1		283	7	11.4
2025-10-06T12:00	26150	21	-53.9		283	7	11.3
2025-10-06T12:00	26200	21	-53.4		282	7	11.1
2025-10-06T12:00	26250	21	-53.3		286	7	10.9
2025-10-06T12:00	26300	21	-53.2		290	7	11.0
2025-10-06T12:00	26350	20	-53.0		289	8	11.0
2025-10-06T12:00	26400	20	-53.0		285	9	10.9
2025-10-06T12:00	26450	20	-52.8		281	10	11.0
2025-10-06T12:00	26500	20	-52.7		277	11	11.1
2025-10-06T12:00	26550	20	-52.8		272	12	11.2
2025-10-06T12:00	26600	20	-52.9		266	12	11.4
2025-10-06T12:00	26650	19	-52.9		262	13	11.5
2025-10-06T12:00	26700	19	-53.0		258	14	11.6
2025-10-06T12:00	26750	19	-53.0		257	14	11.8
2025-10-06T12:00	26800	19	-52.7		257	14	11.9
2025-10-06T12:00	26850	19	-52.8		260	13	12.1
2025-10-06T12:00	26900	19	-53.0		263	12	12.1
2025-10-06T12:00	26950	19	-53.2		264	11	12.0
2025-10-06T12:00	27000	18	-53.4		263	10	12.0
2025-10-06T12:00	27050	18	-53.6		258	10	12.0
2025-10-06T12:00	27100	18	-53.7		253	9	12.0
2025-10-06T12:00	27150	18	-54.0		249	9	11.9
2025-10-06T12:00	27200	18	-54.1		246	8	11.9
2025-10-06T12:00	27250	18	-54.1		245	8	11.9
2025-10-06T12:00	27300	18	-53.8		243	9	11.8
2025-10-06T12:00	27350	17	-53.5		242	10	11.8
2025-10-06T12:00	27400	17	-53.7		242	12	11.9
2025-10-06T12:00	27450	17	-53.7		245	13	11.9
2025-10-06T12:00	27500	17	-53.8		249	14	11.9
2025-10-06T12:00	27550	17	-53.6		253	14	11.9
2025-10-06T12:00	27600	17	-53.0		259	15	11.9
2025-10-06T12:00	27650	17	-52.9		263	15	11.9
2025-10-06T12:00	27700	17	-52.9		261	15	11.9
2025-10-06T12:00	27750	16	-52.7		256	15	11.9
2025-10-06T12:00	27800	16	-52.6		248	15	11.9
2025-10-06T12:00	27850	16	-52.3		243	15	11.7
2025-10-06T12:00	27900	16	-52.3		241	15	11.7
2025-10-06T12:00	27950	16	-52.6		241	16	11.7
2025-10-06T12:00	28000	16	-52.8		243	16	11.6
2025-10-06T12:00	28050	16	-52.8		247	17	11.6
2025-10-06T12:00	28100	16	-52.8		251	17	11.5
2025-10-06T12:00	28150	15	-52.9		255	17	11.4
2025-10-06T12:00	28200	15	-53.1		259	17	11.3
2025-10-06T12:00	28250	15	-53.2		262	17	11.3
2025-10-06T12:00	28300	15	-53.3		264	16	11.2
2025-10-06T12:00	28350	15	-53.2		266	17	11.1
2025-10-06T12:00	28400	15	-53.0		267	17	11.0
2025-10-06T12:00	28450	15	-52.8		267	17	11.0
2025-10-06T12:00	28500	15	-52.9		269	18	10.9
2025-10-06T12:00	28550	14	-53.0		270	19	10.9
2025-10-06T12:00	28600	14	-52.9		271	19	10.8
2025-10-06T12:00	28650	14	-52.6		270	19	10.8
2025-10-06T12:00	28700	14	-52.4		269	18	10.6
2025-10-06T12:00	28750	14	-51.9		269	18	10.6
2025-10-06T12:00	28800	14	-51.5		269	18	10.6
2025-10-06T12:00	28850	14	-51.0		267	18	10.5
2025-10-06T12:00	28900	14	-50.6		264	18	10.5
2025-10-06T12:00	28950	14	-50.5		262	19	10.4
2025-10-06T12:00	29000	14	-50.6		262	19	10.4
2025-10-06T12:00	29050	13	-50.8		264	20	10.3
2025-10-06T12:00	29100	13	-50.7		267	21	10.3
2025-10-06T12:00	29150	13	-50.5		269	22	10.2
2025-10-06T12:00	29200	13	-50.3		271	22	10.2
2025-10-06T12:00	29250	13	-49.9		274	22	10.1
2025-10-06T12:00	29300	13	-49.9		277	22	10.0
2025-10-06T12:00	29350	13	-49.6		279	22	10.0
2025-10-06T12:00	29400	13	-49.0		278	21	10.0
2025-10-06T12:00	29450	13	-48.7		275	21	10.0
2025-10-06T12:00	29500	13	-48.8		273	21	10.0
2025-10-06T12:00	29550	12	-48.7		273	21	9.9
2025-10-06T12:00	29600	12	-48.4		274	22	9.8
2025-10-06T12:00	29650	12	-48.2		274	22	9.7
2025-10-06T12:00	29700	12	-48.0		274	22	9.6
2025-10-06T12:00	29750	12	-47.9		277	22	9.5
2025-10-06T12:00	29800	12	-48.0		280	22	9.4
2025-10-06T12:00	29850	12	-48.0		284	21	9.3
2025-10-06T12:00	29900	12	-47.9		287	20	9.3
2025-10-06T12:00	29950	12	-47.5		286	19	9.3
2025-10-06T12:00	30000	12	-47.0		284	17	9.2
2025-10-06T12:00	30050	12	-46.9		283	16	9.1
2025-10-06T12:00	30100	11	-46.9		283	16	9.1
2025-10-06T12:00	30150	11	-46.9		283	16	9.0
2025-10-06T12:00	30200	11	-46.6		280	16	9.0
2025-10-06T12:00	30250	11	-46.5		279	18	8.9
2025-10-06T12:00	30300	11	-46.5		280	19	8.9
2025-10-06T12:00	30350	11	-46.5		282	20	8.8
2025-10-06T12:00	30400	11	-46.3		285	20	8.7
2025-10-06T12:00	30450	11	-46.2		287	19	8.6
2025-10-06T12:00	30500	11	-46.2		289	19	8.5
2025-10-06T12:00	30550	11	-46.2		289	18	8.5
2025-10-06T12:00	30600	11	-46.1		289	18	8.4
2025-10-06T12:00	30650	11	-46.2		290	17	8.3
2025-10-06T12:00	30700	10	-46.2		291	16	8.2
2025-10-06T12:00	30750	10	-46.4		294	16	8.1
2025-10-06T12:00	30800	10	-46.6		296	15	8.1
2025-10-06T12:00	30850	10	-46.8		298	14	8.0
2025-10-06T12:00	30900	10	-47.1		300	13	7.9
2025-10-06T12:00	30950	10	-47.1		301	12	8.0
2025-10-06T12:00	31000	10	-47.0		301	11	7.9
2025-10-06T12:00	31050	10	-47.0		300	11	7.8
2025-10-06T12:00	31100	10	-47.2		299	10	7.8
2025-10-06T12:00	31150	10	-47.5		298	10	7.7
2025-10-06T12:00	31200	10	-47.8		295	10	7.7
2025-10-06T12:00	31250	10	-48.0		290	10	7.6
2025-10-06T12:00	31300	10	-48.1		285	11	7.5
2025-10-06T12:00	31350	9	-48.2		281	12	7.5
2025-10-06T12:00	31400	9	-48.4		279	13	7.4
2025-10-06T12:00	31450	9	-48.5		278	14	7.4
2025-10-06T12:00	31500	9	-48.1		279	15	7.3
2025-10-06T12:00	31550	9	-47.9		281	16	7.3
2025-10-06T12:00	31600	9	-48.0		281	17	7.2
2025-10-06T12:00	31650	9	-48.2		281	18	7.1
2025-10-06T12:00	31700	9	-48.3		281	19	7.1
2025-10-06T12:00	31750	9	-48.4		282	20	7.1
2025-10-06T12:00	31800	9	-48.4		285	20	7.0
2025-10-06T12:00	31850	9	-48.5		288	19	6.9
2025-10-06T12:00	31900	9	-48.7		291	19	6.9
2025-10-06T12:00	31950	9	-48.6		293	19	6.9
2025-10-06T12:00	32000	9	-48.2		294	17	6.8
2025-10-06T12:00	32050	9	-47.9		295	16	6.7
2025-10-06T12:00	32100	8	-47.7		301	16	6.7
2025-10-06T12:00	32150	8	-46.9		307	16	6.6
2025-10-06T12:00	32200	8	-46.5		311	16	6.5
2025-10-06T12:00	32250	8	-46.0		310	14	6.5
2025-10-06T12:00	32300	8	-45.3		302	12	6.5
2025-10-06T12:00	32350	8	-45.0		290	11	6.4
2025-10-06T12:00	32400	8	-45.1		277	10	6.4
2025-10-06T12:00	32450	8	-45.0		264	10	6.3
2025-10-06T12:00	32500	8	-45.1		256	11	6.3
2025-10-06T12:00	32550	8	-45.1		251	12	6.2
2025-10-06T12:00	32600	8	-45.1		249	13	6.2
2025-10-06T12:00	32650	8	-45.2		249	13	6.1
2025-10-06T12:00	32700	8	-45.3		252	14	6.1
2025-10-06T12:00	32750	8	-45.6		255	15	6.0
2025-10-06T12:00	32800	8	-45.8		259	15	5.9
2025-10-06T12:00	32850	8	-46.0		264	16	5.8
2025-10-06T12:00	32900	7	-45.8		269	17	5.8
2025-10-06T12:00	32950	7	-45.6		275	17	5.7
2025-10-06T12:00	33000	7	-45.4		279	18	5.7
2025-10-06T12:00	33050	7	-45.2		281	17	5.6
2025-10-06T12:00	33100	7	-44.7		280	17	5.6
2025-10-06T12:00	33150	7	-44.6		277	17	5.6
2025-10-06T12:00	33200	7	-44.4		272	17	5.5
2025-10-06T12:00	33250	7	-44.0		267	18	5.5
2025-10-06T12:00	33300	7	-43.6		264	19	5.5
2025-10-06T12:00	33350	7	-43.2		265	19	5.4
2025-10-06T12:00	33400	7	-42.9		269	19	5.3
2025-10-06T12:00	33450	7	-42.9		275	19	5.3
2025-10-06T12:00	33500	7	-42.9		281	20	5.3
2025-10-06T12:00	33550	7	-42.9		286	21	5.2
2025-10-06T12:00	33600	7	-43.0		291	22	5.1
2025-10-06T12:00	33650	7	-42.9		294	22	5.1
2025-10-06T12:00	33700	7	-42.6		296	22	5.1
2025-10-06T12:00	33750	7	-42.5		296	21	5.0
2025-10-06T12:00	33800	7	-42.5		295	20	5.0
2025-10-06T12:00	33850	6	-42.3		294	19	4.9
2025-10-06T12:00	33900	6	-42.2		291	18	4.9
2025-10-06T12:00	33950	6	-41.9		289	18	4.9
2025-10-06T12:00	34000	6	-41.5		287	17	4.9
2025-10-06T12:00	34050	6	-41.4		285	16	4.9
2025-10-06T12:00	34100	6	-41.3		281	15	4.8
2025-10-06T12:00	34150	6	-41.2		276	14	4.8
2025-10-06T12:00	34200	6	-41.1		275	14	4.8
2025-10-06T12:00	34250	6	-40.8		279	14	4.7
2025-10-06T12:00	34300	6	-40.4		286	14	4.7
2025-10-06T12:00	34350	6	-39.8		290	14	4.7
2025-10-06T12:00	34400	6	-39.5		293	13	4.7
2025-10-06T12:00	34450	6	-39.0		297	12	4.7
2025-10-06T12:00	34500	6	-38.3		301	13	4.6
2025-10-06T12:00	34550	6	-37.8		305	15	4.6
2025-10-06T12:00	34600	6	-37.9		308	17	4.6
2025-10-06T12:00	34650	6	-38.0		312	18	4.6
2025-10-06T12:00	34700	6	-38.1		314	19	4.5
2025-10-06T12:00	34750	6	-38.1		317	19	4.5
2025-10-06T12:00	34800	6	-37.7		318	18	4.4
2025-10-06T12:00	34850	6	-36.9		316	16	4.4
2025-10-06T12:00	34900	6	-36.5		312	15	4.3
2025-10-06T12:00	34950	6	-36.6		305	13	4.2
2025-10-06T12:00	35000	5	-36.7		295	12	4.2
2025-10-06T12:00	35050	5	-36.8		286	11	4.1
2025-10-06T12:00	35100	5	-37.0		278	11	4.1
2025-10-06T12:00	35150	5	-37.2		267	11	4.0
2025-10-06T12:00	35200	5	-37.3		259	11	4.0
2025-10-06T12:00	35250	5	-37.1		252	12	3.9
2025-10-06T12:00	35300	5	-37.1		248	13	3.9
2025-10-06T12:00	35350	5	-37.0		244	14	3.9
2025-10-06T12:00	35400	5	-36.8		240	14	3.8
2025-10-06T12:00	35450	5	-36.3		240	14	3.8
2025-10-06T12:00	35500	5	-36.3		243	14	3.7
2025-10-06T12:00	35550	5	-36.5		249	14	3.7
2025-10-06T12:00	35600	5	-36.4		255	15	3.6
2025-10-06T12:00	35650	5	-36.4		259	15	3.6
2025-10-06T12:00	35700	5	-36.4		264	15	3.6
2025-10-06T12:00	35750	5	-36.4		270	15	3.6
2025-10-06T12:00	35800	5	-36.5		275	15	3.5
2025-10-06T12:00	35850	5	-36.4		283	14	3.5
2025-10-06T12:00	35900	5	-36.2		292	14	3.5
2025-10-06T12:00	35950	5	-35.7		299	13	3.4
2025-10-06T12:00	36000	5	-35.1		302	13	3.4
2025-10-06T12:00	36050	5	-34.7		300	13	3.4
2025-10-07T00:00	491	969	9.0	8.2	200	0	
2025-10-07T00:00	501	967	8.9	7.9	41	1	
2025-10-07T00:00	520	966	8.9	7.8	40	1	
2025-10-07T00:00	540	964	9.0	6.9	42	2	
2025-10-07T00:00	560	961	9.5	6.4	44	2	
2025-10-07T00:00	580	959	10.0	6.2	44	2	
2025-10-07T00:00	600	956	10.1	6.0	43	3	
2025-10-07T00:00	620	954	10.1	5.8	41	3	
2025-10-07T00:00	640	952	10.1	5.4	39	3	
2025-10-07T00:00	660	950	10.4	5.1	37	4	
2025-10-07T00:00	680	948	10.3	5.0	37	4	
2025-10-07T00:00	700	945	10.2	4.8	37	4	
2025-10-07T00:00	720	943	10.1	4.6	38	5	
2025-10-07T00:00	740	941	10.0	4.4	40	5	
2025-10-07T00:00	760	939	9.9	4.4	42	5	
2025-10-07T00:00	780	936	10.0	4.1	46	5	
2025-10-07T00:00	800	934	9.9	4.0	51	5	
2025-10-07T00:00	820	932	9.8	3.9	55	5	
2025-10-07T00:00	840	929	9.6	3.8	58	5	
2025-10-07T00:00	860	927	9.5	3.8	59	5	
2025-10-07T00:00	880	925	9.4	3.8	59	5	
2025-10-07T00:00	900	923	9.2	3.7	58	6	
2025-10-07T00:00	920	921	9.0	3.7	56	6	
2025-10-07T00:00	940	918	8.9	3.7	54	6	
2025-10-07T00:00	960	916	8.7	3.6	53	6	
2025-10-07T00:00	980	914	8.5	3.6	51	6	
2025-10-07T00:00	1000	912	8.3	3.6	48	6	
2025-10-07T00:00	1020	909	8.1	3.5	46	5	
2025-10-07T00:00	1040	907	8.0	3.5	44	5	
2025-10-07T00:00	1060	905	7.8	3.6	43	5	
2025-10-07T00:00	1080	903	7.6	3.5	42	5	
2025-10-07T00:00	1100	901	7.6	3.3	42	5	
2025-10-07T00:00	1120	898	7.5	3.0	43	4	
2025-10-07T00:00	1140	896	7.5	2.5	46	4	
2025-10-07T00:00	1160	894	7.5	2.2	51	4	
2025-10-07T00:00	1180	892	7.4	2.2	56	4	
2025-10-07T00:00	1200	890	7.2	2.1	60	4	
2025-10-07T00:00	1220	888	7.1	2.1	63	4	
2025-10-07T00:00	1240	885	7.0	2.0	66	4	
2025-10-07T00:00	1260	883	6.9	1.5	67	5	
2025-10-07T00:00	1280	881	6.7	1.5	66	5	
2025-10-07T00:00	1300	879	6.6	1.7	63	5	
2025-10-07T00:00	1320	877	6.4	1.4	59	5	
2025-10-07T00:00	1340	875	6.3	1.0	54	5	
2025-10-07T00:00	1360	873	6.2	1.2	49	5	
2025-10-07T00:00	1380	870	6.1	1.1	42	5	
2025-10-07T00:00	1400	868	6.1	0.7	34	5	
2025-10-07T00:00	1420	866	6.5	-0.4	26	5	
2025-10-07T00:00	1440	864	7.0	-0.7	20	5	
2025-10-07T00:00	1460	862	7.7	0.6	15	5	
2025-10-07T00:00	1480	860	8.1	0.2	12	4	
2025-10-07T00:00	1500	858	8.3	0.3	11	4	
2025-10-07T00:00	1520	856	8.3	0.7	12	3	
2025-10-07T00:00	1540	854	8.1	1.1	17	3	
2025-10-07T00:00	1560	852	8.0	2.0	23	3	
2025-10-07T00:00	1580	850	7.9	2.2	29	3	
2025-10-07T00:00	1600	848	7.7	2.2	32	3	
2025-10-07T00:00	1620	846	7.5	2.3	34	3	
2025-10-07T00:00	1640	844	7.4	2.9	35	4	
2025-10-07T00:00	1660	842	7.2	2.9	34	4	
2025-10-07T00:00	1680	839	7.0	3.1	33	4	
2025-10-07T00:00	1700	837	6.8	3.1	31	4	
2025-10-07T00:00	1720	835	6.7	3.1	29	4	
2025-10-07T00:00	1740	833	6.6	3.2	28	4	
2025-10-07T00:00	1760	831	6.4	3.2	26	4	
2025-10-07T00:00	1780	829	6.3	3.2	25	4	
2025-10-07T00:00	1800	827	6.1	3.2	24	4	
2025-10-07T00:00	1820	825	6.0	3.1	24	4	
2025-10-07T00:00	1840	823	5.9	3.0	23	4	
2025-10-07T00:00	1860	821	5.7	2.9	23	4	
2025-10-07T00:00	1880	819	5.6	2.8	22	4	
2025-10-07T00:00	1900	817	5.5	2.8	22	4	
2025-10-07T00:00	1920	815	5.3	2.6	22	4	
2025-10-07T00:00	1940	813	5.2	2.5	23	4	
2025-10-07T00:00	1960	811	5.1	2.4	26	4	
2025-10-07T00:00	1980	809	4.9	2.4	28	4	
2025-10-07T00:00	2000	807	4.8	2.4	30	4	
2025-10-07T00:00	2020	805	4.6	2.3	31	4	
2025-10-07T00:00	2040	803	4.5	2.3	33	4	
2025-10-07T00:00	2060	801	4.4	2.2	34	4	
2025-10-07T00:00	2080	799	4.3	2.1	35	4	
2025-10-07T00:00	2100	797	4.2	2.0	39	4	
2025-10-07T00:00	2120	796	4.1	2.0	44	4	
2025-10-07T00:00	2140	794	4.0	1.9	51	4	
2025-10-07T00:00	2160	792	3.9	1.8	56	4	
2025-10-07T00:00	2180	790	3.7	1.7	59	4	
2025-10-07T00:00	2200	788	3.6	1.6	59	4	
2025-10-07T00:00	2220	786	3.4	1.6	58	5	
2025-10-07T00:00	2240	784	3.3	1.7	53	5	
2025-10-07T00:00	2260	782	3.2	1.6	47	5	
2025-10-07T00:00	2280	780	3.2	1.6	39	5	
2025-10-07T00:00	2300	778	3.0	1.5	29	5	
2025-10-07T00:00	2320	776	2.9	1.5	19	5	
2025-10-07T00:00	2340	774	2.8	1.5	13	5	
2025-10-07T00:00	2360	772	2.7	1.6	10	5	
2025-10-07T00:00	2380	770	2.5	1.6	9	5	
2025-10-07T00:00	2400	768	2.4	1.7	9	6	
2025-10-07T00:00	2420	767	2.3	1.7	10	6	
2025-10-07T00:00	2440	765	2.3	1.7	10	7	
2025-10-07T00:00	2460	763	2.2	1.9	11	7	
2025-10-07T00:00	2480	761	2.2	2.1	11	8	
2025-10-07T00:00	2500	759	2.1	2.1	11	9	
2025-10-07T00:00	2520	757	2.1	2.1	12	10	
2025-10-07T00:00	2540	755	2.3	2.3	12	10	
2025-10-07T00:00	2560	754	2.2	2.2	12	11	
2025-10-07T00:00	2580	752	2.2	2.1	12	11	
2025-10-07T00:00	2600	750	2.4	2.2	13	11	
2025-10-07T00:00	2620	748	2.5	2.3	13	11	
2025-10-07T00:00	2640	746	2.4	2.1	13	11	
2025-10-07T00:00	2660	744	2.4	1.8	13	10	
2025-10-07T00:00	2680	743	2.3	1.6	13	10	
2025-10-07T00:00	2700	741	2.2	1.6	13	10	
2025-10-07T00:00	2720	739	2.0	1.5	12	9	
2025-10-07T00:00	2740	737	1.9	1.4	11	9	
2025-10-07T00:00	2760	735	1.7	1.3	9	8	
2025-10-07T00:00	2780	733	1.6	1.4	8	8	
2025-10-07T00:00	2800	731	1.4	1.1	6	8	
2025-10-07T00:00	2820	730	1.2	1.1	6	8	
2025-10-07T00:00	2840	728	1.1	1.0	7	8	
2025-10-07T00:00	2860	726	0.9	0.9	10	9	
2025-10-07T00:00	2880	724	0.7	0.7	12	10	
2025-10-07T00:00	2900	723	0.6	0.6	15	10	
2025-10-07T00:00	2920	721	0.5	0.5	17	11	
2025-10-07T00:00	2940	719	0.3	0.3	18	11	
2025-10-07T00:00	2960	717	0.2	0.2	20	12	
2025-10-07T00:00	2980	715	0.0	0.0	21	13	
2025-10-07T00:00	3000	713	-0.1	-0.1	22	13	
2025-10-07T00:00	3020	712	-0.2	-0.2	22	13	
2025-10-07T00:00	3040	710	-0.3	-0.3	23	12	
2025-10-07T00:00	3060	708	-0.4	-0.4	23	12	
2025-10-07T00:00	3080	706	-0.5	-0.5	23	12	
2025-10-07T00:00	3100	705	-0.6	-0.7	22	11	
2025-10-07T00:00	3120	703	-0.6	-0.9	21	11	
2025-10-07T00:00	3140	701	-0.6	-0.9	20	11	
2025-10-07T00:00	3160	699	-0.6	-1.2	19	11	
2025-10-07T00:00	3180	698	-0.2	-1.4	18	12	
2025-10-07T00:00	3200	696	0.0	-1.6	17	12	
2025-10-07T00:00	3220	694	0.2	-1.7	16	13	
2025-10-07T00:00	3240	692	0.0	-1.8	15	14	
2025-10-07T00:00	3260	691	0.1	-2.0	14	14	
2025-10-07T00:00	3280	689	0.3	-2.1	13	15	
2025-10-07T00:00	3300	687	0.4	-2.1	13	15	
2025-10-07T00:00	3320	686	0.4	-2.0	12	15	
2025-10-07T00:00	3340	684	0.3	-2.0	11	15	
2025-10-07T00:00	3360	682	0.2	-2.2	11	15	
2025-10-07T00:00	3380	680	0.1	-2.2	11	15	
2025-10-07T00:00	3400	679	0.0	-2.3	11	15	
2025-10-07T00:00	3420	677	-0.1	-2.2	12	15	
2025-10-07T00:00	3440	675	-0.2	-2.2	12	15	
2025-10-07T00:00	3460	674	-0.3	-2.3	12	15	
2025-10-07T00:00	3480	672	-0.3	-2.2	11	15	
2025-10-07T00:00	3500	670	-0.4	-2.1	11	15	
2025-10-07T00:00	3520	669	0.1	-2.8	11	15	
2025-10-07T00:00	3540	667	0.7	-3.7	12	16	
2025-10-07T00:00	3560	665	0.7	-3.5	13	16	
2025-10-07T00:00	3580	664	0.6	-3.6	14	17	
2025-10-07T00:00	3600	662	0.7	-4.5	14	17	
2025-10-07T00:00	3620	660	0.8	-5.9	14	17	
2025-10-07T00:00	3640	659	0.8	-6.2	14	17	
2025-10-07T00:00	3660	657	0.8	-6.5	14	17	
2025-10-07T00:00	3680	655	0.7	-6.6	13	17	
2025-10-07T00:00	3700	654	0.6	-6.7	12	16	
2025-10-07T00:00	3720	652	0.4	-6.6	11	16	
2025-10-07T00:00	3740	650	0.3	-6.7	11	16	
2025-10-07T00:00	3760	649	0.3	-7.0	10	15	
2025-10-07T00:00	3780	647	0.1	-6.8	9	16	
2025-10-07T00:00	3800	646	0.0	-6.8	8	16	
2025-10-07T00:00	3820	644	-0.1	-6.9	7	17	
2025-10-07T00:00	3840	643	-0.3	-6.9	6	17	
2025-10-07T00:00	3860	641	-0.5	-6.9	5	18	
2025-10-07T00:00	3880	639	-0.6	-6.9	3	18	
2025-10-07T00:00	3900	638	-0.8	-6.9	2	18	
2025-10-07T00:00	3920	636	-0.9	-7.1	0	18	
2025-10-07T00:00	3940	635	-1.1	-7.3	359	18	
2025-10-07T00:00	3960	633	-1.2	-7.6	357	18	
2025-10-07T00:00	3980	631	-1.1	-7.9	356	18	
2025-10-07T00:00	4000	630	-1.1	-8.2	355	18	
2025-10-07T00:00	4020	628	-1.1	-8.3	355	18	
2025-10-07T00:00	4040	627	-1.2	-8.3	355	18	
2025-10-07T00:00	4060	625	-1.2	-8.6	355	17	
2025-10-07T00:00	4080	624	-1.3	-8.9	356	17	
2025-10-07T00:00	4100	622	-1.4	-9.3	356	17	
2025-10-07T00:00	4120	620	-1.6	-9.3	356	17	
2025-10-07T00:00	4140	619	-1.8	-9.4	355	17	
2025-10-07T00:00	4160	617	-2.0	-9.5	354	17	
2025-10-07T00:00	4180	616	-2.1	-9.8	354	17	
2025-10-07T00:00	4200	614	-2.2	-9.9	353	17	
2025-10-07T00:00	4220	613	-2.3	-9.9	353	17	
2025-10-07T00:00	4240	611	-2.5	-9.9	353	18	
2025-10-07T00:00	4260	610	-2.6	-9.9	354	18	
2025-10-07T00:00	4280	608	-2.8	-10.0	356	19	
2025-10-07T00:00	4300	606	-2.9	-10.1	357	19	
2025-10-07T00:00	4320	605	-3.0	-10.3	358	19	
2025-10-07T00:00	4340	603	-3.0	-10.7	359	19	
2025-10-07T00:00	4360	602	-3.1	-10.7	360	19	
2025-10-07T00:00	4380	600	-3.2	-10.8	1	19	
2025-10-07T00:00	4400	599	-3.3	-10.7	1	19	
2025-10-07T00:00	4420	597	-3.5	-10.8	2	19	
2025-10-07T00:00	4440	596	-3.7	-10.9	3	19	
2025-10-07T00:00	4460	594	-3.9	-10.9	4	19	
2025-10-07T00:00	4480	593	-4.0	-11.0	5	20	
2025-10-07T00:00	4500	591	-4.1	-11.1	5	20	
2025-10-07T00:00	4520	590	-4.2	-11.2	4	21	
2025-10-07T00:00	4540	588	-4.2	-11.2	4	21	
2025-10-07T00:00	4560	587	-4.3	-11.0	3	21	
2025-10-07T00:00	4580	585	-4.5	-11.1	2	21	
2025-10-07T00:00	4600	584	-4.6	-11.1	1	21	
2025-10-07T00:00	4620	582	-4.7	-11.6	1	21	
2025-10-07T00:00	4640	581	-4.9	-11.7	360	21	
2025-10-07T00:00	4660	579	-4.9	-12.3	359	21	
2025-10-07T00:00	4680	578	-5.0	-12.6	359	21	
2025-10-07T00:00	4700	577	-5.1	-13.2	358	21	
2025-10-07T00:00	4720	575	-5.1	-14.5	358	21	
2025-10-07T00:00	4740	573	-5.1	-15.7	359	21	
2025-10-07T00:00	4760	572	-5.2	-16.8	360	22	
2025-10-07T00:00	4780	571	-5.3	-17.8	0	22	
2025-10-07T00:00	4800	569	-5.4	-18.6	1	22	
2025-10-07T00:00	4820	568	-5.5	-20.0	2	22	
2025-10-07T00:00	4840	566	-5.6	-20.9	4	22	
2025-10-07T00:00	4860	565	-5.7	-21.1	5	21	
2025-10-07T00:00	4880	563	-5.9	-21.0	6	21	
2025-10-07T00:00	4900	562	-6.0	-20.9	5	22	
2025-10-07T00:00	4920	561	-6.1	-21.8	4	22	
2025-10-07T00:00	4940	559	-6.1	-22.3	3	22	
2025-10-07T00:00	4960	558	-6.2	-22.4	1	22	
2025-10-07T00:00	4980	556	-6.3	-21.9	360	22	
2025-10-07T00:00	5000	555	-6.5	-21.4	359	22	
2025-10-07T00:00	5020	553	-6.6	-21.8	358	22	
2025-10-07T00:00	5040	552	-6.7	-21.8	358	21	
2025-10-07T00:00	5060	551	-6.8	-22.3	357	22	
2025-10-07T00:00	5080	549	-6.9	-22.4	358	22	
2025-10-07T00:00	5100	548	-6.9	-26.3	358	22	
2025-10-07T00:00	5120	546	-6.8	-33.3	358	22	
2025-10-07T00:00	5140	545	-6.9	-33.4	358	22	
2025-10-07T00:00	5160	544	-7.0	-33.5	359	22	
2025-10-07T00:00	5180	542	-7.1	-33.3	359	22	
2025-10-07T00:00	5200	541	-7.2	-33.3	359	22	
2025-10-07T00:00	5220	539	-7.4	-33.2	359	22	
2025-10-07T00:00	5240	538	-7.5	-33.2	359	22	
2025-10-07T00:00	5260	537	-7.7	-33.2	358	22	
2025-10-07T00:00	5280	535	-7.8	-33.2	358	21	
2025-10-07T00:00	5300	534	-7.9	-33.3	357	21	
2025-10-07T00:00	5320	533	-8.1	-33.4	356	21	
2025-10-07T00:00	5340	531	-8.2	-33.5	356	22	
2025-10-07T00:00	5360	530	-8.4	-33.7	355	22	
2025-10-07T00:00	5380	528	-8.5	-34.0	355	22	
2025-10-07T00:00	5400	527	-8.7	-33.9	355	23	
2025-10-07T00:00	5420	526	-8.8	-33.5	355	23	
2025-10-07T00:00	5440	524	-9.0	-33.3	355	24	
2025-10-07T00:00	5460	523	-9.1	-33.2	355	24	
2025-10-07T00:00	5480	522	-9.1	-33.3	355	24	
2025-10-07T00:00	5500	520	-9.1	-33.4	354	24	
2025-10-07T00:00	5520	519	-9.1	-33.4	354	24	
2025-10-07T00:00	5540	518	-9.2	-33.7	354	24	
2025-10-07T00:00	5560	516	-9.3	-33.8	353	25	
2025-10-07T00:00	5580	515	-9.4	-32.2	352	25	
2025-10-07T00:00	5600	513	-9.5	-31.7	351	25	
2025-10-07T00:00	5620	512	-9.7	-32.1	351	25	
2025-10-07T00:00	5640	511	-9.8	-31.7	351	25	
2025-10-07T00:00	5660	510	-10.0	-29.7	351	26	
2025-10-07T00:00	5680	508	-10.1	-28.9	351	25	
2025-10-07T00:00	5700	507	-10.1	-30.5	352	25	
2025-10-07T00:00	5720	506	-10.2	-31.5	353	24	
2025-10-07T00:00	5740	504	-10.3	-32.0	353	24	
2025-10-07T00:00	5760	503	-10.4	-32.1	354	24	
2025-10-07T00:00	5780	502	-10.6	-31.8	354	23	
2025-10-07T00:00	5800	500	-10.8	-31.3	354	23	
2025-10-07T00:00	5820	499	-11.0	-30.3	354	23	
2025-10-07T00:00	5840	498	-11.2	-30.7	354	23	
2025-10-07T00:00	5860	497	-11.3	-31.9	354	23	
2025-10-07T00:00	5880	495	-11.5	-31.4	355	23	
2025-10-07T00:00	5900	494	-11.7	-31.0	356	23	
2025-10-07T00:00	5920	493	-11.8	-33.0	356	23	
2025-10-07T00:00	5940	491	-11.9	-37.2	357	24	
2025-10-07T00:00	5960	490	-12.0	-38.7	358	24	
2025-10-07T00:00	5980	489	-12.2	-38.7	358	24	
2025-10-07T00:00	6000	488	-12.3	-38.3	358	24	
2025-10-07T00:00	6020	486	-12.5	-38.4	358	24	
2025-10-07T00:00	6040	485	-12.6	-38.6	358	24	
2025-10-07T00:00	6060	484	-12.8	-38.6	357	24	
2025-10-07T00:00	6080	482	-13.0	-38.7	357	24	
2025-10-07T00:00	6100	481	-13.1	-38.4	357	24	
2025-10-07T00:00	6120	480	-13.3	-38.4	357	24	
2025-10-07T00:00	6140	479	-13.4	-38.3	357	24	
2025-10-07T00:00	6160	477	-13.6	-38.2	358	24	
2025-10-07T00:00	6180	476	-13.7	-38.1	359	24	
2025-10-07T00:00	6200	475	-13.9	-37.6	359	24	
2025-10-07T00:00	6220	474	-14.1	-35.8	0	25	
2025-10-07T00:00	6240	472	-14.3	-36.3	0	25	
2025-10-07T00:00	6260	471	-14.5	-37.1	1	25	
2025-10-07T00:00	6280	470	-14.6	-37.4	1	25	
2025-10-07T00:00	6300	469	-14.8	-37.7	1	25	
2025-10-07T00:00	6320	467	-15.0	-35.1	0	25	
2025-10-07T00:00	6340	466	-15.1	-34.1	360	25	
2025-10-07T00:00	6360	465	-15.2	-33.3	360	25	
2025-10-07T00:00	6380	464	-15.4	-33.1	359	25	
2025-10-07T00:00	6400	462	-15.5	-33.5	359	25	
2025-10-07T00:00	6420	461	-15.7	-33.7	358	25	
2025-10-07T00:00	6440	460	-15.9	-33.9	358	24	
2025-10-07T00:00	6460	459	-16.1	-34.1	358	24	
2025-10-07T00:00	6480	458	-16.3	-34.2	359	25	
2025-10-07T00:00	6500	457	-16.4	-34.4	359	25	
2025-10-07T00:00	6520	455	-16.6	-34.5	360	25	
2025-10-07T00:00	6540	454	-16.8	-34.7	360	25	
2025-10-07T00:00	6560	453	-17.0	-34.8	1	26	
2025-10-07T00:00	6580	452	-17.2	-35.0	1	26	
2025-10-07T00:00	6600	450	-17.3	-35.2	1	27	
2025-10-07T00:00	6620	449	-17.4	-35.6	2	27	
2025-10-07T00:00	6640	448	-17.5	-36.2	2	27	
2025-10-07T00:00	6660	447	-17.6	-36.4	3	27	
2025-10-07T00:00	6680	446	-17.7	-36.4	3	27	
2025-10-07T00:00	6700	445	-17.7	-36.8	4	28	
2025-10-07T00:00	6720	443	-17.8	-37.4	4	28	
2025-10-07T00:00	6740	442	-17.8	-37.3	5	28	
2025-10-07T00:00	6760	441	-17.9	-37.4	5	28	
2025-10-07T00:00	6780	440	-18.0	-37.6	6	28	
2025-10-07T00:00	6800	439	-18.1	-37.8	6	28	
2025-10-07T00:00	6820	437	-18.3	-38.0	6	28	
2025-10-07T00:00	6840	436	-18.5	-38.1	5	28	
2025-10-07T00:00	6860	435	-18.6	-38.2	5	28	
2025-10-07T00:00	6880	434	-18.7	-38.2	4	28	
2025-10-07T00:00	6900	433	-18.9	-37.6	3	28	
2025-10-07T00:00	6920	431	-19.1	-37.0	2	28	
2025-10-07T00:00	6940	430	-19.3	-37.0	2	29	
2025-10-07T00:00	6960	429	-19.4	-36.9	2	29	
2025-10-07T00:00	6980	428	-19.6	-36.7	2	29	
2025-10-07T00:00	7000	427	-19.8	-36.1	2	29	
2025-10-07T00:00	7020	426	-20.0	-35.7	2	28	
2025-10-07T00:00	7040	425	-20.2	-35.4	3	28	
2025-10-07T00:00	7060	423	-20.4	-35.5	3	28	
2025-10-07T00:00	7080	422	-20.6	-35.5	3	28	
2025-10-07T00:00	7100	421	-20.8	-35.3	3	28	
2025-10-07T00:00	7120	420	-21.0	-35.2	3	28	
2025-10-07T00:00	7140	419	-21.2	-35.2	3	28	
2025-10-07T00:00	7160	418	-21.3	-35.1	2	27	
2025-10-07T00:00	7180	417	-21.6	-35.2	2	27	
2025-10-07T00:00	7200	416	-21.7	-35.3	2	27	
2025-10-07T00:00	7220	414	-21.9	-35.2	1	27	
2025-10-07T00:00	7240	413	-22.1	-35.0	1	27	
2025-10-07T00:00	7260	412	-22.3	-35.1	0	27	
2025-10-07T00:00	7280	411	-22.5	-35.2	360	27	
2025-10-07T00:00	7300	410	-22.7	-35.2	360	27	
2025-10-07T00:00	7320	409	-22.9	-35.0	359	27	
2025-10-07T00:00	7340	408	-23.1	-35.0	359	27	
2025-10-07T00:00	7360	406	-23.3	-35.1	359	28	
2025-10-07T00:00	7380	405	-23.5	-35.1	359	28	
2025-10-07T00:00	7400	404	-23.6	-35.1	359	28	
2025-10-07T00:00	7420	403	-23.8	-35.1	359	28	
2025-10-07T00:00	7440	402	-24.0	-35.1	359	28	
2025-10-07T00:00	7460	401	-24.2	-35.2	358	28	
2025-10-07T00:00	7480	400	-24.4	-35.3	357	28	
2025-10-07T00:00	7500	399	-24.6	-35.3	355	28	
2025-10-07T00:00	7520	398	-24.7	-35.3	355	28	
2025-10-07T00:00	7540	397	-24.9	-35.3	354	29	
2025-10-07T00:00	7560	396	-25.1	-35.5	353	29	
2025-10-07T00:00	7580	394	-25.2	-35.6	353	29	
2025-10-07T00:00	7600	393	-25.4	-35.5	353	29	
2025-10-07T00:00	7620	392	-25.6	-35.3	354	29	
2025-10-07T00:00	7640	391	-25.8	-35.2	354	29	
2025-10-07T00:00	7660	390	-26.0	-35.3	354	29	
2025-10-07T00:00	7680	389	-26.2	-35.4	355	29	
2025-10-07T00:00	7700	388	-26.4	-35.3	355	29	
2025-10-07T00:00	7720	387	-26.6	-35.1	354	29	
2025-10-07T00:00	7740	386	-26.8	-35.2	354	29	
2025-10-07T00:00	7760	385	-27.0	-35.3	354	29	
2025-10-07T00:00	7780	384	-26.9	-36.7	353	29	
2025-10-07T00:00	7800	383	-26.9	-37.3	353	30	
2025-10-07T00:00	7820	381	-27.0	-37.0	352	30	
2025-10-07T00:00	7840	380	-27.1	-37.5	352	30	
2025-10-07T00:00	7860	379	-27.0	-38.8	351	30	
2025-10-07T00:00	7880	378	-26.9	-40.4	351	30	
2025-10-07T00:00	7900	377	-26.8	-41.8	351	30	
2025-10-07T00:00	7920	376	-26.6	-42.2	350	31	
2025-10-07T00:00	7940	375	-26.5	-41.7	350	31	
2025-10-07T00:00	7960	374	-26.5	-42.1	350	30	
2025-10-07T00:00	7980	373	-26.6	-42.5	350	30	
2025-10-07T00:00	8000	372	-26.7	-43.6	350	30	
2025-10-07T00:00	8020	371	-26.8	-44.9	351	30	
2025-10-07T00:00	8040	370	-26.8	-46.6	351	29	
2025-10-07T00:00	8060	369	-26.9	-48.6	351	29	
2025-10-07T00:00	8080	368	-27.0	-51.7	351	29	
2025-10-07T00:00	8100	367	-27.0	-53.1	351	30	
2025-10-07T00:00	8120	366	-27.0	-53.5	352	30	
2025-10-07T00:00	8140	365	-27.1	-53.4	352	30	
2025-10-07T00:00	8160	364	-27.2	-52.5	352	30	
2025-10-07T00:00	8180	363	-27.4	-51.8	353	30	
2025-10-07T00:00	8200	362	-27.5	-51.1	353	30	
2025-10-07T00:00	8220	361	-27.6	-50.5	353	30	
2025-10-07T00:00	8240	360	-27.8	-50.4	353	30	
2025-10-07T00:00	8260	359	-28.0	-49.9	353	30	
2025-10-07T00:00	8280	358	-28.2	-49.7	353	30	
2025-10-07T00:00	8300	357	-28.3	-50.4	353	30	
2025-10-07T00:00	8320	356	-28.5	-49.6	352	30	
2025-10-07T00:00	8340	355	-28.7	-49.5	351	30	
2025-10-07T00:00	8360	354	-28.9	-49.5	350	30	
2025-10-07T00:00	8380	353	-29.1	-49.5	349	30	
2025-10-07T00:00	8400	352	-29.2	-49.7	348	30	
2025-10-07T00:00	8420	351	-29.4	-49.9	347	30	
2025-10-07T00:00	8440	350	-29.5	-50.3	347	30	
2025-10-07T00:00	8460	349	-29.6	-50.4	347	30	
2025-10-07T00:00	8480	348	-29.8	-50.7	347	30	
2025-10-07T00:00	8500	347	-29.9	-50.9	347	30	
2025-10-07T00:00	8520	346	-30.1	-51.4	347	30	
2025-10-07T00:00	8540	345	-30.2	-51.5	347	30	
2025-10-07T00:00	8560	344	-30.4	-51.7	347	30	
2025-10-07T00:00	8580	343	-30.5	-51.9	347	30	
2025-10-07T00:00	8600	342	-30.7	-52.1	346	30	
2025-10-07T00:00	8620	341	-30.9	-52.0	346	30	
2025-10-07T00:00	8640	340	-31.1	-51.9	346	30	
2025-10-07T00:00	8660	339	-31.3	-52.0	345	30	
2025-10-07T00:00	8680	338	-31.4	-52.1	345	30	
2025-10-07T00:00	8700	337	-31.6	-52.4	346	30	
2025-10-07T00:00	8720	336	-31.7	-52.6	346	30	
2025-10-07T00:00	8740	335	-31.9	-52.8	346	30	
2025-10-07T00:00	8760	334	-32.0	-52.9	347	30	
2025-10-07T00:00	8780	334	-32.2	-53.2	347	30	
2025-10-07T00:00	8800	333	-32.3	-53.4	348	30	
2025-10-07T00:00	8820	332	-32.4	-53.0	349	30	
2025-10-07T00:00	8840	331	-32.5	-52.9	350	30	
2025-10-07T00:00	8860	330	-32.6	-52.5	351	30	
2025-10-07T00:00	8880	329	-32.8	-52.3	351	30	
2025-10-07T00:00	8900	328	-32.9	-52.8	351	30	
2025-10-07T00:00	8920	327	-33.0	-53.5	351	31	
2025-10-07T00:00	8940	326	-33.2	-53.3	351	31	
2025-10-07T00:00	8960	325	-33.3	-53.3	350	31	
2025-10-07T00:00	8980	324	-33.5	-53.6	350	31	
2025-10-07T00:00	9000	323	-33.7	-53.5	349	31	
2025-10-07T00:00	9020	322	-33.8	-53.2	348	30	
2025-10-07T00:00	9040	321	-34.0	-53.4	348	30	
2025-10-07T00:00	9060	321	-34.1	-53.8	347	30	
2025-10-07T00:00	9080	320	-34.3	-54.2	347	30	
2025-10-07T00:00	9100	319	-34.4	-54.4	347	30	
2025-10-07T00:00	9120	318	-34.5	-54.4	347	31	
2025-10-07T00:00	9140	317	-34.7	-54.4	347	31	
2025-10-07T00:00	9160	316	-34.8	-54.5	347	31	
2025-10-07T00:00	9180	315	-35.0	-55.4	348	31	
2025-10-07T00:00	9200	314	-35.0	-56.2	348	31	
2025-10-07T00:00	9220	313	-35.2	-56.2	348	31	
2025-10-07T00:00	9240	312	-35.4	-56.2	348	32	
2025-10-07T00:00	9260	312	-35.5	-56.4	348	32	
2025-10-07T00:00	9280	311	-35.7	-56.6	348	32	
2025-10-07T00:00	9300	310	-35.9	-56.9	348	32	
2025-10-07T00:00	9320	309	-36.0	-57.3	347	33	
2025-10-07T00:00	9340	308	-36.2	-57.9	347	33	
2025-10-07T00:00	9360	307	-36.3	-58.4	347	33	
2025-10-07T00:00	9380	306	-36.5	-58.8	347	34	
2025-10-07T00:00	9400	305	-36.6	-59.4	347	34	
2025-10-07T00:00	9420	304	-36.7	-59.5	347	35	
2025-10-07T00:00	9440	304	-36.8	-59.4	347	35	
2025-10-07T00:00	9460	303	-37.0	-59.2	347	35	
2025-10-07T00:00	9480	302	-37.1	-58.8	347	35	
2025-10-07T00:00	9500	301	-37.3	-58.6	347	35	
2025-10-07T00:00	9520	300	-37.3	-58.2	347	36	
2025-10-07T00:00	9540	299	-37.5	-58.2	347	36	
2025-10-07T00:00	9560	298	-37.6	-58.1	347	36	
2025-10-07T00:00	9580	298	-37.8	-58.1	347	36	
2025-10-07T00:00	9600	297	-38.0	-58.0	347	36	
2025-10-07T00:00	9620	296	-38.2	-57.8	347	36	
2025-10-07T00:00	9640	295	-38.3	-57.9	347	36	
2025-10-07T00:00	9660	294	-38.5	-57.8	346	36	
2025-10-07T00:00	9680	293	-38.6	-57.9	346	36	
2025-10-07T00:00	9700	292	-38.6	-58.2	346	36	
2025-10-07T00:00	9720	291	-38.7	-58.7	345	36	
2025-10-07T00:00	9740	291	-38.8	-58.7	345	36	
2025-10-07T00:00	9760	290	-39.0	-58.8	344	37	
2025-10-07T00:00	9780	289	-39.0	-59.0	344	37	
2025-10-07T00:00	9800	288	-39.1	-59.3	344	37	
2025-10-07T00:00	9820	287	-39.1	-59.7	345	38	
2025-10-07T00:00	9840	286	-39.2	-60.1	345	38	
2025-10-07T00:00	9860	286	-39.3	-60.1	345	38	
2025-10-07T00:00	9880	285	-39.5	-59.8	345	38	
2025-10-07T00:00	9900	284	-39.7	-59.8	346	38	
2025-10-07T00:00	9920	283	-39.9	-59.9	346	38	
2025-10-07T00:00	9940	282	-40.1	-59.9	346	39	
2025-10-07T00:00	9960	281	-40.2	-59.9	346	39	
2025-10-07T00:00	9980	281	-40.4	-59.9	347	39	
2025-10-07T00:00	10000	280	-40.6	-59.9	347	39	
2025-10-07T00:00	10018	279	-40.8	-59.8	347	39	
2025-10-07T00:00	10050	278	-41.0	-59.8	348	39	
2025-10-07T00:00	10100	276	-41.5	-59.6	348	38	
2025-10-07T00:00	10150	274	-41.8	-59.9	348	38	
2025-10-07T00:00	10200	272	-42.2	-59.3	347	37	
2025-10-07T00:00	10250	270	-42.5	-58.8	346	36	
2025-10-07T00:00	10300	268	-43.0	-58.9	346	36	
2025-10-07T00:00	10350	266	-43.4	-59.8	345	37	
2025-10-07T00:00	10400	264	-43.9	-60.4	345	37	
2025-10-07T00:00	10450	262	-44.3	-60.3	344	37	
2025-10-07T00:00	10500	260	-44.8	-59.6	344	37	
2025-10-07T00:00	10550	258	-45.3	-60.0	344	37	
2025-10-07T00:00	10600	256	-45.8	-60.1	345	37	
2025-10-07T00:00	10650	254	-46.2	-60.0	345	36	
2025-10-07T00:00	10700	252	-46.7	-60.1	345	37	
2025-10-07T00:00	10750	250	-47.2	-60.2	344	37	
2025-10-07T00:00	10800	248	-47.7	-59.7	344	37	
2025-10-07T00:00	10850	246	-48.2	-58.8	344	38	
2025-10-07T00:00	10900	245	-48.6	-58.2	344	38	
2025-10-07T00:00	10950	243	-48.8	-59.6	343	39	
2025-10-07T00:00	11000	241	-48.8	-61.5	342	38	
2025-10-07T00:00	11050	239	-49.1	-60.8	341	38	
2025-10-07T00:00	11100	237	-49.4	-61.0	342	38	
2025-10-07T00:00	11150	235	-49.6	-61.5	343	37	
2025-10-07T00:00	11200	234	-49.9	-62.2	344	37	
2025-10-07T00:00	11250	232	-50.0	-62.8	345	36	
2025-10-07T00:00	11300	230	-50.2	-63.2	345	36	
2025-10-07T00:00	11350	228	-50.5	-63.3	345	36	
2025-10-07T00:00	11400	227	-50.8	-64.0	345	35	
2025-10-07T00:00	11450	225	-51.0	-65.2	344	35	
2025-10-07T00:00	11500	223	-51.3	-65.8	345	34	
2025-10-07T00:00	11550	221	-51.8	-65.7	345	34	
2025-10-07T00:00	11600	220	-52.3	-66.0	345	34	
2025-10-07T00:00	11650	218	-52.5	-66.6	345	33	
2025-10-07T00:00	11700	216	-52.6	-67.2	344	32	
2025-10-07T00:00	11750	215	-52.8	-67.3	342	32	
2025-10-07T00:00	11800	213	-53.2	-67.4	340	31	
2025-10-07T00:00	11850	211	-53.5	-67.4	337	31	
2025-10-07T00:00	11900	210	-53.8	-67.5	336	31	
2025-10-07T00:00	11950	208	-54.0	-68.2	336	32	
2025-10-07T00:00	12000	206	-54.3	-68.7	336	33	
2025-10-07T00:00	12050	205	-54.7	-69.1	336	33	
2025-10-07T00:00	12100	203	-55.1	-69.3	336	34	
2025-10-07T00:00	12150	202	-55.2	-69.7	336	33	
2025-10-07T00:00	12200	200	-55.4	-70.1	336	33	
2025-10-07T00:00	12250	199	-55.5	-70.9	336	33	
2025-10-07T00:00	12300	197	-55.6	-71.8	336	33	
2025-10-07T00:00	12350	195	-55.8	-72.3	336	33	
2025-10-07T00:00	12400	194	-56.0	-72.7	335	32	
2025-10-07T00:00	12450	192	-56.1	-73.0	334	32	
2025-10-07T00:00	12500	191	-56.2	-73.3	333	32	
2025-10-07T00:00	12550	189	-56.5	-73.2	333	32	
2025-10-07T00:00	12600	188	-56.8	-73.3	334	32	
2025-10-07T00:00	12650	186	-56.9	-73.5	335	31	
2025-10-07T00:00	12700	185	-57.2	-73.7	334	32	
2025-10-07T00:00	12750	184	-57.4	-74.0	333	32	
2025-10-07T00:00	12800	182	-57.6	-74.2	333	32	
2025-10-07T00:00	12850	181	-57.7	-74.5	335	33	
2025-10-07T00:00	12900	179	-57.2	-75.4	338	34	
2025-10-07T00:00	12950	178	-57.0	-76.0	339	35	
2025-10-07T00:00	13000	176	-57.1	-76.2	339	35	
2025-10-07T00:00	13050	175	-57.3	-76.3	339	35	
2025-10-07T00:00	13100	174	-57.6	-76.3	340	35	
2025-10-07T00:00	13150	172	-58.0	-76.4	340	35	
2025-10-07T00:00	13200	171	-58.4	-76.4	340	36	
2025-10-07T00:00	13250	169	-58.8	-76.4	341	35	
2025-10-07T00:00	13300	168	-59.1	-76.6	343	35	
2025-10-07T00:00	13350	167	-59.2	-77.0	344	34	
2025-10-07T00:00	13400	166	-59.2	-77.6	343	33	
2025-10-07T00:00	13450	164	-59.4	-77.9	342	33	
2025-10-07T00:00	13500	163	-59.7	-77.9	341	32	
2025-10-07T00:00	13550	162	-60.0	-77.9	340	32	
2025-10-07T00:00	13600	160	-60.0	-77.9	341	32	
2025-10-07T00:00	13650	159	-60.2	-78.0	341	32	
2025-10-07T00:00	13700	158	-60.4	-78.1	340	33	
2025-10-07T00:00	13750	156	-60.8	-78.2	340	32	
2025-10-07T00:00	13800	155	-61.1	-78.3	341	32	
2025-10-07T00:00	13850	154	-61.3	-78.3	342	31	
2025-10-07T00:00	13900	153	-61.6	-78.4	344	31	
2025-10-07T00:00	13950	152	-62.0	-78.7	346	30	
2025-10-07T00:00	14000	150	-61.9	-78.7	348	29	
2025-10-07T00:00	14050	149	-62.3	-79.0	348	29	
2025-10-07T00:00	14100	148	-62.7	-79.1	347	28	
2025-10-07T00:00	14150	147	-63.1	-79.2	346	28	
2025-10-07T00:00	14200	145	-63.5	-79.3	345	27	
2025-10-07T00:00	14250	144	-63.8	-79.3	344	26	
2025-10-07T00:00	14300	143	-64.0	-79.4	344	25	
2025-10-07T00:00	14350	142	-64.4	-79.4	344	25	
2025-10-07T00:00	14400	141	-64.9	-79.6	344	25	
2025-10-07T00:00	14450	140	-65.3	-79.8	341	24	
2025-10-07T00:00	14500	139	-65.5	-80.0	338	25	
2025-10-07T00:00	14550	137	-65.7	-80.1	335	26	
2025-10-07T00:00	14600	136	-65.7	-80.4	335	26	
2025-10-07T00:00	14650	135	-65.4	-80.5	335	26	
2025-10-07T00:00	14700	134	-65.7	-81.1	334	26	
2025-10-07T00:00	14750	133	-65.7	-81.4	332	26	
2025-10-07T00:00	14800	132	-65.9	-81.7	330	27	
2025-10-07T00:00	14850	131	-66.1	-81.8	330	28	
2025-10-07T00:00	14900	130	-66.2	-81.9	330	28	
2025-10-07T00:00	14950	129	-66.2	-81.8	330	29	
2025-10-07T00:00	15000	128	-66.7	-81.9	329	29	
2025-10-07T00:00	15050	127	-66.7	-82.0	330	28	
2025-10-07T00:00	15100	125	-66.6	-82.2	333	27	
2025-10-07T00:00	15150	124	-66.5	-82.4	337	26	
2025-10-07T00:00	15200	123	-66.5	-82.6	340	25	
2025-10-07T00:00	15250	122	-66.5	-82.9	341	24	
2025-10-07T00:00	15300	121	-66.6	-83.1	340	23	
2025-10-07T00:00	15350	120	-66.6	-83.2	339	22	
2025-10-07T00:00	15400	119	-66.3	-83.4	339	22	
2025-10-07T00:00	15450	118	-65.9	-83.4	341	23	
2025-10-07T00:00	15500	117	-65.7	-83.5	343	23	
2025-10-07T00:00	15550	116	-66.0	-83.7	344	24	
2025-10-07T00:00	15600	116	-66.1	-83.7	345	24	
2025-10-07T00:00	15650	115	-66.4	-83.7	345	25	
2025-10-07T00:00	15700	114	-66.8	-83.8	344	25	
2025-10-07T00:00	15750	113	-67.0	-83.8	343	25	
2025-10-07T00:00	15800	112	-67.4	-83.9	344	26	
2025-10-07T00:00	15850	111	-67.6	-84.0	346	26	
2025-10-07T00:00	15900	110	-67.5	-84.1	348	27	
2025-10-07T00:00	15950	109	-67.1	-84.1	349	27	
2025-10-07T00:00	16000	108	-66.7	-84.1	350	27	
2025-10-07T00:00	16050	107	-66.7	-84.2	350	27	
2025-10-07T00:00	16100	106	-66.5	-84.2	352	27	
2025-10-07T00:00	16150	105	-66.6	-84.4	355	26	
2025-10-07T00:00	16200	105	-66.6	-84.4	358	25	
2025-10-07T00:00	16250	104	-66.7	-84.4	0	24	
2025-10-07T00:00	16300	103	-66.9	-84.4	3	23	
2025-10-07T00:00	16350	102	-67.1	-84.4	5	22	
2025-10-07T00:00	16400	101	-67.5	-84.4	6	21	
2025-10-07T00:00	16450	100	-67.9	-84.5	6	20	
2025-10-07T00:00	16500	100	-68.1	-84.5	7	19	
2025-10-07T00:00	16550	99	-68.3	-84.5	6	18	
2025-10-07T00:00	16600	98	-68.5	-84.5	3	17	
2025-10-07T00:00	16650	97	-68.5	-84.7	359	17	
2025-10-07T00:00	16700	96	-68.5	-85.1	357	18	
2025-10-07T00:00	16750	95	-67.8	-85.4	355	17	
2025-10-07T00:00	16800	95	-67.1	-85.6	352	17	
2025-10-07T00:00	16850	94	-67.2	-85.9	349	16	
2025-10-07T00:00	16900	93	-67.2	-86.0	350	16	
2025-10-07T00:00	16950	92	-67.1	-86.2	351	16	
2025-10-07T00:00	17000	92	-66.3	-86.0	346	15	
2025-10-07T00:00	17050	91	-65.9	-86.1	339	15	
2025-10-07T00:00	17100	90	-65.8	-86.2	333	15	
2025-10-07T00:00	17150	89	-65.2	-86.0	331	16	
2025-10-07T00:00	17200	89	-65.1	-86.1	334	17	
2025-10-07T00:00	17250	88	-65.0	-86.3	337	16	
2025-10-07T00:00	17300	87	-64.3	-86.1	339	14	
2025-10-07T00:00	17350	86	-64.2	-86.4	342	13	
2025-10-07T00:00	17400	86	-63.6	-86.2	347	12	
2025-10-07T00:00	17450	85	-63.1	-86.2	350	12	
2025-10-07T00:00	17500	84	-63.0	-86.3	352	12	
2025-10-07T00:00	17550	84	-62.7	-86.2	351	11	
2025-10-07T00:00	17600	83	-62.4	-86.2	348	11	
2025-10-07T00:00	17650	82	-62.3	-86.1	348	11	
2025-10-07T00:00	17700	82	-62.3	-86.1	351	12	
2025-10-07T00:00	17750	81	-62.6	-86.2	352	12	
2025-10-07T00:00	17800	80	-62.5	-86.5	351	11	
2025-10-07T00:00	17850	80	-61.0	-86.1	350	9	
2025-10-07T00:00	17900	79	-60.2	-85.8	348	7	
2025-10-07T00:00	17950	78	-60.5	-85.9	344	6	
2025-10-07T00:00	18000	78	-60.9	-85.8	343	6	
2025-10-07T00:00	18050	77	-61.2	-85.7	343	6	
2025-10-07T00:00	18100	77	-61.6	-85.8	340	6	
2025-10-07T00:00	18150	76	-61.9	-85.9	336	7	
2025-10-07T00:00	18200	75	-62.3	-86.0	331	8	
2025-10-07T00:00	18250	75	-62.6	-86.3	327	8	
2025-10-07T00:00	18300	74	-62.6	-86.5	328	9	
2025-10-07T00:00	18350	74	-61.9	-86.2	332	8	
2025-10-07T00:00	18400	73	-61.9	-86.6	339	6	
2025-10-07T00:00	18450	72	-61.3	-86.3	346	5	
2025-10-07T00:00	18500	72	-61.3	-86.2	354	4	
2025-10-07T00:00	18550	71	-61.6	-86.1	351	4	
2025-10-07T00:00	18600	71	-62.1	-86.2	345	4	
2025-10-07T00:00	18650	70	-62.5	-86.3	339	3	
2025-10-07T00:00	18700	69	-62.6	-86.2	339	3	
2025-10-07T00:00	18750	69	-62.9	-86.4	354	3	
2025-10-07T00:00	18800	68	-63.2	-86.6	10	5	
2025-10-07T00:00	18850	68	-63.2	-86.7	16	6	
2025-10-07T00:00	18900	67	-63.2	-86.7	15	7	
2025-10-07T00:00	18950	67	-63.1	-86.7	15	7	
2025-10-07T00:00	19000	66	-63.1	-86.8	18	7	
2025-10-07T00:00	19050	66	-63.0	-86.8	26	6	
2025-10-07T00:00	19100	65	-62.9	-86.9	42	5	
2025-10-07T00:00	19150	65	-62.5	-86.8	61	4	
2025-10-07T00:00	19200	64	-62.0	-86.6	75	4	
2025-10-07T00:00	19250	64	-62.2	-86.5	78	3	
2025-10-07T00:00	19300	63	-62.5	-86.5	72	3	
2025-10-07T00:00	19350	63	-62.9	-86.6	60	3	
2025-10-07T00:00	19400	62	-63.2	-86.6	47	2	
2025-10-07T00:00	19450	62	-63.4	-86.7	30	1	
2025-10-07T00:00	19500	61	-63.5	-86.9	8	1	
2025-10-07T00:00	19550	61	-63.4	-86.9	336	1	
2025-10-07T00:00	19600	60	-63.5	-87.1	286	1	
2025-10-07T00:00	19650	60	-63.4	-87.1	259	2	
2025-10-07T00:00	19700	59	-63.1	-86.9	253	3	
2025-10-07T00:00	19750	59	-63.2	-86.9	258	4	
2025-10-07T00:00	19800	58	-63.4	-86.9	268	4	
2025-10-07T00:00	19850	58	-63.7	-87.0	277	5	
2025-10-07T00:00	19900	57	-63.7	-87.1	287	6	
2025-10-07T00:00	19950	57	-63.7	-87.1	300	7	
2025-10-07T00:00	20000	56	-63.8	-87.1	313	7	
2025-10-07T00:00	20050	56	-63.9		318	8	
2025-10-07T00:00	20100	55	-63.9		315	8	
2025-10-07T00:00	20150	55	-63.7		309	8	
2025-10-07T00:00	20200	54	-63.7		308	8	
2025-10-07T00:00	20250	54	-63.6		313	8	
2025-10-07T00:00	20300	54	-63.1		321	8	
2025-10-07T00:00	20350	53	-62.8		330	8	
2025-10-07T00:00	20400	53	-63.0		340	8	
2025-10-07T00:00	20450	52	-63.2		348	8	
2025-10-07T00:00	20500	52	-63.3		354	8	
2025-10-07T00:00	20550	51	-63.5		360	8	
2025-10-07T00:00	20600	51	-63.0		6	8	
2025-10-07T00:00	20650	51	-62.7		10	7	
2025-10-07T00:00	20700	50	-62.6		18	5	
2025-10-07T00:00	20750	50	-62.4		31	4	
2025-10-07T00:00	20800	49	-61.7		48	4	
2025-10-07T00:00	20850	49	-61.7		62	4	
2025-10-07T00:00	20900	49	-61.9		73	4	
2025-10-07T00:00	20950	48	-62.2		80	4	
2025-10-07T00:00	21000	48	-62.4		87	4	
2025-10-07T00:00	21050	47	-62.6		94	3	
2025-10-07T00:00	21100	47	-62.7		95	3	
2025-10-07T00:00	21150	47	-62.8		99	3	
2025-10-07T00:00	21200	46	-62.5		106	5	
2025-10-07T00:00	21250	46	-62.6		110	5	
2025-10-07T00:00	21300	46	-62.3		112	5	
2025-10-07T00:00	21350	45	-62.2		117	4	
2025-10-07T00:00	21400	45	-62.3		121	3	
2025-10-07T00:00	21450	44	-62.2		118	3	
2025-10-07T00:00	21500	44	-61.5		129	2	
2025-10-07T00:00	21550	44	-61.1		153	2	
2025-10-07T00:00	21600	43	-61.4		180	1	
2025-10-07T00:00	21650	43	-61.2		269	1	
2025-10-07T00:00	21700	43	-61.0		328	1	
2025-10-07T00:00	21750	42	-60.6		353	1	
2025-10-07T00:00	21800	42	-60.2		358	1	
2025-10-07T00:00	21850	42	-60.1		321	1	
2025-10-07T00:00	21900	41	-60.1		283	1	
2025-10-07T00:00	21950	41	-60.3		247	2	
2025-10-07T00:00	22000	41	-60.4		226	2	
2025-10-07T00:00	22050	40	-60.6		224	3	
2025-10-07T00:00	22100	40	-60.7		238	3	
2025-10-07T00:00	22150	40	-60.4		258	3	
2025-10-07T00:00	22200	39	-60.5		276	3	
2025-10-07T00:00	22250	39	-60.4		293	3	
2025-10-07T00:00	22300	39	-60.2		312	2	
2025-10-07T00:00	22350	38	-60.1		329	2	
2025-10-07T00:00	22400	38	-60.3		348	1	
2025-10-07T00:00	22450	38	-60.2		16	1	
2025-10-07T00:00	22500	38	-60.5		32	1	
2025-10-07T00:00	22550	37	-60.6		351	0	
2025-10-07T00:00	22600	37	-60.3		252	1	
2025-10-07T00:00	22650	37	-60.2		236	2	
2025-10-07T00:00	22700	36	-60.2		238	2	
2025-10-07T00:00	22750	36	-60.5		249	3	
2025-10-07T00:00	22800	36	-60.9		259	3	
2025-10-07T00:00	22850	35	-61.1		258	4	
2025-10-07T00:00	22900	35	-61.1		253	5	
2025-10-07T00:00	22950	35	-61.1		253	6	
2025-10-07T00:00	23000	35	-60.7		257	7	
2025-10-07T00:00	23050	34	-60.8		262	8	
2025-10-07T00:00	23100	34	-60.6		268	8	
2025-10-07T00:00	23150	34	-60.6		275	7	
2025-10-07T00:00	23200	34	-61.0		281	7	
2025-10-07T00:00	23250	33	-61.1		285	7	
2025-10-07T00:00	23300	33	-60.7		289	8	
2025-10-07T00:00	23350	33	-60.4		292	8	
2025-10-07T00:00	23400	32	-60.4		296	8	
2025-10-07T00:00	23450	32	-60.4		300	8	
2025-10-07T00:00	23500	32	-60.4		305	7	
2025-10-07T00:00	23550	32	-60.6		307	7	
2025-10-07T00:00	23600	31	-60.6		306	6	
2025-10-07T00:00	23650	31	-60.4		305	6	
2025-10-07T00:00	23700	31	-60.1		306	6	
2025-10-07T00:00	23750	31	-60.0		308	5	
2025-10-07T00:00	23800	30	-60.3		312	5	
2025-10-07T00:00	23850	30	-60.6		318	4	
2025-10-07T00:00	23900	30	-60.8		319	3	
2025-10-07T00:00	23950	30	-60.8		299	3	
2025-10-07T00:00	24000	29	-60.2		275	3	
2025-10-07T00:00	24050	29	-60.2		258	5	
2025-10-07T00:00	24100	29	-60.2		245	7	
2025-10-07T00:00	24150	29	-59.0		239	8	
2025-10-07T00:00	24200	29	-58.6		240	8	
2025-10-07T00:00	24250	28	-58.4		239	7	
2025-10-07T00:00	24300	28	-58.2		233	6	
2025-10-07T00:00	24350	28	-57.4		227	6	
2025-10-07T00:00	24400	28	-57.1		224	6	
2025-10-07T00:00	24450	27	-57.2		220	6	
2025-10-07T00:00	24500	27	-57.5		215	5	
2025-10-07T00:00	24550	27	-57.8		216	5	
2025-10-07T00:00	24600	27	-57.8		228	4	
2025-10-07T00:00	24650	27	-57.8		243	5	
2025-10-07T00:00	24700	26	-58.1		254	6	
2025-10-07T00:00	24750	26	-58.4		261	7	
2025-10-07T00:00	24800	26	-58.6		267	8	
2025-10-07T00:00	24850	26	-58.9		273	9	
2025-10-07T00:00	24900	26	-59.0		277	9	
2025-10-07T00:00	24950	25	-58.9		281	9	
2025-10-07T00:00	25000	25	-58.5		286	9	
2025-10-07T00:00	25050	25	-58.2		293	8	
2025-10-07T00:00	25100	25	-58.2		300	8	
2025-10-07T00:00	25150	25	-58.0		306	8	
2025-10-07T00:00	25200	24	-58.1		310	8	
2025-10-07T00:00	25250	24	-58.1		311	8	
2025-10-07T00:00	25300	24	-58.2		308	8	
2025-10-07T00:00	25350	24	-58.1		302	7	
2025-10-07T00:00	25400	24	-58.1		296	7	
2025-10-07T00:00	25450	23	-58.1		290	7	
2025-10-07T00:00	25500	23	-57.9		284	7	
2025-10-07T00:00	25550	23	-58.1		279	7	
2025-10-07T00:00	25600	23	-57.9		276	8	
2025-10-07T00:00	25650	23	-58.1		274	8	
2025-10-07T00:00	25700	23	-58.2		270	9	
2025-10-07T00:00	25750	22	-58.3		265	9	
2025-10-07T00:00	25800	22	-58.2		262	10	
2025-10-07T00:00	25850	22	-58.2		261	10	
2025-10-07T00:00	25900	22	-58.2		261	11	
2025-10-07T00:00	25950	22	-58.2		261	11	
2025-10-07T00:00	26000	21	-58.2		264	11	
2025-10-07T00:00	26050	21	-57.9		268	12	
2025-10-07T00:00	26100	21	-57.8		272	12	
2025-10-07T00:00	26150	21	-57.1		274	12	
2025-10-07T00:00	26200	21	-56.7		276	11	
2025-10-07T00:00	26250	21	-56.5		277	10	
2025-10-07T00:00	26300	20	-56.4		275	9	
2025-10-07T00:00	26350	20	-55.7		268	9	
2025-10-07T00:00	26400	20	-55.6		262	10	
2025-10-07T00:00	26450	20	-55.6		258	11	
2025-10-07T00:00	26500	20	-55.8		258	12	
2025-10-07T00:00	26550	20	-55.2		259	13	
2025-10-07T00:00	26600	20	-54.6		262	14	
2025-10-07T00:00	26650	19	-54.0		265	13	
2025-10-07T00:00	26700	19	-54.0		267	12	
2025-10-07T00:00	26750	19	-53.8		265	11	
2025-10-07T00:00	26800	19	-53.4		262	10	
2025-10-07T00:00	26850	19	-53.2		261	10	
2025-10-07T00:00	26900	19	-52.8		264	9	
2025-10-07T00:00	26950	18	-52.8		271	10	
2025-10-07T00:00	27000	18	-53.0		275	10	
2025-10-07T00:00	27050	18	-53.1		273	12	
2025-10-07T00:00	27100	18	-52.9		268	13	
2025-10-07T00:00	27150	18	-53.0		262	14	
2025-10-07T00:00	27200	18	-53.1		259	15	
2025-10-07T00:00	27250	18	-53.1		257	16	
2025-10-07T00:00	27300	18	-53.2		258	17	
2025-10-07T00:00	27350	17	-53.6		259	17	
2025-10-07T00:00	27400	17	-54.0		261	17	
2025-10-07T00:00	27450	17	-54.1		265	17	
2025-10-07T00:00	27500	17	-53.5		269	18	
2025-10-07T00:00	27550	17	-52.9		272	19	
2025-10-07T00:00	27600	17	-52.3		274	19	
2025-10-07T00:00	27650	17	-52.1		276	19	
2025-10-07T00:00	27700	16	-52.2		277	18	
2025-10-07T00:00	27750	16	-52.6		277	17	
2025-10-07T00:00	27800	16	-53.0		278	17	
2025-10-07T00:00	27850	16	-53.5		279	16	
2025-10-07T00:00	27900	16	-54.0		280	16	
2025-10-07T00:00	27950	16	-54.1		281	15	
2025-10-07T00:00	28000	16	-54.1		281	14	
2025-10-07T00:00	28050	16	-54.3		280	14	
2025-10-07T00:00	28100	15	-54.1		279	13	
2025-10-07T00:00	28150	15	-54.0		277	13	
2025-10-07T00:00	28200	15	-53.8		275	12	
2025-10-07T00:00	28250	15	-53.6		272	11	
2025-10-07T00:00	28300	15	-53.4		266	11	
2025-10-07T00:00	28350	15	-53.1		259	12	
2025-10-07T00:00	28400	15	-53.3		255	13	
2025-10-07T00:00	28450	15	-53.3		250	15	
2025-10-07T00:00	28500	15	-53.1		246	16	
2025-10-07T00:00	28550	14	-52.9		243	17	
2025-10-07T00:00	28600	14	-52.8		242	17	
2025-10-07T00:00	28650	14	-52.6		243	17	
2025-10-07T00:00	28700	14	-52.4		246	17	
2025-10-07T00:00	28750	14	-52.2		249	17	
2025-10-07T00:00	28800	14	-52.2		252	17	
2025-10-07T00:00	28850	14	-52.2		253	18	
2025-10-07T00:00	28900	14	-52.3		254	18	
2025-10-07T00:00	28950	14	-52.5		255	19	
2025-10-07T00:00	29000	13	-52.7		257	19	
2025-10-07T00:00	29050	13	-52.9		260	20	
2025-10-07T00:00	29100	13	-52.8		262	20	
2025-10-07T00:00	29150	13	-52.8		262	19	
2025-10-07T00:00	29200	13	-52.8		260	19	
2025-10-07T00:00	29250	13	-52.5		257	18	
2025-10-07T00:00	29300	13	-50.7		255	19	
2025-10-07T00:00	29350	13	-49.6		255	20	
2025-10-07T00:00	29400	13	-49.0		256	20	
2025-10-07T00:00	29450	13	-48.5		258	20	
2025-10-07T00:00	29500	12	-48.5		262	20	
2025-10-07T00:00	29550	12	-48.5		267	19	
2025-10-07T00:00	29600	12	-48.5		272	19	
2025-10-07T00:00	29650	12	-48.6		276	18	
2025-10-07T00:00	29700	12	-48.8		278	17	
2025-10-07T00:00	29750	12	-49.0		278	16	
2025-10-07T00:00	29800	12	-48.8		276	15	
2025-10-07T00:00	29850	12	-48.9		276	14	
2025-10-07T00:00	29900	12	-49.0		277	14	
2025-10-07T00:00	29950	12	-49.0		278	15	
2025-10-07T00:00	30000	12	-49.0		276	15	
2025-10-07T00:00	30050	11	-48.7		272	17	
2025-10-07T00:00	30100	11	-48.7		270	18	
2025-10-07T00:00	30150	11	-48.9		269	19	
2025-10-07T00:00	30200	11	-49.2		268	20	
2025-10-07T00:00	30250	11	-49.4		269	21	
2025-10-07T00:00	30300	11	-49.5		271	22	
2025-10-07T00:00	30350	11	-49.4		273	22	
2025-10-07T00:00	30400	11	-49.2		274	21	
2025-10-07T00:00	30450	11	-48.8		276	20	
2025-10-07T00:00	30500	11	-48.4		277	19	
2025-10-07T00:00	30550	11	-48.3		279	18	
2025-10-07T00:00	30600	11	-48.4		281	18	
2025-10-07T00:00	30650	10	-47.8		282	19	
2025-10-07T00:00	30700	10	-48.0		282	20	
2025-10-07T00:00	30750	10	-48.3		283	21	
2025-10-07T00:00	30800	10	-48.5		284	23	
2025-10-07T00:00	30850	10	-48.6		285	24	
2025-10-07T00:00	30900	10	-48.5		286	25	
2025-10-07T00:00	30950	10	-48.3		286	27	
2025-10-07T00:00	31000	10	-48.1		288	28	
2025-10-07T00:00	31050	10	-48.0		291	28	
2025-10-07T00:00	31100	10	-47.7		292	27	
2025-10-07T00:00	31150	10	-47.4		293	26	
2025-10-07T00:00	31200	10	-47.2		293	25	
2025-10-07T00:00	31250	10	-47.0		293	23	
2025-10-07T00:00	31300	9	-46.6		294	21	
2025-10-07T00:00	31350	9	-46.5		294	20	
2025-10-07T00:00	31400	9	-46.3		294	18	
2025-10-07T00:00	31450	9	-46.5		293	17	
2025-10-07T00:00	31500	9	-46.7		292	16	
2025-10-07T00:00	31550	9	-46.9		290	15	
2025-10-07T00:00	31600	9	-47.0		286	14	
2025-10-07T00:00	31650	9	-46.9		281	13	
2025-10-07T00:00	31700	9	-46.7		278	14	
2025-10-07T00:00	31750	9	-46.4		278	15	
2025-10-07T00:00	31800	9	-46.4		279	16	
2025-10-07T00:00	31850	9	-46.5		278	17	
2025-10-07T00:00	31900	9	-46.2		274	18	
2025-10-07T00:00	31950	9	-46.0		271	18	
2025-10-07T00:00	32000	9	-46.2		268	18	
2025-10-07T00:00	32050	8	-46.5		266	17	
2025-10-07T00:00	32100	8	-46.8		264	17	
2025-10-07T00:00	32150	8	-46.5		267	16	
2025-10-07T00:00	32200	8	-46.4		272	16	
2025-10-07T00:00	32250	8	-46.1		278	16	
2025-10-07T00:00	32300	8	-46.0		285	17	
2025-10-07T00:00	32350	8	-46.2		292	19	
2025-10-07T00:00	32400	8	-46.2		299	20	
2025-10-07T00:00	32450	8	-45.8		304	21	
2025-10-07T00:00	32500	8	-45.3		306	22	
2025-10-07T00:00	32550	8	-45.3		308	22	
2025-10-07T00:00	32600	8	-45.4		308	21	
2025-10-07T00:00	32650	8	-45.5		310	21	
2025-10-07T00:00	32700	8	-45.3		312	21	
2025-10-07T00:00	32750	8	-45.0		313	21	
2025-10-07T00:00	32800	8	-45.1		313	21	
2025-10-07T00:00	32850	8	-44.9		312	20	
2025-10-07T00:00	32900	7	-44.6		310	19	
2025-10-07T00:00	32950	7	-44.2		308	18	
2025-10-07T00:00	33000	7	-43.4		306	17	
2025-10-07T00:00	33050	7	-43.2		305	17	
2025-10-07T00:00	33100	7	-43.3		303	16	
2025-10-07T00:00	33150	7	-43.3		299	15	
2025-10-07T00:00	33200	7	-43.2		294	13	
2025-10-07T00:00	33250	7	-43.1		288	12	
2025-10-07T00:00	33300	7	-42.6		282	11	
2025-10-07T00:00	33350	7	-42.4		278	11	
2025-10-07T00:00	33400	7	-42.1		274	10	
2025-10-07T00:00	33450	7	-41.7		269	10	
2025-10-07T00:00	33500	7	-41.4		263	10	
2025-10-07T00:00	33550	7	-41.6		259	11	
2025-10-07T00:00	33600	7	-41.7		259	12	
2025-10-07T00:00	33650	7	-41.9		260	13	
2025-10-07T00:00	33700	7	-42.2		261	14	
2025-10-07T00:00	33750	7	-42.3		262	14	
2025-10-07T00:00	33800	7	-41.9		265	14	
2025-10-07T00:00	33850	6	-41.3		268	14	
2025-10-07T00:00	33900	6	-41.4		271	14	
2025-10-07T00:00	33950	6	-41.4		272	14	
2025-10-07T00:00	34000	6	-41.4		271	14	
2025-10-07T00:00	34050	6	-41.4		271	15	
2025-10-07T00:00	34100	6	-41.5		271	16	
2025-10-07T00:00	34150	6	-41.7		271	17	
2025-10-07T00:00	34200	6	-41.8		273	17	
2025-10-07T00:00	34250	6	-41.5		276	18	
2025-10-07T00:00	34300	6	-41.4		279	18	
2025-10-07T00:00	34350	6	-41.4		283	18	
2025-10-07T00:00	34400	6	-41.4		285	18	
2025-10-07T00:00	34450	6	-41.2		287	17	
2025-10-07T00:00	34500	6	-41.1		286	17	
2025-10-07T00:00	34550	6	-41.0		285	16	
2025-10-07T00:00	34600	6	-41.0		283	15	
2025-10-07T00:00	34650	6	-41.1		280	14	
2025-10-07T00:00	34700	6	-41.2		277	13	
2025-10-07T00:00	34750	6	-41.3		273	13	
2025-10-07T00:00	34800	6	-41.5		269	13	
2025-10-07T00:00	34850	6	-41.5		265	13	
2025-10-07T00:00	34900	6	-41.5		260	13	
2025-10-07T00:00	34950	5	-41.5		257	13	
2025-10-07T00:00	35000	5	-41.7		253	14	
2025-10-07T00:00	35050	5	-41.9		250	14	
2025-10-07T00:00	35100	5	-42.0		246	13	
2025-10-07T00:00	35150	5	-42.0		242	13	
2025-10-07T00:00	35200	5	-41.9		240	14	
2025-10-07T00:00	35250	5	-41.8		238	14	
2025-10-07T00:00	35300	5	-42.0		239	15	
2025-10-07T00:00	35350	5	-42.2		242	15	
2025-10-07T00:00	35400	5	-42.1		247	15	
2025-10-07T00:00	35450	5	-41.9		254	15	
2025-10-07T00:00	35500	5	-41.5		259	15	
2025-10-07T00:00	35550	5	-41.0		262	15	
2025-10-07T00:00	35600	5	-40.4		259	15	
2025-10-07T00:00	35650	5	-40.0		253	15	
2025-10-07T00:00	35700	5	-39.7		250	16	
2025-10-07T00:00	35750	5	-39.6		250	16	
2025-10-07T00:00	35800	5	-38.9		252	16	
2025-10-07T00:00	35850	5	-38.1		253	16	
2025-10-07T00:00	35900	5	-38.2		253	15	
2025-10-07T00:00	35950	5	-38.3		252	15	
2025-10-07T00:00	36000	5	-38.3		251	16	
2025-10-07T00:00	36050	5	-38.2		251	16	
2025-10-07T00:00	36100	5	-37.7		253	16	
2025-10-07T00:00	36150	5	-37.0		256	17	
2025-10-07T00:00	36200	5	-36.9		259	17	
2025-10-07T00:00	36250	5	-36.4		263	18	
2025-10-07T00:00	36300	5	-35.6		267	18	
2025-10-07T00:00	36350	4	-35.1		272	19	
2025-10-07T00:00	36400	4	-34.7		276	19	
2025-10-07T00:00	36450	4	-34.4		279	19	
2025-10-07T00:00	36500	4	-34.1		281	19	
2025-10-07T00:00	36550	4	-33.6		280	19	
2025-10-07T00:00	36600	4	-33.1		280	18	
2025-10-07T00:00	36650	4	-32.6		282	18	
2025-10-07T00:00	36700	4	-32.4		287	18	
2025-10-07T00:00	36750	4	-32.5		295	18	
2025-10-07T00:00	36800	4	-32.2		303	18	
2025-10-07T00:00	36850	4	-32.3		310	19	
2025-10-07T00:00	36900	4	-32.0		318	19	
2025-10-07T00:00	36950	4	-31.9		325	20	
2025-10-07T00:00	37000	4	-31.9		329	20	
2025-10-07T00:00	37050	4	-31.9		331	20	
2025-10-07T00:00	37100	4	-32.1		329	18	
2025-10-07T00:00	37150	4	-31.6		325	17	
2025-10-07T00:00	37200	4	-31.7		321	17	
2025-10-07T00:00	37250	4	-32.0		318	17	
2025-10-07T12:00	491	967	14.8	8.5	64	4	
2025-10-07T12:00	501	966	14.6	8.4	60	2	
2025-10-07T12:00	520	964	14.0	7.8	58	2	
2025-10-07T12:00	540	962	14.1	8.4	59	2	
2025-10-07T12:00	560	960	14.0	8.1	60	2	
2025-10-07T12:00	580	957	13.7	7.7	59	2	
2025-10-07T12:00	600	955	13.4	7.7	57	2	
2025-10-07T12:00	620	953	13.2	7.7	54	2	
2025-10-07T12:00	640	951	12.9	7.5	51	3	
2025-10-07T12:00	660	948	12.8	7.7	47	3	
2025-10-07T12:00	680	946	12.5	7.5	44	3	
2025-10-07T12:00	700	944	12.2	7.4	42	3	
2025-10-07T12:00	720	942	12.0	7.2	41	4	
2025-10-07T12:00	740	939	11.7	7.1	41	4	
2025-10-07T12:00	760	937	11.6	7.1	42	4	
2025-10-07T12:00	780	935	11.4	6.7	45	4	
2025-10-07T12:00	800	933	11.2	6.9	48	4	
2025-10-07T12:00	820	930	11.1	7.2	50	4	
2025-10-07T12:00	840	928	10.8	6.8	52	4	
2025-10-07T12:00	860	926	10.6	6.8	53	4	
2025-10-07T12:00	880	923	10.4	6.8	52	3	
2025-10-07T12:00	900	921	10.2	6.4	49	3	
2025-10-07T12:00	920	919	10.1	6.0	44	3	
2025-10-07T12:00	940	917	9.9	5.9	42	3	
2025-10-07T12:00	960	915	9.7	5.9	42	3	
2025-10-07T12:00	980	912	9.5	6.0	43	4	
2025-10-07T12:00	1000	910	9.4	6.1	44	4	
2025-10-07T12:00	1020	908	9.5	5.6	45	4	
2025-10-07T12:00	1040	906	9.6	5.3	47	5	
2025-10-07T12:00	1060	904	10.0	5.1	50	5	
2025-10-07T12:00	1080	902	10.2	5.2	54	5	
2025-10-07T12:00	1100	900	10.2	5.3	59	5	
2025-10-07T12:00	1120	897	10.2	5.3	63	5	
2025-10-07T12:00	1140	895	10.2	5.4	68	5	
2025-10-07T12:00	1160	893	10.2	5.2	71	5	
2025-10-07T12:00	1180	891	10.2	5.2	73	5	
2025-10-07T12:00	1200	889	10.0	5.2	71	5	
2025-10-07T12:00	1220	887	9.9	5.2	68	5	
2025-10-07T12:00	1240	884	9.7	5.3	65	5	
2025-10-07T12:00	1260	882	9.6	5.3	62	6	
2025-10-07T12:00	1280	880	9.5	5.2	59	6	
2025-10-07T12:00	1300	878	9.4	5.1	58	6	
2025-10-07T12:00	1320	876	9.4	4.9	57	7	
2025-10-07T12:00	1340	874	9.4	4.8	56	7	
2025-10-07T12:00	1360	872	9.4	4.6	56	7	
2025-10-07T12:00	1380	870	9.5	4.6	56	6	
2025-10-07T12:00	1400	868	9.5	4.4	57	6	
2025-10-07T12:00	1420	866	9.3	4.4	58	5	
2025-10-07T12:00	1440	863	9.2	4.3	57	5	
2025-10-07T12:00	1460	861	9.2	4.2	55	4	
2025-10-07T12:00	1480	859	9.5	4.0	51	3	
2025-10-07T12:00	1500	857	9.6	3.9	44	3	
2025-10-07T12:00	1520	855	9.5	3.8	35	2	
2025-10-07T12:00	1540	853	9.4	3.9	33	2	
2025-10-07T12:00	1560	851	9.3	3.8	36	3	
2025-10-07T12:00	1580	849	9.4	3.8	43	3	
2025-10-07T12:00	1600	847	9.7	4.1	53	4	
2025-10-07T12:00	1620	845	10.4	4.6	61	4	
2025-10-07T12:00	1640	843	10.6	4.8	67	5	
2025-10-07T12:00	1660	841	10.6	4.6	73	5	
2025-10-07T12:00	1680	839	10.6	4.5	76	5	
2025-10-07T12:00	1700	837	10.6	4.5	77	5	
2025-10-07T12:00	1720	835	10.5	4.5	76	5	
2025-10-07T12:00	1740	833	10.4	4.4	73	5	
2025-10-07T12:00	1760	831	10.2	4.4	69	5	
2025-10-07T12:00	1780	829	10.2	4.4	67	5	
2025-10-07T12:00	1800	827	10.1	4.3	66	5	
2025-10-07T12:00	1820	825	10.1	4.2	66	6	
2025-10-07T12:00	1840	823	10.1	4.1	66	6	
2025-10-07T12:00	1860	821	10.1	3.9	65	6	
2025-10-07T12:00	1880	819	10.0	3.8	61	7	
2025-10-07T12:00	1900	817	9.9	3.8	57	7	
2025-10-07T12:00	1920	815	9.8	3.7	53	8	
2025-10-07T12:00	1940	813	9.7	3.6	50	8	
2025-10-07T12:00	1960	811	9.5	3.5	48	9	
2025-10-07T12:00	1980	809	9.3	3.5	49	10	
2025-10-07T12:00	2000	807	9.2	3.5	50	10	
2025-10-07T12:00	2020	805	9.0	3.2	51	10	
2025-10-07T12:00	2040	803	9.1	2.8	52	9	
2025-10-07T12:00	2060	801	9.1	2.5	52	9	
2025-10-07T12:00	2080	800	9.1	2.3	51	9	
2025-10-07T12:00	2100	798	9.0	2.2	49	8	
2025-10-07T12:00	2120	796	8.8	2.0	47	8	
2025-10-07T12:00	2140	794	8.8	1.7	46	8	
2025-10-07T12:00	2160	792	8.7	1.5	44	8	
2025-10-07T12:00	2180	790	8.6	1.4	42	8	
2025-10-07T12:00	2200	788	8.6	1.3	40	8	
2025-10-07T12:00	2220	786	8.5	1.2	38	8	
2025-10-07T12:00	2240	784	8.3	1.1	37	8	
2025-10-07T12:00	2260	782	8.3	1.1	37	8	
2025-10-07T12:00	2280	781	8.3	0.8	37	8	
2025-10-07T12:00	2300	778	8.3	0.0	37	8	
2025-10-07T12:00	2320	777	8.3	-0.6	37	8	
2025-10-07T12:00	2340	775	8.3	-0.9	36	8	
2025-10-07T12:00	2360	773	8.3	-0.8	35	9	
2025-10-07T12:00	2380	771	8.2	-0.7	34	9	
2025-10-07T12:00	2400	769	8.0	-0.9	35	9	
2025-10-07T12:00	2420	767	7.9	-1.0	36	9	
2025-10-07T12:00	2440	765	7.8	-1.2	40	8	
2025-10-07T12:00	2460	764	7.7	-1.5	44	8	
2025-10-07T12:00	2480	762	7.7	-1.7	49	8	
2025-10-07T12:00	2500	760	7.6	-1.7	53	8	
2025-10-07T12:00	2520	758	7.4	-1.8	55	8	
2025-10-07T12:00	2540	756	7.3	-1.8	57	7	
2025-10-07T12:00	2560	754	7.1	-1.7	57	7	
2025-10-07T12:00	2580	752	7.0	-1.7	56	7	
2025-10-07T12:00	2600	751	6.8	-1.7	56	7	
2025-10-07T12:00	2620	749	6.6	-1.7	57	6	
2025-10-07T12:00	2640	747	6.4	-1.7	57	6	
2025-10-07T12:00	2660	745	6.2	-1.7	58	7	
2025-10-07T12:00	2680	743	6.1	-1.8	58	7	
2025-10-07T12:00	2700	741	5.9	-1.8	58	8	
2025-10-07T12:00	2720	740	5.7	-2.1	57	8	
2025-10-07T12:00	2740	738	5.6	-2.6	57	9	
2025-10-07T12:00	2760	736	5.5	-3.1	57	10	
2025-10-07T12:00	2780	734	5.4	-3.7	56	10	
2025-10-07T12:00	2800	732	5.2	-4.0	55	11	
2025-10-07T12:00	2820	731	5.1	-4.4	54	11	
2025-10-07T12:00	2840	729	4.9	-5.0	52	12	
2025-10-07T12:00	2860	727	4.8	-5.4	51	12	
2025-10-07T12:00	2880	725	4.7	-6.1	49	12	
2025-10-07T12:00	2900	724	4.6	-6.9	48	12	
2025-10-07T12:00	2920	722	4.7	-9.2	46	12	
2025-10-07T12:00	2940	720	4.9	-12.1	44	12	
2025-10-07T12:00	2960	718	4.9	-12.0	43	12	
2025-10-07T12:00	2980	716	4.9	-14.3	42	12	
2025-10-07T12:00	3000	715	5.0	-16.3	41	12	
2025-10-07T12:00	3020	713	5.0	-15.3	40	12	
2025-10-07T12:00	3040	711	5.0	-12.7	39	12	
2025-10-07T12:00	3060	709	4.9	-12.9	39	12	
2025-10-07T12:00	3080	708	4.8	-15.4	39	12	
2025-10-07T12:00	3100	706	4.7	-15.9	40	11	
2025-10-07T12:00	3120	705	4.7	-14.9	40	11	
2025-10-07T12:00	3140	703	4.5	-15.3	41	11	
2025-10-07T12:00	3160	701	4.4	-14.4	42	11	
2025-10-07T12:00	3180	699	4.3	-14.3	43	11	
2025-10-07T12:00	3200	698	4.1	-14.4	44	11	
2025-10-07T12:00	3220	696	3.9	-14.5	45	11	
2025-10-07T12:00	3240	694	3.7	-14.6	45	11	
2025-10-07T12:00	3260	692	3.5	-15.6	46	11	
2025-10-07T12:00	3280	691	3.4	-16.7	45	11	
2025-10-07T12:00	3300	689	3.3	-15.7	45	11	
2025-10-07T12:00	3320	687	3.1	-14.8	44	11	
2025-10-07T12:00	3340	685	3.0	-13.5	44	11	
2025-10-07T12:00	3360	684	3.0	-16.3	44	11	
2025-10-07T12:00	3380	682	2.9	-17.4	43	11	
2025-10-07T12:00	3400	681	2.8	-17.7	43	11	
2025-10-07T12:00	3420	679	2.6	-10.4	43	11	
2025-10-07T12:00	3440	677	2.4	-8.0	43	11	
2025-10-07T12:00	3460	676	2.3	-8.0	44	11	
2025-10-07T12:00	3480	674	2.1	-8.0	44	11	
2025-10-07T12:00	3500	672	1.9	-8.0	46	11	
2025-10-07T12:00	3520	670	1.8	-7.7	47	11	
2025-10-07T12:00	3540	669	1.7	-7.3	48	11	
2025-10-07T12:00	3560	667	1.5	-7.5	48	10	
2025-10-07T12:00	3580	665	1.4	-7.9	46	10	
2025-10-07T12:00	3600	664	1.2	-8.7	43	10	
2025-10-07T12:00	3620	662	1.1	-9.0	39	10	
2025-10-07T12:00	3640	660	1.0	-9.3	36	10	
2025-10-07T12:00	3660	659	1.0	-10.0	33	10	
2025-10-07T12:00	3680	657	1.0	-11.7	33	11	
2025-10-07T12:00	3700	656	1.1	-13.5	34	11	
2025-10-07T12:00	3720	654	1.1	-13.8	36	11	
2025-10-07T12:00	3740	652	1.0	-14.3	38	12	
2025-10-07T12:00	3760	651	1.0	-17.3	39	12	
2025-10-07T12:00	3780	649	1.1	-16.9	40	12	
2025-10-07T12:00	3800	647	1.1	-17.8	39	12	
2025-10-07T12:00	3820	646	1.2	-20.5	38	12	
2025-10-07T12:00	3840	644	1.1	-21.7	36	12	
2025-10-07T12:00	3860	643	1.1	-22.0	34	12	
2025-10-07T12:00	3880	641	1.1	-22.5	31	12	
2025-10-07T12:00	3900	640	1.1	-23.3	29	12	
2025-10-07T12:00	3920	638	1.1	-23.4	27	12	
2025-10-07T12:00	3940	636	1.0	-24.1	25	12	
2025-10-07T12:00	3960	635	1.0	-25.0	24	13	
2025-10-07T12:00	3980	633	1.0	-25.9	23	13	
2025-10-07T12:00	4000	632	0.9	-25.8	22	13	
2025-10-07T12:00	4020	630	0.7	-25.8	21	13	
2025-10-07T12:00	4040	628	0.5	-26.1	21	13	
2025-10-07T12:00	4060	627	0.4	-26.3	22	13	
2025-10-07T12:00	4080	625	0.3	-26.6	23	12	
2025-10-07T12:00	4100	624	0.2	-26.6	24	12	
2025-10-07T12:00	4120	622	0.1	-26.3	26	12	
2025-10-07T12:00	4140	621	-0.1	-26.3	28	12	
2025-10-07T12:00	4160	619	-0.2	-26.3	29	12	
2025-10-07T12:00	4180	617	-0.3	-26.0	31	12	
2025-10-07T12:00	4200	616	-0.5	-26.1	32	12	
2025-10-07T12:00	4220	614	-0.7	-26.3	31	12	
2025-10-07T12:00	4240	613	-0.8	-26.8	30	12	
2025-10-07T12:00	4260	611	-1.0	-26.7	27	12	
2025-10-07T12:00	4280	610	-1.1	-26.6	24	12	
2025-10-07T12:00	4300	608	-1.3	-26.8	22	13	
2025-10-07T12:00	4320	607	-1.4	-27.3	20	13	
2025-10-07T12:00	4340	605	-1.4	-27.6	18	13	
2025-10-07T12:00	4360	604	-1.5	-27.6	17	14	
2025-10-07T12:00	4380	602	-1.6	-27.3	17	14	
2025-10-07T12:00	4400	600	-1.7	-27.4	17	14	
2025-10-07T12:00	4420	599	-1.8	-27.8	16	13	
2025-10-07T12:00	4440	598	-1.8	-28.2	16	13	
2025-10-07T12:00	4460	596	-1.8	-28.1	16	13	
2025-10-07T12:00	4480	595	-1.9	-27.8	16	13	
2025-10-07T12:00	4500	593	-2.0	-27.1	15	13	
2025-10-07T12:00	4520	592	-2.0	-28.7	15	12	
2025-10-07T12:00	4540	590	-2.1	-28.6	14	12	
2025-10-07T12:00	4560	589	-2.2	-27.1	13	12	
2025-10-07T12:00	4580	587	-2.4	-26.2	11	12	
2025-10-07T12:00	4600	586	-2.5	-26.3	10	12	
2025-10-07T12:00	4620	584	-2.5	-27.0	9	13	
2025-10-07T12:00	4640	583	-2.6	-27.1	8	13	
2025-10-07T12:00	4660	581	-2.7	-27.3	7	13	
2025-10-07T12:00	4680	580	-2.8	-25.4	8	13	
2025-10-07T12:00	4700	578	-2.9	-23.5	8	13	
2025-10-07T12:00	4720	577	-2.9	-24.0	9	13	
2025-10-07T12:00	4740	575	-3.0	-24.9	10	13	
2025-10-07T12:00	4760	574	-3.0	-23.7	11	13	
2025-10-07T12:00	4780	573	-3.1	-22.2	11	13	
2025-10-07T12:00	4800	571	-3.2	-20.5	11	13	
2025-10-07T12:00	4820	570	-3.4	-19.3	11	13	
2025-10-07T12:00	4840	568	-3.5	-18.6	10	14	
2025-10-07T12:00	4860	567	-3.6	-18.0	10	14	
2025-10-07T12:00	4880	565	-3.7	-18.4	10	14	
2025-10-07T12:00	4900	564	-3.8	-18.8	10	14	
2025-10-07T12:00	4920	563	-3.9	-19.1	10	14	
2025-10-07T12:00	4940	561	-4.1	-19.7	11	14	
2025-10-07T12:00	4960	560	-4.2	-19.8	11	14	
2025-10-07T12:00	4980	558	-4.3	-20.1	11	14	
2025-10-07T12:00	5000	557	-4.4	-21.2	11	14	
2025-10-07T12:00	5020	555	-4.5	-21.9	11	13	
2025-10-07T12:00	5040	554	-4.5	-22.7	11	13	
2025-10-07T12:00	5060	553	-4.5	-23.9	11	13	
2025-10-07T12:00	5080	551	-4.5	-21.6	10	13	
2025-10-07T12:00	5100	550	-4.6	-20.0	10	13	
2025-10-07T12:00	5120	548	-4.7	-20.8	9	13	
2025-10-07T12:00	5140	547	-4.9	-20.1	8	13	
2025-10-07T12:00	5160	546	-5.0	-20.1	7	13	
2025-10-07T12:00	5180	544	-5.2	-19.6	6	13	
2025-10-07T12:00	5200	543	-5.2	-20.8	5	13	
2025-10-07T12:00	5220	542	-5.3	-20.1	4	13	
2025-10-07T12:00	5240	540	-5.4	-19.8	2	13	
2025-10-07T12:00	5260	539	-5.5	-19.6	1	13	
2025-10-07T12:00	5280	537	-5.6	-19.4	359	14	
2025-10-07T12:00	5300	536	-5.8	-19.2	358	14	
2025-10-07T12:00	5320	535	-6.0	-19.2	357	14	
2025-10-07T12:00	5340	533	-6.2	-19.2	357	14	
2025-10-07T12:00	5360	532	-6.3	-19.0	356	15	
2025-10-07T12:00	5380	530	-6.5	-18.8	356	15	
2025-10-07T12:00	5400	529	-6.6	-18.8	356	15	
2025-10-07T12:00	5420	528	-6.7	-18.7	356	14	
2025-10-07T12:00	5440	526	-6.9	-18.7	355	14	
2025-10-07T12:00	5460	525	-7.0	-19.0	355	14	
2025-10-07T12:00	5480	524	-7.2	-19.2	355	14	
2025-10-07T12:00	5500	522	-7.3	-19.4	355	14	
2025-10-07T12:00	5520	521	-7.5	-19.6	354	14	
2025-10-07T12:00	5540	520	-7.7	-19.6	354	14	
2025-10-07T12:00	5560	518	-7.9	-19.6	352	14	
2025-10-07T12:00	5580	517	-8.1	-19.6	350	14	
2025-10-07T12:00	5600	516	-8.2	-19.8	349	14	
2025-10-07T12:00	5620	514	-8.4	-20.2	347	15	
2025-10-07T12:00	5640	513	-8.4	-20.6	345	15	
2025-10-07T12:00	5660	512	-8.6	-21.0	344	15	
2025-10-07T12:00	5680	510	-8.8	-21.6	344	15	
2025-10-07T12:00	5700	509	-8.9	-21.7	343	15	
2025-10-07T12:00	5720	508	-9.1	-21.9	344	15	
2025-10-07T12:00	5740	507	-9.3	-22.4	344	15	
2025-10-07T12:00	5760	505	-9.4	-22.5	344	15	
2025-10-07T12:00	5780	504	-9.6	-22.5	344	15	
2025-10-07T12:00	5800	502	-9.8	-22.4	344	15	
2025-10-07T12:00	5820	501	-9.9	-22.2	344	15	
2025-10-07T12:00	5840	500	-10.1	-22.0	343	15	
2025-10-07T12:00	5860	499	-10.3	-21.9	343	15	
2025-10-07T12:00	5880	497	-10.4	-21.9	343	15	
2025-10-07T12:00	5900	496	-10.5	-21.6	343	15	
2025-10-07T12:00	5920	495	-10.6	-21.5	343	15	
2025-10-07T12:00	5940	494	-10.8	-21.5	343	15	
2025-10-07T12:00	5960	492	-11.0	-21.6	343	15	
2025-10-07T12:00	5980	491	-11.2	-21.6	343	15	
2025-10-07T12:00	6000	490	-11.4	-21.7	342	15	
2025-10-07T12:00	6020	488	-11.5	-21.6	341	15	
2025-10-07T12:00	6040	487	-11.7	-21.6	340	15	
2025-10-07T12:00	6060	486	-11.8	-21.7	339	15	
2025-10-07T12:00	6080	485	-11.9	-22.4	339	14	
2025-10-07T12:00	6100	483	-12.0	-23.0	339	14	
2025-10-07T12:00	6120	482	-12.1	-23.4	339	14	
2025-10-07T12:00	6140	481	-12.2	-23.9	340	15	
2025-10-07T12:00	6160	480	-12.3	-24.4	342	15	
2025-10-07T12:00	6180	478	-12.4	-24.3	343	15	
2025-10-07T12:00	6200	477	-12.6	-24.1	344	15	
2025-10-07T12:00	6220	476	-12.7	-24.2	345	15	
2025-10-07T12:00	6240	475	-12.9	-24.2	345	16	
2025-10-07T12:00	6260	473	-13.1	-24.1	344	15	
2025-10-07T12:00	6280	472	-13.3	-24.2	343	15	
2025-10-07T12:00	6300	471	-13.4	-24.8	342	15	
2025-10-07T12:00	6320	470	-13.6	-25.4	341	15	
2025-10-07T12:00	6340	468	-13.7	-24.8	340	15	
2025-10-07T12:00	6360	467	-13.9	-23.1	340	15	
2025-10-07T12:00	6380	466	-14.1	-23.3	340	15	
2025-10-07T12:00	6400	465	-14.2	-24.6	340	15	
2025-10-07T12:00	6420	463	-14.4	-24.8	341	15	
2025-10-07T12:00	6440	462	-14.6	-24.8	341	15	
2025-10-07T12:00	6460	461	-14.8	-24.9	341	15	
2025-10-07T12:00	6480	460	-14.9	-25.0	341	15	
2025-10-07T12:00	6500	459	-15.1	-25.4	340	16	
2025-10-07T12:00	6520	457	-15.3	-25.3	339	16	
2025-10-07T12:00	6540	456	-15.4	-25.5	338	16	
2025-10-07T12:00	6560	455	-15.6	-25.5	337	16	
2025-10-07T12:00	6580	454	-15.8	-25.6	337	16	
2025-10-07T12:00	6600	452	-15.9	-26.3	337	17	
2025-10-07T12:00	6620	451	-16.1	-25.8	337	17	
2025-10-07T12:00	6640	450	-16.2	-25.1	337	17	
2025-10-07T12:00	6660	449	-16.3	-24.6	337	17	
2025-10-07T12:00	6680	448	-16.4	-25.2	338	17	
2025-10-07T12:00	6700	447	-16.5	-25.1	338	16	
2025-10-07T12:00	6720	445	-16.7	-24.8	337	16	
2025-10-07T12:00	6740	444	-16.8	-25.2	337	16	
2025-10-07T12:00	6760	443	-17.0	-25.7	336	16	
2025-10-07T12:00	6780	442	-17.2	-26.2	336	16	
2025-10-07T12:00	6800	441	-17.3	-26.2	335	16	
2025-10-07T12:00	6820	439	-17.5	-26.6	335	16	
2025-10-07T12:00	6840	438	-17.6	-27.0	335	15	
2025-10-07T12:00	6860	437	-17.8	-27.4	335	15	
2025-10-07T12:00	6880	436	-18.0	-28.3	336	15	
2025-10-07T12:00	6900	435	-18.2	-28.8	337	15	
2025-10-07T12:00	6920	434	-18.3	-29.1	337	14	
2025-10-07T12:00	6940	432	-18.5	-29.1	338	14	
2025-10-07T12:00	6960	431	-18.7	-29.1	339	15	
2025-10-07T12:00	6980	430	-18.9	-29.1	340	15	
2025-10-07T12:00	7000	429	-19.1	-29.3	340	15	
2025-10-07T12:00	7020	428	-19.2	-29.5	340	15	
2025-10-07T12:00	7040	427	-19.4	-29.6	340	16	
2025-10-07T12:00	7060	426	-19.6	-29.7	340	16	
2025-10-07T12:00	7080	424	-19.8	-29.7	340	16	
2025-10-07T12:00	7100	423	-20.0	-29.7	340	16	
2025-10-07T12:00	7120	422	-20.2	-29.7	339	16	
2025-10-07T12:00	7140	421	-20.3	-29.7	339	16	
2025-10-07T12:00	7160	420	-20.5	-29.9	339	16	
2025-10-07T12:00	7180	419	-20.7	-29.9	339	16	
2025-10-07T12:00	7200	418	-20.8	-30.2	339	16	
2025-10-07T12:00	7220	417	-20.9	-30.4	339	16	
2025-10-07T12:00	7240	415	-21.1	-30.4	339	16	
2025-10-07T12:00	7260	414	-21.2	-30.4	340	16	
2025-10-07T12:00	7280	413	-21.4	-30.2	340	15	
2025-10-07T12:00	7300	412	-21.5	-30.2	341	15	
2025-10-07T12:00	7320	411	-21.7	-30.4	341	15	
2025-10-07T12:00	7340	410	-21.8	-30.6	342	15	
2025-10-07T12:00	7360	409	-22.0	-30.5	343	15	
2025-10-07T12:00	7380	408	-22.2	-30.7	343	15	
2025-10-07T12:00	7400	406	-22.3	-30.9	344	16	
2025-10-07T12:00	7420	405	-22.5	-31.2	344	16	
2025-10-07T12:00	7440	404	-22.6	-30.8	344	16	
2025-10-07T12:00	7460	403	-22.8	-30.2	344	16	
2025-10-07T12:00	7480	402	-23.0	-30.4	344	17	
2025-10-07T12:00	7500	401	-23.2	-30.8	344	17	
2025-10-07T12:00	7520	400	-23.4	-31.2	344	17	
2025-10-07T12:00	7540	399	-23.6	-31.5	344	17	
2025-10-07T12:00	7560	398	-23.7	-31.5	344	17	
2025-10-07T12:00	7580	397	-23.9	-31.3	345	17	
2025-10-07T12:00	7600	395	-24.1	-31.7	345	17	
2025-10-07T12:00	7620	394	-24.2	-31.9	345	18	
2025-10-07T12:00	7640	393	-24.4	-31.9	345	18	
2025-10-07T12:00	7660	392	-24.5	-31.8	345	18	
2025-10-07T12:00	7680	391	-24.7	-31.7	344	18	
2025-10-07T12:00	7700	390	-24.8	-31.4	344	18	
2025-10-07T12:00	7720	389	-25.0	-31.5	343	18	
2025-10-07T12:00	7740	388	-25.1	-31.6	342	18	
2025-10-07T12:00	7760	387	-25.3	-31.5	341	19	
2025-10-07T12:00	7780	386	-25.5	-31.6	340	19	
2025-10-07T12:00	7800	385	-25.7	-31.5	339	19	
2025-10-07T12:00	7820	384	-25.6	-31.1	338	19	
2025-10-07T12:00	7840	383	-25.6	-31.4	338	18	
2025-10-07T12:00	7860	382	-25.8	-31.4	337	18	
2025-10-07T12:00	7880	381	-26.0	-31.7	337	18	
2025-10-07T12:00	7900	379	-26.2	-32.0	338	18	
2025-10-07T12:00	7920	378	-26.3	-32.2	338	18	
2025-10-07T12:00	7940	377	-26.5	-32.4	339	17	
2025-10-07T12:00	7960	376	-26.7	-32.5	339	17	
2025-10-07T12:00	7980	375	-26.8	-32.6	339	17	
2025-10-07T12:00	8000	374	-27.0	-33.0	340	17	
2025-10-07T12:00	8020	373	-27.2	-33.1	340	17	
2025-10-07T12:00	8040	372	-27.4	-33.0	340	17	
2025-10-07T12:00	8060	371	-27.6	-33.1	339	17	
2025-10-07T12:00	8080	370	-27.8	-33.0	339	16	
2025-10-07T12:00	8100	369	-28.0	-33.1	339	16	
2025-10-07T12:00	8120	368	-28.2	-33.2	338	16	
2025-10-07T12:00	8140	367	-28.3	-33.2	338	16	
2025-10-07T12:00	8160	366	-28.5	-33.4	337	16	
2025-10-07T12:00	8180	365	-28.7	-33.7	336	16	
2025-10-07T12:00	8200	364	-28.9	-33.9	335	16	
2025-10-07T12:00	8220	363	-29.1	-34.0	333	16	
2025-10-07T12:00	8240	362	-29.3	-34.3	332	17	
2025-10-07T12:00	8260	361	-29.4	-34.5	331	17	
2025-10-07T12:00	8280	360	-29.6	-34.7	331	17	
2025-10-07T12:00	8300	359	-29.8	-34.5	331	18	
2025-10-07T12:00	8320	358	-30.0	-34.5	331	18	
2025-10-07T12:00	8340	357	-30.2	-34.2	331	18	
2025-10-07T12:00	8360	356	-30.4	-33.2	332	18	
2025-10-07T12:00	8380	355	-30.6	-32.7	332	18	
2025-10-07T12:00	8400	354	-30.7	-32.6	332	18	
2025-10-07T12:00	8420	353	-30.9	-32.7	332	18	
2025-10-07T12:00	8440	352	-31.0	-32.6	332	18	
2025-10-07T12:00	8460	351	-31.2	-32.9	332	18	
2025-10-07T12:00	8480	350	-31.4	-33.8	332	18	
2025-10-07T12:00	8500	349	-31.5	-34.3	332	18	
2025-10-07T12:00	8520	348	-31.7	-34.8	332	18	
2025-10-07T12:00	8540	347	-31.9	-34.9	331	18	
2025-10-07T12:00	8560	346	-32.0	-34.8	331	18	
2025-10-07T12:00	8580	345	-32.2	-34.4	331	18	
2025-10-07T12:00	8600	344	-32.3	-34.0	331	18	
2025-10-07T12:00	8620	343	-32.5	-33.8	330	19	
2025-10-07T12:00	8640	342	-32.7	-33.8	330	19	
2025-10-07T12:00	8660	341	-32.8	-34.1	329	20	
2025-10-07T12:00	8680	340	-33.0	-34.6	329	20	
2025-10-07T12:00	8700	339	-33.0	-35.0	328	20	
2025-10-07T12:00	8720	338	-33.2	-35.0	328	21	
2025-10-07T12:00	8740	337	-33.3	-34.9	327	21	
2025-10-07T12:00	8760	336	-33.5	-34.8	328	21	
2025-10-07T12:00	8780	335	-33.7	-34.8	328	22	
2025-10-07T12:00	8800	334	-33.9	-34.7	329	22	
2025-10-07T12:00	8820	333	-34.1	-34.6	330	22	
2025-10-07T12:00	8840	332	-34.2	-35.0	330	22	
2025-10-07T12:00	8860	332	-34.3	-35.3	331	23	
2025-10-07T12:00	8880	331	-34.4	-35.5	331	23	
2025-10-07T12:00	8900	330	-34.6	-35.8	331	23	
2025-10-07T12:00	8920	329	-34.8	-36.1	331	23	
2025-10-07T12:00	8940	328	-35.0	-36.6	331	22	
2025-10-07T12:00	8960	327	-35.1	-36.9	331	22	
2025-10-07T12:00	8980	326	-35.3	-36.9	331	22	
2025-10-07T12:00	9000	325	-35.4	-36.8	332	22	
2025-10-07T12:00	9020	324	-35.6	-36.9	333	22	
2025-10-07T12:00	9040	323	-35.8	-37.1	333	22	
2025-10-07T12:00	9060	322	-35.9	-37.5	334	22	
2025-10-07T12:00	9080	321	-36.0	-37.9	334	22	
2025-10-07T12:00	9100	320	-36.1	-38.1	334	23	
2025-10-07T12:00	9120	319	-36.3	-38.3	335	23	
2025-10-07T12:00	9140	318	-36.5	-38.4	335	23	
2025-10-07T12:00	9160	318	-36.6	-38.4	335	23	
2025-10-07T12:00	9180	317	-36.8	-38.4	335	23	
2025-10-07T12:00	9200	316	-37.0	-38.8	335	24	
2025-10-07T12:00	9220	315	-37.2	-38.8	335	24	
2025-10-07T12:00	9240	314	-37.4	-39.0	335	24	
2025-10-07T12:00	9260	313	-37.5	-39.2	335	24	
2025-10-07T12:00	9280	312	-37.7	-39.4	335	24	
2025-10-07T12:00	9300	311	-37.8	-39.5	335	24	
2025-10-07T12:00	9320	310	-38.0	-39.8	335	24	
2025-10-07T12:00	9340	309	-38.2	-40.0	335	24	
2025-10-07T12:00	9360	308	-38.4	-40.1	335	24	
2025-10-07T12:00	9380	308	-38.5	-40.1	335	24	
2025-10-07T12:00	9400	307	-38.7	-40.2	335	24	
2025-10-07T12:00	9420	306	-38.9	-40.4	335	24	
2025-10-07T12:00	9440	305	-39.1	-40.4	335	24	
2025-10-07T12:00	9460	304	-39.2	-40.6	335	25	
2025-10-07T12:00	9480	303	-39.4	-41.1	335	25	
2025-10-07T12:00	9500	302	-39.6	-41.2	335	25	
2025-10-07T12:00	9520	301	-39.7	-41.7	335	25	
2025-10-07T12:00	9540	301	-39.8	-42.2	335	25	
2025-10-07T12:00	9560	300	-40.0	-42.2	335	25	
2025-10-07T12:00	9580	299	-40.1	-42.1	335	25	
2025-10-07T12:00	9600	298	-40.3	-42.3	335	25	
2025-10-07T12:00	9620	297	-40.4	-42.7	335	25	
2025-10-07T12:00	9640	296	-40.5	-43.0	334	25	
2025-10-07T12:00	9660	295	-40.7	-43.2	334	25	
2025-10-07T12:00	9680	294	-40.8	-43.4	333	24	
2025-10-07T12:00	9700	294	-41.0	-43.8	332	24	
2025-10-07T12:00	9720	293	-41.1	-44.0	331	24	
2025-10-07T12:00	9740	292	-41.3	-44.2	330	24	
2025-10-07T12:00	9760	291	-41.4	-44.1	330	24	
2025-10-07T12:00	9780	290	-41.6	-44.0	329	25	
2025-10-07T12:00	9800	289	-41.7	-44.2	329	25	
2025-10-07T12:00	9820	288	-41.9	-44.5	329	25	
2025-10-07T12:00	9840	288	-42.1	-44.6	329	25	
2025-10-07T12:00	9860	287	-42.2	-44.8	329	25	
2025-10-07T12:00	9880	286	-42.4	-45.0	329	25	
2025-10-07T12:00	9900	285	-42.5	-45.2	329	25	
2025-10-07T12:00	9920	284	-42.7	-45.3	329	25	
2025-10-07T12:00	9940	283	-42.8	-45.7	329	25	
2025-10-07T12:00	9960	282	-43.0	-45.9	329	25	
2025-10-07T12:00	9980	282	-43.2	-45.8	330	25	
2025-10-07T12:00	10000	281	-43.3	-46.1	330	25	
2025-10-07T12:00	10018	280	-43.5	-46.5	330	25	
2025-10-07T12:00	10050	279	-43.7	-46.5	331	25	
2025-10-07T12:00	10100	277	-44.2	-46.9	331	26	
2025-10-07T12:00	10150	274	-44.6	-48.2	330	26	
2025-10-07T12:00	10200	272	-45.0	-49.0	328	26	
2025-10-07T12:00	10250	270	-45.4	-48.9	327	26	
2025-10-07T12:00	10300	268	-45.9	-48.9	327	27	
2025-10-07T12:00	10350	267	-46.3	-49.3	327	27	
2025-10-07T12:00	10400	264	-46.7	-50.5	327	27	
2025-10-07T12:00	10450	262	-47.2	-52.0	327	26	
2025-10-07T12:00	10500	260	-47.6	-52.1	328	26	
2025-10-07T12:00	10550	259	-48.0	-52.5	329	27	
2025-10-07T12:00	10600	257	-48.5	-52.6	330	27	
2025-10-07T12:00	10650	255	-48.9	-52.8	331	27	
2025-10-07T12:00	10700	253	-49.3	-53.7	332	27	
2025-10-07T12:00	10750	251	-49.7	-54.1	332	27	
2025-10-07T12:00	10800	249	-50.1	-54.4	331	27	
2025-10-07T12:00	10850	247	-50.4	-54.6	329	27	
2025-10-07T12:00	10900	245	-50.8	-55.1	329	26	
2025-10-07T12:00	10950	243	-51.3	-55.6	329	25	
2025-10-07T12:00	11000	241	-51.7	-56.0	330	24	
2025-10-07T12:00	11050	239	-52.0	-56.7	330	24	
2025-10-07T12:00	11100	238	-52.3	-57.7	331	24	
2025-10-07T12:00	11150	236	-52.5	-58.4	330	24	
2025-10-07T12:00	11200	234	-52.8	-59.8	329	24	
2025-10-07T12:00	11250	232	-52.9	-63.0	328	24	
2025-10-07T12:00	11300	230	-53.0	-64.5	328	24	
2025-10-07T12:00	11350	229	-53.3	-61.5	327	23	
2025-10-07T12:00	11400	227	-53.7	-61.7	327	23	
2025-10-07T12:00	11450	225	-53.8	-62.4	327	23	
2025-10-07T12:00	11500	223	-54.1	-63.4	326	23	
2025-10-07T12:00	11550	222	-54.3	-64.9	326	23	
2025-10-07T12:00	11600	220	-54.5	-66.5	327	24	
2025-10-07T12:00	11650	218	-54.6	-67.3	326	24	
2025-10-07T12:00	11700	216	-54.9	-67.3	326	24	
2025-10-07T12:00	11750	215	-55.2	-67.0	327	25	
2025-10-07T12:00	11800	213	-55.4	-66.5	328	25	
2025-10-07T12:00	11850	211	-55.7	-66.3	330	25	
2025-10-07T12:00	11900	210	-56.1	-66.2	332	24	
2025-10-07T12:00	11950	208	-56.5	-66.3	333	24	
2025-10-07T12:00	12000	206	-56.7	-66.9	333	25	
2025-10-07T12:00	12050	205	-57.0	-67.4	333	25	
2025-10-07T12:00	12100	203	-57.2	-67.7	333	25	
2025-10-07T12:00	12150	202	-57.3	-68.8	333	26	
2025-10-07T12:00	12200	200	-57.4	-69.7	334	26	
2025-10-07T12:00	12250	198	-57.6	-69.3	335	26	
2025-10-07T12:00	12300	197	-57.8	-69.1	336	25	
2025-10-07T12:00	12350	195	-57.9	-69.7	336	25	
2025-10-07T12:00	12400	194	-57.9	-71.2	336	24	
2025-10-07T12:00	12450	192	-57.9	-72.1	335	24	
2025-10-07T12:00	12500	191	-57.7	-72.2	334	23	
2025-10-07T12:00	12550	189	-57.8	-71.9	333	23	
2025-10-07T12:00	12600	188	-58.1	-72.0	332	23	
2025-10-07T12:00	12650	186	-58.3	-72.3	332	23	
2025-10-07T12:00	12700	185	-58.7	-72.7	334	23	
2025-10-07T12:00	12750	183	-59.0	-73.0	337	22	
2025-10-07T12:00	12800	182	-59.2	-73.4	339	23	
2025-10-07T12:00	12850	180	-59.4	-73.5	340	23	
2025-10-07T12:00	12900	179	-59.7	-73.6	339	23	
2025-10-07T12:00	12950	178	-60.0	-73.5	337	23	
2025-10-07T12:00	13000	176	-60.3	-73.8	335	23	
2025-10-07T12:00	13050	175	-60.6	-74.1	333	22	
2025-10-07T12:00	13100	173	-60.5	-74.2	332	22	
2025-10-07T12:00	13150	172	-60.5	-74.4	331	22	
2025-10-07T12:00	13200	171	-60.6	-74.5	330	22	
2025-10-07T12:00	13250	169	-60.9	-75.0	329	22	
2025-10-07T12:00	13300	168	-60.7	-75.7	329	21	
2025-10-07T12:00	13350	166	-60.5	-76.8	329	21	
2025-10-07T12:00	13400	165	-60.2	-77.3	330	21	
2025-10-07T12:00	13450	164	-60.2	-77.1	331	20	
2025-10-07T12:00	13500	162	-60.6	-77.1	333	20	
2025-10-07T12:00	13550	161	-60.8	-77.0	336	20	
2025-10-07T12:00	13600	160	-61.0	-77.1	338	20	
2025-10-07T12:00	13650	159	-61.2	-77.1	337	21	
2025-10-07T12:00	13700	157	-61.4	-77.2	336	21	
2025-10-07T12:00	13750	156	-61.6	-77.4	335	21	
2025-10-07T12:00	13800	155	-61.9	-77.8	333	21	
2025-10-07T12:00	13850	154	-62.1	-78.2	331	20	
2025-10-07T12:00	13900	152	-62.4	-78.8	328	20	
2025-10-07T12:00	13950	151	-62.5	-79.4	325	20	
2025-10-07T12:00	14000	150	-62.2	-79.8	323	20	
2025-10-07T12:00	14050	149	-62.0	-80.0	321	21	
2025-10-07T12:00	14100	148	-62.1	-80.3	320	22	
2025-10-07T12:00	14150	146	-62.4	-80.3	318	23	
2025-10-07T12:00	14200	145	-62.6	-80.4	316	24	
2025-10-07T12:00	14250	144	-62.6	-80.5	316	24	
2025-10-07T12:00	14300	143	-62.3	-80.9	319	24	
2025-10-07T12:00	14350	142	-62.4	-81.2	322	23	
2025-10-07T12:00	14400	140	-62.7	-81.3	325	23	
2025-10-07T12:00	14450	139	-62.9	-81.4	328	22	
2025-10-07T12:00	14500	138	-63.0	-81.6	331	21	
2025-10-07T12:00	14550	137	-63.0	-81.8	333	20	
2025-10-07T12:00	14600	136	-63.2	-82.0	335	19	
2025-10-07T12:00	14650	135	-63.3	-82.1	339	18	
2025-10-07T12:00	14700	134	-63.6	-82.2	343	17	
2025-10-07T12:00	14750	133	-63.9	-82.3	346	17	
2025-10-07T12:00	14800	132	-64.3	-82.3	346	16	
2025-10-07T12:00	14850	131	-64.7	-82.4	346	16	
2025-10-07T12:00	14900	130	-65.2	-82.6	347	16	
2025-10-07T12:00	14950	128	-65.5	-82.7	348	15	
2025-10-07T12:00	15000	127	-65.8	-82.8	347	14	
2025-10-07T12:00	15050	126	-66.1	-82.8	345	14	
2025-10-07T12:00	15100	125	-66.5	-82.9	343	13	
2025-10-07T12:00	15150	124	-66.8	-83.0	340	12	
2025-10-07T12:00	15200	123	-67.2	-83.1	334	12	
2025-10-07T12:00	15250	122	-67.4	-83.2	326	12	
2025-10-07T12:00	15300	121	-67.2	-83.4	323	13	
2025-10-07T12:00	15350	120	-66.7	-83.5	322	14	
2025-10-07T12:00	15400	119	-66.5	-83.7	319	15	
2025-10-07T12:00	15450	118	-66.3	-83.8	315	16	
2025-10-07T12:00	15500	117	-66.2	-83.9	311	17	
2025-10-07T12:00	15550	116	-65.8	-83.8	309	19	
2025-10-07T12:00	15600	115	-65.6	-83.9	311	20	
2025-10-07T12:00	15650	114	-65.3	-83.9	315	20	
2025-10-07T12:00	15700	113	-65.3	-84.0	320	20	
2025-10-07T12:00	15750	113	-65.1	-84.1	326	20	
2025-10-07T12:00	15800	112	-65.0	-84.2	333	19	
2025-10-07T12:00	15850	111	-64.7	-84.3	340	18	
2025-10-07T12:00	15900	110	-64.2	-84.2	344	16	
2025-10-07T12:00	15950	109	-64.2	-84.3	345	14	
2025-10-07T12:00	16000	108	-64.3	-84.2	344	13	
2025-10-07T12:00	16050	107	-64.4	-84.2	342	12	
2025-10-07T12:00	16100	106	-64.1	-84.0	338	12	
2025-10-07T12:00	16150	105	-64.2	-84.2	336	12	
2025-10-07T12:00	16200	105	-64.2	-84.1	333	13	
2025-10-07T12:00	16250	104	-64.2	-84.1	331	13	
2025-10-07T12:00	16300	103	-64.3	-83.9	333	13	
2025-10-07T12:00	16350	102	-64.2	-83.7	338	14	
2025-10-07T12:00	16400	101	-64.1	-83.6	343	14	
2025-10-07T12:00	16450	100	-64.0	-83.8	345	14	
2025-10-07T12:00	16500	100	-63.3	-83.8	348	14	
2025-10-07T12:00	16550	99	-63.4	-84.1	350	13	
2025-10-07T12:00	16600	98	-63.8	-84.3	350	12	
2025-10-07T12:00	16650	97	-63.9	-84.2	345	13	
2025-10-07T12:00	16700	96	-64.2	-84.3	342	13	
2025-10-07T12:00	16750	96	-64.5	-84.4	342	14	
2025-10-07T12:00	16800	95	-64.5	-84.4	344	14	
2025-10-07T12:00	16850	94	-64.2	-84.4	346	13	
2025-10-07T12:00	16900	93	-64.1	-84.5	348	12	
2025-10-07T12:00	16950	93	-64.1	-84.7	349	10	
2025-10-07T12:00	17000	92	-64.0	-84.9	352	9	
2025-10-07T12:00	17050	91	-63.5	-84.9	352	7	
2025-10-07T12:00	17100	90	-63.4	-84.9	350	6	
2025-10-07T12:00	17150	90	-63.7	-85.0	345	5	
2025-10-07T12:00	17200	89	-64.0	-85.1	340	4	
2025-10-07T12:00	17250	88	-64.2	-85.3	333	3	
2025-10-07T12:00	17300	87	-64.0	-85.2	326	3	
2025-10-07T12:00	17350	87	-64.4	-85.4	319	3	
2025-10-07T12:00	17400	86	-64.8	-85.5	309	4	
2025-10-07T12:00	17450	85	-65.0	-85.7	306	4	
2025-10-07T12:00	17500	85	-64.9	-85.7	309	6	
2025-10-07T12:00	17550	84	-64.9	-85.8	313	6	
2025-10-07T12:00	17600	83	-64.9	-85.9	317	7	
2025-10-07T12:00	17650	82	-64.8	-85.8	322	7	
2025-10-07T12:00	17700	82	-65.0	-85.8	328	8	
2025-10-07T12:00	17750	81	-65.2	-85.9	335	8	
2025-10-07T12:00	17800	80	-65.3	-85.9	345	8	
2025-10-07T12:00	17850	80	-65.4	-85.9	356	8	
2025-10-07T12:00	17900	79	-65.5	-86.0	8	8	
2025-10-07T12:00	17950	78	-65.6	-86.2	14	7	
2025-10-07T12:00	18000	78	-65.3	-86.1	12	7	
2025-10-07T12:00	18050	77	-65.4	-86.4	6	6	
2025-10-07T12:00	18100	77	-65.4	-86.6	0	6	
2025-10-07T12:00	18150	76	-64.8	-86.4	356	5	
2025-10-07T12:00	18200	75	-64.9	-86.5	355	5	
2025-10-07T12:00	18250	75	-65.2	-86.5	358	3	
2025-10-07T12:00	18300	74	-65.5	-86.6	1	2	
2025-10-07T12:00	18350	74	-65.8	-86.6	352	1	
2025-10-07T12:00	18400	73	-66.2	-86.6	330	1	
2025-10-07T12:00	18450	72	-66.6	-86.8	323	1	
2025-10-07T12:00	18500	72	-66.7	-87.1	330	2	
2025-10-07T12:00	18550	71	-66.3	-87.1	329	4	
2025-10-07T12:00	18600	71	-65.8	-87.1	323	5	
2025-10-07T12:00	18650	70	-65.5	-87.2	319	7	
2025-10-07T12:00	18700	69	-65.0	-87.3	324	8	
2025-10-07T12:00	18750	69	-64.0	-86.9	335	8	
2025-10-07T12:00	18800	68	-63.6	-86.8	342	8	
2025-10-07T12:00	18850	68	-63.7	-86.8	340	7	
2025-10-07T12:00	18900	67	-63.3	-86.6	334	7	
2025-10-07T12:00	18950	67	-63.3	-86.6	329	6	
2025-10-07T12:00	19000	66	-63.6	-86.6	327	6	
2025-10-07T12:00	19050	66	-63.5	-86.5	329	6	
2025-10-07T12:00	19100	65	-63.5	-86.4	331	7	
2025-10-07T12:00	19150	65	-63.7	-86.5	334	7	
2025-10-07T12:00	19200	64	-63.9	-86.7	339	7	
2025-10-07T12:00	19250	63	-63.9	-86.7	343	7	
2025-10-07T12:00	19300	63	-63.9	-86.9	344	6	
2025-10-07T12:00	19350	62	-63.3	-86.7	346	3	
2025-10-07T12:00	19400	62	-63.0	-86.8	347	2	
2025-10-07T12:00	19450	61	-62.4	-86.6	322	1	
2025-10-07T12:00	19500	61	-61.8	-86.4	303	2	
2025-10-07T12:00	19550	60	-61.7	-86.2	300	3	
2025-10-07T12:00	19600	60	-62.1	-86.2	298	3	
2025-10-07T12:00	19650	59	-62.5	-86.2	303	4	
2025-10-07T12:00	19700	59	-62.8	-86.3	309	4	
2025-10-07T12:00	19750	58	-62.7	-86.5	305	4	
2025-10-07T12:00	19800	58	-62.2	-86.4	291	4	
2025-10-07T12:00	19850	58	-62.1	-86.3	276	4	
2025-10-07T12:00	19900	57	-62.3	-86.3	266	5	
2025-10-07T12:00	19950	57	-62.6	-86.3	259	6	
2025-10-07T12:00	20000	56	-62.9	-86.4	252	7	
2025-10-07T12:00	20050	56	-63.1		245	7	
2025-10-07T12:00	20100	55	-63.3		242	8	
2025-10-07T12:00	20150	55	-63.6		244	8	
2025-10-07T12:00	20200	54	-63.7		249	9	
2025-10-07T12:00	20250	54	-63.7		254	8	
2025-10-07T12:00	20300	54	-63.5		256	8	
2025-10-07T12:00	20350	53	-63.1		257	8	
2025-10-07T12:00	20400	53	-63.0		259	7	
2025-10-07T12:00	20450	52	-63.2		263	7	
2025-10-07T12:00	20500	52	-63.5		271	7	
2025-10-07T12:00	20550	51	-63.4		283	6	
2025-10-07T12:00	20600	51	-63.5		296	6	
2025-10-07T12:00	20650	51	-63.1		311	5	
2025-10-07T12:00	20700	50	-62.4		331	4	
2025-10-07T12:00	20750	50	-62.3		346	5	
2025-10-07T12:00	20800	49	-61.6		1	5	
2025-10-07T12:00	20850	49	-60.9		17	6	
2025-10-07T12:00	20900	49	-60.6		31	6	
2025-10-07T12:00	20950	48	-60.7		42	6	
2025-10-07T12:00	21000	48	-61.0		52	7	
2025-10-07T12:00	21050	47	-61.0		59	7	
2025-10-07T12:00	21100	47	-61.0		61	7	
2025-10-07T12:00	21150	47	-61.1		63	7	
2025-10-07T12:00	21200	46	-60.9		68	6	
2025-10-07T12:00	21250	46	-60.9		78	4	
2025-10-07T12:00	21300	46	-61.0		94	3	
2025-10-07T12:00	21350	45	-61.1		125	2	
2025-10-07T12:00	21400	45	-61.1		164	1	
2025-10-07T12:00	21450	44	-60.8		189	1	
2025-10-07T12:00	21500	44	-60.5		203	1	
2025-10-07T12:00	21550	44	-60.4		225	2	
2025-10-07T12:00	21600	43	-60.5		251	2	
2025-10-07T12:00	21650	43	-60.8		265	3	
2025-10-07T12:00	21700	43	-61.3		270	3	
2025-10-07T12:00	21750	42	-61.6		273	3	
2025-10-07T12:00	21800	42	-61.6		270	2	
2025-10-07T12:00	21850	42	-61.4		259	2	
2025-10-07T12:00	21900	41	-61.5		242	2	
2025-10-07T12:00	21950	41	-61.2		221	2	
2025-10-07T12:00	22000	41	-61.5		204	2	
2025-10-07T12:00	22050	40	-61.5		198	2	
2025-10-07T12:00	22100	40	-61.1		200	2	
2025-10-07T12:00	22150	40	-61.3		204	2	
2025-10-07T12:00	22200	39	-61.6		205	2	
2025-10-07T12:00	22250	39	-62.0		197	2	
2025-10-07T12:00	22300	39	-62.2		183	2	
2025-10-07T12:00	22350	38	-62.3		173	2	
2025-10-07T12:00	22400	38	-62.6		173	2	
2025-10-07T12:00	22450	38	-62.8		178	2	
2025-10-07T12:00	22500	37	-63.1		178	1	
2025-10-07T12:00	22550	37	-63.4		140	1	
2025-10-07T12:00	22600	37	-63.7		63	1	
2025-10-07T12:00	22650	37	-63.7		52	2	
2025-10-07T12:00	22700	36	-63.8		53	2	
2025-10-07T12:00	22750	36	-63.8		62	1	
2025-10-07T12:00	22800	36	-63.0		80	1	
2025-10-07T12:00	22850	35	-62.9		108	1	
2025-10-07T12:00	22900	35	-63.1		126	2	
2025-10-07T12:00	22950	35	-63.3		136	3	
2025-10-07T12:00	23000	35	-63.4		149	4	
2025-10-07T12:00	23050	34	-62.8		166	5	
2025-10-07T12:00	23100	34	-61.9		183	6	
2025-10-07T12:00	23150	34	-60.7		198	7	
2025-10-07T12:00	23200	33	-60.2		210	8	
2025-10-07T12:00	23250	33	-60.1		216	8	
2025-10-07T12:00	23300	33	-60.1		217	8	
2025-10-07T12:00	23350	33	-60.3		221	7	
2025-10-07T12:00	23400	32	-60.4		231	6	
2025-10-07T12:00	23450	32	-60.3		241	6	
2025-10-07T12:00	23500	32	-60.3		246	7	
2025-10-07T12:00	23550	32	-60.2		247	7	
2025-10-07T12:00	23600	31	-59.9		248	7	
2025-10-07T12:00	23650	31	-59.9		247	8	
2025-10-07T12:00	23700	31	-60.0		246	8	
2025-10-07T12:00	23750	31	-60.1		250	9	
2025-10-07T12:00	23800	30	-59.8		257	10	
2025-10-07T12:00	23850	30	-59.8		266	10	
2025-10-07T12:00	23900	30	-60.0		274	10	
2025-10-07T12:00	23950	30	-60.1		282	10	
2025-10-07T12:00	24000	29	-59.4		287	10	
2025-10-07T12:00	24050	29	-59.1		287	9	
2025-10-07T12:00	24100	29	-59.0		282	8	
2025-10-07T12:00	24150	29	-58.9		276	8	
2025-10-07T12:00	24200	29	-58.3		273	8	
2025-10-07T12:00	24250	28	-57.6		277	8	
2025-10-07T12:00	24300	28	-57.5		287	8	
2025-10-07T12:00	24350	28	-57.7		299	8	
2025-10-07T12:00	24400	28	-58.0		305	8	
2025-10-07T12:00	24450	27	-58.2		304	8	
2025-10-07T12:00	24500	27	-57.9		295	8	
2025-10-07T12:00	24550	27	-57.7		281	7	
2025-10-07T12:00	24600	27	-58.0		269	8	
2025-10-07T12:00	24650	27	-58.3		261	10	
2025-10-07T12:00	24700	26	-58.5		256	11	
2025-10-07T12:00	24750	26	-58.3		255	12	
2025-10-07T12:00	24800	26	-57.6		256	12	
2025-10-07T12:00	24850	26	-57.2		260	12	
2025-10-07T12:00	24900	26	-57.3		267	11	
2025-10-07T12:00	24950	25	-57.2		274	11	
2025-10-07T12:00	25000	25	-57.3		279	11	
2025-10-07T12:00	25050	25	-57.7		282	11	
2025-10-07T12:00	25100	25	-58.1		279	10	
2025-10-07T12:00	25150	25	-58.1		271	9	
2025-10-07T12:00	25200	24	-57.8		263	9	
2025-10-07T12:00	25250	24	-57.7		258	9	
2025-10-07T12:00	25300	24	-57.6		255	10	
2025-10-07T12:00	25350	24	-57.7		253	11	
2025-10-07T12:00	25400	24	-57.8		252	11	
2025-10-07T12:00	25450	23	-57.8		252	11	
2025-10-07T12:00	25500	23	-57.9		252	9	
2025-10-07T12:00	25550	23	-58.1		249	8	
2025-10-07T12:00	25600	23	-58.3		241	6	
2025-10-07T12:00	25650	23	-58.4		234	5	
2025-10-07T12:00	25700	22	-58.3		233	5	
2025-10-07T12:00	25750	22	-57.9		239	5	
2025-10-07T12:00	25800	22	-57.8		244	5	
2025-10-07T12:00	25850	22	-57.3		245	6	
2025-10-07T12:00	25900	22	-57.0		242	6	
2025-10-07T12:00	25950	22	-56.9		240	6	
2025-10-07T12:00	26000	21	-57.0		236	7	
2025-10-07T12:00	26050	21	-57.2		232	7	
2025-10-07T12:00	26100	21	-57.3		229	8	
2025-10-07T12:00	26150	21	-57.2		230	9	
2025-10-07T12:00	26200	21	-57.0		234	10	
2025-10-07T12:00	26250	21	-56.8		236	11	
2025-10-07T12:00	26300	20	-56.8		235	11	
2025-10-07T12:00	26350	20	-56.9		230	11	
2025-10-07T12:00	26400	20	-56.7		226	11	
2025-10-07T12:00	26450	20	-56.6		227	12	
2025-10-07T12:00	26500	20	-55.6		232	13	
2025-10-07T12:00	26550	20	-54.7		238	14	
2025-10-07T12:00	26600	20	-54.4		241	15	
2025-10-07T12:00	26650	19	-54.0		242	16	
2025-10-07T12:00	26700	19	-53.5		242	17	
2025-10-07T12:00	26750	19	-53.3		241	18	
2025-10-07T12:00	26800	19	-53.5		241	19	
2025-10-07T12:00	26850	19	-53.4		242	18	
2025-10-07T12:00	26900	19	-53.2		244	17	
2025-10-07T12:00	26950	18	-53.5		246	16	
2025-10-07T12:00	27000	18	-53.7		249	14	
2025-10-07T12:00	27050	18	-54.0		254	13	
2025-10-07T12:00	27100	18	-54.2		261	12	
2025-10-07T12:00	27150	18	-54.3		265	12	
2025-10-07T12:00	27200	18	-54.5		265	13	
2025-10-07T12:00	27250	18	-54.4		262	13	
2025-10-07T12:00	27300	17	-54.2		257	13	
2025-10-07T12:00	27350	17	-54.4		252	13	
2025-10-07T12:00	27400	17	-54.3		250	14	
2025-10-07T12:00	27450	17	-54.3		250	16	
2025-10-07T12:00	27500	17	-54.6		253	17	
2025-10-07T12:00	27550	17	-54.4		258	18	
2025-10-07T12:00	27600	17	-53.6		263	18	
2025-10-07T12:00	27650	17	-52.9		268	18	
2025-10-07T12:00	27700	16	-52.7		269	18	
2025-10-07T12:00	27750	16	-52.6		268	18	
2025-10-07T12:00	27800	16	-52.5		265	19	
2025-10-07T12:00	27850	16	-52.8		263	20	
2025-10-07T12:00	27900	16	-53.0		260	19	
2025-10-07T12:00	27950	16	-53.1		257	19	
2025-10-07T12:00	28000	16	-53.1		255	18	
2025-10-07T12:00	28050	16	-53.1		254	17	
2025-10-07T12:00	28100	15	-53.2		255	17	
2025-10-07T12:00	28150	15	-53.1		257	17	
2025-10-07T12:00	28200	15	-53.1		260	17	
2025-10-07T12:00	28250	15	-53.3		261	18	
2025-10-07T12:00	28300	15	-53.4		261	18	
2025-10-07T12:00	28350	15	-53.5		261	19	
2025-10-07T12:00	28400	15	-53.5		261	19	
2025-10-07T12:00	28450	15	-53.3		263	19	
2025-10-07T12:00	28500	15	-53.0		266	20	
2025-10-07T12:00	28550	14	-53.0		268	20	
2025-10-07T12:00	28600	14	-53.2		270	21	
2025-10-07T12:00	28650	14	-53.0		269	21	
2025-10-07T12:00	28700	14	-52.8		268	20	
2025-10-07T12:00	28750	14	-52.5		267	20	
2025-10-07T12:00	28800	14	-52.2		266	19	
2025-10-07T12:00	28850	14	-52.1		263	19	
2025-10-07T12:00	28900	14	-52.1		262	20	
2025-10-07T12:00	28950	14	-51.4		262	20	
2025-10-07T12:00	29000	13	-50.5		264	19	
2025-10-07T12:00	29050	13	-50.4		267	19	
2025-10-07T12:00	29100	13	-50.6		272	19	
2025-10-07T12:00	29150	13	-50.4		274	20	
2025-10-07T12:00	29200	13	-50.2		275	20	
2025-10-07T12:00	29250	13	-50.3		272	20	
2025-10-07T12:00	29300	13	-50.0		270	19	
2025-10-07T12:00	29350	13	-49.9		268	20	
2025-10-07T12:00	29400	13	-49.8		268	20	
2025-10-07T12:00	29450	13	-49.9		266	20	
2025-10-07T12:00	29500	12	-50.0		262	21	
2025-10-07T12:00	29550	12	-50.5		258	22	
2025-10-07T12:00	29600	12	-50.6		256	24	
2025-10-07T12:00	29650	12	-50.3		255	25	
2025-10-07T12:00	29700	12	-50.2		255	26	
2025-10-07T12:00	29750	12	-50.3		256	26	
2025-10-07T12:00	29800	12	-50.1		258	26	
2025-10-07T12:00	29850	12	-50.0		260	26	
2025-10-07T12:00	29900	12	-50.0		262	26	
2025-10-07T12:00	29950	12	-49.5		265	27	
2025-10-07T12:00	30000	12	-48.5		266	27	
2025-10-07T12:00	30050	11	-48.0		267	27	
2025-10-07T12:00	30100	11	-47.9		268	27	
2025-10-07T12:00	30150	11	-48.0		269	26	
2025-10-07T12:00	30200	11	-48.0		269	26	
2025-10-07T12:00	30250	11	-47.9		267	26	
2025-10-07T12:00	30300	11	-48.1		266	26	
2025-10-07T12:00	30350	11	-47.9		266	25	
2025-10-07T12:00	30400	11	-47.8		268	25	
2025-10-07T12:00	30450	11	-48.0		271	24	
2025-10-07T12:00	30500	11	-48.4		273	23	
2025-10-07T12:00	30550	11	-48.8		274	23	
2025-10-07T12:00	30600	11	-49.2		276	22	
2025-10-07T12:00	30650	10	-49.5		277	21	
2025-10-07T12:00	30700	10	-49.8		279	20	
2025-10-07T12:00	30750	10	-49.9		281	19	
2025-10-07T12:00	30800	10	-50.0		282	18	
2025-10-07T12:00	30850	10	-50.4		282	17	
2025-10-07T12:00	30900	10	-50.8		280	16	
2025-10-07T12:00	30950	10	-51.0		278	16	
2025-10-07T12:00	31000	10	-51.1		277	15	
2025-10-07T12:00	31050	10	-51.1		276	15	
2025-10-07T12:00	31100	10	-51.0		277	16	
2025-10-07T12:00	31150	10	-51.0		277	17	
2025-10-07T12:00	31200	10	-51.1		276	18	
2025-10-07T12:00	31250	10	-51.0		275	18	
2025-10-07T12:00	31300	9	-50.2		273	19	
2025-10-07T12:00	31350	9	-49.0		270	20	
2025-10-07T12:00	31400	9	-48.5		268	20	
2025-10-07T12:00	31450	9	-48.6		266	21	
2025-10-07T12:00	31500	9	-48.8		265	22	
2025-10-07T12:00	31550	9	-49.1		264	23	
2025-10-07T12:00	31600	9	-49.3		265	24	
2025-10-07T12:00	31650	9	-49.7		266	26	
2025-10-07T12:00	31700	9	-49.7		269	27	
2025-10-07T12:00	31750	9	-49.4		270	27	
2025-10-07T12:00	31800	9	-48.8		272	27	
2025-10-07T12:00	31850	9	-48.4		274	26	
2025-10-07T12:00	31900	9	-48.5		276	25	
2025-10-07T12:00	31950	9	-48.4		275	24	
2025-10-07T12:00	32000	8	-47.9		273	24	
2025-10-07T12:00	32050	8	-47.2		270	23	
2025-10-07T12:00	32100	8	-46.7		267	23	
2025-10-07T12:00	32150	8	-46.2		263	22	
2025-10-07T12:00	32200	8	-45.5		260	23	
2025-10-07T12:00	32250	8	-45.5		259	23	
2025-10-07T12:00	32300	8	-45.7		259	24	
2025-10-07T12:00	32350	8	-45.4		258	24	
2025-10-07T12:00	32400	8	-45.0		258	23	
2025-10-07T12:00	32450	8	-45.1		258	22	
2025-10-07T12:00	32500	8	-45.4		259	22	
2025-10-07T12:00	32550	8	-45.5		259	21	
2025-10-07T12:00	32600	8	-45.7		257	21	
2025-10-07T12:00	32650	8	-45.7		255	22	
2025-10-07T12:00	32700	8	-45.4		255	22	
2025-10-07T12:00	32750	8	-45.3		256	23	
2025-10-07T12:00	32800	8	-45.4		258	25	
2025-10-07T12:00	32850	7	-45.6		261	25	
2025-10-07T12:00	32900	7	-45.8		263	26	
2025-10-07T12:00	32950	7	-45.9		265	27	
2025-10-07T12:00	33000	7	-46.0		266	27	
2025-10-07T12:00	33050	7	-45.8		266	27	
2025-10-07T12:00	33100	7	-45.6		267	26	
2025-10-07T12:00	33150	7	-45.6		268	26	
2025-10-07T12:00	33200	7	-45.6		271	25	
2025-10-07T12:00	33250	7	-45.5		274	25	
2025-10-07T12:00	33300	7	-45.4		278	25	
2025-10-07T12:00	33350	7	-45.4		281	25	
2025-10-07T12:00	33400	7	-45.6		283	25	
2025-10-07T12:00	33450	7	-45.6		284	26	
2025-10-07T12:00	33500	7	-45.4		285	27	
2025-10-07T12:00	33550	7	-45.0		287	27	
2025-10-07T12:00	33600	7	-44.6		289	28	
2025-10-07T12:00	33650	7	-44.4		291	28	
2025-10-07T12:00	33700	7	-43.9		294	28	
2025-10-07T12:00	33750	7	-43.6		296	27	
2025-10-07T12:00	33800	6	-43.4		296	27	
2025-10-07T12:00	33850	6	-43.3		296	25	
2025-10-07T12:00	33900	6	-43.2		295	24	
2025-10-07T12:00	33950	6	-42.8		291	21	
2025-10-07T12:00	34000	6	-42.6		286	19	
2025-10-07T12:00	34050	6	-42.2		279	18	
2025-10-07T12:00	34100	6	-41.8		272	17	
2025-10-07T12:00	34150	6	-41.7		265	17	
2025-10-07T12:00	34200	6	-41.7		261	17	
2025-10-07T12:00	34250	6	-41.2		260	17	
2025-10-07T12:00	34300	6	-40.7		260	18	
2025-10-07T12:00	34350	6	-40.7		261	19	
2025-10-07T12:00	34400	6	-40.5		263	19	
2025-10-07T12:00	34450	6	-40.2		266	19	
2025-10-07T12:00	34500	6	-40.0		268	19	
2025-10-07T12:00	34550	6	-39.8		268	19	
2025-10-07T12:00	34600	6	-39.7		267	19	
2025-10-07T12:00	34650	6	-39.5		266	18	
2025-10-07T12:00	34700	6	-38.9		268	17	
2025-10-07T12:00	34750	6	-38.4		272	17	
2025-10-07T12:00	34800	6	-38.3		278	17	
2025-10-07T12:00	34850	6	-37.9		280	17	
2025-10-08T00:00	491	965	8.0	7.9	178	1	
2025-10-08T00:00	501	964	8.8	8.6	220	1	
2025-10-08T00:00	520	962	9.6	8.9	224	2	
2025-10-08T00:00	540	960	9.9	8.8	224	2	
2025-10-08T00:00	560	957	10.2	9.1	224	2	
2025-10-08T00:00	580	955	10.3	9.2	223	2	
2025-10-08T00:00	600	953	10.4	9.3	220	1	
2025-10-08T00:00	620	951	10.4	9.2	198	0	
2025-10-08T00:00	640	948	10.3	9.2	72	1	
2025-10-08T00:00	660	946	10.3	9.1	60	2	
2025-10-08T00:00	680	944	10.5	8.9	57	2	
2025-10-08T00:00	700	942	10.6	8.8	56	3	
2025-10-08T00:00	720	939	10.6	8.8	55	4	
2025-10-08T00:00	740	937	10.5	8.8	55	4	
2025-10-08T00:00	760	935	10.6	8.7	55	4	
2025-10-08T00:00	780	932	10.7	8.7	55	4	
2025-10-08T00:00	800	930	10.6	8.7	56	4	
2025-10-08T00:00	820	928	10.5	8.7	57	4	
2025-10-08T00:00	840	926	10.6	8.6	57	4	
2025-10-08T00:00	860	924	10.8	8.6	57	4	
2025-10-08T00:00	880	921	10.9	8.5	56	4	
2025-10-08T00:00	900	919	10.9	8.4	54	4	
2025-10-08T00:00	920	917	10.8	8.3	51	4	
2025-10-08T00:00	940	915	10.9	8.1	48	4	
2025-10-08T00:00	960	912	11.0	8.1	45	5	
2025-10-08T00:00	980	910	11.0	8.1	42	5	
2025-10-08T00:00	1000	908	10.9	8.1	40	5	
2025-10-08T00:00	1020	906	10.9	8.0	38	5	
2025-10-08T00:00	1040	904	10.8	8.0	37	5	
2025-10-08T00:00	1060	902	10.7	8.0	38	5	
2025-10-08T00:00	1080	900	10.6	7.9	39	5	
2025-10-08T00:00	1100	898	10.5	7.8	41	5	
2025-10-08T00:00	1120	895	10.6	7.7	44	5	
2025-10-08T00:00	1140	893	10.7	7.6	48	5	
2025-10-08T00:00	1160	891	11.0	7.4	52	5	
2025-10-08T00:00	1180	889	11.7	7.0	56	5	
2025-10-08T00:00	1200	887	11.7	7.1	60	5	
2025-10-08T00:00	1220	885	11.6	7.0	64	5	
2025-10-08T00:00	1240	882	11.5	6.8	69	5	
2025-10-08T00:00	1260	880	11.5	6.5	73	5	
2025-10-08T00:00	1280	878	11.5	6.2	77	5	
2025-10-08T00:00	1300	876	11.5	5.9	80	6	
2025-10-08T00:00	1320	874	11.6	5.5	82	6	
2025-10-08T00:00	1340	872	11.6	5.2	84	6	
2025-10-08T00:00	1360	870	11.7	4.7	84	6	
2025-10-08T00:00	1380	868	12.4	3.3	85	6	
2025-10-08T00:00	1400	866	12.5	3.1	85	7	
2025-10-08T00:00	1420	864	12.3	3.1	85	7	
2025-10-08T00:00	1440	862	12.2	3.1	84	7	
2025-10-08T00:00	1460	860	12.1	3.0	84	7	
2025-10-08T00:00	1480	857	12.0	2.8	84	7	
2025-10-08T00:00	1500	855	11.9	2.8	83	7	
2025-10-08T00:00	1520	853	11.7	2.8	82	7	
2025-10-08T00:00	1540	852	11.6	2.7	81	7	
2025-10-08T00:00	1560	850	11.7	2.7	80	7	
2025-10-08T00:00	1580	847	11.8	2.7	78	7	
2025-10-08T00:00	1600	845	11.7	2.5	77	7	
2025-10-08T00:00	1620	844	11.8	2.2	76	7	
2025-10-08T00:00	1640	841	11.8	2.1	75	7	
2025-10-08T00:00	1660	839	11.7	2.1	76	7	
2025-10-08T00:00	1680	837	11.5	2.0	76	7	
2025-10-08T00:00	1700	835	11.4	2.0	76	7	
2025-10-08T00:00	1720	833	11.4	1.8	77	6	
2025-10-08T00:00	1740	831	11.4	1.5	76	6	
2025-10-08T00:00	1760	829	11.4	1.3	75	6	
2025-10-08T00:00	1780	827	11.4	1.1	74	6	
2025-10-08T00:00	1800	825	11.4	1.1	71	5	
2025-10-08T00:00	1820	824	11.3	1.2	70	5	
2025-10-08T00:00	1840	821	11.3	1.4	68	5	
2025-10-08T00:00	1860	819	11.3	1.6	66	5	
2025-10-08T00:00	1880	817	11.3	1.5	66	4	
2025-10-08T00:00	1900	816	11.5	1.2	65	4	
2025-10-08T00:00	1920	814	11.7	0.6	64	4	
2025-10-08T00:00	1940	812	11.9	-0.1	61	4	
2025-10-08T00:00	1960	810	12.1	-4.2	58	4	
2025-10-08T00:00	1980	808	12.3	-6.9	54	4	
2025-10-08T00:00	2000	806	12.5	-7.5	50	4	
2025-10-08T00:00	2020	804	12.5	-7.4	46	4	
2025-10-08T00:00	2040	802	12.4	-7.4	42	4	
2025-10-08T00:00	2060	800	12.2	-6.8	38	4	
2025-10-08T00:00	2080	798	12.2	-5.4	36	4	
2025-10-08T00:00	2100	796	12.0	-4.1	32	3	
2025-10-08T00:00	2120	795	11.9	-5.2	30	3	
2025-10-08T00:00	2140	792	11.8	-5.9	26	3	
2025-10-08T00:00	2160	791	11.6	-5.3	22	3	
2025-10-08T00:00	2180	789	11.5	-5.5	18	3	
2025-10-08T00:00	2200	787	11.5	-6.8	13	3	
2025-10-08T00:00	2220	785	11.4	-8.3	8	2	
2025-10-08T00:00	2240	783	11.4	-10.4	0	2	
2025-10-08T00:00	2260	781	11.4	-12.2	350	2	
2025-10-08T00:00	2280	779	11.4	-13.7	338	2	
2025-10-08T00:00	2300	777	11.3	-14.4	326	2	
2025-10-08T00:00	2320	775	11.2	-14.7	318	2	
2025-10-08T00:00	2340	774	11.1	-14.8	314	2	
2025-10-08T00:00	2360	772	11.0	-14.8	313	2	
2025-10-08T00:00	2380	770	10.9	-14.7	315	2	
2025-10-08T00:00	2400	768	10.7	-14.6	319	2	
2025-10-08T00:00	2420	766	10.6	-14.7	326	1	
2025-10-08T00:00	2440	764	10.4	-14.6	334	1	
2025-10-08T00:00	2460	763	10.3	-14.5	345	1	
2025-10-08T00:00	2480	761	10.1	-14.5	358	1	
2025-10-08T00:00	2500	759	10.0	-14.2	12	1	
2025-10-08T00:00	2520	757	9.9	-14.2	25	1	
2025-10-08T00:00	2540	755	9.7	-14.0	35	1	
2025-10-08T00:00	2560	754	9.6	-14.6	43	1	
2025-10-08T00:00	2580	752	9.4	-15.1	50	1	
2025-10-08T00:00	2600	750	9.2	-15.3	57	1	
2025-10-08T00:00	2620	748	9.1	-15.1	63	1	
2025-10-08T00:00	2640	746	8.9	-14.6	68	1	
2025-10-08T00:00	2660	745	8.8	-14.0	71	1	
2025-10-08T00:00	2680	743	8.6	-13.3	73	1	
2025-10-08T00:00	2700	741	8.4	-12.7	70	1	
2025-10-08T00:00	2720	739	8.2	-11.8	61	1	
2025-10-08T00:00	2740	737	8.1	-10.9	40	1	
2025-10-08T00:00	2760	735	7.9	-11.7	12	1	
2025-10-08T00:00	2780	734	8.0	-15.7	359	1	
2025-10-08T00:00	2800	732	8.1	-18.1	355	1	
2025-10-08T00:00	2820	730	8.1	-19.5	356	2	
2025-10-08T00:00	2840	728	8.1	-19.7	0	2	
2025-10-08T00:00	2860	727	8.1	-19.5	5	2	
2025-10-08T00:00	2880	725	8.0	-19.9	10	3	
2025-10-08T00:00	2900	723	7.9	-19.2	16	3	
2025-10-08T00:00	2920	721	7.8	-16.1	20	4	
2025-10-08T00:00	2940	720	7.6	-15.7	25	4	
2025-10-08T00:00	2960	718	7.5	-15.7	27	4	
2025-10-08T00:00	2980	716	7.3	-15.5	28	4	
2025-10-08T00:00	3000	715	7.2	-15.1	28	4	
2025-10-08T00:00	3020	713	7.1	-15.2	26	4	
2025-10-08T00:00	3040	711	6.9	-15.3	24	4	
2025-10-08T00:00	3060	709	6.8	-15.2	21	4	
2025-10-08T00:00	3080	707	6.6	-15.0	17	4	
2025-10-08T00:00	3100	706	6.5	-14.7	14	4	
2025-10-08T00:00	3120	704	6.4	-14.7	11	4	
2025-10-08T00:00	3140	702	6.2	-15.1	11	4	
2025-10-08T00:00	3160	700	6.2	-16.8	13	3	
2025-10-08T00:00	3180	699	6.1	-17.7	16	3	
2025-10-08T00:00	3200	697	6.0	-18.8	20	4	
2025-10-08T00:00	3220	695	5.9	-17.9	24	4	
2025-10-08T00:00	3240	694	5.7	-16.9	28	4	
2025-10-08T00:00	3260	692	5.6	-16.9	30	4	
2025-10-08T00:00	3280	690	5.4	-17.0	32	4	
2025-10-08T00:00	3300	689	5.2	-16.5	32	4	
2025-10-08T00:00	3320	687	5.0	-16.3	32	4	
2025-10-08T00:00	3340	685	4.9	-16.1	31	4	
2025-10-08T00:00	3360	684	4.7	-16.2	29	4	
2025-10-08T00:00	3380	682	4.5	-15.9	28	4	
2025-10-08T00:00	3400	680	4.3	-15.3	25	4	
2025-10-08T00:00	3420	679	4.1	-15.0	23	4	
2025-10-08T00:00	3440	677	3.9	-15.1	20	4	
2025-10-08T00:00	3460	675	3.8	-15.9	19	4	
2025-10-08T00:00	3480	674	3.7	-15.8	17	4	
2025-10-08T00:00	3500	672	3.6	-14.9	17	4	
2025-10-08T00:00	3520	670	3.5	-14.8	17	4	
2025-10-08T00:00	3540	668	3.3	-15.3	18	4	
2025-10-08T00:00	3560	667	3.2	-16.2	20	4	
2025-10-08T00:00	3580	665	3.0	-17.5	22	4	
2025-10-08T00:00	3600	664	2.9	-17.3	24	4	
2025-10-08T00:00	3620	662	2.7	-17.0	26	4	
2025-10-08T00:00	3640	660	2.5	-16.0	29	3	
2025-10-08T00:00	3660	659	2.3	-15.3	33	3	
2025-10-08T00:00	3680	657	2.1	-14.8	37	3	
2025-10-08T00:00	3700	656	2.0	-15.7	41	2	
2025-10-08T00:00	3720	654	1.9	-16.7	44	2	
2025-10-08T00:00	3740	652	1.7	-16.7	45	2	
2025-10-08T00:00	3760	651	1.6	-17.3	43	2	
2025-10-08T00:00	3780	649	1.6	-18.5	40	2	
2025-10-08T00:00	3800	647	1.5	-19.5	34	2	
2025-10-08T00:00	3820	646	1.5	-19.9	29	2	
2025-10-08T00:00	3840	644	1.3	-19.8	24	2	
2025-10-08T00:00	3860	643	1.2	-19.1	20	2	
2025-10-08T00:00	3880	641	1.1	-18.9	16	2	
2025-10-08T00:00	3900	639	1.0	-19.1	13	2	
2025-10-08T00:00	3920	638	0.9	-20.3	10	2	
2025-10-08T00:00	3940	636	0.8	-21.1	5	2	
2025-10-08T00:00	3960	635	0.7	-21.4	359	2	
2025-10-08T00:00	3980	633	0.6	-20.9	350	2	
2025-10-08T00:00	4000	632	0.5	-20.7	341	2	
2025-10-08T00:00	4020	630	0.3	-19.7	335	2	
2025-10-08T00:00	4040	628	0.2	-19.6	329	2	
2025-10-08T00:00	4060	627	0.1	-19.8	324	3	
2025-10-08T00:00	4080	625	-0.1	-19.7	321	3	
2025-10-08T00:00	4100	624	-0.3	-19.4	320	3	
2025-10-08T00:00	4120	622	-0.5	-19.0	320	3	
2025-10-08T00:00	4140	621	-0.6	-18.6	322	3	
2025-10-08T00:00	4160	619	-0.7	-17.8	327	3	
2025-10-08T00:00	4180	617	-0.7	-18.2	333	2	
2025-10-08T00:00	4200	616	-0.7	-20.1	340	2	
2025-10-08T00:00	4220	614	-0.7	-19.8	347	2	
2025-10-08T00:00	4240	613	-0.8	-21.0	354	2	
2025-10-08T00:00	4260	611	-0.9	-21.1	360	2	
2025-10-08T00:00	4280	610	-1.0	-22.4	3	2	
2025-10-08T00:00	4300	608	-1.2	-22.7	4	2	
2025-10-08T00:00	4320	607	-1.3	-24.6	2	2	
2025-10-08T00:00	4340	605	-1.3	-29.5	360	2	
2025-10-08T00:00	4360	604	-1.3	-29.7	358	2	
2025-10-08T00:00	4380	602	-1.4	-29.9	357	3	
2025-10-08T00:00	4400	601	-1.6	-29.8	358	3	
2025-10-08T00:00	4420	599	-1.7	-29.7	0	3	
2025-10-08T00:00	4440	598	-1.8	-29.1	4	3	
2025-10-08T00:00	4460	596	-2.0	-28.0	9	3	
2025-10-08T00:00	4480	595	-2.1	-27.1	15	3	
2025-10-08T00:00	4500	593	-2.3	-25.8	20	3	
2025-10-08T00:00	4520	591	-2.4	-22.6	24	3	
2025-10-08T00:00	4540	590	-2.6	-22.2	24	3	
2025-10-08T00:00	4560	589	-2.7	-19.8	18	2	
2025-10-08T00:00	4580	587	-2.8	-18.7	8	3	
2025-10-08T00:00	4600	586	-3.0	-18.5	356	3	
2025-10-08T00:00	4620	584	-3.0	-18.2	346	3	
2025-10-08T00:00	4640	583	-3.1	-18.8	340	3	
2025-10-08T00:00	4660	581	-3.1	-19.1	336	4	
2025-10-08T00:00	4680	580	-3.1	-19.2	332	4	
2025-10-08T00:00	4700	578	-3.3	-18.9	330	4	
2025-10-08T00:00	4720	577	-3.4	-18.7	328	4	
2025-10-08T00:00	4740	575	-3.5	-18.5	327	4	
2025-10-08T00:00	4760	574	-3.6	-18.5	327	4	
2025-10-08T00:00	4780	572	-3.8	-18.6	327	5	
2025-10-08T00:00	4800	571	-4.0	-18.7	327	5	
2025-10-08T00:00	4820	570	-4.1	-18.9	328	5	
2025-10-08T00:00	4840	568	-4.3	-19.1	328	5	
2025-10-08T00:00	4860	567	-4.5	-19.3	329	6	
2025-10-08T00:00	4880	565	-4.7	-19.5	329	6	
2025-10-08T00:00	4900	564	-4.8	-19.8	329	6	
2025-10-08T00:00	4920	562	-5.0	-20.0	328	6	
2025-10-08T00:00	4940	561	-5.2	-20.4	328	7	
2025-10-08T00:00	4960	560	-5.3	-20.9	326	7	
2025-10-08T00:00	4980	558	-5.4	-21.7	325	7	
2025-10-08T00:00	5000	557	-5.5	-22.1	323	7	
2025-10-08T00:00	5020	555	-5.7	-22.5	321	7	
2025-10-08T00:00	5040	554	-5.8	-23.0	319	7	
2025-10-08T00:00	5060	552	-5.9	-22.5	317	7	
2025-10-08T00:00	5080	551	-6.0	-21.9	314	7	
2025-10-08T00:00	5100	550	-6.1	-20.4	312	7	
2025-10-08T00:00	5120	548	-6.3	-18.0	310	7	
2025-10-08T00:00	5140	547	-6.5	-17.5	307	7	
2025-10-08T00:00	5160	545	-6.7	-17.5	305	7	
2025-10-08T00:00	5180	544	-6.8	-17.4	302	7	
2025-10-08T00:00	5200	543	-6.9	-17.5	300	7	
2025-10-08T00:00	5220	541	-7.0	-17.9	298	8	
2025-10-08T00:00	5240	540	-7.1	-17.8	296	8	
2025-10-08T00:00	5260	539	-7.3	-17.7	294	8	
2025-10-08T00:00	5280	537	-7.5	-17.7	293	8	
2025-10-08T00:00	5300	536	-7.7	-18.0	292	8	
2025-10-08T00:00	5320	534	-7.9	-18.2	291	8	
2025-10-08T00:00	5340	533	-8.0	-18.5	291	7	
2025-10-08T00:00	5360	531	-8.2	-18.5	292	7	
2025-10-08T00:00	5380	530	-8.4	-18.1	293	7	
2025-10-08T00:00	5400	529	-8.6	-18.5	294	7	
2025-10-08T00:00	5420	527	-8.7	-19.0	295	7	
2025-10-08T00:00	5440	526	-8.9	-19.3	296	7	
2025-10-08T00:00	5460	525	-9.0	-19.8	296	7	
2025-10-08T00:00	5480	523	-9.2	-21.5	296	7	
2025-10-08T00:00	5500	522	-9.3	-22.4	295	8	
2025-10-08T00:00	5520	521	-9.4	-22.3	294	8	
2025-10-08T00:00	5540	519	-9.6	-22.1	293	8	
2025-10-08T00:00	5560	518	-9.7	-22.0	293	8	
2025-10-08T00:00	5580	517	-9.8	-21.8	293	8	
2025-10-08T00:00	5600	515	-9.9	-21.9	294	8	
2025-10-08T00:00	5620	514	-10.1	-22.1	296	8	
2025-10-08T00:00	5640	513	-10.2	-22.1	297	8	
2025-10-08T00:00	5660	511	-10.1	-22.6	298	8	
2025-10-08T00:00	5680	510	-10.2	-23.1	300	8	
2025-10-08T00:00	5700	509	-10.3	-23.2	302	8	
2025-10-08T00:00	5720	507	-10.5	-23.0	304	8	
2025-10-08T00:00	5740	506	-10.6	-22.9	307	8	
2025-10-08T00:00	5760	505	-10.8	-22.6	310	8	
2025-10-08T00:00	5780	503	-10.9	-21.7	312	8	
2025-10-08T00:00	5800	502	-11.0	-21.9	314	8	
2025-10-08T00:00	5820	501	-11.2	-21.6	316	8	
2025-10-08T00:00	5840	500	-11.4	-21.7	318	8	
2025-10-08T00:00	5860	498	-11.5	-21.3	319	8	
2025-10-08T00:00	5880	497	-11.6	-21.8	320	8	
2025-10-08T00:00	5900	496	-11.7	-23.8	320	8	
2025-10-08T00:00	5920	494	-11.9	-25.0	320	8	
2025-10-08T00:00	5940	493	-12.0	-25.7	320	8	
2025-10-08T00:00	5960	492	-12.1	-26.9	320	8	
2025-10-08T00:00	5980	491	-12.2	-28.1	319	8	
2025-10-08T00:00	6000	489	-12.4	-28.1	319	8	
2025-10-08T00:00	6020	488	-12.5	-28.9	318	8	
2025-10-08T00:00	6040	487	-12.6	-28.8	318	8	
2025-10-08T00:00	6060	485	-12.7	-28.9	318	8	
2025-10-08T00:00	6080	484	-12.8	-29.5	318	8	
2025-10-08T00:00	6100	483	-13.0	-29.1	318	8	
2025-10-08T00:00	6120	482	-13.1	-28.6	319	8	
2025-10-08T00:00	6140	480	-13.3	-28.1	320	8	
2025-10-08T00:00	6160	479	-13.4	-25.4	321	8	
2025-10-08T00:00	6180	478	-13.6	-23.9	322	8	
2025-10-08T00:00	6200	477	-13.8	-22.1	323	8	
2025-10-08T00:00	6220	475	-14.0	-20.7	324	8	
2025-10-08T00:00	6240	474	-14.2	-20.3	325	8	
2025-10-08T00:00	6260	473	-14.3	-20.6	325	8	
2025-10-08T00:00	6280	472	-14.5	-21.4	326	9	
2025-10-08T00:00	6300	470	-14.7	-21.6	326	9	
2025-10-08T00:00	6320	469	-14.9	-20.9	326	9	
2025-10-08T00:00	6340	468	-15.1	-20.7	325	9	
2025-10-08T00:00	6360	466	-15.3	-21.0	324	9	
2025-10-08T00:00	6380	465	-15.5	-21.1	323	9	
2025-10-08T00:00	6400	464	-15.7	-20.7	322	9	
2025-10-08T00:00	6420	463	-15.8	-20.4	321	9	
2025-10-08T00:00	6440	462	-15.9	-20.6	320	9	
2025-10-08T00:00	6460	460	-16.1	-20.7	319	10	
2025-10-08T00:00	6480	459	-16.2	-21.3	319	10	
2025-10-08T00:00	6500	458	-16.3	-21.6	320	10	
2025-10-08T00:00	6520	457	-16.4	-21.6	320	10	
2025-10-08T00:00	6540	456	-16.6	-21.7	322	10	
2025-10-08T00:00	6560	454	-16.8	-21.9	323	10	
2025-10-08T00:00	6580	453	-17.0	-21.9	325	10	
2025-10-08T00:00	6600	452	-17.2	-21.9	327	10	
2025-10-08T00:00	6620	451	-17.4	-22.1	329	10	
2025-10-08T00:00	6640	449	-17.6	-22.2	330	10	
2025-10-08T00:00	6660	448	-17.7	-22.2	330	9	
2025-10-08T00:00	6680	447	-17.9	-22.2	330	9	
2025-10-08T00:00	6700	446	-18.1	-22.2	328	9	
2025-10-08T00:00	6720	445	-18.3	-22.3	327	9	
2025-10-08T00:00	6740	443	-18.5	-22.4	325	9	
2025-10-08T00:00	6760	442	-18.7	-22.5	324	9	
2025-10-08T00:00	6780	441	-18.9	-22.7	323	9	
2025-10-08T00:00	6800	440	-19.1	-22.9	323	8	
2025-10-08T00:00	6820	439	-19.2	-23.4	323	8	
2025-10-08T00:00	6840	438	-19.3	-23.8	324	8	
2025-10-08T00:00	6860	436	-19.5	-24.1	325	8	
2025-10-08T00:00	6880	435	-19.6	-23.9	326	8	
2025-10-08T00:00	6900	434	-19.8	-23.9	326	8	
2025-10-08T00:00	6920	433	-20.0	-24.0	326	8	
2025-10-08T00:00	6940	432	-20.2	-24.0	326	8	
2025-10-08T00:00	6960	431	-20.4	-24.1	326	8	
2025-10-08T00:00	6980	429	-20.5	-24.2	324	8	
2025-10-08T00:00	7000	428	-20.7	-24.2	322	8	
2025-10-08T00:00	7020	427	-20.9	-24.1	319	8	
2025-10-08T00:00	7040	426	-21.1	-24.3	318	8	
2025-10-08T00:00	7060	425	-21.3	-24.5	316	9	
2025-10-08T00:00	7080	424	-21.5	-24.5	314	9	
2025-10-08T00:00	7100	422	-21.7	-24.7	313	9	
2025-10-08T00:00	7120	421	-21.8	-24.8	312	9	
2025-10-08T00:00	7140	420	-22.0	-25.3	311	9	
2025-10-08T00:00	7160	419	-22.1	-25.5	309	9	
2025-10-08T00:00	7180	418	-22.3	-25.6	308	9	
2025-10-08T00:00	7200	417	-22.5	-25.6	307	9	
2025-10-08T00:00	7220	416	-22.6	-25.5	305	9	
2025-10-08T00:00	7240	415	-22.8	-25.4	304	9	
2025-10-08T00:00	7260	413	-23.0	-25.6	304	9	
2025-10-08T00:00	7280	412	-23.1	-26.7	304	9	
2025-10-08T00:00	7300	411	-23.3	-27.6	306	9	
2025-10-08T00:00	7320	410	-23.4	-28.5	309	10	
2025-10-08T00:00	7340	409	-23.5	-29.7	311	10	
2025-10-08T00:00	7360	408	-23.5	-31.2	312	10	
2025-10-08T00:00	7380	407	-23.6	-33.0	313	11	
2025-10-08T00:00	7400	406	-23.4	-37.3	313	11	
2025-10-08T00:00	7420	405	-23.2	-40.0	313	11	
2025-10-08T00:00	7440	403	-23.1	-41.6	313	11	
2025-10-08T00:00	7460	402	-23.1	-43.3	313	12	
2025-10-08T00:00	7480	401	-23.1	-43.6	313	12	
2025-10-08T00:00	7500	400	-23.2	-43.8	312	12	
2025-10-08T00:00	7520	399	-23.3	-43.9	312	12	
2025-10-08T00:00	7540	398	-23.4	-44.1	313	12	
2025-10-08T00:00	7560	397	-23.4	-43.9	313	12	
2025-10-08T00:00	7580	396	-23.4	-43.9	313	12	
2025-10-08T00:00	7600	395	-23.6	-43.9	314	12	
2025-10-08T00:00	7620	394	-23.7	-44.0	314	12	
2025-10-08T00:00	7640	393	-23.9	-44.0	314	12	
2025-10-08T00:00	7660	391	-24.1	-44.1	315	12	
2025-10-08T00:00	7680	390	-24.3	-44.1	315	12	
2025-10-08T00:00	7700	389	-24.5	-44.1	315	12	
2025-10-08T00:00	7720	388	-24.7	-44.1	315	12	
2025-10-08T00:00	7740	387	-24.9	-44.1	315	12	
2025-10-08T00:00	7760	386	-25.0	-44.1	314	12	
2025-10-08T00:00	7780	385	-25.2	-44.0	314	12	
2025-10-08T00:00	7800	384	-25.4	-44.0	313	12	
2025-10-08T00:00	7820	383	-25.6	-44.1	312	12	
2025-10-08T00:00	7840	382	-25.7	-44.1	310	12	
2025-10-08T00:00	7860	381	-25.9	-44.1	309	12	
2025-10-08T00:00	7880	380	-26.0	-44.2	308	12	
2025-10-08T00:00	7900	379	-26.2	-44.3	307	12	
2025-10-08T00:00	7920	378	-26.4	-44.6	307	12	
2025-10-08T00:00	7940	377	-26.6	-44.4	307	12	
2025-10-08T00:00	7960	376	-26.7	-44.0	308	12	
2025-10-08T00:00	7980	375	-26.9	-44.0	309	12	
2025-10-08T00:00	8000	374	-27.1	-43.6	310	12	
2025-10-08T00:00	8020	372	-27.2	-43.3	311	12	
2025-10-08T00:00	8040	371	-27.4	-42.7	311	12	
2025-10-08T00:00	8060	370	-27.5	-42.7	311	11	
2025-10-08T00:00	8080	369	-27.7	-42.5	312	11	
2025-10-08T00:00	8100	368	-27.9	-41.6	313	11	
2025-10-08T00:00	8120	367	-28.1	-40.0	314	11	
2025-10-08T00:00	8140	366	-28.3	-39.8	315	10	
2025-10-08T00:00	8160	365	-28.5	-40.0	315	10	
2025-10-08T00:00	8180	364	-28.6	-39.8	315	10	
2025-10-08T00:00	8200	363	-28.8	-40.0	315	10	
2025-10-08T00:00	8220	362	-29.0	-40.1	314	11	
2025-10-08T00:00	8240	361	-29.2	-40.2	314	11	
2025-10-08T00:00	8260	360	-29.3	-40.3	313	11	
2025-10-08T00:00	8280	359	-29.5	-40.3	313	11	
2025-10-08T00:00	8300	358	-29.7	-41.3	313	11	
2025-10-08T00:00	8320	357	-29.9	-41.5	314	11	
2025-10-08T00:00	8340	356	-30.0	-41.2	315	11	
2025-10-08T00:00	8360	355	-30.2	-40.5	316	11	
2025-10-08T00:00	8380	354	-30.3	-40.5	317	11	
2025-10-08T00:00	8400	353	-30.5	-40.6	318	10	
2025-10-08T00:00	8420	352	-30.7	-40.5	319	10	
2025-10-08T00:00	8440	351	-30.8	-42.7	319	10	
2025-10-08T00:00	8460	350	-30.8	-45.5	320	10	
2025-10-08T00:00	8480	349	-30.9	-47.0	321	10	
2025-10-08T00:00	8500	348	-30.8	-49.5	322	10	
2025-10-08T00:00	8520	347	-31.0	-49.1	322	10	
2025-10-08T00:00	8540	346	-31.1	-49.5	322	11	
2025-10-08T00:00	8560	345	-31.2	-50.4	322	11	
2025-10-08T00:00	8580	344	-31.3	-50.9	321	11	
2025-10-08T00:00	8600	343	-31.5	-50.9	321	11	
2025-10-08T00:00	8620	342	-31.5	-51.5	321	11	
2025-10-08T00:00	8640	341	-31.5	-52.2	321	11	
2025-10-08T00:00	8660	340	-31.4	-53.5	322	11	
2025-10-08T00:00	8680	340	-31.3	-53.3	323	11	
2025-10-08T00:00	8700	339	-31.5	-52.6	325	11	
2025-10-08T00:00	8720	338	-31.6	-51.9	326	11	
2025-10-08T00:00	8740	337	-31.7	-50.8	326	11	
2025-10-08T00:00	8760	336	-31.9	-50.8	325	11	
2025-10-08T00:00	8780	335	-32.1	-50.6	325	11	
2025-10-08T00:00	8800	334	-32.2	-51.0	324	11	
2025-10-08T00:00	8820	333	-32.4	-51.0	322	11	
2025-10-08T00:00	8840	332	-32.6	-50.8	321	11	
2025-10-08T00:00	8860	331	-32.8	-50.6	320	11	
2025-10-08T00:00	8880	330	-33.0	-50.6	320	11	
2025-10-08T00:00	8900	329	-33.2	-50.6	320	11	
2025-10-08T00:00	8920	328	-33.4	-50.7	320	11	
2025-10-08T00:00	8940	327	-33.5	-50.8	321	11	
2025-10-08T00:00	8960	326	-33.7	-50.6	322	11	
2025-10-08T00:00	8980	325	-33.9	-50.3	323	11	
2025-10-08T00:00	9000	324	-34.1	-50.3	324	11	
2025-10-08T00:00	9020	323	-34.2	-50.1	324	11	
2025-10-08T00:00	9040	322	-34.4	-50.3	324	11	
2025-10-08T00:00	9060	322	-34.4	-51.3	325	11	
2025-10-08T00:00	9080	321	-34.5	-52.1	325	11	
2025-10-08T00:00	9100	320	-34.7	-52.3	325	11	
2025-10-08T00:00	9120	319	-34.9	-52.5	326	11	
2025-10-08T00:00	9140	318	-35.0	-52.9	327	11	
2025-10-08T00:00	9160	317	-35.1	-53.1	328	11	
2025-10-08T00:00	9180	316	-35.3	-53.2	329	11	
2025-10-08T00:00	9200	315	-35.4	-53.2	330	12	
2025-10-08T00:00	9220	314	-35.5	-53.1	330	11	
2025-10-08T00:00	9240	313	-35.7	-53.0	331	12	
2025-10-08T00:00	9260	313	-35.9	-51.6	331	12	
2025-10-08T00:00	9280	312	-36.0	-49.1	331	12	
2025-10-08T00:00	9300	311	-36.2	-48.7	331	11	
2025-10-08T00:00	9320	310	-36.5	-49.4	330	11	
2025-10-08T00:00	9340	309	-36.7	-49.7	331	11	
2025-10-08T00:00	9360	308	-36.8	-49.5	331	11	
2025-10-08T00:00	9380	307	-37.0	-50.1	331	11	
2025-10-08T00:00	9400	306	-37.2	-49.3	331	11	
2025-10-08T00:00	9420	305	-37.4	-49.1	331	11	
2025-10-08T00:00	9440	305	-37.6	-49.2	331	11	
2025-10-08T00:00	9460	304	-37.8	-49.0	331	12	
2025-10-08T00:00	9480	303	-38.0	-49.0	331	12	
2025-10-08T00:00	9500	302	-38.2	-49.0	330	12	
2025-10-08T00:00	9520	301	-38.3	-49.3	331	12	
2025-10-08T00:00	9540	300	-38.5	-49.1	331	12	
2025-10-08T00:00	9560	299	-38.7	-48.8	331	12	
2025-10-08T00:00	9580	298	-38.9	-48.5	331	12	
2025-10-08T00:00	9600	298	-39.1	-48.2	330	12	
2025-10-08T00:00	9620	297	-39.3	-48.0	330	12	
2025-10-08T00:00	9640	296	-39.4	-47.7	330	12	
2025-10-08T00:00	9660	295	-39.6	-47.7	330	12	
2025-10-08T00:00	9680	294	-39.8	-47.8	330	12	
2025-10-08T00:00	9700	293	-40.0	-47.9	331	12	
2025-10-08T00:00	9720	292	-40.2	-48.2	331	12	
2025-10-08T00:00	9740	292	-40.3	-48.6	331	12	
2025-10-08T00:00	9760	291	-40.5	-48.7	332	12	
2025-10-08T00:00	9780	290	-40.7	-48.7	332	13	
2025-10-08T00:00	9800	289	-40.9	-48.6	333	13	
2025-10-08T00:00	9820	288	-41.1	-48.7	333	13	
2025-10-08T00:00	9840	287	-41.3	-48.9	333	13	
2025-10-08T00:00	9860	286	-41.4	-49.1	334	13	
2025-10-08T00:00	9880	286	-41.6	-49.0	334	14	
2025-10-08T00:00	9900	285	-41.8	-49.0	334	14	
2025-10-08T00:00	9920	284	-41.9	-48.8	334	14	
2025-10-08T00:00	9940	283	-42.1	-48.6	334	14	
2025-10-08T00:00	9960	282	-42.3	-48.5	333	14	
2025-10-08T00:00	9980	281	-42.5	-49.0	333	15	
2025-10-08T00:00	10000	280	-42.6	-49.3	333	15	
2025-10-08T00:00	10018	280	-42.8	-49.5	332	15	
2025-10-08T00:00	10050	278	-43.1	-49.7	332	15	
2025-10-08T00:00	10100	276	-43.5	-50.3	331	15	
2025-10-08T00:00	10150	274	-43.9	-49.8	330	14	
2025-10-08T00:00	10200	272	-44.4	-50.2	331	14	
2025-10-08T00:00	10250	270	-44.8	-50.5	332	15	
2025-10-08T00:00	10300	268	-45.3	-50.8	331	15	
2025-10-08T00:00	10350	266	-45.8	-50.7	330	14	
2025-10-08T00:00	10400	264	-46.2	-51.1	329	14	
2025-10-08T00:00	10450	262	-46.6	-51.8	329	14	
2025-10-08T00:00	10500	260	-47.0	-52.4	329	14	
2025-10-08T00:00	10550	258	-47.3	-53.1	330	14	
2025-10-08T00:00	10600	256	-47.6	-54.2	330	15	
2025-10-08T00:00	10650	254	-48.0	-54.4	331	15	
2025-10-08T00:00	10700	253	-48.3	-54.8	331	16	
2025-10-08T00:00	10750	251	-48.8	-55.2	330	16	
2025-10-08T00:00	10800	249	-49.2	-55.9	328	16	
2025-10-08T00:00	10850	247	-49.6	-56.6	328	17	
2025-10-08T00:00	10900	245	-49.9	-57.3	327	17	
2025-10-08T00:00	10950	243	-50.3	-57.2	327	18	
2025-10-08T00:00	11000	241	-50.8	-57.0	326	17	
2025-10-08T00:00	11050	239	-51.2	-56.6	325	18	
2025-10-08T00:00	11100	238	-51.7	-56.6	324	18	
2025-10-08T00:00	11150	236	-52.1	-56.7	324	19	
2025-10-08T00:00	11200	234	-52.5	-57.3	326	19	
2025-10-08T00:00	11250	232	-52.9	-58.4	327	18	
2025-10-08T00:00	11300	230	-53.2	-59.5	328	18	
2025-10-08T00:00	11350	229	-53.7	-59.8	329	18	
2025-10-08T00:00	11400	227	-54.2	-59.9	330	18	
2025-10-08T00:00	11450	225	-54.6	-60.3	329	18	
2025-10-08T00:00	11500	223	-55.0	-59.6	328	19	
2025-10-08T00:00	11550	221	-55.4	-60.5	329	19	
2025-10-08T00:00	11600	220	-55.8	-62.1	329	19	
2025-10-08T00:00	11650	218	-56.2	-63.1	330	19	
2025-10-08T00:00	11700	216	-56.7	-62.9	330	18	
2025-10-08T00:00	11750	215	-57.1	-62.8	330	18	
2025-10-08T00:00	11800	213	-57.6	-62.9	330	18	
2025-10-08T00:00	11850	211	-58.0	-63.2	330	18	
2025-10-08T00:00	11900	210	-58.4	-64.0	329	18	
2025-10-08T00:00	11950	208	-58.7	-64.5	330	18	
2025-10-08T00:00	12000	206	-59.1	-64.6	331	18	
2025-10-08T00:00	12050	205	-59.5	-64.6	333	18	
2025-10-08T00:00	12100	203	-59.8	-64.7	334	18	
2025-10-08T00:00	12150	201	-60.2	-65.2	334	17	
2025-10-08T00:00	12200	200	-60.5	-65.8	335	17	
2025-10-08T00:00	12250	198	-60.9	-66.2	336	18	
2025-10-08T00:00	12300	197	-61.3	-66.1	336	18	
2025-10-08T00:00	12350	195	-61.7	-66.4	337	17	
2025-10-08T00:00	12400	193	-62.2	-66.8	337	17	
2025-10-08T00:00	12450	192	-62.5	-67.2	337	17	
2025-10-08T00:00	12500	190	-62.7	-67.4	335	17	
2025-10-08T00:00	12550	189	-62.9	-67.5	334	18	
2025-10-08T00:00	12600	187	-62.9	-67.8	331	18	
2025-10-08T00:00	12650	186	-63.1	-68.7	328	18	
2025-10-08T00:00	12700	184	-62.5	-70.7	326	18	
2025-10-08T00:00	12750	183	-61.5	-72.5	326	18	
2025-10-08T00:00	12800	181	-61.4	-73.0	327	18	
2025-10-08T00:00	12850	180	-61.4	-73.3	329	18	
2025-10-08T00:00	12900	178	-61.4	-73.7	329	19	
2025-10-08T00:00	12950	177	-60.9	-74.3	327	19	
2025-10-08T00:00	13000	175	-60.6	-75.1	326	19	
2025-10-08T00:00	13050	174	-60.6	-75.6	325	19	
2025-10-08T00:00	13100	173	-60.8	-75.4	324	18	
2025-10-08T00:00	13150	171	-61.1	-75.1	325	18	
2025-10-08T00:00	13200	170	-61.2	-75.4	325	17	
2025-10-08T00:00	13250	169	-60.9	-75.7	323	17	
2025-10-08T00:00	13300	167	-60.8	-76.4	322	17	
2025-10-08T00:00	13350	166	-60.5	-77.2	324	16	
2025-10-08T00:00	13400	165	-60.2	-77.6	326	16	
2025-10-08T00:00	13450	163	-60.0	-77.9	329	15	
2025-10-08T00:00	13500	162	-59.9	-78.5	329	13	
2025-10-08T00:00	13550	161	-59.6	-79.1	325	13	
2025-10-08T00:00	13600	159	-59.7	-79.1	319	13	
2025-10-08T00:00	13650	158	-60.0	-79.0	316	13	
2025-10-08T00:00	13700	157	-60.3	-78.9	314	14	
2025-10-08T00:00	13750	156	-60.7	-79.0	312	15	
2025-10-08T00:00	13800	154	-61.1	-79.1	311	15	
2025-10-08T00:00	13850	153	-61.5	-79.1	309	16	
2025-10-08T00:00	13900	152	-61.9	-79.2	309	17	
2025-10-08T00:00	13950	151	-62.2	-79.2	310	18	
2025-10-08T00:00	14000	149	-62.5	-79.4	313	19	
2025-10-08T00:00	14050	148	-62.5	-79.6	317	19	
2025-10-08T00:00	14100	147	-62.3	-79.8	321	19	
2025-10-08T00:00	14150	146	-62.4	-80.2	326	19	
2025-10-08T00:00	14200	145	-62.4	-80.3	329	18	
2025-10-08T00:00	14250	143	-62.6	-80.6	330	16	
2025-10-08T00:00	14300	142	-62.7	-80.7	330	15	
2025-10-08T00:00	14350	141	-63.0	-80.8	329	14	
2025-10-08T00:00	14400	140	-63.4	-81.1	330	14	
2025-10-08T00:00	14450	139	-63.1	-81.2	333	15	
2025-10-08T00:00	14500	138	-63.1	-81.6	334	15	
2025-10-08T00:00	14550	137	-63.2	-82.0	332	15	
2025-10-08T00:00	14600	136	-63.0	-82.2	329	14	
2025-10-08T00:00	14650	134	-62.9	-82.5	328	14	
2025-10-08T00:00	14700	133	-62.6	-82.6	329	13	
2025-10-08T00:00	14750	132	-62.5	-82.9	330	12	
2025-10-08T00:00	14800	131	-62.6	-83.1	331	11	
2025-10-08T00:00	14850	130	-62.7	-83.3	332	11	
2025-10-08T00:00	14900	129	-62.8	-83.5	332	11	
2025-10-08T00:00	14950	128	-62.8	-83.4	330	11	
2025-10-08T00:00	15000	127	-62.8	-83.2	326	11	
2025-10-08T00:00	15050	126	-62.8	-83.1	321	12	
2025-10-08T00:00	15100	125	-63.0	-83.1	319	12	
2025-10-08T00:00	15150	124	-63.3	-83.3	320	12	
2025-10-08T00:00	15200	123	-63.2	-83.4	321	12	
2025-10-08T00:00	15250	122	-63.1	-83.4	320	12	
2025-10-08T00:00	15300	121	-63.2	-83.6	318	12	
2025-10-08T00:00	15350	120	-63.2	-83.6	315	13	
2025-10-08T00:00	15400	119	-63.3	-83.7	312	12	
2025-10-08T00:00	15450	118	-63.2	-83.7	311	11	
2025-10-08T00:00	15500	117	-63.5	-83.9	310	9	
2025-10-08T00:00	15550	116	-63.7	-84.0	311	9	
2025-10-08T00:00	15600	115	-63.8	-84.0	313	9	
2025-10-08T00:00	15650	114	-64.1	-84.1	317	10	
2025-10-08T00:00	15700	113	-64.3	-84.1	321	11	
2025-10-08T00:00	15750	112	-64.4	-84.1	325	11	
2025-10-08T00:00	15800	111	-64.8	-84.3	330	10	
2025-10-08T00:00	15850	111	-64.8	-84.4	333	9	
2025-10-08T00:00	15900	110	-64.2	-84.2	331	9	
2025-10-08T00:00	15950	109	-64.2	-84.2	324	8	
2025-10-08T00:00	16000	108	-64.5	-84.2	316	8	
2025-10-08T00:00	16050	107	-64.9	-84.2	308	8	
2025-10-08T00:00	16100	106	-65.1	-84.2	302	8	
2025-10-08T00:00	16150	105	-65.2	-84.2	296	9	
2025-10-08T00:00	16200	104	-65.2	-84.4	293	10	
2025-10-08T00:00	16250	104	-64.7	-84.3	293	11	
2025-10-08T00:00	16300	103	-64.8	-84.5	298	12	
2025-10-08T00:00	16350	102	-64.5	-84.5	306	13	
2025-10-08T00:00	16400	101	-63.9	-84.3	312	13	
2025-10-08T00:00	16450	100	-63.5	-84.4	314	14	
2025-10-08T00:00	16500	99	-63.3	-84.5	315	14	
2025-10-08T00:00	16550	99	-62.9	-84.6	317	13	
2025-10-08T00:00	16600	98	-62.9	-84.8	320	14	
2025-10-08T00:00	16650	97	-63.0	-85.0	324	14	
2025-10-08T00:00	16700	96	-63.1	-85.2	328	13	
2025-10-08T00:00	16750	96	-63.0	-85.3	333	13	
2025-10-08T00:00	16800	95	-62.9	-85.3	335	12	
2025-10-08T00:00	16850	94	-62.8	-85.2	334	11	
2025-10-08T00:00	16900	93	-63.1	-85.3	331	10	
2025-10-08T00:00	16950	92	-63.5	-85.4	329	9	
2025-10-08T00:00	17000	92	-63.8	-85.5	331	9	
2025-10-08T00:00	17050	91	-64.0	-85.5	337	9	
2025-10-08T00:00	17100	90	-64.3	-85.5	343	9	
2025-10-08T00:00	17150	89	-64.7	-85.6	346	10	
2025-10-08T00:00	17200	89	-64.8	-85.7	348	9	
2025-10-08T00:00	17250	88	-64.7	-85.8	350	8	
2025-10-08T00:00	17300	87	-64.6	-85.9	350	7	
2025-10-08T00:00	17350	87	-64.9	-86.0	345	7	
2025-10-08T00:00	17400	86	-65.1	-86.1	339	7	
2025-10-08T00:00	17450	85	-65.1	-86.2	340	7	
2025-10-08T00:00	17500	84	-65.0	-86.4	347	8	
2025-10-08T00:00	17550	84	-64.5	-86.4	355	7	
2025-10-08T00:00	17600	83	-64.4	-86.4	4	6	
2025-10-08T00:00	17650	82	-64.2	-86.5	16	6	
2025-10-08T00:00	17700	82	-64.2	-86.6	25	5	
2025-10-08T00:00	17750	81	-63.8	-86.4	18	4	
2025-10-08T00:00	17800	80	-64.1	-86.5	353	3	
2025-10-08T00:00	17850	80	-64.5	-86.5	322	4	
2025-10-08T00:00	17900	79	-64.8	-86.5	308	5	
2025-10-08T00:00	17950	78	-65.0	-86.7	307	5	
2025-10-08T00:00	18000	78	-64.9	-86.8	313	4	
2025-10-08T00:00	18050	77	-64.9	-86.9	324	3	
2025-10-08T00:00	18100	77	-64.8	-87.1	338	3	
2025-10-08T00:00	18150	76	-64.4	-87.1	341	3	
2025-10-08T00:00	18200	75	-64.1	-87.0	338	4	
2025-10-08T00:00	18250	75	-64.2	-87.1	337	5	
2025-10-08T00:00	18300	74	-64.4	-87.0	335	6	
2025-10-08T00:00	18350	74	-64.8	-87.1	333	7	
2025-10-08T00:00	18400	73	-65.1	-87.2	337	7	
2025-10-08T00:00	18450	72	-65.3	-87.2	349	6	
2025-10-08T00:00	18500	72	-65.5	-87.3	0	5	
2025-10-08T00:00	18550	71	-65.6	-87.4	7	5	
2025-10-08T00:00	18600	71	-65.7	-87.5	7	4	
2025-10-08T00:00	18650	70	-65.7	-87.6	9	4	
2025-10-08T00:00	18700	69	-65.7	-87.6	18	3	
2025-10-08T00:00	18750	69	-65.7	-87.6	40	2	
2025-10-08T00:00	18800	68	-65.8	-87.6	66	3	
2025-10-08T00:00	18850	68	-65.9	-87.7	85	3	
2025-10-08T00:00	18900	67	-65.8	-87.7	105	2	
2025-10-08T00:00	18950	67	-65.7	-87.7	149	2	
2025-10-08T00:00	19000	66	-65.6	-87.8	212	2	
2025-10-08T00:00	19050	65	-65.7	-87.8	239	3	
2025-10-08T00:00	19100	65	-65.7	-87.9	256	5	
2025-10-08T00:00	19150	64	-65.7	-88.1	267	6	
2025-10-08T00:00	19200	64	-65.4	-88.3	270	7	
2025-10-08T00:00	19250	63	-64.2	-87.8	269	7	
2025-10-08T00:00	19300	63	-64.0	-88.0	272	7	
2025-10-08T00:00	19350	62	-63.5	-87.8	282	7	
2025-10-08T00:00	19400	62	-63.4	-87.8	295	6	
2025-10-08T00:00	19450	61	-63.0	-87.8	306	6	
2025-10-08T00:00	19500	61	-62.5	-87.6	305	6	
2025-10-08T00:00	19550	60	-61.7	-87.3	294	6	
2025-10-08T00:00	19600	60	-61.6	-87.2	284	6	
2025-10-08T00:00	19650	59	-61.9	-87.1	280	6	
2025-10-08T00:00	19700	59	-62.2	-87.2	285	6	
2025-10-08T00:00	19750	58	-62.4	-87.4	296	6	
2025-10-08T00:00	19800	58	-61.6	-87.2	313	5	
2025-10-08T00:00	19850	57	-61.3	-87.2	330	3	
2025-10-08T00:00	19900	57	-60.9	-87.1	337	1	
2025-10-08T00:00	19950	57	-60.7	-87.1	231	0	
2025-10-08T00:00	20000	56	-60.4	-86.8	200	2	
2025-10-08T00:00	20050	56	-60.8		196	3	
2025-10-08T00:00	20100	55	-61.2		195	4	
2025-10-08T00:00	20150	55	-61.6		198	5	
2025-10-08T00:00	20200	54	-62.0		208	5	
2025-10-08T00:00	20250	54	-62.1		220	5	
2025-10-08T00:00	20300	53	-62.0		236	5	
2025-10-08T00:00	20350	53	-61.6		247	5	
2025-10-08T00:00	20400	53	-61.1		248	6	
2025-10-08T00:00	20450	52	-61.5		247	6	
2025-10-08T00:00	20500	52	-62.0		251	7	
2025-10-08T00:00	20550	51	-62.0		259	7	
2025-10-08T00:00	20600	51	-61.7		270	7	
2025-10-08T00:00	20650	51	-61.2		276	7	
2025-10-08T00:00	20700	50	-61.3		277	8	
2025-10-08T00:00	20750	50	-61.3		276	9	
2025-10-08T00:00	20800	49	-61.1		277	9	
2025-10-08T00:00	20850	49	-61.0		280	9	
2025-10-08T00:00	20900	49	-60.9		283	9	
2025-10-08T00:00	20950	48	-61.0		288	9	
2025-10-08T00:00	21000	48	-61.3		294	9	
2025-10-08T00:00	21050	47	-61.4		300	8	
2025-10-08T00:00	21100	47	-61.5		306	7	
2025-10-08T00:00	21150	47	-61.5		314	7	
2025-10-08T00:00	21200	46	-61.5		321	8	
2025-10-08T00:00	21250	46	-61.6		326	9	
2025-10-08T00:00	21300	46	-61.9		329	10	
2025-10-08T00:00	21350	45	-61.8		331	10	
2025-10-08T00:00	21400	45	-61.8		334	10	
2025-10-08T00:00	21450	44	-61.2		336	9	
2025-10-08T00:00	21500	44	-61.0		338	8	
2025-10-08T00:00	21550	44	-61.1		341	6	
2025-10-08T00:00	21600	43	-61.4		346	5	
2025-10-08T00:00	21650	43	-61.5		354	4	
2025-10-08T00:00	21700	43	-61.7		11	3	
2025-10-08T00:00	21750	42	-61.6		34	3	
2025-10-08T00:00	21800	42	-61.6		59	2	
2025-10-08T00:00	21850	42	-61.6		82	2	
2025-10-08T00:00	21900	41	-61.8		103	2	
2025-10-08T00:00	21950	41	-61.9		122	3	
2025-10-08T00:00	22000	41	-61.6		141	3	
2025-10-08T00:00	22050	40	-61.3		162	4	
2025-10-08T00:00	22100	40	-60.5		176	5	
2025-10-08T00:00	22150	40	-59.4		184	6	
2025-10-08T00:00	22200	39	-59.3		188	7	
2025-10-08T00:00	22250	39	-59.6		193	7	
2025-10-08T00:00	22300	39	-60.0		202	7	
2025-10-08T00:00	22350	38	-60.2		216	7	
2025-10-08T00:00	22400	38	-59.8		228	8	
2025-10-08T00:00	22450	38	-60.0		237	8	
2025-10-08T00:00	22500	38	-60.4		243	8	
2025-10-08T00:00	22550	37	-60.8		247	9	
2025-10-08T00:00	22600	37	-61.2		253	9	
2025-10-08T00:00	22650	37	-61.7		261	9	
2025-10-08T00:00	22700	36	-62.2		271	9	
2025-10-08T00:00	22750	36	-62.3		281	9	
2025-10-08T00:00	22800	36	-62.5		289	9	
2025-10-08T00:00	22850	35	-62.8		295	9	
2025-10-08T00:00	22900	35	-63.0		305	9	
2025-10-08T00:00	22950	35	-63.2		316	9	
2025-10-08T00:00	23000	35	-63.1		325	9	
2025-10-08T00:00	23050	34	-63.3		334	9	
2025-10-08T00:00	23100	34	-63.5		344	8	
2025-10-08T00:00	23150	34	-63.1		357	7	
2025-10-08T00:00	23200	33	-63.1		10	6	
2025-10-08T00:00	23250	33	-62.9		21	5	
2025-10-08T00:00	23300	33	-62.8		32	4	
2025-10-08T00:00	23350	33	-62.7		47	3	
2025-10-08T00:00	23400	32	-62.3		61	3	
2025-10-08T00:00	23450	32	-62.1		61	3	
2025-10-08T00:00	23500	32	-62.0		48	2	
2025-10-08T00:00	23550	32	-61.7		42	2	
2025-10-08T00:00	23600	31	-61.3		61	1	
2025-10-08T00:00	23650	31	-61.2		104	1	
2025-10-08T00:00	23700	31	-61.4		158	1	
2025-10-08T00:00	23750	31	-61.5		193	2	
2025-10-08T00:00	23800	30	-61.1		207	3	
2025-10-08T00:00	23850	30	-60.8		206	4	
2025-10-08T00:00	23900	30	-60.7		198	5	
2025-10-08T00:00	23950	30	-60.4		196	5	
2025-10-08T00:00	24000	29	-60.1		203	6	
2025-10-08T00:00	24050	29	-60.1		214	6	
2025-10-08T00:00	24100	29	-59.8		221	7	
2025-10-08T00:00	24150	29	-59.8		229	7	
2025-10-08T00:00	24200	28	-59.9		241	7	
2025-10-08T00:00	24250	28	-60.1		253	8	
2025-10-08T00:00	24300	28	-59.3		261	10	
2025-10-08T00:00	24350	28	-58.8		266	10	
2025-10-08T00:00	24400	28	-58.6		270	10	
2025-10-08T00:00	24450	27	-58.6		272	10	
2025-10-08T00:00	24500	27	-58.4		269	9	
2025-10-08T00:00	24550	27	-58.5		265	8	
2025-10-08T00:00	24600	27	-58.6		261	8	
2025-10-08T00:00	24650	27	-58.3		259	8	
2025-10-08T00:00	24700	26	-57.6		257	8	
2025-10-08T00:00	24750	26	-57.0		256	8	
2025-10-08T00:00	24800	26	-57.0		255	9	
2025-10-08T00:00	24850	26	-56.8		255	9	
2025-10-08T00:00	24900	25	-56.4		258	10	
2025-10-08T00:00	24950	25	-56.3		264	10	
2025-10-08T00:00	25000	25	-56.5		273	10	
2025-10-08T00:00	25050	25	-56.4		282	10	
2025-10-08T00:00	25100	25	-56.6		291	9	
2025-10-08T00:00	25150	25	-56.9		301	9	
2025-10-08T00:00	25200	24	-56.9		311	8	
2025-10-08T00:00	25250	24	-57.1		319	7	
2025-10-08T00:00	25300	24	-57.4		324	6	
2025-10-08T00:00	25350	24	-57.7		325	4	
2025-10-08T00:00	25400	24	-57.9		315	3	
2025-10-08T00:00	25450	23	-57.6		278	2	
2025-10-08T00:00	25500	23	-56.9		256	4	
2025-10-08T00:00	25550	23	-56.7		253	5	
2025-10-08T00:00	25600	23	-56.7		253	6	
2025-10-08T12:00	491	964	10.9	9.5	353	0	2.0
2025-10-08T12:00	501	963	10.8	9.6	334	0	2.0
2025-10-08T12:00	520	961	10.5	9.2	300	0	2.0
2025-10-08T12:00	540	959	10.3	9.1	287	0	2.1
2025-10-08T12:00	560	957	10.2	9.2	284	0	2.2
2025-10-08T12:00	580	954	10.0	9.1	285	1	2.2
2025-10-08T12:00	600	952	9.9	9.2	287	1	2.2
2025-10-08T12:00	620	950	9.8	9.2	289	1	2.2
2025-10-08T12:00	640	948	9.6	9.1	290	1	2.2
2025-10-08T12:00	660	945	9.4	9.1	289	1	2.2
2025-10-08T12:00	680	943	9.1	9.1	287	1	2.2
2025-10-08T12:00	700	941	9.0	9.0	284	1	2.2
2025-10-08T12:00	720	938	8.9	8.8	280	1	2.2
2025-10-08T12:00	740	936	8.7	8.7	274	1	2.2
2025-10-08T12:00	760	934	8.6	8.6	269	1	2.2
2025-10-08T12:00	780	931	8.5	8.4	264	1	2.2
2025-10-08T12:00	800	929	8.4	8.4	261	1	2.2
2025-10-08T12:00	820	927	8.3	8.3	260	1	2.2
2025-10-08T12:00	840	925	8.2	8.2	262	1	2.2
2025-10-08T12:00	860	923	8.0	8.0	267	1	2.2
2025-10-08T12:00	880	921	7.9	7.9	277	1	2.2
2025-10-08T12:00	900	918	7.8	7.8	294	1	2.2
2025-10-08T12:00	920	916	7.7	7.7	313	1	2.3
2025-10-08T12:00	940	914	8.3	7.9	328	1	2.3
2025-10-08T12:00	960	911	8.4	7.6	339	1	2.5
2025-10-08T12:00	980	909	8.3	7.5	347	1	2.7
2025-10-08T12:00	1000	907	8.2	7.3	352	2	2.8
2025-10-08T12:00	1020	905	8.2	7.2	355	2	2.9
2025-10-08T12:00	1040	903	8.2	7.1	358	2	3.0
2025-10-08T12:00	1060	900	8.2	7.0	359	2	3.2
2025-10-08T12:00	1080	898	8.3	7.0	359	2	3.2
2025-10-08T12:00	1100	896	8.4	6.8	358	2	3.3
2025-10-08T12:00	1120	894	8.5	6.6	356	2	3.4
2025-10-08T12:00	1140	892	8.5	6.5	353	2	3.4
2025-10-08T12:00	1160	890	8.7	6.3	350	2	3.4
2025-10-08T12:00	1180	888	8.9	6.0	348	2	3.4
2025-10-08T12:00	1200	886	9.2	5.9	348	2	3.4
2025-10-08T12:00	1220	883	9.5	6.0	352	2	3.5
2025-10-08T12:00	1240	881	9.9	5.9	359	2	3.5
2025-10-08T12:00	1260	879	10.3	5.1	6	2	3.6
2025-10-08T12:00	1280	877	10.7	4.8	15	2	3.6
2025-10-08T12:00	1300	875	11.0	4.3	23	2	3.6
2025-10-08T12:00	1320	873	11.1	4.2	29	3	3.7
2025-10-08T12:00	1340	871	11.1	4.0	34	3	3.7
2025-10-08T12:00	1360	869	11.0	3.8	40	3	3.7
2025-10-08T12:00	1380	866	10.9	3.6	45	3	3.7
2025-10-08T12:00	1400	865	10.9	3.4	50	4	3.7
2025-10-08T12:00	1420	862	11.1	3.0	53	4	3.7
2025-10-08T12:00	1440	860	11.3	2.8	57	4	3.8
2025-10-08T12:00	1460	858	11.4	2.5	61	4	3.7
2025-10-08T12:00	1480	856	11.5	2.5	66	4	3.7
2025-10-08T12:00	1500	854	11.6	2.6	70	4	3.7
2025-10-08T12:00	1520	852	11.6	2.4	72	4	3.8
2025-10-08T12:00	1540	850	11.7	2.2	71	4	3.8
2025-10-08T12:00	1560	848	11.6	2.0	67	4	3.8
2025-10-08T12:00	1580	846	11.5	1.7	64	5	3.8
2025-10-08T12:00	1600	844	11.4	1.4	61	5	3.8
2025-10-08T12:00	1620	842	11.3	1.2	58	5	3.8
2025-10-08T12:00	1640	840	11.3	1.1	56	5	3.8
2025-10-08T12:00	1660	838	11.3	1.1	56	5	3.7
2025-10-08T12:00	1680	836	11.3	1.2	57	6	3.7
2025-10-08T12:00	1700	834	11.2	1.1	57	6	3.6
2025-10-08T12:00	1720	832	11.1	1.1	58	6	3.5
2025-10-08T12:00	1740	830	11.1	1.1	59	6	3.5
2025-10-08T12:00	1760	828	11.1	1.4	58	6	3.4
2025-10-08T12:00	1780	826	11.0	1.4	58	6	3.4
2025-10-08T12:00	1800	824	11.0	1.1	57	6	3.3
2025-10-08T12:00	1820	822	10.9	0.6	56	6	3.2
2025-10-08T12:00	1840	820	10.8	0.5	56	5	3.2
2025-10-08T12:00	1860	818	10.6	0.4	55	5	3.2
2025-10-08T12:00	1880	816	10.5	0.3	54	5	3.2
2025-10-08T12:00	1900	814	10.3	0.2	53	4	3.2
2025-10-08T12:00	1920	812	10.1	-0.2	51	4	3.2
2025-10-08T12:00	1940	810	10.2	-1.0	48	4	3.2
2025-10-08T12:00	1960	808	10.3	-1.2	45	3	3.3
2025-10-08T12:00	1980	806	10.2	-1.4	43	3	3.3
2025-10-08T12:00	2000	805	10.2	-1.5	40	3	3.3
2025-10-08T12:00	2020	802	10.2	-1.7	36	3	3.4
2025-10-08T12:00	2040	800	10.1	-1.7	31	3	3.4
2025-10-08T12:00	2060	799	10.0	-1.9	26	3	3.4
2025-10-08T12:00	2080	797	9.9	-2.1	22	2	3.4
2025-10-08T12:00	2100	795	9.9	-2.5	16	2	3.4
2025-10-08T12:00	2120	793	10.0	-2.8	10	2	3.5
2025-10-08T12:00	2140	791	9.9	-3.1	4	1	3.5
2025-10-08T12:00	2160	789	9.8	-3.2	360	1	3.5
2025-10-08T12:00	2180	787	9.6	-3.2	355	1	3.4
2025-10-08T12:00	2200	785	9.4	-3.4	345	0	3.4
2025-10-08T12:00	2220	783	9.3	-3.7	325	0	3.4
2025-10-08T12:00	2240	782	9.3	-4.0	304	0	3.4
2025-10-08T12:00	2260	780	9.3	-4.7	291	1	3.4
2025-10-08T12:00	2280	778	9.3	-5.0	282	1	3.4
2025-10-08T12:00	2300	776	9.1	-4.8	276	1	3.4
2025-10-08T12:00	2320	774	9.1	-5.2	271	2	3.4
2025-10-08T12:00	2340	772	9.0	-5.8	265	2	3.4
2025-10-08T12:00	2360	770	8.9	-5.9	259	2	3.4
2025-10-08T12:00	2380	768	8.8	-6.0	251	2	3.5
2025-10-08T12:00	2400	766	8.8	-6.2	241	3	3.5
2025-10-08T12:00	2420	764	8.6	-6.6	231	3	3.5
2025-10-08T12:00	2440	763	8.6	-8.0	222	3	3.5
2025-10-08T12:00	2460	761	8.7	-11.0	216	3	3.6
2025-10-08T12:00	2480	759	8.7	-11.5	215	3	3.6
2025-10-08T12:00	2500	757	8.6	-12.1	217	3	3.7
2025-10-08T12:00	2520	756	8.5	-12.6	223	3	3.8
2025-10-08T12:00	2540	754	8.5	-13.1	232	3	3.8
2025-10-08T12:00	2560	752	8.2	-13.0	237	3	3.9
2025-10-08T12:00	2580	750	8.1	-13.0	240	2	3.9
2025-10-08T12:00	2600	748	7.9	-12.7	240	2	3.9
2025-10-08T12:00	2620	746	7.7	-12.8	238	2	3.9
2025-10-08T12:00	2640	745	7.6	-12.7	237	2	4.0
2025-10-08T12:00	2660	743	7.4	-12.3	239	2	4.0
2025-10-08T12:00	2680	741	7.2	-12.6	246	2	4.0
2025-10-08T12:00	2700	739	7.1	-12.7	257	2	4.0
2025-10-08T12:00	2720	737	6.9	-12.4	267	2	3.9
2025-10-08T12:00	2740	736	6.8	-13.1	275	2	3.9
2025-10-08T12:00	2760	734	6.7	-14.3	279	2	3.9
2025-10-08T12:00	2780	732	6.6	-15.6	279	2	3.9
2025-10-08T12:00	2800	730	6.6	-16.4	276	3	4.0
2025-10-08T12:00	2820	728	6.6	-17.3	272	3	4.0
2025-10-08T12:00	2840	727	6.7	-18.5	262	3	4.1
2025-10-08T12:00	2860	725	6.9	-18.6	252	3	4.2
2025-10-08T12:00	2880	723	6.8	-18.6	243	3	4.2
2025-10-08T12:00	2900	721	6.7	-18.8	235	3	4.3
2025-10-08T12:00	2920	720	6.7	-19.0	231	2	4.3
2025-10-08T12:00	2940	718	6.6	-17.7	232	2	4.3
2025-10-08T12:00	2960	716	6.4	-16.1	241	1	4.3
2025-10-08T12:00	2980	714	6.3	-15.5	259	1	4.4
2025-10-08T12:00	3000	713	6.1	-14.6	280	1	4.4
2025-10-08T12:00	3020	711	5.9	-13.4	297	1	4.3
2025-10-08T12:00	3040	709	5.7	-12.7	307	1	4.2
2025-10-08T12:00	3060	707	5.5	-11.8	313	1	4.1
2025-10-08T12:00	3080	706	5.3	-11.5	317	2	4.1
2025-10-08T12:00	3100	704	5.2	-11.2	319	2	4.0
2025-10-08T12:00	3120	702	5.0	-10.7	321	2	3.9
2025-10-08T12:00	3140	700	4.8	-10.8	323	2	3.8
2025-10-08T12:00	3160	699	4.7	-11.1	326	2	3.7
2025-10-08T12:00	3180	697	4.6	-11.0	328	2	3.7
2025-10-08T12:00	3200	695	4.4	-11.3	332	2	3.7
2025-10-08T12:00	3220	694	4.3	-11.3	337	2	3.6
2025-10-08T12:00	3240	692	4.1	-11.3	343	2	3.6
2025-10-08T12:00	3260	690	4.1	-11.4	351	2	3.6
2025-10-08T12:00	3280	689	4.0	-11.0	359	3	3.6
2025-10-08T12:00	3300	687	3.8	-10.7	4	3	3.6
2025-10-08T12:00	3320	685	3.6	-10.6	5	3	3.6
2025-10-08T12:00	3340	683	3.4	-10.6	1	3	3.5
2025-10-08T12:00	3360	682	3.2	-10.5	355	4	3.5
2025-10-08T12:00	3380	680	3.0	-10.4	348	4	3.5
2025-10-08T12:00	3400	678	2.9	-10.2	343	4	3.5
2025-10-08T12:00	3420	677	2.8	-9.7	339	4	3.4
2025-10-08T12:00	3440	675	2.6	-9.6	335	4	3.4
2025-10-08T12:00	3460	673	2.5	-9.8	332	4	3.4
2025-10-08T12:00	3480	672	2.3	-10.6	327	3	3.3
2025-10-08T12:00	3500	670	2.2	-11.5	322	3	3.4
2025-10-08T12:00	3520	668	2.2	-11.2	317	3	3.4
2025-10-08T12:00	3540	667	2.1	-11.0	313	3	3.4
2025-10-08T12:00	3560	665	2.0	-10.9	313	2	3.4
2025-10-08T12:00	3580	664	1.8	-11.1	317	2	3.3
2025-10-08T12:00	3600	662	1.8	-10.7	325	2	3.4
2025-10-08T12:00	3620	660	1.6	-10.6	331	2	3.3
2025-10-08T12:00	3640	658	1.5	-10.8	333	3	3.3
2025-10-08T12:00	3660	657	1.4	-10.8	330	3	3.3
2025-10-08T12:00	3680	655	1.0	-10.8	326	3	3.3
2025-10-08T12:00	3700	654	0.9	-10.9	321	3	3.3
2025-10-08T12:00	3720	652	0.8	-11.4	316	3	3.3
2025-10-08T12:00	3740	650	0.7	-12.0	313	3	3.3
2025-10-08T12:00	3760	649	0.5	-12.0	311	3	3.3
2025-10-08T12:00	3780	647	0.4	-12.2	310	3	3.3
2025-10-08T12:00	3800	646	0.3	-12.0	310	3	3.3
2025-10-08T12:00	3820	644	0.2	-11.2	311	3	3.2
2025-10-08T12:00	3840	642	0.0	-12.2	312	3	3.2
2025-10-08T12:00	3860	641	-0.2	-12.3	313	3	3.2
2025-10-08T12:00	3880	639	-0.3	-12.9	314	3	3.3
2025-10-08T12:00	3900	638	-0.6	-13.7	316	3	3.3
2025-10-08T12:00	3920	636	-0.8	-14.6	317	3	3.2
2025-10-08T12:00	3940	634	-1.0	-15.1	319	3	3.3
2025-10-08T12:00	3960	633	-1.1	-15.9	320	3	3.3
2025-10-08T12:00	3980	631	-1.1	-16.7	318	2	3.4
2025-10-08T12:00	4000	630	-1.3	-18.0	313	2	3.4
2025-10-08T12:00	4020	628	-1.4	-19.3	307	3	3.5
2025-10-08T12:00	4040	626	-1.4	-19.3	302	3	3.5
2025-10-08T12:00	4060	625	-1.5	-19.1	297	3	3.6
2025-10-08T12:00	4080	623	-1.7	-18.7	295	4	3.6
2025-10-08T12:00	4100	622	-1.8	-18.5	294	4	3.6
2025-10-08T12:00	4120	620	-1.9	-18.2	294	4	3.6
2025-10-08T12:00	4140	619	-2.1	-18.0	294	5	3.6
2025-10-08T12:00	4160	617	-2.3	-18.0	294	5	3.6
2025-10-08T12:00	4180	616	-2.4	-18.0	294	5	3.6
2025-10-08T12:00	4200	614	-2.5	-18.1	293	5	3.6
2025-10-08T12:00	4220	613	-2.6	-18.4	293	6	3.6
2025-10-08T12:00	4240	611	-2.8	-18.9	291	6	3.6
2025-10-08T12:00	4260	609	-2.8	-19.7	289	6	3.6
2025-10-08T12:00	4280	608	-2.8	-19.6	286	6	3.6
2025-10-08T12:00	4300	606	-2.9	-18.7	284	6	3.6
2025-10-08T12:00	4320	605	-3.1	-18.1	280	6	3.6
2025-10-08T12:00	4340	603	-3.2	-18.3	278	5	3.7
2025-10-08T12:00	4360	602	-3.3	-18.7	274	5	3.6
2025-10-08T12:00	4380	600	-3.4	-19.6	271	5	3.6
2025-10-08T12:00	4400	599	-3.5	-19.4	267	4	3.6
2025-10-08T12:00	4420	597	-3.5	-19.1	266	4	3.6
2025-10-08T12:00	4440	596	-3.7	-18.7	267	3	3.6
2025-10-08T12:00	4460	594	-3.9	-17.8	270	3	3.6
2025-10-08T12:00	4480	593	-4.1	-18.0	274	3	3.5
2025-10-08T12:00	4500	591	-4.2	-18.0	278	3	3.5
2025-10-08T12:00	4520	590	-4.2	-17.9	281	3	3.6
2025-10-08T12:00	4540	588	-4.5	-18.7	281	3	3.5
2025-10-08T12:00	4560	587	-4.6	-19.2	280	3	3.5
2025-10-08T12:00	4580	585	-4.8	-19.6	278	4	3.5
2025-10-08T12:00	4600	584	-4.9	-21.9	275	4	3.5
2025-10-08T12:00	4620	582	-5.0	-21.1	273	4	3.5
2025-10-08T12:00	4640	581	-5.1	-18.8	272	5	3.5
2025-10-08T12:00	4660	579	-5.1	-23.8	271	5	3.5
2025-10-08T12:00	4680	578	-5.1	-22.9	271	5	3.5
2025-10-08T12:00	4700	576	-5.2	-23.2	271	5	3.5
2025-10-08T12:00	4720	575	-5.4	-24.3	271	6	3.5
2025-10-08T12:00	4740	573	-5.5	-21.4	272	6	3.5
2025-10-08T12:00	4760	572	-5.6	-21.2	272	6	3.5
2025-10-08T12:00	4780	570	-5.8	-21.9	272	6	3.5
2025-10-08T12:00	4800	569	-5.9	-22.2	272	6	3.5
2025-10-08T12:00	4820	567	-6.0	-22.1	272	6	3.4
2025-10-08T12:00	4840	566	-6.2	-22.1	271	6	3.4
2025-10-08T12:00	4860	565	-6.3	-22.1	271	6	3.3
2025-10-08T12:00	4880	563	-6.4	-22.1	270	6	3.3
2025-10-08T12:00	4900	562	-6.4	-22.2	269	6	3.3
2025-10-08T12:00	4920	560	-6.6	-22.4	268	6	3.3
2025-10-08T12:00	4940	559	-6.6	-22.6	268	5	3.2
2025-10-08T12:00	4960	557	-6.8	-23.0	267	5	3.2
2025-10-08T12:00	4980	556	-6.8	-23.0	267	5	3.2
2025-10-08T12:00	5000	555	-6.8	-23.6	266	4	3.2
2025-10-08T12:00	5020	553	-7.0	-24.2	265	4	3.3
2025-10-08T12:00	5040	552	-7.1	-24.2	265	4	3.3
2025-10-08T12:00	5060	550	-7.3	-23.6	264	4	3.3
2025-10-08T12:00	5080	549	-7.3	-22.7	265	5	3.3
2025-10-08T12:00	5100	547	-7.4	-21.4	265	5	3.2
2025-10-08T12:00	5120	546	-7.6	-21.1	266	5	3.2
2025-10-08T12:00	5140	545	-7.7	-20.6	267	6	3.2
2025-10-08T12:00	5160	543	-7.8	-20.6	268	6	3.1
2025-10-08T12:00	5180	542	-8.1	-20.2	269	6	3.1
2025-10-08T12:00	5200	541	-8.4	-20.6	271	6	3.1
2025-10-08T12:00	5220	539	-8.4	-21.3	273	7	3.0
2025-10-08T12:00	5240	538	-8.7	-21.3	275	7	3.0
2025-10-08T12:00	5260	536	-9.0	-20.8	276	7	3.0
2025-10-08T12:00	5280	535	-9.1	-18.7	277	6	3.0
2025-10-08T12:00	5300	534	-9.2	-17.1	278	6	2.9
2025-10-08T12:00	5320	532	-9.4	-17.0	279	6	2.9
2025-10-08T12:00	5340	531	-9.7	-17.3	281	6	2.8
2025-10-08T12:00	5360	529	-9.8	-17.5	283	6	2.8
2025-10-08T12:00	5380	528	-10.0	-17.5	284	6	2.8
2025-10-08T12:00	5400	527	-10.2	-17.8	284	6	2.8
2025-10-08T12:00	5420	525	-10.3	-17.8	283	7	2.8
2025-10-08T12:00	5440	524	-10.4	-17.9	281	7	2.8
2025-10-08T12:00	5460	523	-10.6	-18.4	279	7	2.8
2025-10-08T12:00	5480	521	-10.7	-19.1	278	7	2.8
2025-10-08T12:00	5500	520	-10.7	-20.3	278	8	2.8
2025-10-08T12:00	5520	519	-10.8	-20.6	278	8	2.8
2025-10-08T12:00	5540	517	-11.1	-20.7	280	8	2.7
2025-10-08T12:00	5560	516	-11.3	-20.7	280	8	2.8
2025-10-08T12:00	5580	515	-11.4	-20.7	280	8	2.8
2025-10-08T12:00	5600	513	-11.5	-20.9	279	8	2.8
2025-10-08T12:00	5620	512	-11.6	-21.4	278	8	2.8
2025-10-08T12:00	5640	511	-11.7	-21.7	276	8	2.8
2025-10-08T12:00	5660	509	-11.9	-22.0	275	8	2.8
2025-10-08T12:00	5680	508	-12.0	-22.2	274	8	2.8
2025-10-08T12:00	5700	507	-12.1	-22.6	273	8	2.8
2025-10-08T12:00	5720	505	-12.2	-23.0	271	9	2.8
2025-10-08T12:00	5740	504	-12.3	-23.6	267	9	2.8
2025-10-08T12:00	5760	503	-12.3	-24.2	264	9	2.9
2025-10-08T12:00	5780	501	-12.4	-24.0	261	9	2.8
2025-10-08T12:00	5800	500	-12.5	-24.5	258	9	2.8
2025-10-08T12:00	5820	499	-12.7	-24.1	257	8	2.8
2025-10-08T12:00	5840	497	-12.8	-23.7	256	8	2.8
2025-10-08T12:00	5860	496	-12.9	-23.7	255	8	2.9
2025-10-08T12:00	5880	495	-13.1	-23.5	255	8	2.9
2025-10-08T12:00	5900	494	-13.3	-23.4	255	8	2.8
2025-10-08T12:00	5920	492	-13.3	-23.5	256	8	2.8
2025-10-08T12:00	5940	491	-13.5	-23.5	257	9	2.8
2025-10-08T12:00	5960	490	-13.7	-23.6	258	9	2.8
2025-10-08T12:00	5980	488	-13.8	-22.6	258	9	2.8
2025-10-08T12:00	6000	487	-13.9	-22.6	259	9	2.8
2025-10-08T12:00	6020	486	-14.2	-23.1	258	9	2.7
2025-10-08T12:00	6040	484	-14.3	-23.1	258	9	2.7
2025-10-08T12:00	6060	483	-14.5	-22.7	257	9	2.7
2025-10-08T12:00	6080	482	-14.7	-22.6	257	9	2.7
2025-10-08T12:00	6100	481	-14.9	-22.6	257	9	2.7
2025-10-08T12:00	6120	479	-15.1	-22.8	258	9	2.6
2025-10-08T12:00	6140	478	-15.3	-22.5	260	9	2.6
2025-10-08T12:00	6160	477	-15.3	-22.2	262	9	2.6
2025-10-08T12:00	6180	476	-15.6	-21.9	264	9	2.6
2025-10-08T12:00	6200	474	-15.6	-23.0	265	10	2.6
2025-10-08T12:00	6220	473	-15.9	-24.1	264	10	2.5
2025-10-08T12:00	6240	472	-16.0	-24.0	264	11	2.6
2025-10-08T12:00	6260	470	-16.0	-23.6	262	12	2.6
2025-10-08T12:00	6280	469	-16.1	-23.6	261	12	2.6
2025-10-08T12:00	6300	468	-16.2	-25.4	260	12	2.6
2025-10-08T12:00	6320	467	-16.4	-26.5	258	12	2.6
2025-10-08T12:00	6340	465	-16.6	-26.4	258	12	2.6
2025-10-08T12:00	6360	464	-16.8	-26.5	258	11	2.7
2025-10-08T12:00	6380	463	-17.0	-27.0	259	11	2.7
2025-10-08T12:00	6400	462	-17.1	-29.2	261	11	2.7
2025-10-08T12:00	6420	461	-17.2	-28.4	261	11	2.7
2025-10-08T12:00	6440	459	-17.3	-27.8	262	11	2.7
2025-10-08T12:00	6460	458	-17.5	-28.5	261	11	2.7
2025-10-08T12:00	6480	457	-17.6	-28.0	261	11	2.7
2025-10-08T12:00	6500	456	-17.8	-28.2	261	11	2.7
2025-10-08T12:00	6520	455	-17.9	-29.5	262	12	2.7
2025-10-08T12:00	6540	453	-18.0	-30.5	262	12	2.7
2025-10-08T12:00	6560	452	-18.1	-29.6	262	12	2.7
2025-10-08T12:00	6580	451	-18.3	-27.8	262	12	2.7
2025-10-08T12:00	6600	450	-18.5	-25.5	262	12	2.7
2025-10-08T12:00	6620	448	-18.7	-23.5	261	13	2.7
2025-10-08T12:00	6640	447	-18.7	-23.4	260	13	2.6
2025-10-08T12:00	6660	446	-18.9	-23.6	260	13	2.5
2025-10-08T12:00	6680	445	-19.2	-23.7	260	13	2.4
2025-10-08T12:00	6700	444	-19.3	-24.4	260	14	2.3
2025-10-08T12:00	6720	442	-19.4	-25.2	260	14	2.3
2025-10-08T12:00	6740	441	-19.4	-25.0	260	14	2.3
2025-10-08T12:00	6760	440	-19.6	-24.7	260	14	2.3
2025-10-08T12:00	6780	439	-19.7	-25.5	259	13	2.3
2025-10-08T12:00	6800	438	-19.8	-27.7	259	13	2.3
2025-10-08T12:00	6820	436	-19.8	-30.6	259	12	2.4
2025-10-08T12:00	6840	435	-19.9	-31.2	259	12	2.4
2025-10-08T12:00	6860	434	-19.9	-30.9	261	12	2.5
2025-10-08T12:00	6880	433	-19.8	-32.3	263	12	2.5
2025-10-08T12:00	6900	432	-19.9	-33.5	267	12	2.6
2025-10-08T12:00	6920	431	-19.9	-35.1	269	12	2.7
2025-10-08T12:00	6940	430	-20.0	-39.2	271	12	2.7
2025-10-08T12:00	6960	428	-20.0	-41.0	273	12	2.7
2025-10-08T12:00	6980	427	-19.9	-41.6	274	11	2.7
2025-10-08T12:00	7000	426	-20.1	-41.4	275	11	2.8
2025-10-08T12:00	7020	425	-20.3	-41.9	276	11	2.8
2025-10-08T12:00	7040	424	-20.5	-42.2	278	12	2.8
2025-10-08T12:00	7060	423	-20.6	-42.5	279	12	2.8
2025-10-08T12:00	7080	421	-20.9	-42.7	281	12	2.8
2025-10-08T12:00	7100	420	-21.0	-43.2	282	11	2.8
2025-10-08T12:00	7120	419	-21.1	-43.5	284	11	2.8
2025-10-08T12:00	7140	418	-21.3	-44.0	285	11	2.8
2025-10-08T12:00	7160	417	-21.5	-44.4	286	11	2.9
2025-10-08T12:00	7180	416	-21.7	-44.6	287	11	2.9
2025-10-08T12:00	7200	415	-21.7	-44.6	287	11	2.9
2025-10-08T12:00	7220	414	-21.9	-44.3	288	12	2.9
2025-10-08T12:00	7240	412	-22.0	-44.1	288	12	3.0
2025-10-08T12:00	7260	411	-22.1	-44.0	287	12	3.0
2025-10-08T12:00	7280	410	-22.1	-43.1	287	12	3.0
2025-10-08T12:00	7300	409	-22.2	-38.3	287	12	3.0
2025-10-08T12:00	7320	408	-22.2	-34.6	286	12	3.0
2025-10-08T12:00	7340	407	-22.3	-34.7	286	12	2.9
2025-10-08T12:00	7360	406	-22.3	-34.8	286	12	2.8
2025-10-08T12:00	7380	405	-22.3	-31.0	285	12	2.7
2025-10-08T12:00	7400	404	-22.5	-30.1	284	12	2.6
2025-10-08T12:00	7420	402	-22.6	-30.6	283	12	2.5
2025-10-08T12:00	7440	401	-22.9	-30.9	283	12	2.4
2025-10-08T12:00	7460	400	-22.9	-30.7	282	12	2.3
2025-10-08T12:00	7480	399	-23.1	-30.6	282	12	2.3
2025-10-08T12:00	7500	398	-23.4	-30.1	282	12	2.2
2025-10-08T12:00	7520	397	-23.6	-29.6	282	12	2.2
2025-10-08T12:00	7540	396	-23.7	-29.8	283	12	2.1
2025-10-08T12:00	7560	395	-24.0	-30.0	283	12	2.1
2025-10-08T12:00	7580	394	-24.2	-30.0	283	12	2.1
2025-10-08T12:00	7600	393	-24.3	-30.0	283	12	2.1
2025-10-08T12:00	7620	392	-24.6	-30.0	282	12	2.0
2025-10-08T12:00	7640	391	-24.7	-29.7	281	12	2.0
2025-10-08T12:00	7660	389	-24.8	-29.8	280	12	2.0
2025-10-08T12:00	7680	388	-25.0	-29.8	280	12	2.0
2025-10-08T12:00	7700	387	-25.3	-29.9	280	12	2.0
2025-10-08T12:00	7720	386	-25.5	-29.8	280	12	2.0
2025-10-08T12:00	7740	385	-25.7	-29.9	280	13	2.0
2025-10-08T12:00	7760	384	-25.9	-28.1	280	13	2.0
2025-10-08T12:00	7780	383	-26.0	-28.0	279	13	1.9
2025-10-08T12:00	7800	382	-26.2	-28.1	278	13	1.9
2025-10-08T12:00	7820	381	-26.5	-28.6	277	13	1.8
2025-10-08T12:00	7840	380	-26.5	-29.3	276	13	1.8
2025-10-08T12:00	7860	379	-26.7	-29.8	274	13	1.8
2025-10-08T12:00	7880	378	-26.9	-31.3	272	13	1.8
2025-10-08T12:00	7900	377	-26.9	-32.2	271	13	1.8
2025-10-08T12:00	7920	376	-27.0	-33.1	271	13	1.8
2025-10-08T12:00	7940	375	-27.1	-33.6	271	13	1.8
2025-10-08T12:00	7960	374	-27.3	-34.2	271	13	1.9
2025-10-08T12:00	7980	373	-27.3	-34.7	271	14	1.9
2025-10-08T12:00	8000	372	-27.5	-34.9	271	14	1.9
2025-10-08T12:00	8020	371	-27.9	-34.8	272	14	1.9
2025-10-08T12:00	8040	369	-28.1	-35.2	272	14	1.9
2025-10-08T12:00	8060	368	-28.2	-35.1	272	14	1.9
2025-10-08T12:00	8080	367	-28.4	-35.0	272	14	1.9
2025-10-08T12:00	8100	366	-28.7	-35.0	271	14	1.9
2025-10-08T12:00	8120	365	-28.8	-35.3	271	15	1.9
2025-10-08T12:00	8140	364	-29.0	-35.4	271	15	1.9
2025-10-08T12:00	8160	363	-29.3	-35.7	272	15	1.9
2025-10-08T12:00	8180	362	-29.4	-36.4	272	15	1.9
2025-10-08T12:00	8200	361	-29.6	-36.3	272	15	1.9
2025-10-08T12:00	8220	360	-29.8	-36.2	273	15	1.9
2025-10-08T12:00	8240	359	-29.9	-36.4	274	15	1.9
2025-10-08T12:00	8260	358	-30.1	-36.8	274	16	1.9
2025-10-08T12:00	8280	357	-30.3	-37.1	275	16	1.9
2025-10-08T12:00	8300	356	-30.3	-37.3	275	16	1.9
2025-10-08T12:00	8320	355	-30.6	-37.0	275	16	1.9
2025-10-08T12:00	8340	354	-30.8	-37.0	275	16	1.9
2025-10-08T12:00	8360	353	-31.0	-37.3	275	16	1.9
2025-10-08T12:00	8380	352	-31.1	-37.5	275	16	1.9
2025-10-08T12:00	8400	351	-31.3	-37.0	275	16	1.9
2025-10-08T12:00	8420	350	-31.5	-37.0	276	16	1.9
2025-10-08T12:00	8440	349	-31.7	-37.0	277	16	1.9
2025-10-08T12:00	8460	348	-31.9	-37.2	278	16	1.9
2025-10-08T12:00	8480	347	-32.1	-37.5	279	16	1.9
2025-10-08T12:00	8500	346	-32.3	-37.3	280	15	1.9
2025-10-08T12:00	8520	345	-32.6	-37.3	280	16	1.9
2025-10-08T12:00	8540	344	-32.8	-37.6	280	16	1.9
2025-10-08T12:00	8560	343	-32.9	-37.2	278	16	1.9
2025-10-08T12:00	8580	342	-33.2	-37.2	277	16	1.9
2025-10-08T12:00	8600	342	-33.4	-37.4	276	16	1.9
2025-10-08T12:00	8620	341	-33.5	-38.0	275	16	1.8
2025-10-08T12:00	8640	340	-33.7	-38.1	275	15	1.8
2025-10-08T12:00	8660	339	-33.9	-37.7	275	15	1.9
2025-10-08T12:00	8680	338	-34.2	-37.8	275	15	1.8
2025-10-08T12:00	8700	337	-34.3	-38.3	276	15	1.8
2025-10-08T12:00	8720	336	-34.4	-38.8	277	14	1.8
2025-10-08T12:00	8740	335	-34.7	-40.0	277	14	1.8
2025-10-08T12:00	8760	334	-34.7	-40.1	277	14	1.8
2025-10-08T12:00	8780	333	-34.9	-39.9	277	14	1.8
2025-10-08T12:00	8800	332	-35.0	-40.0	277	15	1.8
2025-10-08T12:00	8820	331	-35.3	-39.6	276	15	1.8
2025-10-08T12:00	8840	330	-35.4	-39.7	273	15	1.8
2025-10-08T12:00	8860	329	-35.6	-39.8	271	16	1.8
2025-10-08T12:00	8880	328	-35.7	-40.7	268	16	1.8
2025-10-08T12:00	8900	327	-35.8	-41.8	266	16	1.8
2025-10-08T12:00	8920	326	-35.8	-42.2	265	17	1.8
2025-10-08T12:00	8940	325	-35.9	-42.5	265	17	1.8
2025-10-08T12:00	8960	324	-36.2	-42.4	266	17	1.8
2025-10-08T12:00	8980	323	-36.4	-42.2	268	17	1.8
2025-10-08T12:00	9000	322	-36.5	-42.7	270	18	1.9
2025-10-08T12:00	9020	321	-36.7	-43.1	270	18	1.9
2025-10-08T12:00	9040	321	-36.9	-42.8	271	19	1.9
2025-10-08T12:00	9060	320	-37.0	-42.6	270	19	1.9
2025-10-08T12:00	9080	319	-37.1	-42.3	269	20	1.9
2025-10-08T12:00	9100	318	-37.3	-41.4	267	20	1.8
2025-10-08T12:00	9120	317	-37.5	-40.9	265	20	1.8
2025-10-08T12:00	9140	316	-37.7	-41.1	263	20	1.8
2025-10-08T12:00	9160	315	-37.7	-41.5	261	19	1.8
2025-10-08T12:00	9180	314	-37.8	-42.2	260	19	1.7
2025-10-08T12:00	9200	313	-37.8	-44.8	260	18	1.7
2025-10-08T12:00	9220	312	-37.8	-46.7	260	18	1.7
2025-10-08T12:00	9240	311	-37.9	-46.4	260	18	1.7
2025-10-08T12:00	9260	311	-38.0	-46.7	260	18	1.8
2025-10-08T12:00	9280	310	-38.1	-45.7	259	18	1.8
2025-10-08T12:00	9300	309	-38.1	-45.6	259	19	1.8
2025-10-08T12:00	9320	308	-38.3	-44.5	260	19	1.8
2025-10-08T12:00	9340	307	-38.5	-43.7	260	19	1.8
2025-10-08T12:00	9360	306	-38.7	-43.8	260	18	1.8
2025-10-08T12:00	9380	305	-38.7	-44.6	260	18	1.7
2025-10-08T12:00	9400	304	-38.7	-44.8	260	17	1.7
2025-10-08T12:00	9420	303	-38.9	-44.9	261	17	1.7
2025-10-08T12:00	9440	302	-38.9	-45.7	261	16	1.7
2025-10-08T12:00	9460	302	-39.1	-47.1	261	16	1.7
2025-10-08T12:00	9480	301	-39.1	-49.4	262	16	1.6
2025-10-08T12:00	9500	300	-39.2	-48.6	263	15	1.7
2025-10-08T12:00	9520	299	-39.4	-47.8	263	15	1.7
2025-10-08T12:00	9540	298	-39.5	-48.2	264	15	1.7
2025-10-08T12:00	9560	297	-39.5	-48.3	265	15	1.7
2025-10-08T12:00	9580	296	-39.8	-48.0	265	15	1.7
2025-10-08T12:00	9600	295	-39.8	-48.3	266	15	1.7
2025-10-08T12:00	9620	295	-40.0	-48.8	266	15	1.7
2025-10-08T12:00	9640	294	-40.1	-49.0	267	15	1.7
2025-10-08T12:00	9660	293	-40.3	-49.5	267	15	1.7
2025-10-08T12:00	9680	292	-40.4	-49.8	267	15	1.6
2025-10-08T12:00	9700	291	-40.5	-49.7	267	15	1.6
2025-10-08T12:00	9720	290	-40.7	-49.5	268	15	1.7
2025-10-08T12:00	9740	290	-40.8	-49.7	268	15	1.7
2025-10-08T12:00	9760	289	-41.0	-50.1	268	15	1.7
2025-10-08T12:00	9780	288	-41.1	-51.1	268	15	1.7
2025-10-08T12:00	9800	287	-41.2	-51.8	268	15	1.7
2025-10-08T12:00	9820	286	-41.3	-51.8	267	15	1.7
2025-10-08T12:00	9840	285	-41.5	-51.9	266	15	1.7
2025-10-08T12:00	9860	284	-41.7	-52.2	265	15	1.8
2025-10-08T12:00	9880	284	-41.8	-52.8	263	15	1.8
2025-10-08T12:00	9900	283	-42.0	-53.4	262	15	1.8
2025-10-08T12:00	9920	282	-42.0	-53.6	261	15	1.8
2025-10-08T12:00	9940	281	-42.0	-52.7	260	15	1.8
2025-10-08T12:00	9960	280	-42.2	-52.3	259	15	1.8
2025-10-08T12:00	9980	279	-42.4	-52.8	258	14	1.8
2025-10-08T12:00	10000	279	-42.6	-53.5	258	14	1.8
2025-10-08T12:00	10018	278	-42.7	-53.7	257	14	1.8
2025-10-08T12:00	10050	276	-42.8	-58.9	257	14	1.8
2025-10-08T12:00	10100	274	-43.1	-56.8	256	13	1.7
2025-10-08T12:00	10150	272	-43.5	-57.0	258	13	1.7
2025-10-08T12:00	10200	270	-43.9	-54.4	260	13	1.6
2025-10-08T12:00	10250	268	-44.4	-51.4	261	13	1.5
2025-10-08T12:00	10300	266	-44.8	-51.9	261	13	1.5
2025-10-08T12:00	10350	264	-45.2	-50.1	261	12	1.5
2025-10-08T12:00	10400	262	-45.7	-50.0	262	12	1.5
2025-10-08T12:00	10450	261	-46.1	-50.2	263	12	1.5
2025-10-08T12:00	10500	259	-46.4	-51.6	265	12	1.5
2025-10-08T12:00	10550	257	-46.8	-52.0	267	12	1.5
2025-10-08T12:00	10600	255	-47.2	-52.7	267	12	1.4
2025-10-08T12:00	10650	253	-47.6	-53.2	267	12	1.3
2025-10-08T12:00	10700	251	-47.9	-52.9	267	12	1.3
2025-10-08T12:00	10750	249	-48.5	-53.2	268	13	1.3
2025-10-08T12:00	10800	247	-48.9	-54.1	269	13	1.2
2025-10-08T12:00	10850	245	-49.3	-55.2	269	14	1.2
2025-10-08T12:00	10900	243	-49.6	-56.0	270	14	1.2
2025-10-08T12:00	10950	241	-50.0	-56.1	271	14	1.2
2025-10-08T12:00	11000	240	-50.4	-55.9	273	14	1.2
2025-10-08T12:00	11050	238	-50.9	-56.1	274	14	1.2
2025-10-08T12:00	11100	236	-51.4	-56.5	274	14	1.2
2025-10-08T12:00	11150	234	-51.7	-56.9	274	14	1.2
2025-10-08T12:00	11200	232	-52.1	-57.7	274	14	1.2
2025-10-08T12:00	11250	231	-52.5	-58.4	275	14	1.2
2025-10-08T12:00	11300	229	-53.0	-58.2	275	14	1.2
2025-10-08T12:00	11350	227	-53.4	-59.1	275	14	1.2
2025-10-08T12:00	11400	225	-53.9	-59.1	275	15	1.2
2025-10-08T12:00	11450	223	-54.3	-60.0	274	15	1.2
2025-10-08T12:00	11500	222	-54.5	-60.3	274	15	1.2
2025-10-08T12:00	11550	220	-54.7	-60.4	274	15	1.2
2025-10-08T12:00	11600	218	-55.1	-60.2	273	16	1.2
2025-10-08T12:00	11650	217	-55.5	-61.0	272	16	1.2
2025-10-08T12:00	11700	215	-55.8	-61.6	271	16	1.2
2025-10-08T12:00	11750	213	-56.2	-61.7	270	16	1.2
2025-10-08T12:00	11800	212	-56.6	-62.2	270	16	1.2
2025-10-08T12:00	11850	210	-57.1	-62.1	272	17	1.2
2025-10-08T12:00	11900	208	-57.2	-61.8	273	17	1.2
2025-10-08T12:00	11950	207	-57.6	-62.2	273	17	1.2
2025-10-08T12:00	12000	205	-57.9	-62.6	272	17	1.2
2025-10-08T12:00	12050	203	-58.2	-63.1	272	17	1.2
2025-10-08T12:00	12100	202	-58.7	-63.6	273	17	1.2
2025-10-08T12:00	12150	200	-59.1	-64.4	273	17	1.2
2025-10-08T12:00	12200	199	-59.6	-65.1	272	17	1.2
2025-10-08T12:00	12250	197	-60.0	-65.1	272	17	1.2
2025-10-08T12:00	12300	195	-60.4	-65.2	274	17	1.2
2025-10-08T12:00	12350	194	-60.8	-65.9	278	16	1.2
2025-10-08T12:00	12400	192	-60.8	-69.3	280	15	1.3
2025-10-08T12:00	12450	191	-60.7	-72.7	279	13	1.4
2025-10-08T12:00	12500	189	-60.7	-74.0	279	13	1.5
2025-10-08T12:00	12550	188	-60.6	-74.6	282	12	1.6
2025-10-08T12:00	12600	186	-60.6	-74.0	284	12	1.7
2025-10-08T12:00	12650	185	-60.8	-73.1	284	13	1.8
2025-10-08T12:00	12700	183	-60.9	-72.4	286	13	1.8
2025-10-08T12:00	12750	182	-60.8	-72.7	288	13	1.9
2025-10-08T12:00	12800	180	-60.8	-72.9	289	12	1.9
2025-10-08T12:00	12850	179	-61.2	-73.1	287	12	1.9
2025-10-08T12:00	12900	177	-61.2	-73.5	284	12	1.9
2025-10-08T12:00	12950	176	-60.9	-74.7	281	12	1.9
2025-10-08T12:00	13000	175	-60.8	-75.2	281	12	2.0
2025-10-08T12:00	13050	173	-61.0	-75.6	281	12	2.0
2025-10-08T12:00	13100	172	-60.6	-75.9	282	12	2.0
2025-10-08T12:00	13150	170	-60.6	-76.3	285	12	1.9
2025-10-08T12:00	13200	169	-60.4	-76.7	289	12	2.0
2025-10-08T12:00	13250	168	-60.3	-76.9	291	12	2.0
2025-10-08T12:00	13300	166	-60.4	-76.9	291	12	2.1
2025-10-08T12:00	13350	165	-60.5	-77.1	290	12	2.2
2025-10-08T12:00	13400	164	-60.5	-77.4	288	12	2.3
2025-10-08T12:00	13450	162	-60.7	-78.0	288	12	2.3
2025-10-08T12:00	13500	161	-60.5	-78.8	289	12	2.4
2025-10-08T12:00	13550	160	-60.5	-79.2	291	12	2.4
2025-10-08T12:00	13600	159	-60.5	-79.2	290	12	2.4
2025-10-08T12:00	13650	157	-60.5	-79.5	287	12	2.5
2025-10-08T12:00	13700	156	-60.6	-80.1	289	12	2.4
2025-10-08T12:00	13750	155	-60.5	-80.4	295	12	2.3
2025-10-08T12:00	13800	154	-60.2	-80.3	300	11	2.3
2025-10-08T12:00	13850	152	-59.9	-80.1	303	10	2.3
2025-10-08T12:00	13900	151	-60.2	-80.2	304	9	2.3
2025-10-08T12:00	13950	150	-60.6	-80.2	300	8	2.3
2025-10-08T12:00	14000	149	-60.9	-80.3	289	7	2.3
2025-10-08T12:00	14050	147	-61.0	-80.6	273	7	2.3
2025-10-08T12:00	14100	146	-61.2	-80.9	262	7	2.4
2025-10-08T12:00	14150	145	-61.5	-81.2	257	8	2.4
2025-10-08T12:00	14200	144	-61.6	-81.4	259	10	2.4
2025-10-08T12:00	14250	143	-61.9	-81.8	265	11	2.4
2025-10-08T12:00	14300	142	-61.6	-81.9	273	12	2.4
2025-10-08T12:00	14350	141	-61.4	-82.2	278	13	2.4
2025-10-08T12:00	14400	139	-61.3	-82.5	282	14	2.3
2025-10-08T12:00	14450	138	-61.1	-82.7	285	14	2.3
2025-10-08T12:00	14500	137	-61.0	-82.9	288	13	2.3
2025-10-08T12:00	14550	136	-60.9	-82.8	291	12	2.3
2025-10-08T12:00	14600	135	-60.9	-82.6	296	11	2.3
2025-10-08T12:00	14650	134	-61.1	-82.4	299	10	2.4
2025-10-08T12:00	14700	133	-61.4	-82.4	301	9	2.5
2025-10-08T12:00	14750	132	-61.7	-82.4	298	9	2.5
2025-10-08T12:00	14800	131	-62.0	-82.4	293	9	2.6
2025-10-08T12:00	14850	130	-62.2	-82.5	290	10	2.7
2025-10-08T12:00	14900	129	-62.2	-82.7	289	11	2.7
2025-10-08T12:00	14950	128	-62.2	-83.3	287	11	2.8
2025-10-08T12:00	15000	126	-62.3	-83.8	286	12	2.6
2025-10-08T12:00	15050	125	-62.3	-83.9	286	13	2.4
2025-10-08T12:00	15100	124	-62.5	-84.0	288	14	2.3
2025-10-08T12:00	15150	123	-62.7	-83.9	292	14	2.2
2025-10-08T12:00	15200	122	-62.6	-83.7	296	14	2.2
2025-10-08T12:00	15250	121	-62.8	-83.7	300	14	2.3
2025-10-08T12:00	15300	121	-62.9	-83.6	304	14	2.3
2025-10-08T12:00	15350	120	-63.1	-83.6	309	14	2.4
2025-10-08T12:00	15400	119	-63.3	-83.6	313	14	2.5
2025-10-08T12:00	15450	118	-63.4	-83.6	316	14	2.7
2025-10-08T12:00	15500	117	-63.5	-83.8	319	13	2.8
2025-10-08T12:00	15550	116	-63.6	-83.8	318	11	2.9
2025-10-08T12:00	15600	115	-64.0	-84.0	314	10	3.0
2025-10-08T12:00	15650	114	-64.2	-84.2	308	9	3.1
2025-10-08T12:00	15700	113	-63.9	-84.4	303	11	3.3
2025-10-08T12:00	15750	112	-64.0	-84.6	301	11	3.6
2025-10-08T12:00	15800	111	-63.9	-84.8	302	11	3.7
2025-10-08T12:00	15850	110	-63.4	-84.9	306	9	4.0
2025-10-08T12:00	15900	109	-63.1	-85.0	312	7	4.4
2025-10-08T12:00	15950	108	-63.1	-85.0	312	7	4.6
2025-10-08T12:00	16000	107	-63.1	-85.1	308	7	4.7
2025-10-08T12:00	16050	107	-63.2	-85.1	307	8	4.6
2025-10-08T12:00	16100	106	-63.4	-85.1	309	9	4.6
2025-10-08T12:00	16150	105	-63.5	-85.2	311	10	4.6
2025-10-08T12:00	16200	104	-63.4	-85.2	312	11	4.4
2025-10-08T12:00	16250	103	-63.5	-85.2	313	10	4.4
2025-10-08T12:00	16300	102	-63.5	-85.2	317	10	4.4
2025-10-08T12:00	16350	102	-63.8	-85.2	323	10	4.5
2025-10-08T12:00	16400	101	-64.2	-85.4	329	9	4.4
2025-10-08T12:00	16450	100	-64.1	-85.4	336	8	4.4
2025-10-08T12:00	16500	99	-64.1	-85.5	343	8	4.4
2025-10-08T12:00	16550	98	-64.0	-85.6	346	7	4.5
2025-10-08T12:00	16600	97	-63.5	-85.2	341	6	4.7
2025-10-08T12:00	16650	97	-63.6	-85.2	330	5	4.8
2025-10-08T12:00	16700	96	-63.8	-85.0	323	4	4.7
2025-10-08T12:00	16750	95	-64.2	-85.0	318	3	4.6
2025-10-08T12:00	16800	94	-64.5	-84.9	299	3	4.4
2025-10-08T12:00	16850	94	-65.2	-85.0	273	3	4.4
2025-10-08T12:00	16900	93	-65.5	-85.0	256	4	4.3
2025-10-08T12:00	16950	92	-65.9	-85.1	246	6	4.2
2025-10-08T12:00	17000	91	-66.3	-85.3	241	7	4.1
2025-10-08T12:00	17050	91	-66.4	-85.4	245	8	4.0
2025-10-08T12:00	17100	90	-65.9	-85.4	255	9	4.0
2025-10-08T12:00	17150	89	-65.8	-85.7	266	10	4.1
2025-10-08T12:00	17200	88	-65.5	-85.9	277	10	4.1
2025-10-08T12:00	17250	88	-65.1	-86.0	287	10	4.2
2025-10-08T12:00	17300	87	-64.7	-86.0	297	10	4.3
2025-10-08T12:00	17350	86	-64.9	-86.3	309	10	4.3
2025-10-08T12:00	17400	85	-64.4	-86.1	321	9	4.4
2025-10-08T12:00	17450	85	-64.2	-86.2	331	8	4.4
2025-10-08T12:00	17500	84	-64.3	-86.5	337	7	4.4
2025-10-08T12:00	17550	83	-64.0	-86.4	335	5	4.5
2025-10-08T12:00	17600	83	-64.2	-86.6	328	5	4.6
2025-10-08T12:00	17650	82	-64.0	-86.5	319	4	4.6
2025-10-08T12:00	17700	81	-63.8	-86.4	316	4	4.7
2025-10-08T12:00	17750	81	-64.1	-86.6	319	4	4.8
2025-10-08T12:00	17800	80	-64.2	-86.7	323	3	4.9
2025-10-08T12:00	17850	79	-64.0	-86.7	330	2	5.0
2025-10-08T12:00	17900	79	-64.2	-86.8	340	2	5.2
2025-10-08T12:00	17950	78	-64.3	-86.9	346	2	5.3
2025-10-08T12:00	18000	77	-64.3	-87.0	354	3	5.5
2025-10-08T12:00	18050	77	-64.2	-87.1	357	3	5.7
2025-10-08T12:00	18100	76	-64.1	-87.2	349	3	6.0
2025-10-08T12:00	18150	76	-64.0	-87.1	331	3	6.5
2025-10-08T12:00	18200	75	-64.2	-87.1	308	3	6.9
2025-10-08T12:00	18250	74	-64.6	-87.3	286	3	7.1
2025-10-08T12:00	18300	74	-64.8	-87.3	275	4	7.1
2025-10-08T12:00	18350	73	-64.6	-87.2	272	5	7.1
2025-10-08T12:00	18400	73	-64.8	-87.4	272	5	7.0
2025-10-08T12:00	18450	72	-65.0	-87.5	274	5	7.0
2025-10-08T12:00	18500	71	-65.1	-87.5	279	5	7.2
2025-10-08T12:00	18550	71	-65.3	-87.6	287	5	7.4
2025-10-08T12:00	18600	70	-65.3	-87.6	296	5	7.7
2025-10-08T12:00	18650	70	-65.5	-87.7	305	5	8.3
2025-10-08T12:00	18700	69	-65.6	-87.9	316	4	8.9
2025-10-08T12:00	18750	69	-65.1	-88.0	339	3	9.2
2025-10-08T12:00	18800	68	-64.3	-87.8	47	2	9.7
2025-10-08T12:00	18850	67	-63.9	-87.7	98	3	10.3
2025-10-08T12:00	18900	67	-64.0	-87.7	116	4	10.7
2025-10-08T12:00	18950	66	-64.4	-87.7	125	4	10.9
2025-10-08T12:00	19000	66	-64.5	-87.8	134	5	11.1
2025-10-08T12:00	19050	65	-64.4	-87.8	145	6	11.1
2025-10-08T12:00	19100	65	-64.3	-87.9	159	6	11.1
2025-10-08T12:00	19150	64	-64.3	-88.0	172	6	11.1
2025-10-08T12:00	19200	64	-64.0	-88.1	186	6	11.0
2025-10-08T12:00	19250	63	-63.4	-87.9	201	6	11.0
2025-10-08T12:00	19300	63	-63.1	-88.1	220	6	10.9
2025-10-08T12:00	19350	62	-62.6	-88.0	238	6	11.0
2025-10-08T12:00	19400	62	-61.8	-87.8	248	6	11.3
2025-10-08T12:00	19450	61	-61.5	-87.9	256	5	11.5
2025-10-08T12:00	19500	61	-60.4	-87.4	270	4	11.8
2025-10-08T12:00	19550	60	-60.1	-87.2	281	5	12.1
2025-10-08T12:00	19600	60	-60.3	-87.1	284	6	12.4
2025-10-08T12:00	19650	59	-60.6	-87.2	285	6	12.6
2025-10-08T12:00	19700	59	-60.4	-87.1	288	5	12.6
2025-10-08T12:00	19750	58	-60.2	-87.0	292	4	12.7
2025-10-08T12:00	19800	58	-60.4	-87.1	294	4	12.8
2025-10-08T12:00	19850	57	-60.4	-87.1	291	3	12.8
2025-10-08T12:00	19900	57	-60.3	-87.1	288	3	12.9
2025-10-08T12:00	19950	56	-60.0	-87.0	288	4	12.9
2025-10-08T12:00	20000	56	-60.0	-87.0	291	5	12.9
2025-10-08T12:00	20050	56	-60.2		295	5	13.0
2025-10-08T12:00	20100	55	-60.3		299	5	12.9
2025-10-08T12:00	20150	55	-60.4		305	6	12.8
2025-10-08T12:00	20200	54	-60.7		313	6	12.8
2025-10-08T12:00	20250	54	-61.1		320	6	12.8
2025-10-08T12:00	20300	53	-61.3		325	6	12.7
2025-10-08T12:00	20350	53	-61.4		327	5	12.7
2025-10-08T12:00	20400	52	-61.6		324	4	12.7
2025-10-08T12:00	20450	52	-61.6		306	2	12.7
2025-10-08T12:00	20500	52	-61.8		270	2	12.6
2025-10-08T12:00	20550	51	-62.0		247	3	12.5
2025-10-08T12:00	20600	51	-62.0		240	3	12.5
2025-10-08T12:00	20650	50	-62.1		231	3	12.5
2025-10-08T12:00	20700	50	-62.0		219	3	12.4
2025-10-08T12:00	20750	50	-62.1		212	4	12.4
2025-10-08T12:00	20800	49	-62.3		209	4	12.4
2025-10-08T12:00	20850	49	-62.5		211	5	12.3
2025-10-08T12:00	20900	48	-62.6		215	6	12.3
2025-10-08T12:00	20950	48	-62.5		222	6	12.2
2025-10-08T12:00	21000	48	-62.5		228	6	12.1
2025-10-08T12:00	21050	47	-62.7		229	6	11.9
2025-10-08T12:00	21100	47	-62.9		230	6	11.9
2025-10-08T12:00	21150	46	-63.2		232	6	11.8
2025-10-08T12:00	21200	46	-63.3		234	6	11.8
2025-10-08T12:00	21250	46	-63.1		240	6	11.6
2025-10-08T12:00	21300	45	-63.1		250	6	11.6
2025-10-08T12:00	21350	45	-63.0		261	6	11.6
2025-10-08T12:00	21400	45	-62.4		271	6	11.6
2025-10-08T12:00	21450	44	-62.4		276	6	11.7
2025-10-08T12:00	21500	44	-62.5		278	7	11.6
2025-10-08T12:00	21550	44	-62.5		281	7	11.6
2025-10-08T12:00	21600	43	-62.7		289	7	11.6
2025-10-08T12:00	21650	43	-63.0		301	7	11.7
2025-10-08T12:00	21700	43	-63.3		312	6	11.6
2025-10-08T12:00	21750	42	-63.3		317	6	11.6
2025-10-08T12:00	21800	42	-62.6		314	5	11.5
2025-10-08T12:00	21850	41	-62.1		300	4	11.4
2025-10-08T12:00	21900	41	-62.1		283	4	11.3
2025-10-08T12:00	21950	41	-62.3		277	4	11.3
2025-10-08T12:00	22000	40	-62.5		282	4	11.3
2025-10-08T12:00	22050	40	-62.3		292	5	11.3
2025-10-08T12:00	22100	40	-62.1		300	5	11.1
2025-10-08T12:00	22150	40	-62.1		300	4	10.9
2025-10-08T12:00	22200	39	-62.1		294	4	10.8
2025-10-08T12:00	22250	39	-62.1		285	4	10.7
2025-10-08T12:00	22300	39	-62.3		273	4	10.6
2025-10-08T12:00	22350	38	-62.4		262	5	10.5
2025-10-08T12:00	22400	38	-62.1		258	6	10.6
2025-10-08T12:00	22450	38	-61.9		262	7	10.7
2025-10-08T12:00	22500	37	-61.9		268	8	10.9
2025-10-08T12:00	22550	37	-61.7		274	7	11.0
2025-10-08T12:00	22600	37	-61.8		280	7	11.0
2025-10-08T12:00	22650	36	-61.5		286	6	10.9
2025-10-08T12:00	22700	36	-60.8		291	5	10.9
2025-10-08T12:00	22750	36	-60.6		294	4	10.9
2025-10-08T12:00	22800	36	-60.4		293	5	10.9
2025-10-08T12:00	22850	35	-60.4		295	5	10.9
2025-10-08T12:00	22900	35	-60.4		299	4	11.0
2025-10-08T12:00	22950	35	-60.2		298	3	11.0
2025-10-08T12:00	23000	34	-59.6		276	2	11.0
2025-10-08T12:00	23050	34	-59.2		260	3	11.0
2025-10-08T12:00	23100	34	-59.2		263	4	11.0
2025-10-08T12:00	23150	34	-58.9		270	6	10.9
2025-10-08T12:00	23200	33	-58.8		272	7	10.9
2025-10-08T12:00	23250	33	-58.8		271	9	10.7
2025-10-08T12:00	23300	33	-58.8		272	10	10.7
2025-10-08T12:00	23350	33	-59.0		275	10	10.6
2025-10-08T12:00	23400	32	-59.2		279	10	10.5
2025-10-08T12:00	23450	32	-59.1		284	9	10.5
2025-10-08T12:00	23500	32	-59.2		290	8	10.4
2025-10-08T12:00	23550	32	-59.3		293	8	10.2
2025-10-08T12:00	23600	31	-59.4		295	8	10.0
2025-10-08T12:00	23650	31	-59.4		298	7	9.7
2025-10-08T12:00	23700	31	-59.1		301	6	9.6
2025-10-08T12:00	23750	31	-59.0		301	6	9.5
2025-10-08T12:00	23800	30	-58.8		297	5	9.5
2025-10-08T12:00	23850	30	-58.3		293	5	9.4
2025-10-08T12:00	23900	30	-58.0		294	5	9.4
2025-10-08T12:00	23950	30	-58.1		299	4	9.4
2025-10-08T12:00	24000	29	-58.2		305	3	9.4
2025-10-08T12:00	24050	29	-58.4		318	2	9.4
2025-10-08T12:00	24100	29	-58.7		340	1	9.4
2025-10-08T12:00	24150	29	-59.1		19	1	9.4
2025-10-08T12:00	24200	28	-59.4		140	1	9.4
2025-10-08T12:00	24250	28	-59.2		173	2	9.3
2025-10-08T12:00	24300	28	-58.9		190	4	9.3
2025-10-08T12:00	24350	28	-58.9		199	5	9.3
2025-10-08T12:00	24400	28	-58.5		203	6	9.3
2025-10-08T12:00	24450	27	-58.4		205	8	9.2
2025-10-08T12:00	24500	27	-58.4		210	9	9.2
2025-10-08T12:00	24550	27	-58.0		217	10	9.2
2025-10-08T12:00	24600	27	-57.7		224	11	9.1
2025-10-08T12:00	24650	26	-57.6		232	11	9.1
2025-10-08T12:00	24700	26	-57.8		240	11	9.0
2025-10-08T12:00	24750	26	-57.6		249	11	8.9
2025-10-08T12:00	24800	26	-57.6		256	12	8.8
2025-10-08T12:00	24850	26	-57.9		262	12	8.8
2025-10-08T12:00	24900	25	-58.0		264	13	8.7
2025-10-08T12:00	24950	25	-57.5		265	13	8.7
2025-10-08T12:00	25000	25	-56.9		267	12	8.6
2025-10-08T12:00	25050	25	-56.8		269	11	8.5
2025-10-08T12:00	25100	25	-56.6		271	11	8.5
2025-10-08T12:00	25150	24	-56.4		270	11	8.4
2025-10-08T12:00	25200	24	-56.1		267	12	8.4
2025-10-08T12:00	25250	24	-56.2		268	12	8.4
2025-10-08T12:00	25300	24	-56.1		273	12	8.4
2025-10-08T12:00	25350	24	-56.1		279	12	8.5
2025-10-08T12:00	25400	24	-56.1		283	11	8.5
2025-10-08T12:00	25450	23	-56.3		285	11	8.6
2025-10-08T12:00	25500	23	-56.7		287	10	8.8
2025-10-08T12:00	25550	23	-57.0		288	10	8.9
2025-10-08T12:00	25600	23	-57.2		287	9	8.9
2025-10-08T12:00	25650	23	-57.3		284	9	8.9
2025-10-08T12:00	25700	22	-57.3		280	9	8.9
2025-10-08T12:00	25750	22	-56.9		276	10	8.8
2025-10-08T12:00	25800	22	-56.8		275	10	8.7
2025-10-08T12:00	25850	22	-56.8		277	11	8.7
2025-10-08T12:00	25900	22	-56.8		281	11	8.6
2025-10-08T12:00	25950	22	-56.4		283	12	8.6
2025-10-08T12:00	26000	21	-56.2		283	12	8.7
2025-10-08T12:00	26050	21	-56.2		281	12	8.7
2025-10-08T12:00	26100	21	-56.2		278	12	8.8
2025-10-08T12:00	26150	21	-56.3		275	11	8.9
2025-10-08T12:00	26200	21	-56.4		272	11	9.0
2025-10-08T12:00	26250	21	-56.5		267	10	9.1
2025-10-08T12:00	26300	20	-56.5		263	9	9.1
2025-10-08T12:00	26350	20	-56.6		259	9	8.9
2025-10-08T12:00	26400	20	-56.5		256	9	8.8
2025-10-08T12:00	26450	20	-56.5		254	9	8.7
2025-10-08T12:00	26500	20	-56.4		251	10	8.8
2025-10-08T12:00	26550	20	-56.3		248	11	9.0
2025-10-08T12:00	26600	19	-56.5		248	11	9.2
2025-10-08T12:00	26650	19	-56.5		253	12	9.2
2025-10-08T12:00	26700	19	-56.5		261	12	9.0
2025-10-08T12:00	26750	19	-56.5		270	13	8.8
2025-10-08T12:00	26800	19	-56.3		275	13	8.7
2025-10-08T12:00	26850	19	-55.7		276	13	8.6
2025-10-08T12:00	26900	19	-55.3		274	12	8.8
2025-10-08T12:00	26950	18	-54.9		272	12	9.0
2025-10-08T12:00	27000	18	-54.6		269	13	9.2
2025-10-08T12:00	27050	18	-54.6		266	13	9.3
2025-10-08T12:00	27100	18	-54.9		265	13	9.3
2025-10-08T12:00	27150	18	-55.0		266	14	9.2
2025-10-08T12:00	27200	18	-54.9		269	15	9.3
2025-10-08T12:00	27250	18	-54.8		273	15	9.3
2025-10-08T12:00	27300	17	-54.8		275	14	9.4
2025-10-08T12:00	27350	17	-54.6		277	13	9.6
2025-10-08T12:00	27400	17	-54.2		278	12	9.7
2025-10-08T12:00	27450	17	-53.9		277	11	9.8
2025-10-08T12:00	27500	17	-53.8		274	12	9.8
2025-10-08T12:00	27550	17	-53.7		271	12	9.8
2025-10-08T12:00	27600	17	-53.8		269	13	9.8
2025-10-08T12:00	27650	17	-54.0		265	14	9.8
2025-10-08T12:00	27700	16	-54.1		261	14	9.8
2025-10-08T12:00	27750	16	-54.2		258	14	9.8
2025-10-08T12:00	27800	16	-54.2		257	14	9.7
2025-10-08T12:00	27850	16	-54.3		259	14	9.7
2025-10-08T12:00	27900	16	-54.5		263	15	9.6
2025-10-08T12:00	27950	16	-54.5		268	15	9.6
2025-10-08T12:00	28000	16	-54.1		272	16	9.6
2025-10-08T12:00	28050	16	-53.8		276	16	9.4
2025-10-08T12:00	28100	15	-53.7		277	16	9.3
2025-10-08T12:00	28150	15	-53.4		275	14	9.2
2025-10-08T12:00	28200	15	-53.2		270	13	9.2
2025-10-08T12:00	28250	15	-52.9		265	12	9.1
2025-10-08T12:00	28300	15	-52.4		260	12	9.1
2025-10-08T12:00	28350	15	-52.1		255	13	9.0
2025-10-08T12:00	28400	15	-52.0		251	14	9.0
2025-10-08T12:00	28450	15	-52.0		249	16	8.9
2025-10-08T12:00	28500	14	-51.8		248	17	8.8
2025-10-08T12:00	28550	14	-51.7		249	17	8.7
2025-10-08T12:00	28600	14	-51.5		251	17	8.7
2025-10-08T12:00	28650	14	-51.5		254	17	8.8
2025-10-08T12:00	28700	14	-51.7		255	17	8.8
2025-10-08T12:00	28750	14	-51.9		257	16	8.6
2025-10-08T12:00	28800	14	-52.0		259	16	8.5
2025-10-08T12:00	28850	14	-52.0		260	16	8.6
2025-10-08T12:00	28900	14	-52.0		262	17	8.5
2025-10-08T12:00	28950	14	-52.1		264	17	8.4
2025-10-08T12:00	29000	13	-52.1		266	17	8.4
2025-10-08T12:00	29050	13	-51.9		265	17	8.3
2025-10-08T12:00	29100	13	-51.9		262	17	8.3
2025-10-08T12:00	29150	13	-51.7		258	18	8.3
2025-10-08T12:00	29200	13	-51.3		257	19	8.1
2025-10-08T12:00	29250	13	-50.8		260	20	8.0
2025-10-08T12:00	29300	13	-50.4		262	21	8.0
2025-10-08T12:00	29350	13	-50.3		265	20	8.0
2025-10-08T12:00	29400	13	-50.4		269	20	7.8
2025-10-08T12:00	29450	12	-50.4		272	19	7.9
2025-10-08T12:00	29500	12	-50.3		272	18	7.8
2025-10-08T12:00	29550	12	-50.1		270	18	7.7
2025-10-08T12:00	29600	12	-50.1		267	17	7.7
2025-10-08T12:00	29650	12	-50.2		267	17	7.5
2025-10-08T12:00	29700	12	-50.1		269	17	7.6
2025-10-08T12:00	29750	12	-49.9		272	17	7.6
2025-10-08T12:00	29800	12	-49.8		274	18	7.6
2025-10-08T12:00	29850	12	-49.5		275	19	7.5
2025-10-08T12:00	29900	12	-49.3		275	20	7.5
2025-10-08T12:00	29950	12	-49.4		275	21	7.5
2025-10-08T12:00	30000	11	-49.7		276	21	7.4
2025-10-08T12:00	30050	11	-49.8		277	21	7.4
2025-10-08T12:00	30100	11	-50.0		278	20	7.3
2025-10-08T12:00	30150	11	-50.4		278	19	
2025-10-08T12:00	30200	11	-50.8		277	18	
2025-10-08T12:00	30250	11	-50.7		275	18	
2025-10-08T12:00	30300	11	-50.4		270	17	
2025-10-08T12:00	30350	11	-50.1		265	16	
2025-10-08T12:00	30400	11	-49.9		261	15	
2025-10-08T12:00	30450	11	-49.8		257	15	
2025-10-08T12:00	30500	11	-49.9		255	15	
2025-10-08T12:00	30550	11	-49.9		256	16	
2025-10-08T12:00	30600	10	-50.0		257	17	
2025-10-08T12:00	30650	10	-50.0		259	19	
2025-10-08T12:00	30700	10	-50.0		261	19	
2025-10-08T12:00	30750	10	-50.2		262	20	
2025-10-08T12:00	30800	10	-50.0		262	20	
2025-10-08T12:00	30850	10	-49.9		262	20	
2025-10-08T12:00	30900	10	-49.9		261	21	
2025-10-08T12:00	30950	10	-50.0		261	22	
2025-10-08T12:00	31000	10	-50.0		263	23	
2025-10-08T12:00	31050	10	-49.7		266	23	
2025-10-08T12:00	31100	10	-49.6		268	23	
2025-10-08T12:00	31150	10	-49.7		269	23	
2025-10-08T12:00	31200	10	-49.6		270	24	
2025-10-08T12:00	31250	9	-49.5		270	24	
2025-10-08T12:00	31300	9	-49.4		269	24	
2025-10-08T12:00	31350	9	-49.4		268	22	
2025-10-08T12:00	31400	9	-49.4		266	21	
2025-10-08T12:00	31450	9	-49.4		265	19	
2025-10-08T12:00	31500	9	-49.5		263	18	
2025-10-08T12:00	31550	9	-49.6		262	18	
2025-10-08T12:00	31600	9	-49.5		260	18	
2025-10-08T12:00	31650	9	-49.6		259	20	
2025-10-08T12:00	31700	9	-49.6		260	21	
2025-10-08T12:00	31750	9	-49.8		261	22	
2025-10-08T12:00	31800	9	-49.9		261	23	
2025-10-08T12:00	31850	9	-49.9		259	23	
2025-10-08T12:00	31900	9	-49.6		257	23	
2025-10-08T12:00	31950	9	-49.6		255	23	
2025-10-08T12:00	32000	8	-49.8		254	23	
2025-10-08T12:00	32050	8	-50.0		255	23	
2025-10-08T12:00	32100	8	-50.0		256	23	
2025-10-08T12:00	32150	8	-50.1		257	23	
2025-10-08T12:00	32200	8	-50.3		258	24	
2025-10-08T12:00	32250	8	-50.6		259	25	
2025-10-08T12:00	32300	8	-50.9		261	25	
2025-10-08T12:00	32350	8	-50.9		262	26	
2025-10-08T12:00	32400	8	-50.7		263	26	
2025-10-08T12:00	32450	8	-50.7		264	27	
2025-10-08T12:00	32500	8	-50.9		266	27	
2025-10-08T12:00	32550	8	-50.7		270	27	
2025-10-08T12:00	32600	8	-50.3		274	26	
2025-10-08T12:00	32650	8	-50.3		277	26	
2025-10-08T12:00	32700	8	-50.2		278	25	
2025-10-08T12:00	32750	8	-49.8		276	24	
2025-10-08T12:00	32800	7	-49.4		274	23	
2025-10-08T12:00	32850	7	-49.2		274	23	
2025-10-08T12:00	32900	7	-48.9		273	23	
2025-10-08T12:00	32950	7	-48.4		271	22	
2025-10-08T12:00	33000	7	-48.0		270	23	
2025-10-08T12:00	33050	7	-47.4		270	24	
2025-10-08T12:00	33100	7	-46.8		271	26	
2025-10-08T12:00	33150	7	-46.2		270	28	
2025-10-08T12:00	33200	7	-45.8		269	29	
2025-10-08T12:00	33250	7	-45.5		268	30	
2025-10-08T12:00	33300	7	-45.3		268	32	
2025-10-08T12:00	33350	7	-45.4		269	32	
2025-10-08T12:00	33400	7	-45.3		270	33	
2025-10-08T12:00	33450	7	-45.3		273	33	
2025-10-08T12:00	33500	7	-45.5		275	32	
2025-10-08T12:00	33550	7	-45.7		278	32	
2025-10-08T12:00	33600	7	-45.9		280	32	
2025-10-08T12:00	33650	7	-46.0		282	33	
2025-10-08T12:00	33700	7	-46.0		282	33	
2025-10-08T12:00	33750	6	-46.1		282	34	
2025-10-08T12:00	33800	6	-46.0		283	34	
2025-10-08T12:00	33850	6	-45.8		283	33	
2025-10-08T12:00	33900	6	-45.9		283	31	
2025-10-08T12:00	33950	6	-46.2		283	29	
2025-10-08T12:00	34000	6	-46.5		283	28	
2025-10-08T12:00	34050	6	-46.8		282	27	
2025-10-08T12:00	34100	6	-46.8		280	27	
2025-10-09T00:00	491	964	9.9	9.9	219	1	
2025-10-09T00:00	501	962	9.7	9.7	206	1	
2025-10-09T00:00	520	961	9.5	9.5	198	1	
2025-10-09T00:00	540	958	9.4	9.4	199	1	
2025-10-09T00:00	560	956	9.3	9.3	198	1	
2025-10-09T00:00	580	954	9.2	9.2	195	1	
2025-10-09T00:00	600	952	9.1	9.1	187	1	
2025-10-09T00:00	620	949	9.1	9.1	169	1	
2025-10-09T00:00	640	947	9.6	9.6	146	1	
2025-10-09T00:00	660	945	10.4	10.1	125	1	
2025-10-09T00:00	680	943	10.9	10.2	108	1	
2025-10-09T00:00	700	940	10.9	10.2	97	2	
2025-10-09T00:00	720	938	10.9	9.8	89	2	
2025-10-09T00:00	740	936	11.0	9.3	82	2	
2025-10-09T00:00	760	934	11.1	8.6	76	2	
2025-10-09T00:00	780	931	11.3	8.1	71	3	
2025-10-09T00:00	800	929	11.5	8.1	66	3	
2025-10-09T00:00	820	927	11.8	8.0	63	3	
2025-10-09T00:00	840	925	12.1	8.4	59	3	
2025-10-09T00:00	860	922	12.1	8.8	57	3	
2025-10-09T00:00	880	920	12.1	9.1	55	4	
2025-10-09T00:00	900	918	12.2	8.9	54	4	
2025-10-09T00:00	920	916	12.2	8.7	54	4	
2025-10-09T00:00	940	914	12.4	8.9	53	4	
2025-10-09T00:00	960	912	12.4	9.2	53	5	
2025-10-09T00:00	980	909	12.3	9.3	52	5	
2025-10-09T00:00	1000	907	12.1	9.2	52	5	
2025-10-09T00:00	1020	905	12.0	9.1	52	5	
2025-10-09T00:00	1040	903	11.8	9.2	52	5	
2025-10-09T00:00	1060	901	11.7	9.2	54	5	
2025-10-09T00:00	1080	899	11.6	8.7	56	5	
2025-10-09T00:00	1100	896	11.6	8.4	59	5	
2025-10-09T00:00	1120	894	11.5	8.2	62	5	
2025-10-09T00:00	1140	892	11.4	7.9	65	5	
2025-10-09T00:00	1160	890	11.2	7.8	67	5	
2025-10-09T00:00	1180	888	11.0	7.7	69	5	
2025-10-09T00:00	1200	886	10.8	7.6	72	5	
2025-10-09T00:00	1220	884	10.6	7.7	74	6	
2025-10-09T00:00	1240	882	10.4	7.6	76	6	
2025-10-09T00:00	1260	880	10.2	7.6	78	6	
2025-10-09T00:00	1280	877	10.2	6.9	80	5	
2025-10-09T00:00	1300	875	10.6	5.7	82	5	
2025-10-09T00:00	1320	873	10.5	5.9	82	5	
2025-10-09T00:00	1340	871	10.4	5.9	82	5	
2025-10-09T00:00	1360	869	10.3	5.5	81	5	
2025-10-09T00:00	1380	867	10.3	5.1	80	5	
2025-10-09T00:00	1400	865	10.2	5.3	79	5	
2025-10-09T00:00	1420	863	10.1	5.2	78	5	
2025-10-09T00:00	1440	861	10.0	5.6	77	5	
2025-10-09T00:00	1460	859	10.0	5.2	76	5	
2025-10-09T00:00	1480	856	9.9	5.2	73	5	
2025-10-09T00:00	1500	855	9.8	5.1	70	5	
2025-10-09T00:00	1520	852	9.7	4.9	66	4	
2025-10-09T00:00	1540	850	9.6	4.6	63	4	
2025-10-09T00:00	1560	848	9.6	4.2	60	4	
2025-10-09T00:00	1580	846	9.6	3.6	58	5	
2025-10-09T00:00	1600	844	9.6	3.3	57	5	
2025-10-09T00:00	1620	842	9.7	3.2	57	5	
2025-10-09T00:00	1640	840	9.8	3.3	58	5	
2025-10-09T00:00	1660	838	9.7	3.4	59	5	
2025-10-09T00:00	1680	836	9.6	3.6	60	5	
2025-10-09T00:00	1700	834	9.6	3.6	60	5	
2025-10-09T00:00	1720	832	9.4	3.5	60	5	
2025-10-09T00:00	1740	830	9.4	2.9	58	4	
2025-10-09T00:00	1760	828	9.4	2.2	57	4	
2025-10-09T00:00	1780	826	9.3	2.0	54	4	
2025-10-09T00:00	1800	824	9.2	3.3	50	4	
2025-10-09T00:00	1820	822	9.1	4.3	46	4	
2025-10-09T00:00	1840	820	9.0	4.2	40	5	
2025-10-09T00:00	1860	818	9.0	3.9	36	5	
2025-10-09T00:00	1880	816	9.0	3.8	32	5	
2025-10-09T00:00	1900	814	8.9	3.7	30	5	
2025-10-09T00:00	1920	813	8.7	3.6	29	5	
2025-10-09T00:00	1940	811	8.6	3.4	29	5	
2025-10-09T00:00	1960	809	8.6	3.1	29	5	
2025-10-09T00:00	1980	806	8.5	2.7	31	5	
2025-10-09T00:00	2000	805	8.6	1.6	34	5	
2025-10-09T00:00	2020	802	8.5	0.8	37	5	
2025-10-09T00:00	2040	800	8.3	0.9	40	5	
2025-10-09T00:00	2060	798	8.2	1.4	41	4	
2025-10-09T00:00	2080	797	8.0	1.7	40	4	
2025-10-09T00:00	2100	795	7.8	1.7	38	5	
2025-10-09T00:00	2120	793	7.7	1.3	35	5	
2025-10-09T00:00	2140	791	7.5	1.0	33	5	
2025-10-09T00:00	2160	789	7.3	0.9	31	5	
2025-10-09T00:00	2180	787	7.2	0.7	29	5	
2025-10-09T00:00	2200	785	7.0	0.6	29	5	
2025-10-09T00:00	2220	783	6.9	0.8	29	6	
2025-10-09T00:00	2240	782	6.8	1.0	30	6	
2025-10-09T00:00	2260	780	6.6	1.2	31	6	
2025-10-09T00:00	2280	778	6.5	1.3	31	6	
2025-10-09T00:00	2300	776	6.3	1.3	32	6	
2025-10-09T00:00	2320	774	6.1	1.4	32	6	
2025-10-09T00:00	2340	772	6.0	1.4	31	6	
2025-10-09T00:00	2360	770	5.8	1.5	30	6	
2025-10-09T00:00	2380	768	5.7	1.6	28	6	
2025-10-09T00:00	2400	766	5.5	1.8	27	6	
2025-10-09T00:00	2420	764	5.4	1.9	25	6	
2025-10-09T00:00	2440	763	5.3	1.5	23	6	
2025-10-09T00:00	2460	761	5.1	1.3	21	6	
2025-10-09T00:00	2480	759	5.0	1.0	19	5	
2025-10-09T00:00	2500	757	5.1	0.7	19	5	
2025-10-09T00:00	2520	755	5.0	0.5	19	5	
2025-10-09T00:00	2540	753	5.0	0.0	21	4	
2025-10-09T00:00	2560	751	4.9	-0.6	25	4	
2025-10-09T00:00	2580	750	4.9	-1.0	29	4	
2025-10-09T00:00	2600	748	4.9	-2.4	33	4	
2025-10-09T00:00	2620	746	4.9	-3.6	36	4	
2025-10-09T00:00	2640	744	4.8	-3.9	35	4	
2025-10-09T00:00	2660	742	4.8	-4.9	32	4	
2025-10-09T00:00	2680	741	4.8	-6.1	30	4	
2025-10-09T00:00	2700	739	4.8	-7.1	27	4	
2025-10-09T00:00	2720	737	4.8	-8.1	24	4	
2025-10-09T00:00	2740	735	4.7	-8.2	21	4	
2025-10-09T00:00	2760	733	4.5	-8.5	17	4	
2025-10-09T00:00	2780	731	4.4	-8.8	15	5	
2025-10-09T00:00	2800	730	4.4	-7.5	13	5	
2025-10-09T00:00	2820	728	4.2	-6.3	11	5	
2025-10-09T00:00	2840	726	4.1	-5.9	8	5	
2025-10-09T00:00	2860	725	3.9	-5.9	7	5	
2025-10-09T00:00	2880	723	3.8	-5.8	6	5	
2025-10-09T00:00	2900	721	3.6	-6.0	5	5	
2025-10-09T00:00	2920	719	3.5	-6.2	5	4	
2025-10-09T00:00	2940	717	3.3	-7.1	5	4	
2025-10-09T00:00	2960	715	3.2	-7.4	5	4	
2025-10-09T00:00	2980	714	3.1	-7.8	4	3	
2025-10-09T00:00	3000	712	2.9	-8.1	0	3	
2025-10-09T00:00	3020	710	2.8	-8.4	356	3	
2025-10-09T00:00	3040	708	2.6	-8.1	352	3	
2025-10-09T00:00	3060	707	2.6	-7.5	349	3	
2025-10-09T00:00	3080	705	2.4	-7.3	346	4	
2025-10-09T00:00	3100	703	2.3	-7.5	343	4	
2025-10-09T00:00	3120	702	2.1	-7.5	342	4	
2025-10-09T00:00	3140	700	2.0	-7.6	340	4	
2025-10-09T00:00	3160	698	1.8	-7.8	339	4	
2025-10-09T00:00	3180	696	1.6	-8.1	338	4	
2025-10-09T00:00	3200	694	1.5	-8.6	337	4	
2025-10-09T00:00	3220	693	1.3	-9.1	337	4	
2025-10-09T00:00	3240	691	1.2	-9.4	338	4	
2025-10-09T00:00	3260	690	1.1	-10.1	338	5	
2025-10-09T00:00	3280	688	1.0	-12.3	339	5	
2025-10-09T00:00	3300	686	1.0	-13.9	340	5	
2025-10-09T00:00	3320	684	0.9	-13.2	343	5	
2025-10-09T00:00	3340	682	0.7	-13.0	346	5	
2025-10-09T00:00	3360	681	0.6	-13.0	349	5	
2025-10-09T00:00	3380	679	0.5	-13.0	352	5	
2025-10-09T00:00	3400	677	0.3	-12.9	354	5	
2025-10-09T00:00	3420	676	0.2	-13.8	356	5	
2025-10-09T00:00	3440	674	0.1	-15.9	358	4	
2025-10-09T00:00	3460	672	0.0	-16.5	359	4	
2025-10-09T00:00	3480	671	0.0	-16.5	357	4	
2025-10-09T00:00	3500	669	-0.1	-16.4	353	3	
2025-10-09T00:00	3520	667	-0.2	-16.3	346	3	
2025-10-09T00:00	3540	665	-0.4	-16.2	339	3	
2025-10-09T00:00	3560	664	-0.5	-15.9	334	3	
2025-10-09T00:00	3580	662	-0.6	-15.4	330	3	
2025-10-09T00:00	3600	661	-0.7	-15.2	327	4	
2025-10-09T00:00	3620	659	-0.9	-15.1	324	4	
2025-10-09T00:00	3640	657	-1.0	-14.9	323	4	
2025-10-09T00:00	3660	656	-1.1	-15.0	323	4	
2025-10-09T00:00	3680	654	-1.3	-15.0	325	5	
2025-10-09T00:00	3700	653	-1.4	-15.3	327	5	
2025-10-09T00:00	3720	651	-1.4	-15.3	329	5	
2025-10-09T00:00	3740	649	-1.5	-14.4	331	5	
2025-10-09T00:00	3760	647	-1.6	-14.7	332	5	
2025-10-09T00:00	3780	646	-1.6	-16.0	332	5	
2025-10-09T00:00	3800	644	-1.7	-16.8	332	5	
2025-10-09T00:00	3820	643	-1.8	-17.1	331	5	
2025-10-09T00:00	3840	641	-2.0	-16.2	331	4	
2025-10-09T00:00	3860	639	-2.1	-16.2	331	4	
2025-10-09T00:00	3880	638	-2.2	-16.8	333	4	
2025-10-09T00:00	3900	636	-2.3	-17.4	336	4	
2025-10-09T00:00	3920	635	-2.5	-18.3	340	4	
2025-10-09T00:00	3940	633	-2.6	-18.0	342	4	
2025-10-09T00:00	3960	631	-2.8	-17.4	344	5	
2025-10-09T00:00	3980	630	-2.9	-17.4	345	5	
2025-10-09T00:00	4000	628	-3.0	-17.3	345	5	
2025-10-09T00:00	4020	627	-3.2	-16.6	344	5	
2025-10-09T00:00	4040	625	-3.3	-16.0	343	6	
2025-10-09T00:00	4060	624	-3.5	-16.0	340	6	
2025-10-09T00:00	4080	622	-3.6	-16.4	337	6	
2025-10-09T00:00	4100	620	-3.8	-16.7	334	6	
2025-10-09T00:00	4120	619	-3.9	-17.3	331	6	
2025-10-09T00:00	4140	617	-4.1	-17.8	328	5	
2025-10-09T00:00	4160	616	-4.1	-18.6	327	5	
2025-10-09T00:00	4180	614	-4.1	-16.7	328	5	
2025-10-09T00:00	4200	613	-4.1	-15.3	329	5	
2025-10-09T00:00	4220	611	-4.3	-15.4	333	5	
2025-10-09T00:00	4240	610	-4.5	-15.3	335	5	
2025-10-09T00:00	4260	608	-4.7	-15.3	336	5	
2025-10-09T00:00	4280	607	-4.9	-15.4	336	5	
2025-10-09T00:00	4300	605	-5.1	-15.4	335	5	
2025-10-09T00:00	4320	603	-5.3	-15.5	333	5	
2025-10-09T00:00	4340	602	-5.4	-15.5	330	5	
2025-10-09T00:00	4360	600	-5.6	-15.4	328	6	
2025-10-09T00:00	4380	599	-5.7	-15.5	326	6	
2025-10-09T00:00	4400	597	-5.8	-15.7	324	6	
2025-10-09T00:00	4420	596	-5.9	-15.8	323	6	
2025-10-09T00:00	4440	594	-6.0	-13.8	321	5	
2025-10-09T00:00	4460	593	-6.1	-11.8	319	5	
2025-10-09T00:00	4480	591	-6.2	-11.3	318	4	
2025-10-09T00:00	4500	589	-6.4	-10.4	316	4	
2025-10-09T00:00	4520	588	-6.5	-10.0	315	4	
2025-10-09T00:00	4540	586	-6.7	-10.1	314	3	
2025-10-09T00:00	4560	585	-6.8	-10.2	313	3	
2025-10-09T00:00	4580	584	-7.0	-10.1	310	3	
2025-10-09T00:00	4600	582	-7.1	-10.0	305	3	
2025-10-09T00:00	4620	581	-7.3	-9.8	301	3	
2025-10-09T00:00	4640	579	-7.5	-9.8	297	4	
2025-10-09T00:00	4660	578	-7.6	-10.0	294	4	
2025-10-09T00:00	4680	576	-7.8	-10.4	293	4	
2025-10-09T00:00	4700	575	-7.9	-10.7	294	4	
2025-10-09T00:00	4720	573	-8.1	-10.8	295	5	
2025-10-09T00:00	4740	572	-8.2	-11.3	297	5	
2025-10-09T00:00	4760	570	-8.4	-11.5	300	5	
2025-10-09T00:00	4780	569	-8.6	-11.6	302	5	
2025-10-09T00:00	4800	567	-8.7	-11.8	304	5	
2025-10-09T00:00	4820	566	-8.9	-11.7	306	5	
2025-10-09T00:00	4840	564	-9.0	-11.8	305	5	
2025-10-09T00:00	4860	563	-9.2	-11.9	304	5	
2025-10-09T00:00	4880	561	-9.3	-12.1	302	5	
2025-10-09T00:00	4900	560	-9.5	-12.2	299	5	
2025-10-09T00:00	4920	559	-9.7	-12.3	295	5	
2025-10-09T00:00	4940	557	-9.9	-12.3	291	5	
2025-10-09T00:00	4960	555	-10.1	-12.4	287	5	
2025-10-09T00:00	4980	554	-10.2	-12.5	284	5	
2025-10-09T00:00	5000	553	-10.4	-12.5	278	5	
2025-10-09T00:00	5020	551	-10.6	-12.5	275	5	
2025-10-09T00:00	5040	550	-10.7	-12.6	273	5	
2025-10-09T00:00	5060	549	-10.9	-12.4	272	5	
2025-10-09T00:00	5080	547	-11.1	-12.9	272	4	
2025-10-09T00:00	5100	546	-11.2	-13.0	273	4	
2025-10-09T00:00	5120	544	-11.4	-12.8	275	3	
2025-10-09T00:00	5140	543	-11.5	-12.9	276	3	
2025-10-09T00:00	5160	541	-11.6	-13.2	276	3	
2025-10-09T00:00	5180	540	-11.8	-13.3	274	3	
2025-10-09T00:00	5200	538	-12.0	-13.3	273	3	
2025-10-09T00:00	5220	537	-12.1	-13.3	273	3	
2025-10-09T00:00	5240	536	-12.3	-13.4	273	3	
2025-10-09T00:00	5260	535	-12.4	-13.6	273	3	
2025-10-09T00:00	5280	533	-12.6	-14.0	272	4	
2025-10-09T00:00	5300	532	-12.8	-14.2	270	4	
2025-10-09T00:00	5320	530	-12.9	-14.3	267	4	
2025-10-09T00:00	5340	529	-13.2	-14.4	263	4	
2025-10-09T00:00	5360	527	-13.3	-14.6	257	4	
2025-10-09T00:00	5380	526	-13.5	-14.7	254	4	
2025-10-09T00:00	5400	525	-13.7	-14.9	252	4	
2025-10-09T00:00	5420	523	-13.9	-15.1	253	4	
2025-10-09T00:00	5440	522	-14.1	-15.1	255	4	
2025-10-09T00:00	5460	520	-14.3	-15.1	257	4	
2025-10-09T00:00	5480	519	-14.4	-15.4	259	5	
2025-10-09T00:00	5500	518	-14.6	-15.5	260	5	
2025-10-09T00:00	5520	516	-14.8	-15.5	260	5	
2025-10-09T00:00	5540	515	-15.0	-15.6	262	5	
2025-10-09T00:00	5560	514	-15.2	-15.6	263	5	
2025-10-09T00:00	5580	512	-15.4	-15.7	266	5	
2025-10-09T00:00	5600	511	-15.5	-16.0	268	5	
2025-10-09T00:00	5620	510	-15.6	-16.7	271	6	
2025-10-09T00:00	5640	508	-15.4	-18.9	274	6	
2025-10-09T00:00	5660	507	-15.2	-21.9	276	7	
2025-10-09T00:00	5680	506	-15.0	-25.2	279	7	
2025-10-09T00:00	5700	504	-14.9	-28.3	281	7	
2025-10-09T00:00	5720	503	-15.0	-29.0	281	7	
2025-10-09T00:00	5740	502	-15.0	-29.9	282	7	
2025-10-09T00:00	5760	500	-15.1	-30.4	282	7	
2025-10-09T00:00	5780	499	-15.2	-29.5	282	6	
2025-10-09T00:00	5800	498	-15.4	-28.7	282	6	
2025-10-09T00:00	5820	496	-15.5	-28.3	283	6	
2025-10-09T00:00	5840	495	-15.6	-27.8	284	6	
2025-10-09T00:00	5860	494	-15.7	-27.8	286	6	
2025-10-09T00:00	5880	492	-15.9	-27.8	287	6	
2025-10-09T00:00	5900	491	-16.1	-27.8	290	5	
2025-10-09T00:00	5920	490	-16.3	-27.9	291	5	
2025-10-09T00:00	5940	488	-16.5	-28.0	292	5	
2025-10-09T00:00	5960	487	-16.7	-28.1	292	5	
2025-10-09T00:00	5980	486	-16.9	-28.5	291	6	
2025-10-09T00:00	6000	485	-17.1	-28.6	288	6	
2025-10-09T00:00	6020	483	-17.2	-30.8	284	6	
2025-10-09T00:00	6040	482	-17.2	-34.1	280	6	
2025-10-09T00:00	6060	481	-17.2	-36.3	277	7	
2025-10-09T00:00	6080	480	-17.2	-37.4	274	7	
2025-10-09T00:00	6100	478	-17.2	-37.9	270	7	
2025-10-09T00:00	6120	477	-17.3	-37.7	267	7	
2025-10-09T00:00	6140	476	-17.5	-36.6	263	8	
2025-10-09T00:00	6160	474	-17.6	-34.5	260	8	
2025-10-09T00:00	6180	473	-17.8	-33.5	259	8	
2025-10-09T00:00	6200	472	-17.9	-33.4	257	8	
2025-10-09T00:00	6220	471	-18.1	-33.2	255	8	
2025-10-09T00:00	6240	469	-18.3	-32.9	254	8	
2025-10-09T00:00	6260	468	-18.5	-32.6	252	8	
2025-10-09T00:00	6280	467	-18.6	-32.4	250	8	
2025-10-09T00:00	6300	465	-18.8	-32.3	249	8	
2025-10-09T00:00	6320	464	-18.9	-32.2	247	8	
2025-10-09T00:00	6340	463	-19.0	-32.1	246	8	
2025-10-09T00:00	6360	462	-19.2	-32.0	246	8	
2025-10-09T00:00	6380	461	-19.3	-31.9	246	8	
2025-10-09T00:00	6400	459	-19.5	-32.0	247	8	
2025-10-09T00:00	6420	458	-19.6	-32.6	247	8	
2025-10-09T00:00	6440	457	-19.6	-33.4	248	8	
2025-10-09T00:00	6460	456	-19.8	-33.6	249	8	
2025-10-09T00:00	6480	454	-19.9	-34.2	250	8	
2025-10-09T00:00	6500	453	-20.1	-35.3	251	8	
2025-10-09T00:00	6520	452	-20.2	-36.0	252	8	
2025-10-09T00:00	6540	451	-20.3	-36.3	253	8	
2025-10-09T00:00	6560	450	-20.4	-36.7	254	8	
2025-10-09T00:00	6580	448	-20.4	-37.8	255	8	
2025-10-09T00:00	6600	447	-20.5	-38.3	256	8	
2025-10-09T00:00	6620	446	-20.7	-38.4	256	8	
2025-10-09T00:00	6640	445	-20.8	-38.6	257	8	
2025-10-09T00:00	6660	444	-20.9	-39.0	257	8	
2025-10-09T00:00	6680	442	-21.0	-39.8	257	8	
2025-10-09T00:00	6700	441	-21.1	-40.1	258	8	
2025-10-09T00:00	6720	440	-21.3	-40.1	260	7	
2025-10-09T00:00	6740	439	-21.5	-40.3	264	7	
2025-10-09T00:00	6760	437	-21.5	-40.8	267	7	
2025-10-09T00:00	6780	436	-21.6	-40.7	270	8	
2025-10-09T00:00	6800	435	-21.8	-40.5	272	8	
2025-10-09T00:00	6820	434	-21.8	-40.7	274	8	
2025-10-09T00:00	6840	433	-21.8	-40.3	275	9	
2025-10-09T00:00	6860	432	-21.9	-39.9	276	9	
2025-10-09T00:00	6880	430	-22.1	-39.7	276	10	
2025-10-09T00:00	6900	429	-22.2	-39.0	276	10	
2025-10-09T00:00	6920	428	-22.3	-38.6	275	10	
2025-10-09T00:00	6940	427	-22.4	-38.5	275	11	
2025-10-09T00:00	6960	426	-22.5	-38.2	274	11	
2025-10-09T00:00	6980	425	-22.7	-37.8	273	11	
2025-10-09T00:00	7000	423	-22.8	-37.4	272	10	
2025-10-09T00:00	7020	422	-23.0	-37.1	270	10	
2025-10-09T00:00	7040	421	-23.1	-36.9	268	10	
2025-10-09T00:00	7060	420	-23.3	-36.7	265	10	
2025-10-09T00:00	7080	419	-23.4	-36.2	262	10	
2025-10-09T00:00	7100	418	-23.6	-35.5	258	10	
2025-10-09T00:00	7120	417	-23.7	-35.3	254	10	
2025-10-09T00:00	7140	416	-23.9	-34.8	253	10	
2025-10-09T00:00	7160	414	-24.1	-34.9	251	10	
2025-10-09T00:00	7180	413	-24.3	-35.0	251	10	
2025-10-09T00:00	7200	412	-24.5	-35.0	251	10	
2025-10-09T00:00	7220	411	-24.6	-34.6	252	10	
2025-10-09T00:00	7240	410	-24.8	-33.9	252	11	
2025-10-09T00:00	7260	409	-25.0	-33.9	253	11	
2025-10-09T00:00	7280	408	-25.2	-33.1	254	11	
2025-10-09T00:00	7300	406	-25.4	-32.7	254	12	
2025-10-09T00:00	7320	405	-25.6	-32.2	254	12	
2025-10-09T00:00	7340	404	-25.8	-32.0	253	12	
2025-10-09T00:00	7360	403	-25.9	-31.4	251	12	
2025-10-09T00:00	7380	402	-26.1	-31.0	250	12	
2025-10-09T00:00	7400	401	-26.3	-30.2	247	12	
2025-10-09T00:00	7420	400	-26.4	-29.9	245	11	
2025-10-09T00:00	7440	399	-26.5	-29.6	244	11	
2025-10-09T00:00	7460	397	-26.7	-29.7	243	11	
2025-10-09T00:00	7480	396	-26.8	-29.8	243	11	
2025-10-09T00:00	7500	395	-26.9	-29.8	243	11	
2025-10-09T00:00	7520	394	-27.1	-29.6	244	11	
2025-10-09T00:00	7540	393	-27.3	-29.6	246	11	
2025-10-09T00:00	7560	392	-27.5	-29.8	247	11	
2025-10-09T00:00	7580	391	-27.7	-29.9	248	12	
2025-10-09T00:00	7600	390	-27.8	-29.8	249	12	
2025-10-09T00:00	7620	389	-28.1	-29.8	248	13	
2025-10-09T00:00	7640	388	-28.3	-30.0	248	13	
2025-10-09T00:00	7660	387	-28.4	-30.2	247	13	
2025-10-09T00:00	7680	386	-28.6	-30.1	247	13	
2025-10-09T00:00	7700	384	-28.8	-30.3	246	13	
2025-10-09T00:00	7720	383	-29.0	-30.3	245	13	
2025-10-09T00:00	7740	382	-29.2	-30.4	245	13	
2025-10-09T00:00	7760	381	-29.4	-30.3	245	13	
2025-10-09T00:00	7780	380	-29.6	-30.5	245	12	
2025-10-09T00:00	7800	379	-29.8	-30.6	246	12	
2025-10-09T00:00	7820	378	-30.0	-30.7	247	12	
2025-10-09T00:00	7840	377	-30.2	-30.7	249	11	
2025-10-09T00:00	7860	376	-30.4	-30.4	250	11	
2025-10-09T00:00	7880	375	-30.5	-30.7	251	11	
2025-10-09T00:00	7900	374	-30.7	-31.0	251	12	
2025-10-09T00:00	7920	373	-30.9	-31.2	252	12	
2025-10-09T00:00	7940	372	-31.1	-31.1	252	13	
2025-10-09T00:00	7960	371	-31.3	-31.4	253	13	
2025-10-09T00:00	7980	370	-31.5	-31.7	253	13	
2025-10-09T00:00	8000	369	-31.5	-31.5	253	13	
2025-10-09T00:00	8020	367	-31.7	-31.7	254	13	
2025-10-09T00:00	8040	366	-31.9	-31.9	254	12	
2025-10-09T00:00	8060	365	-32.2	-32.2	255	12	
2025-10-09T00:00	8080	365	-32.4	-32.4	255	12	
2025-10-09T00:00	8100	364	-32.6	-32.8	256	12	
2025-10-09T00:00	8120	362	-32.9	-35.5	256	12	
2025-10-09T00:00	8140	361	-33.1	-41.6	257	12	
2025-10-09T00:00	8160	360	-33.1	-49.8	257	12	
2025-10-09T00:00	8180	359	-32.9	-49.0	257	12	
2025-10-09T00:00	8200	358	-32.6	-50.4	257	12	
2025-10-09T00:00	8220	357	-32.6	-51.4	257	12	
2025-10-09T00:00	8240	356	-32.5	-52.2	258	12	
2025-10-09T00:00	8260	355	-32.6	-52.2	258	12	
2025-10-09T00:00	8280	354	-32.7	-52.2	259	12	
2025-10-09T00:00	8300	353	-32.7	-48.6	259	12	
2025-10-09T00:00	8320	352	-32.8	-45.1	259	12	
2025-10-09T00:00	8340	351	-33.0	-40.4	259	12	
2025-10-09T00:00	8360	350	-33.1	-39.1	259	12	
2025-10-09T00:00	8380	349	-33.3	-39.9	258	12	
2025-10-09T00:00	8400	348	-33.5	-39.2	257	12	
2025-10-09T00:00	8420	347	-33.7	-39.4	256	12	
2025-10-09T00:00	8440	346	-33.9	-39.0	255	12	
2025-10-09T00:00	8460	345	-34.1	-38.4	255	12	
2025-10-09T00:00	8480	344	-34.3	-37.9	256	12	
2025-10-09T00:00	8500	343	-34.4	-37.8	257	12	
2025-10-09T00:00	8520	342	-34.6	-38.2	258	12	
2025-10-09T00:00	8540	341	-34.8	-38.3	259	12	
2025-10-09T00:00	8560	340	-35.0	-38.3	260	12	
2025-10-09T00:00	8580	339	-35.2	-38.3	260	12	
2025-10-09T00:00	8600	338	-35.4	-38.5	260	12	
2025-10-09T00:00	8620	337	-35.6	-38.5	260	12	
2025-10-09T00:00	8640	336	-35.8	-38.5	260	12	
2025-10-09T00:00	8660	336	-36.0	-38.4	260	12	
2025-10-09T00:00	8680	335	-36.1	-38.3	262	12	
2025-10-09T00:00	8700	333	-36.3	-38.4	263	12	
2025-10-09T00:00	8720	333	-36.5	-38.6	264	12	
2025-10-09T00:00	8740	332	-36.7	-38.7	266	12	
2025-10-09T00:00	8760	331	-36.8	-38.7	267	12	
2025-10-09T00:00	8780	330	-37.0	-38.5	269	12	
2025-10-09T00:00	8800	329	-37.2	-38.6	270	12	
2025-10-09T00:00	8820	328	-37.4	-38.7	271	12	
2025-10-09T00:00	8840	327	-37.6	-38.9	272	12	
2025-10-09T00:00	8860	326	-37.7	-39.1	272	12	
2025-10-09T00:00	8880	325	-37.9	-39.3	271	12	
2025-10-09T00:00	8900	324	-38.0	-39.5	269	11	
2025-10-09T00:00	8920	323	-38.1	-39.9	267	11	
2025-10-09T00:00	8940	322	-38.2	-40.4	265	11	
2025-10-09T00:00	8960	321	-38.4	-40.4	264	11	
2025-10-09T00:00	8980	320	-38.6	-40.6	263	11	
2025-10-09T00:00	9000	319	-38.8	-40.8	262	11	
2025-10-09T00:00	9020	318	-38.9	-41.1	261	11	
2025-10-09T00:00	9040	318	-39.1	-41.7	261	11	
2025-10-09T00:00	9060	317	-39.2	-41.9	261	11	
2025-10-09T00:00	9080	316	-39.4	-42.1	261	11	
2025-10-09T00:00	9100	315	-39.5	-42.4	261	11	
2025-10-09T00:00	9120	314	-39.7	-42.5	261	11	
2025-10-09T00:00	9140	313	-39.9	-42.7	261	11	
2025-10-09T00:00	9160	312	-40.0	-42.8	261	12	
2025-10-09T00:00	9180	311	-40.2	-42.8	260	12	
2025-10-09T00:00	9200	310	-40.4	-42.8	260	12	
2025-10-09T00:00	9220	309	-40.5	-42.6	259	12	
2025-10-09T00:00	9240	308	-40.7	-42.4	258	12	
2025-10-09T00:00	9260	307	-40.9	-42.4	258	12	
2025-10-09T00:00	9280	307	-41.0	-42.8	257	12	
2025-10-09T00:00	9300	306	-41.2	-43.1	256	12	
2025-10-09T00:00	9320	305	-41.4	-43.3	256	12	
2025-10-09T00:00	9340	304	-41.6	-43.4	255	12	
2025-10-09T00:00	9360	303	-41.8	-43.3	255	12	
2025-10-09T00:00	9380	302	-41.9	-43.5	254	12	
2025-10-09T00:00	9400	301	-42.1	-43.3	254	13	
2025-10-09T00:00	9420	300	-42.3	-43.2	254	12	
2025-10-09T00:00	9440	299	-42.4	-43.4	254	12	
2025-10-09T00:00	9460	299	-42.6	-43.6	254	12	
2025-10-09T00:00	9480	298	-42.7	-43.6	254	12	
2025-10-09T00:00	9500	297	-42.9	-43.7	254	12	
2025-10-09T00:00	9520	296	-43.1	-43.9	255	12	
2025-10-09T00:00	9540	295	-43.2	-44.2	255	12	
2025-10-09T00:00	9560	294	-43.4	-44.4	256	11	
2025-10-09T00:00	9580	293	-43.6	-44.7	258	11	
2025-10-09T00:00	9600	292	-43.7	-45.4	260	11	
2025-10-09T00:00	9620	291	-43.9	-46.0	261	11	
2025-10-09T00:00	9640	291	-44.0	-46.3	262	11	
2025-10-09T00:00	9660	290	-44.2	-46.2	263	12	
2025-10-09T00:00	9680	289	-44.4	-46.3	264	12	
2025-10-09T00:00	9700	288	-44.5	-46.6	264	12	
2025-10-09T00:00	9720	287	-44.7	-47.1	264	12	
2025-10-09T00:00	9740	286	-44.9	-47.5	264	12	
2025-10-09T00:00	9760	285	-45.0	-48.0	264	12	
2025-10-09T00:00	9780	285	-45.2	-48.5	264	12	
2025-10-09T00:00	9800	284	-45.3	-48.9	264	12	
2025-10-09T00:00	9820	283	-45.5	-49.4	264	12	
2025-10-09T00:00	9840	282	-45.6	-49.7	263	13	
2025-10-09T00:00	9860	281	-45.8	-49.9	262	13	
2025-10-09T00:00	9880	280	-45.9	-50.7	261	13	
2025-10-09T00:00	9900	280	-46.0	-51.7	259	13	
2025-10-09T00:00	9920	279	-46.2	-52.4	258	13	
2025-10-09T00:00	9940	278	-46.3	-53.6	257	13	
2025-10-09T00:00	9960	277	-46.4	-55.2	257	13	
2025-10-09T00:00	9980	276	-46.4	-55.9	256	13	
2025-10-09T00:00	10000	275	-46.5	-55.2	256	13	
2025-10-09T00:00	10018	275	-46.6	-54.1	256	13	
2025-10-09T00:00	10050	273	-46.9	-53.0	256	13	
2025-10-09T00:00	10100	271	-47.3	-52.6	256	13	
2025-10-09T00:00	10150	269	-47.8	-51.3	257	13	
2025-10-09T00:00	10200	267	-48.3	-51.1	257	14	
2025-10-09T00:00	10250	265	-48.5	-53.1	258	15	
2025-10-09T00:00	10300	263	-48.7	-55.5	258	16	
2025-10-09T00:00	10350	261	-49.1	-56.5	258	17	
2025-10-09T00:00	10400	259	-49.1	-59.2	258	16	
2025-10-09T00:00	10450	257	-48.8	-62.3	259	16	
2025-10-09T00:00	10500	255	-48.9	-61.2	260	16	
2025-10-09T00:00	10550	253	-48.9	-62.2	260	16	
2025-10-09T00:00	10600	251	-49.0	-61.2	257	16	
2025-10-09T00:00	10650	249	-49.1	-62.1	255	16	
2025-10-09T00:00	10700	247	-49.1	-61.0	255	16	
2025-10-09T00:00	10750	246	-49.1	-61.5	255	16	
2025-10-09T00:00	10800	244	-49.4	-61.8	257	15	
2025-10-09T00:00	10850	242	-49.6	-62.3	259	15	
2025-10-09T00:00	10900	240	-49.5	-62.8	262	14	
2025-10-09T00:00	10950	238	-49.8	-63.9	262	14	
2025-10-09T00:00	11000	237	-50.1	-64.7	261	14	
2025-10-09T00:00	11050	235	-50.4	-63.9	259	14	
2025-10-09T00:00	11100	233	-50.7	-63.6	258	14	
2025-10-09T00:00	11150	231	-51.0	-63.3	256	14	
2025-10-09T00:00	11200	229	-51.3	-63.6	254	14	
2025-10-09T00:00	11250	228	-51.7	-63.8	253	14	
2025-10-09T00:00	11300	226	-52.1	-63.9	252	14	
2025-10-09T00:00	11350	224	-52.5	-64.0	252	14	
2025-10-09T00:00	11400	222	-52.9	-64.1	253	14	
2025-10-09T00:00	11450	221	-53.3	-64.1	255	14	
2025-10-09T00:00	11500	219	-53.7	-64.2	256	14	
2025-10-09T00:00	11550	217	-54.1	-64.4	256	14	
2025-10-09T00:00	11600	216	-54.6	-64.5	257	15	
2025-10-09T00:00	11650	214	-55.0	-64.6	261	15	
2025-10-09T00:00	11700	212	-55.3	-65.2	266	15	
2025-10-09T00:00	11750	210	-55.5	-65.9	270	16	
2025-10-09T00:00	11800	209	-55.6	-66.6	274	16	
2025-10-09T00:00	11850	207	-55.7	-67.7	277	16	
2025-10-09T00:00	11900	206	-55.8	-68.3	280	16	
2025-10-09T00:00	11950	204	-56.0	-68.7	284	15	
2025-10-09T00:00	12000	202	-56.1	-69.3	287	14	
2025-10-09T00:00	12050	201	-56.1	-69.9	288	13	
2025-10-09T00:00	12100	199	-56.4	-70.1	286	12	
2025-10-09T00:00	12150	198	-56.6	-70.6	281	12	
2025-10-09T00:00	12200	196	-56.6	-72.1	276	13	
2025-10-09T00:00	12250	195	-56.6	-73.9	273	14	
2025-10-09T00:00	12300	193	-56.5	-75.1	274	14	
2025-10-09T00:00	12350	192	-56.4	-75.4	275	15	
2025-10-09T00:00	12400	190	-56.4	-75.3	276	15	
2025-10-09T00:00	12450	188	-56.5	-75.6	277	14	
2025-10-09T00:00	12500	187	-56.3	-76.0	278	13	
2025-10-09T00:00	12550	186	-56.1	-76.5	281	13	
2025-10-09T00:00	12600	184	-55.7	-76.8	283	13	
2025-10-09T00:00	12650	183	-55.4	-77.1	282	13	
2025-10-09T00:00	12700	181	-55.3	-77.4	280	13	
2025-10-09T00:00	12750	180	-55.4	-77.5	278	13	
2025-10-09T00:00	12800	178	-55.6	-77.3	277	12	
2025-10-09T00:00	12850	177	-55.9	-77.0	277	12	
2025-10-09T00:00	12900	176	-56.1	-76.7	277	12	
2025-10-09T00:00	12950	174	-56.3	-76.8	279	12	
2025-10-09T00:00	13000	173	-56.4	-77.4	281	12	
2025-10-09T00:00	13050	172	-55.9	-77.9	282	12	
2025-10-09T00:00	13100	170	-55.9	-78.4	281	11	
2025-10-09T00:00	13150	169	-56.2	-78.6	280	11	
2025-10-09T00:00	13200	167	-56.3	-78.9	280	11	
2025-10-09T00:00	13250	166	-56.2	-79.4	281	12	
2025-10-09T00:00	13300	165	-56.4	-79.8	282	13	
2025-10-09T00:00	13350	164	-56.5	-80.0	284	13	
2025-10-09T00:00	13400	162	-56.6	-80.6	286	13	
2025-10-09T00:00	13450	161	-57.1	-80.9	287	13	
2025-10-09T00:00	13500	160	-57.4	-81.0	285	14	
2025-10-09T00:00	13550	159	-57.7	-81.1	282	13	
2025-10-09T00:00	13600	157	-58.1	-81.3	281	13	
2025-10-09T00:00	13650	156	-58.4	-81.5	280	13	
2025-10-09T00:00	13700	155	-58.6	-81.8	278	13	
2025-10-09T00:00	13750	154	-58.7	-81.9	278	14	
2025-10-09T00:00	13800	152	-58.8	-82.2	281	14	
2025-10-09T00:00	13850	151	-59.0	-82.4	284	14	
2025-10-09T00:00	13900	150	-59.2	-82.3	285	14	
2025-10-09T00:00	13950	149	-59.5	-82.2	285	14	
2025-10-09T00:00	14000	148	-59.7	-82.2	286	13	
2025-10-09T00:00	14050	146	-59.7	-82.2	286	12	
2025-10-09T00:00	14100	145	-59.8	-81.9	285	11	
2025-10-09T00:00	14150	144	-59.8	-81.6	283	10	
2025-10-09T00:00	14200	143	-59.7	-81.4	281	9	
2025-10-09T00:00	14250	142	-59.7	-81.4	280	8	
2025-10-09T00:00	14300	141	-59.5	-81.6	282	7	
2025-10-09T00:00	14350	140	-59.4	-81.7	284	7	
2025-10-09T00:00	14400	138	-59.5	-81.9	281	7	
2025-10-09T00:00	14450	137	-59.5	-82.1	274	8	
2025-10-09T00:00	14500	136	-59.7	-82.2	268	9	
2025-10-09T00:00	14550	135	-59.9	-82.4	264	10	
2025-10-09T00:00	14600	134	-60.0	-82.4	264	11	
2025-10-09T00:00	14650	133	-60.1	-82.4	267	12	
2025-10-09T00:00	14700	132	-60.2	-82.3	272	12	
2025-10-09T00:00	14750	131	-60.4	-82.4	276	12	
2025-10-09T00:00	14800	130	-60.2	-82.3	278	12	
2025-10-09T00:00	14850	129	-60.2	-82.5	277	11	
2025-10-09T00:00	14900	128	-60.2	-82.5	277	11	
2025-10-09T00:00	14950	127	-60.3	-82.8	280	11	
2025-10-09T00:00	15000	126	-60.5	-83.0	283	9	
2025-10-09T00:00	15050	125	-60.6	-83.2	286	8	
2025-10-09T00:00	15100	124	-61.0	-83.3	287	7	
2025-10-09T00:00	15150	123	-61.3	-83.5	283	7	
2025-10-09T00:00	15200	122	-61.6	-83.6	277	7	
2025-10-09T00:00	15250	121	-61.9	-83.7	275	7	
2025-10-09T00:00	15300	120	-62.1	-83.8	275	8	
2025-10-09T00:00	15350	119	-62.3	-83.9	272	9	
2025-10-09T00:00	15400	118	-62.4	-84.0	266	9	
2025-10-09T00:00	15450	117	-62.5	-84.1	262	10	
2025-10-09T00:00	15500	116	-62.5	-84.0	264	10	
2025-10-09T00:00	15550	115	-62.5	-83.9	269	11	
2025-10-09T00:00	15600	114	-62.5	-83.9	274	11	
2025-10-09T00:00	15650	113	-62.7	-83.9	281	10	
2025-10-09T00:00	15700	112	-62.8	-83.8	287	10	
2025-10-09T00:00	15750	111	-62.8	-83.8	289	10	
2025-10-09T00:00	15800	110	-62.9	-83.9	289	10	
2025-10-09T00:00	15850	110	-63.1	-84.0	289	10	
2025-10-09T00:00	15900	109	-63.3	-84.2	290	9	
2025-10-09T00:00	15950	108	-63.4	-84.3	291	8	
2025-10-09T00:00	16000	107	-63.6	-84.4	293	7	
2025-10-09T00:00	16050	106	-63.8	-84.5	296	6	
2025-10-09T00:00	16100	105	-64.0	-84.6	298	7	
2025-10-09T00:00	16150	104	-63.9	-84.7	299	7	
2025-10-09T00:00	16200	104	-63.9	-85.0	296	8	
2025-10-09T00:00	16250	103	-63.9	-85.3	290	8	
2025-10-09T00:00	16300	102	-63.7	-85.3	287	8	
2025-10-09T00:00	16350	101	-63.6	-85.3	290	9	
2025-10-09T00:00	16400	100	-63.9	-85.3	293	10	
2025-10-09T00:00	16450	99	-64.3	-85.4	295	9	
2025-10-09T00:00	16500	99	-64.1	-85.3	293	9	
2025-10-09T00:00	16550	98	-64.0	-85.5	293	8	
2025-10-09T00:00	16600	97	-63.6	-85.6	299	9	
2025-10-09T00:00	16650	96	-63.4	-85.9	310	9	
2025-10-09T00:00	16700	95	-62.9	-85.9	318	9	
2025-10-09T00:00	16750	95	-63.0	-86.0	324	9	
2025-10-09T00:00	16800	94	-63.2	-86.0	327	9	
2025-10-09T00:00	16850	93	-63.5	-86.0	331	8	
2025-10-09T00:00	16900	92	-63.7	-86.1	333	7	
2025-10-09T00:00	16950	92	-63.8	-86.1	334	5	
2025-10-09T00:00	17000	91	-64.0	-86.2	335	4	
2025-10-09T00:00	17050	90	-64.0	-86.1	339	3	
2025-10-09T00:00	17100	89	-63.8	-86.0	339	2	
2025-10-09T00:00	17150	89	-63.6	-86.2	321	2	
2025-10-09T00:00	17200	88	-63.2	-86.0	294	1	
2025-10-09T00:00	17250	87	-63.2	-86.0	272	2	
2025-10-09T00:00	17300	86	-63.2	-85.8	257	3	
2025-10-09T00:00	17350	86	-63.4	-85.8	247	4	
2025-10-09T00:00	17400	85	-63.8	-85.8	243	5	
2025-10-09T00:00	17450	84	-64.0	-85.9	243	6	
2025-10-09T00:00	17500	84	-64.0	-86.0	250	7	
2025-10-09T00:00	17550	83	-64.0	-86.0	261	7	
2025-10-09T00:00	17600	82	-64.1	-86.2	271	8	
2025-10-09T00:00	17650	82	-64.3	-86.4	280	9	
2025-10-09T00:00	17700	81	-63.9	-86.3	288	9	
2025-10-09T00:00	17750	80	-63.7	-86.5	295	8	
2025-10-09T00:00	17800	80	-63.4	-86.7	298	8	
2025-10-09T00:00	17850	79	-63.2	-86.9	295	8	
2025-10-09T00:00	17900	78	-62.7	-86.9	291	8	
2025-10-09T00:00	17950	78	-62.5	-86.9	288	8	
2025-10-09T00:00	18000	77	-62.3	-86.9	285	7	
2025-10-09T00:00	18050	77	-62.0	-87.0	277	7	
2025-10-09T00:00	18100	76	-61.3	-86.9	272	7	
2025-10-09T00:00	18150	75	-60.5	-86.6	273	7	
2025-10-09T00:00	18200	75	-60.5	-86.5	277	6	
2025-10-09T00:00	18250	74	-60.7	-86.4	287	6	
2025-10-09T00:00	18300	74	-60.9	-86.4	299	6	
2025-10-09T00:00	18350	73	-61.0	-86.4	309	7	
2025-10-09T00:00	18400	72	-61.4	-86.4	315	7	
2025-10-09T00:00	18450	72	-61.7	-86.5	317	7	
2025-10-09T00:00	18500	71	-61.8	-86.5	315	7	
2025-10-09T00:00	18550	71	-62.1	-86.6	311	6	
2025-10-09T00:00	18600	70	-62.4	-86.7	306	6	
2025-10-09T00:00	18650	70	-62.6	-86.8	303	7	
2025-10-09T00:00	18700	69	-62.6	-86.8	305	7	
2025-10-09T00:00	18750	68	-62.6	-86.9	308	8	
2025-10-09T00:00	18800	68	-62.7	-87.2	311	8	
2025-10-09T00:00	18850	67	-62.2	-87.0	316	8	
2025-10-09T00:00	18900	67	-62.0	-86.9	322	8	
2025-10-09T00:00	18950	66	-62.4	-86.9	328	8	
2025-10-09T00:00	19000	66	-62.8	-86.9	338	7	
2025-10-09T00:00	19050	65	-63.1	-87.1	350	6	
2025-10-09T00:00	19100	65	-63.2	-87.2	358	6	
2025-10-09T00:00	19150	64	-62.9	-87.2	5	4	
2025-10-09T00:00	19200	64	-62.7	-87.2	18	3	
2025-10-09T00:00	19250	63	-62.8	-87.2	35	3	
2025-10-09T00:00	19300	63	-63.1	-87.2	53	2	
2025-10-09T00:00	19350	62	-63.3	-87.3	86	2	
2025-10-09T00:00	19400	62	-63.4	-87.3	124	2	
2025-10-09T00:00	19450	61	-63.7	-87.3	138	3	
2025-10-09T00:00	19500	61	-64.0	-87.4	150	3	
2025-10-09T00:00	19550	60	-64.1	-87.4	169	3	
2025-10-09T00:00	19600	60	-64.4	-87.7	181	3	
2025-10-09T00:00	19650	59	-64.3	-87.7	184	3	
2025-10-09T00:00	19700	59	-63.9	-87.7	189	4	
2025-10-09T00:00	19750	58	-63.6	-87.6	199	4	
2025-10-09T00:00	19800	58	-63.5	-87.7	211	5	
2025-10-09T00:00	19850	57	-63.4	-87.7	225	5	
2025-10-09T00:00	19900	57	-62.9	-87.7	238	6	
2025-10-09T00:00	19950	56	-62.5	-87.6	243	6	
2025-10-09T00:00	20000	56	-61.7	-87.4	244	6	
2025-10-09T00:00	20050	55	-61.5		249	7	
2025-10-09T00:00	20100	55	-61.1		256	8	
2025-10-09T00:00	20150	54	-61.2		262	8	
2025-10-09T00:00	20200	54	-61.4		270	9	
2025-10-09T00:00	20250	54	-61.4		280	9	
2025-10-09T00:00	20300	53	-61.2		289	9	
2025-10-09T00:00	20350	53	-61.4		295	9	
2025-10-09T00:00	20400	52	-61.6		298	8	
2025-10-09T00:00	20450	52	-61.9		303	8	
2025-10-09T00:00	20500	51	-62.2		306	7	
2025-10-09T00:00	20550	51	-62.4		309	7	
2025-10-09T00:00	20600	51	-62.6		314	6	
2025-10-09T00:00	20650	50	-62.7		323	6	
2025-10-09T00:00	20700	50	-62.2		333	5	
2025-10-09T00:00	20750	49	-61.7		342	4	
2025-10-09T00:00	20800	49	-61.4		357	3	
2025-10-09T00:00	20850	49	-61.7		23	2	
2025-10-09T00:00	20900	48	-61.9		64	2	
2025-10-09T00:00	20950	48	-62.0		90	3	
2025-10-09T00:00	21000	47	-61.6		104	3	
2025-10-09T00:00	21050	47	-61.7		116	3	
2025-10-09T00:00	21100	47	-61.8		125	3	
2025-10-09T00:00	21150	46	-61.7		129	3	
2025-10-09T00:00	21200	46	-61.9		127	3	
2025-10-09T00:00	21250	46	-61.9		118	2	
2025-10-09T00:00	21300	45	-62.2		109	1	
2025-10-09T00:00	21350	45	-62.3		146	0	
2025-10-09T00:00	21400	44	-62.4		177	1	
2025-10-09T00:00	21450	44	-62.6		183	2	
2025-10-09T00:00	21500	44	-62.8		190	3	
2025-10-09T00:00	21550	43	-62.7		198	4	
2025-10-09T00:00	21600	43	-62.8		209	4	
2025-10-09T00:00	21650	43	-62.7		217	5	
2025-10-09T00:00	21700	42	-62.7		218	5	
2025-10-09T00:00	21750	42	-62.8		217	6	
2025-10-09T00:00	21800	42	-62.9		220	6	
2025-10-09T00:00	21850	41	-62.9		226	5	
2025-10-09T00:00	21900	41	-62.6		236	4	
2025-10-09T00:00	21950	41	-62.0		252	4	
2025-10-09T00:00	22000	40	-61.4		266	4	
2025-10-09T00:00	22050	40	-60.9		271	4	
2025-10-09T00:00	22100	40	-60.6		267	4	
2025-10-09T00:00	22150	39	-60.6		260	3	
2025-10-09T00:00	22200	39	-60.3		264	3	
2025-10-09T00:00	22250	39	-60.0		272	3	
2025-10-09T00:00	22300	38	-59.8		269	4	
2025-10-09T00:00	22350	38	-59.8		254	4	
2025-10-09T00:00	22400	38	-59.9		242	5	
2025-10-09T00:00	22450	38	-60.3		240	5	
2025-10-09T00:00	22500	37	-60.5		244	6	
2025-10-09T00:00	22550	37	-60.7		252	6	
2025-10-09T00:00	22600	37	-60.8		258	7	
2025-10-09T00:00	22650	36	-60.7		258	8	
2025-10-09T00:00	22700	36	-60.5		255	9	
2025-10-09T00:00	22750	36	-60.4		252	10	
2025-10-09T00:00	22800	36	-60.3		254	11	
2025-10-09T00:00	22850	35	-60.2		259	12	
2025-10-09T00:00	22900	35	-60.2		266	13	
2025-10-09T00:00	22950	35	-60.2		273	13	
2025-10-09T00:00	23000	34	-60.3		278	12	
2025-10-09T00:00	23050	34	-60.7		284	12	
2025-10-09T00:00	23100	34	-61.0		291	11	
2025-10-09T00:00	23150	34	-60.9		299	11	
2025-10-09T00:00	23200	33	-60.5		305	10	
2025-10-09T00:00	23250	33	-60.7		309	10	
2025-10-09T00:00	23300	33	-60.7		309	10	
2025-10-09T00:00	23350	32	-60.8		306	10	
2025-10-09T00:00	23400	32	-61.0		305	10	
2025-10-09T00:00	23450	32	-61.2		305	9	
2025-10-09T00:00	23500	32	-61.1		307	9	
2025-10-09T00:00	23550	31	-61.1		311	8	
2025-10-09T00:00	23600	31	-61.3		314	7	
2025-10-09T00:00	23650	31	-61.5		321	6	
2025-10-09T00:00	23700	31	-61.8		331	6	
2025-10-09T00:00	23750	30	-61.9		339	7	
2025-10-09T00:00	23800	30	-61.9		343	6	
2025-10-09T00:00	23850	30	-62.0		348	6	
2025-10-09T00:00	23900	30	-61.8		357	5	
2025-10-09T00:00	23950	30	-61.6		359	4	
2025-10-09T00:00	24000	29	-61.5		346	3	
2025-10-09T00:00	24050	29	-61.0		311	2	
2025-10-09T00:00	24100	29	-60.5		256	1	
2025-10-09T00:00	24150	29	-59.8		197	1	
2025-10-09T00:00	24200	28	-59.5		186	2	
2025-10-09T00:00	24250	28	-59.1		196	3	
2025-10-09T00:00	24300	28	-58.6		206	4	
2025-10-09T00:00	24350	28	-58.4		218	5	
2025-10-09T00:00	24400	27	-58.3		238	5	
2025-10-09T00:00	24450	27	-57.9		260	7	
2025-10-09T00:00	24500	27	-57.6		274	8	
2025-10-09T00:00	24550	27	-57.4		286	9	
2025-10-09T00:00	24600	27	-57.1		298	9	
2025-10-09T00:00	24650	26	-56.8		308	9	
2025-10-09T00:00	24700	26	-56.9		314	10	
2025-10-09T00:00	24750	26	-57.0		312	10	
2025-10-09T00:00	24800	26	-56.9		305	10	
2025-10-09T00:00	24850	26	-57.2		296	11	
2025-10-09T00:00	24900	25	-57.5		288	11	
2025-10-09T00:00	24950	25	-57.6		284	11	
2025-10-09T00:00	25000	25	-57.5		282	11	
2025-10-09T00:00	25050	25	-57.5		281	10	
2025-10-09T00:00	25100	25	-57.7		280	9	
2025-10-09T00:00	25150	24	-57.9		278	8	
2025-10-09T00:00	25200	24	-58.2		275	7	
2025-10-09T00:00	25250	24	-58.5		268	5	
2025-10-09T00:00	25300	24	-58.7		254	4	
2025-10-09T00:00	25350	24	-58.6		233	3	
2025-10-09T00:00	25400	23	-58.7		223	3	
2025-10-09T00:00	25450	23	-58.7		230	3	
2025-10-09T00:00	25500	23	-58.5		244	4	
2025-10-09T00:00	25550	23	-58.2		251	5	
2025-10-09T00:00	25600	23	-57.3		249	7	
2025-10-09T00:00	25650	23	-57.0		244	8	
2025-10-09T00:00	25700	22	-57.0		238	9	
2025-10-09T00:00	25750	22	-57.0		238	9	
2025-10-09T00:00	25800	22	-57.0		241	10	
2025-10-09T00:00	25850	22	-56.6		246	10	
2025-10-09T00:00	25900	22	-56.1		250	11	
2025-10-09T00:00	25950	21	-56.0		252	11	
2025-10-09T00:00	26000	21	-56.0		255	11	
2025-10-09T00:00	26050	21	-55.8		259	11	
2025-10-09T00:00	26100	21	-55.5		263	11	
2025-10-09T00:00	26150	21	-55.5		268	11	
2025-10-09T00:00	26200	21	-55.3		271	12	
2025-10-09T00:00	26250	20	-55.2		274	12	
2025-10-09T00:00	26300	20	-54.8		276	12	
2025-10-09T00:00	26350	20	-53.9		277	12	
2025-10-09T00:00	26400	20	-53.6		276	11	
2025-10-09T00:00	26450	20	-53.6		276	11	
2025-10-09T00:00	26500	20	-54.0		276	10	
2025-10-09T00:00	26550	20	-54.4		277	9	
2025-10-09T00:00	26600	19	-54.9		279	9	
2025-10-09T00:00	26650	19	-55.2		279	8	
2025-10-09T00:00	26700	19	-55.5		278	8	
2025-10-09T00:00	26750	19	-55.7		276	9	
2025-10-09T00:00	26800	19	-55.9		274	9	
2025-10-09T00:00	26850	19	-56.1		274	10	
2025-10-09T00:00	26900	18	-56.3		276	11	
2025-10-09T00:00	26950	18	-56.3		277	12	
2025-10-09T00:00	27000	18	-55.8		280	12	
2025-10-09T00:00	27050	18	-55.6		284	13	
2025-10-09T00:00	27100	18	-55.8		288	13	
2025-10-09T00:00	27150	18	-56.0		292	13	
2025-10-09T00:00	27200	18	-55.9		296	13	
2025-10-09T00:00	27250	18	-56.0		298	12	
2025-10-09T00:00	27300	17	-56.3		296	10	
2025-10-09T00:00	27350	17	-56.4		290	9	
2025-10-09T00:00	27400	17	-56.1		280	9	
2025-10-09T00:00	27450	17	-56.0		276	9	
2025-10-09T00:00	27500	17	-55.7		277	10	
2025-10-09T00:00	27550	17	-55.7		278	10	
2025-10-09T00:00	27600	17	-55.8		278	11	
2025-10-09T00:00	27650	16	-55.6		276	11	
2025-10-09T00:00	27700	16	-55.6		275	11	
2025-10-09T00:00	27750	16	-55.8		273	11	
2025-10-09T00:00	27800	16	-55.5		270	11	
2025-10-09T00:00	27850	16	-55.4		267	11	
2025-10-09T00:00	27900	16	-55.3		264	10	
2025-10-09T00:00	27950	16	-55.7		260	9	
2025-10-09T00:00	28000	16	-55.6		257	10	
2025-10-09T00:00	28050	15	-55.2		255	11	
2025-10-09T00:00	28100	15	-54.9		256	12	
2025-10-09T00:00	28150	15	-54.6		258	12	
2025-10-09T00:00	28200	15	-54.0		258	13	
2025-10-09T00:00	28250	15	-53.6		257	14	
2025-10-09T00:00	28300	15	-53.6		254	15	
2025-10-09T00:00	28350	15	-54.0		252	16	
2025-10-09T00:00	28400	15	-54.3		251	16	
2025-10-09T00:00	28450	15	-54.2		253	15	
2025-10-09T00:00	28500	14	-53.9		256	14	
2025-10-09T00:00	28550	14	-54.2		258	13	
2025-10-09T00:00	28600	14	-54.4		261	12	
2025-10-09T00:00	28650	14	-54.3		264	11	
2025-10-09T00:00	28700	14	-54.3		268	10	
2025-10-09T00:00	28750	14	-54.3		272	9	
2025-10-09T00:00	28800	14	-54.7		270	9	
2025-10-09T00:00	28850	14	-54.6		266	9	
2025-10-09T00:00	28900	14	-54.3		259	9	
2025-10-09T00:00	28950	13	-54.3		254	9	
2025-10-09T00:00	29000	13	-54.5		249	10	
2025-10-09T00:00	29050	13	-54.6		245	10	
2025-10-09T00:00	29100	13	-54.7		245	11	
2025-10-09T00:00	29150	13	-54.7		249	12	
2025-10-09T00:00	29200	13	-54.4		252	13	
2025-10-09T00:00	29250	13	-54.2		255	15	
2025-10-09T00:00	29300	13	-54.0		258	17	
2025-10-09T00:00	29350	13	-53.8		262	19	
2025-10-09T00:00	29400	13	-53.9		266	19	
2025-10-09T00:00	29450	12	-53.8		271	19	
2025-10-09T00:00	29500	12	-53.4		276	18	
2025-10-09T00:00	29550	12	-52.9		278	16	
2025-10-09T00:00	29600	12	-52.6		279	15	
2025-10-09T00:00	29650	12	-52.5		278	15	
2025-10-09T00:00	29700	12	-52.2		277	15	
2025-10-09T00:00	29750	12	-52.2		275	15	
2025-10-09T00:00	29800	12	-52.2		272	15	
2025-10-09T00:00	29850	12	-52.0		269	15	
2025-10-09T00:00	29900	12	-52.1		269	14	
2025-10-09T00:00	29950	11	-51.9		271	14	
2025-10-09T00:00	30000	11	-52.0		272	15	
2025-10-09T00:00	30050	11	-52.1		270	15	
2025-10-09T00:00	30100	11	-51.7		265	16	
2025-10-09T00:00	30150	11	-51.5		259	17	
2025-10-09T00:00	30200	11	-51.5		254	18	
2025-10-09T00:00	30250	11	-51.4		251	19	
2025-10-09T00:00	30300	11	-51.5		249	19	
2025-10-09T00:00	30350	11	-51.5		248	20	
2025-10-09T00:00	30400	11	-51.2		248	21	
2025-10-09T00:00	30450	11	-51.2		250	22	
2025-10-09T00:00	30500	11	-51.1		252	23	
2025-10-09T00:00	30550	10	-51.0		255	24	
2025-10-09T00:00	30600	10	-50.9		258	24	
2025-10-09T00:00	30650	10	-51.0		261	25	
2025-10-09T00:00	30700	10	-51.2		264	25	
2025-10-09T00:00	30750	10	-51.1		265	25	
2025-10-09T00:00	30800	10	-51.1		266	24	
2025-10-09T00:00	30850	10	-51.4		265	23	
2025-10-09T00:00	30900	10	-51.6		264	23	
2025-10-09T00:00	30950	10	-51.9		263	22	
2025-10-09T00:00	31000	10	-52.1		262	22	
2025-10-09T00:00	31050	10	-52.1		262	23	
2025-10-09T00:00	31100	10	-52.1		262	24	
2025-10-09T00:00	31150	10	-51.7		263	25	
2025-10-09T00:00	31200	9	-51.4		265	25	
2025-10-09T00:00	31250	9	-50.7		267	24	
2025-10-09T00:00	31300	9	-50.4		270	23	
2025-10-09T00:00	31350	9	-50.6		271	21	
2025-10-09T00:00	31400	9	-50.9		272	21	
2025-10-09T00:00	31450	9	-51.2		271	20	
2025-10-09T00:00	31500	9	-51.5		271	21	
2025-10-09T00:00	31550	9	-51.2		271	21	
2025-10-09T00:00	31600	9	-51.0		272	22	
2025-10-09T00:00	31650	9	-50.8		276	22	
2025-10-09T00:00	31700	9	-50.3		280	22	
2025-10-09T00:00	31750	9	-50.2		283	22	
2025-10-09T00:00	31800	9	-50.1		284	22	
2025-10-09T00:00	31850	9	-49.8		283	22	
2025-10-09T00:00	31900	9	-49.4		280	23	
2025-10-09T00:00	31950	8	-49.2		278	24	
2025-10-09T00:00	32000	8	-49.0		277	26	
2025-10-09T00:00	32050	8	-48.7		277	27	
2025-10-09T00:00	32100	8	-48.2		278	28	
2025-10-09T00:00	32150	8	-48.3		279	29	
2025-10-09T00:00	32200	8	-48.2		280	29	
2025-10-09T00:00	32250	8	-48.1		281	29	
2025-10-09T00:00	32300	8	-48.2		281	28	
2025-10-09T00:00	32350	8	-48.2		281	28	
2025-10-09T00:00	32400	8	-48.2		282	28	
2025-10-09T00:00	32450	8	-48.2		283	28	
2025-10-09T00:00	32500	8	-48.2		283	28	
2025-10-09T00:00	32550	8	-48.3		284	28	
2025-10-09T00:00	32600	8	-48.3		284	27	
2025-10-09T00:00	32650	8	-48.4		283	27	
2025-10-09T00:00	32700	8	-48.5		283	27	
2025-10-09T00:00	32750	7	-48.5		283	27	
2025-10-09T00:00	32800	7	-48.4		283	27	
2025-10-09T00:00	32850	7	-48.5		282	27	
2025-10-09T00:00	32900	7	-48.2		280	26	
2025-10-09T00:00	32950	7	-48.4		279	26	
2025-10-09T00:00	33000	7	-48.4		278	27	
2025-10-09T00:00	33050	7	-47.8		278	28	
2025-10-09T00:00	33100	7	-47.9		278	28	
2025-10-09T00:00	33150	7	-47.8		278	28	
2025-10-09T00:00	33200	7	-47.4		278	28	
2025-10-09T00:00	33250	7	-46.5		279	27	
2025-10-09T00:00	33300	7	-45.9		280	26	
2025-10-09T00:00	33350	7	-45.8		283	26	
2025-10-09T00:00	33400	7	-45.5		284	26	
2025-10-09T00:00	33450	7	-45.2		285	26	
2025-10-09T00:00	33500	7	-45.4		284	26	
2025-10-09T00:00	33550	7	-45.7		283	26	
2025-10-09T00:00	33600	7	-45.9		281	27	
2025-10-09T00:00	33650	7	-45.5		280	27	
2025-10-09T00:00	33700	6	-45.1		278	27	
2025-10-09T00:00	33750	6	-44.8		276	27	
2025-10-09T00:00	33800	6	-44.8		274	26	
2025-10-09T00:00	33850	6	-44.9		272	26	
2025-10-09T00:00	33900	6	-44.5		272	25	
2025-10-09T00:00	33950	6	-43.9		274	25	
2025-10-09T00:00	34000	6	-43.4		275	24	
2025-10-09T00:00	34050	6	-43.4		276	24	
2025-10-09T00:00	34100	6	-43.2		276	25	
2025-10-09T00:00	34150	6	-42.8		275	26	
2025-10-09T00:00	34200	6	-42.4		275	27	
2025-10-09T00:00	34250	6	-42.2		275	27	
2025-10-09T00:00	34300	6	-42.1		276	27	
2025-10-09T00:00	34350	6	-41.5		276	27	
2025-10-09T00:00	34400	6	-41.0		276	26	
2025-10-09T00:00	34450	6	-40.7		276	26	
2025-10-09T00:00	34500	6	-40.5		276	25	
2025-10-09T00:00	34550	6	-40.5		278	25	
2025-10-09T00:00	34600	6	-40.6		280	26	
2025-10-09T00:00	34650	6	-40.1		281	26	
2025-10-09T00:00	34700	6	-40.1		282	27	
2025-10-09T00:00	34750	6	-40.1		282	27	
2025-10-09T00:00	34800	6	-40.2		280	27	
2025-10-09T00:00	34850	5	-40.2		279	26	
2025-10-09T00:00	34900	5	-40.4		277	25	
2025-10-09T00:00	34950	5	-40.7		276	24	
2025-10-09T00:00	35000	5	-40.9		274	23	
2025-10-09T00:00	35050	5	-41.0		273	22	
2025-10-09T00:00	35100	5	-40.4		274	22	
2025-10-09T00:00	35150	5	-40.2		275	23	
2025-10-09T00:00	35200	5	-40.5		276	24	
2025-10-09T00:00	35250	5	-40.2		278	25	
2025-10-09T00:00	35300	5	-40.0		279	26	
2025-10-09T00:00	35350	5	-40.0		281	27	
2025-10-09T00:00	35400	5	-39.8		282	28	
2025-10-09T00:00	35450	5	-39.6		284	28	
2025-10-09T00:00	35500	5	-39.6		286	29	
2025-10-09T00:00	35550	5	-39.5		287	29	
2025-10-09T00:00	35600	5	-39.0		288	29	
2025-10-09T00:00	35650	5	-38.8		288	29	
2025-10-09T00:00	35700	5	-38.8		289	29	
2025-10-09T00:00	35750	5	-38.6		289	28	
2025-10-09T00:00	35800	5	-38.4		289	26	
2025-10-09T00:00	35850	5	-38.3		288	25	
2025-10-09T00:00	35900	5	-38.0		286	24	
2025-10-09T00:00	35950	5	-37.9		285	24	
2025-10-09T00:00	36000	5	-37.3		283	24	
2025-10-09T00:00	36050	5	-36.7		279	24	
2025-10-09T00:00	36100	5	-36.4		275	24	
2025-10-09T00:00	36150	5	-36.3		272	25	
2025-10-09T00:00	36200	4	-36.0		272	25	
2025-10-09T00:00	36250	4	-35.4		272	25	
2025-10-09T00:00	36300	4	-35.0		273	24	
2025-10-09T00:00	36350	4	-35.1		273	23	
2025-10-09T00:00	36400	4	-34.9		274	23	
2025-10-09T00:00	36450	4	-34.9		275	23	
2025-10-09T00:00	36500	4	-34.7		276	23	
2025-10-09T00:00	36550	4	-34.6		277	22	
2025-10-09T00:00	36600	4	-34.7		276	22	
2025-10-09T00:00	36650	4	-34.8		274	21	
2025-10-09T00:00	36700	4	-34.8		271	21	
2025-10-09T00:00	36750	4	-34.7		268	21	
2025-10-09T00:00	36800	4	-34.7		265	21	
2025-10-09T00:00	36850	4	-35.0		261	21	
2025-10-09T00:00	36900	4	-35.1		257	21	
2025-10-09T00:00	36950	4	-35.4		253	22	
2025-10-09T00:00	37000	4	-35.6		250	22	
2025-10-09T00:00	37050	4	-35.7		250	22	
2025-10-09T00:00	37100	4	-35.8		252	22	
2025-10-09T00:00	37150	4	-35.8		256	21	
2025-10-09T00:00	37200	4	-36.1		260	21	
2025-10-09T00:00	37250	4	-36.5		261	21	
2025-10-09T00:00	37300	4	-36.8		261	21	
2025-10-09T12:00	491	966	14.8	11.9	348	3	
2025-10-09T12:00	501	964	15.1	12.5	359	2	
2025-10-09T12:00	520	962	14.3	11.8	3	2	
2025-10-09T12:00	540	960	13.9	11.6	2	3	
2025-10-09T12:00	560	958	13.7	11.4	3	3	
2025-10-09T12:00	580	956	13.6	11.3	5	3	
2025-10-09T12:00	600	953	13.2	11.2	8	3	
2025-10-09T12:00	620	951	13.0	11.2	10	3	
2025-10-09T12:00	640	948	12.9	11.2	13	3	
2025-10-09T12:00	660	946	12.7	11.1	17	3	
2025-10-09T12:00	680	944	12.5	11.0	20	3	
2025-10-09T12:00	700	942	12.2	11.0	23	3	
2025-10-09T12:00	720	940	12.0	10.9	25	2	
2025-10-09T12:00	740	937	11.9	11.0	26	2	
2025-10-09T12:00	760	935	11.7	11.0	27	3	
2025-10-09T12:00	780	933	11.3	10.9	29	3	
2025-10-09T12:00	800	931	11.2	10.9	31	3	
2025-10-09T12:00	820	928	11.0	10.8	33	3	
2025-10-09T12:00	840	926	10.9	10.5	36	4	
2025-10-09T12:00	860	924	10.8	10.4	39	4	
2025-10-09T12:00	880	922	10.5	10.5	43	5	
2025-10-09T12:00	900	920	10.5	10.3	47	5	
2025-10-09T12:00	920	918	10.4	10.0	50	5	
2025-10-09T12:00	940	915	10.2	10.0	52	6	
2025-10-09T12:00	960	913	10.1	10.0	53	6	
2025-10-09T12:00	980	911	10.0	9.7	53	7	
2025-10-09T12:00	1000	909	10.0	9.4	52	7	
2025-10-09T12:00	1020	907	9.8	9.4	50	7	
2025-10-09T12:00	1040	904	9.7	9.2	49	7	
2025-10-09T12:00	1060	902	9.6	9.0	48	8	
2025-10-09T12:00	1080	900	9.5	8.9	46	8	
2025-10-09T12:00	1100	898	9.5	8.7	45	8	
2025-10-09T12:00	1120	896	9.6	8.4	44	8	
2025-10-09T12:00	1140	894	9.5	8.2	43	8	
2025-10-09T12:00	1160	892	9.4	8.1	42	8	
2025-10-09T12:00	1180	889	9.4	7.9	41	8	
2025-10-09T12:00	1200	887	9.2	7.9	41	7	
2025-10-09T12:00	1220	885	9.2	7.5	41	7	
2025-10-09T12:00	1240	883	9.1	7.3	42	7	
2025-10-09T12:00	1260	881	9.1	7.0	43	7	
2025-10-09T12:00	1280	879	9.0	6.7	44	7	
2025-10-09T12:00	1300	877	8.9	6.5	45	7	
2025-10-09T12:00	1320	875	8.8	6.4	48	7	
2025-10-09T12:00	1340	872	8.7	6.2	52	7	
2025-10-09T12:00	1360	870	8.5	6.1	56	7	
2025-10-09T12:00	1380	868	8.3	6.1	60	7	
2025-10-09T12:00	1400	866	8.1	6.2	63	7	
2025-10-09T12:00	1420	864	8.0	6.0	65	7	
2025-10-09T12:00	1440	862	7.8	5.9	65	7	
2025-10-09T12:00	1460	860	7.6	5.9	64	7	
2025-10-09T12:00	1480	858	7.4	5.9	63	7	
2025-10-09T12:00	1500	856	7.2	5.9	61	7	
2025-10-09T12:00	1520	853	7.0	5.9	59	7	
2025-10-09T12:00	1540	851	6.8	5.8	57	7	
2025-10-09T12:00	1560	849	6.6	5.7	55	7	
2025-10-09T12:00	1580	847	6.5	5.7	54	6	
2025-10-09T12:00	1600	845	6.3	5.7	55	5	
2025-10-09T12:00	1620	843	6.1	5.6	57	5	
2025-10-09T12:00	1640	841	5.9	5.5	60	4	
2025-10-09T12:00	1660	839	6.5	4.8	63	4	
2025-10-09T12:00	1680	837	7.5	4.1	64	3	
2025-10-09T12:00	1700	835	8.0	3.9	59	3	
2025-10-09T12:00	1720	833	8.2	3.6	52	3	
2025-10-09T12:00	1740	831	8.4	3.0	46	4	
2025-10-09T12:00	1760	829	8.6	2.8	41	4	
2025-10-09T12:00	1780	827	8.5	2.7	37	4	
2025-10-09T12:00	1800	825	8.4	2.4	34	4	
2025-10-09T12:00	1820	823	8.5	2.2	31	4	
2025-10-09T12:00	1840	821	8.5	2.1	30	4	
2025-10-09T12:00	1860	819	8.5	2.0	34	4	
2025-10-09T12:00	1880	817	8.4	2.2	39	4	
2025-10-09T12:00	1900	815	8.3	1.9	47	4	
2025-10-09T12:00	1920	813	8.3	1.9	55	4	
2025-10-09T12:00	1940	811	8.2	1.6	59	4	
2025-10-09T12:00	1960	809	8.1	1.1	60	4	
2025-10-09T12:00	1980	807	8.1	0.4	57	4	
2025-10-09T12:00	2000	805	8.0	0.0	54	4	
2025-10-09T12:00	2020	803	7.9	0.5	49	4	
2025-10-09T12:00	2040	801	7.7	2.1	45	4	
2025-10-09T12:00	2060	799	7.6	1.1	43	4	
2025-10-09T12:00	2080	797	7.5	0.4	43	4	
2025-10-09T12:00	2100	796	7.4	-0.1	44	4	
2025-10-09T12:00	2120	793	7.2	0.6	46	4	
2025-10-09T12:00	2140	792	7.0	1.7	48	4	
2025-10-09T12:00	2160	790	6.9	2.0	51	4	
2025-10-09T12:00	2180	788	6.7	1.3	55	4	
2025-10-09T12:00	2200	786	6.6	-0.1	58	4	
2025-10-09T12:00	2220	784	6.5	0.2	60	4	
2025-10-09T12:00	2240	782	6.4	1.1	62	4	
2025-10-09T12:00	2260	780	6.2	1.1	63	4	
2025-10-09T12:00	2280	778	6.0	1.5	64	4	
2025-10-09T12:00	2300	777	5.8	1.8	64	4	
2025-10-09T12:00	2320	775	5.6	2.0	63	4	
2025-10-09T12:00	2340	773	5.4	2.1	60	4	
2025-10-09T12:00	2360	771	5.3	2.1	55	4	
2025-10-09T12:00	2380	769	5.3	2.0	50	4	
2025-10-09T12:00	2400	767	5.1	1.9	46	5	
2025-10-09T12:00	2420	765	5.0	1.7	44	5	
2025-10-09T12:00	2440	763	4.9	1.0	41	5	
2025-10-09T12:00	2460	761	4.8	0.1	40	6	
2025-10-09T12:00	2480	760	4.7	-0.6	39	6	
2025-10-09T12:00	2500	758	4.5	-0.9	38	6	
2025-10-09T12:00	2520	756	4.4	-1.5	38	6	
2025-10-09T12:00	2540	754	4.3	-2.1	39	6	
2025-10-09T12:00	2560	752	4.1	-1.7	39	6	
2025-10-09T12:00	2580	750	4.0	-0.2	39	6	
2025-10-09T12:00	2600	749	3.9	0.2	39	5	
2025-10-09T12:00	2620	747	3.9	-1.4	38	5	
2025-10-09T12:00	2640	745	3.9	-3.0	38	5	
2025-10-09T12:00	2660	743	3.8	-2.9	36	5	
2025-10-09T12:00	2680	741	3.6	-2.1	35	5	
2025-10-09T12:00	2700	739	3.4	-2.1	34	5	
2025-10-09T12:00	2720	738	3.3	-3.2	33	5	
2025-10-09T12:00	2740	736	3.2	-3.9	32	5	
2025-10-09T12:00	2760	734	3.0	-4.8	32	6	
2025-10-09T12:00	2780	732	2.9	-4.4	33	6	
2025-10-09T12:00	2800	730	2.7	-2.2	34	6	
2025-10-09T12:00	2820	728	2.5	0.0	35	6	
2025-10-09T12:00	2840	726	2.3	0.1	35	6	
2025-10-09T12:00	2860	725	2.1	-0.1	35	6	
2025-10-09T12:00	2880	723	2.1	-1.0	34	6	
2025-10-09T12:00	2900	721	2.2	-2.6	31	6	
2025-10-09T12:00	2920	719	2.3	-4.9	29	6	
2025-10-09T12:00	2940	718	2.3	-4.5	28	6	
2025-10-09T12:00	2960	716	2.1	-4.2	28	6	
2025-10-09T12:00	2980	714	1.9	-4.0	28	6	
2025-10-09T12:00	3000	712	1.7	-3.5	30	6	
2025-10-09T12:00	3020	710	1.5	-3.2	30	6	
2025-10-09T12:00	3040	709	1.4	-3.3	28	5	
2025-10-09T12:00	3060	707	1.2	-3.3	23	5	
2025-10-09T12:00	3080	705	1.0	-3.6	18	5	
2025-10-09T12:00	3100	703	0.8	-3.6	12	5	
2025-10-09T12:00	3120	702	0.7	-3.1	6	5	
2025-10-09T12:00	3140	700	0.5	-2.5	0	5	
2025-10-09T12:00	3160	698	0.4	-2.9	358	5	
2025-10-09T12:00	3180	696	0.2	-3.6	357	5	
2025-10-09T12:00	3200	695	0.1	-3.7	358	5	
2025-10-09T12:00	3220	693	0.0	-3.5	0	5	
2025-10-09T12:00	3240	692	-0.2	-3.3	3	5	
2025-10-09T12:00	3260	690	-0.3	-3.7	6	5	
2025-10-09T12:00	3280	688	-0.5	-3.9	10	5	
2025-10-09T12:00	3300	686	-0.6	-4.0	13	5	
2025-10-09T12:00	3320	685	-0.7	-4.2	15	4	
2025-10-09T12:00	3340	683	-0.9	-4.5	15	4	
2025-10-09T12:00	3360	681	-1.0	-4.8	14	3	
2025-10-09T12:00	3380	679	-1.1	-5.2	11	3	
2025-10-09T12:00	3400	678	-1.2	-5.4	9	3	
2025-10-09T12:00	3420	676	-1.4	-5.5	8	4	
2025-10-09T12:00	3440	674	-1.5	-6.1	9	4	
2025-10-09T12:00	3460	673	-1.5	-6.5	10	4	
2025-10-09T12:00	3480	671	-1.6	-7.2	11	5	
2025-10-09T12:00	3500	669	-1.6	-8.2	13	5	
2025-10-09T12:00	3520	667	-1.6	-8.5	15	5	
2025-10-09T12:00	3540	666	-1.8	-8.4	17	5	
2025-10-09T12:00	3560	664	-2.0	-8.4	19	5	
2025-10-09T12:00	3580	662	-2.1	-8.8	21	5	
2025-10-09T12:00	3600	661	-2.1	-9.0	22	5	
2025-10-09T12:00	3620	659	-2.2	-10.2	22	5	
2025-10-09T12:00	3640	657	-2.1	-11.2	22	5	
2025-10-09T12:00	3660	656	-2.0	-14.9	20	5	
2025-10-09T12:00	3680	654	-1.9	-18.7	18	5	
2025-10-09T12:00	3700	652	-1.9	-20.0	16	5	
2025-10-09T12:00	3720	651	-1.9	-19.9	14	5	
2025-10-09T12:00	3740	649	-2.1	-19.9	12	5	
2025-10-09T12:00	3760	648	-2.2	-19.6	9	5	
2025-10-09T12:00	3780	646	-2.4	-19.4	7	5	
2025-10-09T12:00	3800	644	-2.4	-19.5	6	5	
2025-10-09T12:00	3820	643	-2.5	-19.7	5	6	
2025-10-09T12:00	3840	641	-2.7	-19.9	6	6	
2025-10-09T12:00	3860	639	-2.8	-19.9	6	6	
2025-10-09T12:00	3880	638	-3.0	-19.7	7	6	
2025-10-09T12:00	3900	636	-3.1	-19.9	8	6	
2025-10-09T12:00	3920	635	-3.3	-20.2	8	6	
2025-10-09T12:00	3940	633	-3.5	-20.5	7	6	
2025-10-09T12:00	3960	632	-3.6	-20.9	6	6	
2025-10-09T12:00	3980	630	-3.7	-21.6	5	6	
2025-10-09T12:00	4000	628	-3.7	-21.7	5	5	
2025-10-09T12:00	4020	627	-3.8	-21.8	7	5	
2025-10-09T12:00	4040	625	-3.9	-21.8	9	5	
2025-10-09T12:00	4060	624	-4.0	-22.0	13	5	
2025-10-09T12:00	4080	622	-4.1	-22.0	17	5	
2025-10-09T12:00	4100	621	-4.1	-23.0	20	5	
2025-10-09T12:00	4120	619	-4.2	-25.0	21	6	
2025-10-09T12:00	4140	617	-4.3	-25.3	21	6	
2025-10-09T12:00	4160	616	-4.4	-25.3	22	6	
2025-10-09T12:00	4180	614	-4.6	-21.5	21	6	
2025-10-09T12:00	4200	613	-4.7	-19.1	20	6	
2025-10-09T12:00	4220	611	-4.9	-17.5	17	5	
2025-10-09T12:00	4240	610	-5.1	-18.6	13	5	
2025-10-09T12:00	4260	608	-5.1	-18.7	7	5	
2025-10-09T12:00	4280	607	-5.3	-18.5	3	5	
2025-10-09T12:00	4300	605	-5.4	-18.9	0	5	
2025-10-09T12:00	4320	603	-5.6	-19.4	359	5	
2025-10-09T12:00	4340	602	-5.8	-19.6	359	5	
2025-10-09T12:00	4360	600	-5.9	-19.1	360	5	
2025-10-09T12:00	4380	599	-6.0	-20.0	2	5	
2025-10-09T12:00	4400	597	-6.1	-21.0	4	5	
2025-10-09T12:00	4420	596	-6.3	-20.2	7	5	
2025-10-09T12:00	4440	594	-6.4	-20.0	10	5	
2025-10-09T12:00	4460	593	-6.6	-19.8	12	5	
2025-10-09T12:00	4480	591	-6.7	-20.0	13	5	
2025-10-09T12:00	4500	590	-6.9	-20.4	13	5	
2025-10-09T12:00	4520	588	-7.0	-21.6	11	5	
2025-10-09T12:00	4540	587	-7.1	-22.6	10	5	
2025-10-09T12:00	4560	585	-7.1	-22.6	7	5	
2025-10-09T12:00	4580	584	-7.2	-22.6	6	5	
2025-10-09T12:00	4600	582	-7.4	-22.5	4	5	
2025-10-09T12:00	4620	581	-7.5	-22.7	4	6	
2025-10-09T12:00	4640	579	-7.7	-24.3	4	6	
2025-10-09T12:00	4660	577	-7.8	-25.4	4	6	
2025-10-09T12:00	4680	576	-8.0	-24.4	4	6	
2025-10-09T12:00	4700	575	-8.1	-22.9	4	6	
2025-10-09T12:00	4720	573	-8.3	-23.3	4	6	
2025-10-09T12:00	4740	572	-8.4	-23.4	3	6	
2025-10-09T12:00	4760	570	-8.5	-23.5	3	6	
2025-10-09T12:00	4780	569	-8.6	-20.9	2	6	
2025-10-09T12:00	4800	567	-8.7	-20.8	1	6	
2025-10-09T12:00	4820	566	-8.8	-22.0	360	7	
2025-10-09T12:00	4840	564	-9.0	-22.7	358	7	
2025-10-09T12:00	4860	563	-9.1	-26.0	357	7	
2025-10-09T12:00	4880	561	-9.3	-26.5	356	7	
2025-10-09T12:00	4900	560	-9.4	-27.8	356	7	
2025-10-09T12:00	4920	559	-9.5	-28.1	356	7	
2025-10-09T12:00	4940	557	-9.7	-28.3	356	7	
2025-10-09T12:00	4960	556	-9.8	-28.2	356	7	
2025-10-09T12:00	4980	554	-9.9	-28.9	355	7	
2025-10-09T12:00	5000	553	-9.9	-33.3	354	7	
2025-10-09T12:00	5020	551	-10.0	-36.5	354	7	
2025-10-09T12:00	5040	550	-10.1	-36.3	353	7	
2025-10-09T12:00	5060	548	-10.2	-28.4	353	7	
2025-10-09T12:00	5080	547	-10.4	-23.7	354	7	
2025-10-09T12:00	5100	546	-10.5	-23.7	355	7	
2025-10-09T12:00	5120	544	-10.6	-24.4	358	7	
2025-10-09T12:00	5140	543	-10.7	-25.4	0	8	
2025-10-09T12:00	5160	541	-10.9	-26.0	3	8	
2025-10-09T12:00	5180	540	-11.0	-27.6	4	8	
2025-10-09T12:00	5200	539	-11.1	-28.6	5	9	
2025-10-09T12:00	5220	537	-11.3	-29.0	5	9	
2025-10-09T12:00	5240	536	-11.4	-30.1	5	9	
2025-10-09T12:00	5260	534	-11.6	-30.3	5	10	
2025-10-09T12:00	5280	533	-11.8	-31.0	5	10	
2025-10-09T12:00	5300	532	-12.0	-31.5	5	10	
2025-10-09T12:00	5320	530	-12.1	-32.9	6	9	
2025-10-09T12:00	5340	529	-12.2	-34.4	8	9	
2025-10-09T12:00	5360	527	-12.3	-34.9	10	9	
2025-10-09T12:00	5380	526	-12.5	-35.1	11	9	
2025-10-09T12:00	5400	525	-12.6	-35.1	11	8	
2025-10-09T12:00	5420	523	-12.8	-35.1	11	8	
2025-10-09T12:00	5440	522	-13.0	-35.0	11	8	
2025-10-09T12:00	5460	521	-13.1	-34.7	10	8	
2025-10-09T12:00	5480	519	-13.3	-34.6	9	8	
2025-10-09T12:00	5500	518	-13.5	-34.9	8	8	
2025-10-09T12:00	5520	516	-13.6	-35.4	8	8	
2025-10-09T12:00	5540	515	-13.8	-35.7	6	7	
2025-10-09T12:00	5560	514	-13.9	-35.8	5	7	
2025-10-09T12:00	5580	512	-14.1	-36.1	3	7	
2025-10-09T12:00	5600	511	-14.3	-36.1	2	7	
2025-10-09T12:00	5620	510	-14.4	-36.1	0	7	
2025-10-09T12:00	5640	508	-14.6	-36.2	360	7	
2025-10-09T12:00	5660	507	-14.7	-36.5	359	7	
2025-10-09T12:00	5680	506	-14.9	-36.8	0	7	
2025-10-09T12:00	5700	504	-15.0	-37.2	2	7	
2025-10-09T12:00	5720	503	-15.0	-38.9	4	7	
2025-10-09T12:00	5740	502	-15.1	-39.9	5	8	
2025-10-09T12:00	5760	500	-15.1	-40.6	7	8	
2025-10-09T12:00	5780	499	-15.2	-41.2	7	8	
2025-10-09T12:00	5800	498	-15.4	-41.5	8	9	
2025-10-09T12:00	5820	496	-15.5	-41.5	9	9	
2025-10-09T12:00	5840	495	-15.7	-41.5	9	9	
2025-10-09T12:00	5860	494	-15.8	-41.4	10	9	
2025-10-09T12:00	5880	492	-15.9	-39.9	11	9	
2025-10-09T12:00	5900	491	-16.1	-38.8	11	8	
2025-10-09T12:00	5920	490	-16.2	-38.6	11	8	
2025-10-09T12:00	5940	488	-16.4	-38.6	10	8	
2025-10-09T12:00	5960	487	-16.6	-38.7	8	8	
2025-10-09T12:00	5980	486	-16.7	-38.9	7	8	
2025-10-09T12:00	6000	485	-16.9	-38.9	5	8	
2025-10-09T12:00	6020	483	-17.1	-39.0	5	8	
2025-10-09T12:00	6040	482	-17.2	-39.1	4	9	
2025-10-09T12:00	6060	481	-17.4	-39.1	4	9	
2025-10-09T12:00	6080	480	-17.6	-38.9	5	9	
2025-10-09T12:00	6100	478	-17.7	-38.8	6	9	
2025-10-09T12:00	6120	477	-17.9	-38.8	7	9	
2025-10-09T12:00	6140	476	-18.1	-38.9	8	9	
2025-10-09T12:00	6160	474	-18.2	-39.0	9	9	
2025-10-09T12:00	6180	473	-18.4	-39.4	10	10	
2025-10-09T12:00	6200	472	-18.5	-40.0	10	10	
2025-10-09T12:00	6220	471	-18.6	-40.1	11	10	
2025-10-09T12:00	6240	469	-18.8	-39.8	11	10	
2025-10-09T12:00	6260	468	-19.0	-39.1	11	10	
2025-10-09T12:00	6280	467	-19.2	-38.4	11	10	
2025-10-09T12:00	6300	466	-19.3	-37.7	11	10	
2025-10-09T12:00	6320	464	-19.5	-36.6	11	10	
2025-10-09T12:00	6340	463	-19.7	-36.2	12	10	
2025-10-09T12:00	6360	462	-19.9	-36.4	12	10	
2025-10-09T12:00	6380	461	-20.0	-37.0	13	10	
2025-10-09T12:00	6400	459	-20.2	-37.3	13	10	
2025-10-09T12:00	6420	458	-20.3	-37.5	14	10	
2025-10-09T12:00	6440	457	-20.5	-37.7	14	10	
2025-10-09T12:00	6460	456	-20.7	-38.2	15	10	
2025-10-09T12:00	6480	454	-20.8	-38.9	15	9	
2025-10-09T12:00	6500	453	-20.9	-39.5	16	9	
2025-10-09T12:00	6520	452	-21.0	-39.5	16	9	
2025-10-09T12:00	6540	451	-21.2	-39.5	16	9	
2025-10-09T12:00	6560	450	-21.4	-39.6	15	9	
2025-10-09T12:00	6580	448	-21.6	-39.6	15	8	
2025-10-09T12:00	6600	447	-21.8	-39.6	15	8	
2025-10-09T12:00	6620	446	-21.9	-40.2	15	8	
2025-10-09T12:00	6640	445	-21.9	-41.2	17	8	
2025-10-09T12:00	6660	443	-22.0	-42.2	20	9	
2025-10-09T12:00	6680	442	-22.1	-42.9	23	9	
2025-10-09T12:00	6700	441	-22.2	-43.6	25	9	
2025-10-09T12:00	6720	440	-22.3	-44.1	27	10	
2025-10-09T12:00	6740	439	-22.5	-44.2	27	10	
2025-10-09T12:00	6760	437	-22.6	-44.5	27	10	
2025-10-09T12:00	6780	436	-22.8	-44.9	27	10	
2025-10-09T12:00	6800	435	-22.9	-43.9	26	10	
2025-10-09T12:00	6820	434	-23.0	-43.3	25	10	
2025-10-09T12:00	6840	433	-23.2	-43.3	24	10	
2025-10-09T12:00	6860	431	-23.4	-43.2	21	10	
2025-10-09T12:00	6880	430	-23.6	-43.3	20	9	
2025-10-09T12:00	6900	429	-23.7	-44.0	18	9	
2025-10-09T12:00	6920	428	-23.9	-44.6	17	10	
2025-10-09T12:00	6940	427	-24.0	-44.8	17	10	
2025-10-09T12:00	6960	426	-24.1	-45.0	18	10	
2025-10-09T12:00	6980	424	-24.1	-45.4	19	11	
2025-10-09T12:00	7000	423	-24.2	-45.5	20	11	
2025-10-09T12:00	7020	422	-24.4	-45.6	22	11	
2025-10-09T12:00	7040	421	-24.5	-45.8	23	12	
2025-10-09T12:00	7060	420	-24.6	-46.1	24	12	
2025-10-09T12:00	7080	419	-24.8	-46.7	24	12	
2025-10-09T12:00	7100	418	-24.9	-47.5	25	12	
2025-10-09T12:00	7120	416	-25.0	-47.9	26	11	
2025-10-09T12:00	7140	415	-25.1	-48.0	27	11	
2025-10-09T12:00	7160	414	-25.3	-47.9	28	11	
2025-10-09T12:00	7180	413	-25.5	-48.0	28	11	
2025-10-09T12:00	7200	412	-25.6	-48.0	29	11	
2025-10-09T12:00	7220	411	-25.8	-47.9	30	10	
2025-10-09T12:00	7240	410	-25.9	-47.6	30	11	
2025-10-09T12:00	7260	408	-26.1	-47.4	30	11	
2025-10-09T12:00	7280	407	-26.3	-47.3	30	11	
2025-10-09T12:00	7300	406	-26.5	-47.1	30	11	
2025-10-09T12:00	7320	405	-26.7	-47.0	30	11	
2025-10-09T12:00	7340	404	-26.8	-46.9	31	11	
2025-10-09T12:00	7360	403	-27.0	-47.1	31	11	
2025-10-09T12:00	7380	402	-27.2	-47.1	32	11	
2025-10-09T12:00	7400	401	-27.3	-47.3	32	11	
2025-10-09T12:00	7420	400	-27.4	-47.8	33	11	
2025-10-09T12:00	7440	398	-27.5	-48.0	33	12	
2025-10-09T12:00	7460	397	-27.7	-48.0	33	12	
2025-10-09T12:00	7480	396	-27.8	-48.2	32	12	
2025-10-09T12:00	7500	395	-28.0	-48.3	32	12	
2025-10-09T12:00	7520	394	-28.2	-48.1	31	12	
2025-10-09T12:00	7540	393	-28.3	-47.8	30	12	
2025-10-09T12:00	7560	392	-28.5	-48.3	29	12	
2025-10-09T12:00	7580	391	-28.6	-48.3	28	12	
2025-10-09T12:00	7600	390	-28.7	-48.9	27	12	
2025-10-09T12:00	7620	388	-28.9	-50.0	26	11	
2025-10-09T12:00	7640	387	-29.0	-50.0	26	11	
2025-10-09T12:00	7660	386	-29.1	-50.3	25	11	
2025-10-09T12:00	7680	385	-29.3	-50.3	25	11	
2025-10-09T12:00	7700	384	-29.5	-50.4	25	11	
2025-10-09T12:00	7720	383	-29.7	-50.6	25	11	
2025-10-09T12:00	7740	382	-29.9	-50.6	25	11	
2025-10-09T12:00	7760	381	-30.0	-51.0	24	11	
2025-10-09T12:00	7780	380	-30.2	-51.6	24	11	
2025-10-09T12:00	7800	379	-30.4	-51.9	23	11	
2025-10-09T12:00	7820	378	-30.5	-52.8	22	10	
2025-10-09T12:00	7840	377	-30.7	-53.3	21	10	
2025-10-09T12:00	7860	376	-30.8	-53.1	20	10	
2025-10-09T12:00	7880	375	-31.0	-53.0	19	10	
2025-10-09T12:00	7900	374	-31.2	-52.9	19	9	
2025-10-09T12:00	7920	372	-31.4	-53.1	19	9	
2025-10-09T12:00	7940	371	-31.6	-53.2	19	9	
2025-10-09T12:00	7960	370	-31.8	-53.2	19	9	
2025-10-09T12:00	7980	369	-32.0	-53.2	18	9	
2025-10-09T12:00	8000	368	-32.2	-53.2	18	10	
2025-10-09T12:00	8020	367	-32.4	-53.3	18	10	
2025-10-09T12:00	8040	366	-32.6	-53.4	17	10	
2025-10-09T12:00	8060	365	-32.7	-53.6	17	10	
2025-10-09T12:00	8080	364	-32.9	-53.7	18	11	
2025-10-09T12:00	8100	363	-33.0	-53.8	18	11	
2025-10-09T12:00	8120	362	-33.2	-53.9	19	11	
2025-10-09T12:00	8140	361	-33.4	-53.8	20	11	
2025-10-09T12:00	8160	360	-33.5	-53.4	20	11	
2025-10-09T12:00	8180	359	-33.6	-53.3	21	11	
2025-10-09T12:00	8200	358	-33.7	-53.5	21	11	
2025-10-09T12:00	8220	357	-33.8	-53.5	22	11	
2025-10-09T12:00	8240	356	-33.9	-53.5	22	10	
2025-10-09T12:00	8260	355	-34.1	-53.2	22	10	
2025-10-09T12:00	8280	354	-34.3	-53.2	21	10	
2025-10-09T12:00	8300	353	-34.4	-53.4	21	10	
2025-10-09T12:00	8320	352	-34.6	-53.6	21	10	
2025-10-09T12:00	8340	351	-34.8	-53.8	20	10	
2025-10-09T12:00	8360	350	-35.0	-54.2	20	10	
2025-10-09T12:00	8380	349	-35.1	-54.4	19	10	
2025-10-09T12:00	8400	348	-35.3	-54.3	19	10	
2025-10-09T12:00	8420	347	-35.5	-54.1	20	10	
2025-10-09T12:00	8440	346	-35.7	-54.4	21	10	
2025-10-09T12:00	8460	345	-35.8	-55.0	22	9	
2025-10-09T12:00	8480	344	-36.0	-55.1	24	9	
2025-10-09T12:00	8500	343	-36.1	-55.0	26	9	
2025-10-09T12:00	8520	342	-36.1	-54.9	28	9	
2025-10-09T12:00	8540	341	-36.2	-54.5	30	10	
2025-10-09T12:00	8560	340	-36.3	-54.3	31	10	
2025-10-09T12:00	8580	339	-36.4	-54.2	32	10	
2025-10-09T12:00	8600	338	-36.6	-54.1	33	10	
2025-10-09T12:00	8620	337	-36.8	-54.0	34	10	
2025-10-09T12:00	8640	336	-36.9	-53.9	35	10	
2025-10-09T12:00	8660	335	-37.1	-53.9	36	10	
2025-10-09T12:00	8680	334	-37.3	-53.9	37	10	
2025-10-09T12:00	8700	333	-37.4	-53.9	37	10	
2025-10-09T12:00	8720	332	-37.6	-53.9	38	10	
2025-10-09T12:00	8740	331	-37.8	-54.0	39	10	
2025-10-09T12:00	8760	330	-38.0	-54.0	40	10	
2025-10-09T12:00	8780	329	-38.2	-53.9	40	11	
2025-10-09T12:00	8800	328	-38.4	-53.8	41	11	
2025-10-09T12:00	8820	327	-38.6	-53.8	41	11	
2025-10-09T12:00	8840	326	-38.8	-53.9	41	11	
2025-10-09T12:00	8860	325	-38.9	-53.7	41	12	
2025-10-09T12:00	8880	324	-39.1	-53.5	41	12	
2025-10-09T12:00	8900	324	-39.3	-53.3	41	12	
2025-10-09T12:00	8920	323	-39.5	-53.4	41	12	
2025-10-09T12:00	8940	322	-39.7	-53.2	42	12	
2025-10-09T12:00	8960	321	-39.9	-53.2	42	12	
2025-10-09T12:00	8980	320	-40.1	-53.2	43	13	
2025-10-09T12:00	9000	319	-40.3	-53.1	44	13	
2025-10-09T12:00	9020	318	-40.5	-52.4	44	13	
2025-10-09T12:00	9040	317	-40.6	-52.1	45	13	
2025-10-09T12:00	9060	316	-40.8	-51.9	46	13	
2025-10-09T12:00	9080	315	-40.9	-52.0	47	13	
2025-10-09T12:00	9100	314	-41.1	-52.3	48	13	
2025-10-09T12:00	9120	313	-41.3	-52.5	48	13	
2025-10-09T12:00	9140	312	-41.5	-52.6	49	13	
2025-10-09T12:00	9160	311	-41.6	-53.1	49	13	
2025-10-09T12:00	9180	311	-41.8	-53.5	49	13	
2025-10-09T12:00	9200	310	-42.0	-53.7	48	13	
2025-10-09T12:00	9220	309	-42.2	-53.9	48	13	
2025-10-09T12:00	9240	308	-42.4	-54.0	47	13	
2025-10-09T12:00	9260	307	-42.5	-54.0	46	12	
2025-10-09T12:00	9280	306	-42.7	-54.3	46	12	
2025-10-09T12:00	9300	305	-42.9	-54.7	46	12	
2025-10-09T12:00	9320	304	-43.1	-55.2	46	12	
2025-10-09T12:00	9340	303	-43.3	-55.3	46	12	
2025-10-09T12:00	9360	302	-43.4	-55.5	46	11	
2025-10-09T12:00	9380	301	-43.6	-55.6	46	11	
2025-10-09T12:00	9400	300	-43.7	-55.9	46	11	
2025-10-09T12:00	9420	300	-43.8	-56.3	46	10	
2025-10-09T12:00	9440	299	-44.0	-56.5	46	10	
2025-10-09T12:00	9460	298	-44.1	-56.6	45	10	
2025-10-09T12:00	9480	297	-44.3	-56.7	44	10	
2025-10-09T12:00	9500	296	-44.5	-56.5	43	10	
2025-10-09T12:00	9520	295	-44.7	-56.6	42	10	
2025-10-09T12:00	9540	294	-44.9	-56.7	39	10	
2025-10-09T12:00	9560	293	-45.1	-56.6	37	10	
2025-10-09T12:00	9580	293	-45.3	-56.8	35	10	
2025-10-09T12:00	9600	292	-45.4	-57.0	33	10	
2025-10-09T12:00	9620	291	-45.6	-57.2	30	10	
2025-10-09T12:00	9640	290	-45.7	-57.4	28	10	
2025-10-09T12:00	9660	289	-45.9	-57.7	25	10	
2025-10-09T12:00	9680	288	-46.1	-57.8	23	9	
2025-10-09T12:00	9700	287	-46.2	-57.9	21	9	
2025-10-09T12:00	9720	286	-46.3	-58.3	20	9	
2025-10-09T12:00	9740	286	-46.4	-58.8	19	9	
2025-10-09T12:00	9760	285	-46.5	-59.6	18	9	
2025-10-09T12:00	9780	284	-46.6	-60.1	18	9	
2025-10-09T12:00	9800	283	-46.7	-60.1	17	10	
2025-10-09T12:00	9820	282	-46.9	-59.9	17	10	
2025-10-09T12:00	9840	281	-47.0	-59.8	17	10	
2025-10-09T12:00	9860	280	-47.1	-59.8	17	10	
2025-10-09T12:00	9880	280	-47.3	-59.8	18	10	
2025-10-09T12:00	9900	279	-47.5	-59.8	19	10	
2025-10-09T12:00	9920	278	-47.6	-59.8	20	9	
2025-10-09T12:00	9940	277	-47.8	-59.9	22	9	
2025-10-09T12:00	9960	276	-47.9	-59.9	24	9	
2025-10-09T12:00	9980	275	-48.0	-60.0	25	9	
2025-10-09T12:00	10000	275	-48.1	-60.4	25	8	
2025-10-09T12:00	10018	274	-48.1	-60.9	23	8	
2025-10-09T12:00	10050	272	-48.4	-60.9	17	7	
2025-10-09T12:00	10100	270	-48.7	-61.7	4	6	
2025-10-09T12:00	10150	268	-48.8	-65.0	355	7	
2025-10-09T12:00	10200	266	-49.0	-64.4	350	7	
2025-10-09T12:00	10250	264	-49.2	-63.6	346	7	
2025-10-09T12:00	10300	262	-49.6	-63.9	340	7	
2025-10-09T12:00	10350	260	-49.9	-65.6	333	8	
2025-10-09T12:00	10400	258	-50.1	-69.3	327	8	
2025-10-09T12:00	10450	256	-50.2	-68.5	323	8	
2025-10-09T12:00	10500	254	-50.3	-68.4	316	9	
2025-10-09T12:00	10550	253	-50.2	-67.9	307	9	
2025-10-09T12:00	10600	250	-50.4	-66.6	302	9	
2025-10-09T12:00	10650	249	-50.8	-65.9	303	10	
2025-10-09T12:00	10700	247	-51.1	-64.9	304	11	
2025-10-09T12:00	10750	245	-51.1	-65.2	304	12	
2025-10-09T12:00	10800	243	-51.3	-67.0	303	13	
2025-10-09T12:00	10850	241	-51.5	-67.6	302	13	
2025-10-09T12:00	10900	239	-51.6	-67.8	301	13	
2025-10-09T12:00	10950	237	-51.8	-67.7	300	13	
2025-10-09T12:00	11000	236	-52.2	-67.6	299	13	
2025-10-09T12:00	11050	234	-52.3	-67.8	299	13	
2025-10-09T12:00	11100	232	-52.6	-67.9	298	12	
2025-10-09T12:00	11150	230	-52.9	-68.2	294	12	
2025-10-09T12:00	11200	228	-53.4	-68.4	289	12	
2025-10-09T12:00	11250	227	-53.4	-68.7	286	11	
2025-10-09T12:00	11300	225	-53.5	-68.8	288	11	
2025-10-09T12:00	11350	223	-53.7	-68.7	291	11	
2025-10-09T12:00	11400	221	-53.8	-68.7	293	10	
2025-10-09T12:00	11450	220	-53.6	-68.6	294	11	
2025-10-09T12:00	11500	218	-53.2	-68.9	295	11	
2025-10-09T12:00	11550	216	-53.6	-69.1	295	11	
2025-10-09T12:00	11600	215	-54.0	-69.0	294	12	
2025-10-09T12:00	11650	213	-54.4	-68.7	292	12	
2025-10-09T12:00	11700	211	-54.9	-68.5	292	13	
2025-10-09T12:00	11750	210	-55.1	-69.1	294	14	
2025-10-09T12:00	11800	208	-54.7	-71.0	297	14	
2025-10-09T12:00	11850	206	-54.6	-71.3	299	15	
2025-10-09T12:00	11900	205	-54.8	-71.3	300	15	
2025-10-09T12:00	11950	203	-54.8	-72.2	299	14	
2025-10-09T12:00	12000	202	-54.2	-73.8	296	12	
2025-10-09T12:00	12050	200	-53.6	-74.8	292	11	
2025-10-09T12:00	12100	198	-53.8	-74.7	289	11	
2025-10-09T12:00	12150	197	-54.1	-74.7	286	11	
2025-10-09T12:00	12200	195	-54.2	-75.0	282	11	
2025-10-09T12:00	12250	194	-54.1	-75.3	280	11	
2025-10-09T12:00	12300	192	-54.1	-75.4	281	10	
2025-10-09T12:00	12350	191	-54.2	-75.6	285	10	
2025-10-09T12:00	12400	189	-54.1	-75.8	289	10	
2025-10-09T12:00	12450	188	-54.1	-76.0	291	9	
2025-10-09T12:00	12500	186	-54.2	-76.1	287	9	
2025-10-09T12:00	12550	185	-54.2	-76.2	284	9	
2025-10-09T12:00	12600	184	-54.2	-76.5	284	9	
2025-10-09T12:00	12650	182	-54.2	-77.0	282	10	
2025-10-09T12:00	12700	181	-54.3	-77.1	282	11	
2025-10-09T12:00	12750	179	-54.6	-76.9	284	11	
2025-10-09T12:00	12800	178	-54.8	-77.0	286	10	
2025-10-09T12:00	12850	177	-54.9	-77.4	289	10	
2025-10-09T12:00	12900	175	-54.9	-77.6	292	10	
2025-10-09T12:00	12950	174	-55.1	-77.8	293	10	
2025-10-09T12:00	13000	172	-55.4	-77.9	292	11	
2025-10-09T12:00	13050	171	-55.8	-78.0	291	12	
2025-10-09T12:00	13100	170	-56.2	-78.2	293	12	
2025-10-09T12:00	13150	168	-56.5	-78.4	296	13	
2025-10-09T12:00	13200	167	-56.8	-78.8	301	14	
2025-10-09T12:00	13250	166	-56.9	-79.0	306	13	
2025-10-09T12:00	13300	165	-57.1	-79.1	309	13	
2025-10-09T12:00	13350	163	-57.4	-79.1	310	12	
2025-10-09T12:00	13400	162	-57.9	-79.3	310	11	
2025-10-09T12:00	13450	161	-58.1	-79.4	313	10	
2025-10-09T12:00	13500	159	-58.2	-79.8	316	10	
2025-10-09T12:00	13550	158	-58.3	-80.0	317	9	
2025-10-09T12:00	13600	157	-58.4	-80.2	315	9	
2025-10-09T12:00	13650	156	-58.7	-80.3	313	9	
2025-10-09T12:00	13700	154	-58.9	-80.6	313	9	
2025-10-09T12:00	13750	153	-59.0	-80.7	311	8	
2025-10-09T12:00	13800	152	-59.0	-80.7	309	8	
2025-10-09T12:00	13850	151	-59.5	-80.9	304	9	
2025-10-09T12:00	13900	150	-59.8	-81.0	297	8	
2025-10-09T12:00	13950	148	-60.1	-81.0	289	8	
2025-10-09T12:00	14000	147	-60.5	-81.1	288	9	
2025-10-09T12:00	14050	146	-60.4	-80.9	290	9	
2025-10-09T12:00	14100	145	-60.3	-81.1	289	9	
2025-10-09T12:00	14150	144	-60.1	-81.0	288	9	
2025-10-09T12:00	14200	143	-60.2	-81.0	287	10	
2025-10-09T12:00	14250	141	-60.3	-81.0	286	10	
2025-10-09T12:00	14300	140	-60.3	-81.1	287	10	
2025-10-09T12:00	14350	139	-60.3	-81.5	289	11	
2025-10-09T12:00	14400	138	-60.1	-81.9	292	11	
2025-10-09T12:00	14450	137	-60.0	-82.2	294	11	
2025-10-09T12:00	14500	136	-59.8	-82.1	295	11	
2025-10-09T12:00	14550	135	-59.6	-82.1	298	11	
2025-10-09T12:00	14600	134	-59.8	-82.2	304	11	
2025-10-09T12:00	14650	133	-59.9	-82.3	311	11	
2025-10-09T12:00	14700	132	-60.0	-82.3	317	10	
2025-10-09T12:00	14750	130	-60.1	-82.3	321	9	
2025-10-09T12:00	14800	129	-60.4	-82.4	323	8	
2025-10-09T12:00	14850	128	-60.7	-82.5	323	9	
2025-10-09T12:00	14900	127	-60.8	-82.5	325	9	
2025-10-09T12:00	14950	126	-61.1	-82.6	326	9	
2025-10-09T12:00	15000	125	-61.4	-82.8	323	8	
2025-10-09T12:00	15050	124	-61.5	-82.9	315	7	
2025-10-09T12:00	15100	123	-61.2	-82.8	310	7	
2025-10-09T12:00	15150	122	-61.3	-82.9	306	7	
2025-10-09T12:00	15200	121	-61.4	-83.0	301	7	
2025-10-09T12:00	15250	120	-61.7	-83.2	298	7	
2025-10-09T12:00	15300	119	-61.4	-83.3	303	7	
2025-10-09T12:00	15350	118	-61.0	-83.2	309	6	
2025-10-09T12:00	15400	118	-61.3	-83.3	314	5	
2025-10-09T12:00	15450	117	-61.3	-83.3	317	5	
2025-10-09T12:00	15500	116	-61.3	-83.3	313	5	
2025-10-09T12:00	15550	115	-61.5	-83.5	307	4	
2025-10-09T12:00	15600	114	-61.3	-83.5	301	4	
2025-10-09T12:00	15650	113	-61.0	-83.4	293	5	
2025-10-09T12:00	15700	112	-61.4	-83.4	284	5	
2025-10-09T12:00	15750	111	-61.9	-83.5	275	6	
2025-10-09T12:00	15800	110	-62.1	-83.6	271	7	
2025-10-09T12:00	15850	109	-62.2	-83.6	272	8	
2025-10-09T12:00	15900	108	-62.4	-83.7	277	9	
2025-10-09T12:00	15950	107	-62.4	-83.7	285	8	
2025-10-09T12:00	16000	107	-62.6	-83.8	293	8	
2025-10-09T12:00	16050	106	-62.9	-83.9	300	8	
2025-10-09T12:00	16100	105	-63.1	-84.0	307	7	
2025-10-09T12:00	16150	104	-63.0	-83.9	316	6	
2025-10-09T12:00	16200	103	-63.3	-84.0	324	5	
2025-10-09T12:00	16250	102	-63.5	-84.0	325	5	
2025-10-09T12:00	16300	102	-63.6	-84.1	319	5	
2025-10-09T12:00	16350	101	-63.9	-84.2	309	5	
2025-10-09T12:00	16400	100	-64.2	-84.3	303	6	
2025-10-09T12:00	16450	99	-64.4	-84.5	300	6	
2025-10-09T12:00	16500	98	-64.2	-84.6	303	6	
2025-10-09T12:00	16550	98	-63.9	-84.8	308	6	
2025-10-09T12:00	16600	97	-63.8	-85.0	311	6	
2025-10-09T12:00	16650	96	-63.9	-85.0	313	6	
2025-10-09T12:00	16700	95	-64.1	-85.2	315	5	
2025-10-09T12:00	16750	94	-64.0	-85.1	309	4	
2025-10-09T12:00	16800	94	-64.2	-85.2	297	4	
2025-10-09T12:00	16850	93	-64.4	-85.3	289	4	
2025-10-09T12:00	16900	92	-64.3	-85.5	289	4	
2025-10-09T12:00	16950	91	-63.9	-85.6	293	5	
2025-10-09T12:00	17000	91	-64.2	-85.9	294	5	
2025-10-09T12:00	17050	90	-64.3	-85.8	292	6	
2025-10-09T12:00	17100	89	-64.5	-85.6	294	6	
2025-10-09T12:00	17150	88	-64.7	-85.6	298	5	
2025-10-09T12:00	17200	88	-64.9	-85.8	302	5	
2025-10-09T12:00	17250	87	-64.6	-85.9	301	5	
2025-10-09T12:00	17300	86	-64.2	-86.1	299	4	
2025-10-09T12:00	17350	86	-64.1	-86.3	290	3	
2025-10-09T12:00	17400	85	-63.6	-86.2	261	3	
2025-10-09T12:00	17450	84	-63.5	-86.5	247	3	
2025-10-09T12:00	17500	83	-62.8	-86.4	262	3	
2025-10-09T12:00	17550	83	-62.0	-86.1	289	3	
2025-10-09T12:00	17600	82	-62.0	-86.1	317	4	
2025-10-09T12:00	17650	81	-62.1	-86.2	334	5	
2025-10-09T12:00	17700	81	-61.7	-86.0	336	6	
2025-10-09T12:00	17750	80	-61.6	-85.9	333	6	
2025-10-09T12:00	17800	80	-61.7	-85.9	329	6	
2025-10-09T12:00	17850	79	-62.0	-85.9	326	6	
2025-10-09T12:00	17900	78	-62.2	-86.0	324	5	
2025-10-09T12:00	17950	78	-62.4	-86.1	323	4	
2025-10-09T12:00	18000	77	-62.5	-86.1	319	4	
2025-10-09T12:00	18050	76	-62.7	-86.1	310	3	
2025-10-09T12:00	18100	76	-62.9	-86.2	298	4	
2025-10-09T12:00	18150	75	-63.1	-86.3	291	4	
2025-10-09T12:00	18200	75	-63.0	-86.3	291	4	
2025-10-09T12:00	18250	74	-63.1	-86.4	292	4	
2025-10-09T12:00	18300	73	-63.3	-86.4	291	5	
2025-10-09T12:00	18350	73	-63.3	-86.5	293	6	
2025-10-09T12:00	18400	72	-63.3	-86.7	296	7	
2025-10-09T12:00	18450	72	-62.7	-86.5	298	8	
2025-10-09T12:00	18500	71	-62.4	-86.5	302	8	
2025-10-09T12:00	18550	70	-62.2	-86.5	309	8	
2025-10-09T12:00	18600	70	-61.9	-86.4	320	9	
2025-10-09T12:00	18650	69	-61.6	-86.3	330	9	
2025-10-09T12:00	18700	69	-61.7	-86.3	336	9	
2025-10-09T12:00	18750	68	-61.6	-86.3	340	8	
2025-10-09T12:00	18800	68	-61.4	-86.3	342	7	
2025-10-09T12:00	18850	67	-61.3	-86.1	341	6	
2025-10-09T12:00	18900	67	-61.5	-86.1	336	5	
2025-10-09T12:00	18950	66	-61.9	-86.2	333	6	
2025-10-09T12:00	19000	65	-62.0	-86.2	333	6	
2025-10-09T12:00	19050	65	-62.2	-86.4	334	6	
2025-10-09T12:00	19100	64	-62.3	-86.5	332	5	
2025-10-09T12:00	19150	64	-62.2	-86.4	330	4	
2025-10-09T12:00	19200	63	-62.6	-86.5	332	4	
2025-10-09T12:00	19250	63	-62.9	-86.5	339	3	
2025-10-09T12:00	19300	62	-63.1	-86.6	344	3	
2025-10-09T12:00	19350	62	-63.2	-86.8	344	3	
2025-10-09T12:00	19400	61	-63.2	-86.9	342	4	
2025-10-09T12:00	19450	61	-63.2	-86.9	340	5	
2025-10-09T12:00	19500	60	-63.2	-86.9	337	5	
2025-10-09T12:00	19550	60	-63.1	-87.0	334	5	
2025-10-09T12:00	19600	59	-62.9	-87.2	337	5	
2025-10-09T12:00	19650	59	-62.1	-86.9	343	5	
2025-10-09T12:00	19700	58	-61.8	-86.7	348	4	
2025-10-09T12:00	19750	58	-62.0	-86.7	348	3	
2025-10-09T12:00	19800	57	-62.3	-86.7	335	2	
2025-10-09T12:00	19850	57	-62.5	-86.6	299	2	
2025-10-09T12:00	19900	57	-62.9	-86.7	265	2	
2025-10-09T12:00	19950	56	-62.9	-86.7	256	3	
2025-10-09T12:00	20000	56	-63.1	-86.8	260	3	
2025-10-09T12:00	20050	55	-63.1		266	3	
2025-10-09T12:00	20100	55	-63.0		266	3	
2025-10-09T12:00	20150	54	-63.3		268	4	
2025-10-09T12:00	20200	54	-63.1		279	5	
2025-10-09T12:00	20250	53	-63.1		288	5	
2025-10-09T12:00	20300	53	-62.8		292	6	
2025-10-09T12:00	20350	53	-62.3		295	6	
2025-10-09T12:00	20400	52	-62.0		297	6	
2025-10-09T12:00	20450	52	-62.1		299	7	
2025-10-09T12:00	20500	51	-62.4		303	8	
2025-10-09T12:00	20550	51	-62.5		311	9	
2025-10-09T12:00	20600	50	-62.6		320	8	
2025-10-09T12:00	20650	50	-62.7		327	8	
2025-10-09T12:00	20700	50	-62.7		333	7	
2025-10-09T12:00	20750	49	-62.9		338	6	
2025-10-09T12:00	20800	49	-62.8		346	5	
2025-10-09T12:00	20850	48	-62.3		360	5	
2025-10-09T12:00	20900	48	-61.7		13	5	
2025-10-09T12:00	20950	48	-61.2		19	5	
2025-10-09T12:00	21000	47	-60.9		20	5	
2025-10-09T12:00	21050	47	-60.6		22	5	
2025-10-09T12:00	21100	47	-60.5		26	4	
2025-10-09T12:00	21150	46	-60.2		32	4	
2025-10-09T12:00	21200	46	-60.2		36	4	
2025-10-09T12:00	21250	45	-60.4		36	4	
2025-10-09T12:00	21300	45	-60.5		35	4	
2025-10-09T12:00	21350	45	-60.4		44	4	
2025-10-09T12:00	21400	44	-60.4		64	3	
2025-10-09T12:00	21450	44	-60.5		92	3	
2025-10-09T12:00	21500	44	-60.4		124	3	
2025-10-09T12:00	21550	43	-60.8		156	3	
2025-10-09T12:00	21600	43	-60.9		180	4	
2025-10-09T12:00	21650	43	-60.4		198	5	
2025-10-09T12:00	21700	42	-60.4		210	6	
2025-10-09T12:00	21750	42	-60.0		218	6	
2025-10-09T12:00	21800	42	-60.0		226	6	
2025-10-09T12:00	21850	41	-60.0		237	6	
2025-10-09T12:00	21900	41	-60.1		248	6	
2025-10-09T12:00	21950	41	-60.2		257	5	
2025-10-09T12:00	22000	40	-60.3		260	5	
2025-10-09T12:00	22050	40	-60.2		258	6	
2025-10-09T12:00	22100	40	-60.0		255	6	
2025-10-09T12:00	22150	39	-60.0		254	7	
2025-10-09T12:00	22200	39	-60.3		253	8	
2025-10-09T12:00	22250	39	-60.4		255	8	
2025-10-09T12:00	22300	38	-60.2		258	8	
2025-10-09T12:00	22350	38	-60.3		265	7	
2025-10-09T12:00	22400	38	-60.2		271	7	
2025-10-09T12:00	22450	37	-60.3		277	6	
2025-10-09T12:00	22500	37	-60.4		284	6	
2025-10-09T12:00	22550	37	-60.5		295	5	
2025-10-09T12:00	22600	37	-60.9		306	5	
2025-10-09T12:00	22650	36	-61.1		313	4	
2025-10-09T12:00	22700	36	-60.8		317	2	
2025-10-09T12:00	22750	36	-60.5		316	1	
2025-10-09T12:00	22800	35	-60.6		190	0	
2025-10-09T12:00	22850	35	-60.7		192	1	
2025-10-09T12:00	22900	35	-60.7		214	2	
2025-10-09T12:00	22950	35	-60.3		221	3	
2025-10-09T12:00	23000	34	-60.3		218	4	
2025-10-09T12:00	23050	34	-60.6		213	5	
2025-10-09T12:00	23100	34	-60.1		216	5	
2025-10-09T12:00	23150	34	-59.2		225	6	
2025-10-09T12:00	23200	33	-58.9		234	6	
2025-10-09T12:00	23250	33	-58.9		242	6	
2025-10-09T12:00	23300	33	-59.1		249	6	
2025-10-09T12:00	23350	32	-59.3		256	6	
2025-10-09T12:00	23400	32	-59.5		263	7	
2025-10-09T12:00	23450	32	-59.8		266	7	
2025-10-09T12:00	23500	32	-60.1		268	8	
2025-10-09T12:00	23550	31	-60.5		271	8	
2025-10-09T12:00	23600	31	-60.9		277	9	
2025-10-09T12:00	23650	31	-60.9		286	9	
2025-10-09T12:00	23700	31	-60.3		295	8	
2025-10-09T12:00	23750	30	-59.4		298	6	
2025-10-09T12:00	23800	30	-59.1		292	5	
2025-10-09T12:00	23850	30	-58.8		277	4	
2025-10-09T12:00	23900	30	-58.7		257	3	
2025-10-09T12:00	23950	29	-58.8		236	4	
2025-10-09T12:00	24000	29	-58.9		219	5	
2025-10-09T12:00	24050	29	-58.9		212	6	
2025-10-09T12:00	24100	29	-58.5		216	6	
2025-10-09T12:00	24150	29	-58.2		225	7	
2025-10-09T12:00	24200	28	-57.7		234	7	
2025-10-09T12:00	24250	28	-57.5		241	7	
2025-10-09T12:00	24300	28	-57.5		248	7	
2025-10-09T12:00	24350	28	-57.7		253	6	
2025-10-09T12:00	24400	27	-58.1		257	5	
2025-10-09T12:00	24450	27	-58.5		261	5	
2025-10-09T12:00	24500	27	-58.6		264	5	
2025-10-09T12:00	24550	27	-58.1		262	5	
2025-10-09T12:00	24600	27	-57.7		258	6	
2025-10-09T12:00	24650	26	-57.4		254	6	
2025-10-09T12:00	24700	26	-57.2		252	6	
2025-10-09T12:00	24750	26	-57.0		257	6	
2025-10-09T12:00	24800	26	-56.7		267	6	
2025-10-09T12:00	24850	26	-56.7		274	6	
2025-10-09T12:00	24900	25	-56.9		273	6	
2025-10-09T12:00	24950	25	-57.0		268	7	
2025-10-09T12:00	25000	25	-57.0		263	7	
2025-10-09T12:00	25050	25	-57.2		263	8	
2025-10-09T12:00	25100	25	-56.9		267	9	
2025-10-09T12:00	25150	24	-56.5		273	10	
2025-10-09T12:00	25200	24	-56.3		278	11	
2025-10-09T12:00	25250	24	-56.0		283	11	
2025-10-09T12:00	25300	24	-55.7		287	10	
2025-10-09T12:00	25350	24	-55.6		291	9	
2025-10-09T12:00	25400	23	-55.7		292	8	
2025-10-09T12:00	25450	23	-55.6		291	7	
2025-10-09T12:00	25500	23	-55.7		286	7	
2025-10-09T12:00	25550	23	-55.6		284	6	
2025-10-09T12:00	25600	23	-55.6		283	6	
2025-10-09T12:00	25650	23	-55.7		282	6	
2025-10-09T12:00	25700	22	-55.4		280	6	
2025-10-09T12:00	25750	22	-55.5		277	6	
2025-10-09T12:00	25800	22	-55.9		272	6	
2025-10-09T12:00	25850	22	-56.1		267	7	
2025-10-09T12:00	25900	22	-56.2		263	8	
2025-10-09T12:00	25950	21	-56.4		259	9	
2025-10-09T12:00	26000	21	-56.6		254	9	
2025-10-09T12:00	26050	21	-56.8		248	8	
2025-10-09T12:00	26100	21	-57.1		243	8	
2025-10-09T12:00	26150	21	-57.3		243	8	
2025-10-09T12:00	26200	21	-57.2		245	8	
2025-10-09T12:00	26250	20	-56.9		246	9	
2025-10-09T12:00	26300	20	-56.9		247	9	
2025-10-09T12:00	26350	20	-56.9		251	9	
2025-10-09T12:00	26400	20	-56.9		255	10	
2025-10-09T12:00	26450	20	-57.1		259	10	
2025-10-09T12:00	26500	20	-57.1		262	11	
2025-10-09T12:00	26550	20	-57.0		263	11	
2025-10-09T12:00	26600	19	-57.1		264	11	
2025-10-09T12:00	26650	19	-57.2		263	11	
2025-10-09T12:00	26700	19	-57.3		260	11	
2025-10-09T12:00	26750	19	-57.2		256	11	
2025-10-09T12:00	26800	19	-57.0		250	11	
2025-10-09T12:00	26850	19	-57.1		246	12	
2025-10-09T12:00	26900	18	-57.1		245	12	
2025-10-09T12:00	26950	18	-56.7		251	13	
2025-10-09T12:00	27000	18	-56.1		260	13	
2025-10-09T12:00	27050	18	-55.9		269	13	
2025-10-09T12:00	27100	18	-55.9		273	14	
2025-10-09T12:00	27150	18	-55.6		274	14	
2025-10-09T12:00	27200	18	-55.3		272	14	
2025-10-09T12:00	27250	18	-55.1		270	14	
2025-10-09T12:00	27300	17	-55.1		266	15	
2025-10-09T12:00	27350	17	-55.2		264	15	
2025-10-09T12:00	27400	17	-55.1		267	16	
2025-10-09T12:00	27450	17	-55.0		272	16	
2025-10-09T12:00	27500	17	-54.6		276	15	
2025-10-09T12:00	27550	17	-54.5		279	15	
2025-10-09T12:00	27600	17	-54.3		282	15	
2025-10-09T12:00	27650	16	-54.3		286	15	
2025-10-09T12:00	27700	16	-54.3		288	15	
2025-10-09T12:00	27750	16	-54.3		289	15	
2025-10-09T12:00	27800	16	-54.4		289	14	
2025-10-09T12:00	27850	16	-54.4		288	13	
2025-10-09T12:00	27900	16	-54.6		286	12	
2025-10-09T12:00	27950	16	-54.8		285	11	
2025-10-09T12:00	28000	16	-55.0		284	11	
2025-10-09T12:00	28050	15	-55.2		282	11	
2025-10-09T12:00	28100	15	-55.4		280	11	
2025-10-09T12:00	28150	15	-55.7		277	11	
2025-10-09T12:00	28200	15	-55.8		276	11	
2025-10-09T12:00	28250	15	-55.5		276	10	
2025-10-09T12:00	28300	15	-55.4		274	10	
2025-10-09T12:00	28350	15	-55.3		271	10	
2025-10-09T12:00	28400	15	-55.2		267	10	
2025-10-09T12:00	28450	15	-55.2		265	11	
2025-10-09T12:00	28500	14	-55.4		264	11	
2025-10-09T12:00	28550	14	-55.4		262	12	
2025-10-09T12:00	28600	14	-55.4		260	13	
2025-10-09T12:00	28650	14	-55.2		259	13	
2025-10-09T12:00	28700	14	-55.4		258	13	
2025-10-09T12:00	28750	14	-55.2		257	14	
2025-10-09T12:00	28800	14	-54.9		257	13	
2025-10-09T12:00	28850	14	-54.5		257	13	
2025-10-09T12:00	28900	14	-54.4		256	12	
2025-10-09T12:00	28950	13	-54.5		255	12	
2025-10-09T12:00	29000	13	-54.3		254	13	
2025-10-09T12:00	29050	13	-53.8		253	13	
2025-10-09T12:00	29100	13	-53.4		251	14	
2025-10-09T12:00	29150	13	-53.1		250	16	
2025-10-09T12:00	29200	13	-53.0		248	17	
2025-10-09T12:00	29250	13	-53.0		246	19	
2025-10-09T12:00	29300	13	-52.9		244	20	
2025-10-09T12:00	29350	13	-52.7		244	21	
2025-10-09T12:00	29400	13	-52.6		246	21	
2025-10-09T12:00	29450	12	-52.4		250	21	
2025-10-09T12:00	29500	12	-52.2		255	20	
2025-10-09T12:00	29550	12	-52.1		259	20	
2025-10-09T12:00	29600	12	-52.0		260	21	
2025-10-09T12:00	29650	12	-52.0		261	22	
2025-10-09T12:00	29700	12	-52.0		261	22	
2025-10-09T12:00	29750	12	-52.1		263	22	
2025-10-09T12:00	29800	12	-52.1		265	21	
2025-10-09T12:00	29850	12	-52.1		266	20	
2025-10-09T12:00	29900	12	-52.3		267	18	
2025-10-09T12:00	29950	11	-52.5		269	17	
2025-10-09T12:00	30000	11	-52.8		271	16	
2025-10-09T12:00	30050	11	-53.2		276	16	
2025-10-09T12:00	30100	11	-53.4		281	15	
2025-10-09T12:00	30150	11	-53.7		286	15	
2025-10-09T12:00	30200	11	-53.9		291	15	
2025-10-09T12:00	30250	11	-54.1		294	14	
2025-10-09T12:00	30300	11	-54.2		293	13	
2025-10-09T12:00	30350	11	-53.9		287	12	
2025-10-09T12:00	30400	11	-53.4		278	12	
2025-10-09T12:00	30450	11	-53.0		270	12	
2025-10-09T12:00	30500	11	-52.9		263	12	
2025-10-09T12:00	30550	10	-53.1		258	13	
2025-10-09T12:00	30600	10	-53.0		254	15	
2025-10-09T12:00	30650	10	-52.9		251	17	
2025-10-09T12:00	30700	10	-52.9		250	18	
2025-10-09T12:00	30750	10	-52.7		249	20	
2025-10-09T12:00	30800	10	-52.5		251	20	
2025-10-09T12:00	30850	10	-52.4		254	20	
2025-10-09T12:00	30900	10	-52.5		259	19	
2025-10-09T12:00	30950	10	-52.7		265	18	
2025-10-09T12:00	31000	10	-52.6		270	18	
2025-10-09T12:00	31050	10	-52.4		274	18	
2025-10-09T12:00	31100	10	-52.5		277	18	
2025-10-09T12:00	31150	10	-52.9		279	18	
2025-10-09T12:00	31200	9	-53.0		280	18	
2025-10-09T12:00	31250	9	-53.1		279	18	
2025-10-09T12:00	31300	9	-53.1		276	18	
2025-10-09T12:00	31350	9	-53.3		272	18	
2025-10-09T12:00	31400	9	-53.6		269	19	
2025-10-09T12:00	31450	9	-53.7		266	21	
2025-10-09T12:00	31500	9	-53.6		264	22	
2025-10-09T12:00	31550	9	-53.2		263	24	
2025-10-09T12:00	31600	9	-53.0		262	26	
2025-10-09T12:00	31650	9	-52.9		262	27	
2025-10-09T12:00	31700	9	-52.3		263	27	
2025-10-09T12:00	31750	9	-51.9		265	26	
2025-10-09T12:00	31800	9	-51.8		266	26	
2025-10-09T12:00	31850	9	-51.5		269	25	
2025-10-09T12:00	31900	8	-51.1		271	25	
2025-10-09T12:00	31950	8	-50.3		274	26	
2025-10-09T12:00	32000	8	-50.1		276	26	
2025-10-09T12:00	32050	8	-50.0		276	26	
2025-10-09T12:00	32100	8	-50.0		277	26	
2025-10-09T12:00	32150	8	-50.0		276	27	
2025-10-09T12:00	32200	8	-50.1		276	28	
2025-10-09T12:00	32250	8	-50.2		274	28	
2025-10-09T12:00	32300	8	-50.1		272	28	
2025-10-09T12:00	32350	8	-49.8		272	27	
2025-10-09T12:00	32400	8	-49.4		273	26	
2025-10-09T12:00	32450	8	-49.0		274	26	
2025-10-09T12:00	32500	8	-48.7		276	26	
2025-10-09T12:00	32550	8	-48.4		277	26	
2025-10-09T12:00	32600	8	-47.7		277	26	
2025-10-09T12:00	32650	8	-47.0		278	26	
2025-10-09T12:00	32700	8	-46.6		279	25	
2025-10-09T12:00	32750	7	-46.4		280	23	
2025-10-09T12:00	32800	7	-46.3		280	22	
2025-10-09T12:00	32850	7	-46.3		278	21	
2025-10-09T12:00	32900	7	-46.1		273	21	
2025-10-09T12:00	32950	7	-45.8		268	21	
2025-10-09T12:00	33000	7	-45.5		265	21	
2025-10-09T12:00	33050	7	-45.2		263	22	
2025-10-09T12:00	33100	7	-44.8		264	23	
2025-10-09T12:00	33150	7	-44.4		265	24	
2025-10-09T12:00	33200	7	-44.2		266	25	
2025-10-09T12:00	33250	7	-44.0		267	26	
2025-10-09T12:00	33300	7	-43.9		267	27	
2025-10-09T12:00	33350	7	-43.8		268	27	
2025-10-09T12:00	33400	7	-43.8		270	27	
2025-10-09T12:00	33450	7	-43.7		272	27	
2025-10-09T12:00	33500	7	-43.6		273	27	
2025-10-09T12:00	33550	7	-43.3		274	27	
2025-10-09T12:00	33600	7	-43.1		275	28	
2025-10-09T12:00	33650	7	-43.1		276	28	
2025-10-09T12:00	33700	6	-43.2		276	28	
2025-10-09T12:00	33750	6	-43.1		276	27	
2025-10-09T12:00	33800	6	-42.9		275	26	
2025-10-09T12:00	33850	6	-42.8		275	25	
2025-10-09T12:00	33900	6	-42.5		275	25	
2025-10-09T12:00	33950	6	-42.2		274	26	
2025-10-09T12:00	34000	6	-42.1		273	26	
2025-10-09T12:00	34050	6	-41.8		272	26	
2025-10-09T12:00	34100	6	-41.6		271	26	
2025-10-09T12:00	34150	6	-41.8		270	25	
2025-10-09T12:00	34200	6	-42.0		268	24	
2025-10-09T12:00	34250	6	-42.0		266	23	
2025-10-09T12:00	34300	6	-41.8		265	22	
2025-10-09T12:00	34350	6	-41.7		263	22	
2025-10-09T12:00	34400	6	-41.5		262	22	
2025-10-09T12:00	34450	6	-41.2		263	22	
2025-10-09T12:00	34500	6	-41.1		264	22	
2025-10-09T12:00	34550	6	-41.0		266	23	
2025-10-09T12:00	34600	6	-40.8		269	25	
2025-10-09T12:00	34650	6	-40.7		272	26	
2025-10-09T12:00	34700	6	-40.4		274	27	
2025-10-09T12:00	34750	6	-40.3		274	28	
2025-10-09T12:00	34800	6	-40.2		274	27	
2025-10-09T12:00	34850	5	-40.1		272	26	
2025-10-09T12:00	34900	5	-40.1		270	26	
2025-10-09T12:00	34950	5	-40.0		267	25	
2025-10-09T12:00	35000	5	-39.7		265	25	
2025-10-09T12:00	35050	5	-39.6		264	26	
2025-10-09T12:00	35100	5	-39.3		266	27	
2025-10-09T12:00	35150	5	-38.9		268	27	
2025-10-09T12:00	35200	5	-38.7		269	27	
2025-10-09T12:00	35250	5	-38.4		270	27	
2025-10-09T12:00	35300	5	-38.1		270	26	
2025-10-09T12:00	35350	5	-38.0		270	26	
2025-10-09T12:00	35400	5	-38.0		269	25	
2025-10-09T12:00	35450	5	-38.1		266	24	
2025-10-09T12:00	35500	5	-38.0		263	24	
2025-10-09T12:00	35550	5	-37.9		262	24	
2025-10-09T12:00	35600	5	-37.8		263	23	
2025-10-09T12:00	35650	5	-37.5		264	24	
2025-10-09T12:00	35700	5	-37.3		266	25	
2025-10-09T12:00	35750	5	-37.1		266	26	
2025-10-09T12:00	35800	5	-36.8		265	27	
2025-10-09T12:00	35850	5	-36.4		264	28	
2025-10-09T12:00	35900	5	-36.4		263	28	
2025-10-09T12:00	35950	5	-36.6		263	28	
2025-10-09T12:00	36000	5	-37.0		263	26	
2025-10-09T12:00	36050	5	-37.3		264	25	
2025-10-09T12:00	36100	5	-37.3		264	24	
2025-10-10T00:00	491	969	12.9	11.0	4	3	
2025-10-10T00:00	501	967	12.9	11.1	15	3	
2025-10-10T00:00	520	965	12.8	11.1	23	3	
2025-10-10T00:00	540	963	12.7	10.8	25	4	
2025-10-10T00:00	560	961	12.5	10.6	27	5	
2025-10-10T00:00	580	958	12.5	10.3	28	6	
2025-10-10T00:00	600	956	12.7	10.2	30	6	
2025-10-10T00:00	620	954	12.6	10.1	31	7	
2025-10-10T00:00	640	952	12.4	10.1	32	7	
2025-10-10T00:00	660	949	12.2	10.1	34	7	
2025-10-10T00:00	680	947	12.0	10.1	36	8	
2025-10-10T00:00	700	945	11.8	10.1	38	8	
2025-10-10T00:00	720	942	11.6	10.0	41	8	
2025-10-10T00:00	740	940	11.5	10.0	43	9	
2025-10-10T00:00	760	938	11.3	9.9	46	9	
2025-10-10T00:00	780	936	11.1	9.9	48	10	
2025-10-10T00:00	800	934	11.0	9.9	51	10	
2025-10-10T00:00	820	931	10.9	9.8	53	10	
2025-10-10T00:00	840	929	10.8	9.6	56	10	
2025-10-10T00:00	860	927	10.7	9.5	59	10	
2025-10-10T00:00	880	925	10.6	9.4	62	10	
2025-10-10T00:00	900	922	10.4	9.4	64	10	
2025-10-10T00:00	920	920	10.2	9.3	66	10	
2025-10-10T00:00	940	918	10.0	9.3	67	10	
2025-10-10T00:00	960	916	9.8	9.2	67	10	
2025-10-10T00:00	980	914	9.7	9.1	67	10	
2025-10-10T00:00	1000	912	9.5	9.2	67	10	
2025-10-10T00:00	1020	909	9.3	9.0	67	10	
2025-10-10T00:00	1040	907	9.2	9.0	67	10	
2025-10-10T00:00	1060	905	9.1	8.9	66	10	
2025-10-10T00:00	1080	903	9.0	8.7	67	9	
2025-10-10T00:00	1100	901	9.0	8.7	68	9	
2025-10-10T00:00	1120	899	9.0	8.6	69	9	
2025-10-10T00:00	1140	896	9.0	8.4	71	9	
2025-10-10T00:00	1160	894	9.0	8.4	74	9	
2025-10-10T00:00	1180	892	8.9	8.3	77	9	
2025-10-10T00:00	1200	890	8.9	8.3	79	9	
2025-10-10T00:00	1220	888	8.7	8.2	81	9	
2025-10-10T00:00	1240	886	8.8	8.0	82	9	
2025-10-10T00:00	1260	883	8.7	8.0	82	9	
2025-10-10T00:00	1280	881	8.5	7.9	82	9	
2025-10-10T00:00	1300	879	8.4	7.8	80	9	
2025-10-10T00:00	1320	877	8.4	7.7	78	9	
2025-10-10T00:00	1340	875	8.2	7.8	75	9	
2025-10-10T00:00	1360	873	8.0	7.5	72	10	
2025-10-10T00:00	1380	870	8.1	7.2	70	10	
2025-10-10T00:00	1400	868	8.0	7.1	68	10	
2025-10-10T00:00	1420	866	7.8	7.1	68	10	
2025-10-10T00:00	1440	864	7.6	7.1	67	10	
2025-10-10T00:00	1460	862	7.4	6.9	68	10	
2025-10-10T00:00	1480	860	7.5	6.5	68	10	
2025-10-10T00:00	1500	858	7.5	6.1	69	10	
2025-10-10T00:00	1520	856	7.4	5.7	69	10	
2025-10-10T00:00	1540	854	7.4	5.4	69	10	
2025-10-10T00:00	1560	852	7.3	5.3	69	9	
2025-10-10T00:00	1580	850	7.1	5.3	69	9	
2025-10-10T00:00	1600	848	7.0	5.4	69	9	
2025-10-10T00:00	1620	846	7.0	5.4	69	9	
2025-10-10T00:00	1640	844	6.9	5.2	69	8	
2025-10-10T00:00	1660	842	6.8	4.8	70	8	
2025-10-10T00:00	1680	839	6.7	4.4	70	8	
2025-10-10T00:00	1700	837	6.6	4.4	72	8	
2025-10-10T00:00	1720	835	6.4	4.4	74	8	
2025-10-10T00:00	1740	833	6.2	4.2	77	8	
2025-10-10T00:00	1760	831	6.1	4.1	81	8	
2025-10-10T00:00	1780	829	6.0	4.1	85	8	
2025-10-10T00:00	1800	827	6.0	3.9	88	8	
2025-10-10T00:00	1820	825	5.8	3.9	89	8	
2025-10-10T00:00	1840	823	5.6	3.9	86	7	
2025-10-10T00:00	1860	821	5.5	3.9	82	7	
2025-10-10T00:00	1880	819	5.6	3.6	76	6	
2025-10-10T00:00	1900	817	6.1	1.6	67	6	
2025-10-10T00:00	1920	815	6.8	-1.2	57	6	
2025-10-10T00:00	1940	813	7.7	-4.0	49	6	
2025-10-10T00:00	1960	811	8.6	-6.4	42	6	
2025-10-10T00:00	1980	809	8.8	-6.5	38	6	
2025-10-10T00:00	2000	807	8.8	-6.4	37	7	
2025-10-10T00:00	2020	805	8.7	-6.3	38	7	
2025-10-10T00:00	2040	803	8.6	-5.6	40	7	
2025-10-10T00:00	2060	802	8.4	-3.3	43	7	
2025-10-10T00:00	2080	800	8.1	-1.3	47	7	
2025-10-10T00:00	2100	798	8.1	-2.7	52	7	
2025-10-10T00:00	2120	796	8.2	-4.3	55	7	
2025-10-10T00:00	2140	794	8.1	-3.5	57	7	
2025-10-10T00:00	2160	792	7.9	-3.2	59	7	
2025-10-10T00:00	2180	790	7.8	-3.2	61	7	
2025-10-10T00:00	2200	788	7.6	-3.1	62	7	
2025-10-10T00:00	2220	786	7.5	-4.5	63	8	
2025-10-10T00:00	2240	784	7.4	-7.3	63	8	
2025-10-10T00:00	2260	782	7.6	-12.9	63	8	
2025-10-10T00:00	2280	781	7.9	-24.1	63	8	
2025-10-10T00:00	2300	779	8.0	-33.8	62	8	
2025-10-10T00:00	2320	777	7.9	-34.5	61	8	
2025-10-10T00:00	2340	775	7.8	-35.4	61	8	
2025-10-10T00:00	2360	773	7.8	-35.7	60	8	
2025-10-10T00:00	2380	771	7.7	-35.8	59	8	
2025-10-10T00:00	2400	769	7.6	-35.3	59	8	
2025-10-10T00:00	2420	767	7.5	-35.3	58	8	
2025-10-10T00:00	2440	765	7.4	-34.4	58	8	
2025-10-10T00:00	2460	764	7.3	-31.8	57	8	
2025-10-10T00:00	2480	762	7.2	-27.9	57	8	
2025-10-10T00:00	2500	760	7.0	-24.4	57	8	
2025-10-10T00:00	2520	758	6.8	-17.7	58	8	
2025-10-10T00:00	2540	756	6.6	-16.4	58	8	
2025-10-10T00:00	2560	754	6.4	-13.7	59	9	
2025-10-10T00:00	2580	753	6.2	-12.5	60	9	
2025-10-10T00:00	2600	751	5.9	-10.9	61	9	
2025-10-10T00:00	2620	749	5.7	-9.8	62	9	
2025-10-10T00:00	2640	747	5.6	-9.5	62	9	
2025-10-10T00:00	2660	745	5.4	-9.4	63	9	
2025-10-10T00:00	2680	743	5.2	-9.5	62	8	
2025-10-10T00:00	2700	741	5.1	-10.1	62	8	
2025-10-10T00:00	2720	740	5.0	-11.1	61	8	
2025-10-10T00:00	2740	738	4.9	-11.4	61	8	
2025-10-10T00:00	2760	736	4.8	-11.8	61	8	
2025-10-10T00:00	2780	734	4.6	-12.3	62	8	
2025-10-10T00:00	2800	732	4.5	-12.9	62	8	
2025-10-10T00:00	2820	731	4.3	-13.3	63	8	
2025-10-10T00:00	2840	729	4.2	-13.9	63	8	
2025-10-10T00:00	2860	727	4.0	-14.6	63	8	
2025-10-10T00:00	2880	725	3.9	-14.6	62	8	
2025-10-10T00:00	2900	724	3.7	-15.0	60	8	
2025-10-10T00:00	2920	722	3.6	-15.6	58	8	
2025-10-10T00:00	2940	720	3.5	-16.9	57	9	
2025-10-10T00:00	2960	718	3.4	-18.5	57	9	
2025-10-10T00:00	2980	716	3.4	-18.8	58	9	
2025-10-10T00:00	3000	715	3.3	-16.2	58	9	
2025-10-10T00:00	3020	713	3.1	-13.8	59	9	
2025-10-10T00:00	3040	711	2.9	-15.0	60	8	
2025-10-10T00:00	3060	709	2.8	-14.7	60	8	
2025-10-10T00:00	3080	708	2.6	-13.6	60	8	
2025-10-10T00:00	3100	706	2.5	-12.1	59	7	
2025-10-10T00:00	3120	704	2.5	-11.9	59	7	
2025-10-10T00:00	3140	703	2.4	-12.1	59	7	
2025-10-10T00:00	3160	701	2.5	-12.7	60	7	
2025-10-10T00:00	3180	699	2.5	-12.9	60	6	
2025-10-10T00:00	3200	697	2.4	-13.0	58	7	
2025-10-10T00:00	3220	695	2.3	-13.2	56	7	
2025-10-10T00:00	3240	694	2.2	-13.2	53	7	
2025-10-10T00:00	3260	692	2.1	-12.9	52	7	
2025-10-10T00:00	3280	690	2.0	-12.5	51	8	
2025-10-10T00:00	3300	689	1.8	-12.6	52	8	
2025-10-10T00:00	3320	687	1.6	-12.6	53	8	
2025-10-10T00:00	3340	685	1.4	-12.5	56	8	
2025-10-10T00:00	3360	684	1.3	-12.3	59	7	
2025-10-10T00:00	3380	682	1.1	-12.5	61	7	
2025-10-10T00:00	3400	680	0.9	-12.5	62	7	
2025-10-10T00:00	3420	679	0.7	-12.8	61	6	
2025-10-10T00:00	3440	677	0.6	-13.1	58	6	
2025-10-10T00:00	3460	675	0.6	-13.1	53	7	
2025-10-10T00:00	3480	673	0.6	-13.3	49	7	
2025-10-10T00:00	3500	672	0.4	-13.4	46	7	
2025-10-10T00:00	3520	670	0.3	-13.6	44	8	
2025-10-10T00:00	3540	668	0.2	-13.9	44	8	
2025-10-10T00:00	3560	667	0.1	-14.1	45	9	
2025-10-10T00:00	3580	665	0.0	-14.4	47	9	
2025-10-10T00:00	3600	663	-0.2	-15.0	48	9	
2025-10-10T00:00	3620	662	-0.3	-15.4	49	10	
2025-10-10T00:00	3640	660	-0.5	-15.5	50	10	
2025-10-10T00:00	3660	658	-0.7	-15.4	51	10	
2025-10-10T00:00	3680	657	-0.9	-15.4	50	9	
2025-10-10T00:00	3700	655	-1.0	-15.5	48	9	
2025-10-10T00:00	3720	653	-1.1	-16.5	46	9	
2025-10-10T00:00	3740	652	-1.1	-18.1	43	9	
2025-10-10T00:00	3760	650	-1.1	-19.0	40	9	
2025-10-10T00:00	3780	649	-1.1	-19.9	37	9	
2025-10-10T00:00	3800	647	-1.1	-19.9	36	10	
2025-10-10T00:00	3820	645	-1.3	-19.8	38	10	
2025-10-10T00:00	3840	644	-1.4	-20.2	41	10	
2025-10-10T00:00	3860	642	-1.5	-20.2	43	11	
2025-10-10T00:00	3880	640	-1.7	-20.2	45	11	
2025-10-10T00:00	3900	639	-1.8	-20.5	47	11	
2025-10-10T00:00	3920	637	-2.0	-20.7	48	11	
2025-10-10T00:00	3940	636	-2.1	-21.4	48	11	
2025-10-10T00:00	3960	634	-2.2	-22.0	48	11	
2025-10-10T00:00	3980	632	-2.4	-20.7	47	11	
2025-10-10T00:00	4000	631	-2.5	-19.9	47	10	
2025-10-10T00:00	4020	629	-2.7	-18.9	46	10	
2025-10-10T00:00	4040	628	-2.9	-19.2	46	10	
2025-10-10T00:00	4060	626	-3.0	-19.6	45	9	
2025-10-10T00:00	4080	625	-3.2	-19.6	44	9	
2025-10-10T00:00	4100	623	-3.3	-19.9	42	9	
2025-10-10T00:00	4120	621	-3.5	-20.2	41	9	
2025-10-10T00:00	4140	620	-3.6	-20.9	40	10	
2025-10-10T00:00	4160	618	-3.6	-21.7	41	10	
2025-10-10T00:00	4180	617	-3.7	-22.7	42	10	
2025-10-10T00:00	4200	615	-3.8	-24.0	43	10	
2025-10-10T00:00	4220	613	-3.8	-25.5	44	10	
2025-10-10T00:00	4240	612	-3.9	-26.4	46	11	
2025-10-10T00:00	4260	611	-4.0	-27.1	47	11	
2025-10-10T00:00	4280	609	-4.1	-28.6	48	11	
2025-10-10T00:00	4300	607	-4.2	-29.7	48	11	
2025-10-10T00:00	4320	606	-4.2	-30.3	48	11	
2025-10-10T00:00	4340	604	-4.3	-31.5	48	11	
2025-10-10T00:00	4360	603	-4.3	-32.8	48	12	
2025-10-10T00:00	4380	601	-4.4	-33.4	48	12	
2025-10-10T00:00	4400	600	-4.6	-34.0	48	12	
2025-10-10T00:00	4420	598	-4.6	-34.3	48	12	
2025-10-10T00:00	4440	597	-4.7	-31.3	49	12	
2025-10-10T00:00	4460	595	-4.8	-28.6	49	13	
2025-10-10T00:00	4480	594	-5.0	-27.4	49	13	
2025-10-10T00:00	4500	592	-5.1	-26.1	49	13	
2025-10-10T00:00	4520	591	-5.2	-25.3	49	14	
2025-10-10T00:00	4540	589	-5.3	-25.3	49	14	
2025-10-10T00:00	4560	588	-5.6	-25.2	49	14	
2025-10-10T00:00	4580	586	-5.8	-25.1	48	14	
2025-10-10T00:00	4600	585	-6.0	-25.1	48	14	
2025-10-10T00:00	4620	583	-6.1	-24.7	48	14	
2025-10-10T00:00	4640	582	-6.3	-24.3	48	14	
2025-10-10T00:00	4660	580	-6.5	-24.2	49	13	
2025-10-10T00:00	4680	579	-6.6	-24.2	49	13	
2025-10-10T00:00	4700	577	-6.7	-24.2	49	13	
2025-10-10T00:00	4720	576	-6.8	-24.1	49	14	
2025-10-10T00:00	4740	574	-7.0	-24.3	49	14	
2025-10-10T00:00	4760	573	-7.2	-24.4	48	14	
2025-10-10T00:00	4780	571	-7.3	-24.5	47	15	
2025-10-10T00:00	4800	570	-7.5	-24.5	47	15	
2025-10-10T00:00	4820	568	-7.7	-24.5	46	15	
2025-10-10T00:00	4840	567	-7.8	-24.8	46	15	
2025-10-10T00:00	4860	565	-7.9	-25.2	46	14	
2025-10-10T00:00	4880	564	-8.0	-25.6	45	14	
2025-10-10T00:00	4900	562	-8.2	-25.7	45	14	
2025-10-10T00:00	4920	561	-8.3	-25.5	45	13	
2025-10-10T00:00	4940	560	-8.5	-24.7	45	13	
2025-10-10T00:00	4960	558	-8.7	-24.3	45	13	
2025-10-10T00:00	4980	557	-8.8	-24.7	46	13	
2025-10-10T00:00	5000	555	-9.0	-25.4	47	13	
2025-10-10T00:00	5020	554	-9.2	-25.5	48	13	
2025-10-10T00:00	5040	553	-9.3	-25.4	48	13	
2025-10-10T00:00	5060	551	-9.5	-24.5	50	14	
2025-10-10T00:00	5080	550	-9.7	-23.5	52	14	
2025-10-10T00:00	5100	548	-9.9	-23.2	54	14	
2025-10-10T00:00	5120	547	-10.0	-23.0	55	14	
2025-10-10T00:00	5140	545	-10.2	-22.8	56	14	
2025-10-10T00:00	5160	544	-10.4	-22.6	57	14	
2025-10-10T00:00	5180	542	-10.5	-22.9	57	14	
2025-10-10T00:00	5200	541	-10.7	-23.2	57	14	
2025-10-10T00:00	5220	539	-10.9	-23.0	55	14	
2025-10-10T00:00	5240	538	-11.1	-22.9	54	14	
2025-10-10T00:00	5260	537	-11.2	-22.9	51	14	
2025-10-10T00:00	5280	535	-11.4	-22.9	50	14	
2025-10-10T00:00	5300	534	-11.6	-22.8	48	14	
2025-10-10T00:00	5320	533	-11.8	-22.9	48	14	
2025-10-10T00:00	5340	531	-12.0	-23.0	47	14	
2025-10-10T00:00	5360	530	-12.1	-23.1	47	14	
2025-10-10T00:00	5380	529	-12.3	-23.2	47	14	
2025-10-10T00:00	5400	527	-12.4	-23.6	47	14	
2025-10-10T00:00	5420	526	-12.6	-24.3	47	14	
2025-10-10T00:00	5440	524	-12.7	-24.6	47	14	
2025-10-10T00:00	5460	523	-12.9	-24.6	46	13	
2025-10-10T00:00	5480	521	-13.1	-24.6	46	13	
2025-10-10T00:00	5500	520	-13.2	-24.5	45	13	
2025-10-10T00:00	5520	519	-13.3	-24.7	44	13	
2025-10-10T00:00	5540	518	-13.4	-25.0	43	12	
2025-10-10T00:00	5560	516	-13.6	-25.3	42	12	
2025-10-10T00:00	5580	515	-13.7	-25.4	41	12	
2025-10-10T00:00	5600	513	-13.9	-25.7	41	12	
2025-10-10T00:00	5620	512	-14.0	-25.9	40	12	
2025-10-10T00:00	5640	511	-14.2	-25.9	40	12	
2025-10-10T00:00	5660	510	-14.3	-26.0	40	12	
2025-10-10T00:00	5680	508	-14.5	-26.3	39	12	
2025-10-10T00:00	5700	507	-14.6	-26.7	38	12	
2025-10-10T00:00	5720	505	-14.6	-27.4	38	12	
2025-10-10T00:00	5740	504	-14.8	-27.4	37	12	
2025-10-10T00:00	5760	503	-14.9	-27.5	38	12	
2025-10-10T00:00	5780	501	-15.0	-27.9	38	12	
2025-10-10T00:00	5800	500	-15.2	-27.8	39	12	
2025-10-10T00:00	5820	499	-15.3	-28.3	40	11	
2025-10-10T00:00	5840	497	-15.5	-28.7	42	11	
2025-10-10T00:00	5860	496	-15.7	-29.0	44	11	
2025-10-10T00:00	5880	495	-15.8	-29.4	46	11	
2025-10-10T00:00	5900	493	-16.0	-29.8	47	12	
2025-10-10T00:00	5920	492	-16.1	-30.0	48	12	
2025-10-10T00:00	5940	491	-16.3	-30.1	48	12	
2025-10-10T00:00	5960	490	-16.5	-30.5	48	12	
2025-10-10T00:00	5980	488	-16.7	-30.8	47	13	
2025-10-10T00:00	6000	487	-16.9	-30.8	46	13	
2025-10-10T00:00	6020	486	-17.0	-30.9	45	12	
2025-10-10T00:00	6040	484	-17.2	-30.9	43	12	
2025-10-10T00:00	6060	483	-17.4	-30.3	41	12	
2025-10-10T00:00	6080	482	-17.5	-30.5	39	12	
2025-10-10T00:00	6100	481	-17.6	-31.9	38	12	
2025-10-10T00:00	6120	479	-17.7	-32.8	37	12	
2025-10-10T00:00	6140	478	-17.8	-32.9	37	12	
2025-10-10T00:00	6160	477	-18.0	-32.2	37	11	
2025-10-10T00:00	6180	475	-18.2	-31.4	37	11	
2025-10-10T00:00	6200	474	-18.3	-31.9	38	11	
2025-10-10T00:00	6220	473	-18.5	-32.9	40	11	
2025-10-10T00:00	6240	472	-18.7	-32.6	42	11	
2025-10-10T00:00	6260	470	-18.8	-32.4	43	11	
2025-10-10T00:00	6280	469	-19.0	-32.5	44	11	
2025-10-10T00:00	6300	468	-19.2	-32.9	45	10	
2025-10-10T00:00	6320	467	-19.3	-33.7	45	10	
2025-10-10T00:00	6340	465	-19.4	-34.5	43	10	
2025-10-10T00:00	6360	464	-19.5	-34.1	42	10	
2025-10-10T00:00	6380	463	-19.7	-34.1	40	11	
2025-10-10T00:00	6400	462	-19.9	-34.5	39	11	
2025-10-10T00:00	6420	460	-20.0	-34.5	37	12	
2025-10-10T00:00	6440	459	-20.2	-34.8	37	12	
2025-10-10T00:00	6460	458	-20.3	-35.2	37	13	
2025-10-10T00:00	6480	457	-20.4	-35.4	37	13	
2025-10-10T00:00	6500	455	-20.6	-35.4	39	14	
2025-10-10T00:00	6520	454	-20.8	-35.6	41	14	
2025-10-10T00:00	6540	453	-20.9	-35.9	42	15	
2025-10-10T00:00	6560	452	-21.1	-36.0	43	15	
2025-10-10T00:00	6580	450	-21.3	-36.3	44	15	
2025-10-10T00:00	6600	449	-21.4	-36.7	45	15	
2025-10-10T00:00	6620	448	-21.5	-37.4	44	15	
2025-10-10T00:00	6640	447	-21.7	-37.7	44	15	
2025-10-10T00:00	6660	446	-21.9	-38.6	43	15	
2025-10-10T00:00	6680	444	-22.0	-38.9	43	15	
2025-10-10T00:00	6700	443	-22.2	-39.0	43	15	
2025-10-10T00:00	6720	442	-22.4	-39.4	43	16	
2025-10-10T00:00	6740	441	-22.5	-40.7	44	16	
2025-10-10T00:00	6760	440	-22.7	-40.9	45	16	
2025-10-10T00:00	6780	438	-22.8	-40.9	45	17	
2025-10-10T00:00	6800	437	-23.0	-40.9	46	17	
2025-10-10T00:00	6820	436	-23.1	-40.8	46	17	
2025-10-10T00:00	6840	435	-23.3	-40.8	46	17	
2025-10-10T00:00	6860	434	-23.5	-40.8	46	17	
2025-10-10T00:00	6880	432	-23.7	-40.7	46	16	
2025-10-10T00:00	6900	431	-23.8	-40.8	46	16	
2025-10-10T00:00	6920	430	-24.0	-40.8	46	16	
2025-10-10T00:00	6940	429	-24.1	-40.7	46	16	
2025-10-10T00:00	6960	428	-24.3	-40.6	46	16	
2025-10-10T00:00	6980	426	-24.5	-40.4	46	16	
2025-10-10T00:00	7000	425	-24.6	-40.4	46	15	
2025-10-10T00:00	7020	424	-24.8	-40.2	46	15	
2025-10-10T00:00	7040	423	-25.0	-40.1	46	15	
2025-10-10T00:00	7060	422	-25.2	-40.2	45	15	
2025-10-10T00:00	7080	421	-25.4	-40.3	45	15	
2025-10-10T00:00	7100	420	-25.6	-40.3	44	14	
2025-10-10T00:00	7120	418	-25.8	-40.2	44	14	
2025-10-10T00:00	7140	417	-26.0	-40.3	43	14	
2025-10-10T00:00	7160	416	-26.1	-40.3	43	14	
2025-10-10T00:00	7180	415	-26.3	-40.4	43	13	
2025-10-10T00:00	7200	414	-26.4	-40.5	42	13	
2025-10-10T00:00	7220	413	-26.6	-40.6	42	13	
2025-10-10T00:00	7240	411	-26.8	-40.6	42	13	
2025-10-10T00:00	7260	410	-27.0	-40.6	42	13	
2025-10-10T00:00	7280	409	-27.1	-40.7	42	13	
2025-10-10T00:00	7300	408	-27.3	-40.9	42	13	
2025-10-10T00:00	7320	407	-27.5	-41.0	43	14	
2025-10-10T00:00	7340	406	-27.7	-41.0	43	14	
2025-10-10T00:00	7360	405	-27.9	-40.9	44	13	
2025-10-10T00:00	7380	404	-28.0	-40.9	44	13	
2025-10-10T00:00	7400	402	-28.2	-41.0	44	13	
2025-10-10T00:00	7420	401	-28.4	-41.0	44	13	
2025-10-10T00:00	7440	400	-28.5	-41.1	44	13	
2025-10-10T00:00	7460	399	-28.7	-41.2	43	12	
2025-10-10T00:00	7480	398	-28.8	-41.3	42	12	
2025-10-10T00:00	7500	397	-29.0	-41.7	40	12	
2025-10-10T00:00	7520	396	-29.1	-41.9	38	12	
2025-10-10T00:00	7540	395	-29.2	-42.0	36	11	
2025-10-10T00:00	7560	394	-29.3	-42.2	33	11	
2025-10-10T00:00	7580	392	-29.4	-42.4	31	11	
2025-10-10T00:00	7600	391	-29.4	-43.0	29	11	
2025-10-10T00:00	7620	390	-29.6	-43.3	27	11	
2025-10-10T00:00	7640	389	-29.7	-43.2	26	11	
2025-10-10T00:00	7660	388	-29.9	-43.3	26	11	
2025-10-10T00:00	7680	387	-30.1	-43.4	26	12	
2025-10-10T00:00	7700	386	-30.3	-43.4	28	12	
2025-10-10T00:00	7720	385	-30.4	-43.7	29	12	
2025-10-10T00:00	7740	384	-30.6	-43.7	30	12	
2025-10-10T00:00	7760	383	-30.7	-43.6	31	12	
2025-10-10T00:00	7780	382	-30.9	-43.7	32	13	
2025-10-10T00:00	7800	381	-31.1	-43.9	34	13	
2025-10-10T00:00	7820	379	-31.3	-44.1	35	13	
2025-10-10T00:00	7840	378	-31.4	-43.2	35	13	
2025-10-10T00:00	7860	377	-31.5	-43.1	36	12	
2025-10-10T00:00	7880	376	-31.7	-43.3	36	12	
2025-10-10T00:00	7900	375	-31.8	-43.6	36	12	
2025-10-10T00:00	7920	374	-31.9	-44.3	35	12	
2025-10-10T00:00	7940	373	-32.0	-44.5	35	13	
2025-10-10T00:00	7960	372	-32.2	-44.5	35	13	
2025-10-10T00:00	7980	371	-32.4	-44.7	35	13	
2025-10-10T00:00	8000	370	-32.5	-45.0	35	13	
2025-10-10T00:00	8020	369	-32.6	-45.5	36	13	
2025-10-10T00:00	8040	368	-32.7	-45.9	36	13	
2025-10-10T00:00	8060	367	-32.9	-46.0	35	13	
2025-10-10T00:00	8080	366	-33.0	-46.4	35	12	
2025-10-10T00:00	8100	365	-33.2	-46.7	34	12	
2025-10-10T00:00	8120	364	-33.3	-46.7	33	12	
2025-10-10T00:00	8140	362	-33.5	-46.7	32	12	
2025-10-10T00:00	8160	361	-33.7	-47.1	31	12	
2025-10-10T00:00	8180	360	-33.8	-47.4	29	11	
2025-10-10T00:00	8200	359	-34.0	-47.6	28	12	
2025-10-10T00:00	8220	358	-34.1	-47.7	27	12	
2025-10-10T00:00	8240	357	-34.2	-47.9	26	12	
2025-10-10T00:00	8260	356	-34.4	-47.8	24	12	
2025-10-10T00:00	8280	355	-34.6	-47.5	23	12	
2025-10-10T00:00	8300	354	-34.8	-47.4	22	12	
2025-10-10T00:00	8320	353	-34.9	-47.5	22	12	
2025-10-10T00:00	8340	352	-35.1	-47.6	21	12	
2025-10-10T00:00	8360	351	-35.3	-47.6	20	12	
2025-10-10T00:00	8380	350	-35.5	-47.4	19	12	
2025-10-10T00:00	8400	349	-35.6	-47.0	18	12	
2025-10-10T00:00	8420	348	-35.8	-46.8	18	12	
2025-10-10T00:00	8440	347	-35.9	-46.7	17	12	
2025-10-10T00:00	8460	346	-36.1	-46.8	17	12	
2025-10-10T00:00	8480	345	-36.3	-46.9	16	12	
2025-10-10T00:00	8500	344	-36.5	-46.8	16	12	
2025-10-10T00:00	8520	343	-36.7	-47.0	16	12	
2025-10-10T00:00	8540	342	-36.9	-47.5	17	12	
2025-10-10T00:00	8560	341	-37.1	-47.9	18	12	
2025-10-10T00:00	8580	340	-37.3	-48.4	19	12	
2025-10-10T00:00	8600	339	-37.5	-49.4	20	12	
2025-10-10T00:00	8620	338	-37.6	-49.2	22	12	
2025-10-10T00:00	8640	337	-37.8	-49.8	25	12	
2025-10-10T00:00	8660	336	-38.0	-50.2	27	12	
2025-10-10T00:00	8680	335	-38.1	-50.9	29	13	
2025-10-10T00:00	8700	334	-38.2	-51.5	31	13	
2025-10-10T00:00	8720	333	-38.4	-52.5	32	13	
2025-10-10T00:00	8740	332	-38.5	-53.4	33	13	
2025-10-10T00:00	8760	331	-38.7	-54.1	34	14	
2025-10-10T00:00	8780	331	-38.8	-54.6	35	14	
2025-10-10T00:00	8800	330	-38.9	-54.6	35	14	
2025-10-10T00:00	8820	329	-39.1	-54.8	35	15	
2025-10-10T00:00	8840	328	-39.2	-55.1	36	15	
2025-10-10T00:00	8860	327	-39.4	-55.6	36	15	
2025-10-10T00:00	8880	326	-39.5	-55.9	36	15	
2025-10-10T00:00	8900	325	-39.6	-56.2	37	15	
2025-10-10T00:00	8920	324	-39.7	-56.4	38	15	
2025-10-10T00:00	8940	323	-39.9	-56.3	38	15	
2025-10-10T00:00	8960	322	-40.0	-56.7	38	15	
2025-10-10T00:00	8980	321	-40.2	-57.0	38	15	
2025-10-10T00:00	9000	320	-40.4	-57.0	38	15	
2025-10-10T00:00	9020	319	-40.5	-57.2	38	14	
2025-10-10T00:00	9040	318	-40.6	-57.4	39	14	
2025-10-10T00:00	9060	317	-40.8	-57.7	39	14	
2025-10-10T00:00	9080	316	-40.9	-58.0	39	14	
2025-10-10T00:00	9100	315	-41.0	-58.2	40	14	
2025-10-10T00:00	9120	315	-41.0	-58.5	41	13	
2025-10-10T00:00	9140	314	-41.1	-58.5	42	13	
2025-10-10T00:00	9160	313	-41.3	-58.6	43	13	
2025-10-10T00:00	9180	312	-41.4	-59.0	44	13	
2025-10-10T00:00	9200	311	-41.5	-59.4	45	13	
2025-10-10T00:00	9220	310	-41.5	-59.8	46	13	
2025-10-10T00:00	9240	309	-41.5	-60.4	48	13	
2025-10-10T00:00	9260	308	-41.5	-60.5	48	13	
2025-10-10T00:00	9280	307	-41.7	-60.4	49	14	
2025-10-10T00:00	9300	306	-41.8	-60.3	50	14	
2025-10-10T00:00	9320	305	-42.0	-60.1	50	14	
2025-10-10T00:00	9340	304	-42.2	-60.0	49	13	
2025-10-10T00:00	9360	304	-42.3	-60.1	49	13	
2025-10-10T00:00	9380	303	-42.4	-60.5	48	13	
2025-10-10T00:00	9400	302	-42.5	-61.0	48	13	
2025-10-10T00:00	9420	301	-42.6	-61.5	46	13	
2025-10-10T00:00	9440	300	-42.7	-61.6	45	13	
2025-10-10T00:00	9460	299	-42.9	-61.6	44	13	
2025-10-10T00:00	9480	298	-43.1	-61.6	42	13	
2025-10-10T00:00	9500	297	-43.2	-61.5	41	13	
2025-10-10T00:00	9520	296	-43.3	-61.5	41	13	
2025-10-10T00:00	9540	296	-43.5	-61.5	40	13	
2025-10-10T00:00	9560	295	-43.6	-61.3	40	13	
2025-10-10T00:00	9580	294	-43.7	-61.2	40	13	
2025-10-10T00:00	9600	293	-43.8	-61.2	39	13	
2025-10-10T00:00	9620	292	-44.0	-61.2	39	13	
2025-10-10T00:00	9640	291	-44.2	-61.2	39	13	
2025-10-10T00:00	9660	290	-44.4	-61.4	38	13	
2025-10-10T00:00	9680	290	-44.6	-61.6	38	13	
2025-10-10T00:00	9700	289	-44.7	-61.8	38	13	
2025-10-10T00:00	9720	288	-44.8	-61.9	37	13	
2025-10-10T00:00	9740	287	-45.0	-61.8	37	13	
2025-10-10T00:00	9760	286	-45.1	-61.5	37	13	
2025-10-10T00:00	9780	285	-45.3	-61.6	37	13	
2025-10-10T00:00	9800	284	-45.4	-61.7	37	13	
2025-10-10T00:00	9820	284	-45.6	-61.8	37	13	
2025-10-10T00:00	9840	283	-45.8	-61.9	37	13	
2025-10-10T00:00	9860	282	-45.9	-62.0	37	13	
2025-10-10T00:00	9880	281	-46.1	-62.0	37	13	
2025-10-10T00:00	9900	280	-46.3	-62.0	36	13	
2025-10-10T00:00	9920	279	-46.5	-62.1	36	13	
2025-10-10T00:00	9940	278	-46.7	-62.2	36	13	
2025-10-10T00:00	9960	278	-46.8	-62.3	35	13	
2025-10-10T00:00	9980	277	-47.0	-62.5	36	13	
2025-10-10T00:00	10000	276	-47.2	-62.6	36	14	
2025-10-10T00:00	10018	275	-47.4	-62.6	36	14	
2025-10-10T00:00	10050	274	-47.6	-62.8	36	14	
2025-10-10T00:00	10100	272	-48.0	-62.8	37	15	
2025-10-10T00:00	10150	270	-48.4	-62.8	37	15	
2025-10-10T00:00	10200	268	-48.8	-63.0	38	16	
2025-10-10T00:00	10250	266	-49.2	-63.2	40	16	
2025-10-10T00:00	10300	264	-49.7	-63.4	41	17	
2025-10-10T00:00	10350	262	-50.1	-63.5	41	17	
2025-10-10T00:00	10400	260	-50.5	-63.5	40	17	
2025-10-10T00:00	10450	258	-50.8	-63.6	39	17	
2025-10-10T00:00	10500	256	-51.3	-63.7	38	16	
2025-10-10T00:00	10550	254	-51.6	-63.9	36	16	
2025-10-10T00:00	10600	252	-51.9	-64.2	35	16	
2025-10-10T00:00	10650	250	-52.2	-64.5	35	16	
2025-10-10T00:00	10700	248	-52.6	-65.0	34	16	
2025-10-10T00:00	10750	246	-53.0	-65.1	32	15	
2025-10-10T00:00	10800	244	-53.4	-65.4	31	15	
2025-10-10T00:00	10850	242	-53.7	-66.0	28	14	
2025-10-10T00:00	10900	240	-53.7	-65.9	26	13	
2025-10-10T00:00	10950	238	-53.5	-64.9	24	12	
2025-10-10T00:00	11000	237	-53.7	-64.5	23	12	
2025-10-10T00:00	11050	235	-54.2	-64.6	21	12	
2025-10-10T00:00	11100	233	-54.6	-64.6	20	12	
2025-10-10T00:00	11150	231	-55.0	-64.8	21	11	
2025-10-10T00:00	11200	229	-55.1	-65.2	21	11	
2025-10-10T00:00	11250	227	-55.3	-65.7	21	11	
2025-10-10T00:00	11300	226	-55.6	-65.9	21	10	
2025-10-10T00:00	11350	224	-55.8	-66.1	21	9	
2025-10-10T00:00	11400	222	-55.8	-66.8	20	8	
2025-10-10T00:00	11450	220	-55.8	-67.4	20	8	
2025-10-10T00:00	11500	219	-56.1	-67.5	18	8	
2025-10-10T00:00	11550	217	-56.2	-67.8	13	7	
2025-10-10T00:00	11600	215	-56.5	-68.0	4	7	
2025-10-10T00:00	11650	214	-56.7	-68.4	356	8	
2025-10-10T00:00	11700	212	-56.6	-69.7	355	9	
2025-10-10T00:00	11750	210	-56.1	-70.6	357	11	
2025-10-10T00:00	11800	209	-55.6	-70.9	359	13	
2025-10-10T00:00	11850	207	-55.8	-71.4	360	14	
2025-10-10T00:00	11900	205	-55.9	-71.2	1	14	
2025-10-10T00:00	11950	204	-55.9	-71.5	1	13	
2025-10-10T00:00	12000	202	-55.9	-72.2	0	11	
2025-10-10T00:00	12050	201	-55.3	-73.3	360	8	
2025-10-10T00:00	12100	199	-54.9	-73.9	360	7	
2025-10-10T00:00	12150	197	-55.1	-74.0	359	6	
2025-10-10T00:00	12200	196	-54.6	-74.8	357	6	
2025-10-10T00:00	12250	194	-54.6	-75.8	353	5	
2025-10-10T00:00	12300	193	-54.8	-75.8	351	6	
2025-10-10T00:00	12350	191	-55.2	-75.7	353	6	
2025-10-10T00:00	12400	190	-55.5	-75.8	355	7	
2025-10-10T00:00	12450	188	-55.8	-75.8	355	7	
2025-10-10T00:00	12500	187	-56.2	-75.9	358	8	
2025-10-10T00:00	12550	185	-56.4	-76.2	3	9	
2025-10-10T00:00	12600	184	-56.5	-76.5	9	9	
2025-10-10T00:00	12650	183	-56.4	-76.8	13	10	
2025-10-10T00:00	12700	181	-56.2	-77.4	15	9	
2025-10-10T00:00	12750	180	-56.2	-77.9	16	8	
2025-10-10T00:00	12800	178	-56.3	-78.2	14	9	
2025-10-10T00:00	12850	177	-56.2	-78.5	10	9	
2025-10-10T00:00	12900	176	-56.0	-79.0	8	9	
2025-10-10T00:00	12950	174	-55.9	-79.4	10	9	
2025-10-10T00:00	13000	173	-56.0	-79.4	14	9	
2025-10-10T00:00	13050	171	-56.4	-79.4	14	9	
2025-10-10T00:00	13100	170	-56.6	-79.4	8	8	
2025-10-10T00:00	13150	169	-56.7	-79.7	2	8	
2025-10-10T00:00	13200	167	-57.0	-79.8	359	9	
2025-10-10T00:00	13250	166	-57.3	-79.8	358	9	
2025-10-10T00:00	13300	165	-57.7	-80.0	358	10	
2025-10-10T00:00	13350	163	-57.8	-80.1	359	11	
2025-10-10T00:00	13400	162	-58.0	-80.3	359	11	
2025-10-10T00:00	13450	161	-58.1	-80.4	358	11	
2025-10-10T00:00	13500	160	-58.1	-80.7	358	11	
2025-10-10T00:00	13550	158	-58.3	-80.9	360	11	
2025-10-10T00:00	13600	157	-58.4	-81.1	1	12	
2025-10-10T00:00	13650	156	-58.2	-81.0	5	12	
2025-10-10T00:00	13700	155	-58.4	-81.0	9	12	
2025-10-10T00:00	13750	153	-58.7	-81.2	12	13	
2025-10-10T00:00	13800	152	-58.4	-81.3	14	12	
2025-10-10T00:00	13850	151	-58.2	-81.4	16	12	
2025-10-10T00:00	13900	150	-58.5	-81.5	19	11	
2025-10-10T00:00	13950	149	-58.8	-81.6	23	10	
2025-10-10T00:00	14000	147	-59.0	-81.7	29	10	
2025-10-10T00:00	14050	146	-59.0	-81.7	36	9	
2025-10-10T00:00	14100	145	-59.3	-81.9	42	10	
2025-10-10T00:00	14150	144	-59.7	-81.9	46	10	
2025-10-10T00:00	14200	143	-60.1	-82.0	49	9	
2025-10-10T00:00	14250	142	-60.5	-82.2	50	8	
2025-10-10T00:00	14300	141	-60.7	-82.3	48	7	
2025-10-10T00:00	14350	139	-60.9	-82.5	42	5	
2025-10-10T00:00	14400	138	-60.9	-82.7	34	4	
2025-10-10T00:00	14450	137	-60.9	-82.7	24	3	
2025-10-10T00:00	14500	136	-61.3	-82.8	13	3	
2025-10-10T00:00	14550	135	-61.7	-82.9	356	2	
2025-10-10T00:00	14600	134	-61.8	-82.8	334	2	
2025-10-10T00:00	14650	133	-62.1	-82.9	328	3	
2025-10-10T00:00	14700	132	-62.5	-83.1	335	4	
2025-10-10T00:00	14750	131	-62.7	-83.2	342	4	
2025-10-10T00:00	14800	130	-62.7	-83.4	343	4	
2025-10-10T00:00	14850	129	-62.6	-83.5	342	4	
2025-10-10T00:00	14900	128	-62.5	-83.6	336	4	
2025-10-10T00:00	14950	127	-62.4	-83.5	324	4	
2025-10-10T00:00	15000	125	-61.9	-83.0	316	5	
2025-10-10T00:00	15050	124	-61.8	-82.8	314	6	
2025-10-10T00:00	15100	124	-62.0	-82.8	319	6	
2025-10-10T00:00	15150	122	-62.1	-82.9	325	6	
2025-10-10T00:00	15200	121	-62.2	-83.1	328	6	
2025-10-10T00:00	15250	121	-62.0	-83.1	328	7	
2025-10-10T00:00	15300	120	-62.0	-83.2	331	7	
2025-10-10T00:00	15350	119	-62.0	-83.3	335	8	
2025-10-10T00:00	15400	118	-61.7	-83.3	336	7	
2025-10-10T00:00	15450	117	-61.4	-83.4	334	7	
2025-10-10T00:00	15500	116	-61.4	-83.4	335	7	
2025-10-10T00:00	15550	115	-61.7	-83.5	336	6	
2025-10-10T00:00	15600	114	-62.0	-83.7	331	5	
2025-10-10T00:00	15650	113	-61.7	-83.8	324	5	
2025-10-10T00:00	15700	112	-61.6	-84.0	325	5	
2025-10-10T00:00	15750	111	-61.7	-84.0	327	5	
2025-10-10T00:00	15800	110	-61.5	-84.0	322	5	
2025-10-10T00:00	15850	109	-61.6	-84.0	317	5	
2025-10-10T00:00	15900	109	-62.0	-84.1	318	5	
2025-10-10T00:00	15950	108	-62.1	-84.2	321	5	
2025-10-10T00:00	16000	107	-62.2	-84.3	323	5	
2025-10-10T00:00	16050	106	-62.3	-84.3	327	5	
2025-10-10T00:00	16100	105	-62.3	-84.2	327	5	
2025-10-10T00:00	16150	104	-62.6	-84.3	317	4	
2025-10-10T00:00	16200	103	-62.7	-84.4	307	4	
2025-10-10T00:00	16250	103	-63.0	-84.5	306	4	
2025-10-10T00:00	16300	102	-63.2	-84.6	309	4	
2025-10-10T00:00	16350	101	-63.3	-84.7	312	4	
2025-10-10T00:00	16400	100	-63.3	-85.0	319	5	
2025-10-10T00:00	16450	99	-63.1	-85.2	326	6	
2025-10-10T00:00	16500	98	-62.7	-85.0	327	7	
2025-10-10T00:00	16550	98	-62.7	-84.8	326	7	
2025-10-10T00:00	16600	97	-63.1	-84.9	328	7	
2025-10-10T00:00	16650	96	-63.3	-85.0	330	7	
2025-10-10T00:00	16700	95	-63.3	-84.9	328	7	
2025-10-10T00:00	16750	95	-63.6	-85.0	327	7	
2025-10-10T00:00	16800	94	-63.8	-85.1	329	7	
2025-10-10T00:00	16850	93	-63.9	-85.2	327	7	
2025-10-10T00:00	16900	92	-63.8	-85.3	324	8	
2025-10-10T00:00	16950	91	-64.0	-85.3	327	8	
2025-10-10T00:00	17000	91	-64.0	-85.1	334	8	
2025-10-10T00:00	17050	90	-64.2	-85.2	339	8	
2025-10-10T00:00	17100	89	-64.1	-85.3	343	7	
2025-10-10T00:00	17150	89	-64.3	-85.4	345	6	
2025-10-10T00:00	17200	88	-64.7	-85.6	348	4	
2025-10-10T00:00	17250	87	-65.0	-85.9	345	3	
2025-10-10T00:00	17300	86	-64.6	-86.0	319	2	
2025-10-10T00:00	17350	86	-63.7	-85.8	296	3	
2025-10-10T00:00	17400	85	-63.4	-85.8	286	4	
2025-10-10T00:00	17450	84	-63.5	-85.9	277	5	
2025-10-10T00:00	17500	84	-63.9	-86.1	275	5	
2025-10-10T00:00	17550	83	-63.8	-86.1	282	6	
2025-10-10T00:00	17600	82	-63.6	-86.1	288	6	
2025-10-10T00:00	17650	82	-63.2	-86.2	287	6	
2025-10-10T00:00	17700	81	-63.2	-86.3	285	6	
2025-10-10T00:00	17750	80	-63.2	-86.3	291	6	
2025-10-10T00:00	17800	80	-63.1	-86.2	301	6	
2025-10-10T00:00	17850	79	-63.4	-86.2	308	6	
2025-10-10T00:00	17900	78	-63.7	-86.4	312	6	
2025-10-10T00:00	17950	78	-63.6	-86.3	316	6	
2025-10-10T00:00	18000	77	-63.7	-86.3	317	6	
2025-10-10T00:00	18050	76	-63.6	-86.4	315	6	
2025-10-10T00:00	18100	76	-63.7	-86.5	314	6	
2025-10-10T00:00	18150	75	-63.6	-86.5	317	5	
2025-10-10T00:00	18200	75	-63.6	-86.7	322	5	
2025-10-10T00:00	18250	74	-63.0	-86.6	329	5	
2025-10-10T00:00	18300	73	-62.7	-86.7	338	6	
2025-10-10T00:00	18350	73	-62.6	-86.6	349	6	
2025-10-10T00:00	18400	72	-62.6	-86.4	0	5	
2025-10-10T00:00	18450	72	-62.5	-86.3	9	4	
2025-10-10T00:00	18500	71	-62.4	-86.4	21	2	
2025-10-10T00:00	18550	70	-62.6	-86.4	53	1	
2025-10-10T00:00	18600	70	-62.7	-86.4	174	0	
2025-10-10T00:00	18650	69	-62.5	-86.3	226	1	
2025-10-10T00:00	18700	69	-62.6	-86.4	250	2	
2025-10-10T00:00	18750	68	-62.7	-86.3	267	2	
2025-10-10T00:00	18800	68	-62.7	-86.3	280	3	
2025-10-10T00:00	18850	67	-62.9	-86.3	284	4	
2025-10-10T00:00	18900	67	-63.3	-86.4	283	5	
2025-10-10T00:00	18950	66	-63.7	-86.5	283	6	
2025-10-10T00:00	19000	65	-63.7	-86.5	287	7	
2025-10-10T00:00	19050	65	-63.8	-86.6	296	8	
2025-10-10T00:00	19100	64	-63.8	-86.8	305	8	
2025-10-10T00:00	19150	64	-63.6	-86.8	313	9	
2025-10-10T00:00	19200	63	-63.6	-86.9	323	9	
2025-10-10T00:00	19250	63	-63.3	-86.9	333	9	
2025-10-10T00:00	19300	62	-63.0	-86.9	337	9	
2025-10-10T00:00	19350	62	-62.9	-86.8	334	8	
2025-10-10T00:00	19400	61	-62.8	-86.7	328	8	
2025-10-10T00:00	19450	61	-62.9	-86.7	328	8	
2025-10-10T00:00	19500	60	-62.8	-86.8	332	8	
2025-10-10T00:00	19550	60	-62.4	-86.6	332	8	
2025-10-10T00:00	19600	59	-62.3	-86.5	327	7	
2025-10-10T00:00	19650	59	-62.6	-86.6	323	7	
2025-10-10T00:00	19700	58	-62.6	-86.6	326	8	
2025-10-10T00:00	19750	58	-62.4	-86.6	333	8	
2025-10-10T00:00	19800	58	-62.5	-86.7	340	8	
2025-10-10T00:00	19850	57	-62.4	-86.7	348	8	
2025-10-10T00:00	19900	57	-62.1	-86.6	359	7	
2025-10-10T00:00	19950	56	-62.1	-86.7	13	7	
2025-10-10T00:00	20000	56	-62.1	-86.7	25	7	
2025-10-10T00:00	20050	55	-62.0		29	6	
2025-10-10T00:00	20100	55	-61.8		26	5	
2025-10-10T00:00	20150	54	-61.7		23	5	
2025-10-10T00:00	20200	54	-62.0		26	4	
2025-10-10T00:00	20250	53	-62.2		34	3	
2025-10-10T00:00	20300	53	-62.5		45	2	
2025-10-10T00:00	20350	53	-62.7		43	1	
2025-10-10T00:00	20400	52	-62.9		353	1	
2025-10-10T00:00	20450	52	-63.0		320	2	
2025-10-10T00:00	20500	51	-62.9		317	3	
2025-10-10T00:00	20550	51	-62.6		322	3	
2025-10-10T00:00	20600	51	-62.6		331	3	
2025-10-10T00:00	20650	50	-62.9		338	3	
2025-10-10T00:00	20700	50	-62.9		343	3	
2025-10-10T00:00	20750	49	-62.7		345	3	
2025-10-10T00:00	20800	49	-62.8		334	2	
2025-10-10T00:00	20850	49	-62.7		309	2	
2025-10-10T00:00	20900	48	-63.0		291	3	
2025-10-10T00:00	20950	48	-63.4		288	3	
2025-10-10T00:00	21000	47	-63.3		290	3	
2025-10-10T00:00	21050	47	-63.3		289	4	
2025-10-10T00:00	21100	47	-63.2		286	4	
2025-10-10T00:00	21150	46	-63.2		284	3	
2025-10-10T00:00	21200	46	-63.0		281	4	
2025-10-10T00:00	21250	45	-62.3		279	5	
2025-10-10T00:00	21300	45	-62.3		281	6	
2025-10-10T00:00	21350	45	-62.1		287	6	
2025-10-10T00:00	21400	44	-61.8		296	5	
2025-10-10T00:00	21450	44	-61.5		307	5	
2025-10-10T00:00	21500	44	-61.2		316	6	
2025-10-10T00:00	21550	43	-61.1		322	6	
2025-10-10T00:00	21600	43	-61.1		326	6	
2025-10-10T00:00	21650	43	-61.5		334	6	
2025-10-10T00:00	21700	42	-61.7		345	5	
2025-10-10T00:00	21750	42	-61.5		349	4	
2025-10-10T00:00	21800	42	-61.2		336	3	
2025-10-10T00:00	21850	41	-60.8		298	2	
2025-10-10T00:00	21900	41	-60.2		271	2	
2025-10-10T00:00	21950	41	-59.9		264	2	
2025-10-10T00:00	22000	40	-59.7		260	3	
2025-10-10T00:00	22050	40	-59.8		254	4	
2025-10-10T00:00	22100	40	-60.0		244	5	
2025-10-10T00:00	22150	39	-60.2		236	6	
2025-10-10T00:00	22200	39	-60.5		232	6	
2025-10-10T00:00	22250	39	-60.6		235	7	
2025-10-10T00:00	22300	38	-60.7		239	7	
2025-10-10T00:00	22350	38	-60.9		240	7	
2025-10-10T00:00	22400	38	-61.2		239	7	
2025-10-10T00:00	22450	37	-61.6		241	8	
2025-10-10T00:00	22500	37	-61.6		247	8	
2025-10-10T00:00	22550	37	-61.5		259	8	
2025-10-10T00:00	22600	37	-61.2		271	9	
2025-10-10T00:00	22650	36	-61.1		282	9	
2025-10-10T00:00	22700	36	-61.3		291	8	
2025-10-10T00:00	22750	36	-61.5		301	7	
2025-10-10T00:00	22800	35	-61.7		312	7	
2025-10-10T00:00	22850	35	-61.6		321	7	
2025-10-10T00:00	22900	35	-61.0		326	7	
2025-10-10T00:00	22950	35	-60.4		330	7	
2025-10-10T00:00	23000	34	-60.2		333	8	
2025-10-10T00:00	23050	34	-60.2		338	8	
2025-10-10T00:00	23100	34	-60.2		343	7	
2025-10-10T00:00	23150	33	-60.0		350	7	
2025-10-10T00:00	23200	33	-60.1		360	6	
2025-10-10T00:00	23250	33	-59.9		10	5	
2025-10-10T00:00	23300	33	-59.6		18	5	
2025-10-10T00:00	23350	32	-59.3		21	5	
2025-10-10T00:00	23400	32	-59.5		18	4	
2025-10-10T00:00	23450	32	-59.7		11	3	
2025-10-10T00:00	23500	32	-60.0		354	2	
2025-10-10T00:00	23550	31	-60.2		323	2	
2025-10-10T00:00	23600	31	-60.1		306	3	
2025-10-10T00:00	23650	31	-60.0		301	4	
2025-10-10T00:00	23700	31	-59.8		298	5	
2025-10-10T00:00	23750	30	-59.6		293	5	
2025-10-10T00:00	23800	30	-59.7		287	5	
2025-10-10T00:00	23850	30	-59.7		281	5	
2025-10-10T00:00	23900	30	-59.8		276	5	
2025-10-10T00:00	23950	29	-59.7		271	5	
2025-10-10T00:00	24000	29	-59.4		269	5	
2025-10-10T00:00	24050	29	-59.1		272	4	
2025-10-10T00:00	24100	29	-59.1		278	5	
2025-10-10T00:00	24150	29	-59.1		284	5	
2025-10-10T00:00	24200	28	-58.8		286	5	
2025-10-10T00:00	24250	28	-58.7		284	6	
2025-10-10T00:00	24300	28	-58.9		286	6	
2025-10-10T00:00	24350	28	-59.3		294	6	
2025-10-10T00:00	24400	27	-59.5		303	7	
2025-10-10T00:00	24450	27	-59.3		313	6	
2025-10-10T00:00	24500	27	-59.2		323	6	
2025-10-10T00:00	24550	27	-59.1		333	6	
2025-10-10T00:00	24600	27	-59.0		341	5	
2025-10-10T00:00	24650	26	-58.6		347	4	
2025-10-10T00:00	24700	26	-58.7		355	3	
2025-10-10T00:00	24750	26	-58.9		11	2	
2025-10-10T00:00	24800	26	-58.9		54	1	
2025-10-10T00:00	24850	26	-58.7		175	1	
2025-10-10T00:00	24900	25	-58.5		203	2	
2025-10-10T00:00	24950	25	-58.6		212	3	
2025-10-10T00:00	25000	25	-58.5		220	4	
2025-10-10T00:00	25050	25	-58.2		225	5	
2025-10-10T00:00	25100	25	-57.8		227	6	
2025-10-10T00:00	25150	24	-57.3		231	7	
2025-10-10T00:00	25200	24	-57.2		241	7	
2025-10-10T00:00	25250	24	-57.3		253	7	
2025-10-10T00:00	25300	24	-57.4		265	7	
2025-10-10T00:00	25350	24	-57.4		275	7	
2025-10-10T00:00	25400	23	-57.5		276	7	
2025-10-10T00:00	25450	23	-57.0		273	7	
2025-10-10T00:00	25500	23	-57.0		272	7	
2025-10-10T00:00	25550	23	-57.0		272	7	
2025-10-10T00:00	25600	23	-57.2		274	6	
2025-10-10T00:00	25650	22	-56.7		275	6	
2025-10-10T00:00	25700	22	-56.6		274	5	
2025-10-10T00:00	25750	22	-56.6		268	5	
2025-10-10T00:00	25800	22	-56.6		263	5	
2025-10-10T00:00	25850	22	-56.8		262	6	
2025-10-10T00:00	25900	22	-56.6		262	6	
2025-10-10T00:00	25950	21	-56.5		263	7	
2025-10-10T00:00	26000	21	-56.1		263	8	
2025-10-10T00:00	26050	21	-55.8		264	8	
2025-10-10T00:00	26100	21	-55.8		265	9	
2025-10-10T00:00	26150	21	-55.7		266	9	
2025-10-10T00:00	26200	21	-55.4		267	9	
2025-10-10T00:00	26250	20	-55.3		267	9	
2025-10-10T00:00	26300	20	-55.3		267	9	
2025-10-10T00:00	26350	20	-55.5		268	9	
2025-10-10T00:00	26400	20	-55.8		270	9	
2025-10-10T00:00	26450	20	-56.2		271	9	
2025-10-10T00:00	26500	20	-56.4		272	9	
2025-10-10T00:00	26550	20	-56.6		272	8	
2025-10-10T00:00	26600	19	-56.8		271	8	
2025-10-10T00:00	26650	19	-56.8		269	7	
2025-10-10T00:00	26700	19	-56.7		266	7	
2025-10-10T00:00	26750	19	-56.6		261	7	
2025-10-10T00:00	26800	19	-56.6		256	8	
2025-10-10T00:00	26850	19	-56.4		252	9	
2025-10-10T00:00	26900	18	-56.4		252	9	
2025-10-10T00:00	26950	18	-56.6		256	10	
2025-10-10T00:00	27000	18	-56.6		264	10	
2025-10-10T00:00	27050	18	-56.3		272	11	
2025-10-10T00:00	27100	18	-56.3		276	12	
2025-10-10T00:00	27150	18	-56.6		278	12	
2025-10-10T00:00	27200	18	-56.5		279	12	
2025-10-10T00:00	27250	17	-56.6		280	12	
2025-10-10T00:00	27300	17	-56.6		282	12	
2025-10-10T00:00	27350	17	-56.7		283	11	
2025-10-10T00:00	27400	17	-56.3		284	10	
2025-10-10T00:00	27450	17	-56.1		287	9	
2025-10-10T00:00	27500	17	-56.0		290	8	
2025-10-10T00:00	27550	17	-56.0		293	7	
2025-10-10T00:00	27600	17	-56.2		289	7	
2025-10-10T00:00	27650	16	-55.7		277	6	
2025-10-10T00:00	27700	16	-55.8		263	7	
2025-10-10T00:00	27750	16	-55.7		254	7	
2025-10-10T00:00	27800	16	-55.6		252	8	
2025-10-10T00:00	27850	16	-55.3		253	8	
2025-10-10T00:00	27900	16	-55.0		254	9	
2025-10-10T00:00	27950	16	-54.5		255	9	
2025-10-10T00:00	28000	16	-54.4		257	10	
2025-10-10T00:00	28050	15	-54.5		261	10	
2025-10-10T00:00	28100	15	-54.4		266	9	
2025-10-10T00:00	28150	15	-54.1		271	9	
2025-10-10T00:00	28200	15	-54.3		277	8	
2025-10-10T00:00	28250	15	-54.4		282	8	
2025-10-10T00:00	28300	15	-54.5		285	7	
2025-10-10T00:00	28350	15	-54.5		280	6	
2025-10-10T00:00	28400	15	-54.5		267	6	
2025-10-10T00:00	28450	14	-54.5		255	7	
2025-10-10T00:00	28500	14	-54.6		248	8	
2025-10-10T00:00	28550	14	-54.6		247	9	
2025-10-10T00:00	28600	14	-55.0		247	10	
2025-10-10T00:00	28650	14	-55.4		249	11	
2025-10-10T00:00	28700	14	-55.6		250	12	
2025-10-10T00:00	28750	14	-55.6		251	13	
2025-10-10T00:00	28800	14	-55.5		250	15	
2025-10-10T00:00	28850	14	-55.0		250	15	
2025-10-10T00:00	28900	13	-54.7		250	15	
2025-10-10T00:00	28950	13	-54.6		252	14	
2025-10-10T00:00	29000	13	-54.8		255	14	
2025-10-10T00:00	29050	13	-54.9		256	14	
2025-10-10T00:00	29100	13	-54.9		255	14	
2025-10-10T00:00	29150	13	-54.7		253	14	
2025-10-10T00:00	29200	13	-54.9		252	13	
2025-10-10T00:00	29250	13	-54.9		250	13	
2025-10-10T00:00	29300	13	-54.8		247	12	
2025-10-10T00:00	29350	13	-54.3		244	13	
2025-10-10T00:00	29400	12	-54.0		241	13	
2025-10-10T00:00	29450	12	-53.5		242	15	
2025-10-10T00:00	29500	12	-53.4		246	16	
2025-10-10T00:00	29550	12	-53.1		252	18	
2025-10-10T00:00	29600	12	-52.9		258	19	
2025-10-10T00:00	29650	12	-52.7		263	20	
2025-10-10T00:00	29700	12	-52.8		266	21	
2025-10-10T00:00	29750	12	-52.6		269	21	
2025-10-10T00:00	29800	12	-52.4		272	21	
2025-10-10T00:00	29850	12	-52.2		275	21	
2025-10-10T00:00	29900	12	-51.9		277	21	
2025-10-10T00:00	29950	11	-52.0		278	21	
2025-10-10T00:00	30000	11	-51.9		277	21	
2025-10-10T00:00	30050	11	-52.0		277	21	
2025-10-10T00:00	30100	11	-52.0		278	21	
2025-10-10T00:00	30150	11	-52.2		281	21	
2025-10-10T00:00	30200	11	-52.4		283	21	
2025-10-10T00:00	30250	11	-52.6		285	21	
2025-10-10T00:00	30300	11	-52.4		286	20	
2025-10-10T00:00	30350	11	-52.4		286	20	
2025-10-10T00:00	30400	11	-52.3		285	20	
2025-10-10T00:00	30450	11	-52.3		283	20	
2025-10-10T00:00	30500	11	-52.3		281	20	
2025-10-10T00:00	30550	10	-52.4		279	20	
2025-10-10T00:00	30600	10	-52.4		277	20	
2025-10-10T00:00	30650	10	-52.4		275	20	
2025-10-10T00:00	30700	10	-52.6		274	20	
2025-10-10T00:00	30750	10	-52.6		274	20	
2025-10-10T00:00	30800	10	-52.3		277	21	
2025-10-10T00:00	30850	10	-52.2		280	22	
2025-10-10T00:00	30900	10	-52.4		283	22	
2025-10-10T00:00	30950	10	-52.5		286	21	
2025-10-10T00:00	31000	10	-52.5		289	21	
2025-10-10T00:00	31050	10	-52.5		292	20	
2025-10-10T00:00	31100	10	-52.6		295	19	
2025-10-10T00:00	31150	10	-52.8		298	18	
2025-10-10T00:00	31200	9	-53.1		299	17	
2025-10-10T00:00	31250	9	-53.4		299	16	
2025-10-10T00:00	31300	9	-53.5		299	15	
2025-10-10T00:00	31350	9	-53.3		299	15	
2025-10-10T00:00	31400	9	-52.7		297	14	
2025-10-10T00:00	31450	9	-52.4		294	14	
2025-10-10T00:00	31500	9	-52.1		289	14	
2025-10-10T00:00	31550	9	-51.9		283	14	
2025-10-10T00:00	31600	9	-51.8		278	14	
2025-10-10T00:00	31650	9	-51.8		275	15	
2025-10-10T00:00	31700	9	-51.4		274	15	
2025-10-10T00:00	31750	9	-51.5		274	17	
2025-10-10T00:00	31800	9	-51.6		274	18	
2025-10-10T00:00	31850	9	-51.3		274	19	
2025-10-10T00:00	31900	8	-50.7		276	19	
2025-10-10T00:00	31950	8	-50.6		277	19	
2025-10-10T00:00	32000	8	-50.6		277	18	
2025-10-10T00:00	32050	8	-50.5		276	18	
2025-10-10T00:00	32100	8	-50.4		275	18	
2025-10-10T00:00	32150	8	-50.2		276	17	
2025-10-10T00:00	32200	8	-50.1		276	17	
2025-10-10T00:00	32250	8	-49.8		275	18	
2025-10-10T00:00	32300	8	-49.8		272	19	
2025-10-10T00:00	32350	8	-49.5		270	20	
2025-10-10T00:00	32400	8	-49.5		268	22	
2025-10-10T00:00	32450	8	-49.6		267	23	
2025-10-10T00:00	32500	8	-49.6		268	24	
2025-10-10T00:00	32550	8	-49.4		271	24	
2025-10-10T00:00	32600	8	-49.4		274	25	
2025-10-10T00:00	32650	8	-49.3		276	25	
2025-10-10T00:00	32700	7	-48.8		277	25	
2025-10-10T00:00	32750	7	-48.6		279	24	
2025-10-10T00:00	32800	7	-48.3		280	24	
2025-10-10T00:00	32850	7	-48.2		281	23	
2025-10-10T00:00	32900	7	-48.1		280	23	
2025-10-10T00:00	32950	7	-47.6		278	24	
2025-10-10T00:00	33000	7	-47.7		275	24	
2025-10-10T00:00	33050	7	-47.7		273	24	
2025-10-10T00:00	33100	7	-48.0		272	24	
2025-10-10T00:00	33150	7	-48.2		272	23	
2025-10-10T00:00	33200	7	-47.8		273	22	
2025-10-10T00:00	33250	7	-47.5		274	20	
2025-10-10T00:00	33300	7	-47.5		275	19	
2025-10-10T00:00	33350	7	-47.1		275	18	
2025-10-10T00:00	33400	7	-46.5		274	19	
2025-10-10T00:00	33450	7	-46.1		273	20	
2025-10-10T00:00	33500	7	-45.9		272	21	
2025-10-10T00:00	33550	7	-45.2		273	22	
2025-10-10T00:00	33600	7	-44.8		275	23	
2025-10-10T00:00	33650	6	-44.6		278	24	
2025-10-10T00:00	33700	6	-44.5		282	25	
2025-10-10T00:00	33750	6	-44.0		285	25	
2025-10-10T00:00	33800	6	-43.9		285	25	
2025-10-10T00:00	33850	6	-43.7		284	25	
2025-10-10T00:00	33900	6	-43.5		282	25	
2025-10-10T00:00	33950	6	-43.5		280	25	
2025-10-10T00:00	34000	6	-43.1		279	24	
2025-10-10T00:00	34050	6	-42.3		279	24	
2025-10-10T00:00	34100	6	-42.4		281	23	
2025-10-10T00:00	34150	6	-42.4		283	23	
2025-10-10T00:00	34200	6	-42.5		286	23	
2025-10-10T00:00	34250	6	-42.8		288	22	
2025-10-10T00:00	34300	6	-43.1		290	22	
2025-10-10T00:00	34350	6	-43.5		291	22	
2025-10-10T00:00	34400	6	-43.4		291	22	
2025-10-10T00:00	34450	6	-43.7		289	22	
2025-10-10T00:00	34500	6	-44.0		286	21	
2025-10-10T00:00	34550	6	-44.2		284	21	
2025-10-10T00:00	34600	6	-44.3		283	20	
2025-10-10T00:00	34650	6	-44.3		281	19	
2025-10-10T00:00	34700	6	-44.2		278	19	
2025-10-10T00:00	34750	6	-43.4		276	19	
2025-10-10T00:00	34800	5	-42.8		275	20	
2025-10-10T00:00	34850	5	-42.5		274	21	
2025-10-10T00:00	34900	5	-42.3		274	22	
2025-10-10T00:00	34950	5	-42.3		273	22	
2025-10-10T00:00	35000	5	-42.4		272	23	
2025-10-10T00:00	35050	5	-42.5		273	24	
2025-10-10T00:00	35100	5	-42.2		275	25	
2025-10-10T00:00	35150	5	-42.0		277	24	
2025-10-10T00:00	35200	5	-42.2		278	23	
2025-10-10T00:00	35250	5	-42.3		277	22	
2025-10-10T00:00	35300	5	-42.4		277	21	
2025-10-10T00:00	35350	5	-42.4		277	20	
2025-10-10T00:00	35400	5	-42.4		276	20	
2025-10-10T00:00	35450	5	-42.5		275	20	
2025-10-10T00:00	35500	5	-42.4		273	21	
2025-10-10T00:00	35550	5	-42.2		271	23	
2025-10-10T00:00	35600	5	-41.8		269	24	
2025-10-10T00:00	35650	5	-41.2		269	26	
2025-10-10T00:00	35700	5	-40.5		269	27	
2025-10-10T00:00	35750	5	-39.4		270	27	
2025-10-10T00:00	35800	5	-38.6		271	28	
2025-10-10T00:00	35850	5	-37.7		274	28	
2025-10-10T00:00	35900	5	-37.1		278	28	
2025-10-10T00:00	35950	5	-36.9		279	27	
2025-10-10T00:00	36000	5	-36.1		278	25	
2025-10-10T00:00	36050	5	-35.5		277	23	
2025-10-10T00:00	36100	5	-34.9		277	22	
2025-10-10T00:00	36150	4	-34.5		278	21	
2025-10-10T00:00	36200	4	-34.7		277	21	
2025-10-10T00:00	36250	4	-34.3		271	20	
2025-10-10T00:00	36300	4	-33.9		267	20	
2025-10-10T00:00	36350	4	-33.4		268	21	
2025-10-10T00:00	36400	4	-33.2		269	23	
2025-10-10T00:00	36450	4	-32.9		267	24	
2025-10-10T00:00	36500	4	-32.8		263	25	
2025-10-10T00:00	36550	4	-33.0		263	26	
2025-10-10T00:00	36600	4	-33.2		266	27	
2025-10-10T00:00	36650	4	-32.7		268	26	
2025-10-10T00:00	36700	4	-31.7		271	25	
2025-10-10T00:00	36750	4	-30.9		273	24	
2025-10-10T00:00	36800	4	-30.6		277	23	
2025-10-10T00:00	36850	4	-30.7		279	22	
2025-10-10T00:00	36900	4	-30.6		280	21	
2025-10-10T00:00	36950	4	-30.0		277	21	
2025-10-10T00:00	37000	4	-29.8		273	20	
2025-10-10T00:00	37050	4	-29.7		269	19	
2025-10-10T00:00	37100	4	-29.6		264	19	
2025-10-10T00:00	37150	4	-29.7		261	19	
2025-10-10T00:00	37200	4	-30.0		256	19	
2025-10-10T00:00	37250	4	-30.1		251	19	
2025-10-10T00:00	37300	4	-30.0		248	19	
2025-10-10T00:00	37350	4	-30.1		248	18	
2025-10-10T12:00	491	973	13.2	10.0	54	4	1.4
2025-10-10T12:00	501	972	13.3	9.4	40	3	1.4
2025-10-10T12:00	520	969	12.9	9.0	40	4	1.4
2025-10-10T12:00	540	967	12.8	8.8	41	5	1.4
2025-10-10T12:00	560	965	12.6	8.8	42	5	1.5
2025-10-10T12:00	580	963	12.3	8.8	43	6	1.5
2025-10-10T12:00	600	960	12.1	8.8	43	7	1.5
2025-10-10T12:00	620	958	11.9	8.7	43	7	1.5
2025-10-10T12:00	640	956	11.8	8.7	43	7	1.5
2025-10-10T12:00	660	953	11.6	8.8	44	7	1.6
2025-10-10T12:00	680	951	11.4	8.8	45	7	1.6
2025-10-10T12:00	700	949	11.2	8.6	46	7	1.6
2025-10-10T12:00	720	947	11.0	8.6	49	7	1.6
2025-10-10T12:00	740	944	10.9	8.5	52	7	1.6
2025-10-10T12:00	760	942	10.7	8.5	56	8	1.6
2025-10-10T12:00	780	940	10.6	8.5	59	8	1.6
2025-10-10T12:00	800	938	10.3	8.6	60	8	1.6
2025-10-10T12:00	820	936	10.1	8.3	60	7	1.6
2025-10-10T12:00	840	933	9.9	8.3	60	7	1.6
2025-10-10T12:00	860	931	9.7	8.2	59	6	1.6
2025-10-10T12:00	880	929	9.6	8.1	58	6	1.6
2025-10-10T12:00	900	926	9.6	7.9	59	6	1.6
2025-10-10T12:00	920	924	9.5	7.7	61	6	1.6
2025-10-10T12:00	940	922	9.4	7.6	63	6	1.6
2025-10-10T12:00	960	920	9.1	7.6	64	6	1.6
2025-10-10T12:00	980	918	8.9	7.7	65	6	1.6
2025-10-10T12:00	1000	915	8.7	7.6	65	6	1.6
2025-10-10T12:00	1020	913	8.6	7.5	65	6	1.6
2025-10-10T12:00	1040	911	8.4	7.3	65	6	1.6
2025-10-10T12:00	1060	909	8.2	7.3	64	7	1.6
2025-10-10T12:00	1080	907	8.1	7.3	64	7	1.6
2025-10-10T12:00	1100	904	8.0	7.2	63	7	1.6
2025-10-10T12:00	1120	902	7.7	7.2	61	7	1.7
2025-10-10T12:00	1140	900	7.5	7.1	59	7	1.7
2025-10-10T12:00	1160	898	7.4	7.0	57	7	1.7
2025-10-10T12:00	1180	896	7.4	6.8	55	7	1.7
2025-10-10T12:00	1200	893	7.5	6.6	54	8	1.7
2025-10-10T12:00	1220	891	7.4	6.6	54	8	1.8
2025-10-10T12:00	1240	889	7.3	6.3	54	8	1.8
2025-10-10T12:00	1260	887	7.5	5.8	55	9	1.9
2025-10-10T12:00	1280	885	7.7	5.6	55	9	1.9
2025-10-10T12:00	1300	883	8.2	5.4	56	10	2.0
2025-10-10T12:00	1320	881	8.1	5.3	57	11	2.1
2025-10-10T12:00	1340	878	8.2	5.1	59	11	2.2
2025-10-10T12:00	1360	876	8.4	4.9	61	11	2.3
2025-10-10T12:00	1380	874	8.8	4.4	64	10	2.3
2025-10-10T12:00	1400	872	8.8	4.3	66	10	2.4
2025-10-10T12:00	1420	870	8.9	4.1	70	10	2.4
2025-10-10T12:00	1440	868	8.9	4.0	73	9	2.5
2025-10-10T12:00	1460	866	8.8	3.5	75	9	2.5
2025-10-10T12:00	1480	864	8.9	2.9	76	10	2.6
2025-10-10T12:00	1500	862	8.9	2.7	77	11	2.6
2025-10-10T12:00	1520	859	8.8	2.8	77	12	2.7
2025-10-10T12:00	1540	857	8.6	2.6	77	12	2.7
2025-10-10T12:00	1560	855	8.6	2.1	77	13	2.8
2025-10-10T12:00	1580	853	8.4	1.9	77	13	2.8
2025-10-10T12:00	1600	851	8.3	1.5	76	13	2.9
2025-10-10T12:00	1620	849	8.2	1.0	75	14	2.9
2025-10-10T12:00	1640	847	8.1	0.0	72	14	3.0
2025-10-10T12:00	1660	845	8.1	-1.8	69	14	3.1
2025-10-10T12:00	1680	843	8.8	-5.9	66	14	3.2
2025-10-10T12:00	1700	841	9.3	-7.7	62	14	3.4
2025-10-10T12:00	1720	839	9.3	-8.4	59	14	3.5
2025-10-10T12:00	1740	837	9.3	-8.2	56	13	3.6
2025-10-10T12:00	1760	835	9.3	-9.0	55	12	3.6
2025-10-10T12:00	1780	833	9.6	-7.3	54	11	3.7
2025-10-10T12:00	1800	831	9.8	-8.7	54	10	3.7
2025-10-10T12:00	1820	829	10.4	-18.0	56	9	3.7
2025-10-10T12:00	1840	827	10.7	-24.0	59	9	3.7
2025-10-10T12:00	1860	825	10.7	-15.9	63	8	3.7
2025-10-10T12:00	1880	823	10.8	-12.8	69	8	3.8
2025-10-10T12:00	1900	821	10.8	-7.6	74	8	3.9
2025-10-10T12:00	1920	819	10.7	-4.6	77	9	3.9
2025-10-10T12:00	1940	817	10.5	-4.5	78	9	3.8
2025-10-10T12:00	1960	815	10.4	-4.3	75	10	3.9
2025-10-10T12:00	1980	813	10.3	-5.1	72	11	3.8
2025-10-10T12:00	2000	811	10.4	-7.0	68	11	3.7
2025-10-10T12:00	2020	809	10.3	-7.4	66	11	3.7
2025-10-10T12:00	2040	807	10.3	-7.4	65	10	3.6
2025-10-10T12:00	2060	805	10.3	-7.6	65	10	3.6
2025-10-10T12:00	2080	804	10.4	-7.9	67	9	3.5
2025-10-10T12:00	2100	802	10.4	-8.3	68	9	3.5
2025-10-10T12:00	2120	800	10.4	-8.6	68	10	3.5
2025-10-10T12:00	2140	798	10.3	-8.8	66	10	3.5
2025-10-10T12:00	2160	796	10.2	-8.8	63	10	3.5
2025-10-10T12:00	2180	794	10.1	-8.8	59	10	3.5
2025-10-10T12:00	2200	792	9.9	-8.9	55	10	3.5
2025-10-10T12:00	2220	790	9.8	-9.2	53	9	3.4
2025-10-10T12:00	2240	788	9.7	-9.3	53	8	3.4
2025-10-10T12:00	2260	786	9.5	-9.5	55	8	3.4
2025-10-10T12:00	2280	784	9.4	-9.7	59	7	3.3
2025-10-10T12:00	2300	782	9.4	-9.8	65	7	3.3
2025-10-10T12:00	2320	781	9.2	-9.6	70	8	3.3
2025-10-10T12:00	2340	779	9.2	-9.6	73	8	3.3
2025-10-10T12:00	2360	777	9.0	-9.6	72	9	3.3
2025-10-10T12:00	2380	775	8.9	-9.8	70	9	3.3
2025-10-10T12:00	2400	773	8.7	-9.9	66	9	3.3
2025-10-10T12:00	2420	771	8.5	-9.7	61	9	3.2
2025-10-10T12:00	2440	769	8.3	-9.6	58	9	3.2
2025-10-10T12:00	2460	767	8.2	-9.7	57	8	3.2
2025-10-10T12:00	2480	766	8.2	-10.2	58	8	3.2
2025-10-10T12:00	2500	764	8.1	-10.9	61	8	3.2
2025-10-10T12:00	2520	762	7.9	-11.2	64	9	3.3
2025-10-10T12:00	2540	760	7.8	-11.8	66	9	3.3
2025-10-10T12:00	2560	758	7.9	-13.4	68	10	3.3
2025-10-10T12:00	2580	756	7.9	-16.1	69	10	3.4
2025-10-10T12:00	2600	754	7.9	-19.4	69	10	3.6
2025-10-10T12:00	2620	753	7.9	-18.7	68	10	3.7
2025-10-10T12:00	2640	751	7.8	-16.5	67	10	3.8
2025-10-10T12:00	2660	749	7.7	-12.8	66	10	3.8
2025-10-10T12:00	2680	747	7.6	-11.6	64	10	3.8
2025-10-10T12:00	2700	745	7.5	-11.0	62	10	3.8
2025-10-10T12:00	2720	744	7.3	-9.7	61	10	3.8
2025-10-10T12:00	2740	742	7.2	-9.1	60	9	3.7
2025-10-10T12:00	2760	740	7.1	-8.6	61	9	3.6
2025-10-10T12:00	2780	738	6.9	-8.2	63	8	3.6
2025-10-10T12:00	2800	736	6.7	-8.1	64	8	3.6
2025-10-10T12:00	2820	735	6.7	-8.2	66	8	3.5
2025-10-10T12:00	2840	733	6.6	-8.3	69	8	3.5
2025-10-10T12:00	2860	731	6.5	-8.0	70	7	3.5
2025-10-10T12:00	2880	729	6.3	-8.1	70	7	3.5
2025-10-10T12:00	2900	727	6.2	-8.2	69	8	3.5
2025-10-10T12:00	2920	725	5.9	-8.3	68	8	3.5
2025-10-10T12:00	2940	724	5.7	-8.5	68	8	3.5
2025-10-10T12:00	2960	722	5.6	-8.7	68	9	3.5
2025-10-10T12:00	2980	720	5.5	-9.3	68	9	3.6
2025-10-10T12:00	3000	719	5.4	-9.2	69	9	3.6
2025-10-10T12:00	3020	717	5.2	-9.2	68	9	3.5
2025-10-10T12:00	3040	715	5.0	-9.5	67	9	3.5
2025-10-10T12:00	3060	713	4.9	-9.4	65	9	3.5
2025-10-10T12:00	3080	711	4.7	-9.5	62	9	3.5
2025-10-10T12:00	3100	709	4.6	-9.6	60	9	3.4
2025-10-10T12:00	3120	708	4.6	-9.5	58	9	3.4
2025-10-10T12:00	3140	706	4.3	-9.6	57	9	3.4
2025-10-10T12:00	3160	705	4.2	-9.8	56	8	3.4
2025-10-10T12:00	3180	703	4.0	-9.8	58	8	3.4
2025-10-10T12:00	3200	701	3.9	-9.9	61	9	3.4
2025-10-10T12:00	3220	700	3.8	-9.9	63	9	3.4
2025-10-10T12:00	3240	698	3.6	-10.1	67	9	3.3
2025-10-10T12:00	3260	696	3.4	-10.1	68	9	3.3
2025-10-10T12:00	3280	694	3.2	-10.5	68	10	3.3
2025-10-10T12:00	3300	693	3.1	-11.9	66	10	3.3
2025-10-10T12:00	3320	691	2.8	-12.2	65	10	3.3
2025-10-10T12:00	3340	689	2.7	-12.4	63	9	3.3
2025-10-10T12:00	3360	687	2.6	-12.3	62	10	3.3
2025-10-10T12:00	3380	686	2.4	-12.2	61	10	3.3
2025-10-10T12:00	3400	684	2.3	-12.4	60	10	3.3
2025-10-10T12:00	3420	682	2.1	-12.0	59	10	3.3
2025-10-10T12:00	3440	680	1.8	-11.4	58	10	3.3
2025-10-10T12:00	3460	679	1.6	-11.5	57	10	3.3
2025-10-10T12:00	3480	677	1.5	-11.4	57	10	3.3
2025-10-10T12:00	3500	676	1.3	-11.6	59	10	3.3
2025-10-10T12:00	3520	674	1.2	-11.8	62	10	3.3
2025-10-10T12:00	3540	672	1.0	-12.0	66	9	3.3
2025-10-10T12:00	3560	671	0.9	-12.1	70	9	3.3
2025-10-10T12:00	3580	669	0.8	-12.5	74	9	3.3
2025-10-10T12:00	3600	667	0.7	-13.0	76	8	3.2
2025-10-10T12:00	3620	666	0.6	-13.1	76	7	3.3
2025-10-10T12:00	3640	664	0.5	-13.4	74	7	3.3
2025-10-10T12:00	3660	662	0.2	-13.2	71	6	3.3
2025-10-10T12:00	3680	661	0.1	-13.5	66	6	3.3
2025-10-10T12:00	3700	659	-0.1	-13.7	62	6	3.3
2025-10-10T12:00	3720	657	-0.1	-14.0	59	6	3.3
2025-10-10T12:00	3740	656	-0.4	-13.9	58	6	3.3
2025-10-10T12:00	3760	654	-0.6	-14.1	57	6	3.3
2025-10-10T12:00	3780	652	-0.7	-14.2	58	6	3.3
2025-10-10T12:00	3800	651	-0.9	-14.1	60	6	3.3
2025-10-10T12:00	3820	649	-1.0	-14.1	63	6	3.3
2025-10-10T12:00	3840	648	-1.3	-14.1	66	6	3.3
2025-10-10T12:00	3860	646	-1.5	-14.2	69	6	3.2
2025-10-10T12:00	3880	644	-1.6	-14.2	71	6	3.2
2025-10-10T12:00	3900	642	-1.8	-14.3	72	6	3.2
2025-10-10T12:00	3920	641	-2.0	-14.7	71	5	3.2
2025-10-10T12:00	3940	639	-2.0	-15.1	70	5	3.2
2025-10-10T12:00	3960	638	-2.1	-15.3	68	5	3.2
2025-10-10T12:00	3980	636	-2.3	-15.6	68	5	3.2
2025-10-10T12:00	4000	635	-2.3	-16.1	67	5	3.2
2025-10-10T12:00	4020	633	-2.3	-16.7	65	6	3.2
2025-10-10T12:00	4040	631	-2.4	-17.4	63	6	3.2
2025-10-10T12:00	4060	630	-2.4	-18.1	61	7	3.2
2025-10-10T12:00	4080	628	-2.5	-18.3	58	7	3.2
2025-10-10T12:00	4100	627	-2.6	-18.5	55	7	3.2
2025-10-10T12:00	4120	625	-2.8	-18.7	54	7	3.2
2025-10-10T12:00	4140	623	-3.0	-18.7	54	7	3.2
2025-10-10T12:00	4160	622	-3.2	-19.0	55	7	3.2
2025-10-10T12:00	4180	620	-3.4	-19.2	55	7	3.2
2025-10-10T12:00	4200	619	-3.6	-19.7	55	7	3.2
2025-10-10T12:00	4220	617	-3.6	-21.7	53	7	3.2
2025-10-10T12:00	4240	616	-3.6	-26.3	51	7	3.2
2025-10-10T12:00	4260	614	-3.7	-28.2	49	8	3.2
2025-10-10T12:00	4280	612	-3.8	-28.2	48	8	3.1
2025-10-10T12:00	4300	611	-3.9	-27.4	47	9	3.1
2025-10-10T12:00	4320	609	-4.0	-27.5	47	9	3.1
2025-10-10T12:00	4340	608	-4.2	-27.1	47	9	3.1
2025-10-10T12:00	4360	606	-4.4	-26.4	47	9	3.1
2025-10-10T12:00	4380	605	-4.5	-23.8	48	9	3.1
2025-10-10T12:00	4400	603	-4.6	-22.0	49	9	3.1
2025-10-10T12:00	4420	602	-4.9	-20.1	49	9	3.1
2025-10-10T12:00	4440	600	-5.0	-18.7	49	9	3.1
2025-10-10T12:00	4460	599	-5.3	-18.2	50	9	3.1
2025-10-10T12:00	4480	597	-5.3	-18.7	51	9	3.1
2025-10-10T12:00	4500	596	-5.5	-19.8	53	9	3.1
2025-10-10T12:00	4520	594	-5.6	-21.1	55	9	3.1
2025-10-10T12:00	4540	592	-5.7	-22.7	57	9	3.1
2025-10-10T12:00	4560	591	-5.7	-23.3	60	9	3.0
2025-10-10T12:00	4580	590	-5.9	-24.0	62	9	3.1
2025-10-10T12:00	4600	588	-6.0	-23.4	64	9	3.0
2025-10-10T12:00	4620	587	-6.2	-20.3	65	9	3.0
2025-10-10T12:00	4640	585	-6.3	-19.0	65	9	2.9
2025-10-10T12:00	4660	584	-6.5	-17.7	65	9	2.9
2025-10-10T12:00	4680	582	-6.6	-17.6	64	9	2.8
2025-10-10T12:00	4700	581	-6.8	-17.9	64	9	2.8
2025-10-10T12:00	4720	579	-6.9	-18.5	64	9	2.7
2025-10-10T12:00	4740	578	-6.8	-19.2	65	9	2.7
2025-10-10T12:00	4760	576	-6.9	-19.6	65	8	2.7
2025-10-10T12:00	4780	575	-7.0	-19.9	64	8	2.7
2025-10-10T12:00	4800	573	-7.2	-20.4	63	8	2.7
2025-10-10T12:00	4820	572	-7.3	-20.8	61	8	2.7
2025-10-10T12:00	4840	570	-7.4	-21.5	59	8	2.7
2025-10-10T12:00	4860	569	-7.4	-21.8	57	8	2.6
2025-10-10T12:00	4880	567	-7.6	-21.7	57	8	2.6
2025-10-10T12:00	4900	566	-7.7	-21.5	57	9	2.6
2025-10-10T12:00	4920	564	-7.9	-21.3	59	9	2.6
2025-10-10T12:00	4940	563	-7.9	-20.9	60	9	2.6
2025-10-10T12:00	4960	561	-8.1	-20.4	63	9	2.5
2025-10-10T12:00	4980	560	-8.2	-20.3	65	9	2.5
2025-10-10T12:00	5000	559	-8.3	-20.6	67	9	2.6
2025-10-10T12:00	5020	557	-8.4	-20.7	69	8	2.6
2025-10-10T12:00	5040	556	-8.6	-20.8	71	8	2.5
2025-10-10T12:00	5060	554	-8.7	-21.0	70	8	2.5
2025-10-10T12:00	5080	553	-8.8	-21.1	69	8	2.5
2025-10-10T12:00	5100	552	-8.9	-21.4	67	8	2.5
2025-10-10T12:00	5120	550	-8.9	-22.1	65	8	2.5
2025-10-10T12:00	5140	549	-9.0	-22.2	63	8	2.5
2025-10-10T12:00	5160	547	-9.1	-22.5	62	8	2.4
2025-10-10T12:00	5180	546	-9.2	-22.7	61	8	2.4
2025-10-10T12:00	5200	544	-9.3	-22.8	60	8	2.4
2025-10-10T12:00	5220	543	-9.4	-23.0	60	8	2.4
2025-10-10T12:00	5240	542	-9.4	-23.0	59	8	2.4
2025-10-10T12:00	5260	540	-9.6	-23.3	59	8	2.4
2025-10-10T12:00	5280	539	-9.7	-23.4	57	8	2.4
2025-10-10T12:00	5300	537	-10.0	-23.4	55	8	2.4
2025-10-10T12:00	5320	536	-10.1	-23.7	53	9	2.4
2025-10-10T12:00	5340	535	-10.2	-23.8	50	9	2.4
2025-10-10T12:00	5360	533	-10.4	-23.6	49	9	2.3
2025-10-10T12:00	5380	532	-10.5	-23.0	48	9	2.3
2025-10-10T12:00	5400	530	-10.6	-22.7	48	9	2.3
2025-10-10T12:00	5420	529	-10.7	-22.7	48	9	2.3
2025-10-10T12:00	5440	528	-10.8	-23.1	48	9	2.3
2025-10-10T12:00	5460	526	-10.9	-23.4	49	9	2.3
2025-10-10T12:00	5480	525	-11.1	-23.5	50	9	2.3
2025-10-10T12:00	5500	524	-11.2	-22.2	50	10	2.3
2025-10-10T12:00	5520	522	-11.4	-21.7	51	10	2.3
2025-10-10T12:00	5540	521	-11.5	-21.9	51	10	2.3
2025-10-10T12:00	5560	519	-11.7	-21.5	51	10	2.3
2025-10-10T12:00	5580	518	-11.8	-21.2	52	10	2.4
2025-10-10T12:00	5600	517	-12.1	-20.8	52	11	2.3
2025-10-10T12:00	5620	515	-12.2	-20.7	54	11	2.3
2025-10-10T12:00	5640	514	-12.4	-20.7	55	11	2.3
2025-10-10T12:00	5660	513	-12.6	-20.7	56	11	2.3
2025-10-10T12:00	5680	511	-12.8	-20.7	56	11	2.3
2025-10-10T12:00	5700	510	-13.0	-20.8	55	11	2.3
2025-10-10T12:00	5720	509	-13.1	-20.8	54	11	2.3
2025-10-10T12:00	5740	507	-13.3	-20.8	53	11	2.2
2025-10-10T12:00	5760	506	-13.4	-20.9	53	11	2.2
2025-10-10T12:00	5780	505	-13.6	-21.0	53	11	2.2
2025-10-10T12:00	5800	503	-13.7	-21.1	54	11	2.2
2025-10-10T12:00	5820	502	-13.9	-21.2	55	10	2.2
2025-10-10T12:00	5840	501	-14.1	-21.3	56	10	2.2
2025-10-10T12:00	5860	500	-14.2	-21.5	56	10	2.2
2025-10-10T12:00	5880	498	-14.4	-21.7	56	10	2.2
2025-10-10T12:00	5900	497	-14.5	-22.0	56	10	2.2
2025-10-10T12:00	5920	496	-14.6	-22.3	56	10	2.2
2025-10-10T12:00	5940	494	-14.6	-22.8	55	10	2.2
2025-10-10T12:00	5960	493	-14.8	-23.1	54	10	2.1
2025-10-10T12:00	5980	492	-14.9	-23.3	53	10	2.2
2025-10-10T12:00	6000	490	-15.1	-23.3	52	10	2.2
2025-10-10T12:00	6020	489	-15.2	-23.4	51	10	2.1
2025-10-10T12:00	6040	488	-15.2	-23.7	51	10	2.1
2025-10-10T12:00	6060	486	-15.3	-23.8	51	11	2.1
2025-10-10T12:00	6080	485	-15.4	-23.5	51	11	2.1
2025-10-10T12:00	6100	484	-15.7	-23.5	51	11	2.1
2025-10-10T12:00	6120	483	-15.9	-23.7	52	11	2.1
2025-10-10T12:00	6140	481	-16.0	-23.6	52	11	2.1
2025-10-10T12:00	6160	480	-16.1	-23.5	53	11	2.2
2025-10-10T12:00	6180	479	-16.1	-23.6	54	11	2.1
2025-10-10T12:00	6200	477	-16.4	-23.6	55	11	2.1
2025-10-10T12:00	6220	476	-16.6	-23.8	56	11	2.1
2025-10-10T12:00	6240	475	-16.8	-24.0	57	11	2.1
2025-10-10T12:00	6260	474	-16.9	-24.3	58	11	2.1
2025-10-10T12:00	6280	472	-17.0	-24.4	58	11	2.1
2025-10-10T12:00	6300	471	-17.3	-24.6	58	11	2.1
2025-10-10T12:00	6320	470	-17.4	-24.8	57	11	2.1
2025-10-10T12:00	6340	469	-17.6	-24.8	57	12	2.1
2025-10-10T12:00	6360	467	-17.8	-25.2	57	12	2.1
2025-10-10T12:00	6380	466	-17.9	-25.7	57	12	2.1
2025-10-10T12:00	6400	465	-17.9	-26.1	57	12	2.1
2025-10-10T12:00	6420	464	-18.0	-25.9	57	12	2.1
2025-10-10T12:00	6440	462	-18.0	-26.1	57	12	2.1
2025-10-10T12:00	6460	461	-18.2	-26.1	56	13	2.1
2025-10-10T12:00	6480	460	-18.5	-26.0	56	13	2.1
2025-10-10T12:00	6500	459	-18.6	-26.2	55	13	2.1
2025-10-10T12:00	6520	457	-18.8	-26.1	55	13	2.1
2025-10-10T12:00	6540	456	-18.9	-26.2	54	13	2.1
2025-10-10T12:00	6560	455	-19.2	-26.2	54	13	2.1
2025-10-10T12:00	6580	454	-19.4	-26.6	54	13	2.1
2025-10-10T12:00	6600	453	-19.5	-26.6	54	13	2.1
2025-10-10T12:00	6620	451	-19.7	-26.5	54	13	2.1
2025-10-10T12:00	6640	450	-19.8	-26.7	53	13	2.1
2025-10-10T12:00	6660	449	-20.0	-26.8	52	13	2.0
2025-10-10T12:00	6680	448	-20.2	-26.9	51	13	2.0
2025-10-10T12:00	6700	447	-20.4	-26.9	51	13	2.0
2025-10-10T12:00	6720	445	-20.4	-26.9	50	13	2.0
2025-10-10T12:00	6740	444	-20.7	-26.9	50	13	2.0
2025-10-10T12:00	6760	443	-21.0	-27.1	50	13	2.0
2025-10-10T12:00	6780	442	-21.0	-27.3	49	13	2.0
2025-10-10T12:00	6800	441	-21.2	-27.3	48	13	2.0
2025-10-10T12:00	6820	439	-21.3	-27.4	48	13	2.0
2025-10-10T12:00	6840	438	-21.4	-27.6	47	13	2.0
2025-10-10T12:00	6860	437	-21.5	-27.9	47	13	2.0
2025-10-10T12:00	6880	436	-21.6	-28.2	47	13	2.0
2025-10-10T12:00	6900	435	-21.7	-28.3	47	13	2.0
2025-10-10T12:00	6920	433	-21.7	-28.5	47	12	2.0
2025-10-10T12:00	6940	432	-21.9	-28.6	46	12	2.0
2025-10-10T12:00	6960	431	-22.0	-29.1	45	12	2.0
2025-10-10T12:00	6980	430	-22.2	-29.9	44	12	2.0
2025-10-10T12:00	7000	429	-22.2	-30.2	42	12	2.0
2025-10-10T12:00	7020	428	-22.4	-30.4	42	12	2.0
2025-10-10T12:00	7040	426	-22.5	-30.5	41	12	2.0
2025-10-10T12:00	7060	425	-22.7	-30.4	40	12	2.0
2025-10-10T12:00	7080	424	-22.9	-30.9	40	12	2.0
2025-10-10T12:00	7100	423	-23.0	-31.4	39	12	2.0
2025-10-10T12:00	7120	422	-23.1	-31.2	38	12	2.0
2025-10-10T12:00	7140	421	-23.3	-31.6	38	12	2.0
2025-10-10T12:00	7160	419	-23.5	-32.0	37	12	2.0
2025-10-10T12:00	7180	418	-23.6	-31.7	37	12	1.9
2025-10-10T12:00	7200	417	-23.7	-31.2	36	12	1.9
2025-10-10T12:00	7220	416	-23.9	-31.2	37	12	1.9
2025-10-10T12:00	7240	415	-23.9	-32.5	37	13	1.9
2025-10-10T12:00	7260	414	-24.1	-32.8	38	13	1.9
2025-10-10T12:00	7280	413	-24.2	-32.9	39	13	1.9
2025-10-10T12:00	7300	412	-24.4	-32.8	40	14	1.9
2025-10-10T12:00	7320	410	-24.5	-33.0	41	14	1.9
2025-10-10T12:00	7340	409	-24.7	-33.1	42	14	1.9
2025-10-10T12:00	7360	408	-24.8	-33.3	43	14	1.9
2025-10-10T12:00	7380	407	-24.9	-33.5	44	14	1.9
2025-10-10T12:00	7400	406	-25.1	-33.8	44	14	1.9
2025-10-10T12:00	7420	405	-25.1	-34.3	45	15	1.9
2025-10-10T12:00	7440	404	-25.3	-34.6	47	15	2.0
2025-10-10T12:00	7460	402	-25.3	-35.6	47	15	2.0
2025-10-10T12:00	7480	401	-25.4	-36.4	48	16	1.9
2025-10-10T12:00	7500	400	-25.6	-36.5	48	16	1.9
2025-10-10T12:00	7520	399	-25.7	-36.6	48	16	1.9
2025-10-10T12:00	7540	398	-25.9	-36.4	48	15	1.9
2025-10-10T12:00	7560	397	-26.1	-36.3	48	15	1.9
2025-10-10T12:00	7580	396	-26.3	-36.5	48	15	1.9
2025-10-10T12:00	7600	395	-26.5	-36.6	48	15	1.9
2025-10-10T12:00	7620	394	-26.6	-36.6	48	15	1.9
2025-10-10T12:00	7640	393	-26.8	-36.6	48	16	1.9
2025-10-10T12:00	7660	392	-27.0	-36.5	47	16	1.9
2025-10-10T12:00	7680	390	-27.2	-36.6	46	16	1.8
2025-10-10T12:00	7700	389	-27.3	-36.6	46	16	1.8
2025-10-10T12:00	7720	388	-27.5	-36.5	46	17	1.8
2025-10-10T12:00	7740	387	-27.6	-36.7	46	17	1.8
2025-10-10T12:00	7760	386	-27.8	-37.0	47	17	1.8
2025-10-10T12:00	7780	385	-27.9	-37.8	47	17	1.8
2025-10-10T12:00	7800	384	-27.9	-37.7	47	17	1.8
2025-10-10T12:00	7820	383	-28.2	-38.0	46	17	1.8
2025-10-10T12:00	7840	382	-28.4	-38.1	45	17	1.8
2025-10-10T12:00	7860	381	-28.5	-38.5	44	17	1.8
2025-10-10T12:00	7880	380	-28.6	-38.4	43	17	1.8
2025-10-10T12:00	7900	379	-28.8	-38.7	43	17	1.8
2025-10-10T12:00	7920	378	-29.0	-38.9	43	17	1.8
2025-10-10T12:00	7940	377	-29.2	-38.9	42	17	1.8
2025-10-10T12:00	7960	376	-29.4	-39.1	42	17	1.8
2025-10-10T12:00	7980	374	-29.6	-39.0	41	17	1.8
2025-10-10T12:00	8000	373	-29.8	-39.5	41	17	1.8
2025-10-10T12:00	8020	372	-29.8	-39.7	41	17	1.8
2025-10-10T12:00	8040	371	-30.0	-39.8	42	17	1.8
2025-10-10T12:00	8060	370	-30.1	-40.0	43	17	1.8
2025-10-10T12:00	8080	369	-30.3	-40.6	45	17	1.8
2025-10-10T12:00	8100	368	-30.3	-42.3	46	17	1.8
2025-10-10T12:00	8120	367	-30.5	-42.9	47	17	1.9
2025-10-10T12:00	8140	366	-30.6	-43.7	48	16	1.9
2025-10-10T12:00	8160	365	-30.7	-44.8	49	16	1.9
2025-10-10T12:00	8180	364	-30.9	-45.0	49	16	1.9
2025-10-10T12:00	8200	363	-31.0	-45.7	49	16	1.9
2025-10-10T12:00	8220	362	-31.2	-46.6	50	16	1.9
2025-10-10T12:00	8240	361	-31.3	-46.7	51	16	1.9
2025-10-10T12:00	8260	360	-31.4	-47.5	52	16	1.9
2025-10-10T12:00	8280	359	-31.6	-49.4	53	16	1.9
2025-10-10T12:00	8300	358	-31.7	-50.7	54	16	1.9
2025-10-10T12:00	8320	357	-31.9	-50.8	56	16	1.9
2025-10-10T12:00	8340	356	-32.0	-51.3	57	16	1.9
2025-10-10T12:00	8360	355	-32.3	-51.1	58	16	1.9
2025-10-10T12:00	8380	354	-32.4	-51.8	58	16	1.9
2025-10-10T12:00	8400	353	-32.7	-51.8	58	16	1.9
2025-10-10T12:00	8420	352	-32.8	-52.1	57	16	1.9
2025-10-10T12:00	8440	351	-33.0	-52.2	57	17	1.9
2025-10-10T12:00	8460	350	-33.1	-52.6	56	17	1.9
2025-10-10T12:00	8480	349	-33.3	-52.5	56	17	1.9
2025-10-10T12:00	8500	348	-33.5	-52.9	55	17	1.9
2025-10-10T12:00	8520	347	-33.6	-53.0	55	17	1.9
2025-10-10T12:00	8540	346	-33.7	-52.9	55	17	1.8
2025-10-10T12:00	8560	345	-33.9	-53.5	54	18	1.8
2025-10-10T12:00	8580	344	-34.0	-54.0	54	18	1.8
2025-10-10T12:00	8600	343	-34.2	-53.7	54	18	1.8
2025-10-10T12:00	8620	342	-34.4	-53.8	54	18	1.8
2025-10-10T12:00	8640	341	-34.5	-54.1	54	18	1.8
2025-10-10T12:00	8660	340	-34.8	-54.1	54	18	1.8
2025-10-10T12:00	8680	339	-34.9	-54.2	54	18	1.8
2025-10-10T12:00	8700	338	-35.0	-54.3	54	19	1.8
2025-10-10T12:00	8720	337	-35.2	-54.0	55	19	1.8
2025-10-10T12:00	8740	336	-35.3	-53.6	55	19	1.8
2025-10-10T12:00	8760	335	-35.6	-53.6	55	19	1.8
2025-10-10T12:00	8780	334	-35.8	-53.4	54	20	1.8
2025-10-10T12:00	8800	333	-36.0	-53.4	54	20	1.8
2025-10-10T12:00	8820	332	-36.3	-53.6	54	20	1.8
2025-10-10T12:00	8840	331	-36.5	-53.7	54	20	1.8
2025-10-10T12:00	8860	330	-36.6	-54.0	55	20	1.8
2025-10-10T12:00	8880	329	-36.8	-53.7	55	20	1.8
2025-10-10T12:00	8900	329	-36.9	-53.4	56	20	1.8
2025-10-10T12:00	8920	328	-37.0	-53.7	56	20	1.8
2025-10-10T12:00	8940	327	-37.2	-54.0	57	19	1.8
2025-10-10T12:00	8960	326	-37.5	-53.9	57	19	1.8
2025-10-10T12:00	8980	325	-37.6	-54.4	57	19	1.8
2025-10-10T12:00	9000	324	-37.7	-54.5	58	19	1.8
2025-10-10T12:00	9020	323	-37.9	-54.1	58	19	1.8
2025-10-10T12:00	9040	322	-38.2	-54.0	57	19	1.8
2025-10-10T12:00	9060	321	-38.3	-54.3	57	19	1.8
2025-10-10T12:00	9080	320	-38.4	-54.9	57	19	1.8
2025-10-10T12:00	9100	319	-38.6	-54.9	57	19	1.8
2025-10-10T12:00	9120	318	-38.7	-54.8	57	18	1.8
2025-10-10T12:00	9140	317	-38.9	-54.8	57	18	1.7
2025-10-10T12:00	9160	316	-39.2	-54.7	57	18	1.7
2025-10-10T12:00	9180	315	-39.4	-54.7	57	18	1.8
2025-10-10T12:00	9200	314	-39.6	-54.8	57	18	1.8
2025-10-10T12:00	9220	314	-39.7	-55.3	57	18	1.7
2025-10-10T12:00	9240	313	-39.8	-55.7	57	18	1.7
2025-10-10T12:00	9260	312	-40.1	-55.5	58	17	1.7
2025-10-10T12:00	9280	311	-40.2	-55.6	58	17	1.7
2025-10-10T12:00	9300	310	-40.4	-55.7	59	17	1.7
2025-10-10T12:00	9320	309	-40.4	-56.2	59	18	1.7
2025-10-10T12:00	9340	308	-40.6	-56.8	59	18	1.7
2025-10-10T12:00	9360	307	-40.7	-57.2	59	18	1.7
2025-10-10T12:00	9380	306	-40.8	-57.8	59	18	1.7
2025-10-10T12:00	9400	305	-41.0	-57.8	59	18	1.7
2025-10-10T12:00	9420	305	-41.1	-57.7	60	19	1.7
2025-10-10T12:00	9440	304	-41.3	-57.5	60	19	1.7
2025-10-10T12:00	9460	303	-41.4	-57.5	61	20	1.7
2025-10-10T12:00	9480	302	-41.7	-57.6	62	20	1.7
2025-10-10T12:00	9500	301	-41.9	-57.6	63	20	1.7
2025-10-10T12:00	9520	300	-42.1	-58.0	63	20	1.7
2025-10-10T12:00	9540	299	-42.3	-58.0	63	20	1.7
2025-10-10T12:00	9560	298	-42.4	-57.7	63	20	1.7
2025-10-10T12:00	9580	297	-42.6	-58.0	62	20	1.7
2025-10-10T12:00	9600	296	-42.8	-57.9	61	21	1.7
2025-10-10T12:00	9620	296	-42.9	-58.0	61	21	1.7
2025-10-10T12:00	9640	295	-43.2	-58.3	61	21	1.7
2025-10-10T12:00	9660	294	-43.3	-58.7	60	21	1.7
2025-10-10T12:00	9680	293	-43.5	-59.3	61	21	1.7
2025-10-10T12:00	9700	292	-43.7	-59.4	61	22	1.7
2025-10-10T12:00	9720	291	-43.7	-59.8	62	22	1.7
2025-10-10T12:00	9740	290	-43.9	-60.0	62	22	1.7
2025-10-10T12:00	9760	290	-44.1	-59.7	62	22	1.7
2025-10-10T12:00	9780	289	-44.2	-60.0	62	22	1.7
2025-10-10T12:00	9800	288	-44.4	-60.3	62	22	1.7
2025-10-10T12:00	9820	287	-44.6	-60.5	61	22	1.6
2025-10-10T12:00	9840	286	-44.8	-60.3	61	22	1.7
2025-10-10T12:00	9860	285	-44.9	-60.3	61	22	1.6
2025-10-10T12:00	9880	284	-45.1	-60.4	61	21	1.6
2025-10-10T12:00	9900	284	-45.3	-60.4	60	21	1.6
2025-10-10T12:00	9920	283	-45.5	-60.3	60	21	1.6
2025-10-10T12:00	9940	282	-45.5	-60.8	60	21	1.6
2025-10-10T12:00	9960	281	-45.8	-61.0	60	20	1.6
2025-10-10T12:00	9980	280	-46.0	-60.8	60	20	1.6
2025-10-10T12:00	10000	279	-46.2	-60.7	61	20	1.6
2025-10-10T12:00	10018	279	-46.3	-60.8	61	20	1.6
2025-10-10T12:00	10050	277	-46.6	-60.6	62	20	1.6
2025-10-10T12:00	10100	275	-47.0	-60.2	60	20	1.6
2025-10-10T12:00	10150	273	-47.5	-61.2	58	21	1.6
2025-10-10T12:00	10200	271	-47.9	-60.6	59	21	1.6
2025-10-10T12:00	10250	269	-48.2	-60.2	60	22	1.5
2025-10-10T12:00	10300	267	-48.7	-60.4	61	21	1.5
2025-10-10T12:00	10350	265	-49.2	-59.2	60	21	1.5
2025-10-10T12:00	10400	263	-49.7	-58.9	59	21	1.5
2025-10-10T12:00	10450	261	-50.1	-59.2	57	20	1.5
2025-10-10T12:00	10500	259	-50.5	-57.0	56	20	1.5
2025-10-10T12:00	10550	257	-51.0	-55.3	57	20	1.5
2025-10-10T12:00	10600	255	-51.5	-56.3	57	20	1.5
2025-10-10T12:00	10650	253	-51.8	-56.6	57	20	1.5
2025-10-10T12:00	10700	251	-52.2	-57.0	58	20	1.5
2025-10-10T12:00	10750	249	-52.7	-57.7	59	20	1.4
2025-10-10T12:00	10800	247	-53.1	-57.9	60	20	1.4
2025-10-10T12:00	10850	245	-53.5	-58.5	61	19	1.4
2025-10-10T12:00	10900	243	-53.9	-58.8	61	18	1.4
2025-10-10T12:00	10950	242	-54.4	-59.4	60	18	1.3
2025-10-10T12:00	11000	240	-54.8	-59.6	61	18	1.3
2025-10-10T12:00	11050	238	-55.2	-60.4	62	18	1.3
2025-10-10T12:00	11100	236	-55.7	-61.1	60	18	1.2
2025-10-10T12:00	11150	234	-56.1	-61.2	58	18	1.2
2025-10-10T12:00	11200	232	-56.6	-61.4	57	19	1.2
2025-10-10T12:00	11250	230	-57.0	-61.7	57	19	1.2
2025-10-10T12:00	11300	229	-57.3	-62.3	57	18	1.1
2025-10-10T12:00	11350	227	-57.7	-62.9	56	18	1.1
2025-10-10T12:00	11400	225	-58.2	-63.4	55	18	1.0
2025-10-10T12:00	11450	223	-58.5	-63.9	56	18	1.0
2025-10-10T12:00	11500	221	-59.0	-64.2	56	18	1.0
2025-10-10T12:00	11550	220	-59.4	-64.5	56	17	1.0
2025-10-10T12:00	11600	218	-59.8	-65.3	56	17	1.0
2025-10-10T12:00	11650	216	-60.2	-65.8	56	17	0.9
2025-10-10T12:00	11700	214	-60.7	-66.0	57	17	0.9
2025-10-10T12:00	11750	213	-61.0	-66.2	58	17	0.9
2025-10-10T12:00	11800	211	-61.4	-66.7	58	16	0.9
2025-10-10T12:00	11850	209	-61.8	-67.3	56	16	0.9
2025-10-10T12:00	11900	208	-62.1	-68.2	55	16	0.9
2025-10-10T12:00	11950	206	-62.4	-68.6	54	16	0.9
2025-10-10T12:00	12000	204	-62.7	-68.9	55	16	0.9
2025-10-10T12:00	12050	203	-63.2	-69.2	57	15	0.9
2025-10-10T12:00	12100	201	-63.6	-69.6	62	15	0.9
2025-10-10T12:00	12150	199	-63.8	-69.9	63	15	0.8
2025-10-10T12:00	12200	198	-63.9	-69.8	60	15	0.9
2025-10-10T12:00	12250	196	-64.0	-69.5	59	15	1.1
2025-10-10T12:00	12300	194	-63.3	-69.1	62	14	1.3
2025-10-10T12:00	12350	193	-63.0	-69.3	67	13	1.5
2025-10-10T12:00	12400	191	-63.3	-69.6	68	11	1.7
2025-10-10T12:00	12450	190	-63.5	-69.4	61	9	1.8
2025-10-10T12:00	12500	188	-63.5	-69.9	48	9	1.9
2025-10-10T12:00	12550	187	-63.2	-71.5	32	10	1.9
2025-10-10T12:00	12600	185	-62.0	-74.8	23	12	2.0
2025-10-10T12:00	12650	184	-60.7	-77.4	21	14	2.2
2025-10-10T12:00	12700	182	-60.5	-77.7	23	15	2.4
2025-10-10T12:00	12750	181	-60.7	-77.2	25	17	2.5
2025-10-10T12:00	12800	179	-60.9	-76.8	28	18	2.5
2025-10-10T12:00	12850	178	-61.0	-76.7	30	19	2.5
2025-10-10T12:00	12900	177	-60.9	-76.9	33	20	2.5
2025-10-10T12:00	12950	175	-60.3	-77.4	38	19	2.5
2025-10-10T12:00	13000	174	-60.1	-78.1	45	17	2.5
2025-10-10T12:00	13050	172	-59.9	-78.6	51	16	2.5
2025-10-10T12:00	13100	171	-59.5	-79.2	56	14	2.6
2025-10-10T12:00	13150	170	-59.7	-79.5	60	12	2.6
2025-10-10T12:00	13200	168	-60.0	-79.5	61	11	2.6
2025-10-10T12:00	13250	167	-60.4	-79.6	58	10	2.6
2025-10-10T12:00	13300	166	-60.7	-79.7	52	9	2.6
2025-10-10T12:00	13350	164	-60.9	-79.7	44	9	2.6
2025-10-10T12:00	13400	163	-61.1	-80.1	36	8	2.5
2025-10-10T12:00	13450	162	-60.9	-80.8	30	7	2.5
2025-10-10T12:00	13500	160	-60.4	-81.4	28	6	2.6
2025-10-10T12:00	13550	159	-60.6	-81.9	31	5	2.6
2025-10-10T12:00	13600	158	-60.9	-82.0	35	4	2.6
2025-10-10T12:00	13650	157	-60.9	-82.1	44	3	2.6
2025-10-10T12:00	13700	155	-61.1	-82.3	64	2	2.6
2025-10-10T12:00	13750	154	-61.4	-82.4	71	2	2.5
2025-10-10T12:00	13800	153	-61.4	-82.5	49	2	2.5
2025-10-10T12:00	13850	152	-61.2	-82.6	27	3	2.4
2025-10-10T12:00	13900	150	-61.4	-82.6	16	4	2.3
2025-10-10T12:00	13950	149	-61.7	-82.8	7	6	2.3
2025-10-10T12:00	14000	148	-61.5	-83.0	0	7	2.3
2025-10-10T12:00	14050	147	-61.1	-83.3	358	8	2.5
2025-10-10T12:00	14100	146	-60.8	-83.8	358	8	2.6
2025-10-10T12:00	14150	144	-60.9	-84.3	358	8	2.7
2025-10-10T12:00	14200	143	-61.3	-84.4	360	8	2.6
2025-10-10T12:00	14250	142	-61.7	-84.4	4	8	2.5
2025-10-10T12:00	14300	141	-61.9	-84.3	7	7	2.5
2025-10-10T12:00	14350	140	-62.2	-84.4	9	7	2.5
2025-10-10T12:00	14400	139	-62.2	-84.6	13	6	2.4
2025-10-10T12:00	14450	138	-62.3	-84.9	20	5	2.3
2025-10-10T12:00	14500	136	-62.3	-85.1	22	4	2.3
2025-10-10T12:00	14550	135	-62.1	-85.3	7	3	2.2
2025-10-10T12:00	14600	134	-61.7	-85.3	347	4	2.2
2025-10-10T12:00	14650	133	-61.9	-85.4	340	5	2.2
2025-10-10T12:00	14700	132	-62.0	-85.3	337	5	2.3
2025-10-10T12:00	14750	131	-62.5	-85.4	336	6	2.3
2025-10-10T12:00	14800	130	-62.8	-85.4	341	7	2.3
2025-10-10T12:00	14850	129	-62.8	-85.4	348	9	2.4
2025-10-10T12:00	14900	128	-62.6	-85.5	354	10	2.4
2025-10-10T12:00	14950	127	-62.4	-85.6	359	10	2.5
2025-10-10T12:00	15000	126	-62.2	-85.7	4	10	2.6
2025-10-10T12:00	15050	125	-62.2	-85.8	9	10	2.7
2025-10-10T12:00	15100	124	-62.2	-86.0	17	9	2.7
2025-10-10T12:00	15150	123	-61.8	-86.1	23	7	2.8
2025-10-10T12:00	15200	122	-61.8	-86.2	27	7	3.0
2025-10-10T12:00	15250	121	-61.8	-86.1	30	7	3.1
2025-10-10T12:00	15300	120	-62.0	-86.1	32	8	3.3
2025-10-10T12:00	15350	119	-62.1	-86.3	32	7	3.4
2025-10-10T12:00	15400	118	-62.0	-86.1	34	6	3.5
2025-10-10T12:00	15450	117	-62.4	-86.2	33	5	3.4
2025-10-10T12:00	15500	116	-62.7	-86.2	24	4	3.4
2025-10-10T12:00	15550	115	-63.0	-86.2	6	3	3.3
2025-10-10T12:00	15600	114	-63.3	-86.3	348	3	3.2
2025-10-10T12:00	15650	113	-63.7	-86.3	343	4	3.0
2025-10-10T12:00	15700	112	-63.9	-86.4	347	5	2.9
2025-10-10T12:00	15750	111	-63.9	-86.5	355	6	2.9
2025-10-10T12:00	15800	110	-63.7	-86.5	4	6	2.9
2025-10-10T12:00	15850	110	-63.6	-86.6	10	6	3.1
2025-10-10T12:00	15900	109	-63.8	-86.7	11	6	3.2
2025-10-10T12:00	15950	108	-63.9	-86.7	3	6	3.4
2025-10-10T12:00	16000	107	-64.2	-87.0	353	5	3.7
2025-10-10T12:00	16050	106	-64.3	-87.1	342	5	4.1
2025-10-10T12:00	16100	105	-64.4	-87.3	334	5	4.5
2025-10-10T12:00	16150	104	-64.7	-87.4	332	5	4.8
2025-10-10T12:00	16200	104	-64.9	-87.3	334	6	5.0
2025-10-10T12:00	16250	103	-65.1	-87.2	334	7	5.0
2025-10-10T12:00	16300	102	-65.4	-87.3	337	6	4.8
2025-10-10T12:00	16350	101	-65.4	-87.3	341	6	4.7
2025-10-10T12:00	16400	100	-65.3	-87.3	344	6	4.6
2025-10-10T12:00	16450	99	-65.3	-87.4	347	6	4.6
2025-10-10T12:00	16500	99	-65.3	-87.5	350	5	4.5
2025-10-10T12:00	16550	98	-65.3	-87.7	347	5	4.5
2025-10-10T12:00	16600	97	-64.9	-88.0	337	6	4.5
2025-10-10T12:00	16650	96	-64.8	-88.6	331	7	5.2
2025-10-10T12:00	16700	95	-64.9	-88.8	330	8	6.2
2025-10-10T12:00	16750	95	-65.2	-88.7	330	8	6.6
2025-10-10T12:00	16800	94	-65.4	-88.6	331	9	6.8
2025-10-10T12:00	16850	93	-65.2	-88.5	335	10	6.5
2025-10-10T12:00	16900	92	-64.9	-88.5	342	10	6.0
2025-10-10T12:00	16950	92	-64.7	-88.7	351	10	5.7
2025-10-10T12:00	17000	91	-64.6	-89.0	1	9	5.9
2025-10-10T12:00	17050	90	-64.3	-89.2	9	8	6.4
2025-10-10T12:00	17100	89	-64.3	-89.4	14	7	6.8
2025-10-10T12:00	17150	89	-64.1	-89.2	15	5	7.1
2025-10-10T12:00	17200	88	-64.0	-88.9	16	4	6.7
2025-10-10T12:00	17250	87	-64.2	-88.7	22	3	5.8
2025-10-10T12:00	17300	86	-64.5	-88.6	23	2	5.3
2025-10-10T12:00	17350	86	-64.9	-88.9	4	2	5.0
2025-10-10T12:00	17400	85	-64.8	-89.1	336	3	5.0
2025-10-10T12:00	17450	84	-64.8	-89.4	321	3	5.2
2025-10-10T12:00	17500	84	-64.9	-89.6	317	4	5.4
2025-10-10T12:00	17550	83	-64.8	-89.6	322	5	5.6
2025-10-10T12:00	17600	82	-64.6	-89.8	333	5	5.8
2025-10-10T12:00	17650	82	-64.5	-90.1	343	5	5.9
2025-10-10T12:00	17700	81	-63.7	-90.1	351	5	5.9
2025-10-10T12:00	17750	80	-63.6	-90.2	357	5	6.0
2025-10-10T12:00	17800	80	-63.6	-90.3	356	4	6.0
2025-10-10T12:00	17850	79	-63.5	-90.4	345	3	6.1
2025-10-10T12:00	17900	78	-63.6	-90.8	330	3	6.2
2025-10-10T12:00	17950	78	-62.9	-90.9	330	4	6.3
2025-10-10T12:00	18000	77	-62.1	-91.0	339	4	6.6
2025-10-10T12:00	18050	76	-62.1	-91.5	342	4	6.9
2025-10-10T12:00	18100	76	-61.8	-91.3	337	4	7.0
2025-10-10T12:00	18150	75	-62.1	-91.2	331	4	7.1
2025-10-10T12:00	18200	75	-62.2	-91.1	326	4	7.2
2025-10-10T12:00	18250	74	-62.3	-91.2	321	4	7.2
2025-10-10T12:00	18300	73	-62.6	-91.3	316	4	7.3
2025-10-10T12:00	18350	73	-62.6	-91.3	312	4	7.3
2025-10-10T12:00	18400	72	-62.8	-91.4	308	4	7.3
2025-10-10T12:00	18450	72	-63.1	-91.2	305	5	7.3
2025-10-10T12:00	18500	71	-63.4	-91.2	309	4	7.3
2025-10-10T12:00	18550	70	-63.4	-91.4	321	4	7.4
2025-10-10T12:00	18600	70	-63.3	-91.7	332	5	7.7
2025-10-10T12:00	18650	69	-63.3	-91.8	339	5	7.8
2025-10-10T12:00	18700	69	-63.2	-91.8	344	6	7.8
2025-10-10T12:00	18750	68	-63.0	-91.9	347	5	7.9
2025-10-10T12:00	18800	68	-63.0	-91.8	346	5	8.0
2025-10-10T12:00	18850	67	-63.0	-91.9	341	4	8.4
2025-10-10T12:00	18900	67	-63.1	-91.9	330	4	8.9
2025-10-10T12:00	18950	66	-62.9	-91.8	320	3	9.1
2025-10-10T12:00	19000	66	-63.2	-91.9	316	3	9.3
2025-10-10T12:00	19050	65	-63.3	-91.9	319	2	9.4
2025-10-10T12:00	19100	64	-63.4	-92.0	319	2	9.5
2025-10-10T12:00	19150	64	-63.2	-92.1	308	2	9.5
2025-10-10T12:00	19200	63	-63.2	-92.2	295	3	9.3
2025-10-10T12:00	19250	63	-63.1	-92.2	298	3	9.4
2025-10-10T12:00	19300	62	-62.8	-92.3	310	4	9.6
2025-10-10T12:00	19350	62	-62.8	-92.5	319	5	9.7
2025-10-10T12:00	19400	61	-62.8	-92.6	327	5	9.8
2025-10-10T12:00	19450	61	-62.7	-92.4	336	4	9.9
2025-10-10T12:00	19500	60	-62.8	-92.4	344	4	9.9
2025-10-10T12:00	19550	60	-63.0	-92.2	345	3	9.9
2025-10-10T12:00	19600	59	-63.3	-92.1	337	2	10.0
2025-10-10T12:00	19650	59	-63.6	-92.2	322	2	10.0
2025-10-10T12:00	19700	58	-63.6	-92.2	308	3	10.2
2025-10-10T12:00	19750	58	-63.8	-92.4	301	4	10.4
2025-10-10T12:00	19800	58	-63.6	-92.4	301	5	10.5
2025-10-10T12:00	19850	57	-63.4	-92.4	305	5	10.5
2025-10-10T12:00	19900	57	-63.6	-92.8	309	5	10.7
2025-10-10T12:00	19950	56	-63.2	-92.7	314	5	10.7
2025-10-10T12:00	20000	56	-63.0	-92.6	317	5	10.8
2025-10-10T12:00	20050	55	-63.1		320	6	11.0
2025-10-10T12:00	20100	55	-63.1		325	6	11.1
2025-10-10T12:00	20150	54	-62.8		331	5	11.2
2025-10-10T12:00	20200	54	-62.7		337	5	11.4
2025-10-10T12:00	20250	53	-62.6		339	4	11.4
2025-10-10T12:00	20300	53	-62.6		334	3	11.6
2025-10-10T12:00	20350	53	-62.5		319	2	11.8
2025-10-10T12:00	20400	52	-62.5		304	2	11.8
2025-10-10T12:00	20450	52	-62.3		310	2	11.7
2025-10-10T12:00	20500	51	-62.2		328	2	11.7
2025-10-10T12:00	20550	51	-62.5		337	3	11.7
2025-10-10T12:00	20600	51	-62.6		331	3	11.5
2025-10-10T12:00	20650	50	-62.8		322	3	11.5
2025-10-10T12:00	20700	50	-63.0		316	4	11.5
2025-10-10T12:00	20750	49	-63.1		313	4	11.6
2025-10-10T12:00	20800	49	-63.1		308	3	11.5
2025-10-10T12:00	20850	48	-63.1		294	3	11.5
2025-10-10T12:00	20900	48	-63.5		276	3	11.5
2025-10-10T12:00	20950	48	-63.6		265	4	11.4
2025-10-10T12:00	21000	47	-63.6		263	4	11.4
2025-10-10T12:00	21050	47	-63.6		265	3	11.4
2025-10-10T12:00	21100	47	-63.8		267	3	11.4
2025-10-10T12:00	21150	46	-64.0		257	2	11.3
2025-10-10T12:00	21200	46	-63.7		215	1	11.3
2025-10-10T12:00	21250	45	-63.5		173	2	11.2
2025-10-10T12:00	21300	45	-63.5		162	2	11.2
2025-10-10T12:00	21350	45	-63.4		170	3	11.2
2025-10-10T12:00	21400	44	-63.1		192	3	11.2
2025-10-10T12:00	21450	44	-63.2		216	3	11.1
2025-10-10T12:00	21500	44	-63.4		231	4	11.0
2025-10-10T12:00	21550	43	-63.5		242	4	11.0
2025-10-10T12:00	21600	43	-63.4		256	4	11.0
2025-10-10T12:00	21650	43	-63.2		266	4	11.0
2025-10-10T12:00	21700	42	-62.9		272	5	11.0
2025-10-10T12:00	21750	42	-62.3		278	5	10.9
2025-10-10T12:00	21800	42	-62.3		284	4	10.9
2025-10-10T12:00	21850	41	-62.1		289	4	11.0
2025-10-10T12:00	21900	41	-61.7		291	4	11.0
2025-10-10T12:00	21950	41	-61.4		294	4	11.1
2025-10-10T12:00	22000	40	-61.2		297	3	11.3
2025-10-10T12:00	22050	40	-60.6		296	3	11.4
2025-10-10T12:00	22100	40	-60.1		295	3	11.4
2025-10-10T12:00	22150	39	-59.7		298	3	11.6
2025-10-10T12:00	22200	39	-59.2		306	2	11.9
2025-10-10T12:00	22250	39	-59.0		309	2	12.4
2025-10-10T12:00	22300	38	-59.0		302	2	12.9
2025-10-10T12:00	22350	38	-58.9		296	3	13.3
2025-10-10T12:00	22400	38	-59.1		292	3	13.6
2025-10-10T12:00	22450	37	-59.3		284	2	13.5
2025-10-10T12:00	22500	37	-59.5		275	3	13.4
2025-10-10T12:00	22550	37	-59.5		270	4	13.2
2025-10-10T12:00	22600	37	-59.3		269	6	13.1
2025-10-10T12:00	22650	36	-59.1		271	7	12.7
2025-10-10T12:00	22700	36	-58.9		275	8	11.7
2025-10-10T12:00	22750	36	-59.0		282	9	10.9
2025-10-10T12:00	22800	35	-59.0		290	10	10.4
2025-10-10T12:00	22850	35	-58.9		296	11	10.1
2025-10-10T12:00	22900	35	-58.9		300	11	10.0
2025-10-10T12:00	22950	35	-58.7		305	11	10.3
2025-10-10T12:00	23000	34	-58.9		310	11	10.8
2025-10-10T12:00	23050	34	-59.3		314	11	11.2
2025-10-10T12:00	23100	34	-59.6		316	11	11.3
2025-10-10T12:00	23150	33	-59.9		318	11	11.7
2025-10-10T12:00	23200	33	-59.9		318	11	12.3
2025-10-10T12:00	23250	33	-59.9		319	11	12.7
2025-10-10T12:00	23300	33	-60.0		321	11	13.0
2025-10-10T12:00	23350	32	-60.1		322	11	12.9
2025-10-10T12:00	23400	32	-60.2		324	12	12.7
2025-10-10T12:00	23450	32	-60.3		326	12	12.6
2025-10-10T12:00	23500	32	-60.2		327	12	12.6
2025-10-10T12:00	23550	31	-60.0		326	12	12.8
2025-10-10T12:00	23600	31	-60.1		325	11	12.9
2025-10-10T12:00	23650	31	-60.4		326	11	13.0
2025-10-10T12:00	23700	31	-60.4		331	10	12.9
2025-10-10T12:00	23750	30	-60.7		337	11	12.9
2025-10-10T12:00	23800	30	-60.8		343	11	12.9
2025-10-10T12:00	23850	30	-60.7		347	11	12.8
2025-10-10T12:00	23900	30	-60.8		351	11	12.8
2025-10-10T12:00	23950	29	-60.7		355	10	12.8
2025-10-10T12:00	24000	29	-60.7		1	10	12.8
2025-10-10T12:00	24050	29	-60.8		6	9	12.9
2025-10-10T12:00	24100	29	-61.1		11	8	12.9
2025-10-10T12:00	24150	29	-61.2		15	6	12.9
2025-10-10T12:00	24200	28	-61.1		12	5	12.9
2025-10-10T12:00	24250	28	-61.2		357	4	12.8
2025-10-10T12:00	24300	28	-61.3		334	4	12.8
2025-10-10T12:00	24350	28	-61.4		318	5	12.8
2025-10-10T12:00	24400	27	-61.7		305	5	12.8
2025-10-10T12:00	24450	27	-62.0		297	6	12.7
2025-10-10T12:00	24500	27	-61.9		297	6	12.7
2025-10-10T12:00	24550	27	-61.5		304	6	12.6
2025-10-10T12:00	24600	27	-61.5		311	7	12.6
2025-10-10T12:00	24650	26	-61.2		314	7	12.5
2025-10-10T12:00	24700	26	-61.2		316	6	12.6
2025-10-10T12:00	24750	26	-61.2		321	5	12.5
2025-10-10T12:00	24800	26	-61.3		330	4	12.5
2025-10-10T12:00	24850	25	-61.3		338	3	12.5
2025-10-10T12:00	24900	25	-61.0		346	2	12.5
2025-10-10T12:00	24950	25	-60.8		18	1	12.6
2025-10-10T12:00	25000	25	-60.7		142	1	12.5
2025-10-10T12:00	25050	25	-60.0		168	1	12.3
2025-10-10T12:00	25100	24	-59.3		191	2	12.2
2025-10-10T12:00	25150	24	-59.1		216	2	12.2
2025-10-10T12:00	25200	24	-59.0		233	2	12.3
2025-10-10T12:00	25250	24	-58.4		240	2	12.1
2025-10-10T12:00	25300	24	-58.1		247	2	12.0
2025-10-10T12:00	25350	24	-57.8		256	3	11.9
2025-10-10T12:00	25400	23	-57.8		263	4	11.8
2025-10-10T12:00	25450	23	-57.9		268	5	11.6
2025-10-10T12:00	25500	23	-58.0		274	6	11.6
2025-10-10T12:00	25550	23	-57.9		281	7	11.5
2025-10-10T12:00	25600	23	-57.7		288	8	11.4
2025-10-10T12:00	25650	22	-57.3		294	7	11.2
2025-10-10T12:00	25700	22	-57.5		297	6	11.3
2025-10-10T12:00	25750	22	-57.5		297	5	11.2
2025-10-10T12:00	25800	22	-57.3		294	5	11.2
2025-10-10T12:00	25850	22	-57.2		285	5	11.1
2025-10-10T12:00	25900	22	-57.0		271	5	11.0
2025-10-10T12:00	25950	21	-56.6		257	5	10.9
2025-10-10T12:00	26000	21	-56.2		242	6	10.9
2025-10-10T12:00	26050	21	-56.0		229	8	10.9
2025-10-10T12:00	26100	21	-55.9		221	9	10.8
2025-10-10T12:00	26150	21	-55.9		220	11	10.7
2025-10-10T12:00	26200	21	-55.5		223	11	10.6
2025-10-10T12:00	26250	20	-55.3		231	10	10.6
2025-10-10T12:00	26300	20	-55.3		239	10	10.5
2025-10-10T12:00	26350	20	-55.4		247	9	10.5
2025-10-10T12:00	26400	20	-55.6		252	8	10.5
2025-10-10T12:00	26450	20	-55.6		253	7	10.4
2025-10-10T12:00	26500	20	-55.7		252	7	10.5
2025-10-10T12:00	26550	19	-55.7		250	7	10.5
2025-10-10T12:00	26600	19	-55.5		252	8	10.5
2025-10-10T12:00	26650	19	-55.2		258	8	10.4
2025-10-10T12:00	26700	19	-55.3		267	9	10.4
2025-10-10T12:00	26750	19	-55.4		277	9	10.5
2025-10-10T12:00	26800	19	-55.7		286	9	10.5
2025-10-10T12:00	26850	19	-55.8		292	9	10.3
2025-10-10T12:00	26900	18	-55.9		296	9	10.3
2025-10-10T12:00	26950	18	-55.8		296	9	10.1
2025-10-10T12:00	27000	18	-56.0		293	9	10.0
2025-10-10T12:00	27050	18	-56.1		286	9	9.9
2025-10-10T12:00	27100	18	-56.3		276	9	9.8
2025-10-10T12:00	27150	18	-56.6		272	9	10.0
2025-10-10T12:00	27200	18	-56.7		274	10	9.7
2025-10-10T12:00	27250	17	-56.8		279	10	9.6
2025-10-10T12:00	27300	17	-56.8		283	10	9.5
2025-10-10T12:00	27350	17	-56.6		284	11	9.4
2025-10-10T12:00	27400	17	-56.5		283	12	9.4
2025-10-10T12:00	27450	17	-56.4		285	12	9.3
2025-10-10T12:00	27500	17	-56.2		289	12	9.4
2025-10-10T12:00	27550	17	-56.1		296	11	9.4
2025-10-10T12:00	27600	16	-56.4		303	10	9.3
2025-10-10T12:00	27650	16	-56.5		310	9	9.2
2025-10-10T12:00	27700	16	-56.6		314	7	9.1
2025-10-10T12:00	27750	16	-56.2		311	6	9.0
2025-10-10T12:00	27800	16	-55.9		300	6	8.8
2025-10-10T12:00	27850	16	-56.0		288	7	8.7
2025-10-10T12:00	27900	16	-56.1		279	9	8.8
2025-10-10T12:00	27950	16	-56.3		271	10	8.8
2025-10-10T12:00	28000	15	-56.4		265	12	8.7
2025-10-10T12:00	28050	15	-56.2		264	12	8.6
2025-10-10T12:00	28100	15	-56.0		266	12	8.5
2025-10-10T12:00	28150	15	-55.8		270	12	8.5
2025-10-10T12:00	28200	15	-56.0		274	11	8.5
2025-10-10T12:00	28250	15	-56.2		276	9	8.4
2025-10-10T12:00	28300	15	-56.2		274	8	8.4
2025-10-10T12:00	28350	15	-56.3		270	6	8.4
2025-10-10T12:00	28400	15	-56.1		264	4	8.3
2025-10-10T12:00	28450	14	-56.1		255	3	8.4
2025-10-10T12:00	28500	14	-56.1		234	2	8.3
2025-10-10T12:00	28550	14	-56.0		214	2	8.3
2025-10-10T12:00	28600	14	-55.6		214	3	8.3
2025-10-10T12:00	28650	14	-55.2		220	5	8.2
2025-10-10T12:00	28700	14	-54.9		225	6	8.2
2025-10-10T12:00	28750	14	-54.8		229	7	8.1
2025-10-10T12:00	28800	14	-54.5		233	8	8.0
2025-10-10T12:00	28850	14	-54.4		239	8	8.0
2025-10-10T12:00	28900	13	-54.3		245	8	7.9
2025-10-10T12:00	28950	13	-54.3		249	8	7.8
2025-10-10T12:00	29000	13	-54.2		251	7	7.8
2025-10-10T12:00	29050	13	-54.2		250	7	7.8
2025-10-10T12:00	29100	13	-54.3		245	6	7.7
2025-10-10T12:00	29150	13	-54.2		239	7	7.7
2025-10-10T12:00	29200	13	-53.9		235	8	7.6
2025-10-10T12:00	29250	13	-53.6		233	9	7.5
2025-10-10T12:00	29300	13	-53.5		230	10	7.4
2025-10-10T12:00	29350	13	-53.3		227	12	7.4
2025-10-10T12:00	29400	12	-53.2		227	14	7.3
2025-10-10T12:00	29450	12	-53.0		227	16	7.3
2025-10-10T12:00	29500	12	-53.1		228	17	7.3
2025-10-10T12:00	29550	12	-53.1		230	18	7.2
2025-10-10T12:00	29600	12	-53.0		233	19	7.1
2025-10-10T12:00	29650	12	-52.9		237	20	7.0
2025-10-10T12:00	29700	12	-52.7		240	21	7.0
2025-10-10T12:00	29750	12	-52.6		242	21	7.0
2025-10-10T12:00	29800	12	-52.6		244	21	6.9
2025-10-10T12:00	29850	12	-52.6		245	20	6.9
2025-10-10T12:00	29900	12	-52.7		248	19	6.8
2025-10-10T12:00	29950	11	-52.9		250	17	6.8
2025-10-10T12:00	30000	11	-53.1		253	16	6.7
2025-10-10T12:00	30050	11	-53.4		255	15	6.6
2025-10-10T12:00	30100	11	-53.7		258	14	6.6
2025-10-10T12:00	30150	11	-53.6		258	14	6.5
2025-10-10T12:00	30200	11	-53.5		254	15	6.4
2025-10-10T12:00	30250	11	-53.2		250	16	6.4
2025-10-10T12:00	30300	11	-52.8		247	18	6.4
2025-10-10T12:00	30350	11	-52.6		247	20	6.3
2025-10-10T12:00	30400	11	-52.4		250	21	6.3
2025-10-10T12:00	30450	11	-51.8		254	21	6.3
2025-10-10T12:00	30500	10	-51.2		257	22	6.3
2025-10-10T12:00	30550	10	-51.1		260	23	6.3
2025-10-10T12:00	30600	10	-51.0		260	24	6.2
2025-10-10T12:00	30650	10	-50.8		260	23	
2025-10-11T00:00	491	973	11.1	9.5	14	1	
2025-10-11T00:00	501	971	11.2	9.4	28	2	
2025-10-11T00:00	520	970	11.3	9.4	34	2	
2025-10-11T00:00	540	968	11.2	9.2	37	2	
2025-10-11T00:00	560	965	11.1	9.1	39	3	
2025-10-11T00:00	580	963	11.0	9.0	42	3	
2025-10-11T00:00	600	961	11.0	8.9	44	3	
2025-10-11T00:00	620	958	10.9	8.9	47	4	
2025-10-11T00:00	640	956	10.8	8.8	48	4	
2025-10-11T00:00	660	954	10.6	8.8	49	4	
2025-10-11T00:00	680	951	10.5	8.7	49	4	
2025-10-11T00:00	700	949	10.3	8.6	48	4	
2025-10-11T00:00	720	947	10.2	8.6	47	4	
2025-10-11T00:00	740	945	10.1	8.6	46	4	
2025-10-11T00:00	760	942	9.9	8.6	46	4	
2025-10-11T00:00	780	940	9.7	8.5	47	5	
2025-10-11T00:00	800	938	9.5	8.5	49	5	
2025-10-11T00:00	820	936	9.3	8.4	52	6	
2025-10-11T00:00	840	933	9.2	8.3	54	6	
2025-10-11T00:00	860	931	9.2	8.3	56	7	
2025-10-11T00:00	880	929	9.1	8.3	57	8	
2025-10-11T00:00	900	927	8.9	8.2	58	8	
2025-10-11T00:00	920	925	8.8	8.2	58	8	
2025-10-11T00:00	940	922	8.6	8.2	60	8	
2025-10-11T00:00	960	920	8.5	8.0	61	8	
2025-10-11T00:00	980	918	8.4	8.0	62	8	
2025-10-11T00:00	1000	916	8.3	8.0	64	8	
2025-10-11T00:00	1020	913	8.4	8.0	66	7	
2025-10-11T00:00	1040	911	8.5	7.8	68	7	
2025-10-11T00:00	1060	909	8.8	7.7	70	6	
2025-10-11T00:00	1080	907	8.8	7.7	73	6	
2025-10-11T00:00	1100	905	8.7	7.6	77	5	
2025-10-11T00:00	1120	903	8.6	7.5	82	4	
2025-10-11T00:00	1140	900	8.5	7.4	88	4	
2025-10-11T00:00	1160	898	8.4	7.3	93	3	
2025-10-11T00:00	1180	896	8.2	7.3	97	3	
2025-10-11T00:00	1200	894	7.9	7.3	97	3	
2025-10-11T00:00	1220	892	7.7	7.3	94	3	
2025-10-11T00:00	1240	889	7.6	7.2	89	3	
2025-10-11T00:00	1260	887	7.4	7.2	83	3	
2025-10-11T00:00	1280	885	7.2	7.1	77	3	
2025-10-11T00:00	1300	883	7.0	7.0	73	4	
2025-10-11T00:00	1320	881	6.9	6.8	70	4	
2025-10-11T00:00	1340	879	6.8	6.8	70	4	
2025-10-11T00:00	1360	877	6.6	6.6	69	4	
2025-10-11T00:00	1380	874	6.5	6.5	69	4	
2025-10-11T00:00	1400	872	6.4	6.4	70	5	
2025-10-11T00:00	1420	870	6.4	6.3	70	6	
2025-10-11T00:00	1440	868	6.2	6.1	71	7	
2025-10-11T00:00	1460	866	7.0	5.0	71	8	
2025-10-11T00:00	1480	864	8.0	3.8	71	9	
2025-10-11T00:00	1500	862	8.9	2.2	71	11	
2025-10-11T00:00	1520	860	10.2	0.1	71	11	
2025-10-11T00:00	1540	858	10.6	-0.6	70	12	
2025-10-11T00:00	1560	856	10.8	-1.4	70	12	
2025-10-11T00:00	1580	853	11.0	-2.3	69	12	
2025-10-11T00:00	1600	851	11.2	-2.4	68	12	
2025-10-11T00:00	1620	849	11.2	-2.6	67	12	
2025-10-11T00:00	1640	848	11.1	-2.7	65	11	
2025-10-11T00:00	1660	846	11.2	-3.0	64	11	
2025-10-11T00:00	1680	843	11.2	-3.1	63	11	
2025-10-11T00:00	1700	842	11.2	-3.4	62	11	
2025-10-11T00:00	1720	839	11.3	-3.8	61	11	
2025-10-11T00:00	1740	837	11.6	-4.2	60	11	
2025-10-11T00:00	1760	835	11.7	-4.8	59	11	
2025-10-11T00:00	1780	833	11.9	-5.5	60	11	
2025-10-11T00:00	1800	832	12.1	-5.9	61	10	
2025-10-11T00:00	1820	830	12.3	-6.0	62	10	
2025-10-11T00:00	1840	828	12.3	-6.0	64	10	
2025-10-11T00:00	1860	825	12.3	-5.8	68	10	
2025-10-11T00:00	1880	824	12.1	-5.7	72	10	
2025-10-11T00:00	1900	822	12.0	-5.5	76	10	
2025-10-11T00:00	1920	820	11.9	-5.1	77	10	
2025-10-11T00:00	1940	818	11.7	-4.5	77	10	
2025-10-11T00:00	1960	816	11.7	-4.8	76	10	
2025-10-11T00:00	1980	814	11.9	-7.5	73	10	
2025-10-11T00:00	2000	812	11.9	-8.9	70	10	
2025-10-11T00:00	2020	810	11.9	-9.0	68	10	
2025-10-11T00:00	2040	808	11.8	-9.2	66	10	
2025-10-11T00:00	2060	806	11.8	-8.9	65	10	
2025-10-11T00:00	2080	804	11.8	-8.8	65	10	
2025-10-11T00:00	2100	802	11.8	-9.5	65	10	
2025-10-11T00:00	2120	800	11.9	-12.9	66	10	
2025-10-11T00:00	2140	798	11.8	-13.0	67	10	
2025-10-11T00:00	2160	796	11.7	-10.6	68	10	
2025-10-11T00:00	2180	794	11.5	-9.3	69	10	
2025-10-11T00:00	2200	792	11.4	-8.7	70	10	
2025-10-11T00:00	2220	791	11.2	-9.1	71	10	
2025-10-11T00:00	2240	789	11.0	-9.4	71	10	
2025-10-11T00:00	2260	787	10.9	-9.5	71	10	
2025-10-11T00:00	2280	785	10.7	-9.5	71	10	
2025-10-11T00:00	2300	783	10.6	-9.3	71	10	
2025-10-11T00:00	2320	781	10.5	-9.1	70	10	
2025-10-11T00:00	2340	779	10.4	-8.5	70	10	
2025-10-11T00:00	2360	777	10.2	-8.0	70	9	
2025-10-11T00:00	2380	776	10.1	-7.8	71	9	
2025-10-11T00:00	2400	774	10.0	-8.5	71	9	
2025-10-11T00:00	2420	772	9.8	-10.1	72	9	
2025-10-11T00:00	2440	770	9.8	-11.2	73	9	
2025-10-11T00:00	2460	768	9.7	-10.7	74	9	
2025-10-11T00:00	2480	766	9.5	-10.4	75	9	
2025-10-11T00:00	2500	764	9.5	-10.4	77	9	
2025-10-11T00:00	2520	762	9.4	-10.3	78	9	
2025-10-11T00:00	2540	761	9.3	-11.0	80	9	
2025-10-11T00:00	2560	759	9.2	-10.9	81	9	
2025-10-11T00:00	2580	757	9.0	-10.3	82	9	
2025-10-11T00:00	2600	755	8.9	-10.7	84	9	
2025-10-11T00:00	2620	753	8.7	-10.8	85	9	
2025-10-11T00:00	2640	751	8.6	-10.4	86	9	
2025-10-11T00:00	2660	750	8.4	-11.6	86	9	
2025-10-11T00:00	2680	748	8.3	-12.7	86	8	
2025-10-11T00:00	2700	746	8.2	-13.5	84	8	
2025-10-11T00:00	2720	744	8.1	-13.7	83	7	
2025-10-11T00:00	2740	743	7.9	-11.7	83	7	
2025-10-11T00:00	2760	741	7.8	-10.7	85	8	
2025-10-11T00:00	2780	739	7.7	-11.3	86	8	
2025-10-11T00:00	2800	737	7.5	-12.3	87	8	
2025-10-11T00:00	2820	735	7.5	-13.6	89	8	
2025-10-11T00:00	2840	734	7.5	-13.5	89	8	
2025-10-11T00:00	2860	732	7.3	-13.3	89	8	
2025-10-11T00:00	2880	730	7.2	-12.2	89	8	
2025-10-11T00:00	2900	728	7.2	-12.0	87	8	
2025-10-11T00:00	2920	727	7.1	-12.0	87	8	
2025-10-11T00:00	2940	725	6.9	-11.8	87	8	
2025-10-11T00:00	2960	723	6.8	-12.7	88	8	
2025-10-11T00:00	2980	721	6.7	-12.7	89	8	
2025-10-11T00:00	3000	719	6.5	-12.9	89	8	
2025-10-11T00:00	3020	718	6.4	-13.3	90	9	
2025-10-11T00:00	3040	716	6.2	-14.2	90	9	
2025-10-11T00:00	3060	714	6.1	-14.4	90	9	
2025-10-11T00:00	3080	712	6.0	-14.6	89	10	
2025-10-11T00:00	3100	710	5.8	-14.8	88	10	
2025-10-11T00:00	3120	709	5.7	-14.8	87	11	
2025-10-11T00:00	3140	707	5.5	-14.9	86	11	
2025-10-11T00:00	3160	705	5.3	-14.8	85	11	
2025-10-11T00:00	3180	704	5.2	-14.4	84	11	
2025-10-11T00:00	3200	702	5.1	-14.2	84	11	
2025-10-11T00:00	3220	700	4.9	-14.5	84	11	
2025-10-11T00:00	3240	699	4.7	-14.3	85	11	
2025-10-11T00:00	3260	697	4.6	-14.0	86	10	
2025-10-11T00:00	3280	695	4.4	-14.3	86	10	
2025-10-11T00:00	3300	693	4.2	-14.1	87	10	
2025-10-11T00:00	3320	692	4.1	-14.0	87	10	
2025-10-11T00:00	3340	690	4.0	-15.5	87	9	
2025-10-11T00:00	3360	688	4.0	-17.6	86	8	
2025-10-11T00:00	3380	687	3.8	-17.8	86	8	
2025-10-11T00:00	3400	685	3.7	-18.0	86	8	
2025-10-11T00:00	3420	683	3.5	-18.3	87	7	
2025-10-11T00:00	3440	682	3.3	-18.5	87	7	
2025-10-11T00:00	3460	680	3.1	-18.6	88	7	
2025-10-11T00:00	3480	678	3.0	-18.6	89	7	
2025-10-11T00:00	3500	677	2.8	-19.0	89	7	
2025-10-11T00:00	3520	675	2.6	-19.5	90	7	
2025-10-11T00:00	3540	673	2.5	-19.9	89	7	
2025-10-11T00:00	3560	671	2.3	-20.4	88	7	
2025-10-11T00:00	3580	670	2.1	-20.9	86	7	
2025-10-11T00:00	3600	668	2.1	-22.2	83	7	
2025-10-11T00:00	3620	666	2.1	-22.3	81	7	
2025-10-11T00:00	3640	665	2.0	-21.6	78	7	
2025-10-11T00:00	3660	663	1.8	-20.9	74	7	
2025-10-11T00:00	3680	661	1.6	-20.4	70	6	
2025-10-11T00:00	3700	660	1.5	-20.6	67	6	
2025-10-11T00:00	3720	658	1.4	-20.6	65	6	
2025-10-11T00:00	3740	657	1.3	-20.5	65	6	
2025-10-11T00:00	3760	655	1.1	-20.4	66	6	
2025-10-11T00:00	3780	653	1.0	-20.5	68	6	
2025-10-11T00:00	3800	652	0.8	-20.0	69	6	
2025-10-11T00:00	3820	650	0.6	-19.1	70	6	
2025-10-11T00:00	3840	649	0.5	-18.6	71	6	
2025-10-11T00:00	3860	647	0.3	-18.5	71	6	
2025-10-11T00:00	3880	645	0.1	-18.6	71	6	
2025-10-11T00:00	3900	644	0.0	-19.0	71	6	
2025-10-11T00:00	3920	642	-0.1	-18.7	70	6	
2025-10-11T00:00	3940	640	-0.3	-17.4	71	6	
2025-10-11T00:00	3960	639	-0.4	-17.5	72	6	
2025-10-11T00:00	3980	637	-0.6	-17.6	73	6	
2025-10-11T00:00	4000	636	-0.8	-17.4	75	6	
2025-10-11T00:00	4020	634	-1.0	-17.5	77	6	
2025-10-11T00:00	4040	632	-1.2	-17.4	79	6	
2025-10-11T00:00	4060	631	-1.3	-17.4	80	6	
2025-10-11T00:00	4080	629	-1.5	-17.3	80	7	
2025-10-11T00:00	4100	628	-1.7	-17.3	79	7	
2025-10-11T00:00	4120	626	-1.9	-17.3	78	7	
2025-10-11T00:00	4140	624	-2.1	-17.3	77	7	
2025-10-11T00:00	4160	623	-2.2	-17.3	77	7	
2025-10-11T00:00	4180	621	-2.4	-17.3	79	7	
2025-10-11T00:00	4200	620	-2.6	-17.2	82	7	
2025-10-11T00:00	4220	618	-2.8	-17.3	86	7	
2025-10-11T00:00	4240	617	-2.9	-17.4	88	7	
2025-10-11T00:00	4260	615	-3.1	-17.4	89	7	
2025-10-11T00:00	4280	614	-3.3	-17.4	87	7	
2025-10-11T00:00	4300	612	-3.4	-17.2	85	7	
2025-10-11T00:00	4320	611	-3.6	-17.1	83	7	
2025-10-11T00:00	4340	609	-3.8	-17.0	78	7	
2025-10-11T00:00	4360	607	-4.0	-17.0	74	8	
2025-10-11T00:00	4380	606	-4.2	-17.3	71	8	
2025-10-11T00:00	4400	604	-4.3	-17.3	70	8	
2025-10-11T00:00	4420	603	-4.5	-17.5	70	8	
2025-10-11T00:00	4440	601	-4.7	-17.7	70	8	
2025-10-11T00:00	4460	600	-4.8	-17.7	71	8	
2025-10-11T00:00	4480	598	-5.0	-18.0	71	8	
2025-10-11T00:00	4500	597	-5.2	-18.3	70	8	
2025-10-11T00:00	4520	595	-5.3	-18.4	69	8	
2025-10-11T00:00	4540	594	-5.5	-18.5	67	7	
2025-10-11T00:00	4560	592	-5.6	-18.9	65	7	
2025-10-11T00:00	4580	591	-5.7	-19.3	63	7	
2025-10-11T00:00	4600	589	-5.8	-19.4	62	7	
2025-10-11T00:00	4620	588	-6.1	-19.4	62	6	
2025-10-11T00:00	4640	586	-6.2	-19.1	63	6	
2025-10-11T00:00	4660	585	-6.3	-17.8	65	6	
2025-10-11T00:00	4680	583	-6.5	-17.2	66	6	
2025-10-11T00:00	4700	582	-6.7	-17.2	68	6	
2025-10-11T00:00	4720	580	-6.9	-17.3	68	6	
2025-10-11T00:00	4740	579	-7.0	-17.1	68	6	
2025-10-11T00:00	4760	577	-7.3	-17.1	68	6	
2025-10-11T00:00	4780	576	-7.4	-17.0	67	6	
2025-10-11T00:00	4800	574	-7.6	-17.1	65	6	
2025-10-11T00:00	4820	573	-7.8	-17.1	64	6	
2025-10-11T00:00	4840	571	-8.0	-17.2	62	6	
2025-10-11T00:00	4860	570	-8.2	-17.2	59	7	
2025-10-11T00:00	4880	568	-8.4	-17.3	56	7	
2025-10-11T00:00	4900	567	-8.6	-17.4	54	7	
2025-10-11T00:00	4920	566	-8.8	-17.7	54	7	
2025-10-11T00:00	4940	564	-8.9	-18.3	53	8	
2025-10-11T00:00	4960	563	-9.1	-18.6	53	8	
2025-10-11T00:00	4980	561	-9.2	-18.9	54	8	
2025-10-11T00:00	5000	560	-9.4	-19.0	53	8	
2025-10-11T00:00	5020	558	-9.6	-19.3	53	7	
2025-10-11T00:00	5040	557	-9.7	-19.7	52	7	
2025-10-11T00:00	5060	555	-9.8	-20.0	51	7	
2025-10-11T00:00	5080	554	-9.9	-20.0	49	7	
2025-10-11T00:00	5100	552	-10.0	-20.3	48	7	
2025-10-11T00:00	5120	551	-10.1	-20.1	47	7	
2025-10-11T00:00	5140	550	-10.2	-20.0	47	7	
2025-10-11T00:00	5160	548	-10.3	-19.5	49	7	
2025-10-11T00:00	5180	547	-10.4	-19.9	52	7	
2025-10-11T00:00	5200	545	-10.6	-20.5	54	7	
2025-10-11T00:00	5220	544	-10.7	-21.2	58	7	
2025-10-11T00:00	5240	543	-10.8	-21.8	61	7	
2025-10-11T00:00	5260	541	-10.9	-22.6	63	7	
2025-10-11T00:00	5280	540	-11.1	-24.3	63	7	
2025-10-11T00:00	5300	538	-11.1	-26.1	63	7	
2025-10-11T00:00	5320	537	-11.0	-27.2	60	7	
2025-10-11T00:00	5340	535	-11.0	-28.0	57	7	
2025-10-11T00:00	5360	534	-10.9	-28.8	54	7	
2025-10-11T00:00	5380	533	-10.9	-29.4	51	7	
2025-10-11T00:00	5400	531	-11.0	-29.9	48	7	
2025-10-11T00:00	5420	530	-11.1	-31.4	44	7	
2025-10-11T00:00	5440	529	-11.2	-31.7	40	7	
2025-10-11T00:00	5460	527	-11.2	-31.9	37	6	
2025-10-11T00:00	5480	526	-11.2	-32.1	35	6	
2025-10-11T00:00	5500	524	-11.4	-32.0	35	6	
2025-10-11T00:00	5520	523	-11.5	-32.0	37	6	
2025-10-11T00:00	5540	522	-11.6	-31.7	39	6	
2025-10-11T00:00	5560	520	-11.7	-31.3	41	7	
2025-10-11T00:00	5580	519	-11.9	-31.4	41	7	
2025-10-11T00:00	5600	518	-12.1	-31.4	41	7	
2025-10-11T00:00	5620	516	-12.3	-31.5	41	7	
2025-10-11T00:00	5640	515	-12.4	-31.6	41	7	
2025-10-11T00:00	5660	514	-12.6	-31.7	43	7	
2025-10-11T00:00	5680	512	-12.8	-31.8	44	7	
2025-10-11T00:00	5700	511	-12.9	-31.8	45	6	
2025-10-11T00:00	5720	510	-13.1	-31.5	46	6	
2025-10-11T00:00	5740	508	-13.3	-31.4	45	6	
2025-10-11T00:00	5760	507	-13.5	-31.7	43	6	
2025-10-11T00:00	5780	505	-13.7	-32.1	41	5	
2025-10-11T00:00	5800	504	-13.9	-32.0	37	5	
2025-10-11T00:00	5820	503	-14.1	-32.1	33	5	
2025-10-11T00:00	5840	502	-14.2	-32.2	33	6	
2025-10-11T00:00	5860	500	-14.4	-32.1	34	6	
2025-10-11T00:00	5880	499	-14.6	-31.9	35	6	
2025-10-11T00:00	5900	498	-14.8	-31.9	37	6	
2025-10-11T00:00	5920	496	-15.0	-32.2	38	7	
2025-10-11T00:00	5940	495	-15.2	-32.4	38	7	
2025-10-11T00:00	5960	494	-15.4	-32.5	38	7	
2025-10-11T00:00	5980	492	-15.5	-32.6	38	8	
2025-10-11T00:00	6000	491	-15.7	-32.5	37	8	
2025-10-11T00:00	6020	490	-15.9	-32.2	36	9	
2025-10-11T00:00	6040	488	-16.1	-32.2	33	10	
2025-10-11T00:00	6060	487	-16.2	-32.8	30	10	
2025-10-11T00:00	6080	486	-16.2	-33.7	29	11	
2025-10-11T00:00	6100	485	-16.2	-34.5	28	11	
2025-10-11T00:00	6120	483	-16.2	-35.3	28	12	
2025-10-11T00:00	6140	482	-16.3	-36.6	29	12	
2025-10-11T00:00	6160	481	-16.3	-38.0	31	12	
2025-10-11T00:00	6180	480	-16.3	-39.0	34	12	
2025-10-11T00:00	6200	478	-16.4	-40.8	36	13	
2025-10-11T00:00	6220	477	-16.2	-42.9	38	13	
2025-10-11T00:00	6240	476	-16.3	-43.2	40	13	
2025-10-11T00:00	6260	474	-16.3	-44.7	41	13	
2025-10-11T00:00	6280	473	-16.1	-45.5	42	14	
2025-10-11T00:00	6300	472	-16.1	-44.9	43	14	
2025-10-11T00:00	6320	471	-16.1	-44.2	43	14	
2025-10-11T00:00	6340	470	-16.3	-43.3	43	14	
2025-10-11T00:00	6360	468	-16.4	-42.5	43	14	
2025-10-11T00:00	6380	467	-16.5	-42.1	43	14	
2025-10-11T00:00	6400	466	-16.6	-41.8	42	14	
2025-10-11T00:00	6420	464	-16.8	-41.6	42	14	
2025-10-11T00:00	6440	463	-16.9	-41.3	40	14	
2025-10-11T00:00	6460	462	-17.1	-41.4	39	14	
2025-10-11T00:00	6480	461	-17.2	-42.0	38	14	
2025-10-11T00:00	6500	459	-17.2	-42.4	37	14	
2025-10-11T00:00	6520	458	-17.3	-42.8	37	14	
2025-10-11T00:00	6540	457	-17.4	-43.1	37	15	
2025-10-11T00:00	6560	456	-17.4	-43.5	37	15	
2025-10-11T00:00	6580	455	-17.5	-43.7	38	15	
2025-10-11T00:00	6600	453	-17.6	-43.8	39	16	
2025-10-11T00:00	6620	452	-17.7	-43.8	41	16	
2025-10-11T00:00	6640	451	-17.8	-44.1	42	16	
2025-10-11T00:00	6660	450	-17.9	-44.1	43	16	
2025-10-11T00:00	6680	449	-18.1	-43.8	43	15	
2025-10-11T00:00	6700	447	-18.2	-43.2	44	15	
2025-10-11T00:00	6720	446	-18.4	-43.2	43	15	
2025-10-11T00:00	6740	445	-18.5	-43.3	43	15	
2025-10-11T00:00	6760	444	-18.7	-43.2	42	15	
2025-10-11T00:00	6780	442	-18.9	-43.2	41	15	
2025-10-11T00:00	6800	441	-19.0	-43.1	41	15	
2025-10-11T00:00	6820	440	-19.2	-43.3	40	15	
2025-10-11T00:00	6840	439	-19.4	-43.6	39	15	
2025-10-11T00:00	6860	438	-19.5	-44.3	39	15	
2025-10-11T00:00	6880	437	-19.5	-45.1	39	15	
2025-10-11T00:00	6900	436	-19.7	-45.6	38	16	
2025-10-11T00:00	6920	434	-19.8	-45.9	38	16	
2025-10-11T00:00	6940	433	-20.0	-46.0	38	16	
2025-10-11T00:00	6960	432	-20.1	-46.2	37	17	
2025-10-11T00:00	6980	431	-20.3	-46.9	37	17	
2025-10-11T00:00	7000	430	-20.4	-47.7	37	17	
2025-10-11T00:00	7020	428	-20.6	-47.8	36	18	
2025-10-11T00:00	7040	427	-20.7	-48.0	36	18	
2025-10-11T00:00	7060	426	-20.9	-48.0	35	18	
2025-10-11T00:00	7080	425	-21.0	-48.1	35	18	
2025-10-11T00:00	7100	424	-21.2	-48.1	34	18	
2025-10-11T00:00	7120	423	-21.4	-48.0	34	18	
2025-10-11T00:00	7140	422	-21.5	-47.9	34	18	
2025-10-11T00:00	7160	420	-21.7	-47.9	34	18	
2025-10-11T00:00	7180	419	-21.9	-48.0	34	18	
2025-10-11T00:00	7200	418	-22.1	-48.2	34	18	
2025-10-11T00:00	7220	417	-22.2	-48.3	34	18	
2025-10-11T00:00	7240	416	-22.4	-48.3	34	18	
2025-10-11T00:00	7260	415	-22.6	-48.4	34	18	
2025-10-11T00:00	7280	414	-22.8	-48.5	34	18	
2025-10-11T00:00	7300	412	-23.0	-48.5	34	18	
2025-10-11T00:00	7320	411	-23.2	-48.6	34	17	
2025-10-11T00:00	7340	410	-23.4	-48.6	33	18	
2025-10-11T00:00	7360	409	-23.5	-48.5	33	18	
2025-10-11T00:00	7380	408	-23.7	-48.5	33	18	
2025-10-11T00:00	7400	407	-23.9	-48.5	33	17	
2025-10-11T00:00	7420	406	-24.1	-47.7	33	17	
2025-10-11T00:00	7440	405	-24.2	-47.3	33	17	
2025-10-11T00:00	7460	404	-24.4	-47.2	33	17	
2025-10-11T00:00	7480	402	-24.6	-47.1	34	17	
2025-10-11T00:00	7500	401	-24.8	-47.1	34	17	
2025-10-11T00:00	7520	400	-25.0	-47.4	34	16	
2025-10-11T00:00	7540	399	-25.2	-47.2	34	16	
2025-10-11T00:00	7560	398	-25.3	-47.3	34	16	
2025-10-11T00:00	7580	397	-25.5	-47.3	34	16	
2025-10-11T00:00	7600	396	-25.7	-47.1	34	16	
2025-10-11T00:00	7620	395	-25.9	-47.0	33	16	
2025-10-11T00:00	7640	394	-26.1	-46.7	33	16	
2025-10-11T00:00	7660	393	-26.2	-46.6	33	16	
2025-10-11T00:00	7680	391	-26.4	-46.6	34	16	
2025-10-11T00:00	7700	390	-26.6	-46.5	34	16	
2025-10-11T00:00	7720	389	-26.8	-46.6	34	16	
2025-10-11T00:00	7740	388	-27.0	-46.8	35	16	
2025-10-11T00:00	7760	387	-27.1	-47.2	35	16	
2025-10-11T00:00	7780	386	-27.2	-47.4	36	16	
2025-10-11T00:00	7800	385	-27.4	-47.4	36	16	
2025-10-11T00:00	7820	384	-27.6	-47.5	36	16	
2025-10-11T00:00	7840	383	-27.8	-47.6	35	16	
2025-10-11T00:00	7860	382	-28.0	-47.6	35	16	
2025-10-11T00:00	7880	381	-28.2	-47.7	34	16	
2025-10-11T00:00	7900	380	-28.4	-47.8	32	16	
2025-10-11T00:00	7920	379	-28.6	-47.8	32	16	
2025-10-11T00:00	7940	377	-28.8	-47.8	31	16	
2025-10-11T00:00	7960	376	-28.9	-47.7	30	16	
2025-10-11T00:00	7980	375	-29.1	-47.8	30	16	
2025-10-11T00:00	8000	374	-29.3	-47.7	30	16	
2025-10-11T00:00	8020	373	-29.5	-47.2	30	16	
2025-10-11T00:00	8040	372	-29.6	-47.2	32	16	
2025-10-11T00:00	8060	371	-29.7	-47.7	32	16	
2025-10-11T00:00	8080	370	-29.9	-47.9	34	16	
2025-10-11T00:00	8100	369	-30.1	-47.9	34	16	
2025-10-11T00:00	8120	368	-30.3	-48.0	35	16	
2025-10-11T00:00	8140	367	-30.5	-48.0	36	16	
2025-10-11T00:00	8160	366	-30.6	-48.1	36	15	
2025-10-11T00:00	8180	365	-30.8	-48.2	36	15	
2025-10-11T00:00	8200	364	-31.0	-48.2	37	15	
2025-10-11T00:00	8220	363	-31.2	-48.2	37	15	
2025-10-11T00:00	8240	362	-31.4	-48.3	38	15	
2025-10-11T00:00	8260	361	-31.6	-48.4	38	15	
2025-10-11T00:00	8280	360	-31.7	-48.6	38	15	
2025-10-11T00:00	8300	359	-31.9	-48.8	39	15	
2025-10-11T00:00	8320	358	-32.1	-49.2	39	15	
2025-10-11T00:00	8340	357	-32.2	-49.4	39	15	
2025-10-11T00:00	8360	356	-32.4	-49.4	39	15	
2025-10-11T00:00	8380	355	-32.5	-49.6	39	14	
2025-10-11T00:00	8400	354	-32.7	-50.1	40	14	
2025-10-11T00:00	8420	353	-32.9	-50.2	40	14	
2025-10-11T00:00	8440	352	-33.1	-49.9	40	14	
2025-10-11T00:00	8460	351	-33.2	-50.2	41	14	
2025-10-11T00:00	8480	350	-33.4	-50.4	41	14	
2025-10-11T00:00	8500	349	-33.6	-50.4	41	14	
2025-10-11T00:00	8520	348	-33.7	-50.5	41	14	
2025-10-11T00:00	8540	347	-33.9	-50.7	41	14	
2025-10-11T00:00	8560	346	-34.1	-51.0	41	14	
2025-10-11T00:00	8580	345	-34.2	-51.2	41	14	
2025-10-11T00:00	8600	344	-34.3	-51.2	41	13	
2025-10-11T00:00	8620	343	-34.5	-51.4	41	13	
2025-10-11T00:00	8640	342	-34.7	-51.5	42	12	
2025-10-11T00:00	8660	341	-34.8	-51.6	42	12	
2025-10-11T00:00	8680	340	-35.0	-51.9	42	12	
2025-10-11T00:00	8700	339	-35.1	-52.1	41	12	
2025-10-11T00:00	8720	338	-35.2	-52.6	41	11	
2025-10-11T00:00	8740	337	-35.4	-53.0	40	11	
2025-10-11T00:00	8760	336	-35.6	-53.4	40	11	
2025-10-11T00:00	8780	335	-35.7	-53.5	39	11	
2025-10-11T00:00	8800	334	-35.9	-53.5	38	11	
2025-10-11T00:00	8820	333	-36.1	-53.6	38	11	
2025-10-11T00:00	8840	332	-36.2	-53.7	37	11	
2025-10-11T00:00	8860	331	-36.4	-53.8	36	11	
2025-10-11T00:00	8880	330	-36.6	-53.7	35	10	
2025-10-11T00:00	8900	329	-36.8	-53.5	35	10	
2025-10-11T00:00	8920	329	-36.9	-53.4	34	11	
2025-10-11T00:00	8940	328	-37.1	-53.3	34	11	
2025-10-11T00:00	8960	327	-37.3	-53.1	34	11	
2025-10-11T00:00	8980	326	-37.5	-53.0	34	11	
2025-10-11T00:00	9000	325	-37.6	-52.6	34	11	
2025-10-11T00:00	9020	324	-37.8	-52.6	34	11	
2025-10-11T00:00	9040	323	-38.0	-52.8	35	11	
2025-10-11T00:00	9060	322	-38.2	-52.9	35	11	
2025-10-11T00:00	9080	321	-38.4	-53.0	35	11	
2025-10-11T00:00	9100	320	-38.5	-53.2	35	11	
2025-10-11T00:00	9120	319	-38.7	-53.3	35	11	
2025-10-11T00:00	9140	318	-38.9	-53.5	35	10	
2025-10-11T00:00	9160	317	-39.1	-53.5	36	10	
2025-10-11T00:00	9180	316	-39.3	-53.6	37	10	
2025-10-11T00:00	9200	315	-39.4	-53.6	38	10	
2025-10-11T00:00	9220	315	-39.6	-53.5	40	10	
2025-10-11T00:00	9240	314	-39.8	-53.5	41	10	
2025-10-11T00:00	9260	313	-40.0	-53.9	43	10	
2025-10-11T00:00	9280	312	-40.2	-54.1	44	10	
2025-10-11T00:00	9300	311	-40.3	-54.2	45	10	
2025-10-11T00:00	9320	310	-40.5	-54.3	46	10	
2025-10-11T00:00	9340	309	-40.6	-54.8	46	9	
2025-10-11T00:00	9360	308	-40.6	-55.5	46	9	
2025-10-11T00:00	9380	307	-40.8	-55.8	45	9	
2025-10-11T00:00	9400	306	-40.9	-55.7	43	8	
2025-10-11T00:00	9420	305	-41.1	-55.6	42	8	
2025-10-11T00:00	9440	304	-41.2	-55.6	40	8	
2025-10-11T00:00	9460	304	-41.4	-55.5	38	8	
2025-10-11T00:00	9480	303	-41.6	-55.8	37	9	
2025-10-11T00:00	9500	302	-41.8	-56.2	36	9	
2025-10-11T00:00	9520	301	-42.0	-56.5	36	9	
2025-10-11T00:00	9540	300	-42.1	-56.7	36	9	
2025-10-11T00:00	9560	299	-42.3	-56.2	37	9	
2025-10-11T00:00	9580	298	-42.4	-55.5	38	9	
2025-10-11T00:00	9600	297	-42.6	-55.0	39	9	
2025-10-11T00:00	9620	297	-42.8	-54.7	41	9	
2025-10-11T00:00	9640	296	-43.0	-55.0	43	9	
2025-10-11T00:00	9660	295	-43.2	-54.8	44	10	
2025-10-11T00:00	9680	294	-43.4	-54.1	45	10	
2025-10-11T00:00	9700	293	-43.6	-54.1	45	10	
2025-10-11T00:00	9720	292	-43.8	-54.3	45	10	
2025-10-11T00:00	9740	291	-44.0	-54.4	44	10	
2025-10-11T00:00	9760	290	-44.2	-54.3	42	10	
2025-10-11T00:00	9780	289	-44.4	-54.0	41	10	
2025-10-11T00:00	9800	289	-44.5	-54.1	39	10	
2025-10-11T00:00	9820	288	-44.7	-54.2	38	10	
2025-10-11T00:00	9840	287	-44.9	-54.3	36	10	
2025-10-11T00:00	9860	286	-45.1	-54.5	36	10	
2025-10-11T00:00	9880	285	-45.3	-54.5	35	11	
2025-10-11T00:00	9900	284	-45.5	-54.7	35	11	
2025-10-11T00:00	9920	283	-45.7	-55.0	35	11	
2025-10-11T00:00	9940	283	-45.8	-55.4	35	11	
2025-10-11T00:00	9960	282	-46.0	-55.8	35	11	
2025-10-11T00:00	9980	281	-46.2	-56.0	35	11	
2025-10-11T00:00	10000	280	-46.4	-55.9	36	10	
2025-10-11T00:00	10018	279	-46.5	-55.8	37	10	
2025-10-11T00:00	10050	278	-46.8	-55.9	38	10	
2025-10-11T00:00	10100	276	-47.3	-56.2	38	10	
2025-10-11T00:00	10150	274	-47.7	-56.4	38	10	
2025-10-11T00:00	10200	272	-48.0	-57.1	37	10	
2025-10-11T00:00	10250	270	-48.4	-56.6	36	9	
2025-10-11T00:00	10300	268	-48.8	-56.9	34	9	
2025-10-11T00:00	10350	266	-49.2	-57.9	34	10	
2025-10-11T00:00	10400	264	-49.6	-58.5	36	10	
2025-10-11T00:00	10450	262	-50.1	-58.3	39	10	
2025-10-11T00:00	10500	260	-50.5	-58.1	41	10	
2025-10-11T00:00	10550	258	-50.9	-57.9	42	10	
2025-10-11T00:00	10600	256	-51.3	-58.5	43	10	
2025-10-11T00:00	10650	254	-51.8	-58.1	42	10	
2025-10-11T00:00	10700	252	-52.2	-58.4	41	10	
2025-10-11T00:00	10750	250	-52.7	-58.4	40	10	
2025-10-11T00:00	10800	248	-53.1	-59.4	40	10	
2025-10-11T00:00	10850	246	-53.5	-60.7	39	10	
2025-10-11T00:00	10900	244	-53.8	-60.0	39	10	
2025-10-11T00:00	10950	242	-54.3	-60.1	38	10	
2025-10-11T00:00	11000	240	-54.7	-60.8	36	10	
2025-10-11T00:00	11050	238	-55.1	-61.6	36	10	
2025-10-11T00:00	11100	236	-55.4	-62.9	36	11	
2025-10-11T00:00	11150	235	-55.7	-63.9	37	11	
2025-10-11T00:00	11200	233	-56.0	-64.7	39	11	
2025-10-11T00:00	11250	231	-56.3	-65.2	39	10	
2025-10-11T00:00	11300	229	-56.5	-65.5	37	10	
2025-10-11T00:00	11350	227	-56.9	-66.0	36	9	
2025-10-11T00:00	11400	226	-57.3	-66.3	38	9	
2025-10-11T00:00	11450	224	-57.7	-66.2	38	9	
2025-10-11T00:00	11500	222	-58.1	-66.4	36	9	
2025-10-11T00:00	11550	220	-58.6	-66.1	35	9	
2025-10-11T00:00	11600	218	-58.9	-66.1	33	9	
2025-10-11T00:00	11650	217	-59.3	-67.0	31	9	
2025-10-11T00:00	11700	215	-59.6	-67.6	27	9	
2025-10-11T00:00	11750	213	-60.1	-67.8	23	9	
2025-10-11T00:00	11800	212	-60.5	-68.0	22	10	
2025-10-11T00:00	11850	210	-60.8	-68.2	24	10	
2025-10-11T00:00	11900	208	-61.2	-68.4	25	10	
2025-10-11T00:00	11950	207	-61.6	-68.9	25	10	
2025-10-11T00:00	12000	205	-61.9	-69.1	26	10	
2025-10-11T00:00	12050	203	-62.4	-69.2	28	10	
2025-10-11T00:00	12100	202	-62.7	-69.4	30	11	
2025-10-11T00:00	12150	200	-63.0	-69.7	32	12	
2025-10-11T00:00	12200	198	-63.2	-70.1	37	12	
2025-10-11T00:00	12250	197	-63.4	-70.3	42	13	
2025-10-11T00:00	12300	195	-63.4	-70.2	48	13	
2025-10-11T00:00	12350	194	-63.5	-70.1	52	13	
2025-10-11T00:00	12400	192	-63.8	-70.0	55	12	
2025-10-11T00:00	12450	190	-64.3	-70.0	58	11	
2025-10-11T00:00	12500	189	-64.7	-70.0	61	10	
2025-10-11T00:00	12550	187	-65.1	-70.0	61	9	
2025-10-11T00:00	12600	186	-65.4	-69.8	58	9	
2025-10-11T00:00	12650	184	-65.8	-69.8	54	9	
2025-10-11T00:00	12700	183	-65.9	-69.8	52	10	
2025-10-11T00:00	12750	181	-65.9	-69.9	50	10	
2025-10-11T00:00	12800	180	-65.8	-70.1	49	10	
2025-10-11T00:00	12850	178	-66.0	-70.4	48	9	
2025-10-11T00:00	12900	177	-66.1	-70.7	44	8	
2025-10-11T00:00	12950	175	-66.0	-71.5	36	7	
2025-10-11T00:00	13000	174	-65.1	-72.3	26	6	
2025-10-11T00:00	13050	173	-64.1	-73.7	17	5	
2025-10-11T00:00	13100	171	-63.7	-75.6	5	4	
2025-10-11T00:00	13150	170	-63.0	-77.0	353	4	
2025-10-11T00:00	13200	168	-62.1	-78.3	345	4	
2025-10-11T00:00	13250	167	-62.1	-79.3	346	5	
2025-10-11T00:00	13300	166	-62.4	-79.6	352	7	
2025-10-11T00:00	13350	164	-62.1	-79.4	359	8	
2025-10-11T00:00	13400	163	-62.0	-79.5	5	10	
2025-10-11T00:00	13450	162	-62.2	-79.4	9	11	
2025-10-11T00:00	13500	160	-62.3	-79.2	13	12	
2025-10-11T00:00	13550	159	-62.5	-79.1	16	13	
2025-10-11T00:00	13600	158	-62.8	-79.3	20	13	
2025-10-11T00:00	13650	157	-62.8	-79.4	27	13	
2025-10-11T00:00	13700	155	-62.6	-79.8	35	12	
2025-10-11T00:00	13750	154	-61.8	-80.3	44	12	
2025-10-11T00:00	13800	153	-60.9	-80.8	50	11	
2025-10-11T00:00	13850	152	-60.7	-81.2	52	9	
2025-10-11T00:00	13900	150	-60.6	-81.3	52	8	
2025-10-11T00:00	13950	149	-60.6	-81.5	53	7	
2025-10-11T00:00	14000	148	-60.8	-81.6	58	7	
2025-10-11T00:00	14050	147	-61.1	-81.7	64	6	
2025-10-11T00:00	14100	146	-61.3	-81.8	72	5	
2025-10-11T00:00	14150	144	-61.2	-81.9	75	4	
2025-10-11T00:00	14200	143	-61.2	-82.0	68	3	
2025-10-11T00:00	14250	142	-61.5	-82.1	52	3	
2025-10-11T00:00	14300	141	-61.9	-82.1	38	3	
2025-10-11T00:00	14350	140	-62.1	-82.0	28	3	
2025-10-11T00:00	14400	139	-62.4	-82.0	19	4	
2025-10-11T00:00	14450	138	-62.7	-82.0	11	5	
2025-10-11T00:00	14500	136	-63.0	-82.1	6	7	
2025-10-11T00:00	14550	135	-63.1	-82.1	3	8	
2025-10-11T00:00	14600	134	-63.2	-82.3	5	8	
2025-10-11T00:00	14650	133	-63.3	-82.4	9	8	
2025-10-11T00:00	14700	132	-63.6	-82.6	15	7	
2025-10-11T00:00	14750	131	-63.6	-82.6	19	7	
2025-10-11T00:00	14800	130	-63.8	-82.8	22	5	
2025-10-11T00:00	14850	129	-64.1	-83.0	28	5	
2025-10-11T00:00	14900	128	-64.0	-83.1	38	5	
2025-10-11T00:00	14950	127	-63.8	-83.3	46	5	
2025-10-11T00:00	15000	126	-63.6	-83.4	50	5	
2025-10-11T00:00	15050	125	-64.1	-83.6	52	4	
2025-10-11T00:00	15100	124	-64.2	-83.8	50	3	
2025-10-11T00:00	15150	123	-64.1	-83.7	42	3	
2025-10-11T00:00	15200	122	-64.3	-83.9	26	2	
2025-10-11T00:00	15250	121	-64.7	-84.1	12	3	
2025-10-11T00:00	15300	120	-65.0	-84.2	4	4	
2025-10-11T00:00	15350	119	-64.6	-84.0	359	4	
2025-10-11T00:00	15400	118	-64.6	-83.9	355	5	
2025-10-11T00:00	15450	117	-65.0	-84.0	353	6	
2025-10-11T00:00	15500	116	-65.3	-84.0	353	7	
2025-10-11T00:00	15550	115	-65.5	-84.0	355	9	
2025-10-11T00:00	15600	114	-65.4	-84.0	356	10	
2025-10-11T00:00	15650	113	-65.5	-84.0	358	11	
2025-10-11T00:00	15700	112	-65.6	-84.2	0	11	
2025-10-11T00:00	15750	111	-65.4	-84.2	358	10	
2025-10-11T00:00	15800	110	-65.0	-84.3	353	9	
2025-10-11T00:00	15850	109	-64.5	-84.4	352	9	
2025-10-11T00:00	15900	109	-64.6	-84.5	355	8	
2025-10-11T00:00	15950	108	-64.9	-84.6	360	8	
2025-10-11T00:00	16000	107	-65.0	-84.7	6	7	
2025-10-11T00:00	16050	106	-65.2	-84.7	14	7	
2025-10-11T00:00	16100	105	-65.4	-85.0	16	6	
2025-10-11T00:00	16150	104	-65.0	-84.9	7	5	
2025-10-11T00:00	16200	103	-64.8	-85.0	353	5	
2025-10-11T00:00	16250	102	-64.9	-85.0	342	5	
2025-10-11T00:00	16300	102	-64.8	-85.0	333	5	
2025-10-11T00:00	16350	101	-63.9	-84.7	325	5	
2025-10-11T00:00	16400	100	-63.6	-84.7	320	5	
2025-10-11T00:00	16450	99	-63.5	-84.7	318	6	
2025-10-11T00:00	16500	98	-63.9	-84.8	322	6	
2025-10-11T00:00	16550	98	-64.1	-84.9	334	7	
2025-10-11T00:00	16600	97	-64.2	-85.0	348	7	
2025-10-11T00:00	16650	96	-64.1	-85.1	359	6	
2025-10-11T00:00	16700	95	-63.8	-85.1	9	6	
2025-10-11T00:00	16750	94	-63.6	-85.1	17	6	
2025-10-11T00:00	16800	94	-63.7	-85.2	22	7	
2025-10-11T00:00	16850	93	-63.8	-85.3	25	6	
2025-10-11T00:00	16900	92	-63.8	-85.2	23	5	
2025-10-11T00:00	16950	91	-64.1	-85.3	13	4	
2025-10-11T00:00	17000	91	-64.4	-85.4	353	4	
2025-10-11T00:00	17050	90	-64.7	-85.6	339	4	
2025-10-11T00:00	17100	89	-64.6	-85.6	342	5	
2025-10-11T00:00	17150	88	-64.5	-85.6	351	5	
2025-10-11T00:00	17200	88	-64.7	-85.7	355	5	
2025-10-11T00:00	17250	87	-64.7	-85.9	351	5	
2025-10-11T00:00	17300	86	-64.6	-86.1	345	5	
2025-10-11T00:00	17350	86	-64.7	-86.3	345	6	
2025-10-11T00:00	17400	85	-65.1	-86.4	346	7	
2025-10-11T00:00	17450	84	-65.4	-86.5	346	8	
2025-10-11T00:00	17500	84	-65.6	-86.7	346	8	
2025-10-11T00:00	17550	83	-65.4	-86.7	349	8	
2025-10-11T00:00	17600	82	-65.2	-86.9	353	9	
2025-10-11T00:00	17650	82	-64.9	-86.8	360	9	
2025-10-11T00:00	17700	81	-64.6	-86.8	5	8	
2025-10-11T00:00	17750	80	-64.5	-87.0	6	8	
2025-10-11T00:00	17800	80	-63.8	-86.8	5	7	
2025-10-11T00:00	17850	79	-63.8	-86.8	7	7	
2025-10-11T00:00	17900	78	-63.7	-86.8	7	6	
2025-10-11T00:00	17950	78	-63.8	-86.8	0	5	
2025-10-11T00:00	18000	77	-63.9	-86.7	349	4	
2025-10-11T00:00	18050	76	-64.1	-86.7	339	4	
2025-10-11T00:00	18100	76	-64.4	-86.7	334	4	
2025-10-11T00:00	18150	75	-64.8	-86.9	338	4	
2025-10-11T00:00	18200	75	-64.9	-87.0	350	5	
2025-10-11T00:00	18250	74	-64.8	-87.1	358	5	
2025-10-11T00:00	18300	73	-64.5	-87.1	2	6	
2025-10-11T00:00	18350	73	-64.1	-87.1	2	5	
2025-10-11T00:00	18400	72	-64.1	-87.2	354	5	
2025-10-11T00:00	18450	72	-64.0	-87.1	349	6	
2025-10-11T00:00	18500	71	-63.9	-87.2	355	5	
2025-10-11T00:00	18550	70	-63.8	-87.3	12	4	
2025-10-11T00:00	18600	70	-63.3	-87.3	27	3	
2025-10-11T00:00	18650	69	-62.8	-87.2	21	3	
2025-10-11T00:00	18700	69	-62.6	-87.1	353	2	
2025-10-11T00:00	18750	68	-62.7	-87.1	319	2	
2025-10-11T00:00	18800	68	-62.8	-87.0	290	3	
2025-10-11T00:00	18850	67	-63.1	-87.0	280	4	
2025-10-11T00:00	18900	66	-63.2	-87.1	284	5	
2025-10-11T00:00	18950	66	-63.2	-87.2	293	6	
2025-10-11T00:00	19000	65	-63.4	-87.4	307	6	
2025-10-11T00:00	19050	65	-63.1	-87.3	322	7	
2025-10-11T00:00	19100	64	-63.0	-87.4	332	7	
2025-10-11T00:00	19150	64	-62.7	-87.3	336	7	
2025-10-11T00:00	19200	63	-62.5	-87.2	340	7	
2025-10-11T00:00	19250	63	-62.4	-87.2	347	7	
2025-10-11T00:00	19300	62	-62.4	-87.2	354	7	
2025-10-11T00:00	19350	62	-62.5	-87.1	358	7	
2025-10-11T00:00	19400	61	-62.6	-87.0	3	7	
2025-10-11T00:00	19450	61	-62.9	-87.2	10	7	
2025-10-11T00:00	19500	60	-63.1	-87.2	18	7	
2025-10-11T00:00	19550	60	-63.3	-87.3	25	7	
2025-10-11T00:00	19600	59	-63.4	-87.5	31	6	
2025-10-11T00:00	19650	59	-63.1	-87.4	39	5	
2025-10-11T00:00	19700	58	-62.9	-87.3	49	5	
2025-10-11T00:00	19750	58	-63.1	-87.4	56	5	
2025-10-11T00:00	19800	57	-63.3	-87.5	60	4	
2025-10-11T00:00	19850	57	-63.5	-87.6	58	3	
2025-10-11T00:00	19900	56	-63.5	-87.5	43	2	
2025-10-11T00:00	19950	56	-63.6	-87.6	32	2	
2025-10-11T00:00	20000	56	-63.3	-87.7	43	1	
2025-10-11T00:00	20050	55	-62.7		91	1	
2025-10-11T00:00	20100	55	-62.5		146	1	
2025-10-11T00:00	20150	54	-62.6		177	1	
2025-10-11T00:00	20200	54	-62.8		197	2	
2025-10-11T00:00	20250	53	-63.0		201	2	
2025-10-11T00:00	20300	53	-62.9		193	2	
2025-10-11T00:00	20350	53	-63.0		190	1	
2025-10-11T00:00	20400	52	-62.6		258	1	
2025-10-11T00:00	20450	52	-62.7		330	2	
2025-10-11T00:00	20500	51	-62.8		345	3	
2025-10-11T00:00	20550	51	-62.7		355	5	
2025-10-11T00:00	20600	50	-62.5		2	5	
2025-10-11T00:00	20650	50	-62.3		12	4	
2025-10-11T00:00	20700	50	-62.4		28	3	
2025-10-11T00:00	20750	49	-62.5		43	3	
2025-10-11T00:00	20800	49	-62.8		56	3	
2025-10-11T00:00	20850	48	-63.2		76	3	
2025-10-11T00:00	20900	48	-63.2		100	3	
2025-10-11T00:00	20950	48	-63.2		127	3	
2025-10-11T00:00	21000	47	-63.1		153	3	
2025-10-11T00:00	21050	47	-62.7		178	3	
2025-10-11T00:00	21100	46	-62.6		203	3	
2025-10-11T00:00	21150	46	-62.4		234	3	
2025-10-11T00:00	21200	46	-62.4		260	3	
2025-10-11T00:00	21250	45	-62.0		272	3	
2025-10-11T00:00	21300	45	-61.4		282	3	
2025-10-11T00:00	21350	45	-61.4		292	3	
2025-10-11T00:00	21400	44	-61.6		298	4	
2025-10-11T00:00	21450	44	-61.5		300	4	
2025-10-11T00:00	21500	44	-61.6		301	5	
2025-10-11T00:00	21550	43	-61.6		301	4	
2025-10-11T00:00	21600	43	-61.6		303	4	
2025-10-11T00:00	21650	43	-61.6		313	4	
2025-10-11T00:00	21700	42	-61.6		329	5	
2025-10-11T00:00	21750	42	-61.4		343	5	
2025-10-11T00:00	21800	42	-61.6		353	5	
2025-10-11T00:00	21850	41	-61.9		359	5	
2025-10-11T00:00	21900	41	-62.1		359	4	
2025-10-11T00:00	21950	41	-62.3		357	3	
2025-10-11T00:00	22000	40	-62.3		5	3	
2025-10-11T00:00	22050	40	-62.6		22	3	
2025-10-11T00:00	22100	40	-63.0		27	2	
2025-10-11T00:00	22150	39	-63.3		11	2	
2025-10-11T00:00	22200	39	-63.2		342	3	
2025-10-11T00:00	22250	39	-63.2		325	4	
2025-10-11T00:00	22300	38	-63.4		317	5	
2025-10-11T00:00	22350	38	-63.4		313	7	
2025-10-11T00:00	22400	38	-63.4		310	8	
2025-10-11T00:00	22450	37	-63.6		310	9	
2025-10-11T00:00	22500	37	-63.6		314	8	
2025-10-11T00:00	22550	37	-63.6		321	8	
2025-10-11T00:00	22600	36	-63.7		329	7	
2025-10-11T00:00	22650	36	-63.6		333	7	
2025-10-11T00:00	22700	36	-63.5		331	8	
2025-10-11T00:00	22750	36	-63.3		327	8	
2025-10-11T00:00	22800	35	-63.4		323	8	
2025-10-11T00:00	22850	35	-63.3		321	9	
2025-10-11T00:00	22900	35	-63.3		321	10	
2025-10-11T00:00	22950	34	-63.3		322	9	
2025-10-11T00:00	23000	34	-63.3		325	8	
2025-10-11T00:00	23050	34	-63.2		328	6	
2025-10-11T00:00	23100	34	-63.5		331	4	
2025-10-11T00:00	23150	33	-63.7		325	3	
2025-10-11T00:00	23200	33	-63.9		306	3	
2025-10-11T00:00	23250	33	-63.7		292	3	
2025-10-11T00:00	23300	33	-63.0		288	4	
2025-10-11T00:00	23350	32	-62.9		286	5	
2025-10-11T00:00	23400	32	-62.5		281	5	
2025-10-11T00:00	23450	32	-62.1		270	6	
2025-10-11T00:00	23500	31	-61.4		254	6	
2025-10-11T00:00	23550	31	-60.8		236	7	
2025-10-11T00:00	23600	31	-60.8		226	7	
2025-10-11T00:00	23650	31	-60.8		227	8	
2025-10-11T00:00	23700	30	-60.8		236	8	
2025-10-11T00:00	23750	30	-60.7		247	8	
2025-10-11T00:00	23800	30	-60.5		255	9	
2025-10-11T00:00	23850	30	-60.5		261	9	
2025-10-11T00:00	23900	30	-60.2		264	9	
2025-10-11T00:00	23950	29	-60.1		267	10	
2025-10-11T00:00	24000	29	-60.0		267	10	
2025-10-11T00:00	24050	29	-59.8		270	9	
2025-10-11T00:00	24100	29	-59.3		275	9	
2025-10-11T00:00	24150	28	-59.3		279	9	
2025-10-11T00:00	24200	28	-59.3		276	9	
2025-10-11T00:00	24250	28	-59.2		268	9	
2025-10-11T00:00	24300	28	-59.3		259	9	
2025-10-11T00:00	24350	27	-59.5		255	9	
2025-10-11T00:00	24400	27	-59.2		257	9	
2025-10-11T00:00	24450	27	-59.2		263	10	
2025-10-11T00:00	24500	27	-58.7		272	11	
2025-10-11T00:00	24550	27	-58.1		281	11	
2025-10-11T00:00	24600	26	-58.0		290	12	
2025-10-11T00:00	24650	26	-58.0		298	12	
2025-10-11T00:00	24700	26	-57.7		304	13	
2025-10-11T00:00	24750	26	-57.5		308	14	
2025-10-11T00:00	24800	26	-57.5		311	14	
2025-10-11T00:00	24850	25	-57.5		315	14	
2025-10-11T00:00	24900	25	-57.0		320	13	
2025-10-11T00:00	24950	25	-57.1		326	13	
2025-10-11T00:00	25000	25	-57.5		333	13	
2025-10-11T00:00	25050	25	-57.7		339	13	
2025-10-11T00:00	25100	24	-57.8		345	12	
2025-10-11T00:00	25150	24	-57.6		347	12	
2025-10-11T00:00	25200	24	-57.8		345	11	
2025-10-11T00:00	25250	24	-58.2		340	11	
2025-10-11T00:00	25300	24	-58.6		334	11	
2025-10-11T00:00	25350	23	-58.8		329	11	
2025-10-11T00:00	25400	23	-59.1		326	11	
2025-10-11T00:00	25450	23	-59.5		325	11	
2025-10-11T00:00	25500	23	-60.0		323	12	
2025-10-11T00:00	25550	23	-60.4		319	12	
2025-10-11T00:00	25600	23	-60.7		312	12	
2025-10-11T00:00	25650	22	-61.0		305	13	
2025-10-11T00:00	25700	22	-61.0		300	13	
2025-10-11T00:00	25750	22	-61.0		302	13	
2025-10-11T00:00	25800	22	-60.6		309	13	
2025-10-11T00:00	25850	22	-60.6		317	13	
2025-10-11T00:00	25900	21	-60.7		325	12	
2025-10-11T00:00	25950	21	-60.3		333	11	
2025-10-11T00:00	26000	21	-60.2		343	10	
2025-10-11T00:00	26050	21	-60.2		352	8	
2025-10-11T00:00	26100	21	-60.3		4	6	
2025-10-11T00:00	26150	21	-60.4		16	5	
2025-10-11T00:00	26200	20	-60.3		22	4	
2025-10-11T00:00	26250	20	-59.9		19	4	
2025-10-11T00:00	26300	20	-59.6		16	3	
2025-10-11T00:00	26350	20	-59.1		22	3	
2025-10-11T00:00	26400	20	-58.9		28	3	
2025-10-11T00:00	26450	20	-58.7		17	2	
2025-10-11T00:00	26500	19	-58.3		326	2	
2025-10-11T00:00	26550	19	-57.9		293	3	
2025-10-11T00:00	26600	19	-57.5		286	5	
2025-10-11T00:00	26650	19	-57.1		285	7	
2025-10-11T00:00	26700	19	-56.4		285	9	
2025-10-11T00:00	26750	19	-56.3		287	11	
2025-10-11T00:00	26800	19	-56.3		291	11	
2025-10-11T00:00	26850	18	-56.4		293	11	
2025-10-11T00:00	26900	18	-56.3		292	10	
2025-10-11T00:00	26950	18	-55.9		286	9	
2025-10-11T00:00	27000	18	-55.9		275	8	
2025-10-11T00:00	27050	18	-56.1		262	7	
2025-10-11T00:00	27100	18	-56.1		245	7	
2025-10-11T00:00	27150	18	-56.0		232	7	
2025-10-11T00:00	27200	17	-55.8		229	8	
2025-10-11T00:00	27250	17	-55.4		234	9	
2025-10-11T00:00	27300	17	-55.5		245	9	
2025-10-11T00:00	27350	17	-55.7		259	9	
2025-10-11T00:00	27400	17	-55.9		271	10	
2025-10-11T00:00	27450	17	-56.1		282	10	
2025-10-11T00:00	27500	17	-56.3		291	10	
2025-10-11T00:00	27550	17	-56.6		298	10	
2025-10-11T00:00	27600	16	-56.8		304	9	
2025-10-11T00:00	27650	16	-56.7		309	8	
2025-10-11T00:00	27700	16	-56.7		312	7	
2025-10-11T00:00	27750	16	-56.7		314	6	
2025-10-11T00:00	27800	16	-55.9		318	4	
2025-10-11T00:00	27850	16	-55.5		329	3	
2025-10-11T00:00	27900	16	-55.7		339	3	
2025-10-11T00:00	27950	16	-55.9		327	2	
2025-10-11T00:00	28000	15	-55.6		300	3	
2025-10-11T00:00	28050	15	-55.5		285	4	
2025-10-11T00:00	28100	15	-55.5		284	5	
2025-10-11T00:00	28150	15	-55.5		287	6	
2025-10-11T00:00	28200	15	-55.5		289	6	
2025-10-11T00:00	28250	15	-55.6		290	7	
2025-10-11T00:00	28300	15	-55.6		289	7	
2025-10-11T00:00	28350	15	-55.3		288	8	
2025-10-11T00:00	28400	14	-55.2		290	10	
2025-10-11T00:00	28450	14	-55.3		292	11	
2025-10-11T00:00	28500	14	-55.3		290	11	
2025-10-11T00:00	28550	14	-55.3		286	11	
2025-10-11T00:00	28600	14	-54.7		284	10	
2025-10-11T00:00	28650	14	-54.2		289	11	
2025-10-11T00:00	28700	14	-54.1		296	11	
2025-10-11T00:00	28750	14	-54.3		304	11	
2025-10-11T00:00	28800	14	-54.4		309	11	
2025-10-11T00:00	28850	13	-54.5		310	11	
2025-10-11T00:00	28900	13	-54.5		307	11	
2025-10-11T00:00	28950	13	-54.5		301	10	
2025-10-11T00:00	29000	13	-54.7		295	10	
2025-10-11T00:00	29050	13	-54.9		291	10	
2025-10-11T00:00	29100	13	-55.0		289	9	
2025-10-11T00:00	29150	13	-55.3		288	8	
2025-10-11T00:00	29200	13	-55.5		288	7	
2025-10-11T00:00	29250	13	-55.6		287	6	
2025-10-11T00:00	29300	13	-55.7		280	5	
2025-10-11T00:00	29350	12	-55.9		268	5	
2025-10-11T00:00	29400	12	-56.0		253	5	
2025-10-11T00:00	29450	12	-56.2		244	5	
2025-10-11T00:00	29500	12	-56.0		245	6	
2025-10-11T00:00	29550	12	-55.9		251	7	
2025-10-11T00:00	29600	12	-56.1		255	8	
2025-10-11T00:00	29650	12	-56.0		256	9	
2025-10-11T00:00	29700	12	-55.9		254	9	
2025-10-11T00:00	29750	12	-55.7		250	9	
2025-10-11T00:00	29800	12	-55.1		247	10	
2025-10-11T00:00	29850	12	-54.9		245	10	
2025-10-11T00:00	29900	11	-54.7		244	10	
2025-10-11T00:00	29950	11	-54.6		244	9	
2025-10-11T00:00	30000	11	-54.4		243	9	
2025-10-11T00:00	30050	11	-53.7		243	10	
2025-10-11T00:00	30100	11	-53.3		244	11	
2025-10-11T00:00	30150	11	-53.0		248	11	
2025-10-11T00:00	30200	11	-52.7		252	12	
2025-10-11T00:00	30250	11	-52.6		255	12	
2025-10-11T00:00	30300	11	-51.9		257	11	
2025-10-11T00:00	30350	11	-51.8		256	11	
2025-10-11T00:00	30400	11	-52.0		254	12	
2025-10-11T00:00	30450	10	-52.0		252	13	
2025-10-11T00:00	30500	10	-51.7		250	14	
2025-10-11T00:00	30550	10	-51.7		248	14	
2025-10-11T00:00	30600	10	-51.3		247	14	
2025-10-11T00:00	30650	10	-51.0		246	14	
2025-10-11T00:00	30700	10	-51.0		247	14	
2025-10-11T00:00	30750	10	-51.0		248	14	
2025-10-11T00:00	30800	10	-51.1		250	14	
2025-10-11T00:00	30850	10	-51.2		253	14	
2025-10-11T00:00	30900	10	-51.1		257	14	
2025-10-11T00:00	30950	10	-51.2		260	15	
2025-10-11T00:00	31000	10	-51.2		263	14	
2025-10-11T00:00	31050	10	-51.2		266	13	
2025-10-11T00:00	31100	9	-51.3		267	12	
2025-10-11T00:00	31150	9	-51.1		266	12	
2025-10-11T00:00	31200	9	-50.9		263	12	
2025-10-11T00:00	31250	9	-50.8		259	11	
2025-10-11T00:00	31300	9	-50.8		256	11	
2025-10-11T00:00	31350	9	-51.2		253	11	
2025-10-11T00:00	31400	9	-51.6		252	11	
2025-10-11T00:00	31450	9	-51.9		250	10	
2025-10-11T00:00	31500	9	-52.0		248	10	
2025-10-11T00:00	31550	9	-52.4		244	9	
2025-10-11T00:00	31600	9	-52.8		239	9	
2025-10-11T00:00	31650	9	-53.2		235	10	
2025-10-11T00:00	31700	9	-52.7		236	11	
2025-10-11T00:00	31750	9	-52.4		240	12	
2025-10-11T00:00	31800	9	-52.4		242	14	
2025-10-11T00:00	31850	8	-51.6		244	16	
2025-10-11T00:00	31900	8	-50.1		247	18	
2025-10-11T00:00	31950	8	-49.7		250	20	
2025-10-11T00:00	32000	8	-49.1		253	21	
2025-10-11T00:00	32050	8	-48.7		255	21	
2025-10-11T00:00	32100	8	-48.3		255	22	
2025-10-11T00:00	32150	8	-48.0		255	22	
2025-10-11T00:00	32200	8	-47.7		257	21	
2025-10-11T00:00	32250	8	-47.9		259	20	
2025-10-11T00:00	32300	8	-48.3		262	20	
2025-10-11T00:00	32350	8	-48.5		264	19	
2025-10-11T00:00	32400	8	-48.4		264	19	
2025-10-11T00:00	32450	8	-48.4		264	19	
2025-10-11T00:00	32500	8	-48.5		263	20	
2025-10-11T00:00	32550	8	-48.5		264	20	
2025-10-11T00:00	32600	8	-48.4		266	21	
2025-10-11T00:00	32650	7	-47.8		268	22	
2025-10-11T00:00	32700	7	-47.8		271	23	
2025-10-11T00:00	32750	7	-47.9		273	25	
2025-10-11T00:00	32800	7	-48.0		276	26	
2025-10-11T00:00	32850	7	-48.0		278	27	
2025-10-11T00:00	32900	7	-47.9		279	28	
2025-10-11T00:00	32950	7	-47.5		279	29	
2025-10-11T00:00	33000	7	-47.1		279	29	
2025-10-11T00:00	33050	7	-47.0		279	28	
2025-10-11T00:00	33100	7	-47.2		279	27	
2025-10-11T00:00	33150	7	-47.2		279	26	
2025-10-11T00:00	33200	7	-47.3		280	24	
2025-10-11T00:00	33250	7	-47.3		279	23	
2025-10-11T00:00	33300	7	-47.6		278	22	
2025-10-11T00:00	33350	7	-47.9		278	20	
2025-10-11T00:00	33400	7	-48.2		279	19	
2025-10-11T00:00	33450	7	-48.5		279	17	
2025-10-11T00:00	33500	7	-48.7		275	17	
2025-10-11T00:00	33550	7	-48.3		270	17	
2025-10-11T00:00	33600	6	-47.6		267	18	
2025-10-11T00:00	33650	6	-47.2		268	19	
2025-10-11T00:00	33700	6	-47.1		268	20	
2025-10-11T00:00	33750	6	-46.7		270	21	
2025-10-11T00:00	33800	6	-46.6		271	22	
2025-10-11T00:00	33850	6	-46.1		272	22	
2025-10-11T00:00	33900	6	-45.9		273	21	
2025-10-11T00:00	33950	6	-45.9		274	21	
2025-10-11T00:00	34000	6	-45.8		275	21	
2025-10-11T00:00	34050	6	-45.5		276	21	
2025-10-11T00:00	34100	6	-45.5		277	21	
2025-10-11T00:00	34150	6	-45.6		278	22	
2025-10-11T00:00	34200	6	-45.9		278	21	
2025-10-11T00:00	34250	6	-45.9		276	20	
2025-10-11T00:00	34300	6	-45.9		274	19	
2025-10-11T00:00	34350	6	-46.0		273	19	
2025-10-11T00:00	34400	6	-45.9		275	19	
2025-10-11T00:00	34450	6	-45.3		277	20	
2025-10-11T00:00	34500	6	-44.7		280	21	
2025-10-11T00:00	34550	6	-44.6		281	21	
2025-10-11T00:00	34600	6	-44.6		280	21	
2025-10-11T00:00	34650	6	-43.9		278	21	
2025-10-11T00:00	34700	5	-43.5		276	20	
2025-10-11T00:00	34750	5	-43.5		276	20	
2025-10-11T00:00	34800	5	-43.4		277	20	
2025-10-11T00:00	34850	5	-43.3		278	20	
2025-10-11T00:00	34900	5	-43.1		279	20	
2025-10-11T00:00	34950	5	-43.1		277	21	
2025-10-11T00:00	35000	5	-42.8		274	21	
2025-10-11T00:00	35050	5	-42.5		269	21	
2025-10-11T00:00	35100	5	-42.0		267	21	
2025-10-11T00:00	35150	5	-41.7		267	21	
2025-10-11T00:00	35200	5	-41.1		270	22	
2025-10-11T00:00	35250	5	-41.0		273	23	
2025-10-11T00:00	35300	5	-40.8		275	24	
2025-10-11T00:00	35350	5	-40.3		276	25	
2025-10-11T00:00	35400	5	-40.2		279	25	
2025-10-11T00:00	35450	5	-40.2		281	26	
2025-10-11T00:00	35500	5	-40.2		282	25	
2025-10-11T00:00	35550	5	-40.5		280	24	
2025-10-11T00:00	35600	5	-40.5		276	23	
2025-10-11T00:00	35650	5	-40.2		273	22	
2025-10-11T00:00	35700	5	-40.0		273	22	
2025-10-11T00:00	35750	5	-39.5		276	23	
2025-10-11T00:00	35800	5	-39.3		278	23	
2025-10-11T00:00	35850	5	-39.0		275	23	
2025-10-11T00:00	35900	5	-38.6		272	23	
2025-10-11T00:00	35950	5	-38.1		272	24	
2025-10-11T00:00	36000	5	-37.7		273	25	
2025-10-11T00:00	36050	5	-37.3		273	25	
2025-10-11T00:00	36100	4	-37.1		271	26	
2025-10-11T00:00	36150	4	-36.9		270	27	
2025-10-11T00:00	36200	4	-37.0		269	27	
2025-10-11T00:00	36250	4	-36.6		267	28	
2025-10-11T00:00	36300	4	-36.0		264	29	
2025-10-11T00:00	36350	4	-35.8		261	29	
2025-10-11T00:00	36400	4	-35.5		260	29	
2025-10-11T00:00	36450	4	-35.1		261	29	
2025-10-11T12:00	491	974	11.6	8.8	36	2	
2025-10-11T12:00	501	972	11.0	8.5	29	3	
2025-10-11T12:00	520	970	10.9	8.5	30	3	
2025-10-11T12:00	540	968	10.7	8.2	33	4	
2025-10-11T12:00	560	965	10.5	8.1	36	4	
2025-10-11T12:00	580	963	10.3	8.0	39	5	
2025-10-11T12:00	600	961	10.1	8.0	41	5	
2025-10-11T12:00	620	959	9.9	7.8	42	5	
2025-10-11T12:00	640	956	9.7	7.8	43	5	
2025-10-11T12:00	660	954	9.5	7.8	44	5	
2025-10-11T12:00	680	952	9.4	7.9	44	5	
2025-10-11T12:00	700	949	9.2	7.8	44	5	
2025-10-11T12:00	720	947	9.0	7.8	44	5	
2025-10-11T12:00	740	945	8.8	7.7	45	4	
2025-10-11T12:00	760	943	8.7	7.6	45	4	
2025-10-11T12:00	780	940	8.5	7.4	46	4	
2025-10-11T12:00	800	938	8.4	7.4	47	4	
2025-10-11T12:00	820	936	8.2	7.3	47	4	
2025-10-11T12:00	840	934	8.0	7.3	47	4	
2025-10-11T12:00	860	931	7.8	7.2	46	4	
2025-10-11T12:00	880	929	7.6	7.4	45	4	
2025-10-11T12:00	900	927	7.4	7.4	45	4	
2025-10-11T12:00	920	925	7.2	7.2	45	3	
2025-10-11T12:00	940	922	7.1	7.1	47	3	
2025-10-11T12:00	960	920	6.9	6.9	48	3	
2025-10-11T12:00	980	918	6.8	6.8	49	3	
2025-10-11T12:00	1000	916	6.7	6.7	50	3	
2025-10-11T12:00	1020	913	6.6	6.6	50	3	
2025-10-11T12:00	1040	911	6.5	6.5	49	3	
2025-10-11T12:00	1060	909	6.4	6.4	48	3	
2025-10-11T12:00	1080	907	6.2	6.2	48	3	
2025-10-11T12:00	1100	904	6.1	6.1	49	3	
2025-10-11T12:00	1120	902	6.0	6.0	50	3	
2025-10-11T12:00	1140	900	5.9	5.9	52	3	
2025-10-11T12:00	1160	898	5.8	5.8	55	3	
2025-10-11T12:00	1180	896	5.7	5.7	59	3	
2025-10-11T12:00	1200	894	5.6	5.6	63	3	
2025-10-11T12:00	1220	891	5.5	5.5	71	2	
2025-10-11T12:00	1240	889	5.3	5.3	80	2	
2025-10-11T12:00	1260	887	5.2	5.2	85	3	
2025-10-11T12:00	1280	885	5.1	5.1	87	4	
2025-10-11T12:00	1300	883	5.0	5.0	86	5	
2025-10-11T12:00	1320	881	4.8	4.7	85	6	
2025-10-11T12:00	1340	878	6.0	3.2	83	8	
2025-10-11T12:00	1360	876	9.8	-0.9	82	9	
2025-10-11T12:00	1380	874	12.2	-2.4	79	10	
2025-10-11T12:00	1400	872	12.8	-2.8	78	11	
2025-10-11T12:00	1420	870	13.2	-3.9	76	11	
2025-10-11T12:00	1440	868	13.4	-5.2	74	12	
2025-10-11T12:00	1460	866	13.7	-6.9	73	12	
2025-10-11T12:00	1480	864	13.9	-7.8	72	12	
2025-10-11T12:00	1500	862	14.2	-10.1	71	11	
2025-10-11T12:00	1520	860	14.4	-12.4	71	11	
2025-10-11T12:00	1540	858	14.6	-14.4	70	11	
2025-10-11T12:00	1560	856	14.8	-15.2	69	10	
2025-10-11T12:00	1580	854	15.1	-16.9	68	10	
2025-10-11T12:00	1600	852	15.1	-11.5	67	10	
2025-10-11T12:00	1620	850	14.9	-10.7	66	10	
2025-10-11T12:00	1640	848	14.7	-10.3	66	10	
2025-10-11T12:00	1660	846	14.5	-9.7	66	10	
2025-10-11T12:00	1680	844	14.4	-8.6	66	10	
2025-10-11T12:00	1700	842	14.3	-10.0	66	10	
2025-10-11T12:00	1720	840	14.3	-9.7	65	10	
2025-10-11T12:00	1740	838	14.5	-8.4	63	9	
2025-10-11T12:00	1760	836	14.6	-8.5	62	9	
2025-10-11T12:00	1780	834	14.6	-11.0	60	8	
2025-10-11T12:00	1800	832	14.6	-7.9	58	8	
2025-10-11T12:00	1820	830	14.5	-7.7	58	7	
2025-10-11T12:00	1840	828	14.3	-6.7	59	7	
2025-10-11T12:00	1860	826	14.3	-7.2	61	6	
2025-10-11T12:00	1880	824	14.2	-7.2	63	5	
2025-10-11T12:00	1900	822	14.1	-7.3	66	5	
2025-10-11T12:00	1920	820	14.1	-7.6	68	5	
2025-10-11T12:00	1940	818	14.0	-7.7	70	5	
2025-10-11T12:00	1960	816	14.0	-8.0	73	6	
2025-10-11T12:00	1980	814	13.8	-8.1	74	6	
2025-10-11T12:00	2000	812	13.7	-8.2	76	6	
2025-10-11T12:00	2020	810	13.5	-8.2	76	6	
2025-10-11T12:00	2040	808	13.4	-8.5	76	6	
2025-10-11T12:00	2060	806	13.2	-8.8	75	6	
2025-10-11T12:00	2080	804	13.1	-9.0	73	6	
2025-10-11T12:00	2100	803	13.1	-9.6	72	6	
2025-10-11T12:00	2120	800	13.1	-10.1	73	6	
2025-10-11T12:00	2140	799	12.9	-10.3	74	7	
2025-10-11T12:00	2160	797	12.8	-10.3	77	7	
2025-10-11T12:00	2180	795	12.6	-10.2	78	8	
2025-10-11T12:00	2200	793	12.4	-10.3	79	8	
2025-10-11T12:00	2220	791	12.4	-10.5	79	8	
2025-10-11T12:00	2240	789	12.3	-10.2	76	8	
2025-10-11T12:00	2260	787	12.2	-10.3	73	7	
2025-10-11T12:00	2280	785	12.1	-10.4	70	7	
2025-10-11T12:00	2300	784	12.0	-10.5	67	7	
2025-10-11T12:00	2320	782	11.8	-10.6	63	6	
2025-10-11T12:00	2340	780	11.7	-10.7	60	6	
2025-10-11T12:00	2360	778	11.6	-10.9	58	6	
2025-10-11T12:00	2380	776	11.4	-11.2	57	6	
2025-10-11T12:00	2400	774	11.3	-11.6	57	5	
2025-10-11T12:00	2420	772	11.2	-11.8	58	5	
2025-10-11T12:00	2440	771	11.1	-12.0	60	5	
2025-10-11T12:00	2460	769	10.9	-12.3	64	5	
2025-10-11T12:00	2480	767	10.8	-12.6	67	5	
2025-10-11T12:00	2500	765	10.6	-12.6	70	6	
2025-10-11T12:00	2520	763	10.5	-12.7	73	6	
2025-10-11T12:00	2540	761	10.3	-12.7	76	6	
2025-10-11T12:00	2560	760	10.1	-12.9	77	7	
2025-10-11T12:00	2580	758	10.0	-13.2	77	7	
2025-10-11T12:00	2600	756	9.8	-13.3	77	7	
2025-10-11T12:00	2620	754	9.7	-13.5	75	7	
2025-10-11T12:00	2640	752	9.6	-13.9	72	6	
2025-10-11T12:00	2660	750	9.5	-14.4	68	6	
2025-10-11T12:00	2680	748	9.4	-14.7	65	5	
2025-10-11T12:00	2700	747	9.4	-15.1	60	5	
2025-10-11T12:00	2720	745	9.2	-15.0	55	5	
2025-10-11T12:00	2740	743	9.1	-15.0	51	5	
2025-10-11T12:00	2760	742	9.0	-14.8	49	5	
2025-10-11T12:00	2780	740	8.9	-15.0	47	5	
2025-10-11T12:00	2800	738	8.7	-15.0	48	5	
2025-10-11T12:00	2820	736	8.6	-15.3	51	5	
2025-10-11T12:00	2840	734	8.5	-15.4	56	4	
2025-10-11T12:00	2860	732	8.3	-15.5	59	5	
2025-10-11T12:00	2880	731	8.1	-15.5	61	5	
2025-10-11T12:00	2900	729	7.9	-15.5	62	5	
2025-10-11T12:00	2920	727	7.7	-15.5	62	5	
2025-10-11T12:00	2940	725	7.6	-15.6	61	5	
2025-10-11T12:00	2960	724	7.4	-15.7	61	6	
2025-10-11T12:00	2980	722	7.2	-15.6	61	6	
2025-10-11T12:00	3000	720	7.1	-15.7	60	6	
2025-10-11T12:00	3020	718	6.9	-15.9	58	6	
2025-10-11T12:00	3040	717	6.7	-15.9	55	5	
2025-10-11T12:00	3060	715	6.6	-16.0	51	5	
2025-10-11T12:00	3080	713	6.4	-15.9	46	5	
2025-10-11T12:00	3100	711	6.2	-15.4	45	5	
2025-10-11T12:00	3120	710	6.1	-15.1	48	5	
2025-10-11T12:00	3140	708	5.9	-15.0	51	6	
2025-10-11T12:00	3160	706	5.7	-15.0	54	6	
2025-10-11T12:00	3180	704	5.5	-15.1	56	6	
2025-10-11T12:00	3200	703	5.3	-15.2	58	7	
2025-10-11T12:00	3220	701	5.2	-15.2	58	7	
2025-10-11T12:00	3240	699	5.0	-15.3	58	7	
2025-10-11T12:00	3260	698	4.8	-15.5	58	6	
2025-10-11T12:00	3280	696	4.7	-15.8	58	6	
2025-10-11T12:00	3300	694	4.5	-16.3	61	5	
2025-10-11T12:00	3320	693	4.4	-15.7	64	5	
2025-10-11T12:00	3340	691	4.2	-15.3	69	4	
2025-10-11T12:00	3360	689	4.0	-15.2	74	4	
2025-10-11T12:00	3380	688	3.9	-15.0	77	3	
2025-10-11T12:00	3400	686	3.7	-14.8	78	3	
2025-10-11T12:00	3420	684	3.6	-14.7	76	3	
2025-10-11T12:00	3440	682	3.4	-14.4	71	3	
2025-10-11T12:00	3460	681	3.2	-14.4	65	3	
2025-10-11T12:00	3480	679	3.0	-14.2	60	3	
2025-10-11T12:00	3500	677	2.9	-14.1	55	4	
2025-10-11T12:00	3520	675	2.7	-14.1	51	4	
2025-10-11T12:00	3540	674	2.5	-14.0	48	4	
2025-10-11T12:00	3560	672	2.3	-13.8	46	4	
2025-10-11T12:00	3580	670	2.1	-13.8	45	5	
2025-10-11T12:00	3600	669	1.9	-13.7	45	5	
2025-10-11T12:00	3620	667	1.7	-13.8	46	5	
2025-10-11T12:00	3640	666	1.5	-13.8	47	5	
2025-10-11T12:00	3660	664	1.4	-13.9	49	5	
2025-10-11T12:00	3680	662	1.2	-14.4	53	5	
2025-10-11T12:00	3700	661	1.1	-14.8	56	5	
2025-10-11T12:00	3720	659	0.9	-15.0	58	5	
2025-10-11T12:00	3740	657	0.7	-15.1	59	5	
2025-10-11T12:00	3760	656	0.5	-15.2	60	5	
2025-10-11T12:00	3780	654	0.3	-15.2	61	5	
2025-10-11T12:00	3800	653	0.1	-15.2	61	5	
2025-10-11T12:00	3820	651	0.0	-15.2	62	5	
2025-10-11T12:00	3840	649	-0.2	-15.3	62	5	
2025-10-11T12:00	3860	648	-0.4	-15.4	63	5	
2025-10-11T12:00	3880	646	-0.6	-15.5	65	5	
2025-10-11T12:00	3900	644	-0.8	-15.5	66	5	
2025-10-11T12:00	3920	643	-1.0	-15.6	67	5	
2025-10-11T12:00	3940	641	-1.1	-15.6	69	5	
2025-10-11T12:00	3960	640	-1.3	-15.8	69	5	
2025-10-11T12:00	3980	638	-1.5	-15.8	70	5	
2025-10-11T12:00	4000	636	-1.7	-15.8	70	5	
2025-10-11T12:00	4020	635	-1.8	-15.9	70	5	
2025-10-11T12:00	4040	633	-2.0	-15.9	69	5	
2025-10-11T12:00	4060	632	-2.2	-15.9	69	5	
2025-10-11T12:00	4080	630	-2.4	-15.8	69	5	
2025-10-11T12:00	4100	628	-2.6	-16.0	69	4	
2025-10-11T12:00	4120	627	-2.7	-16.0	69	4	
2025-10-11T12:00	4140	625	-2.9	-16.1	69	4	
2025-10-11T12:00	4160	624	-3.0	-16.1	70	4	
2025-10-11T12:00	4180	622	-3.2	-16.2	73	4	
2025-10-11T12:00	4200	621	-3.4	-16.3	75	4	
2025-10-11T12:00	4220	619	-3.6	-16.4	78	4	
2025-10-11T12:00	4240	617	-3.8	-16.5	80	4	
2025-10-11T12:00	4260	616	-3.9	-16.6	82	4	
2025-10-11T12:00	4280	614	-4.1	-16.6	83	4	
2025-10-11T12:00	4300	613	-4.3	-16.8	81	4	
2025-10-11T12:00	4320	611	-4.5	-16.9	77	4	
2025-10-11T12:00	4340	610	-4.6	-17.3	73	4	
2025-10-11T12:00	4360	608	-4.8	-17.3	69	4	
2025-10-11T12:00	4380	606	-5.0	-17.4	66	4	
2025-10-11T12:00	4400	605	-5.2	-17.5	63	5	
2025-10-11T12:00	4420	603	-5.4	-17.5	58	5	
2025-10-11T12:00	4440	602	-5.5	-17.7	54	5	
2025-10-11T12:00	4460	600	-5.7	-18.0	51	5	
2025-10-11T12:00	4480	599	-5.8	-18.1	48	5	
2025-10-11T12:00	4500	597	-6.0	-18.3	47	6	
2025-10-11T12:00	4520	596	-6.1	-18.6	46	6	
2025-10-11T12:00	4540	594	-6.3	-19.0	47	7	
2025-10-11T12:00	4560	593	-6.4	-19.5	49	7	
2025-10-11T12:00	4580	591	-6.5	-19.9	51	7	
2025-10-11T12:00	4600	590	-6.7	-20.2	54	7	
2025-10-11T12:00	4620	588	-6.9	-20.3	58	7	
2025-10-11T12:00	4640	587	-7.0	-20.4	62	7	
2025-10-11T12:00	4660	585	-7.2	-20.7	67	7	
2025-10-11T12:00	4680	584	-7.3	-21.0	71	7	
2025-10-11T12:00	4700	582	-7.5	-21.4	74	7	
2025-10-11T12:00	4720	581	-7.6	-21.8	78	7	
2025-10-11T12:00	4740	579	-7.8	-22.3	80	7	
2025-10-11T12:00	4760	578	-8.0	-23.0	82	7	
2025-10-11T12:00	4780	576	-8.0	-23.5	84	7	
2025-10-11T12:00	4800	575	-8.2	-24.4	85	7	
2025-10-11T12:00	4820	573	-8.2	-26.4	85	6	
2025-10-11T12:00	4840	572	-8.3	-28.1	82	6	
2025-10-11T12:00	4860	570	-8.4	-29.0	79	6	
2025-10-11T12:00	4880	569	-8.5	-29.7	74	6	
2025-10-11T12:00	4900	568	-8.6	-30.1	70	6	
2025-10-11T12:00	4920	566	-8.7	-30.4	66	6	
2025-10-11T12:00	4940	564	-8.9	-30.7	63	6	
2025-10-11T12:00	4960	563	-9.0	-31.0	60	5	
2025-10-11T12:00	4980	561	-9.1	-31.2	58	5	
2025-10-11T12:00	5000	560	-9.2	-31.2	56	5	
2025-10-11T12:00	5020	559	-9.3	-31.3	55	4	
2025-10-11T12:00	5040	557	-9.5	-31.4	54	4	
2025-10-11T12:00	5060	556	-9.6	-31.7	54	5	
2025-10-11T12:00	5080	554	-9.7	-31.8	55	5	
2025-10-11T12:00	5100	553	-9.9	-31.8	58	5	
2025-10-11T12:00	5120	551	-9.9	-32.4	61	5	
2025-10-11T12:00	5140	550	-9.8	-33.2	66	6	
2025-10-11T12:00	5160	548	-9.7	-33.8	69	6	
2025-10-11T12:00	5180	547	-9.6	-34.3	73	6	
2025-10-11T12:00	5200	546	-9.6	-34.1	77	6	
2025-10-11T12:00	5220	544	-9.6	-32.8	81	6	
2025-10-11T12:00	5240	543	-9.8	-31.9	84	6	
2025-10-11T12:00	5260	541	-10.0	-31.8	87	6	
2025-10-11T12:00	5280	540	-10.2	-29.9	89	6	
2025-10-11T12:00	5300	539	-10.3	-30.0	91	6	
2025-10-11T12:00	5320	537	-10.5	-31.9	91	5	
2025-10-11T12:00	5340	536	-10.6	-33.0	90	5	
2025-10-11T12:00	5360	535	-10.8	-32.8	89	5	
2025-10-11T12:00	5380	533	-10.9	-32.2	88	5	
2025-10-11T12:00	5400	532	-11.1	-31.7	87	6	
2025-10-11T12:00	5420	530	-11.2	-31.8	85	6	
2025-10-11T12:00	5440	529	-11.4	-31.5	85	6	
2025-10-11T12:00	5460	527	-11.6	-30.1	84	6	
2025-10-11T12:00	5480	526	-11.8	-30.5	83	6	
2025-10-11T12:00	5500	525	-11.9	-30.7	81	6	
2025-10-11T12:00	5520	523	-12.1	-30.1	80	5	
2025-10-11T12:00	5540	522	-12.3	-29.3	77	5	
2025-10-11T12:00	5560	521	-12.4	-29.4	72	5	
2025-10-11T12:00	5580	519	-12.6	-29.6	68	5	
2025-10-11T12:00	5600	518	-12.8	-29.8	65	5	
2025-10-11T12:00	5620	517	-12.9	-30.1	63	5	
2025-10-11T12:00	5640	515	-13.1	-30.5	62	4	
2025-10-11T12:00	5660	514	-13.3	-30.9	62	4	
2025-10-11T12:00	5680	512	-13.4	-30.8	62	4	
2025-10-11T12:00	5700	511	-13.6	-30.9	64	4	
2025-10-11T12:00	5720	510	-13.7	-31.3	65	4	
2025-10-11T12:00	5740	509	-13.8	-31.6	65	4	
2025-10-11T12:00	5760	507	-14.0	-31.8	66	4	
2025-10-11T12:00	5780	506	-14.0	-32.1	65	4	
2025-10-11T12:00	5800	505	-14.1	-32.0	64	4	
2025-10-11T12:00	5820	503	-14.3	-32.1	62	4	
2025-10-11T12:00	5840	502	-14.4	-32.2	60	3	
2025-10-11T12:00	5860	500	-14.6	-32.3	57	3	
2025-10-11T12:00	5880	499	-14.7	-32.5	56	3	
2025-10-11T12:00	5900	498	-14.9	-32.7	56	2	
2025-10-11T12:00	5920	496	-15.1	-33.0	60	2	
2025-10-11T12:00	5940	495	-15.2	-33.1	71	2	
2025-10-11T12:00	5960	494	-15.4	-33.1	90	2	
2025-10-11T12:00	5980	493	-15.5	-33.2	106	2	
2025-10-11T12:00	6000	491	-15.7	-33.4	116	2	
2025-10-11T12:00	6020	490	-15.9	-33.7	122	2	
2025-10-11T12:00	6040	489	-15.9	-33.6	127	2	
2025-10-11T12:00	6060	487	-16.0	-33.7	128	2	
2025-10-11T12:00	6080	486	-16.2	-33.6	127	3	
2025-10-11T12:00	6100	485	-16.3	-33.5	122	3	
2025-10-11T12:00	6120	484	-16.5	-33.5	115	2	
2025-10-11T12:00	6140	482	-16.7	-33.4	108	2	
2025-10-11T12:00	6160	481	-16.9	-33.5	101	2	
2025-10-11T12:00	6180	480	-17.1	-33.6	98	2	
2025-10-11T12:00	6200	478	-17.2	-33.5	96	2	
2025-10-11T12:00	6220	477	-17.4	-33.4	97	2	
2025-10-11T12:00	6240	476	-17.5	-33.5	99	2	
2025-10-11T12:00	6260	475	-17.7	-33.5	104	2	
2025-10-11T12:00	6280	473	-17.8	-33.6	107	2	
2025-10-11T12:00	6300	472	-18.0	-33.7	109	2	
2025-10-11T12:00	6320	471	-18.2	-33.8	106	1	
2025-10-11T12:00	6340	470	-18.4	-33.9	90	1	
2025-10-11T12:00	6360	468	-18.6	-33.8	61	1	
2025-10-11T12:00	6380	467	-18.8	-33.8	38	1	
2025-10-11T12:00	6400	466	-18.9	-33.7	25	2	
2025-10-11T12:00	6420	465	-19.0	-33.6	19	3	
2025-10-11T12:00	6440	463	-19.2	-33.9	18	3	
2025-10-11T12:00	6460	462	-19.3	-34.4	18	4	
2025-10-11T12:00	6480	461	-19.5	-34.7	19	4	
2025-10-11T12:00	6500	460	-19.6	-35.0	20	5	
2025-10-11T12:00	6520	458	-19.8	-35.6	20	5	
2025-10-11T12:00	6540	457	-19.7	-37.8	21	5	
2025-10-11T12:00	6560	456	-19.5	-40.7	20	5	
2025-10-11T12:00	6580	455	-19.5	-41.6	18	6	
2025-10-11T12:00	6600	453	-19.6	-42.0	16	6	
2025-10-11T12:00	6620	452	-19.7	-42.6	13	6	
2025-10-11T12:00	6640	451	-19.8	-43.2	12	6	
2025-10-11T12:00	6660	450	-20.0	-43.5	12	7	
2025-10-11T12:00	6680	449	-20.1	-43.7	12	7	
2025-10-11T12:00	6700	447	-20.3	-43.8	13	7	
2025-10-11T12:00	6720	446	-20.4	-43.8	14	8	
2025-10-11T12:00	6740	445	-20.6	-43.7	16	8	
2025-10-11T12:00	6760	444	-20.7	-43.7	19	8	
2025-10-11T12:00	6780	443	-20.8	-43.7	22	9	
2025-10-11T12:00	6800	441	-20.9	-44.1	25	9	
2025-10-11T12:00	6820	440	-21.0	-44.6	27	9	
2025-10-11T12:00	6840	439	-21.1	-45.0	30	9	
2025-10-11T12:00	6860	438	-21.2	-44.5	32	9	
2025-10-11T12:00	6880	437	-21.2	-44.3	33	9	
2025-10-11T12:00	6900	435	-21.3	-43.9	34	9	
2025-10-11T12:00	6920	434	-21.4	-43.7	35	9	
2025-10-11T12:00	6940	433	-21.6	-43.8	35	9	
2025-10-11T12:00	6960	432	-21.7	-43.9	35	9	
2025-10-11T12:00	6980	431	-21.8	-43.9	35	9	
2025-10-11T12:00	7000	430	-22.0	-43.9	35	9	
2025-10-11T12:00	7020	428	-22.2	-43.8	35	9	
2025-10-11T12:00	7040	427	-22.3	-43.8	36	9	
2025-10-11T12:00	7060	426	-22.5	-43.7	36	9	
2025-10-11T12:00	7080	425	-22.6	-43.8	37	9	
2025-10-11T12:00	7100	424	-22.8	-43.9	37	9	
2025-10-11T12:00	7120	422	-23.0	-44.0	37	9	
2025-10-11T12:00	7140	421	-23.1	-44.2	37	9	
2025-10-11T12:00	7160	420	-23.3	-44.3	37	8	
2025-10-11T12:00	7180	419	-23.4	-44.5	36	8	
2025-10-11T12:00	7200	418	-23.6	-44.7	36	8	
2025-10-11T12:00	7220	417	-23.7	-44.8	35	8	
2025-10-11T12:00	7240	416	-23.9	-44.6	35	8	
2025-10-11T12:00	7260	415	-24.0	-44.8	34	8	
2025-10-11T12:00	7280	413	-24.1	-45.0	34	8	
2025-10-11T12:00	7300	412	-24.3	-45.3	34	8	
2025-10-11T12:00	7320	411	-24.5	-45.4	35	8	
2025-10-11T12:00	7340	410	-24.6	-45.7	35	8	
2025-10-11T12:00	7360	409	-24.7	-45.8	36	8	
2025-10-11T12:00	7380	408	-24.8	-45.8	36	8	
2025-10-11T12:00	7400	407	-24.8	-46.7	37	7	
2025-10-11T12:00	7420	406	-24.9	-47.3	38	7	
2025-10-11T12:00	7440	404	-25.0	-47.2	38	7	
2025-10-11T12:00	7460	403	-25.1	-47.0	38	7	
2025-10-11T12:00	7480	402	-25.2	-47.1	38	7	
2025-10-11T12:00	7500	401	-25.4	-46.9	38	7	
2025-10-11T12:00	7520	400	-25.6	-47.1	39	7	
2025-10-11T12:00	7540	399	-25.7	-47.4	39	7	
2025-10-11T12:00	7560	398	-25.9	-46.8	39	7	
2025-10-11T12:00	7580	397	-26.0	-46.6	40	7	
2025-10-11T12:00	7600	395	-26.2	-46.9	40	6	
2025-10-11T12:00	7620	394	-26.4	-47.2	40	6	
2025-10-11T12:00	7640	393	-26.5	-47.6	41	6	
2025-10-11T12:00	7660	392	-26.7	-47.7	41	6	
2025-10-11T12:00	7680	391	-26.8	-48.0	41	6	
2025-10-11T12:00	7700	390	-27.0	-48.2	42	6	
2025-10-11T12:00	7720	389	-27.1	-48.3	43	6	
2025-10-11T12:00	7740	388	-27.2	-48.5	45	6	
2025-10-11T12:00	7760	387	-27.3	-48.8	48	6	
2025-10-11T12:00	7780	386	-27.5	-48.7	50	6	
2025-10-11T12:00	7800	385	-27.6	-48.7	54	6	
2025-10-11T12:00	7820	384	-27.8	-48.8	58	6	
2025-10-11T12:00	7840	383	-28.0	-48.6	61	6	
2025-10-11T12:00	7860	382	-28.1	-48.3	63	6	
2025-10-11T12:00	7880	381	-28.3	-48.3	65	6	
2025-10-11T12:00	7900	379	-28.5	-48.5	66	5	
2025-10-11T12:00	7920	378	-28.7	-49.0	66	5	
2025-10-11T12:00	7940	377	-28.8	-50.0	66	5	
2025-10-11T12:00	7960	376	-28.9	-50.0	66	5	
2025-10-11T12:00	7980	375	-29.1	-50.0	67	4	
2025-10-11T12:00	8000	374	-29.3	-49.9	70	4	
2025-10-11T12:00	8020	373	-29.5	-49.8	74	4	
2025-10-11T12:00	8040	372	-29.6	-49.7	79	4	
2025-10-11T12:00	8060	371	-29.9	-49.5	84	4	
2025-10-11T12:00	8080	370	-30.0	-49.3	87	5	
2025-10-11T12:00	8100	369	-30.2	-49.0	90	5	
2025-10-11T12:00	8120	368	-30.4	-48.7	93	5	
2025-10-11T12:00	8140	367	-30.5	-48.8	95	5	
2025-10-11T12:00	8160	366	-30.7	-48.9	98	5	
2025-10-11T12:00	8180	365	-30.9	-49.0	100	5	
2025-10-11T12:00	8200	364	-31.2	-49.1	100	5	
2025-10-11T12:00	8220	363	-31.4	-49.1	100	5	
2025-10-11T12:00	8240	362	-31.5	-49.2	99	5	
2025-10-11T12:00	8260	361	-31.7	-49.3	98	4	
2025-10-11T12:00	8280	360	-31.9	-49.3	98	4	
2025-10-11T12:00	8300	359	-32.1	-49.6	98	4	
2025-10-11T12:00	8320	358	-32.3	-49.7	98	4	
2025-10-11T12:00	8340	357	-32.5	-49.8	100	4	
2025-10-11T12:00	8360	356	-32.6	-49.9	103	4	
2025-10-11T12:00	8380	355	-32.8	-50.1	105	4	
2025-10-11T12:00	8400	354	-33.0	-50.1	108	4	
2025-10-11T12:00	8420	353	-33.2	-50.2	111	4	
2025-10-11T12:00	8440	352	-33.4	-50.3	115	3	
2025-10-11T12:00	8460	351	-33.6	-50.4	120	3	
2025-10-11T12:00	8480	350	-33.8	-50.6	124	3	
2025-10-11T12:00	8500	349	-34.0	-50.8	129	3	
2025-10-11T12:00	8520	348	-34.1	-51.0	134	3	
2025-10-11T12:00	8540	347	-34.2	-51.2	138	3	
2025-10-11T12:00	8560	346	-34.3	-51.3	142	3	
2025-10-11T12:00	8580	345	-34.4	-51.5	144	3	
2025-10-11T12:00	8600	344	-34.6	-51.7	144	3	
2025-10-11T12:00	8620	343	-34.8	-51.8	142	4	
2025-10-11T12:00	8640	342	-34.9	-51.9	140	4	
2025-10-11T12:00	8660	341	-35.1	-52.0	137	4	
2025-10-11T12:00	8680	340	-35.2	-52.2	134	4	
2025-10-11T12:00	8700	339	-35.4	-52.2	132	4	
2025-10-11T12:00	8720	338	-35.6	-52.2	130	5	
2025-10-11T12:00	8740	337	-35.8	-52.3	128	5	
2025-10-11T12:00	8760	336	-36.0	-52.7	128	5	
2025-10-11T12:00	8780	335	-36.1	-52.7	130	5	
2025-10-11T12:00	8800	334	-36.3	-52.7	132	5	
2025-10-11T12:00	8820	333	-36.5	-52.7	136	5	
2025-10-11T12:00	8840	332	-36.7	-52.8	141	5	
2025-10-11T12:00	8860	331	-36.9	-52.8	145	5	
2025-10-11T12:00	8880	330	-37.1	-52.7	149	5	
2025-10-11T12:00	8900	329	-37.2	-52.6	151	5	
2025-10-11T12:00	8920	328	-37.4	-52.7	153	5	
2025-10-11T12:00	8940	327	-37.6	-52.8	154	6	
2025-10-11T12:00	8960	326	-37.8	-53.0	155	6	
2025-10-11T12:00	8980	325	-38.0	-52.9	155	5	
2025-10-11T12:00	9000	324	-38.2	-53.1	155	5	
2025-10-11T12:00	9020	324	-38.3	-53.0	154	5	
2025-10-11T12:00	9040	323	-38.5	-52.9	153	5	
2025-10-11T12:00	9060	322	-38.7	-53.0	151	5	
2025-10-11T12:00	9080	321	-38.9	-53.1	149	5	
2025-10-11T12:00	9100	320	-39.1	-53.2	147	5	
2025-10-11T12:00	9120	319	-39.3	-53.2	144	5	
2025-10-11T12:00	9140	318	-39.5	-53.4	143	5	
2025-10-11T12:00	9160	317	-39.6	-53.6	141	5	
2025-10-11T12:00	9180	316	-39.8	-53.8	140	5	
2025-10-11T12:00	9200	315	-39.9	-54.0	139	5	
2025-10-11T12:00	9220	314	-40.1	-54.1	137	4	
2025-10-11T12:00	9240	313	-40.3	-54.0	134	4	
2025-10-11T12:00	9260	312	-40.4	-54.1	130	4	
2025-10-11T12:00	9280	311	-40.6	-54.3	126	3	
2025-10-11T12:00	9300	311	-40.7	-54.7	119	3	
2025-10-11T12:00	9320	310	-40.9	-55.2	113	3	
2025-10-11T12:00	9340	309	-41.0	-55.8	107	3	
2025-10-11T12:00	9360	308	-41.2	-55.8	101	3	
2025-10-11T12:00	9380	307	-41.3	-55.9	98	3	
2025-10-11T12:00	9400	306	-41.5	-55.6	94	3	
2025-10-11T12:00	9420	305	-41.8	-55.5	91	3	
2025-10-11T12:00	9440	304	-41.9	-55.9	90	3	
2025-10-11T12:00	9460	303	-42.1	-57.1	90	3	
2025-10-11T12:00	9480	302	-42.2	-58.6	90	3	
2025-10-11T12:00	9500	302	-42.3	-59.2	92	3	
2025-10-11T12:00	9520	301	-42.5	-58.9	94	2	
2025-10-11T12:00	9540	300	-42.7	-58.4	97	2	
2025-10-11T12:00	9560	299	-42.9	-58.1	100	2	
2025-10-11T12:00	9580	298	-43.1	-58.4	102	2	
2025-10-11T12:00	9600	297	-43.2	-58.4	103	2	
2025-10-11T12:00	9620	296	-43.5	-58.2	102	2	
2025-10-11T12:00	9640	295	-43.6	-58.3	101	2	
2025-10-11T12:00	9660	294	-43.8	-58.4	100	2	
2025-10-11T12:00	9680	294	-44.0	-58.3	100	3	
2025-10-11T12:00	9700	293	-44.2	-58.6	101	3	
2025-10-11T12:00	9720	292	-44.3	-58.8	102	3	
2025-10-11T12:00	9740	291	-44.5	-58.9	105	3	
2025-10-11T12:00	9760	290	-44.7	-58.8	107	3	
2025-10-11T12:00	9780	289	-44.8	-58.9	111	3	
2025-10-11T12:00	9800	288	-45.0	-58.9	115	2	
2025-10-11T12:00	9820	288	-45.2	-58.9	118	2	
2025-10-11T12:00	9840	287	-45.3	-58.8	121	2	
2025-10-11T12:00	9860	286	-45.5	-59.0	122	2	
2025-10-11T12:00	9880	285	-45.7	-59.1	124	2	
2025-10-11T12:00	9900	284	-45.9	-59.1	127	2	
2025-10-11T12:00	9920	283	-46.0	-59.3	131	2	
2025-10-11T12:00	9940	282	-46.2	-59.5	137	2	
2025-10-11T12:00	9960	281	-46.3	-59.7	143	2	
2025-10-11T12:00	9980	281	-46.5	-59.8	149	2	
2025-10-11T12:00	10000	280	-46.7	-59.9	157	2	
2025-10-11T12:00	10018	279	-46.9	-60.0	165	1	
2025-10-11T12:00	10050	278	-47.1	-60.0	183	1	
2025-10-11T12:00	10100	276	-47.5	-60.2	236	1	
2025-10-11T12:00	10150	274	-47.9	-60.2	256	1	
2025-10-11T12:00	10200	271	-48.4	-60.5	247	1	
2025-10-11T12:00	10250	269	-48.8	-61.0	247	2	
2025-10-11T12:00	10300	267	-49.1	-61.1	255	1	
2025-10-11T12:00	10350	265	-49.5	-61.5	256	1	
2025-10-11T12:00	10400	263	-49.9	-61.8	233	1	
2025-10-11T12:00	10450	261	-50.4	-62.3	214	1	
2025-10-11T12:00	10500	259	-50.7	-63.1	199	0	
2025-10-11T12:00	10550	257	-51.1	-63.2	90	0	
2025-10-11T12:00	10600	255	-51.4	-63.9	111	1	
2025-10-11T12:00	10650	253	-51.7	-63.8	126	2	
2025-10-11T12:00	10700	251	-52.2	-63.6	132	2	
2025-10-11T12:00	10750	250	-52.6	-63.4	134	3	
2025-10-11T12:00	10800	247	-53.0	-63.0	137	3	
2025-10-11T12:00	10850	246	-53.4	-63.2	143	3	
2025-10-11T12:00	10900	244	-53.7	-63.9	147	2	
2025-10-11T12:00	10950	242	-54.1	-64.4	145	2	
2025-10-11T12:00	11000	240	-54.4	-64.3	141	2	
2025-10-11T12:00	11050	238	-54.8	-64.3	141	2	
2025-10-11T12:00	11100	236	-55.1	-64.5	144	2	
2025-10-11T12:00	11150	234	-55.4	-65.2	146	3	
2025-10-11T12:00	11200	233	-55.8	-65.4	149	3	
2025-10-11T12:00	11250	231	-56.2	-65.6	152	3	
2025-10-11T12:00	11300	229	-56.6	-65.7	156	3	
2025-10-11T12:00	11350	227	-57.0	-65.9	162	3	
2025-10-11T12:00	11400	225	-57.4	-66.5	168	3	
2025-10-11T12:00	11450	224	-57.8	-67.2	169	4	
2025-10-11T12:00	11500	222	-57.9	-67.7	171	3	
2025-10-11T12:00	11550	220	-58.2	-67.7	181	3	
2025-10-11T12:00	11600	218	-58.6	-67.6	198	3	
2025-10-11T12:00	11650	217	-59.0	-67.7	220	2	
2025-10-11T12:00	11700	215	-59.4	-67.7	254	2	
2025-10-11T12:00	11750	213	-59.9	-67.8	285	2	
2025-10-11T12:00	11800	211	-60.2	-68.0	306	2	
2025-10-11T12:00	11850	210	-60.4	-68.4	335	1	
2025-10-11T12:00	11900	208	-60.3	-68.7	21	1	
2025-10-11T12:00	11950	206	-60.2	-69.1	33	2	
2025-10-11T12:00	12000	205	-60.4	-69.3	37	3	
2025-10-11T12:00	12050	203	-60.9	-69.5	41	3	
2025-10-11T12:00	12100	202	-61.3	-69.7	44	3	
2025-10-11T12:00	12150	200	-61.7	-69.6	41	3	
2025-10-11T12:00	12200	198	-62.1	-69.7	35	3	
2025-10-11T12:00	12250	197	-62.3	-69.9	31	3	
2025-10-11T12:00	12300	195	-62.7	-70.1	30	3	
2025-10-11T12:00	12350	193	-63.0	-70.0	34	3	
2025-10-11T12:00	12400	192	-63.1	-69.9	38	3	
2025-10-11T12:00	12450	190	-63.4	-69.9	40	2	
2025-10-11T12:00	12500	189	-63.8	-69.9	33	2	
2025-10-11T12:00	12550	187	-64.2	-70.0	18	2	
2025-10-11T12:00	12600	186	-64.6	-70.2	7	3	
2025-10-11T12:00	12650	184	-64.6	-70.4	1	4	
2025-10-11T12:00	12700	183	-64.4	-70.9	355	5	
2025-10-11T12:00	12750	181	-64.3	-71.6	350	5	
2025-10-11T12:00	12800	180	-63.7	-72.2	352	5	
2025-10-11T12:00	12850	178	-62.7	-73.3	5	4	
2025-10-11T12:00	12900	177	-62.5	-74.4	26	3	
2025-10-11T12:00	12950	175	-62.6	-75.5	38	3	
2025-10-11T12:00	13000	174	-62.2	-76.6	42	2	
2025-10-11T12:00	13050	173	-61.5	-77.5	62	2	
2025-10-11T12:00	13100	171	-61.3	-78.2	102	2	
2025-10-11T12:00	13150	170	-61.6	-78.3	115	2	
2025-10-11T12:00	13200	169	-61.9	-78.3	114	2	
2025-10-11T12:00	13250	167	-61.8	-78.2	106	2	
2025-10-11T12:00	13300	166	-62.1	-78.4	106	2	
2025-10-11T12:00	13350	164	-62.1	-78.7	111	2	
2025-10-11T12:00	13400	163	-61.7	-79.0	98	2	
2025-10-11T12:00	13450	162	-61.7	-79.7	64	2	
2025-10-11T12:00	13500	160	-61.3	-80.2	44	3	
2025-10-11T12:00	13550	159	-61.0	-80.7	38	4	
2025-10-11T12:00	13600	158	-60.9	-81.2	35	4	
2025-10-11T12:00	13650	157	-60.9	-81.4	29	5	
2025-10-11T12:00	13700	155	-61.1	-81.7	19	4	
2025-10-11T12:00	13750	154	-61.1	-81.8	11	4	
2025-10-11T12:00	13800	153	-61.2	-82.0	8	3	
2025-10-11T12:00	13850	152	-61.4	-82.2	14	3	
2025-10-11T12:00	13900	150	-61.6	-82.3	27	3	
2025-10-11T12:00	13950	149	-61.9	-82.3	35	3	
2025-10-11T12:00	14000	148	-62.2	-82.5	31	3	
2025-10-11T12:00	14050	147	-62.3	-82.7	24	4	
2025-10-11T12:00	14100	146	-62.3	-82.8	23	4	
2025-10-11T12:00	14150	145	-62.5	-82.9	22	5	
2025-10-11T12:00	14200	143	-62.8	-83.1	18	6	
2025-10-11T12:00	14250	142	-62.6	-83.1	14	7	
2025-10-11T12:00	14300	141	-62.3	-83.3	12	7	
2025-10-11T12:00	14350	140	-62.5	-83.4	11	7	
2025-10-11T12:00	14400	139	-62.7	-83.5	10	7	
2025-10-11T12:00	14450	138	-62.7	-83.5	12	8	
2025-10-11T12:00	14500	137	-62.7	-83.4	16	8	
2025-10-11T12:00	14550	135	-63.1	-83.6	19	8	
2025-10-11T12:00	14600	134	-63.6	-83.6	20	8	
2025-10-11T12:00	14650	133	-63.7	-83.6	20	7	
2025-10-11T12:00	14700	132	-63.7	-83.7	23	6	
2025-10-11T12:00	14750	131	-63.5	-83.8	25	5	
2025-10-11T12:00	14800	130	-63.2	-83.8	23	6	
2025-10-11T12:00	14850	129	-63.2	-83.9	19	6	
2025-10-11T12:00	14900	128	-63.4	-84.0	7	5	
2025-10-11T12:00	14950	127	-63.5	-84.0	356	5	
2025-10-11T12:00	15000	126	-63.8	-84.1	358	5	
2025-10-11T12:00	15050	125	-64.0	-84.0	2	6	
2025-10-11T12:00	15100	124	-64.4	-84.1	4	7	
2025-10-11T12:00	15150	123	-64.7	-84.2	8	7	
2025-10-11T12:00	15200	122	-64.5	-84.2	17	7	
2025-10-11T12:00	15250	121	-64.2	-84.2	27	7	
2025-10-11T12:00	15300	120	-64.0	-84.1	36	7	
2025-10-11T12:00	15350	119	-64.3	-84.2	45	6	
2025-10-11T12:00	15400	118	-64.8	-84.3	56	6	
2025-10-11T12:00	15450	117	-64.9	-84.2	64	6	
2025-10-11T12:00	15500	116	-65.0	-84.2	66	6	
2025-10-11T12:00	15550	115	-65.3	-84.3	65	6	
2025-10-11T12:00	15600	114	-65.7	-84.4	68	6	
2025-10-11T12:00	15650	113	-65.9	-84.4	73	5	
2025-10-11T12:00	15700	112	-66.1	-84.5	77	5	
2025-10-11T12:00	15750	111	-66.3	-84.6	81	4	
2025-10-11T12:00	15800	110	-66.4	-84.7	84	3	
2025-10-11T12:00	15850	109	-66.5	-84.9	84	1	
2025-10-11T12:00	15900	109	-66.0	-84.8	263	0	
2025-10-11T12:00	15950	108	-65.7	-84.9	256	1	
2025-10-11T12:00	16000	107	-65.4	-85.0	261	2	
2025-10-11T12:00	16050	106	-64.8	-84.9	271	3	
2025-10-11T12:00	16100	105	-64.8	-85.2	280	4	
2025-10-11T12:00	16150	104	-64.7	-85.2	291	5	
2025-10-11T12:00	16200	103	-64.6	-85.3	302	5	
2025-10-11T12:00	16250	103	-64.9	-85.4	313	6	
2025-10-11T12:00	16300	102	-65.3	-85.4	325	6	
2025-10-11T12:00	16350	101	-65.5	-85.6	337	6	
2025-10-11T12:00	16400	100	-65.6	-85.8	346	7	
2025-10-11T12:00	16450	99	-65.0	-85.6	352	7	
2025-10-11T12:00	16500	98	-64.8	-85.5	359	8	
2025-10-11T12:00	16550	98	-65.2	-85.6	6	8	
2025-10-11T12:00	16600	97	-65.6	-85.8	16	8	
2025-10-11T12:00	16650	96	-65.3	-85.8	27	7	
2025-10-11T12:00	16700	95	-64.9	-85.8	31	6	
2025-10-11T12:00	16750	94	-64.5	-85.9	26	6	
2025-10-11T12:00	16800	94	-64.5	-85.9	17	6	
2025-10-11T12:00	16850	93	-64.8	-86.0	11	6	
2025-10-11T12:00	16900	92	-65.2	-86.0	7	5	
2025-10-11T12:00	16950	91	-65.4	-86.0	1	4	
2025-10-11T12:00	17000	91	-65.7	-86.0	352	4	
2025-10-11T12:00	17050	90	-66.0	-86.1	344	4	
2025-10-11T12:00	17100	89	-66.3	-86.1	339	4	
2025-10-11T12:00	17150	88	-66.6	-86.2	335	4	
2025-10-11T12:00	17200	88	-66.9	-86.3	331	5	
2025-10-11T12:00	17250	87	-67.2	-86.4	332	5	
2025-10-11T12:00	17300	86	-67.4	-86.5	338	6	
2025-10-11T12:00	17350	86	-67.6	-86.6	344	7	
2025-10-11T12:00	17400	85	-67.5	-86.8	352	8	
2025-10-11T12:00	17450	84	-66.8	-87.0	3	9	
2025-10-11T12:00	17500	83	-65.5	-86.9	18	8	
2025-10-11T12:00	17550	83	-64.7	-86.7	31	8	
2025-10-11T12:00	17600	82	-64.7	-86.9	42	8	
2025-10-11T12:00	17650	81	-64.6	-86.9	52	7	
2025-10-11T12:00	17700	81	-64.4	-86.9	56	6	
2025-10-11T12:00	17750	80	-64.5	-86.9	51	5	
2025-10-11T12:00	17800	79	-64.8	-87.0	42	5	
2025-10-11T12:00	17850	79	-65.1	-87.0	34	5	
2025-10-11T12:00	17900	78	-65.4	-87.1	30	5	
2025-10-11T12:00	17950	77	-65.6	-87.2	32	6	
2025-10-11T12:00	18000	77	-65.7	-87.3	38	6	
2025-10-11T12:00	18050	76	-65.7	-87.4	48	5	
2025-10-11T12:00	18100	76	-65.5	-87.4	64	3	
2025-10-11T12:00	18150	75	-65.5	-87.4	90	2	
2025-10-11T12:00	18200	74	-65.6	-87.5	144	1	
2025-10-11T12:00	18250	74	-65.7	-87.5	210	1	
2025-10-11T12:00	18300	73	-65.7	-87.6	258	2	
2025-10-11T12:00	18350	73	-65.7	-87.8	290	3	
2025-10-11T12:00	18400	72	-65.4	-88.0	314	4	
2025-10-11T12:00	18450	71	-64.5	-88.1	333	4	
2025-10-11T12:00	18500	71	-63.3	-87.8	342	4	
2025-10-11T12:00	18550	70	-62.8	-87.6	336	3	
2025-10-11T12:00	18600	70	-62.9	-87.5	315	3	
2025-10-11T12:00	18650	69	-63.2	-87.4	299	3	
2025-10-11T12:00	18700	69	-63.4	-87.4	303	4	
2025-10-11T12:00	18750	68	-63.3	-87.4	319	4	
2025-10-11T12:00	18800	67	-63.2	-87.5	329	4	
2025-10-11T12:00	18850	67	-63.1	-87.7	326	3	
2025-10-11T12:00	18900	66	-62.6	-87.5	313	3	
2025-10-11T12:00	18950	66	-62.3	-87.5	303	3	
2025-10-11T12:00	19000	65	-62.0	-87.4	298	3	
2025-10-11T12:00	19050	65	-61.9	-87.4	294	4	
2025-10-11T12:00	19100	64	-61.8	-87.5	295	4	
2025-10-11T12:00	19150	64	-61.5	-87.4	301	4	
2025-10-11T12:00	19200	63	-61.1	-87.2	307	4	
2025-10-11T12:00	19250	63	-61.2	-87.1	315	4	
2025-10-11T12:00	19300	62	-61.5	-87.2	330	3	
2025-10-11T12:00	19350	62	-61.6	-87.2	352	3	
2025-10-11T12:00	19400	61	-61.8	-87.2	12	4	
2025-10-11T12:00	19450	61	-62.0	-87.3	17	5	
2025-10-11T12:00	19500	60	-61.8	-87.3	13	6	
2025-10-11T12:00	19550	60	-61.7	-87.3	7	6	
2025-10-11T12:00	19600	59	-61.7	-87.2	0	6	
2025-10-11T12:00	19650	59	-62.1	-87.4	1	6	
2025-10-11T12:00	19700	58	-62.4	-87.5	11	7	
2025-10-11T12:00	19750	58	-62.2	-87.3	22	9	
2025-10-11T12:00	19800	57	-62.4	-87.5	29	10	
2025-10-11T12:00	19850	57	-62.5	-87.5	34	10	
2025-10-11T12:00	19900	56	-62.5	-87.6	37	9	
2025-10-11T12:00	19950	56	-62.4	-87.6	38	8	
2025-10-11T12:00	20000	56	-62.2	-87.5	35	7	
2025-10-11T12:00	20050	55	-62.3		30	6	
2025-10-11T12:00	20100	55	-62.6		26	5	
2025-10-11T12:00	20150	54	-62.8		20	4	
2025-10-11T12:00	20200	54	-62.8		17	3	
2025-10-11T12:00	20250	53	-62.7		25	3	
2025-10-11T12:00	20300	53	-62.6		37	3	
2025-10-11T12:00	20350	52	-62.5		36	3	
2025-10-11T12:00	20400	52	-62.3		26	4	
2025-10-11T12:00	20450	52	-62.2		23	4	
2025-10-11T12:00	20500	51	-62.2		29	4	
2025-10-11T12:00	20550	51	-62.1		38	4	
2025-10-11T12:00	20600	50	-62.2		41	4	
2025-10-11T12:00	20650	50	-62.4		37	4	
2025-10-11T12:00	20700	50	-62.3		34	4	
2025-10-11T12:00	20750	49	-62.3		38	3	
2025-10-11T12:00	20800	49	-62.5		52	4	
2025-10-11T12:00	20850	48	-62.7		63	4	
2025-10-11T12:00	20900	48	-62.5		64	5	
2025-10-11T12:00	20950	48	-62.4		60	6	
2025-10-11T12:00	21000	47	-62.6		59	6	
2025-10-11T12:00	21050	47	-62.6		64	5	
2025-10-11T12:00	21100	46	-62.5		70	4	
2025-10-11T12:00	21150	46	-62.3		75	3	
2025-10-11T12:00	21200	46	-62.5		84	2	
2025-10-11T12:00	21250	45	-62.9		118	1	
2025-10-11T12:00	21300	45	-63.2		187	1	
2025-10-11T12:00	21350	45	-63.4		206	2	
2025-10-11T12:00	21400	44	-63.6		217	3	
2025-10-11T12:00	21450	44	-63.7		233	3	
2025-10-11T12:00	21500	44	-63.7		259	3	
2025-10-11T12:00	21550	43	-63.4		294	3	
2025-10-11T12:00	21600	43	-63.3		321	3	
2025-10-11T12:00	21650	42	-63.1		323	3	
2025-10-11T12:00	21700	42	-63.0		307	3	
2025-10-11T12:00	21750	42	-62.9		288	4	
2025-10-11T12:00	21800	41	-63.0		288	4	
2025-10-11T12:00	21850	41	-62.5		304	4	
2025-10-11T12:00	21900	41	-62.0		325	4	
2025-10-11T12:00	21950	40	-61.9		345	3	
2025-10-11T12:00	22000	40	-62.0		0	3	
2025-10-11T12:00	22050	40	-62.3		12	2	
2025-10-11T12:00	22100	39	-62.4		30	1	
2025-10-11T12:00	22150	39	-62.3		139	1	
2025-10-11T12:00	22200	39	-62.4		176	1	
2025-10-11T12:00	22250	39	-62.0		215	1	
2025-10-11T12:00	22300	38	-62.0		247	2	
2025-10-11T12:00	22350	38	-62.2		254	3	
2025-10-11T12:00	22400	38	-62.5		252	4	
2025-10-11T12:00	22450	37	-62.5		249	4	
2025-10-11T12:00	22500	37	-62.4		249	5	
2025-10-11T12:00	22550	37	-62.4		253	6	
2025-10-11T12:00	22600	36	-62.6		259	7	
2025-10-11T12:00	22650	36	-62.5		263	7	
2025-10-11T12:00	22700	36	-62.2		267	7	
2025-10-11T12:00	22750	36	-62.0		270	7	
2025-10-11T12:00	22800	35	-62.0		276	6	
2025-10-11T12:00	22850	35	-62.0		285	6	
2025-10-11T12:00	22900	35	-62.0		292	5	
2025-10-11T12:00	22950	34	-61.9		297	4	
2025-10-11T12:00	23000	34	-62.1		296	3	
2025-10-11T12:00	23050	34	-62.4		283	3	
2025-10-11T12:00	23100	34	-62.5		262	2	
2025-10-11T12:00	23150	33	-62.4		258	2	
2025-10-11T12:00	23200	33	-62.2		278	2	
2025-10-11T12:00	23250	33	-62.1		312	2	
2025-10-11T12:00	23300	33	-62.1		328	3	
2025-10-11T12:00	23350	32	-61.7		325	3	
2025-10-11T12:00	23400	32	-60.9		313	3	
2025-10-11T12:00	23450	32	-60.1		292	3	
2025-10-11T12:00	23500	31	-59.8		267	2	
2025-10-11T12:00	23550	31	-59.5		264	3	
2025-10-11T12:00	23600	31	-59.3		274	3	
2025-10-11T12:00	23650	31	-59.2		281	3	
2025-10-11T12:00	23700	30	-58.9		284	4	
2025-10-11T12:00	23750	30	-58.5		283	4	
2025-10-11T12:00	23800	30	-58.7		284	4	
2025-10-11T12:00	23850	30	-58.9		284	3	
2025-10-11T12:00	23900	30	-59.1		277	3	
2025-10-11T12:00	23950	29	-59.1		258	2	
2025-10-11T12:00	24000	29	-59.1		242	3	
2025-10-11T12:00	24050	29	-59.2		240	4	
2025-10-11T12:00	24100	29	-59.1		239	4	
2025-10-11T12:00	24150	28	-59.0		234	5	
2025-10-11T12:00	24200	28	-59.2		229	5	
2025-10-11T12:00	24250	28	-59.4		227	6	
2025-10-11T12:00	24300	28	-59.6		231	6	
2025-10-11T12:00	24350	27	-59.6		237	7	
2025-10-11T12:00	24400	27	-59.9		240	7	
2025-10-11T12:00	24450	27	-60.0		238	7	
2025-10-11T12:00	24500	27	-60.1		235	7	
2025-10-11T12:00	24550	27	-60.1		237	7	
2025-10-11T12:00	24600	26	-60.0		246	7	
2025-10-11T12:00	24650	26	-59.9		258	8	
2025-10-11T12:00	24700	26	-59.7		270	9	
2025-10-11T12:00	24750	26	-59.8		278	9	
2025-10-11T12:00	24800	26	-59.8		282	10	
2025-10-11T12:00	24850	25	-59.8		282	10	
2025-10-11T12:00	24900	25	-59.7		279	10	
2025-10-11T12:00	24950	25	-59.5		279	9	
2025-10-11T12:00	25000	25	-58.8		283	10	
2025-10-11T12:00	25050	25	-58.3		290	10	
2025-10-11T12:00	25100	24	-58.4		295	11	
2025-10-11T12:00	25150	24	-58.4		297	11	
2025-10-11T12:00	25200	24	-58.3		299	11	
2025-10-11T12:00	25250	24	-58.4		300	10	
2025-10-11T12:00	25300	24	-58.6		300	10	
2025-10-11T12:00	25350	23	-58.9		295	8	
2025-10-11T12:00	25400	23	-58.9		284	7	
2025-10-11T12:00	25450	23	-58.4		270	6	
2025-10-11T12:00	25500	23	-58.1		268	6	
2025-10-11T12:00	25550	23	-58.0		279	7	
2025-10-11T12:00	25600	23	-57.8		293	8	
2025-10-11T12:00	25650	22	-57.7		304	9	
2025-10-11T12:00	25700	22	-57.6		309	10	
2025-10-11T12:00	25750	22	-57.7		314	10	
2025-10-11T12:00	25800	22	-57.8		317	11	
2025-10-11T12:00	25850	22	-57.7		321	11	
2025-10-11T12:00	25900	21	-57.5		322	11	
2025-10-11T12:00	25950	21	-57.5		322	10	
2025-10-11T12:00	26000	21	-57.5		322	10	
2025-10-11T12:00	26050	21	-57.6		320	9	
2025-10-11T12:00	26100	21	-57.8		317	8	
2025-10-11T12:00	26150	21	-58.1		311	7	
2025-10-11T12:00	26200	20	-58.3		304	7	
2025-10-11T12:00	26250	20	-58.5		296	7	
2025-10-11T12:00	26300	20	-58.8		288	7	
2025-10-11T12:00	26350	20	-58.9		280	8	
2025-10-11T12:00	26400	20	-58.9		276	8	
2025-10-11T12:00	26450	20	-58.6		275	8	
2025-10-11T12:00	26500	20	-58.3		275	8	
2025-10-11T12:00	26550	19	-58.3		275	7	
2025-10-11T12:00	26600	19	-58.2		272	7	
2025-10-11T12:00	26650	19	-57.8		267	7	
2025-10-11T12:00	26700	19	-57.5		264	8	
2025-10-11T12:00	26750	19	-57.3		263	9	
2025-10-11T12:00	26800	19	-57.4		266	11	
2025-10-11T12:00	26850	18	-57.3		271	11	
2025-10-11T12:00	26900	18	-57.0		276	11	
2025-10-11T12:00	26950	18	-57.0		281	10	
2025-10-11T12:00	27000	18	-57.1		284	9	
2025-10-11T12:00	27050	18	-57.0		284	8	
2025-10-11T12:00	27100	18	-57.1		281	8	
2025-10-11T12:00	27150	18	-57.2		275	8	
2025-10-11T12:00	27200	17	-56.8		270	8	
2025-10-11T12:00	27250	17	-56.3		268	9	
2025-10-11T12:00	27300	17	-55.9		268	9	
2025-10-11T12:00	27350	17	-55.7		264	10	
2025-10-11T12:00	27400	17	-55.9		258	10	
2025-10-11T12:00	27450	17	-56.2		253	11	
2025-10-11T12:00	27500	17	-56.4		251	12	
2025-10-11T12:00	27550	17	-56.5		252	13	
2025-10-11T12:00	27600	16	-56.4		256	13	
2025-10-11T12:00	27650	16	-56.2		259	12	
2025-10-11T12:00	27700	16	-56.4		261	11	
2025-10-11T12:00	27750	16	-56.4		264	12	
2025-10-11T12:00	27800	16	-56.0		269	12	
2025-10-11T12:00	27850	16	-55.8		275	11	
2025-10-11T12:00	27900	16	-55.6		280	10	
2025-10-11T12:00	27950	16	-55.6		281	9	
2025-10-11T12:00	28000	15	-55.2		276	8	
2025-10-11T12:00	28050	15	-54.7		269	8	
2025-10-11T12:00	28100	15	-54.8		262	8	
2025-10-11T12:00	28150	15	-54.9		257	8	
2025-10-11T12:00	28200	15	-55.1		253	8	
2025-10-11T12:00	28250	15	-55.2		253	8	
2025-10-11T12:00	28300	15	-55.3		253	9	
2025-10-11T12:00	28350	15	-55.2		253	9	
2025-10-11T12:00	28400	14	-55.0		254	10	
2025-10-11T12:00	28450	14	-54.9		255	10	
2025-10-11T12:00	28500	14	-55.3		257	11	
2025-10-11T12:00	28550	14	-55.6		260	11	
2025-10-11T12:00	28600	14	-55.9		263	11	
2025-10-11T12:00	28650	14	-56.1		266	11	
2025-10-11T12:00	28700	14	-56.3		269	11	
2025-10-11T12:00	28750	14	-56.4		272	11	
2025-10-11T12:00	28800	14	-56.7		274	11	
2025-10-11T12:00	28850	13	-56.9		276	11	
2025-10-11T12:00	28900	13	-57.1		276	10	
2025-10-11T12:00	28950	13	-56.9		274	9	
2025-10-11T12:00	29000	13	-56.8		268	8	
2025-10-11T12:00	29050	13	-56.5		259	8	
2025-10-11T12:00	29100	13	-56.3		254	9	
2025-10-11T12:00	29150	13	-56.0		255	10	
2025-10-11T12:00	29200	13	-55.7		258	11	
2025-10-11T12:00	29250	13	-55.2		261	13	
2025-10-11T12:00	29300	13	-54.2		265	14	
2025-10-11T12:00	29350	12	-53.5		270	15	
2025-10-11T12:00	29400	12	-53.1		275	16	
2025-10-11T12:00	29450	12	-52.9		280	16	
2025-10-11T12:00	29500	12	-53.0		283	16	
2025-10-11T12:00	29550	12	-53.2		287	16	
2025-10-11T12:00	29600	12	-53.4		290	16	
2025-10-11T12:00	29650	12	-53.5		292	15	
2025-10-11T12:00	29700	12	-53.4		292	14	
2025-10-11T12:00	29750	12	-53.1		288	13	
2025-10-11T12:00	29800	12	-52.7		283	13	
2025-10-11T12:00	29850	12	-52.5		277	12	
2025-10-11T12:00	29900	11	-52.6		271	12	
2025-10-11T12:00	29950	11	-52.9		267	13	
2025-10-11T12:00	30000	11	-53.0		264	13	
2025-10-11T12:00	30050	11	-52.8		265	14	
2025-10-11T12:00	30100	11	-52.8		268	14	
2025-10-11T12:00	30150	11	-53.0		273	15	
2025-10-11T12:00	30200	11	-53.1		277	15	
2025-10-11T12:00	30250	11	-52.9		280	15	
2025-10-11T12:00	30300	11	-52.8		280	15	
2025-10-11T12:00	30350	11	-52.8		275	15	
2025-10-11T12:00	30400	11	-52.7		268	14	
2025-10-11T12:00	30450	11	-52.4		261	15	
2025-10-11T12:00	30500	10	-52.2		256	17	
2025-10-11T12:00	30550	10	-51.6		254	18	
2025-10-11T12:00	30600	10	-50.9		255	20	
2025-10-11T12:00	30650	10	-50.3		257	21	
2025-10-11T12:00	30700	10	-49.9		260	21	
2025-10-11T12:00	30750	10	-49.7		263	20	
2025-10-11T12:00	30800	10	-49.5		266	20	
2025-10-11T12:00	30850	10	-49.4		270	19	
2025-10-11T12:00	30900	10	-49.5		274	19	
2025-10-11T12:00	30950	10	-49.9		278	18	
2025-10-11T12:00	31000	10	-50.2		281	18	
2025-10-11T12:00	31050	10	-50.4		282	17	
2025-10-11T12:00	31100	10	-50.4		281	16	
2025-10-11T12:00	31150	9	-50.5		280	15	
2025-10-11T12:00	31200	9	-50.8		279	14	
2025-10-11T12:00	31250	9	-51.1		280	13	
2025-10-11T12:00	31300	9	-51.5		280	12	
2025-10-11T12:00	31350	9	-51.7		280	11	
2025-10-11T12:00	31400	9	-51.8		281	11	
2025-10-11T12:00	31450	9	-51.9		284	10	
2025-10-11T12:00	31500	9	-51.9		284	10	
2025-10-11T12:00	31550	9	-51.9		280	10	
2025-10-11T12:00	31600	9	-51.7		272	11	
2025-10-11T12:00	31650	9	-51.4		265	11	
2025-10-11T12:00	31700	9	-51.3		262	12	
2025-10-11T12:00	31750	9	-51.3		262	13	
2025-10-11T12:00	31800	9	-51.2		262	14	
2025-10-11T12:00	31850	8	-50.9		262	15	
2025-10-11T12:00	31900	8	-50.8		260	15	
2025-10-11T12:00	31950	8	-50.7		260	16	
2025-10-11T12:00	32000	8	-50.4		261	17	
2025-10-11T12:00	32050	8	-50.0		262	17	
2025-10-11T12:00	32100	8	-49.6		265	16	
2025-10-11T12:00	32150	8	-49.3		271	16	
2025-10-11T12:00	32200	8	-49.2		276	15	
2025-10-11T12:00	32250	8	-49.0		278	15	
2025-10-11T12:00	32300	8	-48.8		277	14	
2025-10-11T12:00	32350	8	-48.8		274	14	
2025-10-11T12:00	32400	8	-49.1		270	14	
2025-10-11T12:00	32450	8	-49.4		266	14	
2025-10-11T12:00	32500	8	-49.5		263	14	
2025-10-11T12:00	32550	8	-49.4		261	14	
2025-10-11T12:00	32600	8	-49.3		262	15	
2025-10-11T12:00	32650	7	-49.1		263	16	
2025-10-11T12:00	32700	7	-48.9		264	17	
2025-10-11T12:00	32750	7	-48.5		263	17	
2025-10-11T12:00	32800	7	-47.8		262	18	
2025-10-11T12:00	32850	7	-47.5		262	17	
2025-10-11T12:00	32900	7	-47.3		264	16	
2025-10-11T12:00	32950	7	-47.1		267	15	
2025-10-11T12:00	33000	7	-46.8		268	15	
2025-10-11T12:00	33050	7	-46.3		267	16	
2025-10-11T12:00	33100	7	-45.9		265	16	
2025-10-11T12:00	33150	7	-45.5		261	17	
2025-10-11T12:00	33200	7	-45.2		257	16	
2025-10-11T12:00	33250	7	-45.1		253	16	
2025-10-11T12:00	33300	7	-45.0		250	15	
2025-10-11T12:00	33350	7	-45.2		249	14	
2025-10-11T12:00	33400	7	-45.5		248	13	
2025-10-11T12:00	33450	7	-45.9		246	12	
2025-10-11T12:00	33500	7	-46.2		246	12	
2025-10-11T12:00	33550	7	-46.3		247	12	
2025-10-11T12:00	33600	6	-46.3		247	13	
2025-10-11T12:00	33650	6	-46.4		247	15	
2025-10-11T12:00	33700	6	-46.3		248	16	
2025-10-11T12:00	33750	6	-46.4		249	16	
2025-10-11T12:00	33800	6	-46.4		249	17	
2025-10-11T12:00	33850	6	-46.5		250	18	
2025-10-11T12:00	33900	6	-46.8		252	19	
2025-10-11T12:00	33950	6	-47.0		254	21	
2025-10-11T12:00	34000	6	-47.1		257	22	
2025-10-11T12:00	34050	6	-47.3		259	24	
2025-10-11T12:00	34100	6	-47.5		261	24	
2025-10-11T12:00	34150	6	-47.3		262	25	
2025-10-11T12:00	34200	6	-47.0		263	24	
2025-10-11T12:00	34250	6	-46.3		264	23	
2025-10-11T12:00	34300	6	-45.7		265	23	
2025-10-11T12:00	34350	6	-45.4		266	22	
2025-10-11T12:00	34400	6	-45.3		265	21	
2025-10-11T12:00	34450	6	-45.4		262	20	
2025-10-11T12:00	34500	6	-45.2		259	20	
2025-10-11T12:00	34550	6	-44.8		261	21	
2025-10-11T12:00	34600	6	-44.3		265	23	
2025-10-11T12:00	34650	6	-43.8		268	25	
2025-10-11T12:00	34700	6	-43.6		272	26	
2025-10-11T12:00	34750	5	-43.6		274	27	
2025-10-11T12:00	34800	5	-43.6		276	28	
2025-10-11T12:00	34850	5	-43.7		277	28	
2025-10-11T12:00	34900	5	-43.5		277	28	
2025-10-11T12:00	34950	5	-42.6		276	26	
2025-10-11T12:00	35000	5	-42.1		273	25	
2025-10-11T12:00	35050	5	-41.8		268	24	
2025-10-11T12:00	35100	5	-41.6		264	23	
2025-10-11T12:00	35150	5	-41.5		262	22	
2025-10-11T12:00	35200	5	-41.2		262	22	
2025-10-11T12:00	35250	5	-40.9		263	22	
2025-10-11T12:00	35300	5	-40.7		263	23	
2025-10-11T12:00	35350	5	-40.5		263	24	
2025-10-11T12:00	35400	5	-40.4		265	25	
2025-10-11T12:00	35450	5	-39.8		268	26	
2025-10-11T12:00	35500	5	-39.0		269	25	
2025-10-11T12:00	35550	5	-38.4		270	24	
2025-10-11T12:00	35600	5	-38.1		269	23	
2025-10-11T12:00	35650	5	-38.1		268	22	
2025-10-11T12:00	35700	5	-38.3		267	21	
2025-10-11T12:00	35750	5	-38.5		266	21	
2025-10-11T12:00	35800	5	-38.5		266	22	
2025-10-12T00:00	491	972	10.3	9.5	247	0	
2025-10-12T00:00	501	970	10.2	9.6	198	1	
2025-10-12T00:00	520	969	10.2	9.5	181	1	
2025-10-12T00:00	540	966	10.3	9.0	177	1	
2025-10-12T00:00	560	964	10.5	8.1	173	1	
2025-10-12T00:00	580	962	10.5	7.9	170	1	
2025-10-12T00:00	600	959	10.4	7.8	166	1	
2025-10-12T00:00	620	957	10.4	7.7	164	1	
2025-10-12T00:00	640	955	10.3	7.7	161	2	
2025-10-12T00:00	660	952	10.3	7.7	158	2	
2025-10-12T00:00	680	950	10.3	7.7	155	2	
2025-10-12T00:00	700	948	10.1	7.6	151	2	
2025-10-12T00:00	720	946	10.0	7.6	146	2	
2025-10-12T00:00	740	943	9.8	7.6	140	2	
2025-10-12T00:00	760	941	9.6	7.5	136	2	
2025-10-12T00:00	780	939	9.5	7.5	130	2	
2025-10-12T00:00	800	936	9.3	7.4	123	2	
2025-10-12T00:00	820	934	9.1	7.3	114	2	
2025-10-12T00:00	840	932	9.0	7.3	105	2	
2025-10-12T00:00	860	930	8.8	7.2	96	2	
2025-10-12T00:00	880	928	8.6	7.2	82	2	
2025-10-12T00:00	900	926	8.5	7.1	74	2	
2025-10-12T00:00	920	923	8.2	7.0	64	2	
2025-10-12T00:00	940	921	8.1	7.0	56	2	
2025-10-12T00:00	960	918	7.9	7.0	50	2	
2025-10-12T00:00	980	916	7.7	7.0	47	2	
2025-10-12T00:00	1000	914	7.6	6.9	46	2	
2025-10-12T00:00	1020	912	7.4	6.9	45	3	
2025-10-12T00:00	1040	910	7.3	6.8	46	3	
2025-10-12T00:00	1060	908	7.1	6.8	48	3	
2025-10-12T00:00	1080	905	7.0	6.8	49	3	
2025-10-12T00:00	1100	903	6.8	6.8	49	3	
2025-10-12T00:00	1120	901	6.7	6.7	49	3	
2025-10-12T00:00	1140	899	6.5	6.5	48	3	
2025-10-12T00:00	1160	897	6.4	6.4	46	3	
2025-10-12T00:00	1180	895	6.3	6.3	42	3	
2025-10-12T00:00	1200	892	6.2	6.2	39	3	
2025-10-12T00:00	1220	890	6.1	6.1	36	3	
2025-10-12T00:00	1240	888	5.9	5.9	35	3	
2025-10-12T00:00	1260	886	5.8	5.8	36	3	
2025-10-12T00:00	1280	884	5.7	5.7	38	3	
2025-10-12T00:00	1300	882	5.6	5.6	42	3	
2025-10-12T00:00	1320	880	5.5	5.5	45	4	
2025-10-12T00:00	1340	877	5.4	5.4	48	4	
2025-10-12T00:00	1360	875	5.2	5.2	50	4	
2025-10-12T00:00	1380	873	5.1	5.1	51	3	
2025-10-12T00:00	1400	871	5.2	4.2	51	3	
2025-10-12T00:00	1420	869	7.5	1.8	51	3	
2025-10-12T00:00	1440	867	8.2	0.4	51	2	
2025-10-12T00:00	1460	865	9.7	-0.3	53	2	
2025-10-12T00:00	1480	862	12.2	-2.2	56	2	
2025-10-12T00:00	1500	860	13.5	-3.5	60	2	
2025-10-12T00:00	1520	858	13.8	-4.9	62	3	
2025-10-12T00:00	1540	856	13.9	-7.3	62	3	
2025-10-12T00:00	1560	854	13.9	-9.2	61	4	
2025-10-12T00:00	1580	852	13.8	-10.9	59	4	
2025-10-12T00:00	1600	850	13.6	-11.4	57	5	
2025-10-12T00:00	1620	848	13.5	-12.4	57	5	
2025-10-12T00:00	1640	846	13.4	-13.1	58	5	
2025-10-12T00:00	1660	844	13.3	-14.0	62	4	
2025-10-12T00:00	1680	842	13.2	-14.3	67	4	
2025-10-12T00:00	1700	840	13.1	-14.6	73	4	
2025-10-12T00:00	1720	838	13.1	-14.8	77	4	
2025-10-12T00:00	1740	836	13.0	-15.2	79	4	
2025-10-12T00:00	1760	834	13.0	-15.7	78	5	
2025-10-12T00:00	1780	832	13.1	-16.6	75	5	
2025-10-12T00:00	1800	830	13.2	-17.3	72	4	
2025-10-12T00:00	1820	828	13.3	-17.9	68	4	
2025-10-12T00:00	1840	826	13.3	-18.1	66	4	
2025-10-12T00:00	1860	824	13.2	-18.5	66	4	
2025-10-12T00:00	1880	822	13.1	-18.7	69	4	
2025-10-12T00:00	1900	820	13.0	-19.0	71	4	
2025-10-12T00:00	1920	818	12.8	-18.6	73	4	
2025-10-12T00:00	1940	817	12.7	-16.8	73	4	
2025-10-12T00:00	1960	815	12.6	-16.4	69	4	
2025-10-12T00:00	1980	813	12.4	-14.3	64	4	
2025-10-12T00:00	2000	810	12.3	-13.4	60	3	
2025-10-12T00:00	2020	809	12.1	-12.4	56	3	
2025-10-12T00:00	2040	807	11.9	-9.7	54	3	
2025-10-12T00:00	2060	805	11.6	-7.8	52	3	
2025-10-12T00:00	2080	803	11.5	-7.7	51	3	
2025-10-12T00:00	2100	801	11.3	-7.5	49	4	
2025-10-12T00:00	2120	799	11.2	-7.5	47	4	
2025-10-12T00:00	2140	797	11.0	-7.4	42	4	
2025-10-12T00:00	2160	795	10.8	-7.3	39	5	
2025-10-12T00:00	2180	793	10.7	-7.0	39	5	
2025-10-12T00:00	2200	792	10.5	-6.8	41	5	
2025-10-12T00:00	2220	790	10.5	-7.2	44	5	
2025-10-12T00:00	2240	788	10.4	-8.1	48	5	
2025-10-12T00:00	2260	786	10.2	-8.6	52	5	
2025-10-12T00:00	2280	784	10.1	-9.3	56	4	
2025-10-12T00:00	2300	782	10.0	-9.9	59	4	
2025-10-12T00:00	2320	780	9.9	-10.4	60	4	
2025-10-12T00:00	2340	778	9.8	-10.7	60	4	
2025-10-12T00:00	2360	776	9.6	-10.9	60	4	
2025-10-12T00:00	2380	774	9.5	-10.9	59	3	
2025-10-12T00:00	2400	773	9.4	-11.0	58	3	
2025-10-12T00:00	2420	771	9.2	-11.2	57	3	
2025-10-12T00:00	2440	769	9.1	-11.6	54	3	
2025-10-12T00:00	2460	767	9.0	-12.0	52	3	
2025-10-12T00:00	2480	765	8.9	-11.5	51	3	
2025-10-12T00:00	2500	763	8.7	-11.2	50	4	
2025-10-12T00:00	2520	761	8.6	-11.2	50	4	
2025-10-12T00:00	2540	760	8.4	-11.2	50	4	
2025-10-12T00:00	2560	758	8.2	-11.0	49	4	
2025-10-12T00:00	2580	756	8.0	-11.0	49	4	
2025-10-12T00:00	2600	754	7.8	-11.0	49	4	
2025-10-12T00:00	2620	752	7.6	-11.1	50	4	
2025-10-12T00:00	2640	750	7.4	-11.1	52	4	
2025-10-12T00:00	2660	749	7.3	-11.0	54	4	
2025-10-12T00:00	2680	747	7.3	-10.9	56	4	
2025-10-12T00:00	2700	745	7.2	-11.2	60	4	
2025-10-12T00:00	2720	743	7.1	-11.5	62	4	
2025-10-12T00:00	2740	741	6.9	-11.7	62	3	
2025-10-12T00:00	2760	740	6.8	-12.0	59	3	
2025-10-12T00:00	2780	738	6.8	-12.7	52	3	
2025-10-12T00:00	2800	736	6.7	-13.2	43	3	
2025-10-12T00:00	2820	734	6.5	-13.1	31	3	
2025-10-12T00:00	2840	732	6.4	-13.3	21	3	
2025-10-12T00:00	2860	730	6.2	-13.5	14	2	
2025-10-12T00:00	2880	729	6.0	-13.6	9	2	
2025-10-12T00:00	2900	727	5.9	-13.7	7	2	
2025-10-12T00:00	2920	725	5.7	-14.1	8	2	
2025-10-12T00:00	2940	723	5.7	-14.7	9	2	
2025-10-12T00:00	2960	722	5.7	-13.8	10	2	
2025-10-12T00:00	2980	720	5.7	-12.9	10	3	
2025-10-12T00:00	3000	718	5.7	-13.8	8	3	
2025-10-12T00:00	3020	716	5.8	-15.0	5	3	
2025-10-12T00:00	3040	715	5.6	-15.3	2	3	
2025-10-12T00:00	3060	713	5.7	-15.9	358	3	
2025-10-12T00:00	3080	711	5.7	-16.0	355	3	
2025-10-12T00:00	3100	709	5.6	-16.1	354	2	
2025-10-12T00:00	3120	708	5.4	-16.2	358	2	
2025-10-12T00:00	3140	706	5.2	-16.3	4	2	
2025-10-12T00:00	3160	704	5.1	-16.3	14	3	
2025-10-12T00:00	3180	703	4.9	-16.2	22	3	
2025-10-12T00:00	3200	701	4.7	-16.3	25	4	
2025-10-12T00:00	3220	699	4.5	-16.4	26	4	
2025-10-12T00:00	3240	698	4.3	-16.4	26	4	
2025-10-12T00:00	3260	696	4.2	-16.3	26	4	
2025-10-12T00:00	3280	694	4.0	-16.2	25	4	
2025-10-12T00:00	3300	692	3.8	-16.3	24	5	
2025-10-12T00:00	3320	690	3.7	-16.4	24	5	
2025-10-12T00:00	3340	689	3.5	-16.5	24	5	
2025-10-12T00:00	3360	687	3.3	-16.6	25	5	
2025-10-12T00:00	3380	686	3.2	-16.7	26	6	
2025-10-12T00:00	3400	684	2.9	-16.7	28	6	
2025-10-12T00:00	3420	682	2.8	-16.7	29	6	
2025-10-12T00:00	3440	680	2.6	-16.8	31	5	
2025-10-12T00:00	3460	679	2.5	-16.8	32	5	
2025-10-12T00:00	3480	677	2.3	-16.6	33	5	
2025-10-12T00:00	3500	675	2.2	-16.1	31	4	
2025-10-12T00:00	3520	674	2.0	-15.9	27	4	
2025-10-12T00:00	3540	672	1.8	-15.4	22	3	
2025-10-12T00:00	3560	670	1.6	-15.4	19	4	
2025-10-12T00:00	3580	669	1.4	-15.6	16	4	
2025-10-12T00:00	3600	667	1.2	-15.7	13	4	
2025-10-12T00:00	3620	665	1.1	-15.7	8	4	
2025-10-12T00:00	3640	664	0.9	-15.7	2	4	
2025-10-12T00:00	3660	662	0.7	-15.7	358	5	
2025-10-12T00:00	3680	660	0.5	-15.9	355	5	
2025-10-12T00:00	3700	659	0.3	-16.0	355	6	
2025-10-12T00:00	3720	657	0.1	-16.1	357	6	
2025-10-12T00:00	3740	656	0.0	-16.1	359	6	
2025-10-12T00:00	3760	654	-0.2	-16.2	2	6	
2025-10-12T00:00	3780	652	-0.4	-16.3	3	6	
2025-10-12T00:00	3800	651	-0.6	-16.3	4	6	
2025-10-12T00:00	3820	649	-0.8	-16.3	4	6	
2025-10-12T00:00	3840	647	-1.0	-16.4	5	5	
2025-10-12T00:00	3860	646	-1.2	-16.4	6	4	
2025-10-12T00:00	3880	644	-1.4	-16.4	9	4	
2025-10-12T00:00	3900	642	-1.6	-16.4	15	3	
2025-10-12T00:00	3920	641	-1.8	-16.3	20	3	
2025-10-12T00:00	3940	639	-2.0	-16.5	22	3	
2025-10-12T00:00	3960	638	-2.1	-16.4	22	4	
2025-10-12T00:00	3980	636	-2.4	-16.4	21	4	
2025-10-12T00:00	4000	634	-2.6	-16.6	19	4	
2025-10-12T00:00	4020	633	-2.8	-16.6	18	4	
2025-10-12T00:00	4040	631	-2.9	-16.5	18	4	
2025-10-12T00:00	4060	630	-3.2	-16.6	19	4	
2025-10-12T00:00	4080	628	-3.3	-16.6	20	4	
2025-10-12T00:00	4100	626	-3.5	-16.7	22	4	
2025-10-12T00:00	4120	625	-3.7	-16.7	23	4	
2025-10-12T00:00	4140	623	-3.9	-16.9	24	4	
2025-10-12T00:00	4160	622	-4.1	-17.1	25	4	
2025-10-12T00:00	4180	620	-4.3	-17.4	25	4	
2025-10-12T00:00	4200	619	-4.4	-18.0	26	4	
2025-10-12T00:00	4220	617	-4.5	-18.2	26	4	
2025-10-12T00:00	4240	615	-4.7	-18.7	27	4	
2025-10-12T00:00	4260	614	-4.8	-19.5	28	4	
2025-10-12T00:00	4280	612	-4.9	-20.2	28	4	
2025-10-12T00:00	4300	611	-5.0	-20.6	28	4	
2025-10-12T00:00	4320	609	-5.1	-20.7	29	5	
2025-10-12T00:00	4340	608	-5.2	-21.3	30	5	
2025-10-12T00:00	4360	606	-5.2	-22.6	31	5	
2025-10-12T00:00	4380	604	-5.3	-23.9	32	5	
2025-10-12T00:00	4400	603	-5.4	-24.4	33	5	
2025-10-12T00:00	4420	602	-5.5	-25.0	34	4	
2025-10-12T00:00	4440	600	-5.6	-25.4	34	4	
2025-10-12T00:00	4460	598	-5.7	-26.2	34	4	
2025-10-12T00:00	4480	597	-5.7	-27.8	34	4	
2025-10-12T00:00	4500	595	-5.8	-28.3	38	4	
2025-10-12T00:00	4520	594	-5.9	-28.5	41	4	
2025-10-12T00:00	4540	592	-6.1	-28.7	45	3	
2025-10-12T00:00	4560	591	-6.3	-28.7	50	4	
2025-10-12T00:00	4580	589	-6.4	-28.8	52	4	
2025-10-12T00:00	4600	588	-6.5	-29.1	51	4	
2025-10-12T00:00	4620	586	-6.6	-29.6	50	4	
2025-10-12T00:00	4640	585	-6.6	-30.0	46	4	
2025-10-12T00:00	4660	583	-6.7	-30.2	41	4	
2025-10-12T00:00	4680	582	-6.8	-30.4	36	4	
2025-10-12T00:00	4700	580	-6.8	-31.0	32	4	
2025-10-12T00:00	4720	579	-7.0	-31.3	28	4	
2025-10-12T00:00	4740	577	-7.1	-31.4	26	4	
2025-10-12T00:00	4760	576	-7.2	-30.5	25	3	
2025-10-12T00:00	4780	574	-7.3	-29.5	26	3	
2025-10-12T00:00	4800	573	-7.5	-29.2	30	2	
2025-10-12T00:00	4820	572	-7.6	-28.1	39	2	
2025-10-12T00:00	4840	570	-7.8	-27.4	50	2	
2025-10-12T00:00	4860	569	-8.0	-27.1	61	2	
2025-10-12T00:00	4880	567	-8.2	-26.7	70	2	
2025-10-12T00:00	4900	566	-8.4	-26.6	77	2	
2025-10-12T00:00	4920	564	-8.6	-26.6	80	2	
2025-10-12T00:00	4940	563	-8.7	-26.8	82	2	
2025-10-12T00:00	4960	561	-8.8	-23.8	79	2	
2025-10-12T00:00	4980	560	-8.9	-22.3	69	1	
2025-10-12T00:00	5000	558	-9.1	-22.0	55	1	
2025-10-12T00:00	5020	557	-9.2	-21.9	44	1	
2025-10-12T00:00	5040	555	-9.4	-21.2	37	1	
2025-10-12T00:00	5060	554	-9.6	-20.7	33	1	
2025-10-12T00:00	5080	552	-9.7	-21.4	30	2	
2025-10-12T00:00	5100	551	-9.7	-23.4	23	2	
2025-10-12T00:00	5120	550	-9.8	-24.8	11	2	
2025-10-12T00:00	5140	548	-9.9	-26.1	0	2	
2025-10-12T00:00	5160	547	-10.1	-26.9	353	2	
2025-10-12T00:00	5180	546	-10.2	-27.4	347	3	
2025-10-12T00:00	5200	544	-10.4	-28.0	342	3	
2025-10-12T00:00	5220	543	-10.6	-28.6	336	3	
2025-10-12T00:00	5240	541	-10.6	-29.3	329	3	
2025-10-12T00:00	5260	540	-10.8	-28.8	323	2	
2025-10-12T00:00	5280	538	-11.0	-28.8	314	2	
2025-10-12T00:00	5300	537	-11.1	-28.6	304	2	
2025-10-12T00:00	5320	536	-11.3	-28.4	299	1	
2025-10-12T00:00	5340	534	-11.5	-28.2	298	1	
2025-10-12T00:00	5360	533	-11.7	-27.9	296	1	
2025-10-12T00:00	5380	531	-11.9	-27.5	288	1	
2025-10-12T00:00	5400	530	-12.0	-27.5	274	1	
2025-10-12T00:00	5420	529	-12.2	-27.4	261	1	
2025-10-12T00:00	5440	527	-12.4	-27.4	252	2	
2025-10-12T00:00	5460	526	-12.5	-27.3	248	2	
2025-10-12T00:00	5480	524	-12.6	-27.6	247	3	
2025-10-12T00:00	5500	523	-12.7	-27.7	248	3	
2025-10-12T00:00	5520	522	-12.9	-28.5	251	3	
2025-10-12T00:00	5540	520	-13.0	-29.6	256	3	
2025-10-12T00:00	5560	519	-13.1	-30.5	261	3	
2025-10-12T00:00	5580	518	-13.3	-31.0	260	3	
2025-10-12T00:00	5600	516	-13.4	-31.2	255	3	
2025-10-12T00:00	5620	515	-13.5	-31.3	247	3	
2025-10-12T00:00	5640	514	-13.6	-31.4	242	3	
2025-10-12T00:00	5660	512	-13.7	-31.6	239	3	
2025-10-12T00:00	5680	511	-13.9	-31.8	236	3	
2025-10-12T00:00	5700	510	-14.1	-31.9	234	3	
2025-10-12T00:00	5720	508	-14.3	-32.0	234	2	
2025-10-12T00:00	5740	507	-14.4	-32.0	236	2	
2025-10-12T00:00	5760	506	-14.6	-32.0	239	2	
2025-10-12T00:00	5780	504	-14.8	-32.1	243	2	
2025-10-12T00:00	5800	503	-15.0	-32.2	250	2	
2025-10-12T00:00	5820	502	-15.1	-32.2	256	1	
2025-10-12T00:00	5840	500	-15.4	-32.3	262	2	
2025-10-12T00:00	5860	499	-15.5	-32.4	265	2	
2025-10-12T00:00	5880	498	-15.7	-32.4	262	2	
2025-10-12T00:00	5900	496	-15.8	-32.4	256	2	
2025-10-12T00:00	5920	495	-16.0	-32.4	248	2	
2025-10-12T00:00	5940	494	-16.2	-32.5	240	2	
2025-10-12T00:00	5960	492	-16.4	-32.6	231	2	
2025-10-12T00:00	5980	491	-16.6	-32.6	222	3	
2025-10-12T00:00	6000	490	-16.8	-32.7	214	3	
2025-10-12T00:00	6020	488	-17.0	-33.1	210	3	
2025-10-12T00:00	6040	487	-17.1	-33.3	208	3	
2025-10-12T00:00	6060	486	-17.3	-33.7	207	3	
2025-10-12T00:00	6080	484	-17.4	-34.0	210	3	
2025-10-12T00:00	6100	483	-17.6	-34.0	215	3	
2025-10-12T00:00	6120	482	-17.7	-34.0	222	2	
2025-10-12T00:00	6140	481	-17.9	-34.0	226	2	
2025-10-12T00:00	6160	479	-18.0	-33.9	229	3	
2025-10-12T00:00	6180	478	-18.2	-33.9	230	3	
2025-10-12T00:00	6200	477	-18.4	-34.1	229	3	
2025-10-12T00:00	6220	475	-18.5	-33.9	229	3	
2025-10-12T00:00	6240	474	-18.6	-33.6	227	4	
2025-10-12T00:00	6260	473	-18.8	-33.7	225	4	
2025-10-12T00:00	6280	472	-18.9	-33.6	223	4	
2025-10-12T00:00	6300	470	-19.0	-33.6	221	4	
2025-10-12T00:00	6320	469	-19.2	-33.7	219	4	
2025-10-12T00:00	6340	468	-19.3	-33.5	218	4	
2025-10-12T00:00	6360	467	-19.5	-33.3	219	4	
2025-10-12T00:00	6380	465	-19.7	-33.2	220	4	
2025-10-12T00:00	6400	464	-19.9	-33.3	222	4	
2025-10-12T00:00	6420	463	-20.1	-33.3	226	4	
2025-10-12T00:00	6440	462	-20.2	-33.1	230	4	
2025-10-12T00:00	6460	460	-20.3	-32.7	235	4	
2025-10-12T00:00	6480	459	-20.4	-33.2	239	4	
2025-10-12T00:00	6500	458	-20.6	-33.0	243	4	
2025-10-12T00:00	6520	457	-20.8	-31.9	248	4	
2025-10-12T00:00	6540	455	-20.9	-31.4	252	4	
2025-10-12T00:00	6560	454	-21.1	-32.0	256	4	
2025-10-12T00:00	6580	453	-21.2	-32.6	260	4	
2025-10-12T00:00	6600	452	-21.3	-32.9	265	4	
2025-10-12T00:00	6620	451	-21.4	-34.9	271	3	
2025-10-12T00:00	6640	449	-21.4	-36.6	280	3	
2025-10-12T00:00	6660	448	-21.6	-37.3	296	2	
2025-10-12T00:00	6680	447	-21.7	-37.8	322	2	
2025-10-12T00:00	6700	446	-21.9	-38.3	340	1	
2025-10-12T00:00	6720	444	-22.0	-39.4	352	1	
2025-10-12T00:00	6740	443	-21.9	-39.4	360	1	
2025-10-12T00:00	6760	442	-21.8	-40.6	4	1	
2025-10-12T00:00	6780	441	-21.8	-41.0	2	1	
2025-10-12T00:00	6800	440	-21.9	-41.4	354	1	
2025-10-12T00:00	6820	438	-22.1	-41.2	345	1	
2025-10-12T00:00	6840	437	-22.1	-41.7	340	0	
2025-10-12T00:00	6860	436	-22.2	-42.7	347	0	
2025-10-12T00:00	6880	435	-22.4	-42.6	22	0	
2025-10-12T00:00	6900	434	-22.6	-42.4	63	0	
2025-10-12T00:00	6920	432	-22.8	-42.4	86	0	
2025-10-12T00:00	6940	431	-22.9	-42.6	99	0	
2025-10-12T00:00	6960	430	-23.1	-43.1	108	0	
2025-10-12T00:00	6980	429	-23.2	-43.6	114	0	
2025-10-12T00:00	7000	428	-23.3	-43.9	110	0	
2025-10-12T00:00	7020	427	-23.5	-45.2	72	0	
2025-10-12T00:00	7040	425	-23.6	-45.9	36	0	
2025-10-12T00:00	7060	424	-23.7	-46.6	25	0	
2025-10-12T00:00	7080	423	-23.8	-47.3	20	0	
2025-10-12T00:00	7100	422	-24.0	-47.4	16	0	
2025-10-12T00:00	7120	421	-24.1	-47.0	13	0	
2025-10-12T00:00	7140	420	-24.3	-46.7	10	0	
2025-10-12T00:00	7160	419	-24.4	-48.0	11	0	
2025-10-12T00:00	7180	417	-24.6	-47.4	16	0	
2025-10-12T00:00	7200	416	-24.8	-46.1	45	0	
2025-10-12T00:00	7220	415	-25.0	-45.9	101	0	
2025-10-12T00:00	7240	414	-25.1	-45.8	125	1	
2025-10-12T00:00	7260	413	-25.3	-46.0	139	1	
2025-10-12T00:00	7280	412	-25.5	-46.1	150	1	
2025-10-12T00:00	7300	411	-25.6	-46.4	161	1	
2025-10-12T00:00	7320	409	-25.8	-46.4	172	1	
2025-10-12T00:00	7340	408	-25.9	-46.0	182	1	
2025-10-12T00:00	7360	407	-26.0	-45.4	191	1	
2025-10-12T00:00	7380	406	-26.2	-45.6	200	1	
2025-10-12T00:00	7400	405	-26.4	-45.7	210	1	
2025-10-12T00:00	7420	404	-26.5	-44.3	218	1	
2025-10-12T00:00	7440	403	-26.6	-43.6	225	1	
2025-10-12T00:00	7460	402	-26.8	-44.3	233	1	
2025-10-12T00:00	7480	400	-26.9	-45.0	250	1	
2025-10-12T00:00	7500	399	-27.0	-44.7	269	1	
2025-10-12T00:00	7520	398	-27.2	-43.9	282	1	
2025-10-12T00:00	7540	397	-27.3	-43.8	289	1	
2025-10-12T00:00	7560	396	-27.4	-45.4	290	1	
2025-10-12T00:00	7580	395	-27.5	-50.3	288	1	
2025-10-12T00:00	7600	394	-27.7	-51.3	282	1	
2025-10-12T00:00	7620	393	-27.9	-50.9	276	1	
2025-10-12T00:00	7640	392	-28.1	-50.8	270	1	
2025-10-12T00:00	7660	391	-28.2	-50.8	266	1	
2025-10-12T00:00	7680	389	-28.4	-51.2	263	1	
2025-10-12T00:00	7700	388	-28.5	-51.2	263	2	
2025-10-12T00:00	7720	387	-28.7	-51.0	264	2	
2025-10-12T00:00	7740	386	-28.8	-49.7	264	2	
2025-10-12T00:00	7760	385	-29.0	-47.0	261	2	
2025-10-12T00:00	7780	384	-29.2	-46.5	257	3	
2025-10-12T00:00	7800	383	-29.3	-46.2	254	3	
2025-10-12T00:00	7820	382	-29.4	-45.2	250	4	
2025-10-12T00:00	7840	381	-29.5	-44.9	247	4	
2025-10-12T00:00	7860	380	-29.6	-45.6	247	4	
2025-10-12T00:00	7880	379	-29.6	-47.0	249	5	
2025-10-12T00:00	7900	378	-29.7	-47.2	251	5	
2025-10-12T00:00	7920	377	-29.8	-46.8	255	5	
2025-10-12T00:00	7940	375	-29.9	-46.9	257	6	
2025-10-12T00:00	7960	374	-30.0	-46.4	259	6	
2025-10-12T00:00	7980	373	-30.0	-46.2	259	6	
2025-10-12T00:00	8000	372	-30.1	-46.2	258	6	
2025-10-12T00:00	8020	371	-30.3	-44.5	256	6	
2025-10-12T00:00	8040	370	-30.5	-44.4	255	5	
2025-10-12T00:00	8060	369	-30.7	-44.9	253	5	
2025-10-12T00:00	8080	368	-30.8	-44.8	252	5	
2025-10-12T00:00	8100	367	-31.0	-45.1	253	4	
2025-10-12T00:00	8120	366	-31.2	-45.2	255	4	
2025-10-12T00:00	8140	365	-31.4	-45.2	256	4	
2025-10-12T00:00	8160	364	-31.6	-45.1	256	4	
2025-10-12T00:00	8180	363	-31.8	-45.3	254	4	
2025-10-12T00:00	8200	362	-32.0	-45.3	249	5	
2025-10-12T00:00	8220	361	-32.2	-44.9	245	5	
2025-10-12T00:00	8240	360	-32.4	-45.0	241	6	
2025-10-12T00:00	8260	359	-32.6	-45.1	239	6	
2025-10-12T00:00	8280	358	-32.8	-45.2	239	6	
2025-10-12T00:00	8300	357	-33.0	-45.1	241	6	
2025-10-12T00:00	8320	356	-33.2	-45.1	242	6	
2025-10-12T00:00	8340	355	-33.4	-45.2	243	6	
2025-10-12T00:00	8360	354	-33.5	-45.0	244	6	
2025-10-12T00:00	8380	353	-33.7	-45.1	244	6	
2025-10-12T00:00	8400	352	-33.9	-46.1	244	5	
2025-10-12T00:00	8420	351	-34.0	-46.8	245	5	
2025-10-12T00:00	8440	350	-34.2	-46.5	245	5	
2025-10-12T00:00	8460	349	-34.4	-47.5	245	5	
2025-10-12T00:00	8480	348	-34.5	-47.5	245	5	
2025-10-12T00:00	8500	347	-34.7	-47.0	244	5	
2025-10-12T00:00	8520	346	-34.8	-46.0	241	5	
2025-10-12T00:00	8540	345	-35.0	-47.5	238	5	
2025-10-12T00:00	8560	344	-35.1	-48.1	235	5	
2025-10-12T00:00	8580	343	-35.3	-48.6	232	5	
2025-10-12T00:00	8600	342	-35.5	-48.9	230	5	
2025-10-12T00:00	8620	341	-35.7	-49.4	228	5	
2025-10-12T00:00	8640	340	-35.9	-49.5	227	5	
2025-10-12T00:00	8660	339	-36.0	-49.1	226	5	
2025-10-12T00:00	8680	338	-36.2	-48.3	227	6	
2025-10-12T00:00	8700	337	-36.4	-48.7	228	6	
2025-10-12T00:00	8720	336	-36.6	-50.9	230	6	
2025-10-12T00:00	8740	335	-36.7	-55.9	232	6	
2025-10-12T00:00	8760	334	-36.9	-56.5	234	7	
2025-10-12T00:00	8780	333	-37.0	-55.4	236	7	
2025-10-12T00:00	8800	332	-37.2	-54.7	238	7	
2025-10-12T00:00	8820	331	-37.4	-55.1	238	8	
2025-10-12T00:00	8840	330	-37.5	-55.5	238	8	
2025-10-12T00:00	8860	329	-37.6	-55.5	238	8	
2025-10-12T00:00	8880	328	-37.8	-55.0	236	8	
2025-10-12T00:00	8900	327	-37.9	-54.4	234	8	
2025-10-12T00:00	8920	326	-38.0	-53.7	232	8	
2025-10-12T00:00	8940	325	-38.2	-53.6	230	8	
2025-10-12T00:00	8960	325	-38.3	-54.5	228	8	
2025-10-12T00:00	8980	324	-38.5	-54.9	226	8	
2025-10-12T00:00	9000	323	-38.7	-54.7	225	8	
2025-10-12T00:00	9020	322	-38.8	-54.7	224	8	
2025-10-12T00:00	9040	321	-39.0	-54.7	223	8	
2025-10-12T00:00	9060	320	-39.2	-54.9	222	8	
2025-10-12T00:00	9080	319	-39.4	-55.0	222	8	
2025-10-12T00:00	9100	318	-39.6	-55.0	222	9	
2025-10-12T00:00	9120	317	-39.7	-55.1	223	9	
2025-10-12T00:00	9140	316	-39.9	-55.3	223	9	
2025-10-12T00:00	9160	315	-40.1	-55.4	225	9	
2025-10-12T00:00	9180	314	-40.3	-55.2	226	9	
2025-10-12T00:00	9200	313	-40.5	-55.3	227	9	
2025-10-12T00:00	9220	312	-40.7	-55.3	229	9	
2025-10-12T00:00	9240	311	-40.9	-55.3	230	9	
2025-10-12T00:00	9260	311	-41.0	-55.3	230	9	
2025-10-12T00:00	9280	310	-41.2	-55.3	231	9	
2025-10-12T00:00	9300	309	-41.4	-55.1	232	9	
2025-10-12T00:00	9320	308	-41.5	-54.9	233	9	
2025-10-12T00:00	9340	307	-41.7	-54.8	234	9	
2025-10-12T00:00	9360	306	-41.9	-55.2	236	9	
2025-10-12T00:00	9380	305	-42.1	-55.0	237	9	
2025-10-12T00:00	9400	304	-42.2	-54.6	239	9	
2025-10-12T00:00	9420	303	-42.4	-54.4	240	9	
2025-10-12T00:00	9440	302	-42.6	-53.8	241	9	
2025-10-12T00:00	9460	302	-42.7	-53.2	242	9	
2025-10-12T00:00	9480	301	-42.9	-53.4	243	9	
2025-10-12T00:00	9500	300	-43.1	-53.7	243	9	
2025-10-12T00:00	9520	299	-43.3	-53.8	243	9	
2025-10-12T00:00	9540	298	-43.4	-53.8	242	9	
2025-10-12T00:00	9560	297	-43.6	-53.8	241	9	
2025-10-12T00:00	9580	296	-43.8	-53.8	240	9	
2025-10-12T00:00	9600	295	-44.0	-53.8	238	9	
2025-10-12T00:00	9620	295	-44.2	-53.8	237	9	
2025-10-12T00:00	9640	294	-44.4	-53.8	236	9	
2025-10-12T00:00	9660	293	-44.6	-53.8	236	9	
2025-10-12T00:00	9680	292	-44.8	-53.8	237	9	
2025-10-12T00:00	9700	291	-45.0	-53.9	238	9	
2025-10-12T00:00	9720	290	-45.2	-53.9	239	9	
2025-10-12T00:00	9740	289	-45.4	-54.0	240	9	
2025-10-12T00:00	9760	288	-45.5	-54.1	241	9	
2025-10-12T00:00	9780	288	-45.7	-54.1	242	9	
2025-10-12T00:00	9800	287	-45.9	-54.4	243	9	
2025-10-12T00:00	9820	286	-46.0	-54.7	245	9	
2025-10-12T00:00	9840	285	-46.2	-54.9	246	9	
2025-10-12T00:00	9860	284	-46.4	-55.0	248	9	
2025-10-12T00:00	9880	283	-46.5	-55.2	249	9	
2025-10-12T00:00	9900	282	-46.7	-55.9	249	9	
2025-10-12T00:00	9920	282	-46.7	-57.1	248	9	
2025-10-12T00:00	9940	281	-46.8	-57.9	247	9	
2025-10-12T00:00	9960	280	-46.9	-58.1	246	9	
2025-10-12T00:00	9980	279	-47.1	-58.0	245	8	
2025-10-12T00:00	10000	278	-47.2	-57.8	245	8	
2025-10-12T00:00	10018	277	-47.3	-57.4	245	8	
2025-10-12T00:00	10050	276	-47.6	-56.9	246	7	
2025-10-12T00:00	10100	274	-48.0	-57.1	247	7	
2025-10-12T00:00	10150	272	-48.4	-58.3	249	7	
2025-10-12T00:00	10200	270	-48.7	-58.5	251	7	
2025-10-12T00:00	10250	268	-49.1	-58.7	250	8	
2025-10-12T00:00	10300	266	-49.3	-59.5	247	8	
2025-10-12T00:00	10350	264	-49.7	-59.3	248	8	
2025-10-12T00:00	10400	262	-50.1	-59.8	252	8	
2025-10-12T00:00	10450	260	-50.4	-61.7	253	8	
2025-10-12T00:00	10500	258	-50.8	-63.9	251	8	
2025-10-12T00:00	10550	256	-51.2	-64.8	252	8	
2025-10-12T00:00	10600	254	-51.6	-64.3	257	7	
2025-10-12T00:00	10650	252	-52.0	-63.7	260	7	
2025-10-12T00:00	10700	250	-52.4	-63.5	257	6	
2025-10-12T00:00	10750	248	-52.8	-63.8	253	6	
2025-10-12T00:00	10800	246	-53.2	-63.8	248	6	
2025-10-12T00:00	10850	244	-53.5	-64.1	241	7	
2025-10-12T00:00	10900	242	-53.8	-64.5	234	7	
2025-10-12T00:00	10950	240	-54.2	-64.8	231	8	
2025-10-12T00:00	11000	239	-54.4	-64.9	233	8	
2025-10-12T00:00	11050	237	-54.9	-65.0	236	7	
2025-10-12T00:00	11100	235	-55.3	-65.2	236	7	
2025-10-12T00:00	11150	233	-55.7	-65.4	236	7	
2025-10-12T00:00	11200	231	-56.0	-66.0	237	6	
2025-10-12T00:00	11250	229	-56.3	-66.5	237	6	
2025-10-12T00:00	11300	228	-56.6	-66.9	235	5	
2025-10-12T00:00	11350	226	-56.9	-67.1	234	5	
2025-10-12T00:00	11400	224	-57.0	-67.1	239	4	
2025-10-12T00:00	11450	222	-57.3	-67.2	242	4	
2025-10-12T00:00	11500	221	-57.7	-67.2	237	5	
2025-10-12T00:00	11550	219	-58.0	-67.3	232	6	
2025-10-12T00:00	11600	217	-58.5	-67.5	232	6	
2025-10-12T00:00	11650	215	-58.9	-67.5	238	6	
2025-10-12T00:00	11700	214	-59.3	-67.6	243	6	
2025-10-12T00:00	11750	212	-59.8	-67.8	245	7	
2025-10-12T00:00	11800	210	-60.1	-68.4	250	7	
2025-10-12T00:00	11850	208	-60.1	-68.9	258	7	
2025-10-12T00:00	11900	207	-60.0	-69.1	268	7	
2025-10-12T00:00	11950	205	-59.1	-69.2	279	7	
2025-10-12T00:00	12000	204	-59.4	-69.7	286	7	
2025-10-12T00:00	12050	202	-59.7	-69.8	291	6	
2025-10-12T00:00	12100	200	-60.1	-69.7	295	5	
2025-10-12T00:00	12150	199	-60.3	-69.7	303	5	
2025-10-12T00:00	12200	197	-60.5	-70.2	314	5	
2025-10-12T00:00	12250	196	-60.3	-70.9	325	4	
2025-10-12T00:00	12300	194	-60.3	-71.6	333	3	
2025-10-12T00:00	12350	193	-60.4	-72.2	331	2	
2025-10-12T00:00	12400	191	-60.6	-72.7	297	1	
2025-10-12T00:00	12450	189	-60.9	-73.1	276	2	
2025-10-12T00:00	12500	188	-61.4	-73.2	274	2	
2025-10-12T00:00	12550	186	-61.8	-73.3	271	2	
2025-10-12T00:00	12600	185	-62.1	-74.0	276	2	
2025-10-12T00:00	12650	183	-62.0	-74.9	299	1	
2025-10-12T00:00	12700	182	-62.2	-75.8	320	2	
2025-10-12T00:00	12750	180	-61.7	-76.8	342	2	
2025-10-12T00:00	12800	179	-61.1	-77.5	8	1	
2025-10-12T00:00	12850	178	-60.9	-77.9	8	2	
2025-10-12T00:00	12900	176	-60.3	-78.5	354	2	
2025-10-12T00:00	12950	175	-60.2	-78.6	350	4	
2025-10-12T00:00	13000	173	-60.6	-78.7	345	4	
2025-10-12T00:00	13050	172	-60.6	-78.9	339	5	
2025-10-12T00:00	13100	171	-60.4	-79.3	341	5	
2025-10-12T00:00	13150	169	-59.6	-79.5	348	5	
2025-10-12T00:00	13200	168	-59.1	-79.9	353	5	
2025-10-12T00:00	13250	166	-58.8	-80.0	353	6	
2025-10-12T00:00	13300	165	-59.0	-80.0	353	6	
2025-10-12T00:00	13350	164	-59.1	-79.9	354	6	
2025-10-12T00:00	13400	163	-59.6	-79.9	358	5	
2025-10-12T00:00	13450	161	-59.9	-80.0	0	5	
2025-10-12T00:00	13500	160	-60.3	-80.0	358	5	
2025-10-12T00:00	13550	159	-60.7	-80.1	353	4	
2025-10-12T00:00	13600	157	-61.1	-80.1	351	4	
2025-10-12T00:00	13650	156	-61.6	-80.2	355	4	
2025-10-12T00:00	13700	155	-62.0	-80.3	2	4	
2025-10-12T00:00	13750	154	-62.4	-80.4	7	4	
2025-10-12T00:00	13800	152	-62.7	-80.5	11	5	
2025-10-12T00:00	13850	151	-63.1	-80.5	12	4	
2025-10-12T00:00	13900	150	-63.1	-80.7	3	3	
2025-10-12T00:00	13950	149	-62.5	-81.0	331	1	
2025-10-12T00:00	14000	148	-61.8	-81.4	294	1	
2025-10-12T00:00	14050	146	-61.8	-81.8	313	2	
2025-10-12T00:00	14100	145	-61.3	-82.0	336	3	
2025-10-12T00:00	14150	144	-61.3	-82.4	352	4	
2025-10-12T00:00	14200	143	-61.3	-82.3	359	6	
2025-10-12T00:00	14250	142	-61.3	-82.3	2	7	
2025-10-12T00:00	14300	141	-61.2	-82.3	4	8	
2025-10-12T00:00	14350	139	-61.0	-82.3	5	9	
2025-10-12T00:00	14400	138	-60.9	-82.3	5	8	
2025-10-12T00:00	14450	137	-61.1	-82.5	3	8	
2025-10-12T00:00	14500	136	-61.4	-82.7	2	7	
2025-10-12T00:00	14550	135	-61.8	-82.8	2	6	
2025-10-12T00:00	14600	134	-62.1	-82.9	356	5	
2025-10-12T00:00	14650	133	-62.4	-83.1	350	6	
2025-10-12T00:00	14700	132	-62.3	-83.1	349	6	
2025-10-12T00:00	14750	131	-62.4	-83.3	347	6	
2025-10-12T00:00	14800	130	-62.4	-83.3	345	6	
2025-10-12T00:00	14850	129	-62.7	-83.4	342	7	
2025-10-12T00:00	14900	128	-63.0	-83.4	338	7	
2025-10-12T00:00	14950	127	-63.4	-83.5	333	6	
2025-10-12T00:00	15000	126	-63.8	-83.6	327	6	
2025-10-12T00:00	15050	124	-64.2	-83.6	319	5	
2025-10-12T00:00	15100	123	-64.6	-83.7	311	5	
2025-10-12T00:00	15150	122	-64.9	-83.8	309	5	
2025-10-12T00:00	15200	121	-64.9	-83.9	315	6	
2025-10-12T00:00	15250	120	-65.0	-84.0	322	7	
2025-10-12T00:00	15300	119	-65.1	-84.0	331	8	
2025-10-12T00:00	15350	119	-65.2	-84.1	344	8	
2025-10-12T00:00	15400	118	-64.9	-84.1	357	9	
2025-10-12T00:00	15450	117	-64.9	-84.0	7	10	
2025-10-12T00:00	15500	116	-65.1	-84.1	16	10	
2025-10-12T00:00	15550	115	-65.3	-84.1	24	11	
2025-10-12T00:00	15600	114	-65.7	-84.1	30	11	
2025-10-12T00:00	15650	113	-66.0	-84.3	36	11	
2025-10-12T00:00	15700	112	-66.1	-84.4	44	11	
2025-10-12T00:00	15750	111	-65.5	-84.2	53	11	
2025-10-12T00:00	15800	110	-65.5	-84.3	62	10	
2025-10-12T00:00	15850	109	-65.7	-84.4	67	9	
2025-10-12T00:00	15900	108	-65.8	-84.4	69	8	
2025-10-12T00:00	15950	107	-66.0	-84.5	74	7	
2025-10-12T00:00	16000	107	-66.0	-84.5	85	6	
2025-10-12T00:00	16050	106	-66.2	-84.5	99	5	
2025-10-12T00:00	16100	105	-66.3	-84.6	113	5	
2025-10-12T00:00	16150	104	-66.6	-84.7	126	4	
2025-10-12T00:00	16200	103	-66.9	-84.8	140	3	
2025-10-12T00:00	16250	102	-66.9	-84.9	157	1	
2025-10-12T00:00	16300	101	-66.6	-84.9	214	1	
2025-10-12T00:00	16350	101	-66.5	-85.0	233	2	
2025-10-12T00:00	16400	100	-66.4	-85.1	239	4	
2025-10-12T00:00	16450	99	-66.0	-85.2	257	5	
2025-10-12T00:00	16500	98	-65.5	-85.1	277	7	
2025-10-12T00:00	16550	97	-65.2	-85.2	292	8	
2025-10-12T00:00	16600	96	-65.3	-85.2	304	9	
2025-10-12T00:00	16650	96	-65.3	-85.2	312	11	
2025-10-12T00:00	16700	95	-65.5	-85.3	319	11	
2025-10-12T00:00	16750	94	-65.5	-85.3	328	12	
2025-10-12T00:00	16800	93	-65.4	-85.3	336	13	
2025-10-12T00:00	16850	93	-65.6	-85.4	342	12	
2025-10-12T00:00	16900	92	-65.6	-85.5	348	12	
2025-10-12T00:00	16950	91	-65.6	-85.5	354	12	
2025-10-12T00:00	17000	90	-65.6	-85.5	359	13	
2025-10-12T00:00	17050	90	-65.9	-85.6	3	14	
2025-10-12T00:00	17100	89	-66.1	-85.8	8	13	
2025-10-12T00:00	17150	88	-65.9	-85.9	13	11	
2025-10-12T00:00	17200	87	-65.6	-86.0	21	9	
2025-10-12T00:00	17250	87	-65.1	-86.0	31	8	
2025-10-12T00:00	17300	86	-64.6	-85.9	37	8	
2025-10-12T00:00	17350	85	-64.8	-86.0	40	8	
2025-10-12T00:00	17400	85	-64.8	-86.0	40	7	
2025-10-12T00:00	17450	84	-64.8	-86.1	35	6	
2025-10-12T00:00	17500	83	-64.6	-86.1	26	5	
2025-10-12T00:00	17550	82	-64.5	-86.1	15	4	
2025-10-12T00:00	17600	82	-64.6	-86.2	5	4	
2025-10-12T00:00	17650	81	-64.7	-86.2	359	5	
2025-10-12T00:00	17700	81	-64.8	-86.3	358	6	
2025-10-12T00:00	17750	80	-64.6	-86.3	1	6	
2025-10-12T00:00	17800	79	-64.6	-86.5	5	6	
2025-10-12T00:00	17850	79	-64.3	-86.5	10	6	
2025-10-12T00:00	17900	78	-63.9	-86.6	12	5	
2025-10-12T00:00	17950	77	-63.4	-86.5	15	3	
2025-10-12T00:00	18000	77	-63.2	-86.4	35	1	
2025-10-12T00:00	18050	76	-63.4	-86.5	165	1	
2025-10-12T00:00	18100	75	-63.6	-86.6	192	2	
2025-10-12T00:00	18150	75	-63.4	-86.7	211	3	
2025-10-12T00:00	18200	74	-62.7	-86.6	235	3	
2025-10-12T00:00	18250	74	-62.6	-86.7	258	3	
2025-10-12T00:00	18300	73	-62.0	-86.6	275	3	
2025-10-12T00:00	18350	72	-61.5	-86.4	285	3	
2025-10-12T00:00	18400	72	-61.5	-86.3	286	4	
2025-10-12T00:00	18450	71	-61.7	-86.2	285	5	
2025-10-12T00:00	18500	71	-62.2	-86.3	285	6	
2025-10-12T00:00	18550	70	-62.5	-86.4	288	7	
2025-10-12T00:00	18600	70	-62.3	-86.3	292	7	
2025-10-12T00:00	18650	69	-62.4	-86.5	297	8	
2025-10-12T00:00	18700	68	-62.6	-86.7	306	7	
2025-10-12T00:00	18750	68	-62.3	-86.5	315	7	
2025-10-12T00:00	18800	67	-62.4	-86.5	321	6	
2025-10-12T00:00	18850	67	-62.7	-86.6	323	6	
2025-10-12T00:00	18900	66	-62.9	-86.7	329	5	
2025-10-12T00:00	18950	66	-62.6	-86.8	345	4	
2025-10-12T00:00	19000	65	-61.9	-86.5	2	5	
2025-10-12T00:00	19050	65	-62.0	-86.6	11	5	
2025-10-12T00:00	19100	64	-61.9	-86.6	11	6	
2025-10-12T00:00	19150	64	-61.8	-86.5	8	6	
2025-10-12T00:00	19200	63	-61.9	-86.5	2	6	
2025-10-12T00:00	19250	63	-61.7	-86.4	357	6	
2025-10-12T00:00	19300	62	-61.6	-86.4	351	5	
2025-10-12T00:00	19350	62	-61.5	-86.5	339	5	
2025-10-12T00:00	19400	61	-61.4	-86.3	326	5	
2025-10-12T00:00	19450	61	-61.8	-86.4	322	6	
2025-10-12T00:00	19500	60	-62.2	-86.5	321	7	
2025-10-12T00:00	19550	60	-62.4	-86.7	321	9	
2025-10-12T00:00	19600	59	-62.3	-86.8	323	9	
2025-10-12T00:00	19650	59	-62.2	-86.8	324	9	
2025-10-12T00:00	19700	58	-62.1	-86.8	324	9	
2025-10-12T00:00	19750	58	-61.9	-86.7	325	9	
2025-10-12T00:00	19800	57	-62.2	-86.7	328	9	
2025-10-12T00:00	19850	57	-62.4	-86.9	332	9	
2025-10-12T00:00	19900	56	-62.4	-86.8	336	9	
2025-10-12T00:00	19950	56	-62.1	-86.8	338	8	
2025-10-12T00:00	20000	55	-61.8	-86.8	342	7	
2025-10-12T00:00	20050	55	-61.6		348	6	
2025-10-12T00:00	20100	55	-61.7		354	6	
2025-10-12T00:00	20150	54	-61.9		359	6	
2025-10-12T00:00	20200	54	-61.9		359	6	
2025-10-12T00:00	20250	53	-62.2		358	7	
2025-10-12T00:00	20300	53	-62.5		358	7	
2025-10-12T00:00	20350	52	-62.7		357	7	
2025-10-12T00:00	20400	52	-63.0		356	6	
2025-10-12T00:00	20450	52	-63.3		358	5	
2025-10-12T00:00	20500	51	-63.5		360	4	
2025-10-12T00:00	20550	51	-63.6		358	3	
2025-10-12T00:00	20600	50	-63.3		357	2	
2025-10-12T00:00	20650	50	-63.3		14	1	
2025-10-12T00:00	20700	49	-63.4		42	1	
2025-10-12T00:00	20750	49	-63.2		38	1	
2025-10-12T00:00	20800	49	-63.4		23	1	
2025-10-12T00:00	20850	48	-63.6		34	1	
2025-10-12T00:00	20900	48	-63.9		120	0	
2025-10-12T00:00	20950	48	-64.2		133	1	
2025-10-12T00:00	21000	47	-64.4		15	0	
2025-10-12T00:00	21050	47	-64.6		342	2	
2025-10-12T00:00	21100	46	-64.9		349	4	
2025-10-12T00:00	21150	46	-64.6		352	6	
2025-10-12T00:00	21200	46	-64.2		350	7	
2025-10-12T00:00	21250	45	-64.0		348	7	
2025-10-12T00:00	21300	45	-63.8		353	7	
2025-10-12T00:00	21350	44	-63.9		359	6	
2025-10-12T00:00	21400	44	-64.0		4	6	
2025-10-12T00:00	21450	44	-64.0		8	4	
2025-10-12T00:00	21500	43	-63.8		9	3	
2025-10-12T00:00	21550	43	-63.7		7	3	
2025-10-12T00:00	21600	43	-63.6		2	3	
2025-10-12T00:00	21650	42	-63.2		355	3	
2025-10-12T00:00	21700	42	-63.1		351	3	
2025-10-12T00:00	21750	42	-62.9		349	3	
2025-10-12T00:00	21800	41	-62.5		354	3	
2025-10-12T00:00	21850	41	-62.0		6	3	
2025-10-12T00:00	21900	41	-61.9		17	3	
2025-10-12T00:00	21950	40	-61.7		23	2	
2025-10-12T00:00	22000	40	-61.8		24	2	
2025-10-12T00:00	22050	40	-61.8		18	2	
2025-10-12T00:00	22100	39	-61.5		6	3	
2025-10-12T00:00	22150	39	-61.3		359	3	
2025-10-12T00:00	22200	39	-61.1		0	3	
2025-10-12T00:00	22250	38	-60.7		10	3	
2025-10-12T00:00	22300	38	-60.8		24	3	
2025-10-12T00:00	22350	38	-61.1		41	2	
2025-10-12T00:00	22400	38	-61.1		71	1	
2025-10-12T00:00	22450	37	-60.7		163	1	
2025-10-12T00:00	22500	37	-60.9		198	2	
2025-10-12T00:00	22550	37	-61.2		208	3	
2025-10-12T00:00	22600	36	-61.6		210	4	
2025-10-12T00:00	22650	36	-61.7		210	4	
2025-10-12T00:00	22700	36	-61.7		210	4	
2025-10-12T00:00	22750	35	-62.1		213	3	
2025-10-12T00:00	22800	35	-62.4		223	2	
2025-10-12T00:00	22850	35	-62.7		251	1	
2025-10-12T00:00	22900	35	-63.0		315	1	
2025-10-12T00:00	22950	34	-63.4		350	1	
2025-10-12T00:00	23000	34	-63.7		355	1	
2025-10-12T00:00	23050	34	-63.5		353	2	
2025-10-12T00:00	23100	34	-63.1		8	2	
2025-10-12T00:00	23150	33	-63.1		22	2	
2025-10-12T00:00	23200	33	-63.1		14	1	
2025-10-12T00:00	23250	33	-62.9		289	1	
2025-10-12T00:00	23300	32	-63.0		260	3	
2025-10-12T00:00	23350	32	-62.9		262	5	
2025-10-12T00:00	23400	32	-62.8		269	6	
2025-10-12T00:00	23450	32	-62.7		279	8	
2025-10-12T00:00	23500	31	-62.2		289	9	
2025-10-12T00:00	23550	31	-60.9		298	9	
2025-10-12T00:00	23600	31	-60.5		307	10	
2025-10-12T00:00	23650	31	-60.5		316	10	
2025-10-12T00:00	23700	30	-60.4		323	10	
2025-10-12T00:00	23750	30	-60.5		330	10	
2025-10-12T00:00	23800	30	-60.5		337	10	
2025-10-12T00:00	23850	30	-60.8		345	9	
2025-10-12T00:00	23900	29	-61.1		354	9	
2025-10-12T00:00	23950	29	-61.4		3	8	
2025-10-12T00:00	24000	29	-61.7		9	8	
2025-10-12T00:00	24050	29	-61.5		8	8	
2025-10-12T00:00	24100	29	-61.3		359	7	
2025-10-12T00:00	24150	28	-60.9		349	8	
2025-10-12T00:00	24200	28	-61.1		341	8	
2025-10-12T00:00	24250	28	-61.5		337	7	
2025-10-12T00:00	24300	28	-61.3		342	6	
2025-10-12T00:00	24350	27	-60.9		350	6	
2025-10-12T00:00	24400	27	-60.8		355	5	
2025-10-12T00:00	24450	27	-60.6		354	3	
2025-10-12T00:00	24500	27	-60.0		332	1	
2025-10-12T00:00	24550	27	-59.5		232	1	
2025-10-12T00:00	24600	26	-59.3		216	2	
2025-10-12T00:00	24650	26	-59.5		225	2	
2025-10-12T00:00	24700	26	-59.6		239	3	
2025-10-12T00:00	24750	26	-59.5		243	3	
2025-10-12T00:00	24800	25	-59.1		231	3	
2025-10-12T00:00	24850	25	-58.6		217	4	
2025-10-12T00:00	24900	25	-58.1		212	5	
2025-10-12T00:00	24950	25	-57.9		215	7	
2025-10-12T00:00	25000	25	-57.9		217	8	
2025-10-12T00:00	25050	24	-57.5		220	8	
2025-10-12T00:00	25100	24	-57.5		224	8	
2025-10-12T00:00	25150	24	-57.6		230	8	
2025-10-12T00:00	25200	24	-57.7		238	7	
2025-10-12T00:00	25250	24	-58.0		248	7	
2025-10-12T00:00	25300	24	-58.1		260	6	
2025-10-12T00:00	25350	23	-57.9		267	6	
2025-10-12T00:00	25400	23	-57.8		266	6	
2025-10-12T00:00	25450	23	-57.9		259	7	
2025-10-12T00:00	25500	23	-58.1		255	7	
2025-10-12T00:00	25550	23	-58.2		254	7	
2025-10-12T00:00	25600	22	-57.9		253	7	
2025-10-12T00:00	25650	22	-58.1		250	6	
2025-10-12T00:00	25700	22	-58.2		247	6	
2025-10-12T00:00	25750	22	-58.3		244	6	
2025-10-12T00:00	25800	22	-58.5		244	6	
2025-10-12T00:00	25850	22	-58.5		246	6	
2025-10-12T00:00	25900	21	-58.5		249	7	
2025-10-12T00:00	25950	21	-58.6		250	7	
2025-10-12T00:00	26000	21	-58.3		248	8	
2025-10-12T00:00	26050	21	-58.0		246	8	
2025-10-12T00:00	26100	21	-57.4		244	8	
2025-10-12T00:00	26150	21	-57.0		242	7	
2025-10-12T00:00	26200	20	-56.8		241	6	
2025-10-12T00:00	26250	20	-56.8		244	5	
2025-10-12T00:00	26300	20	-56.8		252	6	
2025-10-12T00:00	26350	20	-56.5		258	7	
2025-10-12T00:00	26400	20	-56.5		260	8	
2025-10-12T00:00	26450	20	-56.7		260	8	
2025-10-12T00:00	26500	19	-56.8		263	9	
2025-10-12T00:00	26550	19	-56.8		268	9	
2025-10-12T00:00	26600	19	-56.6		272	9	
2025-10-12T00:00	26650	19	-56.6		273	9	
2025-10-12T00:00	26700	19	-56.6		273	8	
2025-10-12T00:00	26750	19	-56.6		274	7	
2025-10-12T00:00	26800	19	-56.5		277	7	
2025-10-12T00:00	26850	18	-56.4		281	7	
2025-10-12T00:00	26900	18	-56.5		283	8	
2025-10-12T00:00	26950	18	-56.7		283	9	
2025-10-12T00:00	27000	18	-56.9		279	10	
2025-10-12T00:00	27050	18	-57.0		275	10	
2025-10-12T00:00	27100	18	-56.6		272	11	
2025-10-12T00:00	27150	18	-56.5		271	10	
2025-10-12T00:00	27200	17	-56.6		270	10	
2025-10-12T00:00	27250	17	-56.8		268	9	
2025-10-12T00:00	27300	17	-57.0		266	9	
2025-10-12T00:00	27350	17	-57.1		264	9	
2025-10-12T00:00	27400	17	-57.0		262	10	
2025-10-12T00:00	27450	17	-57.3		259	10	
2025-10-12T00:00	27500	17	-57.8		258	10	
2025-10-12T00:00	27550	16	-58.2		261	10	
2025-10-12T00:00	27600	16	-58.1		264	9	
2025-10-12T00:00	27650	16	-58.4		263	8	
2025-10-12T00:00	27700	16	-58.6		260	8	
2025-10-12T00:00	27750	16	-58.7		258	9	
2025-10-12T00:00	27800	16	-58.6		260	10	
2025-10-12T00:00	27850	16	-57.9		264	10	
2025-10-12T00:00	27900	16	-57.6		269	11	
2025-10-12T00:00	27950	15	-57.7		273	12	
2025-10-12T00:00	28000	15	-57.8		277	12	
2025-10-12T00:00	28050	15	-58.0		280	12	
2025-10-12T00:00	28100	15	-58.2		283	11	
2025-10-12T00:00	28150	15	-58.4		286	10	
2025-10-12T00:00	28200	15	-58.2		289	9	
2025-10-12T00:00	28250	15	-58.2		294	8	
2025-10-12T00:00	28300	15	-58.0		297	7	
2025-10-12T00:00	28350	15	-57.8		295	6	
2025-10-12T00:00	28400	14	-57.5		288	6	
2025-10-12T00:00	28450	14	-57.5		279	6	
2025-10-12T00:00	28500	14	-57.6		272	6	
2025-10-12T00:00	28550	14	-57.7		264	7	
2025-10-12T00:00	28600	14	-57.6		257	8	
2025-10-12T00:00	28650	14	-57.5		251	8	
2025-10-12T00:00	28700	14	-57.5		248	9	
2025-10-12T00:00	28750	14	-57.5		247	11	
2025-10-12T00:00	28800	14	-57.1		248	12	
2025-10-12T00:00	28850	13	-56.6		250	14	
2025-10-12T00:00	28900	13	-56.2		253	16	
2025-10-12T00:00	28950	13	-55.8		257	16	
2025-10-12T00:00	29000	13	-55.3		259	16	
2025-10-12T00:00	29050	13	-55.1		260	16	
2025-10-12T00:00	29100	13	-54.6		260	17	
2025-10-12T00:00	29150	13	-54.4		262	17	
2025-10-12T00:00	29200	13	-54.2		265	17	
2025-10-12T00:00	29250	13	-54.3		267	17	
2025-10-12T00:00	29300	12	-54.6		266	17	
2025-10-12T00:00	29350	12	-54.7		265	18	
2025-10-12T00:00	29400	12	-54.8		263	19	
2025-10-12T00:00	29450	12	-54.9		262	20	
2025-10-12T00:00	29500	12	-55.2		264	20	
2025-10-12T00:00	29550	12	-55.6		266	20	
2025-10-12T00:00	29600	12	-55.7		270	19	
2025-10-12T00:00	29650	12	-55.6		273	18	
2025-10-12T00:00	29700	12	-55.9		276	17	
2025-10-12T00:00	29750	12	-56.2		277	16	
2025-10-12T00:00	29800	12	-56.5		279	14	
2025-10-12T00:00	29850	11	-56.4		280	13	
2025-10-12T00:00	29900	11	-56.0		278	12	
2025-10-12T00:00	29950	11	-56.2		276	12	
2025-10-12T00:00	30000	11	-56.4		277	12	
2025-10-12T00:00	30050	11	-55.9		278	13	
2025-10-12T00:00	30100	11	-55.6		276	13	
2025-10-12T00:00	30150	11	-54.5		272	13	
2025-10-12T00:00	30200	11	-53.8		269	14	
2025-10-12T00:00	30250	11	-53.2		269	15	
2025-10-12T00:00	30300	11	-52.7		271	16	
2025-10-12T00:00	30350	11	-52.3		273	16	
2025-10-12T00:00	30400	11	-52.1		274	16	
2025-10-12T00:00	30450	10	-51.5		275	16	
2025-10-12T00:00	30500	10	-51.1		275	16	
2025-10-12T00:00	30550	10	-50.8		277	17	
2025-10-12T00:00	30600	10	-50.8		279	18	
2025-10-12T00:00	30650	10	-50.7		282	19	
2025-10-12T00:00	30700	10	-50.6		284	20	
2025-10-12T00:00	30750	10	-50.5		285	21	
2025-10-12T00:00	30800	10	-50.7		284	22	
2025-10-12T00:00	30850	10	-50.6		285	23	
2025-10-12T00:00	30900	10	-50.8		286	23	
2025-10-12T00:00	30950	10	-50.7		288	23	
2025-10-12T00:00	31000	10	-51.0		289	22	
2025-10-12T00:00	31050	10	-51.3		291	21	
2025-10-12T00:00	31100	9	-51.6		294	20	
2025-10-12T00:00	31150	9	-51.5		296	19	
2025-10-12T00:00	31200	9	-51.5		298	19	
2025-10-12T00:00	31250	9	-51.1		296	18	
2025-10-12T00:00	31300	9	-51.0		293	18	
2025-10-12T00:00	31350	9	-51.1		290	18	
2025-10-12T00:00	31400	9	-51.2		287	18	
2025-10-12T00:00	31450	9	-51.3		286	17	
2025-10-12T00:00	31500	9	-51.2		286	16	
2025-10-12T00:00	31550	9	-51.3		285	15	
2025-10-12T00:00	31600	9	-51.6		282	14	
2025-10-12T00:00	31650	9	-51.7		278	14	
2025-10-12T00:00	31700	9	-51.6		276	15	
2025-10-12T00:00	31750	9	-51.3		277	16	
2025-10-12T00:00	31800	8	-51.1		278	18	
2025-10-12T00:00	31850	8	-50.7		280	19	
2025-10-12T00:00	31900	8	-50.7		282	19	
2025-10-12T00:00	31950	8	-50.7		283	19	
2025-10-12T00:00	32000	8	-50.5		285	19	
2025-10-12T00:00	32050	8	-49.7		287	18	
2025-10-12T00:00	32100	8	-49.5		287	18	
2025-10-12T00:00	32150	8	-49.0		286	18	
2025-10-12T00:00	32200	8	-48.9		285	17	
2025-10-12T00:00	32250	8	-48.2		282	16	
2025-10-12T00:00	32300	8	-48.2		279	14	
2025-10-12T00:00	32350	8	-48.4		275	13	
2025-10-12T00:00	32400	8	-48.3		272	13	
2025-10-12T00:00	32450	8	-48.1		269	12	
2025-10-12T00:00	32500	8	-47.6		266	12	
2025-10-12T00:00	32550	8	-47.5		261	12	
2025-10-12T00:00	32600	8	-47.6		256	12	
2025-10-12T00:00	32650	7	-47.6		253	12	
2025-10-12T00:00	32700	7	-47.4		251	13	
2025-10-12T00:00	32750	7	-47.0		249	13	
2025-10-12T00:00	32800	7	-47.0		248	14	
2025-10-12T00:00	32850	7	-47.0		250	15	
2025-10-12T00:00	32900	7	-46.5		253	16	
2025-10-12T00:00	32950	7	-46.4		256	17	
2025-10-12T00:00	33000	7	-46.2		256	18	
2025-10-12T00:00	33050	7	-45.9		255	18	
2025-10-12T00:00	33100	7	-45.6		253	18	
2025-10-12T00:00	33150	7	-45.4		254	17	
2025-10-12T00:00	33200	7	-45.1		257	16	
2025-10-12T00:00	33250	7	-44.9		262	16	
2025-10-12T00:00	33300	7	-44.5		266	16	
2025-10-12T00:00	33350	7	-44.3		271	15	
2025-10-12T00:00	33400	7	-44.7		277	15	
2025-10-12T00:00	33450	7	-45.0		283	15	
2025-10-12T00:00	33500	7	-45.4		289	15	
2025-10-12T00:00	33550	7	-45.7		290	14	
2025-10-12T00:00	33600	6	-45.6		288	13	
2025-10-12T00:00	33650	6	-45.4		282	13	
2025-10-12T00:00	33700	6	-45.4		274	12	
2025-10-12T00:00	33750	6	-45.0		267	13	
2025-10-12T00:00	33800	6	-44.8		261	13	
2025-10-12T00:00	33850	6	-44.9		256	13	
2025-10-12T00:00	33900	6	-45.1		253	13	
2025-10-12T00:00	33950	6	-45.3		251	14	
2025-10-12T00:00	34000	6	-45.6		251	14	
2025-10-12T00:00	34050	6	-45.7		252	15	
2025-10-12T00:00	34100	6	-45.8		252	16	
2025-10-12T00:00	34150	6	-45.8		253	17	
2025-10-12T00:00	34200	6	-45.8		256	18	
2025-10-12T00:00	34250	6	-45.9		260	18	
2025-10-12T00:00	34300	6	-45.7		264	19	
2025-10-12T00:00	34350	6	-45.7		266	19	
2025-10-12T00:00	34400	6	-45.3		267	19	
2025-10-12T00:00	34450	6	-44.8		268	18	
2025-10-12T00:00	34500	6	-44.7		270	17	
2025-10-12T00:00	34550	6	-44.2		272	15	
2025-10-12T00:00	34600	6	-43.9		274	14	
2025-10-12T00:00	34650	6	-43.6		276	14	
2025-10-12T00:00	34700	5	-43.4		275	14	
2025-10-12T00:00	34750	5	-42.7		274	14	
2025-10-12T00:00	34800	5	-42.5		277	14	
2025-10-12T00:00	34850	5	-42.6		282	14	
2025-10-12T00:00	34900	5	-42.6		287	14	
2025-10-12T00:00	34950	5	-42.3		290	14	
2025-10-12T00:00	35000	5	-41.7		292	13	
2025-10-12T00:00	35050	5	-41.1		292	12	
2025-10-12T00:00	35100	5	-41.0		293	11	
2025-10-12T00:00	35150	5	-41.0		294	10	
2025-10-12T00:00	35200	5	-41.2		291	9	
2025-10-12T00:00	35250	5	-41.2		281	9	
2025-10-12T00:00	35300	5	-41.0		266	9	
2025-10-12T00:00	35350	5	-40.8		253	9	
2025-10-12T00:00	35400	5	-40.6		244	11	
2025-10-12T00:00	35450	5	-40.6		238	12	
2025-10-12T00:00	35500	5	-40.5		234	14	
2025-10-12T00:00	35550	5	-40.2		233	15	
2025-10-12T00:00	35600	5	-40.2		232	17	
2025-10-12T00:00	35650	5	-40.4		232	18	
2025-10-12T00:00	35700	5	-40.6		232	19	
2025-10-12T00:00	35750	5	-40.8		234	20	
2025-10-12T00:00	35800	5	-41.2		236	20	
2025-10-12T00:00	35850	5	-41.3		239	21	
2025-10-12T00:00	35900	5	-41.3		243	22	
2025-10-12T00:00	35950	5	-41.7		246	23	
2025-10-12T00:00	36000	5	-41.7		249	23	
2025-10-12T00:00	36050	4	-41.9		251	24	
2025-10-12T00:00	36100	4	-42.1		253	24	
2025-10-12T00:00	36150	4	-42.2		256	24	
2025-10-12T00:00	36200	4	-42.3		259	25	
2025-10-12T00:00	36250	4	-42.3		261	25	
2025-10-12T00:00	36300	4	-41.6		264	26	
2025-10-12T00:00	36350	4	-41.0		268	26	
2025-10-12T00:00	36400	4	-40.6		272	27	
2025-10-12T00:00	36450	4	-40.5		275	27	
2025-10-12T00:00	36500	4	-40.1		274	27	
2025-10-12T12:00	491	969	12.0	8.5	26	1	
2025-10-12T12:00	501	968	12.0	9.0	29	1	
2025-10-12T12:00	520	966	11.5	8.6	32	2	
2025-10-12T12:00	540	964	11.2	8.2	34	2	
2025-10-12T12:00	560	961	11.0	8.0	35	2	
2025-10-12T12:00	580	959	10.7	7.9	37	3	
2025-10-12T12:00	600	957	10.5	7.8	38	3	
2025-10-12T12:00	620	955	10.2	7.7	40	3	
2025-10-12T12:00	640	953	10.1	7.7	42	3	
2025-10-12T12:00	660	950	9.9	7.6	43	3	
2025-10-12T12:00	680	948	9.6	7.6	45	3	
2025-10-12T12:00	700	946	9.5	7.6	46	3	
2025-10-12T12:00	720	944	9.3	7.6	47	3	
2025-10-12T12:00	740	941	9.1	7.6	49	3	
2025-10-12T12:00	760	938	8.9	7.6	51	3	
2025-10-12T12:00	780	936	8.7	7.6	52	3	
2025-10-12T12:00	800	934	8.5	7.5	54	3	
2025-10-12T12:00	820	932	8.3	7.5	55	3	
2025-10-12T12:00	840	930	8.1	7.4	57	3	
2025-10-12T12:00	860	927	7.9	7.4	59	3	
2025-10-12T12:00	880	925	7.7	7.4	61	3	
2025-10-12T12:00	900	923	7.5	7.3	63	3	
2025-10-12T12:00	920	920	7.3	7.2	64	2	
2025-10-12T12:00	940	918	7.1	7.1	65	2	
2025-10-12T12:00	960	916	7.0	7.0	66	2	
2025-10-12T12:00	980	914	6.8	6.8	68	2	
2025-10-12T12:00	1000	912	6.7	6.6	69	2	
2025-10-12T12:00	1020	909	6.5	6.5	73	2	
2025-10-12T12:00	1040	907	6.4	6.4	77	1	
2025-10-12T12:00	1060	905	6.2	6.2	84	1	
2025-10-12T12:00	1080	903	6.1	6.1	92	1	
2025-10-12T12:00	1100	901	6.0	6.0	97	2	
2025-10-12T12:00	1120	899	5.9	5.9	99	2	
2025-10-12T12:00	1140	897	5.8	5.8	99	2	
2025-10-12T12:00	1160	894	5.7	5.7	99	2	
2025-10-12T12:00	1180	892	5.6	5.6	99	2	
2025-10-12T12:00	1200	890	5.5	5.5	100	2	
2025-10-12T12:00	1220	888	5.4	5.4	103	2	
2025-10-12T12:00	1240	886	5.3	5.3	110	2	
2025-10-12T12:00	1260	883	5.2	5.2	128	1	
2025-10-12T12:00	1280	881	5.1	5.1	167	1	
2025-10-12T12:00	1300	879	4.9	4.9	203	1	
2025-10-12T12:00	1320	877	4.8	4.8	223	2	
2025-10-12T12:00	1340	875	4.8	4.6	236	2	
2025-10-12T12:00	1360	873	6.3	2.7	244	3	
2025-10-12T12:00	1380	870	8.0	1.6	251	3	
2025-10-12T12:00	1400	868	8.7	1.4	258	3	
2025-10-12T12:00	1420	866	9.6	-0.8	265	2	
2025-10-12T12:00	1440	864	11.4	-3.3	274	2	
2025-10-12T12:00	1460	862	12.8	-7.2	282	2	
2025-10-12T12:00	1480	860	13.5	-10.3	287	2	
2025-10-12T12:00	1500	858	13.8	-10.7	286	1	
2025-10-12T12:00	1520	856	13.8	-10.9	282	1	
2025-10-12T12:00	1540	854	13.7	-11.2	275	1	
2025-10-12T12:00	1560	852	13.7	-11.6	268	2	
2025-10-12T12:00	1580	850	13.6	-10.7	261	2	
2025-10-12T12:00	1600	848	13.4	-10.6	255	2	
2025-10-12T12:00	1620	846	13.4	-10.9	249	2	
2025-10-12T12:00	1640	844	13.4	-10.4	244	2	
2025-10-12T12:00	1660	842	13.4	-9.8	241	2	
2025-10-12T12:00	1680	840	13.4	-8.6	240	2	
2025-10-12T12:00	1700	838	13.3	-8.6	241	1	
2025-10-12T12:00	1720	836	13.2	-8.6	243	1	
2025-10-12T12:00	1740	834	13.0	-8.6	250	1	
2025-10-12T12:00	1760	832	12.8	-8.6	259	1	
2025-10-12T12:00	1780	830	12.7	-8.6	269	1	
2025-10-12T12:00	1800	828	12.4	-8.7	281	1	
2025-10-12T12:00	1820	826	12.3	-8.8	289	1	
2025-10-12T12:00	1840	824	12.1	-8.8	292	1	
2025-10-12T12:00	1860	822	11.9	-8.9	290	1	
2025-10-12T12:00	1880	820	11.7	-9.0	286	1	
2025-10-12T12:00	1900	818	11.6	-9.0	282	1	
2025-10-12T12:00	1920	816	11.5	-9.3	278	1	
2025-10-12T12:00	1940	814	11.5	-9.3	277	1	
2025-10-12T12:00	1960	812	11.4	-9.3	277	2	
2025-10-12T12:00	1980	810	11.3	-9.3	279	2	
2025-10-12T12:00	2000	808	11.3	-9.4	283	2	
2025-10-12T12:00	2020	807	11.2	-9.4	286	2	
2025-10-12T12:00	2040	805	11.2	-9.0	290	2	
2025-10-12T12:00	2060	803	11.1	-8.7	293	2	
2025-10-12T12:00	2080	801	11.0	-9.0	296	2	
2025-10-12T12:00	2100	799	10.8	-9.3	297	2	
2025-10-12T12:00	2120	797	10.7	-9.3	298	2	
2025-10-12T12:00	2140	795	10.5	-9.5	298	2	
2025-10-12T12:00	2160	793	10.4	-9.6	298	2	
2025-10-12T12:00	2180	791	10.4	-9.9	299	2	
2025-10-12T12:00	2200	789	10.3	-10.1	301	2	
2025-10-12T12:00	2220	787	10.1	-10.1	303	2	
2025-10-12T12:00	2240	785	10.0	-10.3	303	2	
2025-10-12T12:00	2260	783	9.8	-10.5	303	2	
2025-10-12T12:00	2280	782	9.6	-10.8	303	2	
2025-10-12T12:00	2300	780	9.5	-11.1	302	2	
2025-10-12T12:00	2320	778	9.5	-10.8	302	2	
2025-10-12T12:00	2340	776	9.4	-10.8	305	1	
2025-10-12T12:00	2360	774	9.2	-10.8	310	1	
2025-10-12T12:00	2380	772	9.2	-10.9	318	1	
2025-10-12T12:00	2400	771	9.1	-10.9	328	1	
2025-10-12T12:00	2420	769	8.9	-11.0	337	2	
2025-10-12T12:00	2440	766	8.8	-11.0	341	2	
2025-10-12T12:00	2460	765	8.6	-11.0	343	2	
2025-10-12T12:00	2480	763	8.5	-10.7	344	2	
2025-10-12T12:00	2500	761	8.3	-10.6	344	2	
2025-10-12T12:00	2520	759	8.1	-10.4	345	2	
2025-10-12T12:00	2540	757	8.0	-10.2	346	2	
2025-10-12T12:00	2560	756	7.8	-9.9	347	2	
2025-10-12T12:00	2580	754	7.7	-8.9	348	2	
2025-10-12T12:00	2600	752	7.5	-9.2	348	2	
2025-10-12T12:00	2620	750	7.4	-9.7	347	2	
2025-10-12T12:00	2640	748	7.3	-9.7	345	2	
2025-10-12T12:00	2660	747	7.1	-9.3	343	2	
2025-10-12T12:00	2680	745	6.9	-9.5	340	2	
2025-10-12T12:00	2700	743	6.8	-9.8	336	2	
2025-10-12T12:00	2720	741	6.6	-9.9	333	2	
2025-10-12T12:00	2740	739	6.5	-9.9	331	2	
2025-10-12T12:00	2760	737	6.3	-10.1	329	2	
2025-10-12T12:00	2780	736	6.1	-10.1	329	2	
2025-10-12T12:00	2800	734	5.9	-9.7	329	2	
2025-10-12T12:00	2820	732	5.7	-9.7	331	2	
2025-10-12T12:00	2840	730	5.6	-10.0	333	2	
2025-10-12T12:00	2860	728	5.4	-9.7	336	2	
2025-10-12T12:00	2880	727	5.2	-9.6	339	2	
2025-10-12T12:00	2900	725	5.1	-9.6	342	2	
2025-10-12T12:00	2920	723	5.0	-9.8	346	2	
2025-10-12T12:00	2940	721	4.8	-10.0	351	2	
2025-10-12T12:00	2960	719	4.7	-10.5	356	2	
2025-10-12T12:00	2980	718	4.7	-10.9	0	2	
2025-10-12T12:00	3000	716	4.6	-11.4	1	2	
2025-10-12T12:00	3020	714	4.5	-11.9	358	1	
2025-10-12T12:00	3040	713	4.4	-12.4	351	1	
2025-10-12T12:00	3060	711	4.4	-13.5	339	1	
2025-10-12T12:00	3080	709	4.3	-14.6	321	1	
2025-10-12T12:00	3100	707	4.2	-15.3	307	1	
2025-10-12T12:00	3120	706	4.2	-15.4	297	1	
2025-10-12T12:00	3140	704	4.1	-14.9	293	2	
2025-10-12T12:00	3160	702	4.0	-13.5	297	2	
2025-10-12T12:00	3180	700	3.9	-14.2	303	2	
2025-10-12T12:00	3200	699	3.8	-14.9	310	2	
2025-10-12T12:00	3220	697	3.7	-13.1	319	2	
2025-10-12T12:00	3240	695	3.5	-12.8	328	2	
2025-10-12T12:00	3260	693	3.3	-13.2	335	2	
2025-10-12T12:00	3280	692	3.2	-13.0	342	2	
2025-10-12T12:00	3300	690	3.0	-13.1	348	2	
2025-10-12T12:00	3320	688	2.8	-13.0	350	2	
2025-10-12T12:00	3340	687	2.6	-12.6	350	2	
2025-10-12T12:00	3360	685	2.4	-12.5	349	2	
2025-10-12T12:00	3380	683	2.2	-12.4	347	2	
2025-10-12T12:00	3400	681	2.0	-12.3	344	2	
2025-10-12T12:00	3420	680	1.8	-12.3	341	2	
2025-10-12T12:00	3440	678	1.6	-12.3	339	2	
2025-10-12T12:00	3460	677	1.4	-12.3	337	2	
2025-10-12T12:00	3480	675	1.3	-12.3	336	2	
2025-10-12T12:00	3500	673	1.1	-12.3	337	2	
2025-10-12T12:00	3520	672	0.9	-12.4	338	3	
2025-10-12T12:00	3540	670	0.7	-12.6	340	3	
2025-10-12T12:00	3560	668	0.5	-12.7	343	3	
2025-10-12T12:00	3580	666	0.3	-12.9	346	3	
2025-10-12T12:00	3600	665	0.2	-13.0	348	3	
2025-10-12T12:00	3620	663	0.0	-13.1	349	4	
2025-10-12T12:00	3640	662	-0.2	-13.2	349	4	
2025-10-12T12:00	3660	660	-0.4	-13.3	347	4	
2025-10-12T12:00	3680	658	-0.5	-13.3	345	4	
2025-10-12T12:00	3700	656	-0.8	-13.4	342	4	
2025-10-12T12:00	3720	655	-0.9	-13.3	338	4	
2025-10-12T12:00	3740	653	-1.1	-13.4	336	4	
2025-10-12T12:00	3760	652	-1.3	-13.6	334	4	
2025-10-12T12:00	3780	650	-1.5	-13.8	333	3	
2025-10-12T12:00	3800	648	-1.7	-14.0	333	3	
2025-10-12T12:00	3820	647	-1.8	-14.4	334	3	
2025-10-12T12:00	3840	645	-1.9	-15.0	335	3	
2025-10-12T12:00	3860	644	-2.0	-15.7	336	2	
2025-10-12T12:00	3880	642	-2.2	-16.2	337	2	
2025-10-12T12:00	3900	640	-2.3	-16.7	336	2	
2025-10-12T12:00	3920	639	-2.4	-17.2	336	2	
2025-10-12T12:00	3940	637	-2.6	-17.5	335	2	
2025-10-12T12:00	3960	635	-2.7	-17.5	336	2	
2025-10-12T12:00	3980	634	-2.9	-17.7	338	3	
2025-10-12T12:00	4000	632	-3.1	-18.1	339	3	
2025-10-12T12:00	4020	631	-3.2	-18.4	339	3	
2025-10-12T12:00	4040	629	-3.4	-18.7	337	3	
2025-10-12T12:00	4060	627	-3.6	-18.8	333	2	
2025-10-12T12:00	4080	626	-3.8	-19.1	327	2	
2025-10-12T12:00	4100	624	-3.9	-19.6	321	2	
2025-10-12T12:00	4120	623	-4.0	-19.8	312	2	
2025-10-12T12:00	4140	621	-4.2	-20.0	301	2	
2025-10-12T12:00	4160	620	-4.3	-20.1	290	2	
2025-10-12T12:00	4180	618	-4.5	-20.2	283	3	
2025-10-12T12:00	4200	616	-4.7	-20.2	278	3	
2025-10-12T12:00	4220	615	-4.9	-20.5	272	3	
2025-10-12T12:00	4240	613	-5.1	-20.8	266	2	
2025-10-12T12:00	4260	612	-5.2	-21.1	260	2	
2025-10-12T12:00	4280	610	-5.3	-21.2	253	2	
2025-10-12T12:00	4300	609	-5.5	-21.2	244	2	
2025-10-12T12:00	4320	607	-5.7	-21.2	233	2	
2025-10-12T12:00	4340	606	-5.9	-21.3	222	1	
2025-10-12T12:00	4360	604	-6.1	-21.6	216	1	
2025-10-12T12:00	4380	603	-6.2	-22.2	220	1	
2025-10-12T12:00	4400	601	-6.2	-23.0	232	1	
2025-10-12T12:00	4420	600	-6.2	-23.6	248	1	
2025-10-12T12:00	4440	598	-6.3	-24.0	281	1	
2025-10-12T12:00	4460	596	-6.4	-24.2	299	1	
2025-10-12T12:00	4480	595	-6.6	-24.4	306	2	
2025-10-12T12:00	4500	593	-6.7	-24.8	311	2	
2025-10-12T12:00	4520	592	-6.8	-25.3	316	2	
2025-10-12T12:00	4540	590	-6.8	-25.9	320	2	
2025-10-12T12:00	4560	589	-6.9	-26.6	323	2	
2025-10-12T12:00	4580	587	-6.9	-27.4	326	2	
2025-10-12T12:00	4600	586	-7.0	-27.8	328	2	
2025-10-12T12:00	4620	584	-7.0	-27.9	330	2	
2025-10-12T12:00	4640	583	-7.2	-28.0	330	2	
2025-10-12T12:00	4660	581	-7.3	-28.2	330	2	
2025-10-12T12:00	4680	580	-7.4	-28.4	330	2	
2025-10-12T12:00	4700	578	-7.6	-28.5	328	2	
2025-10-12T12:00	4720	577	-7.7	-28.6	328	2	
2025-10-12T12:00	4740	575	-7.9	-28.7	327	2	
2025-10-12T12:00	4760	574	-8.0	-28.7	330	2	
2025-10-12T12:00	4780	572	-8.0	-28.7	335	2	
2025-10-12T12:00	4800	571	-8.2	-28.6	339	2	
2025-10-12T12:00	4820	569	-8.4	-28.7	343	2	
2025-10-12T12:00	4840	568	-8.6	-28.7	346	2	
2025-10-12T12:00	4860	566	-8.8	-28.6	348	2	
2025-10-12T12:00	4880	565	-8.9	-28.4	347	2	
2025-10-12T12:00	4900	563	-9.0	-28.2	340	2	
2025-10-12T12:00	4920	562	-9.2	-28.3	331	2	
2025-10-12T12:00	4940	561	-9.3	-28.7	322	2	
2025-10-12T12:00	4960	559	-9.5	-29.6	310	2	
2025-10-12T12:00	4980	558	-9.6	-29.8	301	2	
2025-10-12T12:00	5000	556	-9.7	-30.0	297	2	
2025-10-12T12:00	5020	555	-9.9	-30.0	294	2	
2025-10-12T12:00	5040	553	-10.1	-30.3	294	2	
2025-10-12T12:00	5060	552	-10.2	-31.2	295	2	
2025-10-12T12:00	5080	550	-10.3	-32.3	297	2	
2025-10-12T12:00	5100	549	-10.5	-32.9	298	1	
2025-10-12T12:00	5120	548	-10.6	-32.6	300	1	
2025-10-12T12:00	5140	546	-10.8	-32.7	299	1	
2025-10-12T12:00	5160	545	-10.9	-31.9	294	1	
2025-10-12T12:00	5180	543	-11.1	-30.8	282	1	
2025-10-12T12:00	5200	542	-11.3	-30.5	267	1	
2025-10-12T12:00	5220	540	-11.5	-30.5	243	1	
2025-10-12T12:00	5240	539	-11.7	-30.0	224	1	
2025-10-12T12:00	5260	538	-11.8	-29.6	213	1	
2025-10-12T12:00	5280	536	-12.0	-29.3	207	1	
2025-10-12T12:00	5300	535	-12.2	-29.3	204	2	
2025-10-12T12:00	5320	534	-12.3	-29.1	201	2	
2025-10-12T12:00	5340	532	-12.5	-29.0	201	2	
2025-10-12T12:00	5360	531	-12.7	-29.1	201	2	
2025-10-12T12:00	5380	529	-12.9	-29.2	200	2	
2025-10-12T12:00	5400	528	-13.0	-29.3	200	1	
2025-10-12T12:00	5420	526	-13.2	-29.5	198	1	
2025-10-12T12:00	5440	525	-13.4	-29.7	195	1	
2025-10-12T12:00	5460	524	-13.6	-29.7	193	1	
2025-10-12T12:00	5480	522	-13.7	-29.8	193	1	
2025-10-12T12:00	5500	521	-13.9	-30.3	195	1	
2025-10-12T12:00	5520	520	-14.1	-30.5	199	2	
2025-10-12T12:00	5540	518	-14.3	-30.7	205	2	
2025-10-12T12:00	5560	517	-14.4	-30.6	210	2	
2025-10-12T12:00	5580	516	-14.6	-30.5	214	2	
2025-10-12T12:00	5600	514	-14.8	-30.6	217	3	
2025-10-12T12:00	5620	513	-14.9	-30.3	218	3	
2025-10-12T12:00	5640	511	-15.1	-30.6	219	3	
2025-10-12T12:00	5660	510	-15.2	-30.9	218	3	
2025-10-12T12:00	5680	509	-15.2	-31.3	218	3	
2025-10-12T12:00	5700	507	-15.3	-31.9	218	3	
2025-10-12T12:00	5720	506	-15.5	-32.3	219	3	
2025-10-12T12:00	5740	505	-15.6	-32.1	223	2	
2025-10-12T12:00	5760	503	-15.7	-32.7	230	2	
2025-10-12T12:00	5780	502	-15.9	-32.3	246	1	
2025-10-12T12:00	5800	501	-16.0	-32.1	274	1	
2025-10-12T12:00	5820	500	-16.2	-31.7	294	1	
2025-10-12T12:00	5840	498	-16.4	-31.6	303	2	
2025-10-12T12:00	5860	497	-16.5	-31.6	306	2	
2025-10-12T12:00	5880	496	-16.7	-31.8	305	2	
2025-10-12T12:00	5900	494	-16.8	-32.3	297	2	
2025-10-12T12:00	5920	493	-16.9	-32.3	277	2	
2025-10-12T12:00	5940	492	-17.1	-32.3	259	2	
2025-10-12T12:00	5960	490	-17.2	-32.6	247	2	
2025-10-12T12:00	5980	489	-17.4	-33.1	242	3	
2025-10-12T12:00	6000	488	-17.6	-33.1	240	3	
2025-10-12T12:00	6020	486	-17.8	-32.9	239	3	
2025-10-12T12:00	6040	485	-17.9	-32.2	238	3	
2025-10-12T12:00	6060	484	-18.0	-31.6	237	3	
2025-10-12T12:00	6080	482	-18.2	-31.4	235	3	
2025-10-12T12:00	6100	481	-18.4	-31.4	233	3	
2025-10-12T12:00	6120	480	-18.6	-31.3	230	3	
2025-10-12T12:00	6140	479	-18.7	-31.3	227	2	
2025-10-12T12:00	6160	477	-18.9	-31.2	225	2	
2025-10-12T12:00	6180	476	-19.1	-31.3	221	2	
2025-10-12T12:00	6200	475	-19.2	-31.4	216	2	
2025-10-12T12:00	6220	474	-19.4	-32.0	210	1	
2025-10-12T12:00	6240	472	-19.6	-32.5	201	1	
2025-10-12T12:00	6260	471	-19.8	-33.0	192	1	
2025-10-12T12:00	6280	470	-19.9	-33.6	185	2	
2025-10-12T12:00	6300	468	-20.0	-35.4	181	2	
2025-10-12T12:00	6320	467	-20.1	-37.3	180	2	
2025-10-12T12:00	6340	466	-20.1	-39.6	180	2	
2025-10-12T12:00	6360	465	-20.0	-40.8	182	2	
2025-10-12T12:00	6380	463	-20.0	-40.8	186	2	
2025-10-12T12:00	6400	462	-20.1	-40.5	192	2	
2025-10-12T12:00	6420	461	-20.1	-40.0	198	2	
2025-10-12T12:00	6440	460	-20.3	-40.4	204	2	
2025-10-12T12:00	6460	458	-20.4	-40.5	212	2	
2025-10-12T12:00	6480	457	-20.5	-39.6	219	2	
2025-10-12T12:00	6500	456	-20.6	-38.9	224	2	
2025-10-12T12:00	6520	455	-20.7	-39.9	227	2	
2025-10-12T12:00	6540	453	-20.9	-40.4	228	1	
2025-10-12T12:00	6560	452	-21.1	-40.3	230	1	
2025-10-12T12:00	6580	451	-21.3	-39.6	234	1	
2025-10-12T12:00	6600	450	-21.4	-39.5	239	1	
2025-10-12T12:00	6620	449	-21.6	-38.8	245	1	
2025-10-12T12:00	6640	447	-21.7	-38.7	250	2	
2025-10-12T12:00	6660	446	-21.8	-38.9	254	2	
2025-10-12T12:00	6680	445	-21.9	-38.9	255	2	
2025-10-12T12:00	6700	444	-22.0	-38.9	254	2	
2025-10-12T12:00	6720	443	-22.2	-38.9	252	3	
2025-10-12T12:00	6740	441	-22.3	-39.0	251	3	
2025-10-12T12:00	6760	440	-22.5	-39.8	251	3	
2025-10-12T12:00	6780	439	-22.7	-40.4	252	3	
2025-10-12T12:00	6800	438	-22.8	-40.4	254	3	
2025-10-12T12:00	6820	437	-22.9	-39.2	257	3	
2025-10-12T12:00	6840	435	-23.1	-38.9	259	3	
2025-10-12T12:00	6860	434	-23.2	-38.9	261	3	
2025-10-12T12:00	6880	433	-23.4	-39.0	262	3	
2025-10-12T12:00	6900	432	-23.6	-39.4	263	3	
2025-10-12T12:00	6920	431	-23.7	-40.4	262	3	
2025-10-12T12:00	6940	429	-23.8	-41.1	261	3	
2025-10-12T12:00	6960	428	-24.0	-41.3	260	4	
2025-10-12T12:00	6980	427	-24.1	-39.5	259	4	
2025-10-12T12:00	7000	426	-24.3	-38.1	259	4	
2025-10-12T12:00	7020	425	-24.5	-36.3	259	4	
2025-10-12T12:00	7040	423	-24.7	-35.7	259	4	
2025-10-12T12:00	7060	422	-24.9	-36.0	259	4	
2025-10-12T12:00	7080	421	-25.0	-36.8	258	4	
2025-10-12T12:00	7100	420	-25.2	-36.0	258	4	
2025-10-12T12:00	7120	419	-25.4	-35.6	257	4	
2025-10-12T12:00	7140	418	-25.6	-35.7	256	4	
2025-10-12T12:00	7160	416	-25.8	-36.9	253	4	
2025-10-12T12:00	7180	415	-25.9	-37.0	251	4	
2025-10-12T12:00	7200	414	-26.1	-39.0	249	5	
2025-10-12T12:00	7220	413	-26.2	-39.7	248	5	
2025-10-12T12:00	7240	412	-26.2	-42.4	248	6	
2025-10-12T12:00	7260	411	-26.2	-45.3	249	6	
2025-10-12T12:00	7280	410	-26.2	-46.8	251	6	
2025-10-12T12:00	7300	409	-26.4	-46.2	253	7	
2025-10-12T12:00	7320	407	-26.5	-45.5	255	7	
2025-10-12T12:00	7340	406	-26.6	-45.6	257	8	
2025-10-12T12:00	7360	405	-26.7	-45.9	259	8	
2025-10-12T12:00	7380	404	-26.8	-46.1	260	8	
2025-10-12T12:00	7400	403	-26.9	-46.1	261	8	
2025-10-12T12:00	7420	402	-27.0	-46.3	261	8	
2025-10-12T12:00	7440	401	-27.2	-46.6	261	9	
2025-10-12T12:00	7460	400	-27.4	-46.6	261	9	
2025-10-12T12:00	7480	398	-27.5	-46.9	260	9	
2025-10-12T12:00	7500	397	-27.6	-47.4	258	9	
2025-10-12T12:00	7520	396	-27.8	-47.5	257	10	
2025-10-12T12:00	7540	395	-27.9	-48.0	255	10	
2025-10-12T12:00	7560	394	-27.9	-49.0	253	11	
2025-10-12T12:00	7580	393	-28.0	-49.2	251	11	
2025-10-12T12:00	7600	392	-28.1	-49.2	250	11	
2025-10-12T12:00	7620	391	-28.1	-49.6	249	11	
2025-10-12T12:00	7640	390	-28.2	-48.3	248	12	
2025-10-12T12:00	7660	389	-28.4	-48.1	248	12	
2025-10-12T12:00	7680	388	-28.5	-48.0	248	12	
2025-10-12T12:00	7700	387	-28.6	-46.8	248	12	
2025-10-12T12:00	7720	385	-28.8	-46.1	248	12	
2025-10-12T12:00	7740	384	-29.1	-44.6	248	12	
2025-10-12T12:00	7760	383	-29.2	-43.6	248	13	
2025-10-12T12:00	7780	382	-29.4	-43.6	248	13	
2025-10-12T12:00	7800	381	-29.6	-43.6	248	13	
2025-10-12T12:00	7820	380	-29.7	-44.1	247	13	
2025-10-12T12:00	7840	379	-29.9	-44.4	247	13	
2025-10-12T12:00	7860	378	-30.1	-44.7	247	13	
2025-10-12T12:00	7880	377	-30.2	-44.9	246	13	
2025-10-12T12:00	7900	376	-30.4	-45.1	246	13	
2025-10-12T12:00	7920	375	-30.6	-45.2	245	13	
2025-10-12T12:00	7940	374	-30.7	-45.3	245	13	
2025-10-12T12:00	7960	373	-30.9	-45.6	244	13	
2025-10-12T12:00	7980	372	-31.1	-45.7	244	13	
2025-10-12T12:00	8000	370	-31.3	-45.6	244	13	
2025-10-12T12:00	8020	369	-31.5	-45.6	244	13	
2025-10-12T12:00	8040	368	-31.7	-45.8	244	13	
2025-10-12T12:00	8060	367	-31.8	-45.9	245	12	
2025-10-12T12:00	8080	366	-32.0	-46.0	245	12	
2025-10-12T12:00	8100	365	-32.2	-46.2	246	12	
2025-10-12T12:00	8120	364	-32.3	-46.3	247	12	
2025-10-12T12:00	8140	363	-32.6	-46.4	248	12	
2025-10-12T12:00	8160	362	-32.8	-46.4	249	12	
2025-10-12T12:00	8180	361	-32.9	-46.6	250	12	
2025-10-12T12:00	8200	360	-33.1	-46.7	251	12	
2025-10-12T12:00	8220	359	-33.2	-46.8	251	12	
2025-10-12T12:00	8240	358	-33.4	-46.9	251	11	
2025-10-12T12:00	8260	357	-33.6	-47.0	252	11	
2025-10-12T12:00	8280	356	-33.7	-48.0	252	11	
2025-10-12T12:00	8300	355	-33.8	-48.9	252	11	
2025-10-12T12:00	8320	354	-34.0	-49.3	252	11	
2025-10-12T12:00	8340	353	-34.1	-49.7	252	11	
2025-10-12T12:00	8360	352	-34.3	-49.5	251	10	
2025-10-12T12:00	8380	351	-34.5	-50.1	250	10	
2025-10-12T12:00	8400	350	-34.6	-50.7	249	10	
2025-10-12T12:00	8420	349	-34.8	-49.2	248	10	
2025-10-12T12:00	8440	348	-35.0	-49.1	248	10	
2025-10-12T12:00	8460	347	-35.1	-50.0	247	10	
2025-10-12T12:00	8480	346	-35.3	-49.6	247	10	
2025-10-12T12:00	8500	345	-35.6	-49.2	247	10	
2025-10-12T12:00	8520	344	-35.7	-49.1	247	10	
2025-10-12T12:00	8540	343	-35.9	-49.1	248	10	
2025-10-12T12:00	8560	342	-36.1	-49.1	248	10	
2025-10-12T12:00	8580	341	-36.3	-49.8	249	10	
2025-10-12T12:00	8600	340	-36.4	-50.4	249	10	
2025-10-12T12:00	8620	339	-36.6	-50.6	250	10	
2025-10-12T12:00	8640	338	-36.8	-50.9	251	9	
2025-10-12T12:00	8660	337	-36.9	-50.8	252	9	
2025-10-12T12:00	8680	336	-37.1	-50.8	254	9	
2025-10-12T12:00	8700	335	-37.2	-50.7	255	9	
2025-10-12T12:00	8720	334	-37.4	-50.6	256	10	
2025-10-12T12:00	8740	333	-37.6	-50.9	256	10	
2025-10-12T12:00	8760	332	-37.8	-51.3	256	10	
2025-10-12T12:00	8780	331	-38.0	-51.2	255	10	
2025-10-12T12:00	8800	330	-38.2	-51.2	254	9	
2025-10-12T12:00	8820	329	-38.3	-51.2	254	9	
2025-10-12T12:00	8840	329	-38.5	-51.6	253	9	
2025-10-12T12:00	8860	328	-38.7	-52.0	253	9	
2025-10-12T12:00	8880	327	-38.9	-52.2	253	9	
2025-10-12T12:00	8900	326	-39.0	-52.3	253	9	
2025-10-12T12:00	8920	325	-39.2	-52.1	253	8	
2025-10-12T12:00	8940	324	-39.3	-52.0	254	8	
2025-10-12T12:00	8960	323	-39.5	-52.0	254	8	
2025-10-12T12:00	8980	322	-39.7	-52.1	254	8	
2025-10-12T12:00	9000	321	-39.9	-52.2	254	8	
2025-10-12T12:00	9020	320	-40.1	-52.2	254	8	
2025-10-12T12:00	9040	319	-40.2	-52.3	254	8	
2025-10-12T12:00	9060	318	-40.4	-52.8	254	7	
2025-10-12T12:00	9080	317	-40.5	-53.3	253	7	
2025-10-12T12:00	9100	316	-40.6	-53.6	252	7	
2025-10-12T12:00	9120	315	-40.7	-53.3	250	7	
2025-10-12T12:00	9140	314	-40.9	-53.1	249	7	
2025-10-12T12:00	9160	313	-41.0	-53.6	248	7	
2025-10-12T12:00	9180	313	-41.1	-54.1	247	6	
2025-10-12T12:00	9200	312	-41.2	-54.0	248	6	
2025-10-12T12:00	9220	311	-41.3	-54.1	251	6	
2025-10-12T12:00	9240	310	-41.4	-54.6	254	6	
2025-10-12T12:00	9260	309	-41.4	-55.9	257	5	
2025-10-12T12:00	9280	308	-41.5	-58.2	260	5	
2025-10-12T12:00	9300	307	-41.7	-59.2	262	5	
2025-10-12T12:00	9320	306	-41.8	-60.0	262	5	
2025-10-12T12:00	9340	305	-41.9	-61.0	262	5	
2025-10-12T12:00	9360	304	-42.1	-60.6	260	5	
2025-10-12T12:00	9380	303	-42.1	-59.6	259	5	
2025-10-12T12:00	9400	303	-42.2	-59.6	258	5	
2025-10-12T12:00	9420	302	-42.4	-60.1	256	5	
2025-10-12T12:00	9440	301	-42.5	-60.2	255	5	
2025-10-12T12:00	9460	300	-42.7	-60.2	255	5	
2025-10-12T12:00	9480	299	-42.9	-60.3	254	5	
2025-10-12T12:00	9500	298	-43.1	-60.3	253	4	
2025-10-12T12:00	9520	297	-43.3	-59.8	251	4	
2025-10-12T12:00	9540	296	-43.5	-59.0	249	4	
2025-10-12T12:00	9560	295	-43.7	-58.8	247	4	
2025-10-12T12:00	9580	295	-43.9	-58.8	245	4	
2025-10-12T12:00	9600	294	-44.1	-58.5	243	4	
2025-10-12T12:00	9620	293	-44.2	-58.1	241	4	
2025-10-12T12:00	9640	292	-44.4	-57.6	240	4	
2025-10-12T12:00	9660	291	-44.5	-57.3	239	5	
2025-10-12T12:00	9680	290	-44.7	-57.5	239	5	
2025-10-12T12:00	9700	289	-44.9	-57.9	240	5	
2025-10-12T12:00	9720	288	-45.1	-58.4	241	5	
2025-10-12T12:00	9740	288	-45.2	-58.6	242	5	
2025-10-12T12:00	9760	287	-45.4	-58.7	244	6	
2025-10-12T12:00	9780	286	-45.6	-58.8	246	5	
2025-10-12T12:00	9800	285	-45.8	-58.8	249	5	
2025-10-12T12:00	9820	284	-45.9	-58.7	252	5	
2025-10-12T12:00	9840	283	-46.1	-59.1	254	5	
2025-10-12T12:00	9860	283	-46.3	-59.3	255	5	
2025-10-12T12:00	9880	282	-46.4	-59.6	255	5	
2025-10-12T12:00	9900	281	-46.6	-59.9	255	5	
2025-10-12T12:00	9920	280	-46.7	-60.4	254	5	
2025-10-12T12:00	9940	279	-46.8	-61.1	253	5	
2025-10-12T12:00	9960	278	-46.9	-61.5	253	5	
2025-10-12T12:00	9980	277	-47.0	-61.2	253	5	
2025-10-12T12:00	10000	277	-47.1	-61.0	255	5	
2025-10-12T12:00	10018	276	-47.3	-61.0	257	5	
2025-10-12T12:00	10050	275	-47.6	-60.9	261	4	
2025-10-12T12:00	10100	272	-48.1	-60.9	263	4	
2025-10-12T12:00	10150	270	-48.5	-60.9	256	4	
2025-10-12T12:00	10200	268	-49.0	-61.1	251	4	
2025-10-12T12:00	10250	266	-49.5	-61.0	248	4	
2025-10-12T12:00	10300	264	-50.0	-61.4	246	4	
2025-10-12T12:00	10350	262	-50.5	-61.7	244	4	
2025-10-12T12:00	10400	260	-50.9	-62.0	239	3	
2025-10-12T12:00	10450	258	-51.3	-61.5	233	3	
2025-10-12T12:00	10500	256	-51.7	-60.9	225	2	
2025-10-12T12:00	10550	254	-52.1	-60.5	212	1	
2025-10-12T12:00	10600	252	-52.4	-60.7	208	1	
2025-10-12T12:00	10650	250	-52.5	-63.2	327	0	
2025-10-12T12:00	10700	248	-52.4	-65.7	13	1	
2025-10-12T12:00	10750	246	-52.6	-65.8	27	2	
2025-10-12T12:00	10800	245	-53.0	-65.7	31	2	
2025-10-12T12:00	10850	243	-53.3	-65.6	10	1	
2025-10-12T12:00	10900	241	-53.4	-65.7	0	1	
2025-10-12T12:00	10950	239	-53.6	-65.8	31	1	
2025-10-12T12:00	11000	237	-53.8	-66.1	48	1	
2025-10-12T12:00	11050	235	-54.0	-66.5	55	2	
2025-10-12T12:00	11100	233	-54.4	-66.8	58	2	
2025-10-12T12:00	11150	232	-54.3	-67.2	60	3	
2025-10-12T12:00	11200	230	-54.5	-67.6	61	4	
2025-10-12T12:00	11250	228	-54.8	-67.6	64	4	
2025-10-12T12:00	11300	226	-55.3	-67.6	67	4	
2025-10-12T12:00	11350	225	-55.7	-67.6	68	4	
2025-10-12T12:00	11400	223	-56.0	-67.5	66	5	
2025-10-12T12:00	11450	221	-56.1	-67.4	59	5	
2025-10-12T12:00	11500	219	-56.3	-67.2	51	5	
2025-10-12T12:00	11550	217	-56.5	-67.4	45	5	
2025-10-12T12:00	11600	216	-56.7	-68.0	41	5	
2025-10-12T12:00	11650	214	-56.8	-68.5	37	4	
2025-10-12T12:00	11700	212	-57.1	-68.3	36	5	
2025-10-12T12:00	11750	211	-57.5	-68.1	38	6	
2025-10-12T12:00	11800	209	-57.9	-68.3	38	7	
2025-10-12T12:00	11850	207	-58.1	-68.7	39	7	
2025-10-12T12:00	11900	206	-58.4	-69.2	40	7	
2025-10-12T12:00	11950	204	-58.7	-69.8	42	7	
2025-10-12T12:00	12000	203	-59.0	-70.4	45	7	
2025-10-12T12:00	12050	201	-59.5	-70.7	49	7	
2025-10-12T12:00	12100	199	-59.9	-70.8	54	6	
2025-10-12T12:00	12150	198	-60.0	-71.2	56	6	
2025-10-12T12:00	12200	196	-60.0	-71.2	53	5	
2025-10-12T12:00	12250	195	-60.3	-71.3	49	6	
2025-10-12T12:00	12300	193	-60.5	-71.6	45	6	
2025-10-12T12:00	12350	191	-60.7	-72.2	42	6	
2025-10-12T12:00	12400	190	-61.0	-72.5	45	7	
2025-10-12T12:00	12450	188	-61.3	-72.6	53	7	
2025-10-12T12:00	12500	187	-61.3	-73.0	63	7	
2025-10-12T12:00	12550	185	-61.1	-74.0	67	6	
2025-10-12T12:00	12600	184	-60.5	-75.4	67	5	
2025-10-12T12:00	12650	182	-59.9	-76.0	70	4	
2025-10-12T12:00	12700	181	-59.8	-76.4	73	3	
2025-10-12T12:00	12750	180	-59.5	-76.5	62	2	
2025-10-12T12:00	12800	178	-59.5	-76.9	45	2	
2025-10-12T12:00	12850	177	-59.7	-77.0	39	2	
2025-10-12T12:00	12900	175	-59.6	-77.3	38	2	
2025-10-12T12:00	12950	174	-59.9	-77.6	38	3	
2025-10-12T12:00	13000	173	-60.2	-77.7	45	3	
2025-10-12T12:00	13050	171	-60.4	-77.8	59	2	
2025-10-12T12:00	13100	170	-60.7	-78.0	86	1	
2025-10-12T12:00	13150	168	-60.8	-78.1	102	1	
2025-10-12T12:00	13200	167	-61.0	-78.3	47	1	
2025-10-12T12:00	13250	166	-61.3	-78.3	21	1	
2025-10-12T12:00	13300	164	-61.6	-78.4	4	2	
2025-10-12T12:00	13350	163	-62.0	-78.5	345	2	
2025-10-12T12:00	13400	162	-62.3	-78.8	340	3	
2025-10-12T12:00	13450	160	-62.1	-79.2	348	4	
2025-10-12T12:00	13500	159	-61.6	-79.5	352	6	
2025-10-12T12:00	13550	158	-61.0	-79.7	352	7	
2025-10-12T12:00	13600	157	-61.2	-79.9	351	8	
2025-10-12T12:00	13650	155	-61.7	-79.9	352	8	
2025-10-12T12:00	13700	154	-62.1	-79.9	357	8	
2025-10-12T12:00	13750	153	-62.4	-80.0	2	8	
2025-10-12T12:00	13800	152	-62.6	-80.0	5	8	
2025-10-12T12:00	13850	150	-62.7	-80.1	3	7	
2025-10-12T12:00	13900	149	-62.9	-80.3	357	6	
2025-10-12T12:00	13950	148	-63.1	-80.4	354	6	
2025-10-12T12:00	14000	147	-63.1	-80.6	358	6	
2025-10-12T12:00	14050	146	-63.0	-80.8	3	6	
2025-10-12T12:00	14100	144	-63.1	-81.0	360	6	
2025-10-12T12:00	14150	143	-63.0	-81.3	356	6	
2025-10-12T12:00	14200	142	-62.8	-81.7	354	6	
2025-10-12T12:00	14250	141	-62.5	-82.1	354	6	
2025-10-12T12:00	14300	140	-62.1	-82.4	356	6	
2025-10-12T12:00	14350	139	-62.0	-82.5	359	6	
2025-10-12T12:00	14400	138	-61.9	-82.4	356	5	
2025-10-12T12:00	14450	136	-62.2	-82.6	353	5	
2025-10-12T12:00	14500	135	-62.5	-82.7	355	4	
2025-10-12T12:00	14550	134	-62.6	-82.8	357	5	
2025-10-12T12:00	14600	133	-62.6	-82.8	350	4	
2025-10-12T12:00	14650	132	-62.5	-82.8	337	4	
2025-10-12T12:00	14700	131	-62.7	-82.9	332	5	
2025-10-12T12:00	14750	130	-62.8	-83.1	332	6	
2025-10-12T12:00	14800	129	-62.6	-83.0	336	6	
2025-10-12T12:00	14850	128	-62.7	-83.3	343	7	
2025-10-12T12:00	14900	127	-62.2	-83.2	343	7	
2025-10-12T12:00	14950	126	-62.0	-83.3	340	7	
2025-10-12T12:00	15000	125	-61.7	-83.2	338	7	
2025-10-12T12:00	15050	124	-62.1	-83.3	341	8	
2025-10-12T12:00	15100	123	-62.6	-83.4	347	9	
2025-10-12T12:00	15150	122	-62.9	-83.4	353	9	
2025-10-12T12:00	15200	121	-63.0	-83.4	359	9	
2025-10-12T12:00	15250	120	-63.0	-83.5	3	8	
2025-10-12T12:00	15300	119	-63.0	-83.5	4	7	
2025-10-12T12:00	15350	118	-62.9	-83.6	5	6	
2025-10-12T12:00	15400	117	-62.9	-83.7	9	6	
2025-10-12T12:00	15450	116	-63.0	-83.7	10	6	
2025-10-12T12:00	15500	115	-63.3	-83.8	7	6	
2025-10-12T12:00	15550	114	-63.7	-84.0	0	6	
2025-10-12T12:00	15600	113	-64.1	-84.2	352	6	
2025-10-12T12:00	15650	112	-64.2	-84.4	348	7	
2025-10-12T12:00	15700	111	-64.4	-84.6	349	6	
2025-10-12T12:00	15750	110	-64.5	-84.6	352	5	
2025-10-12T12:00	15800	110	-64.7	-84.7	357	4	
2025-10-12T12:00	15850	109	-64.8	-84.7	355	2	
2025-10-12T12:00	15900	108	-65.0	-84.6	339	2	
2025-10-12T12:00	15950	107	-65.1	-84.6	332	2	
2025-10-12T12:00	16000	106	-65.4	-84.6	339	3	
2025-10-12T12:00	16050	105	-65.7	-84.6	344	4	
2025-10-12T12:00	16100	104	-65.8	-84.7	348	6	
2025-10-12T12:00	16150	103	-65.7	-84.7	352	6	
2025-10-12T12:00	16200	103	-65.8	-84.8	355	6	
2025-10-12T12:00	16250	102	-65.9	-84.9	358	5	
2025-10-12T12:00	16300	101	-65.9	-85.0	6	5	
2025-10-12T12:00	16350	100	-65.7	-85.1	18	5	
2025-10-12T12:00	16400	99	-65.6	-85.2	27	6	
2025-10-12T12:00	16450	98	-65.3	-85.2	32	5	
2025-10-12T12:00	16500	98	-65.3	-85.3	33	4	
2025-10-12T12:00	16550	97	-65.3	-85.3	35	2	
2025-10-12T12:00	16600	96	-65.0	-85.1	38	1	
2025-10-12T12:00	16650	95	-65.2	-85.3	36	1	
2025-10-12T12:00	16700	94	-65.2	-85.3	322	1	
2025-10-12T12:00	16750	94	-65.2	-85.3	304	2	
2025-10-12T12:00	16800	93	-65.4	-85.5	298	3	
2025-10-12T12:00	16850	92	-65.1	-85.5	292	3	
2025-10-12T12:00	16900	91	-64.7	-85.4	286	3	
2025-10-12T12:00	16950	91	-64.6	-85.5	278	2	
2025-10-12T12:00	17000	90	-64.8	-85.6	280	1	
2025-10-12T12:00	17050	89	-64.8	-85.5	313	1	
2025-10-12T12:00	17100	88	-65.1	-85.7	340	2	
2025-10-12T12:00	17150	88	-65.2	-85.7	345	3	
2025-10-12T12:00	17200	87	-65.3	-85.8	340	4	
2025-10-12T12:00	17250	86	-65.3	-85.8	332	5	
2025-10-12T12:00	17300	86	-65.4	-85.9	326	5	
2025-10-12T12:00	17350	85	-65.6	-86.0	325	5	
2025-10-12T12:00	17400	84	-65.9	-86.1	330	6	
2025-10-12T12:00	17450	84	-66.0	-86.1	336	7	
2025-10-12T12:00	17500	83	-66.0	-86.2	341	9	
2025-10-12T12:00	17550	82	-66.1	-86.3	347	9	
2025-10-12T12:00	17600	82	-66.2	-86.3	355	9	
2025-10-12T12:00	17650	81	-66.2	-86.5	7	8	
2025-10-12T12:00	17700	80	-66.0	-86.6	22	6	
2025-10-12T12:00	17750	80	-65.7	-86.7	44	4	
2025-10-12T12:00	17800	79	-65.0	-86.6	73	3	
2025-10-12T12:00	17850	78	-64.6	-86.7	118	2	
2025-10-12T12:00	17900	78	-63.9	-86.7	178	1	
2025-10-12T12:00	17950	77	-63.0	-86.5	230	2	
2025-10-12T12:00	18000	76	-62.8	-86.4	254	3	
2025-10-12T12:00	18050	76	-62.8	-86.3	269	4	
2025-10-12T12:00	18100	75	-62.9	-86.3	280	4	
2025-10-12T12:00	18150	75	-63.1	-86.2	288	5	
2025-10-12T12:00	18200	74	-63.4	-86.3	293	6	
2025-10-12T12:00	18250	73	-63.8	-86.4	300	6	
2025-10-12T12:00	18300	73	-64.2	-86.6	308	7	
2025-10-12T12:00	18350	72	-64.1	-86.7	315	6	
2025-10-12T12:00	18400	72	-64.0	-86.8	322	6	
2025-10-12T12:00	18450	71	-64.1	-86.9	328	6	
2025-10-12T12:00	18500	70	-64.2	-87.0	332	5	
2025-10-12T12:00	18550	70	-64.0	-86.9	330	4	
2025-10-12T12:00	18600	69	-63.8	-87.0	318	4	
2025-10-12T12:00	18650	69	-63.7	-87.0	311	4	
2025-10-12T12:00	18700	68	-63.3	-86.8	311	4	
2025-10-12T12:00	18750	68	-63.3	-86.9	315	5	
2025-10-12T12:00	18800	67	-63.4	-87.0	325	5	
2025-10-12T12:00	18850	66	-63.1	-86.8	339	5	
2025-10-12T12:00	18900	66	-63.0	-86.9	350	5	
2025-10-12T12:00	18950	65	-62.6	-86.7	0	5	
2025-10-12T12:00	19000	65	-62.6	-86.8	7	4	
2025-10-12T12:00	19050	64	-62.4	-86.6	5	4	
2025-10-12T12:00	19100	64	-62.4	-86.6	353	4	
2025-10-12T12:00	19150	63	-62.5	-86.6	338	4	
2025-10-12T12:00	19200	63	-62.6	-86.6	330	4	
2025-10-12T12:00	19250	62	-62.6	-86.6	326	5	
2025-10-12T12:00	19300	62	-62.5	-86.5	324	5	
2025-10-12T12:00	19350	61	-62.8	-86.7	317	4	
2025-10-12T12:00	19400	61	-62.9	-86.7	307	4	
2025-10-12T12:00	19450	60	-62.8	-86.8	302	5	
2025-10-12T12:00	19500	60	-62.2	-86.9	301	5	
2025-10-12T12:00	19550	59	-61.3	-86.6	299	5	
2025-10-12T12:00	19600	59	-61.1	-86.5	296	5	
2025-10-12T12:00	19650	58	-61.3	-86.5	292	4	
2025-10-12T12:00	19700	58	-61.4	-86.4	286	4	
2025-10-12T12:00	19750	57	-61.7	-86.4	280	4	
2025-10-12T12:00	19800	57	-61.9	-86.5	282	5	
2025-10-12T12:00	19850	57	-62.0	-86.5	284	5	
2025-10-12T12:00	19900	56	-62.0	-86.5	286	6	
2025-10-12T12:00	19950	56	-62.3	-86.7	289	6	
2025-10-12T12:00	20000	55	-62.4	-86.7	293	7	
2025-10-12T12:00	20050	55	-62.4		295	7	
2025-10-12T12:00	20100	54	-62.3		297	7	
2025-10-12T12:00	20150	54	-62.4		300	7	
2025-10-12T12:00	20200	53	-62.6		304	6	
2025-10-12T12:00	20250	53	-62.7		307	6	
2025-10-12T12:00	20300	53	-62.8		309	6	
2025-10-12T12:00	20350	52	-63.1		312	6	
2025-10-12T12:00	20400	52	-63.4		314	6	
2025-10-12T12:00	20450	51	-63.5		316	7	
2025-10-12T12:00	20500	51	-63.5		318	6	
2025-10-12T12:00	20550	50	-63.3		318	6	
2025-10-12T12:00	20600	50	-63.3		315	5	
2025-10-12T12:00	20650	50	-63.1		310	4	
2025-10-12T12:00	20700	49	-63.1		299	3	
2025-10-12T12:00	20750	49	-63.2		279	3	
2025-10-12T12:00	20800	48	-63.0		264	4	
2025-10-12T12:00	20850	48	-62.6		260	5	
2025-10-12T12:00	20900	48	-62.1		262	6	
2025-10-12T12:00	20950	47	-61.8		265	6	
2025-10-12T12:00	21000	47	-61.8		269	6	
2025-10-12T12:00	21050	47	-61.9		275	6	
2025-10-12T12:00	21100	46	-61.9		286	6	
2025-10-12T12:00	21150	46	-61.7		300	6	
2025-10-12T12:00	21200	45	-61.4		310	7	
2025-10-12T12:00	21250	45	-61.6		318	7	
2025-10-12T12:00	21300	45	-61.4		327	6	
2025-10-12T12:00	21350	44	-61.1		335	7	
2025-10-12T12:00	21400	44	-61.4		340	8	
2025-10-12T12:00	21450	44	-61.5		344	9	
2025-10-12T12:00	21500	43	-61.6		346	9	
2025-10-12T12:00	21550	43	-61.5		346	8	
2025-10-12T12:00	21600	43	-61.6		343	8	
2025-10-12T12:00	21650	42	-61.9		340	7	
2025-10-12T12:00	21700	42	-61.9		339	5	
2025-10-12T12:00	21750	42	-61.8		344	4	
2025-10-12T12:00	21800	41	-61.8		350	3	
2025-10-12T12:00	21850	41	-61.8		344	2	
2025-10-12T12:00	21900	41	-61.7		321	2	
2025-10-12T12:00	21950	40	-61.7		309	2	
2025-10-12T12:00	22000	40	-61.9		301	3	
2025-10-12T12:00	22050	40	-61.7		287	3	
2025-10-12T12:00	22100	39	-61.6		268	3	
2025-10-12T12:00	22150	39	-61.7		253	4	
2025-10-12T12:00	22200	39	-61.6		246	5	
2025-10-12T12:00	22250	38	-61.4		246	6	
2025-10-12T12:00	22300	38	-61.3		250	7	
2025-10-12T12:00	22350	38	-61.3		259	7	
2025-10-12T12:00	22400	37	-61.2		273	6	
2025-10-12T12:00	22450	37	-61.3		291	6	
2025-10-12T12:00	22500	37	-61.6		311	6	
2025-10-12T12:00	22550	37	-61.8		327	6	
2025-10-12T12:00	22600	36	-61.8		339	7	
2025-10-12T12:00	22650	36	-62.1		346	7	
2025-10-12T12:00	22700	36	-62.2		349	7	
2025-10-12T12:00	22750	35	-62.2		350	5	
2025-10-12T12:00	22800	35	-62.3		354	5	
2025-10-12T12:00	22850	35	-62.1		357	5	
2025-10-12T12:00	22900	34	-61.8		352	5	
2025-10-12T12:00	22950	34	-61.8		341	5	
2025-10-12T12:00	23000	34	-62.0		335	5	
2025-10-12T12:00	23050	34	-61.7		341	4	
2025-10-12T12:00	23100	33	-61.8		357	4	
2025-10-12T12:00	23150	33	-62.0		18	4	
2025-10-12T12:00	23200	33	-62.0		41	4	
2025-10-12T12:00	23250	33	-61.8		60	4	
2025-10-12T12:00	23300	32	-61.8		77	3	
2025-10-12T12:00	23350	32	-62.0		94	3	
2025-10-12T12:00	23400	32	-62.0		106	3	
2025-10-12T12:00	23450	32	-61.6		112	2	
2025-10-12T12:00	23500	31	-61.4		123	1	
2025-10-12T12:00	23550	31	-61.6		183	1	
2025-10-12T12:00	23600	31	-62.0		254	2	
2025-10-12T12:00	23650	31	-62.3		271	3	
2025-10-12T12:00	23700	30	-62.2		284	5	
2025-10-12T12:00	23750	30	-62.2		296	6	
2025-10-12T12:00	23800	30	-62.2		304	6	
2025-10-12T12:00	23850	30	-61.8		311	6	
2025-10-12T12:00	23900	29	-61.7		319	6	
2025-10-12T12:00	23950	29	-61.8		327	5	
2025-10-12T12:00	24000	29	-61.8		334	5	
2025-10-12T12:00	24050	29	-61.8		341	5	
2025-10-12T12:00	24100	28	-61.7		349	5	
2025-10-12T12:00	24150	28	-61.6		355	5	
2025-10-12T12:00	24200	28	-61.5		354	4	
2025-10-12T12:00	24250	28	-61.5		346	3	
2025-10-12T12:00	24300	28	-61.6		327	3	
2025-10-12T12:00	24350	27	-61.3		304	3	
2025-10-12T12:00	24400	27	-61.0		292	3	
2025-10-12T12:00	24450	27	-60.4		289	3	
2025-10-12T12:00	24500	27	-60.2		291	3	
2025-10-12T12:00	24550	26	-59.7		294	4	
2025-10-12T12:00	24600	26	-58.9		300	4	
2025-10-12T12:00	24650	26	-58.3		305	5	
2025-10-12T12:00	24700	26	-58.2		309	5	
2025-10-12T12:00	24750	26	-58.0		320	4	
2025-10-12T12:00	24800	25	-57.6		337	4	
2025-10-12T12:00	24850	25	-57.8		357	4	
2025-10-12T12:00	24900	25	-57.7		18	3	
2025-10-12T12:00	24950	25	-57.7		38	3	
2025-10-12T12:00	25000	25	-57.8		50	2	
2025-10-12T12:00	25050	24	-57.6		35	1	
2025-10-12T12:00	25100	24	-57.4		267	1	
2025-10-12T12:00	25150	24	-57.3		236	3	
2025-10-12T12:00	25200	24	-56.9		221	4	
2025-10-12T12:00	25250	24	-56.5		214	5	
2025-10-12T12:00	25300	23	-56.6		215	6	
2025-10-12T12:00	25350	23	-56.5		223	7	
2025-10-12T12:00	25400	23	-56.1		232	8	
2025-10-12T12:00	25450	23	-56.0		237	9	
2025-10-12T12:00	25500	23	-56.3		237	9	
2025-10-12T12:00	25550	23	-56.2		234	10	
2025-10-12T12:00	25600	22	-56.2		231	10	
2025-10-12T12:00	25650	22	-56.3		232	10	
2025-10-12T12:00	25700	22	-56.3		235	9	
2025-10-12T12:00	25750	22	-56.4		240	9	
2025-10-12T12:00	25800	22	-56.4		244	8	
2025-10-12T12:00	25850	22	-56.4		245	8	
2025-10-12T12:00	25900	21	-56.5		244	7	
2025-10-12T12:00	25950	21	-56.6		246	7	
2025-10-12T12:00	26000	21	-56.8		251	8	
2025-10-12T12:00	26050	21	-56.7		259	8	
2025-10-12T12:00	26100	21	-56.6		264	8	
2025-10-12T12:00	26150	21	-56.5		266	8	
2025-10-12T12:00	26200	20	-56.4		262	7	
2025-10-12T12:00	26250	20	-56.5		256	7	
2025-10-12T12:00	26300	20	-56.5		254	8	
2025-10-12T12:00	26350	20	-56.4		254	9	
2025-10-12T12:00	26400	20	-56.5		251	8	
2025-10-12T12:00	26450	20	-56.6		244	8	
2025-10-12T12:00	26500	19	-56.7		236	8	
2025-10-12T12:00	26550	19	-56.7		232	8	
2025-10-12T12:00	26600	19	-56.7		234	10	
2025-10-12T12:00	26650	19	-56.4		240	11	
2025-10-12T12:00	26700	19	-56.0		246	12	
2025-10-12T12:00	26750	19	-55.8		252	13	
2025-10-12T12:00	26800	19	-55.7		256	14	
2025-10-12T12:00	26850	18	-55.9		258	14	
2025-10-12T12:00	26900	18	-56.1		261	15	
2025-10-12T12:00	26950	18	-56.5		263	14	
2025-10-12T12:00	27000	18	-56.7		266	14	
2025-10-12T12:00	27050	18	-56.8		267	13	
2025-10-12T12:00	27100	18	-56.8		267	11	
2025-10-12T12:00	27150	18	-56.9		267	10	
2025-10-12T12:00	27200	17	-57.1		267	10	
2025-10-12T12:00	27250	17	-57.3		265	9	
2025-10-12T12:00	27300	17	-57.4		260	8	
2025-10-12T12:00	27350	17	-57.3		256	8	
2025-10-12T12:00	27400	17	-56.8		256	9	
2025-10-12T12:00	27450	17	-56.4		260	10	
2025-10-12T12:00	27500	17	-56.4		262	10	
2025-10-12T12:00	27550	16	-56.3		263	10	
2025-10-12T12:00	27600	16	-56.3		263	10	
2025-10-12T12:00	27650	16	-56.4		263	10	
2025-10-12T12:00	27700	16	-56.5		262	10	
2025-10-12T12:00	27750	16	-56.7		260	10	
2025-10-12T12:00	27800	16	-56.9		258	10	
2025-10-12T12:00	27850	16	-57.1		255	10	
2025-10-12T12:00	27900	16	-57.2		252	9	
2025-10-12T12:00	27950	15	-57.1		251	9	
2025-10-12T12:00	28000	15	-56.8		254	9	
2025-10-12T12:00	28050	15	-56.7		260	9	
2025-10-12T12:00	28100	15	-56.9		266	10	
2025-10-12T12:00	28150	15	-57.2		270	10	
2025-10-12T12:00	28200	15	-57.3		269	10	
2025-10-12T12:00	28250	15	-57.3		263	9	
2025-10-12T12:00	28300	15	-57.5		257	9	
2025-10-12T12:00	28350	15	-57.5		254	10	
2025-10-12T12:00	28400	14	-57.2		253	10	
2025-10-12T12:00	28450	14	-56.6		254	11	
2025-10-12T12:00	28500	14	-55.9		253	10	
2025-10-12T12:00	28550	14	-55.4		252	10	
2025-10-12T12:00	28600	14	-55.3		248	10	
2025-10-12T12:00	28650	14	-55.5		244	10	
2025-10-12T12:00	28700	14	-55.7		240	10	
2025-10-12T12:00	28750	14	-55.8		240	10	
2025-10-12T12:00	28800	14	-55.6		244	11	
2025-10-12T12:00	28850	13	-55.5		249	12	
2025-10-12T12:00	28900	13	-55.6		251	13	
2025-10-12T12:00	28950	13	-55.6		251	14	
2025-10-12T12:00	29000	13	-55.6		252	14	
2025-10-12T12:00	29050	13	-55.5		254	15	
2025-10-12T12:00	29100	13	-55.3		256	15	
2025-10-12T12:00	29150	13	-55.0		257	14	
2025-10-12T12:00	29200	13	-55.0		256	13	
2025-10-12T12:00	29250	13	-55.2		254	12	
2025-10-12T12:00	29300	12	-55.5		250	11	
2025-10-12T12:00	29350	12	-55.8		245	11	
2025-10-12T12:00	29400	12	-56.0		238	11	
2025-10-12T12:00	29450	12	-56.0		232	12	
2025-10-12T12:00	29500	12	-55.7		228	13	
2025-10-12T12:00	29550	12	-55.7		228	14	
2025-10-12T12:00	29600	12	-55.7		231	15	
2025-10-12T12:00	29650	12	-55.6		235	16	
2025-10-12T12:00	29700	12	-55.3		238	17	
2025-10-12T12:00	29750	12	-54.6		239	17	
2025-10-12T12:00	29800	12	-54.4		241	18	
2025-10-12T12:00	29850	11	-54.2		243	18	
2025-10-12T12:00	29900	11	-54.3		245	18	
2025-10-12T12:00	29950	11	-54.4		245	18	
2025-10-12T12:00	30000	11	-54.1		245	18	
2025-10-12T12:00	30050	11	-54.0		245	18	
2025-10-12T12:00	30100	11	-53.8		246	17	
2025-10-12T12:00	30150	11	-53.4		249	16	
2025-10-12T12:00	30200	11	-53.2		251	16	
2025-10-12T12:00	30250	11	-53.0		251	16	
2025-10-12T12:00	30300	11	-52.8		251	17	
2025-10-12T12:00	30350	11	-52.6		252	18	
2025-10-12T12:00	30400	11	-52.5		253	17	
2025-10-12T12:00	30450	10	-52.2		256	17	
2025-10-12T12:00	30500	10	-52.1		259	16	
2025-10-12T12:00	30550	10	-52.2		261	16	
2025-10-12T12:00	30600	10	-52.2		261	16	
2025-10-12T12:00	30650	10	-52.2		260	17	
2025-10-12T12:00	30700	10	-52.2		259	17	
2025-10-12T12:00	30750	10	-52.1		258	18	
2025-10-12T12:00	30800	10	-51.8		256	19	
2025-10-12T12:00	30850	10	-51.7		255	20	
2025-10-12T12:00	30900	10	-51.7		256	21	
2025-10-12T12:00	30950	10	-51.5		257	22	
2025-10-12T12:00	31000	10	-51.3		259	21	
2025-10-12T12:00	31050	10	-51.1		261	21	
2025-10-12T12:00	31100	9	-50.9		263	19	
2025-10-12T12:00	31150	9	-50.8		264	18	
2025-10-12T12:00	31200	9	-50.9		265	16	
2025-10-12T12:00	31250	9	-50.9		263	15	
2025-10-12T12:00	31300	9	-51.0		258	15	
2025-10-12T12:00	31350	9	-50.9		253	14	
2025-10-12T12:00	31400	9	-50.6		248	13	
2025-10-12T12:00	31450	9	-50.4		245	13	
2025-10-12T12:00	31500	9	-50.4		241	12	
2025-10-12T12:00	31550	9	-50.4		238	13	
2025-10-12T12:00	31600	9	-50.0		236	14	
2025-10-12T12:00	31650	9	-49.7		236	14	
2025-10-12T12:00	31700	9	-49.6		238	15	
2025-10-12T12:00	31750	9	-49.5		242	17	
2025-10-12T12:00	31800	8	-49.4		245	18	
2025-10-12T12:00	31850	8	-49.6		248	18	
2025-10-12T12:00	31900	8	-49.9		251	19	
2025-10-12T12:00	31950	8	-50.3		254	20	
2025-10-12T12:00	32000	8	-50.4		258	21	
2025-10-12T12:00	32050	8	-50.5		262	22	
2025-10-12T12:00	32100	8	-50.6		265	22	
2025-10-12T12:00	32150	8	-50.7		266	22	
2025-10-12T12:00	32200	8	-50.6		264	22	
2025-10-12T12:00	32250	8	-50.2		258	22	
2025-10-12T12:00	32300	8	-49.5		252	22	
2025-10-12T12:00	32350	8	-49.5		249	22	
2025-10-12T12:00	32400	8	-49.4		251	23	
2025-10-12T12:00	32450	8	-49.2		257	23	
2025-10-12T12:00	32500	8	-48.8		262	24	
2025-10-12T12:00	32550	8	-48.2		268	25	
2025-10-12T12:00	32600	8	-47.9		273	25	
2025-10-12T12:00	32650	7	-47.8		276	26	
2025-10-12T12:00	32700	7	-47.7		277	26	
2025-10-12T12:00	32750	7	-47.4		277	26	
2025-10-12T12:00	32800	7	-47.4		277	26	
2025-10-12T12:00	32850	7	-47.4		277	25	
2025-10-12T12:00	32900	7	-47.4		277	24	
2025-10-12T12:00	32950	7	-47.1		277	23	
2025-10-12T12:00	33000	7	-47.0		277	23	
2025-10-12T12:00	33050	7	-47.1		278	23	
2025-10-12T12:00	33100	7	-47.1		279	23	
2025-10-12T12:00	33150	7	-47.2		281	23	
2025-10-12T12:00	33200	7	-47.4		283	23	
2025-10-12T12:00	33250	7	-47.6		285	23	
2025-10-12T12:00	33300	7	-47.7		286	22	
2025-10-12T12:00	33350	7	-47.8		285	21	
2025-10-12T12:00	33400	7	-47.7		284	20	
2025-10-12T12:00	33450	7	-47.4		281	20	
2025-10-12T12:00	33500	7	-47.1		280	20	
2025-10-12T12:00	33550	6	-46.7		281	21	
2025-10-12T12:00	33600	6	-46.3		283	22	
2025-10-12T12:00	33650	6	-45.9		284	22	
2025-10-12T12:00	33700	6	-45.5		284	21	
2025-10-12T12:00	33750	6	-45.0		282	20	
2025-10-12T12:00	33800	6	-44.3		279	19	
2025-10-12T12:00	33850	6	-43.7		276	19	
2025-10-12T12:00	33900	6	-43.2		272	20	
2025-10-12T12:00	33950	6	-43.2		268	20	
2025-10-12T12:00	34000	6	-43.2		266	20	
2025-10-12T12:00	34050	6	-42.8		264	21	
2025-10-12T12:00	34100	6	-42.4		263	22	
2025-10-12T12:00	34150	6	-42.1		261	23	
2025-10-12T12:00	34200	6	-41.9		260	24	
2025-10-12T12:00	34250	6	-41.9		259	25	
2025-10-12T12:00	34300	6	-41.8		258	25	
2025-10-12T12:00	34350	6	-41.6		257	24	
2025-10-12T12:00	34400	6	-41.5		256	23	
2025-10-12T12:00	34450	6	-41.5		255	23	
2025-10-12T12:00	34500	6	-41.5		254	23	
2025-10-12T12:00	34550	6	-41.5		254	24	
2025-10-12T12:00	34600	6	-41.6		255	24	
2025-10-12T12:00	34650	6	-41.6		257	24	
2025-10-12T12:00	34700	5	-41.8		259	24	
2025-10-12T12:00	34750	5	-42.1		262	24	
2025-10-12T12:00	34800	5	-42.4		264	25	
2025-10-12T12:00	34850	5	-42.7		266	26	
2025-10-12T12:00	34900	5	-43.0		268	27	
2025-10-12T12:00	34950	5	-43.2		270	27	
2025-10-12T12:00	35000	5	-43.4		272	28	
2025-10-12T12:00	35050	5	-43.2		274	27	
2025-10-12T12:00	35100	5	-43.0		276	26	
2025-10-12T12:00	35150	5	-42.7		278	26	
2025-10-12T12:00	35200	5	-42.4		279	25	
2025-10-12T12:00	35250	5	-42.1		278	24	
2025-10-12T12:00	35300	5	-41.6		279	23	
2025-10-12T12:00	35350	5	-41.2		281	23	
2025-10-12T12:00	35400	5	-41.1		284	24	
2025-10-12T12:00	35450	5	-41.1		286	25	
2025-10-12T12:00	35500	5	-41.0		288	25	
2025-10-12T12:00	35550	5	-40.5		289	24	
2025-10-12T12:00	35600	5	-40.2		288	24	
2025-10-12T12:00	35650	5	-40.2		287	25	
2025-10-12T12:00	35700	5	-40.0		286	25	
2025-10-12T12:00	35750	5	-39.5		287	24	
2025-10-12T12:00	35800	5	-39.3		287	23	
2025-10-12T12:00	35850	5	-39.4		286	23	
2025-10-12T12:00	35900	5	-39.3		283	21	
2025-10-12T12:00	35950	5	-39.3		278	21	
2025-10-12T12:00	36000	5	-39.3		272	20	
2025-10-12T12:00	36050	4	-38.8		267	20	
2025-10-12T12:00	36100	4	-38.1		264	21	
2025-10-12T12:00	36150	4	-37.7		261	21	
2025-10-12T12:00	36200	4	-37.5		259	23	
2025-10-12T12:00	36250	4	-37.5		256	24	
2025-10-12T12:00	36300	4	-37.2		254	25	
2025-10-13T00:00	491	968	9.7	8.6	9	0	
2025-10-13T00:00	501	966	9.7	8.7	18	0	
2025-10-13T00:00	520	964	9.6	8.5	40	0	
2025-10-13T00:00	540	962	9.6	8.1	67	1	
2025-10-13T00:00	560	960	9.8	7.4	80	1	
2025-10-13T00:00	580	958	10.1	7.2	86	1	
2025-10-13T00:00	600	955	10.1	7.1	88	2	
2025-10-13T00:00	620	953	10.0	7.2	85	2	
2025-10-13T00:00	640	951	9.9	7.2	80	2	
2025-10-13T00:00	660	948	9.8	7.1	72	2	
2025-10-13T00:00	680	946	9.7	7.0	65	2	
2025-10-13T00:00	700	944	9.5	6.9	57	3	
2025-10-13T00:00	720	942	9.4	6.8	51	3	
2025-10-13T00:00	740	939	9.2	6.7	48	3	
2025-10-13T00:00	760	937	9.1	6.5	45	4	
2025-10-13T00:00	780	935	9.2	6.4	44	4	
2025-10-13T00:00	800	932	9.0	6.4	44	4	
2025-10-13T00:00	820	930	8.8	6.4	44	4	
2025-10-13T00:00	840	928	8.6	6.3	45	4	
2025-10-13T00:00	860	926	8.4	6.3	47	4	
2025-10-13T00:00	880	924	8.2	6.2	49	4	
2025-10-13T00:00	900	921	8.0	6.2	51	4	
2025-10-13T00:00	920	919	7.8	6.2	53	4	
2025-10-13T00:00	940	917	7.6	6.2	54	3	
2025-10-13T00:00	960	915	7.4	6.1	56	3	
2025-10-13T00:00	980	912	7.3	6.1	58	3	
2025-10-13T00:00	1000	910	7.1	6.0	59	3	
2025-10-13T00:00	1020	908	6.9	6.0	60	4	
2025-10-13T00:00	1040	906	6.7	6.0	61	4	
2025-10-13T00:00	1060	903	6.5	6.0	62	4	
2025-10-13T00:00	1080	901	6.3	5.9	63	4	
2025-10-13T00:00	1100	899	6.1	5.9	63	4	
2025-10-13T00:00	1120	897	5.9	5.8	63	4	
2025-10-13T00:00	1140	895	5.7	5.7	62	4	
2025-10-13T00:00	1160	893	5.5	5.5	60	4	
2025-10-13T00:00	1180	890	5.4	5.4	58	4	
2025-10-13T00:00	1200	888	5.2	5.2	56	3	
2025-10-13T00:00	1220	886	5.1	5.1	55	3	
2025-10-13T00:00	1240	884	5.1	5.1	55	3	
2025-10-13T00:00	1260	882	4.9	4.9	56	3	
2025-10-13T00:00	1280	880	4.7	4.7	57	3	
2025-10-13T00:00	1300	878	4.7	4.7	58	3	
2025-10-13T00:00	1320	875	4.5	4.5	60	3	
2025-10-13T00:00	1340	873	4.4	4.4	60	2	
2025-10-13T00:00	1360	871	4.2	4.2	62	2	
2025-10-13T00:00	1380	869	4.1	4.1	63	1	
2025-10-13T00:00	1400	867	4.3	1.7	71	0	
2025-10-13T00:00	1420	865	5.4	-2.1	223	0	
2025-10-13T00:00	1440	862	7.3	1.4	235	1	
2025-10-13T00:00	1460	861	9.2	1.6	237	1	
2025-10-13T00:00	1480	858	10.4	2.4	239	2	
2025-10-13T00:00	1500	856	10.6	2.4	240	2	
2025-10-13T00:00	1520	854	10.5	2.0	241	2	
2025-10-13T00:00	1540	852	10.5	1.5	242	2	
2025-10-13T00:00	1560	850	10.7	0.9	243	2	
2025-10-13T00:00	1580	848	10.7	2.9	243	2	
2025-10-13T00:00	1600	846	10.6	3.1	243	2	
2025-10-13T00:00	1620	844	10.5	1.8	244	2	
2025-10-13T00:00	1640	842	10.6	-1.1	245	1	
2025-10-13T00:00	1660	840	10.8	-7.1	249	1	
2025-10-13T00:00	1680	838	11.1	-12.4	258	1	
2025-10-13T00:00	1700	836	11.2	-12.3	277	1	
2025-10-13T00:00	1720	834	11.2	-11.8	306	1	
2025-10-13T00:00	1740	832	11.1	-11.6	329	1	
2025-10-13T00:00	1760	830	11.0	-11.4	337	1	
2025-10-13T00:00	1780	828	10.9	-11.4	336	1	
2025-10-13T00:00	1800	826	10.8	-11.1	328	1	
2025-10-13T00:00	1820	824	10.7	-10.4	320	1	
2025-10-13T00:00	1840	822	10.6	-9.7	308	1	
2025-10-13T00:00	1860	820	10.6	-7.8	296	1	
2025-10-13T00:00	1880	818	10.4	-7.7	287	1	
2025-10-13T00:00	1900	816	10.2	-8.0	278	1	
2025-10-13T00:00	1920	814	10.0	-8.2	269	1	
2025-10-13T00:00	1940	812	9.9	-8.3	262	1	
2025-10-13T00:00	1960	810	9.7	-8.7	254	1	
2025-10-13T00:00	1980	808	9.6	-9.1	247	1	
2025-10-13T00:00	2000	806	9.4	-9.3	246	1	
2025-10-13T00:00	2020	804	9.2	-9.4	256	0	
2025-10-13T00:00	2040	803	9.0	-9.8	305	0	
2025-10-13T00:00	2060	800	9.1	-11.1	3	0	
2025-10-13T00:00	2080	799	9.2	-12.3	14	1	
2025-10-13T00:00	2100	797	9.1	-12.1	17	1	
2025-10-13T00:00	2120	795	9.0	-12.6	17	1	
2025-10-13T00:00	2140	793	8.9	-11.5	17	1	
2025-10-13T00:00	2160	791	8.8	-11.0	17	1	
2025-10-13T00:00	2180	789	8.7	-11.4	18	1	
2025-10-13T00:00	2200	787	8.6	-12.1	20	1	
2025-10-13T00:00	2220	785	8.6	-13.4	24	1	
2025-10-13T00:00	2240	783	8.5	-14.5	30	1	
2025-10-13T00:00	2260	781	8.4	-15.8	40	1	
2025-10-13T00:00	2280	779	8.3	-16.0	50	1	
2025-10-13T00:00	2300	778	8.1	-16.2	57	1	
2025-10-13T00:00	2320	776	8.0	-16.4	60	1	
2025-10-13T00:00	2340	774	7.8	-16.8	56	1	
2025-10-13T00:00	2360	772	7.6	-17.0	48	1	
2025-10-13T00:00	2380	770	7.5	-16.9	39	1	
2025-10-13T00:00	2400	768	7.5	-15.8	29	1	
2025-10-13T00:00	2420	766	7.3	-13.8	22	1	
2025-10-13T00:00	2440	764	7.2	-14.4	17	2	
2025-10-13T00:00	2460	763	7.1	-15.1	15	2	
2025-10-13T00:00	2480	761	7.0	-15.8	13	2	
2025-10-13T00:00	2500	759	7.0	-15.9	10	2	
2025-10-13T00:00	2520	757	6.9	-15.9	7	2	
2025-10-13T00:00	2540	755	6.7	-15.5	1	2	
2025-10-13T00:00	2560	753	6.6	-14.7	354	2	
2025-10-13T00:00	2580	751	6.5	-14.3	347	1	
2025-10-13T00:00	2600	750	6.3	-14.1	341	1	
2025-10-13T00:00	2620	748	6.2	-14.1	338	1	
2025-10-13T00:00	2640	746	6.1	-14.1	336	1	
2025-10-13T00:00	2660	744	5.9	-13.5	335	1	
2025-10-13T00:00	2680	742	5.8	-13.6	337	1	
2025-10-13T00:00	2700	741	5.6	-13.0	340	1	
2025-10-13T00:00	2720	739	5.5	-12.7	344	1	
2025-10-13T00:00	2740	737	5.3	-12.1	350	1	
2025-10-13T00:00	2760	735	5.1	-11.6	357	1	
2025-10-13T00:00	2780	733	5.0	-11.8	9	1	
2025-10-13T00:00	2800	732	4.9	-11.8	29	1	
2025-10-13T00:00	2820	730	4.7	-11.8	59	0	
2025-10-13T00:00	2840	728	4.6	-11.9	87	1	
2025-10-13T00:00	2860	726	4.4	-12.1	108	1	
2025-10-13T00:00	2880	724	4.3	-12.3	118	0	
2025-10-13T00:00	2900	723	4.2	-12.4	118	0	
2025-10-13T00:00	2920	721	4.0	-12.6	21	0	
2025-10-13T00:00	2940	719	3.9	-12.8	333	0	
2025-10-13T00:00	2960	717	3.8	-12.9	333	0	
2025-10-13T00:00	2980	716	3.7	-12.8	335	1	
2025-10-13T00:00	3000	714	3.5	-13.3	340	1	
2025-10-13T00:00	3020	712	3.4	-13.7	349	1	
2025-10-13T00:00	3040	710	3.2	-13.9	358	1	
2025-10-13T00:00	3060	708	3.0	-14.0	5	1	
2025-10-13T00:00	3080	707	2.9	-14.1	9	1	
2025-10-13T00:00	3100	705	2.8	-14.8	10	1	
2025-10-13T00:00	3120	703	2.7	-15.9	9	1	
2025-10-13T00:00	3140	702	2.6	-16.6	6	1	
2025-10-13T00:00	3160	700	2.5	-17.4	358	1	
2025-10-13T00:00	3180	698	2.5	-18.1	347	1	
2025-10-13T00:00	3200	697	2.5	-19.4	337	1	
2025-10-13T00:00	3220	695	2.5	-19.1	326	2	
2025-10-13T00:00	3240	693	2.4	-19.1	315	2	
2025-10-13T00:00	3260	691	2.4	-18.1	309	2	
2025-10-13T00:00	3280	690	2.3	-16.4	307	2	
2025-10-13T00:00	3300	688	2.1	-13.9	306	2	
2025-10-13T00:00	3320	686	1.9	-13.6	304	3	
2025-10-13T00:00	3340	684	1.7	-13.6	301	3	
2025-10-13T00:00	3360	683	1.5	-13.7	297	3	
2025-10-13T00:00	3380	681	1.4	-14.0	293	3	
2025-10-13T00:00	3400	679	1.2	-14.0	291	3	
2025-10-13T00:00	3420	678	1.1	-13.8	293	3	
2025-10-13T00:00	3440	676	0.9	-13.7	297	3	
2025-10-13T00:00	3460	674	0.7	-13.6	302	3	
2025-10-13T00:00	3480	673	0.5	-13.5	308	2	
2025-10-13T00:00	3500	671	0.3	-13.3	310	2	
2025-10-13T00:00	3520	669	0.2	-13.5	308	2	
2025-10-13T00:00	3540	667	0.0	-13.7	302	2	
2025-10-13T00:00	3560	666	-0.1	-13.8	296	2	
2025-10-13T00:00	3580	664	-0.3	-14.3	295	2	
2025-10-13T00:00	3600	663	-0.4	-15.4	301	2	
2025-10-13T00:00	3620	661	-0.5	-15.9	311	2	
2025-10-13T00:00	3640	659	-0.7	-16.1	321	2	
2025-10-13T00:00	3660	658	-0.9	-16.1	327	2	
2025-10-13T00:00	3680	656	-1.0	-16.0	326	1	
2025-10-13T00:00	3700	654	-1.2	-15.9	318	1	
2025-10-13T00:00	3720	653	-1.4	-16.1	296	1	
2025-10-13T00:00	3740	651	-1.5	-16.2	268	1	
2025-10-13T00:00	3760	650	-1.7	-16.1	259	1	
2025-10-13T00:00	3780	648	-1.8	-16.5	265	1	
2025-10-13T00:00	3800	646	-2.0	-16.7	280	1	
2025-10-13T00:00	3820	644	-2.1	-16.7	296	2	
2025-10-13T00:00	3840	643	-2.3	-16.8	308	2	
2025-10-13T00:00	3860	641	-2.5	-16.9	316	3	
2025-10-13T00:00	3880	640	-2.6	-17.0	322	3	
2025-10-13T00:00	3900	638	-2.8	-16.9	327	4	
2025-10-13T00:00	3920	636	-2.9	-17.0	330	4	
2025-10-13T00:00	3940	635	-3.0	-17.3	331	4	
2025-10-13T00:00	3960	633	-3.2	-17.5	331	3	
2025-10-13T00:00	3980	632	-3.3	-17.5	330	3	
2025-10-13T00:00	4000	630	-3.4	-17.7	330	3	
2025-10-13T00:00	4020	629	-3.5	-19.3	331	3	
2025-10-13T00:00	4040	627	-3.6	-20.2	333	3	
2025-10-13T00:00	4060	626	-3.6	-20.7	334	3	
2025-10-13T00:00	4080	624	-3.8	-21.0	336	2	
2025-10-13T00:00	4100	622	-3.9	-20.9	336	2	
2025-10-13T00:00	4120	621	-4.1	-20.7	334	2	
2025-10-13T00:00	4140	619	-4.2	-20.7	330	2	
2025-10-13T00:00	4160	618	-4.4	-20.9	327	3	
2025-10-13T00:00	4180	616	-4.5	-21.6	326	3	
2025-10-13T00:00	4200	614	-4.6	-21.8	327	3	
2025-10-13T00:00	4220	613	-4.7	-22.5	330	3	
2025-10-13T00:00	4240	611	-4.8	-23.7	338	2	
2025-10-13T00:00	4260	610	-4.8	-27.0	345	2	
2025-10-13T00:00	4280	608	-4.9	-24.9	350	2	
2025-10-13T00:00	4300	606	-5.1	-20.3	353	2	
2025-10-13T00:00	4320	605	-5.4	-15.3	352	2	
2025-10-13T00:00	4340	603	-5.6	-15.0	347	2	
2025-10-13T00:00	4360	602	-5.8	-15.0	340	2	
2025-10-13T00:00	4380	600	-6.0	-15.4	333	3	
2025-10-13T00:00	4400	599	-6.1	-16.3	330	3	
2025-10-13T00:00	4420	597	-6.3	-16.3	329	4	
2025-10-13T00:00	4440	596	-6.5	-15.7	329	4	
2025-10-13T00:00	4460	594	-6.6	-15.9	328	4	
2025-10-13T00:00	4480	593	-6.7	-16.5	327	4	
2025-10-13T00:00	4500	591	-6.9	-16.4	325	4	
2025-10-13T00:00	4520	590	-7.1	-16.4	322	3	
2025-10-13T00:00	4540	588	-7.3	-16.6	319	3	
2025-10-13T00:00	4560	587	-7.4	-16.8	317	3	
2025-10-13T00:00	4580	585	-7.6	-17.2	316	3	
2025-10-13T00:00	4600	584	-7.7	-18.0	316	3	
2025-10-13T00:00	4620	582	-7.9	-18.9	317	3	
2025-10-13T00:00	4640	581	-8.0	-19.8	319	2	
2025-10-13T00:00	4660	579	-8.2	-19.8	320	2	
2025-10-13T00:00	4680	578	-8.3	-19.7	321	2	
2025-10-13T00:00	4700	576	-8.5	-19.7	320	2	
2025-10-13T00:00	4720	575	-8.6	-19.9	319	2	
2025-10-13T00:00	4740	573	-8.6	-21.1	316	2	
2025-10-13T00:00	4760	572	-8.8	-22.8	311	2	
2025-10-13T00:00	4780	570	-8.9	-23.3	303	2	
2025-10-13T00:00	4800	569	-9.1	-23.5	293	2	
2025-10-13T00:00	4820	567	-9.3	-23.6	288	2	
2025-10-13T00:00	4840	566	-9.4	-23.7	288	2	
2025-10-13T00:00	4860	564	-9.6	-23.6	293	2	
2025-10-13T00:00	4880	563	-9.7	-23.5	300	2	
2025-10-13T00:00	4900	561	-9.8	-24.3	312	2	
2025-10-13T00:00	4920	560	-10.0	-24.4	326	2	
2025-10-13T00:00	4940	558	-10.1	-24.7	334	2	
2025-10-13T00:00	4960	557	-10.2	-25.3	338	2	
2025-10-13T00:00	4980	556	-10.3	-25.6	339	2	
2025-10-13T00:00	5000	554	-10.5	-26.0	336	2	
2025-10-13T00:00	5020	553	-10.6	-25.9	327	2	
2025-10-13T00:00	5040	551	-10.8	-25.4	316	2	
2025-10-13T00:00	5060	550	-10.9	-25.3	304	2	
2025-10-13T00:00	5080	548	-10.9	-26.4	296	2	
2025-10-13T00:00	5100	547	-10.9	-25.0	293	2	
2025-10-13T00:00	5120	546	-11.0	-24.0	297	1	
2025-10-13T00:00	5140	544	-11.2	-23.5	309	2	
2025-10-13T00:00	5160	543	-11.4	-24.3	320	2	
2025-10-13T00:00	5180	541	-11.5	-25.4	326	2	
2025-10-13T00:00	5200	540	-11.6	-25.3	328	2	
2025-10-13T00:00	5220	539	-11.8	-25.4	330	2	
2025-10-13T00:00	5240	537	-11.8	-26.1	332	2	
2025-10-13T00:00	5260	536	-12.0	-27.0	334	1	
2025-10-13T00:00	5280	534	-12.1	-27.0	342	1	
2025-10-13T00:00	5300	533	-12.2	-28.0	358	1	
2025-10-13T00:00	5320	532	-12.3	-29.6	15	1	
2025-10-13T00:00	5340	530	-12.4	-28.6	23	1	
2025-10-13T00:00	5360	529	-12.6	-27.5	19	1	
2025-10-13T00:00	5380	527	-12.8	-27.1	11	2	
2025-10-13T00:00	5400	526	-12.9	-28.0	4	2	
2025-10-13T00:00	5420	525	-12.9	-29.7	359	2	
2025-10-13T00:00	5440	523	-12.9	-30.5	356	2	
2025-10-13T00:00	5460	522	-12.9	-30.2	355	3	
2025-10-13T00:00	5480	521	-12.9	-29.4	354	3	
2025-10-13T00:00	5500	519	-13.1	-29.0	352	3	
2025-10-13T00:00	5520	518	-13.3	-28.8	350	3	
2025-10-13T00:00	5540	516	-13.5	-28.5	345	3	
2025-10-13T00:00	5560	515	-13.6	-28.3	341	3	
2025-10-13T00:00	5580	514	-13.8	-28.2	338	3	
2025-10-13T00:00	5600	512	-13.9	-28.3	337	3	
2025-10-13T00:00	5620	511	-14.1	-28.6	337	3	
2025-10-13T00:00	5640	510	-14.2	-28.8	337	3	
2025-10-13T00:00	5660	508	-14.4	-29.2	338	3	
2025-10-13T00:00	5680	507	-14.5	-29.1	340	3	
2025-10-13T00:00	5700	506	-14.7	-28.9	341	3	
2025-10-13T00:00	5720	504	-14.9	-28.6	342	2	
2025-10-13T00:00	5740	503	-15.0	-28.3	341	2	
2025-10-13T00:00	5760	502	-15.2	-28.3	341	2	
2025-10-13T00:00	5780	500	-15.4	-28.3	342	2	
2025-10-13T00:00	5800	499	-15.5	-27.9	345	2	
2025-10-13T00:00	5820	498	-15.7	-27.8	348	2	
2025-10-13T00:00	5840	496	-15.9	-27.8	352	2	
2025-10-13T00:00	5860	495	-16.1	-27.8	355	2	
2025-10-13T00:00	5880	494	-16.3	-27.9	357	2	
2025-10-13T00:00	5900	492	-16.5	-27.8	357	2	
2025-10-13T00:00	5920	491	-16.7	-27.8	354	2	
2025-10-13T00:00	5940	490	-16.9	-27.8	351	2	
2025-10-13T00:00	5960	489	-17.1	-27.8	346	2	
2025-10-13T00:00	5980	487	-17.3	-27.6	341	3	
2025-10-13T00:00	6000	486	-17.4	-27.9	336	3	
2025-10-13T00:00	6020	485	-17.6	-28.7	331	3	
2025-10-13T00:00	6040	483	-17.8	-28.9	323	3	
2025-10-13T00:00	6060	482	-17.9	-28.9	317	3	
2025-10-13T00:00	6080	481	-18.1	-29.0	312	3	
2025-10-13T00:00	6100	480	-18.3	-29.4	310	3	
2025-10-13T00:00	6120	478	-18.5	-29.9	312	3	
2025-10-13T00:00	6140	477	-18.6	-30.2	317	3	
2025-10-13T00:00	6160	476	-18.8	-31.0	324	3	
2025-10-13T00:00	6180	474	-19.0	-31.0	334	3	
2025-10-13T00:00	6200	473	-19.2	-31.4	347	3	
2025-10-13T00:00	6220	472	-19.3	-34.2	7	3	
2025-10-13T00:00	6240	471	-19.3	-36.0	26	3	
2025-10-13T00:00	6260	469	-19.2	-37.1	37	4	
2025-10-13T00:00	6280	468	-19.3	-36.7	42	4	
2025-10-13T00:00	6300	467	-19.4	-36.1	47	4	
2025-10-13T00:00	6320	466	-19.4	-36.3	50	4	
2025-10-13T00:00	6340	464	-19.5	-37.5	54	4	
2025-10-13T00:00	6360	463	-19.6	-38.5	58	4	
2025-10-13T00:00	6380	462	-19.5	-39.6	62	4	
2025-10-13T00:00	6400	461	-19.5	-39.2	66	3	
2025-10-13T00:00	6420	459	-19.7	-38.9	68	3	
2025-10-13T00:00	6440	458	-19.9	-38.6	69	3	
2025-10-13T00:00	6460	457	-20.1	-38.8	69	3	
2025-10-13T00:00	6480	456	-20.2	-39.1	67	4	
2025-10-13T00:00	6500	454	-20.4	-38.7	64	4	
2025-10-13T00:00	6520	453	-20.6	-38.5	61	4	
2025-10-13T00:00	6540	452	-20.8	-38.7	60	4	
2025-10-13T00:00	6560	451	-20.9	-38.7	60	4	
2025-10-13T00:00	6580	450	-21.1	-38.8	61	3	
2025-10-13T00:00	6600	448	-21.3	-38.5	64	3	
2025-10-13T00:00	6620	447	-21.4	-37.9	66	4	
2025-10-13T00:00	6640	446	-21.5	-36.8	68	4	
2025-10-13T00:00	6660	444	-21.6	-37.1	68	4	
2025-10-13T00:00	6680	443	-21.7	-37.5	66	4	
2025-10-13T00:00	6700	442	-21.8	-38.0	62	4	
2025-10-13T00:00	6720	441	-21.9	-38.3	56	4	
2025-10-13T00:00	6740	440	-22.0	-38.9	51	4	
2025-10-13T00:00	6760	439	-22.1	-39.0	47	3	
2025-10-13T00:00	6780	437	-22.3	-38.7	45	3	
2025-10-13T00:00	6800	436	-22.5	-38.5	45	3	
2025-10-13T00:00	6820	435	-22.6	-37.6	48	3	
2025-10-13T00:00	6840	434	-22.8	-36.3	56	3	
2025-10-13T00:00	6860	433	-23.0	-35.9	64	3	
2025-10-13T00:00	6880	431	-23.2	-35.8	71	3	
2025-10-13T00:00	6900	430	-23.4	-35.7	77	4	
2025-10-13T00:00	6920	429	-23.6	-35.9	80	4	
2025-10-13T00:00	6940	428	-23.8	-35.6	82	4	
2025-10-13T00:00	6960	427	-23.9	-34.3	80	4	
2025-10-13T00:00	6980	426	-24.1	-33.5	74	3	
2025-10-13T00:00	7000	424	-24.3	-33.5	65	3	
2025-10-13T00:00	7020	423	-24.4	-34.5	55	3	
2025-10-13T00:00	7040	422	-24.5	-35.4	45	3	
2025-10-13T00:00	7060	421	-24.6	-35.5	35	3	
2025-10-13T00:00	7080	420	-24.8	-35.5	28	4	
2025-10-13T00:00	7100	419	-25.0	-35.7	25	4	
2025-10-13T00:00	7120	418	-25.1	-36.1	23	4	
2025-10-13T00:00	7140	416	-25.3	-36.7	23	5	
2025-10-13T00:00	7160	415	-25.4	-37.4	24	5	
2025-10-13T00:00	7180	414	-25.4	-39.5	25	5	
2025-10-13T00:00	7200	413	-25.5	-40.1	27	5	
2025-10-13T00:00	7220	412	-25.6	-41.4	28	5	
2025-10-13T00:00	7240	411	-25.4	-44.7	30	6	
2025-10-13T00:00	7260	410	-25.3	-45.2	32	6	
2025-10-13T00:00	7280	408	-25.5	-44.6	35	6	
2025-10-13T00:00	7300	407	-25.6	-44.4	38	6	
2025-10-13T00:00	7320	406	-25.8	-44.3	41	6	
2025-10-13T00:00	7340	405	-25.9	-44.2	42	6	
2025-10-13T00:00	7360	404	-26.1	-44.2	45	6	
2025-10-13T00:00	7380	403	-26.3	-44.3	47	7	
2025-10-13T00:00	7400	402	-26.5	-44.4	47	7	
2025-10-13T00:00	7420	400	-26.7	-44.3	47	7	
2025-10-13T00:00	7440	400	-26.9	-44.4	46	7	
2025-10-13T00:00	7460	398	-27.1	-44.4	45	7	
2025-10-13T00:00	7480	397	-27.3	-44.4	45	7	
2025-10-13T00:00	7500	396	-27.5	-44.4	45	8	
2025-10-13T00:00	7520	395	-27.6	-44.2	46	8	
2025-10-13T00:00	7540	394	-27.8	-43.7	47	8	
2025-10-13T00:00	7560	393	-28.0	-43.5	48	8	
2025-10-13T00:00	7580	392	-28.1	-42.7	49	8	
2025-10-13T00:00	7600	391	-28.2	-42.3	49	8	
2025-10-13T00:00	7620	390	-28.4	-42.3	48	9	
2025-10-13T00:00	7640	388	-28.5	-42.3	48	9	
2025-10-13T00:00	7660	387	-28.6	-42.1	48	9	
2025-10-13T00:00	7680	386	-28.7	-41.4	48	10	
2025-10-13T00:00	7700	385	-28.9	-41.3	48	10	
2025-10-13T00:00	7720	384	-29.1	-41.6	48	10	
2025-10-13T00:00	7740	383	-29.3	-41.7	47	10	
2025-10-13T00:00	7760	382	-29.5	-41.8	47	10	
2025-10-13T00:00	7780	381	-29.7	-41.9	46	10	
2025-10-13T00:00	7800	380	-29.9	-41.9	45	10	
2025-10-13T00:00	7820	379	-30.1	-42.1	43	9	
2025-10-13T00:00	7840	378	-30.2	-42.4	43	9	
2025-10-13T00:00	7860	377	-30.4	-42.6	42	9	
2025-10-13T00:00	7880	376	-30.6	-42.8	42	8	
2025-10-13T00:00	7900	375	-30.8	-42.7	42	8	
2025-10-13T00:00	7920	373	-31.0	-42.8	42	8	
2025-10-13T00:00	7940	372	-31.2	-42.9	43	8	
2025-10-13T00:00	7960	371	-31.4	-43.0	43	8	
2025-10-13T00:00	7980	370	-31.6	-43.2	43	8	
2025-10-13T00:00	8000	369	-31.8	-43.3	43	8	
2025-10-13T00:00	8020	368	-31.9	-43.4	42	8	
2025-10-13T00:00	8040	367	-32.1	-43.6	42	8	
2025-10-13T00:00	8060	366	-32.2	-43.7	41	8	
2025-10-13T00:00	8080	365	-32.4	-43.5	40	8	
2025-10-13T00:00	8100	364	-32.6	-43.6	40	8	
2025-10-13T00:00	8120	363	-32.8	-44.3	39	7	
2025-10-13T00:00	8140	362	-32.9	-44.5	38	7	
2025-10-13T00:00	8160	361	-33.1	-44.8	37	7	
2025-10-13T00:00	8180	360	-33.2	-44.7	37	8	
2025-10-13T00:00	8200	359	-33.4	-44.7	37	8	
2025-10-13T00:00	8220	358	-33.6	-44.6	37	8	
2025-10-13T00:00	8240	357	-33.8	-44.5	37	8	
2025-10-13T00:00	8260	356	-34.0	-44.6	37	8	
2025-10-13T00:00	8280	355	-34.1	-44.8	37	8	
2025-10-13T00:00	8300	354	-34.3	-45.1	35	8	
2025-10-13T00:00	8320	353	-34.5	-45.1	34	8	
2025-10-13T00:00	8340	352	-34.7	-45.1	33	8	
2025-10-13T00:00	8360	351	-34.8	-45.1	32	8	
2025-10-13T00:00	8380	350	-35.0	-45.2	32	8	
2025-10-13T00:00	8400	349	-35.2	-45.5	31	8	
2025-10-13T00:00	8420	348	-35.4	-45.8	32	8	
2025-10-13T00:00	8440	347	-35.5	-46.3	33	8	
2025-10-13T00:00	8460	346	-35.7	-46.3	34	8	
2025-10-13T00:00	8480	345	-35.8	-46.4	35	8	
2025-10-13T00:00	8500	344	-35.9	-46.8	37	8	
2025-10-13T00:00	8520	343	-36.0	-46.9	38	8	
2025-10-13T00:00	8540	342	-36.2	-46.9	39	8	
2025-10-13T00:00	8560	341	-36.4	-47.0	40	8	
2025-10-13T00:00	8580	340	-36.6	-46.9	40	8	
2025-10-13T00:00	8600	339	-36.8	-47.0	40	8	
2025-10-13T00:00	8620	338	-37.0	-46.9	39	8	
2025-10-13T00:00	8640	337	-37.2	-47.0	39	8	
2025-10-13T00:00	8660	336	-37.4	-47.0	39	8	
2025-10-13T00:00	8680	335	-37.6	-47.0	39	8	
2025-10-13T00:00	8700	334	-37.8	-47.1	39	8	
2025-10-13T00:00	8720	333	-37.9	-47.3	40	8	
2025-10-13T00:00	8740	332	-38.1	-47.4	40	8	
2025-10-13T00:00	8760	331	-38.3	-47.4	41	8	
2025-10-13T00:00	8780	330	-38.5	-47.4	41	8	
2025-10-13T00:00	8800	329	-38.6	-47.8	40	8	
2025-10-13T00:00	8820	328	-38.7	-48.9	40	8	
2025-10-13T00:00	8840	327	-38.9	-49.2	38	8	
2025-10-13T00:00	8860	326	-39.1	-49.1	37	8	
2025-10-13T00:00	8880	326	-39.2	-48.8	35	8	
2025-10-13T00:00	8900	325	-39.4	-48.7	34	8	
2025-10-13T00:00	8920	324	-39.6	-49.0	33	8	
2025-10-13T00:00	8940	323	-39.8	-49.1	32	8	
2025-10-13T00:00	8960	322	-40.0	-49.0	32	8	
2025-10-13T00:00	8980	321	-40.2	-49.2	31	7	
2025-10-13T00:00	9000	320	-40.4	-49.3	31	7	
2025-10-13T00:00	9020	319	-40.5	-49.5	31	7	
2025-10-13T00:00	9040	318	-40.6	-50.3	32	7	
2025-10-13T00:00	9060	317	-40.6	-51.4	32	7	
2025-10-13T00:00	9080	316	-40.7	-51.8	32	7	
2025-10-13T00:00	9100	315	-40.8	-51.9	33	7	
2025-10-13T00:00	9120	314	-41.0	-51.9	33	7	
2025-10-13T00:00	9140	313	-41.2	-51.9	33	7	
2025-10-13T00:00	9160	312	-41.4	-52.0	33	7	
2025-10-13T00:00	9180	311	-41.6	-52.1	34	7	
2025-10-13T00:00	9200	311	-41.8	-52.1	34	7	
2025-10-13T00:00	9220	310	-42.0	-52.2	35	7	
2025-10-13T00:00	9240	309	-42.1	-52.5	36	7	
2025-10-13T00:00	9260	308	-42.2	-52.7	37	7	
2025-10-13T00:00	9280	307	-42.4	-52.8	37	7	
2025-10-13T00:00	9300	306	-42.5	-52.7	37	7	
2025-10-13T00:00	9320	305	-42.7	-52.6	36	7	
2025-10-13T00:00	9340	304	-42.9	-52.7	35	7	
2025-10-13T00:00	9360	303	-43.1	-52.8	33	7	
2025-10-13T00:00	9380	302	-43.3	-52.7	30	7	
2025-10-13T00:00	9400	301	-43.5	-52.8	27	7	
2025-10-13T00:00	9420	300	-43.7	-52.8	25	7	
2025-10-13T00:00	9440	300	-43.8	-52.9	24	7	
2025-10-13T00:00	9460	299	-44.0	-53.0	23	7	
2025-10-13T00:00	9480	298	-44.2	-53.3	22	8	
2025-10-13T00:00	9500	297	-44.3	-53.6	22	7	
2025-10-13T00:00	9520	296	-44.4	-53.5	22	7	
2025-10-13T00:00	9540	295	-44.6	-53.3	22	7	
2025-10-13T00:00	9560	294	-44.8	-53.0	22	7	
2025-10-13T00:00	9580	294	-44.9	-53.0	22	7	
2025-10-13T00:00	9600	293	-45.1	-53.0	21	7	
2025-10-13T00:00	9620	292	-45.3	-52.9	21	8	
2025-10-13T00:00	9640	291	-45.4	-52.9	20	8	
2025-10-13T00:00	9660	290	-45.6	-53.0	19	8	
2025-10-13T00:00	9680	289	-45.8	-53.0	18	8	
2025-10-13T00:00	9700	288	-46.0	-52.9	16	8	
2025-10-13T00:00	9720	287	-46.2	-52.8	16	8	
2025-10-13T00:00	9740	287	-46.4	-52.6	15	8	
2025-10-13T00:00	9760	286	-46.6	-52.5	14	7	
2025-10-13T00:00	9780	285	-46.8	-52.0	14	7	
2025-10-13T00:00	9800	284	-47.0	-51.8	14	7	
2025-10-13T00:00	9820	283	-47.1	-52.4	15	7	
2025-10-13T00:00	9840	282	-47.2	-53.5	15	6	
2025-10-13T00:00	9860	281	-47.4	-53.7	16	6	
2025-10-13T00:00	9880	280	-47.6	-53.7	17	6	
2025-10-13T00:00	9900	280	-47.7	-53.9	18	6	
2025-10-13T00:00	9920	279	-47.9	-54.2	19	6	
2025-10-13T00:00	9940	278	-48.1	-54.7	20	6	
2025-10-13T00:00	9960	277	-48.2	-55.1	20	6	
2025-10-13T00:00	9980	276	-48.4	-55.3	20	6	
2025-10-13T00:00	10000	275	-48.5	-56.8	20	6	
2025-10-13T00:00	10018	275	-48.4	-59.1	20	6	
2025-10-13T00:00	10050	273	-48.5	-61.4	20	7	
2025-10-13T00:00	10100	271	-48.9	-62.7	23	7	
2025-10-13T00:00	10150	269	-49.1	-64.4	27	7	
2025-10-13T00:00	10200	267	-49.5	-63.7	31	7	
2025-10-13T00:00	10250	265	-49.6	-64.7	32	7	
2025-10-13T00:00	10300	263	-49.8	-64.5	30	8	
2025-10-13T00:00	10350	261	-50.3	-64.5	27	8	
2025-10-13T00:00	10400	259	-50.6	-64.6	25	9	
2025-10-13T00:00	10450	257	-51.0	-64.5	25	9	
2025-10-13T00:00	10500	255	-51.5	-64.6	24	9	
2025-10-13T00:00	10550	253	-52.0	-64.7	22	9	
2025-10-13T00:00	10600	251	-52.4	-64.9	21	9	
2025-10-13T00:00	10650	249	-52.7	-65.2	21	9	
2025-10-13T00:00	10700	247	-53.0	-65.7	20	9	
2025-10-13T00:00	10750	245	-53.2	-66.5	19	9	
2025-10-13T00:00	10800	243	-53.5	-66.9	17	9	
2025-10-13T00:00	10850	242	-53.8	-66.6	20	10	
2025-10-13T00:00	10900	240	-54.1	-67.2	22	10	
2025-10-13T00:00	10950	238	-54.5	-67.1	22	10	
2025-10-13T00:00	11000	236	-54.9	-66.3	21	10	
2025-10-13T00:00	11050	234	-55.4	-65.8	18	10	
2025-10-13T00:00	11100	232	-55.7	-65.6	18	10	
2025-10-13T00:00	11150	231	-55.9	-66.5	18	10	
2025-10-13T00:00	11200	229	-56.1	-67.7	20	9	
2025-10-13T00:00	11250	227	-56.0	-68.8	21	9	
2025-10-13T00:00	11300	225	-56.2	-69.3	22	9	
2025-10-13T00:00	11350	224	-56.4	-69.6	22	10	
2025-10-13T00:00	11400	222	-56.6	-70.1	22	10	
2025-10-13T00:00	11450	220	-56.8	-70.4	22	10	
2025-10-13T00:00	11500	218	-57.0	-70.8	24	10	
2025-10-13T00:00	11550	217	-57.3	-71.1	27	9	
2025-10-13T00:00	11600	215	-57.4	-71.1	30	8	
2025-10-13T00:00	11650	213	-57.5	-70.6	32	8	
2025-10-13T00:00	11700	211	-57.9	-70.4	29	7	
2025-10-13T00:00	11750	210	-58.4	-70.2	23	7	
2025-10-13T00:00	11800	208	-58.6	-70.0	17	7	
2025-10-13T00:00	11850	206	-58.7	-70.1	14	7	
2025-10-13T00:00	11900	205	-59.1	-70.1	13	7	
2025-10-13T00:00	11950	203	-59.5	-70.1	11	8	
2025-10-13T00:00	12000	202	-59.9	-70.2	8	9	
2025-10-13T00:00	12050	200	-60.3	-70.3	7	9	
2025-10-13T00:00	12100	198	-60.5	-70.7	10	9	
2025-10-13T00:00	12150	197	-60.8	-71.0	14	9	
2025-10-13T00:00	12200	195	-61.0	-70.9	16	11	
2025-10-13T00:00	12250	194	-61.2	-70.8	17	12	
2025-10-13T00:00	12300	192	-61.6	-71.0	18	13	
2025-10-13T00:00	12350	191	-61.5	-71.1	21	13	
2025-10-13T00:00	12400	189	-61.4	-71.6	26	12	
2025-10-13T00:00	12450	188	-61.1	-72.2	32	12	
2025-10-13T00:00	12500	186	-61.0	-72.8	37	10	
2025-10-13T00:00	12550	184	-61.1	-73.3	44	8	
2025-10-13T00:00	12600	183	-61.1	-73.5	47	7	
2025-10-13T00:00	12650	181	-61.5	-73.7	44	6	
2025-10-13T00:00	12700	180	-61.9	-73.8	38	5	
2025-10-13T00:00	12750	179	-62.3	-73.7	32	5	
2025-10-13T00:00	12800	177	-62.7	-73.7	24	4	
2025-10-13T00:00	12850	176	-63.1	-73.9	10	4	
2025-10-13T00:00	12900	174	-63.3	-74.0	1	5	
2025-10-13T00:00	12950	173	-63.5	-74.4	360	5	
2025-10-13T00:00	13000	171	-63.6	-74.9	5	5	
2025-10-13T00:00	13050	170	-63.7	-75.2	10	4	
2025-10-13T00:00	13100	169	-63.5	-75.9	10	3	
2025-10-13T00:00	13150	167	-62.9	-76.9	353	3	
2025-10-13T00:00	13200	166	-61.9	-77.9	329	3	
2025-10-13T00:00	13250	165	-61.7	-79.5	319	5	
2025-10-13T00:00	13300	163	-61.2	-80.6	315	6	
2025-10-13T00:00	13350	162	-60.7	-81.4	315	6	
2025-10-13T00:00	13400	161	-60.5	-81.7	321	7	
2025-10-13T00:00	13450	159	-60.3	-81.8	331	8	
2025-10-13T00:00	13500	158	-60.1	-81.7	341	9	
2025-10-13T00:00	13550	157	-60.0	-81.7	349	10	
2025-10-13T00:00	13600	156	-59.8	-81.5	355	11	
2025-10-13T00:00	13650	154	-60.0	-81.5	357	10	
2025-10-13T00:00	13700	153	-60.1	-81.5	359	10	
2025-10-13T00:00	13750	152	-60.3	-81.5	1	10	
2025-10-13T00:00	13800	151	-60.5	-81.5	0	10	
2025-10-13T00:00	13850	150	-60.4	-81.5	356	8	
2025-10-13T00:00	13900	148	-60.2	-81.6	347	7	
2025-10-13T00:00	13950	147	-60.3	-81.8	341	8	
2025-10-13T00:00	14000	146	-60.6	-81.8	339	9	
2025-10-13T00:00	14050	145	-60.8	-81.8	339	9	
2025-10-13T00:00	14100	144	-61.1	-81.8	338	9	
2025-10-13T00:00	14150	142	-61.1	-81.8	338	8	
2025-10-13T00:00	14200	141	-61.1	-81.9	338	8	
2025-10-13T00:00	14250	140	-61.4	-82.0	337	8	
2025-10-13T00:00	14300	139	-61.6	-82.2	337	8	
2025-10-13T00:00	14350	138	-61.7	-82.4	342	7	
2025-10-13T00:00	14400	137	-61.7	-82.5	349	7	
2025-10-13T00:00	14450	136	-61.6	-82.5	358	7	
2025-10-13T00:00	14500	135	-61.5	-82.7	2	6	
2025-10-13T00:00	14550	134	-61.3	-82.8	357	5	
2025-10-13T00:00	14600	133	-61.0	-82.8	339	4	
2025-10-13T00:00	14650	131	-61.2	-82.9	319	4	
2025-10-13T00:00	14700	130	-61.6	-82.9	310	4	
2025-10-13T00:00	14750	129	-62.1	-82.9	305	4	
2025-10-13T00:00	14800	128	-62.6	-82.9	301	4	
2025-10-13T00:00	14850	127	-63.1	-83.0	300	5	
2025-10-13T00:00	14900	126	-63.6	-83.2	303	6	
2025-10-13T00:00	14950	125	-63.7	-83.2	310	7	
2025-10-13T00:00	15000	124	-63.6	-83.2	317	7	
2025-10-13T00:00	15050	123	-63.9	-83.3	324	7	
2025-10-13T00:00	15100	122	-64.0	-83.3	332	7	
2025-10-13T00:00	15150	121	-64.1	-83.4	335	8	
2025-10-13T00:00	15200	120	-64.1	-83.3	335	8	
2025-10-13T00:00	15250	119	-64.2	-83.4	334	9	
2025-10-13T00:00	15300	118	-64.3	-83.5	338	10	
2025-10-13T00:00	15350	117	-64.1	-83.4	342	10	
2025-10-13T00:00	15400	116	-63.9	-83.4	346	10	
2025-10-13T00:00	15450	115	-64.0	-83.4	347	10	
2025-10-13T00:00	15500	114	-64.3	-83.5	347	9	
2025-10-13T00:00	15550	114	-64.5	-83.5	348	8	
2025-10-13T00:00	15600	113	-64.5	-83.6	351	7	
2025-10-13T00:00	15650	112	-64.4	-83.7	354	6	
2025-10-13T00:00	15700	111	-64.1	-83.8	350	6	
2025-10-13T00:00	15750	110	-64.0	-83.9	339	6	
2025-10-13T00:00	15800	109	-63.9	-84.1	332	6	
2025-10-13T00:00	15850	108	-63.6	-84.2	327	6	
2025-10-13T00:00	15900	107	-63.1	-84.3	323	6	
2025-10-13T00:00	15950	106	-62.9	-84.3	323	6	
2025-10-13T00:00	16000	106	-62.9	-84.3	324	6	
2025-10-13T00:00	16050	105	-63.0	-84.3	320	6	
2025-10-13T00:00	16100	104	-63.4	-84.3	315	6	
2025-10-13T00:00	16150	103	-63.8	-84.3	309	6	
2025-10-13T00:00	16200	102	-64.2	-84.4	302	7	
2025-10-13T00:00	16250	101	-64.6	-84.6	296	7	
2025-10-13T00:00	16300	100	-64.7	-84.5	294	7	
2025-10-13T00:00	16350	100	-65.1	-84.7	299	7	
2025-10-13T00:00	16400	99	-65.5	-84.7	308	7	
2025-10-13T00:00	16450	98	-65.8	-84.9	319	7	
2025-10-13T00:00	16500	97	-66.0	-85.0	325	8	
2025-10-13T00:00	16550	96	-66.2	-85.1	328	8	
2025-10-13T00:00	16600	96	-66.4	-85.3	332	7	
2025-10-13T00:00	16650	95	-66.4	-85.3	340	7	
2025-10-13T00:00	16700	94	-66.2	-85.2	347	8	
2025-10-13T00:00	16750	93	-66.2	-85.5	352	8	
2025-10-13T00:00	16800	92	-65.6	-85.4	356	8	
2025-10-13T00:00	16850	92	-65.4	-85.7	358	8	
2025-10-13T00:00	16900	91	-65.2	-85.9	355	7	
2025-10-13T00:00	16950	90	-64.7	-86.0	347	6	
2025-10-13T00:00	17000	90	-64.4	-86.0	335	6	
2025-10-13T00:00	17050	89	-64.3	-86.1	327	6	
2025-10-13T00:00	17100	88	-64.3	-86.1	328	6	
2025-10-13T00:00	17150	87	-64.1	-86.1	337	6	
2025-10-13T00:00	17200	87	-64.1	-86.1	347	6	
2025-10-13T00:00	17250	86	-64.0	-86.2	352	7	
2025-10-13T00:00	17300	85	-63.8	-86.1	354	7	
2025-10-13T00:00	17350	85	-63.8	-86.1	358	7	
2025-10-13T00:00	17400	84	-64.0	-86.2	2	6	
2025-10-13T00:00	17450	83	-64.0	-86.4	7	7	
2025-10-13T00:00	17500	82	-63.4	-86.1	10	8	
2025-10-13T00:00	17550	82	-63.5	-86.3	12	9	
2025-10-13T00:00	17600	81	-63.6	-86.4	12	9	
2025-10-13T00:00	17650	81	-63.2	-86.2	10	8	
2025-10-13T00:00	17700	80	-63.2	-86.3	6	7	
2025-10-13T00:00	17750	79	-63.1	-86.2	1	7	
2025-10-13T00:00	17800	79	-63.1	-86.3	358	6	
2025-10-13T00:00	17850	78	-63.0	-86.4	355	6	
2025-10-13T00:00	17900	77	-62.4	-86.2	350	5	
2025-10-13T00:00	17950	77	-62.1	-86.2	341	4	
2025-10-13T00:00	18000	76	-62.2	-86.1	326	3	
2025-10-13T00:00	18050	75	-62.4	-86.1	308	3	
2025-10-13T00:00	18100	75	-62.8	-86.2	290	3	
2025-10-13T00:00	18150	74	-63.1	-86.4	283	4	
2025-10-13T00:00	18200	74	-62.8	-86.3	289	5	
2025-10-13T00:00	18250	73	-62.8	-86.4	301	5	
2025-10-13T00:00	18300	72	-63.1	-86.4	310	6	
2025-10-13T00:00	18350	72	-63.2	-86.5	311	6	
2025-10-13T00:00	18400	71	-63.2	-86.4	308	6	
2025-10-13T00:00	18450	71	-63.5	-86.5	309	7	
2025-10-13T00:00	18500	70	-63.9	-86.6	313	7	
2025-10-13T00:00	18550	70	-64.0	-86.7	316	6	
2025-10-13T00:00	18600	69	-64.2	-86.9	319	6	
2025-10-13T00:00	18650	68	-64.4	-87.1	318	5	
2025-10-13T00:00	18700	68	-63.9	-86.9	311	5	
2025-10-13T00:00	18750	67	-64.0	-87.2	304	5	
2025-10-13T00:00	18800	67	-63.6	-87.1	305	5	
2025-10-13T00:00	18850	66	-63.1	-87.1	313	5	
2025-10-13T00:00	18900	66	-62.5	-86.9	320	5	
2025-10-13T00:00	18950	65	-62.4	-86.8	323	5	
2025-10-13T00:00	19000	65	-62.2	-86.7	326	5	
2025-10-13T00:00	19050	64	-62.1	-86.5	331	5	
2025-10-13T00:00	19100	64	-62.2	-86.5	339	5	
2025-10-13T00:00	19150	63	-62.5	-86.7	345	5	
2025-10-13T00:00	19200	63	-62.0	-86.5	344	4	
2025-10-13T00:00	19250	62	-61.8	-86.6	334	4	
2025-10-13T00:00	19300	62	-61.8	-86.4	328	5	
2025-10-13T00:00	19350	61	-62.2	-86.5	325	6	
2025-10-13T00:00	19400	61	-62.6	-86.6	321	6	
2025-10-13T00:00	19450	60	-62.4	-86.6	317	7	
2025-10-13T00:00	19500	60	-62.1	-86.6	320	7	
2025-10-13T00:00	19550	59	-62.3	-86.8	332	6	
2025-10-13T00:00	19600	59	-61.7	-86.5	344	6	
2025-10-13T00:00	19650	58	-61.7	-86.5	350	6	
2025-10-13T00:00	19700	58	-62.0	-86.5	356	5	
2025-10-13T00:00	19750	57	-62.3	-86.7	4	4	
2025-10-13T00:00	19800	57	-61.8	-86.5	10	3	
2025-10-13T00:00	19850	56	-61.7	-86.5	23	1	
2025-10-13T00:00	19900	56	-61.8	-86.6	138	1	
2025-10-13T00:00	19950	55	-61.8	-86.5	158	2	
2025-10-13T00:00	20000	55	-61.9	-86.4	173	2	
2025-10-13T00:00	20050	55	-62.2		203	2	
2025-10-13T00:00	20100	54	-62.4		239	2	
2025-10-13T00:00	20150	54	-62.4		267	3	
2025-10-13T00:00	20200	53	-62.2		278	3	
2025-10-13T00:00	20250	53	-62.3		281	4	
2025-10-13T00:00	20300	52	-62.4		279	5	
2025-10-13T00:00	20350	52	-62.7		274	6	
2025-10-13T00:00	20400	52	-62.7		265	6	
2025-10-13T00:00	20450	51	-62.6		258	7	
2025-10-13T00:00	20500	51	-62.2		259	7	
2025-10-13T00:00	20550	50	-61.7		269	6	
2025-10-13T00:00	20600	50	-61.7		280	6	
2025-10-13T00:00	20650	49	-61.9		286	6	
2025-10-13T00:00	20700	49	-62.3		291	6	
2025-10-13T00:00	20750	49	-62.6		302	6	
2025-10-13T00:00	20800	48	-62.4		311	6	
2025-10-13T00:00	20850	48	-62.1		313	6	
2025-10-13T00:00	20900	48	-61.6		310	6	
2025-10-13T00:00	20950	47	-61.1		314	5	
2025-10-13T00:00	21000	47	-60.9		325	5	
2025-10-13T00:00	21050	46	-60.8		332	5	
2025-10-13T00:00	21100	46	-60.7		326	6	
2025-10-13T00:00	21150	46	-61.0		315	6	
2025-10-13T00:00	21200	45	-61.3		309	6	
2025-10-13T00:00	21250	45	-61.7		304	8	
2025-10-13T00:00	21300	45	-62.1		301	9	
2025-10-13T00:00	21350	44	-62.4		302	10	
2025-10-13T00:00	21400	44	-62.0		306	9	
2025-10-13T00:00	21450	43	-62.0		310	9	
2025-10-13T00:00	21500	43	-62.1		309	9	
2025-10-13T00:00	21550	43	-61.7		308	8	
2025-10-13T00:00	21600	42	-61.7		312	7	
2025-10-13T00:00	21650	42	-61.7		319	7	
2025-10-13T00:00	21700	42	-61.7		323	6	
2025-10-13T00:00	21750	41	-62.0		325	5	
2025-10-13T00:00	21800	41	-62.1		329	4	
2025-10-13T00:00	21850	41	-62.0		335	3	
2025-10-13T00:00	21900	40	-62.1		342	3	
2025-10-13T00:00	21950	40	-62.0		338	2	
2025-10-13T00:00	22000	40	-61.9		317	2	
2025-10-13T00:00	22050	39	-61.8		307	3	
2025-10-13T00:00	22100	39	-61.7		304	4	
2025-10-13T00:00	22150	39	-61.7		296	4	
2025-10-13T00:00	22200	39	-61.4		283	5	
2025-10-13T00:00	22250	38	-61.5		274	5	
2025-10-13T00:00	22300	38	-61.3		270	6	
2025-10-13T00:00	22350	38	-60.9		271	6	
2025-10-13T00:00	22400	37	-61.0		271	7	
2025-10-13T00:00	22450	37	-61.3		271	8	
2025-10-13T00:00	22500	37	-61.4		272	8	
2025-10-13T00:00	22550	36	-61.7		275	9	
2025-10-13T00:00	22600	36	-61.7		283	10	
2025-10-13T00:00	22650	36	-61.6		293	11	
2025-10-13T00:00	22700	36	-61.4		303	11	
2025-10-13T00:00	22750	35	-61.5		313	10	
2025-10-13T00:00	22800	35	-61.6		323	9	
2025-10-13T00:00	22850	35	-60.8		333	8	
2025-10-13T00:00	22900	34	-61.0		343	7	
2025-10-13T00:00	22950	34	-61.2		352	7	
2025-10-13T00:00	23000	34	-61.5		0	6	
2025-10-13T00:00	23050	34	-61.7		4	5	
2025-10-13T00:00	23100	33	-61.9		1	5	
2025-10-13T00:00	23150	33	-62.1		354	5	
2025-10-13T00:00	23200	33	-62.4		347	6	
2025-10-13T00:00	23250	33	-62.6		342	6	
2025-10-13T00:00	23300	32	-62.6		337	6	
2025-10-13T00:00	23350	32	-61.8		333	5	
2025-10-13T00:00	23400	32	-61.3		331	4	
2025-10-13T00:00	23450	31	-61.0		323	3	
2025-10-13T00:00	23500	31	-60.5		310	3	
2025-10-13T00:00	23550	31	-60.1		305	2	
2025-10-13T00:00	23600	31	-60.1		312	2	
2025-10-13T00:00	23650	30	-60.2		337	1	
2025-10-13T00:00	23700	30	-59.5		350	1	
2025-10-13T00:00	23750	30	-59.0		330	2	
2025-10-13T00:00	23800	30	-59.0		301	2	
2025-10-13T00:00	23850	30	-58.8		287	4	
2025-10-13T00:00	23900	29	-59.0		281	5	
2025-10-13T00:00	23950	29	-59.2		277	6	
2025-10-13T00:00	24000	29	-59.4		272	6	
2025-10-13T00:00	24050	29	-59.6		271	7	
2025-10-13T00:00	24100	28	-59.8		274	7	
2025-10-13T00:00	24150	28	-59.8		277	7	
2025-10-13T00:00	24200	28	-59.8		278	7	
2025-10-13T00:00	24250	28	-60.0		278	7	
2025-10-13T00:00	24300	27	-60.0		276	7	
2025-10-13T00:00	24350	27	-60.1		274	7	
2025-10-13T00:00	24400	27	-59.8		274	8	
2025-10-13T00:00	24450	27	-59.6		276	8	
2025-10-13T00:00	24500	27	-59.4		275	9	
2025-10-13T00:00	24550	26	-59.5		272	9	
2025-10-13T00:00	24600	26	-58.8		269	10	
2025-10-13T00:00	24650	26	-58.6		266	11	
2025-10-13T00:00	24700	26	-58.4		266	11	
2025-10-13T00:00	24750	26	-58.6		268	11	
2025-10-13T00:00	24800	25	-58.7		274	11	
2025-10-13T00:00	24850	25	-58.4		281	11	
2025-10-13T00:00	24900	25	-57.9		290	10	
2025-10-13T00:00	24950	25	-57.3		299	10	
2025-10-13T00:00	25000	25	-57.3		306	10	
2025-10-13T00:00	25050	24	-57.3		310	10	
2025-10-13T00:00	25100	24	-57.5		312	10	
2025-10-13T00:00	25150	24	-57.5		313	10	
2025-10-13T00:00	25200	24	-57.5		315	9	
2025-10-13T00:00	25250	24	-57.7		314	9	
2025-10-13T00:00	25300	23	-57.8		308	9	
2025-10-13T00:00	25350	23	-57.8		300	8	
2025-10-13T00:00	25400	23	-57.7		292	8	
2025-10-13T00:00	25450	23	-57.7		284	6	
2025-10-13T00:00	25500	23	-57.2		275	5	
2025-10-13T00:00	25550	23	-57.0		267	5	
2025-10-13T00:00	25600	22	-56.3		266	5	
2025-10-13T00:00	25650	22	-56.4		270	5	
2025-10-13T00:00	25700	22	-56.7		276	6	
2025-10-13T00:00	25750	22	-57.2		282	6	
2025-10-13T00:00	25800	22	-57.6		291	7	
2025-10-13T00:00	25850	21	-57.9		301	8	
2025-10-13T00:00	25900	21	-57.7		308	9	
2025-10-13T00:00	25950	21	-57.0		310	10	
2025-10-13T00:00	26000	21	-56.9		308	11	
2025-10-13T00:00	26050	21	-56.7		306	12	
2025-10-13T00:00	26100	21	-56.4		303	12	
2025-10-13T00:00	26150	20	-56.6		300	12	
2025-10-13T00:00	26200	20	-56.9		299	12	
2025-10-13T00:00	26250	20	-57.3		299	12	
2025-10-13T00:00	26300	20	-57.5		302	11	
2025-10-13T00:00	26350	20	-57.8		306	10	
2025-10-13T00:00	26400	20	-58.2		310	9	
2025-10-13T00:00	26450	20	-58.6		313	9	
2025-10-13T00:00	26500	19	-58.9		312	8	
2025-10-13T00:00	26550	19	-59.1		309	8	
2025-10-13T00:00	26600	19	-59.4		300	6	
2025-10-13T00:00	26650	19	-59.3		280	5	
2025-10-13T00:00	26700	19	-59.1		253	5	
2025-10-13T00:00	26750	19	-58.1		241	7	
2025-10-13T00:00	26800	18	-57.3		240	7	
2025-10-13T00:00	26850	18	-56.5		245	8	
2025-10-13T00:00	26900	18	-56.1		254	8	
2025-10-13T00:00	26950	18	-56.0		263	9	
2025-10-13T00:00	27000	18	-56.2		269	9	
2025-10-13T00:00	27050	18	-56.2		272	8	
2025-10-13T00:00	27100	18	-56.0		275	7	
2025-10-13T00:00	27150	17	-55.8		280	6	
2025-10-13T00:00	27200	17	-55.8		284	6	
2025-10-13T00:00	27250	17	-56.0		288	6	
2025-10-13T00:00	27300	17	-56.1		288	5	
2025-10-13T00:00	27350	17	-56.3		281	5	
2025-10-13T00:00	27400	17	-55.7		264	5	
2025-10-13T00:00	27450	17	-55.7		248	6	
2025-10-13T00:00	27500	17	-55.7		240	8	
2025-10-13T00:00	27550	16	-55.6		236	9	
2025-10-13T00:00	27600	16	-55.6		237	10	
2025-10-13T00:00	27650	16	-55.7		241	11	
2025-10-13T00:00	27700	16	-55.1		247	12	
2025-10-13T00:00	27750	16	-54.4		250	13	
2025-10-13T00:00	27800	16	-54.1		252	13	
2025-10-13T00:00	27850	16	-53.7		254	13	
2025-10-13T00:00	27900	16	-53.9		256	12	
2025-10-13T00:00	27950	15	-53.7		256	12	
2025-10-13T00:00	28000	15	-53.6		256	11	
2025-10-13T00:00	28050	15	-53.5		259	10	
2025-10-13T00:00	28100	15	-53.2		265	10	
2025-10-13T00:00	28150	15	-53.1		274	9	
2025-10-13T00:00	28200	15	-53.3		284	8	
2025-10-13T00:00	28250	15	-53.1		291	8	
2025-10-13T00:00	28300	15	-53.1		292	7	
2025-10-13T00:00	28350	14	-53.1		286	7	
2025-10-13T00:00	28400	14	-53.0		277	7	
2025-10-13T00:00	28450	14	-53.1		268	7	
2025-10-13T00:00	28500	14	-53.3		260	8	
2025-10-13T00:00	28550	14	-53.5		251	9	
2025-10-13T00:00	28600	14	-53.6		242	10	
2025-10-13T00:00	28650	14	-53.8		237	12	
2025-10-13T00:00	28700	14	-53.9		233	13	
2025-10-13T00:00	28750	14	-54.0		230	13	
2025-10-13T00:00	28800	14	-54.0		226	12	
2025-10-13T00:00	28850	13	-54.0		224	11	
2025-10-13T00:00	28900	13	-53.6		226	11	
2025-10-13T00:00	28950	13	-53.2		230	11	
2025-10-13T00:00	29000	13	-52.8		234	11	
2025-10-13T00:00	29050	13	-53.0		238	11	
2025-10-13T00:00	29100	13	-53.1		243	11	
2025-10-13T00:00	29150	13	-53.4		248	11	
2025-10-13T00:00	29200	13	-53.7		251	11	
2025-10-13T00:00	29250	13	-53.9		253	11	
2025-10-13T00:00	29300	13	-53.8		252	11	
2025-10-13T00:00	29350	12	-54.2		250	11	
2025-10-13T00:00	29400	12	-54.4		248	10	
2025-10-13T00:00	29450	12	-54.2		249	10	
2025-10-13T00:00	29500	12	-54.1		249	10	
2025-10-13T00:00	29550	12	-54.1		248	9	
2025-10-13T00:00	29600	12	-54.0		247	9	
2025-10-13T00:00	29650	12	-54.3		245	9	
2025-10-13T00:00	29700	12	-54.2		244	9	
2025-10-13T00:00	29750	12	-53.6		245	10	
2025-10-13T00:00	29800	12	-53.5		246	11	
2025-10-13T00:00	29850	11	-53.4		246	10	
2025-10-13T00:00	29900	11	-53.3		247	11	
2025-10-13T00:00	29950	11	-53.5		248	11	
2025-10-13T00:00	30000	11	-53.1		251	13	
2025-10-13T00:00	30050	11	-52.9		254	14	
2025-10-13T00:00	30100	11	-52.4		257	14	
2025-10-13T00:00	30150	11	-52.0		259	14	
2025-10-13T00:00	30200	11	-51.8		261	15	
2025-10-13T00:00	30250	11	-51.8		263	15	
2025-10-13T00:00	30300	11	-52.0		266	16	
2025-10-13T00:00	30350	11	-52.0		270	15	
2025-10-13T00:00	30400	11	-52.1		272	14	
2025-10-13T00:00	30450	10	-52.0		273	13	
2025-10-13T00:00	30500	10	-51.9		271	13	
2025-10-13T00:00	30550	10	-52.0		268	12	
2025-10-13T00:00	30600	10	-52.2		266	11	
2025-10-13T00:00	30650	10	-52.5		264	11	
2025-10-13T00:00	30700	10	-52.8		261	10	
2025-10-13T00:00	30750	10	-53.0		257	9	
2025-10-13T00:00	30800	10	-53.2		252	9	
2025-10-13T00:00	30850	10	-53.4		247	10	
2025-10-13T00:00	30900	10	-53.6		244	10	
2025-10-13T00:00	30950	10	-53.9		241	11	
2025-10-13T00:00	31000	10	-54.1		240	12	
2025-10-13T00:00	31050	10	-54.1		240	13	
2025-10-13T00:00	31100	9	-53.3		241	14	
2025-10-13T00:00	31150	9	-53.2		243	14	
2025-10-13T00:00	31200	9	-52.8		247	14	
2025-10-13T00:00	31250	9	-52.2		251	15	
2025-10-13T00:00	31300	9	-51.4		254	15	
2025-10-13T00:00	31350	9	-50.9		257	15	
2025-10-13T00:00	31400	9	-50.7		259	15	
2025-10-13T00:00	31450	9	-50.7		261	15	
2025-10-13T00:00	31500	9	-50.6		261	15	
2025-10-13T00:00	31550	9	-50.7		262	17	
2025-10-13T00:00	31600	9	-50.4		262	17	
2025-10-13T00:00	31650	9	-50.3		262	18	
2025-10-13T00:00	31700	9	-50.0		261	18	
2025-10-13T00:00	31750	9	-50.0		260	18	
2025-10-13T00:00	31800	8	-50.3		259	18	
2025-10-13T00:00	31850	8	-50.6		258	18	
2025-10-13T00:00	31900	8	-50.8		258	18	
2025-10-13T00:00	31950	8	-50.8		260	18	
2025-10-13T00:00	32000	8	-50.9		263	18	
2025-10-13T00:00	32050	8	-51.0		266	18	
2025-10-13T00:00	32100	8	-51.3		267	18	
2025-10-13T00:00	32150	8	-50.8		266	17	
2025-10-13T00:00	32200	8	-50.1		263	16	
2025-10-13T00:00	32250	8	-50.2		258	15	
2025-10-13T00:00	32300	8	-50.2		252	15	
2025-10-13T00:00	32350	8	-50.2		248	16	
2025-10-13T00:00	32400	8	-49.9		245	17	
2025-10-13T00:00	32450	8	-49.5		243	19	
2025-10-13T00:00	32500	8	-49.2		240	19	
2025-10-13T00:00	32550	8	-49.1		238	20	
2025-10-13T00:00	32600	8	-49.2		237	20	
2025-10-13T00:00	32650	7	-49.0		237	21	
2025-10-13T00:00	32700	7	-48.6		238	22	
2025-10-13T00:00	32750	7	-48.4		240	23	
2025-10-13T00:00	32800	7	-48.2		244	25	
2025-10-13T00:00	32850	7	-48.3		247	25	
2025-10-13T00:00	32900	7	-48.4		252	26	
2025-10-13T00:00	32950	7	-48.0		256	26	
2025-10-13T00:00	33000	7	-47.7		260	26	
2025-10-13T00:00	33050	7	-47.6		264	26	
2025-10-13T00:00	33100	7	-47.6		267	25	
2025-10-13T00:00	33150	7	-47.5		269	23	
2025-10-13T00:00	33200	7	-47.4		271	22	
2025-10-13T00:00	33250	7	-47.6		274	21	
2025-10-13T00:00	33300	7	-47.7		274	20	
2025-10-13T00:00	33350	7	-47.2		273	20	
2025-10-13T00:00	33400	7	-46.7		270	20	
2025-10-13T00:00	33450	7	-46.7		268	21	
2025-10-13T00:00	33500	7	-46.4		268	20	
2025-10-13T00:00	33550	7	-46.2		269	20	
2025-10-13T00:00	33600	6	-46.0		271	19	
2025-10-13T00:00	33650	6	-45.9		272	20	
2025-10-13T00:00	33700	6	-45.8		272	21	
2025-10-13T00:00	33750	6	-45.5		271	22	
2025-10-13T00:00	33800	6	-45.4		271	23	
2025-10-13T00:00	33850	6	-45.0		273	25	
2025-10-13T00:00	33900	6	-45.1		276	25	
2025-10-13T00:00	33950	6	-44.9		277	26	
2025-10-13T00:00	34000	6	-44.4		275	25	
2025-10-13T00:00	34050	6	-44.4		270	25	
2025-10-13T00:00	34100	6	-44.1		265	25	
2025-10-13T00:00	34150	6	-43.7		259	25	
2025-10-13T00:00	34200	6	-43.7		255	25	
2025-10-13T00:00	34250	6	-43.6		252	25	
2025-10-13T00:00	34300	6	-43.9		250	25	
2025-10-13T00:00	34350	6	-43.6		251	25	
2025-10-13T00:00	34400	6	-42.6		254	25	
2025-10-13T00:00	34450	6	-42.4		257	25	
2025-10-13T00:00	34500	6	-42.7		262	25	
2025-10-13T00:00	34550	6	-42.8		265	24	
2025-10-13T00:00	34600	6	-42.8		267	24	
2025-10-13T00:00	34650	6	-42.4		268	23	
2025-10-13T00:00	34700	5	-41.8		267	22	
2025-10-13T00:00	34750	5	-41.3		266	20	
2025-10-13T00:00	34800	5	-41.4		265	19	
2025-10-13T00:00	34850	5	-41.7		264	18	
2025-10-13T00:00	34900	5	-41.4		262	18	
2025-10-13T00:00	34950	5	-41.2		260	19	
2025-10-13T00:00	35000	5	-41.3		259	21	
2025-10-13T00:00	35050	5	-40.7		259	22	
2025-10-13T00:00	35100	5	-40.1		261	23	
2025-10-13T00:00	35150	5	-39.3		263	24	
2025-10-13T00:00	35200	5	-38.9		264	24	
2025-10-13T00:00	35250	5	-38.1		264	24	
2025-10-13T00:00	35300	5	-37.8		264	25	
2025-10-13T00:00	35350	5	-37.9		266	27	
2025-10-13T00:00	35400	5	-38.1		267	28	
2025-10-13T00:00	35450	5	-38.1		269	29	
2025-10-13T00:00	35500	5	-37.9		269	31	
2025-10-13T00:00	35550	5	-37.8		269	32	
2025-10-13T00:00	35600	5	-37.9		269	32	
2025-10-13T00:00	35650	5	-38.2		270	32	
2025-10-13T00:00	35700	5	-38.1		271	32	
2025-10-13T00:00	35750	5	-37.9		272	31	
2025-10-13T00:00	35800	5	-37.7		274	29	
2025-10-13T00:00	35850	5	-37.5		274	28	
2025-10-13T00:00	35900	5	-37.3		273	26	
2025-10-13T00:00	35950	5	-36.8		272	26	
2025-10-13T00:00	36000	5	-35.5		272	25	
2025-10-13T00:00	36050	4	-35.0		273	25	
2025-10-13T00:00	36100	4	-34.7		274	25	
2025-10-13T00:00	36150	4	-34.6		276	24	
2025-10-13T00:00	36200	4	-34.6		278	23	
2025-10-13T00:00	36250	4	-34.5		277	23	
2025-10-13T00:00	36300	4	-34.2		274	23	
2025-10-13T00:00	36350	4	-33.9		269	23	
2025-10-13T00:00	36400	4	-34.0		264	23	
2025-10-13T00:00	36450	4	-33.7		262	22	
2025-10-13T00:00	36500	4	-33.6		263	21	
2025-10-13T00:00	36550	4	-33.9		264	21	
2025-10-13T00:00	36600	4	-33.7		263	20	
2025-10-13T00:00	36650	4	-33.0		263	20	
2025-10-13T00:00	36700	4	-32.8		264	19	
2025-10-13T00:00	36750	4	-33.0		263	19	
2025-10-13T00:00	36800	4	-32.6		258	19	
2025-10-13T00:00	36850	4	-32.0		253	20	
2025-10-13T00:00	36900	4	-30.9		250	20	
2025-10-13T00:00	36950	4	-30.2		249	20	
2025-10-13T00:00	37000	4	-30.1		249	20	
2025-10-13T00:00	37050	4	-30.1		249	20	
2025-10-13T00:00	37100	4	-30.2		248	21	
2025-10-13T00:00	37150	4	-30.3		248	21	
2025-10-13T00:00	37200	4	-30.1		250	20	
2025-10-13T12:00	491	966	10.9	7.4	26	3	1.9
2025-10-13T12:00	501	965	10.5	6.8	44	3	1.9
2025-10-13T12:00	520	963	10.2	6.6	44	4	1.9
2025-10-13T12:00	540	960	10.0	6.5	43	4	1.9
2025-10-13T12:00	560	958	9.8	6.5	42	4	1.9
2025-10-13T12:00	580	956	9.6	6.6	41	4	1.9
2025-10-13T12:00	600	954	9.4	6.5	41	4	1.9
2025-10-13T12:00	620	951	9.2	6.5	40	4	1.9
2025-10-13T12:00	640	949	9.0	6.5	39	4	1.9
2025-10-13T12:00	660	947	8.8	6.4	37	4	1.9
2025-10-13T12:00	680	944	8.6	6.4	35	4	1.9
2025-10-13T12:00	700	942	8.4	6.3	34	4	1.9
2025-10-13T12:00	720	940	8.2	6.3	34	3	1.9
2025-10-13T12:00	740	937	8.0	6.1	36	3	1.9
2025-10-13T12:00	760	935	7.8	6.2	39	3	1.9
2025-10-13T12:00	780	933	7.6	6.1	42	3	1.9
2025-10-13T12:00	800	931	7.4	6.0	47	3	1.9
2025-10-13T12:00	820	928	7.2	6.1	51	3	1.9
2025-10-13T12:00	840	926	7.1	6.1	56	3	1.9
2025-10-13T12:00	860	924	6.9	6.0	60	3	1.9
2025-10-13T12:00	880	922	6.7	6.0	64	3	1.9
2025-10-13T12:00	900	920	6.5	6.0	68	3	1.9
2025-10-13T12:00	920	917	6.3	6.0	71	3	1.9
2025-10-13T12:00	940	915	6.1	5.9	73	3	1.9
2025-10-13T12:00	960	913	6.0	5.8	74	3	1.9
2025-10-13T12:00	980	911	5.8	5.8	75	3	1.9
2025-10-13T12:00	1000	908	5.6	5.6	74	3	1.9
2025-10-13T12:00	1020	906	5.5	5.5	74	3	1.9
2025-10-13T12:00	1040	904	5.4	5.4	74	2	1.9
2025-10-13T12:00	1060	902	5.3	5.3	74	2	1.9
2025-10-13T12:00	1080	900	5.2	5.2	73	2	1.9
2025-10-13T12:00	1100	898	5.1	5.1	73	2	1.9
2025-10-13T12:00	1120	895	5.0	5.0	72	2	1.9
2025-10-13T12:00	1140	893	4.9	4.9	71	2	1.9
2025-10-13T12:00	1160	891	4.7	4.7	71	2	1.9
2025-10-13T12:00	1180	889	4.6	4.6	71	2	1.9
2025-10-13T12:00	1200	886	4.5	4.5	72	2	1.9
2025-10-13T12:00	1220	884	4.4	4.4	73	2	1.8
2025-10-13T12:00	1240	882	4.3	4.3	74	2	1.9
2025-10-13T12:00	1260	880	4.1	4.1	75	2	1.9
2025-10-13T12:00	1280	878	4.1	4.1	76	3	1.9
2025-10-13T12:00	1300	876	4.0	4.0	77	3	1.9
2025-10-13T12:00	1320	874	3.9	3.9	77	3	1.9
2025-10-13T12:00	1340	871	3.7	3.5	78	4	1.9
2025-10-13T12:00	1360	869	4.2	0.5	78	4	1.9
2025-10-13T12:00	1380	867	4.8	-2.5	79	5	2.2
2025-10-13T12:00	1400	865	5.1	-2.5	80	5	2.5
2025-10-13T12:00	1420	863	5.8	-2.7	81	5	2.9
2025-10-13T12:00	1440	861	6.2	-4.3	81	6	3.1
2025-10-13T12:00	1460	859	6.7	-6.8	82	6	3.4
2025-10-13T12:00	1480	857	7.8	-5.8	82	5	3.7
2025-10-13T12:00	1500	854	9.1	-5.5	82	5	3.9
2025-10-13T12:00	1520	852	10.1	-6.6	82	5	4.0
2025-10-13T12:00	1540	850	10.8	-10.1	81	4	4.2
2025-10-13T12:00	1560	848	11.2	-10.7	81	4	4.3
2025-10-13T12:00	1580	846	11.4	-8.0	80	4	4.4
2025-10-13T12:00	1600	844	11.4	-9.3	79	4	4.4
2025-10-13T12:00	1620	842	11.4	-9.5	78	3	4.5
2025-10-13T12:00	1640	840	11.4	-8.8	78	4	4.5
2025-10-13T12:00	1660	838	11.5	-8.2	76	4	4.5
2025-10-13T12:00	1680	836	11.5	-8.2	75	4	4.5
2025-10-13T12:00	1700	834	11.5	-8.4	74	4	4.6
2025-10-13T12:00	1720	832	11.4	-8.5	73	4	4.6
2025-10-13T12:00	1740	830	11.4	-8.6	72	4	4.6
2025-10-13T12:00	1760	828	11.4	-8.6	72	4	4.6
2025-10-13T12:00	1780	826	11.3	-9.1	71	4	4.6
2025-10-13T12:00	1800	824	11.3	-9.9	71	4	4.6
2025-10-13T12:00	1820	822	11.3	-9.3	71	4	4.6
2025-10-13T12:00	1840	820	11.1	-8.5	70	4	4.6
2025-10-13T12:00	1860	818	10.9	-8.6	70	4	4.6
2025-10-13T12:00	1880	816	10.8	-8.8	69	4	4.6
2025-10-13T12:00	1900	814	10.7	-9.0	69	4	4.6
2025-10-13T12:00	1920	812	10.5	-10.4	69	4	4.6
2025-10-13T12:00	1940	810	10.5	-11.3	70	4	4.6
2025-10-13T12:00	1960	809	10.4	-10.8	70	4	4.6
2025-10-13T12:00	1980	807	10.3	-9.6	72	4	4.6
2025-10-13T12:00	2000	805	10.1	-9.6	73	4	4.7
2025-10-13T12:00	2020	803	9.9	-9.9	76	4	4.7
2025-10-13T12:00	2040	801	9.8	-9.7	78	4	4.7
2025-10-13T12:00	2060	799	9.7	-9.4	79	4	4.7
2025-10-13T12:00	2080	797	9.6	-9.3	81	3	4.7
2025-10-13T12:00	2100	795	9.6	-9.5	82	3	4.7
2025-10-13T12:00	2120	793	9.5	-9.5	81	3	4.7
2025-10-13T12:00	2140	791	9.4	-10.2	78	3	4.7
2025-10-13T12:00	2160	789	9.4	-11.8	75	2	4.7
2025-10-13T12:00	2180	787	9.4	-12.6	71	2	4.7
2025-10-13T12:00	2200	785	9.3	-12.6	67	2	4.7
2025-10-13T12:00	2220	783	9.1	-12.2	64	2	4.7
2025-10-13T12:00	2240	782	8.9	-12.2	62	2	4.7
2025-10-13T12:00	2260	780	8.7	-11.4	60	2	4.7
2025-10-13T12:00	2280	778	8.5	-10.3	59	2	4.7
2025-10-13T12:00	2300	776	8.4	-10.9	57	2	4.7
2025-10-13T12:00	2320	774	8.3	-12.2	56	2	4.7
2025-10-13T12:00	2340	772	8.1	-11.9	56	2	4.8
2025-10-13T12:00	2360	770	7.9	-12.4	57	2	4.8
2025-10-13T12:00	2380	768	7.9	-13.2	59	2	4.8
2025-10-13T12:00	2400	767	7.7	-14.1	61	2	4.8
2025-10-13T12:00	2420	765	7.6	-16.5	63	2	4.9
2025-10-13T12:00	2440	763	7.6	-19.8	65	2	4.8
2025-10-13T12:00	2460	761	7.4	-19.6	67	2	4.8
2025-10-13T12:00	2480	759	7.4	-16.8	69	2	4.8
2025-10-13T12:00	2500	757	7.1	-16.0	71	2	4.8
2025-10-13T12:00	2520	755	6.9	-17.0	72	2	4.8
2025-10-13T12:00	2540	754	6.9	-18.3	73	2	4.8
2025-10-13T12:00	2560	752	6.7	-18.9	73	2	4.8
2025-10-13T12:00	2580	750	6.5	-18.7	73	2	4.7
2025-10-13T12:00	2600	748	6.3	-19.4	72	2	4.7
2025-10-13T12:00	2620	746	6.2	-17.5	72	2	4.7
2025-10-13T12:00	2640	745	6.0	-15.8	73	2	4.7
2025-10-13T12:00	2660	743	5.8	-16.8	73	2	4.7
2025-10-13T12:00	2680	741	5.7	-17.5	74	3	4.7
2025-10-13T12:00	2700	739	5.5	-18.5	76	3	4.6
2025-10-13T12:00	2720	737	5.4	-17.8	77	3	4.6
2025-10-13T12:00	2740	736	5.3	-16.9	78	3	4.6
2025-10-13T12:00	2760	734	5.1	-17.0	80	3	4.6
2025-10-13T12:00	2780	732	5.0	-16.5	81	3	4.6
2025-10-13T12:00	2800	730	4.9	-15.0	81	4	4.6
2025-10-13T12:00	2820	728	4.7	-13.8	82	4	4.6
2025-10-13T12:00	2840	727	4.4	-14.1	82	4	4.6
2025-10-13T12:00	2860	725	4.3	-14.1	81	4	4.6
2025-10-13T12:00	2880	723	4.0	-13.4	80	4	4.6
2025-10-13T12:00	2900	721	3.9	-13.4	78	3	4.6
2025-10-13T12:00	2920	719	3.7	-13.5	77	3	4.6
2025-10-13T12:00	2940	717	3.5	-13.7	75	3	4.5
2025-10-13T12:00	2960	716	3.4	-13.9	74	3	4.5
2025-10-13T12:00	2980	714	3.2	-14.4	74	2	4.5
2025-10-13T12:00	3000	712	3.0	-14.7	74	2	4.5
2025-10-13T12:00	3020	710	2.9	-13.1	75	3	4.5
2025-10-13T12:00	3040	709	2.7	-12.5	75	3	4.5
2025-10-13T12:00	3060	707	2.5	-12.4	74	3	4.5
2025-10-13T12:00	3080	705	2.4	-12.4	74	3	4.4
2025-10-13T12:00	3100	704	2.2	-12.5	73	3	4.4
2025-10-13T12:00	3120	702	2.0	-12.9	73	3	4.4
2025-10-13T12:00	3140	700	1.9	-13.3	73	4	4.3
2025-10-13T12:00	3160	698	1.7	-13.4	74	4	4.3
2025-10-13T12:00	3180	696	1.5	-13.5	75	4	4.3
2025-10-13T12:00	3200	695	1.4	-13.6	76	4	4.3
2025-10-13T12:00	3220	693	1.2	-13.7	79	4	4.3
2025-10-13T12:00	3240	692	1.1	-13.6	81	4	4.3
2025-10-13T12:00	3260	690	0.9	-13.9	84	4	4.3
2025-10-13T12:00	3280	688	0.8	-14.1	88	4	4.3
2025-10-13T12:00	3300	687	0.5	-14.2	91	4	4.3
2025-10-13T12:00	3320	685	0.4	-15.3	94	4	4.3
2025-10-13T12:00	3340	683	0.3	-15.7	96	4	4.3
2025-10-13T12:00	3360	681	0.1	-15.5	98	4	4.3
2025-10-13T12:00	3380	680	-0.1	-16.6	99	4	4.3
2025-10-13T12:00	3400	678	-0.2	-18.8	99	4	4.3
2025-10-13T12:00	3420	676	-0.3	-19.9	99	4	4.3
2025-10-13T12:00	3440	674	-0.4	-20.0	100	4	4.3
2025-10-13T12:00	3460	673	-0.5	-20.7	100	4	4.3
2025-10-13T12:00	3480	671	-0.7	-21.3	99	4	4.3
2025-10-13T12:00	3500	669	-0.6	-21.7	97	4	4.3
2025-10-13T12:00	3520	668	-0.6	-21.8	94	4	4.3
2025-10-13T12:00	3540	666	-0.7	-22.1	90	4	4.3
2025-10-13T12:00	3560	664	-0.8	-22.1	86	4	4.4
2025-10-13T12:00	3580	663	-0.9	-22.5	82	4	4.4
2025-10-13T12:00	3600	661	-1.1	-22.9	78	4	4.4
2025-10-13T12:00	3620	659	-1.1	-23.8	74	4	4.4
2025-10-13T12:00	3640	658	-1.1	-24.4	71	4	4.4
2025-10-13T12:00	3660	656	-1.1	-24.9	68	4	4.4
2025-10-13T12:00	3680	654	-1.2	-25.2	66	5	4.5
2025-10-13T12:00	3700	653	-1.3	-25.3	64	5	4.5
2025-10-13T12:00	3720	651	-1.4	-25.9	63	5	4.5
2025-10-13T12:00	3740	649	-1.5	-27.3	63	5	4.5
2025-10-13T12:00	3760	648	-1.7	-28.8	62	5	4.5
2025-10-13T12:00	3780	646	-1.8	-30.4	62	5	4.5
2025-10-13T12:00	3800	645	-2.0	-30.6	63	5	4.5
2025-10-13T12:00	3820	643	-2.2	-27.7	63	5	4.5
2025-10-13T12:00	3840	641	-2.3	-25.0	63	5	4.5
2025-10-13T12:00	3860	640	-2.4	-26.2	64	4	4.5
2025-10-13T12:00	3880	638	-2.6	-27.0	64	4	4.4
2025-10-13T12:00	3900	637	-2.8	-27.1	65	4	4.4
2025-10-13T12:00	3920	635	-2.9	-27.6	66	4	4.4
2025-10-13T12:00	3940	634	-3.0	-29.7	67	4	4.4
2025-10-13T12:00	3960	632	-3.2	-25.1	69	4	4.4
2025-10-13T12:00	3980	630	-3.5	-20.1	72	4	4.3
2025-10-13T12:00	4000	629	-3.6	-18.6	75	4	4.3
2025-10-13T12:00	4020	627	-3.8	-18.7	79	4	4.3
2025-10-13T12:00	4040	625	-4.0	-19.8	81	3	4.2
2025-10-13T12:00	4060	624	-4.2	-19.8	82	3	4.2
2025-10-13T12:00	4080	622	-4.2	-17.4	83	3	4.2
2025-10-13T12:00	4100	621	-4.3	-16.0	84	3	4.1
2025-10-13T12:00	4120	619	-4.5	-15.2	83	3	4.0
2025-10-13T12:00	4140	618	-4.7	-15.2	81	3	4.0
2025-10-13T12:00	4160	616	-4.9	-15.0	78	3	3.9
2025-10-13T12:00	4180	614	-5.1	-14.2	74	3	3.9
2025-10-13T12:00	4200	613	-5.2	-13.9	71	3	3.8
2025-10-13T12:00	4220	611	-5.4	-13.3	66	3	3.7
2025-10-13T12:00	4240	610	-5.7	-12.9	62	3	3.7
2025-10-13T12:00	4260	608	-5.8	-12.9	58	3	3.6
2025-10-13T12:00	4280	607	-5.9	-13.4	54	3	3.5
2025-10-13T12:00	4300	605	-6.1	-13.1	50	3	3.4
2025-10-13T12:00	4320	603	-6.2	-13.0	46	3	3.4
2025-10-13T12:00	4340	602	-6.4	-13.0	44	3	3.3
2025-10-13T12:00	4360	600	-6.5	-13.4	44	3	3.3
2025-10-13T12:00	4380	599	-6.6	-13.7	45	3	3.3
2025-10-13T12:00	4400	598	-6.8	-14.3	46	3	3.2
2025-10-13T12:00	4420	596	-7.0	-14.6	47	3	3.1
2025-10-13T12:00	4440	594	-7.1	-15.1	49	3	3.1
2025-10-13T12:00	4460	593	-7.3	-15.2	49	3	3.1
2025-10-13T12:00	4480	591	-7.5	-15.2	49	4	3.1
2025-10-13T12:00	4500	590	-7.7	-15.4	48	3	3.1
2025-10-13T12:00	4520	588	-7.8	-16.3	47	3	3.1
2025-10-13T12:00	4540	587	-7.9	-16.8	46	3	3.1
2025-10-13T12:00	4560	585	-8.0	-16.7	46	3	3.1
2025-10-13T12:00	4580	584	-8.2	-16.8	46	3	3.1
2025-10-13T12:00	4600	582	-8.3	-17.1	47	3	3.1
2025-10-13T12:00	4620	581	-8.5	-17.3	48	3	3.1
2025-10-13T12:00	4640	579	-8.6	-17.2	50	3	3.1
2025-10-13T12:00	4660	578	-8.7	-16.9	53	2	3.1
2025-10-13T12:00	4680	576	-8.9	-16.7	55	2	3.1
2025-10-13T12:00	4700	575	-9.1	-16.6	56	2	3.1
2025-10-13T12:00	4720	573	-9.2	-16.8	55	2	3.1
2025-10-13T12:00	4740	572	-9.3	-17.5	53	2	3.1
2025-10-13T12:00	4760	570	-9.5	-17.1	51	2	3.0
2025-10-13T12:00	4780	569	-9.7	-18.5	48	2	3.0
2025-10-13T12:00	4800	567	-9.8	-19.0	46	2	3.1
2025-10-13T12:00	4820	566	-10.0	-19.0	45	2	3.1
2025-10-13T12:00	4840	564	-10.1	-18.6	45	2	3.1
2025-10-13T12:00	4860	563	-10.4	-18.5	45	2	3.1
2025-10-13T12:00	4880	561	-10.5	-18.9	45	2	3.0
2025-10-13T12:00	4900	560	-10.6	-19.3	44	1	3.0
2025-10-13T12:00	4920	558	-10.8	-19.4	42	1	3.0
2025-10-13T12:00	4940	557	-10.9	-19.2	38	1	3.0
2025-10-13T12:00	4960	556	-11.1	-19.1	31	1	3.0
2025-10-13T12:00	4980	554	-11.3	-18.7	21	1	3.0
2025-10-13T12:00	5000	553	-11.4	-18.5	11	1	3.0
2025-10-13T12:00	5020	551	-11.6	-18.2	359	1	3.0
2025-10-13T12:00	5040	550	-11.8	-18.8	347	1	3.0
2025-10-13T12:00	5060	548	-12.0	-19.1	335	1	3.0
2025-10-13T12:00	5080	547	-12.1	-19.0	322	1	2.9
2025-10-13T12:00	5100	545	-12.3	-18.2	311	0	2.9
2025-10-13T12:00	5120	544	-12.5	-18.3	302	1	2.8
2025-10-13T12:00	5140	543	-12.5	-18.3	300	1	2.9
2025-10-13T12:00	5160	541	-12.7	-18.0	302	1	2.9
2025-10-13T12:00	5180	540	-12.9	-18.3	306	1	2.8
2025-10-13T12:00	5200	539	-13.0	-18.7	310	1	2.8
2025-10-13T12:00	5220	537	-13.1	-19.3	312	2	2.7
2025-10-13T12:00	5240	536	-13.2	-19.4	313	2	2.7
2025-10-13T12:00	5260	534	-13.4	-19.8	314	2	2.7
2025-10-13T12:00	5280	533	-13.5	-20.4	315	2	2.7
2025-10-13T12:00	5300	531	-13.7	-20.5	315	3	2.7
2025-10-13T12:00	5320	530	-13.7	-20.5	316	3	2.8
2025-10-13T12:00	5340	529	-13.9	-20.7	316	3	2.8
2025-10-13T12:00	5360	527	-14.1	-20.9	317	3	2.8
2025-10-13T12:00	5380	526	-14.2	-21.5	318	3	2.8
2025-10-13T12:00	5400	525	-14.3	-21.8	319	2	2.8
2025-10-13T12:00	5420	523	-14.4	-22.7	321	2	2.7
2025-10-13T12:00	5440	522	-14.6	-23.6	325	2	2.7
2025-10-13T12:00	5460	520	-14.8	-24.7	332	2	2.7
2025-10-13T12:00	5480	519	-14.8	-26.6	339	2	2.8
2025-10-13T12:00	5500	517	-14.8	-29.8	347	2	2.8
2025-10-13T12:00	5520	516	-14.8	-30.1	356	2	2.8
2025-10-13T12:00	5540	515	-14.8	-28.9	2	2	2.9
2025-10-13T12:00	5560	514	-14.9	-29.5	7	2	2.9
2025-10-13T12:00	5580	512	-14.9	-30.0	10	2	3.0
2025-10-13T12:00	5600	511	-14.9	-31.4	13	2	3.0
2025-10-13T12:00	5620	510	-15.1	-32.4	13	3	3.1
2025-10-13T12:00	5640	508	-15.3	-33.3	13	3	3.1
2025-10-13T12:00	5660	507	-15.4	-33.6	11	3	3.1
2025-10-13T12:00	5680	505	-15.6	-33.9	11	3	3.2
2025-10-13T12:00	5700	504	-15.8	-34.0	10	3	3.2
2025-10-13T12:00	5720	503	-15.9	-34.5	10	3	3.2
2025-10-13T12:00	5740	501	-16.1	-34.9	9	3	3.3
2025-10-13T12:00	5760	500	-16.2	-35.3	9	3	3.2
2025-10-13T12:00	5780	499	-16.4	-35.9	9	3	3.2
2025-10-13T12:00	5800	498	-16.5	-37.2	9	3	3.3
2025-10-13T12:00	5820	496	-16.6	-37.1	9	3	3.3
2025-10-13T12:00	5840	495	-16.7	-36.2	8	3	3.4
2025-10-13T12:00	5860	493	-16.8	-36.1	8	3	3.3
2025-10-13T12:00	5880	492	-16.8	-35.2	9	3	3.3
2025-10-13T12:00	5900	491	-17.0	-34.5	11	3	3.3
2025-10-13T12:00	5920	490	-17.1	-34.6	14	3	3.3
2025-10-13T12:00	5940	488	-17.4	-34.8	18	3	3.4
2025-10-13T12:00	5960	487	-17.5	-35.3	22	3	3.3
2025-10-13T12:00	5980	486	-17.7	-36.4	26	3	3.3
2025-10-13T12:00	6000	484	-17.9	-36.0	30	3	3.3
2025-10-13T12:00	6020	483	-18.0	-35.8	34	3	3.3
2025-10-13T12:00	6040	482	-18.1	-36.6	37	3	3.3
2025-10-13T12:00	6060	481	-18.2	-37.4	40	4	3.3
2025-10-13T12:00	6080	479	-18.3	-37.4	42	4	3.3
2025-10-13T12:00	6100	478	-18.5	-35.4	44	4	3.3
2025-10-13T12:00	6120	477	-18.7	-35.2	45	4	3.3
2025-10-13T12:00	6140	475	-18.8	-37.0	45	4	3.3
2025-10-13T12:00	6160	474	-18.9	-38.6	45	4	3.3
2025-10-13T12:00	6180	473	-19.0	-39.0	44	4	3.4
2025-10-13T12:00	6200	471	-19.2	-38.7	43	4	3.4
2025-10-13T12:00	6220	470	-19.3	-38.0	41	4	3.4
2025-10-13T12:00	6240	469	-19.4	-37.3	39	3	3.4
2025-10-13T12:00	6260	468	-19.6	-37.0	37	3	3.4
2025-10-13T12:00	6280	467	-19.7	-37.9	34	3	3.4
2025-10-13T12:00	6300	465	-19.8	-40.6	31	3	3.4
2025-10-13T12:00	6320	464	-19.8	-43.2	28	3	3.4
2025-10-13T12:00	6340	463	-19.8	-44.3	25	3	3.5
2025-10-13T12:00	6360	461	-19.9	-42.8	24	3	3.5
2025-10-13T12:00	6380	460	-20.0	-42.7	23	3	3.5
2025-10-13T12:00	6400	459	-20.2	-42.0	23	3	3.6
2025-10-13T12:00	6420	458	-20.4	-41.2	23	3	3.6
2025-10-13T12:00	6440	456	-20.5	-39.9	24	3	3.6
2025-10-13T12:00	6460	455	-20.7	-39.2	23	3	3.6
2025-10-13T12:00	6480	454	-20.8	-39.5	23	4	3.6
2025-10-13T12:00	6500	453	-20.9	-39.0	22	4	3.5
2025-10-13T12:00	6520	452	-21.0	-39.8	21	3	3.5
2025-10-13T12:00	6540	450	-21.2	-38.8	19	3	3.5
2025-10-13T12:00	6560	449	-21.3	-38.4	17	3	3.5
2025-10-13T12:00	6580	448	-21.4	-38.8	15	3	3.4
2025-10-13T12:00	6600	447	-21.5	-39.6	14	3	3.4
2025-10-13T12:00	6620	445	-21.6	-40.0	14	3	3.4
2025-10-13T12:00	6640	444	-21.9	-39.9	14	3	3.3
2025-10-13T12:00	6660	443	-21.9	-39.8	14	3	3.3
2025-10-13T12:00	6680	442	-22.1	-39.5	15	4	3.3
2025-10-13T12:00	6700	441	-22.1	-40.1	17	4	3.3
2025-10-13T12:00	6720	440	-22.3	-40.5	18	4	3.2
2025-10-13T12:00	6740	438	-22.5	-40.6	19	5	3.2
2025-10-13T12:00	6760	437	-22.6	-40.8	20	5	3.2
2025-10-13T12:00	6780	436	-22.8	-41.3	22	5	3.2
2025-10-13T12:00	6800	435	-22.9	-41.5	24	5	3.2
2025-10-13T12:00	6820	434	-23.0	-41.6	26	5	3.3
2025-10-13T12:00	6840	432	-23.1	-42.0	29	5	3.3
2025-10-13T12:00	6860	431	-23.2	-42.5	32	5	3.3
2025-10-13T12:00	6880	430	-23.5	-42.6	34	5	3.3
2025-10-13T12:00	6900	429	-23.7	-43.0	37	5	3.2
2025-10-13T12:00	6920	428	-23.9	-43.1	38	5	3.2
2025-10-13T12:00	6940	427	-24.0	-43.1	40	5	3.1
2025-10-13T12:00	6960	425	-24.2	-43.3	41	5	3.1
2025-10-13T12:00	6980	424	-24.3	-43.5	42	5	3.1
2025-10-13T12:00	7000	423	-24.5	-43.7	42	5	3.1
2025-10-13T12:00	7020	422	-24.6	-43.6	42	5	3.1
2025-10-13T12:00	7040	421	-24.7	-43.4	42	5	3.0
2025-10-13T12:00	7060	420	-24.9	-43.2	41	5	3.0
2025-10-13T12:00	7080	418	-25.1	-43.2	41	5	3.0
2025-10-13T12:00	7100	417	-25.3	-43.4	41	5	3.0
2025-10-13T12:00	7120	416	-25.5	-43.6	41	5	3.0
2025-10-13T12:00	7140	415	-25.6	-43.2	42	5	3.0
2025-10-13T12:00	7160	414	-25.8	-42.8	43	5	2.9
2025-10-13T12:00	7180	413	-26.0	-42.5	44	5	2.9
2025-10-13T12:00	7200	412	-26.0	-42.4	45	5	2.9
2025-10-13T12:00	7220	410	-26.2	-42.1	47	4	2.9
2025-10-13T12:00	7240	409	-26.4	-42.3	47	4	2.9
2025-10-13T12:00	7260	408	-26.6	-43.1	47	4	2.8
2025-10-13T12:00	7280	407	-26.7	-43.8	47	5	2.8
2025-10-13T12:00	7300	406	-26.8	-44.7	46	5	2.9
2025-10-13T12:00	7320	405	-26.9	-45.4	45	5	2.9
2025-10-13T12:00	7340	404	-27.0	-45.8	44	5	3.0
2025-10-13T12:00	7360	403	-27.1	-46.2	43	5	3.0
2025-10-13T12:00	7380	401	-27.1	-46.6	42	5	3.0
2025-10-13T12:00	7400	400	-27.3	-46.9	42	5	3.0
2025-10-13T12:00	7420	399	-27.4	-47.6	41	5	3.0
2025-10-13T12:00	7440	398	-27.5	-48.5	41	5	3.0
2025-10-13T12:00	7460	397	-27.5	-48.6	41	5	3.0
2025-10-13T12:00	7480	396	-27.6	-48.6	41	5	3.0
2025-10-13T12:00	7500	395	-27.8	-48.7	41	5	3.0
2025-10-13T12:00	7520	394	-28.0	-48.8	42	5	2.9
2025-10-13T12:00	7540	392	-28.2	-48.9	43	6	2.9
2025-10-13T12:00	7560	391	-28.4	-49.1	43	6	2.9
2025-10-13T12:00	7580	390	-28.5	-49.5	44	6	2.9
2025-10-13T12:00	7600	389	-28.6	-49.9	44	6	2.8
2025-10-13T12:00	7620	388	-28.8	-50.3	44	6	2.8
2025-10-13T12:00	7640	387	-28.9	-50.4	45	6	2.8
2025-10-13T12:00	7660	386	-29.1	-50.7	45	6	2.7
2025-10-13T12:00	7680	385	-29.2	-50.8	45	6	2.7
2025-10-13T12:00	7700	384	-29.5	-50.8	46	6	2.6
2025-10-13T12:00	7720	383	-29.7	-50.7	46	6	2.6
2025-10-13T12:00	7740	382	-29.8	-50.4	47	6	2.6
2025-10-13T12:00	7760	381	-29.9	-50.0	47	6	2.5
2025-10-13T12:00	7780	380	-30.1	-48.9	47	6	2.5
2025-10-13T12:00	7800	379	-30.3	-47.8	48	6	2.4
2025-10-13T12:00	7820	377	-30.4	-47.8	48	6	2.4
2025-10-13T12:00	7840	376	-30.5	-47.7	48	6	2.3
2025-10-13T12:00	7860	375	-30.7	-47.5	47	6	2.2
2025-10-13T12:00	7880	374	-30.9	-47.3	47	6	2.1
2025-10-13T12:00	7900	373	-31.2	-47.1	46	6	2.1
2025-10-13T12:00	7920	372	-31.4	-47.1	46	6	2.0
2025-10-13T12:00	7940	371	-31.5	-46.9	46	6	2.0
2025-10-13T12:00	7960	370	-31.7	-46.9	46	6	2.0
2025-10-13T12:00	7980	369	-32.0	-47.0	46	6	2.0
2025-10-13T12:00	8000	368	-32.2	-47.0	47	6	2.0
2025-10-13T12:00	8020	367	-32.4	-47.2	49	6	1.9
2025-10-13T12:00	8040	366	-32.6	-47.6	50	6	1.9
2025-10-13T12:00	8060	365	-32.8	-48.3	52	6	1.9
2025-10-13T12:00	8080	364	-32.9	-49.2	54	5	1.9
2025-10-13T12:00	8100	363	-33.1	-49.8	55	5	1.9
2025-10-13T12:00	8120	362	-33.3	-50.1	57	5	1.9
2025-10-13T12:00	8140	361	-33.5	-50.1	57	5	1.9
2025-10-13T12:00	8160	360	-33.6	-50.2	58	5	1.9
2025-10-13T12:00	8180	359	-33.8	-50.3	57	5	1.8
2025-10-13T12:00	8200	358	-34.0	-49.9	57	4	1.8
2025-10-13T12:00	8220	357	-34.2	-49.6	56	4	1.8
2025-10-13T12:00	8240	356	-34.4	-49.9	55	4	1.8
2025-10-13T12:00	8260	355	-34.6	-50.0	54	4	1.8
2025-10-13T12:00	8280	354	-34.7	-49.9	54	4	1.8
2025-10-13T12:00	8300	353	-34.9	-49.7	53	4	1.8
2025-10-13T12:00	8320	351	-35.0	-49.3	52	4	1.8
2025-10-13T12:00	8340	350	-35.2	-49.3	52	4	1.8
2025-10-13T12:00	8360	349	-35.5	-49.5	51	4	1.8
2025-10-13T12:00	8380	349	-35.6	-49.4	50	5	1.8
2025-10-13T12:00	8400	348	-35.8	-49.3	49	5	1.9
2025-10-13T12:00	8420	346	-36.0	-49.1	48	5	1.9
2025-10-13T12:00	8440	345	-36.1	-49.1	47	5	1.9
2025-10-13T12:00	8460	345	-36.3	-49.1	46	5	1.9
2025-10-13T12:00	8480	344	-36.4	-49.1	45	5	1.9
2025-10-13T12:00	8500	343	-36.6	-48.9	43	5	1.9
2025-10-13T12:00	8520	342	-36.8	-48.8	42	5	2.0
2025-10-13T12:00	8540	341	-36.9	-48.9	40	5	2.0
2025-10-13T12:00	8560	340	-37.2	-48.7	39	5	2.0
2025-10-13T12:00	8580	338	-37.3	-48.5	37	5	2.0
2025-10-13T12:00	8600	338	-37.5	-48.2	36	5	2.1
2025-10-13T12:00	8620	337	-37.7	-47.6	35	5	2.1
2025-10-13T12:00	8640	336	-37.8	-47.6	35	5	2.1
2025-10-13T12:00	8660	335	-37.9	-47.8	35	5	2.1
2025-10-13T12:00	8680	334	-38.1	-48.0	35	4	2.2
2025-10-13T12:00	8700	333	-38.4	-47.9	37	4	2.2
2025-10-13T12:00	8720	332	-38.5	-48.1	38	4	2.2
2025-10-13T12:00	8740	331	-38.7	-48.1	40	4	2.2
2025-10-13T12:00	8760	330	-38.9	-47.9	41	5	2.2
2025-10-13T12:00	8780	329	-39.0	-48.1	43	5	2.2
2025-10-13T12:00	8800	328	-39.2	-48.3	45	5	2.2
2025-10-13T12:00	8820	327	-39.4	-48.2	46	5	2.2
2025-10-13T12:00	8840	326	-39.6	-47.9	46	5	2.2
2025-10-13T12:00	8860	325	-39.7	-48.1	46	5	2.2
2025-10-13T12:00	8880	324	-39.9	-48.4	46	5	2.1
2025-10-13T12:00	8900	323	-40.1	-48.6	45	5	2.1
2025-10-13T12:00	8920	322	-40.4	-48.2	45	5	2.1
2025-10-13T12:00	8940	321	-40.6	-48.2	43	4	2.1
2025-10-13T12:00	8960	320	-40.8	-48.5	42	4	2.1
2025-10-13T12:00	8980	319	-40.9	-48.5	40	4	2.1
2025-10-13T12:00	9000	318	-41.1	-48.4	39	4	2.1
2025-10-13T12:00	9020	318	-41.2	-48.4	37	4	2.0
2025-10-13T12:00	9040	317	-41.4	-49.1	36	4	2.0
2025-10-13T12:00	9060	316	-41.5	-49.0	34	4	2.1
2025-10-13T12:00	9080	315	-41.7	-49.0	34	3	2.1
2025-10-13T12:00	9100	314	-42.0	-49.0	34	3	2.1
2025-10-13T12:00	9120	313	-42.1	-49.1	34	3	2.1
2025-10-13T12:00	9140	312	-42.3	-49.5	34	4	2.1
2025-10-13T12:00	9160	311	-42.6	-49.8	34	4	2.1
2025-10-13T12:00	9180	310	-42.7	-50.0	34	4	2.1
2025-10-13T12:00	9200	309	-42.8	-50.4	33	4	2.1
2025-10-13T12:00	9220	308	-43.0	-50.4	32	3	2.1
2025-10-13T12:00	9240	307	-43.1	-49.9	31	3	2.1
2025-10-13T12:00	9260	307	-43.3	-49.9	30	3	2.1
2025-10-13T12:00	9280	306	-43.4	-50.5	29	3	2.1
2025-10-13T12:00	9300	305	-43.6	-50.8	29	3	2.1
2025-10-13T12:00	9320	304	-43.8	-50.9	29	3	2.1
2025-10-13T12:00	9340	303	-44.0	-50.9	29	3	2.1
2025-10-13T12:00	9360	302	-44.1	-51.5	30	3	2.1
2025-10-13T12:00	9380	301	-44.2	-52.4	30	3	2.1
2025-10-13T12:00	9400	300	-44.5	-52.3	31	3	2.1
2025-10-13T12:00	9420	299	-44.7	-52.0	31	3	2.1
2025-10-13T12:00	9440	298	-44.8	-51.9	30	3	2.1
2025-10-13T12:00	9460	297	-45.0	-51.8	30	3	2.1
2025-10-13T12:00	9480	297	-45.3	-51.6	30	3	2.1
2025-10-13T12:00	9500	296	-45.4	-51.6	29	3	2.1
2025-10-13T12:00	9520	295	-45.6	-52.3	29	3	2.0
2025-10-13T12:00	9540	294	-45.8	-52.5	29	3	2.0
2025-10-13T12:00	9560	293	-46.0	-52.5	29	3	2.0
2025-10-13T12:00	9580	292	-46.1	-52.4	29	3	2.0
2025-10-13T12:00	9600	291	-46.3	-52.1	29	3	2.0
2025-10-13T12:00	9620	290	-46.5	-51.7	29	2	2.0
2025-10-13T12:00	9640	289	-46.7	-51.8	28	2	1.9
2025-10-13T12:00	9660	289	-46.8	-52.0	28	2	1.9
2025-10-13T12:00	9680	288	-46.9	-52.1	27	2	1.9
2025-10-13T12:00	9700	287	-47.1	-52.2	26	2	1.9
2025-10-13T12:00	9720	286	-47.3	-52.6	24	2	1.9
2025-10-13T12:00	9740	285	-47.5	-52.8	22	2	1.8
2025-10-13T12:00	9760	284	-47.6	-52.8	18	2	1.8
2025-10-13T12:00	9780	283	-47.8	-52.9	15	2	1.8
2025-10-13T12:00	9800	283	-48.0	-52.9	11	2	1.8
2025-10-13T12:00	9820	282	-48.2	-53.0	5	2	1.8
2025-10-13T12:00	9840	281	-48.3	-53.5	359	2	1.8
2025-10-13T12:00	9860	280	-48.5	-54.0	352	2	1.8
2025-10-13T12:00	9880	279	-48.7	-54.0	344	2	1.8
2025-10-13T12:00	9900	278	-48.8	-53.9	337	2	1.8
2025-10-13T12:00	9920	277	-49.0	-54.1	331	2	1.8
2025-10-13T12:00	9940	277	-49.2	-54.3	326	2	1.8
2025-10-13T12:00	9960	276	-49.3	-54.8	323	2	1.8
2025-10-13T12:00	9980	275	-49.4	-55.3	323	2	1.8
2025-10-13T12:00	10000	274	-49.5	-55.7	323	2	1.8
2025-10-13T12:00	10018	273	-49.7	-56.0	325	2	1.7
2025-10-13T12:00	10050	272	-49.9	-56.2	328	2	1.7
2025-10-13T12:00	10100	270	-50.2	-56.5	332	2	1.6
2025-10-13T12:00	10150	268	-50.7	-56.9	332	3	1.6
2025-10-13T12:00	10200	266	-51.1	-57.7	329	3	1.6
2025-10-13T12:00	10250	264	-51.4	-58.3	322	3	1.7
2025-10-13T12:00	10300	262	-51.5	-58.7	310	3	1.7
2025-10-13T12:00	10350	260	-51.7	-59.3	298	4	1.8
2025-10-13T12:00	10400	258	-51.9	-61.9	291	4	1.9
2025-10-13T12:00	10450	256	-52.1	-63.3	286	5	2.0
2025-10-13T12:00	10500	254	-52.4	-63.0	281	5	2.0
2025-10-13T12:00	10550	252	-52.9	-62.2	275	5	2.0
2025-10-13T12:00	10600	250	-53.2	-62.1	270	6	1.9
2025-10-13T12:00	10650	248	-53.6	-62.4	268	6	1.8
2025-10-13T12:00	10700	246	-53.9	-63.2	268	6	1.7
2025-10-13T12:00	10750	244	-54.2	-64.1	269	6	1.7
2025-10-13T12:00	10800	242	-54.5	-64.2	269	6	1.8
2025-10-13T12:00	10850	240	-54.9	-64.2	267	6	1.8
2025-10-13T12:00	10900	238	-55.3	-64.0	265	6	1.8
2025-10-13T12:00	10950	237	-55.7	-63.8	264	7	1.7
2025-10-13T12:00	11000	235	-56.0	-63.9	263	7	1.7
2025-10-13T12:00	11050	233	-56.5	-63.7	263	7	1.6
2025-10-13T12:00	11100	231	-56.9	-64.3	266	7	1.6
2025-10-13T12:00	11150	229	-57.4	-65.3	269	6	1.6
2025-10-13T12:00	11200	228	-57.8	-65.3	271	6	1.7
2025-10-13T12:00	11250	226	-58.0	-65.2	274	5	1.8
2025-10-13T12:00	11300	224	-58.4	-66.5	277	5	1.8
2025-10-13T12:00	11350	222	-58.5	-67.9	280	5	1.8
2025-10-13T12:00	11400	220	-58.7	-68.0	283	5	1.8
2025-10-13T12:00	11450	219	-59.0	-67.8	286	6	1.8
2025-10-13T12:00	11500	217	-59.2	-67.7	288	6	1.9
2025-10-13T12:00	11550	215	-59.6	-67.6	290	6	1.9
2025-10-13T12:00	11600	213	-59.8	-67.5	293	6	1.9
2025-10-13T12:00	11650	212	-60.0	-67.7	298	6	2.0
2025-10-13T12:00	11700	210	-60.1	-68.1	304	6	2.1
2025-10-13T12:00	11750	208	-60.0	-68.5	309	6	2.1
2025-10-13T12:00	11800	207	-60.2	-68.9	315	7	2.2
2025-10-13T12:00	11850	205	-60.3	-68.9	320	7	2.2
2025-10-13T12:00	11900	203	-60.3	-69.1	324	7	2.3
2025-10-13T12:00	11950	202	-60.4	-69.4	324	7	2.3
2025-10-13T12:00	12000	200	-60.1	-69.7	320	6	2.4
2025-10-13T12:00	12050	198	-60.2	-70.4	315	5	2.5
2025-10-13T12:00	12100	197	-60.3	-70.8	308	5	2.6
2025-10-13T12:00	12150	195	-60.1	-71.4	303	6	2.8
2025-10-13T12:00	12200	194	-60.2	-71.7	301	7	2.8
2025-10-13T12:00	12250	192	-60.3	-72.3	299	8	2.9
2025-10-13T12:00	12300	191	-60.2	-72.5	298	8	2.9
2025-10-13T12:00	12350	189	-60.2	-72.8	297	9	2.8
2025-10-13T12:00	12400	188	-60.2	-73.0	297	9	2.7
2025-10-13T12:00	12450	186	-60.3	-73.3	299	9	2.6
2025-10-13T12:00	12500	185	-60.3	-73.6	303	8	2.5
2025-10-13T12:00	12550	183	-60.5	-73.7	308	7	2.5
2025-10-13T12:00	12600	182	-60.8	-74.0	313	7	2.4
2025-10-13T12:00	12650	180	-60.8	-74.4	318	6	2.4
2025-10-13T12:00	12700	179	-60.7	-75.0	319	6	2.4
2025-10-13T12:00	12750	177	-60.6	-75.8	317	6	2.5
2025-10-13T12:00	12800	176	-59.9	-76.4	317	6	2.6
2025-10-13T12:00	12850	175	-59.9	-77.1	320	7	2.7
2025-10-13T12:00	12900	173	-60.0	-77.3	327	7	2.9
2025-10-13T12:00	12950	172	-60.1	-77.7	334	8	3.0
2025-10-13T12:00	13000	170	-59.9	-77.9	338	8	3.1
2025-10-13T12:00	13050	169	-60.1	-78.2	340	8	3.1
2025-10-13T12:00	13100	168	-60.1	-78.5	342	7	3.1
2025-10-13T12:00	13150	166	-60.3	-78.7	343	6	3.3
2025-10-13T12:00	13200	165	-60.3	-78.7	342	5	3.4
2025-10-13T12:00	13250	164	-60.5	-78.8	336	4	3.4
2025-10-13T12:00	13300	162	-60.5	-79.0	321	4	3.3
2025-10-13T12:00	13350	161	-60.1	-79.0	304	5	3.3
2025-10-13T12:00	13400	160	-60.2	-79.3	295	6	3.2
2025-10-13T12:00	13450	159	-60.5	-79.5	292	7	3.2
2025-10-13T12:00	13500	157	-60.9	-79.8	294	8	3.2
2025-10-13T12:00	13550	156	-60.8	-79.9	298	9	3.2
2025-10-13T12:00	13600	155	-60.8	-80.1	303	9	3.2
2025-10-13T12:00	13650	154	-60.7	-80.4	311	10	3.3
2025-10-13T12:00	13700	152	-60.5	-80.6	319	10	3.3
2025-10-13T12:00	13750	151	-60.5	-80.9	326	9	3.4
2025-10-13T12:00	13800	150	-60.4	-81.2	332	9	3.5
2025-10-13T12:00	13850	149	-59.7	-81.1	337	8	3.5
2025-10-13T12:00	13900	147	-59.9	-81.4	343	7	3.6
2025-10-13T12:00	13950	146	-60.2	-81.4	348	6	3.6
2025-10-13T12:00	14000	145	-60.5	-81.5	353	5	3.6
2025-10-13T12:00	14050	144	-60.6	-81.5	355	5	3.6
2025-10-13T12:00	14100	143	-60.8	-81.6	358	4	3.6
2025-10-13T12:00	14150	142	-61.2	-81.7	10	4	3.6
2025-10-13T12:00	14200	141	-61.4	-81.8	32	3	3.6
2025-10-13T12:00	14250	140	-61.3	-81.8	45	2	3.5
2025-10-13T12:00	14300	138	-61.3	-82.0	32	1	3.5
2025-10-13T12:00	14350	137	-61.5	-82.1	355	1	3.4
2025-10-13T12:00	14400	136	-61.8	-82.1	334	2	3.4
2025-10-13T12:00	14450	135	-62.1	-82.2	332	4	3.5
2025-10-13T12:00	14500	134	-62.5	-82.4	333	5	3.4
2025-10-13T12:00	14550	133	-62.6	-82.4	330	6	3.4
2025-10-13T12:00	14600	132	-62.3	-82.5	321	6	3.4
2025-10-13T12:00	14650	131	-61.6	-82.3	311	6	3.5
2025-10-13T12:00	14700	130	-61.5	-82.4	306	6	3.6
2025-10-13T12:00	14750	129	-61.4	-82.3	308	7	3.7
2025-10-13T12:00	14800	128	-61.5	-82.3	318	7	3.9
2025-10-13T12:00	14850	127	-61.7	-82.6	329	7	4.0
2025-10-13T12:00	14900	126	-61.4	-82.5	339	7	4.2
2025-10-13T12:00	14950	125	-61.4	-82.5	347	7	4.2
2025-10-13T12:00	15000	124	-61.5	-82.6	351	7	4.2
2025-10-13T12:00	15050	123	-61.5	-82.9	349	7	4.1
2025-10-13T12:00	15100	122	-61.0	-82.7	341	6	4.1
2025-10-13T12:00	15150	121	-60.8	-82.5	328	5	4.1
2025-10-13T12:00	15200	120	-60.9	-82.5	326	6	3.7
2025-10-13T12:00	15250	119	-60.7	-82.4	334	6	3.4
2025-10-13T12:00	15300	118	-60.9	-82.5	343	7	3.3
2025-10-13T12:00	15350	117	-61.3	-82.6	349	7	3.2
2025-10-13T12:00	15400	116	-61.5	-82.7	354	6	3.1
2025-10-13T12:00	15450	115	-61.6	-82.6	354	6	3.1
2025-10-13T12:00	15500	114	-62.0	-82.8	351	5	3.0
2025-10-13T12:00	15550	113	-62.2	-82.8	354	5	3.0
2025-10-13T12:00	15600	112	-62.7	-82.8	360	5	3.0
2025-10-13T12:00	15650	111	-63.2	-82.9	4	6	3.0
2025-10-13T12:00	15700	110	-63.4	-82.9	10	6	2.9
2025-10-13T12:00	15750	109	-63.5	-83.2	13	5	3.0
2025-10-13T12:00	15800	109	-63.4	-83.2	10	4	3.0
2025-10-13T12:00	15850	108	-63.4	-83.3	3	4	3.1
2025-10-13T12:00	15900	107	-63.9	-83.7	357	5	3.3
2025-10-13T12:00	15950	106	-63.7	-83.8	355	6	3.6
2025-10-13T12:00	16000	105	-63.6	-84.0	352	8	4.1
2025-10-13T12:00	16050	104	-63.9	-83.9	348	9	4.3
2025-10-13T12:00	16100	103	-64.2	-83.9	344	10	4.2
2025-10-13T12:00	16150	103	-64.4	-84.1	343	12	4.1
2025-10-13T12:00	16200	102	-63.8	-83.9	346	13	4.1
2025-10-13T12:00	16250	101	-63.6	-83.8	352	12	4.0
2025-10-13T12:00	16300	100	-63.8	-83.9	357	12	4.0
2025-10-13T12:00	16350	99	-64.0	-83.9	3	11	4.0
2025-10-13T12:00	16400	98	-64.2	-84.1	9	11	4.0
2025-10-13T12:00	16450	98	-64.4	-84.2	13	10	4.0
2025-10-13T12:00	16500	97	-64.3	-84.3	15	10	4.1
2025-10-13T12:00	16550	96	-64.2	-84.4	19	9	4.2
2025-10-13T12:00	16600	95	-64.1	-84.5	24	8	4.3
2025-10-13T12:00	16650	94	-64.3	-84.7	27	6	4.6
2025-10-13T12:00	16700	94	-63.7	-84.5	29	4	4.8
2025-10-13T12:00	16750	93	-63.6	-84.6	37	3	4.8
2025-10-13T12:00	16800	92	-63.7	-84.6	52	2	4.8
2025-10-13T12:00	16850	91	-64.0	-84.6	59	1	4.8
2025-10-13T12:00	16900	91	-64.4	-84.6	33	1	4.8
2025-10-13T12:00	16950	90	-64.6	-84.8	352	1	4.8
2025-10-13T12:00	17000	89	-64.6	-85.0	335	2	4.9
2025-10-13T12:00	17050	89	-64.6	-85.1	328	3	5.2
2025-10-13T12:00	17100	88	-64.7	-85.1	329	3	5.2
2025-10-13T12:00	17150	87	-64.7	-85.1	333	3	5.2
2025-10-13T12:00	17200	86	-64.6	-85.2	338	4	5.2
2025-10-13T12:00	17250	86	-64.1	-85.2	342	5	5.3
2025-10-13T12:00	17300	85	-63.8	-85.3	348	6	5.3
2025-10-13T12:00	17350	84	-63.5	-85.2	354	7	5.3
2025-10-13T12:00	17400	84	-63.2	-85.1	358	8	5.3
2025-10-13T12:00	17450	83	-63.4	-85.2	357	7	5.3
2025-10-13T12:00	17500	82	-63.3	-85.1	354	6	5.4
2025-10-13T12:00	17550	82	-63.6	-85.4	349	5	5.4
2025-10-13T12:00	17600	81	-63.1	-85.1	347	5	5.4
2025-10-13T12:00	17650	80	-62.9	-85.0	350	5	5.5
2025-10-13T12:00	17700	80	-63.3	-85.2	355	5	5.6
2025-10-13T12:00	17750	79	-63.4	-85.3	359	5	5.8
2025-10-13T12:00	17800	78	-63.4	-85.5	360	4	5.9
2025-10-13T12:00	17850	78	-62.9	-85.3	2	4	6.0
2025-10-13T12:00	17900	77	-63.1	-85.4	3	4	6.1
2025-10-13T12:00	17950	76	-63.2	-85.4	360	4	6.2
2025-10-13T12:00	18000	76	-63.2	-85.5	357	4	6.3
2025-10-13T12:00	18050	75	-63.1	-85.6	359	4	6.3
2025-10-13T12:00	18100	75	-62.7	-85.7	3	5	6.5
2025-10-13T12:00	18150	74	-62.3	-85.6	13	5	6.7
2025-10-13T12:00	18200	73	-62.0	-85.7	24	5	6.9
2025-10-13T12:00	18250	73	-61.3	-85.4	29	4	7.0
2025-10-13T12:00	18300	72	-61.1	-85.2	30	4	7.2
2025-10-13T12:00	18350	72	-61.5	-85.2	28	4	7.4
2025-10-13T12:00	18400	71	-62.0	-85.3	27	4	7.5
2025-10-13T12:00	18450	70	-62.3	-85.4	26	4	7.6
2025-10-13T12:00	18500	70	-62.6	-85.5	27	3	7.6
2025-10-13T12:00	18550	69	-62.8	-85.7	30	2	7.7
2025-10-13T12:00	18600	69	-62.7	-85.8	50	1	7.8
2025-10-13T12:00	18650	68	-62.6	-85.8	91	1	8.0
2025-10-13T12:00	18700	68	-62.9	-85.8	179	0	8.0
2025-10-13T12:00	18750	67	-63.2	-86.0	253	1	8.1
2025-10-13T12:00	18800	67	-63.1	-86.1	268	3	8.3
2025-10-13T12:00	18850	66	-63.1	-86.2	271	3	8.7
2025-10-13T12:00	18900	66	-62.7	-86.0	275	4	9.1
2025-10-13T12:00	18950	65	-62.6	-86.0	283	5	9.5
2025-10-13T12:00	19000	64	-62.7	-86.0	287	6	9.7
2025-10-13T12:00	19050	64	-62.7	-85.8	288	6	10.0
2025-10-13T12:00	19100	63	-63.1	-86.0	292	5	10.1
2025-10-13T12:00	19150	63	-63.1	-86.1	301	6	10.2
2025-10-13T12:00	19200	62	-62.9	-86.2	311	6	10.3
2025-10-13T12:00	19250	62	-62.4	-86.2	321	6	10.5
2025-10-13T12:00	19300	61	-62.1	-86.1	329	6	10.5
2025-10-13T12:00	19350	61	-62.1	-85.9	339	5	10.6
2025-10-13T12:00	19400	60	-62.2	-85.9	351	4	10.6
2025-10-13T12:00	19450	60	-62.3	-86.0	6	3	10.5
2025-10-13T12:00	19500	59	-62.6	-86.0	24	3	10.4
2025-10-13T12:00	19550	59	-62.7	-86.1	34	3	10.3
2025-10-13T12:00	19600	58	-62.8	-86.3	24	2	10.3
2025-10-13T12:00	19650	58	-62.4	-86.2	340	2	10.5
2025-10-13T12:00	19700	58	-62.4	-86.1	327	2	10.8
2025-10-13T12:00	19750	57	-62.5	-86.2	325	3	11.1
2025-10-13T12:00	19800	57	-62.3	-86.2	326	3	11.2
2025-10-13T12:00	19850	56	-62.1	-86.3	327	4	11.5
2025-10-13T12:00	19900	56	-61.7	-86.1	325	5	11.4
2025-10-13T12:00	19950	55	-61.6	-85.9	323	5	11.8
2025-10-13T12:00	20000	55	-62.0	-85.9	327	5	12.2
2025-10-13T12:00	20050	54	-61.7		336	5	12.4
2025-10-13T12:00	20100	54	-61.5		348	5	12.3
2025-10-13T12:00	20150	53	-60.7		9	4	12.6
2025-10-13T12:00	20200	53	-60.1		30	3	12.7
2025-10-13T12:00	20250	53	-60.0		40	2	12.8
2025-10-13T12:00	20300	52	-60.1		35	2	12.9
2025-10-13T12:00	20350	52	-60.2		11	1	12.9
2025-10-13T12:00	20400	51	-60.2		259	0	12.9
2025-10-13T12:00	20450	51	-60.5		235	1	12.8
2025-10-13T12:00	20500	51	-60.7		273	1	12.9
2025-10-13T12:00	20550	50	-60.9		279	2	12.8
2025-10-13T12:00	20600	50	-60.8		266	3	12.7
2025-10-13T12:00	20650	49	-60.8		257	4	12.7
2025-10-13T12:00	20700	49	-60.7		254	5	12.7
2025-10-13T12:00	20750	49	-60.7		253	5	12.6
2025-10-13T12:00	20800	48	-60.9		254	5	12.6
2025-10-13T12:00	20850	48	-61.1		258	5	12.4
2025-10-13T12:00	20900	47	-61.2		266	6	12.4
2025-10-13T12:00	20950	47	-61.3		276	6	12.3
2025-10-13T12:00	21000	47	-61.2		290	6	12.1
2025-10-13T12:00	21050	46	-60.7		306	6	12.0
2025-10-13T12:00	21100	46	-60.8		319	6	11.9
2025-10-13T12:00	21150	46	-60.8		324	6	11.8
2025-10-13T12:00	21200	45	-60.7		321	6	11.7
2025-10-13T12:00	21250	45	-60.8		317	6	11.7
2025-10-13T12:00	21300	44	-61.0		314	6	11.6
2025-10-13T12:00	21350	44	-61.1		312	7	11.5
2025-10-13T12:00	21400	44	-61.1		307	7	11.5
2025-10-13T12:00	21450	43	-61.3		302	7	11.4
2025-10-13T12:00	21500	43	-61.5		300	7	11.2
2025-10-13T12:00	21550	43	-61.6		299	6	11.1
2025-10-13T12:00	21600	42	-61.6		304	6	11.0
2025-10-13T12:00	21650	42	-61.6		315	6	10.9
2025-10-13T12:00	21700	42	-61.6		328	6	10.9
2025-10-13T12:00	21750	41	-61.8		336	6	10.9
2025-10-13T12:00	21800	41	-62.0		341	6	10.8
2025-10-13T12:00	21850	41	-61.9		339	5	10.7
2025-10-13T12:00	21900	40	-61.4		330	4	10.8
2025-10-13T12:00	21950	40	-61.5		319	4	10.9
2025-10-13T12:00	22000	40	-61.8		315	5	10.9
2025-10-13T12:00	22050	39	-62.0		315	5	10.9
2025-10-13T12:00	22100	39	-61.9		315	5	10.9
2025-10-13T12:00	22150	39	-62.0		308	5	11.0
2025-10-13T12:00	22200	38	-62.1		299	5	11.0
2025-10-13T12:00	22250	38	-62.4		292	6	11.1
2025-10-13T12:00	22300	38	-62.3		286	6	11.0
2025-10-13T12:00	22350	38	-62.2		282	6	11.1
2025-10-13T12:00	22400	37	-62.4		282	7	11.2
2025-10-13T12:00	22450	37	-62.6		286	7	11.3
2025-10-13T12:00	22500	37	-63.0		291	7	11.2
2025-10-13T12:00	22550	36	-63.0		291	7	11.1
2025-10-13T12:00	22600	36	-62.8		285	6	11.3
2025-10-13T12:00	22650	36	-62.8		282	5	11.6
2025-10-13T12:00	22700	35	-62.5		289	5	11.7
2025-10-13T12:00	22750	35	-62.7		300	5	11.8
2025-10-13T12:00	22800	35	-62.9		307	6	11.9
2025-10-13T12:00	22850	35	-62.7		304	5	11.9
2025-10-13T12:00	22900	34	-62.1		289	4	11.9
2025-10-13T12:00	22950	34	-61.7		274	3	11.9
2025-10-13T12:00	23000	34	-61.4		272	4	11.8
2025-10-13T12:00	23050	34	-61.3		275	5	11.9
2025-10-13T12:00	23100	33	-61.4		280	6	11.9
2025-10-13T12:00	23150	33	-60.7		285	7	11.9
2025-10-13T12:00	23200	33	-60.5		292	7	12.0
2025-10-13T12:00	23250	32	-60.6		297	7	12.0
2025-10-13T12:00	23300	32	-60.4		298	7	11.9
2025-10-13T12:00	23350	32	-60.2		297	6	11.7
2025-10-13T12:00	23400	32	-60.3		299	6	11.6
2025-10-13T12:00	23450	31	-60.6		303	5	11.5
2025-10-13T12:00	23500	31	-60.8		303	4	11.4
2025-10-13T12:00	23550	31	-61.1		300	3	11.3
2025-10-13T12:00	23600	31	-61.4		296	2	11.3
2025-10-13T12:00	23650	30	-61.5		289	2	11.5
2025-10-13T12:00	23700	30	-61.6		264	1	11.7
2025-10-13T12:00	23750	30	-61.7		240	1	11.8
2025-10-13T12:00	23800	30	-61.4		259	2	12.0
2025-10-13T12:00	23850	29	-61.2		281	3	11.8
2025-10-13T12:00	23900	29	-60.9		289	3	11.6
2025-10-13T12:00	23950	29	-60.8		293	3	11.6
2025-10-13T12:00	24000	29	-60.4		291	2	11.7
2025-10-13T12:00	24050	29	-60.0		273	2	11.9
2025-10-13T12:00	24100	28	-59.6		249	3	12.2
2025-10-13T12:00	24150	28	-59.8		236	4	12.4
2025-10-13T12:00	24200	28	-59.9		233	5	12.6
2025-10-13T12:00	24250	28	-59.8		235	6	12.8
2025-10-13T12:00	24300	27	-59.7		240	7	12.8
2025-10-13T12:00	24350	27	-59.5		242	8	12.9
2025-10-13T12:00	24400	27	-59.5		246	9	13.0
2025-10-13T12:00	24450	27	-59.6		250	10	13.0
2025-10-13T12:00	24500	27	-59.8		256	10	12.9
2025-10-13T12:00	24550	26	-59.9		262	10	12.7
2025-10-13T12:00	24600	26	-60.1		268	10	12.8
2025-10-13T12:00	24650	26	-60.0		272	10	13.0
2025-10-13T12:00	24700	26	-60.0		275	10	12.8
2025-10-13T12:00	24750	25	-59.9		279	9	12.7
2025-10-13T12:00	24800	25	-59.9		283	9	12.7
2025-10-13T12:00	24850	25	-59.5		284	9	12.5
2025-10-13T12:00	24900	25	-58.9		287	9	12.3
2025-10-13T12:00	24950	25	-58.7		291	10	12.7
2025-10-13T12:00	25000	24	-58.6		293	11	12.4
2025-10-13T12:00	25050	24	-58.1		291	11	12.4
2025-10-13T12:00	25100	24	-57.7		290	11	12.0
2025-10-13T12:00	25150	24	-57.4		292	10	11.9
2025-10-13T12:00	25200	24	-57.0		294	9	12.0
2025-10-13T12:00	25250	24	-57.2		295	9	11.8
2025-10-13T12:00	25300	23	-57.5		291	8	11.6
2025-10-13T12:00	25350	23	-57.1		283	8	11.6
2025-10-13T12:00	25400	23	-56.3		273	9	11.5
2025-10-13T12:00	25450	23	-55.6		266	9	11.2
2025-10-13T12:00	25500	23	-54.8		265	10	11.2
2025-10-13T12:00	25550	22	-54.2		269	10	11.1
2025-10-13T12:00	25600	22	-54.3		273	10	10.9
2025-10-13T12:00	25650	22	-54.7		277	10	11.1
2025-10-13T12:00	25700	22	-55.2		279	10	11.1
2025-10-13T12:00	25750	22	-55.4		279	10	10.8
2025-10-13T12:00	25800	22	-55.2		275	10	10.7
2025-10-13T12:00	25850	21	-55.5		271	10	10.6
2025-10-13T12:00	25900	21	-55.7		266	10	10.7
2025-10-13T12:00	25950	21	-55.7		264	9	10.4
2025-10-13T12:00	26000	21	-55.7		270	9	10.5
2025-10-13T12:00	26050	21	-55.8		279	9	10.2
2025-10-13T12:00	26100	21	-55.9		288	9	10.4
2025-10-13T12:00	26150	20	-55.7		295	8	10.7
2025-10-13T12:00	26200	20	-55.8		299	8	10.5
2025-10-13T12:00	26250	20	-56.0		302	8	10.2
2025-10-13T12:00	26300	20	-56.1		300	7	10.0
2025-10-13T12:00	26350	20	-56.2		288	5	9.7
2025-10-13T12:00	26400	20	-55.7		269	5	9.7
2025-10-13T12:00	26450	20	-55.1		259	6	9.8
2025-10-13T12:00	26500	19	-54.7		259	7	10.0
2025-10-13T12:00	26550	19	-54.7		260	9	9.9
2025-10-13T12:00	26600	19	-54.4		263	10	9.6
2025-10-13T12:00	26650	19	-54.1		269	11	10.0
2025-10-13T12:00	26700	19	-54.1		275	12	9.6
2025-10-13T12:00	26750	19	-54.2		281	13	9.9
2025-10-13T12:00	26800	18	-54.0		285	14	9.7
2025-10-13T12:00	26850	18	-53.8		287	13	9.9
2025-10-13T12:00	26900	18	-53.2		291	12	10.1
2025-10-13T12:00	26950	18	-52.8		297	11	9.7
2025-10-13T12:00	27000	18	-52.9		304	11	9.0
2025-10-13T12:00	27050	18	-52.8		307	10	8.8
2025-10-13T12:00	27100	18	-52.8		308	9	8.9
2025-10-13T12:00	27150	17	-52.9		309	8	9.0
2025-10-13T12:00	27200	17	-53.1		311	6	9.0
2025-10-13T12:00	27250	17	-53.3		313	5	8.9
2025-10-13T12:00	27300	17	-53.6		317	4	8.7
2025-10-13T12:00	27350	17	-53.7		325	3	8.7
2025-10-13T12:00	27400	17	-53.8		329	2	8.7
2025-10-13T12:00	27450	17	-53.9		310	2	8.7
2025-10-13T12:00	27500	17	-53.9		270	2	9.4
2025-10-13T12:00	27550	16	-54.0		257	3	9.7
2025-10-13T12:00	27600	16	-54.0		256	5	9.5
2025-10-13T12:00	27650	16	-54.1		257	6	9.7
2025-10-13T12:00	27700	16	-54.3		257	7	9.6
2025-10-13T12:00	27750	16	-54.3		255	9	9.3
2025-10-13T12:00	27800	16	-54.3		255	10	9.1
2025-10-13T12:00	27850	16	-54.4		254	10	8.9
2025-10-13T12:00	27900	16	-54.3		255	10	8.7
2025-10-13T12:00	27950	15	-54.5		258	9	8.6
2025-10-13T12:00	28000	15	-54.7		260	9	8.5
2025-10-13T12:00	28050	15	-54.6		259	9	8.2
2025-10-13T12:00	28100	15	-54.5		258	9	8.1
2025-10-13T12:00	28150	15	-54.7		257	10	8.5
2025-10-13T12:00	28200	15	-54.8		257	10	8.5
2025-10-13T12:00	28250	15	-54.9		259	10	8.6
2025-10-13T12:00	28300	15	-55.2		260	9	8.3
2025-10-13T12:00	28350	14	-55.5		260	9	7.8
2025-10-13T12:00	28400	14	-55.6		255	8	7.7
2025-10-13T12:00	28450	14	-55.3		247	7	7.8
2025-10-13T12:00	28500	14	-55.1		240	7	7.3
2025-10-13T12:00	28550	14	-55.1		233	8	7.7
2025-10-13T12:00	28600	14	-55.3		230	8	7.7
2025-10-13T12:00	28650	14	-55.3		232	8	7.4
2025-10-13T12:00	28700	14	-54.9		241	9	7.4
2025-10-13T12:00	28750	14	-54.4		250	9	7.3
2025-10-13T12:00	28800	14	-54.1		257	9	7.4
2025-10-13T12:00	28850	13	-53.9		259	10	7.4
2025-10-13T12:00	28900	13	-53.8		259	11	7.3
2025-10-13T12:00	28950	13	-53.6		256	12	6.9
2025-10-13T12:00	29000	13	-52.9		255	13	6.9
2025-10-13T12:00	29050	13	-52.1		256	14	7.1
2025-10-13T12:00	29100	13	-51.6		258	14	6.9
2025-10-13T12:00	29150	13	-51.8		260	13	6.9
2025-10-13T12:00	29200	13	-52.2		260	12	7.0
2025-10-13T12:00	29250	13	-52.7		260	10	6.7
2025-10-13T12:00	29300	13	-53.1		259	9	6.8
2025-10-13T12:00	29350	12	-53.2		257	9	6.8
2025-10-13T12:00	29400	12	-52.7		253	10	6.8
2025-10-13T12:00	29450	12	-52.8		250	11	6.8
2025-10-13T12:00	29500	12	-52.9		247	12	6.8
2025-10-13T12:00	29550	12	-52.7		245	13	6.8
2025-10-13T12:00	29600	12	-52.7		243	13	6.7
2025-10-13T12:00	29650	12	-52.6		242	13	6.6
2025-10-13T12:00	29700	12	-52.6		244	14	6.5
2025-10-13T12:00	29750	12	-52.6		250	15	6.6
2025-10-13T12:00	29800	12	-52.6		256	16	6.5
2025-10-13T12:00	29850	11	-52.3		262	17	6.5
2025-10-13T12:00	29900	11	-51.9		265	17	6.3
2025-10-13T12:00	29950	11	-52.1		267	17	6.3
2025-10-13T12:00	30000	11	-52.4		267	17	6.3
2025-10-13T12:00	30050	11	-52.6		268	17	6.2
2025-10-13T12:00	30100	11	-52.6		270	16	6.2
2025-10-13T12:00	30150	11	-52.5		275	15	6.1
2025-10-13T12:00	30200	11	-52.0		280	15	6.1
2025-10-13T12:00	30250	11	-51.5		281	14	6.1
2025-10-13T12:00	30300	11	-51.3		277	13	6.0
2025-10-13T12:00	30350	11	-51.2		272	11	6.1
2025-10-13T12:00	30400	11	-50.8		267	10	6.0
2025-10-13T12:00	30450	10	-50.6		268	10	5.9
2025-10-13T12:00	30500	10	-50.8		274	10	5.9
2025-10-13T12:00	30550	10	-51.1		277	11	5.9
2025-10-13T12:00	30600	10	-51.2		277	11	5.8
2025-10-13T12:00	30650	10	-51.2		275	11	5.9
2025-10-13T12:00	30700	10	-51.2		272	11	5.9
2025-10-13T12:00	30750	10	-50.9		270	10	5.8
2025-10-13T12:00	30800	10	-50.7		268	10	5.8
2025-10-13T12:00	30850	10	-50.6		265	11	5.8
2025-10-13T12:00	30900	10	-50.4		260	12	5.6
2025-10-13T12:00	30950	10	-50.2		253	12	5.7
2025-10-13T12:00	31000	10	-50.1		246	12	5.6
2025-10-13T12:00	31050	10	-50.2		240	13	5.6
2025-10-13T12:00	31100	9	-50.2		236	14	5.6
2025-10-13T12:00	31150	9	-50.3		236	14	5.5
2025-10-13T12:00	31200	9	-50.3		240	16	5.5
2025-10-13T12:00	31250	9	-50.1		245	18	5.5
2025-10-13T12:00	31300	9	-50.1		251	19	5.5
2025-10-13T12:00	31350	9	-50.2		257	20	5.4
2025-10-13T12:00	31400	9	-50.2		263	20	5.4
2025-10-13T12:00	31450	9	-50.1		268	20	5.3
2025-10-13T12:00	31500	9	-49.7		271	20	5.3
2025-10-13T12:00	31550	9	-49.5		272	19	5.2
2025-10-13T12:00	31600	9	-49.4		270	17	5.2
2025-10-13T12:00	31650	9	-49.5		267	15	5.1
2025-10-13T12:00	31700	9	-49.5		264	13	5.1
2025-10-13T12:00	31750	9	-49.3		260	12	5.1
2025-10-13T12:00	31800	9	-49.0		255	12	5.0
2025-10-13T12:00	31850	8	-48.8		250	13	5.0
2025-10-13T12:00	31900	8	-48.3		245	14	4.9
2025-10-13T12:00	31950	8	-47.9		242	16	5.0
2025-10-13T12:00	32000	8	-47.8		240	17	4.9
2025-10-13T12:00	32050	8	-48.0		238	17	4.9
2025-10-13T12:00	32100	8	-48.1		236	18	4.9
2025-10-13T12:00	32150	8	-48.1		234	18	4.9
2025-10-13T12:00	32200	8	-48.0		234	19	4.8
2025-10-13T12:00	32250	8	-47.9		236	19	4.8
2025-10-13T12:00	32300	8	-48.1		239	18	4.8
2025-10-13T12:00	32350	8	-48.2		244	18	4.7
2025-10-13T12:00	32400	8	-47.7		249	19	4.6
2025-10-13T12:00	32450	8	-47.5		252	19	4.5
2025-10-13T12:00	32500	8	-47.7		255	19	4.5
2025-10-13T12:00	32550	8	-48.0		257	19	4.5
2025-10-13T12:00	32600	8	-48.3		260	19	4.5
2025-10-13T12:00	32650	7	-48.2		261	18	4.5
2025-10-14T00:00	491	966	10.3	8.6	70	1	
2025-10-14T00:00	501	964	10.3	8.5	56	1	
2025-10-14T00:00	520	962	10.2	8.3	53	2	
2025-10-14T00:00	540	960	10.1	8.0	54	2	
2025-10-14T00:00	560	958	9.9	7.9	54	2	
2025-10-14T00:00	580	956	9.8	7.8	53	2	
2025-10-14T00:00	600	953	9.7	7.8	54	2	
2025-10-14T00:00	620	951	9.5	7.8	54	3	
2025-10-14T00:00	640	949	9.3	7.7	55	3	
2025-10-14T00:00	660	946	9.1	7.6	57	3	
2025-10-14T00:00	680	944	9.0	7.6	60	3	
2025-10-14T00:00	700	942	8.8	7.6	63	3	
2025-10-14T00:00	720	940	8.7	7.5	67	3	
2025-10-14T00:00	740	937	8.6	7.4	70	3	
2025-10-14T00:00	760	935	8.4	7.3	74	3	
2025-10-14T00:00	780	933	8.2	7.3	78	3	
2025-10-14T00:00	800	931	8.1	7.2	82	3	
2025-10-14T00:00	820	928	8.2	6.7	88	3	
2025-10-14T00:00	840	926	8.2	6.5	94	3	
2025-10-14T00:00	860	924	8.1	6.3	98	3	
2025-10-14T00:00	880	922	8.0	6.2	101	3	
2025-10-14T00:00	900	919	7.8	6.1	101	3	
2025-10-14T00:00	920	917	7.7	6.1	99	3	
2025-10-14T00:00	940	915	7.5	6.0	94	3	
2025-10-14T00:00	960	913	7.4	5.9	87	3	
2025-10-14T00:00	980	910	7.2	5.8	82	3	
2025-10-14T00:00	1000	908	7.0	5.8	76	3	
2025-10-14T00:00	1020	906	6.8	5.8	72	3	
2025-10-14T00:00	1040	904	6.6	5.7	69	3	
2025-10-14T00:00	1060	902	6.4	5.7	66	3	
2025-10-14T00:00	1080	900	6.3	5.6	63	3	
2025-10-14T00:00	1100	897	6.1	5.6	60	3	
2025-10-14T00:00	1120	895	5.9	5.6	57	3	
2025-10-14T00:00	1140	893	5.7	5.6	56	2	
2025-10-14T00:00	1160	891	5.5	5.5	54	2	
2025-10-14T00:00	1180	889	5.4	5.4	53	2	
2025-10-14T00:00	1200	886	5.2	5.2	52	2	
2025-10-14T00:00	1220	884	5.1	5.1	52	2	
2025-10-14T00:00	1240	882	5.0	5.0	51	3	
2025-10-14T00:00	1260	880	4.9	4.9	51	3	
2025-10-14T00:00	1280	878	4.8	4.8	50	3	
2025-10-14T00:00	1300	876	4.7	4.7	50	3	
2025-10-14T00:00	1320	874	4.6	4.6	50	3	
2025-10-14T00:00	1340	871	4.4	4.4	51	3	
2025-10-14T00:00	1360	869	4.3	4.3	52	3	
2025-10-14T00:00	1380	867	4.2	4.2	52	3	
2025-10-14T00:00	1400	865	4.1	4.1	53	3	
2025-10-14T00:00	1420	863	4.0	4.0	54	3	
2025-10-14T00:00	1440	861	3.9	3.9	54	3	
2025-10-14T00:00	1460	859	3.8	3.8	54	2	
2025-10-14T00:00	1480	856	3.7	3.7	51	2	
2025-10-14T00:00	1500	854	3.5	3.5	42	1	
2025-10-14T00:00	1520	852	3.3	3.3	5	1	
2025-10-14T00:00	1540	850	3.2	3.1	283	1	
2025-10-14T00:00	1560	848	3.9	1.8	263	1	
2025-10-14T00:00	1580	846	6.1	-1.4	254	2	
2025-10-14T00:00	1600	844	7.3	-3.0	249	2	
2025-10-14T00:00	1620	842	8.1	-3.8	245	3	
2025-10-14T00:00	1640	840	8.8	-5.1	240	3	
2025-10-14T00:00	1660	838	9.4	-7.0	237	3	
2025-10-14T00:00	1680	836	10.0	-9.0	235	3	
2025-10-14T00:00	1700	834	10.3	-9.1	234	3	
2025-10-14T00:00	1720	832	10.5	-8.9	237	2	
2025-10-14T00:00	1740	830	10.5	-7.8	244	2	
2025-10-14T00:00	1760	828	10.3	-7.5	254	2	
2025-10-14T00:00	1780	826	10.2	-7.1	264	2	
2025-10-14T00:00	1800	824	10.1	-7.5	272	2	
2025-10-14T00:00	1820	822	10.0	-8.3	276	2	
2025-10-14T00:00	1840	820	9.9	-9.2	277	2	
2025-10-14T00:00	1860	818	9.8	-9.6	277	2	
2025-10-14T00:00	1880	816	9.7	-7.6	276	2	
2025-10-14T00:00	1900	814	9.7	-8.2	275	2	
2025-10-14T00:00	1920	812	9.6	-9.5	274	1	
2025-10-14T00:00	1940	810	9.7	-11.4	276	1	
2025-10-14T00:00	1960	808	9.5	-11.4	284	0	
2025-10-14T00:00	1980	806	9.4	-11.1	23	0	
2025-10-14T00:00	2000	804	9.3	-12.7	75	1	
2025-10-14T00:00	2020	802	9.3	-16.3	86	1	
2025-10-14T00:00	2040	800	9.2	-18.9	94	1	
2025-10-14T00:00	2060	798	9.2	-19.8	102	1	
2025-10-14T00:00	2080	796	9.1	-19.6	110	1	
2025-10-14T00:00	2100	794	8.9	-19.3	118	1	
2025-10-14T00:00	2120	793	8.7	-19.0	122	1	
2025-10-14T00:00	2140	791	8.6	-18.7	122	1	
2025-10-14T00:00	2160	789	8.4	-18.4	118	1	
2025-10-14T00:00	2180	787	8.3	-18.4	109	1	
2025-10-14T00:00	2200	785	8.1	-17.4	95	1	
2025-10-14T00:00	2220	783	7.9	-16.5	71	1	
2025-10-14T00:00	2240	781	7.7	-16.5	41	1	
2025-10-14T00:00	2260	779	7.6	-16.8	20	2	
2025-10-14T00:00	2280	777	7.4	-17.1	8	2	
2025-10-14T00:00	2300	776	7.3	-16.1	0	2	
2025-10-14T00:00	2320	774	7.2	-16.5	355	2	
2025-10-14T00:00	2340	772	7.0	-9.1	347	2	
2025-10-14T00:00	2360	770	6.9	-6.1	339	1	
2025-10-14T00:00	2380	768	6.8	-5.3	325	1	
2025-10-14T00:00	2400	766	6.6	-5.0	306	1	
2025-10-14T00:00	2420	764	6.4	-4.9	290	1	
2025-10-14T00:00	2440	762	6.3	-5.0	282	1	
2025-10-14T00:00	2460	761	6.2	-4.1	281	1	
2025-10-14T00:00	2480	759	6.2	-3.2	286	1	
2025-10-14T00:00	2500	757	6.1	-3.3	294	1	
2025-10-14T00:00	2520	755	6.0	-3.4	309	1	
2025-10-14T00:00	2540	753	5.8	-3.5	328	1	
2025-10-14T00:00	2560	751	5.6	-3.6	349	1	
2025-10-14T00:00	2580	749	5.4	-3.6	7	1	
2025-10-14T00:00	2600	748	5.2	-3.7	20	1	
2025-10-14T00:00	2620	746	5.1	-3.8	30	1	
2025-10-14T00:00	2640	744	4.9	-3.8	36	1	
2025-10-14T00:00	2660	742	4.7	-3.8	39	1	
2025-10-14T00:00	2680	740	4.5	-3.9	38	1	
2025-10-14T00:00	2700	739	4.4	-3.9	36	1	
2025-10-14T00:00	2720	737	4.2	-3.9	34	1	
2025-10-14T00:00	2740	735	4.0	-4.0	31	2	
2025-10-14T00:00	2760	733	3.9	-3.9	31	2	
2025-10-14T00:00	2780	731	3.8	-4.0	31	2	
2025-10-14T00:00	2800	729	3.6	-4.0	33	3	
2025-10-14T00:00	2820	728	3.4	-4.1	34	3	
2025-10-14T00:00	2840	726	3.2	-4.1	35	3	
2025-10-14T00:00	2860	724	3.1	-4.3	33	2	
2025-10-14T00:00	2880	722	2.9	-4.6	28	2	
2025-10-14T00:00	2900	721	2.7	-4.6	21	2	
2025-10-14T00:00	2920	719	2.6	-4.5	16	2	
2025-10-14T00:00	2940	717	2.4	-4.4	15	2	
2025-10-14T00:00	2960	715	2.3	-4.4	17	2	
2025-10-14T00:00	2980	713	2.2	-4.6	20	2	
2025-10-14T00:00	3000	712	2.1	-4.6	24	2	
2025-10-14T00:00	3020	710	2.0	-5.0	29	2	
2025-10-14T00:00	3040	708	1.9	-5.6	33	2	
2025-10-14T00:00	3060	707	1.7	-5.7	37	2	
2025-10-14T00:00	3080	705	1.6	-6.0	39	2	
2025-10-14T00:00	3100	703	1.4	-6.3	42	2	
2025-10-14T00:00	3120	701	1.2	-6.9	44	2	
2025-10-14T00:00	3140	700	1.1	-7.3	48	2	
2025-10-14T00:00	3160	698	0.9	-7.4	54	2	
2025-10-14T00:00	3180	696	0.8	-8.3	61	2	
2025-10-14T00:00	3200	694	0.7	-8.8	67	2	
2025-10-14T00:00	3220	693	0.5	-9.3	70	2	
2025-10-14T00:00	3240	691	0.4	-9.9	70	2	
2025-10-14T00:00	3260	689	0.3	-10.4	66	2	
2025-10-14T00:00	3280	687	0.2	-10.7	60	2	
2025-10-14T00:00	3300	686	0.1	-10.7	49	1	
2025-10-14T00:00	3320	684	-0.1	-10.4	35	1	
2025-10-14T00:00	3340	682	-0.2	-9.7	21	1	
2025-10-14T00:00	3360	681	-0.4	-8.6	13	1	
2025-10-14T00:00	3380	679	-0.5	-8.8	9	1	
2025-10-14T00:00	3400	677	-0.7	-8.9	8	2	
2025-10-14T00:00	3420	675	-0.9	-8.4	7	2	
2025-10-14T00:00	3440	674	-1.0	-7.8	6	2	
2025-10-14T00:00	3460	672	-1.2	-7.7	3	2	
2025-10-14T00:00	3480	671	-1.3	-8.2	359	2	
2025-10-14T00:00	3500	669	-1.4	-8.3	353	2	
2025-10-14T00:00	3520	667	-1.6	-8.1	345	2	
2025-10-14T00:00	3540	665	-1.8	-8.1	337	2	
2025-10-14T00:00	3560	664	-1.9	-8.3	331	2	
2025-10-14T00:00	3580	662	-2.1	-8.6	327	2	
2025-10-14T00:00	3600	660	-2.2	-8.8	325	2	
2025-10-14T00:00	3620	659	-2.4	-8.7	325	2	
2025-10-14T00:00	3640	657	-2.6	-8.8	327	2	
2025-10-14T00:00	3660	655	-2.7	-8.9	330	2	
2025-10-14T00:00	3680	654	-2.9	-8.9	331	1	
2025-10-14T00:00	3700	652	-3.0	-9.0	330	1	
2025-10-14T00:00	3720	650	-3.1	-9.3	322	1	
2025-10-14T00:00	3740	649	-3.3	-9.4	312	1	
2025-10-14T00:00	3760	647	-3.4	-9.4	306	1	
2025-10-14T00:00	3780	646	-3.5	-9.8	303	1	
2025-10-14T00:00	3800	644	-3.7	-9.8	301	1	
2025-10-14T00:00	3820	642	-3.9	-9.7	300	1	
2025-10-14T00:00	3840	641	-4.0	-9.7	299	1	
2025-10-14T00:00	3860	639	-4.1	-10.5	298	2	
2025-10-14T00:00	3880	637	-4.2	-11.5	296	2	
2025-10-14T00:00	3900	636	-4.3	-12.2	295	2	
2025-10-14T00:00	3920	634	-4.4	-12.5	294	2	
2025-10-14T00:00	3940	633	-4.5	-12.4	293	2	
2025-10-14T00:00	3960	631	-4.7	-12.3	292	2	
2025-10-14T00:00	3980	629	-4.9	-11.9	291	2	
2025-10-14T00:00	4000	628	-5.0	-11.5	290	2	
2025-10-14T00:00	4020	626	-5.2	-11.3	289	2	
2025-10-14T00:00	4040	625	-5.4	-11.4	290	2	
2025-10-14T00:00	4060	623	-5.5	-12.1	290	3	
2025-10-14T00:00	4080	621	-5.6	-12.7	290	3	
2025-10-14T00:00	4100	620	-5.8	-13.2	287	3	
2025-10-14T00:00	4120	618	-5.9	-13.5	280	3	
2025-10-14T00:00	4140	617	-6.1	-13.7	272	3	
2025-10-14T00:00	4160	615	-6.3	-13.9	266	3	
2025-10-14T00:00	4180	613	-6.4	-14.6	260	3	
2025-10-14T00:00	4200	612	-6.6	-15.1	257	3	
2025-10-14T00:00	4220	611	-6.7	-15.3	256	3	
2025-10-14T00:00	4240	609	-6.9	-15.3	259	2	
2025-10-14T00:00	4260	607	-7.1	-15.9	263	2	
2025-10-14T00:00	4280	606	-7.3	-16.4	269	1	
2025-10-14T00:00	4300	604	-7.4	-17.2	274	1	
2025-10-14T00:00	4320	603	-7.4	-17.7	274	1	
2025-10-14T00:00	4340	601	-7.6	-17.8	267	1	
2025-10-14T00:00	4360	599	-7.7	-17.8	257	0	
2025-10-14T00:00	4380	598	-7.9	-17.8	256	1	
2025-10-14T00:00	4400	596	-8.1	-17.9	266	1	
2025-10-14T00:00	4420	595	-8.2	-18.0	279	1	
2025-10-14T00:00	4440	593	-8.3	-18.2	288	1	
2025-10-14T00:00	4460	592	-8.4	-18.6	296	2	
2025-10-14T00:00	4480	590	-8.4	-19.3	303	2	
2025-10-14T00:00	4500	589	-8.5	-19.8	309	2	
2025-10-14T00:00	4520	587	-8.6	-20.1	320	2	
2025-10-14T00:00	4540	586	-8.7	-20.4	337	2	
2025-10-14T00:00	4560	584	-8.9	-20.7	356	2	
2025-10-14T00:00	4580	583	-8.9	-21.1	22	2	
2025-10-14T00:00	4600	581	-8.9	-21.6	41	3	
2025-10-14T00:00	4620	580	-8.7	-23.2	51	3	
2025-10-14T00:00	4640	578	-8.6	-24.7	59	3	
2025-10-14T00:00	4660	577	-8.7	-25.3	64	3	
2025-10-14T00:00	4680	575	-8.8	-26.2	66	3	
2025-10-14T00:00	4700	574	-9.0	-26.9	68	3	
2025-10-14T00:00	4720	572	-9.1	-27.2	68	3	
2025-10-14T00:00	4740	571	-9.3	-27.3	68	4	
2025-10-14T00:00	4760	569	-9.5	-27.5	66	3	
2025-10-14T00:00	4780	568	-9.6	-28.2	62	3	
2025-10-14T00:00	4800	566	-9.7	-29.1	58	4	
2025-10-14T00:00	4820	565	-9.9	-29.7	54	4	
2025-10-14T00:00	4840	564	-10.0	-30.7	50	4	
2025-10-14T00:00	4860	562	-10.0	-31.0	48	4	
2025-10-14T00:00	4880	561	-10.1	-31.0	48	5	
2025-10-14T00:00	4900	559	-10.3	-31.0	49	5	
2025-10-14T00:00	4920	558	-10.4	-31.1	50	5	
2025-10-14T00:00	4940	556	-10.5	-30.8	51	5	
2025-10-14T00:00	4960	555	-10.7	-30.5	51	6	
2025-10-14T00:00	4980	553	-10.9	-30.3	50	6	
2025-10-14T00:00	5000	552	-11.1	-30.2	49	6	
2025-10-14T00:00	5020	551	-11.2	-30.2	48	6	
2025-10-14T00:00	5040	549	-11.4	-30.2	48	6	
2025-10-14T00:00	5060	548	-11.5	-30.4	48	6	
2025-10-14T00:00	5080	546	-11.7	-30.9	49	6	
2025-10-14T00:00	5100	545	-11.9	-31.4	51	6	
2025-10-14T00:00	5120	543	-12.0	-31.9	54	6	
2025-10-14T00:00	5140	542	-12.1	-32.5	56	5	
2025-10-14T00:00	5160	540	-12.2	-32.5	58	5	
2025-10-14T00:00	5180	539	-12.3	-32.7	60	4	
2025-10-14T00:00	5200	538	-12.4	-33.0	60	4	
2025-10-14T00:00	5220	536	-12.4	-33.3	57	4	
2025-10-14T00:00	5240	535	-12.5	-34.3	52	4	
2025-10-14T00:00	5260	533	-12.5	-34.3	49	4	
2025-10-14T00:00	5280	532	-12.6	-33.3	47	4	
2025-10-14T00:00	5300	531	-12.6	-33.0	47	4	
2025-10-14T00:00	5320	529	-12.7	-32.8	48	4	
2025-10-14T00:00	5340	528	-12.9	-32.8	52	4	
2025-10-14T00:00	5360	526	-13.0	-33.1	56	4	
2025-10-14T00:00	5380	525	-13.2	-33.0	61	4	
2025-10-14T00:00	5400	524	-13.3	-32.9	64	4	
2025-10-14T00:00	5420	522	-13.5	-32.9	65	4	
2025-10-14T00:00	5440	521	-13.6	-33.2	65	4	
2025-10-14T00:00	5460	520	-13.8	-33.3	63	5	
2025-10-14T00:00	5480	518	-13.9	-33.7	60	5	
2025-10-14T00:00	5500	517	-14.1	-33.7	58	5	
2025-10-14T00:00	5520	516	-14.2	-33.7	57	5	
2025-10-14T00:00	5540	514	-14.3	-34.0	56	4	
2025-10-14T00:00	5560	513	-14.4	-34.6	55	4	
2025-10-14T00:00	5580	512	-14.5	-34.3	53	4	
2025-10-14T00:00	5600	510	-14.6	-34.1	51	4	
2025-10-14T00:00	5620	509	-14.8	-34.0	49	4	
2025-10-14T00:00	5640	507	-15.1	-34.0	46	3	
2025-10-14T00:00	5660	506	-15.3	-34.0	43	3	
2025-10-14T00:00	5680	505	-15.4	-34.0	41	4	
2025-10-14T00:00	5700	504	-15.6	-33.9	40	4	
2025-10-14T00:00	5720	502	-15.8	-33.8	40	4	
2025-10-14T00:00	5740	501	-16.0	-33.6	42	4	
2025-10-14T00:00	5760	500	-16.1	-33.3	44	5	
2025-10-14T00:00	5780	498	-16.3	-33.1	46	5	
2025-10-14T00:00	5800	497	-16.5	-33.7	47	5	
2025-10-14T00:00	5820	495	-16.6	-33.7	48	6	
2025-10-14T00:00	5840	494	-16.8	-33.7	48	6	
2025-10-14T00:00	5860	493	-16.9	-33.4	48	6	
2025-10-14T00:00	5880	491	-17.1	-33.6	48	6	
2025-10-14T00:00	5900	490	-17.3	-33.6	47	6	
2025-10-14T00:00	5920	489	-17.4	-33.6	47	5	
2025-10-14T00:00	5940	487	-17.6	-33.8	46	5	
2025-10-14T00:00	5960	486	-17.8	-34.0	46	5	
2025-10-14T00:00	5980	485	-18.0	-33.8	47	5	
2025-10-14T00:00	6000	484	-18.2	-33.9	47	5	
2025-10-14T00:00	6020	482	-18.4	-33.9	47	5	
2025-10-14T00:00	6040	481	-18.5	-33.7	48	6	
2025-10-14T00:00	6060	480	-18.7	-33.5	48	6	
2025-10-14T00:00	6080	479	-18.8	-33.4	49	6	
2025-10-14T00:00	6100	477	-19.1	-33.3	49	6	
2025-10-14T00:00	6120	476	-19.3	-32.8	50	6	
2025-10-14T00:00	6140	475	-19.5	-32.0	50	6	
2025-10-14T00:00	6160	473	-19.6	-31.7	50	6	
2025-10-14T00:00	6180	472	-19.8	-31.8	50	6	
2025-10-14T00:00	6200	471	-20.1	-31.3	50	6	
2025-10-14T00:00	6220	470	-20.2	-31.2	49	6	
2025-10-14T00:00	6240	468	-20.3	-32.1	49	6	
2025-10-14T00:00	6260	467	-20.5	-31.8	48	6	
2025-10-14T00:00	6280	466	-20.7	-31.9	48	6	
2025-10-14T00:00	6300	464	-20.8	-32.2	48	6	
2025-10-14T00:00	6320	463	-20.9	-32.4	47	6	
2025-10-14T00:00	6340	462	-21.1	-32.5	45	6	
2025-10-14T00:00	6360	461	-21.3	-32.4	42	7	
2025-10-14T00:00	6380	460	-21.4	-32.9	40	7	
2025-10-14T00:00	6400	458	-21.5	-33.7	37	7	
2025-10-14T00:00	6420	457	-21.6	-34.3	34	7	
2025-10-14T00:00	6440	456	-21.8	-34.4	32	6	
2025-10-14T00:00	6460	455	-22.0	-34.5	30	6	
2025-10-14T00:00	6480	453	-22.2	-34.7	30	6	
2025-10-14T00:00	6500	452	-22.3	-35.0	30	6	
2025-10-14T00:00	6520	451	-22.5	-35.3	31	6	
2025-10-14T00:00	6540	450	-22.7	-35.8	32	6	
2025-10-14T00:00	6560	448	-22.8	-37.1	33	5	
2025-10-14T00:00	6580	447	-22.8	-37.8	33	5	
2025-10-14T00:00	6600	446	-22.9	-38.0	33	5	
2025-10-14T00:00	6620	445	-23.0	-38.9	32	5	
2025-10-14T00:00	6640	443	-23.0	-39.8	29	4	
2025-10-14T00:00	6660	442	-23.1	-40.4	26	4	
2025-10-14T00:00	6680	441	-23.2	-40.5	23	4	
2025-10-14T00:00	6700	440	-23.4	-40.5	19	3	
2025-10-14T00:00	6720	439	-23.6	-40.6	14	3	
2025-10-14T00:00	6740	437	-23.8	-40.7	9	3	
2025-10-14T00:00	6760	436	-24.0	-40.7	6	3	
2025-10-14T00:00	6780	435	-24.2	-40.8	4	3	
2025-10-14T00:00	6800	434	-24.3	-41.0	3	3	
2025-10-14T00:00	6820	433	-24.5	-41.0	4	4	
2025-10-14T00:00	6840	432	-24.6	-41.0	5	4	
2025-10-14T00:00	6860	430	-24.8	-41.2	8	4	
2025-10-14T00:00	6880	429	-24.9	-41.4	10	4	
2025-10-14T00:00	6900	428	-25.1	-41.6	13	4	
2025-10-14T00:00	6920	427	-25.2	-41.9	15	4	
2025-10-14T00:00	6940	426	-25.3	-42.1	18	4	
2025-10-14T00:00	6960	424	-25.5	-42.1	20	4	
2025-10-14T00:00	6980	423	-25.6	-42.3	22	4	
2025-10-14T00:00	7000	422	-25.7	-42.5	26	4	
2025-10-14T00:00	7020	421	-25.9	-42.7	29	4	
2025-10-14T00:00	7040	420	-26.1	-42.9	32	4	
2025-10-14T00:00	7060	419	-26.2	-43.1	34	5	
2025-10-14T00:00	7080	417	-26.4	-43.2	36	5	
2025-10-14T00:00	7100	416	-26.6	-43.3	37	5	
2025-10-14T00:00	7120	415	-26.8	-43.3	37	5	
2025-10-14T00:00	7140	414	-26.9	-43.3	36	6	
2025-10-14T00:00	7160	413	-27.1	-43.4	35	6	
2025-10-14T00:00	7180	412	-27.3	-43.6	34	6	
2025-10-14T00:00	7200	411	-27.4	-43.6	33	5	
2025-10-14T00:00	7220	410	-27.6	-43.7	31	5	
2025-10-14T00:00	7240	408	-27.7	-43.8	28	5	
2025-10-14T00:00	7260	407	-27.8	-44.2	25	5	
2025-10-14T00:00	7280	406	-27.8	-44.8	21	4	
2025-10-14T00:00	7300	405	-27.9	-45.0	17	4	
2025-10-14T00:00	7320	404	-28.0	-44.7	13	4	
2025-10-14T00:00	7340	403	-28.1	-43.9	9	4	
2025-10-14T00:00	7360	401	-28.3	-43.9	4	4	
2025-10-14T00:00	7380	400	-28.4	-44.3	1	4	
2025-10-14T00:00	7400	399	-28.4	-44.1	360	4	
2025-10-14T00:00	7420	398	-28.6	-43.4	358	4	
2025-10-14T00:00	7440	397	-28.8	-43.7	356	3	
2025-10-14T00:00	7460	396	-28.9	-45.3	355	3	
2025-10-14T00:00	7480	395	-29.1	-46.5	354	3	
2025-10-14T00:00	7500	394	-29.2	-44.4	353	3	
2025-10-14T00:00	7520	393	-29.4	-42.0	352	3	
2025-10-14T00:00	7540	392	-29.5	-41.1	350	3	
2025-10-14T00:00	7560	390	-29.7	-41.0	346	3	
2025-10-14T00:00	7580	389	-29.9	-40.8	341	3	
2025-10-14T00:00	7600	388	-30.1	-40.1	338	3	
2025-10-14T00:00	7620	387	-30.3	-40.2	336	3	
2025-10-14T00:00	7640	386	-30.4	-40.3	333	3	
2025-10-14T00:00	7660	385	-30.6	-40.3	330	3	
2025-10-14T00:00	7680	384	-30.8	-40.6	328	3	
2025-10-14T00:00	7700	383	-30.9	-41.2	326	3	
2025-10-14T00:00	7720	382	-31.0	-42.5	324	3	
2025-10-14T00:00	7740	381	-31.2	-42.7	323	3	
2025-10-14T00:00	7760	380	-31.3	-42.2	321	3	
2025-10-14T00:00	7780	379	-31.5	-41.4	319	3	
2025-10-14T00:00	7800	377	-31.7	-42.1	317	2	
2025-10-14T00:00	7820	376	-31.8	-42.4	316	2	
2025-10-14T00:00	7840	375	-32.0	-42.5	313	2	
2025-10-14T00:00	7860	374	-32.2	-42.7	309	2	
2025-10-14T00:00	7880	373	-32.4	-42.8	302	1	
2025-10-14T00:00	7900	372	-32.6	-43.2	295	1	
2025-10-14T00:00	7920	371	-32.8	-43.6	288	1	
2025-10-14T00:00	7940	370	-32.9	-43.6	285	1	
2025-10-14T00:00	7960	369	-33.1	-43.4	290	1	
2025-10-14T00:00	7980	368	-33.3	-43.5	296	2	
2025-10-14T00:00	8000	367	-33.5	-44.5	301	2	
2025-10-14T00:00	8020	366	-33.6	-45.3	306	2	
2025-10-14T00:00	8040	365	-33.8	-45.3	309	2	
2025-10-14T00:00	8060	364	-34.0	-45.4	310	3	
2025-10-14T00:00	8080	363	-34.2	-45.6	308	3	
2025-10-14T00:00	8100	362	-34.4	-46.0	305	3	
2025-10-14T00:00	8120	361	-34.5	-45.9	300	3	
2025-10-14T00:00	8140	360	-34.7	-45.9	295	3	
2025-10-14T00:00	8160	359	-34.9	-46.2	289	3	
2025-10-14T00:00	8180	358	-35.0	-46.4	282	2	
2025-10-14T00:00	8200	357	-35.2	-46.1	276	3	
2025-10-14T00:00	8220	355	-35.4	-46.0	274	3	
2025-10-14T00:00	8240	354	-35.5	-46.0	274	3	
2025-10-14T00:00	8260	354	-35.7	-45.9	277	3	
2025-10-14T00:00	8280	352	-35.9	-46.1	281	3	
2025-10-14T00:00	8300	351	-36.1	-46.2	288	3	
2025-10-14T00:00	8320	350	-36.3	-45.9	292	3	
2025-10-14T00:00	8340	350	-36.4	-46.2	295	3	
2025-10-14T00:00	8360	349	-36.6	-47.1	296	3	
2025-10-14T00:00	8380	347	-36.8	-47.1	295	3	
2025-10-14T00:00	8400	346	-36.9	-46.8	291	3	
2025-10-14T00:00	8420	346	-37.1	-46.7	286	4	
2025-10-14T00:00	8440	344	-37.3	-46.6	281	4	
2025-10-14T00:00	8460	343	-37.5	-46.7	276	4	
2025-10-14T00:00	8480	342	-37.7	-46.8	272	4	
2025-10-14T00:00	8500	342	-37.8	-46.7	270	4	
2025-10-14T00:00	8520	341	-38.0	-46.7	268	4	
2025-10-14T00:00	8540	340	-38.2	-46.7	267	4	
2025-10-14T00:00	8560	339	-38.4	-46.8	266	4	
2025-10-14T00:00	8580	338	-38.6	-46.7	266	4	
2025-10-14T00:00	8600	336	-38.8	-46.5	266	4	
2025-10-14T00:00	8620	336	-39.0	-46.4	266	4	
2025-10-14T00:00	8640	335	-39.1	-46.3	266	5	
2025-10-14T00:00	8660	334	-39.3	-46.4	266	5	
2025-10-14T00:00	8680	333	-39.5	-46.5	267	5	
2025-10-14T00:00	8700	332	-39.7	-46.5	268	5	
2025-10-14T00:00	8720	331	-39.8	-46.6	269	5	
2025-10-14T00:00	8740	330	-40.0	-46.6	271	5	
2025-10-14T00:00	8760	329	-40.2	-46.7	272	5	
2025-10-14T00:00	8780	328	-40.3	-47.0	274	5	
2025-10-14T00:00	8800	327	-40.5	-47.0	276	5	
2025-10-14T00:00	8820	326	-40.8	-47.0	278	5	
2025-10-14T00:00	8840	325	-40.9	-47.0	280	5	
2025-10-14T00:00	8860	324	-41.1	-47.2	283	5	
2025-10-14T00:00	8880	323	-41.3	-47.5	285	6	
2025-10-14T00:00	8900	322	-41.5	-47.7	287	6	
2025-10-14T00:00	8920	321	-41.7	-47.8	289	6	
2025-10-14T00:00	8940	320	-41.9	-47.9	290	6	
2025-10-14T00:00	8960	319	-42.1	-48.0	292	5	
2025-10-14T00:00	8980	318	-42.2	-48.4	293	5	
2025-10-14T00:00	9000	317	-42.4	-49.3	294	5	
2025-10-14T00:00	9020	316	-42.6	-50.9	294	4	
2025-10-14T00:00	9040	315	-42.7	-54.4	294	4	
2025-10-14T00:00	9060	315	-42.8	-59.3	294	4	
2025-10-14T00:00	9080	314	-42.8	-59.4	294	4	
2025-10-14T00:00	9100	313	-43.0	-57.5	294	3	
2025-10-14T00:00	9120	312	-43.2	-56.6	295	3	
2025-10-14T00:00	9140	311	-43.3	-56.1	297	4	
2025-10-14T00:00	9160	310	-43.5	-55.6	300	4	
2025-10-14T00:00	9180	309	-43.7	-55.6	302	4	
2025-10-14T00:00	9200	308	-43.8	-56.1	305	4	
2025-10-14T00:00	9220	307	-44.0	-56.3	308	4	
2025-10-14T00:00	9240	306	-44.2	-56.6	310	4	
2025-10-14T00:00	9260	305	-44.3	-57.5	312	4	
2025-10-14T00:00	9280	304	-44.5	-58.9	314	4	
2025-10-14T00:00	9300	304	-44.5	-60.2	316	3	
2025-10-14T00:00	9320	303	-44.6	-60.2	320	3	
2025-10-14T00:00	9340	302	-44.7	-59.8	324	3	
2025-10-14T00:00	9360	301	-44.9	-59.9	327	3	
2025-10-14T00:00	9380	300	-45.0	-60.1	328	3	
2025-10-14T00:00	9400	299	-45.1	-60.4	328	3	
2025-10-14T00:00	9420	298	-45.2	-60.4	326	3	
2025-10-14T00:00	9440	297	-45.4	-60.7	324	3	
2025-10-14T00:00	9460	296	-45.5	-60.7	321	2	
2025-10-14T00:00	9480	295	-45.7	-60.7	318	2	
2025-10-14T00:00	9500	295	-45.9	-60.8	318	2	
2025-10-14T00:00	9520	294	-46.1	-60.8	320	2	
2025-10-14T00:00	9540	293	-46.2	-61.0	324	2	
2025-10-14T00:00	9560	292	-46.3	-61.1	329	2	
2025-10-14T00:00	9580	291	-46.5	-61.1	333	3	
2025-10-14T00:00	9600	290	-46.7	-61.1	336	3	
2025-10-14T00:00	9620	289	-46.8	-61.1	337	3	
2025-10-14T00:00	9640	288	-47.0	-61.0	337	4	
2025-10-14T00:00	9660	288	-47.1	-61.0	337	4	
2025-10-14T00:00	9680	287	-47.3	-61.0	337	4	
2025-10-14T00:00	9700	286	-47.4	-61.0	337	4	
2025-10-14T00:00	9720	285	-47.6	-61.2	338	4	
2025-10-14T00:00	9740	284	-47.7	-61.6	340	4	
2025-10-14T00:00	9760	283	-47.8	-61.9	342	4	
2025-10-14T00:00	9780	282	-48.0	-62.0	346	4	
2025-10-14T00:00	9800	281	-48.1	-61.9	348	3	
2025-10-14T00:00	9820	281	-48.3	-62.0	350	3	
2025-10-14T00:00	9840	280	-48.4	-62.4	350	3	
2025-10-14T00:00	9860	279	-48.4	-62.7	347	3	
2025-10-14T00:00	9880	278	-48.6	-62.9	342	2	
2025-10-14T00:00	9900	277	-48.8	-63.0	334	2	
2025-10-14T00:00	9920	276	-48.9	-63.0	328	2	
2025-10-14T00:00	9940	276	-49.1	-63.1	325	2	
2025-10-14T00:00	9960	275	-49.2	-63.1	324	3	
2025-10-14T00:00	9980	274	-49.3	-63.1	325	3	
2025-10-14T00:00	10000	273	-49.4	-63.1	327	3	
2025-10-14T00:00	10018	272	-49.5	-63.0	329	3	
2025-10-14T00:00	10050	271	-49.8	-62.8	331	4	
2025-10-14T00:00	10100	269	-50.2	-62.6	335	4	
2025-10-14T00:00	10150	267	-50.7	-61.7	343	5	
2025-10-14T00:00	10200	265	-51.1	-60.7	354	5	
2025-10-14T00:00	10250	263	-51.4	-61.0	5	4	
2025-10-14T00:00	10300	261	-51.7	-61.5	17	4	
2025-10-14T00:00	10350	259	-51.9	-62.5	25	5	
2025-10-14T00:00	10400	257	-52.2	-63.4	29	5	
2025-10-14T00:00	10450	255	-52.5	-61.8	31	6	
2025-10-14T00:00	10500	253	-52.8	-61.0	30	6	
2025-10-14T00:00	10550	251	-53.2	-62.1	29	5	
2025-10-14T00:00	10600	249	-53.3	-62.5	29	5	
2025-10-14T00:00	10650	247	-53.7	-62.4	32	5	
2025-10-14T00:00	10700	245	-54.1	-62.4	32	5	
2025-10-14T00:00	10750	243	-54.5	-62.6	30	5	
2025-10-14T00:00	10800	241	-54.8	-62.8	26	4	
2025-10-14T00:00	10850	239	-55.2	-62.9	23	4	
2025-10-14T00:00	10900	237	-55.6	-63.2	26	4	
2025-10-14T00:00	10950	236	-55.8	-63.7	27	4	
2025-10-14T00:00	11000	234	-56.0	-64.3	16	4	
2025-10-14T00:00	11050	232	-56.2	-65.5	8	3	
2025-10-14T00:00	11100	230	-56.2	-67.3	6	2	
2025-10-14T00:00	11150	228	-56.3	-67.5	360	2	
2025-10-14T00:00	11200	227	-56.5	-67.7	1	2	
2025-10-14T00:00	11250	225	-56.8	-67.8	8	2	
2025-10-14T00:00	11300	223	-57.1	-67.8	5	3	
2025-10-14T00:00	11350	221	-57.3	-67.8	352	2	
2025-10-14T00:00	11400	219	-57.3	-67.6	330	2	
2025-10-14T00:00	11450	218	-57.6	-67.5	313	2	
2025-10-14T00:00	11500	216	-58.1	-67.4	309	3	
2025-10-14T00:00	11550	214	-58.5	-67.2	308	4	
2025-10-14T00:00	11600	213	-58.9	-67.3	312	4	
2025-10-14T00:00	11650	211	-59.0	-67.8	324	3	
2025-10-14T00:00	11700	209	-59.1	-68.2	338	3	
2025-10-14T00:00	11750	208	-59.2	-68.8	340	2	
2025-10-14T00:00	11800	206	-59.2	-69.3	318	3	
2025-10-14T00:00	11850	204	-59.3	-69.6	304	4	
2025-10-14T00:00	11900	203	-59.6	-69.8	303	5	
2025-10-14T00:00	11950	201	-59.7	-70.1	309	6	
2025-10-14T00:00	12000	199	-59.8	-70.8	318	5	
2025-10-14T00:00	12050	198	-59.3	-71.8	325	4	
2025-10-14T00:00	12100	196	-59.1	-72.7	342	2	
2025-10-14T00:00	12150	195	-58.5	-73.3	14	2	
2025-10-14T00:00	12200	193	-58.3	-73.7	18	2	
2025-10-14T00:00	12250	192	-58.4	-73.8	4	3	
2025-10-14T00:00	12300	190	-58.5	-74.0	353	3	
2025-10-14T00:00	12350	189	-58.9	-73.9	345	3	
2025-10-14T00:00	12400	187	-59.0	-74.0	339	3	
2025-10-14T00:00	12450	186	-59.1	-74.3	334	4	
2025-10-14T00:00	12500	184	-58.7	-75.0	337	4	
2025-10-14T00:00	12550	183	-58.6	-75.5	346	4	
2025-10-14T00:00	12600	181	-58.8	-75.6	354	4	
2025-10-14T00:00	12650	180	-59.2	-75.8	359	5	
2025-10-14T00:00	12700	178	-59.4	-76.0	4	5	
2025-10-14T00:00	12750	177	-59.6	-76.2	5	5	
2025-10-14T00:00	12800	176	-59.9	-76.4	358	4	
2025-10-14T00:00	12850	174	-60.0	-76.8	343	4	
2025-10-14T00:00	12900	173	-60.2	-77.0	330	4	
2025-10-14T00:00	12950	171	-60.6	-77.1	329	5	
2025-10-14T00:00	13000	170	-60.6	-77.5	333	6	
2025-10-14T00:00	13050	169	-60.3	-78.2	336	7	
2025-10-14T00:00	13100	167	-60.0	-78.8	338	8	
2025-10-14T00:00	13150	166	-59.7	-79.3	339	8	
2025-10-14T00:00	13200	165	-59.5	-79.5	344	8	
2025-10-14T00:00	13250	163	-59.9	-79.7	353	8	
2025-10-14T00:00	13300	162	-60.1	-80.1	2	8	
2025-10-14T00:00	13350	161	-60.4	-80.6	11	7	
2025-10-14T00:00	13400	159	-60.5	-81.0	15	6	
2025-10-14T00:00	13450	158	-60.5	-81.1	12	6	
2025-10-14T00:00	13500	157	-60.4	-81.1	4	5	
2025-10-14T00:00	13550	156	-60.7	-81.2	354	4	
2025-10-14T00:00	13600	154	-61.1	-81.2	340	3	
2025-10-14T00:00	13650	153	-61.4	-81.4	301	3	
2025-10-14T00:00	13700	152	-61.1	-81.4	273	4	
2025-10-14T00:00	13750	151	-60.9	-81.6	273	6	
2025-10-14T00:00	13800	150	-60.4	-81.7	281	6	
2025-10-14T00:00	13850	148	-60.4	-81.9	292	6	
2025-10-14T00:00	13900	147	-60.6	-81.9	307	6	
2025-10-14T00:00	13950	146	-60.7	-82.0	322	6	
2025-10-14T00:00	14000	145	-60.8	-82.0	334	6	
2025-10-14T00:00	14050	144	-61.1	-82.0	342	6	
2025-10-14T00:00	14100	143	-61.3	-82.1	348	4	
2025-10-14T00:00	14150	141	-61.0	-82.2	345	3	
2025-10-14T00:00	14200	140	-60.6	-82.4	329	2	
2025-10-14T00:00	14250	139	-60.4	-82.6	319	3	
2025-10-14T00:00	14300	138	-60.1	-82.5	308	3	
2025-10-14T00:00	14350	137	-60.0	-82.7	300	5	
2025-10-14T00:00	14400	136	-59.5	-82.6	302	6	
2025-10-14T00:00	14450	135	-59.6	-82.7	308	7	
2025-10-14T00:00	14500	134	-60.0	-82.7	316	8	
2025-10-14T00:00	14550	133	-60.2	-82.8	327	8	
2025-10-14T00:00	14600	131	-60.2	-82.7	338	8	
2025-10-14T00:00	14650	130	-60.4	-82.8	344	8	
2025-10-14T00:00	14700	129	-60.7	-82.9	347	7	
2025-10-14T00:00	14750	128	-60.8	-82.9	353	8	
2025-10-14T00:00	14800	127	-61.1	-83.0	357	7	
2025-10-14T00:00	14850	126	-61.4	-83.0	1	7	
2025-10-14T00:00	14900	125	-61.5	-83.1	4	6	
2025-10-14T00:00	14950	124	-61.3	-83.1	359	7	
2025-10-14T00:00	15000	123	-61.4	-83.2	349	8	
2025-10-14T00:00	15050	122	-61.6	-83.3	347	8	
2025-10-14T00:00	15100	121	-61.5	-83.4	352	8	
2025-10-14T00:00	15150	120	-61.2	-83.4	359	6	
2025-10-14T00:00	15200	119	-61.3	-83.5	359	5	
2025-10-14T00:00	15250	118	-61.2	-83.6	349	3	
2025-10-14T00:00	15300	118	-61.0	-83.6	320	2	
2025-10-14T00:00	15350	117	-61.1	-83.7	290	3	
2025-10-14T00:00	15400	116	-61.3	-83.8	287	3	
2025-10-14T00:00	15450	115	-61.4	-83.9	302	4	
2025-10-14T00:00	15500	114	-61.5	-83.9	317	5	
2025-10-14T00:00	15550	113	-61.5	-83.9	323	5	
2025-10-14T00:00	15600	112	-61.9	-84.0	326	5	
2025-10-14T00:00	15650	111	-62.3	-84.0	330	5	
2025-10-14T00:00	15700	110	-62.6	-84.0	328	5	
2025-10-14T00:00	15750	109	-62.9	-84.1	323	6	
2025-10-14T00:00	15800	108	-63.2	-84.2	318	6	
2025-10-14T00:00	15850	107	-63.5	-84.3	316	6	
2025-10-14T00:00	15900	107	-63.7	-84.3	316	6	
2025-10-14T00:00	15950	106	-63.7	-84.3	322	6	
2025-10-14T00:00	16000	105	-63.3	-84.0	331	6	
2025-10-14T00:00	16050	104	-63.3	-84.0	338	6	
2025-10-14T00:00	16100	103	-63.3	-84.1	346	7	
2025-10-14T00:00	16150	102	-63.5	-84.2	351	7	
2025-10-14T00:00	16200	102	-63.6	-84.4	354	6	
2025-10-14T00:00	16250	101	-63.5	-84.7	351	5	
2025-10-14T00:00	16300	100	-63.2	-84.8	344	5	
2025-10-14T00:00	16350	99	-63.2	-85.0	338	5	
2025-10-14T00:00	16400	98	-62.6	-84.7	336	5	
2025-10-14T00:00	16450	97	-62.6	-84.8	330	5	
2025-10-14T00:00	16500	97	-62.6	-84.9	321	5	
2025-10-14T00:00	16550	96	-62.5	-85.1	310	6	
2025-10-14T00:00	16600	95	-62.3	-85.3	301	6	
2025-10-14T00:00	16650	94	-62.3	-85.4	303	6	
2025-10-14T00:00	16700	94	-62.2	-85.3	313	7	
2025-10-14T00:00	16750	93	-62.2	-85.4	328	7	
2025-10-14T00:00	16800	92	-62.2	-85.3	341	8	
2025-10-14T00:00	16850	91	-62.4	-85.4	351	8	
2025-10-14T00:00	16900	91	-62.4	-85.4	358	8	
2025-10-14T00:00	16950	90	-62.6	-85.4	2	7	
2025-10-14T00:00	17000	89	-63.0	-85.5	8	6	
2025-10-14T00:00	17050	88	-63.4	-85.6	17	6	
2025-10-14T00:00	17100	88	-63.6	-85.8	19	6	
2025-10-14T00:00	17150	87	-63.4	-85.8	10	5	
2025-10-14T00:00	17200	86	-63.2	-85.8	359	5	
2025-10-14T00:00	17250	86	-63.5	-86.0	352	5	
2025-10-14T00:00	17300	85	-63.6	-86.0	350	6	
2025-10-14T00:00	17350	84	-63.8	-86.0	351	6	
2025-10-14T00:00	17400	84	-64.0	-86.3	351	6	
2025-10-14T00:00	17450	83	-63.9	-86.4	348	5	
2025-10-14T00:00	17500	82	-63.4	-86.4	354	5	
2025-10-14T00:00	17550	82	-63.0	-86.4	5	5	
2025-10-14T00:00	17600	81	-63.0	-86.5	8	5	
2025-10-14T00:00	17650	80	-62.7	-86.3	355	4	
2025-10-14T00:00	17700	80	-62.7	-86.4	338	5	
2025-10-14T00:00	17750	79	-62.8	-86.5	333	5	
2025-10-14T00:00	17800	78	-62.5	-86.3	333	6	
2025-10-14T00:00	17850	78	-62.7	-86.3	331	7	
2025-10-14T00:00	17900	77	-62.9	-86.4	330	8	
2025-10-14T00:00	17950	76	-62.8	-86.3	333	8	
2025-10-14T00:00	18000	76	-63.1	-86.4	338	7	
2025-10-14T00:00	18050	75	-63.2	-86.5	344	7	
2025-10-14T00:00	18100	75	-63.2	-86.6	352	7	
2025-10-14T00:00	18150	74	-63.0	-86.5	356	7	
2025-10-14T00:00	18200	73	-63.2	-86.6	356	6	
2025-10-14T00:00	18250	73	-63.2	-86.7	350	6	
2025-10-14T00:00	18300	72	-62.9	-86.6	342	6	
2025-10-14T00:00	18350	72	-62.9	-86.6	335	6	
2025-10-14T00:00	18400	71	-63.1	-86.6	326	6	
2025-10-14T00:00	18450	70	-63.4	-86.7	321	7	
2025-10-14T00:00	18500	70	-63.5	-86.8	325	7	
2025-10-14T00:00	18550	69	-63.5	-86.9	335	8	
2025-10-14T00:00	18600	69	-63.5	-86.9	344	9	
2025-10-14T00:00	18650	68	-63.6	-86.9	353	10	
2025-10-14T00:00	18700	68	-63.6	-87.1	360	9	
2025-10-14T00:00	18750	67	-63.4	-87.3	5	8	
2025-10-14T00:00	18800	67	-62.3	-87.1	8	6	
2025-10-14T00:00	18850	66	-61.8	-86.9	12	5	
2025-10-14T00:00	18900	65	-61.9	-86.7	15	5	
2025-10-14T00:00	18950	65	-62.3	-86.7	14	5	
2025-10-14T00:00	19000	64	-62.7	-86.7	10	4	
2025-10-14T00:00	19050	64	-62.9	-86.8	5	3	
2025-10-14T00:00	19100	63	-63.1	-87.1	3	3	
2025-10-14T00:00	19150	63	-62.6	-87.0	360	3	
2025-10-14T00:00	19200	62	-62.4	-87.1	349	4	
2025-10-14T00:00	19250	62	-62.3	-87.1	337	5	
2025-10-14T00:00	19300	61	-62.1	-87.0	328	6	
2025-10-14T00:00	19350	61	-61.8	-86.7	324	7	
2025-10-14T00:00	19400	60	-62.0	-86.8	323	8	
2025-10-14T00:00	19450	60	-62.1	-86.8	325	9	
2025-10-14T00:00	19500	59	-62.2	-86.7	330	10	
2025-10-14T00:00	19550	59	-62.5	-86.8	335	10	
2025-10-14T00:00	19600	58	-62.8	-87.0	338	11	
2025-10-14T00:00	19650	58	-62.7	-86.9	338	10	
2025-10-14T00:00	19700	58	-62.8	-87.1	341	8	
2025-10-14T00:00	19750	57	-63.0	-87.2	353	7	
2025-10-14T00:00	19800	57	-62.7	-87.1	8	6	
2025-10-14T00:00	19850	56	-62.8	-87.2	20	5	
2025-10-14T00:00	19900	56	-62.7	-87.2	31	4	
2025-10-14T00:00	19950	55	-62.6	-87.2	37	3	
2025-10-14T00:00	20000	55	-62.3	-87.1	33	2	
2025-10-14T00:00	20050	54	-62.5		9	2	
2025-10-14T00:00	20100	54	-62.8		347	2	
2025-10-14T00:00	20150	53	-62.9		338	3	
2025-10-14T00:00	20200	53	-63.1		327	3	
2025-10-14T00:00	20250	53	-63.0		322	4	
2025-10-14T00:00	20300	52	-62.8		327	5	
2025-10-14T00:00	20350	52	-62.7		334	7	
2025-10-14T00:00	20400	51	-62.6		339	8	
2025-10-14T00:00	20450	51	-62.2		346	8	
2025-10-14T00:00	20500	50	-61.7		351	8	
2025-10-14T00:00	20550	50	-61.4		353	8	
2025-10-14T00:00	20600	50	-61.1		356	7	
2025-10-14T00:00	20650	49	-61.0		359	7	
2025-10-14T00:00	20700	49	-61.0		2	7	
2025-10-14T00:00	20750	48	-60.7		7	7	
2025-10-14T00:00	20800	48	-60.2		13	5	
2025-10-14T00:00	20850	48	-59.9		16	4	
2025-10-14T00:00	20900	47	-59.8		6	2	
2025-10-14T00:00	20950	47	-60.1		328	1	
2025-10-14T00:00	21000	47	-60.3		290	2	
2025-10-14T00:00	21050	46	-60.2		284	2	
2025-10-14T00:00	21100	46	-60.0		293	1	
2025-10-14T00:00	21150	45	-60.2		317	1	
2025-10-14T00:00	21200	45	-60.4		325	1	
2025-10-14T00:00	21250	45	-60.3		302	1	
2025-10-14T00:00	21300	44	-60.3		285	2	
2025-10-14T00:00	21350	44	-60.8		290	2	
2025-10-14T00:00	21400	44	-61.2		311	2	
2025-10-14T00:00	21450	43	-61.2		334	3	
2025-10-14T00:00	21500	43	-61.1		343	3	
2025-10-14T00:00	21550	43	-61.1		336	4	
2025-10-14T00:00	21600	42	-61.2		318	4	
2025-10-14T00:00	21650	42	-61.3		297	4	
2025-10-14T00:00	21700	42	-61.0		285	4	
2025-10-14T00:00	21750	41	-60.9		281	5	
2025-10-14T00:00	21800	41	-60.8		278	5	
2025-10-14T00:00	21850	41	-60.7		272	5	
2025-10-14T00:00	21900	40	-60.8		268	5	
2025-10-14T00:00	21950	40	-60.9		270	5	
2025-10-14T00:00	22000	40	-60.8		282	4	
2025-10-14T00:00	22050	39	-61.0		304	4	
2025-10-14T00:00	22100	39	-61.0		322	4	
2025-10-14T00:00	22150	39	-60.9		336	4	
2025-10-14T00:00	22200	38	-61.1		349	4	
2025-10-14T00:00	22250	38	-61.2		356	3	
2025-10-14T00:00	22300	38	-61.2		354	3	
2025-10-14T00:00	22350	37	-61.5		338	2	
2025-10-14T00:00	22400	37	-61.8		309	2	
2025-10-14T00:00	22450	37	-61.9		287	3	
2025-10-14T00:00	22500	37	-61.7		273	4	
2025-10-14T00:00	22550	36	-61.9		261	5	
2025-10-14T00:00	22600	36	-62.3		250	5	
2025-10-14T00:00	22650	36	-62.5		241	5	
2025-10-14T00:00	22700	35	-62.7		242	5	
2025-10-14T00:00	22750	35	-62.7		254	5	
2025-10-14T00:00	22800	35	-62.7		275	6	
2025-10-14T00:00	22850	35	-62.8		286	7	
2025-10-14T00:00	22900	34	-62.0		290	7	
2025-10-14T00:00	22950	34	-60.9		292	7	
2025-10-14T00:00	23000	34	-61.2		295	6	
2025-10-14T00:00	23050	33	-61.5		297	5	
2025-10-14T00:00	23100	33	-61.6		298	5	
2025-10-14T00:00	23150	33	-61.8		298	4	
2025-10-14T00:00	23200	33	-61.8		295	3	
2025-10-14T00:00	23250	32	-61.4		284	2	
2025-10-14T00:00	23300	32	-61.4		261	2	
2025-10-14T00:00	23350	32	-61.3		242	2	
2025-10-14T00:00	23400	32	-61.3		235	2	
2025-10-14T00:00	23450	31	-61.4		236	3	
2025-10-14T00:00	23500	31	-61.5		242	4	
2025-10-14T00:00	23550	31	-61.8		253	5	
2025-10-14T00:00	23600	31	-62.2		265	5	
2025-10-14T00:00	23650	30	-62.4		276	6	
2025-10-14T00:00	23700	30	-61.9		285	5	
2025-10-14T00:00	23750	30	-61.7		290	5	
2025-10-14T00:00	23800	30	-61.2		294	4	
2025-10-14T00:00	23850	29	-61.0		303	5	
2025-10-14T00:00	23900	29	-61.0		313	5	
2025-10-14T00:00	23950	29	-61.1		319	6	
2025-10-14T00:00	24000	29	-61.0		322	5	
2025-10-14T00:00	24050	28	-60.7		320	4	
2025-10-14T00:00	24100	28	-60.5		311	3	
2025-10-14T00:00	24150	28	-60.1		297	2	
2025-10-14T00:00	24200	28	-59.9		280	2	
2025-10-14T00:00	24250	28	-59.8		266	2	
2025-10-14T00:00	24300	27	-59.3		257	3	
2025-10-14T00:00	24350	27	-58.9		257	3	
2025-10-14T00:00	24400	27	-58.2		263	4	
2025-10-14T00:00	24450	27	-57.9		272	5	
2025-10-14T00:00	24500	27	-57.9		276	5	
2025-10-14T00:00	24550	26	-57.8		274	6	
2025-10-14T00:00	24600	26	-57.9		273	8	
2025-10-14T00:00	24650	26	-57.5		274	9	
2025-10-14T00:00	24700	26	-57.3		273	10	
2025-10-14T00:00	24750	25	-57.6		268	11	
2025-10-14T00:00	24800	25	-57.5		263	13	
2025-10-14T00:00	24850	25	-57.2		261	13	
2025-10-14T00:00	24900	25	-56.9		266	13	
2025-10-14T00:00	24950	25	-57.1		273	13	
2025-10-14T00:00	25000	24	-57.3		282	12	
2025-10-14T00:00	25050	24	-57.3		290	12	
2025-10-14T00:00	25100	24	-57.5		294	12	
2025-10-14T00:00	25150	24	-57.8		298	11	
2025-10-14T00:00	25200	24	-57.9		305	10	
2025-10-14T00:00	25250	24	-57.9		311	9	
2025-10-14T00:00	25300	23	-58.1		314	8	
2025-10-14T00:00	25350	23	-58.3		314	7	
2025-10-14T00:00	25400	23	-58.4		311	5	
2025-10-14T00:00	25450	23	-58.6		302	4	
2025-10-14T00:00	25500	23	-58.5		285	4	
2025-10-14T00:00	25550	22	-58.2		271	5	
2025-10-14T00:00	25600	22	-58.3		264	6	
2025-10-14T00:00	25650	22	-58.4		261	7	
2025-10-14T00:00	25700	22	-58.0		263	7	
2025-10-14T00:00	25750	22	-58.1		268	8	
2025-10-14T00:00	25800	22	-58.1		275	8	
2025-10-14T00:00	25850	21	-57.8		282	9	
2025-10-14T00:00	25900	21	-57.4		287	10	
2025-10-14T00:00	25950	21	-56.9		290	10	
2025-10-14T00:00	26000	21	-56.5		290	11	
2025-10-14T00:00	26050	21	-56.4		288	11	
2025-10-14T00:00	26100	21	-56.5		287	12	
2025-10-14T00:00	26150	20	-55.7		288	12	
2025-10-14T00:00	26200	20	-55.7		291	12	
2025-10-14T00:00	26250	20	-56.1		294	12	
2025-10-14T00:00	26300	20	-56.4		297	11	
2025-10-14T00:00	26350	20	-56.6		298	11	
2025-10-14T00:00	26400	20	-56.5		297	11	
2025-10-14T00:00	26450	19	-56.2		291	10	
2025-10-14T00:00	26500	19	-56.2		284	9	
2025-10-14T00:00	26550	19	-56.1		279	9	
2025-10-14T00:00	26600	19	-56.1		276	9	
2025-10-14T00:00	26650	19	-56.0		274	10	
2025-10-14T00:00	26700	19	-55.7		271	11	
2025-10-14T00:00	26750	19	-55.4		266	12	
2025-10-14T00:00	26800	18	-54.8		262	13	
2025-10-14T00:00	26850	18	-54.7		258	14	
2025-10-14T00:00	26900	18	-54.5		257	15	
2025-10-14T00:00	26950	18	-54.4		258	15	
2025-10-14T00:00	27000	18	-54.8		263	15	
2025-10-14T00:00	27050	18	-55.2		270	15	
2025-10-14T00:00	27100	18	-55.3		278	16	
2025-10-14T00:00	27150	17	-55.1		282	16	
2025-10-14T00:00	27200	17	-55.1		285	15	
2025-10-14T00:00	27250	17	-55.0		286	15	
2025-10-14T00:00	27300	17	-55.0		288	14	
2025-10-14T00:00	27350	17	-55.0		291	13	
2025-10-14T00:00	27400	17	-55.1		295	12	
2025-10-14T00:00	27450	17	-55.2		295	12	
2025-10-14T00:00	27500	17	-55.4		290	12	
2025-10-14T00:00	27550	16	-55.0		283	12	
2025-10-14T00:00	27600	16	-54.4		277	12	
2025-10-14T00:00	27650	16	-54.3		275	12	
2025-10-14T00:00	27700	16	-54.3		276	11	
2025-10-14T00:00	27750	16	-54.4		280	11	
2025-10-14T00:00	27800	16	-54.0		284	10	
2025-10-14T00:00	27850	16	-54.2		287	9	
2025-10-14T00:00	27900	16	-54.3		290	8	
2025-10-14T00:00	27950	15	-53.5		293	8	
2025-10-14T00:00	28000	15	-52.6		293	9	
2025-10-14T00:00	28050	15	-52.5		291	10	
2025-10-14T00:00	28100	15	-52.5		289	10	
2025-10-14T00:00	28150	15	-52.5		290	11	
2025-10-14T00:00	28200	15	-52.6		290	12	
2025-10-14T00:00	28250	15	-52.7		290	12	
2025-10-14T00:00	28300	15	-52.4		288	10	
2025-10-14T00:00	28350	14	-51.9		287	9	
2025-10-14T00:00	28400	14	-51.9		286	8	
2025-10-14T00:00	28450	14	-52.3		284	6	
2025-10-14T00:00	28500	14	-52.6		281	5	
2025-10-14T00:00	28550	14	-52.7		276	4	
2025-10-14T00:00	28600	14	-52.5		271	4	
2025-10-14T00:00	28650	14	-52.3		266	4	
2025-10-14T00:00	28700	14	-52.2		258	5	
2025-10-14T00:00	28750	14	-51.9		251	7	
2025-10-14T00:00	28800	13	-51.7		246	8	
2025-10-14T00:00	28850	13	-51.4		245	10	
2025-10-14T00:00	28900	13	-51.3		247	12	
2025-10-14T00:00	28950	13	-51.1		248	13	
2025-10-14T00:00	29000	13	-51.2		248	15	
2025-10-14T00:00	29050	13	-51.2		247	16	
2025-10-14T00:00	29100	13	-51.1		249	16	
2025-10-14T00:00	29150	13	-51.0		252	17	
2025-10-14T00:00	29200	13	-51.0		256	17	
2025-10-14T00:00	29250	13	-51.1		259	16	
2025-10-14T00:00	29300	12	-51.3		263	15	
2025-10-14T00:00	29350	12	-51.5		267	14	
2025-10-14T00:00	29400	12	-51.7		270	13	
2025-10-14T00:00	29450	12	-51.8		272	11	
2025-10-14T00:00	29500	12	-51.7		269	10	
2025-10-14T00:00	29550	12	-51.7		263	10	
2025-10-14T00:00	29600	12	-51.6		256	10	
2025-10-14T00:00	29650	12	-51.6		251	11	
2025-10-14T00:00	29700	12	-51.7		247	12	
2025-10-14T00:00	29750	12	-51.8		243	13	
2025-10-14T00:00	29800	12	-51.9		241	13	
2025-10-14T00:00	29850	11	-51.9		244	13	
2025-10-14T00:00	29900	11	-52.0		251	12	
2025-10-14T00:00	29950	11	-51.8		261	11	
2025-10-14T00:00	30000	11	-51.6		271	10	
2025-10-14T00:00	30050	11	-51.4		280	9	
2025-10-14T00:00	30100	11	-51.3		283	9	
2025-10-14T00:00	30150	11	-50.5		281	10	
2025-10-14T00:00	30200	11	-50.4		274	10	
2025-10-14T00:00	30250	11	-50.8		265	10	
2025-10-14T00:00	30300	11	-50.9		259	11	
2025-10-14T00:00	30350	11	-50.9		255	12	
2025-10-14T00:00	30400	11	-50.8		254	12	
2025-10-14T00:00	30450	10	-50.8		253	13	
2025-10-14T00:00	30500	10	-50.9		250	13	
2025-10-14T00:00	30550	10	-51.2		249	14	
2025-10-14T00:00	30600	10	-51.5		249	14	
2025-10-14T00:00	30650	10	-51.5		251	15	
2025-10-14T00:00	30700	10	-51.2		254	15	
2025-10-14T00:00	30750	10	-51.4		258	14	
2025-10-14T00:00	30800	10	-51.5		259	14	
2025-10-14T00:00	30850	10	-51.5		255	13	
2025-10-14T00:00	30900	10	-51.2		248	13	
2025-10-14T00:00	30950	10	-51.0		242	13	
2025-10-14T00:00	31000	10	-51.0		239	14	
2025-10-14T00:00	31050	10	-51.0		238	14	
2025-10-14T00:00	31100	9	-51.0		238	14	
2025-10-14T00:00	31150	9	-51.1		240	15	
2025-10-14T00:00	31200	9	-51.3		242	16	
2025-10-14T00:00	31250	9	-51.5		244	17	
2025-10-14T00:00	31300	9	-51.6		247	18	
2025-10-14T00:00	31350	9	-51.7		251	18	
2025-10-14T00:00	31400	9	-51.8		256	17	
2025-10-14T00:00	31450	9	-51.6		261	17	
2025-10-14T00:00	31500	9	-51.4		265	16	
2025-10-14T00:00	31550	9	-51.7		267	15	
2025-10-14T00:00	31600	9	-51.7		269	15	
2025-10-14T00:00	31650	9	-51.7		272	14	
2025-10-14T00:00	31700	9	-51.6		274	14	
2025-10-14T00:00	31750	9	-50.9		273	14	
2025-10-14T00:00	31800	9	-49.9		267	13	
2025-10-14T00:00	31850	8	-49.3		258	12	
2025-10-14T00:00	31900	8	-49.2		249	12	
2025-10-14T00:00	31950	8	-49.1		241	13	
2025-10-14T00:00	32000	8	-49.0		235	13	
2025-10-14T00:00	32050	8	-48.8		234	15	
2025-10-14T00:00	32100	8	-48.3		236	16	
2025-10-14T00:00	32150	8	-47.8		239	18	
2025-10-14T00:00	32200	8	-47.2		244	19	
2025-10-14T00:00	32250	8	-47.0		249	19	
2025-10-14T00:00	32300	8	-47.1		254	19	
2025-10-14T00:00	32350	8	-47.3		259	19	
2025-10-14T00:00	32400	8	-47.4		266	19	
2025-10-14T00:00	32450	8	-47.0		272	19	
2025-10-14T00:00	32500	8	-46.4		276	20	
2025-10-14T00:00	32550	8	-46.2		278	20	
2025-10-14T00:00	32600	8	-46.2		279	21	
2025-10-14T00:00	32650	7	-46.2		277	21	
2025-10-14T00:00	32700	7	-46.0		275	21	
2025-10-14T00:00	32750	7	-45.2		273	20	
2025-10-14T00:00	32800	7	-44.5		275	19	
2025-10-14T00:00	32850	7	-44.6		278	19	
2025-10-14T00:00	32900	7	-44.8		279	17	
2025-10-14T00:00	32950	7	-45.0		280	16	
2025-10-14T00:00	33000	7	-45.0		279	15	
2025-10-14T00:00	33050	7	-45.1		279	14	
2025-10-14T00:00	33100	7	-45.3		278	13	
2025-10-14T00:00	33150	7	-45.2		277	12	
2025-10-14T00:00	33200	7	-45.0		274	12	
2025-10-14T00:00	33250	7	-44.5		270	13	
2025-10-14T00:00	33300	7	-43.8		264	14	
2025-10-14T00:00	33350	7	-43.8		258	16	
2025-10-14T00:00	33400	7	-43.8		253	18	
2025-10-14T00:00	33450	7	-43.6		247	20	
2025-10-14T00:00	33500	7	-43.0		243	23	
2025-10-14T00:00	33550	7	-42.6		241	25	
2025-10-14T00:00	33600	6	-42.6		241	27	
2025-10-14T00:00	33650	6	-42.4		243	29	
2025-10-14T00:00	33700	6	-42.2		244	29	
2025-10-14T00:00	33750	6	-41.7		246	29	
2025-10-14T00:00	33800	6	-40.9		249	27	
2025-10-14T00:00	33850	6	-40.7		250	25	
2025-10-14T00:00	33900	6	-40.5		251	23	
2025-10-14T00:00	33950	6	-40.4		252	21	
2025-10-14T00:00	34000	6	-40.6		253	19	
2025-10-14T00:00	34050	6	-40.8		254	17	
2025-10-14T00:00	34100	6	-41.1		255	16	
2025-10-14T00:00	34150	6	-41.3		255	14	
2025-10-14T00:00	34200	6	-41.5		253	13	
2025-10-14T00:00	34250	6	-41.7		250	12	
2025-10-14T00:00	34300	6	-41.8		247	13	
2025-10-14T00:00	34350	6	-41.1		246	15	
2025-10-14T00:00	34400	6	-41.2		247	17	
2025-10-14T00:00	34450	6	-41.4		246	19	
2025-10-14T00:00	34500	6	-41.7		245	20	
2025-10-14T00:00	34550	6	-41.9		244	21	
2025-10-14T00:00	34600	6	-42.0		245	22	
2025-10-14T00:00	34650	6	-42.0		245	22	
2025-10-14T00:00	34700	6	-41.8		246	21	
2025-10-14T00:00	34750	5	-41.5		247	19	
2025-10-14T00:00	34800	5	-41.1		249	18	
2025-10-14T00:00	34850	5	-41.1		251	17	
2025-10-14T00:00	34900	5	-40.8		252	16	
2025-10-14T00:00	34950	5	-40.5		249	15	
2025-10-14T00:00	35000	5	-39.9		244	15	
2025-10-14T00:00	35050	5	-39.8		241	16	
2025-10-14T00:00	35100	5	-39.4		240	17	
2025-10-14T00:00	35150	5	-38.9		241	18	
2025-10-14T00:00	35200	5	-37.9		242	19	
2025-10-14T00:00	35250	5	-36.9		243	19	
2025-10-14T00:00	35300	5	-36.2		245	20	
2025-10-14T00:00	35350	5	-36.0		249	21	
2025-10-14T00:00	35400	5	-36.0		251	22	
2025-10-14T00:00	35450	5	-35.9		252	24	
2025-10-14T00:00	35500	5	-35.1		253	26	
2025-10-14T00:00	35550	5	-35.1		255	27	
2025-10-14T00:00	35600	5	-35.3		258	29	
2025-10-14T00:00	35650	5	-35.0		262	30	
2025-10-14T00:00	35700	5	-34.7		264	30	
2025-10-14T00:00	35750	5	-34.0		266	29	
2025-10-14T00:00	35800	5	-33.5		266	27	
2025-10-14T00:00	35850	5	-33.5		267	25	
2025-10-14T00:00	35900	5	-33.7		268	24	
2025-10-14T00:00	35950	5	-34.0		269	23	
2025-10-14T00:00	36000	5	-34.3		270	21	
2025-10-14T00:00	36050	5	-34.4		269	20	
2025-10-14T00:00	36100	5	-34.3		267	20	
2025-10-14T00:00	36150	4	-33.5		265	21	
2025-10-14T00:00	36200	4	-33.5		264	23	
2025-10-14T00:00	36250	4	-33.8		262	25	
2025-10-14T00:00	36300	4	-33.9		261	26	
2025-10-14T00:00	36350	4	-33.7		261	25	
2025-10-14T00:00	36400	4	-34.0		263	24	
2025-10-14T00:00	36450	4	-34.2		264	24	
2025-10-14T00:00	36500	4	-34.2		263	25	
2025-10-14T00:00	36550	4	-33.9		261	27	
2025-10-14T00:00	36600	4	-33.8		260	28	
2025-10-14T00:00	36650	4	-33.9		260	29	
2025-10-14T00:00	36700	4	-34.1		260	30	
2025-10-14T00:00	36750	4	-34.5		261	31	
2025-10-14T00:00	36800	4	-34.8		261	32	
2025-10-14T00:00	36850	4	-34.8		262	32	
2025-10-14T12:00	491	965	12.2	8.5	55	1	
2025-10-14T12:00	501	964	12.0	8.7	52	2	
2025-10-14T12:00	520	962	11.7	8.6	53	2	
2025-10-14T12:00	540	960	11.4	8.2	54	2	
2025-10-14T12:00	560	958	11.3	8.4	54	2	
2025-10-14T12:00	580	955	11.1	8.2	54	3	
2025-10-14T12:00	600	953	10.8	8.0	53	3	
2025-10-14T12:00	620	951	10.7	8.1	53	3	
2025-10-14T12:00	640	948	10.5	8.1	53	3	
2025-10-14T12:00	660	946	10.2	7.9	53	3	
2025-10-14T12:00	680	944	10.0	7.8	53	2	
2025-10-14T12:00	700	942	9.8	7.8	55	2	
2025-10-14T12:00	720	939	9.6	7.8	56	2	
2025-10-14T12:00	740	937	9.4	7.7	57	2	
2025-10-14T12:00	760	935	9.2	7.6	58	2	
2025-10-14T12:00	780	933	9.0	7.6	58	2	
2025-10-14T12:00	800	930	8.7	7.5	56	2	
2025-10-14T12:00	820	928	8.6	7.5	53	2	
2025-10-14T12:00	840	926	8.4	7.0	48	2	
2025-10-14T12:00	860	924	8.2	6.6	44	2	
2025-10-14T12:00	880	922	8.0	6.3	42	2	
2025-10-14T12:00	900	919	7.9	6.2	41	2	
2025-10-14T12:00	920	917	7.7	6.1	44	2	
2025-10-14T12:00	940	915	7.5	6.1	48	2	
2025-10-14T12:00	960	912	7.3	6.1	52	3	
2025-10-14T12:00	980	910	7.1	6.1	54	3	
2025-10-14T12:00	1000	908	6.9	6.0	53	3	
2025-10-14T12:00	1020	906	6.8	5.9	52	3	
2025-10-14T12:00	1040	904	6.8	5.9	50	3	
2025-10-14T12:00	1060	901	6.6	5.8	47	3	
2025-10-14T12:00	1080	899	6.4	5.8	45	3	
2025-10-14T12:00	1100	897	6.2	5.7	44	3	
2025-10-14T12:00	1120	895	6.1	5.4	44	3	
2025-10-14T12:00	1140	893	6.0	5.4	45	3	
2025-10-14T12:00	1160	891	5.8	5.3	48	2	
2025-10-14T12:00	1180	888	5.6	5.3	51	2	
2025-10-14T12:00	1200	886	5.5	5.3	53	2	
2025-10-14T12:00	1220	884	5.3	5.2	55	2	
2025-10-14T12:00	1240	882	5.1	5.1	57	2	
2025-10-14T12:00	1260	880	5.0	5.0	60	2	
2025-10-14T12:00	1280	877	4.8	4.8	63	3	
2025-10-14T12:00	1300	876	4.8	4.8	66	3	
2025-10-14T12:00	1320	873	4.7	4.7	70	3	
2025-10-14T12:00	1340	871	4.6	4.6	73	3	
2025-10-14T12:00	1360	869	4.5	4.5	76	3	
2025-10-14T12:00	1380	867	4.4	4.4	79	3	
2025-10-14T12:00	1400	865	4.3	4.3	80	3	
2025-10-14T12:00	1420	863	4.2	4.2	80	2	
2025-10-14T12:00	1440	861	4.1	4.1	78	1	
2025-10-14T12:00	1460	858	3.9	3.9	65	1	
2025-10-14T12:00	1480	856	3.8	3.8	275	1	
2025-10-14T12:00	1500	854	3.7	3.7	267	2	
2025-10-14T12:00	1520	852	3.9	2.7	264	3	
2025-10-14T12:00	1540	850	5.8	-2.1	264	4	
2025-10-14T12:00	1560	848	7.7	-4.6	263	5	
2025-10-14T12:00	1580	846	8.8	-4.8	264	5	
2025-10-14T12:00	1600	844	9.2	-5.1	265	5	
2025-10-14T12:00	1620	842	9.3	-5.6	266	5	
2025-10-14T12:00	1640	840	9.3	-6.2	267	5	
2025-10-14T12:00	1660	838	9.2	-6.3	269	5	
2025-10-14T12:00	1680	836	9.2	-6.9	270	4	
2025-10-14T12:00	1700	834	9.2	-7.4	271	4	
2025-10-14T12:00	1720	832	9.2	-6.4	272	4	
2025-10-14T12:00	1740	830	9.1	-4.4	274	4	
2025-10-14T12:00	1760	828	8.9	-3.1	276	4	
2025-10-14T12:00	1780	826	8.7	-3.2	279	3	
2025-10-14T12:00	1800	824	8.5	-4.1	281	3	
2025-10-14T12:00	1820	822	8.4	-5.8	285	2	
2025-10-14T12:00	1840	820	8.5	-7.8	291	2	
2025-10-14T12:00	1860	818	8.6	-7.1	298	2	
2025-10-14T12:00	1880	816	8.5	-6.5	307	1	
2025-10-14T12:00	1900	814	8.4	-6.1	317	1	
2025-10-14T12:00	1920	812	8.2	-5.9	326	1	
2025-10-14T12:00	1940	810	8.1	-5.4	338	1	
2025-10-14T12:00	1960	808	8.0	-5.0	351	1	
2025-10-14T12:00	1980	806	7.8	-4.8	9	1	
2025-10-14T12:00	2000	804	7.7	-4.7	32	1	
2025-10-14T12:00	2020	802	7.6	-4.8	48	1	
2025-10-14T12:00	2040	800	7.6	-4.8	54	1	
2025-10-14T12:00	2060	798	7.6	-4.6	55	2	
2025-10-14T12:00	2080	796	7.5	-4.1	53	2	
2025-10-14T12:00	2100	794	7.3	-3.5	50	2	
2025-10-14T12:00	2120	792	7.1	-3.4	46	2	
2025-10-14T12:00	2140	791	7.0	-3.5	43	2	
2025-10-14T12:00	2160	788	6.8	-3.0	40	2	
2025-10-14T12:00	2180	786	6.7	-3.1	38	2	
2025-10-14T12:00	2200	785	6.6	-3.1	37	2	
2025-10-14T12:00	2220	783	6.5	-3.2	36	2	
2025-10-14T12:00	2240	781	6.3	-3.2	36	2	
2025-10-14T12:00	2260	779	6.1	-3.2	35	2	
2025-10-14T12:00	2280	777	6.0	-3.4	34	2	
2025-10-14T12:00	2300	775	5.9	-3.6	32	2	
2025-10-14T12:00	2320	773	5.8	-3.8	28	2	
2025-10-14T12:00	2340	771	5.6	-3.8	23	2	
2025-10-14T12:00	2360	769	5.5	-3.7	17	1	
2025-10-14T12:00	2380	767	5.3	-3.5	10	1	
2025-10-14T12:00	2400	766	5.2	-3.3	3	1	
2025-10-14T12:00	2420	764	5.0	-2.9	356	1	
2025-10-14T12:00	2440	762	4.8	-3.0	355	1	
2025-10-14T12:00	2460	760	4.6	-2.9	1	1	
2025-10-14T12:00	2480	758	4.5	-2.9	16	1	
2025-10-14T12:00	2500	757	4.4	-3.1	46	1	
2025-10-14T12:00	2520	755	4.2	-2.9	76	1	
2025-10-14T12:00	2540	752	4.0	-3.0	90	1	
2025-10-14T12:00	2560	751	3.9	-3.1	94	1	
2025-10-14T12:00	2580	749	3.7	-3.1	96	1	
2025-10-14T12:00	2600	747	3.6	-3.3	95	1	
2025-10-14T12:00	2620	745	3.4	-3.4	91	2	
2025-10-14T12:00	2640	743	3.3	-3.6	88	2	
2025-10-14T12:00	2660	742	3.2	-4.1	84	2	
2025-10-14T12:00	2680	740	3.1	-4.3	80	2	
2025-10-14T12:00	2700	738	3.1	-4.3	78	1	
2025-10-14T12:00	2720	736	3.0	-4.3	82	1	
2025-10-14T12:00	2740	734	2.8	-4.3	89	1	
2025-10-14T12:00	2760	733	2.7	-4.3	98	1	
2025-10-14T12:00	2780	731	2.6	-4.5	109	1	
2025-10-14T12:00	2800	729	2.5	-4.6	117	1	
2025-10-14T12:00	2820	727	2.4	-4.7	120	0	
2025-10-14T12:00	2840	725	2.3	-4.8	115	0	
2025-10-14T12:00	2860	724	2.1	-4.9	98	0	
2025-10-14T12:00	2880	722	1.9	-5.0	85	0	
2025-10-14T12:00	2900	720	1.8	-5.3	84	0	
2025-10-14T12:00	2920	718	1.7	-5.6	87	1	
2025-10-14T12:00	2940	716	1.5	-5.8	89	1	
2025-10-14T12:00	2960	715	1.3	-5.8	90	1	
2025-10-14T12:00	2980	713	1.1	-5.9	91	2	
2025-10-14T12:00	3000	711	0.9	-6.1	91	2	
2025-10-14T12:00	3020	709	0.7	-6.0	92	2	
2025-10-14T12:00	3040	708	0.5	-6.1	93	2	
2025-10-14T12:00	3060	706	0.3	-6.3	95	2	
2025-10-14T12:00	3080	704	0.1	-6.3	98	2	
2025-10-14T12:00	3100	702	-0.1	-6.4	100	1	
2025-10-14T12:00	3120	700	-0.3	-6.5	94	1	
2025-10-14T12:00	3140	699	-0.4	-6.8	81	1	
2025-10-14T12:00	3160	697	-0.6	-7.0	63	1	
2025-10-14T12:00	3180	695	-0.7	-7.3	54	1	
2025-10-14T12:00	3200	694	-0.9	-7.3	51	1	
2025-10-14T12:00	3220	692	-1.1	-7.4	51	1	
2025-10-14T12:00	3240	690	-1.2	-7.7	51	2	
2025-10-14T12:00	3260	688	-1.4	-7.5	52	2	
2025-10-14T12:00	3280	687	-1.5	-7.4	53	2	
2025-10-14T12:00	3300	685	-1.7	-7.3	51	2	
2025-10-14T12:00	3320	683	-1.8	-7.4	48	2	
2025-10-14T12:00	3340	681	-1.8	-8.9	41	2	
2025-10-14T12:00	3360	680	-1.9	-9.8	31	1	
2025-10-14T12:00	3380	678	-2.0	-10.4	20	1	
2025-10-14T12:00	3400	677	-2.1	-10.5	10	1	
2025-10-14T12:00	3420	675	-2.3	-10.7	0	1	
2025-10-14T12:00	3440	673	-2.4	-11.0	355	1	
2025-10-14T12:00	3460	671	-2.6	-11.2	357	1	
2025-10-14T12:00	3480	670	-2.7	-11.5	3	1	
2025-10-14T12:00	3500	668	-2.9	-11.7	13	1	
2025-10-14T12:00	3520	666	-3.0	-12.6	22	1	
2025-10-14T12:00	3540	664	-3.1	-13.8	30	1	
2025-10-14T12:00	3560	663	-3.2	-15.7	38	2	
2025-10-14T12:00	3580	661	-3.4	-16.3	44	2	
2025-10-14T12:00	3600	659	-3.4	-18.0	47	2	
2025-10-14T12:00	3620	658	-3.5	-17.7	49	2	
2025-10-14T12:00	3640	656	-3.6	-19.0	50	2	
2025-10-14T12:00	3660	655	-3.5	-23.2	50	2	
2025-10-14T12:00	3680	653	-3.4	-25.3	49	2	
2025-10-14T12:00	3700	651	-3.4	-24.8	48	2	
2025-10-14T12:00	3720	650	-3.5	-22.4	46	2	
2025-10-14T12:00	3740	648	-3.7	-20.4	44	2	
2025-10-14T12:00	3760	646	-3.8	-19.5	43	3	
2025-10-14T12:00	3780	645	-3.9	-18.7	43	3	
2025-10-14T12:00	3800	643	-4.0	-18.4	43	3	
2025-10-14T12:00	3820	641	-4.1	-18.5	43	2	
2025-10-14T12:00	3840	640	-4.2	-18.6	41	2	
2025-10-14T12:00	3860	638	-4.3	-18.8	37	2	
2025-10-14T12:00	3880	636	-4.5	-18.9	25	1	
2025-10-14T12:00	3900	635	-4.6	-19.1	7	1	
2025-10-14T12:00	3920	633	-4.8	-19.2	351	1	
2025-10-14T12:00	3940	632	-4.9	-19.1	341	2	
2025-10-14T12:00	3960	630	-5.1	-19.1	339	2	
2025-10-14T12:00	3980	628	-5.3	-19.0	340	2	
2025-10-14T12:00	4000	627	-5.5	-19.0	342	3	
2025-10-14T12:00	4020	625	-5.6	-19.1	346	3	
2025-10-14T12:00	4040	624	-5.8	-19.1	349	3	
2025-10-14T12:00	4060	622	-5.9	-19.2	353	3	
2025-10-14T12:00	4080	620	-6.1	-19.2	356	3	
2025-10-14T12:00	4100	619	-6.2	-19.4	359	2	
2025-10-14T12:00	4120	617	-6.4	-19.4	4	2	
2025-10-14T12:00	4140	616	-6.5	-19.5	7	2	
2025-10-14T12:00	4160	614	-6.7	-19.4	9	2	
2025-10-14T12:00	4180	613	-6.9	-19.2	5	2	
2025-10-14T12:00	4200	611	-7.0	-19.4	359	3	
2025-10-14T12:00	4220	609	-7.1	-19.7	352	3	
2025-10-14T12:00	4240	608	-7.1	-19.9	345	3	
2025-10-14T12:00	4260	607	-7.2	-20.0	337	3	
2025-10-14T12:00	4280	605	-7.4	-20.6	331	3	
2025-10-14T12:00	4300	603	-7.5	-22.4	328	3	
2025-10-14T12:00	4320	602	-7.6	-23.9	329	3	
2025-10-14T12:00	4340	600	-7.7	-27.3	332	3	
2025-10-14T12:00	4360	599	-7.8	-28.2	335	3	
2025-10-14T12:00	4380	597	-7.9	-27.9	337	3	
2025-10-14T12:00	4400	596	-8.1	-27.1	338	3	
2025-10-14T12:00	4420	594	-8.3	-25.0	338	3	
2025-10-14T12:00	4440	592	-8.5	-23.4	338	2	
2025-10-14T12:00	4460	591	-8.6	-23.3	337	2	
2025-10-14T12:00	4480	590	-8.8	-23.1	335	1	
2025-10-14T12:00	4500	588	-9.0	-23.2	337	1	
2025-10-14T12:00	4520	586	-9.1	-23.6	341	1	
2025-10-14T12:00	4540	585	-9.3	-23.5	349	1	
2025-10-14T12:00	4560	584	-9.4	-23.4	355	1	
2025-10-14T12:00	4580	582	-9.6	-22.8	356	1	
2025-10-14T12:00	4600	580	-9.8	-21.9	353	2	
2025-10-14T12:00	4620	579	-9.9	-21.4	351	2	
2025-10-14T12:00	4640	577	-10.0	-22.4	349	3	
2025-10-14T12:00	4660	576	-10.2	-22.7	347	3	
2025-10-14T12:00	4680	574	-10.3	-22.6	345	4	
2025-10-14T12:00	4700	573	-10.4	-22.1	344	4	
2025-10-14T12:00	4720	571	-10.6	-19.8	342	5	
2025-10-14T12:00	4740	570	-10.7	-19.6	341	5	
2025-10-14T12:00	4760	568	-10.7	-19.9	340	5	
2025-10-14T12:00	4780	567	-10.8	-20.3	339	5	
2025-10-14T12:00	4800	565	-10.9	-20.6	340	5	
2025-10-14T12:00	4820	564	-10.9	-21.1	340	5	
2025-10-14T12:00	4840	562	-11.0	-20.9	341	5	
2025-10-14T12:00	4860	561	-11.2	-20.9	342	5	
2025-10-14T12:00	4880	560	-11.3	-21.1	343	5	
2025-10-14T12:00	4900	558	-11.4	-21.7	342	5	
2025-10-14T12:00	4920	557	-11.4	-22.2	341	5	
2025-10-14T12:00	4940	555	-11.5	-22.4	339	5	
2025-10-14T12:00	4960	554	-11.6	-22.5	336	4	
2025-10-14T12:00	4980	552	-11.7	-22.4	335	4	
2025-10-14T12:00	5000	551	-11.8	-22.1	336	5	
2025-10-14T12:00	5020	550	-11.8	-22.2	338	5	
2025-10-14T12:00	5040	548	-11.8	-22.7	340	5	
2025-10-14T12:00	5060	547	-11.8	-23.8	342	6	
2025-10-14T12:00	5080	545	-11.9	-24.4	343	6	
2025-10-14T12:00	5100	544	-12.0	-24.6	343	7	
2025-10-14T12:00	5120	542	-12.1	-25.4	343	7	
2025-10-14T12:00	5140	541	-12.2	-29.2	342	7	
2025-10-14T12:00	5160	539	-12.3	-31.1	341	7	
2025-10-14T12:00	5180	538	-12.4	-33.7	340	7	
2025-10-14T12:00	5200	537	-12.5	-36.1	336	6	
2025-10-14T12:00	5220	535	-12.7	-36.4	332	6	
2025-10-14T12:00	5240	534	-12.9	-36.0	328	6	
2025-10-14T12:00	5260	533	-13.0	-34.0	320	5	
2025-10-14T12:00	5280	531	-13.1	-32.7	313	5	
2025-10-14T12:00	5300	530	-13.2	-33.5	308	5	
2025-10-14T12:00	5320	528	-13.3	-34.3	306	5	
2025-10-14T12:00	5340	527	-13.5	-34.0	307	5	
2025-10-14T12:00	5360	526	-13.7	-33.6	311	6	
2025-10-14T12:00	5380	524	-13.9	-33.1	314	6	
2025-10-14T12:00	5400	523	-14.0	-33.0	318	6	
2025-10-14T12:00	5420	521	-14.2	-33.1	322	6	
2025-10-14T12:00	5440	520	-14.3	-33.5	327	6	
2025-10-14T12:00	5460	519	-14.6	-34.2	331	6	
2025-10-14T12:00	5480	517	-14.8	-35.2	334	6	
2025-10-14T12:00	5500	516	-14.9	-35.3	336	6	
2025-10-14T12:00	5520	515	-15.1	-35.7	338	5	
2025-10-14T12:00	5540	513	-15.3	-36.3	340	5	
2025-10-14T12:00	5560	512	-15.5	-36.1	341	5	
2025-10-14T12:00	5580	510	-15.6	-35.9	339	5	
2025-10-14T12:00	5600	509	-15.8	-35.6	336	4	
2025-10-14T12:00	5620	508	-16.0	-35.6	333	4	
2025-10-14T12:00	5640	506	-16.2	-35.3	328	4	
2025-10-14T12:00	5660	505	-16.4	-35.0	321	5	
2025-10-14T12:00	5680	504	-16.6	-34.3	317	5	
2025-10-14T12:00	5700	502	-16.7	-34.4	316	5	
2025-10-14T12:00	5720	501	-16.9	-34.8	316	5	
2025-10-14T12:00	5740	500	-17.0	-34.8	320	5	
2025-10-14T12:00	5760	499	-17.2	-35.0	325	5	
2025-10-14T12:00	5780	497	-17.3	-35.6	330	5	
2025-10-14T12:00	5800	496	-17.5	-33.8	334	5	
2025-10-14T12:00	5820	494	-17.6	-31.8	337	6	
2025-10-14T12:00	5840	493	-17.8	-32.2	338	6	
2025-10-14T12:00	5860	492	-17.9	-32.8	339	6	
2025-10-14T12:00	5880	490	-17.9	-34.7	337	6	
2025-10-14T12:00	5900	489	-17.9	-34.9	335	6	
2025-10-14T12:00	5920	488	-18.0	-34.8	333	6	
2025-10-14T12:00	5940	487	-18.2	-34.0	330	6	
2025-10-14T12:00	5960	485	-18.4	-34.0	329	6	
2025-10-14T12:00	5980	484	-18.6	-34.0	328	6	
2025-10-14T12:00	6000	482	-18.8	-34.5	327	6	
2025-10-14T12:00	6020	481	-18.9	-35.5	326	6	
2025-10-14T12:00	6040	480	-19.0	-35.7	325	6	
2025-10-14T12:00	6060	479	-19.2	-36.0	326	6	
2025-10-14T12:00	6080	478	-19.3	-36.4	326	6	
2025-10-14T12:00	6100	476	-19.4	-37.0	327	7	
2025-10-14T12:00	6120	475	-19.5	-37.1	329	7	
2025-10-14T12:00	6140	474	-19.6	-36.6	330	7	
2025-10-14T12:00	6160	472	-19.7	-36.5	331	8	
2025-10-14T12:00	6180	471	-19.8	-37.1	332	8	
2025-10-14T12:00	6200	470	-19.9	-37.3	332	8	
2025-10-14T12:00	6220	468	-20.1	-37.5	331	8	
2025-10-14T12:00	6240	467	-20.2	-37.6	330	7	
2025-10-14T12:00	6260	466	-20.4	-37.6	327	7	
2025-10-14T12:00	6280	465	-20.6	-37.6	325	7	
2025-10-14T12:00	6300	463	-20.8	-37.8	324	7	
2025-10-14T12:00	6320	462	-20.9	-38.1	323	7	
2025-10-14T12:00	6340	461	-21.1	-38.6	323	7	
2025-10-14T12:00	6360	460	-21.2	-38.8	324	8	
2025-10-14T12:00	6380	459	-21.3	-38.9	325	8	
2025-10-14T12:00	6400	457	-21.5	-38.8	326	8	
2025-10-14T12:00	6420	456	-21.7	-38.9	328	8	
2025-10-14T12:00	6440	455	-21.8	-39.1	329	8	
2025-10-14T12:00	6460	454	-22.0	-39.3	330	8	
2025-10-14T12:00	6480	452	-22.1	-39.6	332	8	
2025-10-14T12:00	6500	451	-22.2	-40.1	332	8	
2025-10-14T12:00	6520	450	-22.3	-40.2	332	8	
2025-10-14T12:00	6540	449	-22.5	-40.2	332	8	
2025-10-14T12:00	6560	447	-22.6	-40.6	331	8	
2025-10-14T12:00	6580	446	-22.7	-40.8	330	8	
2025-10-14T12:00	6600	445	-22.8	-40.9	329	8	
2025-10-14T12:00	6620	444	-23.0	-41.0	328	8	
2025-10-14T12:00	6640	443	-23.1	-41.4	328	8	
2025-10-14T12:00	6660	441	-23.2	-41.8	327	7	
2025-10-14T12:00	6680	440	-23.4	-41.7	327	7	
2025-10-14T12:00	6700	439	-23.5	-41.6	327	7	
2025-10-14T12:00	6720	438	-23.7	-41.8	327	7	
2025-10-14T12:00	6740	437	-23.8	-41.9	327	7	
2025-10-14T12:00	6760	435	-24.0	-41.9	327	8	
2025-10-14T12:00	6780	434	-24.2	-41.9	327	8	
2025-10-14T12:00	6800	433	-24.3	-41.7	327	8	
2025-10-14T12:00	6820	432	-24.5	-41.8	327	8	
2025-10-14T12:00	6840	431	-24.6	-42.1	326	8	
2025-10-14T12:00	6860	429	-24.8	-42.6	326	8	
2025-10-14T12:00	6880	428	-24.9	-43.1	326	8	
2025-10-14T12:00	6900	427	-25.0	-43.2	325	7	
2025-10-14T12:00	6920	426	-25.2	-43.3	323	7	
2025-10-14T12:00	6940	425	-25.3	-43.4	322	7	
2025-10-14T12:00	6960	424	-25.5	-43.6	321	7	
2025-10-14T12:00	6980	423	-25.6	-44.0	320	7	
2025-10-14T12:00	7000	421	-25.8	-44.2	319	7	
2025-10-14T12:00	7020	420	-26.0	-44.3	319	7	
2025-10-14T12:00	7040	419	-26.1	-44.3	320	7	
2025-10-14T12:00	7060	418	-26.3	-44.7	321	7	
2025-10-14T12:00	7080	417	-26.3	-45.3	322	7	
2025-10-14T12:00	7100	416	-26.5	-45.4	322	7	
2025-10-14T12:00	7120	414	-26.7	-45.6	322	7	
2025-10-14T12:00	7140	413	-26.8	-46.0	322	7	
2025-10-14T12:00	7160	412	-26.9	-46.6	323	7	
2025-10-14T12:00	7180	411	-27.0	-46.7	324	7	
2025-10-14T12:00	7200	410	-27.1	-47.0	325	7	
2025-10-14T12:00	7220	409	-27.3	-47.2	327	6	
2025-10-14T12:00	7240	407	-27.4	-47.6	329	6	
2025-10-14T12:00	7260	406	-27.5	-47.6	331	5	
2025-10-14T12:00	7280	405	-27.7	-47.6	332	5	
2025-10-14T12:00	7300	404	-27.8	-47.7	333	4	
2025-10-14T12:00	7320	403	-27.9	-47.7	333	4	
2025-10-14T12:00	7340	402	-28.1	-47.7	333	4	
2025-10-14T12:00	7360	401	-28.2	-47.9	334	4	
2025-10-14T12:00	7380	400	-28.4	-48.2	334	4	
2025-10-14T12:00	7400	398	-28.5	-48.5	335	4	
2025-10-14T12:00	7420	397	-28.6	-48.7	335	5	
2025-10-14T12:00	7440	396	-28.7	-49.2	336	5	
2025-10-14T12:00	7460	395	-28.8	-49.7	336	5	
2025-10-14T12:00	7480	394	-28.8	-50.0	337	5	
2025-10-14T12:00	7500	393	-29.0	-50.3	338	5	
2025-10-14T12:00	7520	392	-29.1	-50.4	339	5	
2025-10-14T12:00	7540	391	-29.3	-50.4	340	5	
2025-10-14T12:00	7560	390	-29.5	-50.6	342	6	
2025-10-14T12:00	7580	389	-29.7	-50.7	343	6	
2025-10-14T12:00	7600	388	-29.9	-50.6	344	6	
2025-10-14T12:00	7620	386	-30.1	-50.7	345	6	
2025-10-14T12:00	7640	385	-30.2	-51.0	346	6	
2025-10-14T12:00	7660	384	-30.4	-51.0	347	7	
2025-10-14T12:00	7680	383	-30.6	-50.9	348	7	
2025-10-14T12:00	7700	382	-30.8	-51.0	348	7	
2025-10-14T12:00	7720	381	-30.9	-51.1	348	7	
2025-10-14T12:00	7740	380	-31.1	-51.2	347	7	
2025-10-14T12:00	7760	379	-31.3	-51.4	346	7	
2025-10-14T12:00	7780	378	-31.5	-51.4	344	7	
2025-10-14T12:00	7800	377	-31.6	-51.5	344	7	
2025-10-14T12:00	7820	376	-31.8	-51.5	344	7	
2025-10-14T12:00	7840	375	-32.0	-51.6	345	7	
2025-10-14T12:00	7860	374	-32.2	-51.9	347	7	
2025-10-14T12:00	7880	373	-32.3	-52.0	349	7	
2025-10-14T12:00	7900	371	-32.3	-52.7	352	7	
2025-10-14T12:00	7920	370	-32.3	-53.8	355	7	
2025-10-14T12:00	7940	369	-32.2	-54.8	358	7	
2025-10-14T12:00	7960	368	-32.3	-55.4	359	6	
2025-10-14T12:00	7980	367	-32.3	-55.9	360	6	
2025-10-14T12:00	8000	366	-32.4	-55.8	359	6	
2025-10-14T12:00	8020	365	-32.6	-55.8	357	6	
2025-10-14T12:00	8040	364	-32.8	-56.0	356	6	
2025-10-14T12:00	8060	363	-32.8	-56.4	356	6	
2025-10-14T12:00	8080	362	-32.9	-56.6	356	6	
2025-10-14T12:00	8100	361	-33.1	-56.8	358	7	
2025-10-14T12:00	8120	360	-33.2	-57.0	359	7	
2025-10-14T12:00	8140	359	-33.4	-57.2	1	7	
2025-10-14T12:00	8160	358	-33.5	-57.4	3	7	
2025-10-14T12:00	8180	357	-33.6	-57.5	5	7	
2025-10-14T12:00	8200	356	-33.8	-57.4	7	7	
2025-10-14T12:00	8220	355	-33.9	-57.0	8	6	
2025-10-14T12:00	8240	354	-34.1	-56.6	8	6	
2025-10-14T12:00	8260	353	-34.2	-56.3	8	6	
2025-10-14T12:00	8280	352	-34.4	-55.9	9	6	
2025-10-14T12:00	8300	351	-34.5	-55.7	9	5	
2025-10-14T12:00	8320	350	-34.7	-55.0	10	5	
2025-10-14T12:00	8340	349	-34.9	-56.4	12	5	
2025-10-14T12:00	8360	348	-35.0	-57.7	14	5	
2025-10-14T12:00	8380	347	-35.2	-57.7	15	5	
2025-10-14T12:00	8400	346	-35.4	-57.5	16	5	
2025-10-14T12:00	8420	345	-35.6	-57.4	16	6	
2025-10-14T12:00	8440	344	-35.8	-57.2	16	6	
2025-10-14T12:00	8460	343	-36.0	-57.2	15	6	
2025-10-14T12:00	8480	342	-36.2	-57.4	14	6	
2025-10-14T12:00	8500	341	-36.4	-55.9	13	6	
2025-10-14T12:00	8520	340	-36.6	-54.7	13	7	
2025-10-14T12:00	8540	339	-36.7	-54.3	12	7	
2025-10-14T12:00	8560	338	-36.9	-54.4	12	7	
2025-10-14T12:00	8580	337	-37.1	-55.4	12	7	
2025-10-14T12:00	8600	336	-37.3	-55.2	12	7	
2025-10-14T12:00	8620	335	-37.5	-54.9	12	6	
2025-10-14T12:00	8640	334	-37.7	-55.1	12	6	
2025-10-14T12:00	8660	333	-37.8	-55.5	12	6	
2025-10-14T12:00	8680	332	-38.0	-54.1	12	6	
2025-10-14T12:00	8700	331	-38.2	-53.6	12	6	
2025-10-14T12:00	8720	330	-38.3	-54.0	13	6	
2025-10-14T12:00	8740	329	-38.5	-54.1	13	7	
2025-10-14T12:00	8760	328	-38.7	-54.3	15	7	
2025-10-14T12:00	8780	327	-38.9	-54.3	15	7	
2025-10-14T12:00	8800	326	-39.1	-54.2	16	7	
2025-10-14T12:00	8820	326	-39.2	-54.1	17	7	
2025-10-14T12:00	8840	324	-39.5	-53.8	18	7	
2025-10-14T12:00	8860	323	-39.7	-53.1	19	7	
2025-10-14T12:00	8880	322	-39.9	-53.3	20	7	
2025-10-14T12:00	8900	321	-40.0	-53.4	21	7	
2025-10-14T12:00	8920	321	-40.2	-53.1	22	6	
2025-10-14T12:00	8940	320	-40.4	-52.8	23	6	
2025-10-14T12:00	8960	319	-40.6	-52.5	25	6	
2025-10-14T12:00	8980	318	-40.8	-52.6	26	6	
2025-10-14T12:00	9000	317	-40.9	-53.5	28	6	
2025-10-14T12:00	9020	316	-41.0	-55.0	30	6	
2025-10-14T12:00	9040	315	-41.1	-55.4	31	6	
2025-10-14T12:00	9060	314	-41.3	-54.7	32	6	
2025-10-14T12:00	9080	313	-41.4	-53.4	33	6	
2025-10-14T12:00	9100	312	-41.6	-52.3	33	6	
2025-10-14T12:00	9120	311	-41.7	-51.4	34	6	
2025-10-14T12:00	9140	311	-41.8	-51.1	34	6	
2025-10-14T12:00	9160	310	-42.0	-50.9	34	6	
2025-10-14T12:00	9180	309	-42.2	-51.2	34	6	
2025-10-14T12:00	9200	308	-42.4	-51.7	34	6	
2025-10-14T12:00	9220	307	-42.5	-51.9	34	6	
2025-10-14T12:00	9240	306	-42.7	-51.9	34	6	
2025-10-14T12:00	9260	305	-42.9	-52.1	34	6	
2025-10-14T12:00	9280	304	-43.0	-52.7	34	5	
2025-10-14T12:00	9300	303	-43.2	-53.7	35	5	
2025-10-14T12:00	9320	302	-43.3	-54.3	36	5	
2025-10-14T12:00	9340	301	-43.5	-54.2	36	5	
2025-10-14T12:00	9360	301	-43.7	-54.0	37	5	
2025-10-14T12:00	9380	300	-43.9	-53.6	38	5	
2025-10-14T12:00	9400	299	-44.1	-53.3	38	5	
2025-10-14T12:00	9420	298	-44.3	-53.5	38	5	
2025-10-14T12:00	9440	297	-44.4	-54.1	39	5	
2025-10-14T12:00	9460	296	-44.6	-54.5	39	5	
2025-10-14T12:00	9480	295	-44.7	-54.9	40	5	
2025-10-14T12:00	9500	294	-44.8	-55.2	40	5	
2025-10-14T12:00	9520	293	-45.0	-55.2	39	6	
2025-10-14T12:00	9540	292	-45.2	-54.9	38	6	
2025-10-14T12:00	9560	292	-45.4	-55.2	36	6	
2025-10-14T12:00	9580	291	-45.5	-55.9	34	6	
2025-10-14T12:00	9600	290	-45.7	-56.6	33	6	
2025-10-14T12:00	9620	289	-45.9	-57.2	32	6	
2025-10-14T12:00	9640	288	-46.0	-57.5	31	6	
2025-10-14T12:00	9660	287	-46.2	-57.6	31	6	
2025-10-14T12:00	9680	286	-46.4	-57.6	30	6	
2025-10-14T12:00	9700	286	-46.6	-57.4	31	6	
2025-10-14T12:00	9720	285	-46.7	-57.4	31	6	
2025-10-14T12:00	9740	284	-46.9	-57.3	31	6	
2025-10-14T12:00	9760	283	-47.1	-57.4	31	6	
2025-10-14T12:00	9780	282	-47.2	-57.9	31	6	
2025-10-14T12:00	9800	281	-47.3	-58.4	31	7	
2025-10-14T12:00	9820	280	-47.5	-58.6	31	7	
2025-10-14T12:00	9840	280	-47.7	-58.7	31	7	
2025-10-14T12:00	9860	279	-47.8	-59.0	31	7	
2025-10-14T12:00	9880	278	-47.9	-59.3	32	7	
2025-10-14T12:00	9900	277	-48.0	-59.0	32	7	
2025-10-14T12:00	9920	276	-48.2	-58.9	33	7	
2025-10-14T12:00	9940	275	-48.3	-59.2	34	7	
2025-10-14T12:00	9960	275	-48.5	-59.4	35	7	
2025-10-14T12:00	9980	274	-48.6	-59.5	36	7	
2025-10-14T12:00	10000	273	-48.8	-59.6	37	7	
2025-10-14T12:00	10018	272	-48.9	-59.7	38	7	
2025-10-14T12:00	10050	271	-49.2	-59.8	37	7	
2025-10-14T12:00	10100	269	-49.7	-60.3	36	7	
2025-10-14T12:00	10150	267	-50.0	-60.3	34	7	
2025-10-14T12:00	10200	265	-50.4	-60.3	34	7	
2025-10-14T12:00	10250	263	-50.7	-61.8	36	7	
2025-10-14T12:00	10300	261	-50.9	-62.3	38	7	
2025-10-14T12:00	10350	259	-51.3	-62.2	40	7	
2025-10-14T12:00	10400	257	-51.7	-62.4	41	6	
2025-10-14T12:00	10450	255	-52.1	-62.6	45	6	
2025-10-14T12:00	10500	253	-52.5	-63.0	48	6	
2025-10-14T12:00	10550	251	-52.8	-63.8	49	6	
2025-10-14T12:00	10600	249	-53.2	-63.9	48	6	
2025-10-14T12:00	10650	247	-53.6	-64.0	47	6	
2025-10-14T12:00	10700	245	-54.0	-64.0	46	7	
2025-10-14T12:00	10750	243	-54.4	-64.1	43	7	
2025-10-14T12:00	10800	241	-54.9	-64.5	39	7	
2025-10-14T12:00	10850	239	-55.2	-64.7	37	7	
2025-10-14T12:00	10900	237	-55.6	-65.2	38	7	
2025-10-14T12:00	10950	236	-56.0	-65.5	42	6	
2025-10-14T12:00	11000	234	-56.2	-66.5	46	5	
2025-10-14T12:00	11050	232	-56.4	-66.9	47	5	
2025-10-14T12:00	11100	230	-56.8	-66.9	45	5	
2025-10-14T12:00	11150	228	-57.1	-66.7	40	5	
2025-10-14T12:00	11200	226	-57.4	-66.3	37	5	
2025-10-14T12:00	11250	225	-57.7	-66.0	37	5	
2025-10-14T12:00	11300	223	-58.1	-66.2	37	5	
2025-10-14T12:00	11350	221	-58.3	-66.4	37	4	
2025-10-14T12:00	11400	219	-58.6	-66.7	37	5	
2025-10-14T12:00	11450	218	-58.9	-67.2	36	5	
2025-10-14T12:00	11500	216	-59.2	-67.3	34	5	
2025-10-14T12:00	11550	214	-59.5	-67.2	32	5	
2025-10-14T12:00	11600	213	-59.9	-67.4	32	5	
2025-10-14T12:00	11650	211	-60.2	-67.7	33	5	
2025-10-14T12:00	11700	209	-60.4	-68.0	31	4	
2025-10-14T12:00	11750	207	-60.0	-68.1	22	4	
2025-10-14T12:00	11800	206	-59.9	-68.2	13	4	
2025-10-14T12:00	11850	204	-60.2	-68.4	12	5	
2025-10-14T12:00	11900	203	-60.3	-69.2	18	6	
2025-10-14T12:00	11950	201	-59.8	-70.0	26	6	
2025-10-14T12:00	12000	199	-59.9	-70.7	35	5	
2025-10-14T12:00	12050	198	-60.0	-71.1	39	4	
2025-10-14T12:00	12100	196	-60.0	-71.9	32	2	
2025-10-14T12:00	12150	195	-59.9	-72.6	358	2	
2025-10-14T12:00	12200	193	-59.8	-73.4	325	2	
2025-10-14T12:00	12250	192	-59.4	-74.8	314	3	
2025-10-14T12:00	12300	190	-59.1	-76.1	313	4	
2025-10-14T12:00	12350	188	-59.3	-76.3	317	5	
2025-10-14T12:00	12400	187	-59.2	-76.4	321	6	
2025-10-14T12:00	12450	185	-59.0	-76.8	326	7	
2025-10-14T12:00	12500	184	-58.5	-77.5	331	8	
2025-10-14T12:00	12550	183	-57.9	-77.8	337	9	
2025-10-14T12:00	12600	181	-58.0	-77.6	345	9	
2025-10-14T12:00	12650	180	-58.3	-77.4	354	9	
2025-10-14T12:00	12700	178	-58.6	-77.4	1	10	
2025-10-14T12:00	12750	177	-58.7	-77.7	8	10	
2025-10-14T12:00	12800	175	-58.7	-77.9	14	10	
2025-10-14T12:00	12850	174	-59.0	-78.1	18	9	
2025-10-14T12:00	12900	173	-59.0	-78.4	20	8	
2025-10-14T12:00	12950	171	-59.1	-78.7	20	8	
2025-10-14T12:00	13000	170	-59.1	-78.9	17	8	
2025-10-14T12:00	13050	169	-59.2	-79.3	11	8	
2025-10-14T12:00	13100	167	-59.2	-79.6	6	9	
2025-10-14T12:00	13150	166	-59.2	-79.6	4	9	
2025-10-14T12:00	13200	165	-59.2	-79.8	5	8	
2025-10-14T12:00	13250	163	-59.4	-79.9	9	7	
2025-10-14T12:00	13300	162	-59.5	-80.1	14	6	
2025-10-14T12:00	13350	161	-59.8	-80.2	18	6	
2025-10-14T12:00	13400	159	-60.3	-80.3	23	6	
2025-10-14T12:00	13450	158	-60.7	-80.3	29	6	
2025-10-14T12:00	13500	157	-60.9	-80.5	33	6	
2025-10-14T12:00	13550	156	-60.6	-80.7	32	4	
2025-10-14T12:00	13600	154	-60.7	-81.0	21	4	
2025-10-14T12:00	13650	153	-61.0	-81.1	9	4	
2025-10-14T12:00	13700	152	-61.0	-81.2	6	4	
2025-10-14T12:00	13750	151	-60.7	-81.4	3	5	
2025-10-14T12:00	13800	149	-60.2	-81.7	355	6	
2025-10-14T12:00	13850	148	-60.2	-82.1	347	6	
2025-10-14T12:00	13900	147	-60.5	-82.1	337	6	
2025-10-14T12:00	13950	146	-60.6	-82.2	329	5	
2025-10-14T12:00	14000	145	-60.4	-82.3	329	6	
2025-10-14T12:00	14050	144	-60.2	-82.5	338	6	
2025-10-14T12:00	14100	142	-60.1	-82.5	345	7	
2025-10-14T12:00	14150	141	-60.3	-82.5	345	7	
2025-10-14T12:00	14200	140	-60.4	-82.5	341	6	
2025-10-14T12:00	14250	139	-60.5	-82.5	334	5	
2025-10-14T12:00	14300	138	-60.5	-82.6	326	5	
2025-10-14T12:00	14350	137	-60.2	-82.8	318	5	
2025-10-14T12:00	14400	136	-59.6	-82.8	309	5	
2025-10-14T12:00	14450	135	-59.4	-82.9	305	6	
2025-10-14T12:00	14500	134	-59.7	-82.9	306	6	
2025-10-14T12:00	14550	133	-59.8	-82.9	311	7	
2025-10-14T12:00	14600	131	-59.9	-82.9	321	7	
2025-10-14T12:00	14650	130	-60.1	-83.1	334	7	
2025-10-14T12:00	14700	129	-60.4	-83.1	345	7	
2025-10-14T12:00	14750	128	-60.8	-83.1	355	7	
2025-10-14T12:00	14800	127	-61.1	-83.3	4	8	
2025-10-14T12:00	14850	126	-61.2	-83.4	9	8	
2025-10-14T12:00	14900	125	-61.1	-83.5	7	8	
2025-10-14T12:00	14950	124	-61.2	-83.6	2	8	
2025-10-14T12:00	15000	123	-61.4	-83.6	357	7	
2025-10-14T12:00	15050	122	-61.7	-83.7	355	7	
2025-10-14T12:00	15100	121	-62.0	-83.8	354	7	
2025-10-14T12:00	15150	120	-62.0	-83.8	350	7	
2025-10-14T12:00	15200	119	-62.1	-83.9	348	7	
2025-10-14T12:00	15250	118	-62.3	-83.9	348	6	
2025-10-14T12:00	15300	117	-62.5	-84.0	350	6	
2025-10-14T12:00	15350	116	-62.6	-84.0	354	5	
2025-10-14T12:00	15400	116	-62.9	-84.1	359	5	
2025-10-14T12:00	15450	115	-63.1	-84.2	3	4	
2025-10-14T12:00	15500	114	-63.2	-84.3	1	3	
2025-10-14T12:00	15550	113	-63.1	-84.3	347	2	
2025-10-14T12:00	15600	112	-63.3	-84.4	316	2	
2025-10-14T12:00	15650	111	-63.4	-84.4	306	2	
2025-10-14T12:00	15700	110	-63.5	-84.6	320	3	
2025-10-14T12:00	15750	109	-63.4	-84.6	326	4	
2025-10-14T12:00	15800	108	-63.6	-84.8	327	6	
2025-10-14T12:00	15850	107	-63.5	-84.9	333	7	
2025-10-14T12:00	15900	107	-63.1	-85.0	339	8	
2025-10-14T12:00	15950	106	-62.7	-85.2	344	8	
2025-10-14T12:00	16000	105	-62.0	-85.2	349	8	
2025-10-14T12:00	16050	104	-61.9	-85.3	354	8	
2025-10-14T12:00	16100	103	-61.6	-85.4	358	7	
2025-10-14T12:00	16150	102	-61.2	-85.3	356	7	
2025-10-14T12:00	16200	101	-61.2	-85.4	350	7	
2025-10-14T12:00	16250	101	-61.5	-85.4	344	7	
2025-10-14T12:00	16300	100	-61.7	-85.4	336	6	
2025-10-14T12:00	16350	99	-62.0	-85.3	330	6	
2025-10-14T12:00	16400	98	-62.3	-85.4	323	5	
2025-10-14T12:00	16450	97	-62.5	-85.5	318	5	
2025-10-14T12:00	16500	97	-62.6	-85.6	317	6	
2025-10-14T12:00	16550	96	-62.7	-85.7	323	6	
2025-10-14T12:00	16600	95	-62.7	-85.7	329	7	
2025-10-14T12:00	16650	94	-63.2	-85.8	333	7	
2025-10-14T12:00	16700	94	-63.2	-85.8	333	7	
2025-10-14T12:00	16750	93	-63.0	-85.7	331	7	
2025-10-14T12:00	16800	92	-63.1	-85.7	329	7	
2025-10-14T12:00	16850	91	-63.2	-85.6	331	8	
2025-10-14T12:00	16900	91	-63.5	-85.8	339	8	
2025-10-14T12:00	16950	90	-63.5	-85.8	345	9	
2025-10-14T12:00	17000	89	-63.4	-85.9	343	9	
2025-10-14T12:00	17050	88	-63.4	-86.0	339	8	
2025-10-14T12:00	17100	88	-63.3	-86.1	342	7	
2025-10-14T12:00	17150	87	-63.2	-86.2	348	7	
2025-10-14T12:00	17200	86	-63.0	-86.2	352	7	
2025-10-14T12:00	17250	86	-63.0	-86.3	356	7	
2025-10-14T12:00	17300	85	-63.2	-86.4	2	7	
2025-10-14T12:00	17350	84	-63.3	-86.5	7	6	
2025-10-14T12:00	17400	83	-62.8	-86.5	5	5	
2025-10-14T12:00	17450	83	-62.8	-86.8	354	5	
2025-10-14T12:00	17500	82	-62.7	-86.7	339	5	
2025-10-14T12:00	17550	81	-62.6	-86.5	332	5	
2025-10-14T12:00	17600	81	-62.9	-86.5	333	6	
2025-10-14T12:00	17650	80	-63.2	-86.6	339	6	
2025-10-14T12:00	17700	80	-63.4	-86.8	349	7	
2025-10-14T12:00	17750	79	-63.1	-86.8	358	8	
2025-10-14T12:00	17800	78	-62.7	-86.8	7	8	
2025-10-14T12:00	17850	78	-62.7	-87.0	15	7	
2025-10-14T12:00	17900	77	-62.4	-86.9	17	7	
2025-10-14T12:00	17950	76	-62.5	-87.0	11	6	
2025-10-14T12:00	18000	76	-62.6	-87.0	5	5	
2025-10-14T12:00	18050	75	-62.6	-86.8	3	6	
2025-10-14T12:00	18100	75	-62.9	-86.9	5	6	
2025-10-14T12:00	18150	74	-63.0	-87.0	3	6	
2025-10-14T12:00	18200	73	-63.1	-87.0	357	6	
2025-10-14T12:00	18250	73	-63.2	-87.1	357	7	
2025-10-14T12:00	18300	72	-63.1	-87.3	0	8	
2025-10-14T12:00	18350	72	-62.8	-87.2	3	7	
2025-10-14T12:00	18400	71	-62.6	-87.2	4	6	
2025-10-14T12:00	18450	70	-62.7	-87.3	1	5	
2025-10-14T12:00	18500	70	-62.7	-87.3	356	4	
2025-10-14T12:00	18550	69	-62.7	-87.4	343	3	
2025-10-14T12:00	18600	69	-62.6	-87.3	324	3	
2025-10-14T12:00	18650	68	-62.4	-87.3	315	3	
2025-10-14T12:00	18700	68	-62.4	-87.2	311	4	
2025-10-14T12:00	18750	67	-62.7	-87.3	308	5	
2025-10-14T12:00	18800	67	-62.7	-87.3	310	6	
2025-10-14T12:00	18850	66	-62.9	-87.3	317	6	
2025-10-14T12:00	18900	65	-63.0	-87.4	324	7	
2025-10-14T12:00	18950	65	-63.0	-87.5	330	7	
2025-10-14T12:00	19000	64	-62.9	-87.5	334	7	
2025-10-14T12:00	19050	64	-62.7	-87.5	337	6	
2025-10-14T12:00	19100	63	-62.8	-87.5	339	5	
2025-10-14T12:00	19150	63	-62.9	-87.5	338	5	
2025-10-14T12:00	19200	62	-63.1	-87.6	336	5	
2025-10-14T12:00	19250	62	-63.1	-87.6	335	4	
2025-10-14T12:00	19300	61	-63.1	-87.7	336	4	
2025-10-14T12:00	19350	61	-62.9	-87.6	340	4	
2025-10-14T12:00	19400	60	-63.0	-87.8	345	5	
2025-10-14T12:00	19450	60	-62.9	-87.7	347	5	
2025-10-14T12:00	19500	59	-62.9	-87.8	344	6	
2025-10-14T12:00	19550	59	-62.6	-87.8	342	6	
2025-10-14T12:00	19600	58	-62.3	-87.8	342	7	
2025-10-14T12:00	19650	58	-62.2	-87.9	342	7	
2025-10-14T12:00	19700	57	-61.7	-87.8	342	7	
2025-10-14T12:00	19750	57	-61.0	-87.6	342	7	
2025-10-14T12:00	19800	57	-60.7	-87.5	342	7	
2025-10-14T12:00	19850	56	-60.7	-87.3	341	7	
2025-10-14T12:00	19900	56	-60.9	-87.3	340	7	
2025-10-14T12:00	19950	55	-61.1	-87.4	338	6	
2025-10-14T12:00	20000	55	-60.9	-87.4	333	4	
2025-10-14T12:00	20050	54	-60.6		317	3	
2025-10-14T12:00	20100	54	-60.6		300	2	
2025-10-14T12:00	20150	53	-60.8		302	2	
2025-10-14T12:00	20200	53	-60.7		324	2	
2025-10-14T12:00	20250	53	-61.0		344	2	
2025-10-14T12:00	20300	52	-61.2		345	2	
2025-10-14T12:00	20350	52	-61.3		321	2	
2025-10-14T12:00	20400	51	-61.2		293	3	
2025-10-14T12:00	20450	51	-61.2		286	4	
2025-10-14T12:00	20500	51	-61.3		287	5	
2025-10-14T12:00	20550	50	-61.6		289	5	
2025-10-14T12:00	20600	50	-62.0		289	6	
2025-10-14T12:00	20650	49	-62.4		290	6	
2025-10-14T12:00	20700	49	-62.8		292	7	
2025-10-14T12:00	20750	49	-63.0		296	7	
2025-10-14T12:00	20800	48	-62.8		300	7	
2025-10-14T12:00	20850	48	-62.6		303	7	
2025-10-14T12:00	20900	47	-62.4		310	8	
2025-10-14T12:00	20950	47	-62.2		321	8	
2025-10-14T12:00	21000	47	-61.8		332	9	
2025-10-14T12:00	21050	46	-61.8		341	9	
2025-10-14T12:00	21100	46	-61.2		349	9	
2025-10-14T12:00	21150	45	-60.6		357	8	
2025-10-14T12:00	21200	45	-60.1		3	8	
2025-10-14T12:00	21250	45	-60.0		7	8	
2025-10-14T12:00	21300	44	-60.3		9	8	
2025-10-14T12:00	21350	44	-60.3		8	7	
2025-10-14T12:00	21400	44	-60.4		8	7	
2025-10-14T12:00	21450	43	-60.6		9	6	
2025-10-14T12:00	21500	43	-60.8		7	6	
2025-10-14T12:00	21550	43	-61.0		2	6	
2025-10-14T12:00	21600	42	-60.9		355	6	
2025-10-14T12:00	21650	42	-61.1		351	6	
2025-10-14T12:00	21700	42	-61.4		352	6	
2025-10-14T12:00	21750	41	-61.5		355	5	
2025-10-14T12:00	21800	41	-61.6		0	4	
2025-10-14T12:00	21850	41	-61.6		8	4	
2025-10-14T12:00	21900	40	-61.4		15	5	
2025-10-14T12:00	21950	40	-61.6		20	5	
2025-10-14T12:00	22000	40	-61.7		25	5	
2025-10-14T12:00	22050	39	-61.7		26	4	
2025-10-14T12:00	22100	39	-61.8		12	3	
2025-10-14T12:00	22150	39	-61.9		346	3	
2025-10-14T12:00	22200	38	-62.0		341	4	
2025-10-14T12:00	22250	38	-61.9		346	6	
2025-10-14T12:00	22300	38	-61.8		352	6	
2025-10-14T12:00	22350	37	-61.2		358	6	
2025-10-14T12:00	22400	37	-60.8		1	6	
2025-10-14T12:00	22450	37	-60.9		4	5	
2025-10-14T12:00	22500	37	-61.0		14	3	
2025-10-14T12:00	22550	36	-61.1		36	2	
2025-10-14T12:00	22600	36	-61.1		41	2	
2025-10-14T12:00	22650	36	-61.0		13	2	
2025-10-14T12:00	22700	35	-61.1		341	3	
2025-10-14T12:00	22750	35	-61.1		327	3	
2025-10-14T12:00	22800	35	-61.1		322	3	
2025-10-14T12:00	22850	35	-60.8		328	2	
2025-10-14T12:00	22900	34	-60.3		342	2	
2025-10-14T12:00	22950	34	-60.2		349	1	
2025-10-14T12:00	23000	34	-60.3		323	1	
2025-10-14T12:00	23050	33	-60.4		289	1	
2025-10-14T12:00	23100	33	-60.5		280	2	
2025-10-14T12:00	23150	33	-60.4		269	3	
2025-10-14T12:00	23200	33	-60.0		257	4	
2025-10-14T12:00	23250	32	-59.8		248	5	
2025-10-14T12:00	23300	32	-59.8		242	6	
2025-10-14T12:00	23350	32	-59.8		237	6	
2025-10-14T12:00	23400	32	-59.5		233	6	
2025-10-14T12:00	23450	31	-59.2		234	7	
2025-10-14T12:00	23500	31	-59.3		238	7	
2025-10-14T12:00	23550	31	-59.7		247	7	
2025-10-14T12:00	23600	31	-60.0		257	8	
2025-10-14T12:00	23650	30	-60.1		261	9	
2025-10-14T12:00	23700	30	-59.9		260	10	
2025-10-14T12:00	23750	30	-59.7		258	10	
2025-10-14T12:00	23800	30	-59.4		259	10	
2025-10-14T12:00	23850	29	-59.5		263	9	
2025-10-14T12:00	23900	29	-59.7		270	8	
2025-10-14T12:00	23950	29	-59.7		282	7	
2025-10-14T12:00	24000	29	-59.9		294	7	
2025-10-14T12:00	24050	29	-59.9		300	6	
2025-10-14T12:00	24100	28	-59.3		299	6	
2025-10-14T12:00	24150	28	-58.2		297	5	
2025-10-14T12:00	24200	28	-57.8		296	5	
2025-10-14T12:00	24250	28	-57.8		287	5	
2025-10-14T12:00	24300	27	-57.3		274	6	
2025-10-14T12:00	24350	27	-57.2		263	7	
2025-10-14T12:00	24400	27	-57.4		258	8	
2025-10-14T12:00	24450	27	-57.6		255	9	
2025-10-14T12:00	24500	27	-57.5		253	9	
2025-10-14T12:00	24550	26	-57.5		254	8	
2025-10-14T12:00	24600	26	-57.7		261	8	
2025-10-14T12:00	24650	26	-58.0		271	7	
2025-10-14T12:00	24700	26	-58.2		277	8	
2025-10-14T12:00	24750	26	-58.2		276	8	
2025-10-14T12:00	24800	25	-57.8		271	8	
2025-10-14T12:00	24850	25	-57.7		267	9	
2025-10-14T12:00	24900	25	-57.6		269	9	
2025-10-14T12:00	24950	25	-57.2		277	10	
2025-10-14T12:00	25000	25	-56.9		284	11	
2025-10-14T12:00	25050	24	-56.4		288	12	
2025-10-14T12:00	25100	24	-56.1		290	11	
2025-10-14T12:00	25150	24	-56.1		292	10	
2025-10-14T12:00	25200	24	-56.4		297	9	
2025-10-14T12:00	25250	24	-56.7		305	8	
2025-10-14T12:00	25300	23	-57.0		313	8	
2025-10-14T12:00	25350	23	-57.3		318	7	
2025-10-14T12:00	25400	23	-57.4		315	5	
2025-10-14T12:00	25450	23	-57.4		302	4	
2025-10-14T12:00	25500	23	-57.3		281	4	
2025-10-14T12:00	25550	22	-57.3		261	5	
2025-10-14T12:00	25600	22	-57.2		249	6	
2025-10-14T12:00	25650	22	-57.0		241	7	
2025-10-14T12:00	25700	22	-56.9		237	8	
2025-10-14T12:00	25750	22	-56.7		234	8	
2025-10-14T12:00	25800	22	-56.3		233	9	
2025-10-14T12:00	25850	21	-56.0		232	10	
2025-10-14T12:00	25900	21	-55.7		232	10	
2025-10-14T12:00	25950	21	-55.2		233	11	
2025-10-14T12:00	26000	21	-55.2		234	12	
2025-10-14T12:00	26050	21	-55.3		235	12	
2025-10-14T12:00	26100	21	-55.4		236	12	
2025-10-14T12:00	26150	20	-55.5		238	12	
2025-10-14T12:00	26200	20	-55.8		240	11	
2025-10-14T12:00	26250	20	-56.2		242	11	
2025-10-14T12:00	26300	20	-56.3		243	11	
2025-10-14T12:00	26350	20	-56.4		246	12	
2025-10-14T12:00	26400	20	-56.4		250	12	
2025-10-14T12:00	26450	20	-56.5		253	12	
2025-10-14T12:00	26500	19	-56.8		256	13	
2025-10-14T12:00	26550	19	-57.2		257	13	
2025-10-14T12:00	26600	19	-57.5		259	13	
2025-10-14T12:00	26650	19	-57.5		259	12	
2025-10-14T12:00	26700	19	-57.5		256	12	
2025-10-14T12:00	26750	19	-57.2		252	12	
2025-10-14T12:00	26800	18	-57.0		249	13	
2025-10-14T12:00	26850	18	-57.2		246	13	
2025-10-14T12:00	26900	18	-57.3		244	14	
2025-10-14T12:00	26950	18	-57.5		243	14	
2025-10-14T12:00	27000	18	-57.8		245	14	
2025-10-14T12:00	27050	18	-57.7		248	15	
2025-10-14T12:00	27100	18	-57.1		252	15	
2025-10-14T12:00	27150	17	-57.1		257	16	
2025-10-14T12:00	27200	17	-57.3		263	17	
2025-10-14T12:00	27250	17	-57.0		269	17	
2025-10-14T12:00	27300	17	-56.3		273	18	
2025-10-14T12:00	27350	17	-55.6		275	18	
2025-10-14T12:00	27400	17	-55.2		276	18	
2025-10-14T12:00	27450	17	-55.1		277	17	
2025-10-14T12:00	27500	17	-55.1		277	17	
2025-10-14T12:00	27550	16	-54.8		278	16	
2025-10-14T12:00	27600	16	-54.6		280	15	
2025-10-14T12:00	27650	16	-54.4		282	15	
2025-10-14T12:00	27700	16	-54.1		285	15	
2025-10-14T12:00	27750	16	-53.6		288	15	
2025-10-14T12:00	27800	16	-53.4		289	14	
2025-10-14T12:00	27850	16	-53.3		288	13	
2025-10-14T12:00	27900	16	-53.1		286	12	
2025-10-14T12:00	27950	15	-52.6		284	10	
2025-10-14T12:00	28000	15	-52.1		282	10	
2025-10-14T12:00	28050	15	-52.0		282	10	
2025-10-14T12:00	28100	15	-52.1		283	9	
2025-10-14T12:00	28150	15	-52.0		285	9	
2025-10-14T12:00	28200	15	-51.6		287	8	
2025-10-14T12:00	28250	15	-51.2		285	7	
2025-10-14T12:00	28300	15	-51.2		279	7	
2025-10-14T12:00	28350	14	-51.3		270	8	
2025-10-14T12:00	28400	14	-51.4		265	9	
2025-10-14T12:00	28450	14	-51.4		261	10	
2025-10-14T12:00	28500	14	-51.3		260	11	
2025-10-14T12:00	28550	14	-51.3		259	11	
2025-10-14T12:00	28600	14	-50.9		256	11	
2025-10-14T12:00	28650	14	-50.2		253	12	
2025-10-14T12:00	28700	14	-50.0		252	13	
2025-10-14T12:00	28750	14	-50.0		252	14	
2025-10-14T12:00	28800	14	-49.8		254	16	
2025-10-14T12:00	28850	13	-49.4		256	17	
2025-10-14T12:00	28900	13	-49.2		257	18	
2025-10-14T12:00	28950	13	-49.1		260	19	
2025-10-14T12:00	29000	13	-49.1		262	20	
2025-10-14T12:00	29050	13	-48.9		266	20	
2025-10-14T12:00	29100	13	-48.9		268	19	
2025-10-14T12:00	29150	13	-49.0		268	18	
2025-10-14T12:00	29200	13	-49.1		268	17	
2025-10-14T12:00	29250	13	-49.1		269	16	
2025-10-14T12:00	29300	13	-49.4		270	14	
2025-10-14T12:00	29350	12	-49.6		271	13	
2025-10-14T12:00	29400	12	-49.7		269	12	
2025-10-14T12:00	29450	12	-49.5		266	12	
2025-10-14T12:00	29500	12	-49.2		264	12	
2025-10-14T12:00	29550	12	-48.9		263	12	
2025-10-14T12:00	29600	12	-48.7		262	13	
2025-10-14T12:00	29650	12	-48.8		260	14	
2025-10-14T12:00	29700	12	-49.1		258	15	
2025-10-14T12:00	29750	12	-49.4		257	16	
2025-10-14T12:00	29800	12	-49.5		258	16	
2025-10-14T12:00	29850	12	-49.4		259	15	
2025-10-14T12:00	29900	11	-49.3		258	14	
2025-10-14T12:00	29950	11	-49.3		257	14	
2025-10-14T12:00	30000	11	-49.3		254	14	
2025-10-14T12:00	30050	11	-49.4		250	14	
2025-10-14T12:00	30100	11	-49.6		248	14	
2025-10-14T12:00	30150	11	-49.7		246	14	
2025-10-14T12:00	30200	11	-49.9		244	14	
2025-10-14T12:00	30250	11	-50.2		240	14	
2025-10-14T12:00	30300	11	-50.3		238	15	
2025-10-14T12:00	30350	11	-50.2		239	16	
2025-10-14T12:00	30400	11	-50.3		240	17	
2025-10-14T12:00	30450	11	-50.5		243	18	
2025-10-14T12:00	30500	10	-50.5		245	19	
2025-10-14T12:00	30550	10	-50.6		249	20	
2025-10-14T12:00	30600	10	-50.5		253	20	
2025-10-14T12:00	30650	10	-50.2		258	20	
2025-10-14T12:00	30700	10	-49.9		263	20	
2025-10-14T12:00	30750	10	-49.6		267	19	
2025-10-14T12:00	30800	10	-49.2		271	17	
2025-10-14T12:00	30850	10	-48.9		272	16	
2025-10-14T12:00	30900	10	-48.9		273	14	
2025-10-14T12:00	30950	10	-49.2		274	13	
2025-10-14T12:00	31000	10	-49.4		274	11	
2025-10-14T12:00	31050	10	-49.5		272	10	
2025-10-14T12:00	31100	10	-49.4		267	9	
2025-10-14T12:00	31150	9	-49.5		259	9	
2025-10-14T12:00	31200	9	-49.5		253	9	
2025-10-14T12:00	31250	9	-49.5		249	10	
2025-10-14T12:00	31300	9	-49.2		248	10	
2025-10-14T12:00	31350	9	-48.9		250	10	
2025-10-14T12:00	31400	9	-48.7		253	10	
2025-10-14T12:00	31450	9	-48.7		258	11	
2025-10-14T12:00	31500	9	-48.8		264	12	
2025-10-14T12:00	31550	9	-48.7		266	12	
2025-10-14T12:00	31600	9	-48.1		264	12	
2025-10-14T12:00	31650	9	-47.4		255	12	
2025-10-14T12:00	31700	9	-47.0		245	12	
2025-10-14T12:00	31750	9	-46.7		236	13	
2025-10-14T12:00	31800	9	-46.5		230	13	
2025-10-14T12:00	31850	8	-46.5		226	14	
2025-10-14T12:00	31900	8	-46.8		224	16	
2025-10-14T12:00	31950	8	-46.8		224	17	
2025-10-14T12:00	32000	8	-46.6		224	19	
2025-10-14T12:00	32050	8	-46.5		225	20	
2025-10-14T12:00	32100	8	-46.6		228	22	
2025-10-14T12:00	32150	8	-46.4		231	22	
2025-10-14T12:00	32200	8	-46.2		236	23	
2025-10-14T12:00	32250	8	-46.2		239	23	
2025-10-14T12:00	32300	8	-46.3		243	23	
2025-10-14T12:00	32350	8	-46.3		246	23	
2025-10-14T12:00	32400	8	-46.1		248	23	
2025-10-14T12:00	32450	8	-46.0		251	22	
2025-10-14T12:00	32500	8	-45.6		253	22	
2025-10-14T12:00	32550	8	-44.9		255	21	
2025-10-14T12:00	32600	8	-44.2		256	22	
2025-10-14T12:00	32650	8	-43.9		257	24	
2025-10-14T12:00	32700	7	-43.8		258	25	
2025-10-14T12:00	32750	7	-43.8		259	26	
2025-10-14T12:00	32800	7	-43.7		260	27	
2025-10-14T12:00	32850	7	-43.7		261	26	
2025-10-14T12:00	32900	7	-43.6		262	24	
2025-10-14T12:00	32950	7	-43.5		262	23	
2025-10-14T12:00	33000	7	-43.5		263	21	
2025-10-14T12:00	33050	7	-43.5		265	19	
2025-10-14T12:00	33100	7	-43.6		266	19	
2025-10-14T12:00	33150	7	-43.6		264	18	
2025-10-14T12:00	33200	7	-43.4		259	18	
2025-10-14T12:00	33250	7	-43.1		253	18	
2025-10-14T12:00	33300	7	-42.8		249	18	
2025-10-14T12:00	33350	7	-42.4		245	18	
2025-10-14T12:00	33400	7	-42.4		242	18	
2025-10-14T12:00	33450	7	-42.5		240	19	
2025-10-14T12:00	33500	7	-42.4		239	21	
2025-10-14T12:00	33550	7	-41.9		239	23	
2025-10-14T12:00	33600	7	-40.3		241	25	
2025-10-14T12:00	33650	6	-39.2		244	26	
2025-10-14T12:00	33700	6	-39.1		246	26	
2025-10-14T12:00	33750	6	-39.2		249	27	
2025-10-14T12:00	33800	6	-39.5		251	27	
2025-10-14T12:00	33850	6	-39.7		254	28	
2025-10-14T12:00	33900	6	-39.9		256	29	
2025-10-14T12:00	33950	6	-40.0		259	29	
2025-10-14T12:00	34000	6	-40.0		261	29	
2025-10-14T12:00	34050	6	-39.9		263	28	
2025-10-14T12:00	34100	6	-39.7		265	27	
2025-10-14T12:00	34150	6	-39.6		265	25	
2025-10-14T12:00	34200	6	-39.6		265	24	
2025-10-14T12:00	34250	6	-39.5		265	23	
2025-10-14T12:00	34300	6	-39.4		265	22	
2025-10-14T12:00	34350	6	-39.3		265	21	
2025-10-14T12:00	34400	6	-39.3		265	20	
2025-10-14T12:00	34450	6	-39.3		266	18	
2025-10-14T12:00	34500	6	-39.3		268	17	
2025-10-14T12:00	34550	6	-38.8		267	18	
2025-10-14T12:00	34600	6	-38.3		264	18	
2025-10-14T12:00	34650	6	-38.1		260	20	
2025-10-14T12:00	34700	6	-38.1		258	21	
2025-10-14T12:00	34750	6	-37.9		257	22	
2025-10-14T12:00	34800	5	-37.8		256	24	
2025-10-14T12:00	34850	5	-37.5		253	25	
2025-10-14T12:00	34900	5	-37.0		250	27	
2025-10-14T12:00	34950	5	-36.4		247	28	
2025-10-14T12:00	35000	5	-36.1		244	30	
2025-10-14T12:00	35050	5	-36.0		243	31	
2025-10-14T12:00	35100	5	-35.8		244	32	
2025-10-14T12:00	35150	5	-35.6		246	32	
2025-10-14T12:00	35200	5	-35.5		250	32	
2025-10-14T12:00	35250	5	-35.4		253	32	
2025-10-14T12:00	35300	5	-35.4		255	32	
2025-10-14T12:00	35350	5	-35.1		257	33	
2025-10-14T12:00	35400	5	-34.6		258	34	
2025-10-14T12:00	35450	5	-34.1		260	34	
2025-10-14T12:00	35500	5	-33.8		262	34	
2025-10-14T12:00	35550	5	-33.8		265	33	
2025-10-14T12:00	35600	5	-34.0		268	33	
2025-10-14T12:00	35650	5	-34.1		270	33	
2025-10-14T12:00	35700	5	-34.1		272	33	
2025-10-14T12:00	35750	5	-33.8		273	31	
2025-10-14T12:00	35800	5	-33.4		273	30	
2025-10-15T00:00	491	966	5.5	5.2	192	1	
2025-10-15T00:00	501	964	6.3	5.9	124	0	
2025-10-15T00:00	520	962	7.6	6.5	93	1	
2025-10-15T00:00	540	960	8.2	6.3	87	1	
2025-10-15T00:00	560	958	8.7	6.4	82	1	
2025-10-15T00:00	580	955	8.6	6.4	78	2	
2025-10-15T00:00	600	953	8.5	6.4	74	2	
2025-10-15T00:00	620	951	8.5	6.3	71	3	
2025-10-15T00:00	640	949	8.5	6.3	68	3	
2025-10-15T00:00	660	946	8.4	6.3	66	4	
2025-10-15T00:00	680	944	8.4	6.2	63	4	
2025-10-15T00:00	700	942	8.4	6.1	61	5	
2025-10-15T00:00	720	939	8.5	5.9	59	5	
2025-10-15T00:00	740	937	8.5	5.8	58	6	
2025-10-15T00:00	760	935	8.5	5.7	56	6	
2025-10-15T00:00	780	932	8.5	5.6	55	6	
2025-10-15T00:00	800	930	8.5	5.3	53	7	
2025-10-15T00:00	820	928	8.4	5.1	52	7	
2025-10-15T00:00	840	926	8.4	4.8	50	7	
2025-10-15T00:00	860	923	8.4	4.9	49	7	
2025-10-15T00:00	880	922	8.2	4.9	49	7	
2025-10-15T00:00	900	919	8.0	5.1	49	7	
2025-10-15T00:00	920	917	7.8	5.1	50	7	
2025-10-15T00:00	940	915	7.6	5.0	52	7	
2025-10-15T00:00	960	913	7.5	4.9	53	7	
2025-10-15T00:00	980	910	7.3	4.9	55	7	
2025-10-15T00:00	1000	908	7.1	4.8	57	7	
2025-10-15T00:00	1020	906	6.9	4.9	58	7	
2025-10-15T00:00	1040	904	6.8	5.2	59	7	
2025-10-15T00:00	1060	902	6.7	5.0	59	6	
2025-10-15T00:00	1080	899	6.7	4.7	59	6	
2025-10-15T00:00	1100	897	6.6	4.6	59	6	
2025-10-15T00:00	1120	895	6.5	4.4	59	6	
2025-10-15T00:00	1140	893	6.4	4.2	59	6	
2025-10-15T00:00	1160	890	6.3	4.2	59	6	
2025-10-15T00:00	1180	888	6.1	4.2	59	6	
2025-10-15T00:00	1200	886	5.9	4.2	60	5	
2025-10-15T00:00	1220	884	5.8	4.2	60	6	
2025-10-15T00:00	1240	882	5.6	4.1	61	6	
2025-10-15T00:00	1260	880	5.5	4.1	62	6	
2025-10-15T00:00	1280	878	5.3	4.1	64	6	
2025-10-15T00:00	1300	875	5.2	4.2	66	6	
2025-10-15T00:00	1320	873	5.0	4.1	67	7	
2025-10-15T00:00	1340	871	4.9	4.0	68	7	
2025-10-15T00:00	1360	869	4.8	3.9	68	7	
2025-10-15T00:00	1380	867	4.6	3.7	68	7	
2025-10-15T00:00	1400	865	4.5	3.4	67	8	
2025-10-15T00:00	1420	863	4.5	3.2	67	8	
2025-10-15T00:00	1440	861	4.4	3.2	67	8	
2025-10-15T00:00	1460	859	4.2	3.1	67	9	
2025-10-15T00:00	1480	856	4.2	3.0	67	9	
2025-10-15T00:00	1500	854	4.2	2.8	68	10	
2025-10-15T00:00	1520	852	4.1	2.6	69	10	
2025-10-15T00:00	1540	850	4.1	2.2	70	11	
2025-10-15T00:00	1560	848	4.5	0.0	71	11	
2025-10-15T00:00	1580	846	5.2	-4.6	72	11	
2025-10-15T00:00	1600	844	6.2	-10.8	72	11	
2025-10-15T00:00	1620	842	7.1	-8.4	73	10	
2025-10-15T00:00	1640	840	7.4	-2.2	73	10	
2025-10-15T00:00	1660	838	7.7	-2.2	73	9	
2025-10-15T00:00	1680	836	7.8	-2.7	72	9	
2025-10-15T00:00	1700	834	7.9	-3.3	72	8	
2025-10-15T00:00	1720	832	8.1	-3.3	72	8	
2025-10-15T00:00	1740	830	8.1	-3.5	71	8	
2025-10-15T00:00	1760	828	8.2	-3.9	71	8	
2025-10-15T00:00	1780	826	8.1	-4.1	70	8	
2025-10-15T00:00	1800	823	8.0	-4.2	69	9	
2025-10-15T00:00	1820	821	8.0	-4.4	69	9	
2025-10-15T00:00	1840	819	7.9	-4.5	68	9	
2025-10-15T00:00	1860	818	7.7	-4.7	68	9	
2025-10-15T00:00	1880	816	7.6	-4.9	69	9	
2025-10-15T00:00	1900	813	7.5	-5.1	69	9	
2025-10-15T00:00	1920	812	7.4	-5.2	70	9	
2025-10-15T00:00	1940	810	7.3	-5.6	70	9	
2025-10-15T00:00	1960	808	7.1	-5.9	70	9	
2025-10-15T00:00	1980	806	7.0	-5.7	70	9	
2025-10-15T00:00	2000	804	6.9	-5.6	69	9	
2025-10-15T00:00	2020	802	6.8	-6.3	68	9	
2025-10-15T00:00	2040	800	6.7	-6.3	67	9	
2025-10-15T00:00	2060	798	6.5	-6.4	66	9	
2025-10-15T00:00	2080	796	6.4	-6.3	66	9	
2025-10-15T00:00	2100	794	6.2	-6.6	65	9	
2025-10-15T00:00	2120	792	6.1	-6.5	64	9	
2025-10-15T00:00	2140	790	6.0	-6.6	64	8	
2025-10-15T00:00	2160	788	5.9	-6.8	64	8	
2025-10-15T00:00	2180	786	5.8	-6.9	63	8	
2025-10-15T00:00	2200	785	5.8	-6.8	62	8	
2025-10-15T00:00	2220	783	5.6	-6.7	62	8	
2025-10-15T00:00	2240	781	5.4	-6.5	61	8	
2025-10-15T00:00	2260	779	5.3	-6.1	60	8	
2025-10-15T00:00	2280	777	5.1	-6.5	60	8	
2025-10-15T00:00	2300	775	5.0	-6.6	60	8	
2025-10-15T00:00	2320	773	4.8	-6.7	61	8	
2025-10-15T00:00	2340	771	4.7	-6.9	62	8	
2025-10-15T00:00	2360	769	4.5	-7.5	63	8	
2025-10-15T00:00	2380	767	4.4	-7.8	64	8	
2025-10-15T00:00	2400	765	4.2	-7.9	65	8	
2025-10-15T00:00	2420	763	4.0	-8.2	65	8	
2025-10-15T00:00	2440	762	3.9	-8.5	65	8	
2025-10-15T00:00	2460	760	3.8	-7.9	65	8	
2025-10-15T00:00	2480	758	3.7	-7.8	64	8	
2025-10-15T00:00	2500	756	3.5	-7.6	64	8	
2025-10-15T00:00	2520	754	3.4	-7.5	63	8	
2025-10-15T00:00	2540	752	3.2	-7.8	63	8	
2025-10-15T00:00	2560	750	3.1	-8.1	64	8	
2025-10-15T00:00	2580	749	3.0	-8.3	65	8	
2025-10-15T00:00	2600	747	2.8	-8.4	66	8	
2025-10-15T00:00	2620	745	2.7	-8.4	69	8	
2025-10-15T00:00	2640	743	2.6	-8.4	71	8	
2025-10-15T00:00	2660	741	2.5	-8.6	73	7	
2025-10-15T00:00	2680	739	2.4	-8.8	74	7	
2025-10-15T00:00	2700	738	2.3	-8.8	75	7	
2025-10-15T00:00	2720	736	2.1	-8.9	75	7	
2025-10-15T00:00	2740	734	2.0	-8.9	74	7	
2025-10-15T00:00	2760	732	1.8	-8.9	73	7	
2025-10-15T00:00	2780	730	1.6	-9.1	72	8	
2025-10-15T00:00	2800	728	1.5	-9.3	70	7	
2025-10-15T00:00	2820	727	1.4	-9.4	69	7	
2025-10-15T00:00	2840	725	1.2	-9.5	67	7	
2025-10-15T00:00	2860	723	1.0	-9.6	65	7	
2025-10-15T00:00	2880	721	0.9	-9.7	63	7	
2025-10-15T00:00	2900	719	0.7	-9.9	61	7	
2025-10-15T00:00	2920	717	0.5	-10.3	59	7	
2025-10-15T00:00	2940	716	0.3	-10.6	58	7	
2025-10-15T00:00	2960	714	0.2	-10.8	58	7	
2025-10-15T00:00	2980	712	0.1	-10.8	58	7	
2025-10-15T00:00	3000	711	-0.1	-10.7	59	7	
2025-10-15T00:00	3020	709	-0.2	-10.6	60	7	
2025-10-15T00:00	3040	707	-0.4	-10.5	61	7	
2025-10-15T00:00	3060	705	-0.5	-10.7	61	7	
2025-10-15T00:00	3080	703	-0.7	-11.0	62	7	
2025-10-15T00:00	3100	702	-0.8	-11.0	62	7	
2025-10-15T00:00	3120	700	-1.0	-10.9	62	6	
2025-10-15T00:00	3140	698	-1.1	-11.0	63	6	
2025-10-15T00:00	3160	696	-1.3	-11.1	63	6	
2025-10-15T00:00	3180	695	-1.4	-11.2	64	6	
2025-10-15T00:00	3200	693	-1.6	-11.5	65	6	
2025-10-15T00:00	3220	691	-1.7	-11.6	65	6	
2025-10-15T00:00	3240	689	-1.9	-11.7	66	6	
2025-10-15T00:00	3260	688	-2.0	-11.8	66	5	
2025-10-15T00:00	3280	686	-2.1	-12.0	67	5	
2025-10-15T00:00	3300	684	-2.3	-12.2	67	5	
2025-10-15T00:00	3320	683	-2.4	-12.4	68	5	
2025-10-15T00:00	3340	681	-2.5	-12.5	68	5	
2025-10-15T00:00	3360	679	-2.6	-12.8	67	5	
2025-10-15T00:00	3380	677	-2.7	-13.1	67	4	
2025-10-15T00:00	3400	676	-2.8	-13.2	66	4	
2025-10-15T00:00	3420	674	-3.0	-13.3	65	4	
2025-10-15T00:00	3440	673	-3.1	-13.4	63	4	
2025-10-15T00:00	3460	671	-3.3	-13.7	62	4	
2025-10-15T00:00	3480	669	-3.4	-14.1	61	4	
2025-10-15T00:00	3500	667	-3.4	-14.8	61	4	
2025-10-15T00:00	3520	666	-3.5	-15.3	60	4	
2025-10-15T00:00	3540	664	-3.7	-15.8	59	4	
2025-10-15T00:00	3560	662	-3.8	-16.5	57	4	
2025-10-15T00:00	3580	661	-4.0	-18.0	54	4	
2025-10-15T00:00	3600	659	-4.0	-22.9	51	4	
2025-10-15T00:00	3620	657	-4.0	-21.2	48	4	
2025-10-15T00:00	3640	655	-4.3	-15.0	43	4	
2025-10-15T00:00	3660	654	-4.4	-13.4	40	4	
2025-10-15T00:00	3680	652	-4.5	-12.5	38	4	
2025-10-15T00:00	3700	650	-4.5	-12.6	37	4	
2025-10-15T00:00	3720	649	-4.6	-13.4	35	4	
2025-10-15T00:00	3740	647	-4.7	-14.0	35	4	
2025-10-15T00:00	3760	646	-4.9	-14.5	35	4	
2025-10-15T00:00	3780	644	-5.0	-14.7	35	4	
2025-10-15T00:00	3800	642	-5.2	-14.9	35	4	
2025-10-15T00:00	3820	641	-5.3	-14.7	35	4	
2025-10-15T00:00	3840	639	-5.5	-14.5	36	4	
2025-10-15T00:00	3860	637	-5.6	-14.5	37	4	
2025-10-15T00:00	3880	636	-5.8	-14.4	38	4	
2025-10-15T00:00	3900	634	-5.9	-14.5	38	5	
2025-10-15T00:00	3920	633	-6.1	-14.4	38	5	
2025-10-15T00:00	3940	631	-6.2	-14.9	37	5	
2025-10-15T00:00	3960	629	-6.2	-18.2	36	5	
2025-10-15T00:00	3980	628	-6.0	-22.3	33	5	
2025-10-15T00:00	4000	626	-5.9	-25.0	31	5	
2025-10-15T00:00	4020	624	-5.9	-26.0	27	5	
2025-10-15T00:00	4040	623	-6.0	-25.7	25	5	
2025-10-15T00:00	4060	621	-6.0	-26.0	23	5	
2025-10-15T00:00	4080	620	-6.1	-25.4	23	6	
2025-10-15T00:00	4100	618	-6.1	-24.5	24	5	
2025-10-15T00:00	4120	617	-6.2	-24.7	26	5	
2025-10-15T00:00	4140	615	-6.3	-25.2	30	5	
2025-10-15T00:00	4160	613	-6.4	-25.5	34	6	
2025-10-15T00:00	4180	612	-6.6	-25.6	39	6	
2025-10-15T00:00	4200	611	-6.7	-25.7	44	6	
2025-10-15T00:00	4220	609	-7.0	-25.9	47	7	
2025-10-15T00:00	4240	607	-7.1	-26.0	48	7	
2025-10-15T00:00	4260	606	-7.2	-26.2	49	7	
2025-10-15T00:00	4280	604	-7.4	-26.5	49	8	
2025-10-15T00:00	4300	603	-7.4	-26.7	49	8	
2025-10-15T00:00	4320	601	-7.5	-23.7	49	7	
2025-10-15T00:00	4340	600	-7.8	-18.8	50	7	
2025-10-15T00:00	4360	598	-8.0	-18.9	50	7	
2025-10-15T00:00	4380	596	-8.2	-19.1	50	7	
2025-10-15T00:00	4400	595	-8.3	-19.4	50	7	
2025-10-15T00:00	4420	593	-8.5	-18.7	48	7	
2025-10-15T00:00	4440	592	-8.7	-18.2	46	7	
2025-10-15T00:00	4460	590	-8.9	-18.0	44	7	
2025-10-15T00:00	4480	589	-9.1	-18.3	42	7	
2025-10-15T00:00	4500	587	-9.2	-18.9	40	7	
2025-10-15T00:00	4520	586	-9.4	-19.7	39	7	
2025-10-15T00:00	4540	584	-9.5	-20.5	39	7	
2025-10-15T00:00	4560	583	-9.6	-20.2	40	7	
2025-10-15T00:00	4580	581	-9.8	-19.8	43	7	
2025-10-15T00:00	4600	580	-10.0	-19.4	45	7	
2025-10-15T00:00	4620	578	-10.2	-19.4	49	8	
2025-10-15T00:00	4640	577	-10.3	-19.1	52	8	
2025-10-15T00:00	4660	575	-10.5	-18.9	55	8	
2025-10-15T00:00	4680	574	-10.7	-18.8	57	8	
2025-10-15T00:00	4700	572	-10.9	-18.9	58	8	
2025-10-15T00:00	4720	571	-11.0	-19.0	60	8	
2025-10-15T00:00	4740	569	-11.1	-19.3	60	8	
2025-10-15T00:00	4760	568	-11.3	-19.8	60	9	
2025-10-15T00:00	4780	566	-11.4	-20.7	60	9	
2025-10-15T00:00	4800	565	-11.5	-21.6	60	9	
2025-10-15T00:00	4820	563	-11.6	-21.6	60	9	
2025-10-15T00:00	4840	562	-11.7	-21.4	61	9	
2025-10-15T00:00	4860	560	-11.9	-20.9	61	9	
2025-10-15T00:00	4880	559	-12.0	-20.8	62	9	
2025-10-15T00:00	4900	558	-12.1	-21.2	63	8	
2025-10-15T00:00	4920	556	-12.1	-21.9	64	8	
2025-10-15T00:00	4940	555	-12.2	-22.2	64	8	
2025-10-15T00:00	4960	553	-12.3	-22.4	64	8	
2025-10-15T00:00	4980	552	-12.5	-22.5	62	8	
2025-10-15T00:00	5000	550	-12.6	-22.7	60	8	
2025-10-15T00:00	5020	549	-12.7	-23.0	57	8	
2025-10-15T00:00	5040	547	-12.8	-23.2	54	8	
2025-10-15T00:00	5060	546	-12.9	-23.4	52	8	
2025-10-15T00:00	5080	545	-13.1	-23.6	50	8	
2025-10-15T00:00	5100	543	-13.2	-23.7	49	8	
2025-10-15T00:00	5120	542	-13.3	-23.9	49	9	
2025-10-15T00:00	5140	540	-13.3	-24.3	49	9	
2025-10-15T00:00	5160	539	-13.4	-24.8	49	9	
2025-10-15T00:00	5180	537	-13.5	-25.2	49	10	
2025-10-15T00:00	5200	536	-13.7	-25.5	50	10	
2025-10-15T00:00	5220	534	-13.8	-25.5	50	11	
2025-10-15T00:00	5240	533	-14.0	-25.7	50	11	
2025-10-15T00:00	5260	532	-14.2	-25.7	50	12	
2025-10-15T00:00	5280	530	-14.4	-25.8	49	11	
2025-10-15T00:00	5300	529	-14.6	-25.8	47	11	
2025-10-15T00:00	5320	527	-14.8	-25.9	46	11	
2025-10-15T00:00	5340	526	-15.0	-26.0	45	10	
2025-10-15T00:00	5360	525	-15.2	-26.1	45	10	
2025-10-15T00:00	5380	523	-15.3	-26.2	45	10	
2025-10-15T00:00	5400	522	-15.5	-26.4	45	10	
2025-10-15T00:00	5420	521	-15.7	-26.5	45	10	
2025-10-15T00:00	5440	519	-15.8	-26.6	45	10	
2025-10-15T00:00	5460	518	-16.0	-26.7	44	10	
2025-10-15T00:00	5480	517	-16.2	-26.8	43	10	
2025-10-15T00:00	5500	515	-16.4	-27.0	40	9	
2025-10-15T00:00	5520	514	-16.6	-27.1	37	9	
2025-10-15T00:00	5540	512	-16.7	-27.2	35	8	
2025-10-15T00:00	5560	511	-16.8	-27.7	33	8	
2025-10-15T00:00	5580	510	-17.0	-28.2	30	7	
2025-10-15T00:00	5600	508	-17.1	-28.4	29	7	
2025-10-15T00:00	5620	507	-17.3	-28.8	28	7	
2025-10-15T00:00	5640	505	-17.5	-29.4	28	7	
2025-10-15T00:00	5660	504	-17.5	-30.9	29	7	
2025-10-15T00:00	5680	503	-17.6	-31.2	31	7	
2025-10-15T00:00	5700	502	-17.8	-31.3	33	7	
2025-10-15T00:00	5720	500	-17.9	-31.4	35	8	
2025-10-15T00:00	5740	499	-18.1	-31.0	35	8	
2025-10-15T00:00	5760	498	-18.2	-30.6	36	8	
2025-10-15T00:00	5780	496	-18.4	-30.6	37	8	
2025-10-15T00:00	5800	495	-18.6	-30.0	37	7	
2025-10-15T00:00	5820	494	-18.8	-29.5	37	7	
2025-10-15T00:00	5840	492	-19.0	-29.2	37	7	
2025-10-15T00:00	5860	491	-19.2	-29.2	37	7	
2025-10-15T00:00	5880	489	-19.3	-29.8	36	7	
2025-10-15T00:00	5900	488	-19.5	-30.1	36	7	
2025-10-15T00:00	5920	487	-19.7	-30.8	35	7	
2025-10-15T00:00	5940	486	-19.9	-31.1	33	7	
2025-10-15T00:00	5960	484	-20.0	-32.4	32	8	
2025-10-15T00:00	5980	483	-20.1	-34.7	29	8	
2025-10-15T00:00	6000	482	-20.1	-37.1	26	7	
2025-10-15T00:00	6020	480	-20.2	-37.9	24	7	
2025-10-15T00:00	6040	479	-20.4	-37.9	23	7	
2025-10-15T00:00	6060	478	-20.5	-37.9	22	7	
2025-10-15T00:00	6080	476	-20.7	-38.5	23	6	
2025-10-15T00:00	6100	475	-20.7	-39.5	25	6	
2025-10-15T00:00	6120	474	-20.6	-41.2	27	6	
2025-10-15T00:00	6140	473	-20.7	-41.1	28	7	
2025-10-15T00:00	6160	471	-20.8	-41.2	29	7	
2025-10-15T00:00	6180	470	-20.9	-41.4	29	7	
2025-10-15T00:00	6200	469	-21.0	-42.2	30	7	
2025-10-15T00:00	6220	468	-21.0	-43.5	30	8	
2025-10-15T00:00	6240	466	-20.9	-45.0	30	8	
2025-10-15T00:00	6260	465	-21.0	-45.2	31	8	
2025-10-15T00:00	6280	464	-21.2	-44.9	30	8	
2025-10-15T00:00	6300	463	-21.3	-44.3	29	8	
2025-10-15T00:00	6320	461	-21.5	-43.9	27	8	
2025-10-15T00:00	6340	460	-21.6	-43.0	25	8	
2025-10-15T00:00	6360	459	-21.7	-41.4	23	8	
2025-10-15T00:00	6380	458	-21.9	-41.2	21	8	
2025-10-15T00:00	6400	456	-22.0	-41.9	19	8	
2025-10-15T00:00	6420	455	-22.0	-44.4	18	8	
2025-10-15T00:00	6440	454	-22.0	-47.0	16	9	
2025-10-15T00:00	6460	453	-22.1	-47.2	16	9	
2025-10-15T00:00	6480	451	-22.1	-46.3	15	9	
2025-10-15T00:00	6500	450	-22.2	-44.5	15	9	
2025-10-15T00:00	6520	449	-22.4	-43.3	14	8	
2025-10-15T00:00	6540	448	-22.5	-45.9	13	8	
2025-10-15T00:00	6560	446	-22.6	-46.2	12	8	
2025-10-15T00:00	6580	445	-22.8	-46.3	11	8	
2025-10-15T00:00	6600	444	-23.0	-44.7	10	8	
2025-10-15T00:00	6620	443	-23.1	-43.6	9	8	
2025-10-15T00:00	6640	442	-23.3	-43.4	8	8	
2025-10-15T00:00	6660	441	-23.5	-42.9	6	8	
2025-10-15T00:00	6680	439	-23.7	-41.9	5	8	
2025-10-15T00:00	6700	438	-23.9	-40.2	5	8	
2025-10-15T00:00	6720	437	-24.1	-40.4	4	8	
2025-10-15T00:00	6740	436	-24.3	-40.4	5	8	
2025-10-15T00:00	6760	434	-24.5	-40.5	6	8	
2025-10-15T00:00	6780	433	-24.7	-40.5	9	8	
2025-10-15T00:00	6800	432	-24.8	-40.5	10	8	
2025-10-15T00:00	6820	431	-25.0	-40.5	14	8	
2025-10-15T00:00	6840	430	-25.2	-40.7	17	8	
2025-10-15T00:00	6860	428	-25.3	-41.4	19	8	
2025-10-15T00:00	6880	427	-25.4	-41.4	20	8	
2025-10-15T00:00	6900	426	-25.5	-41.0	20	9	
2025-10-15T00:00	6920	425	-25.7	-41.1	19	9	
2025-10-15T00:00	6940	424	-25.9	-41.3	18	9	
2025-10-15T00:00	6960	423	-26.1	-41.3	17	9	
2025-10-15T00:00	6980	421	-26.2	-41.4	16	9	
2025-10-15T00:00	7000	420	-26.4	-41.6	15	10	
2025-10-15T00:00	7020	419	-26.5	-41.5	15	10	
2025-10-15T00:00	7040	418	-26.6	-41.2	14	10	
2025-10-15T00:00	7060	417	-26.8	-41.3	14	10	
2025-10-15T00:00	7080	416	-27.0	-41.8	14	10	
2025-10-15T00:00	7100	415	-27.1	-41.9	14	9	
2025-10-15T00:00	7120	413	-27.3	-41.8	13	9	
2025-10-15T00:00	7140	412	-27.5	-41.9	12	9	
2025-10-15T00:00	7160	411	-27.7	-42.0	10	9	
2025-10-15T00:00	7180	410	-27.8	-42.5	8	9	
2025-10-15T00:00	7200	409	-28.0	-42.9	6	9	
2025-10-15T00:00	7220	408	-28.1	-42.8	5	9	
2025-10-15T00:00	7240	407	-28.3	-42.8	3	8	
2025-10-15T00:00	7260	405	-28.5	-43.0	1	8	
2025-10-15T00:00	7280	404	-28.6	-43.5	360	8	
2025-10-15T00:00	7300	403	-28.8	-44.3	359	8	
2025-10-15T00:00	7320	402	-29.0	-45.6	358	8	
2025-10-15T00:00	7340	401	-29.0	-48.0	358	8	
2025-10-15T00:00	7360	400	-29.1	-46.9	358	8	
2025-10-15T00:00	7380	399	-29.2	-47.1	358	9	
2025-10-15T00:00	7400	397	-29.4	-46.6	358	9	
2025-10-15T00:00	7420	396	-29.6	-45.3	358	9	
2025-10-15T00:00	7440	395	-29.7	-46.3	357	9	
2025-10-15T00:00	7460	394	-29.9	-48.3	357	9	
2025-10-15T00:00	7480	393	-30.1	-45.8	357	9	
2025-10-15T00:00	7500	392	-30.2	-44.6	357	9	
2025-10-15T00:00	7520	391	-30.4	-45.1	357	9	
2025-10-15T00:00	7540	390	-30.6	-45.1	357	9	
2025-10-15T00:00	7560	389	-30.8	-44.9	358	9	
2025-10-15T00:00	7580	388	-31.0	-44.9	359	9	
2025-10-15T00:00	7600	387	-31.2	-44.9	359	9	
2025-10-15T00:00	7620	385	-31.4	-45.0	360	8	
2025-10-15T00:00	7640	384	-31.6	-44.8	359	8	
2025-10-15T00:00	7660	383	-31.8	-44.3	359	8	
2025-10-15T00:00	7680	382	-32.0	-43.8	357	7	
2025-10-15T00:00	7700	381	-32.1	-45.3	356	7	
2025-10-15T00:00	7720	380	-32.2	-47.7	354	7	
2025-10-15T00:00	7740	379	-32.3	-48.2	351	7	
2025-10-15T00:00	7760	378	-32.4	-48.6	350	7	
2025-10-15T00:00	7780	377	-32.5	-48.8	349	7	
2025-10-15T00:00	7800	376	-32.6	-48.6	348	8	
2025-10-15T00:00	7820	375	-32.8	-48.2	348	8	
2025-10-15T00:00	7840	373	-33.0	-49.2	349	8	
2025-10-15T00:00	7860	373	-33.1	-49.9	350	8	
2025-10-15T00:00	7880	371	-33.2	-49.7	352	8	
2025-10-15T00:00	7900	370	-33.4	-49.6	353	8	
2025-10-15T00:00	7920	369	-33.6	-49.7	355	8	
2025-10-15T00:00	7940	368	-33.8	-49.3	356	8	
2025-10-15T00:00	7960	367	-33.9	-47.7	357	8	
2025-10-15T00:00	7980	366	-34.1	-48.0	357	8	
2025-10-15T00:00	8000	365	-34.2	-47.7	357	8	
2025-10-15T00:00	8020	364	-34.4	-47.0	356	8	
2025-10-15T00:00	8040	363	-34.6	-47.7	355	8	
2025-10-15T00:00	8060	362	-34.8	-48.1	354	8	
2025-10-15T00:00	8080	361	-35.0	-47.5	353	8	
2025-10-15T00:00	8100	360	-35.1	-47.6	354	9	
2025-10-15T00:00	8120	359	-35.3	-47.6	356	9	
2025-10-15T00:00	8140	358	-35.4	-46.8	356	9	
2025-10-15T00:00	8160	357	-35.6	-46.5	357	9	
2025-10-15T00:00	8180	356	-35.8	-46.7	357	9	
2025-10-15T00:00	8200	355	-35.9	-46.9	357	9	
2025-10-15T00:00	8220	354	-36.1	-46.9	356	9	
2025-10-15T00:00	8240	353	-36.2	-46.9	354	9	
2025-10-15T00:00	8260	352	-36.4	-47.2	352	9	
2025-10-15T00:00	8280	351	-36.6	-47.0	350	10	
2025-10-15T00:00	8300	350	-36.7	-47.1	349	10	
2025-10-15T00:00	8320	349	-36.9	-47.5	348	10	
2025-10-15T00:00	8340	348	-37.0	-47.9	348	10	
2025-10-15T00:00	8360	347	-37.2	-48.1	348	11	
2025-10-15T00:00	8380	346	-37.4	-48.1	348	11	
2025-10-15T00:00	8400	345	-37.5	-48.0	348	11	
2025-10-15T00:00	8420	344	-37.6	-48.4	347	11	
2025-10-15T00:00	8440	343	-37.7	-48.7	346	11	
2025-10-15T00:00	8460	342	-37.9	-48.9	345	11	
2025-10-15T00:00	8480	341	-38.0	-49.3	344	10	
2025-10-15T00:00	8500	340	-38.1	-49.5	343	10	
2025-10-15T00:00	8520	339	-38.3	-49.5	342	10	
2025-10-15T00:00	8540	338	-38.5	-49.5	341	10	
2025-10-15T00:00	8560	337	-38.6	-49.8	341	10	
2025-10-15T00:00	8580	336	-38.8	-50.0	340	10	
2025-10-15T00:00	8600	335	-39.0	-50.1	339	9	
2025-10-15T00:00	8620	334	-39.1	-50.2	339	9	
2025-10-15T00:00	8640	333	-39.3	-50.4	337	9	
2025-10-15T00:00	8660	332	-39.4	-51.0	336	9	
2025-10-15T00:00	8680	331	-39.4	-51.8	335	9	
2025-10-15T00:00	8700	330	-39.5	-52.8	334	9	
2025-10-15T00:00	8720	329	-39.7	-52.6	334	9	
2025-10-15T00:00	8740	328	-39.8	-51.8	336	10	
2025-10-15T00:00	8760	327	-39.9	-52.7	338	10	
2025-10-15T00:00	8780	326	-40.0	-53.3	339	10	
2025-10-15T00:00	8800	325	-40.2	-53.1	341	10	
2025-10-15T00:00	8820	324	-40.4	-53.0	342	10	
2025-10-15T00:00	8840	323	-40.5	-53.0	342	11	
2025-10-15T00:00	8860	322	-40.7	-52.4	341	11	
2025-10-15T00:00	8880	321	-40.8	-52.3	340	10	
2025-10-15T00:00	8900	321	-41.0	-52.3	339	10	
2025-10-15T00:00	8920	320	-41.2	-52.6	338	10	
2025-10-15T00:00	8940	319	-41.4	-53.1	337	10	
2025-10-15T00:00	8960	318	-41.6	-53.3	336	10	
2025-10-15T00:00	8980	317	-41.7	-53.5	337	10	
2025-10-15T00:00	9000	316	-41.8	-54.4	338	10	
2025-10-15T00:00	9020	315	-41.9	-55.5	338	10	
2025-10-15T00:00	9040	314	-42.0	-56.3	339	10	
2025-10-15T00:00	9060	313	-42.1	-56.7	340	9	
2025-10-15T00:00	9080	312	-42.2	-55.0	340	9	
2025-10-15T00:00	9100	311	-42.3	-53.5	340	9	
2025-10-15T00:00	9120	310	-42.4	-53.8	340	9	
2025-10-15T00:00	9140	309	-42.5	-54.5	341	9	
2025-10-15T00:00	9160	308	-42.7	-54.6	341	9	
2025-10-15T00:00	9180	307	-42.9	-54.6	342	9	
2025-10-15T00:00	9200	306	-43.1	-54.8	342	9	
2025-10-15T00:00	9220	306	-43.2	-54.9	342	9	
2025-10-15T00:00	9240	305	-43.4	-55.2	342	10	
2025-10-15T00:00	9260	304	-43.5	-55.9	342	10	
2025-10-15T00:00	9280	303	-43.7	-56.7	341	10	
2025-10-15T00:00	9300	302	-43.8	-57.6	340	10	
2025-10-15T00:00	9320	301	-44.0	-57.6	339	10	
2025-10-15T00:00	9340	300	-44.1	-58.7	338	10	
2025-10-15T00:00	9360	299	-44.3	-60.4	338	10	
2025-10-15T00:00	9380	298	-44.5	-61.1	336	10	
2025-10-15T00:00	9400	298	-44.6	-61.3	336	9	
2025-10-15T00:00	9420	297	-44.8	-60.9	335	9	
2025-10-15T00:00	9440	296	-45.0	-60.6	334	9	
2025-10-15T00:00	9460	295	-45.1	-60.7	334	9	
2025-10-15T00:00	9480	294	-45.2	-60.8	334	10	
2025-10-15T00:00	9500	293	-45.3	-60.8	333	10	
2025-10-15T00:00	9520	292	-45.5	-61.0	332	10	
2025-10-15T00:00	9540	291	-45.6	-61.0	332	10	
2025-10-15T00:00	9560	290	-45.7	-61.1	331	10	
2025-10-15T00:00	9580	290	-45.7	-61.1	330	10	
2025-10-15T00:00	9600	289	-46.0	-61.1	330	10	
2025-10-15T00:00	9620	288	-46.2	-61.0	330	10	
2025-10-15T00:00	9640	287	-46.4	-60.9	329	10	
2025-10-15T00:00	9660	286	-46.6	-60.9	329	10	
2025-10-15T00:00	9680	285	-46.8	-60.9	328	10	
2025-10-15T00:00	9700	284	-46.9	-60.8	328	10	
2025-10-15T00:00	9720	284	-47.1	-60.8	327	11	
2025-10-15T00:00	9740	283	-47.3	-61.0	327	11	
2025-10-15T00:00	9760	282	-47.4	-61.4	326	11	
2025-10-15T00:00	9780	281	-47.4	-62.2	326	11	
2025-10-15T00:00	9800	280	-47.5	-62.4	326	11	
2025-10-15T00:00	9820	279	-47.7	-62.1	327	11	
2025-10-15T00:00	9840	278	-47.8	-62.0	327	11	
2025-10-15T00:00	9860	278	-48.0	-62.0	328	11	
2025-10-15T00:00	9880	277	-48.2	-62.2	329	11	
2025-10-15T00:00	9900	276	-48.3	-62.6	329	11	
2025-10-15T00:00	9920	275	-48.4	-62.8	330	12	
2025-10-15T00:00	9940	274	-48.6	-62.8	330	12	
2025-10-15T00:00	9960	273	-48.8	-62.8	330	12	
2025-10-15T00:00	9980	273	-48.9	-62.9	330	12	
2025-10-15T00:00	10000	272	-49.1	-63.1	331	12	
2025-10-15T00:00	10018	271	-49.1	-63.2	332	12	
2025-10-15T00:00	10050	270	-49.3	-63.4	333	12	
2025-10-15T00:00	10100	268	-49.8	-63.5	337	12	
2025-10-15T00:00	10150	266	-50.2	-63.4	339	12	
2025-10-15T00:00	10200	264	-50.5	-63.4	341	12	
2025-10-15T00:00	10250	262	-50.8	-63.1	341	12	
2025-10-15T00:00	10300	260	-51.2	-62.7	341	12	
2025-10-15T00:00	10350	258	-51.5	-62.9	340	12	
2025-10-15T00:00	10400	256	-51.8	-63.3	340	11	
2025-10-15T00:00	10450	254	-52.0	-63.8	341	11	
2025-10-15T00:00	10500	252	-52.4	-63.9	344	11	
2025-10-15T00:00	10550	250	-52.7	-64.2	346	11	
2025-10-15T00:00	10600	248	-53.0	-64.5	347	11	
2025-10-15T00:00	10650	246	-53.1	-64.6	346	11	
2025-10-15T00:00	10700	244	-53.3	-65.8	345	11	
2025-10-15T00:00	10750	242	-53.3	-66.1	344	11	
2025-10-15T00:00	10800	240	-53.6	-65.8	343	11	
2025-10-15T00:00	10850	238	-54.0	-65.7	344	11	
2025-10-15T00:00	10900	236	-54.4	-65.1	345	12	
2025-10-15T00:00	10950	235	-54.7	-65.1	346	12	
2025-10-15T00:00	11000	233	-55.1	-65.2	345	12	
2025-10-15T00:00	11050	231	-55.6	-65.4	343	12	
2025-10-15T00:00	11100	229	-56.0	-65.4	341	12	
2025-10-15T00:00	11150	227	-56.4	-65.5	342	12	
2025-10-15T00:00	11200	226	-56.8	-65.8	344	12	
2025-10-15T00:00	11250	224	-57.1	-66.3	348	12	
2025-10-15T00:00	11300	222	-57.3	-66.7	354	12	
2025-10-15T00:00	11350	220	-57.5	-67.0	0	12	
2025-10-15T00:00	11400	219	-57.6	-67.2	5	11	
2025-10-15T00:00	11450	217	-57.9	-67.7	5	11	
2025-10-15T00:00	11500	215	-57.9	-68.9	3	10	
2025-10-15T00:00	11550	213	-58.1	-70.0	1	10	
2025-10-15T00:00	11600	212	-58.1	-70.5	356	9	
2025-10-15T00:00	11650	210	-58.0	-71.2	350	9	
2025-10-15T00:00	11700	208	-57.8	-71.6	345	9	
2025-10-15T00:00	11750	207	-57.9	-72.1	342	9	
2025-10-15T00:00	11800	205	-57.9	-72.4	342	10	
2025-10-15T00:00	11850	204	-58.1	-72.5	342	10	
2025-10-15T00:00	11900	202	-58.3	-72.5	341	10	
2025-10-15T00:00	11950	200	-58.0	-72.9	343	9	
2025-10-15T00:00	12000	199	-57.7	-73.6	347	8	
2025-10-15T00:00	12050	197	-57.6	-73.7	351	9	
2025-10-15T00:00	12100	196	-56.9	-74.3	350	10	
2025-10-15T00:00	12150	194	-56.6	-75.2	350	10	
2025-10-15T00:00	12200	193	-56.2	-75.8	355	10	
2025-10-15T00:00	12250	191	-56.1	-76.4	2	10	
2025-10-15T00:00	12300	189	-55.6	-76.7	6	11	
2025-10-15T00:00	12350	188	-55.5	-77.0	6	11	
2025-10-15T00:00	12400	187	-55.1	-77.2	4	10	
2025-10-15T00:00	12450	185	-55.4	-77.3	0	9	
2025-10-15T00:00	12500	184	-55.6	-77.3	359	8	
2025-10-15T00:00	12550	182	-56.0	-77.3	1	8	
2025-10-15T00:00	12600	181	-56.5	-77.3	5	8	
2025-10-15T00:00	12650	179	-56.9	-77.3	8	9	
2025-10-15T00:00	12700	178	-57.2	-77.4	9	9	
2025-10-15T00:00	12750	177	-57.4	-77.4	6	9	
2025-10-15T00:00	12800	175	-57.8	-77.6	2	9	
2025-10-15T00:00	12850	174	-58.2	-77.8	357	9	
2025-10-15T00:00	12900	172	-58.3	-78.1	354	10	
2025-10-15T00:00	12950	171	-58.1	-78.6	353	10	
2025-10-15T00:00	13000	170	-57.9	-79.0	352	10	
2025-10-15T00:00	13050	168	-57.9	-79.1	349	10	
2025-10-15T00:00	13100	167	-58.2	-79.3	344	10	
2025-10-15T00:00	13150	166	-58.5	-79.4	339	10	
2025-10-15T00:00	13200	164	-58.6	-79.6	335	10	
2025-10-15T00:00	13250	163	-58.9	-79.8	332	10	
2025-10-15T00:00	13300	162	-59.2	-80.1	329	10	
2025-10-15T00:00	13350	160	-58.8	-80.3	328	10	
2025-10-15T00:00	13400	159	-58.7	-80.5	330	10	
2025-10-15T00:00	13450	158	-59.1	-80.6	333	11	
2025-10-15T00:00	13500	157	-59.6	-80.7	337	11	
2025-10-15T00:00	13550	155	-59.9	-80.8	341	11	
2025-10-15T00:00	13600	154	-60.1	-81.1	346	12	
2025-10-15T00:00	13650	153	-59.6	-81.2	351	12	
2025-10-15T00:00	13700	152	-59.2	-81.5	355	13	
2025-10-15T00:00	13750	150	-59.0	-81.9	360	13	
2025-10-15T00:00	13800	149	-58.8	-81.9	3	13	
2025-10-15T00:00	13850	148	-58.7	-82.1	7	13	
2025-10-15T00:00	13900	147	-58.7	-82.2	12	12	
2025-10-15T00:00	13950	146	-58.6	-82.3	17	12	
2025-10-15T00:00	14000	145	-58.5	-82.3	21	11	
2025-10-15T00:00	14050	144	-58.6	-82.3	24	10	
2025-10-15T00:00	14100	142	-58.9	-82.4	26	10	
2025-10-15T00:00	14150	141	-58.9	-82.4	26	8	
2025-10-15T00:00	14200	140	-59.0	-82.4	24	7	
2025-10-15T00:00	14250	139	-59.3	-82.5	19	6	
2025-10-15T00:00	14300	138	-59.7	-82.6	14	5	
2025-10-15T00:00	14350	137	-60.0	-82.6	7	5	
2025-10-15T00:00	14400	136	-60.4	-82.7	358	5	
2025-10-15T00:00	14450	135	-60.8	-82.8	350	6	
2025-10-15T00:00	14500	134	-61.2	-82.9	344	7	
2025-10-15T00:00	14550	133	-61.5	-83.0	341	8	
2025-10-15T00:00	14600	131	-61.6	-83.2	339	9	
2025-10-15T00:00	14650	130	-61.5	-83.2	341	9	
2025-10-15T00:00	14700	129	-61.5	-83.4	344	9	
2025-10-15T00:00	14750	128	-61.4	-83.4	347	10	
2025-10-15T00:00	14800	127	-61.3	-83.3	350	11	
2025-10-15T00:00	14850	126	-61.5	-83.4	352	11	
2025-10-15T00:00	14900	125	-61.8	-83.5	353	11	
2025-10-15T00:00	14950	124	-61.9	-83.6	355	10	
2025-10-15T00:00	15000	123	-61.8	-83.7	355	9	
2025-10-15T00:00	15050	122	-61.4	-83.6	353	7	
2025-10-15T00:00	15100	121	-61.2	-83.6	345	6	
2025-10-15T00:00	15150	120	-61.2	-83.7	339	6	
2025-10-15T00:00	15200	119	-61.2	-83.6	337	7	
2025-10-15T00:00	15250	118	-61.5	-83.7	333	7	
2025-10-15T00:00	15300	117	-61.8	-83.7	326	7	
2025-10-15T00:00	15350	116	-62.2	-83.8	322	7	
2025-10-15T00:00	15400	116	-62.3	-83.9	324	7	
2025-10-15T00:00	15450	115	-62.0	-83.9	332	8	
2025-10-15T00:00	15500	114	-62.2	-84.0	341	8	
2025-10-15T00:00	15550	113	-62.4	-84.1	350	8	
2025-10-15T00:00	15600	112	-62.6	-84.1	356	9	
2025-10-15T00:00	15650	111	-62.9	-84.2	355	8	
2025-10-15T00:00	15700	110	-62.5	-84.0	349	7	
2025-10-15T00:00	15750	109	-62.6	-84.3	337	6	
2025-10-15T00:00	15800	108	-62.4	-84.2	328	7	
2025-10-15T00:00	15850	107	-62.4	-84.3	325	7	
2025-10-15T00:00	15900	107	-62.1	-84.2	326	6	
2025-10-15T00:00	15950	106	-62.1	-84.3	329	6	
2025-10-15T00:00	16000	105	-62.1	-84.3	329	6	
2025-10-15T00:00	16050	104	-62.1	-84.4	328	6	
2025-10-15T00:00	16100	103	-62.3	-84.4	330	7	
2025-10-15T00:00	16150	102	-62.4	-84.4	332	8	
2025-10-15T00:00	16200	101	-62.5	-84.4	332	9	
2025-10-15T00:00	16250	101	-62.5	-84.4	330	10	
2025-10-15T00:00	16300	100	-62.9	-84.6	330	10	
2025-10-15T00:00	16350	99	-62.9	-84.7	334	11	
2025-10-15T00:00	16400	98	-62.6	-84.8	339	12	
2025-10-15T00:00	16450	97	-62.5	-85.1	345	12	
2025-10-15T00:00	16500	97	-61.9	-85.0	354	12	
2025-10-15T00:00	16550	96	-61.8	-85.1	5	12	
2025-10-15T00:00	16600	95	-61.7	-85.2	12	11	
2025-10-15T00:00	16650	94	-61.4	-85.2	15	11	
2025-10-15T00:00	16700	94	-61.3	-85.3	15	10	
2025-10-15T00:00	16750	93	-61.5	-85.3	11	8	
2025-10-15T00:00	16800	92	-61.6	-85.4	2	7	
2025-10-15T00:00	16850	91	-61.4	-85.4	354	6	
2025-10-15T00:00	16900	91	-61.4	-85.5	351	6	
2025-10-15T00:00	16950	90	-61.3	-85.4	352	6	
2025-10-15T00:00	17000	89	-61.3	-85.4	350	6	
2025-10-15T00:00	17050	88	-61.5	-85.4	345	7	
2025-10-15T00:00	17100	88	-61.8	-85.5	341	7	
2025-10-15T00:00	17150	87	-61.9	-85.6	341	7	
2025-10-15T00:00	17200	86	-61.9	-85.6	344	8	
2025-10-15T00:00	17250	86	-62.0	-85.7	348	8	
2025-10-15T00:00	17300	85	-62.1	-85.8	349	8	
2025-10-15T00:00	17350	84	-62.2	-85.8	348	7	
2025-10-15T00:00	17400	84	-62.3	-85.9	344	6	
2025-10-15T00:00	17450	83	-62.2	-85.9	335	5	
2025-10-15T00:00	17500	82	-62.2	-85.9	318	4	
2025-10-15T00:00	17550	82	-62.2	-85.9	303	4	
2025-10-15T00:00	17600	81	-62.2	-86.0	299	5	
2025-10-15T00:00	17650	80	-62.1	-86.0	300	5	
2025-10-15T00:00	17700	80	-62.0	-86.0	298	6	
2025-10-15T00:00	17750	79	-62.3	-86.0	297	6	
2025-10-15T00:00	17800	78	-62.7	-86.1	301	6	
2025-10-15T00:00	17850	78	-63.1	-86.2	305	7	
2025-10-15T00:00	17900	77	-63.5	-86.3	310	8	
2025-10-15T00:00	17950	76	-63.7	-86.5	315	9	
2025-10-15T00:00	18000	76	-63.4	-86.4	319	10	
2025-10-15T00:00	18050	75	-63.6	-86.5	325	10	
2025-10-15T00:00	18100	75	-63.9	-86.7	333	9	
2025-10-15T00:00	18150	74	-64.2	-86.8	343	8	
2025-10-15T00:00	18200	73	-64.0	-86.7	350	7	
2025-10-15T00:00	18250	73	-64.2	-86.8	353	7	
2025-10-15T00:00	18300	72	-64.3	-87.0	351	8	
2025-10-15T00:00	18350	72	-64.1	-87.1	347	9	
2025-10-15T00:00	18400	71	-63.6	-87.1	340	9	
2025-10-15T00:00	18450	70	-63.0	-86.9	334	9	
2025-10-15T00:00	18500	70	-63.1	-87.0	332	9	
2025-10-15T00:00	18550	69	-62.8	-86.8	335	9	
2025-10-15T00:00	18600	69	-62.8	-86.8	339	9	
2025-10-15T00:00	18650	68	-62.6	-86.8	341	9	
2025-10-15T00:00	18700	68	-62.4	-86.8	341	9	
2025-10-15T00:00	18750	67	-62.4	-86.9	343	9	
2025-10-15T00:00	18800	67	-62.1	-86.8	346	9	
2025-10-15T00:00	18850	66	-62.1	-86.8	350	9	
2025-10-15T00:00	18900	66	-61.9	-86.8	354	9	
2025-10-15T00:00	18950	65	-61.6	-86.6	358	9	
2025-10-15T00:00	19000	64	-61.6	-86.7	2	9	
2025-10-15T00:00	19050	64	-61.5	-86.7	6	9	
2025-10-15T00:00	19100	63	-61.3	-86.7	7	9	
2025-10-15T00:00	19150	63	-60.8	-86.6	4	8	
2025-10-15T00:00	19200	62	-60.5	-86.5	360	7	
2025-10-15T00:00	19250	62	-60.4	-86.4	0	6	
2025-10-15T00:00	19300	61	-60.4	-86.4	7	6	
2025-10-15T00:00	19350	61	-60.5	-86.3	16	5	
2025-10-15T00:00	19400	60	-60.8	-86.3	27	5	
2025-10-15T00:00	19450	60	-61.1	-86.3	37	4	
2025-10-15T00:00	19500	59	-61.3	-86.4	41	4	
2025-10-15T00:00	19550	59	-61.5	-86.5	39	4	
2025-10-15T00:00	19600	59	-61.5	-86.5	37	4	
2025-10-15T00:00	19650	58	-61.7	-86.5	37	3	
2025-10-15T00:00	19700	58	-62.1	-86.7	33	3	
2025-10-15T00:00	19750	57	-62.5	-86.8	23	2	
2025-10-15T00:00	19800	57	-62.6	-86.9	352	2	
2025-10-15T00:00	19850	56	-62.7	-87.0	319	3	
2025-10-15T00:00	19900	56	-62.7	-87.0	303	4	
2025-10-15T00:00	19950	55	-62.8	-87.2	301	4	
2025-10-15T00:00	20000	55	-62.8	-87.2	307	5	
2025-10-15T00:00	20050	54	-62.7		316	5	
2025-10-15T00:00	20100	54	-62.7		322	5	
2025-10-15T00:00	20150	54	-62.4		327	6	
2025-10-15T00:00	20200	53	-62.5		334	6	
2025-10-15T00:00	20250	53	-62.6		344	6	
2025-10-15T00:00	20300	52	-62.2		354	6	
2025-10-15T00:00	20350	52	-62.0		4	6	
2025-10-15T00:00	20400	51	-62.2		12	5	
2025-10-15T00:00	20450	51	-62.1		17	4	
2025-10-15T00:00	20500	51	-61.9		19	2	
2025-10-15T00:00	20550	50	-61.1		358	1	
2025-10-15T00:00	20600	50	-61.0		233	1	
2025-10-15T00:00	20650	49	-60.9		239	2	
2025-10-15T00:00	20700	49	-61.0		254	3	
2025-10-15T00:00	20750	49	-61.3		266	4	
2025-10-15T00:00	20800	48	-61.1		272	6	
2025-10-15T00:00	20850	48	-60.9		278	7	
2025-10-15T00:00	20900	47	-61.1		285	8	
2025-10-15T00:00	20950	47	-61.0		289	9	
2025-10-15T00:00	21000	47	-60.8		290	10	
2025-10-15T00:00	21050	46	-60.8		289	10	
2025-10-15T00:00	21100	46	-60.8		292	10	
2025-10-15T00:00	21150	46	-61.1		297	9	
2025-10-15T00:00	21200	45	-61.2		300	9	
2025-10-15T00:00	21250	45	-61.3		303	9	
2025-10-15T00:00	21300	44	-61.6		307	9	
2025-10-15T00:00	21350	44	-61.4		311	8	
2025-10-15T00:00	21400	44	-61.1		315	7	
2025-10-15T00:00	21450	43	-60.9		323	6	
2025-10-15T00:00	21500	43	-61.1		335	6	
2025-10-15T00:00	21550	43	-61.1		343	6	
2025-10-15T00:00	21600	42	-60.6		342	5	
2025-10-15T00:00	21650	42	-60.3		331	4	
2025-10-15T00:00	21700	42	-60.3		318	4	
2025-10-15T00:00	21750	41	-60.5		311	4	
2025-10-15T00:00	21800	41	-60.8		308	4	
2025-10-15T00:00	21850	41	-61.2		307	4	
2025-10-15T00:00	21900	40	-61.3		310	5	
2025-10-15T00:00	21950	40	-61.6		316	5	
2025-10-15T00:00	22000	40	-61.7		324	6	
2025-10-15T00:00	22050	39	-61.7		328	6	
2025-10-15T00:00	22100	39	-61.5		329	5	
2025-10-15T00:00	22150	39	-61.2		329	5	
2025-10-15T00:00	22200	38	-61.3		328	6	
2025-10-15T00:00	22250	38	-61.2		326	6	
2025-10-15T00:00	22300	38	-61.2		323	6	
2025-10-15T00:00	22350	38	-61.2		325	6	
2025-10-15T00:00	22400	37	-60.8		334	6	
2025-10-15T00:00	22450	37	-60.7		345	7	
2025-10-15T00:00	22500	37	-60.5		354	8	
2025-10-15T00:00	22550	36	-60.2		1	8	
2025-10-15T00:00	22600	36	-60.1		3	7	
2025-10-15T00:00	22650	36	-60.1		0	6	
2025-10-15T00:00	22700	35	-60.1		357	6	
2025-10-15T00:00	22750	35	-60.2		357	5	
2025-10-15T00:00	22800	35	-60.2		354	5	
2025-10-15T00:00	22850	35	-60.1		342	4	
2025-10-15T00:00	22900	34	-59.9		332	5	
2025-10-15T00:00	22950	34	-59.9		336	5	
2025-10-15T00:00	23000	34	-59.6		346	6	
2025-10-15T00:00	23050	34	-59.3		357	5	
2025-10-15T00:00	23100	33	-59.0		8	5	
2025-10-15T00:00	23150	33	-58.9		12	4	
2025-10-15T00:00	23200	33	-58.8		4	4	
2025-10-15T00:00	23250	32	-58.8		347	3	
2025-10-15T00:00	23300	32	-59.0		335	3	
2025-10-15T00:00	23350	32	-59.1		334	3	
2025-10-15T00:00	23400	32	-59.4		337	3	
2025-10-15T00:00	23450	31	-59.6		338	3	
2025-10-15T00:00	23500	31	-59.8		338	2	
2025-10-15T00:00	23550	31	-60.1		335	2	
2025-10-15T00:00	23600	31	-60.5		330	2	
2025-10-15T00:00	23650	30	-60.8		318	1	
2025-10-15T00:00	23700	30	-61.0		265	1	
2025-10-15T00:00	23750	30	-60.6		193	1	
2025-10-15T00:00	23800	30	-60.2		191	3	
2025-10-15T00:00	23850	30	-60.3		207	3	
2025-10-15T00:00	23900	29	-60.4		228	4	
2025-10-15T00:00	23950	29	-60.3		244	5	
2025-10-15T00:00	24000	29	-60.1		250	6	
2025-10-15T00:00	24050	29	-60.1		252	7	
2025-10-15T00:00	24100	28	-59.7		254	7	
2025-10-15T00:00	24150	28	-59.7		257	8	
2025-10-15T00:00	24200	28	-60.0		263	8	
2025-10-15T00:00	24250	28	-60.2		272	9	
2025-10-15T00:00	24300	27	-59.8		281	9	
2025-10-15T00:00	24350	27	-59.5		289	10	
2025-10-15T00:00	24400	27	-59.3		292	9	
2025-10-15T00:00	24450	27	-59.2		291	8	
2025-10-15T00:00	24500	27	-58.7		289	8	
2025-10-15T00:00	24550	26	-58.3		286	7	
2025-10-15T00:00	24600	26	-58.2		286	8	
2025-10-15T00:00	24650	26	-58.1		290	8	
2025-10-15T00:00	24700	26	-58.0		296	8	
2025-10-15T00:00	24750	26	-57.5		302	7	
2025-10-15T00:00	24800	25	-56.9		307	6	
2025-10-15T00:00	24850	25	-56.7		308	7	
2025-10-15T00:00	24900	25	-55.9		308	8	
2025-10-15T00:00	24950	25	-55.7		306	9	
2025-10-15T00:00	25000	25	-55.8		302	9	
2025-10-15T00:00	25050	24	-55.3		298	9	
2025-10-15T00:00	25100	24	-55.0		294	10	
2025-10-15T00:00	25150	24	-55.1		293	10	
2025-10-15T00:00	25200	24	-55.0		294	9	
2025-10-15T00:00	25250	24	-55.2		295	9	
2025-10-15T00:00	25300	23	-55.4		296	8	
2025-10-15T00:00	25350	23	-55.8		293	7	
2025-10-15T00:00	25400	23	-55.7		289	7	
2025-10-15T00:00	25450	23	-55.9		283	6	
2025-10-15T00:00	25500	23	-56.2		277	5	
2025-10-15T00:00	25550	23	-56.4		268	5	
2025-10-15T00:00	25600	22	-56.6		260	5	
2025-10-15T00:00	25650	22	-56.8		253	5	
2025-10-15T00:00	25700	22	-56.8		250	5	
2025-10-15T00:00	25750	22	-56.4		253	6	
2025-10-15T00:00	25800	22	-56.1		257	7	
2025-10-15T00:00	25850	21	-56.0		256	8	
2025-10-15T00:00	25900	21	-55.9		253	9	
2025-10-15T00:00	25950	21	-55.5		249	8	
2025-10-15T00:00	26000	21	-55.2		248	8	
2025-10-15T00:00	26050	21	-55.2		247	7	
2025-10-15T00:00	26100	21	-55.0		241	6	
2025-10-15T00:00	26150	21	-54.9		234	6	
2025-10-15T00:00	26200	20	-54.6		231	6	
2025-10-15T00:00	26250	20	-54.5		235	7	
2025-10-15T00:00	26300	20	-54.7		239	8	
2025-10-15T00:00	26350	20	-54.9		242	9	
2025-10-15T00:00	26400	20	-55.1		246	9	
2025-10-15T00:00	26450	20	-55.4		251	10	
2025-10-15T00:00	26500	19	-55.4		254	10	
2025-10-15T00:00	26550	19	-55.3		254	10	
2025-10-15T00:00	26600	19	-55.3		255	10	
2025-10-15T00:00	26650	19	-54.9		259	9	
2025-10-15T00:00	26700	19	-54.9		265	9	
2025-10-15T00:00	26750	19	-54.9		266	9	
2025-10-15T00:00	26800	19	-54.2		261	10	
2025-10-15T00:00	26850	18	-53.9		256	11	
2025-10-15T00:00	26900	18	-53.7		254	12	
2025-10-15T00:00	26950	18	-53.9		257	11	
2025-10-15T00:00	27000	18	-53.3		263	10	
2025-10-15T00:00	27050	18	-53.4		269	10	
2025-10-15T00:00	27100	18	-53.5		270	10	
2025-10-15T00:00	27150	18	-53.5		268	11	
2025-10-15T00:00	27200	17	-53.9		265	11	
2025-10-15T00:00	27250	17	-54.2		263	12	
2025-10-15T00:00	27300	17	-54.2		260	12	
2025-10-15T00:00	27350	17	-54.3		258	12	
2025-10-15T00:00	27400	17	-54.6		257	13	
2025-10-15T00:00	27450	17	-54.9		258	13	
2025-10-15T00:00	27500	17	-54.7		261	13	
2025-10-15T00:00	27550	16	-54.4		264	13	
2025-10-15T00:00	27600	16	-54.2		268	13	
2025-10-15T00:00	27650	16	-53.4		270	14	
2025-10-15T00:00	27700	16	-53.1		269	14	
2025-10-15T00:00	27750	16	-52.8		268	15	
2025-10-15T00:00	27800	16	-52.4		267	15	
2025-10-15T00:00	27850	16	-52.5		268	16	
2025-10-15T00:00	27900	16	-52.0		269	16	
2025-10-15T00:00	27950	15	-52.3		267	15	
2025-10-15T00:00	28000	15	-52.6		263	15	
2025-10-15T00:00	28050	15	-52.5		259	15	
2025-10-15T00:00	28100	15	-52.6		255	15	
2025-10-15T00:00	28150	15	-53.0		253	15	
2025-10-15T00:00	28200	15	-53.3		251	15	
2025-10-15T00:00	28250	15	-53.7		251	15	
2025-10-15T00:00	28300	15	-54.0		253	16	
2025-10-15T00:00	28350	15	-53.7		258	17	
2025-10-15T00:00	28400	14	-53.7		262	17	
2025-10-15T00:00	28450	14	-53.6		265	17	
2025-10-15T00:00	28500	14	-53.4		268	17	
2025-10-15T00:00	28550	14	-53.0		269	16	
2025-10-15T00:00	28600	14	-53.1		271	16	
2025-10-15T00:00	28650	14	-52.7		272	16	
2025-10-15T00:00	28700	14	-52.6		273	17	
2025-10-15T00:00	28750	14	-52.9		275	17	
2025-10-15T00:00	28800	14	-53.0		275	17	
2025-10-15T00:00	28850	13	-53.0		273	16	
2025-10-15T00:00	28900	13	-52.9		268	15	
2025-10-15T00:00	28950	13	-53.0		262	14	
2025-10-15T00:00	29000	13	-52.6		257	14	
2025-10-15T00:00	29050	13	-52.6		253	14	
2025-10-15T00:00	29100	13	-52.7		252	14	
2025-10-15T00:00	29150	13	-51.9		253	15	
2025-10-15T00:00	29200	13	-51.6		254	17	
2025-10-15T00:00	29250	13	-51.4		255	18	
2025-10-15T00:00	29300	13	-51.1		256	20	
2025-10-15T00:00	29350	12	-50.8		257	21	
2025-10-15T00:00	29400	12	-50.6		259	21	
2025-10-15T00:00	29450	12	-50.9		260	21	
2025-10-15T00:00	29500	12	-50.7		260	20	
2025-10-15T00:00	29550	12	-50.1		261	19	
2025-10-15T00:00	29600	12	-50.2		260	18	
2025-10-15T00:00	29650	12	-50.2		258	17	
2025-10-15T00:00	29700	12	-50.3		255	16	
2025-10-15T00:00	29750	12	-49.9		251	16	
2025-10-15T00:00	29800	12	-49.6		251	16	
2025-10-15T00:00	29850	12	-49.8		255	16	
2025-10-15T00:00	29900	11	-49.8		259	16	
2025-10-15T00:00	29950	11	-49.8		262	16	
2025-10-15T00:00	30000	11	-50.0		262	16	
2025-10-15T00:00	30050	11	-49.4		261	16	
2025-10-15T00:00	30100	11	-49.2		259	16	
2025-10-15T00:00	30150	11	-48.3		257	17	
2025-10-15T00:00	30200	11	-48.0		255	18	
2025-10-15T00:00	30250	11	-48.2		253	19	
2025-10-15T00:00	30300	11	-48.2		254	19	
2025-10-15T00:00	30350	11	-48.1		258	20	
2025-10-15T00:00	30400	11	-47.0		263	21	
2025-10-15T00:00	30450	11	-46.9		268	21	
2025-10-15T00:00	30500	10	-46.6		273	21	
2025-10-15T00:00	30550	10	-46.0		276	20	
2025-10-15T00:00	30600	10	-46.3		279	19	
2025-10-15T00:00	30650	10	-46.5		281	18	
2025-10-15T00:00	30700	10	-46.6		282	17	
2025-10-15T00:00	30750	10	-46.1		281	17	
2025-10-15T00:00	30800	10	-46.0		279	17	
2025-10-15T00:00	30850	10	-46.2		277	18	
2025-10-15T00:00	30900	10	-46.6		275	18	
2025-10-15T00:00	30950	10	-46.8		275	18	
2025-10-15T00:00	31000	10	-46.9		275	17	
2025-10-15T00:00	31050	10	-46.8		274	16	
2025-10-15T00:00	31100	10	-46.7		274	15	
2025-10-15T00:00	31150	9	-46.6		273	15	
2025-10-15T00:00	31200	9	-46.1		270	15	
2025-10-15T00:00	31250	9	-45.7		267	15	
2025-10-15T00:00	31300	9	-45.9		263	15	
2025-10-15T00:00	31350	9	-46.0		259	15	
2025-10-15T00:00	31400	9	-45.8		256	15	
2025-10-15T00:00	31450	9	-45.8		256	16	
2025-10-15T00:00	31500	9	-45.8		258	16	
2025-10-15T00:00	31550	9	-45.9		259	16	
2025-10-15T00:00	31600	9	-45.8		261	16	
2025-10-15T00:00	31650	9	-45.8		262	17	
2025-10-15T00:00	31700	9	-45.6		262	17	
2025-10-15T00:00	31750	9	-45.5		263	17	
2025-10-15T00:00	31800	9	-45.6		262	16	
2025-10-15T00:00	31850	9	-45.4		260	16	
2025-10-15T00:00	31900	8	-44.8		255	15	
2025-10-15T00:00	31950	8	-44.7		252	15	
2025-10-15T00:00	32000	8	-44.5		251	16	
2025-10-15T00:00	32050	8	-44.1		253	16	
2025-10-15T00:00	32100	8	-44.3		257	16	
2025-10-15T00:00	32150	8	-44.4		262	16	
2025-10-15T00:00	32200	8	-44.5		265	16	
2025-10-15T00:00	32250	8	-44.7		266	15	
2025-10-15T00:00	32300	8	-44.8		264	15	
2025-10-15T00:00	32350	8	-44.7		260	15	
2025-10-15T00:00	32400	8	-44.5		256	15	
2025-10-15T00:00	32450	8	-44.2		252	16	
2025-10-15T00:00	32500	8	-43.9		249	16	
2025-10-15T00:00	32550	8	-43.9		248	17	
2025-10-15T00:00	32600	8	-43.7		247	18	
2025-10-15T00:00	32650	8	-43.6		248	19	
2025-10-15T00:00	32700	8	-43.2		249	20	
2025-10-15T00:00	32750	7	-43.3		248	22	
2025-10-15T00:00	32800	7	-43.3		247	22	
2025-10-15T00:00	32850	7	-43.0		244	23	
2025-10-15T00:00	32900	7	-42.7		241	23	
2025-10-15T00:00	32950	7	-42.0		238	24	
2025-10-15T00:00	33000	7	-41.9		236	24	
2025-10-15T00:00	33050	7	-42.1		235	24	
2025-10-15T00:00	33100	7	-42.2		236	25	
2025-10-15T00:00	33150	7	-42.3		239	26	
2025-10-15T00:00	33200	7	-42.6		243	26	
2025-10-15T00:00	33250	7	-42.7		248	27	
2025-10-15T00:00	33300	7	-42.6		253	28	
2025-10-15T00:00	33350	7	-42.4		257	29	
2025-10-15T00:00	33400	7	-42.2		261	30	
2025-10-15T00:00	33450	7	-42.2		266	30	
2025-10-15T00:00	33500	7	-41.4		269	30	
2025-10-15T00:00	33550	7	-40.8		272	30	
2025-10-15T00:00	33600	7	-40.6		272	30	
2025-10-15T00:00	33650	7	-40.4		272	29	
2025-10-15T00:00	33700	6	-40.3		271	28	
2025-10-15T00:00	33750	6	-40.5		270	27	
2025-10-15T00:00	33800	6	-40.6		268	26	
2025-10-15T00:00	33850	6	-40.6		266	24	
2025-10-15T00:00	33900	6	-40.6		264	22	
2025-10-15T00:00	33950	6	-40.7		262	21	
2025-10-15T00:00	34000	6	-40.6		260	21	
2025-10-15T00:00	34050	6	-40.1		259	21	
2025-10-15T00:00	34100	6	-39.7		258	23	
2025-10-15T00:00	34150	6	-39.6		260	24	
2025-10-15T00:00	34200	6	-39.6		262	25	
2025-10-15T00:00	34250	6	-39.7		265	25	
2025-10-15T00:00	34300	6	-39.5		268	25	
2025-10-15T00:00	34350	6	-39.5		269	26	
2025-10-15T00:00	34400	6	-39.4		269	27	
2025-10-15T00:00	34450	6	-38.9		269	27	
2025-10-15T00:00	34500	6	-38.4		270	27	
2025-10-15T00:00	34550	6	-37.8		273	28	
2025-10-15T00:00	34600	6	-37.5		275	28	
2025-10-15T00:00	34650	6	-37.4		278	27	
2025-10-15T00:00	34700	6	-37.2		279	26	
2025-10-15T00:00	34750	6	-36.9		279	25	
2025-10-15T00:00	34800	6	-36.6		279	23	
2025-10-15T00:00	34850	5	-36.7		279	22	
2025-10-15T00:00	34900	5	-36.8		279	21	
2025-10-15T00:00	34950	5	-36.8		278	20	
2025-10-15T00:00	35000	5	-36.2		276	21	
2025-10-15T00:00	35050	5	-35.8		274	22	
2025-10-15T00:00	35100	5	-35.4		275	22	
2025-10-15T00:00	35150	5	-34.8		276	22	
2025-10-15T00:00	35200	5	-34.6		276	21	
2025-10-15T00:00	35250	5	-34.2		274	20	
2025-10-15T00:00	35300	5	-33.8		269	19	
2025-10-15T00:00	35350	5	-33.4		263	19	
2025-10-15T00:00	35400	5	-33.2		258	19	
2025-10-15T00:00	35450	5	-33.1		256	20	
2025-10-15T00:00	35500	5	-32.9		255	21	
2025-10-15T00:00	35550	5	-32.4		255	21	
2025-10-15T00:00	35600	5	-32.3		256	21	
2025-10-15T00:00	35650	5	-32.3		258	20	
2025-10-15T00:00	35700	5	-32.2		261	20	
2025-10-15T00:00	35750	5	-32.0		263	20	
2025-10-15T00:00	35800	5	-31.4		263	20	
2025-10-15T00:00	35850	5	-30.9		260	21	
2025-10-15T00:00	35900	5	-30.5		256	22	
2025-10-15T00:00	35950	5	-30.6		254	23	
2025-10-15T00:00	36000	5	-30.8		252	25	
2025-10-15T00:00	36050	5	-31.1		250	26	
2025-10-15T00:00	36100	5	-31.1		249	27	
2025-10-15T00:00	36150	5	-30.9		250	27	
2025-10-15T00:00	36200	5	-30.7		250	27	
2025-10-15T00:00	36250	4	-30.2		250	28	
2025-10-15T00:00	36300	4	-30.4		250	29	
2025-10-15T00:00	36350	4	-30.7		250	30	
2025-10-15T00:00	36400	4	-31.0		250	31	
2025-10-15T00:00	36450	4	-31.3		252	32	
2025-10-15T00:00	36500	4	-31.2		254	33	
2025-10-15T00:00	36550	4	-30.5		256	34	
2025-10-15T00:00	36600	4	-30.3		258	34	
2025-10-15T00:00	36650	4	-30.2		260	34	
2025-10-15T00:00	36700	4	-30.1		262	34	
2025-10-15T00:00	36750	4	-30.1		264	35	
2025-10-15T00:00	36800	4	-30.1		265	35	
2025-10-15T12:00	491	966	10.2	7.1	39	4	1.7
2025-10-15T12:00	501	964	9.8	6.8	33	3	1.7
2025-10-15T12:00	520	962	9.6	6.6	37	4	1.8
2025-10-15T12:00	540	960	9.3	6.4	40	5	1.8
2025-10-15T12:00	560	957	9.1	6.4	43	5	1.8
2025-10-15T12:00	580	955	9.0	6.4	46	6	1.8
2025-10-15T12:00	600	953	8.8	6.4	46	6	1.8
2025-10-15T12:00	620	951	8.5	6.1	45	6	1.8
2025-10-15T12:00	640	949	8.3	5.7	42	6	1.8
2025-10-15T12:00	660	946	8.1	5.7	38	6	1.8
2025-10-15T12:00	680	944	7.9	5.3	34	5	1.9
2025-10-15T12:00	700	941	7.7	5.2	30	5	1.9
2025-10-15T12:00	720	939	7.5	5.3	28	5	1.9
2025-10-15T12:00	740	937	7.3	5.3	29	5	1.9
2025-10-15T12:00	760	935	7.1	5.2	32	5	1.9
2025-10-15T12:00	780	933	7.0	5.2	34	5	2.0
2025-10-15T12:00	800	930	6.8	5.3	35	5	2.0
2025-10-15T12:00	820	928	6.6	5.2	35	5	2.0
2025-10-15T12:00	840	925	6.4	4.9	33	5	2.0
2025-10-15T12:00	860	923	6.3	4.9	33	4	2.0
2025-10-15T12:00	880	921	6.1	4.7	35	4	2.0
2025-10-15T12:00	900	919	5.9	4.6	38	4	2.0
2025-10-15T12:00	920	917	5.7	4.7	44	4	2.0
2025-10-15T12:00	940	914	5.5	4.6	50	4	2.0
2025-10-15T12:00	960	912	5.3	4.5	55	4	2.0
2025-10-15T12:00	980	910	5.1	4.5	57	4	2.0
2025-10-15T12:00	1000	908	4.9	4.4	58	4	2.0
2025-10-15T12:00	1020	905	4.7	4.3	58	4	2.0
2025-10-15T12:00	1040	903	4.5	4.4	59	4	2.0
2025-10-15T12:00	1060	901	4.4	4.4	59	4	2.0
2025-10-15T12:00	1080	899	4.3	4.3	60	4	2.0
2025-10-15T12:00	1100	897	4.2	4.2	62	5	2.0
2025-10-15T12:00	1120	895	4.1	4.1	63	5	2.0
2025-10-15T12:00	1140	892	4.0	4.0	64	5	2.0
2025-10-15T12:00	1160	890	3.8	3.8	64	6	2.0
2025-10-15T12:00	1180	888	3.7	3.7	65	6	2.0
2025-10-15T12:00	1200	886	3.6	3.6	66	6	2.0
2025-10-15T12:00	1220	884	3.5	3.5	67	6	2.0
2025-10-15T12:00	1240	881	3.5	3.5	67	7	2.0
2025-10-15T12:00	1260	879	3.4	3.4	67	7	2.0
2025-10-15T12:00	1280	877	3.2	3.2	66	7	2.0
2025-10-15T12:00	1300	875	3.1	3.1	65	8	1.9
2025-10-15T12:00	1320	873	3.0	3.0	64	8	1.9
2025-10-15T12:00	1340	871	2.8	2.8	63	9	2.0
2025-10-15T12:00	1360	869	2.9	2.2	63	10	2.0
2025-10-15T12:00	1380	866	3.5	0.8	63	11	2.2
2025-10-15T12:00	1400	864	4.0	0.2	63	11	2.5
2025-10-15T12:00	1420	862	5.1	-0.5	62	11	2.8
2025-10-15T12:00	1440	860	6.2	-1.8	61	11	3.0
2025-10-15T12:00	1460	858	7.6	-2.5	60	11	3.2
2025-10-15T12:00	1480	856	9.1	-3.6	60	10	3.4
2025-10-15T12:00	1500	854	9.4	-3.8	61	10	3.6
2025-10-15T12:00	1520	852	9.4	-4.2	64	10	3.7
2025-10-15T12:00	1540	850	9.4	-4.4	65	10	3.8
2025-10-15T12:00	1560	848	9.2	-4.4	67	10	3.9
2025-10-15T12:00	1580	846	9.2	-4.7	68	11	3.9
2025-10-15T12:00	1600	844	9.0	-4.3	69	11	3.9
2025-10-15T12:00	1620	842	8.9	-3.6	70	12	4.0
2025-10-15T12:00	1640	839	8.8	-3.3	71	12	4.0
2025-10-15T12:00	1660	837	8.7	-3.2	72	12	3.9
2025-10-15T12:00	1680	835	8.6	-3.4	73	11	3.9
2025-10-15T12:00	1700	833	8.6	-3.7	74	11	3.8
2025-10-15T12:00	1720	831	8.5	-3.5	74	11	3.8
2025-10-15T12:00	1740	829	8.4	-4.1	74	11	3.7
2025-10-15T12:00	1760	827	8.4	-5.6	72	11	3.7
2025-10-15T12:00	1780	825	8.3	-4.6	70	12	3.8
2025-10-15T12:00	1800	823	8.2	-4.2	69	12	3.8
2025-10-15T12:00	1820	821	8.1	-4.3	68	13	3.8
2025-10-15T12:00	1840	819	8.0	-4.5	69	12	3.7
2025-10-15T12:00	1860	817	7.9	-5.1	72	12	3.7
2025-10-15T12:00	1880	815	7.8	-6.2	74	11	3.8
2025-10-15T12:00	1900	813	7.7	-6.8	76	10	3.8
2025-10-15T12:00	1920	811	7.7	-7.8	76	9	3.9
2025-10-15T12:00	1940	810	7.6	-8.5	73	8	4.0
2025-10-15T12:00	1960	808	7.6	-8.3	67	7	4.0
2025-10-15T12:00	1980	806	7.4	-7.5	58	6	4.1
2025-10-15T12:00	2000	804	7.3	-7.3	52	6	4.1
2025-10-15T12:00	2020	801	7.4	-8.1	49	5	4.1
2025-10-15T12:00	2040	800	7.5	-8.2	51	5	4.0
2025-10-15T12:00	2060	798	7.5	-8.1	59	5	4.0
2025-10-15T12:00	2080	796	7.4	-8.1	68	5	4.1
2025-10-15T12:00	2100	794	7.3	-8.1	74	6	4.1
2025-10-15T12:00	2120	792	7.2	-7.8	78	7	4.1
2025-10-15T12:00	2140	790	7.0	-7.7	81	7	4.1
2025-10-15T12:00	2160	788	6.9	-7.7	84	8	4.2
2025-10-15T12:00	2180	786	6.7	-7.7	84	8	4.1
2025-10-15T12:00	2200	784	6.6	-9.0	84	8	4.1
2025-10-15T12:00	2220	782	6.6	-10.5	81	8	4.1
2025-10-15T12:00	2240	781	6.4	-9.5	76	8	4.1
2025-10-15T12:00	2260	779	6.3	-9.2	70	8	4.2
2025-10-15T12:00	2280	777	6.1	-9.6	65	8	4.2
2025-10-15T12:00	2300	775	5.9	-9.8	61	8	4.2
2025-10-15T12:00	2320	773	5.7	-9.8	59	9	4.2
2025-10-15T12:00	2340	771	5.5	-9.4	59	9	4.2
2025-10-15T12:00	2360	769	5.3	-9.1	60	8	4.2
2025-10-15T12:00	2380	767	5.2	-9.0	61	8	4.2
2025-10-15T12:00	2400	765	5.1	-8.7	61	8	4.2
2025-10-15T12:00	2420	763	4.9	-8.9	62	7	4.2
2025-10-15T12:00	2440	762	4.8	-9.4	64	7	4.2
2025-10-15T12:00	2460	760	4.7	-9.5	67	6	4.2
2025-10-15T12:00	2480	758	4.6	-10.4	68	6	4.2
2025-10-15T12:00	2500	756	4.4	-10.7	68	6	4.1
2025-10-15T12:00	2520	754	4.3	-10.8	66	6	4.1
2025-10-15T12:00	2540	752	4.0	-10.8	63	6	4.1
2025-10-15T12:00	2560	750	4.0	-11.1	61	6	4.1
2025-10-15T12:00	2580	749	4.0	-11.6	59	5	4.1
2025-10-15T12:00	2600	747	3.9	-12.1	58	5	4.1
2025-10-15T12:00	2620	745	3.9	-12.4	60	5	4.1
2025-10-15T12:00	2640	743	3.9	-12.3	64	5	4.1
2025-10-15T12:00	2660	741	3.8	-11.0	68	5	4.1
2025-10-15T12:00	2680	739	3.7	-10.0	73	5	4.2
2025-10-15T12:00	2700	738	3.6	-9.6	77	5	4.2
2025-10-15T12:00	2720	736	3.5	-9.9	77	6	4.1
2025-10-15T12:00	2740	734	3.3	-10.1	77	6	4.1
2025-10-15T12:00	2760	732	3.2	-10.6	76	7	4.1
2025-10-15T12:00	2780	730	3.1	-11.3	75	7	4.1
2025-10-15T12:00	2800	729	3.0	-11.7	75	7	4.0
2025-10-15T12:00	2820	727	2.9	-12.4	77	6	4.0
2025-10-15T12:00	2840	725	2.8	-12.6	80	6	4.0
2025-10-15T12:00	2860	723	2.7	-12.9	82	5	4.1
2025-10-15T12:00	2880	721	2.5	-13.1	86	5	4.1
2025-10-15T12:00	2900	720	2.4	-13.4	88	5	4.0
2025-10-15T12:00	2920	718	2.2	-13.4	90	5	4.0
2025-10-15T12:00	2940	716	2.1	-13.5	91	4	4.0
2025-10-15T12:00	2960	714	1.9	-13.6	92	4	4.0
2025-10-15T12:00	2980	712	1.7	-13.6	92	4	4.0
2025-10-15T12:00	3000	711	1.5	-13.6	92	4	4.0
2025-10-15T12:00	3020	709	1.4	-13.7	89	4	4.0
2025-10-15T12:00	3040	707	1.2	-13.6	86	4	4.0
2025-10-15T12:00	3060	705	0.9	-13.6	84	4	3.9
2025-10-15T12:00	3080	704	0.8	-13.8	83	4	3.9
2025-10-15T12:00	3100	702	0.6	-13.8	84	5	3.9
2025-10-15T12:00	3120	700	0.4	-13.7	85	5	3.9
2025-10-15T12:00	3140	698	0.2	-13.8	87	5	3.9
2025-10-15T12:00	3160	697	0.1	-13.8	87	5	3.9
2025-10-15T12:00	3180	695	-0.2	-13.7	82	5	3.8
2025-10-15T12:00	3200	693	-0.3	-13.7	77	5	3.8
2025-10-15T12:00	3220	692	-0.5	-13.7	71	5	3.8
2025-10-15T12:00	3240	690	-0.8	-13.8	67	6	3.8
2025-10-15T12:00	3260	688	-1.0	-13.8	64	6	3.8
2025-10-15T12:00	3280	686	-1.2	-13.9	64	6	3.8
2025-10-15T12:00	3300	685	-1.3	-14.2	64	7	3.8
2025-10-15T12:00	3320	683	-1.3	-15.0	64	7	3.7
2025-10-15T12:00	3340	681	-1.4	-15.8	65	7	3.7
2025-10-15T12:00	3360	679	-1.2	-17.6	64	8	3.8
2025-10-15T12:00	3380	678	-1.2	-18.6	62	8	3.8
2025-10-15T12:00	3400	676	-1.3	-19.3	60	8	3.8
2025-10-15T12:00	3420	674	-1.3	-20.1	57	9	3.9
2025-10-15T12:00	3440	673	-1.4	-20.9	56	9	4.0
2025-10-15T12:00	3460	671	-1.4	-21.5	55	8	4.0
2025-10-15T12:00	3480	669	-1.4	-22.3	53	8	4.0
2025-10-15T12:00	3500	668	-1.5	-22.4	51	8	4.0
2025-10-15T12:00	3520	666	-1.7	-21.7	50	8	4.0
2025-10-15T12:00	3540	664	-1.8	-21.3	49	8	4.0
2025-10-15T12:00	3560	662	-2.0	-21.2	49	8	4.0
2025-10-15T12:00	3580	661	-2.3	-21.0	50	8	4.0
2025-10-15T12:00	3600	659	-2.4	-21.1	52	8	3.9
2025-10-15T12:00	3620	658	-2.6	-20.9	54	8	3.9
2025-10-15T12:00	3640	656	-2.8	-20.9	56	7	3.9
2025-10-15T12:00	3660	654	-2.9	-21.2	56	7	3.9
2025-10-15T12:00	3680	653	-3.1	-22.1	55	7	3.9
2025-10-15T12:00	3700	651	-3.1	-21.9	53	7	3.9
2025-10-15T12:00	3720	649	-3.3	-22.2	53	7	3.9
2025-10-15T12:00	3740	648	-3.5	-22.8	54	8	3.8
2025-10-15T12:00	3760	646	-3.7	-23.2	55	8	3.8
2025-10-15T12:00	3780	644	-3.8	-23.8	56	8	3.8
2025-10-15T12:00	3800	643	-3.9	-24.2	57	8	3.9
2025-10-15T12:00	3820	641	-4.0	-24.8	57	7	3.9
2025-10-15T12:00	3840	639	-4.1	-26.2	55	7	3.8
2025-10-15T12:00	3860	638	-4.1	-27.4	52	7	3.8
2025-10-15T12:00	3880	636	-4.3	-26.4	48	7	3.9
2025-10-15T12:00	3900	635	-4.4	-27.9	42	7	3.9
2025-10-15T12:00	3920	633	-4.4	-29.5	37	7	3.9
2025-10-15T12:00	3940	631	-4.6	-27.5	32	7	3.9
2025-10-15T12:00	3960	630	-4.7	-25.8	29	8	3.9
2025-10-15T12:00	3980	628	-4.8	-24.1	29	8	3.9
2025-10-15T12:00	4000	627	-4.8	-24.6	30	8	3.8
2025-10-15T12:00	4020	625	-4.9	-24.5	32	8	3.8
2025-10-15T12:00	4040	623	-5.0	-24.8	34	8	3.8
2025-10-15T12:00	4060	622	-5.1	-25.3	36	8	3.8
2025-10-15T12:00	4080	620	-5.2	-25.5	38	7	3.7
2025-10-15T12:00	4100	619	-5.3	-24.8	40	7	3.7
2025-10-15T12:00	4120	617	-5.5	-25.2	43	7	3.7
2025-10-15T12:00	4140	616	-5.6	-27.1	44	7	3.6
2025-10-15T12:00	4160	614	-5.6	-28.3	46	7	3.6
2025-10-15T12:00	4180	612	-5.7	-30.0	47	7	3.6
2025-10-15T12:00	4200	611	-5.9	-29.8	47	7	3.5
2025-10-15T12:00	4220	609	-6.1	-29.6	46	7	3.5
2025-10-15T12:00	4240	608	-6.2	-29.1	44	7	3.4
2025-10-15T12:00	4260	606	-6.4	-27.5	40	7	3.4
2025-10-15T12:00	4280	605	-6.6	-25.9	38	8	3.4
2025-10-15T12:00	4300	603	-6.9	-24.7	35	8	3.3
2025-10-15T12:00	4320	602	-7.0	-24.5	33	8	3.3
2025-10-15T12:00	4340	600	-7.2	-24.0	32	8	3.3
2025-10-15T12:00	4360	598	-7.4	-23.6	32	8	3.3
2025-10-15T12:00	4380	597	-7.6	-23.6	33	8	3.3
2025-10-15T12:00	4400	595	-7.6	-23.5	34	7	3.3
2025-10-15T12:00	4420	594	-7.8	-22.5	35	7	3.2
2025-10-15T12:00	4440	593	-7.9	-22.4	36	7	3.2
2025-10-15T12:00	4460	591	-8.2	-22.5	36	7	3.2
2025-10-15T12:00	4480	589	-8.4	-23.2	35	7	3.2
2025-10-15T12:00	4500	588	-8.5	-23.0	35	7	3.2
2025-10-15T12:00	4520	586	-8.7	-22.9	36	6	3.2
2025-10-15T12:00	4540	585	-8.8	-22.7	36	6	3.2
2025-10-15T12:00	4560	583	-9.0	-22.8	37	6	3.2
2025-10-15T12:00	4580	582	-9.3	-23.0	36	6	3.2
2025-10-15T12:00	4600	580	-9.4	-23.1	35	6	3.2
2025-10-15T12:00	4620	579	-9.6	-23.2	33	6	3.1
2025-10-15T12:00	4640	577	-9.8	-23.3	31	6	3.1
2025-10-15T12:00	4660	576	-10.0	-23.4	27	7	3.1
2025-10-15T12:00	4680	574	-10.2	-23.7	23	7	3.1
2025-10-15T12:00	4700	573	-10.3	-23.9	20	7	3.1
2025-10-15T12:00	4720	571	-10.5	-24.0	18	7	3.1
2025-10-15T12:00	4740	570	-10.8	-24.0	16	6	3.1
2025-10-15T12:00	4760	568	-10.9	-24.0	15	6	3.1
2025-10-15T12:00	4780	567	-11.1	-24.1	15	6	3.1
2025-10-15T12:00	4800	565	-11.2	-24.2	15	6	3.1
2025-10-15T12:00	4820	564	-11.3	-24.6	17	6	3.1
2025-10-15T12:00	4840	562	-11.6	-24.5	20	5	3.1
2025-10-15T12:00	4860	561	-11.8	-24.5	23	5	3.0
2025-10-15T12:00	4880	559	-12.0	-24.1	26	5	3.0
2025-10-15T12:00	4900	558	-12.2	-24.3	29	5	3.0
2025-10-15T12:00	4920	557	-12.3	-24.6	31	5	3.0
2025-10-15T12:00	4940	555	-12.4	-24.9	32	6	3.1
2025-10-15T12:00	4960	554	-12.6	-25.3	32	6	3.0
2025-10-15T12:00	4980	552	-12.8	-26.4	30	6	3.1
2025-10-15T12:00	5000	551	-12.8	-28.7	28	7	3.1
2025-10-15T12:00	5020	549	-12.8	-30.4	28	7	3.2
2025-10-15T12:00	5040	548	-12.9	-31.5	28	7	3.3
2025-10-15T12:00	5060	546	-12.9	-32.3	29	7	3.4
2025-10-15T12:00	5080	545	-13.0	-32.9	33	7	3.5
2025-10-15T12:00	5100	543	-12.8	-35.0	36	7	3.6
2025-10-15T12:00	5120	542	-12.7	-38.8	40	7	3.7
2025-10-15T12:00	5140	541	-12.6	-41.2	44	7	3.8
2025-10-15T12:00	5160	539	-12.5	-43.3	49	7	4.0
2025-10-15T12:00	5180	538	-12.3	-43.5	52	7	4.2
2025-10-15T12:00	5200	537	-12.4	-43.0	53	7	4.3
2025-10-15T12:00	5220	535	-12.5	-42.7	55	7	4.4
2025-10-15T12:00	5240	534	-12.7	-42.7	55	7	4.4
2025-10-15T12:00	5260	532	-12.9	-42.4	54	7	4.4
2025-10-15T12:00	5280	531	-13.1	-42.2	52	7	4.3
2025-10-15T12:00	5300	529	-13.2	-41.8	51	7	4.2
2025-10-15T12:00	5320	528	-13.3	-42.3	52	7	4.1
2025-10-15T12:00	5340	527	-13.3	-42.8	54	7	4.0
2025-10-15T12:00	5360	525	-13.4	-43.0	56	7	3.9
2025-10-15T12:00	5380	524	-13.4	-43.6	57	7	3.8
2025-10-15T12:00	5400	523	-13.5	-43.9	56	7	3.7
2025-10-15T12:00	5420	521	-13.6	-43.9	56	7	3.7
2025-10-15T12:00	5440	520	-13.7	-43.7	55	7	3.6
2025-10-15T12:00	5460	518	-13.9	-43.5	54	7	3.6
2025-10-15T12:00	5480	517	-13.9	-43.4	55	8	3.6
2025-10-15T12:00	5500	516	-13.9	-43.5	56	8	3.5
2025-10-15T12:00	5520	514	-14.1	-43.5	57	8	3.5
2025-10-15T12:00	5540	513	-14.2	-43.6	57	9	3.4
2025-10-15T12:00	5560	512	-14.3	-43.7	57	9	3.3
2025-10-15T12:00	5580	510	-14.4	-44.1	56	10	3.3
2025-10-15T12:00	5600	509	-14.4	-44.0	56	10	3.3
2025-10-15T12:00	5620	508	-14.4	-43.6	55	10	3.3
2025-10-15T12:00	5640	506	-14.5	-43.0	55	10	3.3
2025-10-15T12:00	5660	505	-14.7	-42.9	54	10	3.3
2025-10-15T12:00	5680	504	-14.9	-42.8	53	10	3.3
2025-10-15T12:00	5700	502	-15.0	-42.9	52	10	3.3
2025-10-15T12:00	5720	501	-15.1	-42.9	50	10	3.3
2025-10-15T12:00	5740	500	-15.4	-43.0	50	9	3.3
2025-10-15T12:00	5760	498	-15.6	-43.2	50	9	3.3
2025-10-15T12:00	5780	497	-15.7	-43.4	51	8	3.3
2025-10-15T12:00	5800	496	-15.8	-43.2	52	8	3.3
2025-10-15T12:00	5820	494	-16.0	-43.0	53	8	3.3
2025-10-15T12:00	5840	493	-16.2	-43.1	53	8	3.3
2025-10-15T12:00	5860	492	-16.4	-42.4	53	8	3.3
2025-10-15T12:00	5880	491	-16.5	-41.2	53	8	3.3
2025-10-15T12:00	5900	489	-16.7	-39.0	54	8	3.3
2025-10-15T12:00	5920	488	-16.9	-37.1	55	8	3.2
2025-10-15T12:00	5940	487	-17.0	-36.8	56	8	3.1
2025-10-15T12:00	5960	485	-17.2	-36.4	57	8	3.1
2025-10-15T12:00	5980	484	-17.4	-36.1	59	8	3.0
2025-10-15T12:00	6000	483	-17.7	-36.0	59	9	3.0
2025-10-15T12:00	6020	481	-17.9	-35.9	59	9	2.9
2025-10-15T12:00	6040	480	-18.1	-35.6	59	9	2.9
2025-10-15T12:00	6060	479	-18.3	-35.5	58	9	2.9
2025-10-15T12:00	6080	478	-18.5	-35.3	57	9	2.8
2025-10-15T12:00	6100	476	-18.7	-35.2	56	9	2.8
2025-10-15T12:00	6120	475	-18.9	-35.4	55	9	2.8
2025-10-15T12:00	6140	474	-19.0	-35.5	55	9	2.8
2025-10-15T12:00	6160	472	-19.2	-35.6	55	10	2.8
2025-10-15T12:00	6180	471	-19.3	-35.5	55	9	2.8
2025-10-15T12:00	6200	470	-19.5	-35.1	54	9	2.8
2025-10-15T12:00	6220	469	-19.8	-35.0	53	9	2.8
2025-10-15T12:00	6240	467	-19.9	-35.0	52	9	2.8
2025-10-15T12:00	6260	466	-20.1	-35.4	51	9	2.7
2025-10-15T12:00	6280	465	-20.3	-36.1	51	9	2.7
2025-10-15T12:00	6300	464	-20.5	-36.5	51	9	2.7
2025-10-15T12:00	6320	462	-20.6	-37.2	51	9	2.7
2025-10-15T12:00	6340	461	-20.8	-37.3	51	10	2.7
2025-10-15T12:00	6360	460	-20.9	-37.2	50	10	2.7
2025-10-15T12:00	6380	459	-21.1	-37.1	49	10	2.7
2025-10-15T12:00	6400	457	-21.4	-37.0	49	10	2.7
2025-10-15T12:00	6420	456	-21.5	-36.1	48	10	2.7
2025-10-15T12:00	6440	455	-21.8	-34.9	49	10	2.7
2025-10-15T12:00	6460	454	-22.0	-34.9	51	11	2.7
2025-10-15T12:00	6480	452	-22.2	-35.1	52	11	2.8
2025-10-15T12:00	6500	451	-22.3	-36.4	54	11	2.8
2025-10-15T12:00	6520	450	-22.5	-37.9	54	11	2.8
2025-10-15T12:00	6540	449	-22.6	-36.9	55	11	2.8
2025-10-15T12:00	6560	447	-22.8	-36.6	55	11	2.7
2025-10-15T12:00	6580	446	-23.0	-36.4	56	11	2.7
2025-10-15T12:00	6600	445	-23.3	-36.3	57	11	2.8
2025-10-15T12:00	6620	444	-23.4	-35.5	58	10	2.7
2025-10-15T12:00	6640	443	-23.5	-34.6	60	10	2.7
2025-10-15T12:00	6660	441	-23.6	-34.9	60	10	2.8
2025-10-15T12:00	6680	440	-23.7	-35.8	60	10	2.8
2025-10-15T12:00	6700	439	-23.9	-35.9	59	10	2.8
2025-10-15T12:00	6720	438	-24.0	-36.4	58	10	2.8
2025-10-15T12:00	6740	437	-24.2	-36.5	57	10	2.8
2025-10-15T12:00	6760	435	-24.4	-36.8	57	9	2.8
2025-10-15T12:00	6780	434	-24.5	-36.9	58	9	2.8
2025-10-15T12:00	6800	433	-24.6	-37.0	59	9	2.8
2025-10-15T12:00	6820	432	-24.8	-36.9	59	9	2.8
2025-10-15T12:00	6840	431	-25.0	-36.5	60	9	2.8
2025-10-15T12:00	6860	429	-25.1	-36.8	59	9	2.8
2025-10-15T12:00	6880	428	-25.3	-36.6	59	9	2.9
2025-10-15T12:00	6900	427	-25.5	-36.2	58	9	2.9
2025-10-15T12:00	6920	426	-25.6	-36.1	59	10	2.9
2025-10-15T12:00	6940	425	-25.7	-36.1	59	10	2.9
2025-10-15T12:00	6960	424	-25.9	-36.2	60	11	2.9
2025-10-15T12:00	6980	422	-26.1	-36.4	60	11	2.9
2025-10-15T12:00	7000	421	-26.4	-36.6	60	11	2.9
2025-10-15T12:00	7020	420	-26.5	-37.0	60	11	2.9
2025-10-15T12:00	7040	419	-26.6	-37.0	59	11	2.9
2025-10-15T12:00	7060	418	-26.8	-37.1	59	11	2.9
2025-10-15T12:00	7080	417	-27.0	-37.2	59	11	2.9
2025-10-15T12:00	7100	416	-27.1	-37.5	60	11	2.9
2025-10-15T12:00	7120	414	-27.2	-37.6	61	11	2.9
2025-10-15T12:00	7140	413	-27.4	-37.4	62	11	2.9
2025-10-15T12:00	7160	412	-27.5	-37.8	63	11	2.9
2025-10-15T12:00	7180	411	-27.8	-37.9	64	11	2.9
2025-10-15T12:00	7200	410	-28.0	-38.2	64	11	2.9
2025-10-15T12:00	7220	409	-28.1	-38.8	63	11	2.8
2025-10-15T12:00	7240	407	-28.2	-38.5	62	11	2.8
2025-10-15T12:00	7260	406	-28.3	-38.3	61	11	2.8
2025-10-15T12:00	7280	405	-28.5	-38.7	60	11	2.8
2025-10-15T12:00	7300	404	-28.8	-38.8	59	12	2.8
2025-10-15T12:00	7320	403	-29.0	-38.7	58	12	2.8
2025-10-15T12:00	7340	402	-29.1	-38.9	58	12	2.8
2025-10-15T12:00	7360	401	-29.2	-38.7	57	12	2.8
2025-10-15T12:00	7380	400	-29.5	-38.7	57	12	2.8
2025-10-15T12:00	7400	399	-29.6	-38.8	57	12	2.8
2025-10-15T12:00	7420	397	-29.7	-39.0	57	12	2.8
2025-10-15T12:00	7440	396	-29.8	-39.3	57	12	2.8
2025-10-15T12:00	7460	395	-30.1	-39.3	56	12	2.8
2025-10-15T12:00	7480	394	-30.2	-39.6	54	12	2.8
2025-10-15T12:00	7500	393	-30.4	-39.9	53	12	2.7
2025-10-15T12:00	7520	392	-30.5	-39.8	51	12	2.7
2025-10-15T12:00	7540	391	-30.7	-39.7	50	12	2.7
2025-10-15T12:00	7560	390	-30.8	-40.1	49	12	2.7
2025-10-15T12:00	7580	388	-30.9	-40.7	48	12	2.7
2025-10-15T12:00	7600	387	-31.1	-41.2	48	11	2.6
2025-10-15T12:00	7620	386	-31.3	-41.6	48	11	2.6
2025-10-15T12:00	7640	385	-31.3	-42.3	48	11	2.5
2025-10-15T12:00	7660	384	-31.5	-42.7	49	10	2.5
2025-10-15T12:00	7680	383	-31.7	-43.0	50	10	2.5
2025-10-15T12:00	7700	382	-31.7	-43.5	50	10	2.4
2025-10-15T12:00	7720	381	-31.9	-43.8	50	9	2.4
2025-10-15T12:00	7740	380	-32.0	-44.1	50	9	2.4
2025-10-15T12:00	7760	379	-32.1	-44.2	50	9	2.4
2025-10-15T12:00	7780	378	-32.2	-44.3	50	9	2.4
2025-10-15T12:00	7800	377	-32.3	-45.2	50	10	2.3
2025-10-15T12:00	7820	376	-32.3	-45.7	51	9	2.3
2025-10-15T12:00	7840	374	-32.4	-46.2	51	9	2.3
2025-10-15T12:00	7860	373	-32.5	-46.3	52	9	2.2
2025-10-15T12:00	7880	372	-32.6	-46.0	53	9	2.2
2025-10-15T12:00	7900	371	-32.7	-46.5	55	9	2.2
2025-10-15T12:00	7920	370	-32.8	-47.1	56	9	2.2
2025-10-15T12:00	7940	369	-32.9	-47.0	57	9	2.2
2025-10-15T12:00	7960	368	-33.0	-47.1	57	9	2.2
2025-10-15T12:00	7980	367	-33.2	-46.8	58	9	2.3
2025-10-15T12:00	8000	366	-33.3	-46.6	58	9	2.3
2025-10-15T12:00	8020	365	-33.5	-46.6	58	9	2.3
2025-10-15T12:00	8040	364	-33.6	-46.0	59	9	2.3
2025-10-15T12:00	8060	363	-33.7	-45.7	61	9	2.3
2025-10-15T12:00	8080	362	-33.7	-46.7	62	9	2.3
2025-10-15T12:00	8100	361	-33.9	-47.5	63	9	2.4
2025-10-15T12:00	8120	360	-34.1	-46.8	62	9	2.4
2025-10-15T12:00	8140	359	-34.2	-46.7	61	9	2.4
2025-10-15T12:00	8160	358	-34.2	-47.6	60	9	2.4
2025-10-15T12:00	8180	357	-34.4	-47.5	59	9	2.4
2025-10-15T12:00	8200	356	-34.6	-47.5	60	9	2.4
2025-10-15T12:00	8220	355	-34.7	-47.8	60	9	2.4
2025-10-15T12:00	8240	354	-34.8	-48.6	61	9	2.4
2025-10-15T12:00	8260	353	-35.0	-48.4	62	9	2.4
2025-10-15T12:00	8280	352	-35.2	-48.4	62	9	2.4
2025-10-15T12:00	8300	351	-35.3	-48.6	63	9	2.4
2025-10-15T12:00	8320	350	-35.3	-48.5	65	9	2.4
2025-10-15T12:00	8340	349	-35.4	-48.5	66	9	2.5
2025-10-15T12:00	8360	348	-35.4	-49.1	67	9	2.5
2025-10-15T12:00	8380	347	-35.4	-49.5	68	9	2.6
2025-10-15T12:00	8400	346	-35.5	-49.4	68	9	2.7
2025-10-15T12:00	8420	345	-35.7	-48.8	68	9	2.7
2025-10-15T12:00	8440	344	-35.8	-48.8	69	9	2.7
2025-10-15T12:00	8460	343	-36.0	-48.5	69	10	2.7
2025-10-15T12:00	8480	342	-36.2	-48.3	69	10	2.7
2025-10-15T12:00	8500	341	-36.3	-48.7	69	10	2.6
2025-10-15T12:00	8520	340	-36.2	-49.2	68	10	2.5
2025-10-15T12:00	8540	339	-36.3	-49.5	67	10	2.4
2025-10-15T12:00	8560	338	-36.5	-49.7	65	11	2.4
2025-10-15T12:00	8580	337	-36.5	-50.2	64	11	2.3
2025-10-15T12:00	8600	336	-36.6	-50.2	62	11	2.3
2025-10-15T12:00	8620	335	-36.9	-50.1	61	11	2.3
2025-10-15T12:00	8640	334	-37.1	-50.2	59	12	2.2
2025-10-15T12:00	8660	333	-37.2	-49.8	59	12	2.2
2025-10-15T12:00	8680	332	-37.3	-49.6	58	12	2.2
2025-10-15T12:00	8700	331	-37.4	-50.0	58	12	2.2
2025-10-15T12:00	8720	330	-37.6	-50.1	57	12	2.2
2025-10-15T12:00	8740	329	-37.8	-50.2	57	12	2.2
2025-10-15T12:00	8760	328	-38.0	-49.9	57	12	2.2
2025-10-15T12:00	8780	327	-38.2	-49.8	57	12	2.2
2025-10-15T12:00	8800	326	-38.3	-50.5	58	12	2.2
2025-10-15T12:00	8820	325	-38.5	-50.5	58	12	2.2
2025-10-15T12:00	8840	324	-38.7	-50.3	59	12	2.2
2025-10-15T12:00	8860	323	-38.9	-50.4	60	12	2.2
2025-10-15T12:00	8880	322	-39.1	-50.4	61	12	2.2
2025-10-15T12:00	8900	321	-39.2	-50.5	61	12	2.2
2025-10-15T12:00	8920	321	-39.5	-50.2	61	11	2.2
2025-10-15T12:00	8940	320	-39.6	-50.6	61	11	2.2
2025-10-15T12:00	8960	319	-39.8	-50.5	61	11	2.2
2025-10-15T12:00	8980	318	-40.1	-50.4	61	11	2.2
2025-10-15T12:00	9000	317	-40.3	-50.3	61	12	2.2
2025-10-15T12:00	9020	316	-40.4	-50.5	61	12	2.2
2025-10-15T12:00	9040	315	-40.6	-50.2	61	12	2.1
2025-10-15T12:00	9060	314	-40.8	-50.3	61	12	2.1
2025-10-15T12:00	9080	313	-40.8	-50.4	60	13	2.1
2025-10-15T12:00	9100	312	-41.2	-50.0	60	13	2.1
2025-10-15T12:00	9120	311	-41.3	-50.2	60	13	2.1
2025-10-15T12:00	9140	310	-41.5	-50.5	59	13	2.1
2025-10-15T12:00	9160	309	-41.7	-50.4	58	13	2.1
2025-10-15T12:00	9180	309	-41.9	-50.3	57	13	2.1
2025-10-15T12:00	9200	308	-42.1	-50.2	56	13	2.1
2025-10-15T12:00	9220	307	-42.3	-50.3	56	13	2.1
2025-10-15T12:00	9240	306	-42.4	-50.5	56	13	2.1
2025-10-15T12:00	9260	305	-42.6	-50.6	56	13	2.1
2025-10-15T12:00	9280	304	-42.7	-50.3	56	13	2.1
2025-10-15T12:00	9300	303	-42.9	-50.6	56	13	2.1
2025-10-15T12:00	9320	302	-42.9	-50.4	56	14	2.1
2025-10-15T12:00	9340	301	-43.1	-50.2	55	14	2.1
2025-10-15T12:00	9360	300	-43.3	-49.8	55	14	2.1
2025-10-15T12:00	9380	300	-43.5	-49.4	54	14	2.1
2025-10-15T12:00	9400	299	-43.6	-49.6	54	14	2.1
2025-10-15T12:00	9420	298	-43.8	-49.7	54	14	2.1
2025-10-15T12:00	9440	297	-43.9	-49.7	54	14	2.0
2025-10-15T12:00	9460	296	-44.0	-50.4	54	14	2.0
2025-10-15T12:00	9480	295	-44.1	-50.6	55	13	2.0
2025-10-15T12:00	9500	294	-44.3	-51.2	56	13	2.0
2025-10-15T12:00	9520	293	-44.4	-53.0	57	13	2.0
2025-10-15T12:00	9540	292	-44.4	-53.1	58	13	2.0
2025-10-15T12:00	9560	292	-44.5	-53.2	60	13	2.1
2025-10-15T12:00	9580	291	-44.6	-53.2	61	13	2.1
2025-10-15T12:00	9600	290	-44.8	-53.4	63	13	2.1
2025-10-15T12:00	9620	289	-44.8	-54.0	64	13	2.1
2025-10-15T12:00	9640	288	-44.9	-55.0	64	13	2.1
2025-10-15T12:00	9660	287	-45.0	-55.5	64	12	2.1
2025-10-15T12:00	9680	286	-45.0	-56.6	64	12	2.1
2025-10-15T12:00	9700	286	-45.2	-57.7	63	12	2.1
2025-10-15T12:00	9720	285	-45.3	-58.5	63	12	2.1
2025-10-15T12:00	9740	284	-45.5	-59.0	62	12	2.1
2025-10-15T12:00	9760	283	-45.6	-59.2	62	12	2.1
2025-10-15T12:00	9780	282	-45.8	-59.3	62	12	2.1
2025-10-15T12:00	9800	281	-45.8	-59.5	61	11	2.1
2025-10-15T12:00	9820	280	-46.0	-59.5	61	12	2.1
2025-10-15T12:00	9840	280	-46.1	-59.6	61	11	2.0
2025-10-15T12:00	9860	279	-46.3	-59.6	60	11	2.0
2025-10-15T12:00	9880	278	-46.4	-59.5	60	11	2.0
2025-10-15T12:00	9900	277	-46.6	-59.9	61	11	2.0
2025-10-15T12:00	9920	276	-46.7	-60.1	61	11	2.0
2025-10-15T12:00	9940	275	-46.9	-59.9	62	11	2.0
2025-10-15T12:00	9960	275	-47.0	-60.0	62	11	2.0
2025-10-15T12:00	9980	274	-47.3	-59.6	63	11	2.0
2025-10-15T12:00	10000	273	-47.5	-59.2	63	11	2.0
2025-10-15T12:00	10018	272	-47.7	-59.1	64	11	2.0
2025-10-15T12:00	10050	271	-48.0	-58.9	65	11	2.0
2025-10-15T12:00	10100	269	-48.4	-58.9	66	11	1.9
2025-10-15T12:00	10150	267	-48.9	-58.1	65	10	1.9
2025-10-15T12:00	10200	265	-49.4	-58.4	66	10	1.9
2025-10-15T12:00	10250	263	-49.8	-58.3	68	11	1.9
2025-10-15T12:00	10300	261	-50.2	-57.1	70	11	1.8
2025-10-15T12:00	10350	259	-50.5	-58.3	73	12	1.8
2025-10-15T12:00	10400	257	-50.8	-58.9	74	12	1.8
2025-10-15T12:00	10450	255	-51.1	-60.9	75	12	1.7
2025-10-15T12:00	10500	253	-51.5	-60.3	78	13	1.7
2025-10-15T12:00	10550	251	-51.9	-60.3	79	13	1.7
2025-10-15T12:00	10600	249	-52.3	-60.4	79	12	1.7
2025-10-15T12:00	10650	247	-52.7	-62.0	80	12	1.7
2025-10-15T12:00	10700	245	-53.1	-62.7	82	13	1.6
2025-10-15T12:00	10750	243	-53.4	-62.6	82	13	1.6
2025-10-15T12:00	10800	241	-53.8	-63.0	81	13	1.6
2025-10-15T12:00	10850	240	-54.1	-63.9	82	13	1.6
2025-10-15T12:00	10900	238	-54.4	-63.1	85	13	1.6
2025-10-15T12:00	10950	236	-54.9	-62.9	85	12	1.6
2025-10-15T12:00	11000	234	-55.4	-63.0	85	12	1.6
2025-10-15T12:00	11050	232	-55.8	-63.3	84	13	1.6
2025-10-15T12:00	11100	230	-56.1	-63.9	83	13	1.5
2025-10-15T12:00	11150	229	-56.3	-64.3	82	14	1.5
2025-10-15T12:00	11200	227	-56.7	-64.3	84	14	1.5
2025-10-15T12:00	11250	225	-57.0	-64.3	85	14	1.5
2025-10-15T12:00	11300	223	-57.5	-64.7	83	13	1.4
2025-10-15T12:00	11350	221	-57.9	-65.1	81	13	1.4
2025-10-15T12:00	11400	220	-58.3	-65.2	79	13	1.4
2025-10-15T12:00	11450	218	-58.8	-65.4	78	13	1.4
2025-10-15T12:00	11500	216	-59.1	-66.0	77	12	1.5
2025-10-15T12:00	11550	214	-59.5	-66.2	76	12	1.5
2025-10-15T12:00	11600	213	-59.9	-66.3	73	12	1.4
2025-10-15T12:00	11650	211	-60.3	-66.6	71	12	1.5
2025-10-15T12:00	11700	209	-60.6	-66.7	69	12	1.5
2025-10-15T12:00	11750	208	-60.9	-66.9	68	12	1.5
2025-10-15T12:00	11800	206	-61.1	-66.7	67	12	1.5
2025-10-15T12:00	11850	204	-61.4	-66.7	67	12	1.5
2025-10-15T12:00	11900	203	-61.6	-66.9	68	12	1.5
2025-10-15T12:00	11950	201	-61.7	-67.2	67	11	1.4
2025-10-15T12:00	12000	200	-61.9	-67.4	65	11	1.4
2025-10-15T12:00	12050	198	-62.1	-67.6	63	11	1.5
2025-10-15T12:00	12100	196	-62.5	-68.2	61	11	1.6
2025-10-15T12:00	12150	195	-62.6	-68.1	58	11	1.6
2025-10-15T12:00	12200	193	-62.9	-67.9	53	12	1.6
2025-10-15T12:00	12250	192	-62.9	-68.0	48	13	1.7
2025-10-15T12:00	12300	190	-62.4	-69.0	45	15	1.8
2025-10-15T12:00	12350	188	-61.6	-71.0	46	16	2.0
2025-10-15T12:00	12400	187	-61.1	-72.6	52	16	2.3
2025-10-15T12:00	12450	185	-60.9	-73.1	57	15	2.4
2025-10-15T12:00	12500	184	-60.9	-73.8	60	13	2.5
2025-10-15T12:00	12550	182	-60.7	-74.9	61	11	2.6
2025-10-15T12:00	12600	181	-60.3	-76.0	58	10	2.7
2025-10-15T12:00	12650	180	-60.4	-77.1	51	9	2.8
2025-10-15T12:00	12700	178	-60.6	-78.1	37	9	3.2
2025-10-15T12:00	12750	177	-60.7	-79.2	24	10	3.7
2025-10-15T12:00	12800	175	-60.5	-79.6	17	11	4.2
2025-10-15T12:00	12850	174	-60.2	-79.4	17	12	4.5
2025-10-15T12:00	12900	172	-59.6	-79.1	23	12	4.6
2025-10-15T12:00	12950	171	-59.6	-79.0	30	12	4.5
2025-10-15T12:00	13000	170	-59.7	-79.0	36	12	4.4
2025-10-15T12:00	13050	168	-60.0	-79.0	43	11	4.3
2025-10-15T12:00	13100	167	-59.2	-78.9	47	10	4.1
2025-10-15T12:00	13150	166	-58.7	-79.1	43	8	3.6
2025-10-15T12:00	13200	164	-58.6	-79.8	31	7	3.3
2025-10-15T12:00	13250	163	-58.5	-80.3	14	6	3.5
2025-10-15T12:00	13300	162	-58.5	-80.7	358	7	4.0
2025-10-15T12:00	13350	161	-58.5	-80.8	347	8	4.4
2025-10-15T12:00	13400	159	-58.5	-81.0	345	9	4.6
2025-10-15T12:00	13450	158	-58.8	-81.0	351	10	4.8
2025-10-15T12:00	13500	157	-59.2	-81.0	356	11	4.9
2025-10-15T12:00	13550	156	-59.1	-81.0	0	11	4.8
2025-10-15T12:00	13600	154	-58.9	-81.1	4	10	4.6
2025-10-15T12:00	13650	153	-59.1	-81.4	7	10	4.6
2025-10-15T12:00	13700	152	-59.2	-81.4	11	9	4.6
2025-10-15T12:00	13750	151	-59.5	-81.6	17	9	4.7
2025-10-15T12:00	13800	149	-59.5	-81.8	24	8	4.7
2025-10-15T12:00	13850	148	-59.6	-81.9	26	7	4.8
2025-10-15T12:00	13900	147	-59.8	-82.1	20	6	4.9
2025-10-15T12:00	13950	146	-59.7	-82.3	8	6	5.0
2025-10-15T12:00	14000	145	-59.4	-82.4	357	6	5.3
2025-10-15T12:00	14050	144	-59.5	-82.5	352	6	5.5
2025-10-15T12:00	14100	142	-59.9	-82.5	351	7	5.8
2025-10-15T12:00	14150	141	-60.4	-82.6	352	8	5.9
2025-10-15T12:00	14200	140	-60.6	-82.7	355	8	5.9
2025-10-15T12:00	14250	139	-60.5	-83.0	356	8	6.0
2025-10-15T12:00	14300	138	-59.6	-82.9	355	8	6.1
2025-10-15T12:00	14350	137	-59.4	-82.8	351	9	5.9
2025-10-15T12:00	14400	136	-59.8	-82.8	347	9	5.5
2025-10-15T12:00	14450	135	-60.1	-82.8	345	9	5.0
2025-10-15T12:00	14500	134	-60.2	-82.7	348	9	4.3
2025-10-15T12:00	14550	133	-60.5	-82.8	351	9	3.8
2025-10-15T12:00	14600	131	-60.7	-82.9	352	9	3.5
2025-10-15T12:00	14650	130	-61.0	-83.0	354	8	3.3
2025-10-15T12:00	14700	129	-61.2	-83.1	356	8	3.2
2025-10-15T12:00	14750	128	-61.0	-83.2	359	9	3.1
2025-10-15T12:00	14800	127	-61.3	-83.3	3	10	3.0
2025-10-15T12:00	14850	126	-61.6	-83.4	9	10	3.0
2025-10-15T12:00	14900	125	-61.6	-83.5	13	10	3.0
2025-10-15T12:00	14950	124	-61.3	-83.4	13	10	3.0
2025-10-15T12:00	15000	123	-61.5	-83.5	11	9	3.0
2025-10-15T12:00	15050	122	-61.4	-83.5	10	8	3.0
2025-10-15T12:00	15100	121	-61.4	-83.5	14	8	3.1
2025-10-15T12:00	15150	120	-61.5	-83.6	17	8	3.1
2025-10-15T12:00	15200	119	-61.6	-83.6	15	7	3.1
2025-10-15T12:00	15250	118	-61.6	-83.7	5	5	3.2
2025-10-15T12:00	15300	117	-61.2	-83.6	346	4	3.2
2025-10-15T12:00	15350	116	-61.2	-83.7	329	4	3.3
2025-10-15T12:00	15400	116	-61.5	-83.7	323	5	3.3
2025-10-15T12:00	15450	115	-61.8	-83.8	321	5	3.3
2025-10-15T12:00	15500	114	-62.0	-83.8	319	6	3.4
2025-10-15T12:00	15550	113	-62.3	-83.8	317	7	3.4
2025-10-15T12:00	15600	112	-62.6	-83.9	319	8	3.4
2025-10-15T12:00	15650	111	-63.0	-84.0	324	9	3.4
2025-10-15T12:00	15700	110	-63.1	-84.1	332	10	3.4
2025-10-15T12:00	15750	109	-63.2	-84.2	342	11	3.4
2025-10-15T12:00	15800	108	-63.3	-84.4	349	11	3.4
2025-10-15T12:00	15850	107	-62.5	-84.3	355	10	3.6
2025-10-15T12:00	15900	107	-62.0	-84.4	359	10	3.8
2025-10-15T12:00	15950	106	-61.9	-84.4	5	9	4.2
2025-10-15T12:00	16000	105	-61.9	-84.6	6	9	4.4
2025-10-15T12:00	16050	104	-61.5	-84.5	7	9	4.6
2025-10-15T12:00	16100	103	-61.4	-84.6	10	9	4.9
2025-10-15T12:00	16150	102	-61.6	-84.7	13	8	5.1
2025-10-15T12:00	16200	102	-61.5	-84.6	13	7	5.4
2025-10-15T12:00	16250	101	-61.5	-84.7	13	7	5.5
2025-10-15T12:00	16300	100	-61.6	-84.7	13	6	5.7
2025-10-15T12:00	16350	99	-61.8	-84.7	13	6	5.7
2025-10-15T12:00	16400	98	-62.1	-84.8	15	5	5.8
2025-10-15T12:00	16450	97	-62.3	-84.8	18	4	5.8
2025-10-15T12:00	16500	97	-62.4	-84.9	8	3	5.8
2025-10-15T12:00	16550	96	-62.4	-85.0	341	3	6.0
2025-10-15T12:00	16600	95	-62.6	-85.2	318	4	6.0
2025-10-15T12:00	16650	94	-62.4	-85.1	312	4	6.0
2025-10-15T12:00	16700	94	-62.5	-85.2	315	5	6.1
2025-10-15T12:00	16750	93	-62.6	-85.3	319	5	6.3
2025-10-15T12:00	16800	92	-62.8	-85.4	325	4	6.4
2025-10-15T12:00	16850	91	-63.1	-85.5	332	4	6.6
2025-10-15T12:00	16900	91	-63.1	-85.6	330	4	6.6
2025-10-15T12:00	16950	90	-63.0	-85.7	326	5	6.6
2025-10-15T12:00	17000	89	-62.9	-85.7	329	6	6.7
2025-10-15T12:00	17050	88	-62.7	-85.8	338	6	6.8
2025-10-15T12:00	17100	88	-62.4	-85.7	350	6	6.8
2025-10-15T12:00	17150	87	-62.5	-85.7	1	6	6.8
2025-10-15T12:00	17200	86	-62.9	-85.7	9	6	6.8
2025-10-15T12:00	17250	86	-63.1	-85.8	16	6	6.8
2025-10-15T12:00	17300	85	-63.4	-85.8	22	6	6.7
2025-10-15T12:00	17350	84	-63.5	-85.9	28	6	6.7
2025-10-15T12:00	17400	84	-63.7	-86.0	31	5	6.7
2025-10-15T12:00	17450	83	-63.8	-86.1	25	5	6.8
2025-10-15T12:00	17500	82	-63.9	-86.2	11	4	6.8
2025-10-15T12:00	17550	82	-64.1	-86.4	357	4	6.9
2025-10-15T12:00	17600	81	-63.6	-86.4	357	4	6.9
2025-10-15T12:00	17650	80	-63.0	-86.5	2	5	7.2
2025-10-15T12:00	17700	80	-62.6	-86.5	2	6	7.4
2025-10-15T12:00	17750	79	-62.5	-86.4	2	6	7.6
2025-10-15T12:00	17800	78	-62.5	-86.4	4	5	7.7
2025-10-15T12:00	17850	78	-62.5	-86.3	4	4	7.9
2025-10-15T12:00	17900	77	-62.4	-86.4	352	3	7.9
2025-10-15T12:00	17950	76	-62.2	-86.4	327	3	7.9
2025-10-15T12:00	18000	76	-62.2	-86.4	303	3	8.0
2025-10-15T12:00	18050	75	-62.2	-86.4	292	5	8.2
2025-10-15T12:00	18100	75	-62.2	-86.4	289	6	8.3
2025-10-15T12:00	18150	74	-62.3	-86.4	288	7	8.4
2025-10-15T12:00	18200	73	-62.4	-86.4	289	7	8.5
2025-10-15T12:00	18250	73	-62.6	-86.4	292	7	8.7
2025-10-15T12:00	18300	72	-62.8	-86.5	298	7	8.8
2025-10-15T12:00	18350	72	-63.1	-86.6	305	7	8.8
2025-10-15T12:00	18400	71	-63.2	-86.6	314	7	8.9
2025-10-15T12:00	18450	70	-63.3	-86.7	324	7	9.0
2025-10-15T12:00	18500	70	-63.5	-86.9	331	7	9.2
2025-10-15T12:00	18550	69	-63.3	-86.9	333	7	9.2
2025-10-15T12:00	18600	69	-63.1	-86.9	335	6	9.4
2025-10-15T12:00	18650	68	-63.2	-87.0	336	6	9.5
2025-10-15T12:00	18700	68	-63.0	-87.0	335	6	9.6
2025-10-15T12:00	18750	67	-62.8	-87.0	338	7	9.7
2025-10-15T12:00	18800	67	-62.6	-86.9	343	7	9.8
2025-10-15T12:00	18850	66	-62.5	-86.9	347	8	10.0
2025-10-15T12:00	18900	66	-62.4	-86.8	351	7	10.1
2025-10-15T12:00	18950	65	-62.5	-86.8	357	6	10.3
2025-10-15T12:00	19000	64	-62.5	-86.8	2	6	10.4
2025-10-15T12:00	19050	64	-62.6	-86.8	1	5	10.6
2025-10-15T12:00	19100	63	-62.8	-86.8	354	5	10.9
2025-10-15T12:00	19150	63	-62.9	-86.8	343	4	10.9
2025-10-15T12:00	19200	62	-63.0	-86.9	330	4	11.4
2025-10-15T12:00	19250	62	-63.0	-86.8	321	5	11.6
2025-10-15T12:00	19300	61	-63.2	-86.9	317	5	11.8
2025-10-15T12:00	19350	61	-63.5	-87.1	317	6	11.6
2025-10-15T12:00	19400	60	-63.5	-87.2	323	7	11.3
2025-10-15T12:00	19450	60	-63.3	-87.2	331	7	11.3
2025-10-15T12:00	19500	59	-63.2	-87.2	341	8	11.3
2025-10-15T12:00	19550	59	-63.2	-87.4	352	8	11.2
2025-10-15T12:00	19600	58	-62.8	-87.5	2	8	11.4
2025-10-15T12:00	19650	58	-61.8	-87.1	9	8	11.4
2025-10-15T12:00	19700	57	-61.7	-87.2	15	7	11.6
2025-10-15T12:00	19750	57	-61.5	-87.1	22	6	11.6
2025-10-15T12:00	19800	57	-61.2	-86.9	33	5	11.7
2025-10-15T12:00	19850	56	-61.2	-86.9	44	4	11.7
2025-10-15T12:00	19900	56	-61.1	-86.8	57	3	11.6
2025-10-15T12:00	19950	55	-61.1	-86.7	66	3	11.4
2025-10-15T12:00	20000	55	-61.3	-86.7	72	3	11.7
2025-10-15T12:00	20050	54	-61.4		80	3	11.7
2025-10-15T12:00	20100	54	-61.5		86	2	11.4
2025-10-15T12:00	20150	53	-61.9		72	1	11.7
2025-10-15T12:00	20200	53	-62.3		309	1	11.6
2025-10-15T12:00	20250	53	-62.5		276	1	11.1
2025-10-15T12:00	20300	52	-62.5		263	2	10.8
2025-10-15T12:00	20350	52	-62.6		262	3	10.7
2025-10-15T12:00	20400	51	-62.9		266	3	11.0
2025-10-15T12:00	20450	51	-63.2		271	4	10.8
2025-10-15T12:00	20500	51	-63.5		281	5	11.0
2025-10-15T12:00	20550	50	-63.6		297	5	11.2
2025-10-15T12:00	20600	50	-63.7		314	6	11.3
2025-10-15T12:00	20650	49	-63.6		328	7	11.6
2025-10-15T12:00	20700	49	-63.1		341	7	11.4
2025-10-15T12:00	20750	48	-62.3		353	6	11.1
2025-10-15T12:00	20800	48	-61.3		360	4	11.5
2025-10-15T12:00	20850	48	-60.9		354	2	11.9
2025-10-15T12:00	20900	47	-60.8		312	1	12.0
2025-10-15T12:00	20950	47	-60.8		281	2	12.0
2025-10-15T12:00	21000	47	-60.7		279	2	12.1
2025-10-15T12:00	21050	46	-60.9		278	3	12.3
2025-10-15T12:00	21100	46	-61.1		274	3	12.4
2025-10-15T12:00	21150	45	-61.2		276	4	12.7
2025-10-15T12:00	21200	45	-61.0		281	5	12.7
2025-10-15T12:00	21250	45	-60.7		286	5	12.7
2025-10-15T12:00	21300	44	-60.6		290	6	12.8
2025-10-15T12:00	21350	44	-60.2		290	5	12.8
2025-10-15T12:00	21400	44	-60.2		287	4	12.9
2025-10-15T12:00	21450	43	-60.2		282	3	12.9
2025-10-15T12:00	21500	43	-60.4		275	2	13.0
2025-10-15T12:00	21550	43	-60.7		260	1	13.1
2025-10-15T12:00	21600	42	-60.5		258	1	13.1
2025-10-15T12:00	21650	42	-60.1		277	1	13.2
2025-10-15T12:00	21700	42	-60.3		290	2	13.2
2025-10-15T12:00	21750	41	-60.7		299	3	13.3
2025-10-15T12:00	21800	41	-60.6		302	3	13.2
2025-10-15T12:00	21850	41	-60.3		300	3	13.2
2025-10-15T12:00	21900	40	-60.3		295	4	13.2
2025-10-15T12:00	21950	40	-60.3		291	5	13.3
2025-10-15T12:00	22000	40	-60.2		292	6	13.3
2025-10-15T12:00	22050	39	-59.9		297	7	13.3
2025-10-15T12:00	22100	39	-59.6		304	7	13.3
2025-10-15T12:00	22150	39	-59.1		310	6	13.4
2025-10-15T12:00	22200	38	-59.0		314	5	13.6
2025-10-15T12:00	22250	38	-59.2		314	4	13.6
2025-10-15T12:00	22300	38	-59.3		309	4	13.7
2025-10-15T12:00	22350	38	-59.5		302	4	13.7
2025-10-15T12:00	22400	37	-59.4		294	4	13.7
2025-10-15T12:00	22450	37	-59.6		287	4	13.8
2025-10-15T12:00	22500	37	-60.0		279	4	13.9
2025-10-15T12:00	22550	36	-60.4		273	5	13.8
2025-10-15T12:00	22600	36	-60.6		275	6	13.7
2025-10-15T12:00	22650	36	-60.5		282	6	13.7
2025-10-15T12:00	22700	35	-60.4		288	7	13.6
2025-10-15T12:00	22750	35	-60.1		289	8	13.8
2025-10-15T12:00	22800	35	-59.6		288	8	13.9
2025-10-15T12:00	22850	35	-59.6		289	8	13.9
2025-10-15T12:00	22900	34	-59.2		293	8	13.9
2025-10-15T12:00	22950	34	-58.8		299	9	13.9
2025-10-15T12:00	23000	34	-58.3		307	9	14.1
2025-10-15T12:00	23050	34	-58.3		315	9	14.4
2025-10-15T12:00	23100	33	-58.3		322	8	14.4
2025-10-15T12:00	23150	33	-57.9		330	8	15.0
2025-10-15T12:00	23200	33	-57.7		338	8	14.9
2025-10-15T12:00	23250	32	-57.8		344	7	13.7
2025-10-15T12:00	23300	32	-57.7		347	7	13.8
2025-10-15T12:00	23350	32	-57.7		352	6	14.0
2025-10-15T12:00	23400	32	-57.8		4	5	14.8
2025-10-15T12:00	23450	31	-58.0		18	5	14.3
2025-10-15T12:00	23500	31	-58.0		33	5	14.0
2025-10-15T12:00	23550	31	-57.9		52	4	14.5
2025-10-15T12:00	23600	31	-57.9		76	3	14.2
2025-10-15T12:00	23650	30	-57.8		104	3	13.9
2025-10-15T12:00	23700	30	-58.1		132	3	13.9
2025-10-15T12:00	23750	30	-58.2		165	2	13.7
2025-10-15T12:00	23800	30	-58.2		207	2	13.3
2025-10-15T12:00	23850	30	-58.4		237	3	13.4
2025-10-15T12:00	23900	29	-58.7		256	3	13.3
2025-10-15T12:00	23950	29	-59.0		269	4	13.1
2025-10-15T12:00	24000	29	-59.3		279	5	12.9
2025-10-15T12:00	24050	29	-59.6		288	6	12.9
2025-10-15T12:00	24100	28	-59.6		295	6	12.7
2025-10-15T12:00	24150	28	-59.2		298	6	12.6
2025-10-15T12:00	24200	28	-59.1		299	5	12.6
2025-10-15T12:00	24250	28	-59.2		300	5	12.7
2025-10-15T12:00	24300	27	-59.1		298	5	12.7
2025-10-15T12:00	24350	27	-58.9		293	6	12.6
2025-10-15T12:00	24400	27	-58.8		287	6	12.9
2025-10-15T12:00	24450	27	-58.8		283	7	12.7
2025-10-15T12:00	24500	27	-58.8		280	8	12.9
2025-10-15T12:00	24550	26	-58.9		281	9	12.8
2025-10-15T12:00	24600	26	-58.9		286	9	12.3
2025-10-15T12:00	24650	26	-59.1		292	8	12.1
2025-10-15T12:00	24700	26	-59.3		297	7	12.1
2025-10-15T12:00	24750	26	-59.1		298	6	11.9
2025-10-15T12:00	24800	25	-59.0		294	5	11.8
2025-10-15T12:00	24850	25	-58.9		285	4	11.7
2025-10-15T12:00	24900	25	-58.8		277	4	11.5
2025-10-15T12:00	24950	25	-58.6		278	4	11.2
2025-10-15T12:00	25000	25	-58.6		282	4	11.7
2025-10-15T12:00	25050	24	-58.5		280	4	11.7
2025-10-15T12:00	25100	24	-58.2		277	4	11.6
2025-10-15T12:00	25150	24	-58.1		280	4	11.7
2025-10-15T12:00	25200	24	-57.9		283	5	11.8
2025-10-15T12:00	25250	24	-57.8		284	6	11.8
2025-10-15T12:00	25300	23	-57.9		285	8	11.7
2025-10-15T12:00	25350	23	-58.2		289	8	11.6
2025-10-15T12:00	25400	23	-58.3		294	8	11.6
2025-10-15T12:00	25450	23	-58.2		298	7	11.5
2025-10-15T12:00	25500	23	-58.0		300	6	11.7
2025-10-15T12:00	25550	23	-57.9		299	6	11.7
2025-10-15T12:00	25600	22	-57.8		293	5	11.7
2025-10-15T12:00	25650	22	-57.6		289	6	11.6
2025-10-15T12:00	25700	22	-57.1		287	6	11.6
2025-10-15T12:00	25750	22	-56.8		285	7	11.6
2025-10-15T12:00	25800	22	-56.5		279	6	11.6
2025-10-15T12:00	25850	21	-56.1		270	6	11.6
2025-10-15T12:00	25900	21	-55.4		262	7	11.6
2025-10-15T12:00	25950	21	-54.8		259	8	11.7
2025-10-15T12:00	26000	21	-54.7		258	9	11.6
2025-10-15T12:00	26050	21	-54.7		261	9	11.5
2025-10-15T12:00	26100	21	-54.8		263	10	11.4
2025-10-15T12:00	26150	21	-55.1		264	10	11.3
2025-10-15T12:00	26200	20	-55.4		265	11	11.2
2025-10-15T12:00	26250	20	-55.6		266	11	11.1
2025-10-15T12:00	26300	20	-55.4		269	10	11.0
2025-10-15T12:00	26350	20	-55.0		272	9	10.7
2025-10-15T12:00	26400	20	-55.2		272	9	10.5
2025-10-15T12:00	26450	20	-55.1		271	8	10.4
2025-10-15T12:00	26500	19	-55.0		269	8	10.2
2025-10-15T12:00	26550	19	-54.8		265	7	10.0
2025-10-15T12:00	26600	19	-54.6		259	8	9.7
2025-10-15T12:00	26650	19	-54.2		254	8	9.6
2025-10-15T12:00	26700	19	-53.7		253	9	9.4
2025-10-15T12:00	26750	19	-53.6		253	10	9.4
2025-10-15T12:00	26800	19	-54.0		254	11	9.3
2025-10-15T12:00	26850	18	-54.4		255	13	9.3
2025-10-15T12:00	26900	18	-54.6		259	14	9.3
2025-10-15T12:00	26950	18	-53.9		262	15	9.5
2025-10-15T12:00	27000	18	-53.1		264	15	9.7
2025-10-15T12:00	27050	18	-52.9		266	14	9.7
2025-10-15T12:00	27100	18	-52.8		267	13	9.6
2025-10-15T12:00	27150	18	-52.8		269	12	9.9
2025-10-15T12:00	27200	17	-52.5		272	11	9.6
2025-10-15T12:00	27250	17	-52.5		274	10	9.5
2025-10-15T12:00	27300	17	-52.4		271	10	9.5
2025-10-15T12:00	27350	17	-52.1		266	11	9.4
2025-10-15T12:00	27400	17	-52.2		264	12	9.3
2025-10-15T12:00	27450	17	-52.2		264	12	9.3
2025-10-15T12:00	27500	17	-51.9		263	12	9.3
2025-10-15T12:00	27550	16	-51.5		263	12	9.3
2025-10-15T12:00	27600	16	-51.2		262	11	9.3
2025-10-15T12:00	27650	16	-50.9		262	9	9.4
2025-10-15T12:00	27700	16	-51.1		262	8	9.3
2025-10-15T12:00	27750	16	-51.2		258	7	9.2
2025-10-15T12:00	27800	16	-51.3		250	7	9.3
2025-10-15T12:00	27850	16	-51.2		243	7	9.1
2025-10-15T12:00	27900	16	-50.9		242	8	9.1
2025-10-15T12:00	27950	15	-50.7		244	10	8.9
2025-10-15T12:00	28000	15	-50.7		245	11	9.1
2025-10-15T12:00	28050	15	-50.5		247	13	9.0
2025-10-15T12:00	28100	15	-50.4		250	15	9.0
2025-10-15T12:00	28150	15	-50.4		253	16	8.9
2025-10-15T12:00	28200	15	-50.4		256	17	8.7
2025-10-15T12:00	28250	15	-50.5		258	17	8.6
2025-10-15T12:00	28300	15	-50.7		261	18	8.6
2025-10-15T12:00	28350	15	-50.9		263	18	8.7
2025-10-15T12:00	28400	14	-51.0		266	18	8.7
2025-10-15T12:00	28450	14	-51.1		269	18	8.7
2025-10-15T12:00	28500	14	-51.4		272	17	8.6
2025-10-15T12:00	28550	14	-51.6		273	16	8.4
2025-10-15T12:00	28600	14	-51.9		273	15	8.5
2025-10-15T12:00	28650	14	-52.1		269	14	8.3
2025-10-15T12:00	28700	14	-52.1		262	13	8.2
2025-10-15T12:00	28750	14	-52.1		255	12	8.1
2025-10-15T12:00	28800	14	-52.0		249	12	8.3
2025-10-15T12:00	28850	13	-52.0		246	11	8.1
2025-10-15T12:00	28900	13	-52.0		245	10	8.2
2025-10-15T12:00	28950	13	-52.0		242	10	8.0
2025-10-15T12:00	29000	13	-52.0		236	11	8.0
2025-10-15T12:00	29050	13	-51.7		230	12	7.9
2025-10-15T12:00	29100	13	-51.7		226	13	7.9
2025-10-15T12:00	29150	13	-51.7		226	14	7.8
2025-10-15T12:00	29200	13	-51.7		230	15	7.7
2025-10-15T12:00	29250	13	-51.3		237	15	7.8
2025-10-15T12:00	29300	13	-50.9		244	15	7.8
2025-10-15T12:00	29350	12	-50.8		250	15	7.7
2025-10-15T12:00	29400	12	-51.0		255	14	7.6
2025-10-15T12:00	29450	12	-51.1		257	14	7.5
2025-10-15T12:00	29500	12	-50.6		257	13	6.5
2025-10-15T12:00	29550	12	-50.3		257	13	6.2
2025-10-15T12:00	29600	12	-50.2		255	13	6.8
2025-10-15T12:00	29650	12	-49.9		253	14	6.2
2025-10-15T12:00	29700	12	-49.2		254	14	4.8
2025-10-15T12:00	29750	12	-48.6		255	15	5.0
2025-10-15T12:00	29800	12	-48.4		256	15	5.1
2025-10-15T12:00	29850	12	-48.5		255	16	5.0
2025-10-15T12:00	29900	11	-48.6		252	17	4.5
2025-10-15T12:00	29950	11	-48.5		250	19	4.7
2025-10-15T12:00	30000	11	-48.4		250	20	4.6
2025-10-15T12:00	30050	11	-48.2		250	22	4.4
2025-10-15T12:00	30100	11	-48.2		252	23	3.9
2025-10-15T12:00	30150	11	-48.3		254	23	
2025-10-15T12:00	30200	11	-48.3		258	23	
2025-10-15T12:00	30250	11	-48.5		261	22	
2025-10-15T12:00	30300	11	-48.7		264	21	
2025-10-15T12:00	30350	11	-48.8		267	21	
2025-10-15T12:00	30400	11	-48.8		270	20	
2025-10-15T12:00	30450	11	-48.8		273	19	
2025-10-15T12:00	30500	10	-49.0		274	19	
2025-10-15T12:00	30550	10	-49.0		275	18	
2025-10-15T12:00	30600	10	-48.9		275	17	
2025-10-15T12:00	30650	10	-48.7		273	16	
2025-10-15T12:00	30700	10	-48.4		269	15	
2025-10-15T12:00	30750	10	-48.1		264	14	
2025-10-15T12:00	30800	10	-48.0		257	14	
2025-10-15T12:00	30850	10	-47.5		251	14	
2025-10-15T12:00	30900	10	-46.7		247	14	
2025-10-15T12:00	30950	10	-46.4		245	15	
2025-10-15T12:00	31000	10	-46.5		246	16	
2025-10-15T12:00	31050	10	-46.3		248	17	
2025-10-15T12:00	31100	10	-46.5		251	18	
2025-10-15T12:00	31150	10	-46.7		254	20	
2025-10-15T12:00	31200	9	-47.0		256	21	
2025-10-15T12:00	31250	9	-47.1		259	22	
2025-10-15T12:00	31300	9	-47.2		261	22	
2025-10-15T12:00	31350	9	-47.3		263	22	
2025-10-15T12:00	31400	9	-47.2		264	21	
2025-10-15T12:00	31450	9	-47.1		265	20	
2025-10-15T12:00	31500	9	-47.2		268	19	
2025-10-15T12:00	31550	9	-47.1		270	18	
2025-10-15T12:00	31600	9	-46.6		269	18	
2025-10-15T12:00	31650	9	-46.2		265	17	
2025-10-15T12:00	31700	9	-45.9		259	16	
2025-10-15T12:00	31750	9	-45.7		255	17	
2025-10-15T12:00	31800	9	-45.0		252	18	
2025-10-15T12:00	31850	9	-44.1		249	21	
2025-10-15T12:00	31900	8	-43.8		247	23	
2025-10-15T12:00	31950	8	-43.6		245	25	
2025-10-15T12:00	32000	8	-43.4		245	26	
2025-10-15T12:00	32050	8	-43.0		246	27	
2025-10-15T12:00	32100	8	-42.9		249	26	
2025-10-15T12:00	32150	8	-42.9		250	25	
2025-10-15T12:00	32200	8	-42.6		250	25	
2025-10-15T12:00	32250	8	-42.2		250	26	
2025-10-15T12:00	32300	8	-42.2		249	28	
2025-10-15T12:00	32350	8	-42.4		248	30	
2025-10-15T12:00	32400	8	-42.6		249	31	
2025-10-15T12:00	32450	8	-42.7		250	32	
2025-10-15T12:00	32500	8	-42.8		253	32	
2025-10-15T12:00	32550	8	-42.4		257	32	
2025-10-15T12:00	32600	8	-41.8		260	31	
2025-10-15T12:00	32650	8	-41.7		262	30	
2025-10-15T12:00	32700	8	-41.8		265	30	
2025-10-15T12:00	32750	7	-41.7		267	29	
2025-10-15T12:00	32800	7	-41.6		269	28	
2025-10-15T12:00	32850	7	-41.6		270	27	
2025-10-15T12:00	32900	7	-41.3		267	25	
2025-10-15T12:00	32950	7	-40.8		264	23	
2025-10-15T12:00	33000	7	-40.5		260	22	
2025-10-15T12:00	33050	7	-40.5		258	21	
2025-10-15T12:00	33100	7	-40.4		258	22	
2025-10-15T12:00	33150	7	-40.0		260	22	
2025-10-15T12:00	33200	7	-40.0		264	23	
2025-10-15T12:00	33250	7	-40.1		267	24	
2025-10-15T12:00	33300	7	-40.2		269	25	
2025-10-15T12:00	33350	7	-40.3		268	27	
2025-10-15T12:00	33400	7	-40.2		268	28	
2025-10-15T12:00	33450	7	-40.1		268	28	
2025-10-15T12:00	33500	7	-40.1		268	28	
2025-10-15T12:00	33550	7	-40.2		268	27	
2025-10-15T12:00	33600	7	-40.4		266	26	
2025-10-15T12:00	33650	7	-40.4		265	25	
2025-10-16T00:00	491	965	8.4	6.9	198	1	
2025-10-16T00:00	501	964	8.5	6.5	183	1	
2025-10-16T00:00	520	962	8.7	6.2	168	1	
2025-10-16T00:00	540	959	9.0	5.8	157	1	
2025-10-16T00:00	560	957	9.5	5.8	140	1	
2025-10-16T00:00	580	955	9.5	5.8	120	1	
2025-10-16T00:00	600	952	9.5	5.9	104	1	
2025-10-16T00:00	620	950	9.4	6.0	93	1	
2025-10-16T00:00	640	948	9.3	6.1	86	2	
2025-10-16T00:00	660	946	9.1	6.2	81	2	
2025-10-16T00:00	680	944	9.1	6.2	79	2	
2025-10-16T00:00	700	941	9.1	5.8	78	3	
2025-10-16T00:00	720	939	9.2	5.4	78	3	
2025-10-16T00:00	740	936	9.3	4.9	79	4	
2025-10-16T00:00	760	934	9.3	4.8	79	4	
2025-10-16T00:00	780	932	9.2	4.4	80	4	
2025-10-16T00:00	800	930	9.2	4.2	80	5	
2025-10-16T00:00	820	928	9.0	4.1	81	5	
2025-10-16T00:00	840	925	8.9	3.9	81	5	
2025-10-16T00:00	860	923	8.7	3.9	82	6	
2025-10-16T00:00	880	921	8.5	3.8	82	6	
2025-10-16T00:00	900	919	8.4	3.8	82	6	
2025-10-16T00:00	920	917	8.2	3.8	82	6	
2025-10-16T00:00	940	914	8.0	3.7	81	6	
2025-10-16T00:00	960	912	7.8	3.7	80	6	
2025-10-16T00:00	980	910	7.6	3.7	79	6	
2025-10-16T00:00	1000	908	7.4	3.6	77	6	
2025-10-16T00:00	1020	906	7.2	3.6	75	6	
2025-10-16T00:00	1040	903	7.0	3.5	73	7	
2025-10-16T00:00	1060	901	6.8	3.5	72	7	
2025-10-16T00:00	1080	899	6.7	3.5	70	7	
2025-10-16T00:00	1100	896	6.4	3.4	69	7	
2025-10-16T00:00	1120	894	6.2	3.4	69	7	
2025-10-16T00:00	1140	892	6.0	3.4	69	7	
2025-10-16T00:00	1160	890	5.8	3.3	70	7	
2025-10-16T00:00	1180	888	5.6	3.3	70	7	
2025-10-16T00:00	1200	886	5.4	3.3	70	7	
2025-10-16T00:00	1220	884	5.2	3.2	69	7	
2025-10-16T00:00	1240	881	5.0	3.1	68	7	
2025-10-16T00:00	1260	879	4.8	3.1	67	7	
2025-10-16T00:00	1280	877	4.7	3.1	66	7	
2025-10-16T00:00	1300	875	4.5	3.1	65	7	
2025-10-16T00:00	1320	873	4.3	3.1	64	7	
2025-10-16T00:00	1340	871	4.1	3.1	64	6	
2025-10-16T00:00	1360	869	3.9	3.0	63	6	
2025-10-16T00:00	1380	867	3.7	3.0	61	6	
2025-10-16T00:00	1400	864	3.5	3.0	60	6	
2025-10-16T00:00	1420	862	3.3	2.9	59	6	
2025-10-16T00:00	1440	860	3.1	2.8	58	6	
2025-10-16T00:00	1460	858	2.9	2.8	57	6	
2025-10-16T00:00	1480	856	2.7	2.7	57	6	
2025-10-16T00:00	1500	854	2.5	2.5	58	6	
2025-10-16T00:00	1520	852	2.4	2.4	59	6	
2025-10-16T00:00	1540	850	2.3	2.3	60	6	
2025-10-16T00:00	1560	847	2.2	2.2	61	6	
2025-10-16T00:00	1580	845	2.1	2.1	63	6	
2025-10-16T00:00	1600	843	2.0	2.0	65	5	
2025-10-16T00:00	1620	841	1.9	1.9	68	5	
2025-10-16T00:00	1640	839	1.7	1.7	70	5	
2025-10-16T00:00	1660	837	1.6	1.6	72	5	
2025-10-16T00:00	1680	835	1.5	0.2	72	4	
2025-10-16T00:00	1700	833	2.4	-4.5	72	4	
2025-10-16T00:00	1720	831	4.0	-4.8	71	4	
2025-10-16T00:00	1740	829	6.2	-5.4	68	4	
2025-10-16T00:00	1760	827	7.1	-5.6	65	4	
2025-10-16T00:00	1780	825	7.3	-6.8	62	4	
2025-10-16T00:00	1800	823	7.3	-7.7	59	4	
2025-10-16T00:00	1820	821	7.4	-10.3	58	4	
2025-10-16T00:00	1840	819	7.5	-11.8	57	4	
2025-10-16T00:00	1860	817	7.3	-10.6	56	4	
2025-10-16T00:00	1880	815	7.3	-13.5	56	4	
2025-10-16T00:00	1900	813	7.3	-14.7	55	4	
2025-10-16T00:00	1920	811	7.2	-14.9	54	4	
2025-10-16T00:00	1940	809	7.1	-14.3	53	4	
2025-10-16T00:00	1960	807	7.1	-14.3	51	4	
2025-10-16T00:00	1980	805	7.1	-11.6	49	3	
2025-10-16T00:00	2000	803	6.9	-7.8	49	3	
2025-10-16T00:00	2020	801	6.6	-6.3	50	2	
2025-10-16T00:00	2040	799	6.4	-5.5	55	2	
2025-10-16T00:00	2060	797	6.2	-5.1	66	1	
2025-10-16T00:00	2080	795	6.1	-5.5	82	1	
2025-10-16T00:00	2100	793	6.1	-6.1	98	1	
2025-10-16T00:00	2120	791	6.0	-6.9	120	1	
2025-10-16T00:00	2140	789	5.9	-7.7	138	1	
2025-10-16T00:00	2160	787	5.9	-11.0	148	1	
2025-10-16T00:00	2180	785	5.8	-9.5	153	0	
2025-10-16T00:00	2200	784	5.6	-8.1	149	0	
2025-10-16T00:00	2220	782	5.4	-7.9	138	0	
2025-10-16T00:00	2240	780	5.2	-7.8	128	1	
2025-10-16T00:00	2260	778	5.1	-7.7	124	1	
2025-10-16T00:00	2280	776	4.9	-7.8	121	1	
2025-10-16T00:00	2300	774	4.8	-8.0	118	1	
2025-10-16T00:00	2320	772	4.6	-8.0	115	1	
2025-10-16T00:00	2340	770	4.4	-8.1	112	1	
2025-10-16T00:00	2360	768	4.2	-8.1	108	1	
2025-10-16T00:00	2380	766	4.1	-8.2	102	1	
2025-10-16T00:00	2400	765	3.9	-8.4	94	1	
2025-10-16T00:00	2420	763	3.7	-8.5	83	1	
2025-10-16T00:00	2440	761	3.5	-8.6	69	1	
2025-10-16T00:00	2460	759	3.4	-8.8	57	1	
2025-10-16T00:00	2480	757	3.2	-9.3	45	1	
2025-10-16T00:00	2500	755	3.2	-11.0	37	1	
2025-10-16T00:00	2520	753	3.3	-12.8	31	2	
2025-10-16T00:00	2540	752	3.2	-12.6	28	2	
2025-10-16T00:00	2560	750	3.1	-12.8	28	2	
2025-10-16T00:00	2580	748	3.0	-13.0	28	2	
2025-10-16T00:00	2600	746	2.9	-13.3	30	2	
2025-10-16T00:00	2620	744	2.8	-13.5	32	2	
2025-10-16T00:00	2640	742	2.7	-13.9	35	2	
2025-10-16T00:00	2660	740	2.5	-14.0	37	2	
2025-10-16T00:00	2680	739	2.4	-14.0	38	2	
2025-10-16T00:00	2700	737	2.2	-14.0	40	2	
2025-10-16T00:00	2720	735	2.0	-13.9	40	2	
2025-10-16T00:00	2740	733	1.9	-13.8	37	2	
2025-10-16T00:00	2760	731	1.7	-13.9	32	2	
2025-10-16T00:00	2780	729	1.6	-14.3	19	1	
2025-10-16T00:00	2800	728	1.4	-14.9	2	1	
2025-10-16T00:00	2820	726	1.3	-15.1	345	1	
2025-10-16T00:00	2840	724	1.2	-14.6	330	1	
2025-10-16T00:00	2860	722	1.3	-14.2	320	2	
2025-10-16T00:00	2880	720	1.3	-14.2	313	2	
2025-10-16T00:00	2900	719	1.2	-14.2	307	2	
2025-10-16T00:00	2920	717	1.1	-14.3	304	2	
2025-10-16T00:00	2940	715	1.1	-15.3	303	2	
2025-10-16T00:00	2960	713	1.1	-16.2	303	2	
2025-10-16T00:00	2980	711	1.0	-16.5	305	2	
2025-10-16T00:00	3000	710	0.8	-16.4	309	2	
2025-10-16T00:00	3020	708	0.6	-16.2	316	2	
2025-10-16T00:00	3040	706	0.4	-16.4	324	2	
2025-10-16T00:00	3060	704	0.2	-16.5	336	2	
2025-10-16T00:00	3080	703	0.0	-16.3	348	2	
2025-10-16T00:00	3100	701	-0.2	-16.0	359	2	
2025-10-16T00:00	3120	699	-0.4	-15.9	6	2	
2025-10-16T00:00	3140	698	-0.5	-16.5	12	3	
2025-10-16T00:00	3160	696	-0.5	-20.0	15	3	
2025-10-16T00:00	3180	694	-0.4	-24.0	17	3	
2025-10-16T00:00	3200	692	-0.4	-28.3	16	3	
2025-10-16T00:00	3220	691	-0.3	-31.6	13	3	
2025-10-16T00:00	3240	689	-0.4	-31.4	8	3	
2025-10-16T00:00	3260	687	-0.6	-30.5	1	3	
2025-10-16T00:00	3280	685	-0.8	-31.0	354	3	
2025-10-16T00:00	3300	684	-0.9	-31.4	351	3	
2025-10-16T00:00	3320	682	-1.1	-31.3	350	3	
2025-10-16T00:00	3340	680	-1.2	-30.5	352	3	
2025-10-16T00:00	3360	679	-1.3	-31.7	356	3	
2025-10-16T00:00	3380	677	-1.3	-30.3	3	3	
2025-10-16T00:00	3400	675	-1.4	-30.1	8	4	
2025-10-16T00:00	3420	673	-1.3	-32.7	13	4	
2025-10-16T00:00	3440	672	-1.2	-38.1	15	4	
2025-10-16T00:00	3460	670	-1.3	-40.0	16	4	
2025-10-16T00:00	3480	668	-1.4	-39.4	16	4	
2025-10-16T00:00	3500	667	-1.5	-39.3	14	4	
2025-10-16T00:00	3520	665	-1.6	-39.5	12	4	
2025-10-16T00:00	3540	663	-1.7	-39.1	10	5	
2025-10-16T00:00	3560	662	-1.8	-37.3	9	5	
2025-10-16T00:00	3580	660	-2.0	-37.0	8	5	
2025-10-16T00:00	3600	658	-2.0	-36.6	7	5	
2025-10-16T00:00	3620	657	-2.1	-34.5	7	5	
2025-10-16T00:00	3640	655	-2.3	-34.8	9	4	
2025-10-16T00:00	3660	653	-2.5	-35.2	11	4	
2025-10-16T00:00	3680	652	-2.6	-35.7	14	4	
2025-10-16T00:00	3700	650	-2.7	-37.3	18	4	
2025-10-16T00:00	3720	648	-2.8	-39.8	22	4	
2025-10-16T00:00	3740	647	-2.9	-40.1	27	4	
2025-10-16T00:00	3760	645	-3.0	-40.4	31	4	
2025-10-16T00:00	3780	643	-3.1	-40.3	35	4	
2025-10-16T00:00	3800	642	-3.2	-40.3	38	4	
2025-10-16T00:00	3820	640	-3.3	-39.3	40	3	
2025-10-16T00:00	3840	639	-3.4	-30.4	41	4	
2025-10-16T00:00	3860	637	-3.6	-23.6	42	4	
2025-10-16T00:00	3880	636	-3.9	-21.7	43	4	
2025-10-16T00:00	3900	634	-4.0	-21.4	44	4	
2025-10-16T00:00	3920	632	-4.1	-23.3	44	5	
2025-10-16T00:00	3940	631	-4.2	-25.2	43	5	
2025-10-16T00:00	3960	629	-4.2	-25.4	42	5	
2025-10-16T00:00	3980	627	-4.3	-26.1	41	5	
2025-10-16T00:00	4000	626	-4.5	-26.1	40	5	
2025-10-16T00:00	4020	624	-4.7	-25.8	39	5	
2025-10-16T00:00	4040	623	-4.9	-25.6	40	5	
2025-10-16T00:00	4060	621	-5.1	-25.3	41	5	
2025-10-16T00:00	4080	619	-5.2	-24.9	45	5	
2025-10-16T00:00	4100	618	-5.3	-24.7	48	5	
2025-10-16T00:00	4120	616	-5.5	-24.7	50	5	
2025-10-16T00:00	4140	615	-5.7	-25.0	53	6	
2025-10-16T00:00	4160	613	-5.8	-26.5	55	6	
2025-10-16T00:00	4180	612	-5.8	-28.3	57	6	
2025-10-16T00:00	4200	610	-5.9	-27.7	57	6	
2025-10-16T00:00	4220	609	-6.1	-29.2	58	7	
2025-10-16T00:00	4240	607	-6.2	-30.8	57	7	
2025-10-16T00:00	4260	605	-6.4	-28.2	57	7	
2025-10-16T00:00	4280	604	-6.6	-26.9	55	6	
2025-10-16T00:00	4300	602	-6.8	-26.6	53	6	
2025-10-16T00:00	4320	601	-7.0	-26.8	51	6	
2025-10-16T00:00	4340	599	-7.1	-26.9	48	6	
2025-10-16T00:00	4360	598	-7.3	-28.6	44	6	
2025-10-16T00:00	4380	596	-7.5	-27.5	40	5	
2025-10-16T00:00	4400	595	-7.7	-26.6	37	5	
2025-10-16T00:00	4420	593	-7.9	-26.8	35	6	
2025-10-16T00:00	4440	592	-8.1	-27.1	36	6	
2025-10-16T00:00	4460	590	-8.2	-28.2	38	6	
2025-10-16T00:00	4480	589	-8.4	-27.2	39	6	
2025-10-16T00:00	4500	587	-8.6	-25.3	41	6	
2025-10-16T00:00	4520	586	-8.8	-24.7	41	7	
2025-10-16T00:00	4540	584	-9.0	-24.2	40	7	
2025-10-16T00:00	4560	582	-9.2	-24.0	39	7	
2025-10-16T00:00	4580	581	-9.4	-23.9	39	7	
2025-10-16T00:00	4600	579	-9.6	-23.7	39	7	
2025-10-16T00:00	4620	578	-9.8	-23.7	40	7	
2025-10-16T00:00	4640	577	-9.9	-23.6	41	7	
2025-10-16T00:00	4660	575	-10.0	-24.4	42	7	
2025-10-16T00:00	4680	573	-10.2	-25.3	43	7	
2025-10-16T00:00	4700	572	-10.3	-25.8	43	7	
2025-10-16T00:00	4720	571	-10.4	-26.3	42	7	
2025-10-16T00:00	4740	569	-10.6	-26.3	41	6	
2025-10-16T00:00	4760	568	-10.8	-26.0	39	6	
2025-10-16T00:00	4780	566	-10.9	-25.4	37	6	
2025-10-16T00:00	4800	565	-11.1	-24.6	33	6	
2025-10-16T00:00	4820	563	-11.3	-24.9	29	6	
2025-10-16T00:00	4840	562	-11.4	-25.5	26	6	
2025-10-16T00:00	4860	560	-11.6	-24.9	23	6	
2025-10-16T00:00	4880	559	-11.8	-24.7	19	6	
2025-10-16T00:00	4900	557	-11.9	-24.8	18	6	
2025-10-16T00:00	4920	556	-12.1	-25.1	17	6	
2025-10-16T00:00	4940	555	-12.2	-25.6	18	6	
2025-10-16T00:00	4960	553	-12.4	-25.2	21	6	
2025-10-16T00:00	4980	552	-12.5	-25.5	23	5	
2025-10-16T00:00	5000	550	-12.6	-25.9	23	5	
2025-10-16T00:00	5020	549	-12.8	-26.1	22	5	
2025-10-16T00:00	5040	547	-13.0	-26.3	20	6	
2025-10-16T00:00	5060	546	-13.1	-26.2	18	6	
2025-10-16T00:00	5080	544	-13.3	-26.0	18	6	
2025-10-16T00:00	5100	543	-13.5	-26.2	19	6	
2025-10-16T00:00	5120	541	-13.6	-26.6	21	7	
2025-10-16T00:00	5140	540	-13.8	-26.5	24	7	
2025-10-16T00:00	5160	539	-14.0	-26.5	25	7	
2025-10-16T00:00	5180	537	-14.1	-26.8	26	8	
2025-10-16T00:00	5200	536	-14.3	-27.0	26	8	
2025-10-16T00:00	5220	534	-14.4	-27.3	26	9	
2025-10-16T00:00	5240	533	-14.5	-28.6	26	9	
2025-10-16T00:00	5260	532	-14.6	-29.2	26	9	
2025-10-16T00:00	5280	530	-14.6	-30.7	28	9	
2025-10-16T00:00	5300	529	-14.6	-33.4	30	9	
2025-10-16T00:00	5320	527	-14.8	-34.2	33	9	
2025-10-16T00:00	5340	526	-14.9	-34.2	34	9	
2025-10-16T00:00	5360	525	-15.1	-32.6	36	9	
2025-10-16T00:00	5380	523	-15.2	-32.5	37	9	
2025-10-16T00:00	5400	522	-15.4	-32.1	36	8	
2025-10-16T00:00	5420	520	-15.5	-32.5	34	8	
2025-10-16T00:00	5440	519	-15.6	-31.9	33	7	
2025-10-16T00:00	5460	518	-15.8	-31.2	31	7	
2025-10-16T00:00	5480	516	-16.0	-31.6	29	7	
2025-10-16T00:00	5500	515	-16.1	-31.6	28	7	
2025-10-16T00:00	5520	514	-16.3	-32.0	28	7	
2025-10-16T00:00	5540	512	-16.5	-31.9	29	6	
2025-10-16T00:00	5560	511	-16.6	-31.5	30	6	
2025-10-16T00:00	5580	509	-16.8	-31.6	31	6	
2025-10-16T00:00	5600	508	-17.0	-32.0	33	6	
2025-10-16T00:00	5620	507	-17.1	-33.7	34	6	
2025-10-16T00:00	5640	505	-17.2	-34.4	35	6	
2025-10-16T00:00	5660	504	-17.3	-34.2	36	6	
2025-10-16T00:00	5680	503	-17.5	-31.8	36	6	
2025-10-16T00:00	5700	501	-17.6	-31.9	36	6	
2025-10-16T00:00	5720	500	-17.6	-32.9	36	6	
2025-10-16T00:00	5740	499	-17.7	-33.0	36	6	
2025-10-16T00:00	5760	497	-17.8	-33.3	36	7	
2025-10-16T00:00	5780	496	-18.0	-33.3	36	7	
2025-10-16T00:00	5800	495	-18.2	-33.2	37	8	
2025-10-16T00:00	5820	493	-18.2	-33.6	38	8	
2025-10-16T00:00	5840	492	-18.3	-34.1	41	8	
2025-10-16T00:00	5860	491	-18.4	-34.8	43	8	
2025-10-16T00:00	5880	489	-18.4	-35.6	45	7	
2025-10-16T00:00	5900	488	-18.6	-36.1	47	7	
2025-10-16T00:00	5920	487	-18.7	-36.7	46	7	
2025-10-16T00:00	5940	486	-18.9	-36.7	44	7	
2025-10-16T00:00	5960	484	-19.1	-36.8	42	7	
2025-10-16T00:00	5980	483	-19.3	-36.8	41	7	
2025-10-16T00:00	6000	482	-19.4	-37.3	40	7	
2025-10-16T00:00	6020	480	-19.6	-37.4	41	7	
2025-10-16T00:00	6040	479	-19.7	-37.5	43	7	
2025-10-16T00:00	6060	478	-19.9	-37.9	45	7	
2025-10-16T00:00	6080	476	-20.1	-38.0	47	7	
2025-10-16T00:00	6100	475	-20.2	-38.3	47	7	
2025-10-16T00:00	6120	474	-20.3	-39.6	47	7	
2025-10-16T00:00	6140	473	-20.4	-40.5	46	7	
2025-10-16T00:00	6160	471	-20.5	-41.0	42	7	
2025-10-16T00:00	6180	470	-20.7	-41.4	38	7	
2025-10-16T00:00	6200	469	-20.8	-41.8	36	7	
2025-10-16T00:00	6220	467	-21.0	-42.5	33	8	
2025-10-16T00:00	6240	466	-21.1	-42.5	32	8	
2025-10-16T00:00	6260	465	-21.3	-42.4	32	8	
2025-10-16T00:00	6280	464	-21.5	-42.3	31	8	
2025-10-16T00:00	6300	462	-21.7	-42.3	31	8	
2025-10-16T00:00	6320	461	-21.9	-42.3	30	8	
2025-10-16T00:00	6340	460	-22.0	-42.1	29	8	
2025-10-16T00:00	6360	459	-22.2	-42.2	27	7	
2025-10-16T00:00	6380	457	-22.4	-42.4	26	7	
2025-10-16T00:00	6400	456	-22.5	-42.4	25	7	
2025-10-16T00:00	6420	455	-22.7	-42.5	25	8	
2025-10-16T00:00	6440	454	-22.7	-43.0	26	8	
2025-10-16T00:00	6460	453	-22.8	-43.0	26	8	
2025-10-16T00:00	6480	451	-23.0	-42.9	26	8	
2025-10-16T00:00	6500	450	-23.2	-42.8	26	8	
2025-10-16T00:00	6520	449	-23.4	-42.7	24	8	
2025-10-16T00:00	6540	448	-23.5	-42.8	22	8	
2025-10-16T00:00	6560	446	-23.7	-43.1	20	8	
2025-10-16T00:00	6580	445	-23.8	-43.5	17	7	
2025-10-16T00:00	6600	444	-24.0	-43.9	16	7	
2025-10-16T00:00	6620	443	-24.1	-44.7	15	7	
2025-10-16T00:00	6640	442	-24.2	-45.5	15	7	
2025-10-16T00:00	6660	440	-24.2	-46.2	15	7	
2025-10-16T00:00	6680	439	-24.3	-46.7	14	7	
2025-10-16T00:00	6700	438	-24.4	-47.0	12	7	
2025-10-16T00:00	6720	437	-24.4	-47.3	8	7	
2025-10-16T00:00	6740	435	-24.6	-46.7	4	8	
2025-10-16T00:00	6760	434	-24.7	-45.7	1	8	
2025-10-16T00:00	6780	433	-24.8	-45.3	357	8	
2025-10-16T00:00	6800	432	-24.8	-45.3	354	9	
2025-10-16T00:00	6820	431	-24.8	-45.4	353	9	
2025-10-16T00:00	6840	429	-24.9	-45.3	352	9	
2025-10-16T00:00	6860	428	-25.1	-45.3	352	9	
2025-10-16T00:00	6880	427	-25.2	-44.9	354	9	
2025-10-16T00:00	6900	426	-25.4	-44.2	356	9	
2025-10-16T00:00	6920	425	-25.6	-43.6	358	10	
2025-10-16T00:00	6940	424	-25.7	-43.4	359	10	
2025-10-16T00:00	6960	422	-25.9	-43.2	360	10	
2025-10-16T00:00	6980	421	-26.0	-43.1	360	10	
2025-10-16T00:00	7000	420	-26.2	-42.7	360	10	
2025-10-16T00:00	7020	419	-26.4	-42.4	359	10	
2025-10-16T00:00	7040	418	-26.6	-42.9	358	10	
2025-10-16T00:00	7060	417	-26.6	-44.7	358	10	
2025-10-16T00:00	7080	416	-26.7	-46.3	357	10	
2025-10-16T00:00	7100	414	-26.7	-48.9	358	9	
2025-10-16T00:00	7120	413	-26.8	-49.9	360	9	
2025-10-16T00:00	7140	412	-26.9	-49.5	2	9	
2025-10-16T00:00	7160	411	-27.1	-49.4	4	9	
2025-10-16T00:00	7180	410	-27.2	-49.6	7	9	
2025-10-16T00:00	7200	409	-27.3	-49.9	8	9	
2025-10-16T00:00	7220	408	-27.5	-50.5	8	9	
2025-10-16T00:00	7240	406	-27.6	-51.0	9	10	
2025-10-16T00:00	7260	405	-27.8	-50.8	8	10	
2025-10-16T00:00	7280	404	-27.9	-50.7	8	10	
2025-10-16T00:00	7300	403	-28.1	-50.6	8	10	
2025-10-16T00:00	7320	402	-28.3	-50.3	8	10	
2025-10-16T00:00	7340	401	-28.5	-50.1	9	10	
2025-10-16T00:00	7360	400	-28.6	-50.1	9	10	
2025-10-16T00:00	7380	398	-28.8	-50.2	10	10	
2025-10-16T00:00	7400	397	-29.0	-50.2	11	10	
2025-10-16T00:00	7420	396	-29.2	-50.1	11	10	
2025-10-16T00:00	7440	395	-29.4	-49.8	11	10	
2025-10-16T00:00	7460	394	-29.6	-48.8	11	10	
2025-10-16T00:00	7480	393	-29.8	-48.3	10	10	
2025-10-16T00:00	7500	392	-30.0	-48.4	9	10	
2025-10-16T00:00	7520	391	-30.1	-48.5	8	10	
2025-10-16T00:00	7540	390	-30.3	-48.5	7	10	
2025-10-16T00:00	7560	389	-30.4	-48.7	6	10	
2025-10-16T00:00	7580	387	-30.6	-48.6	5	10	
2025-10-16T00:00	7600	386	-30.8	-48.6	5	10	
2025-10-16T00:00	7620	385	-31.0	-48.7	5	10	
2025-10-16T00:00	7640	384	-31.1	-48.8	6	10	
2025-10-16T00:00	7660	383	-31.3	-48.8	7	10	
2025-10-16T00:00	7680	382	-31.5	-48.3	8	10	
2025-10-16T00:00	7700	381	-31.7	-48.1	9	11	
2025-10-16T00:00	7720	380	-31.8	-48.1	10	11	
2025-10-16T00:00	7740	379	-32.0	-48.2	10	11	
2025-10-16T00:00	7760	378	-32.2	-48.0	11	11	
2025-10-16T00:00	7780	377	-32.4	-48.1	11	11	
2025-10-16T00:00	7800	376	-32.6	-48.3	11	11	
2025-10-16T00:00	7820	375	-32.8	-48.3	12	11	
2025-10-16T00:00	7840	374	-33.0	-48.1	12	10	
2025-10-16T00:00	7860	372	-33.2	-48.2	13	10	
2025-10-16T00:00	7880	371	-33.4	-48.3	15	10	
2025-10-16T00:00	7900	370	-33.6	-48.4	16	10	
2025-10-16T00:00	7920	369	-33.8	-48.3	16	10	
2025-10-16T00:00	7940	368	-34.0	-48.2	17	9	
2025-10-16T00:00	7960	367	-34.2	-48.4	17	9	
2025-10-16T00:00	7980	366	-34.3	-48.5	17	9	
2025-10-16T00:00	8000	365	-34.5	-48.7	15	9	
2025-10-16T00:00	8020	364	-34.6	-48.7	14	9	
2025-10-16T00:00	8040	363	-34.7	-48.9	13	9	
2025-10-16T00:00	8060	362	-34.9	-49.7	12	9	
2025-10-16T00:00	8080	361	-35.1	-50.0	12	9	
2025-10-16T00:00	8100	360	-35.3	-49.9	11	9	
2025-10-16T00:00	8120	359	-35.4	-49.7	11	9	
2025-10-16T00:00	8140	358	-35.6	-49.6	10	9	
2025-10-16T00:00	8160	357	-35.8	-49.6	9	9	
2025-10-16T00:00	8180	356	-36.0	-49.8	7	9	
2025-10-16T00:00	8200	355	-36.2	-50.1	5	9	
2025-10-16T00:00	8220	354	-36.3	-52.2	3	9	
2025-10-16T00:00	8240	353	-36.3	-53.9	1	9	
2025-10-16T00:00	8260	352	-36.5	-52.1	359	9	
2025-10-16T00:00	8280	351	-36.7	-51.7	358	9	
2025-10-16T00:00	8300	350	-36.8	-51.4	357	9	
2025-10-16T00:00	8320	349	-37.0	-51.8	357	9	
2025-10-16T00:00	8340	348	-37.2	-52.1	357	9	
2025-10-16T00:00	8360	347	-37.4	-52.2	356	9	
2025-10-16T00:00	8380	346	-37.6	-52.0	356	9	
2025-10-16T00:00	8400	345	-37.8	-51.9	355	9	
2025-10-16T00:00	8420	344	-37.9	-51.7	354	8	
2025-10-16T00:00	8440	343	-38.2	-51.4	354	8	
2025-10-16T00:00	8460	342	-38.4	-51.6	353	8	
2025-10-16T00:00	8480	341	-38.6	-51.8	352	8	
2025-10-16T00:00	8500	340	-38.7	-52.1	351	8	
2025-10-16T00:00	8520	339	-38.8	-53.9	351	8	
2025-10-16T00:00	8540	338	-38.9	-55.2	351	8	
2025-10-16T00:00	8560	337	-39.0	-55.1	352	8	
2025-10-16T00:00	8580	336	-39.1	-55.5	352	8	
2025-10-16T00:00	8600	335	-39.2	-57.2	352	8	
2025-10-16T00:00	8620	334	-39.3	-57.7	353	8	
2025-10-16T00:00	8640	333	-39.4	-57.8	353	8	
2025-10-16T00:00	8660	332	-39.5	-57.6	352	9	
2025-10-16T00:00	8680	331	-39.6	-57.9	352	9	
2025-10-16T00:00	8700	330	-39.7	-58.6	351	9	
2025-10-16T00:00	8720	329	-39.8	-58.8	349	10	
2025-10-16T00:00	8740	328	-39.9	-58.3	347	10	
2025-10-16T00:00	8760	327	-40.0	-57.6	346	11	
2025-10-16T00:00	8780	326	-40.1	-57.7	346	11	
2025-10-16T00:00	8800	325	-40.2	-58.0	346	11	
2025-10-16T00:00	8820	324	-40.2	-58.5	346	11	
2025-10-16T00:00	8840	323	-40.3	-58.7	347	11	
2025-10-16T00:00	8860	322	-40.4	-58.8	348	11	
2025-10-16T00:00	8880	321	-40.6	-59.0	348	11	
2025-10-16T00:00	8900	320	-40.7	-59.5	350	11	
2025-10-16T00:00	8920	319	-40.8	-59.9	350	11	
2025-10-16T00:00	8940	318	-40.9	-59.7	351	11	
2025-10-16T00:00	8960	317	-41.1	-59.4	351	10	
2025-10-16T00:00	8980	317	-41.2	-59.5	351	10	
2025-10-16T00:00	9000	316	-41.4	-59.5	351	10	
2025-10-16T00:00	9020	315	-41.5	-59.8	351	10	
2025-10-16T00:00	9040	314	-41.5	-60.1	351	10	
2025-10-16T00:00	9060	313	-41.6	-60.2	350	10	
2025-10-16T00:00	9080	312	-41.7	-60.3	350	10	
2025-10-16T00:00	9100	311	-41.7	-60.3	349	9	
2025-10-16T00:00	9120	310	-41.8	-59.8	349	9	
2025-10-16T00:00	9140	309	-41.9	-59.8	348	9	
2025-10-16T00:00	9160	308	-42.1	-60.1	347	9	
2025-10-16T00:00	9180	308	-42.2	-60.1	346	9	
2025-10-16T00:00	9200	306	-42.4	-60.2	344	10	
2025-10-16T00:00	9220	306	-42.5	-60.5	343	10	
2025-10-16T00:00	9240	305	-42.6	-60.9	341	10	
2025-10-16T00:00	9260	304	-42.7	-61.3	339	10	
2025-10-16T00:00	9280	303	-42.8	-61.8	338	10	
2025-10-16T00:00	9300	302	-42.9	-61.9	336	10	
2025-10-16T00:00	9320	301	-43.1	-61.9	334	10	
2025-10-16T00:00	9340	300	-43.3	-61.9	334	10	
2025-10-16T00:00	9360	299	-43.5	-61.9	333	10	
2025-10-16T00:00	9380	298	-43.7	-61.9	332	10	
2025-10-16T00:00	9400	298	-43.8	-61.9	332	10	
2025-10-16T00:00	9420	297	-44.0	-62.0	332	9	
2025-10-16T00:00	9440	296	-44.2	-62.1	332	9	
2025-10-16T00:00	9460	295	-44.3	-62.1	332	9	
2025-10-16T00:00	9480	294	-44.5	-62.1	332	9	
2025-10-16T00:00	9500	293	-44.6	-62.1	332	9	
2025-10-16T00:00	9520	292	-44.8	-62.2	332	9	
2025-10-16T00:00	9540	291	-44.9	-61.9	332	9	
2025-10-16T00:00	9560	290	-45.1	-61.5	332	9	
2025-10-16T00:00	9580	290	-45.3	-61.6	332	9	
2025-10-16T00:00	9600	289	-45.4	-61.6	332	10	
2025-10-16T00:00	9620	288	-45.6	-61.6	333	10	
2025-10-16T00:00	9640	287	-45.7	-61.8	333	10	
2025-10-16T00:00	9660	286	-45.8	-62.1	333	10	
2025-10-16T00:00	9680	285	-46.0	-62.3	334	10	
2025-10-16T00:00	9700	284	-46.1	-62.4	334	10	
2025-10-16T00:00	9720	284	-46.3	-62.3	335	10	
2025-10-16T00:00	9740	283	-46.5	-62.2	336	10	
2025-10-16T00:00	9760	282	-46.7	-62.2	336	10	
2025-10-16T00:00	9780	281	-46.8	-62.3	337	10	
2025-10-16T00:00	9800	280	-47.0	-62.4	337	11	
2025-10-16T00:00	9820	279	-47.0	-62.5	336	11	
2025-10-16T00:00	9840	278	-47.1	-62.8	336	11	
2025-10-16T00:00	9860	278	-47.2	-63.0	335	11	
2025-10-16T00:00	9880	277	-47.3	-63.3	334	11	
2025-10-16T00:00	9900	276	-47.5	-63.2	332	11	
2025-10-16T00:00	9920	275	-47.6	-63.2	330	11	
2025-10-16T00:00	9940	274	-47.7	-63.3	330	12	
2025-10-16T00:00	9960	273	-47.9	-63.3	330	12	
2025-10-16T00:00	9980	273	-48.0	-63.4	329	12	
2025-10-16T00:00	10000	272	-48.2	-63.4	329	12	
2025-10-16T00:00	10018	271	-48.4	-63.3	329	12	
2025-10-16T00:00	10050	270	-48.7	-63.3	328	12	
2025-10-16T00:00	10100	268	-49.1	-63.4	328	12	
2025-10-16T00:00	10150	266	-49.5	-63.7	328	12	
2025-10-16T00:00	10200	264	-49.8	-64.7	329	12	
2025-10-16T00:00	10250	262	-50.2	-65.7	329	12	
2025-10-16T00:00	10300	260	-50.5	-65.9	329	12	
2025-10-16T00:00	10350	258	-50.8	-66.1	329	12	
2025-10-16T00:00	10400	256	-51.2	-66.3	329	11	
2025-10-16T00:00	10450	254	-51.6	-66.3	330	11	
2025-10-16T00:00	10500	252	-52.0	-66.5	330	12	
2025-10-16T00:00	10550	250	-52.3	-66.7	330	12	
2025-10-16T00:00	10600	248	-52.6	-66.8	330	12	
2025-10-16T00:00	10650	246	-53.0	-67.0	331	13	
2025-10-16T00:00	10700	244	-53.2	-67.1	332	12	
2025-10-16T00:00	10750	242	-53.6	-66.7	332	12	
2025-10-16T00:00	10800	240	-53.9	-66.1	330	12	
2025-10-16T00:00	10850	239	-53.9	-65.8	328	12	
2025-10-16T00:00	10900	236	-54.2	-66.2	326	12	
2025-10-16T00:00	10950	235	-54.5	-66.3	328	12	
2025-10-16T00:00	11000	233	-54.9	-66.3	332	12	
2025-10-16T00:00	11050	231	-55.3	-66.3	334	12	
2025-10-16T00:00	11100	229	-55.8	-66.4	335	12	
2025-10-16T00:00	11150	228	-56.0	-66.6	337	12	
2025-10-16T00:00	11200	226	-56.2	-66.8	340	12	
2025-10-16T00:00	11250	224	-56.6	-67.0	341	12	
2025-10-16T00:00	11300	222	-56.9	-67.3	340	12	
2025-10-16T00:00	11350	220	-57.3	-67.4	339	12	
2025-10-16T00:00	11400	219	-57.7	-67.5	339	12	
2025-10-16T00:00	11450	217	-58.1	-67.7	340	12	
2025-10-16T00:00	11500	215	-58.3	-68.1	342	12	
2025-10-16T00:00	11550	214	-58.5	-68.4	345	13	
2025-10-16T00:00	11600	212	-58.8	-68.7	348	13	
2025-10-16T00:00	11650	210	-59.0	-69.0	349	13	
2025-10-16T00:00	11700	208	-59.2	-69.2	352	14	
2025-10-16T00:00	11750	207	-59.2	-69.6	354	14	
2025-10-16T00:00	11800	205	-59.4	-70.2	356	13	
2025-10-16T00:00	11850	204	-59.5	-70.8	356	13	
2025-10-16T00:00	11900	202	-59.2	-71.5	356	12	
2025-10-16T00:00	11950	200	-59.2	-72.5	356	12	
2025-10-16T00:00	12000	199	-58.9	-73.0	356	12	
2025-10-16T00:00	12050	197	-58.9	-73.6	358	11	
2025-10-16T00:00	12100	196	-58.9	-74.1	360	11	
2025-10-16T00:00	12150	194	-58.7	-74.7	0	10	
2025-10-16T00:00	12200	193	-58.5	-75.2	359	9	
2025-10-16T00:00	12250	191	-58.8	-75.4	357	8	
2025-10-16T00:00	12300	189	-59.2	-75.4	355	8	
2025-10-16T00:00	12350	188	-59.3	-75.4	355	8	
2025-10-16T00:00	12400	187	-59.3	-75.5	359	7	
2025-10-16T00:00	12450	185	-59.6	-75.7	2	7	
2025-10-16T00:00	12500	183	-59.9	-76.0	359	6	
2025-10-16T00:00	12550	182	-59.5	-76.4	349	6	
2025-10-16T00:00	12600	181	-59.1	-76.6	341	6	
2025-10-16T00:00	12650	179	-59.5	-76.9	340	7	
2025-10-16T00:00	12700	178	-59.6	-77.2	342	7	
2025-10-16T00:00	12750	176	-59.1	-77.6	338	8	
2025-10-16T00:00	12800	175	-59.1	-78.0	334	8	
2025-10-16T00:00	12850	174	-59.2	-78.2	335	9	
2025-10-16T00:00	12900	172	-59.2	-78.7	340	9	
2025-10-16T00:00	12950	171	-58.9	-79.1	343	9	
2025-10-16T00:00	13000	169	-59.1	-79.4	342	9	
2025-10-16T00:00	13050	168	-59.3	-80.0	341	9	
2025-10-16T00:00	13100	167	-59.3	-80.6	341	9	
2025-10-16T00:00	13150	165	-59.1	-81.0	342	9	
2025-10-16T00:00	13200	164	-59.2	-81.2	341	9	
2025-10-16T00:00	13250	163	-59.4	-81.1	341	9	
2025-10-16T00:00	13300	161	-59.7	-81.1	341	9	
2025-10-16T00:00	13350	160	-59.9	-81.1	343	9	
2025-10-16T00:00	13400	159	-59.9	-81.1	346	9	
2025-10-16T00:00	13450	158	-59.9	-81.3	350	8	
2025-10-16T00:00	13500	156	-59.9	-81.5	353	8	
2025-10-16T00:00	13550	155	-59.7	-81.5	354	8	
2025-10-16T00:00	13600	154	-59.5	-81.8	355	7	
2025-10-16T00:00	13650	153	-59.1	-82.2	353	6	
2025-10-16T00:00	13700	151	-58.9	-82.3	350	5	
2025-10-16T00:00	13750	150	-58.8	-82.5	347	4	
2025-10-16T00:00	13800	149	-58.4	-82.4	350	5	
2025-10-16T00:00	13850	148	-58.3	-82.4	350	6	
2025-10-16T00:00	13900	147	-58.6	-82.5	346	6	
2025-10-16T00:00	13950	146	-58.8	-82.4	347	6	
2025-10-16T00:00	14000	144	-59.1	-82.5	350	7	
2025-10-16T00:00	14050	143	-59.4	-82.6	352	7	
2025-10-16T00:00	14100	142	-59.6	-82.7	351	7	
2025-10-16T00:00	14150	141	-59.9	-82.8	346	7	
2025-10-16T00:00	14200	140	-60.0	-82.8	341	7	
2025-10-16T00:00	14250	139	-60.2	-82.9	337	6	
2025-10-16T00:00	14300	138	-60.5	-83.0	333	6	
2025-10-16T00:00	14350	137	-60.7	-83.2	327	5	
2025-10-16T00:00	14400	135	-60.6	-83.3	322	5	
2025-10-16T00:00	14450	134	-60.3	-83.3	323	5	
2025-10-16T00:00	14500	133	-60.0	-83.3	325	6	
2025-10-16T00:00	14550	132	-60.2	-83.3	329	7	
2025-10-16T00:00	14600	131	-60.5	-83.4	338	8	
2025-10-16T00:00	14650	130	-60.5	-83.6	348	8	
2025-10-16T00:00	14700	129	-60.5	-83.8	354	8	
2025-10-16T00:00	14750	128	-60.5	-83.9	356	7	
2025-10-16T00:00	14800	127	-60.3	-83.9	357	5	
2025-10-16T00:00	14850	126	-60.3	-84.0	353	4	
2025-10-16T00:00	14900	125	-60.3	-84.0	337	4	
2025-10-16T00:00	14950	124	-60.4	-83.9	325	5	
2025-10-16T00:00	15000	123	-60.6	-83.9	321	6	
2025-10-16T00:00	15050	122	-60.9	-83.9	321	7	
2025-10-16T00:00	15100	121	-61.4	-84.0	321	8	
2025-10-16T00:00	15150	120	-61.7	-84.0	323	9	
2025-10-16T00:00	15200	119	-62.1	-84.1	327	9	
2025-10-16T00:00	15250	118	-62.4	-84.2	331	10	
2025-10-16T00:00	15300	117	-62.6	-84.3	334	10	
2025-10-16T00:00	15350	116	-62.7	-84.3	339	10	
2025-10-16T00:00	15400	115	-62.8	-84.4	346	10	
2025-10-16T00:00	15450	114	-63.0	-84.6	357	9	
2025-10-16T00:00	15500	113	-62.8	-84.5	7	8	
2025-10-16T00:00	15550	113	-62.6	-84.5	14	6	
2025-10-16T00:00	15600	112	-62.7	-84.5	19	5	
2025-10-16T00:00	15650	111	-62.8	-84.5	23	4	
2025-10-16T00:00	15700	110	-63.0	-84.7	26	2	
2025-10-16T00:00	15750	109	-62.6	-84.6	322	1	
2025-10-16T00:00	15800	108	-62.2	-84.6	276	2	
2025-10-16T00:00	15850	107	-61.9	-84.5	287	3	
2025-10-16T00:00	15900	106	-62.1	-84.6	302	4	
2025-10-16T00:00	15950	105	-62.2	-84.6	310	5	
2025-10-16T00:00	16000	105	-62.4	-84.6	315	5	
2025-10-16T00:00	16050	104	-62.8	-84.7	322	5	
2025-10-16T00:00	16100	103	-62.8	-84.8	326	5	
2025-10-16T00:00	16150	102	-62.7	-84.9	324	5	
2025-10-16T00:00	16200	101	-62.6	-84.9	321	6	
2025-10-16T00:00	16250	100	-62.5	-85.1	323	6	
2025-10-16T00:00	16300	100	-62.2	-85.0	330	7	
2025-10-16T00:00	16350	99	-62.5	-85.2	339	8	
2025-10-16T00:00	16400	98	-62.7	-85.2	346	9	
2025-10-16T00:00	16450	97	-62.8	-85.4	352	9	
2025-10-16T00:00	16500	96	-62.6	-85.5	358	9	
2025-10-16T00:00	16550	96	-62.4	-85.6	2	8	
2025-10-16T00:00	16600	95	-62.2	-85.5	5	7	
2025-10-16T00:00	16650	94	-62.2	-85.5	6	6	
2025-10-16T00:00	16700	93	-62.3	-85.5	3	5	
2025-10-16T00:00	16750	93	-62.5	-85.6	0	6	
2025-10-16T00:00	16800	92	-62.5	-85.6	360	7	
2025-10-16T00:00	16850	91	-62.5	-85.7	357	8	
2025-10-16T00:00	16900	90	-62.6	-85.8	353	8	
2025-10-16T00:00	16950	90	-62.2	-85.7	354	8	
2025-10-16T00:00	17000	89	-62.1	-85.8	356	8	
2025-10-16T00:00	17050	88	-62.2	-85.9	356	8	
2025-10-16T00:00	17100	88	-62.3	-85.9	357	7	
2025-10-16T00:00	17150	87	-62.7	-86.0	2	7	
2025-10-16T00:00	17200	86	-63.0	-86.1	10	7	
2025-10-16T00:00	17250	85	-63.2	-86.2	16	7	
2025-10-16T00:00	17300	85	-63.3	-86.3	18	5	
2025-10-16T00:00	17350	84	-63.2	-86.3	17	4	
2025-10-16T00:00	17400	83	-63.4	-86.5	12	3	
2025-10-16T00:00	17450	83	-63.4	-86.5	351	3	
2025-10-16T00:00	17500	82	-63.4	-86.5	329	3	
2025-10-16T00:00	17550	81	-63.6	-86.6	322	4	
2025-10-16T00:00	17600	81	-63.9	-86.6	322	4	
2025-10-16T00:00	17650	80	-64.2	-86.6	325	5	
2025-10-16T00:00	17700	79	-64.5	-86.8	333	5	
2025-10-16T00:00	17750	79	-64.8	-87.0	337	5	
2025-10-16T00:00	17800	78	-64.6	-87.0	332	6	
2025-10-16T00:00	17850	77	-64.3	-87.0	330	7	
2025-10-16T00:00	17900	77	-64.3	-87.1	337	7	
2025-10-16T00:00	17950	76	-64.2	-87.2	346	7	
2025-10-16T00:00	18000	76	-64.0	-87.2	348	6	
2025-10-16T00:00	18050	75	-64.0	-87.4	343	6	
2025-10-16T00:00	18100	74	-63.2	-87.2	339	6	
2025-10-16T00:00	18150	74	-63.0	-87.2	339	6	
2025-10-16T00:00	18200	73	-63.2	-87.2	341	6	
2025-10-16T00:00	18250	73	-63.3	-87.3	345	7	
2025-10-16T00:00	18300	72	-63.1	-87.2	351	7	
2025-10-16T00:00	18350	71	-63.1	-87.2	360	7	
2025-10-16T00:00	18400	71	-63.1	-87.2	8	6	
2025-10-16T00:00	18450	70	-63.3	-87.4	12	6	
2025-10-16T00:00	18500	70	-63.1	-87.3	14	5	
2025-10-16T00:00	18550	69	-62.9	-87.3	11	3	
2025-10-16T00:00	18600	69	-63.0	-87.3	349	2	
2025-10-16T00:00	18650	68	-63.1	-87.3	307	2	
2025-10-16T00:00	18700	67	-63.4	-87.3	284	3	
2025-10-16T00:00	18750	67	-63.4	-87.3	281	5	
2025-10-16T00:00	18800	66	-63.5	-87.3	289	6	
2025-10-16T00:00	18850	66	-63.6	-87.4	299	6	
2025-10-16T00:00	18900	65	-63.5	-87.4	308	7	
2025-10-16T00:00	18950	65	-63.6	-87.6	317	7	
2025-10-16T00:00	19000	64	-63.2	-87.5	326	7	
2025-10-16T00:00	19050	64	-62.8	-87.4	335	7	
2025-10-16T00:00	19100	63	-62.4	-87.4	342	6	
2025-10-16T00:00	19150	63	-62.1	-87.2	345	5	
2025-10-16T00:00	19200	62	-62.0	-87.3	339	4	
2025-10-16T00:00	19250	62	-61.7	-87.2	316	3	
2025-10-16T00:00	19300	61	-61.4	-87.0	290	4	
2025-10-16T00:00	19350	61	-61.4	-87.0	280	5	
2025-10-16T00:00	19400	60	-61.3	-86.9	278	7	
2025-10-16T00:00	19450	60	-61.5	-86.9	284	8	
2025-10-16T00:00	19500	59	-61.6	-87.1	295	8	
2025-10-16T00:00	19550	59	-61.2	-87.1	307	8	
2025-10-16T00:00	19600	58	-61.1	-87.3	316	8	
2025-10-16T00:00	19650	58	-60.5	-87.2	319	8	
2025-10-16T00:00	19700	57	-59.9	-87.0	321	8	
2025-10-16T00:00	19750	57	-60.1	-86.9	326	7	
2025-10-16T00:00	19800	56	-60.4	-86.8	334	7	
2025-10-16T00:00	19850	56	-60.7	-86.9	341	7	
2025-10-16T00:00	19900	56	-61.0	-87.0	349	6	
2025-10-16T00:00	19950	55	-61.0	-87.1	1	6	
2025-10-16T00:00	20000	55	-60.5	-87.0	16	6	
2025-10-16T00:00	20050	54	-60.6		29	6	
2025-10-16T00:00	20100	54	-60.5		38	5	
2025-10-16T00:00	20150	53	-60.4		46	4	
2025-10-16T00:00	20200	53	-60.6		57	3	
2025-10-16T00:00	20250	52	-60.5		80	2	
2025-10-16T00:00	20300	52	-60.4		140	1	
2025-10-16T00:00	20350	52	-60.5		203	1	
2025-10-16T00:00	20400	51	-60.9		225	3	
2025-10-16T00:00	20450	51	-61.3		234	4	
2025-10-16T00:00	20500	50	-61.5		238	5	
2025-10-16T00:00	20550	50	-61.6		243	5	
2025-10-16T00:00	20600	50	-61.9		254	5	
2025-10-16T00:00	20650	49	-62.0		272	5	
2025-10-16T00:00	20700	49	-62.1		289	5	
2025-10-16T00:00	20750	48	-62.3		304	6	
2025-10-16T00:00	20800	48	-62.4		323	6	
2025-10-16T00:00	20850	48	-62.2		342	6	
2025-10-16T00:00	20900	47	-61.8		358	6	
2025-10-16T00:00	20950	47	-61.6		10	5	
2025-10-16T00:00	21000	47	-61.5		21	5	
2025-10-16T00:00	21050	46	-61.4		31	5	
2025-10-16T00:00	21100	46	-60.8		44	4	
2025-10-16T00:00	21150	45	-60.6		64	3	
2025-10-16T00:00	21200	45	-60.7		95	2	
2025-10-16T00:00	21250	45	-60.6		149	1	
2025-10-16T00:00	21300	44	-60.5		218	1	
2025-10-16T00:00	21350	44	-60.5		238	2	
2025-10-16T00:00	21400	44	-60.3		242	3	
2025-10-16T00:00	21450	43	-60.2		249	4	
2025-10-16T00:00	21500	43	-60.1		263	4	
2025-10-16T00:00	21550	43	-60.0		282	4	
2025-10-16T00:00	21600	42	-60.2		297	4	
2025-10-16T00:00	21650	42	-60.5		306	5	
2025-10-16T00:00	21700	42	-60.9		314	5	
2025-10-16T00:00	21750	41	-61.0		325	5	
2025-10-16T00:00	21800	41	-60.9		331	5	
2025-10-16T00:00	21850	41	-60.5		328	5	
2025-10-16T00:00	21900	40	-60.6		318	4	
2025-10-16T00:00	21950	40	-60.9		307	3	
2025-10-16T00:00	22000	40	-61.0		293	3	
2025-10-16T00:00	22050	39	-61.0		280	4	
2025-10-16T00:00	22100	39	-60.8		271	5	
2025-10-16T00:00	22150	39	-60.2		263	5	
2025-10-16T00:00	22200	38	-60.2		259	6	
2025-10-16T00:00	22250	38	-59.9		260	6	
2025-10-16T00:00	22300	38	-60.1		263	7	
2025-10-16T00:00	22350	37	-60.2		267	6	
2025-10-16T00:00	22400	37	-60.4		271	6	
2025-10-16T00:00	22450	37	-60.2		277	5	
2025-10-16T00:00	22500	37	-60.4		284	4	
2025-10-16T00:00	22550	36	-60.3		287	3	
2025-10-16T00:00	22600	36	-59.6		274	2	
2025-10-16T00:00	22650	36	-59.4		256	2	
2025-10-16T00:00	22700	35	-59.6		253	3	
2025-10-16T00:00	22750	35	-59.6		257	3	
2025-10-16T00:00	22800	35	-59.9		261	4	
2025-10-16T00:00	22850	35	-60.2		263	5	
2025-10-16T00:00	22900	34	-60.4		266	6	
2025-10-16T00:00	22950	34	-60.5		268	8	
2025-10-16T00:00	23000	34	-60.2		272	10	
2025-10-16T00:00	23050	33	-59.9		277	11	
2025-10-16T00:00	23100	33	-58.9		285	10	
2025-10-16T00:00	23150	33	-58.0		296	10	
2025-10-16T00:00	23200	33	-57.7		306	9	
2025-10-16T00:00	23250	32	-57.7		316	8	
2025-10-16T00:00	23300	32	-58.0		329	8	
2025-10-16T00:00	23350	32	-58.0		343	9	
2025-10-16T00:00	23400	32	-57.4		354	10	
2025-10-16T00:00	23450	31	-56.4		2	10	
2025-10-16T00:00	23500	31	-56.0		5	8	
2025-10-16T00:00	23550	31	-56.0		6	7	
2025-10-16T00:00	23600	31	-56.2		6	5	
2025-10-16T00:00	23650	30	-56.3		5	5	
2025-10-16T00:00	23700	30	-56.0		2	4	
2025-10-16T00:00	23750	30	-56.0		353	4	
2025-10-16T00:00	23800	30	-56.2		335	3	
2025-10-16T00:00	23850	29	-56.4		314	3	
2025-10-16T00:00	23900	29	-56.6		295	4	
2025-10-16T00:00	23950	29	-56.8		283	4	
2025-10-16T00:00	24000	29	-57.3		282	5	
2025-10-16T00:00	24050	29	-57.7		284	6	
2025-10-16T00:00	24100	28	-58.1		288	6	
2025-10-16T00:00	24150	28	-58.5		291	7	
2025-10-16T00:00	24200	28	-58.6		294	7	
2025-10-16T00:00	24250	28	-58.5		293	7	
2025-10-16T00:00	24300	27	-58.4		286	6	
2025-10-16T00:00	24350	27	-58.5		279	6	
2025-10-16T00:00	24400	27	-58.8		273	6	
2025-10-16T00:00	24450	27	-58.8		269	7	
2025-10-16T00:00	24500	27	-58.7		272	7	
2025-10-16T00:00	24550	26	-58.6		280	7	
2025-10-16T00:00	24600	26	-58.3		289	6	
2025-10-16T00:00	24650	26	-57.9		298	6	
2025-10-16T00:00	24700	26	-57.2		308	5	
2025-10-16T00:00	24750	26	-57.1		318	4	
2025-10-16T00:00	24800	25	-57.1		315	3	
2025-10-16T00:00	24850	25	-57.0		288	3	
2025-10-16T00:00	24900	25	-56.9		263	4	
2025-10-16T00:00	24950	25	-56.9		252	5	
2025-10-16T00:00	25000	25	-56.8		250	5	
2025-10-16T00:00	25050	24	-56.9		256	6	
2025-10-16T00:00	25100	24	-57.1		261	6	
2025-10-16T00:00	25150	24	-57.2		262	7	
2025-10-16T00:00	25200	24	-57.4		261	8	
2025-10-16T00:00	25250	24	-57.7		261	8	
2025-10-16T00:00	25300	23	-58.0		264	8	
2025-10-16T00:00	25350	23	-58.0		272	7	
2025-10-16T00:00	25400	23	-58.1		281	7	
2025-10-16T00:00	25450	23	-58.3		286	6	
2025-10-16T00:00	25500	23	-58.3		286	7	
2025-10-16T00:00	25550	23	-58.1		284	8	
2025-10-16T00:00	25600	22	-58.0		282	8	
2025-10-16T00:00	25650	22	-58.0		279	8	
2025-10-16T00:00	25700	22	-57.7		273	7	
2025-10-16T00:00	25750	22	-57.7		265	6	
2025-10-16T00:00	25800	22	-57.3		262	7	
2025-10-16T00:00	25850	21	-56.8		260	8	
2025-10-16T00:00	25900	21	-56.6		254	9	
2025-10-16T00:00	25950	21	-56.3		248	9	
2025-10-16T00:00	26000	21	-55.5		245	9	
2025-10-16T00:00	26050	21	-54.9		250	8	
2025-10-16T00:00	26100	21	-54.2		257	8	
2025-10-16T00:00	26150	20	-54.0		262	9	
2025-10-16T00:00	26200	20	-53.6		265	10	
2025-10-16T00:00	26250	20	-53.5		267	11	
2025-10-16T00:00	26300	20	-53.3		266	11	
2025-10-16T00:00	26350	20	-53.4		263	11	
2025-10-16T00:00	26400	20	-53.4		262	11	
2025-10-16T00:00	26450	20	-53.6		263	11	
2025-10-16T00:00	26500	19	-53.8		265	11	
2025-10-16T00:00	26550	19	-53.7		268	10	
2025-10-16T00:00	26600	19	-53.9		272	9	
2025-10-16T00:00	26650	19	-53.9		275	8	
2025-10-16T00:00	26700	19	-53.1		275	7	
2025-10-16T00:00	26750	19	-52.1		270	7	
2025-10-16T00:00	26800	19	-52.1		265	8	
2025-10-16T00:00	26850	18	-52.2		263	10	
2025-10-16T00:00	26900	18	-51.9		266	11	
2025-10-16T00:00	26950	18	-51.8		270	12	
2025-10-16T00:00	27000	18	-51.9		273	13	
2025-10-16T00:00	27050	18	-52.0		274	13	
2025-10-16T00:00	27100	18	-52.0		272	13	
2025-10-16T00:00	27150	18	-52.1		271	14	
2025-10-16T00:00	27200	17	-52.0		269	14	
2025-10-16T00:00	27250	17	-51.9		267	15	
2025-10-16T00:00	27300	17	-52.0		264	15	
2025-10-16T00:00	27350	17	-52.1		262	16	
2025-10-16T00:00	27400	17	-52.2		262	17	
2025-10-16T00:00	27450	17	-52.1		263	17	
2025-10-16T00:00	27500	17	-51.7		267	17	
2025-10-16T00:00	27550	16	-51.7		271	17	
2025-10-16T00:00	27600	16	-51.3		275	16	
2025-10-16T00:00	27650	16	-51.2		279	16	
2025-10-16T00:00	27700	16	-51.3		283	16	
2025-10-16T00:00	27750	16	-51.6		286	15	
2025-10-16T00:00	27800	16	-51.7		291	15	
2025-10-16T00:00	27850	16	-52.1		294	15	
2025-10-16T00:00	27900	16	-52.3		295	14	
2025-10-16T00:00	27950	16	-52.0		295	14	
2025-10-16T00:00	28000	15	-51.9		293	13	
2025-10-16T00:00	28050	15	-52.1		291	14	
2025-10-16T00:00	28100	15	-52.1		290	14	
2025-10-16T00:00	28150	15	-52.4		289	14	
2025-10-16T00:00	28200	15	-52.6		289	13	
2025-10-16T00:00	28250	15	-52.5		289	12	
2025-10-16T00:00	28300	15	-52.6		288	11	
2025-10-16T00:00	28350	15	-52.8		285	11	
2025-10-16T00:00	28400	14	-52.7		281	11	
2025-10-16T00:00	28450	14	-52.2		277	11	
2025-10-16T00:00	28500	14	-52.1		273	12	
2025-10-16T00:00	28550	14	-52.1		269	12	
2025-10-16T00:00	28600	14	-52.0		265	13	
2025-10-16T00:00	28650	14	-52.0		264	14	
2025-10-16T00:00	28700	14	-51.9		264	14	
2025-10-16T00:00	28750	14	-51.9		264	13	
2025-10-16T00:00	28800	14	-51.5		265	12	
2025-10-16T00:00	28850	13	-51.6		265	12	
2025-10-16T00:00	28900	13	-52.0		265	11	
2025-10-16T00:00	28950	13	-52.4		266	10	
2025-10-16T00:00	29000	13	-52.4		266	10	
2025-10-16T00:00	29050	13	-52.6		265	9	
2025-10-16T00:00	29100	13	-52.8		261	9	
2025-10-16T00:00	29150	13	-52.9		256	10	
2025-10-16T00:00	29200	13	-52.9		250	10	
2025-10-16T00:00	29250	13	-52.5		246	10	
2025-10-16T00:00	29300	13	-52.3		245	11	
2025-10-16T00:00	29350	12	-51.7		247	12	
2025-10-16T00:00	29400	12	-51.3		251	14	
2025-10-16T00:00	29450	12	-50.8		255	14	
2025-10-16T00:00	29500	12	-50.4		260	14	
2025-10-16T00:00	29550	12	-50.5		265	14	
2025-10-16T00:00	29600	12	-50.6		270	14	
2025-10-16T00:00	29650	12	-50.9		273	14	
2025-10-16T00:00	29700	12	-51.0		275	13	
2025-10-16T00:00	29750	12	-50.9		274	13	
2025-10-16T00:00	29800	12	-50.9		274	13	
2025-10-16T00:00	29850	12	-50.8		277	13	
2025-10-16T00:00	29900	11	-50.4		282	13	
2025-10-16T00:00	29950	11	-50.6		285	13	
2025-10-16T00:00	30000	11	-50.6		282	12	
2025-10-16T00:00	30050	11	-50.2		276	12	
2025-10-16T00:00	30100	11	-49.9		267	12	
2025-10-16T00:00	30150	11	-49.5		261	14	
2025-10-16T00:00	30200	11	-49.0		257	15	
2025-10-16T00:00	30250	11	-48.9		256	17	
2025-10-16T00:00	30300	11	-48.7		256	18	
2025-10-16T00:00	30350	11	-48.4		257	18	
2025-10-16T00:00	30400	11	-47.8		257	17	
2025-10-16T00:00	30450	11	-47.6		258	16	
2025-10-16T12:00	491	964	11.4	7.5	37	3	
2025-10-16T12:00	501	963	11.0	7.3	39	2	
2025-10-16T12:00	520	961	10.7	7.0	40	3	
2025-10-16T12:00	540	959	10.5	6.7	40	3	
2025-10-16T12:00	560	956	10.3	6.7	39	3	
2025-10-16T12:00	580	954	10.1	6.6	39	4	
2025-10-16T12:00	600	952	9.9	6.6	39	4	
2025-10-16T12:00	620	949	9.7	6.7	40	4	
2025-10-16T12:00	640	947	9.5	6.6	41	4	
2025-10-16T12:00	660	945	9.3	6.6	42	4	
2025-10-16T12:00	680	943	9.1	6.6	45	4	
2025-10-16T12:00	700	940	9.0	6.6	47	3	
2025-10-16T12:00	720	938	8.7	6.6	49	3	
2025-10-16T12:00	740	936	8.5	6.6	50	3	
2025-10-16T12:00	760	933	8.3	6.4	50	3	
2025-10-16T12:00	780	931	8.2	6.2	49	3	
2025-10-16T12:00	800	929	8.0	6.0	47	3	
2025-10-16T12:00	820	927	7.8	6.2	44	3	
2025-10-16T12:00	840	925	7.6	5.9	42	3	
2025-10-16T12:00	860	922	7.5	5.7	40	3	
2025-10-16T12:00	880	920	7.3	5.7	41	3	
2025-10-16T12:00	900	918	7.1	5.6	42	4	
2025-10-16T12:00	920	916	6.9	5.6	44	4	
2025-10-16T12:00	940	913	6.7	5.3	48	3	
2025-10-16T12:00	960	911	6.6	5.0	51	3	
2025-10-16T12:00	980	909	6.4	5.0	55	3	
2025-10-16T12:00	1000	907	6.3	4.8	59	3	
2025-10-16T12:00	1020	905	6.1	4.8	62	3	
2025-10-16T12:00	1040	902	5.9	4.8	66	3	
2025-10-16T12:00	1060	900	5.7	4.8	69	3	
2025-10-16T12:00	1080	898	5.6	4.7	71	3	
2025-10-16T12:00	1100	896	5.4	4.7	71	3	
2025-10-16T12:00	1120	893	5.2	4.6	71	3	
2025-10-16T12:00	1140	891	5.0	4.5	70	3	
2025-10-16T12:00	1160	889	4.8	4.3	69	3	
2025-10-16T12:00	1180	887	4.7	4.4	68	3	
2025-10-16T12:00	1200	885	4.5	4.3	67	3	
2025-10-16T12:00	1220	883	4.3	4.3	66	3	
2025-10-16T12:00	1240	881	4.2	4.2	66	3	
2025-10-16T12:00	1260	878	4.2	4.2	67	3	
2025-10-16T12:00	1280	876	4.1	4.1	69	2	
2025-10-16T12:00	1300	874	4.0	4.0	71	2	
2025-10-16T12:00	1320	872	3.9	3.9	75	2	
2025-10-16T12:00	1340	870	3.8	3.8	80	1	
2025-10-16T12:00	1360	868	3.7	3.7	85	1	
2025-10-16T12:00	1380	865	3.6	3.6	89	1	
2025-10-16T12:00	1400	863	3.5	3.5	92	1	
2025-10-16T12:00	1420	861	3.4	3.4	91	1	
2025-10-16T12:00	1440	859	3.3	3.3	83	0	
2025-10-16T12:00	1460	857	3.1	3.1	271	0	
2025-10-16T12:00	1480	855	3.0	3.0	263	1	
2025-10-16T12:00	1500	853	3.2	3.2	257	1	
2025-10-16T12:00	1520	851	4.3	3.4	251	2	
2025-10-16T12:00	1540	849	4.6	3.8	244	3	
2025-10-16T12:00	1560	846	4.7	4.2	239	4	
2025-10-16T12:00	1580	844	5.0	4.6	236	4	
2025-10-16T12:00	1600	842	5.2	4.6	234	5	
2025-10-16T12:00	1620	840	5.5	4.7	232	5	
2025-10-16T12:00	1640	838	5.6	4.3	231	6	
2025-10-16T12:00	1660	836	5.6	3.8	231	6	
2025-10-16T12:00	1680	834	5.6	3.8	231	6	
2025-10-16T12:00	1700	832	5.6	4.0	230	6	
2025-10-16T12:00	1720	830	5.6	4.1	230	6	
2025-10-16T12:00	1740	828	5.6	4.2	230	6	
2025-10-16T12:00	1760	826	5.5	4.1	231	5	
2025-10-16T12:00	1780	824	5.4	3.9	233	5	
2025-10-16T12:00	1800	822	5.3	3.6	236	5	
2025-10-16T12:00	1820	820	5.2	3.5	240	4	
2025-10-16T12:00	1840	818	5.1	2.8	245	4	
2025-10-16T12:00	1860	816	5.0	2.3	251	3	
2025-10-16T12:00	1880	814	4.9	2.1	254	3	
2025-10-16T12:00	1900	812	4.8	2.1	256	3	
2025-10-16T12:00	1920	810	4.7	2.0	255	2	
2025-10-16T12:00	1940	808	4.6	1.5	248	2	
2025-10-16T12:00	1960	806	4.6	0.9	233	2	
2025-10-16T12:00	1980	804	4.5	0.3	213	2	
2025-10-16T12:00	2000	802	4.6	-0.8	197	2	
2025-10-16T12:00	2020	800	4.6	-1.7	186	2	
2025-10-16T12:00	2040	798	4.9	-3.4	179	2	
2025-10-16T12:00	2060	796	5.0	-3.8	174	2	
2025-10-16T12:00	2080	794	5.0	-4.5	170	2	
2025-10-16T12:00	2100	792	4.9	-5.3	166	2	
2025-10-16T12:00	2120	790	4.8	-5.9	163	2	
2025-10-16T12:00	2140	789	4.6	-6.7	158	2	
2025-10-16T12:00	2160	787	4.5	-7.1	153	2	
2025-10-16T12:00	2180	785	4.4	-7.9	147	2	
2025-10-16T12:00	2200	783	4.3	-9.4	142	2	
2025-10-16T12:00	2220	781	4.4	-10.0	137	2	
2025-10-16T12:00	2240	779	4.3	-9.5	132	2	
2025-10-16T12:00	2260	777	4.2	-9.0	126	2	
2025-10-16T12:00	2280	775	4.1	-8.9	118	2	
2025-10-16T12:00	2300	773	4.0	-10.1	108	1	
2025-10-16T12:00	2320	771	4.0	-11.2	97	1	
2025-10-16T12:00	2340	769	3.8	-11.7	88	2	
2025-10-16T12:00	2360	767	3.7	-12.4	81	2	
2025-10-16T12:00	2380	766	3.6	-13.0	77	2	
2025-10-16T12:00	2400	764	3.5	-14.0	75	2	
2025-10-16T12:00	2420	762	3.4	-16.2	75	3	
2025-10-16T12:00	2440	760	3.3	-18.3	74	3	
2025-10-16T12:00	2460	758	3.2	-22.0	74	3	
2025-10-16T12:00	2480	756	3.2	-26.1	75	4	
2025-10-16T12:00	2500	754	3.3	-28.0	75	4	
2025-10-16T12:00	2520	753	3.4	-29.4	76	4	
2025-10-16T12:00	2540	751	3.4	-32.8	76	5	
2025-10-16T12:00	2560	749	3.4	-32.7	76	5	
2025-10-16T12:00	2580	747	3.2	-30.0	75	5	
2025-10-16T12:00	2600	745	3.1	-24.7	74	5	
2025-10-16T12:00	2620	743	3.1	-20.9	72	5	
2025-10-16T12:00	2640	741	3.0	-20.2	71	5	
2025-10-16T12:00	2660	740	2.9	-18.5	70	5	
2025-10-16T12:00	2680	738	2.8	-17.6	70	5	
2025-10-16T12:00	2700	736	2.7	-17.5	71	5	
2025-10-16T12:00	2720	734	2.6	-17.3	73	5	
2025-10-16T12:00	2740	732	2.4	-15.9	74	5	
2025-10-16T12:00	2760	731	2.3	-16.2	74	5	
2025-10-16T12:00	2780	729	2.2	-21.3	74	5	
2025-10-16T12:00	2800	727	2.2	-23.1	72	5	
2025-10-16T12:00	2820	725	2.1	-21.5	71	6	
2025-10-16T12:00	2840	723	2.1	-20.8	69	6	
2025-10-16T12:00	2860	722	1.9	-20.2	68	6	
2025-10-16T12:00	2880	720	1.8	-19.3	66	6	
2025-10-16T12:00	2900	718	1.6	-18.7	66	6	
2025-10-16T12:00	2920	716	1.4	-17.7	66	6	
2025-10-16T12:00	2940	714	1.3	-17.3	66	6	
2025-10-16T12:00	2960	713	1.2	-17.5	66	6	
2025-10-16T12:00	2980	711	1.1	-17.6	65	6	
2025-10-16T12:00	3000	709	0.9	-17.8	64	6	
2025-10-16T12:00	3020	707	0.8	-17.8	62	6	
2025-10-16T12:00	3040	706	0.7	-17.1	59	6	
2025-10-16T12:00	3060	704	0.5	-16.6	56	6	
2025-10-16T12:00	3080	702	0.4	-16.7	54	6	
2025-10-16T12:00	3100	700	0.3	-17.1	53	6	
2025-10-16T12:00	3120	698	0.2	-17.1	52	6	
2025-10-16T12:00	3140	697	0.1	-16.8	53	7	
2025-10-16T12:00	3160	695	-0.1	-17.1	53	7	
2025-10-16T12:00	3180	693	-0.2	-17.2	54	7	
2025-10-16T12:00	3200	692	-0.4	-17.5	54	7	
2025-10-16T12:00	3220	690	-0.5	-17.6	52	7	
2025-10-16T12:00	3240	688	-0.6	-18.0	51	7	
2025-10-16T12:00	3260	686	-0.7	-19.3	50	8	
2025-10-16T12:00	3280	685	-0.7	-19.1	49	8	
2025-10-16T12:00	3300	683	-0.8	-18.9	48	8	
2025-10-16T12:00	3320	681	-0.9	-19.5	47	8	
2025-10-16T12:00	3340	679	-1.1	-19.9	48	8	
2025-10-16T12:00	3360	678	-1.2	-20.3	49	8	
2025-10-16T12:00	3380	676	-1.3	-20.9	51	8	
2025-10-16T12:00	3400	674	-1.4	-21.9	53	8	
2025-10-16T12:00	3420	673	-1.5	-23.1	54	8	
2025-10-16T12:00	3440	671	-1.6	-22.0	56	8	
2025-10-16T12:00	3460	669	-1.7	-21.3	57	8	
2025-10-16T12:00	3480	667	-1.9	-21.1	58	8	
2025-10-16T12:00	3500	666	-2.0	-21.1	59	8	
2025-10-16T12:00	3520	664	-2.2	-21.4	59	7	
2025-10-16T12:00	3540	663	-2.2	-21.7	59	7	
2025-10-16T12:00	3560	661	-2.3	-21.5	59	7	
2025-10-16T12:00	3580	659	-2.5	-21.2	59	6	
2025-10-16T12:00	3600	657	-2.6	-22.1	60	6	
2025-10-16T12:00	3620	656	-2.7	-22.9	61	6	
2025-10-16T12:00	3640	654	-2.8	-22.6	62	6	
2025-10-16T12:00	3660	653	-2.9	-22.7	62	6	
2025-10-16T12:00	3680	651	-3.0	-22.6	61	6	
2025-10-16T12:00	3700	649	-3.2	-21.4	61	6	
2025-10-16T12:00	3720	648	-3.4	-19.9	60	6	
2025-10-16T12:00	3740	646	-3.6	-20.1	59	6	
2025-10-16T12:00	3760	644	-3.7	-21.6	58	6	
2025-10-16T12:00	3780	643	-3.8	-22.7	58	6	
2025-10-16T12:00	3800	641	-3.9	-20.6	58	6	
2025-10-16T12:00	3820	640	-4.1	-20.3	57	6	
2025-10-16T12:00	3840	638	-4.3	-20.5	57	6	
2025-10-16T12:00	3860	636	-4.4	-21.1	57	6	
2025-10-16T12:00	3880	635	-4.6	-21.2	57	6	
2025-10-16T12:00	3900	633	-4.8	-20.9	57	6	
2025-10-16T12:00	3920	632	-5.0	-21.2	57	6	
2025-10-16T12:00	3940	630	-5.1	-20.9	56	6	
2025-10-16T12:00	3960	628	-5.3	-20.9	54	7	
2025-10-16T12:00	3980	627	-5.5	-20.9	52	7	
2025-10-16T12:00	4000	625	-5.6	-21.5	50	7	
2025-10-16T12:00	4020	623	-5.8	-22.5	48	8	
2025-10-16T12:00	4040	622	-5.9	-23.5	46	8	
2025-10-16T12:00	4060	620	-6.0	-23.4	44	8	
2025-10-16T12:00	4080	619	-6.2	-22.7	43	8	
2025-10-16T12:00	4100	617	-6.4	-22.2	44	8	
2025-10-16T12:00	4120	616	-6.6	-22.1	45	8	
2025-10-16T12:00	4140	614	-6.8	-22.3	47	8	
2025-10-16T12:00	4160	612	-7.0	-22.4	49	8	
2025-10-16T12:00	4180	611	-7.1	-22.6	52	8	
2025-10-16T12:00	4200	609	-7.3	-22.6	55	8	
2025-10-16T12:00	4220	608	-7.5	-22.7	56	8	
2025-10-16T12:00	4240	606	-7.7	-22.5	55	8	
2025-10-16T12:00	4260	605	-7.9	-22.5	53	8	
2025-10-16T12:00	4280	603	-8.1	-22.6	50	7	
2025-10-16T12:00	4300	602	-8.3	-22.6	48	7	
2025-10-16T12:00	4320	600	-8.4	-22.6	46	7	
2025-10-16T12:00	4340	598	-8.6	-23.2	44	8	
2025-10-16T12:00	4360	597	-8.8	-23.6	44	8	
2025-10-16T12:00	4380	595	-8.9	-23.7	43	8	
2025-10-16T12:00	4400	594	-9.1	-23.9	43	8	
2025-10-16T12:00	4420	592	-9.3	-24.1	42	8	
2025-10-16T12:00	4440	591	-9.4	-24.6	42	8	
2025-10-16T12:00	4460	589	-9.6	-24.9	42	7	
2025-10-16T12:00	4480	588	-9.7	-25.3	42	7	
2025-10-16T12:00	4500	586	-9.9	-25.6	43	6	
2025-10-16T12:00	4520	585	-10.0	-26.0	45	6	
2025-10-16T12:00	4540	583	-10.1	-26.1	47	6	
2025-10-16T12:00	4560	582	-10.3	-25.7	50	6	
2025-10-16T12:00	4580	580	-10.4	-25.3	51	6	
2025-10-16T12:00	4600	579	-10.5	-25.3	50	6	
2025-10-16T12:00	4620	577	-10.7	-25.3	48	6	
2025-10-16T12:00	4640	576	-10.9	-25.5	45	7	
2025-10-16T12:00	4660	574	-11.0	-25.9	43	7	
2025-10-16T12:00	4680	573	-11.2	-26.5	40	7	
2025-10-16T12:00	4700	571	-11.2	-28.9	38	7	
2025-10-16T12:00	4720	570	-11.3	-29.5	36	7	
2025-10-16T12:00	4740	568	-11.3	-30.6	36	7	
2025-10-16T12:00	4760	567	-11.4	-30.9	35	7	
2025-10-16T12:00	4780	565	-11.5	-31.2	35	6	
2025-10-16T12:00	4800	564	-11.7	-31.9	34	6	
2025-10-16T12:00	4820	562	-11.8	-32.0	33	6	
2025-10-16T12:00	4840	561	-12.0	-31.9	32	6	
2025-10-16T12:00	4860	559	-12.1	-31.4	30	6	
2025-10-16T12:00	4880	558	-12.3	-30.2	30	6	
2025-10-16T12:00	4900	556	-12.4	-29.8	30	6	
2025-10-16T12:00	4920	555	-12.6	-29.4	31	6	
2025-10-16T12:00	4940	553	-12.7	-28.5	32	6	
2025-10-16T12:00	4960	552	-12.8	-28.6	33	6	
2025-10-16T12:00	4980	551	-12.9	-29.0	33	6	
2025-10-16T12:00	5000	549	-13.0	-29.9	33	7	
2025-10-16T12:00	5020	548	-13.1	-30.3	33	7	
2025-10-16T12:00	5040	546	-13.1	-30.7	33	7	
2025-10-16T12:00	5060	545	-13.2	-31.4	32	7	
2025-10-16T12:00	5080	543	-13.4	-33.3	32	8	
2025-10-16T12:00	5100	542	-13.5	-33.7	31	7	
2025-10-16T12:00	5120	541	-13.6	-33.4	31	7	
2025-10-16T12:00	5140	539	-13.8	-33.3	32	7	
2025-10-16T12:00	5160	538	-13.9	-32.9	33	7	
2025-10-16T12:00	5180	536	-14.1	-33.0	34	6	
2025-10-16T12:00	5200	535	-14.3	-33.2	36	6	
2025-10-16T12:00	5220	533	-14.4	-33.5	37	6	
2025-10-16T12:00	5240	532	-14.6	-33.0	37	6	
2025-10-16T12:00	5260	531	-14.8	-32.2	36	5	
2025-10-16T12:00	5280	529	-14.9	-31.1	34	5	
2025-10-16T12:00	5300	528	-15.1	-29.3	31	5	
2025-10-16T12:00	5320	527	-15.2	-29.4	28	5	
2025-10-16T12:00	5340	525	-15.4	-29.5	26	5	
2025-10-16T12:00	5360	524	-15.6	-29.7	25	5	
2025-10-16T12:00	5380	522	-15.9	-30.1	27	4	
2025-10-16T12:00	5400	521	-16.0	-30.9	31	4	
2025-10-16T12:00	5420	520	-16.2	-31.1	35	4	
2025-10-16T12:00	5440	518	-16.4	-31.2	38	4	
2025-10-16T12:00	5460	517	-16.6	-31.4	38	4	
2025-10-16T12:00	5480	515	-16.8	-31.6	36	4	
2025-10-16T12:00	5500	514	-16.9	-32.3	32	4	
2025-10-16T12:00	5520	513	-17.0	-34.5	28	5	
2025-10-16T12:00	5540	511	-17.1	-37.9	26	5	
2025-10-16T12:00	5560	510	-17.2	-38.3	26	6	
2025-10-16T12:00	5580	509	-17.3	-38.7	26	6	
2025-10-16T12:00	5600	507	-17.4	-38.8	27	6	
2025-10-16T12:00	5620	506	-17.6	-39.0	27	7	
2025-10-16T12:00	5640	505	-17.7	-39.7	27	7	
2025-10-16T12:00	5660	503	-17.8	-40.0	27	7	
2025-10-16T12:00	5680	502	-17.9	-40.4	27	7	
2025-10-16T12:00	5700	500	-18.0	-40.9	27	7	
2025-10-16T12:00	5720	499	-18.1	-41.0	27	7	
2025-10-16T12:00	5740	498	-18.2	-41.7	28	7	
2025-10-16T12:00	5760	496	-18.3	-42.6	29	7	
2025-10-16T12:00	5780	495	-18.4	-42.8	31	7	
2025-10-16T12:00	5800	494	-18.5	-42.9	32	7	
2025-10-16T12:00	5820	492	-18.6	-43.1	33	7	
2025-10-16T12:00	5840	491	-18.8	-43.1	35	7	
2025-10-16T12:00	5860	490	-18.9	-43.1	36	7	
2025-10-16T12:00	5880	489	-19.1	-43.1	36	7	
2025-10-16T12:00	5900	487	-19.2	-43.2	35	6	
2025-10-16T12:00	5920	486	-19.3	-43.3	33	6	
2025-10-16T12:00	5940	485	-19.5	-43.3	32	6	
2025-10-16T12:00	5960	483	-19.6	-43.3	30	6	
2025-10-16T12:00	5980	482	-19.7	-43.1	30	6	
2025-10-16T12:00	6000	481	-19.9	-43.0	30	6	
2025-10-16T12:00	6020	479	-20.0	-42.9	30	6	
2025-10-16T12:00	6040	478	-20.2	-42.9	31	6	
2025-10-16T12:00	6060	477	-20.4	-43.0	32	5	
2025-10-16T12:00	6080	476	-20.5	-43.3	33	5	
2025-10-16T12:00	6100	474	-20.6	-43.9	33	5	
2025-10-16T12:00	6120	473	-20.7	-44.1	33	6	
2025-10-16T12:00	6140	472	-20.8	-44.1	32	6	
2025-10-16T12:00	6160	470	-21.0	-44.3	32	6	
2025-10-16T12:00	6180	469	-21.2	-44.3	31	7	
2025-10-16T12:00	6200	468	-21.4	-44.4	30	7	
2025-10-16T12:00	6220	467	-21.5	-44.5	28	8	
2025-10-16T12:00	6240	465	-21.7	-44.6	26	8	
2025-10-16T12:00	6260	464	-21.8	-44.4	24	8	
2025-10-16T12:00	6280	463	-22.0	-43.1	20	8	
2025-10-16T12:00	6300	461	-22.2	-42.9	17	8	
2025-10-16T12:00	6320	460	-22.3	-43.0	14	7	
2025-10-16T12:00	6340	459	-22.6	-43.1	12	7	
2025-10-16T12:00	6360	458	-22.8	-42.8	11	7	
2025-10-16T12:00	6380	456	-22.9	-42.7	11	7	
2025-10-16T12:00	6400	455	-23.0	-42.7	11	7	
2025-10-16T12:00	6420	454	-23.2	-42.8	11	7	
2025-10-16T12:00	6440	453	-23.4	-42.8	10	6	
2025-10-16T12:00	6460	452	-23.5	-42.9	9	6	
2025-10-16T12:00	6480	450	-23.7	-43.0	9	6	
2025-10-16T12:00	6500	449	-23.8	-43.3	9	6	
2025-10-16T12:00	6520	448	-23.9	-43.6	11	5	
2025-10-16T12:00	6540	447	-24.0	-43.8	14	5	
2025-10-16T12:00	6560	445	-24.1	-43.9	17	5	
2025-10-16T12:00	6580	444	-24.2	-42.9	20	6	
2025-10-16T12:00	6600	443	-24.4	-41.4	22	6	
2025-10-16T12:00	6620	442	-24.6	-41.3	23	6	
2025-10-16T12:00	6640	441	-24.8	-40.6	22	6	
2025-10-16T12:00	6660	439	-24.9	-39.8	22	6	
2025-10-16T12:00	6680	438	-25.1	-39.8	20	6	
2025-10-16T12:00	6700	437	-25.3	-40.1	19	6	
2025-10-16T12:00	6720	436	-25.5	-41.4	18	6	
2025-10-16T12:00	6740	435	-25.6	-41.8	16	5	
2025-10-16T12:00	6760	433	-25.8	-41.2	15	5	
2025-10-16T12:00	6780	432	-25.9	-41.5	12	5	
2025-10-16T12:00	6800	431	-26.0	-42.6	10	5	
2025-10-16T12:00	6820	430	-26.2	-42.6	8	5	
2025-10-16T12:00	6840	428	-26.4	-42.5	5	5	
2025-10-16T12:00	6860	427	-26.5	-42.5	3	5	
2025-10-16T12:00	6880	426	-26.7	-42.5	1	5	
2025-10-16T12:00	6900	425	-26.9	-42.6	1	5	
2025-10-16T12:00	6920	424	-27.1	-42.5	2	5	
2025-10-16T12:00	6940	423	-27.3	-42.5	4	5	
2025-10-16T12:00	6960	422	-27.4	-42.9	6	5	
2025-10-16T12:00	6980	420	-27.6	-43.3	8	5	
2025-10-16T12:00	7000	419	-27.8	-43.5	9	5	
2025-10-16T12:00	7020	418	-28.0	-43.7	9	5	
2025-10-16T12:00	7040	417	-28.1	-44.1	9	5	
2025-10-16T12:00	7060	416	-28.3	-45.0	9	6	
2025-10-16T12:00	7080	414	-28.4	-46.2	9	6	
2025-10-16T12:00	7100	413	-28.5	-47.3	9	6	
2025-10-16T12:00	7120	412	-28.6	-48.0	11	6	
2025-10-16T12:00	7140	411	-28.7	-48.5	12	6	
2025-10-16T12:00	7160	410	-28.8	-49.0	14	6	
2025-10-16T12:00	7180	409	-29.0	-49.1	17	7	
2025-10-16T12:00	7200	408	-29.1	-50.3	20	7	
2025-10-16T12:00	7220	406	-29.2	-50.5	22	7	
2025-10-16T12:00	7240	405	-29.4	-49.8	24	7	
2025-10-16T12:00	7260	404	-29.5	-49.6	26	7	
2025-10-16T12:00	7280	403	-29.7	-49.6	27	8	
2025-10-16T12:00	7300	402	-29.8	-50.2	28	7	
2025-10-16T12:00	7320	401	-30.0	-50.5	28	7	
2025-10-16T12:00	7340	400	-30.0	-51.9	28	7	
2025-10-16T12:00	7360	399	-30.1	-53.3	28	7	
2025-10-16T12:00	7380	398	-30.2	-53.0	28	7	
2025-10-16T12:00	7400	396	-30.4	-52.9	27	7	
2025-10-16T12:00	7420	395	-30.5	-52.9	27	7	
2025-10-16T12:00	7440	394	-30.7	-52.5	27	7	
2025-10-16T12:00	7460	393	-30.8	-51.8	26	6	
2025-10-16T12:00	7480	392	-31.0	-52.0	25	6	
2025-10-16T12:00	7500	391	-31.2	-52.6	23	6	
2025-10-16T12:00	7520	390	-31.4	-51.3	23	6	
2025-10-16T12:00	7540	389	-31.5	-51.5	22	6	
2025-10-16T12:00	7560	387	-31.7	-52.1	22	6	
2025-10-16T12:00	7580	386	-31.8	-51.9	22	7	
2025-10-16T12:00	7600	385	-31.9	-51.8	22	7	
2025-10-16T12:00	7620	384	-32.1	-51.0	23	7	
2025-10-16T12:00	7640	383	-32.3	-50.2	23	7	
2025-10-16T12:00	7660	382	-32.5	-50.5	24	8	
2025-10-16T12:00	7680	381	-32.7	-50.3	24	8	
2025-10-16T12:00	7700	380	-32.9	-50.3	24	8	
2025-10-16T12:00	7720	379	-33.0	-50.8	23	8	
2025-10-16T12:00	7740	378	-33.2	-50.7	22	7	
2025-10-16T12:00	7760	377	-33.4	-50.6	21	7	
2025-10-16T12:00	7780	376	-33.6	-50.6	19	7	
2025-10-16T12:00	7800	374	-33.8	-50.7	17	7	
2025-10-16T12:00	7820	373	-33.9	-50.7	15	7	
2025-10-16T12:00	7840	372	-34.1	-50.6	12	7	
2025-10-16T12:00	7860	371	-34.4	-50.7	12	7	
2025-10-16T12:00	7880	370	-34.5	-51.6	11	7	
2025-10-16T12:00	7900	369	-34.6	-51.6	11	7	
2025-10-16T12:00	7920	368	-34.7	-52.2	12	7	
2025-10-16T12:00	7940	367	-34.8	-52.7	14	7	
2025-10-16T12:00	7960	366	-34.9	-52.7	16	8	
2025-10-16T12:00	7980	365	-35.1	-52.3	18	8	
2025-10-16T12:00	8000	364	-35.2	-52.7	19	8	
2025-10-16T12:00	8020	363	-35.3	-52.6	20	8	
2025-10-16T12:00	8040	362	-35.4	-52.2	20	8	
2025-10-16T12:00	8060	361	-35.5	-51.9	20	8	
2025-10-16T12:00	8080	360	-35.7	-51.8	20	8	
2025-10-16T12:00	8100	359	-35.8	-52.0	19	8	
2025-10-16T12:00	8120	358	-35.9	-52.4	19	8	
2025-10-16T12:00	8140	357	-36.0	-52.7	19	8	
2025-10-16T12:00	8160	356	-36.1	-53.3	19	7	
2025-10-16T12:00	8180	355	-36.1	-54.0	20	7	
2025-10-16T12:00	8200	354	-36.3	-54.1	21	7	
2025-10-16T12:00	8220	353	-36.4	-55.0	22	7	
2025-10-16T12:00	8240	352	-36.4	-57.0	24	7	
2025-10-16T12:00	8260	351	-36.5	-57.2	25	7	
2025-10-16T12:00	8280	350	-36.7	-56.8	26	7	
2025-10-16T12:00	8300	349	-36.9	-56.7	27	7	
2025-10-16T12:00	8320	348	-37.1	-56.6	27	7	
2025-10-16T12:00	8340	347	-37.2	-56.3	27	7	
2025-10-16T12:00	8360	346	-37.4	-54.4	26	8	
2025-10-16T12:00	8380	344	-37.6	-51.7	26	8	
2025-10-16T12:00	8400	344	-37.7	-51.4	26	8	
2025-10-16T12:00	8420	342	-37.9	-51.9	25	8	
2025-10-16T12:00	8440	341	-38.1	-52.2	26	8	
2025-10-16T12:00	8460	341	-38.3	-52.3	26	8	
2025-10-16T12:00	8480	340	-38.5	-52.0	25	8	
2025-10-16T12:00	8500	339	-38.7	-51.2	25	8	
2025-10-16T12:00	8520	338	-38.9	-50.3	23	8	
2025-10-16T12:00	8540	337	-39.1	-51.5	22	8	
2025-10-16T12:00	8560	336	-39.2	-51.8	21	8	
2025-10-16T12:00	8580	335	-39.4	-50.6	21	8	
2025-10-16T12:00	8600	334	-39.6	-50.4	20	8	
2025-10-16T12:00	8620	333	-39.9	-50.3	21	7	
2025-10-16T12:00	8640	332	-40.0	-50.1	21	7	
2025-10-16T12:00	8660	331	-40.2	-50.5	22	7	
2025-10-16T12:00	8680	330	-40.4	-50.9	22	7	
2025-10-16T12:00	8700	329	-40.6	-50.9	22	7	
2025-10-16T12:00	8720	328	-40.8	-50.9	22	6	
2025-10-16T12:00	8740	327	-41.0	-50.6	21	6	
2025-10-16T12:00	8760	326	-41.2	-50.6	20	6	
2025-10-16T12:00	8780	325	-41.4	-50.7	17	5	
2025-10-16T12:00	8800	324	-41.6	-50.7	14	5	
2025-10-16T12:00	8820	323	-41.7	-50.7	11	5	
2025-10-16T12:00	8840	322	-41.9	-50.9	9	5	
2025-10-16T12:00	8860	321	-42.1	-50.9	8	5	
2025-10-16T12:00	8880	320	-42.3	-50.6	8	6	
2025-10-16T12:00	8900	319	-42.5	-50.5	9	6	
2025-10-16T12:00	8920	318	-42.7	-50.8	11	6	
2025-10-16T12:00	8940	317	-42.9	-51.1	13	6	
2025-10-16T12:00	8960	316	-43.0	-51.6	15	6	
2025-10-16T12:00	8980	315	-43.1	-53.3	17	6	
2025-10-16T12:00	9000	315	-43.3	-54.4	19	7	
2025-10-16T12:00	9020	314	-43.4	-54.5	19	7	
2025-10-16T12:00	9040	313	-43.5	-55.4	19	7	
2025-10-16T12:00	9060	312	-43.6	-56.9	18	7	
2025-10-16T12:00	9080	311	-43.7	-57.7	17	7	
2025-10-16T12:00	9100	310	-43.7	-58.3	15	7	
2025-10-16T12:00	9120	309	-43.8	-58.7	13	8	
2025-10-16T12:00	9140	308	-43.9	-58.8	13	8	
2025-10-16T12:00	9160	307	-44.0	-58.9	13	8	
2025-10-16T12:00	9180	306	-44.2	-59.0	13	8	
2025-10-16T12:00	9200	305	-44.3	-59.4	13	8	
2025-10-16T12:00	9220	304	-44.4	-59.5	14	8	
2025-10-16T12:00	9240	303	-44.5	-59.1	15	8	
2025-10-16T12:00	9260	303	-44.7	-58.9	15	8	
2025-10-16T12:00	9280	302	-44.8	-58.5	16	8	
2025-10-16T12:00	9300	301	-45.0	-57.8	16	7	
2025-10-16T12:00	9320	300	-45.2	-57.7	15	7	
2025-10-16T12:00	9340	299	-45.4	-57.9	14	7	
2025-10-16T12:00	9360	298	-45.6	-58.1	14	7	
2025-10-16T12:00	9380	297	-45.7	-58.5	12	7	
2025-10-16T12:00	9400	296	-45.9	-58.7	11	7	
2025-10-16T12:00	9420	295	-46.0	-58.9	10	8	
2025-10-16T12:00	9440	295	-46.1	-59.2	10	8	
2025-10-16T12:00	9460	294	-46.3	-59.4	9	8	
2025-10-16T12:00	9480	293	-46.4	-59.7	9	9	
2025-10-16T12:00	9500	292	-46.5	-60.1	9	9	
2025-10-16T12:00	9520	291	-46.5	-60.4	10	9	
2025-10-16T12:00	9540	290	-46.5	-60.3	11	9	
2025-10-16T12:00	9560	289	-46.6	-59.7	12	9	
2025-10-16T12:00	9580	288	-46.8	-59.1	12	9	
2025-10-16T12:00	9600	288	-47.0	-58.7	13	10	
2025-10-16T12:00	9620	287	-47.1	-58.8	13	10	
2025-10-16T12:00	9640	286	-47.3	-59.2	12	10	
2025-10-16T12:00	9660	285	-47.5	-59.3	12	10	
2025-10-16T12:00	9680	284	-47.6	-59.5	11	10	
2025-10-16T12:00	9700	283	-47.8	-59.6	10	10	
2025-10-16T12:00	9720	282	-48.0	-59.6	9	10	
2025-10-16T12:00	9740	281	-48.2	-59.6	9	10	
2025-10-16T12:00	9760	281	-48.3	-59.5	8	9	
2025-10-16T12:00	9780	280	-48.5	-59.5	7	9	
2025-10-16T12:00	9800	279	-48.6	-59.6	7	9	
2025-10-16T12:00	9820	278	-48.8	-59.6	6	9	
2025-10-16T12:00	9840	277	-48.9	-59.6	6	9	
2025-10-16T12:00	9860	276	-49.1	-59.8	5	9	
2025-10-16T12:00	9880	276	-49.3	-59.8	4	8	
2025-10-16T12:00	9900	275	-49.4	-59.8	4	8	
2025-10-16T12:00	9920	274	-49.6	-59.8	4	9	
2025-10-16T12:00	9940	273	-49.7	-59.9	4	9	
2025-10-16T12:00	9960	272	-49.9	-60.0	4	9	
2025-10-16T12:00	9980	271	-50.0	-60.3	4	9	
2025-10-16T12:00	10000	270	-50.2	-60.7	3	9	
2025-10-16T12:00	10018	270	-50.3	-61.2	3	9	
2025-10-16T12:00	10050	268	-50.5	-61.4	1	10	
2025-10-16T12:00	10100	266	-50.8	-61.0	360	10	
2025-10-16T12:00	10150	264	-51.1	-61.7	1	11	
2025-10-16T12:00	10200	262	-51.4	-62.5	4	11	
2025-10-16T12:00	10250	260	-51.6	-63.9	8	11	
2025-10-16T12:00	10300	258	-51.6	-64.1	11	11	
2025-10-16T12:00	10350	256	-51.9	-63.9	11	12	
2025-10-16T12:00	10400	254	-52.1	-64.1	10	12	
2025-10-16T12:00	10450	252	-52.1	-64.7	10	12	
2025-10-16T12:00	10500	250	-52.2	-65.2	13	12	
2025-10-16T12:00	10550	249	-52.4	-65.6	14	12	
2025-10-16T12:00	10600	247	-52.4	-66.8	13	12	
2025-10-16T12:00	10650	245	-52.4	-68.5	10	11	
2025-10-16T12:00	10700	243	-52.5	-68.7	6	11	
2025-10-16T12:00	10750	241	-52.8	-68.0	4	10	
2025-10-16T12:00	10800	239	-53.0	-68.3	3	10	
2025-10-16T12:00	10850	237	-53.3	-68.9	4	11	
2025-10-16T12:00	10900	235	-53.7	-69.8	8	11	
2025-10-16T12:00	10950	234	-54.0	-70.3	11	11	
2025-10-16T12:00	11000	232	-54.3	-70.3	12	11	
2025-10-16T12:00	11050	230	-54.5	-70.9	12	11	
2025-10-16T12:00	11100	228	-54.6	-71.7	13	10	
2025-10-16T12:00	11150	226	-54.8	-72.1	16	10	
2025-10-16T12:00	11200	225	-55.2	-71.9	19	10	
2025-10-16T12:00	11250	223	-55.6	-71.8	21	11	
2025-10-16T12:00	11300	221	-56.0	-71.7	21	11	
2025-10-16T12:00	11350	219	-56.2	-71.3	18	11	
2025-10-16T12:00	11400	218	-56.5	-70.9	14	10	
2025-10-16T12:00	11450	216	-56.9	-70.6	11	10	
2025-10-16T12:00	11500	214	-57.2	-70.5	10	10	
2025-10-16T12:00	11550	213	-57.4	-70.8	10	9	
2025-10-16T12:00	11600	211	-57.5	-71.4	9	9	
2025-10-16T12:00	11650	209	-57.4	-72.0	8	9	
2025-10-16T12:00	11700	208	-57.5	-72.5	9	9	
2025-10-16T12:00	11750	206	-57.3	-73.4	10	10	
2025-10-16T12:00	11800	204	-57.0	-74.3	10	11	
2025-10-16T12:00	11850	203	-57.0	-74.5	9	10	
2025-10-16T12:00	11900	201	-56.9	-74.5	9	9	
2025-10-16T12:00	11950	200	-57.1	-74.3	8	9	
2025-10-16T12:00	12000	198	-57.4	-74.1	10	8	
2025-10-16T12:00	12050	196	-57.4	-74.1	11	8	
2025-10-16T12:00	12100	195	-57.6	-74.4	11	8	
2025-10-16T12:00	12150	193	-57.6	-74.7	7	6	
2025-10-16T12:00	12200	192	-57.7	-75.3	356	5	
2025-10-16T12:00	12250	190	-58.0	-75.3	345	5	
2025-10-16T12:00	12300	189	-58.3	-75.3	345	6	
2025-10-16T12:00	12350	187	-58.3	-75.8	356	6	
2025-10-16T12:00	12400	186	-58.4	-76.2	3	7	
2025-10-16T12:00	12450	184	-58.2	-76.9	1	7	
2025-10-16T12:00	12500	183	-58.0	-77.7	357	7	
2025-10-16T12:00	12550	181	-58.1	-77.7	359	8	
2025-10-16T12:00	12600	180	-58.1	-77.9	2	9	
2025-10-16T12:00	12650	179	-57.9	-78.3	4	9	
2025-10-16T12:00	12700	177	-57.9	-78.8	8	8	
2025-10-16T12:00	12750	176	-57.7	-79.2	15	8	
2025-10-16T12:00	12800	174	-57.7	-79.4	21	7	
2025-10-16T12:00	12850	173	-57.9	-79.5	24	7	
2025-10-16T12:00	12900	172	-57.7	-79.7	21	6	
2025-10-16T12:00	12950	170	-57.8	-79.9	18	5	
2025-10-16T12:00	13000	169	-58.1	-80.0	21	4	
2025-10-16T12:00	13050	168	-58.4	-80.0	24	3	
2025-10-16T12:00	13100	166	-58.9	-80.0	17	2	
2025-10-16T12:00	13150	165	-59.3	-80.1	356	2	
2025-10-16T12:00	13200	164	-59.6	-80.1	328	3	
2025-10-16T12:00	13250	162	-59.9	-80.2	316	4	
2025-10-16T12:00	13300	161	-60.1	-80.5	316	5	
2025-10-16T12:00	13350	160	-60.0	-80.7	322	7	
2025-10-16T12:00	13400	158	-60.2	-81.0	328	7	
2025-10-16T12:00	13450	157	-60.2	-81.2	330	8	
2025-10-16T12:00	13500	156	-60.0	-81.4	329	8	
2025-10-16T12:00	13550	155	-59.7	-81.5	329	8	
2025-10-16T12:00	13600	153	-59.8	-81.6	335	8	
2025-10-16T12:00	13650	152	-59.9	-81.7	345	8	
2025-10-16T12:00	13700	151	-60.0	-81.7	354	8	
2025-10-16T12:00	13750	150	-59.7	-81.8	359	8	
2025-10-16T12:00	13800	149	-59.6	-82.1	359	7	
2025-10-16T12:00	13850	147	-59.3	-82.3	358	6	
2025-10-16T12:00	13900	146	-59.4	-82.4	358	6	
2025-10-16T12:00	13950	145	-59.7	-82.3	355	5	
2025-10-16T12:00	14000	144	-60.1	-82.4	344	4	
2025-10-16T12:00	14050	143	-60.4	-82.4	334	4	
2025-10-16T12:00	14100	142	-60.8	-82.5	325	5	
2025-10-16T12:00	14150	141	-60.6	-82.6	318	6	
2025-10-16T12:00	14200	139	-60.2	-82.7	316	7	
2025-10-16T12:00	14250	138	-60.0	-82.9	317	8	
2025-10-16T12:00	14300	137	-60.2	-83.1	318	8	
2025-10-16T12:00	14350	136	-59.9	-83.1	321	8	
2025-10-16T12:00	14400	135	-59.7	-83.0	325	7	
2025-10-16T12:00	14450	134	-59.9	-83.1	328	7	
2025-10-16T12:00	14500	133	-60.0	-83.1	326	6	
2025-10-16T12:00	14550	132	-60.1	-83.3	327	6	
2025-10-16T12:00	14600	131	-59.7	-83.3	330	6	
2025-10-16T12:00	14650	130	-59.8	-83.5	330	6	
2025-10-16T12:00	14700	129	-59.9	-83.4	322	5	
2025-10-16T12:00	14750	128	-60.0	-83.5	312	4	
2025-10-16T12:00	14800	127	-59.9	-83.6	310	3	
2025-10-16T12:00	14850	126	-59.8	-83.6	316	3	
2025-10-16T12:00	14900	125	-60.0	-83.7	319	2	
2025-10-16T12:00	14950	124	-60.1	-83.7	318	2	
2025-10-16T12:00	15000	123	-60.2	-83.8	305	2	
2025-10-16T12:00	15050	122	-60.3	-83.8	289	2	
2025-10-16T12:00	15100	121	-60.5	-83.8	293	3	
2025-10-16T12:00	15150	120	-60.8	-83.9	308	3	
2025-10-16T12:00	15200	119	-61.1	-83.9	317	4	
2025-10-16T12:00	15250	118	-61.5	-84.0	316	4	
2025-10-16T12:00	15300	117	-61.7	-84.0	311	4	
2025-10-16T12:00	15350	116	-61.9	-84.1	308	5	
2025-10-16T12:00	15400	115	-62.2	-84.1	310	5	
2025-10-16T12:00	15450	114	-62.6	-84.3	314	6	
2025-10-16T12:00	15500	113	-62.6	-84.4	317	7	
2025-10-16T12:00	15550	112	-62.4	-84.5	323	8	
2025-10-16T12:00	15600	111	-62.1	-84.6	330	7	
2025-10-16T12:00	15650	110	-62.0	-84.7	338	7	
2025-10-16T12:00	15700	110	-61.8	-84.6	345	7	
2025-10-16T12:00	15750	109	-61.6	-84.6	351	7	
2025-10-16T12:00	15800	108	-61.4	-84.7	357	6	
2025-10-16T12:00	15850	107	-61.4	-84.8	3	6	
2025-10-16T12:00	15900	106	-61.5	-84.9	10	6	
2025-10-16T12:00	15950	105	-61.5	-84.9	15	5	
2025-10-16T12:00	16000	104	-61.5	-85.0	23	3	
2025-10-16T12:00	16050	103	-61.6	-85.1	36	1	
2025-10-16T12:00	16100	103	-61.6	-85.1	153	0	
2025-10-16T12:00	16150	102	-61.7	-85.2	222	1	
2025-10-16T12:00	16200	101	-61.6	-85.1	232	2	
2025-10-16T12:00	16250	100	-61.9	-85.1	249	3	
2025-10-16T12:00	16300	99	-62.1	-85.1	265	4	
2025-10-16T12:00	16350	99	-62.0	-85.1	272	5	
2025-10-16T12:00	16400	98	-62.1	-85.1	273	6	
2025-10-16T12:00	16450	97	-62.5	-85.3	274	7	
2025-10-16T12:00	16500	96	-62.6	-85.3	275	7	
2025-10-16T12:00	16550	95	-62.7	-85.5	280	7	
2025-10-16T12:00	16600	95	-62.6	-85.4	290	6	
2025-10-16T12:00	16650	94	-62.9	-85.6	302	6	
2025-10-16T12:00	16700	93	-63.1	-85.7	312	6	
2025-10-16T12:00	16750	92	-63.1	-85.7	321	6	
2025-10-16T12:00	16800	92	-63.1	-85.8	331	6	
2025-10-16T12:00	16850	91	-63.0	-86.0	340	5	
2025-10-16T12:00	16900	90	-62.4	-86.0	347	4	
2025-10-16T12:00	16950	89	-62.2	-86.2	349	4	
2025-10-16T12:00	17000	89	-62.1	-86.2	345	3	
2025-10-16T12:00	17050	88	-62.0	-86.2	329	2	
2025-10-16T12:00	17100	87	-62.0	-86.3	306	2	
2025-10-16T12:00	17150	87	-61.9	-86.3	298	2	
2025-10-16T12:00	17200	86	-61.8	-86.4	299	2	
2025-10-16T12:00	17250	85	-61.9	-86.4	297	2	
2025-10-16T12:00	17300	85	-61.9	-86.4	292	1	
2025-10-16T12:00	17350	84	-62.1	-86.6	308	1	
2025-10-16T12:00	17400	83	-61.8	-86.6	331	2	
2025-10-16T12:00	17450	83	-61.6	-86.6	331	2	
2025-10-16T12:00	17500	82	-61.5	-86.5	302	2	
2025-10-16T12:00	17550	81	-61.7	-86.6	263	2	
2025-10-16T12:00	17600	81	-61.8	-86.6	248	3	
2025-10-16T12:00	17650	80	-62.2	-86.7	249	4	
2025-10-16T12:00	17700	79	-62.3	-86.8	252	5	
2025-10-16T12:00	17750	79	-62.3	-86.8	259	5	
2025-10-16T12:00	17800	78	-62.4	-86.8	269	5	
2025-10-16T12:00	17850	77	-62.7	-86.9	277	6	
2025-10-16T12:00	17900	77	-62.9	-86.9	280	6	
2025-10-16T12:00	17950	76	-63.0	-87.0	283	7	
2025-10-16T12:00	18000	75	-63.1	-87.0	290	8	
2025-10-16T12:00	18050	75	-63.1	-87.2	300	8	
2025-10-16T12:00	18100	74	-62.9	-87.3	307	7	
2025-10-16T12:00	18150	74	-62.4	-87.2	305	7	
2025-10-16T12:00	18200	73	-62.4	-87.2	299	7	
2025-10-16T12:00	18250	72	-62.7	-87.2	299	7	
2025-10-16T12:00	18300	72	-62.9	-87.2	305	8	
2025-10-16T12:00	18350	71	-63.1	-87.3	312	8	
2025-10-16T12:00	18400	71	-63.3	-87.4	318	8	
2025-10-16T12:00	18450	70	-63.1	-87.3	323	7	
2025-10-16T12:00	18500	70	-63.3	-87.5	325	7	
2025-10-16T12:00	18550	69	-63.2	-87.5	325	6	
2025-10-16T12:00	18600	68	-63.2	-87.5	324	5	
2025-10-16T12:00	18650	68	-63.3	-87.6	320	4	
2025-10-16T12:00	18700	67	-63.0	-87.6	308	3	
2025-10-16T12:00	18750	67	-62.9	-87.6	288	3	
2025-10-16T12:00	18800	66	-62.6	-87.6	281	5	
2025-10-16T12:00	18850	66	-62.4	-87.6	282	6	
2025-10-16T12:00	18900	65	-62.2	-87.6	287	7	
2025-10-16T12:00	18950	65	-61.9	-87.4	295	6	
2025-10-16T12:00	19000	64	-62.1	-87.5	303	6	
2025-10-16T12:00	19050	64	-61.9	-87.5	306	5	
2025-10-16T12:00	19100	63	-61.7	-87.5	303	5	
2025-10-16T12:00	19150	63	-61.6	-87.5	299	5	
2025-10-16T12:00	19200	62	-61.5	-87.4	298	6	
2025-10-16T12:00	19250	62	-61.4	-87.2	296	7	
2025-10-16T12:00	19300	61	-61.7	-87.3	295	7	
2025-10-16T12:00	19350	61	-61.9	-87.3	297	6	
2025-10-16T12:00	19400	60	-61.9	-87.4	303	5	
2025-10-16T12:00	19450	60	-61.9	-87.5	309	5	
2025-10-16T12:00	19500	59	-61.7	-87.5	311	5	
2025-10-16T12:00	19550	59	-61.3	-87.5	310	6	
2025-10-16T12:00	19600	58	-61.2	-87.5	309	6	
2025-10-16T12:00	19650	58	-61.2	-87.5	310	6	
2025-10-16T12:00	19700	57	-60.9	-87.4	309	5	
2025-10-16T12:00	19750	57	-61.1	-87.4	304	4	
2025-10-16T12:00	19800	56	-61.3	-87.4	297	4	
2025-10-16T12:00	19850	56	-61.5	-87.4	293	3	
2025-10-16T12:00	19900	55	-61.8	-87.4	297	1	
2025-10-16T12:00	19950	55	-62.1	-87.5	92	0	
2025-10-16T12:00	20000	55	-62.2	-87.6	125	1	
2025-10-16T12:00	20050	54	-62.2		188	0	
2025-10-16T12:00	20100	54	-62.5		268	1	
2025-10-16T12:00	20150	53	-62.8		293	2	
2025-10-16T12:00	20200	53	-63.1		308	4	
2025-10-16T12:00	20250	52	-63.0		315	5	
2025-10-16T12:00	20300	52	-62.4		317	6	
2025-10-16T12:00	20350	52	-61.9		316	6	
2025-10-16T12:00	20400	51	-61.9		317	6	
2025-10-16T12:00	20450	51	-61.8		321	6	
2025-10-16T12:00	20500	50	-61.9		328	5	
2025-10-16T12:00	20550	50	-61.5		332	4	
2025-10-16T12:00	20600	50	-61.3		333	2	
2025-10-16T12:00	20650	49	-61.7		335	1	
2025-10-16T12:00	20700	49	-62.0		133	1	
2025-10-16T12:00	20750	48	-62.1		146	1	
2025-10-16T12:00	20800	48	-62.1		165	1	
2025-10-16T12:00	20850	48	-62.3		203	1	
2025-10-16T12:00	20900	47	-62.7		267	1	
2025-10-16T12:00	20950	47	-62.9		309	2	
2025-10-16T12:00	21000	46	-63.0		325	3	
2025-10-16T12:00	21050	46	-62.4		333	3	
2025-10-16T12:00	21100	46	-61.7		339	3	
2025-10-16T12:00	21150	45	-61.3		349	2	
2025-10-16T12:00	21200	45	-61.1		2	1	
2025-10-16T12:00	21250	45	-61.0		23	1	
2025-10-16T12:00	21300	44	-60.6		209	0	
2025-10-16T12:00	21350	44	-60.3		234	1	
2025-10-16T12:00	21400	44	-60.1		248	3	
2025-10-16T12:00	21450	43	-59.8		259	4	
2025-10-16T12:00	21500	43	-59.6		267	6	
2025-10-16T12:00	21550	42	-59.8		274	6	
2025-10-16T12:00	21600	42	-59.9		280	7	
2025-10-16T12:00	21650	42	-59.8		284	7	
2025-10-16T12:00	21700	41	-59.9		288	7	
2025-10-16T12:00	21750	41	-59.8		294	6	
2025-10-16T12:00	21800	41	-59.8		298	6	
2025-10-16T12:00	21850	40	-59.9		300	5	
2025-10-16T12:00	21900	40	-59.9		305	5	
2025-10-16T12:00	21950	40	-59.4		318	5	
2025-10-16T12:00	22000	40	-59.4		333	4	
2025-10-16T12:00	22050	39	-59.4		354	2	
2025-10-16T12:00	22100	39	-58.9		105	1	
2025-10-16T12:00	22150	39	-58.2		178	2	
2025-10-16T12:00	22200	38	-57.7		200	4	
2025-10-16T12:00	22250	38	-57.8		214	5	
2025-10-16T12:00	22300	38	-58.1		227	6	
2025-10-16T12:00	22350	37	-57.9		240	6	
2025-10-16T12:00	22400	37	-57.4		249	6	
2025-10-16T12:00	22450	37	-57.0		254	6	
2025-10-16T12:00	22500	37	-57.0		255	6	
2025-10-16T12:00	22550	36	-56.8		252	5	
2025-10-16T12:00	22600	36	-56.9		246	5	
2025-10-16T12:00	22650	36	-56.6		243	5	
2025-10-16T12:00	22700	35	-56.7		247	5	
2025-10-16T12:00	22750	35	-56.9		253	6	
2025-10-16T12:00	22800	35	-57.3		259	6	
2025-10-16T12:00	22850	35	-57.6		263	6	
2025-10-16T12:00	22900	34	-57.5		266	6	
2025-10-16T12:00	22950	34	-57.2		269	6	
2025-10-16T12:00	23000	34	-57.0		273	7	
2025-10-16T12:00	23050	33	-57.0		277	8	
2025-10-16T12:00	23100	33	-56.8		283	9	
2025-10-16T12:00	23150	33	-56.7		286	9	
2025-10-16T12:00	23200	33	-56.4		285	9	
2025-10-16T12:00	23250	32	-56.0		280	9	
2025-10-16T12:00	23300	32	-55.9		275	9	
2025-10-16T12:00	23350	32	-56.0		271	9	
2025-10-16T12:00	23400	32	-56.1		269	9	
2025-10-16T12:00	23450	31	-56.3		268	9	
2025-10-16T12:00	23500	31	-56.4		268	9	
2025-10-16T12:00	23550	31	-56.8		268	10	
2025-10-16T12:00	23600	31	-57.3		269	10	
2025-10-16T12:00	23650	30	-57.7		271	10	
2025-10-16T12:00	23700	30	-58.0		275	10	
2025-10-16T12:00	23750	30	-58.3		281	10	
2025-10-16T12:00	23800	30	-58.7		288	9	
2025-10-16T12:00	23850	29	-58.9		295	8	
2025-10-16T12:00	23900	29	-59.0		300	7	
2025-10-16T12:00	23950	29	-58.7		302	7	
2025-10-16T12:00	24000	29	-58.5		301	7	
2025-10-16T12:00	24050	29	-58.6		298	8	
2025-10-16T12:00	24100	28	-58.8		298	9	
2025-10-16T12:00	24150	28	-58.9		299	9	
2025-10-16T12:00	24200	28	-58.7		301	9	
2025-10-16T12:00	24250	28	-58.9		301	8	
2025-10-16T12:00	24300	27	-59.0		298	7	
2025-10-16T12:00	24350	27	-59.1		294	6	
2025-10-16T12:00	24400	27	-59.0		293	5	
2025-10-16T12:00	24450	27	-59.2		297	4	
2025-10-16T12:00	24500	27	-59.6		303	4	
2025-10-16T12:00	24550	26	-59.7		304	3	
2025-10-16T12:00	24600	26	-59.9		294	4	
2025-10-16T12:00	24650	26	-59.9		283	4	
2025-10-16T12:00	24700	26	-59.7		281	5	
2025-10-16T12:00	24750	26	-59.7		284	6	
2025-10-16T12:00	24800	25	-59.5		285	7	
2025-10-16T12:00	24850	25	-59.4		282	7	
2025-10-16T12:00	24900	25	-59.1		274	7	
2025-10-16T12:00	24950	25	-58.7		269	8	
2025-10-16T12:00	25000	25	-57.8		268	8	
2025-10-16T12:00	25050	24	-57.2		271	8	
2025-10-16T12:00	25100	24	-57.0		273	7	
2025-10-16T12:00	25150	24	-57.0		270	7	
2025-10-16T12:00	25200	24	-57.0		262	6	
2025-10-16T12:00	25250	24	-56.9		250	7	
2025-10-16T12:00	25300	23	-56.7		242	8	
2025-10-16T12:00	25350	23	-56.4		240	10	
2025-10-16T12:00	25400	23	-56.2		242	11	
2025-10-16T12:00	25450	23	-56.2		248	10	
2025-10-16T12:00	25500	23	-56.1		254	10	
2025-10-16T12:00	25550	23	-56.2		260	9	
2025-10-16T12:00	25600	22	-56.4		265	8	
2025-10-16T12:00	25650	22	-56.5		269	7	
2025-10-16T12:00	25700	22	-56.5		272	6	
2025-10-16T12:00	25750	22	-56.5		271	5	
2025-10-16T12:00	25800	22	-56.4		260	5	
2025-10-16T12:00	25850	21	-56.2		243	6	
2025-10-16T12:00	25900	21	-55.7		233	7	
2025-10-16T12:00	25950	21	-55.1		231	9	
2025-10-16T12:00	26000	21	-54.5		234	10	
2025-10-16T12:00	26050	21	-54.0		239	10	
2025-10-16T12:00	26100	21	-53.6		242	11	
2025-10-16T12:00	26150	20	-53.5		245	11	
2025-10-16T12:00	26200	20	-53.6		247	12	
2025-10-16T12:00	26250	20	-53.7		249	13	
2025-10-16T12:00	26300	20	-53.9		252	14	
2025-10-16T12:00	26350	20	-53.7		256	14	
2025-10-16T12:00	26400	20	-53.2		259	14	
2025-10-16T12:00	26450	20	-53.1		261	14	
2025-10-16T12:00	26500	19	-53.3		264	14	
2025-10-16T12:00	26550	19	-53.4		268	13	
2025-10-16T12:00	26600	19	-53.5		271	13	
2025-10-16T12:00	26650	19	-53.5		269	12	
2025-10-16T12:00	26700	19	-53.2		263	12	
2025-10-16T12:00	26750	19	-53.0		254	12	
2025-10-16T12:00	26800	19	-52.8		247	12	
2025-10-16T12:00	26850	18	-52.6		243	13	
2025-10-16T12:00	26900	18	-52.1		243	13	
2025-10-16T12:00	26950	18	-51.8		245	13	
2025-10-16T12:00	27000	18	-51.7		244	13	
2025-10-16T12:00	27050	18	-51.6		241	13	
2025-10-16T12:00	27100	18	-51.7		238	14	
2025-10-16T12:00	27150	18	-51.7		238	14	
2025-10-16T12:00	27200	17	-51.5		239	14	
2025-10-16T12:00	27250	17	-51.3		241	14	
2025-10-16T12:00	27300	17	-51.2		244	14	
2025-10-16T12:00	27350	17	-50.9		248	14	
2025-10-16T12:00	27400	17	-50.8		250	15	
2025-10-16T12:00	27450	17	-50.8		252	15	
2025-10-16T12:00	27500	17	-50.9		253	15	
2025-10-16T12:00	27550	16	-50.8		255	16	
2025-10-16T12:00	27600	16	-50.9		257	17	
2025-10-16T12:00	27650	16	-51.1		258	18	
2025-10-16T12:00	27700	16	-51.5		260	19	
2025-10-16T12:00	27750	16	-51.7		260	20	
2025-10-16T12:00	27800	16	-51.9		260	20	
2025-10-16T12:00	27850	16	-52.0		259	21	
2025-10-16T12:00	27900	16	-52.1		259	21	
2025-10-16T12:00	27950	16	-52.2		260	20	
2025-10-16T12:00	28000	15	-52.1		263	20	
2025-10-16T12:00	28050	15	-52.2		266	19	
2025-10-16T12:00	28100	15	-52.3		269	18	
2025-10-16T12:00	28150	15	-52.4		272	17	
2025-10-16T12:00	28200	15	-52.3		273	16	
2025-10-16T12:00	28250	15	-51.9		271	14	
2025-10-16T12:00	28300	15	-51.7		266	12	
2025-10-16T12:00	28350	15	-51.7		259	11	
2025-10-16T12:00	28400	14	-51.2		251	11	
2025-10-16T12:00	28450	14	-50.6		246	12	
2025-10-16T12:00	28500	14	-50.5		244	13	
2025-10-16T12:00	28550	14	-50.3		245	14	
2025-10-16T12:00	28600	14	-50.2		247	15	
2025-10-16T12:00	28650	14	-50.4		250	16	
2025-10-16T12:00	28700	14	-50.6		252	17	
2025-10-16T12:00	28750	14	-50.5		254	17	
2025-10-16T12:00	28800	14	-50.5		257	17	
2025-10-16T12:00	28850	14	-50.7		261	17	
2025-10-16T12:00	28900	13	-50.7		264	16	
2025-10-16T12:00	28950	13	-50.7		265	16	
2025-10-16T12:00	29000	13	-50.7		265	15	
2025-10-16T12:00	29050	13	-50.7		262	14	
2025-10-16T12:00	29100	13	-50.6		259	15	
2025-10-16T12:00	29150	13	-50.3		260	15	
2025-10-16T12:00	29200	13	-50.1		264	16	
2025-10-16T12:00	29250	13	-50.0		269	17	
2025-10-16T12:00	29300	13	-49.9		273	18	
2025-10-16T12:00	29350	13	-49.5		274	19	
2025-10-16T12:00	29400	12	-49.1		275	20	
2025-10-16T12:00	29450	12	-49.1		275	21	
2025-10-16T12:00	29500	12	-49.0		274	22	
2025-10-16T12:00	29550	12	-48.8		274	23	
2025-10-16T12:00	29600	12	-48.6		273	22	
2025-10-16T12:00	29650	12	-48.3		272	21	
2025-10-16T12:00	29700	12	-48.3		270	20	
2025-10-16T12:00	29750	12	-48.4		269	19	
2025-10-16T12:00	29800	12	-48.4		269	18	
2025-10-16T12:00	29850	12	-48.6		269	18	
2025-10-16T12:00	29900	12	-49.0		270	17	
2025-10-16T12:00	29950	11	-49.4		270	16	
2025-10-16T12:00	30000	11	-49.9		269	15	
2025-10-16T12:00	30050	11	-50.1		266	13	
2025-10-16T12:00	30100	11	-49.9		261	13	
2025-10-16T12:00	30150	11	-49.4		253	13	
2025-10-16T12:00	30200	11	-48.5		247	15	
2025-10-16T12:00	30250	11	-47.8		243	17	
2025-10-16T12:00	30300	11	-46.8		242	19	
2025-10-16T12:00	30350	11	-46.2		245	20	
2025-10-16T12:00	30400	11	-45.7		249	20	
2025-10-16T12:00	30450	11	-45.7		252	20	
2025-10-16T12:00	30500	11	-45.9		257	19	
2025-10-16T12:00	30550	10	-46.2		262	19	
2025-10-16T12:00	30600	10	-46.5		266	19	
2025-10-16T12:00	30650	10	-46.6		270	19	
2025-10-16T12:00	30700	10	-46.5		271	18	
2025-10-16T12:00	30750	10	-46.4		270	17	
2025-10-16T12:00	30800	10	-46.3		267	17	
2025-10-16T12:00	30850	10	-46.0		264	17	
2025-10-16T12:00	30900	10	-45.9		261	16	
2025-10-16T12:00	30950	10	-45.9		257	17	
2025-10-16T12:00	31000	10	-45.6		254	18	
2025-10-16T12:00	31050	10	-45.5		252	19	
2025-10-16T12:00	31100	10	-45.4		253	20	
2025-10-16T12:00	31150	10	-45.4		255	21	
2025-10-16T12:00	31200	9	-45.7		258	22	
2025-10-16T12:00	31250	9	-45.8		258	23	
2025-10-16T12:00	31300	9	-45.8		257	24	
2025-10-16T12:00	31350	9	-45.5		255	25	
2025-10-16T12:00	31400	9	-45.3		254	25	
2025-10-16T12:00	31450	9	-45.0		254	25	
2025-10-16T12:00	31500	9	-44.8		255	25	
2025-10-16T12:00	31550	9	-44.9		256	25	
2025-10-16T12:00	31600	9	-45.1		257	25	
2025-10-16T12:00	31650	9	-45.2		258	24	
2025-10-16T12:00	31700	9	-45.2		260	23	
2025-10-16T12:00	31750	9	-45.2		261	22	
2025-10-16T12:00	31800	9	-45.1		263	22	
2025-10-16T12:00	31850	9	-45.1		265	22	
2025-10-16T12:00	31900	9	-45.1		266	22	
2025-10-16T12:00	31950	8	-45.3		268	22	
2025-10-16T12:00	32000	8	-45.5		268	22	
2025-10-16T12:00	32050	8	-45.5		267	21	
2025-10-16T12:00	32100	8	-45.4		264	21	
2025-10-16T12:00	32150	8	-45.2		259	21	
2025-10-16T12:00	32200	8	-44.8		255	21	
2025-10-16T12:00	32250	8	-44.1		254	22	
2025-10-16T12:00	32300	8	-43.5		255	23	
2025-10-16T12:00	32350	8	-43.1		257	24	
2025-10-16T12:00	32400	8	-42.9		259	24	
2025-10-16T12:00	32450	8	-42.8		261	24	
2025-10-16T12:00	32500	8	-42.7		263	24	
2025-10-16T12:00	32550	8	-42.6		267	24	
2025-10-16T12:00	32600	8	-42.5		270	25	
2025-10-16T12:00	32650	8	-42.7		273	25	
2025-10-16T12:00	32700	8	-43.0		275	25	
2025-10-16T12:00	32750	7	-42.9		275	25	
2025-10-16T12:00	32800	7	-42.8		273	24	
2025-10-16T12:00	32850	7	-42.9		270	24	
2025-10-16T12:00	32900	7	-42.7		269	23	
2025-10-16T12:00	32950	7	-42.5		269	23	
2025-10-16T12:00	33000	7	-42.3		271	23	
2025-10-16T12:00	33050	7	-42.1		272	22	
2025-10-17T00:00	491	964	6.8	6.4	237	0	
2025-10-17T00:00	501	962	7.2	6.3	235	1	
2025-10-17T00:00	520	960	7.3	6.1	244	1	
2025-10-17T00:00	540	958	7.4	6.0	251	0	
2025-10-17T00:00	560	956	7.6	6.0	265	0	
2025-10-17T00:00	580	954	8.0	6.1	294	0	
2025-10-17T00:00	600	951	8.0	6.1	335	1	
2025-10-17T00:00	620	949	7.9	6.1	7	1	
2025-10-17T00:00	640	947	7.9	6.0	22	1	
2025-10-17T00:00	660	944	8.0	5.8	33	2	
2025-10-17T00:00	680	942	8.0	5.6	41	2	
2025-10-17T00:00	700	940	8.0	5.4	47	3	
2025-10-17T00:00	720	937	7.9	5.2	52	3	
2025-10-17T00:00	740	935	7.8	5.0	54	4	
2025-10-17T00:00	760	933	8.1	4.5	56	4	
2025-10-17T00:00	780	931	8.5	4.4	57	4	
2025-10-17T00:00	800	929	8.4	4.5	57	4	
2025-10-17T00:00	820	926	8.2	4.4	57	4	
2025-10-17T00:00	840	924	8.1	4.4	56	4	
2025-10-17T00:00	860	922	7.9	4.3	56	4	
2025-10-17T00:00	880	920	7.7	4.3	56	4	
2025-10-17T00:00	900	917	7.6	4.2	56	4	
2025-10-17T00:00	920	915	7.4	4.2	56	5	
2025-10-17T00:00	940	913	7.3	4.2	56	5	
2025-10-17T00:00	960	910	7.1	4.2	56	5	
2025-10-17T00:00	980	908	7.0	4.0	56	5	
2025-10-17T00:00	1000	906	6.9	3.8	57	5	
2025-10-17T00:00	1020	904	6.7	3.7	57	5	
2025-10-17T00:00	1040	902	6.5	3.8	56	5	
2025-10-17T00:00	1060	899	6.4	3.7	56	5	
2025-10-17T00:00	1080	897	6.2	3.7	54	5	
2025-10-17T00:00	1100	895	6.0	3.8	52	5	
2025-10-17T00:00	1120	893	5.8	3.9	51	4	
2025-10-17T00:00	1140	891	5.7	4.0	52	4	
2025-10-17T00:00	1160	889	5.5	3.9	55	4	
2025-10-17T00:00	1180	887	5.4	3.8	58	4	
2025-10-17T00:00	1200	884	5.2	3.6	60	4	
2025-10-17T00:00	1220	882	5.1	3.8	62	4	
2025-10-17T00:00	1240	880	5.0	4.1	64	4	
2025-10-17T00:00	1260	878	4.8	4.3	65	4	
2025-10-17T00:00	1280	876	4.6	4.4	65	4	
2025-10-17T00:00	1300	874	4.4	4.4	64	4	
2025-10-17T00:00	1320	872	4.3	4.3	64	4	
2025-10-17T00:00	1340	869	4.2	4.2	64	4	
2025-10-17T00:00	1360	867	4.1	4.1	66	4	
2025-10-17T00:00	1380	865	4.0	4.0	67	4	
2025-10-17T00:00	1400	863	3.8	3.8	68	4	
2025-10-17T00:00	1420	861	3.7	3.7	69	4	
2025-10-17T00:00	1440	859	3.6	3.6	69	4	
2025-10-17T00:00	1460	857	3.5	3.5	70	4	
2025-10-17T00:00	1480	855	3.4	3.4	70	4	
2025-10-17T00:00	1500	852	3.3	3.3	70	4	
2025-10-17T00:00	1520	850	3.1	3.1	71	4	
2025-10-17T00:00	1540	848	3.0	3.0	73	4	
2025-10-17T00:00	1560	846	2.9	2.9	76	3	
2025-10-17T00:00	1580	844	2.8	2.8	79	3	
2025-10-17T00:00	1600	842	2.7	2.7	86	2	
2025-10-17T00:00	1620	840	2.6	2.6	103	2	
2025-10-17T00:00	1640	838	2.4	2.4	147	1	
2025-10-17T00:00	1660	836	2.3	2.3	196	2	
2025-10-17T00:00	1680	833	2.6	2.2	215	3	
2025-10-17T00:00	1700	831	2.7	1.6	223	4	
2025-10-17T00:00	1720	829	3.8	-0.5	228	4	
2025-10-17T00:00	1740	828	4.3	-1.3	230	4	
2025-10-17T00:00	1760	826	4.6	-1.0	232	4	
2025-10-17T00:00	1780	823	5.0	0.2	233	4	
2025-10-17T00:00	1800	821	5.2	1.0	233	4	
2025-10-17T00:00	1820	819	5.3	1.2	233	4	
2025-10-17T00:00	1840	817	5.4	1.1	232	3	
2025-10-17T00:00	1860	815	5.3	0.4	232	3	
2025-10-17T00:00	1880	813	5.3	0.0	233	3	
2025-10-17T00:00	1900	811	5.2	-0.6	236	3	
2025-10-17T00:00	1920	810	5.2	-2.2	239	3	
2025-10-17T00:00	1940	808	5.3	-2.9	242	3	
2025-10-17T00:00	1960	806	5.3	-2.1	247	2	
2025-10-17T00:00	1980	803	5.2	-2.5	253	2	
2025-10-17T00:00	2000	801	5.1	-3.1	262	2	
2025-10-17T00:00	2020	800	5.0	-3.7	271	1	
2025-10-17T00:00	2040	798	5.0	-4.6	282	1	
2025-10-17T00:00	2060	796	5.1	-7.0	293	1	
2025-10-17T00:00	2080	794	5.1	-8.9	320	0	
2025-10-17T00:00	2100	792	5.0	-11.1	90	0	
2025-10-17T00:00	2120	790	5.0	-14.0	107	1	
2025-10-17T00:00	2140	788	5.0	-14.5	111	1	
2025-10-17T00:00	2160	786	4.9	-13.8	110	1	
2025-10-17T00:00	2180	784	4.8	-13.5	108	1	
2025-10-17T00:00	2200	782	4.7	-13.4	102	2	
2025-10-17T00:00	2220	780	4.5	-13.4	95	2	
2025-10-17T00:00	2240	778	4.4	-13.7	87	2	
2025-10-17T00:00	2260	776	4.3	-14.5	81	2	
2025-10-17T00:00	2280	775	4.2	-14.8	79	2	
2025-10-17T00:00	2300	773	4.1	-15.7	82	3	
2025-10-17T00:00	2320	771	4.0	-14.9	88	3	
2025-10-17T00:00	2340	769	3.9	-14.1	97	3	
2025-10-17T00:00	2360	767	3.8	-15.2	106	3	
2025-10-17T00:00	2380	765	3.8	-15.0	115	3	
2025-10-17T00:00	2400	763	3.8	-15.8	124	2	
2025-10-17T00:00	2420	761	3.7	-17.3	129	2	
2025-10-17T00:00	2440	760	3.7	-19.0	128	2	
2025-10-17T00:00	2460	758	3.9	-20.9	116	1	
2025-10-17T00:00	2480	756	3.9	-19.1	101	1	
2025-10-17T00:00	2500	754	3.8	-17.4	82	1	
2025-10-17T00:00	2520	752	3.7	-17.6	66	1	
2025-10-17T00:00	2540	750	3.6	-17.8	55	2	
2025-10-17T00:00	2560	748	3.4	-17.7	49	2	
2025-10-17T00:00	2580	746	3.2	-17.4	46	2	
2025-10-17T00:00	2600	745	3.1	-17.2	42	2	
2025-10-17T00:00	2620	743	3.0	-17.1	38	3	
2025-10-17T00:00	2640	741	2.9	-17.2	36	3	
2025-10-17T00:00	2660	739	2.7	-17.3	33	3	
2025-10-17T00:00	2680	737	2.5	-17.5	29	3	
2025-10-17T00:00	2700	736	2.4	-17.3	25	3	
2025-10-17T00:00	2720	734	2.2	-16.9	20	3	
2025-10-17T00:00	2740	732	2.0	-15.8	16	3	
2025-10-17T00:00	2760	730	1.9	-15.1	13	3	
2025-10-17T00:00	2780	728	1.8	-14.7	11	3	
2025-10-17T00:00	2800	727	1.7	-15.0	11	3	
2025-10-17T00:00	2820	725	1.5	-15.1	14	3	
2025-10-17T00:00	2840	723	1.4	-15.3	18	3	
2025-10-17T00:00	2860	721	1.2	-15.5	24	3	
2025-10-17T00:00	2880	719	1.1	-15.7	30	3	
2025-10-17T00:00	2900	717	0.9	-16.0	37	3	
2025-10-17T00:00	2920	715	0.8	-16.9	43	3	
2025-10-17T00:00	2940	714	0.8	-17.5	46	3	
2025-10-17T00:00	2960	712	0.7	-18.1	49	4	
2025-10-17T00:00	2980	710	0.6	-18.2	51	4	
2025-10-17T00:00	3000	708	0.6	-18.2	54	3	
2025-10-17T00:00	3020	707	0.5	-18.3	56	3	
2025-10-17T00:00	3040	705	0.5	-19.8	59	3	
2025-10-17T00:00	3060	703	0.4	-20.8	63	3	
2025-10-17T00:00	3080	701	0.2	-21.0	65	3	
2025-10-17T00:00	3100	700	0.1	-21.1	66	3	
2025-10-17T00:00	3120	698	0.0	-21.0	65	3	
2025-10-17T00:00	3140	696	-0.1	-21.1	59	3	
2025-10-17T00:00	3160	694	-0.3	-21.2	50	3	
2025-10-17T00:00	3180	693	-0.4	-21.2	41	3	
2025-10-17T00:00	3200	691	-0.4	-22.1	35	3	
2025-10-17T00:00	3220	689	-0.5	-23.0	31	3	
2025-10-17T00:00	3240	688	-0.6	-22.6	30	3	
2025-10-17T00:00	3260	686	-0.8	-20.5	32	3	
2025-10-17T00:00	3280	684	-1.0	-19.8	37	3	
2025-10-17T00:00	3300	682	-1.2	-19.8	42	2	
2025-10-17T00:00	3320	681	-1.3	-19.6	46	2	
2025-10-17T00:00	3340	679	-1.6	-19.3	46	2	
2025-10-17T00:00	3360	677	-1.8	-19.0	42	2	
2025-10-17T00:00	3380	676	-1.9	-19.0	37	2	
2025-10-17T00:00	3400	674	-2.1	-19.0	33	2	
2025-10-17T00:00	3420	672	-2.3	-19.1	29	2	
2025-10-17T00:00	3440	670	-2.5	-19.1	28	2	
2025-10-17T00:00	3460	669	-2.6	-19.4	29	2	
2025-10-17T00:00	3480	667	-2.8	-20.1	31	2	
2025-10-17T00:00	3500	665	-2.9	-20.4	33	2	
2025-10-17T00:00	3520	664	-3.1	-20.2	35	2	
2025-10-17T00:00	3540	662	-3.3	-20.2	36	2	
2025-10-17T00:00	3560	660	-3.4	-21.3	39	2	
2025-10-17T00:00	3580	659	-3.5	-21.2	43	2	
2025-10-17T00:00	3600	657	-3.5	-20.8	47	2	
2025-10-17T00:00	3620	656	-3.6	-20.1	51	3	
2025-10-17T00:00	3640	654	-3.8	-20.0	54	3	
2025-10-17T00:00	3660	652	-3.9	-19.7	56	3	
2025-10-17T00:00	3680	650	-4.1	-19.7	56	4	
2025-10-17T00:00	3700	648	-4.3	-19.6	57	4	
2025-10-17T00:00	3720	647	-4.4	-19.7	58	4	
2025-10-17T00:00	3740	645	-4.6	-19.8	58	4	
2025-10-17T00:00	3760	644	-4.8	-19.9	59	4	
2025-10-17T00:00	3780	642	-5.0	-20.1	60	4	
2025-10-17T00:00	3800	641	-5.0	-20.9	60	4	
2025-10-17T00:00	3820	639	-5.2	-21.2	57	4	
2025-10-17T00:00	3840	637	-5.3	-21.5	53	4	
2025-10-17T00:00	3860	636	-5.5	-21.8	46	4	
2025-10-17T00:00	3880	634	-5.6	-21.9	39	4	
2025-10-17T00:00	3900	632	-5.8	-22.1	33	4	
2025-10-17T00:00	3920	631	-5.9	-22.4	29	4	
2025-10-17T00:00	3940	629	-6.1	-22.5	27	4	
2025-10-17T00:00	3960	627	-6.2	-22.9	27	4	
2025-10-17T00:00	3980	626	-6.4	-23.2	28	4	
2025-10-17T00:00	4000	625	-6.4	-23.6	29	4	
2025-10-17T00:00	4020	623	-6.5	-23.5	30	4	
2025-10-17T00:00	4040	621	-6.7	-23.8	31	4	
2025-10-17T00:00	4060	620	-6.8	-24.3	31	4	
2025-10-17T00:00	4080	618	-6.7	-26.2	30	4	
2025-10-17T00:00	4100	616	-6.7	-28.2	27	4	
2025-10-17T00:00	4120	615	-6.9	-28.5	21	4	
2025-10-17T00:00	4140	613	-7.0	-29.3	14	4	
2025-10-17T00:00	4160	612	-7.1	-30.6	8	4	
2025-10-17T00:00	4180	610	-7.1	-31.7	2	5	
2025-10-17T00:00	4200	608	-7.2	-32.0	360	5	
2025-10-17T00:00	4220	607	-7.3	-31.2	358	5	
2025-10-17T00:00	4240	605	-7.4	-30.6	358	5	
2025-10-17T00:00	4260	604	-7.6	-30.4	358	4	
2025-10-17T00:00	4280	602	-7.7	-30.2	358	4	
2025-10-17T00:00	4300	601	-7.9	-30.5	360	4	
2025-10-17T00:00	4320	599	-8.0	-30.2	3	3	
2025-10-17T00:00	4340	598	-8.2	-29.9	12	3	
2025-10-17T00:00	4360	596	-8.3	-30.0	20	3	
2025-10-17T00:00	4380	595	-8.4	-30.5	29	4	
2025-10-17T00:00	4400	593	-8.5	-30.5	36	4	
2025-10-17T00:00	4420	592	-8.6	-29.9	41	5	
2025-10-17T00:00	4440	590	-8.7	-29.4	46	6	
2025-10-17T00:00	4460	589	-8.9	-29.5	50	6	
2025-10-17T00:00	4480	587	-9.0	-29.4	51	7	
2025-10-17T00:00	4500	586	-9.2	-29.6	52	7	
2025-10-17T00:00	4520	584	-9.4	-29.9	52	7	
2025-10-17T00:00	4540	583	-9.5	-30.0	51	6	
2025-10-17T00:00	4560	581	-9.7	-30.1	49	6	
2025-10-17T00:00	4580	579	-9.9	-30.0	46	6	
2025-10-17T00:00	4600	578	-10.1	-29.6	44	6	
2025-10-17T00:00	4620	576	-10.2	-30.3	40	5	
2025-10-17T00:00	4640	575	-10.4	-30.5	36	5	
2025-10-17T00:00	4660	573	-10.6	-30.7	33	5	
2025-10-17T00:00	4680	572	-10.8	-30.9	30	5	
2025-10-17T00:00	4700	571	-10.9	-30.4	28	5	
2025-10-17T00:00	4720	569	-11.1	-29.9	26	5	
2025-10-17T00:00	4740	568	-11.2	-31.1	24	5	
2025-10-17T00:00	4760	566	-11.4	-31.2	22	5	
2025-10-17T00:00	4780	565	-11.6	-30.4	22	5	
2025-10-17T00:00	4800	563	-11.8	-30.0	23	5	
2025-10-17T00:00	4820	562	-12.0	-29.7	26	5	
2025-10-17T00:00	4840	560	-12.1	-30.1	30	5	
2025-10-17T00:00	4860	559	-11.9	-32.5	34	5	
2025-10-17T00:00	4880	557	-12.0	-33.0	37	5	
2025-10-17T00:00	4900	556	-12.0	-32.2	40	5	
2025-10-17T00:00	4920	554	-12.1	-32.7	43	5	
2025-10-17T00:00	4940	553	-12.2	-33.3	44	5	
2025-10-17T00:00	4960	551	-12.4	-33.5	44	5	
2025-10-17T00:00	4980	550	-12.4	-34.0	44	5	
2025-10-17T00:00	5000	548	-12.5	-33.5	42	5	
2025-10-17T00:00	5020	547	-12.6	-33.7	38	5	
2025-10-17T00:00	5040	546	-12.7	-34.7	33	5	
2025-10-17T00:00	5060	544	-12.7	-37.1	28	5	
2025-10-17T00:00	5080	543	-12.7	-39.2	26	4	
2025-10-17T00:00	5100	541	-12.8	-39.0	24	4	
2025-10-17T00:00	5120	540	-12.9	-39.5	24	3	
2025-10-17T00:00	5140	539	-13.0	-39.3	24	3	
2025-10-17T00:00	5160	537	-13.1	-39.0	25	3	
2025-10-17T00:00	5180	536	-13.3	-39.0	26	3	
2025-10-17T00:00	5200	534	-13.4	-38.8	26	3	
2025-10-17T00:00	5220	533	-13.6	-38.7	25	3	
2025-10-17T00:00	5240	531	-13.8	-38.5	24	4	
2025-10-17T00:00	5260	530	-13.9	-38.5	23	4	
2025-10-17T00:00	5280	529	-14.0	-38.9	23	5	
2025-10-17T00:00	5300	527	-14.1	-39.0	22	5	
2025-10-17T00:00	5320	526	-14.3	-39.0	23	5	
2025-10-17T00:00	5340	525	-14.4	-39.1	23	6	
2025-10-17T00:00	5360	523	-14.6	-39.4	24	6	
2025-10-17T00:00	5380	522	-14.8	-39.7	25	6	
2025-10-17T00:00	5400	520	-14.9	-40.2	26	6	
2025-10-17T00:00	5420	519	-15.1	-40.3	27	6	
2025-10-17T00:00	5440	518	-15.2	-40.5	28	6	
2025-10-17T00:00	5460	516	-15.4	-40.6	29	5	
2025-10-17T00:00	5480	515	-15.5	-40.7	30	5	
2025-10-17T00:00	5500	514	-15.6	-40.2	31	5	
2025-10-17T00:00	5520	512	-15.8	-38.3	33	4	
2025-10-17T00:00	5540	511	-15.9	-37.3	35	4	
2025-10-17T00:00	5560	509	-16.1	-36.7	37	4	
2025-10-17T00:00	5580	508	-16.3	-36.6	39	4	
2025-10-17T00:00	5600	507	-16.5	-36.6	39	4	
2025-10-17T00:00	5620	505	-16.7	-36.9	40	4	
2025-10-17T00:00	5640	504	-16.8	-36.5	41	4	
2025-10-17T00:00	5660	503	-17.0	-36.4	44	4	
2025-10-17T00:00	5680	502	-17.2	-36.4	46	4	
2025-10-17T00:00	5700	500	-17.4	-37.5	48	5	
2025-10-17T00:00	5720	499	-17.6	-37.1	49	5	
2025-10-17T00:00	5740	497	-17.7	-37.1	46	5	
2025-10-17T00:00	5760	496	-17.8	-38.1	42	5	
2025-10-17T00:00	5780	495	-18.0	-37.9	36	5	
2025-10-17T00:00	5800	493	-18.2	-37.9	30	5	
2025-10-17T00:00	5820	492	-18.4	-37.7	25	5	
2025-10-17T00:00	5840	491	-18.6	-37.6	22	5	
2025-10-17T00:00	5860	489	-18.8	-37.9	22	5	
2025-10-17T00:00	5880	488	-18.9	-38.3	23	5	
2025-10-17T00:00	5900	487	-19.1	-38.5	25	5	
2025-10-17T00:00	5920	486	-19.3	-38.4	28	5	
2025-10-17T00:00	5940	484	-19.5	-38.3	31	4	
2025-10-17T00:00	5960	483	-19.7	-38.3	33	4	
2025-10-17T00:00	5980	482	-19.8	-38.4	34	4	
2025-10-17T00:00	6000	480	-20.0	-38.5	34	3	
2025-10-17T00:00	6020	479	-20.2	-38.8	37	3	
2025-10-17T00:00	6040	478	-20.3	-39.9	43	2	
2025-10-17T00:00	6060	477	-20.4	-40.7	55	2	
2025-10-17T00:00	6080	475	-20.6	-40.2	66	2	
2025-10-17T00:00	6100	474	-20.8	-39.0	73	2	
2025-10-17T00:00	6120	473	-21.0	-38.8	76	2	
2025-10-17T00:00	6140	471	-21.2	-38.9	75	3	
2025-10-17T00:00	6160	470	-21.4	-38.9	68	3	
2025-10-17T00:00	6180	469	-21.6	-38.7	59	3	
2025-10-17T00:00	6200	468	-21.8	-38.7	52	3	
2025-10-17T00:00	6220	466	-22.0	-38.8	48	3	
2025-10-17T00:00	6240	465	-22.2	-38.9	44	3	
2025-10-17T00:00	6260	464	-22.3	-38.9	42	3	
2025-10-17T00:00	6280	463	-22.5	-39.0	40	3	
2025-10-17T00:00	6300	461	-22.7	-39.0	38	3	
2025-10-17T00:00	6320	460	-22.9	-39.2	36	3	
2025-10-17T00:00	6340	459	-23.0	-39.4	33	2	
2025-10-17T00:00	6360	457	-23.2	-39.5	32	3	
2025-10-17T00:00	6380	456	-23.4	-39.5	32	3	
2025-10-17T00:00	6400	455	-23.6	-39.6	33	3	
2025-10-17T00:00	6420	454	-23.8	-39.7	34	3	
2025-10-17T00:00	6440	452	-23.9	-39.9	35	4	
2025-10-17T00:00	6460	451	-24.1	-40.1	35	4	
2025-10-17T00:00	6480	450	-24.3	-40.4	35	5	
2025-10-17T00:00	6500	449	-24.4	-40.8	33	5	
2025-10-17T00:00	6520	448	-24.5	-41.0	32	5	
2025-10-17T00:00	6540	446	-24.6	-41.7	31	6	
2025-10-17T00:00	6560	445	-24.7	-42.5	29	6	
2025-10-17T00:00	6580	444	-24.8	-42.9	29	6	
2025-10-17T00:00	6600	443	-25.0	-43.1	30	6	
2025-10-17T00:00	6620	441	-25.2	-43.3	32	6	
2025-10-17T00:00	6640	440	-25.4	-43.5	35	6	
2025-10-17T00:00	6660	439	-25.5	-44.2	36	6	
2025-10-17T00:00	6680	438	-25.6	-45.4	38	6	
2025-10-17T00:00	6700	437	-25.7	-46.1	38	6	
2025-10-17T00:00	6720	435	-25.6	-47.2	39	6	
2025-10-17T00:00	6740	434	-25.6	-46.8	39	7	
2025-10-17T00:00	6760	433	-25.8	-45.1	39	7	
2025-10-17T00:00	6780	432	-25.9	-44.9	38	7	
2025-10-17T00:00	6800	431	-26.0	-45.5	37	7	
2025-10-17T00:00	6820	429	-26.1	-45.3	36	7	
2025-10-17T00:00	6840	428	-26.3	-44.9	35	7	
2025-10-17T00:00	6860	427	-26.5	-44.8	33	7	
2025-10-17T00:00	6880	426	-26.6	-45.0	32	7	
2025-10-17T00:00	6900	425	-26.7	-44.9	32	7	
2025-10-17T00:00	6920	424	-26.8	-45.1	31	7	
2025-10-17T00:00	6940	422	-26.9	-46.0	31	7	
2025-10-17T00:00	6960	421	-26.9	-46.4	32	7	
2025-10-17T00:00	6980	420	-26.9	-45.0	33	7	
2025-10-17T00:00	7000	419	-27.1	-43.3	35	7	
2025-10-17T00:00	7020	418	-27.3	-43.1	36	7	
2025-10-17T00:00	7040	416	-27.5	-43.1	37	7	
2025-10-17T00:00	7060	415	-27.7	-43.2	37	7	
2025-10-17T00:00	7080	414	-27.9	-43.1	37	7	
2025-10-17T00:00	7100	413	-28.1	-43.2	37	7	
2025-10-17T00:00	7120	412	-28.2	-43.4	37	7	
2025-10-17T00:00	7140	411	-28.4	-43.6	36	7	
2025-10-17T00:00	7160	410	-28.6	-43.8	35	7	
2025-10-17T00:00	7180	408	-28.8	-44.0	35	8	
2025-10-17T00:00	7200	407	-28.9	-44.7	34	8	
2025-10-17T00:00	7220	406	-29.1	-45.7	33	8	
2025-10-17T00:00	7240	405	-29.2	-46.8	33	8	
2025-10-17T00:00	7260	404	-29.3	-47.6	33	8	
2025-10-17T00:00	7280	403	-29.4	-49.0	33	9	
2025-10-17T00:00	7300	402	-29.5	-51.3	33	9	
2025-10-17T00:00	7320	400	-29.6	-52.3	34	9	
2025-10-17T00:00	7340	399	-29.7	-52.6	34	8	
2025-10-17T00:00	7360	398	-29.8	-53.0	36	8	
2025-10-17T00:00	7380	397	-29.9	-53.2	37	8	
2025-10-17T00:00	7400	396	-30.1	-53.4	38	8	
2025-10-17T00:00	7420	395	-30.2	-53.4	40	8	
2025-10-17T00:00	7440	394	-30.4	-53.2	41	8	
2025-10-17T00:00	7460	393	-30.5	-53.3	41	8	
2025-10-17T00:00	7480	392	-30.6	-53.4	41	8	
2025-10-17T00:00	7500	391	-30.8	-53.0	40	8	
2025-10-17T00:00	7520	389	-31.0	-51.6	39	8	
2025-10-17T00:00	7540	388	-31.2	-51.6	38	8	
2025-10-17T00:00	7560	387	-31.3	-51.7	37	8	
2025-10-17T00:00	7580	386	-31.5	-51.6	36	8	
2025-10-17T00:00	7600	385	-31.7	-51.3	35	9	
2025-10-17T00:00	7620	384	-31.9	-51.3	34	9	
2025-10-17T00:00	7640	383	-32.0	-51.5	34	9	
2025-10-17T00:00	7660	382	-32.2	-51.7	33	9	
2025-10-17T00:00	7680	381	-32.3	-51.8	33	9	
2025-10-17T00:00	7700	380	-32.5	-52.1	33	10	
2025-10-17T00:00	7720	378	-32.6	-52.2	34	10	
2025-10-17T00:00	7740	377	-32.8	-52.1	34	10	
2025-10-17T00:00	7760	376	-33.0	-52.2	35	10	
2025-10-17T00:00	7780	375	-33.1	-52.1	36	10	
2025-10-17T00:00	7800	374	-33.3	-52.2	36	10	
2025-10-17T00:00	7820	373	-33.5	-52.5	37	10	
2025-10-17T00:00	7840	372	-33.6	-52.9	37	10	
2025-10-17T00:00	7860	371	-33.8	-53.1	37	10	
2025-10-17T00:00	7880	370	-34.0	-53.0	37	10	
2025-10-17T00:00	7900	369	-34.2	-52.2	37	11	
2025-10-17T00:00	7920	368	-34.4	-51.9	37	11	
2025-10-17T00:00	7940	367	-34.5	-52.0	38	11	
2025-10-17T00:00	7960	366	-34.7	-51.9	38	11	
2025-10-17T00:00	7980	365	-34.9	-51.8	39	11	
2025-10-17T00:00	8000	364	-35.1	-51.7	40	11	
2025-10-17T00:00	8020	363	-35.3	-51.8	41	11	
2025-10-17T00:00	8040	362	-35.5	-51.9	41	11	
2025-10-17T00:00	8060	361	-35.7	-52.0	42	11	
2025-10-17T00:00	8080	360	-35.8	-52.1	42	11	
2025-10-17T00:00	8100	359	-36.0	-52.2	42	11	
2025-10-17T00:00	8120	357	-36.2	-52.3	41	11	
2025-10-17T00:00	8140	356	-36.4	-52.3	41	11	
2025-10-17T00:00	8160	355	-36.5	-52.4	40	11	
2025-10-17T00:00	8180	354	-36.7	-52.2	40	11	
2025-10-17T00:00	8200	353	-36.8	-52.3	39	11	
2025-10-17T00:00	8220	352	-37.0	-52.4	39	11	
2025-10-17T00:00	8240	351	-37.2	-52.5	39	11	
2025-10-17T00:00	8260	350	-37.4	-52.8	39	11	
2025-10-17T00:00	8280	349	-37.5	-54.7	39	11	
2025-10-17T00:00	8300	348	-37.6	-57.2	39	11	
2025-10-17T00:00	8320	347	-37.6	-58.2	39	11	
2025-10-17T00:00	8340	346	-37.6	-57.8	39	10	
2025-10-17T00:00	8360	345	-37.7	-57.7	38	10	
2025-10-17T00:00	8380	344	-37.8	-57.5	37	10	
2025-10-17T00:00	8400	343	-38.0	-57.1	36	10	
2025-10-17T00:00	8420	342	-38.1	-57.1	34	10	
2025-10-17T00:00	8440	341	-38.2	-57.5	33	10	
2025-10-17T00:00	8460	340	-38.4	-57.8	33	10	
2025-10-17T00:00	8480	339	-38.5	-57.3	33	10	
2025-10-17T00:00	8500	338	-38.7	-56.9	34	10	
2025-10-17T00:00	8520	337	-38.8	-56.7	35	10	
2025-10-17T00:00	8540	336	-39.0	-56.4	37	10	
2025-10-17T00:00	8560	335	-39.1	-56.5	39	10	
2025-10-17T00:00	8580	334	-39.3	-56.8	41	10	
2025-10-17T00:00	8600	333	-39.5	-56.7	43	10	
2025-10-17T00:00	8620	332	-39.7	-56.6	44	10	
2025-10-17T00:00	8640	332	-39.8	-56.6	44	10	
2025-10-17T00:00	8660	331	-39.9	-56.8	44	9	
2025-10-17T00:00	8680	330	-40.0	-57.2	43	9	
2025-10-17T00:00	8700	329	-40.0	-57.6	42	9	
2025-10-17T00:00	8720	328	-40.2	-57.6	40	9	
2025-10-17T00:00	8740	327	-40.3	-57.6	39	9	
2025-10-17T00:00	8760	326	-40.4	-57.4	39	9	
2025-10-17T00:00	8780	325	-40.5	-57.5	39	9	
2025-10-17T00:00	8800	324	-40.6	-57.7	40	9	
2025-10-17T00:00	8820	323	-40.7	-58.2	41	10	
2025-10-17T00:00	8840	322	-40.9	-58.7	41	10	
2025-10-17T00:00	8860	321	-41.1	-58.9	42	10	
2025-10-17T00:00	8880	320	-41.2	-58.9	42	10	
2025-10-17T00:00	8900	319	-41.3	-58.1	41	10	
2025-10-17T00:00	8920	318	-41.5	-57.9	40	10	
2025-10-17T00:00	8940	317	-41.7	-57.9	39	10	
2025-10-17T00:00	8960	316	-41.8	-58.0	38	10	
2025-10-17T00:00	8980	315	-42.0	-58.3	38	10	
2025-10-17T00:00	9000	314	-42.2	-58.4	38	10	
2025-10-17T00:00	9020	313	-42.4	-58.5	37	10	
2025-10-17T00:00	9040	312	-42.5	-58.7	36	9	
2025-10-17T00:00	9060	312	-42.7	-59.2	35	9	
2025-10-17T00:00	9080	311	-42.9	-59.4	33	9	
2025-10-17T00:00	9100	310	-43.1	-59.4	31	9	
2025-10-17T00:00	9120	309	-43.2	-59.4	29	9	
2025-10-17T00:00	9140	308	-43.4	-59.5	27	9	
2025-10-17T00:00	9160	307	-43.6	-59.5	26	9	
2025-10-17T00:00	9180	306	-43.6	-59.2	25	9	
2025-10-17T00:00	9200	305	-43.7	-58.5	25	9	
2025-10-17T00:00	9220	304	-43.9	-57.2	25	9	
2025-10-17T00:00	9240	303	-44.0	-57.3	26	8	
2025-10-17T00:00	9260	303	-44.2	-57.4	27	8	
2025-10-17T00:00	9280	302	-44.4	-57.4	28	8	
2025-10-17T00:00	9300	301	-44.6	-57.3	28	8	
2025-10-17T00:00	9320	300	-44.8	-57.4	28	8	
2025-10-17T00:00	9340	299	-44.9	-58.0	28	7	
2025-10-17T00:00	9360	298	-45.1	-58.7	28	7	
2025-10-17T00:00	9380	297	-45.2	-59.0	28	7	
2025-10-17T00:00	9400	296	-45.4	-59.3	27	7	
2025-10-17T00:00	9420	295	-45.5	-59.7	27	7	
2025-10-17T00:00	9440	294	-45.6	-60.2	27	8	
2025-10-17T00:00	9460	294	-45.8	-60.8	26	8	
2025-10-17T00:00	9480	293	-45.9	-61.0	26	8	
2025-10-17T00:00	9500	292	-46.1	-60.9	25	8	
2025-10-17T00:00	9520	291	-46.2	-60.7	25	8	
2025-10-17T00:00	9540	290	-46.4	-60.7	24	7	
2025-10-17T00:00	9560	289	-46.5	-60.7	23	7	
2025-10-17T00:00	9580	288	-46.7	-60.8	22	7	
2025-10-17T00:00	9600	287	-46.9	-60.5	20	7	
2025-10-17T00:00	9620	287	-47.0	-60.4	19	8	
2025-10-17T00:00	9640	286	-47.1	-60.5	18	8	
2025-10-17T00:00	9660	285	-47.3	-60.6	16	8	
2025-10-17T00:00	9680	284	-47.4	-60.7	15	8	
2025-10-17T00:00	9700	283	-47.6	-60.8	14	8	
2025-10-17T00:00	9720	282	-47.7	-60.9	13	8	
2025-10-17T00:00	9740	281	-47.9	-60.9	12	8	
2025-10-17T00:00	9760	281	-48.0	-60.8	11	8	
2025-10-17T00:00	9780	280	-48.1	-61.0	12	8	
2025-10-17T00:00	9800	279	-48.3	-61.3	13	8	
2025-10-17T00:00	9820	278	-48.5	-61.3	14	8	
2025-10-17T00:00	9840	277	-48.6	-61.3	15	8	
2025-10-17T00:00	9860	276	-48.7	-61.4	17	9	
2025-10-17T00:00	9880	275	-48.9	-61.6	18	9	
2025-10-17T00:00	9900	275	-49.1	-61.9	18	9	
2025-10-17T00:00	9920	274	-49.2	-61.9	19	9	
2025-10-17T00:00	9940	273	-49.4	-61.0	19	8	
2025-10-17T00:00	9960	272	-49.5	-60.3	19	8	
2025-10-17T00:00	9980	271	-49.7	-60.5	18	8	
2025-10-17T00:00	10000	270	-49.9	-61.2	18	8	
2025-10-17T00:00	10018	270	-50.0	-61.8	17	8	
2025-10-17T00:00	10050	268	-50.2	-62.5	16	8	
2025-10-17T00:00	10100	266	-50.5	-62.5	16	8	
2025-10-17T00:00	10150	264	-50.8	-61.8	19	9	
2025-10-17T00:00	10200	262	-50.9	-64.8	22	9	
2025-10-17T00:00	10250	260	-51.3	-64.9	21	9	
2025-10-17T00:00	10300	258	-51.5	-65.0	20	8	
2025-10-17T00:00	10350	256	-51.8	-65.4	22	8	
2025-10-17T00:00	10400	254	-52.1	-66.1	22	7	
2025-10-17T00:00	10450	252	-52.4	-66.2	19	7	
2025-10-17T00:00	10500	250	-52.7	-66.1	17	8	
2025-10-17T00:00	10550	248	-53.1	-66.1	15	8	
2025-10-17T00:00	10600	247	-53.5	-66.3	14	8	
2025-10-17T00:00	10650	245	-53.8	-66.3	14	8	
2025-10-17T00:00	10700	243	-54.0	-67.0	14	8	
2025-10-17T00:00	10750	241	-54.4	-67.0	14	8	
2025-10-17T00:00	10800	239	-54.7	-66.7	12	8	
2025-10-17T00:00	10850	237	-54.9	-66.6	11	9	
2025-10-17T00:00	10900	235	-55.0	-66.7	10	9	
2025-10-17T00:00	10950	233	-55.2	-67.1	10	10	
2025-10-17T00:00	11000	232	-55.5	-67.3	10	10	
2025-10-17T00:00	11050	230	-55.7	-67.4	7	10	
2025-10-17T00:00	11100	228	-56.0	-67.6	5	10	
2025-10-17T00:00	11150	226	-56.2	-67.9	2	11	
2025-10-17T00:00	11200	224	-56.4	-68.2	1	10	
2025-10-17T00:00	11250	223	-56.7	-68.1	360	10	
2025-10-17T00:00	11300	221	-56.9	-68.3	359	10	
2025-10-17T00:00	11350	219	-57.1	-68.5	358	9	
2025-10-17T00:00	11400	217	-57.3	-68.9	358	9	
2025-10-17T00:00	11450	216	-57.4	-69.1	359	9	
2025-10-17T00:00	11500	214	-57.8	-69.0	1	10	
2025-10-17T00:00	11550	212	-58.1	-69.1	2	9	
2025-10-17T00:00	11600	211	-58.1	-69.3	1	9	
2025-10-17T00:00	11650	209	-58.5	-69.5	359	9	
2025-10-17T00:00	11700	207	-58.7	-69.9	357	9	
2025-10-17T00:00	11750	206	-58.8	-70.5	356	9	
2025-10-17T00:00	11800	204	-58.7	-70.9	357	10	
2025-10-17T00:00	11850	202	-59.1	-70.7	359	11	
2025-10-17T00:00	11900	201	-59.4	-70.6	0	12	
2025-10-17T00:00	11950	199	-59.7	-70.6	2	12	
2025-10-17T00:00	12000	198	-59.9	-70.8	7	10	
2025-10-17T00:00	12050	196	-59.9	-71.7	14	8	
2025-10-17T00:00	12100	195	-59.0	-73.3	19	7	
2025-10-17T00:00	12150	193	-58.8	-74.4	14	6	
2025-10-17T00:00	12200	191	-58.8	-75.2	6	6	
2025-10-17T00:00	12250	190	-58.1	-76.0	2	5	
2025-10-17T00:00	12300	188	-58.0	-76.7	353	4	
2025-10-17T00:00	12350	187	-58.1	-77.2	339	5	
2025-10-17T00:00	12400	185	-58.1	-77.5	326	5	
2025-10-17T00:00	12450	184	-57.8	-77.2	320	6	
2025-10-17T00:00	12500	183	-58.0	-77.3	323	7	
2025-10-17T00:00	12550	181	-58.1	-77.7	329	8	
2025-10-17T00:00	12600	180	-58.1	-78.2	332	9	
2025-10-17T00:00	12650	178	-58.3	-78.5	335	10	
2025-10-17T00:00	12700	177	-58.3	-78.9	338	10	
2025-10-17T00:00	12750	175	-58.4	-79.2	341	9	
2025-10-17T00:00	12800	174	-58.5	-79.3	347	8	
2025-10-17T00:00	12850	173	-58.7	-79.4	357	7	
2025-10-17T00:00	12900	171	-58.9	-79.4	4	7	
2025-10-17T00:00	12950	170	-58.7	-79.5	1	6	
2025-10-17T00:00	13000	169	-58.5	-79.6	348	6	
2025-10-17T00:00	13050	167	-58.7	-79.9	338	6	
2025-10-17T00:00	13100	166	-59.0	-80.0	338	6	
2025-10-17T00:00	13150	165	-58.7	-80.0	343	5	
2025-10-17T00:00	13200	163	-58.7	-80.1	335	3	
2025-10-17T00:00	13250	162	-58.8	-80.3	316	3	
2025-10-17T00:00	13300	161	-58.8	-80.6	317	4	
2025-10-17T00:00	13350	159	-58.8	-81.1	320	4	
2025-10-17T00:00	13400	158	-58.7	-81.4	308	4	
2025-10-17T00:00	13450	157	-58.9	-81.7	292	4	
2025-10-17T00:00	13500	156	-59.0	-81.8	285	5	
2025-10-17T00:00	13550	154	-59.1	-81.9	284	5	
2025-10-17T00:00	13600	153	-59.3	-82.0	286	4	
2025-10-17T00:00	13650	152	-59.5	-82.0	289	4	
2025-10-17T00:00	13700	151	-59.9	-82.1	290	5	
2025-10-17T00:00	13750	150	-60.1	-82.1	293	6	
2025-10-17T00:00	13800	148	-60.1	-82.0	297	7	
2025-10-17T00:00	13850	147	-60.4	-81.9	303	8	
2025-10-17T00:00	13900	146	-60.8	-81.9	310	8	
2025-10-17T00:00	13950	145	-61.0	-82.0	318	8	
2025-10-17T00:00	14000	144	-61.0	-82.1	323	7	
2025-10-17T00:00	14050	143	-60.9	-82.2	327	6	
2025-10-17T00:00	14100	141	-60.8	-82.2	329	5	
2025-10-17T00:00	14150	140	-60.6	-82.4	327	4	
2025-10-17T00:00	14200	139	-60.2	-82.4	319	3	
2025-10-17T00:00	14250	138	-60.2	-82.5	302	3	
2025-10-17T00:00	14300	137	-60.3	-82.7	288	4	
2025-10-17T00:00	14350	136	-60.0	-82.7	285	5	
2025-10-17T00:00	14400	135	-60.3	-82.9	289	6	
2025-10-17T00:00	14450	134	-60.6	-82.9	297	7	
2025-10-17T00:00	14500	133	-60.9	-82.9	307	7	
2025-10-17T00:00	14550	132	-61.0	-83.1	316	7	
2025-10-17T00:00	14600	130	-60.7	-83.1	320	7	
2025-10-17T00:00	14650	129	-60.4	-83.2	326	7	
2025-10-17T00:00	14700	128	-60.3	-83.2	332	7	
2025-10-17T00:00	14750	127	-60.3	-83.2	329	7	
2025-10-17T00:00	14800	126	-60.2	-83.2	319	6	
2025-10-17T00:00	14850	125	-60.3	-83.2	315	6	
2025-10-17T00:00	14900	124	-60.2	-83.1	319	5	
2025-10-17T00:00	14950	123	-60.3	-83.1	321	5	
2025-10-17T00:00	15000	122	-60.4	-83.2	320	6	
2025-10-17T00:00	15050	121	-60.7	-83.3	321	7	
2025-10-17T00:00	15100	120	-60.8	-83.4	322	7	
2025-10-17T00:00	15150	119	-61.0	-83.7	321	7	
2025-10-17T00:00	15200	118	-61.0	-83.8	317	7	
2025-10-17T00:00	15250	118	-60.7	-83.8	309	6	
2025-10-17T00:00	15300	117	-60.4	-83.8	297	6	
2025-10-17T00:00	15350	116	-60.5	-83.8	290	6	
2025-10-17T00:00	15400	115	-60.7	-83.9	290	5	
2025-10-17T00:00	15450	114	-60.6	-83.9	297	5	
2025-10-17T00:00	15500	113	-61.0	-84.0	306	4	
2025-10-17T00:00	15550	112	-61.3	-84.1	309	4	
2025-10-17T00:00	15600	111	-61.3	-84.1	303	4	
2025-10-17T00:00	15650	110	-61.5	-84.3	290	4	
2025-10-17T00:00	15700	109	-61.3	-84.3	281	5	
2025-10-17T00:00	15750	108	-61.7	-84.5	275	6	
2025-10-17T00:00	15800	108	-61.9	-84.5	270	7	
2025-10-17T00:00	15850	107	-62.1	-84.6	270	8	
2025-10-17T00:00	15900	106	-61.9	-84.4	276	8	
2025-10-17T00:00	15950	105	-62.0	-84.5	283	8	
2025-10-17T00:00	16000	104	-62.2	-84.5	289	8	
2025-10-17T00:00	16050	103	-62.5	-84.5	295	8	
2025-10-17T00:00	16100	102	-62.8	-84.5	302	7	
2025-10-17T00:00	16150	102	-62.9	-84.6	308	7	
2025-10-17T00:00	16200	101	-63.0	-84.7	312	6	
2025-10-17T00:00	16250	100	-63.0	-84.8	308	5	
2025-10-17T00:00	16300	99	-63.1	-84.8	297	5	
2025-10-17T00:00	16350	98	-63.4	-85.1	279	5	
2025-10-17T00:00	16400	98	-63.1	-85.1	265	5	
2025-10-17T00:00	16450	97	-62.5	-85.1	263	6	
2025-10-17T00:00	16500	96	-62.4	-85.2	270	6	
2025-10-17T00:00	16550	95	-62.4	-85.4	282	5	
2025-10-17T00:00	16600	94	-62.0	-85.5	295	4	
2025-10-17T00:00	16650	94	-61.5	-85.4	303	4	
2025-10-17T00:00	16700	93	-61.6	-85.5	307	5	
2025-10-17T00:00	16750	92	-61.8	-85.6	309	5	
2025-10-17T00:00	16800	91	-61.8	-85.5	307	6	
2025-10-17T00:00	16850	91	-61.7	-85.4	304	7	
2025-10-17T00:00	16900	90	-61.8	-85.6	307	7	
2025-10-17T00:00	16950	89	-61.8	-85.5	313	6	
2025-10-17T00:00	17000	89	-62.0	-85.5	319	5	
2025-10-17T00:00	17050	88	-62.0	-85.5	316	4	
2025-10-17T00:00	17100	87	-61.9	-85.5	302	3	
2025-10-17T00:00	17150	86	-62.0	-85.6	272	2	
2025-10-17T00:00	17200	86	-62.1	-85.8	247	2	
2025-10-17T00:00	17250	85	-61.9	-85.8	244	3	
2025-10-17T00:00	17300	84	-61.7	-85.8	253	5	
2025-10-17T00:00	17350	84	-61.6	-85.8	264	6	
2025-10-17T00:00	17400	83	-61.6	-85.8	270	7	
2025-10-17T00:00	17450	82	-61.8	-85.9	272	8	
2025-10-17T00:00	17500	82	-61.7	-85.9	274	9	
2025-10-17T00:00	17550	81	-61.9	-85.9	280	9	
2025-10-17T00:00	17600	80	-62.1	-85.9	286	9	
2025-10-17T00:00	17650	80	-62.3	-86.0	292	9	
2025-10-17T00:00	17700	79	-62.4	-86.1	295	9	
2025-10-17T00:00	17750	78	-62.5	-86.3	297	8	
2025-10-17T00:00	17800	78	-62.3	-86.4	299	8	
2025-10-17T00:00	17850	77	-62.1	-86.5	300	7	
2025-10-17T00:00	17900	77	-61.7	-86.4	298	7	
2025-10-17T00:00	17950	76	-61.6	-86.5	300	8	
2025-10-17T00:00	18000	75	-61.2	-86.4	308	8	
2025-10-17T00:00	18050	75	-61.0	-86.3	314	8	
2025-10-17T00:00	18100	74	-60.9	-86.2	314	7	
2025-10-17T00:00	18150	74	-61.1	-86.2	312	8	
2025-10-17T00:00	18200	73	-61.5	-86.3	313	8	
2025-10-17T00:00	18250	72	-61.5	-86.3	316	8	
2025-10-17T00:00	18300	72	-61.6	-86.4	317	8	
2025-10-17T00:00	18350	71	-61.6	-86.4	319	7	
2025-10-17T00:00	18400	71	-61.6	-86.4	321	6	
2025-10-17T00:00	18450	70	-61.8	-86.4	324	5	
2025-10-17T00:00	18500	69	-62.0	-86.5	324	4	
2025-10-17T00:00	18550	69	-62.2	-86.6	315	4	
2025-10-17T00:00	18600	68	-62.1	-86.7	294	3	
2025-10-17T00:00	18650	68	-62.0	-86.8	277	4	
2025-10-17T00:00	18700	67	-61.7	-86.8	274	5	
2025-10-17T00:00	18750	67	-61.5	-86.7	276	6	
2025-10-17T00:00	18800	66	-61.6	-86.6	278	6	
2025-10-17T00:00	18850	66	-61.6	-86.7	281	6	
2025-10-17T00:00	18900	65	-61.6	-86.7	289	6	
2025-10-17T00:00	18950	65	-61.5	-86.6	297	5	
2025-10-17T00:00	19000	64	-61.4	-86.5	298	5	
2025-10-17T00:00	19050	64	-61.6	-86.7	297	6	
2025-10-17T00:00	19100	63	-61.6	-86.8	300	5	
2025-10-17T00:00	19150	63	-61.4	-86.7	306	5	
2025-10-17T00:00	19200	62	-61.5	-86.7	310	4	
2025-10-17T00:00	19250	62	-61.5	-86.8	314	4	
2025-10-17T00:00	19300	61	-61.4	-86.7	318	4	
2025-10-17T00:00	19350	61	-61.5	-86.7	319	3	
2025-10-17T00:00	19400	60	-61.5	-86.7	313	3	
2025-10-17T00:00	19450	60	-61.4	-86.7	299	3	
2025-10-17T00:00	19500	59	-61.3	-86.7	281	3	
2025-10-17T00:00	19550	59	-61.2	-86.6	264	4	
2025-10-17T00:00	19600	58	-61.1	-86.6	256	5	
2025-10-17T00:00	19650	58	-61.0	-86.5	254	6	
2025-10-17T00:00	19700	57	-61.1	-86.7	255	6	
2025-10-17T00:00	19750	57	-61.0	-86.7	257	5	
2025-10-17T00:00	19800	56	-60.8	-86.7	260	5	
2025-10-17T00:00	19850	56	-60.7	-86.6	260	4	
2025-10-17T00:00	19900	55	-60.8	-86.4	261	3	
2025-10-17T00:00	19950	55	-61.0	-86.4	267	2	
2025-10-17T00:00	20000	55	-61.2	-86.6	304	1	
2025-10-17T00:00	20050	54	-61.2		335	0	
2025-10-17T00:00	20100	54	-61.0		268	1	
2025-10-17T00:00	20150	53	-60.9		253	3	
2025-10-17T00:00	20200	53	-61.0		242	4	
2025-10-17T00:00	20250	52	-61.1		237	6	
2025-10-17T00:00	20300	52	-61.1		240	7	
2025-10-17T00:00	20350	52	-60.9		248	9	
2025-10-17T00:00	20400	51	-60.3		258	10	
2025-10-17T00:00	20450	51	-59.7		269	10	
2025-10-17T00:00	20500	50	-59.5		278	11	
2025-10-17T00:00	20550	50	-59.4		283	11	
2025-10-17T00:00	20600	50	-59.5		287	10	
2025-10-17T00:00	20650	49	-59.8		292	10	
2025-10-17T00:00	20700	49	-59.5		294	11	
2025-10-17T00:00	20750	48	-59.6		294	11	
2025-10-17T00:00	20800	48	-59.9		296	10	
2025-10-17T00:00	20850	48	-59.5		300	10	
2025-10-17T00:00	20900	47	-59.5		305	10	
2025-10-17T00:00	20950	47	-59.8		308	9	
2025-10-17T00:00	21000	46	-60.1		310	9	
2025-10-17T00:00	21050	46	-60.2		311	9	
2025-10-17T00:00	21100	46	-60.3		310	9	
2025-10-17T00:00	21150	45	-60.4		307	9	
2025-10-17T00:00	21200	45	-60.4		304	9	
2025-10-17T00:00	21250	45	-60.3		302	9	
2025-10-17T00:00	21300	44	-60.4		302	9	
2025-10-17T00:00	21350	44	-60.5		303	9	
2025-10-17T00:00	21400	44	-60.6		306	9	
2025-10-17T00:00	21450	43	-60.7		309	8	
2025-10-17T00:00	21500	43	-60.7		311	7	
2025-10-17T00:00	21550	43	-60.7		312	7	
2025-10-17T00:00	21600	42	-60.7		314	7	
2025-10-17T00:00	21650	42	-60.9		313	6	
2025-10-17T00:00	21700	42	-61.1		305	6	
2025-10-17T00:00	21750	41	-61.0		297	6	
2025-10-17T00:00	21800	41	-60.9		294	6	
2025-10-17T00:00	21850	41	-60.7		292	7	
2025-10-17T00:00	21900	40	-60.7		287	7	
2025-10-17T00:00	21950	40	-60.8		286	7	
2025-10-17T00:00	22000	40	-60.5		291	7	
2025-10-17T00:00	22050	39	-60.4		299	7	
2025-10-17T00:00	22100	39	-60.5		303	6	
2025-10-17T00:00	22150	39	-60.3		305	6	
2025-10-17T00:00	22200	38	-60.0		308	5	
2025-10-17T00:00	22250	38	-60.2		310	5	
2025-10-17T00:00	22300	38	-60.0		310	5	
2025-10-17T00:00	22350	37	-60.2		308	5	
2025-10-17T00:00	22400	37	-60.0		304	5	
2025-10-17T00:00	22450	37	-59.9		297	5	
2025-10-17T00:00	22500	37	-59.9		294	6	
2025-10-17T00:00	22550	36	-59.1		297	7	
2025-10-17T00:00	22600	36	-59.3		300	7	
2025-10-17T00:00	22650	36	-59.2		300	7	
2025-10-17T00:00	22700	35	-58.8		298	6	
2025-10-17T00:00	22750	35	-58.8		297	6	
2025-10-17T00:00	22800	35	-58.8		298	6	
2025-10-17T00:00	22850	35	-58.9		300	7	
2025-10-17T00:00	22900	34	-59.0		302	7	
2025-10-17T00:00	22950	34	-58.9		304	7	
2025-10-17T00:00	23000	34	-58.7		308	7	
2025-10-17T00:00	23050	33	-58.5		312	8	
2025-10-17T00:00	23100	33	-57.9		313	9	
2025-10-17T00:00	23150	33	-57.9		314	8	
2025-10-17T00:00	23200	33	-57.8		313	7	
2025-10-17T00:00	23250	32	-57.9		310	6	
2025-10-17T00:00	23300	32	-58.0		300	5	
2025-10-17T00:00	23350	32	-58.4		279	4	
2025-10-17T00:00	23400	32	-58.5		250	4	
2025-10-17T00:00	23450	31	-58.5		232	5	
2025-10-17T00:00	23500	31	-58.3		231	7	
2025-10-17T00:00	23550	31	-57.5		239	8	
2025-10-17T00:00	23600	31	-57.2		248	8	
2025-10-17T00:00	23650	30	-57.4		253	9	
2025-10-17T00:00	23700	30	-57.6		250	8	
2025-10-17T00:00	23750	30	-57.2		242	8	
2025-10-17T00:00	23800	30	-57.2		236	8	
2025-10-17T00:00	23850	29	-57.3		240	8	
2025-10-17T00:00	23900	29	-57.1		251	7	
2025-10-17T00:00	23950	29	-57.0		264	7	
2025-10-17T00:00	24000	29	-56.9		273	7	
2025-10-17T00:00	24050	29	-57.1		281	8	
2025-10-17T00:00	24100	28	-57.3		291	8	
2025-10-17T00:00	24150	28	-57.4		300	8	
2025-10-17T00:00	24200	28	-57.4		306	7	
2025-10-17T00:00	24250	28	-57.1		307	6	
2025-10-17T00:00	24300	27	-57.0		304	5	
2025-10-17T00:00	24350	27	-56.9		296	4	
2025-10-17T00:00	24400	27	-57.0		283	4	
2025-10-17T00:00	24450	27	-57.3		271	5	
2025-10-17T00:00	24500	27	-57.3		262	5	
2025-10-17T00:00	24550	26	-57.3		255	6	
2025-10-17T00:00	24600	26	-57.4		250	6	
2025-10-17T00:00	24650	26	-57.5		245	6	
2025-10-17T00:00	24700	26	-57.6		240	7	
2025-10-17T00:00	24750	26	-57.3		235	8	
2025-10-17T00:00	24800	25	-57.1		233	9	
2025-10-17T00:00	24850	25	-56.9		235	10	
2025-10-17T00:00	24900	25	-56.7		242	10	
2025-10-17T00:00	24950	25	-56.5		251	10	
2025-10-17T00:00	25000	25	-56.4		260	9	
2025-10-17T00:00	25050	24	-56.2		266	8	
2025-10-17T00:00	25100	24	-56.2		271	7	
2025-10-17T00:00	25150	24	-56.3		274	8	
2025-10-17T00:00	25200	24	-56.4		273	8	
2025-10-17T00:00	25250	24	-56.5		272	10	
2025-10-17T00:00	25300	23	-56.2		274	11	
2025-10-17T00:00	25350	23	-56.3		278	12	
2025-10-17T00:00	25400	23	-56.0		282	12	
2025-10-17T00:00	25450	23	-55.9		284	12	
2025-10-17T00:00	25500	23	-55.9		284	12	
2025-10-17T00:00	25550	23	-56.0		284	12	
2025-10-17T00:00	25600	22	-55.9		287	11	
2025-10-17T00:00	25650	22	-55.6		291	11	
2025-10-17T00:00	25700	22	-55.4		294	11	
2025-10-17T00:00	25750	22	-55.4		293	10	
2025-10-17T00:00	25800	22	-55.0		287	10	
2025-10-17T00:00	25850	21	-54.7		279	10	
2025-10-17T00:00	25900	21	-54.8		270	11	
2025-10-17T00:00	25950	21	-54.7		264	13	
2025-10-17T00:00	26000	21	-54.5		262	14	
2025-10-17T00:00	26050	21	-54.4		265	15	
2025-10-17T00:00	26100	21	-54.5		270	16	
2025-10-17T00:00	26150	21	-54.5		276	16	
2025-10-17T00:00	26200	20	-54.4		281	15	
2025-10-17T00:00	26250	20	-54.5		286	15	
2025-10-17T00:00	26300	20	-54.7		289	14	
2025-10-17T00:00	26350	20	-55.2		291	12	
2025-10-17T00:00	26400	20	-55.4		293	11	
2025-10-17T00:00	26450	20	-55.1		294	10	
2025-10-17T00:00	26500	19	-55.0		296	9	
2025-10-17T00:00	26550	19	-54.9		294	8	
2025-10-17T00:00	26600	19	-54.9		288	7	
2025-10-17T00:00	26650	19	-54.7		282	6	
2025-10-17T00:00	26700	19	-54.7		278	6	
2025-10-17T00:00	26750	19	-54.6		276	7	
2025-10-17T00:00	26800	19	-54.2		275	7	
2025-10-17T00:00	26850	18	-53.9		273	7	
2025-10-17T00:00	26900	18	-53.6		271	7	
2025-10-17T00:00	26950	18	-53.7		268	8	
2025-10-17T00:00	27000	18	-53.5		266	8	
2025-10-17T00:00	27050	18	-53.8		266	9	
2025-10-17T00:00	27100	18	-53.9		264	9	
2025-10-17T00:00	27150	18	-53.7		260	9	
2025-10-17T00:00	27200	17	-53.8		256	10	
2025-10-17T00:00	27250	17	-53.7		254	11	
2025-10-17T00:00	27300	17	-53.9		252	11	
2025-10-17T00:00	27350	17	-53.8		251	11	
2025-10-17T00:00	27400	17	-53.6		248	10	
2025-10-17T00:00	27450	17	-53.8		247	10	
2025-10-17T00:00	27500	17	-53.6		250	10	
2025-10-17T00:00	27550	16	-53.4		255	10	
2025-10-17T00:00	27600	16	-53.8		258	11	
2025-10-17T00:00	27650	16	-54.0		259	11	
2025-10-17T00:00	27700	16	-54.0		256	11	
2025-10-17T00:00	27750	16	-53.9		252	11	
2025-10-17T00:00	27800	16	-53.8		248	11	
2025-10-17T00:00	27850	16	-53.2		247	12	
2025-10-17T00:00	27900	16	-52.7		248	12	
2025-10-17T00:00	27950	15	-51.8		251	12	
2025-10-17T00:00	28000	15	-51.6		253	11	
2025-10-17T00:00	28050	15	-51.6		254	10	
2025-10-17T00:00	28100	15	-51.8		254	9	
2025-10-17T00:00	28150	15	-51.6		253	8	
2025-10-17T00:00	28200	15	-51.7		252	7	
2025-10-17T00:00	28250	15	-52.0		250	7	
2025-10-17T00:00	28300	15	-52.2		248	7	
2025-10-17T00:00	28350	15	-52.6		247	7	
2025-10-17T00:00	28400	14	-52.5		247	8	
2025-10-17T00:00	28450	14	-52.2		247	9	
2025-10-17T00:00	28500	14	-52.1		246	11	
2025-10-17T00:00	28550	14	-51.7		245	12	
2025-10-17T00:00	28600	14	-51.2		245	14	
2025-10-17T00:00	28650	14	-51.0		247	15	
2025-10-17T00:00	28700	14	-50.9		250	17	
2025-10-17T00:00	28750	14	-50.9		254	18	
2025-10-17T00:00	28800	14	-51.2		259	19	
2025-10-17T00:00	28850	13	-51.3		264	20	
2025-10-17T00:00	28900	13	-50.8		267	21	
2025-10-17T00:00	28950	13	-50.7		268	21	
2025-10-17T00:00	29000	13	-50.8		269	20	
2025-10-17T00:00	29050	13	-51.0		269	20	
2025-10-17T00:00	29100	13	-51.2		270	20	
2025-10-17T00:00	29150	13	-51.3		273	19	
2025-10-17T00:00	29200	13	-51.2		275	18	
2025-10-17T00:00	29250	13	-51.3		278	17	
2025-10-17T00:00	29300	13	-51.1		280	16	
2025-10-17T00:00	29350	12	-50.8		278	15	
2025-10-17T00:00	29400	12	-49.9		275	15	
2025-10-17T00:00	29450	12	-49.1		273	15	
2025-10-17T00:00	29500	12	-48.9		272	15	
2025-10-17T00:00	29550	12	-48.8		273	16	
2025-10-17T00:00	29600	12	-48.7		273	16	
2025-10-17T00:00	29650	12	-48.6		273	16	
2025-10-17T00:00	29700	12	-48.5		273	14	
2025-10-17T00:00	29750	12	-48.6		273	13	
2025-10-17T00:00	29800	12	-48.8		272	11	
2025-10-17T00:00	29850	12	-48.9		271	10	
2025-10-17T00:00	29900	11	-49.0		268	9	
2025-10-17T00:00	29950	11	-48.8		263	10	
2025-10-17T00:00	30000	11	-48.2		260	12	
2025-10-17T00:00	30050	11	-48.1		257	14	
2025-10-17T00:00	30100	11	-48.0		254	16	
2025-10-17T00:00	30150	11	-48.0		254	18	
2025-10-17T00:00	30200	11	-47.5		255	19	
2025-10-17T00:00	30250	11	-47.7		258	20	
2025-10-17T00:00	30300	11	-47.8		261	21	
2025-10-17T00:00	30350	11	-47.4		264	21	
2025-10-17T00:00	30400	11	-47.3		265	21	
2025-10-17T00:00	30450	11	-47.2		265	21	
2025-10-17T00:00	30500	10	-47.3		265	21	
2025-10-17T00:00	30550	10	-47.3		266	21	
2025-10-17T00:00	30600	10	-47.4		268	22	
2025-10-17T00:00	30650	10	-47.3		270	23	
2025-10-17T00:00	30700	10	-47.0		270	23	
2025-10-17T00:00	30750	10	-46.8		270	22	
2025-10-17T00:00	30800	10	-46.9		270	21	
2025-10-17T00:00	30850	10	-47.0		269	19	
2025-10-17T00:00	30900	10	-47.2		268	18	
2025-10-17T00:00	30950	10	-47.3		267	16	
2025-10-17T00:00	31000	10	-47.4		268	16	
2025-10-17T00:00	31050	10	-47.5		271	16	
2025-10-17T00:00	31100	10	-47.4		275	16	
2025-10-17T00:00	31150	10	-47.6		278	17	
2025-10-17T00:00	31200	9	-47.7		278	18	
2025-10-17T00:00	31250	9	-47.6		277	19	
2025-10-17T00:00	31300	9	-47.5		274	21	
2025-10-17T00:00	31350	9	-47.3		272	21	
2025-10-17T00:00	31400	9	-47.1		272	22	
2025-10-17T00:00	31450	9	-46.5		273	21	
2025-10-17T00:00	31500	9	-46.1		277	21	
2025-10-17T00:00	31550	9	-46.2		280	20	
2025-10-17T00:00	31600	9	-46.6		282	19	
2025-10-17T00:00	31650	9	-46.8		283	18	
2025-10-17T00:00	31700	9	-46.5		281	17	
2025-10-17T00:00	31750	9	-46.0		278	17	
2025-10-17T00:00	31800	9	-45.4		276	17	
2025-10-17T00:00	31850	9	-45.3		273	17	
2025-10-17T00:00	31900	8	-45.1		271	17	
2025-10-17T00:00	31950	8	-44.8		269	18	
2025-10-17T00:00	32000	8	-44.8		267	19	
2025-10-17T00:00	32050	8	-44.8		264	20	
2025-10-17T00:00	32100	8	-44.8		263	21	
2025-10-17T00:00	32150	8	-44.7		263	22	
2025-10-17T00:00	32200	8	-44.6		265	22	
2025-10-17T00:00	32250	8	-44.4		268	23	
2025-10-17T00:00	32300	8	-44.6		271	24	
2025-10-17T00:00	32350	8	-44.7		274	25	
2025-10-17T00:00	32400	8	-44.9		276	26	
2025-10-17T00:00	32450	8	-44.9		277	27	
2025-10-17T00:00	32500	8	-44.2		276	28	
2025-10-17T00:00	32550	8	-43.0		275	28	
2025-10-17T00:00	32600	8	-42.5		275	27	
2025-10-17T00:00	32650	8	-42.2		277	27	
2025-10-17T00:00	32700	8	-42.3		279	26	
2025-10-17T00:00	32750	7	-42.0		281	26	
2025-10-17T00:00	32800	7	-41.6		283	25	
2025-10-17T00:00	32850	7	-41.6		285	24	
2025-10-17T00:00	32900	7	-41.6		286	24	
2025-10-17T00:00	32950	7	-41.9		286	23	
2025-10-17T00:00	33000	7	-41.8		284	23	
2025-10-17T00:00	33050	7	-41.9		280	23	
2025-10-17T00:00	33100	7	-41.5		277	23	
2025-10-17T00:00	33150	7	-41.2		273	24	
2025-10-17T00:00	33200	7	-41.0		271	25	
2025-10-17T00:00	33250	7	-40.7		270	26	
2025-10-17T00:00	33300	7	-40.8		269	27	
2025-10-17T00:00	33350	7	-40.8		269	28	
2025-10-17T00:00	33400	7	-40.9		269	29	
2025-10-17T00:00	33450	7	-40.9		267	29	
2025-10-17T00:00	33500	7	-40.7		267	29	
2025-10-17T00:00	33550	7	-40.6		268	29	
2025-10-17T00:00	33600	7	-40.7		271	28	
2025-10-17T00:00	33650	7	-40.6		274	28	
2025-10-17T00:00	33700	7	-40.8		276	28	
2025-10-17T00:00	33750	6	-40.9		278	27	
2025-10-17T00:00	33800	6	-41.0		278	27	
2025-10-17T00:00	33850	6	-40.9		277	27	
2025-10-17T00:00	33900	6	-40.6		276	27	
2025-10-17T00:00	33950	6	-40.3		275	27	
2025-10-17T00:00	34000	6	-40.2		275	27	
2025-10-17T00:00	34050	6	-40.2		275	27	
2025-10-17T00:00	34100	6	-40.1		277	27	
2025-10-17T00:00	34150	6	-40.1		279	28	
2025-10-17T00:00	34200	6	-40.1		281	28	
2025-10-17T00:00	34250	6	-40.1		282	28	
2025-10-17T00:00	34300	6	-40.0		283	28	
2025-10-17T00:00	34350	6	-40.0		282	27	
2025-10-17T00:00	34400	6	-39.8		281	25	
2025-10-17T00:00	34450	6	-39.5		280	25	
2025-10-17T00:00	34500	6	-39.2		280	25	
2025-10-17T00:00	34550	6	-38.7		281	26	
2025-10-17T00:00	34600	6	-37.8		284	28	
2025-10-17T00:00	34650	6	-37.5		287	30	
2025-10-17T00:00	34700	6	-37.2		290	32	
2025-10-17T00:00	34750	6	-36.8		291	31	
2025-10-17T00:00	34800	6	-37.0		290	30	
2025-10-17T00:00	34850	5	-36.8		287	29	
2025-10-17T00:00	34900	5	-36.8		284	28	
2025-10-17T00:00	34950	5	-36.8		284	28	
2025-10-17T00:00	35000	5	-36.6		286	28	
2025-10-17T00:00	35050	5	-36.3		286	28	
2025-10-17T00:00	35100	5	-36.0		284	28	
2025-10-17T00:00	35150	5	-36.0		283	28	
2025-10-17T12:00	491	964	10.0	7.4	334	1	1.1
2025-10-17T12:00	501	963	9.9	7.8	31	1	1.1
2025-10-17T12:00	520	961	9.5	7.3	32	1	1.2
2025-10-17T12:00	540	958	9.1	7.1	30	2	1.2
2025-10-17T12:00	560	956	8.9	7.0	27	2	1.2
2025-10-17T12:00	580	954	8.8	6.9	24	2	1.2
2025-10-17T12:00	600	951	8.4	6.8	21	2	1.3
2025-10-17T12:00	620	949	8.2	6.9	22	2	1.3
2025-10-17T12:00	640	947	7.9	6.8	25	2	1.3
2025-10-17T12:00	660	945	7.7	6.6	34	2	1.3
2025-10-17T12:00	680	942	7.6	6.6	44	2	1.3
2025-10-17T12:00	700	940	7.4	6.6	57	2	1.3
2025-10-17T12:00	720	938	7.2	6.7	66	2	1.3
2025-10-17T12:00	740	936	7.0	6.6	69	2	1.4
2025-10-17T12:00	760	933	6.9	6.3	71	2	1.3
2025-10-17T12:00	780	931	6.7	6.2	71	2	1.4
2025-10-17T12:00	800	929	6.6	6.2	72	2	1.4
2025-10-17T12:00	820	926	6.4	6.1	71	2	1.4
2025-10-17T12:00	840	924	6.3	6.0	70	2	1.4
2025-10-17T12:00	860	922	6.1	5.9	65	2	1.4
2025-10-17T12:00	880	920	6.1	5.7	61	3	1.4
2025-10-17T12:00	900	918	6.2	5.4	55	3	1.4
2025-10-17T12:00	920	915	6.1	5.3	50	3	1.4
2025-10-17T12:00	940	913	6.0	5.3	47	3	1.5
2025-10-17T12:00	960	911	5.9	5.2	46	3	1.6
2025-10-17T12:00	980	909	5.8	5.1	47	3	1.7
2025-10-17T12:00	1000	906	5.6	5.0	50	3	1.7
2025-10-17T12:00	1020	904	5.4	4.9	53	2	1.8
2025-10-17T12:00	1040	902	5.2	4.9	54	2	1.9
2025-10-17T12:00	1060	900	5.1	4.7	52	2	1.9
2025-10-17T12:00	1080	898	5.0	4.6	49	2	2.0
2025-10-17T12:00	1100	895	5.0	4.4	44	2	2.0
2025-10-17T12:00	1120	893	4.8	4.2	41	2	2.1
2025-10-17T12:00	1140	891	4.8	3.5	41	2	2.2
2025-10-17T12:00	1160	889	4.8	2.9	43	2	2.3
2025-10-17T12:00	1180	886	4.6	3.0	46	2	2.4
2025-10-17T12:00	1200	884	4.5	2.9	50	2	2.5
2025-10-17T12:00	1220	882	4.3	2.8	54	1	2.5
2025-10-17T12:00	1240	880	4.2	2.8	59	1	2.6
2025-10-17T12:00	1260	878	4.0	2.8	64	1	2.6
2025-10-17T12:00	1280	876	3.8	2.8	72	1	2.6
2025-10-17T12:00	1300	874	3.7	2.7	85	1	2.7
2025-10-17T12:00	1320	872	3.5	2.7	103	1	2.7
2025-10-17T12:00	1340	869	3.3	2.7	121	0	2.7
2025-10-17T12:00	1360	867	3.1	2.7	136	0	2.7
2025-10-17T12:00	1380	865	3.0	2.7	149	0	2.7
2025-10-17T12:00	1400	863	2.8	2.6	161	1	2.7
2025-10-17T12:00	1420	861	2.6	2.6	171	1	2.7
2025-10-17T12:00	1440	859	2.4	2.4	178	1	2.7
2025-10-17T12:00	1460	856	2.3	2.3	182	1	2.7
2025-10-17T12:00	1480	854	2.2	2.2	183	1	2.6
2025-10-17T12:00	1500	852	2.1	2.1	184	1	2.7
2025-10-17T12:00	1520	850	2.0	2.0	186	1	2.6
2025-10-17T12:00	1540	848	1.9	1.9	192	1	2.6
2025-10-17T12:00	1560	846	1.7	1.7	205	1	2.6
2025-10-17T12:00	1580	844	1.6	1.6	223	1	2.6
2025-10-17T12:00	1600	842	1.4	1.4	236	2	2.6
2025-10-17T12:00	1620	840	1.3	1.3	241	2	2.6
2025-10-17T12:00	1640	838	1.2	1.0	244	2	2.6
2025-10-17T12:00	1660	836	1.8	-4.6	244	3	2.6
2025-10-17T12:00	1680	833	4.1	-8.9	243	3	2.8
2025-10-17T12:00	1700	831	6.3	-8.7	242	3	3.0
2025-10-17T12:00	1720	829	6.8	-9.0	241	3	3.2
2025-10-17T12:00	1740	828	6.8	-9.2	239	3	3.4
2025-10-17T12:00	1760	825	6.8	-9.3	239	3	3.5
2025-10-17T12:00	1780	823	6.8	-9.5	240	3	3.6
2025-10-17T12:00	1800	821	6.8	-9.5	241	3	3.7
2025-10-17T12:00	1820	820	6.6	-9.4	241	3	3.8
2025-10-17T12:00	1840	817	6.4	-9.5	241	3	3.8
2025-10-17T12:00	1860	815	6.4	-9.6	241	4	3.9
2025-10-17T12:00	1880	814	6.3	-9.5	239	4	3.9
2025-10-17T12:00	1900	811	6.3	-9.6	237	4	4.0
2025-10-17T12:00	1920	809	6.1	-9.7	236	3	4.0
2025-10-17T12:00	1940	807	6.0	-10.0	235	3	4.0
2025-10-17T12:00	1960	805	5.9	-10.5	234	3	4.0
2025-10-17T12:00	1980	803	5.8	-11.8	236	2	4.0
2025-10-17T12:00	2000	802	5.7	-13.4	240	2	4.1
2025-10-17T12:00	2020	800	5.7	-14.8	247	1	4.1
2025-10-17T12:00	2040	798	5.6	-14.0	257	1	4.1
2025-10-17T12:00	2060	796	5.5	-13.8	269	1	4.1
2025-10-17T12:00	2080	794	5.4	-14.0	275	1	4.1
2025-10-17T12:00	2100	792	5.4	-14.2	274	1	4.1
2025-10-17T12:00	2120	790	5.4	-14.6	268	1	4.1
2025-10-17T12:00	2140	788	5.2	-15.4	262	1	4.1
2025-10-17T12:00	2160	786	5.3	-16.9	259	1	4.1
2025-10-17T12:00	2180	784	5.2	-18.6	265	0	4.1
2025-10-17T12:00	2200	782	5.0	-18.5	287	0	4.1
2025-10-17T12:00	2220	780	4.8	-16.3	327	0	4.1
2025-10-17T12:00	2240	778	4.7	-14.3	350	0	4.1
2025-10-17T12:00	2260	776	4.6	-13.0	2	1	4.1
2025-10-17T12:00	2280	774	4.5	-12.7	7	1	4.1
2025-10-17T12:00	2300	773	4.3	-12.7	9	1	4.0
2025-10-17T12:00	2320	771	4.1	-12.9	10	1	4.0
2025-10-17T12:00	2340	769	4.0	-13.6	13	1	4.0
2025-10-17T12:00	2360	767	4.0	-15.0	17	1	3.9
2025-10-17T12:00	2380	765	3.8	-16.2	22	1	3.9
2025-10-17T12:00	2400	763	3.7	-15.7	27	1	3.9
2025-10-17T12:00	2420	761	3.7	-15.8	32	1	4.0
2025-10-17T12:00	2440	759	3.6	-16.7	36	1	4.0
2025-10-17T12:00	2460	757	3.5	-16.4	38	2	4.0
2025-10-17T12:00	2480	755	3.3	-16.3	38	2	4.0
2025-10-17T12:00	2500	754	3.0	-16.3	37	2	4.0
2025-10-17T12:00	2520	752	2.9	-16.4	35	2	4.0
2025-10-17T12:00	2540	750	2.8	-16.4	33	2	4.0
2025-10-17T12:00	2560	748	2.7	-15.4	30	2	4.0
2025-10-17T12:00	2580	746	2.6	-15.3	27	2	4.0
2025-10-17T12:00	2600	745	2.4	-14.6	25	2	4.0
2025-10-17T12:00	2620	743	2.2	-16.1	23	2	4.0
2025-10-17T12:00	2640	741	2.2	-17.2	23	2	4.0
2025-10-17T12:00	2660	739	2.0	-16.5	24	2	4.0
2025-10-17T12:00	2680	737	1.8	-16.1	27	2	4.0
2025-10-17T12:00	2700	735	1.7	-15.6	30	2	4.0
2025-10-17T12:00	2720	733	1.5	-15.1	33	2	4.0
2025-10-17T12:00	2740	732	1.4	-14.6	36	1	3.9
2025-10-17T12:00	2760	730	1.3	-14.1	40	1	3.9
2025-10-17T12:00	2780	728	1.0	-13.8	41	1	3.9
2025-10-17T12:00	2800	726	0.7	-13.8	40	1	3.9
2025-10-17T12:00	2820	724	0.6	-13.9	37	1	3.9
2025-10-17T12:00	2840	723	0.5	-14.5	33	1	3.9
2025-10-17T12:00	2860	721	0.4	-14.5	28	1	3.8
2025-10-17T12:00	2880	719	0.3	-14.9	23	1	3.8
2025-10-17T12:00	2900	717	0.3	-15.8	18	1	3.8
2025-10-17T12:00	2920	716	0.1	-15.9	16	2	3.8
2025-10-17T12:00	2940	714	-0.1	-16.0	14	2	3.8
2025-10-17T12:00	2960	712	-0.3	-16.2	13	2	3.8
2025-10-17T12:00	2980	710	-0.4	-16.4	13	2	3.8
2025-10-17T12:00	3000	708	-0.5	-17.2	15	2	3.8
2025-10-17T12:00	3020	706	-0.6	-17.8	16	2	3.8
2025-10-17T12:00	3040	705	-0.7	-18.0	18	2	3.8
2025-10-17T12:00	3060	703	-0.9	-17.6	19	2	3.8
2025-10-17T12:00	3080	701	-1.0	-17.8	19	2	3.8
2025-10-17T12:00	3100	700	-1.1	-18.2	19	2	3.8
2025-10-17T12:00	3120	698	-1.2	-18.4	17	2	3.8
2025-10-17T12:00	3140	696	-1.4	-18.9	15	2	3.8
2025-10-17T12:00	3160	694	-1.5	-18.9	13	2	3.8
2025-10-17T12:00	3180	693	-1.7	-18.6	11	2	3.8
2025-10-17T12:00	3200	691	-1.8	-18.8	9	3	3.8
2025-10-17T12:00	3220	689	-2.0	-18.9	7	3	3.8
2025-10-17T12:00	3240	687	-2.2	-18.9	6	3	3.8
2025-10-17T12:00	3260	686	-2.3	-18.9	5	3	3.8
2025-10-17T12:00	3280	684	-2.3	-19.0	4	3	3.8
2025-10-17T12:00	3300	682	-2.4	-19.5	4	3	3.8
2025-10-17T12:00	3320	680	-2.5	-19.9	5	3	3.8
2025-10-17T12:00	3340	679	-2.6	-18.4	5	3	3.8
2025-10-17T12:00	3360	677	-2.8	-18.6	5	3	3.8
2025-10-17T12:00	3380	675	-2.9	-17.7	6	3	3.8
2025-10-17T12:00	3400	674	-3.0	-19.2	6	3	3.8
2025-10-17T12:00	3420	672	-3.1	-21.0	5	3	3.8
2025-10-17T12:00	3440	670	-3.0	-21.6	4	3	3.8
2025-10-17T12:00	3460	668	-3.2	-22.3	3	3	3.8
2025-10-17T12:00	3480	667	-3.2	-22.1	1	3	3.8
2025-10-17T12:00	3500	665	-3.4	-21.0	359	3	3.8
2025-10-17T12:00	3520	663	-3.6	-21.1	357	4	3.9
2025-10-17T12:00	3540	662	-3.7	-21.0	355	4	3.9
2025-10-17T12:00	3560	660	-3.8	-21.4	353	4	3.9
2025-10-17T12:00	3580	659	-3.9	-21.7	352	4	3.9
2025-10-17T12:00	3600	657	-3.9	-22.4	350	4	3.8
2025-10-17T12:00	3620	655	-4.0	-22.7	348	4	3.7
2025-10-17T12:00	3640	653	-4.1	-22.6	347	3	3.7
2025-10-17T12:00	3660	652	-4.1	-22.7	346	3	3.7
2025-10-17T12:00	3680	650	-4.3	-22.8	346	3	3.7
2025-10-17T12:00	3700	648	-4.5	-22.7	345	3	3.6
2025-10-17T12:00	3720	647	-4.7	-22.1	344	3	3.6
2025-10-17T12:00	3740	645	-4.8	-21.5	343	3	3.6
2025-10-17T12:00	3760	643	-4.9	-21.7	343	3	3.5
2025-10-17T12:00	3780	642	-5.1	-22.9	343	3	3.4
2025-10-17T12:00	3800	640	-5.3	-24.9	343	3	3.4
2025-10-17T12:00	3820	639	-5.3	-28.2	343	2	3.4
2025-10-17T12:00	3840	637	-5.2	-29.0	343	2	3.5
2025-10-17T12:00	3860	635	-5.2	-29.0	343	2	3.6
2025-10-17T12:00	3880	634	-5.3	-29.5	342	2	3.6
2025-10-17T12:00	3900	632	-5.3	-28.9	340	2	3.7
2025-10-17T12:00	3920	630	-5.4	-27.6	337	2	3.7
2025-10-17T12:00	3940	629	-5.5	-29.5	334	2	3.7
2025-10-17T12:00	3960	627	-5.5	-30.2	330	2	3.6
2025-10-17T12:00	3980	626	-5.6	-29.4	324	2	3.6
2025-10-17T12:00	4000	624	-5.8	-29.7	319	3	3.6
2025-10-17T12:00	4020	623	-5.8	-30.8	314	3	3.6
2025-10-17T12:00	4040	621	-5.9	-30.5	310	3	3.6
2025-10-17T12:00	4060	619	-5.9	-32.0	308	4	3.6
2025-10-17T12:00	4080	618	-5.9	-34.3	307	4	3.6
2025-10-17T12:00	4100	616	-5.9	-33.1	307	4	3.6
2025-10-17T12:00	4120	615	-5.9	-30.2	307	4	3.6
2025-10-17T12:00	4140	613	-6.1	-27.5	308	4	3.6
2025-10-17T12:00	4160	611	-6.1	-25.8	309	4	3.5
2025-10-17T12:00	4180	610	-6.4	-25.6	311	4	3.5
2025-10-17T12:00	4200	608	-6.7	-25.7	312	4	3.4
2025-10-17T12:00	4220	607	-6.9	-26.0	314	4	3.4
2025-10-17T12:00	4240	605	-7.0	-26.1	315	4	3.3
2025-10-17T12:00	4260	604	-7.3	-26.5	317	4	3.3
2025-10-17T12:00	4280	602	-7.5	-27.2	318	4	3.3
2025-10-17T12:00	4300	600	-7.7	-28.2	319	4	3.3
2025-10-17T12:00	4320	599	-7.8	-28.0	320	4	3.2
2025-10-17T12:00	4340	597	-8.0	-27.6	320	4	3.2
2025-10-17T12:00	4360	596	-8.2	-27.1	321	4	3.3
2025-10-17T12:00	4380	594	-8.3	-27.5	322	4	3.2
2025-10-17T12:00	4400	593	-8.5	-28.4	324	4	3.2
2025-10-17T12:00	4420	591	-8.6	-29.4	325	4	3.3
2025-10-17T12:00	4440	590	-8.7	-29.9	327	4	3.3
2025-10-17T12:00	4460	588	-8.8	-30.7	328	4	3.3
2025-10-17T12:00	4480	587	-9.0	-31.4	330	4	3.3
2025-10-17T12:00	4500	585	-9.1	-31.5	331	4	3.4
2025-10-17T12:00	4520	584	-9.2	-31.0	334	4	3.4
2025-10-17T12:00	4540	582	-9.4	-31.2	335	4	3.4
2025-10-17T12:00	4560	581	-9.5	-31.6	338	4	3.4
2025-10-17T12:00	4580	579	-9.7	-30.5	340	4	3.4
2025-10-17T12:00	4600	578	-9.9	-30.2	344	4	3.4
2025-10-17T12:00	4620	576	-10.1	-30.3	346	4	3.4
2025-10-17T12:00	4640	575	-10.3	-30.4	349	4	3.4
2025-10-17T12:00	4660	573	-10.5	-30.4	351	4	3.4
2025-10-17T12:00	4680	572	-10.7	-30.4	352	4	3.4
2025-10-17T12:00	4700	570	-10.8	-30.4	353	4	3.4
2025-10-17T12:00	4720	569	-11.0	-30.5	354	4	3.4
2025-10-17T12:00	4740	567	-11.2	-30.4	355	4	3.4
2025-10-17T12:00	4760	566	-11.4	-30.5	355	4	3.4
2025-10-17T12:00	4780	565	-11.5	-30.5	355	4	3.4
2025-10-17T12:00	4800	563	-11.6	-30.6	356	4	3.4
2025-10-17T12:00	4820	561	-11.7	-30.3	357	4	3.4
2025-10-17T12:00	4840	560	-11.9	-30.6	357	4	3.4
2025-10-17T12:00	4860	558	-12.1	-31.4	358	4	3.4
2025-10-17T12:00	4880	557	-12.3	-32.6	359	4	3.4
2025-10-17T12:00	4900	556	-12.4	-34.5	0	4	3.4
2025-10-17T12:00	4920	554	-12.4	-36.7	1	4	3.4
2025-10-17T12:00	4940	553	-12.5	-36.2	2	4	3.4
2025-10-17T12:00	4960	551	-12.5	-35.1	2	5	3.4
2025-10-17T12:00	4980	550	-12.6	-36.1	2	5	3.4
2025-10-17T12:00	5000	548	-12.7	-36.7	1	5	3.4
2025-10-17T12:00	5020	547	-12.8	-36.8	360	5	3.4
2025-10-17T12:00	5040	546	-12.9	-36.9	358	5	3.4
2025-10-17T12:00	5060	544	-13.0	-37.0	357	5	3.4
2025-10-17T12:00	5080	543	-13.0	-37.1	356	5	3.4
2025-10-17T12:00	5100	541	-13.2	-37.3	355	5	3.3
2025-10-17T12:00	5120	540	-13.3	-37.4	355	5	3.3
2025-10-17T12:00	5140	538	-13.4	-37.3	356	5	3.3
2025-10-17T12:00	5160	537	-13.6	-37.2	357	6	3.3
2025-10-17T12:00	5180	536	-13.6	-37.4	357	6	3.3
2025-10-17T12:00	5200	534	-13.7	-37.8	358	6	3.2
2025-10-17T12:00	5220	533	-13.8	-37.9	359	6	3.2
2025-10-17T12:00	5240	531	-13.7	-37.3	358	6	3.2
2025-10-17T12:00	5260	530	-13.9	-35.6	358	6	3.2
2025-10-17T12:00	5280	529	-13.9	-32.6	358	6	3.2
2025-10-17T12:00	5300	527	-14.0	-30.7	357	6	3.2
2025-10-17T12:00	5320	526	-14.1	-30.4	357	6	3.1
2025-10-17T12:00	5340	524	-14.2	-30.3	357	6	3.0
2025-10-17T12:00	5360	523	-14.4	-30.3	357	6	3.0
2025-10-17T12:00	5380	522	-14.7	-30.3	357	6	2.9
2025-10-17T12:00	5400	520	-14.9	-30.5	357	6	2.9
2025-10-17T12:00	5420	519	-15.1	-30.7	357	6	2.8
2025-10-17T12:00	5440	517	-15.2	-30.9	357	6	2.8
2025-10-17T12:00	5460	516	-15.4	-31.4	357	6	2.8
2025-10-17T12:00	5480	515	-15.5	-32.3	356	6	2.8
2025-10-17T12:00	5500	513	-15.7	-32.7	355	6	2.8
2025-10-17T12:00	5520	512	-15.8	-33.0	354	6	2.8
2025-10-17T12:00	5540	511	-15.9	-33.6	352	5	2.8
2025-10-17T12:00	5560	509	-16.1	-34.4	350	5	2.9
2025-10-17T12:00	5580	508	-16.4	-36.7	348	5	2.9
2025-10-17T12:00	5600	507	-16.5	-38.9	346	5	2.9
2025-10-17T12:00	5620	505	-16.5	-39.6	344	5	2.9
2025-10-17T12:00	5640	504	-16.6	-39.1	342	5	2.9
2025-10-17T12:00	5660	503	-16.8	-36.1	341	4	2.9
2025-10-17T12:00	5680	501	-16.9	-35.6	340	4	2.9
2025-10-17T12:00	5700	500	-17.1	-35.2	340	4	2.9
2025-10-17T12:00	5720	499	-17.3	-35.1	341	4	3.0
2025-10-17T12:00	5740	497	-17.4	-34.2	341	5	3.0
2025-10-17T12:00	5760	496	-17.6	-33.9	341	5	2.9
2025-10-17T12:00	5780	495	-17.9	-34.2	341	5	2.9
2025-10-17T12:00	5800	493	-18.1	-34.3	340	5	2.9
2025-10-17T12:00	5820	492	-18.3	-34.4	339	5	2.9
2025-10-17T12:00	5840	491	-18.4	-34.6	338	5	2.9
2025-10-17T12:00	5860	489	-18.6	-34.9	337	5	2.9
2025-10-17T12:00	5880	488	-18.9	-34.7	336	5	2.9
2025-10-17T12:00	5900	487	-19.0	-34.9	335	6	2.8
2025-10-17T12:00	5920	485	-19.2	-35.0	334	6	2.8
2025-10-17T12:00	5940	484	-19.4	-35.2	334	5	2.8
2025-10-17T12:00	5960	483	-19.6	-35.0	333	5	2.8
2025-10-17T12:00	5980	481	-19.8	-34.0	333	5	2.8
2025-10-17T12:00	6000	480	-20.0	-33.6	332	5	2.8
2025-10-17T12:00	6020	479	-20.1	-35.0	331	5	2.8
2025-10-17T12:00	6040	478	-20.2	-37.5	330	5	2.7
2025-10-17T12:00	6060	476	-20.2	-39.3	330	5	2.7
2025-10-17T12:00	6080	475	-20.2	-37.6	330	5	2.7
2025-10-17T12:00	6100	474	-20.4	-36.7	330	5	2.7
2025-10-17T12:00	6120	472	-20.5	-36.9	331	5	2.7
2025-10-17T12:00	6140	471	-20.7	-36.9	331	5	2.7
2025-10-17T12:00	6160	470	-20.9	-37.3	332	6	2.7
2025-10-17T12:00	6180	469	-21.2	-37.3	333	6	2.7
2025-10-17T12:00	6200	468	-21.3	-36.9	334	6	2.7
2025-10-17T12:00	6220	466	-21.5	-37.1	335	6	2.7
2025-10-17T12:00	6240	465	-21.6	-37.9	336	6	2.6
2025-10-17T12:00	6260	464	-21.8	-38.7	337	6	2.6
2025-10-17T12:00	6280	462	-21.9	-38.9	338	6	2.6
2025-10-17T12:00	6300	461	-22.1	-39.9	339	6	2.6
2025-10-17T12:00	6320	460	-22.2	-39.6	339	7	2.6
2025-10-17T12:00	6340	459	-22.4	-39.8	339	7	2.6
2025-10-17T12:00	6360	457	-22.6	-39.8	339	7	2.6
2025-10-17T12:00	6380	456	-22.9	-40.0	339	7	2.6
2025-10-17T12:00	6400	455	-23.0	-40.4	339	7	2.6
2025-10-17T12:00	6420	454	-23.2	-40.4	339	7	2.6
2025-10-17T12:00	6440	452	-23.3	-39.5	339	7	2.6
2025-10-17T12:00	6460	451	-23.4	-41.9	339	8	2.6
2025-10-17T12:00	6480	450	-23.6	-44.1	339	8	2.6
2025-10-17T12:00	6500	449	-23.6	-43.5	339	8	2.6
2025-10-17T12:00	6520	447	-23.8	-42.6	339	8	2.7
2025-10-17T12:00	6540	446	-24.0	-41.8	339	8	2.7
2025-10-17T12:00	6560	445	-24.1	-38.9	339	8	2.7
2025-10-17T12:00	6580	444	-24.2	-34.8	339	8	2.8
2025-10-17T12:00	6600	443	-24.4	-35.3	339	8	2.8
2025-10-17T12:00	6620	441	-24.6	-35.4	338	8	2.8
2025-10-17T12:00	6640	440	-24.8	-35.5	338	8	2.8
2025-10-17T12:00	6660	439	-25.0	-35.5	337	8	2.7
2025-10-17T12:00	6680	438	-25.1	-35.4	337	8	2.7
2025-10-17T12:00	6700	437	-25.2	-35.2	336	8	2.7
2025-10-17T12:00	6720	435	-25.4	-34.9	335	8	2.7
2025-10-17T12:00	6740	434	-25.5	-35.1	334	8	2.7
2025-10-17T12:00	6760	433	-25.8	-35.5	333	8	2.7
2025-10-17T12:00	6780	432	-26.0	-35.7	332	8	2.7
2025-10-17T12:00	6800	430	-26.1	-35.4	331	8	2.7
2025-10-17T12:00	6820	429	-26.3	-35.3	331	8	2.7
2025-10-17T12:00	6840	428	-26.5	-35.3	331	8	2.6
2025-10-17T12:00	6860	427	-26.6	-35.5	330	8	2.6
2025-10-17T12:00	6880	426	-26.8	-36.3	330	8	2.6
2025-10-17T12:00	6900	425	-27.0	-36.8	330	8	2.6
2025-10-17T12:00	6920	424	-27.0	-37.3	330	8	2.6
2025-10-17T12:00	6940	422	-27.2	-38.1	331	8	2.6
2025-10-17T12:00	6960	421	-27.3	-38.8	331	8	2.6
2025-10-17T12:00	6980	420	-27.5	-38.6	332	7	2.6
2025-10-17T12:00	7000	419	-27.7	-38.6	333	7	2.6
2025-10-17T12:00	7020	418	-27.8	-38.8	335	7	2.6
2025-10-17T12:00	7040	416	-27.9	-39.6	338	7	2.6
2025-10-17T12:00	7060	415	-28.1	-40.7	340	7	2.6
2025-10-17T12:00	7080	414	-28.2	-41.1	343	7	2.6
2025-10-17T12:00	7100	413	-28.3	-41.7	346	7	2.6
2025-10-17T12:00	7120	412	-28.5	-42.1	348	7	2.6
2025-10-17T12:00	7140	411	-28.6	-42.2	350	7	2.6
2025-10-17T12:00	7160	410	-28.7	-42.5	351	8	2.6
2025-10-17T12:00	7180	408	-28.8	-43.0	352	8	2.6
2025-10-17T12:00	7200	407	-29.1	-42.7	353	8	2.7
2025-10-17T12:00	7220	406	-29.3	-42.6	353	8	2.7
2025-10-17T12:00	7240	405	-29.4	-43.4	354	8	2.7
2025-10-17T12:00	7260	404	-29.5	-44.2	354	8	2.7
2025-10-17T12:00	7280	403	-29.6	-43.5	354	8	2.7
2025-10-17T12:00	7300	402	-29.8	-43.0	354	8	2.7
2025-10-17T12:00	7320	400	-30.0	-43.1	355	8	2.7
2025-10-17T12:00	7340	399	-30.2	-43.1	355	8	2.7
2025-10-17T12:00	7360	398	-30.3	-43.2	354	8	2.7
2025-10-17T12:00	7380	397	-30.4	-43.1	353	8	2.7
2025-10-17T12:00	7400	396	-30.7	-43.2	351	8	2.7
2025-10-17T12:00	7420	395	-30.9	-43.5	350	8	2.7
2025-10-17T12:00	7440	394	-31.0	-43.3	348	8	2.7
2025-10-17T12:00	7460	393	-31.0	-43.5	347	8	2.7
2025-10-17T12:00	7480	392	-31.3	-44.2	346	8	2.7
2025-10-17T12:00	7500	390	-31.3	-45.2	346	8	2.6
2025-10-17T12:00	7520	389	-31.4	-45.6	346	8	2.6
2025-10-17T12:00	7540	388	-31.5	-45.5	347	8	2.6
2025-10-17T12:00	7560	387	-31.7	-45.5	347	8	2.6
2025-10-17T12:00	7580	386	-31.8	-45.1	348	8	2.6
2025-10-17T12:00	7600	385	-31.9	-44.8	349	8	2.6
2025-10-17T12:00	7620	384	-32.1	-44.8	350	8	2.6
2025-10-17T12:00	7640	383	-32.1	-44.7	350	8	2.6
2025-10-17T12:00	7660	382	-32.3	-44.3	351	8	2.5
2025-10-17T12:00	7680	381	-32.7	-43.1	351	8	2.5
2025-10-17T12:00	7700	379	-32.9	-42.2	351	9	2.5
2025-10-17T12:00	7720	378	-33.1	-41.5	350	9	2.5
2025-10-17T12:00	7740	377	-33.2	-42.4	350	9	2.4
2025-10-17T12:00	7760	376	-33.3	-43.1	349	9	2.4
2025-10-17T12:00	7780	375	-33.4	-43.2	349	9	2.4
2025-10-17T12:00	7800	374	-33.5	-43.5	348	9	2.3
2025-10-17T12:00	7820	373	-33.8	-44.4	347	10	2.2
2025-10-17T12:00	7840	372	-33.9	-44.6	346	10	2.2
2025-10-17T12:00	7860	371	-33.9	-45.3	346	10	2.1
2025-10-17T12:00	7880	370	-34.0	-45.8	345	10	2.1
2025-10-17T12:00	7900	369	-34.3	-45.5	344	10	2.1
2025-10-17T12:00	7920	368	-34.6	-45.7	343	10	2.0
2025-10-17T12:00	7940	367	-34.7	-46.4	342	10	2.0
2025-10-17T12:00	7960	366	-34.8	-47.2	341	10	2.0
2025-10-17T12:00	7980	365	-34.9	-48.2	340	10	2.0
2025-10-17T12:00	8000	364	-35.1	-47.9	338	10	1.9
2025-10-17T12:00	8020	363	-35.3	-47.8	337	10	1.9
2025-10-17T12:00	8040	362	-35.4	-47.7	336	10	1.9
2025-10-17T12:00	8060	361	-35.5	-47.9	334	10	1.9
2025-10-17T12:00	8080	360	-35.7	-47.5	334	10	1.9
2025-10-17T12:00	8100	359	-35.8	-47.7	333	10	1.9
2025-10-17T12:00	8120	357	-36.0	-47.6	333	10	1.9
2025-10-17T12:00	8140	356	-36.2	-47.4	333	10	1.8
2025-10-17T12:00	8160	355	-36.4	-46.7	334	10	1.8
2025-10-17T12:00	8180	354	-36.5	-47.6	334	10	1.8
2025-10-17T12:00	8200	353	-36.6	-48.9	334	10	1.8
2025-10-17T12:00	8220	352	-36.9	-48.2	334	10	1.8
2025-10-17T12:00	8240	351	-37.0	-47.8	333	10	1.7
2025-10-17T12:00	8260	350	-37.3	-46.8	332	10	1.7
2025-10-17T12:00	8280	349	-37.4	-46.6	332	10	1.7
2025-10-17T12:00	8300	348	-37.4	-47.2	331	10	1.7
2025-10-17T12:00	8320	347	-37.7	-47.0	330	10	1.7
2025-10-17T12:00	8340	346	-37.9	-47.1	329	10	1.7
2025-10-17T12:00	8360	345	-38.1	-47.3	328	9	1.6
2025-10-17T12:00	8380	344	-38.1	-47.4	328	9	1.6
2025-10-17T12:00	8400	343	-38.3	-48.9	328	9	1.6
2025-10-17T12:00	8420	342	-38.5	-49.7	328	9	1.7
2025-10-17T12:00	8440	341	-38.5	-50.3	327	9	1.7
2025-10-17T12:00	8460	340	-38.7	-50.3	327	9	1.6
2025-10-17T12:00	8480	339	-38.9	-50.2	327	9	1.7
2025-10-17T12:00	8500	338	-39.0	-50.3	326	9	1.6
2025-10-17T12:00	8520	337	-39.2	-50.1	326	9	1.6
2025-10-17T12:00	8540	336	-39.3	-50.3	326	9	1.6
2025-10-17T12:00	8560	335	-39.5	-51.3	326	9	1.6
2025-10-17T12:00	8580	334	-39.5	-52.7	326	9	1.6
2025-10-17T12:00	8600	333	-39.7	-53.6	327	9	1.6
2025-10-17T12:00	8620	332	-40.0	-53.3	327	9	1.6
2025-10-17T12:00	8640	331	-40.2	-53.3	327	9	1.6
2025-10-17T12:00	8660	331	-40.3	-53.6	327	9	1.6
2025-10-17T12:00	8680	330	-40.4	-53.3	326	9	1.6
2025-10-17T12:00	8700	328	-40.6	-52.7	326	9	1.6
2025-10-17T12:00	8720	327	-40.7	-52.7	325	9	1.5
2025-10-17T12:00	8740	326	-40.9	-52.9	324	9	1.5
2025-10-17T12:00	8760	326	-41.2	-52.8	324	9	1.5
2025-10-17T12:00	8780	325	-41.3	-52.8	325	9	1.5
2025-10-17T12:00	8800	324	-41.5	-52.6	326	9	1.5
2025-10-17T12:00	8820	323	-41.6	-52.8	328	9	1.5
2025-10-17T12:00	8840	322	-41.8	-53.0	329	9	1.5
2025-10-17T12:00	8860	321	-41.9	-53.0	331	9	1.5
2025-10-17T12:00	8880	320	-42.1	-52.9	333	9	1.4
2025-10-17T12:00	8900	319	-42.4	-53.0	335	9	1.4
2025-10-17T12:00	8920	318	-42.6	-53.4	336	9	1.4
2025-10-17T12:00	8940	317	-42.6	-55.6	337	9	1.4
2025-10-17T12:00	8960	316	-42.7	-57.3	337	10	1.4
2025-10-17T12:00	8980	315	-42.9	-56.9	337	10	1.5
2025-10-17T12:00	9000	314	-43.1	-56.8	336	10	1.5
2025-10-17T12:00	9020	313	-43.3	-56.7	336	10	1.5
2025-10-17T12:00	9040	312	-43.4	-56.6	335	11	1.6
2025-10-17T12:00	9060	312	-43.5	-56.4	334	11	1.6
2025-10-17T12:00	9080	311	-43.7	-55.7	333	11	1.6
2025-10-17T12:00	9100	310	-43.8	-55.0	332	11	1.6
2025-10-17T12:00	9120	309	-44.0	-55.2	331	11	1.6
2025-10-17T12:00	9140	308	-44.2	-55.7	330	11	1.6
2025-10-17T12:00	9160	307	-44.3	-55.8	330	11	1.6
2025-10-17T12:00	9180	306	-44.5	-55.7	330	11	1.6
2025-10-17T12:00	9200	305	-44.6	-56.0	330	11	1.5
2025-10-17T12:00	9220	304	-44.8	-56.5	330	11	1.5
2025-10-17T12:00	9240	303	-45.0	-56.5	331	11	1.5
2025-10-17T12:00	9260	302	-45.0	-56.6	331	11	1.5
2025-10-17T12:00	9280	301	-45.2	-57.1	332	11	1.5
2025-10-17T12:00	9300	300	-45.3	-57.2	332	11	1.4
2025-10-17T12:00	9320	300	-45.5	-57.3	332	11	1.4
2025-10-17T12:00	9340	299	-45.6	-57.5	333	11	1.5
2025-10-17T12:00	9360	298	-45.7	-57.8	333	11	1.5
2025-10-17T12:00	9380	297	-45.8	-58.2	334	11	1.5
2025-10-17T12:00	9400	296	-46.0	-58.4	334	11	1.5
2025-10-17T12:00	9420	295	-46.2	-58.3	335	11	1.5
2025-10-17T12:00	9440	294	-46.2	-58.8	336	12	1.5
2025-10-17T12:00	9460	293	-46.3	-59.4	336	12	1.5
2025-10-17T12:00	9480	292	-46.4	-59.9	337	12	1.5
2025-10-17T12:00	9500	292	-46.6	-59.9	338	12	1.5
2025-10-17T12:00	9520	291	-46.7	-59.6	338	12	1.5
2025-10-17T12:00	9540	290	-46.8	-59.6	339	12	1.6
2025-10-17T12:00	9560	289	-46.9	-59.9	339	12	1.6
2025-10-17T12:00	9580	288	-47.0	-60.3	340	12	1.6
2025-10-17T12:00	9600	287	-47.2	-60.1	340	12	1.6
2025-10-17T12:00	9620	286	-47.5	-59.9	341	12	1.7
2025-10-17T12:00	9640	285	-47.5	-60.1	341	12	1.7
2025-10-17T12:00	9660	285	-47.7	-60.5	342	12	1.7
2025-10-17T12:00	9680	284	-47.9	-60.6	342	12	1.7
2025-10-17T12:00	9700	283	-48.1	-60.7	342	12	1.7
2025-10-17T12:00	9720	282	-48.2	-60.9	341	12	1.7
2025-10-17T12:00	9740	281	-48.3	-61.0	341	12	1.7
2025-10-17T12:00	9760	280	-48.5	-61.0	341	12	1.7
2025-10-17T12:00	9780	279	-48.7	-60.9	340	12	1.7
2025-10-17T12:00	9800	279	-48.8	-60.8	339	12	1.7
2025-10-17T12:00	9820	278	-49.0	-60.9	339	12	1.7
2025-10-17T12:00	9840	277	-49.2	-61.0	339	12	1.7
2025-10-17T12:00	9860	276	-49.4	-61.2	339	12	1.7
2025-10-17T12:00	9880	275	-49.6	-61.1	339	12	1.7
2025-10-17T12:00	9900	274	-49.7	-60.9	339	12	1.7
2025-10-17T12:00	9920	274	-50.0	-60.9	340	12	1.7
2025-10-17T12:00	9940	273	-50.1	-60.9	340	12	1.7
2025-10-17T12:00	9960	272	-50.3	-61.1	341	12	1.7
2025-10-17T12:00	9980	271	-50.4	-61.2	341	12	1.7
2025-10-17T12:00	10000	270	-50.6	-61.1	341	12	1.6
2025-10-17T12:00	10018	269	-50.7	-61.2	341	12	1.6
2025-10-17T12:00	10050	268	-51.0	-61.2	341	12	1.6
2025-10-17T12:00	10100	266	-51.3	-61.5	340	12	1.6
2025-10-17T12:00	10150	264	-51.5	-62.1	341	11	1.6
2025-10-17T12:00	10200	262	-51.8	-62.0	341	11	1.6
2025-10-17T12:00	10250	260	-52.2	-62.0	340	10	1.6
2025-10-17T12:00	10300	258	-52.5	-62.7	338	10	1.6
2025-10-17T12:00	10350	256	-52.7	-63.3	336	10	1.6
2025-10-17T12:00	10400	254	-53.1	-63.1	336	10	1.7
2025-10-17T12:00	10450	252	-53.4	-63.4	337	10	1.8
2025-10-17T12:00	10500	250	-53.7	-62.9	336	10	1.7
2025-10-17T12:00	10550	248	-54.0	-63.3	333	9	1.6
2025-10-17T12:00	10600	246	-54.4	-63.8	331	9	1.5
2025-10-17T12:00	10650	244	-54.9	-63.8	329	9	1.5
2025-10-17T12:00	10700	242	-55.2	-64.0	328	9	1.4
2025-10-17T12:00	10750	241	-55.7	-64.1	328	8	1.4
2025-10-17T12:00	10800	239	-56.2	-64.2	328	8	1.4
2025-10-17T12:00	10850	237	-56.5	-65.3	329	8	1.5
2025-10-17T12:00	10900	235	-56.8	-66.1	330	8	1.6
2025-10-17T12:00	10950	233	-57.1	-65.7	329	9	1.7
2025-10-17T12:00	11000	231	-57.4	-65.7	327	10	1.7
2025-10-17T12:00	11050	229	-57.6	-65.5	325	10	1.8
2025-10-17T12:00	11100	228	-57.9	-65.8	324	10	1.9
2025-10-17T12:00	11150	226	-58.0	-66.3	326	9	1.8
2025-10-17T12:00	11200	224	-57.9	-66.8	327	10	1.8
2025-10-17T12:00	11250	222	-58.0	-67.0	326	10	1.9
2025-10-17T12:00	11300	221	-58.2	-67.0	325	10	2.0
2025-10-17T12:00	11350	219	-58.6	-67.4	325	10	2.0
2025-10-17T12:00	11400	217	-58.8	-67.4	326	10	2.1
2025-10-17T12:00	11450	215	-58.6	-67.8	328	9	2.2
2025-10-17T12:00	11500	214	-58.5	-68.4	328	8	2.3
2025-10-17T12:00	11550	212	-58.4	-68.9	325	7	2.3
2025-10-17T12:00	11600	210	-58.6	-69.4	320	7	2.4
2025-10-17T12:00	11650	208	-58.9	-70.1	314	7	2.4
2025-10-17T12:00	11700	207	-58.7	-70.9	308	7	2.5
2025-10-17T12:00	11750	205	-58.6	-71.5	301	8	2.6
2025-10-17T12:00	11800	204	-58.4	-72.3	297	9	2.7
2025-10-17T12:00	11850	202	-58.2	-73.4	295	10	2.7
2025-10-17T12:00	11900	200	-58.0	-74.9	297	11	2.9
2025-10-17T12:00	11950	199	-57.8	-75.3	300	11	3.1
2025-10-17T12:00	12000	197	-58.0	-75.5	304	11	3.3
2025-10-17T12:00	12050	196	-58.1	-75.3	308	11	3.3
2025-10-17T12:00	12100	194	-58.4	-75.6	312	10	3.3
2025-10-17T12:00	12150	193	-58.1	-75.4	315	10	3.2
2025-10-17T12:00	12200	191	-58.0	-75.5	314	9	3.0
2025-10-17T12:00	12250	189	-58.2	-75.6	311	9	2.8
2025-10-17T12:00	12300	188	-58.4	-75.8	310	9	2.6
2025-10-17T12:00	12350	187	-58.2	-76.1	315	8	2.6
2025-10-17T12:00	12400	185	-58.1	-76.5	319	8	2.6
2025-10-17T12:00	12450	184	-58.3	-76.9	320	8	2.6
2025-10-17T12:00	12500	182	-58.2	-77.3	316	8	2.7
2025-10-17T12:00	12550	181	-58.4	-77.5	309	8	2.8
2025-10-17T12:00	12600	179	-58.7	-77.3	304	8	2.8
2025-10-17T12:00	12650	178	-58.8	-77.4	303	9	2.8
2025-10-17T12:00	12700	177	-58.9	-77.7	305	9	2.7
2025-10-17T12:00	12750	175	-59.0	-78.2	309	9	2.6
2025-10-17T12:00	12800	174	-58.9	-78.4	312	9	2.6
2025-10-17T12:00	12850	172	-58.8	-78.7	316	9	2.6
2025-10-17T12:00	12900	171	-59.0	-79.1	321	8	2.5
2025-10-17T12:00	12950	170	-59.1	-79.1	325	7	2.6
2025-10-17T12:00	13000	168	-59.3	-79.4	325	6	2.6
2025-10-17T12:00	13050	167	-59.3	-79.4	320	6	2.7
2025-10-17T12:00	13100	165	-59.5	-79.7	311	5	2.7
2025-10-17T12:00	13150	164	-59.6	-79.8	298	5	2.7
2025-10-17T12:00	13200	163	-59.6	-80.0	284	5	2.6
2025-10-17T12:00	13250	162	-59.7	-80.2	280	6	2.6
2025-10-17T12:00	13300	160	-59.7	-80.2	280	6	2.5
2025-10-17T12:00	13350	159	-60.0	-80.5	282	7	2.4
2025-10-17T12:00	13400	158	-59.9	-80.7	281	7	2.4
2025-10-17T12:00	13450	157	-59.6	-81.0	278	7	2.3
2025-10-17T12:00	13500	155	-59.0	-80.9	275	8	2.3
2025-10-17T12:00	13550	154	-58.8	-80.8	272	8	2.4
2025-10-17T12:00	13600	153	-58.9	-80.8	271	8	2.7
2025-10-17T12:00	13650	152	-59.3	-80.9	272	8	2.8
2025-10-17T12:00	13700	150	-59.6	-81.0	274	8	3.0
2025-10-17T12:00	13750	149	-60.0	-81.2	278	8	3.0
2025-10-17T12:00	13800	148	-59.8	-81.2	282	8	3.1
2025-10-17T12:00	13850	147	-59.8	-81.4	283	7	3.2
2025-10-17T12:00	13900	146	-59.8	-81.5	281	7	3.3
2025-10-17T12:00	13950	145	-59.7	-81.5	281	7	3.4
2025-10-17T12:00	14000	143	-59.9	-81.6	282	7	3.5
2025-10-17T12:00	14050	142	-59.9	-81.6	283	7	3.5
2025-10-17T12:00	14100	141	-60.0	-81.8	284	7	3.6
2025-10-17T12:00	14150	140	-59.9	-81.8	286	7	3.7
2025-10-17T12:00	14200	139	-60.0	-82.0	290	8	3.8
2025-10-17T12:00	14250	138	-60.2	-82.2	295	8	3.9
2025-10-17T12:00	14300	137	-60.1	-82.1	301	9	4.0
2025-10-17T12:00	14350	136	-60.1	-82.3	304	9	4.2
2025-10-17T12:00	14400	134	-60.0	-82.4	305	9	4.3
2025-10-17T12:00	14450	133	-59.9	-82.4	303	8	4.4
2025-10-17T12:00	14500	132	-59.8	-82.4	298	7	4.5
2025-10-17T12:00	14550	131	-59.9	-82.5	292	7	4.5
2025-10-17T12:00	14600	130	-59.9	-82.5	290	7	4.6
2025-10-17T12:00	14650	129	-60.0	-82.5	292	8	4.6
2025-10-17T12:00	14700	128	-60.0	-82.5	294	8	4.6
2025-10-17T12:00	14750	127	-60.0	-82.6	297	8	4.6
2025-10-17T12:00	14800	126	-60.0	-82.7	297	8	4.7
2025-10-17T12:00	14850	125	-59.7	-82.7	296	8	4.7
2025-10-17T12:00	14900	124	-59.6	-82.8	295	8	4.8
2025-10-17T12:00	14950	123	-59.4	-82.7	291	8	4.7
2025-10-17T12:00	15000	122	-59.5	-82.8	284	8	4.8
2025-10-17T12:00	15050	121	-59.6	-82.9	280	9	4.8
2025-10-17T12:00	15100	120	-59.5	-82.9	282	9	4.8
2025-10-17T12:00	15150	119	-59.1	-82.7	286	9	4.8
2025-10-17T12:00	15200	118	-59.1	-82.7	289	9	4.7
2025-10-17T12:00	15250	117	-59.2	-82.8	291	9	4.5
2025-10-17T12:00	15300	116	-59.3	-83.0	291	9	4.5
2025-10-17T12:00	15350	116	-59.1	-83.0	291	8	4.6
2025-10-17T12:00	15400	115	-59.2	-83.1	294	7	4.7
2025-10-17T12:00	15450	114	-59.1	-83.0	301	7	4.7
2025-10-17T12:00	15500	113	-59.2	-82.9	308	6	4.6
2025-10-17T12:00	15550	112	-59.6	-82.9	315	6	4.4
2025-10-17T12:00	15600	111	-59.8	-82.9	323	7	4.3
2025-10-17T12:00	15650	110	-59.7	-82.9	327	7	4.1
2025-10-17T12:00	15700	109	-59.7	-82.9	328	7	4.1
2025-10-17T12:00	15750	108	-60.1	-82.9	330	7	4.0
2025-10-17T12:00	15800	107	-60.6	-83.0	334	6	4.0
2025-10-17T12:00	15850	107	-61.0	-83.1	334	6	3.9
2025-10-17T12:00	15900	106	-61.4	-83.3	330	5	3.9
2025-10-17T12:00	15950	105	-61.8	-83.4	327	5	3.9
2025-10-17T12:00	16000	104	-62.1	-83.5	324	6	3.9
2025-10-17T12:00	16050	103	-62.2	-83.7	316	6	4.0
2025-10-17T12:00	16100	102	-62.3	-83.8	306	7	4.1
2025-10-17T12:00	16150	102	-62.4	-83.9	296	7	4.2
2025-10-17T12:00	16200	101	-62.6	-84.0	289	8	4.3
2025-10-17T12:00	16250	100	-63.0	-84.1	286	9	4.4
2025-10-17T12:00	16300	99	-63.4	-84.3	286	10	4.5
2025-10-17T12:00	16350	98	-63.5	-84.3	291	10	4.5
2025-10-17T12:00	16400	97	-63.7	-84.4	299	10	4.5
2025-10-17T12:00	16450	97	-63.8	-84.5	306	10	4.6
2025-10-17T12:00	16500	96	-64.0	-84.7	312	9	4.6
2025-10-17T12:00	16550	95	-63.8	-84.8	315	9	4.8
2025-10-17T12:00	16600	94	-63.7	-85.0	313	8	5.0
2025-10-17T12:00	16650	94	-63.7	-85.1	307	7	5.3
2025-10-17T12:00	16700	93	-63.4	-85.2	302	6	5.5
2025-10-17T12:00	16750	92	-62.8	-85.2	303	5	5.6
2025-10-17T12:00	16800	91	-62.3	-85.2	302	5	5.8
2025-10-17T12:00	16850	91	-62.1	-85.3	289	4	6.1
2025-10-17T12:00	16900	90	-61.7	-85.2	275	4	6.5
2025-10-17T12:00	16950	89	-61.4	-85.1	272	4	6.5
2025-10-17T12:00	17000	88	-60.8	-85.1	278	5	6.2
2025-10-17T12:00	17050	88	-60.3	-85.1	285	6	6.2
2025-10-17T12:00	17100	87	-59.8	-84.9	284	7	6.6
2025-10-17T12:00	17150	86	-59.6	-84.9	277	7	7.2
2025-10-17T12:00	17200	86	-59.6	-84.9	278	7	7.4
2025-10-17T12:00	17250	85	-59.3	-84.7	289	7	7.6
2025-10-17T12:00	17300	84	-59.2	-84.7	297	8	7.8
2025-10-17T12:00	17350	84	-59.3	-84.7	297	9	7.9
2025-10-17T12:00	17400	83	-59.5	-84.7	295	10	8.0
2025-10-17T12:00	17450	82	-59.8	-84.7	295	10	8.0
2025-10-17T12:00	17500	82	-60.2	-84.8	296	10	8.0
2025-10-17T12:00	17550	81	-60.5	-84.9	301	10	7.9
2025-10-17T12:00	17600	80	-60.5	-84.9	309	10	7.8
2025-10-17T12:00	17650	80	-60.7	-85.1	319	9	7.6
2025-10-17T12:00	17700	79	-60.8	-85.1	328	8	7.5
2025-10-17T12:00	17750	78	-61.1	-85.2	336	8	7.4
2025-10-17T12:00	17800	78	-61.5	-85.3	342	7	7.4
2025-10-17T12:00	17850	77	-61.8	-85.4	348	6	7.4
2025-10-17T12:00	17900	77	-62.1	-85.6	351	5	7.3
2025-10-17T12:00	17950	76	-62.0	-85.6	350	4	7.3
2025-10-17T12:00	18000	75	-61.9	-85.6	350	4	7.3
2025-10-17T12:00	18050	75	-62.0	-85.7	351	4	7.3
2025-10-17T12:00	18100	74	-62.2	-85.9	354	3	7.4
2025-10-17T12:00	18150	74	-61.9	-85.8	1	2	7.4
2025-10-17T12:00	18200	73	-61.9	-85.9	2	1	7.4
2025-10-17T12:00	18250	72	-61.7	-85.9	290	1	7.4
2025-10-17T12:00	18300	72	-61.2	-85.8	243	2	7.5
2025-10-17T12:00	18350	71	-61.1	-85.7	252	3	7.8
2025-10-17T12:00	18400	71	-61.3	-85.8	261	4	8.1
2025-10-17T12:00	18450	70	-61.5	-85.7	263	5	8.3
2025-10-17T12:00	18500	69	-61.5	-85.8	260	5	8.3
2025-10-17T12:00	18550	69	-61.3	-85.8	260	5	8.1
2025-10-17T12:00	18600	68	-61.4	-85.9	260	5	8.1
2025-10-17T12:00	18650	68	-61.4	-85.9	252	5	8.0
2025-10-17T12:00	18700	67	-61.3	-85.9	243	6	8.0
2025-10-17T12:00	18750	67	-61.4	-85.9	241	7	8.0
2025-10-17T12:00	18800	66	-61.5	-86.0	244	8	8.0
2025-10-17T12:00	18850	66	-61.1	-85.9	249	8	8.1
2025-10-17T12:00	18900	65	-61.1	-86.0	256	9	8.2
2025-10-17T12:00	18950	65	-61.0	-85.9	263	9	8.2
2025-10-17T12:00	19000	64	-60.9	-85.9	270	9	8.3
2025-10-17T12:00	19050	64	-61.0	-85.9	277	8	8.4
2025-10-17T12:00	19100	63	-60.9	-85.8	279	9	8.5
2025-10-17T12:00	19150	63	-60.8	-85.9	280	9	8.6
2025-10-17T12:00	19200	62	-60.7	-85.9	284	8	8.7
2025-10-17T12:00	19250	62	-60.6	-85.9	283	7	8.8
2025-10-17T12:00	19300	61	-60.4	-85.7	277	8	9.0
2025-10-17T12:00	19350	61	-60.5	-85.7	275	8	9.2
2025-10-17T12:00	19400	60	-60.6	-85.7	275	7	9.3
2025-10-17T12:00	19450	60	-60.6	-85.7	274	6	9.5
2025-10-17T12:00	19500	59	-60.7	-85.8	270	5	9.8
2025-10-17T12:00	19550	59	-60.6	-85.8	266	5	10.1
2025-10-17T12:00	19600	58	-60.4	-85.8	268	6	10.4
2025-10-17T12:00	19650	58	-60.0	-85.7	274	7	10.7
2025-10-17T12:00	19700	57	-59.6	-85.6	280	8	10.9
2025-10-17T12:00	19750	57	-59.5	-85.6	286	9	10.9
2025-10-17T12:00	19800	56	-59.5	-85.5	292	10	11.0
2025-10-17T12:00	19850	56	-59.5	-85.4	296	10	11.1
2025-10-17T12:00	19900	55	-59.6	-85.3	298	10	11.2
2025-10-17T12:00	19950	55	-59.9	-85.4	302	11	11.2
2025-10-17T12:00	20000	55	-60.3	-85.4	307	11	11.3
2025-10-17T12:00	20050	54	-60.7		310	11	11.3
2025-10-17T12:00	20100	54	-60.8		312	10	11.3
2025-10-17T12:00	20150	53	-60.9		313	9	11.3
2025-10-17T12:00	20200	53	-61.2		319	8	11.3
2025-10-17T12:00	20250	52	-61.4		329	6	11.3
2025-10-17T12:00	20300	52	-61.6		339	5	11.2
2025-10-17T12:00	20350	52	-61.7		345	4	11.2
2025-10-17T12:00	20400	51	-62.0		353	3	11.1
2025-10-17T12:00	20450	51	-61.9		7	2	11.1
2025-10-17T12:00	20500	50	-61.5		24	1	11.2
2025-10-17T12:00	20550	50	-61.7		56	0	11.3
2025-10-17T12:00	20600	50	-61.9		184	1	11.3
2025-10-17T12:00	20650	49	-62.1		183	2	11.4
2025-10-17T12:00	20700	49	-62.1		188	3	11.4
2025-10-17T12:00	20750	48	-62.3		199	4	11.4
2025-10-17T12:00	20800	48	-62.2		214	5	11.4
2025-10-17T12:00	20850	48	-62.2		227	6	11.5
2025-10-17T12:00	20900	47	-62.4		240	7	11.4
2025-10-17T12:00	20950	47	-62.5		252	8	11.4
2025-10-17T12:00	21000	46	-62.5		263	8	11.3
2025-10-17T12:00	21050	46	-62.4		275	8	11.2
2025-10-17T12:00	21100	46	-62.4		290	7	11.1
2025-10-17T12:00	21150	45	-61.8		304	7	11.0
2025-10-17T12:00	21200	45	-61.3		316	7	11.0
2025-10-17T12:00	21250	45	-61.2		322	7	11.1
2025-10-17T12:00	21300	44	-61.1		322	7	11.2
2025-10-17T12:00	21350	44	-61.2		318	6	11.3
2025-10-17T12:00	21400	44	-61.2		311	6	11.3
2025-10-17T12:00	21450	43	-61.2		301	5	11.4
2025-10-17T12:00	21500	43	-61.2		290	5	11.5
2025-10-17T12:00	21550	43	-61.0		281	5	11.6
2025-10-17T12:00	21600	42	-60.9		274	5	11.7
2025-10-17T12:00	21650	42	-60.7		272	6	11.7
2025-10-17T12:00	21700	41	-60.9		274	6	11.8
2025-10-17T12:00	21750	41	-61.0		275	7	11.8
2025-10-17T12:00	21800	41	-61.0		277	7	11.9
2025-10-17T12:00	21850	41	-60.5		280	7	11.9
2025-10-17T12:00	21900	40	-60.5		284	6	12.0
2025-10-17T12:00	21950	40	-60.7		286	5	12.0
2025-10-17T12:00	22000	40	-60.8		282	4	12.0
2025-10-17T12:00	22050	39	-60.3		273	5	12.0
2025-10-17T12:00	22100	39	-59.8		268	6	12.1
2025-10-17T12:00	22150	39	-59.7		265	6	12.2
2025-10-17T12:00	22200	38	-59.6		264	6	12.2
2025-10-17T12:00	22250	38	-59.4		264	5	12.3
2025-10-17T12:00	22300	38	-59.3		257	5	12.3
2025-10-17T12:00	22350	37	-59.4		242	5	12.4
2025-10-17T12:00	22400	37	-59.0		233	6	12.4
2025-10-17T12:00	22450	37	-58.4		237	7	12.5
2025-10-17T12:00	22500	36	-58.2		245	8	12.6
2025-10-17T12:00	22550	36	-58.4		252	9	12.7
2025-10-17T12:00	22600	36	-58.4		256	10	12.8
2025-10-17T12:00	22650	36	-58.1		260	11	12.7
2025-10-17T12:00	22700	35	-57.8		264	11	12.7
2025-10-17T12:00	22750	35	-57.8		265	11	12.7
2025-10-17T12:00	22800	35	-58.0		265	11	12.6
2025-10-17T12:00	22850	35	-58.1		267	11	12.5
2025-10-17T12:00	22900	34	-58.2		271	11	12.4
2025-10-17T12:00	22950	34	-58.3		277	11	12.4
2025-10-17T12:00	23000	34	-58.4		280	11	12.3
2025-10-17T12:00	23050	33	-58.5		278	11	12.3
2025-10-17T12:00	23100	33	-58.6		272	11	12.2
2025-10-17T12:00	23150	33	-58.7		267	12	12.1
2025-10-17T12:00	23200	33	-58.9		263	12	12.0
2025-10-17T12:00	23250	32	-59.3		261	13	11.9
2025-10-17T12:00	23300	32	-59.6		264	13	11.9
2025-10-17T12:00	23350	32	-59.7		270	12	11.7
2025-10-17T12:00	23400	32	-59.3		276	11	11.6
2025-10-17T12:00	23450	31	-59.5		283	10	11.4
2025-10-17T12:00	23500	31	-59.7		287	9	11.4
2025-10-17T12:00	23550	31	-59.7		287	8	11.4
2025-10-17T12:00	23600	31	-59.7		279	7	11.4
2025-10-17T12:00	23650	30	-59.4		266	7	11.5
2025-10-17T12:00	23700	30	-58.9		256	7	11.7
2025-10-17T12:00	23750	30	-58.4		251	7	11.9
2025-10-17T12:00	23800	30	-57.9		252	8	12.1
2025-10-17T12:00	23850	29	-57.5		257	9	12.2
2025-10-17T12:00	23900	29	-57.1		262	11	12.2
2025-10-17T12:00	23950	29	-56.7		265	12	12.1
2025-10-17T12:00	24000	29	-56.1		267	13	12.0
2025-10-17T12:00	24050	29	-56.0		268	14	12.1
2025-10-17T12:00	24100	28	-56.3		270	14	12.0
2025-10-17T12:00	24150	28	-56.7		274	14	12.0
2025-10-17T12:00	24200	28	-56.9		279	14	12.0
2025-10-17T12:00	24250	28	-57.0		286	13	12.1
2025-10-17T12:00	24300	27	-57.1		295	12	12.0
2025-10-17T12:00	24350	27	-56.8		304	11	11.9
2025-10-17T12:00	24400	27	-56.8		308	10	11.9
2025-10-17T12:00	24450	27	-56.9		309	9	11.9
2025-10-17T12:00	24500	27	-57.2		310	8	11.8
2025-10-17T12:00	24550	26	-57.6		312	7	11.7
2025-10-17T12:00	24600	26	-57.9		310	6	11.6
2025-10-17T12:00	24650	26	-57.9		298	5	11.6
2025-10-17T12:00	24700	26	-57.5		279	5	11.5
2025-10-17T12:00	24750	26	-57.3		264	6	11.5
2025-10-17T12:00	24800	25	-57.1		257	8	11.4
2025-10-17T12:00	24850	25	-56.8		259	9	11.4
2025-10-17T12:00	24900	25	-56.5		266	10	11.4
2025-10-17T12:00	24950	25	-55.9		276	11	11.4
2025-10-17T12:00	25000	25	-55.5		282	11	11.3
2025-10-17T12:00	25050	24	-55.4		280	11	11.2
2025-10-17T12:00	25100	24	-55.3		279	11	11.1
2025-10-17T12:00	25150	24	-55.4		280	11	10.9
2025-10-17T12:00	25200	24	-55.7		282	11	10.8
2025-10-17T12:00	25250	24	-55.8		283	11	10.7
2025-10-17T12:00	25300	23	-56.1		283	11	10.7
2025-10-17T12:00	25350	23	-56.4		284	11	10.5
2025-10-17T12:00	25400	23	-56.7		286	11	10.4
2025-10-17T12:00	25450	23	-56.8		288	12	10.2
2025-10-17T12:00	25500	23	-57.0		289	12	10.0
2025-10-17T12:00	25550	23	-57.1		288	12	9.8
2025-10-17T12:00	25600	22	-57.0		286	12	9.6
2025-10-17T12:00	25650	22	-56.9		285	12	9.5
2025-10-17T12:00	25700	22	-56.7		285	11	9.3
2025-10-17T12:00	25750	22	-56.6		285	10	9.3
2025-10-17T12:00	25800	22	-56.4		285	10	9.2
2025-10-17T12:00	25850	21	-55.9		283	10	9.3
2025-10-17T12:00	25900	21	-55.8		284	10	9.3
2025-10-17T12:00	25950	21	-56.0		285	9	9.4
2025-10-17T12:00	26000	21	-56.0		286	9	9.4
2025-10-17T12:00	26050	21	-55.4		288	8	9.4
2025-10-17T12:00	26100	21	-55.1		290	8	9.5
2025-10-17T12:00	26150	20	-55.1		290	7	9.5
2025-10-17T12:00	26200	20	-55.1		286	7	9.5
2025-10-17T12:00	26250	20	-55.0		281	5	9.5
2025-10-17T12:00	26300	20	-55.1		278	5	9.5
2025-10-17T12:00	26350	20	-55.1		278	6	9.5
2025-10-17T12:00	26400	20	-54.9		281	8	9.5
2025-10-17T12:00	26450	20	-54.7		283	8	9.5
2025-10-17T12:00	26500	19	-54.3		282	8	9.4
2025-10-17T12:00	26550	19	-54.0		274	7	9.4
2025-10-17T12:00	26600	19	-53.5		262	8	9.5
2025-10-17T12:00	26650	19	-52.8		254	9	9.5
2025-10-17T12:00	26700	19	-52.6		253	10	9.4
2025-10-17T12:00	26750	19	-51.9		256	10	9.4
2025-10-17T12:00	26800	19	-51.4		261	9	9.4
2025-10-17T12:00	26850	18	-51.1		266	9	9.4
2025-10-17T12:00	26900	18	-50.8		271	9	9.4
2025-10-17T12:00	26950	18	-50.7		273	10	9.4
2025-10-17T12:00	27000	18	-50.7		271	10	9.4
2025-10-17T12:00	27050	18	-50.9		267	11	9.3
2025-10-17T12:00	27100	18	-51.2		262	12	9.3
2025-10-17T12:00	27150	18	-51.6		260	14	9.2
2025-10-17T12:00	27200	17	-51.9		257	15	9.1
2025-10-17T12:00	27250	17	-52.3		257	16	9.0
2025-10-17T12:00	27300	17	-52.3		258	15	9.1
2025-10-17T12:00	27350	17	-52.1		261	14	8.9
2025-10-17T12:00	27400	17	-52.0		265	12	8.8
2025-10-17T12:00	27450	17	-52.0		267	11	8.8
2025-10-17T12:00	27500	17	-52.0		268	10	8.8
2025-10-17T12:00	27550	16	-52.2		267	10	8.8
2025-10-17T12:00	27600	16	-52.2		269	9	8.7
2025-10-17T12:00	27650	16	-51.9		271	9	8.7
2025-10-17T12:00	27700	16	-51.9		269	9	8.6
2025-10-17T12:00	27750	16	-51.9		264	10	8.6
2025-10-17T12:00	27800	16	-51.9		259	11	8.6
2025-10-17T12:00	27850	16	-51.7		257	13	8.6
2025-10-17T12:00	27900	16	-51.4		256	14	8.6
2025-10-17T12:00	27950	16	-51.4		257	16	8.6
2025-10-17T12:00	28000	15	-51.2		258	16	8.5
2025-10-17T12:00	28050	15	-51.1		257	16	8.5
2025-10-17T12:00	28100	15	-51.1		257	16	8.5
2025-10-17T12:00	28150	15	-51.3		255	15	8.4
2025-10-17T12:00	28200	15	-51.4		254	14	8.4
2025-10-17T12:00	28250	15	-51.7		251	13	8.3
2025-10-17T12:00	28300	15	-51.9		249	12	8.4
2025-10-17T12:00	28350	15	-51.8		249	12	8.3
2025-10-17T12:00	28400	14	-51.7		250	12	8.2
2025-10-17T12:00	28450	14	-51.7		251	12	8.2
2025-10-17T12:00	28500	14	-51.7		250	14	8.1
2025-10-17T12:00	28550	14	-51.8		250	15	8.0
2025-10-17T12:00	28600	14	-51.7		251	16	8.0
2025-10-17T12:00	28650	14	-51.7		251	17	7.8
2025-10-17T12:00	28700	14	-51.7		250	17	7.9
2025-10-17T12:00	28750	14	-51.7		249	17	7.8
2025-10-17T12:00	28800	14	-51.4		249	17	7.7
2025-10-17T12:00	28850	13	-51.3		252	17	7.7
2025-10-17T12:00	28900	13	-51.4		254	17	7.6
2025-10-17T12:00	28950	13	-51.6		256	17	7.5
2025-10-17T12:00	29000	13	-51.7		255	16	7.5
2025-10-17T12:00	29050	13	-51.6		251	15	7.5
2025-10-17T12:00	29100	13	-51.6		248	14	7.3
2025-10-17T12:00	29150	13	-51.6		245	13	7.3
2025-10-17T12:00	29200	13	-51.3		246	13	7.2
2025-10-17T12:00	29250	13	-50.8		248	12	7.3
2025-10-17T12:00	29300	13	-50.4		247	12	7.3
2025-10-17T12:00	29350	12	-50.1		245	13	7.4
2025-10-17T12:00	29400	12	-49.6		242	15	7.3
2025-10-17T12:00	29450	12	-49.4		242	17	7.3
2025-10-17T12:00	29500	12	-49.1		242	18	7.3
2025-10-17T12:00	29550	12	-49.2		243	19	7.3
2025-10-17T12:00	29600	12	-49.5		244	19	7.3
2025-10-17T12:00	29650	12	-49.7		245	19	7.3
2025-10-17T12:00	29700	12	-50.0		246	19	7.3
2025-10-17T12:00	29750	12	-50.2		248	19	7.2
2025-10-17T12:00	29800	12	-50.2		252	20	7.1
2025-10-17T12:00	29850	12	-50.0		257	20	7.0
2025-10-17T12:00	29900	11	-49.7		262	21	7.0
2025-10-17T12:00	29950	11	-49.4		267	21	6.9
2025-10-17T12:00	30000	11	-49.4		269	20	6.8
2025-10-17T12:00	30050	11	-49.5		271	20	6.7
2025-10-17T12:00	30100	11	-49.7		271	19	6.7
2025-10-17T12:00	30150	11	-49.7		270	19	6.6
2025-10-17T12:00	30200	11	-49.9		268	18	6.6
2025-10-17T12:00	30250	11	-50.0		265	18	6.5
2025-10-17T12:00	30300	11	-50.2		264	19	6.5
2025-10-17T12:00	30350	11	-50.3		265	19	6.5
2025-10-17T12:00	30400	11	-50.2		266	20	6.3
2025-10-17T12:00	30450	11	-50.2		267	20	6.4
2025-10-17T12:00	30500	10	-49.8		267	21	6.3
2025-10-17T12:00	30550	10	-49.1		265	22	6.2
2025-10-17T12:00	30600	10	-48.7		263	22	6.3
2025-10-17T12:00	30650	10	-48.5		260	21	6.2
2025-10-17T12:00	30700	10	-48.5		260	21	6.1
2025-10-17T12:00	30750	10	-48.5		262	21	6.1
2025-10-17T12:00	30800	10	-48.2		265	21	6.0
2025-10-17T12:00	30850	10	-48.3		268	22	6.0
2025-10-17T12:00	30900	10	-48.6		268	22	5.9
2025-10-17T12:00	30950	10	-48.3		268	22	5.9
2025-10-17T12:00	31000	10	-47.5		270	22	5.9
2025-10-17T12:00	31050	10	-46.8		271	22	5.8
2025-10-17T12:00	31100	10	-46.5		270	22	5.7
2025-10-17T12:00	31150	9	-46.2		266	23	5.7
2025-10-17T12:00	31200	9	-45.9		263	23	5.7
2025-10-17T12:00	31250	9	-45.7		263	23	5.6
2025-10-17T12:00	31300	9	-45.4		265	24	5.6
2025-10-17T12:00	31350	9	-44.9		269	25	5.6
2025-10-17T12:00	31400	9	-44.4		272	26	5.6
2025-10-17T12:00	31450	9	-44.0		274	26	5.5
2025-10-17T12:00	31500	9	-44.2		274	25	5.5
2025-10-17T12:00	31550	9	-44.6		274	24	5.4
2025-10-17T12:00	31600	9	-44.9		274	24	5.4
2025-10-17T12:00	31650	9	-44.7		274	24	5.4
2025-10-17T12:00	31700	9	-44.0		275	24	5.4
2025-10-17T12:00	31750	9	-43.4		275	24	5.4
2025-10-17T12:00	31800	9	-43.2		276	23	5.3
2025-10-17T12:00	31850	9	-43.0		278	23	5.3
2025-10-17T12:00	31900	8	-42.7		281	23	5.3
2025-10-17T12:00	31950	8	-42.7		283	23	5.3
2025-10-17T12:00	32000	8	-42.9		284	22	5.2
2025-10-17T12:00	32050	8	-43.3		285	22	5.2
2025-10-17T12:00	32100	8	-43.5		285	21	5.1
2025-10-17T12:00	32150	8	-43.3		283	21	5.1
2025-10-17T12:00	32200	8	-42.9		279	22	5.1
2025-10-17T12:00	32250	8	-42.4		276	23	5.0
2025-10-17T12:00	32300	8	-41.9		274	25	5.0
2025-10-17T12:00	32350	8	-41.6		272	26	4.9
2025-10-17T12:00	32400	8	-41.2		270	25	4.9
2025-10-17T12:00	32450	8	-41.0		270	25	4.9
2025-10-17T12:00	32500	8	-41.0		273	25	4.9
2025-10-17T12:00	32550	8	-40.6		275	27	4.8
2025-10-17T12:00	32600	8	-40.3		277	28	4.8
2025-10-17T12:00	32650	8	-40.2		278	28	4.8
2025-10-17T12:00	32700	8	-40.5		279	28	4.7
2025-10-17T12:00	32750	7	-40.6		278	28	4.7
2025-10-17T12:00	32800	7	-40.2		277	27	4.7
2025-10-17T12:00	32850	7	-40.0		277	27	4.6
2025-10-17T12:00	32900	7	-39.8		278	27	4.6
2025-10-17T12:00	32950	7	-39.8		281	27	4.6
2025-10-17T12:00	33000	7	-39.6		284	27	4.5
2025-10-17T12:00	33050	7	-39.4		287	28	4.4
2025-10-17T12:00	33100	7	-39.4		288	28	4.4
2025-10-17T12:00	33150	7	-39.2		288	28	4.4
2025-10-17T12:00	33200	7	-38.6		288	27	4.3
2025-10-17T12:00	33250	7	-38.3		289	27	4.3
2025-10-17T12:00	33300	7	-38.3		291	28	4.2
2025-10-17T12:00	33350	7	-38.5		293	28	4.2
2025-10-17T12:00	33400	7	-38.8		295	28	4.2
2025-10-17T12:00	33450	7	-39.0		295	27	4.1
2025-10-17T12:00	33500	7	-39.2		295	26	4.1
2025-10-17T12:00	33550	7	-39.3		293	25	4.1
2025-10-17T12:00	33600	7	-39.2		290	23	4.1
2025-10-17T12:00	33650	7	-39.2		288	22	4.0
2025-10-17T12:00	33700	7	-39.2		286	21	4.0
2025-10-17T12:00	33750	6	-39.2		286	20	4.0
2025-10-17T12:00	33800	6	-39.2		287	20	4.0
2025-10-17T12:00	33850	6	-39.1		288	21	3.9
2025-10-17T12:00	33900	6	-39.1		289	22	3.9
2025-10-17T12:00	33950	6	-39.2		290	22	3.9
2025-10-17T12:00	34000	6	-39.3		291	23	3.9
2025-10-17T12:00	34050	6	-39.1		293	23	3.8
2025-10-17T12:00	34100	6	-38.3		294	23	3.8
2025-10-17T12:00	34150	6	-37.9		293	23	3.7
2025-10-17T12:00	34200	6	-38.0		291	23	3.7
2025-10-17T12:00	34250	6	-38.0		288	23	3.7
2025-10-17T12:00	34300	6	-38.0		286	24	3.6
2025-10-17T12:00	34350	6	-37.9		286	23	3.6
2025-10-17T12:00	34400	6	-37.9		286	23	3.6
2025-10-17T12:00	34450	6	-37.9		286	24	3.6
2025-10-17T12:00	34500	6	-37.9		286	24	3.5
2025-10-17T12:00	34550	6	-37.8		287	25	3.5
2025-10-17T12:00	34600	6	-37.5		288	25	3.4
2025-10-17T12:00	34650	6	-37.5		288	26	3.4
2025-10-17T12:00	34700	6	-37.6		287	26	3.4
2025-10-17T12:00	34750	6	-37.7		285	26	3.4
2025-10-17T12:00	34800	6	-37.6		284	26	3.3
2025-10-17T12:00	34850	6	-37.6		284	26	3.3
2025-10-17T12:00	34900	5	-37.6		283	26	3.2
2025-10-17T12:00	34950	5	-37.6		283	27	3.2
2025-10-17T12:00	35000	5	-37.5		285	28	
2025-10-17T12:00	35050	5	-37.1		287	28	
2025-10-17T12:00	35100	5	-36.6		288	28	
2025-10-17T12:00	35150	5	-36.2		289	29	
2025-10-17T12:00	35200	5	-36.0		287	30	
2025-10-17T12:00	35250	5	-36.1		285	32	
2025-10-17T12:00	35300	5	-36.1		284	33	
2025-10-17T12:00	35350	5	-35.8		285	33	
2025-10-17T12:00	35400	5	-34.9		287	32	
2025-10-17T12:00	35450	5	-34.2		290	31	
2025-10-17T12:00	35500	5	-33.7		292	31	
2025-10-17T12:00	35550	5	-33.2		293	32	
2025-10-17T12:00	35600	5	-32.7		293	33	
2025-10-17T12:00	35650	5	-32.2		292	34	
2025-10-17T12:00	35700	5	-31.2		290	34	
2025-10-17T12:00	35750	5	-30.7		290	35	
2025-10-17T12:00	35800	5	-30.2		290	35	
2025-10-17T12:00	35850	5	-30.2		291	34	
2025-10-17T12:00	35900	5	-30.5		292	33	
2025-10-17T12:00	35950	5	-30.5		293	33	
2025-10-17T12:00	36000	5	-30.5		295	33	
2025-10-17T12:00	36050	5	-30.6		296	32	
2025-10-17T12:00	36100	5	-30.7		297	32	
2025-10-17T12:00	36150	5	-30.9		298	31	
2025-10-17T12:00	36200	5	-30.8		299	31	
2025-10-17T12:00	36250	5	-30.4		295	29	
2025-10-17T12:00	36300	4	-30.1		290	29	
2025-10-17T12:00	36350	4	-29.7		287	29	
2025-10-17T12:00	36400	4	-29.1		287	29	
2025-10-17T12:00	36450	4	-28.4		289	29	
2025-10-17T12:00	36500	4	-28.3		290	29	
2025-10-17T12:00	36550	4	-28.2		290	30	
2025-10-17T12:00	36600	4	-28.1		291	31	
2025-10-17T12:00	36650	4	-28.2		292	32	
2025-10-17T12:00	36700	4	-28.6		293	32	
2025-10-17T12:00	36750	4	-28.9		294	32	
2025-10-17T12:00	36800	4	-29.2		295	32	
2025-10-17T12:00	36850	4	-29.5		295	32	
2025-10-17T12:00	36900	4	-29.8		295	32	
2025-10-17T12:00	36950	4	-30.1		296	31	
2025-10-17T12:00	37000	4	-30.5		296	31	
2025-10-17T12:00	37050	4	-30.9		296	31	
2025-10-17T12:00	37100	4	-31.2		298	32	
2025-10-17T12:00	37150	4	-31.1		298	32	
2025-10-17T12:00	37200	4	-30.9		298	31	
2025-10-17T12:00	37250	4	-30.9		298	31	
2025-10-17T12:00	37300	4	-31.0		298	30	
2025-10-17T12:00	37350	4	-31.0		299	29	
2025-10-17T12:00	37400	4	-30.9		297	29	
2025-10-17T12:00	37450	4	-31.1		296	30	
2025-10-17T12:00	37500	4	-31.2		292	29	
2025-10-17T12:00	37550	4	-30.9		290	29	
2025-10-18T00:00	491	965	4.7	4.6	173	0	
2025-10-18T00:00	501	963	5.3	5.0	190	1	
2025-10-18T00:00	520	961	6.3	5.6	191	1	
2025-10-18T00:00	540	959	6.8	5.6	186	1	
2025-10-18T00:00	560	957	7.0	5.6	174	1	
2025-10-18T00:00	580	955	7.4	5.6	155	1	
2025-10-18T00:00	600	952	7.5	5.5	121	1	
2025-10-18T00:00	620	950	7.5	5.4	89	1	
2025-10-18T00:00	640	948	7.6	5.2	74	1	
2025-10-18T00:00	660	945	7.6	4.8	68	2	
2025-10-18T00:00	680	943	7.8	4.3	64	2	
2025-10-18T00:00	700	941	7.7	4.4	62	3	
2025-10-18T00:00	720	938	7.8	4.1	61	3	
2025-10-18T00:00	740	936	8.0	4.8	60	3	
2025-10-18T00:00	760	934	7.9	4.7	61	3	
2025-10-18T00:00	780	932	7.7	4.6	61	3	
2025-10-18T00:00	800	929	7.7	4.3	63	3	
2025-10-18T00:00	820	927	7.6	4.2	65	3	
2025-10-18T00:00	840	925	7.4	4.4	69	3	
2025-10-18T00:00	860	923	7.3	4.6	71	3	
2025-10-18T00:00	880	921	7.2	4.2	74	3	
2025-10-18T00:00	900	918	7.0	4.0	76	3	
2025-10-18T00:00	920	916	6.8	4.0	78	3	
2025-10-18T00:00	940	913	6.6	3.8	78	3	
2025-10-18T00:00	960	911	6.5	3.7	78	3	
2025-10-18T00:00	980	909	6.3	3.6	76	3	
2025-10-18T00:00	1000	907	6.1	3.6	74	3	
2025-10-18T00:00	1020	905	5.9	3.5	72	3	
2025-10-18T00:00	1040	903	5.7	3.4	69	3	
2025-10-18T00:00	1060	901	5.6	3.2	66	3	
2025-10-18T00:00	1080	898	5.4	3.1	64	3	
2025-10-18T00:00	1100	896	5.2	3.0	64	3	
2025-10-18T00:00	1120	894	4.9	3.0	66	4	
2025-10-18T00:00	1140	892	4.7	3.0	69	4	
2025-10-18T00:00	1160	890	4.6	2.8	72	4	
2025-10-18T00:00	1180	887	4.4	2.8	75	5	
2025-10-18T00:00	1200	885	4.2	2.6	77	5	
2025-10-18T00:00	1220	883	4.0	2.5	78	5	
2025-10-18T00:00	1240	881	3.8	2.4	78	5	
2025-10-18T00:00	1260	879	3.6	2.4	77	5	
2025-10-18T00:00	1280	877	3.5	2.3	76	5	
2025-10-18T00:00	1300	874	3.3	2.2	73	5	
2025-10-18T00:00	1320	872	3.1	2.2	71	5	
2025-10-18T00:00	1340	870	2.9	2.1	70	5	
2025-10-18T00:00	1360	868	2.7	2.1	69	5	
2025-10-18T00:00	1380	866	2.5	2.1	67	5	
2025-10-18T00:00	1400	864	2.3	2.0	67	6	
2025-10-18T00:00	1420	861	2.2	2.0	66	6	
2025-10-18T00:00	1440	859	2.0	1.9	66	6	
2025-10-18T00:00	1460	857	1.8	1.8	66	6	
2025-10-18T00:00	1480	855	1.7	1.7	66	5	
2025-10-18T00:00	1500	853	1.6	1.6	66	4	
2025-10-18T00:00	1520	851	1.4	1.4	68	4	
2025-10-18T00:00	1540	849	1.8	0.4	74	2	
2025-10-18T00:00	1560	847	2.2	-0.6	89	1	
2025-10-18T00:00	1580	845	2.8	-1.7	144	1	
2025-10-18T00:00	1600	843	3.5	-3.4	205	1	
2025-10-18T00:00	1620	840	4.6	-6.2	222	2	
2025-10-18T00:00	1640	838	5.5	-8.3	227	3	
2025-10-18T00:00	1660	836	6.4	-11.9	228	3	
2025-10-18T00:00	1680	834	6.8	-13.4	228	3	
2025-10-18T00:00	1700	832	7.0	-13.8	227	3	
2025-10-18T00:00	1720	830	7.0	-13.8	226	3	
2025-10-18T00:00	1740	828	7.1	-14.3	225	3	
2025-10-18T00:00	1760	826	7.3	-14.5	226	3	
2025-10-18T00:00	1780	824	7.3	-14.6	227	3	
2025-10-18T00:00	1800	822	7.2	-14.6	231	2	
2025-10-18T00:00	1820	820	7.1	-14.8	235	2	
2025-10-18T00:00	1840	818	7.1	-15.0	238	2	
2025-10-18T00:00	1860	816	7.0	-15.4	241	2	
2025-10-18T00:00	1880	814	6.9	-15.1	243	1	
2025-10-18T00:00	1900	812	6.9	-15.0	242	1	
2025-10-18T00:00	1920	810	6.9	-14.3	240	1	
2025-10-18T00:00	1940	808	6.8	-15.7	239	1	
2025-10-18T00:00	1960	806	6.7	-15.5	240	1	
2025-10-18T00:00	1980	804	6.5	-15.0	242	1	
2025-10-18T00:00	2000	803	6.5	-14.7	244	1	
2025-10-18T00:00	2020	800	6.4	-13.6	247	1	
2025-10-18T00:00	2040	799	6.4	-13.8	247	1	
2025-10-18T00:00	2060	797	6.3	-13.8	247	1	
2025-10-18T00:00	2080	795	6.2	-13.7	247	1	
2025-10-18T00:00	2100	793	6.0	-13.5	246	1	
2025-10-18T00:00	2120	791	5.9	-13.8	245	1	
2025-10-18T00:00	2140	789	5.9	-15.3	242	0	
2025-10-18T00:00	2160	787	5.7	-14.5	227	0	
2025-10-18T00:00	2180	785	5.5	-12.8	180	0	
2025-10-18T00:00	2200	783	5.3	-12.6	156	0	
2025-10-18T00:00	2220	781	5.2	-12.5	160	0	
2025-10-18T00:00	2240	779	5.0	-13.2	180	0	
2025-10-18T00:00	2260	777	4.9	-13.1	249	0	
2025-10-18T00:00	2280	775	4.8	-12.8	301	0	
2025-10-18T00:00	2300	773	4.6	-12.7	317	0	
2025-10-18T00:00	2320	772	4.4	-12.7	327	1	
2025-10-18T00:00	2340	770	4.2	-12.3	336	1	
2025-10-18T00:00	2360	768	4.0	-10.8	343	1	
2025-10-18T00:00	2380	766	3.8	-10.5	350	1	
2025-10-18T00:00	2400	764	3.6	-10.7	358	1	
2025-10-18T00:00	2420	762	3.4	-10.9	9	1	
2025-10-18T00:00	2440	760	3.2	-11.2	25	1	
2025-10-18T00:00	2460	758	3.1	-11.8	35	2	
2025-10-18T00:00	2480	757	3.0	-11.8	39	2	
2025-10-18T00:00	2500	755	2.8	-11.9	39	2	
2025-10-18T00:00	2520	753	2.7	-13.6	38	2	
2025-10-18T00:00	2540	751	2.7	-17.2	37	2	
2025-10-18T00:00	2560	749	2.8	-22.0	35	3	
2025-10-18T00:00	2580	747	2.9	-22.3	35	3	
2025-10-18T00:00	2600	745	2.9	-22.9	35	3	
2025-10-18T00:00	2620	743	3.0	-23.9	37	3	
2025-10-18T00:00	2640	742	3.0	-23.4	42	3	
2025-10-18T00:00	2660	740	3.0	-23.0	48	3	
2025-10-18T00:00	2680	738	2.9	-23.1	55	3	
2025-10-18T00:00	2700	736	2.8	-21.4	60	3	
2025-10-18T00:00	2720	734	2.5	-16.4	63	3	
2025-10-18T00:00	2740	733	2.4	-17.1	64	4	
2025-10-18T00:00	2760	731	2.2	-16.4	63	4	
2025-10-18T00:00	2780	729	2.1	-16.2	61	4	
2025-10-18T00:00	2800	727	2.0	-15.5	59	4	
2025-10-18T00:00	2820	725	1.9	-15.2	57	3	
2025-10-18T00:00	2840	724	1.8	-16.1	57	3	
2025-10-18T00:00	2860	722	1.8	-16.1	59	3	
2025-10-18T00:00	2880	720	1.6	-15.7	61	3	
2025-10-18T00:00	2900	718	1.4	-15.6	63	3	
2025-10-18T00:00	2920	716	1.3	-15.9	64	3	
2025-10-18T00:00	2940	715	1.1	-16.8	65	3	
2025-10-18T00:00	2960	713	1.0	-17.1	65	3	
2025-10-18T00:00	2980	711	0.8	-17.4	66	3	
2025-10-18T00:00	3000	709	0.6	-17.0	66	3	
2025-10-18T00:00	3020	707	0.4	-16.9	65	3	
2025-10-18T00:00	3040	706	0.2	-17.0	62	4	
2025-10-18T00:00	3060	704	0.0	-17.1	56	4	
2025-10-18T00:00	3080	702	-0.2	-17.1	51	4	
2025-10-18T00:00	3100	700	-0.3	-17.2	45	5	
2025-10-18T00:00	3120	699	-0.5	-17.3	41	5	
2025-10-18T00:00	3140	697	-0.7	-17.3	39	5	
2025-10-18T00:00	3160	695	-0.9	-17.5	38	5	
2025-10-18T00:00	3180	693	-1.1	-17.6	37	5	
2025-10-18T00:00	3200	692	-1.2	-17.7	38	5	
2025-10-18T00:00	3220	690	-1.4	-17.7	40	5	
2025-10-18T00:00	3240	688	-1.6	-17.8	42	5	
2025-10-18T00:00	3260	687	-1.8	-17.9	44	6	
2025-10-18T00:00	3280	685	-2.0	-18.1	44	6	
2025-10-18T00:00	3300	683	-2.1	-17.9	42	6	
2025-10-18T00:00	3320	681	-2.3	-18.2	41	6	
2025-10-18T00:00	3340	680	-2.5	-18.8	39	5	
2025-10-18T00:00	3360	678	-2.6	-19.1	37	5	
2025-10-18T00:00	3380	676	-2.7	-19.5	37	5	
2025-10-18T00:00	3400	675	-2.9	-19.9	37	5	
2025-10-18T00:00	3420	673	-3.0	-20.2	38	5	
2025-10-18T00:00	3440	671	-3.2	-20.4	38	5	
2025-10-18T00:00	3460	669	-3.3	-20.8	39	5	
2025-10-18T00:00	3480	668	-3.5	-21.1	38	5	
2025-10-18T00:00	3500	666	-3.6	-21.1	37	5	
2025-10-18T00:00	3520	664	-3.8	-21.0	35	5	
2025-10-18T00:00	3540	663	-4.0	-21.0	34	5	
2025-10-18T00:00	3560	661	-4.1	-21.1	34	5	
2025-10-18T00:00	3580	659	-4.3	-21.1	34	5	
2025-10-18T00:00	3600	658	-4.5	-21.0	35	5	
2025-10-18T00:00	3620	656	-4.7	-21.0	35	5	
2025-10-18T00:00	3640	654	-4.9	-21.0	36	5	
2025-10-18T00:00	3660	653	-5.1	-21.2	35	5	
2025-10-18T00:00	3680	651	-5.3	-21.8	33	5	
2025-10-18T00:00	3700	649	-5.4	-22.2	32	6	
2025-10-18T00:00	3720	648	-5.5	-23.0	30	6	
2025-10-18T00:00	3740	646	-5.6	-24.0	30	6	
2025-10-18T00:00	3760	644	-5.7	-25.0	31	6	
2025-10-18T00:00	3780	643	-5.8	-25.7	33	6	
2025-10-18T00:00	3800	641	-5.8	-26.7	38	6	
2025-10-18T00:00	3820	639	-5.9	-26.8	41	6	
2025-10-18T00:00	3840	638	-6.0	-26.7	45	6	
2025-10-18T00:00	3860	636	-6.1	-26.6	48	6	
2025-10-18T00:00	3880	635	-6.3	-25.3	49	5	
2025-10-18T00:00	3900	633	-6.4	-24.3	47	4	
2025-10-18T00:00	3920	631	-6.4	-24.8	44	4	
2025-10-18T00:00	3940	630	-6.5	-24.7	38	4	
2025-10-18T00:00	3960	628	-6.5	-25.3	34	4	
2025-10-18T00:00	3980	626	-6.5	-25.9	34	4	
2025-10-18T00:00	4000	625	-6.6	-26.2	35	5	
2025-10-18T00:00	4020	623	-6.6	-26.7	37	5	
2025-10-18T00:00	4040	622	-6.8	-26.8	38	5	
2025-10-18T00:00	4060	620	-6.9	-27.3	40	5	
2025-10-18T00:00	4080	619	-6.9	-27.7	41	5	
2025-10-18T00:00	4100	617	-6.9	-28.1	41	5	
2025-10-18T00:00	4120	615	-7.0	-28.5	40	4	
2025-10-18T00:00	4140	614	-7.0	-29.6	37	4	
2025-10-18T00:00	4160	612	-7.0	-30.2	34	4	
2025-10-18T00:00	4180	611	-7.0	-30.5	32	4	
2025-10-18T00:00	4200	609	-7.0	-30.6	31	4	
2025-10-18T00:00	4220	607	-7.1	-30.8	32	5	
2025-10-18T00:00	4240	606	-7.2	-31.3	33	5	
2025-10-18T00:00	4260	604	-7.3	-32.0	34	5	
2025-10-18T00:00	4280	603	-7.2	-35.0	35	5	
2025-10-18T00:00	4300	601	-7.2	-36.1	35	5	
2025-10-18T00:00	4320	600	-7.4	-37.3	33	5	
2025-10-18T00:00	4340	598	-7.5	-36.6	30	4	
2025-10-18T00:00	4360	597	-7.7	-34.1	24	4	
2025-10-18T00:00	4380	595	-7.9	-33.8	18	4	
2025-10-18T00:00	4400	593	-8.0	-32.5	13	5	
2025-10-18T00:00	4420	592	-8.2	-31.5	10	5	
2025-10-18T00:00	4440	590	-8.3	-32.0	9	5	
2025-10-18T00:00	4460	589	-8.5	-32.9	10	6	
2025-10-18T00:00	4480	587	-8.6	-33.9	10	6	
2025-10-18T00:00	4500	586	-8.8	-35.2	11	7	
2025-10-18T00:00	4520	585	-8.9	-36.5	11	7	
2025-10-18T00:00	4540	583	-9.0	-36.3	10	7	
2025-10-18T00:00	4560	581	-9.1	-35.1	9	7	
2025-10-18T00:00	4580	580	-9.3	-35.4	8	7	
2025-10-18T00:00	4600	578	-9.4	-35.5	5	7	
2025-10-18T00:00	4620	577	-9.5	-34.8	3	7	
2025-10-18T00:00	4640	575	-9.7	-34.7	2	6	
2025-10-18T00:00	4660	574	-9.8	-34.7	3	6	
2025-10-18T00:00	4680	572	-10.0	-34.9	3	6	
2025-10-18T00:00	4700	571	-10.1	-34.6	5	6	
2025-10-18T00:00	4720	569	-10.3	-33.9	6	6	
2025-10-18T00:00	4740	568	-10.5	-33.6	6	6	
2025-10-18T00:00	4760	567	-10.6	-33.5	3	6	
2025-10-18T00:00	4780	565	-10.8	-33.5	1	6	
2025-10-18T00:00	4800	564	-10.9	-34.4	357	6	
2025-10-18T00:00	4820	562	-11.0	-35.7	352	6	
2025-10-18T00:00	4840	561	-11.1	-35.3	349	6	
2025-10-18T00:00	4860	559	-11.3	-35.1	347	6	
2025-10-18T00:00	4880	558	-11.4	-35.3	346	5	
2025-10-18T00:00	4900	556	-11.5	-35.4	347	5	
2025-10-18T00:00	4920	555	-11.6	-35.5	350	5	
2025-10-18T00:00	4940	553	-11.7	-35.8	355	5	
2025-10-18T00:00	4960	552	-11.9	-35.8	1	4	
2025-10-18T00:00	4980	551	-12.0	-33.4	6	4	
2025-10-18T00:00	5000	549	-12.2	-32.5	9	5	
2025-10-18T00:00	5020	548	-12.4	-32.4	9	5	
2025-10-18T00:00	5040	546	-12.6	-32.7	6	5	
2025-10-18T00:00	5060	545	-12.8	-32.4	2	5	
2025-10-18T00:00	5080	543	-12.9	-32.1	359	5	
2025-10-18T00:00	5100	542	-13.1	-32.0	356	6	
2025-10-18T00:00	5120	540	-13.3	-32.1	354	6	
2025-10-18T00:00	5140	539	-13.5	-32.2	354	6	
2025-10-18T00:00	5160	538	-13.6	-32.2	355	6	
2025-10-18T00:00	5180	536	-13.8	-32.1	356	5	
2025-10-18T00:00	5200	535	-14.0	-32.1	357	5	
2025-10-18T00:00	5220	534	-14.1	-31.7	357	6	
2025-10-18T00:00	5240	532	-14.3	-31.4	357	6	
2025-10-18T00:00	5260	531	-14.5	-31.4	356	7	
2025-10-18T00:00	5280	529	-14.7	-31.4	355	7	
2025-10-18T00:00	5300	528	-14.9	-31.5	355	8	
2025-10-18T00:00	5320	527	-15.1	-31.5	355	8	
2025-10-18T00:00	5340	525	-15.3	-31.7	356	9	
2025-10-18T00:00	5360	524	-15.5	-31.8	356	9	
2025-10-18T00:00	5380	522	-15.7	-32.0	359	9	
2025-10-18T00:00	5400	521	-15.9	-31.9	0	8	
2025-10-18T00:00	5420	520	-16.1	-31.9	2	8	
2025-10-18T00:00	5440	518	-16.3	-32.1	3	7	
2025-10-18T00:00	5460	517	-16.5	-32.5	3	7	
2025-10-18T00:00	5480	515	-16.6	-32.5	3	6	
2025-10-18T00:00	5500	514	-16.8	-32.5	3	6	
2025-10-18T00:00	5520	513	-17.0	-32.5	2	6	
2025-10-18T00:00	5540	511	-17.2	-32.4	2	6	
2025-10-18T00:00	5560	510	-17.4	-32.5	2	7	
2025-10-18T00:00	5580	509	-17.6	-32.5	2	7	
2025-10-18T00:00	5600	507	-17.8	-32.3	1	7	
2025-10-18T00:00	5620	506	-18.0	-32.4	360	7	
2025-10-18T00:00	5640	505	-18.1	-32.4	358	8	
2025-10-18T00:00	5660	503	-18.3	-32.4	356	8	
2025-10-18T00:00	5680	502	-18.5	-32.5	352	8	
2025-10-18T00:00	5700	500	-18.7	-32.5	348	8	
2025-10-18T00:00	5720	499	-18.8	-32.6	344	8	
2025-10-18T00:00	5740	498	-19.0	-32.8	341	8	
2025-10-18T00:00	5760	496	-19.1	-33.0	338	8	
2025-10-18T00:00	5780	495	-19.3	-33.1	336	8	
2025-10-18T00:00	5800	494	-19.5	-33.1	337	9	
2025-10-18T00:00	5820	492	-19.6	-33.2	338	9	
2025-10-18T00:00	5840	491	-19.8	-33.4	340	9	
2025-10-18T00:00	5860	490	-20.0	-33.7	342	10	
2025-10-18T00:00	5880	489	-20.2	-33.9	344	10	
2025-10-18T00:00	5900	487	-20.4	-34.0	346	10	
2025-10-18T00:00	5920	486	-20.5	-34.2	347	9	
2025-10-18T00:00	5940	485	-20.7	-34.1	348	9	
2025-10-18T00:00	5960	483	-20.9	-34.2	349	9	
2025-10-18T00:00	5980	482	-21.1	-34.4	348	9	
2025-10-18T00:00	6000	481	-21.2	-36.0	346	9	
2025-10-18T00:00	6020	479	-21.3	-36.4	344	9	
2025-10-18T00:00	6040	478	-21.5	-35.2	343	9	
2025-10-18T00:00	6060	477	-21.7	-35.5	343	10	
2025-10-18T00:00	6080	475	-21.8	-35.3	343	10	
2025-10-18T00:00	6100	474	-22.0	-35.0	344	10	
2025-10-18T00:00	6120	473	-22.1	-34.6	346	11	
2025-10-18T00:00	6140	472	-22.3	-34.5	348	11	
2025-10-18T00:00	6160	470	-22.5	-34.5	350	11	
2025-10-18T00:00	6180	469	-22.7	-35.5	351	11	
2025-10-18T00:00	6200	468	-22.7	-39.3	352	11	
2025-10-18T00:00	6220	467	-22.7	-41.9	352	11	
2025-10-18T00:00	6240	465	-22.6	-44.7	352	11	
2025-10-18T00:00	6260	464	-22.7	-44.8	353	11	
2025-10-18T00:00	6280	463	-22.8	-44.2	354	11	
2025-10-18T00:00	6300	461	-22.9	-45.1	354	11	
2025-10-18T00:00	6320	460	-23.0	-46.8	355	11	
2025-10-18T00:00	6340	459	-23.1	-47.3	355	10	
2025-10-18T00:00	6360	458	-23.1	-47.7	355	10	
2025-10-18T00:00	6380	456	-23.1	-47.2	356	10	
2025-10-18T00:00	6400	455	-23.2	-46.5	356	10	
2025-10-18T00:00	6420	454	-23.4	-46.4	357	9	
2025-10-18T00:00	6440	453	-23.5	-46.1	357	9	
2025-10-18T00:00	6460	451	-23.7	-46.3	359	9	
2025-10-18T00:00	6480	450	-23.8	-47.0	360	9	
2025-10-18T00:00	6500	449	-23.9	-47.6	1	9	
2025-10-18T00:00	6520	448	-23.9	-48.4	2	9	
2025-10-18T00:00	6540	447	-24.0	-48.9	3	9	
2025-10-18T00:00	6560	445	-24.2	-49.1	4	9	
2025-10-18T00:00	6580	444	-24.3	-49.9	5	9	
2025-10-18T00:00	6600	443	-24.4	-49.9	6	9	
2025-10-18T00:00	6620	442	-24.5	-49.3	6	9	
2025-10-18T00:00	6640	440	-24.6	-48.9	6	9	
2025-10-18T00:00	6660	439	-24.8	-49.2	6	9	
2025-10-18T00:00	6680	438	-24.9	-49.3	4	9	
2025-10-18T00:00	6700	437	-25.1	-49.5	2	9	
2025-10-18T00:00	6720	436	-25.2	-49.6	0	9	
2025-10-18T00:00	6740	434	-25.4	-49.7	359	10	
2025-10-18T00:00	6760	433	-25.5	-49.8	359	10	
2025-10-18T00:00	6780	432	-25.6	-50.1	359	10	
2025-10-18T00:00	6800	431	-25.6	-51.6	0	10	
2025-10-18T00:00	6820	430	-25.6	-52.4	2	10	
2025-10-18T00:00	6840	428	-25.7	-53.2	4	10	
2025-10-18T00:00	6860	427	-25.8	-54.6	6	10	
2025-10-18T00:00	6880	426	-26.0	-55.4	7	11	
2025-10-18T00:00	6900	425	-26.1	-56.2	9	11	
2025-10-18T00:00	6920	424	-26.3	-56.6	11	11	
2025-10-18T00:00	6940	422	-26.4	-56.8	12	11	
2025-10-18T00:00	6960	421	-26.6	-57.0	14	11	
2025-10-18T00:00	6980	420	-26.7	-57.1	16	11	
2025-10-18T00:00	7000	419	-26.8	-57.2	17	11	
2025-10-18T00:00	7020	418	-26.9	-56.6	19	10	
2025-10-18T00:00	7040	417	-26.9	-55.9	21	10	
2025-10-18T00:00	7060	416	-27.0	-54.8	23	10	
2025-10-18T00:00	7080	414	-27.0	-52.6	25	10	
2025-10-18T00:00	7100	413	-27.0	-49.4	26	10	
2025-10-18T00:00	7120	412	-27.2	-49.4	28	10	
2025-10-18T00:00	7140	411	-27.4	-49.4	29	10	
2025-10-18T00:00	7160	410	-27.6	-48.8	29	10	
2025-10-18T00:00	7180	409	-27.8	-48.2	30	10	
2025-10-18T00:00	7200	408	-28.0	-47.9	30	11	
2025-10-18T00:00	7220	406	-28.2	-47.7	30	11	
2025-10-18T00:00	7240	405	-28.3	-47.7	29	11	
2025-10-18T00:00	7260	404	-28.5	-47.6	29	11	
2025-10-18T00:00	7280	403	-28.6	-48.1	28	10	
2025-10-18T00:00	7300	402	-28.7	-48.3	27	10	
2025-10-18T00:00	7320	401	-28.9	-48.3	26	10	
2025-10-18T00:00	7340	400	-29.0	-48.4	25	10	
2025-10-18T00:00	7360	399	-29.2	-48.7	23	10	
2025-10-18T00:00	7380	397	-29.3	-49.1	22	11	
2025-10-18T00:00	7400	396	-29.4	-50.0	20	11	
2025-10-18T00:00	7420	395	-29.4	-50.6	20	11	
2025-10-18T00:00	7440	394	-29.6	-50.9	20	11	
2025-10-18T00:00	7460	393	-29.7	-51.0	20	11	
2025-10-18T00:00	7480	392	-29.9	-51.5	20	11	
2025-10-18T00:00	7500	391	-30.0	-51.9	21	11	
2025-10-18T00:00	7520	390	-30.2	-52.1	21	11	
2025-10-18T00:00	7540	389	-30.4	-52.3	22	11	
2025-10-18T00:00	7560	387	-30.5	-52.5	22	11	
2025-10-18T00:00	7580	386	-30.6	-52.6	21	11	
2025-10-18T00:00	7600	385	-30.8	-52.7	21	11	
2025-10-18T00:00	7620	384	-30.9	-52.7	20	11	
2025-10-18T00:00	7640	383	-31.0	-52.4	19	11	
2025-10-18T00:00	7660	382	-31.2	-52.1	18	11	
2025-10-18T00:00	7680	381	-31.4	-51.9	18	11	
2025-10-18T00:00	7700	380	-31.5	-51.6	16	11	
2025-10-18T00:00	7720	379	-31.7	-51.5	16	11	
2025-10-18T00:00	7740	378	-31.9	-51.7	15	11	
2025-10-18T00:00	7760	377	-32.1	-51.7	14	11	
2025-10-18T00:00	7780	376	-32.2	-52.0	14	11	
2025-10-18T00:00	7800	375	-32.4	-52.6	13	11	
2025-10-18T00:00	7820	374	-32.5	-53.5	12	11	
2025-10-18T00:00	7840	372	-32.6	-53.6	12	11	
2025-10-18T00:00	7860	371	-32.8	-53.2	11	12	
2025-10-18T00:00	7880	370	-32.9	-53.5	11	12	
2025-10-18T00:00	7900	369	-33.1	-53.4	10	12	
2025-10-18T00:00	7920	368	-33.3	-53.3	10	12	
2025-10-18T00:00	7940	367	-33.4	-53.6	10	12	
2025-10-18T00:00	7960	366	-33.6	-53.4	9	12	
2025-10-18T00:00	7980	365	-33.8	-53.5	9	12	
2025-10-18T00:00	8000	364	-34.0	-53.6	9	12	
2025-10-18T00:00	8020	363	-34.1	-53.7	8	12	
2025-10-18T00:00	8040	362	-34.3	-53.7	8	12	
2025-10-18T00:00	8060	361	-34.5	-53.5	7	11	
2025-10-18T00:00	8080	360	-34.7	-53.4	7	11	
2025-10-18T00:00	8100	359	-34.9	-53.3	6	11	
2025-10-18T00:00	8120	358	-35.0	-53.1	5	11	
2025-10-18T00:00	8140	357	-35.2	-52.9	4	11	
2025-10-18T00:00	8160	356	-35.3	-52.9	4	10	
2025-10-18T00:00	8180	355	-35.5	-52.6	3	10	
2025-10-18T00:00	8200	354	-35.7	-52.1	3	10	
2025-10-18T00:00	8220	353	-35.8	-52.1	3	10	
2025-10-18T00:00	8240	352	-36.0	-51.5	3	10	
2025-10-18T00:00	8260	351	-36.1	-51.7	2	10	
2025-10-18T00:00	8280	350	-36.3	-52.0	1	10	
2025-10-18T00:00	8300	349	-36.5	-52.0	0	10	
2025-10-18T00:00	8320	348	-36.7	-52.1	360	10	
2025-10-18T00:00	8340	347	-36.9	-51.8	359	10	
2025-10-18T00:00	8360	346	-37.0	-51.9	360	10	
2025-10-18T00:00	8380	345	-37.2	-52.0	0	10	
2025-10-18T00:00	8400	344	-37.4	-52.2	1	10	
2025-10-18T00:00	8420	343	-37.5	-52.2	3	10	
2025-10-18T00:00	8440	342	-37.7	-52.1	5	10	
2025-10-18T00:00	8460	341	-37.8	-53.0	7	11	
2025-10-18T00:00	8480	340	-37.8	-54.6	8	11	
2025-10-18T00:00	8500	339	-38.0	-54.6	8	11	
2025-10-18T00:00	8520	338	-38.2	-54.8	8	11	
2025-10-18T00:00	8540	337	-38.3	-55.3	7	11	
2025-10-18T00:00	8560	336	-38.5	-55.7	6	11	
2025-10-18T00:00	8580	335	-38.6	-55.7	5	12	
2025-10-18T00:00	8600	334	-38.7	-55.7	5	12	
2025-10-18T00:00	8620	333	-38.8	-55.6	5	12	
2025-10-18T00:00	8640	332	-38.9	-55.5	5	12	
2025-10-18T00:00	8660	331	-39.1	-55.5	5	12	
2025-10-18T00:00	8680	330	-39.3	-55.3	6	12	
2025-10-18T00:00	8700	329	-39.4	-55.3	7	11	
2025-10-18T00:00	8720	328	-39.6	-55.3	7	11	
2025-10-18T00:00	8740	327	-39.8	-55.3	7	11	
2025-10-18T00:00	8760	326	-40.0	-55.3	7	11	
2025-10-18T00:00	8780	325	-40.2	-55.2	5	11	
2025-10-18T00:00	8800	324	-40.3	-55.2	4	10	
2025-10-18T00:00	8820	323	-40.5	-55.3	3	10	
2025-10-18T00:00	8840	322	-40.7	-55.4	2	10	
2025-10-18T00:00	8860	321	-40.8	-55.6	1	10	
2025-10-18T00:00	8880	320	-41.0	-55.9	0	10	
2025-10-18T00:00	8900	319	-41.2	-56.0	360	11	
2025-10-18T00:00	8920	318	-41.3	-56.0	360	11	
2025-10-18T00:00	8940	318	-41.5	-56.1	360	11	
2025-10-18T00:00	8960	317	-41.6	-56.0	360	11	
2025-10-18T00:00	8980	316	-41.8	-55.9	0	11	
2025-10-18T00:00	9000	315	-41.9	-55.8	1	11	
2025-10-18T00:00	9020	314	-42.1	-55.8	1	11	
2025-10-18T00:00	9040	313	-42.2	-56.2	2	11	
2025-10-18T00:00	9060	312	-42.4	-56.4	2	11	
2025-10-18T00:00	9080	311	-42.6	-56.5	2	11	
2025-10-18T00:00	9100	310	-42.7	-56.6	2	11	
2025-10-18T00:00	9120	309	-42.9	-56.8	3	11	
2025-10-18T00:00	9140	308	-43.0	-57.0	3	11	
2025-10-18T00:00	9160	307	-43.2	-57.2	3	11	
2025-10-18T00:00	9180	307	-43.4	-57.1	3	12	
2025-10-18T00:00	9200	306	-43.5	-57.0	3	12	
2025-10-18T00:00	9220	305	-43.7	-57.2	3	12	
2025-10-18T00:00	9240	304	-43.8	-57.4	3	12	
2025-10-18T00:00	9260	303	-44.0	-57.4	3	12	
2025-10-18T00:00	9280	302	-44.2	-57.5	3	12	
2025-10-18T00:00	9300	301	-44.3	-57.5	3	12	
2025-10-18T00:00	9320	300	-44.5	-57.6	4	12	
2025-10-18T00:00	9340	299	-44.7	-57.6	5	12	
2025-10-18T00:00	9360	299	-44.9	-57.5	6	12	
2025-10-18T00:00	9380	298	-45.1	-57.4	8	13	
2025-10-18T00:00	9400	297	-45.3	-57.4	9	13	
2025-10-18T00:00	9420	296	-45.4	-57.5	10	13	
2025-10-18T00:00	9440	295	-45.6	-57.4	11	13	
2025-10-18T00:00	9460	294	-45.8	-57.0	12	13	
2025-10-18T00:00	9480	293	-45.9	-56.7	13	13	
2025-10-18T00:00	9500	292	-46.1	-56.7	14	13	
2025-10-18T00:00	9520	291	-46.2	-56.9	15	12	
2025-10-18T00:00	9540	290	-46.4	-57.1	16	12	
2025-10-18T00:00	9560	290	-46.6	-57.2	17	12	
2025-10-18T00:00	9580	289	-46.8	-57.2	17	12	
2025-10-18T00:00	9600	288	-46.9	-57.6	17	12	
2025-10-18T00:00	9620	287	-47.1	-58.2	16	12	
2025-10-18T00:00	9640	286	-47.3	-58.7	15	11	
2025-10-18T00:00	9660	285	-47.4	-58.5	14	11	
2025-10-18T00:00	9680	284	-47.6	-58.3	13	11	
2025-10-18T00:00	9700	284	-47.8	-58.3	13	11	
2025-10-18T00:00	9720	283	-48.0	-58.4	12	11	
2025-10-18T00:00	9740	282	-48.2	-58.4	12	11	
2025-10-18T00:00	9760	281	-48.3	-58.4	12	11	
2025-10-18T00:00	9780	280	-48.5	-58.5	11	11	
2025-10-18T00:00	9800	279	-48.6	-58.6	11	11	
2025-10-18T00:00	9820	279	-48.8	-58.8	10	11	
2025-10-18T00:00	9840	278	-48.9	-59.0	10	12	
2025-10-18T00:00	9860	277	-49.1	-59.1	10	12	
2025-10-18T00:00	9880	276	-49.2	-59.1	10	12	
2025-10-18T00:00	9900	275	-49.4	-59.1	11	12	
2025-10-18T00:00	9920	274	-49.5	-59.4	11	12	
2025-10-18T00:00	9940	273	-49.6	-60.1	13	12	
2025-10-18T00:00	9960	273	-49.8	-60.6	14	13	
2025-10-18T00:00	9980	272	-49.9	-60.5	15	13	
2025-10-18T00:00	10000	271	-50.0	-60.2	16	13	
2025-10-18T00:00	10018	270	-50.2	-60.1	18	13	
2025-10-18T00:00	10050	269	-50.4	-60.2	20	12	
2025-10-18T00:00	10100	267	-50.9	-60.4	23	12	
2025-10-18T00:00	10150	265	-51.3	-61.2	25	12	
2025-10-18T00:00	10200	263	-51.7	-61.7	24	12	
2025-10-18T00:00	10250	261	-52.1	-61.3	23	12	
2025-10-18T00:00	10300	259	-52.6	-61.3	21	11	
2025-10-18T00:00	10350	257	-53.0	-61.4	19	11	
2025-10-18T00:00	10400	255	-53.3	-61.9	15	11	
2025-10-18T00:00	10450	253	-53.8	-61.9	11	11	
2025-10-18T00:00	10500	251	-54.2	-62.2	9	11	
2025-10-18T00:00	10550	249	-54.6	-62.5	8	11	
2025-10-18T00:00	10600	247	-55.0	-62.9	7	11	
2025-10-18T00:00	10650	245	-55.3	-63.4	6	11	
2025-10-18T00:00	10700	243	-55.4	-64.4	7	11	
2025-10-18T00:00	10750	241	-55.6	-64.7	8	11	
2025-10-18T00:00	10800	239	-55.9	-63.8	9	12	
2025-10-18T00:00	10850	237	-56.3	-63.4	8	12	
2025-10-18T00:00	10900	235	-56.8	-63.9	8	12	
2025-10-18T00:00	10950	234	-57.0	-64.8	8	12	
2025-10-18T00:00	11000	232	-57.3	-64.9	8	12	
2025-10-18T00:00	11050	230	-57.5	-65.1	8	11	
2025-10-18T00:00	11100	228	-57.7	-66.2	8	11	
2025-10-18T00:00	11150	226	-57.9	-67.1	6	10	
2025-10-18T00:00	11200	225	-58.1	-67.2	2	10	
2025-10-18T00:00	11250	223	-58.5	-67.3	0	11	
2025-10-18T00:00	11300	221	-59.0	-67.3	360	11	
2025-10-18T00:00	11350	219	-59.5	-67.4	360	11	
2025-10-18T00:00	11400	217	-59.9	-67.6	358	12	
2025-10-18T00:00	11450	216	-60.2	-68.3	357	13	
2025-10-18T00:00	11500	214	-59.9	-68.7	357	13	
2025-10-18T00:00	11550	212	-59.8	-68.7	358	14	
2025-10-18T00:00	11600	211	-59.7	-67.8	360	14	
2025-10-18T00:00	11650	209	-60.1	-67.2	1	14	
2025-10-18T00:00	11700	207	-60.4	-67.3	0	13	
2025-10-18T00:00	11750	206	-60.5	-67.6	359	12	
2025-10-18T00:00	11800	204	-60.5	-68.6	357	11	
2025-10-18T00:00	11850	202	-60.5	-70.7	356	10	
2025-10-18T00:00	11900	201	-60.5	-73.8	354	10	
2025-10-18T00:00	11950	199	-60.2	-76.3	350	9	
2025-10-18T00:00	12000	198	-60.4	-76.0	346	9	
2025-10-18T00:00	12050	196	-60.6	-74.6	345	10	
2025-10-18T00:00	12100	194	-60.4	-73.8	345	10	
2025-10-18T00:00	12150	193	-60.1	-73.6	344	10	
2025-10-18T00:00	12200	191	-60.1	-74.3	343	10	
2025-10-18T00:00	12250	190	-59.6	-75.0	341	11	
2025-10-18T00:00	12300	188	-59.4	-75.9	338	11	
2025-10-18T00:00	12350	187	-59.0	-76.3	336	12	
2025-10-18T00:00	12400	185	-59.0	-76.9	335	11	
2025-10-18T00:00	12450	184	-58.8	-77.7	337	11	
2025-10-18T00:00	12500	182	-58.6	-78.3	337	10	
2025-10-18T00:00	12550	181	-58.6	-78.7	336	10	
2025-10-18T00:00	12600	179	-58.5	-78.6	333	9	
2025-10-18T00:00	12650	178	-58.3	-78.8	333	9	
2025-10-18T00:00	12700	177	-58.2	-79.3	334	9	
2025-10-18T00:00	12750	175	-58.1	-79.5	334	8	
2025-10-18T00:00	12800	174	-58.0	-79.7	335	7	
2025-10-18T00:00	12850	173	-58.1	-79.8	338	6	
2025-10-18T00:00	12900	171	-58.4	-79.7	338	6	
2025-10-18T00:00	12950	170	-58.7	-79.7	333	6	
2025-10-18T00:00	13000	168	-58.7	-79.0	327	6	
2025-10-18T00:00	13050	167	-59.0	-78.9	323	8	
2025-10-18T00:00	13100	166	-59.3	-78.9	318	8	
2025-10-18T00:00	13150	164	-59.2	-78.9	312	9	
2025-10-18T00:00	13200	163	-59.3	-79.3	308	9	
2025-10-18T00:00	13250	162	-59.6	-79.7	310	10	
2025-10-18T00:00	13300	160	-59.6	-80.1	314	11	
2025-10-18T00:00	13350	159	-59.3	-80.6	316	11	
2025-10-18T00:00	13400	158	-59.4	-80.7	319	11	
2025-10-18T00:00	13450	157	-59.3	-80.7	320	11	
2025-10-18T00:00	13500	155	-59.4	-80.9	323	10	
2025-10-18T00:00	13550	154	-59.1	-81.2	326	10	
2025-10-18T00:00	13600	153	-59.1	-81.4	325	9	
2025-10-18T00:00	13650	152	-59.3	-81.8	320	8	
2025-10-18T00:00	13700	151	-59.3	-82.0	315	8	
2025-10-18T00:00	13750	149	-59.3	-82.1	313	8	
2025-10-18T00:00	13800	148	-59.2	-82.1	308	8	
2025-10-18T00:00	13850	147	-59.5	-82.2	303	9	
2025-10-18T00:00	13900	146	-59.8	-82.3	301	9	
2025-10-18T00:00	13950	145	-60.0	-82.5	304	10	
2025-10-18T00:00	14000	144	-60.1	-82.6	307	11	
2025-10-18T00:00	14050	142	-60.2	-82.7	309	12	
2025-10-18T00:00	14100	141	-60.4	-82.7	311	12	
2025-10-18T00:00	14150	140	-60.5	-82.8	314	13	
2025-10-18T00:00	14200	139	-60.2	-82.9	318	12	
2025-10-18T00:00	14250	138	-59.8	-82.9	323	12	
2025-10-18T00:00	14300	137	-59.9	-83.1	328	12	
2025-10-18T00:00	14350	136	-59.7	-83.1	328	12	
2025-10-18T00:00	14400	135	-59.5	-83.1	323	12	
2025-10-18T00:00	14450	134	-59.7	-83.1	319	12	
2025-10-18T00:00	14500	133	-59.9	-83.1	317	12	
2025-10-18T00:00	14550	131	-60.1	-83.1	317	11	
2025-10-18T00:00	14600	130	-60.2	-83.3	322	11	
2025-10-18T00:00	14650	129	-60.1	-83.2	328	11	
2025-10-18T00:00	14700	128	-60.3	-83.4	332	11	
2025-10-18T00:00	14750	127	-60.6	-83.6	331	10	
2025-10-18T00:00	14800	126	-60.6	-83.5	329	10	
2025-10-18T00:00	14850	125	-60.6	-83.4	327	10	
2025-10-18T00:00	14900	124	-60.7	-83.3	324	10	
2025-10-18T00:00	14950	123	-61.0	-83.5	323	11	
2025-10-18T00:00	15000	122	-60.9	-83.5	324	12	
2025-10-18T00:00	15050	121	-60.8	-83.7	328	12	
2025-10-18T00:00	15100	120	-60.6	-83.8	330	12	
2025-10-18T00:00	15150	119	-60.5	-83.9	328	10	
2025-10-18T00:00	15200	118	-60.3	-83.9	326	8	
2025-10-18T00:00	15250	117	-60.1	-84.0	324	7	
2025-10-18T00:00	15300	117	-59.8	-83.9	317	6	
2025-10-18T00:00	15350	116	-59.8	-83.8	303	6	
2025-10-18T00:00	15400	115	-60.0	-83.8	289	5	
2025-10-18T00:00	15450	114	-59.7	-83.5	281	5	
2025-10-18T00:00	15500	113	-59.9	-83.6	279	5	
2025-10-18T00:00	15550	112	-59.9	-83.6	283	5	
2025-10-18T00:00	15600	111	-60.1	-83.7	289	6	
2025-10-18T00:00	15650	110	-60.1	-83.7	292	6	
2025-10-18T00:00	15700	109	-60.1	-83.8	293	7	
2025-10-18T00:00	15750	108	-60.2	-83.9	293	7	
2025-10-18T00:00	15800	108	-60.3	-83.9	293	8	
2025-10-18T00:00	15850	107	-60.6	-83.9	295	8	
2025-10-18T00:00	15900	106	-60.9	-84.0	299	9	
2025-10-18T00:00	15950	105	-61.0	-84.2	305	9	
2025-10-18T00:00	16000	104	-60.9	-84.1	311	10	
2025-10-18T00:00	16050	103	-61.0	-84.2	314	10	
2025-10-18T00:00	16100	102	-61.2	-84.5	315	11	
2025-10-18T00:00	16150	102	-61.0	-84.4	313	11	
2025-10-18T00:00	16200	101	-61.1	-84.6	312	11	
2025-10-18T00:00	16250	100	-61.0	-84.5	314	11	
2025-10-18T00:00	16300	99	-61.1	-84.6	316	11	
2025-10-18T00:00	16350	98	-61.3	-84.7	318	11	
2025-10-18T00:00	16400	98	-61.5	-84.8	322	10	
2025-10-18T00:00	16450	97	-61.6	-84.8	327	9	
2025-10-18T00:00	16500	96	-61.9	-85.0	330	7	
2025-10-18T00:00	16550	95	-61.9	-85.1	328	6	
2025-10-18T00:00	16600	95	-61.9	-85.1	323	6	
2025-10-18T00:00	16650	94	-62.0	-85.3	321	7	
2025-10-18T00:00	16700	93	-61.9	-85.5	321	7	
2025-10-18T00:00	16750	92	-61.5	-85.5	315	6	
2025-10-18T00:00	16800	92	-61.4	-85.5	308	5	
2025-10-18T00:00	16850	91	-61.4	-85.6	312	5	
2025-10-18T00:00	16900	90	-61.1	-85.5	316	5	
2025-10-18T00:00	16950	89	-61.0	-85.6	308	5	
2025-10-18T00:00	17000	89	-61.0	-85.7	296	5	
2025-10-18T00:00	17050	88	-60.9	-85.7	286	5	
2025-10-18T00:00	17100	87	-60.9	-85.7	284	5	
2025-10-18T00:00	17150	86	-61.2	-85.8	291	6	
2025-10-18T00:00	17200	86	-61.3	-85.9	300	7	
2025-10-18T00:00	17250	85	-61.1	-85.9	310	7	
2025-10-18T00:00	17300	84	-61.1	-86.0	320	7	
2025-10-18T00:00	17350	84	-61.2	-86.1	326	7	
2025-10-18T00:00	17400	83	-61.2	-86.1	326	7	
2025-10-18T00:00	17450	82	-61.1	-86.0	318	6	
2025-10-18T00:00	17500	82	-61.3	-86.1	308	6	
2025-10-18T00:00	17550	81	-61.5	-86.3	294	5	
2025-10-18T00:00	17600	80	-61.5	-86.2	281	6	
2025-10-18T00:00	17650	80	-61.7	-86.3	277	7	
2025-10-18T00:00	17700	79	-61.7	-86.4	280	8	
2025-10-18T00:00	17750	79	-61.7	-86.3	285	10	
2025-10-18T00:00	17800	78	-61.7	-86.4	287	10	
2025-10-18T00:00	17850	77	-61.7	-86.4	285	11	
2025-10-18T00:00	17900	77	-61.6	-86.6	284	11	
2025-10-18T00:00	17950	76	-61.2	-86.7	286	11	
2025-10-18T00:00	18000	75	-60.8	-86.7	288	11	
2025-10-18T00:00	18050	75	-60.0	-86.5	287	10	
2025-10-18T00:00	18100	74	-60.0	-86.6	286	10	
2025-10-18T00:00	18150	74	-59.7	-86.4	285	10	
2025-10-18T00:00	18200	73	-59.5	-86.4	289	10	
2025-10-18T00:00	18250	72	-59.1	-86.0	294	10	
2025-10-18T00:00	18300	72	-59.6	-86.1	301	10	
2025-10-18T00:00	18350	71	-59.9	-86.2	307	10	
2025-10-18T00:00	18400	71	-60.1	-86.2	311	11	
2025-10-18T00:00	18450	70	-60.3	-86.2	315	11	
2025-10-18T00:00	18500	70	-60.6	-86.3	318	12	
2025-10-18T00:00	18550	69	-60.9	-86.4	322	12	
2025-10-18T00:00	18600	69	-61.2	-86.5	324	12	
2025-10-18T00:00	18650	68	-61.4	-86.7	327	11	
2025-10-18T00:00	18700	67	-61.5	-86.7	328	11	
2025-10-18T00:00	18750	67	-61.8	-86.7	328	10	
2025-10-18T00:00	18800	66	-62.0	-86.8	327	9	
2025-10-18T00:00	18850	66	-62.3	-86.9	325	8	
2025-10-18T00:00	18900	65	-62.4	-87.1	322	7	
2025-10-18T00:00	18950	65	-62.5	-87.1	316	6	
2025-10-18T00:00	19000	64	-62.7	-87.2	306	6	
2025-10-18T00:00	19050	64	-63.0	-87.3	296	7	
2025-10-18T00:00	19100	63	-63.2	-87.3	292	8	
2025-10-18T00:00	19150	63	-63.4	-87.4	294	8	
2025-10-18T00:00	19200	62	-63.4	-87.5	299	8	
2025-10-18T00:00	19250	62	-63.3	-87.6	305	8	
2025-10-18T00:00	19300	61	-63.3	-87.6	309	7	
2025-10-18T00:00	19350	61	-63.2	-87.7	307	6	
2025-10-18T00:00	19400	60	-63.1	-87.7	294	4	
2025-10-18T00:00	19450	60	-62.9	-87.7	272	4	
2025-10-18T00:00	19500	59	-62.9	-87.8	258	6	
2025-10-18T00:00	19550	59	-62.4	-87.7	251	7	
2025-10-18T00:00	19600	58	-62.0	-87.6	251	8	
2025-10-18T00:00	19650	58	-61.8	-87.5	255	8	
2025-10-18T00:00	19700	57	-61.7	-87.5	259	9	
2025-10-18T00:00	19750	57	-61.6	-87.4	263	9	
2025-10-18T00:00	19800	56	-61.6	-87.4	271	9	
2025-10-18T00:00	19850	56	-61.6	-87.6	282	9	
2025-10-18T00:00	19900	55	-61.1	-87.6	293	10	
2025-10-18T00:00	19950	55	-60.0	-87.2	301	10	
2025-10-18T00:00	20000	55	-59.9	-87.2	306	10	
2025-10-18T00:00	20050	54	-60.1		308	10	
2025-10-18T00:00	20100	54	-60.3		310	10	
2025-10-18T00:00	20150	53	-60.6		313	10	
2025-10-18T00:00	20200	53	-60.9		317	10	
2025-10-18T00:00	20250	52	-61.2		322	10	
2025-10-18T00:00	20300	52	-61.3		325	9	
2025-10-18T00:00	20350	52	-61.1		324	9	
2025-10-18T00:00	20400	51	-61.0		320	8	
2025-10-18T00:00	20450	51	-61.2		315	7	
2025-10-18T00:00	20500	50	-61.5		309	7	
2025-10-18T00:00	20550	50	-61.7		301	7	
2025-10-18T00:00	20600	50	-62.1		292	7	
2025-10-18T00:00	20650	49	-62.4		287	8	
2025-10-18T00:00	20700	49	-62.3		286	9	
2025-10-18T00:00	20750	48	-62.4		288	9	
2025-10-18T00:00	20800	48	-62.2		290	10	
2025-10-18T00:00	20850	48	-61.6		294	10	
2025-10-18T00:00	20900	47	-61.6		298	10	
2025-10-18T00:00	20950	47	-61.6		302	9	
2025-10-18T00:00	21000	46	-61.8		303	8	
2025-10-18T00:00	21050	46	-61.9		300	7	
2025-10-18T00:00	21100	46	-61.7		295	5	
2025-10-18T00:00	21150	45	-61.7		280	3	
2025-10-18T00:00	21200	45	-61.9		249	3	
2025-10-18T00:00	21250	45	-61.4		230	5	
2025-10-18T00:00	21300	44	-60.8		228	6	
2025-10-18T00:00	21350	44	-60.2		234	8	
2025-10-18T00:00	21400	44	-60.1		245	8	
2025-10-18T00:00	21450	43	-60.0		253	8	
2025-10-18T00:00	21500	43	-59.9		258	9	
2025-10-18T00:00	21550	43	-59.9		258	9	
2025-10-18T00:00	21600	42	-60.1		257	9	
2025-10-18T00:00	21650	42	-60.0		255	9	
2025-10-18T00:00	21700	42	-60.0		252	8	
2025-10-18T00:00	21750	41	-60.0		250	8	
2025-10-18T00:00	21800	41	-60.1		258	7	
2025-10-18T00:00	21850	41	-59.7		273	8	
2025-10-18T00:00	21900	40	-59.5		285	9	
2025-10-18T00:00	21950	40	-59.3		290	10	
2025-10-18T00:00	22000	40	-58.9		292	10	
2025-10-18T00:00	22050	39	-58.4		293	10	
2025-10-18T00:00	22100	39	-58.7		295	9	
2025-10-18T00:00	22150	39	-59.1		297	8	
2025-10-18T00:00	22200	38	-59.3		300	7	
2025-10-18T00:00	22250	38	-59.3		301	6	
2025-10-18T00:00	22300	38	-59.2		297	5	
2025-10-18T00:00	22350	37	-59.1		287	5	
2025-10-18T00:00	22400	37	-59.1		281	5	
2025-10-18T00:00	22450	37	-58.6		283	6	
2025-10-18T00:00	22500	37	-58.6		286	7	
2025-10-18T00:00	22550	36	-58.7		287	7	
2025-10-18T00:00	22600	36	-59.0		284	8	
2025-10-18T00:00	22650	36	-59.0		277	9	
2025-10-18T00:00	22700	35	-59.0		269	10	
2025-10-18T00:00	22750	35	-59.2		266	11	
2025-10-18T00:00	22800	35	-59.0		265	12	
2025-10-18T00:00	22850	35	-59.2		265	13	
2025-10-18T00:00	22900	34	-59.5		268	14	
2025-10-18T00:00	22950	34	-59.5		273	14	
2025-10-18T00:00	23000	34	-59.4		277	13	
2025-10-18T00:00	23050	33	-59.0		279	13	
2025-10-18T00:00	23100	33	-57.9		280	13	
2025-10-18T00:00	23150	33	-57.5		282	13	
2025-10-18T00:00	23200	33	-57.5		285	13	
2025-10-18T00:00	23250	32	-57.6		289	13	
2025-10-18T00:00	23300	32	-57.7		292	13	
2025-10-18T00:00	23350	32	-57.9		295	13	
2025-10-18T00:00	23400	32	-57.9		297	13	
2025-10-18T00:00	23450	31	-58.3		297	14	
2025-10-18T00:00	23500	31	-58.7		297	13	
2025-10-18T00:00	23550	31	-58.9		298	13	
2025-10-18T00:00	23600	31	-59.1		298	12	
2025-10-18T00:00	23650	30	-59.3		294	11	
2025-10-18T00:00	23700	30	-59.1		288	11	
2025-10-18T00:00	23750	30	-58.6		283	9	
2025-10-18T00:00	23800	30	-58.8		277	8	
2025-10-18T00:00	23850	29	-59.0		269	7	
2025-10-18T00:00	23900	29	-59.1		261	7	
2025-10-18T00:00	23950	29	-58.8		255	7	
2025-10-18T00:00	24000	29	-58.7		252	9	
2025-10-18T00:00	24050	29	-58.2		255	10	
2025-10-18T00:00	24100	28	-58.0		261	12	
2025-10-18T00:00	24150	28	-57.3		265	14	
2025-10-18T00:00	24200	28	-56.9		268	15	
2025-10-18T00:00	24250	28	-56.6		272	16	
2025-10-18T00:00	24300	27	-56.5		278	16	
2025-10-18T00:00	24350	27	-56.3		283	17	
2025-10-18T00:00	24400	27	-56.3		288	17	
2025-10-18T00:00	24450	27	-56.4		292	16	
2025-10-18T00:00	24500	27	-56.6		296	16	
2025-10-18T00:00	24550	26	-56.9		298	15	
2025-10-18T00:00	24600	26	-56.8		299	14	
2025-10-18T00:00	24650	26	-56.7		299	14	
2025-10-18T00:00	24700	26	-56.6		301	13	
2025-10-18T00:00	24750	26	-56.4		305	14	
2025-10-18T00:00	24800	25	-56.6		309	14	
2025-10-18T00:00	24850	25	-56.8		313	14	
2025-10-18T00:00	24900	25	-56.5		317	13	
2025-10-18T00:00	24950	25	-56.8		321	13	
2025-10-18T00:00	25000	25	-57.1		324	12	
2025-10-18T00:00	25050	24	-57.4		325	11	
2025-10-18T00:00	25100	24	-57.2		321	10	
2025-10-18T00:00	25150	24	-56.9		314	10	
2025-10-18T00:00	25200	24	-56.8		310	9	
2025-10-18T00:00	25250	24	-56.5		311	9	
2025-10-18T00:00	25300	23	-56.4		313	9	
2025-10-18T00:00	25350	23	-56.3		319	9	
2025-10-18T00:00	25400	23	-56.3		327	9	
2025-10-18T00:00	25450	23	-56.1		337	9	
2025-10-18T00:00	25500	23	-56.1		344	9	
2025-10-18T00:00	25550	23	-56.2		348	8	
2025-10-18T00:00	25600	22	-56.2		349	6	
2025-10-18T00:00	25650	22	-55.7		348	5	
2025-10-18T00:00	25700	22	-55.5		345	4	
2025-10-18T00:00	25750	22	-55.4		337	3	
2025-10-18T00:00	25800	22	-55.0		324	3	
2025-10-18T00:00	25850	21	-55.0		309	3	
2025-10-18T00:00	25900	21	-55.2		291	3	
2025-10-18T00:00	25950	21	-55.1		280	4	
2025-10-18T00:00	26000	21	-54.9		278	5	
2025-10-18T00:00	26050	21	-55.1		278	7	
2025-10-18T00:00	26100	21	-55.4		278	8	
2025-10-18T00:00	26150	21	-55.8		280	9	
2025-10-18T00:00	26200	20	-56.2		283	11	
2025-10-18T00:00	26250	20	-56.1		286	11	
2025-10-18T00:00	26300	20	-55.9		289	11	
2025-10-18T00:00	26350	20	-55.9		289	10	
2025-10-18T00:00	26400	20	-56.0		285	9	
2025-10-18T00:00	26450	20	-55.6		274	7	
2025-10-18T00:00	26500	19	-55.4		258	6	
2025-10-18T00:00	26550	19	-55.4		239	6	
2025-10-18T00:00	26600	19	-55.0		227	7	
2025-10-18T00:00	26650	19	-54.3		226	8	
2025-10-18T00:00	26700	19	-54.1		233	10	
2025-10-18T00:00	26750	19	-53.9		241	11	
2025-10-18T00:00	26800	19	-53.8		248	11	
2025-10-18T00:00	26850	18	-53.7		254	11	
2025-10-18T00:00	26900	18	-53.6		259	10	
2025-10-18T00:00	26950	18	-53.5		261	9	
2025-10-18T00:00	27000	18	-53.6		258	8	
2025-10-18T00:00	27050	18	-53.6		254	8	
2025-10-18T00:00	27100	18	-53.4		251	9	
2025-10-18T00:00	27150	18	-53.2		250	11	
2025-10-18T00:00	27200	17	-52.8		248	12	
2025-10-18T00:00	27250	17	-52.5		247	14	
2025-10-18T00:00	27300	17	-52.6		247	16	
2025-10-18T00:00	27350	17	-52.5		248	17	
2025-10-18T00:00	27400	17	-52.6		249	18	
2025-10-18T00:00	27450	17	-52.7		250	17	
2025-10-18T00:00	27500	17	-52.8		250	16	
2025-10-18T00:00	27550	16	-52.9		250	15	
2025-10-18T00:00	27600	16	-52.9		250	14	
2025-10-18T00:00	27650	16	-53.3		250	13	
2025-10-18T00:00	27700	16	-53.6		251	13	
2025-10-18T00:00	27750	16	-53.5		251	14	
2025-10-18T00:00	27800	16	-52.9		251	15	
2025-10-18T00:00	27850	16	-52.7		251	17	
2025-10-18T00:00	27900	16	-52.3		253	19	
2025-10-18T00:00	27950	15	-52.1		255	21	
2025-10-18T00:00	28000	15	-52.0		257	21	
2025-10-18T00:00	28050	15	-52.1		261	21	
2025-10-18T00:00	28100	15	-52.1		265	21	
2025-10-18T00:00	28150	15	-52.4		269	21	
2025-10-18T00:00	28200	15	-52.4		271	20	
2025-10-18T00:00	28250	15	-52.8		273	19	
2025-10-18T00:00	28300	15	-53.2		275	17	
2025-10-18T00:00	28350	15	-53.4		276	16	
2025-10-18T00:00	28400	14	-53.6		277	16	
2025-10-18T00:00	28450	14	-53.9		277	16	
2025-10-18T00:00	28500	14	-53.8		277	16	
2025-10-18T00:00	28550	14	-53.5		277	17	
2025-10-18T00:00	28600	14	-53.6		277	17	
2025-10-18T00:00	28650	14	-53.6		277	18	
2025-10-18T00:00	28700	14	-53.3		278	19	
2025-10-18T00:00	28750	14	-52.8		279	21	
2025-10-18T00:00	28800	14	-52.5		280	21	
2025-10-18T00:00	28850	13	-52.5		283	22	
2025-10-18T00:00	28900	13	-52.2		285	23	
2025-10-18T00:00	28950	13	-52.1		288	23	
2025-10-18T00:00	29000	13	-51.9		290	22	
2025-10-18T00:00	29050	13	-51.5		292	22	
2025-10-18T00:00	29100	13	-51.9		294	21	
2025-10-18T00:00	29150	13	-52.3		295	20	
2025-10-18T00:00	29200	13	-52.5		296	18	
2025-10-18T00:00	29250	13	-52.5		294	17	
2025-10-18T00:00	29300	13	-52.5		291	16	
2025-10-18T00:00	29350	12	-52.3		287	16	
2025-10-18T00:00	29400	12	-52.1		287	16	
2025-10-18T00:00	29450	12	-52.0		288	17	
2025-10-18T00:00	29500	12	-51.8		290	17	
2025-10-18T00:00	29550	12	-51.3		290	18	
2025-10-18T00:00	29600	12	-50.4		288	18	
2025-10-18T00:00	29650	12	-50.0		286	18	
2025-10-18T00:00	29700	12	-49.7		285	19	
2025-10-18T00:00	29750	12	-49.5		287	19	
2025-10-18T00:00	29800	12	-49.3		291	19	
2025-10-18T00:00	29850	12	-49.3		296	19	
2025-10-18T00:00	29900	11	-49.5		300	19	
2025-10-18T00:00	29950	11	-49.6		301	18	
2025-10-18T00:00	30000	11	-49.5		301	19	
2025-10-18T00:00	30050	11	-48.9		301	19	
2025-10-18T00:00	30100	11	-48.8		300	19	
2025-10-18T00:00	30150	11	-48.4		299	19	
2025-10-18T00:00	30200	11	-48.5		297	18	
2025-10-18T00:00	30250	11	-48.6		296	17	
2025-10-18T00:00	30300	11	-48.2		296	16	
2025-10-18T00:00	30350	11	-48.1		293	15	
2025-10-18T00:00	30400	11	-47.7		288	14	
2025-10-18T00:00	30450	11	-47.7		283	14	
2025-10-18T00:00	30500	10	-47.3		280	14	
2025-10-18T00:00	30550	10	-46.8		280	14	
2025-10-18T12:00	491	966	10.4	4.8	88	1	
2025-10-18T12:00	501	964	9.9	4.6	57	1	
2025-10-18T12:00	520	963	9.4	4.5	39	1	
2025-10-18T12:00	540	960	9.2	4.0	40	1	
2025-10-18T12:00	560	958	9.1	3.7	40	1	
2025-10-18T12:00	580	956	8.9	3.7	38	1	
2025-10-18T12:00	600	953	8.6	3.9	32	1	
2025-10-18T12:00	620	951	8.4	3.6	21	1	
2025-10-18T12:00	640	949	8.2	3.7	7	1	
2025-10-18T12:00	660	946	8.0	3.7	358	1	
2025-10-18T12:00	680	944	7.8	3.6	358	1	
2025-10-18T12:00	700	942	7.6	3.6	5	1	
2025-10-18T12:00	720	939	7.4	3.8	17	1	
2025-10-18T12:00	740	937	7.2	3.8	31	1	
2025-10-18T12:00	760	935	7.0	3.7	41	1	
2025-10-18T12:00	780	933	6.9	3.7	49	2	
2025-10-18T12:00	800	931	6.7	3.8	53	2	
2025-10-18T12:00	820	928	6.5	3.8	55	2	
2025-10-18T12:00	840	926	6.3	3.7	56	2	
2025-10-18T12:00	860	924	6.1	3.8	56	1	
2025-10-18T12:00	880	922	5.9	3.8	54	1	
2025-10-18T12:00	900	919	5.7	3.5	48	1	
2025-10-18T12:00	920	917	5.5	3.5	38	1	
2025-10-18T12:00	940	915	5.3	3.3	30	1	
2025-10-18T12:00	960	913	5.1	3.2	28	1	
2025-10-18T12:00	980	910	4.9	3.3	31	1	
2025-10-18T12:00	1000	908	4.7	3.3	36	1	
2025-10-18T12:00	1020	906	4.6	3.2	44	1	
2025-10-18T12:00	1040	904	4.4	3.3	52	1	
2025-10-18T12:00	1060	901	4.2	3.5	60	1	
2025-10-18T12:00	1080	899	4.0	3.4	65	1	
2025-10-18T12:00	1100	897	3.9	3.5	68	1	
2025-10-18T12:00	1120	895	3.7	3.4	72	1	
2025-10-18T12:00	1140	893	3.5	3.4	75	1	
2025-10-18T12:00	1160	890	3.3	3.3	78	1	
2025-10-18T12:00	1180	888	3.2	3.2	80	1	
2025-10-18T12:00	1200	886	3.2	3.2	82	1	
2025-10-18T12:00	1220	884	3.1	3.1	85	1	
2025-10-18T12:00	1240	881	3.0	3.0	87	1	
2025-10-18T12:00	1260	880	2.8	2.8	90	1	
2025-10-18T12:00	1280	877	2.7	2.7	95	1	
2025-10-18T12:00	1300	875	2.6	2.6	104	1	
2025-10-18T12:00	1320	873	2.4	2.4	119	1	
2025-10-18T12:00	1340	871	2.3	2.3	147	1	
2025-10-18T12:00	1360	869	2.2	2.2	183	1	
2025-10-18T12:00	1380	866	2.0	2.0	206	1	
2025-10-18T12:00	1400	864	1.9	1.9	217	1	
2025-10-18T12:00	1420	862	2.8	1.2	223	1	
2025-10-18T12:00	1440	860	4.9	-0.4	226	1	
2025-10-18T12:00	1460	858	5.6	-0.7	226	1	
2025-10-18T12:00	1480	856	5.9	-1.4	224	1	
2025-10-18T12:00	1500	854	6.9	-5.4	220	1	
2025-10-18T12:00	1520	852	7.9	-6.9	215	1	
2025-10-18T12:00	1540	850	8.1	-6.5	209	1	
2025-10-18T12:00	1560	848	8.1	-7.3	202	1	
2025-10-18T12:00	1580	846	8.1	-7.4	194	1	
2025-10-18T12:00	1600	844	8.3	-10.0	185	1	
2025-10-18T12:00	1620	842	8.5	-13.6	176	1	
2025-10-18T12:00	1640	839	8.5	-13.4	169	1	
2025-10-18T12:00	1660	838	8.4	-12.9	166	1	
2025-10-18T12:00	1680	835	8.3	-12.3	166	1	
2025-10-18T12:00	1700	833	8.1	-12.2	167	1	
2025-10-18T12:00	1720	831	8.0	-12.2	170	1	
2025-10-18T12:00	1740	829	8.0	-12.5	172	1	
2025-10-18T12:00	1760	827	7.9	-12.6	175	1	
2025-10-18T12:00	1780	825	7.9	-12.8	178	1	
2025-10-18T12:00	1800	823	7.9	-13.4	181	1	
2025-10-18T12:00	1820	821	7.9	-13.7	183	1	
2025-10-18T12:00	1840	819	7.8	-13.6	185	1	
2025-10-18T12:00	1860	817	7.6	-12.9	185	1	
2025-10-18T12:00	1880	815	7.5	-12.6	181	1	
2025-10-18T12:00	1900	813	7.3	-13.0	172	0	
2025-10-18T12:00	1920	811	7.2	-14.0	146	0	
2025-10-18T12:00	1940	809	7.2	-16.2	101	0	
2025-10-18T12:00	1960	807	7.2	-18.5	73	0	
2025-10-18T12:00	1980	805	7.2	-20.3	61	1	
2025-10-18T12:00	2000	804	7.4	-20.9	56	1	
2025-10-18T12:00	2020	802	7.4	-21.2	56	1	
2025-10-18T12:00	2040	800	7.2	-21.2	61	1	
2025-10-18T12:00	2060	798	7.1	-20.7	71	1	
2025-10-18T12:00	2080	796	7.0	-19.6	81	1	
2025-10-18T12:00	2100	794	6.8	-17.2	91	1	
2025-10-18T12:00	2120	792	6.7	-16.6	97	1	
2025-10-18T12:00	2140	790	6.6	-17.0	96	1	
2025-10-18T12:00	2160	788	6.4	-17.7	93	1	
2025-10-18T12:00	2180	786	6.4	-19.1	89	1	
2025-10-18T12:00	2200	784	6.3	-20.3	85	1	
2025-10-18T12:00	2220	782	6.3	-22.5	80	2	
2025-10-18T12:00	2240	780	6.2	-24.7	76	2	
2025-10-18T12:00	2260	778	6.1	-25.5	73	2	
2025-10-18T12:00	2280	776	6.1	-27.0	70	2	
2025-10-18T12:00	2300	775	6.3	-27.8	68	2	
2025-10-18T12:00	2320	773	6.2	-24.5	66	2	
2025-10-18T12:00	2340	771	6.0	-23.9	64	2	
2025-10-18T12:00	2360	769	5.8	-22.9	63	2	
2025-10-18T12:00	2380	767	5.7	-21.8	62	2	
2025-10-18T12:00	2400	765	5.6	-22.1	60	2	
2025-10-18T12:00	2420	763	5.6	-22.3	58	2	
2025-10-18T12:00	2440	762	5.5	-23.0	56	2	
2025-10-18T12:00	2460	760	5.3	-25.6	53	2	
2025-10-18T12:00	2480	758	5.2	-29.1	51	2	
2025-10-18T12:00	2500	756	5.1	-31.5	48	3	
2025-10-18T12:00	2520	754	5.0	-32.8	45	2	
2025-10-18T12:00	2540	752	4.9	-32.7	43	2	
2025-10-18T12:00	2560	750	4.7	-33.0	40	2	
2025-10-18T12:00	2580	748	4.6	-32.9	37	2	
2025-10-18T12:00	2600	747	4.4	-32.8	35	2	
2025-10-18T12:00	2620	745	4.2	-32.2	33	2	
2025-10-18T12:00	2640	743	4.1	-30.9	32	2	
2025-10-18T12:00	2660	741	4.0	-32.6	31	2	
2025-10-18T12:00	2680	739	3.8	-32.3	29	3	
2025-10-18T12:00	2700	737	3.6	-32.1	28	3	
2025-10-18T12:00	2720	736	3.4	-32.2	26	3	
2025-10-18T12:00	2740	734	3.3	-32.7	25	3	
2025-10-18T12:00	2760	732	3.1	-32.8	24	3	
2025-10-18T12:00	2780	730	2.9	-33.2	23	3	
2025-10-18T12:00	2800	728	2.8	-34.1	23	3	
2025-10-18T12:00	2820	727	2.6	-34.3	23	3	
2025-10-18T12:00	2840	725	2.4	-34.0	24	3	
2025-10-18T12:00	2860	723	2.3	-33.3	25	3	
2025-10-18T12:00	2880	721	2.1	-33.1	26	3	
2025-10-18T12:00	2900	719	2.0	-33.4	27	3	
2025-10-18T12:00	2920	718	1.8	-31.4	28	3	
2025-10-18T12:00	2940	716	1.7	-30.4	28	3	
2025-10-18T12:00	2960	714	1.5	-29.1	28	3	
2025-10-18T12:00	2980	712	1.4	-27.4	27	3	
2025-10-18T12:00	3000	711	1.2	-24.6	26	3	
2025-10-18T12:00	3020	709	1.0	-23.7	25	4	
2025-10-18T12:00	3040	707	0.8	-23.1	24	4	
2025-10-18T12:00	3060	705	0.7	-23.3	23	4	
2025-10-18T12:00	3080	704	0.5	-23.5	23	4	
2025-10-18T12:00	3100	702	0.4	-23.8	23	4	
2025-10-18T12:00	3120	700	0.3	-25.4	23	4	
2025-10-18T12:00	3140	698	0.1	-25.7	23	4	
2025-10-18T12:00	3160	697	-0.1	-26.6	22	3	
2025-10-18T12:00	3180	695	-0.2	-26.8	21	3	
2025-10-18T12:00	3200	693	-0.4	-27.1	19	3	
2025-10-18T12:00	3220	691	-0.6	-26.7	17	3	
2025-10-18T12:00	3240	690	-0.7	-23.6	15	3	
2025-10-18T12:00	3260	688	-0.9	-22.7	13	3	
2025-10-18T12:00	3280	686	-0.9	-23.2	12	3	
2025-10-18T12:00	3300	684	-1.0	-21.8	11	3	
2025-10-18T12:00	3320	683	-1.2	-21.5	11	3	
2025-10-18T12:00	3340	681	-1.3	-21.8	11	3	
2025-10-18T12:00	3360	679	-1.4	-22.1	12	3	
2025-10-18T12:00	3380	678	-1.5	-22.5	13	3	
2025-10-18T12:00	3400	676	-1.7	-22.7	14	3	
2025-10-18T12:00	3420	674	-1.8	-23.4	15	3	
2025-10-18T12:00	3440	673	-1.9	-24.7	17	3	
2025-10-18T12:00	3460	671	-2.0	-25.1	18	3	
2025-10-18T12:00	3480	669	-2.1	-24.9	18	3	
2025-10-18T12:00	3500	668	-2.3	-23.5	18	3	
2025-10-18T12:00	3520	666	-2.5	-23.0	19	3	
2025-10-18T12:00	3540	664	-2.7	-23.1	19	3	
2025-10-18T12:00	3560	662	-2.8	-23.4	19	3	
2025-10-18T12:00	3580	661	-2.9	-23.8	20	4	
2025-10-18T12:00	3600	659	-3.1	-24.5	20	4	
2025-10-18T12:00	3620	657	-3.2	-24.4	19	4	
2025-10-18T12:00	3640	656	-3.4	-24.0	19	4	
2025-10-18T12:00	3660	654	-3.6	-24.5	19	4	
2025-10-18T12:00	3680	653	-3.7	-24.7	18	4	
2025-10-18T12:00	3700	651	-3.8	-25.9	17	4	
2025-10-18T12:00	3720	649	-3.8	-27.2	17	4	
2025-10-18T12:00	3740	647	-4.0	-27.3	17	4	
2025-10-18T12:00	3760	646	-4.1	-27.3	16	4	
2025-10-18T12:00	3780	644	-4.3	-27.4	15	4	
2025-10-18T12:00	3800	643	-4.4	-27.4	14	5	
2025-10-18T12:00	3820	641	-4.6	-27.5	12	5	
2025-10-18T12:00	3840	639	-4.8	-27.7	10	5	
2025-10-18T12:00	3860	638	-4.9	-28.0	8	5	
2025-10-18T12:00	3880	636	-5.1	-28.0	6	5	
2025-10-18T12:00	3900	634	-5.2	-27.8	6	5	
2025-10-18T12:00	3920	633	-5.4	-27.9	6	5	
2025-10-18T12:00	3940	631	-5.6	-28.1	7	5	
2025-10-18T12:00	3960	630	-5.7	-28.3	8	5	
2025-10-18T12:00	3980	628	-5.8	-29.5	9	4	
2025-10-18T12:00	4000	626	-5.8	-30.7	10	4	
2025-10-18T12:00	4020	625	-5.9	-31.3	11	4	
2025-10-18T12:00	4040	623	-6.0	-31.7	11	4	
2025-10-18T12:00	4060	622	-6.2	-31.8	11	4	
2025-10-18T12:00	4080	620	-6.3	-32.1	11	4	
2025-10-18T12:00	4100	618	-6.3	-32.6	10	4	
2025-10-18T12:00	4120	617	-6.5	-32.8	8	4	
2025-10-18T12:00	4140	615	-6.6	-33.2	7	5	
2025-10-18T12:00	4160	614	-6.6	-33.8	6	5	
2025-10-18T12:00	4180	612	-6.7	-34.3	5	5	
2025-10-18T12:00	4200	611	-6.8	-35.2	4	5	
2025-10-18T12:00	4220	609	-6.8	-36.4	4	5	
2025-10-18T12:00	4240	607	-6.8	-37.0	4	5	
2025-10-18T12:00	4260	606	-6.8	-36.7	5	5	
2025-10-18T12:00	4280	604	-7.0	-36.4	6	5	
2025-10-18T12:00	4300	603	-7.1	-35.8	6	5	
2025-10-18T12:00	4320	601	-7.3	-35.1	7	5	
2025-10-18T12:00	4340	600	-7.4	-35.3	7	5	
2025-10-18T12:00	4360	598	-7.6	-35.8	7	6	
2025-10-18T12:00	4380	596	-7.7	-35.6	7	6	
2025-10-18T12:00	4400	595	-7.8	-35.0	6	6	
2025-10-18T12:00	4420	593	-8.0	-35.1	6	5	
2025-10-18T12:00	4440	592	-8.1	-33.4	5	5	
2025-10-18T12:00	4460	590	-8.3	-32.4	4	5	
2025-10-18T12:00	4480	589	-8.5	-32.6	4	5	
2025-10-18T12:00	4500	587	-8.7	-32.6	4	5	
2025-10-18T12:00	4520	586	-8.8	-32.5	5	5	
2025-10-18T12:00	4540	584	-9.0	-32.9	6	5	
2025-10-18T12:00	4560	583	-9.2	-33.4	7	5	
2025-10-18T12:00	4580	582	-9.3	-33.4	8	5	
2025-10-18T12:00	4600	580	-9.5	-33.4	9	5	
2025-10-18T12:00	4620	578	-9.7	-33.4	9	5	
2025-10-18T12:00	4640	577	-9.9	-33.4	7	5	
2025-10-18T12:00	4660	575	-10.1	-33.3	5	6	
2025-10-18T12:00	4680	574	-10.3	-33.3	2	6	
2025-10-18T12:00	4700	573	-10.4	-33.3	359	6	
2025-10-18T12:00	4720	571	-10.6	-32.6	356	6	
2025-10-18T12:00	4740	569	-10.8	-32.5	354	7	
2025-10-18T12:00	4760	568	-10.9	-32.4	352	7	
2025-10-18T12:00	4780	566	-11.1	-32.6	352	7	
2025-10-18T12:00	4800	565	-11.2	-33.4	353	7	
2025-10-18T12:00	4820	563	-11.2	-34.8	354	7	
2025-10-18T12:00	4840	562	-11.4	-35.8	357	6	
2025-10-18T12:00	4860	561	-11.5	-37.1	360	6	
2025-10-18T12:00	4880	559	-11.6	-38.3	4	6	
2025-10-18T12:00	4900	558	-11.7	-38.2	7	6	
2025-10-18T12:00	4920	556	-11.8	-37.5	9	6	
2025-10-18T12:00	4940	555	-11.9	-36.2	9	6	
2025-10-18T12:00	4960	553	-12.0	-37.0	10	7	
2025-10-18T12:00	4980	552	-12.0	-39.8	10	7	
2025-10-18T12:00	5000	551	-12.1	-42.1	9	8	
2025-10-18T12:00	5020	549	-12.2	-42.1	8	9	
2025-10-18T12:00	5040	548	-12.3	-41.8	7	9	
2025-10-18T12:00	5060	546	-12.4	-41.4	7	10	
2025-10-18T12:00	5080	545	-12.5	-40.8	6	10	
2025-10-18T12:00	5100	543	-12.6	-40.2	5	10	
2025-10-18T12:00	5120	542	-12.7	-37.6	4	10	
2025-10-18T12:00	5140	540	-12.7	-36.9	2	10	
2025-10-18T12:00	5160	539	-12.9	-35.9	1	10	
2025-10-18T12:00	5180	538	-13.0	-34.3	360	10	
2025-10-18T12:00	5200	536	-13.2	-33.0	358	10	
2025-10-18T12:00	5220	535	-13.3	-32.1	358	10	
2025-10-18T12:00	5240	533	-13.5	-32.0	357	10	
2025-10-18T12:00	5260	532	-13.7	-31.6	358	10	
2025-10-18T12:00	5280	531	-13.9	-31.5	359	9	
2025-10-18T12:00	5300	529	-14.1	-31.2	0	9	
2025-10-18T12:00	5320	528	-14.2	-30.7	2	9	
2025-10-18T12:00	5340	526	-14.3	-30.3	5	9	
2025-10-18T12:00	5360	525	-14.2	-31.0	6	9	
2025-10-18T12:00	5380	524	-14.3	-30.4	8	9	
2025-10-18T12:00	5400	522	-14.4	-30.1	8	9	
2025-10-18T12:00	5420	521	-14.6	-30.3	8	10	
2025-10-18T12:00	5440	519	-14.7	-31.5	7	10	
2025-10-18T12:00	5460	518	-14.7	-35.1	6	10	
2025-10-18T12:00	5480	517	-14.7	-38.7	5	10	
2025-10-18T12:00	5500	515	-14.8	-40.4	5	11	
2025-10-18T12:00	5520	514	-14.9	-42.2	4	11	
2025-10-18T12:00	5540	513	-15.0	-41.5	3	11	
2025-10-18T12:00	5560	511	-15.2	-40.4	2	11	
2025-10-18T12:00	5580	510	-15.3	-40.0	2	11	
2025-10-18T12:00	5600	509	-15.5	-40.0	2	11	
2025-10-18T12:00	5620	507	-15.6	-40.2	1	11	
2025-10-18T12:00	5640	506	-15.8	-39.9	1	11	
2025-10-18T12:00	5660	505	-15.9	-39.6	1	11	
2025-10-18T12:00	5680	503	-16.0	-39.2	360	11	
2025-10-18T12:00	5700	502	-16.2	-39.5	358	11	
2025-10-18T12:00	5720	500	-16.3	-40.8	356	11	
2025-10-18T12:00	5740	499	-16.5	-42.9	355	11	
2025-10-18T12:00	5760	498	-16.6	-44.1	354	11	
2025-10-18T12:00	5780	497	-16.8	-44.2	354	11	
2025-10-18T12:00	5800	495	-16.9	-43.5	355	11	
2025-10-18T12:00	5820	494	-17.1	-43.7	357	11	
2025-10-18T12:00	5840	493	-17.2	-45.9	358	11	
2025-10-18T12:00	5860	491	-17.2	-45.2	359	11	
2025-10-18T12:00	5880	490	-17.4	-42.8	358	11	
2025-10-18T12:00	5900	489	-17.6	-42.3	358	11	
2025-10-18T12:00	5920	487	-17.7	-42.4	356	11	
2025-10-18T12:00	5940	486	-17.9	-42.6	356	11	
2025-10-18T12:00	5960	485	-18.1	-42.6	356	11	
2025-10-18T12:00	5980	483	-18.3	-42.8	357	12	
2025-10-18T12:00	6000	482	-18.5	-43.0	358	12	
2025-10-18T12:00	6020	481	-18.7	-43.4	360	12	
2025-10-18T12:00	6040	480	-18.9	-43.7	1	13	
2025-10-18T12:00	6060	478	-19.0	-44.0	1	13	
2025-10-18T12:00	6080	477	-19.2	-45.3	2	13	
2025-10-18T12:00	6100	476	-19.2	-46.8	2	13	
2025-10-18T12:00	6120	475	-19.3	-46.5	2	12	
2025-10-18T12:00	6140	473	-19.5	-46.4	3	12	
2025-10-18T12:00	6160	472	-19.6	-46.6	3	12	
2025-10-18T12:00	6180	471	-19.6	-45.7	4	12	
2025-10-18T12:00	6200	469	-19.8	-44.6	4	12	
2025-10-18T12:00	6220	468	-19.9	-44.3	4	12	
2025-10-18T12:00	6240	467	-20.1	-44.3	2	12	
2025-10-18T12:00	6260	466	-20.3	-44.2	359	12	
2025-10-18T12:00	6280	465	-20.6	-43.9	356	12	
2025-10-18T12:00	6300	463	-20.8	-44.1	354	12	
2025-10-18T12:00	6320	462	-20.9	-44.4	352	12	
2025-10-18T12:00	6340	461	-21.1	-44.0	351	12	
2025-10-18T12:00	6360	459	-21.3	-44.2	350	12	
2025-10-18T12:00	6380	458	-21.5	-44.4	350	12	
2025-10-18T12:00	6400	457	-21.6	-44.5	349	12	
2025-10-18T12:00	6420	456	-21.9	-44.6	348	12	
2025-10-18T12:00	6440	454	-22.0	-44.8	348	11	
2025-10-18T12:00	6460	453	-22.2	-44.8	348	11	
2025-10-18T12:00	6480	452	-22.4	-45.0	348	11	
2025-10-18T12:00	6500	451	-22.5	-45.8	348	11	
2025-10-18T12:00	6520	449	-22.7	-46.2	348	11	
2025-10-18T12:00	6540	448	-22.8	-46.4	348	11	
2025-10-18T12:00	6560	447	-23.0	-46.7	349	11	
2025-10-18T12:00	6580	446	-23.1	-46.6	349	12	
2025-10-18T12:00	6600	444	-23.3	-46.7	349	12	
2025-10-18T12:00	6620	443	-23.5	-46.8	349	12	
2025-10-18T12:00	6640	442	-23.6	-46.9	349	12	
2025-10-18T12:00	6660	441	-23.8	-47.1	349	12	
2025-10-18T12:00	6680	440	-23.9	-47.0	349	12	
2025-10-18T12:00	6700	439	-24.1	-46.8	349	12	
2025-10-18T12:00	6720	437	-24.3	-46.6	349	12	
2025-10-18T12:00	6740	436	-24.5	-46.7	350	12	
2025-10-18T12:00	6760	435	-24.7	-46.4	350	12	
2025-10-18T12:00	6780	434	-24.9	-46.4	351	12	
2025-10-18T12:00	6800	433	-25.0	-46.7	351	12	
2025-10-18T12:00	6820	431	-25.2	-46.6	351	12	
2025-10-18T12:00	6840	430	-25.4	-46.2	352	12	
2025-10-18T12:00	6860	429	-25.6	-46.0	352	12	
2025-10-18T12:00	6880	428	-25.7	-45.9	352	12	
2025-10-18T12:00	6900	427	-25.9	-46.7	352	12	
2025-10-18T12:00	6920	426	-26.0	-47.4	351	12	
2025-10-18T12:00	6940	424	-26.1	-47.1	351	12	
2025-10-18T12:00	6960	423	-26.2	-47.3	351	12	
2025-10-18T12:00	6980	422	-26.4	-47.1	350	12	
2025-10-18T12:00	7000	421	-26.6	-47.3	350	12	
2025-10-18T12:00	7020	420	-26.7	-47.2	349	12	
2025-10-18T12:00	7040	419	-26.9	-47.4	348	12	
2025-10-18T12:00	7060	417	-27.1	-47.8	348	12	
2025-10-18T12:00	7080	416	-27.2	-48.4	347	12	
2025-10-18T12:00	7100	415	-27.4	-48.4	346	12	
2025-10-18T12:00	7120	414	-27.6	-48.2	346	12	
2025-10-18T12:00	7140	413	-27.7	-48.2	346	12	
2025-10-18T12:00	7160	412	-27.9	-48.3	346	12	
2025-10-18T12:00	7180	410	-28.1	-48.5	346	12	
2025-10-18T12:00	7200	409	-28.3	-48.5	346	12	
2025-10-18T12:00	7220	408	-28.5	-48.5	346	12	
2025-10-18T12:00	7240	407	-28.6	-48.5	347	12	
2025-10-18T12:00	7260	406	-28.8	-48.6	347	12	
2025-10-18T12:00	7280	405	-28.9	-48.7	347	12	
2025-10-18T12:00	7300	403	-29.1	-49.1	348	13	
2025-10-18T12:00	7320	402	-29.2	-49.2	348	13	
2025-10-18T12:00	7340	401	-29.4	-49.4	349	13	
2025-10-18T12:00	7360	400	-29.5	-49.6	350	13	
2025-10-18T12:00	7380	399	-29.7	-49.7	350	13	
2025-10-18T12:00	7400	398	-29.8	-49.9	351	13	
2025-10-18T12:00	7420	397	-29.9	-50.0	351	13	
2025-10-18T12:00	7440	396	-30.1	-49.7	351	13	
2025-10-18T12:00	7460	394	-30.3	-49.6	351	13	
2025-10-18T12:00	7480	393	-30.5	-49.5	351	13	
2025-10-18T12:00	7500	392	-30.6	-49.7	352	13	
2025-10-18T12:00	7520	391	-30.7	-50.2	352	13	
2025-10-18T12:00	7540	390	-30.9	-50.5	352	13	
2025-10-18T12:00	7560	389	-31.1	-50.3	352	13	
2025-10-18T12:00	7580	388	-31.3	-50.3	352	13	
2025-10-18T12:00	7600	387	-31.5	-50.4	352	13	
2025-10-18T12:00	7620	386	-31.6	-50.7	352	13	
2025-10-18T12:00	7640	385	-31.8	-50.8	352	13	
2025-10-18T12:00	7660	384	-32.0	-50.8	352	14	
2025-10-18T12:00	7680	383	-32.1	-50.8	352	14	
2025-10-18T12:00	7700	381	-32.2	-51.8	352	14	
2025-10-18T12:00	7720	380	-32.4	-52.1	351	14	
2025-10-18T12:00	7740	379	-32.6	-52.1	351	14	
2025-10-18T12:00	7760	378	-32.7	-52.3	350	14	
2025-10-18T12:00	7780	377	-32.9	-52.7	349	14	
2025-10-18T12:00	7800	376	-33.0	-53.2	349	14	
2025-10-18T12:00	7820	375	-33.2	-53.1	349	14	
2025-10-18T12:00	7840	374	-33.3	-53.2	348	14	
2025-10-18T12:00	7860	373	-33.4	-53.4	348	14	
2025-10-18T12:00	7880	372	-33.5	-54.2	348	14	
2025-10-18T12:00	7900	371	-33.7	-53.6	347	14	
2025-10-18T12:00	7920	370	-33.9	-53.0	347	14	
2025-10-18T12:00	7940	369	-34.0	-53.0	347	14	
2025-10-18T12:00	7960	368	-34.2	-52.9	347	14	
2025-10-18T12:00	7980	366	-34.3	-52.8	347	13	
2025-10-18T12:00	8000	365	-34.5	-52.2	348	13	
2025-10-18T12:00	8020	364	-34.6	-52.3	349	13	
2025-10-18T12:00	8040	363	-34.8	-52.7	350	13	
2025-10-18T12:00	8060	362	-34.9	-53.6	351	13	
2025-10-18T12:00	8080	361	-35.0	-54.5	351	13	
2025-10-18T12:00	8100	360	-35.2	-54.6	352	13	
2025-10-18T12:00	8120	359	-35.3	-54.7	351	13	
2025-10-18T12:00	8140	358	-35.4	-54.1	351	14	
2025-10-18T12:00	8160	357	-35.5	-53.9	351	14	
2025-10-18T12:00	8180	356	-35.7	-53.7	350	14	
2025-10-18T12:00	8200	355	-35.9	-53.3	350	14	
2025-10-18T12:00	8220	354	-36.0	-53.4	350	14	
2025-10-18T12:00	8240	353	-36.2	-54.3	350	14	
2025-10-18T12:00	8260	352	-36.3	-55.1	350	14	
2025-10-18T12:00	8280	351	-36.4	-55.7	351	14	
2025-10-18T12:00	8300	350	-36.5	-55.8	351	13	
2025-10-18T12:00	8320	349	-36.7	-55.6	351	13	
2025-10-18T12:00	8340	348	-36.9	-55.5	352	13	
2025-10-18T12:00	8360	347	-37.0	-55.6	352	13	
2025-10-18T12:00	8380	346	-37.2	-56.0	351	13	
2025-10-18T12:00	8400	345	-37.4	-55.8	350	13	
2025-10-18T12:00	8420	344	-37.6	-54.9	349	13	
2025-10-18T12:00	8440	343	-37.7	-52.3	348	13	
2025-10-18T12:00	8460	342	-37.9	-51.6	347	14	
2025-10-18T12:00	8480	341	-38.1	-51.3	346	14	
2025-10-18T12:00	8500	340	-38.2	-51.5	346	14	
2025-10-18T12:00	8520	339	-38.4	-51.8	345	14	
2025-10-18T12:00	8540	338	-38.5	-52.0	345	14	
2025-10-18T12:00	8560	337	-38.7	-52.2	344	14	
2025-10-18T12:00	8580	336	-38.8	-52.4	344	14	
2025-10-18T12:00	8600	335	-39.0	-52.5	345	14	
2025-10-18T12:00	8620	334	-39.1	-52.7	345	14	
2025-10-18T12:00	8640	333	-39.3	-52.5	345	14	
2025-10-18T12:00	8660	332	-39.4	-52.5	346	14	
2025-10-18T12:00	8680	331	-39.6	-52.7	346	14	
2025-10-18T12:00	8700	330	-39.7	-53.2	347	14	
2025-10-18T12:00	8720	329	-39.8	-53.1	347	14	
2025-10-18T12:00	8740	328	-40.0	-53.4	347	14	
2025-10-18T12:00	8760	327	-40.2	-53.7	348	14	
2025-10-18T12:00	8780	326	-40.4	-54.0	348	14	
2025-10-18T12:00	8800	325	-40.5	-54.3	348	14	
2025-10-18T12:00	8820	325	-40.6	-54.2	349	14	
2025-10-18T12:00	8840	324	-40.8	-53.9	348	14	
2025-10-18T12:00	8860	323	-41.0	-54.0	348	14	
2025-10-18T12:00	8880	322	-41.2	-54.1	348	14	
2025-10-18T12:00	8900	321	-41.4	-54.5	347	14	
2025-10-18T12:00	8920	320	-41.5	-55.3	347	14	
2025-10-18T12:00	8940	319	-41.7	-56.5	346	14	
2025-10-18T12:00	8960	318	-41.9	-57.5	345	14	
2025-10-18T12:00	8980	317	-42.0	-57.9	345	14	
2025-10-18T12:00	9000	316	-42.1	-58.2	344	14	
2025-10-18T12:00	9020	315	-42.3	-58.2	344	14	
2025-10-18T12:00	9040	314	-42.4	-58.2	343	14	
2025-10-18T12:00	9060	313	-42.5	-58.3	343	14	
2025-10-18T12:00	9080	312	-42.7	-58.8	343	14	
2025-10-18T12:00	9100	311	-42.7	-60.4	343	14	
2025-10-18T12:00	9120	310	-42.8	-61.5	343	14	
2025-10-18T12:00	9140	310	-43.0	-61.5	343	14	
2025-10-18T12:00	9160	309	-43.2	-61.7	344	14	
2025-10-18T12:00	9180	308	-43.4	-61.9	344	14	
2025-10-18T12:00	9200	307	-43.5	-61.8	344	14	
2025-10-18T12:00	9220	306	-43.7	-61.7	345	14	
2025-10-18T12:00	9240	305	-43.9	-61.7	345	14	
2025-10-18T12:00	9260	304	-44.0	-61.8	345	14	
2025-10-18T12:00	9280	303	-44.2	-61.9	345	14	
2025-10-18T12:00	9300	302	-44.4	-61.9	345	14	
2025-10-18T12:00	9320	301	-44.5	-62.0	346	14	
2025-10-18T12:00	9340	301	-44.6	-62.4	346	14	
2025-10-18T12:00	9360	300	-44.8	-62.5	346	15	
2025-10-18T12:00	9380	299	-44.9	-62.9	345	15	
2025-10-18T12:00	9400	298	-45.0	-63.4	345	15	
2025-10-18T12:00	9420	297	-45.2	-63.4	345	15	
2025-10-18T12:00	9440	296	-45.3	-63.1	344	15	
2025-10-18T12:00	9460	295	-45.5	-63.1	344	15	
2025-10-18T12:00	9480	294	-45.7	-63.3	343	15	
2025-10-18T12:00	9500	293	-45.8	-63.3	343	15	
2025-10-18T12:00	9520	292	-46.0	-63.2	343	15	
2025-10-18T12:00	9540	292	-46.2	-63.2	343	15	
2025-10-18T12:00	9560	291	-46.3	-63.4	344	15	
2025-10-18T12:00	9580	290	-46.5	-63.4	344	15	
2025-10-18T12:00	9600	289	-46.7	-63.4	344	15	
2025-10-18T12:00	9620	288	-46.8	-63.4	345	16	
2025-10-18T12:00	9640	287	-47.0	-63.0	345	16	
2025-10-18T12:00	9660	286	-47.1	-62.5	345	16	
2025-10-18T12:00	9680	285	-47.3	-62.3	345	16	
2025-10-18T12:00	9700	285	-47.5	-62.1	346	16	
2025-10-18T12:00	9720	284	-47.6	-61.9	346	16	
2025-10-18T12:00	9740	283	-47.7	-61.5	346	16	
2025-10-18T12:00	9760	282	-47.9	-60.9	346	15	
2025-10-18T12:00	9780	281	-48.0	-60.5	346	15	
2025-10-18T12:00	9800	280	-48.2	-60.5	347	15	
2025-10-18T12:00	9820	279	-48.4	-60.6	347	15	
2025-10-18T12:00	9840	279	-48.6	-60.7	347	15	
2025-10-18T12:00	9860	278	-48.8	-60.9	347	15	
2025-10-18T12:00	9880	277	-49.0	-61.0	347	16	
2025-10-18T12:00	9900	276	-49.1	-60.9	347	16	
2025-10-18T12:00	9920	275	-49.3	-60.9	347	16	
2025-10-18T12:00	9940	274	-49.4	-60.9	347	16	
2025-10-18T12:00	9960	274	-49.6	-61.2	348	16	
2025-10-18T12:00	9980	273	-49.8	-61.5	348	17	
2025-10-18T12:00	10000	272	-49.9	-61.8	348	17	
2025-10-18T12:00	10018	271	-50.1	-62.1	348	17	
2025-10-18T12:00	10050	270	-50.4	-62.5	348	17	
2025-10-18T12:00	10100	268	-50.8	-62.6	349	17	
2025-10-18T12:00	10150	266	-51.1	-62.5	349	17	
2025-10-18T12:00	10200	264	-51.5	-61.9	350	18	
2025-10-18T12:00	10250	262	-51.9	-61.4	351	19	
2025-10-18T12:00	10300	260	-52.4	-61.3	351	19	
2025-10-18T12:00	10350	258	-52.8	-61.4	352	20	
2025-10-18T12:00	10400	256	-53.1	-61.7	354	21	
2025-10-18T12:00	10450	254	-53.2	-62.0	355	22	
2025-10-18T12:00	10500	252	-53.5	-61.2	356	23	
2025-10-18T12:00	10550	250	-53.8	-61.6	356	23	
2025-10-18T12:00	10600	248	-54.1	-62.3	357	23	
2025-10-18T12:00	10650	246	-54.5	-62.8	357	23	
2025-10-18T12:00	10700	244	-54.8	-63.1	357	23	
2025-10-18T12:00	10750	242	-55.1	-63.6	358	23	
2025-10-18T12:00	10800	240	-55.5	-63.8	358	23	
2025-10-18T12:00	10850	238	-55.9	-63.6	358	23	
2025-10-18T12:00	10900	237	-56.3	-63.6	359	22	
2025-10-18T12:00	10950	235	-56.6	-63.8	359	22	
2025-10-18T12:00	11000	233	-57.0	-64.2	358	22	
2025-10-18T12:00	11050	231	-57.4	-64.7	358	22	
2025-10-18T12:00	11100	229	-57.7	-65.3	359	23	
2025-10-18T12:00	11150	227	-58.2	-65.4	359	22	
2025-10-18T12:00	11200	225	-58.5	-65.3	359	22	
2025-10-18T12:00	11250	224	-58.8	-64.9	359	21	
2025-10-18T12:00	11300	222	-59.2	-64.9	358	21	
2025-10-18T12:00	11350	220	-59.6	-65.0	358	21	
2025-10-18T12:00	11400	218	-59.9	-65.3	358	21	
2025-10-18T12:00	11450	217	-60.2	-65.8	358	20	
2025-10-18T12:00	11500	215	-60.6	-66.2	358	19	
2025-10-18T12:00	11550	213	-60.8	-67.1	357	18	
2025-10-18T12:00	11600	211	-60.8	-68.8	356	17	
2025-10-18T12:00	11650	210	-61.0	-70.4	354	17	
2025-10-18T12:00	11700	208	-61.2	-70.0	351	16	
2025-10-18T12:00	11750	206	-61.4	-69.2	348	16	
2025-10-18T12:00	11800	205	-61.7	-68.8	346	15	
2025-10-18T12:00	11850	203	-61.8	-68.8	345	15	
2025-10-18T12:00	11900	201	-62.0	-69.1	346	15	
2025-10-18T12:00	11950	200	-61.9	-69.4	348	15	
2025-10-18T12:00	12000	198	-62.1	-70.0	351	16	
2025-10-18T12:00	12050	197	-62.0	-70.4	353	17	
2025-10-18T12:00	12100	195	-61.9	-71.1	353	17	
2025-10-18T12:00	12150	193	-61.7	-71.7	353	17	
2025-10-18T12:00	12200	192	-61.7	-72.5	352	16	
2025-10-18T12:00	12250	190	-61.9	-73.0	351	16	
2025-10-18T12:00	12300	189	-61.8	-73.5	348	16	
2025-10-18T12:00	12350	187	-61.8	-74.2	345	16	
2025-10-18T12:00	12400	186	-61.9	-74.4	343	16	
2025-10-18T12:00	12450	184	-61.9	-74.9	341	16	
2025-10-18T12:00	12500	183	-61.2	-75.3	340	15	
2025-10-18T12:00	12550	181	-60.2	-76.1	339	14	
2025-10-18T12:00	12600	180	-59.7	-76.4	338	13	
2025-10-18T12:00	12650	179	-60.0	-76.7	339	13	
2025-10-18T12:00	12700	177	-60.2	-76.9	341	13	
2025-10-18T12:00	12750	176	-60.3	-77.1	342	13	
2025-10-18T12:00	12800	174	-60.3	-77.5	341	13	
2025-10-18T12:00	12850	173	-60.3	-77.7	339	13	
2025-10-18T12:00	12900	172	-60.5	-77.8	337	13	
2025-10-18T12:00	12950	170	-60.7	-78.2	336	13	
2025-10-18T12:00	13000	169	-60.3	-78.5	335	13	
2025-10-18T12:00	13050	167	-60.2	-79.0	333	13	
2025-10-18T12:00	13100	166	-60.1	-79.3	331	13	
2025-10-18T12:00	13150	165	-60.0	-79.9	331	13	
2025-10-18T12:00	13200	163	-59.7	-80.4	331	13	
2025-10-18T12:00	13250	162	-59.7	-81.0	330	13	
2025-10-18T12:00	13300	161	-59.5	-81.1	330	14	
2025-10-18T12:00	13350	160	-59.3	-81.2	330	14	
2025-10-18T12:00	13400	158	-59.2	-81.4	331	13	
2025-10-18T12:00	13450	157	-59.1	-81.4	329	12	
2025-10-18T12:00	13500	156	-59.0	-81.6	326	11	
2025-10-18T12:00	13550	155	-58.8	-81.8	321	11	
2025-10-18T12:00	13600	153	-58.7	-81.8	316	12	
2025-10-18T12:00	13650	152	-58.7	-81.9	314	13	
2025-10-18T12:00	13700	151	-58.9	-82.0	313	13	
2025-10-18T12:00	13750	150	-58.9	-82.0	312	13	
2025-10-18T12:00	13800	149	-58.9	-82.0	314	12	
2025-10-18T12:00	13850	147	-58.9	-82.0	318	12	
2025-10-18T12:00	13900	146	-59.1	-82.2	321	12	
2025-10-18T12:00	13950	145	-58.9	-82.4	322	12	
2025-10-18T12:00	14000	144	-58.5	-82.6	323	12	
2025-10-18T12:00	14050	143	-58.6	-83.0	324	11	
2025-10-18T12:00	14100	142	-58.7	-83.1	325	11	
2025-10-18T12:00	14150	140	-58.7	-83.0	324	11	
2025-10-18T12:00	14200	139	-58.9	-83.0	321	11	
2025-10-18T12:00	14250	138	-59.1	-83.0	317	11	
2025-10-18T12:00	14300	137	-59.3	-83.0	313	11	
2025-10-18T12:00	14350	136	-59.6	-83.1	309	12	
2025-10-18T12:00	14400	135	-59.9	-83.2	304	11	
2025-10-18T12:00	14450	134	-60.0	-83.2	301	11	
2025-10-18T12:00	14500	133	-60.3	-83.3	302	11	
2025-10-18T12:00	14550	132	-60.3	-83.4	305	11	
2025-10-18T12:00	14600	131	-60.5	-83.6	308	12	
2025-10-18T12:00	14650	130	-60.5	-83.7	307	13	
2025-10-18T12:00	14700	129	-60.2	-83.6	306	15	
2025-10-18T12:00	14750	128	-60.4	-83.8	306	16	
2025-10-18T12:00	14800	127	-60.5	-83.8	308	16	
2025-10-18T12:00	14850	126	-60.6	-83.8	312	15	
2025-10-18T12:00	14900	125	-60.8	-83.9	317	14	
2025-10-18T12:00	14950	124	-61.0	-84.0	323	13	
2025-10-18T12:00	15000	123	-60.9	-84.0	326	12	
2025-10-18T12:00	15050	122	-60.7	-83.9	327	11	
2025-10-18T12:00	15100	121	-60.7	-83.9	328	11	
2025-10-18T12:00	15150	120	-60.9	-83.9	330	10	
2025-10-18T12:00	15200	119	-60.8	-83.8	331	11	
2025-10-18T12:00	15250	118	-61.0	-83.8	332	11	
2025-10-18T12:00	15300	117	-61.0	-83.7	334	11	
2025-10-18T12:00	15350	116	-61.1	-83.7	335	10	
2025-10-18T12:00	15400	115	-61.1	-83.8	334	9	
2025-10-18T12:00	15450	114	-61.1	-83.8	332	9	
2025-10-18T12:00	15500	113	-61.3	-83.9	330	9	
2025-10-18T12:00	15550	112	-61.5	-84.0	330	9	
2025-10-18T12:00	15600	111	-61.6	-84.2	329	9	
2025-10-18T12:00	15650	110	-61.6	-84.3	329	9	
2025-10-18T12:00	15700	110	-61.7	-84.4	331	10	
2025-10-18T12:00	15750	109	-61.9	-84.4	334	10	
2025-10-18T12:00	15800	108	-62.0	-84.5	338	10	
2025-10-18T12:00	15850	107	-62.1	-84.6	338	9	
2025-10-18T12:00	15900	106	-62.2	-84.6	334	8	
2025-10-18T12:00	15950	105	-62.2	-84.6	327	8	
2025-10-18T12:00	16000	104	-62.2	-84.5	320	7	
2025-10-18T12:00	16050	103	-62.5	-84.7	313	7	
2025-10-18T12:00	16100	103	-62.6	-84.7	307	7	
2025-10-18T12:00	16150	102	-62.9	-84.9	307	8	
2025-10-18T12:00	16200	101	-63.0	-85.1	310	9	
2025-10-18T12:00	16250	100	-62.9	-85.3	311	10	
2025-10-18T12:00	16300	99	-62.6	-85.3	311	10	
2025-10-18T12:00	16350	99	-62.4	-85.2	313	9	
2025-10-18T12:00	16400	98	-62.2	-85.3	312	9	
2025-10-18T12:00	16450	97	-61.9	-85.4	306	9	
2025-10-18T12:00	16500	96	-61.4	-85.4	301	10	
2025-10-18T12:00	16550	95	-61.1	-85.4	301	11	
2025-10-18T12:00	16600	95	-61.1	-85.5	303	11	
2025-10-18T12:00	16650	94	-61.1	-85.6	308	10	
2025-10-18T12:00	16700	93	-60.9	-85.6	313	10	
2025-10-18T12:00	16750	92	-60.7	-85.6	320	9	
2025-10-18T12:00	16800	92	-60.7	-85.7	324	9	
2025-10-18T12:00	16850	91	-60.6	-85.8	322	9	
2025-10-18T12:00	16900	90	-60.3	-85.6	318	9	
2025-10-18T12:00	16950	89	-60.3	-85.6	318	9	
2025-10-18T12:00	17000	89	-60.3	-85.5	319	10	
2025-10-18T12:00	17050	88	-60.5	-85.5	318	10	
2025-10-18T12:00	17100	87	-60.8	-85.5	315	10	
2025-10-18T12:00	17150	87	-61.2	-85.5	313	11	
2025-10-18T12:00	17200	86	-61.6	-85.7	316	11	
2025-10-18T12:00	17250	85	-61.8	-85.8	321	12	
2025-10-18T12:00	17300	85	-62.0	-85.9	326	12	
2025-10-18T12:00	17350	84	-62.2	-85.9	329	12	
2025-10-18T12:00	17400	83	-62.5	-86.0	329	12	
2025-10-18T12:00	17450	83	-62.6	-86.1	330	12	
2025-10-18T12:00	17500	82	-62.7	-86.3	331	12	
2025-10-18T12:00	17550	81	-62.6	-86.4	333	11	
2025-10-18T12:00	17600	81	-62.1	-86.3	335	10	
2025-10-18T12:00	17650	80	-62.2	-86.4	336	9	
2025-10-18T12:00	17700	79	-62.3	-86.5	336	8	
2025-10-18T12:00	17750	79	-62.2	-86.4	338	7	
2025-10-18T12:00	17800	78	-62.4	-86.5	339	6	
2025-10-18T12:00	17850	77	-62.7	-86.5	338	5	
2025-10-18T12:00	17900	77	-62.9	-86.5	331	4	
2025-10-18T12:00	17950	76	-63.3	-86.7	320	3	
2025-10-18T12:00	18000	76	-63.4	-86.9	299	2	
2025-10-18T12:00	18050	75	-63.1	-86.9	276	3	
2025-10-18T12:00	18100	74	-62.7	-87.0	268	5	
2025-10-18T12:00	18150	74	-62.4	-87.0	265	7	
2025-10-18T12:00	18200	73	-62.3	-87.0	263	8	
2025-10-18T12:00	18250	72	-62.4	-87.0	265	8	
2025-10-18T12:00	18300	72	-62.3	-86.9	271	8	
2025-10-18T12:00	18350	71	-62.4	-86.9	279	8	
2025-10-18T12:00	18400	71	-62.5	-87.2	287	9	
2025-10-18T12:00	18450	70	-62.1	-87.2	294	10	
2025-10-18T12:00	18500	70	-61.3	-87.0	299	10	
2025-10-18T12:00	18550	69	-61.3	-87.0	303	11	
2025-10-18T12:00	18600	69	-61.2	-86.9	307	10	
2025-10-18T12:00	18650	68	-61.3	-86.9	308	10	
2025-10-18T12:00	18700	67	-61.4	-86.9	307	9	
2025-10-18T12:00	18750	67	-61.6	-86.9	305	10	
2025-10-18T12:00	18800	66	-61.8	-86.9	305	11	
2025-10-18T12:00	18850	66	-61.8	-86.9	308	12	
2025-10-18T12:00	18900	65	-62.1	-87.0	311	13	
2025-10-18T12:00	18950	65	-62.2	-87.0	313	13	
2025-10-18T12:00	19000	64	-62.6	-87.2	317	14	
2025-10-18T12:00	19050	64	-62.5	-87.2	322	14	
2025-10-18T12:00	19100	63	-62.4	-87.4	329	14	
2025-10-18T12:00	19150	63	-62.3	-87.3	338	13	
2025-10-18T12:00	19200	62	-62.3	-87.2	346	12	
2025-10-18T12:00	19250	62	-62.5	-87.4	352	11	
2025-10-18T12:00	19300	61	-62.5	-87.5	352	9	
2025-10-18T12:00	19350	61	-62.3	-87.5	349	7	
2025-10-18T12:00	19400	60	-61.9	-87.4	344	6	
2025-10-18T12:00	19450	60	-62.0	-87.4	337	5	
2025-10-18T12:00	19500	59	-61.9	-87.4	327	5	
2025-10-18T12:00	19550	59	-61.7	-87.4	318	4	
2025-10-18T12:00	19600	58	-61.4	-87.3	303	3	
2025-10-18T12:00	19650	58	-61.2	-87.2	286	3	
2025-10-18T12:00	19700	57	-61.5	-87.2	276	3	
2025-10-18T12:00	19750	57	-61.6	-87.2	264	3	
2025-10-18T12:00	19800	56	-61.7	-87.3	256	4	
2025-10-18T12:00	19850	56	-61.5	-87.3	260	5	
2025-10-18T12:00	19900	56	-61.3	-87.3	268	6	
2025-10-18T12:00	19950	55	-61.1	-87.2	273	7	
2025-10-18T12:00	20000	55	-61.2	-87.2	275	8	
2025-10-18T12:00	20050	54	-61.5		277	8	
2025-10-18T12:00	20100	54	-61.5		281	9	
2025-10-18T12:00	20150	53	-61.2		282	10	
2025-10-18T12:00	20200	53	-60.9		282	10	
2025-10-18T12:00	20250	52	-60.8		285	10	
2025-10-18T12:00	20300	52	-60.6		291	10	
2025-10-18T12:00	20350	52	-60.8		299	9	
2025-10-18T12:00	20400	51	-61.1		306	9	
2025-10-18T12:00	20450	51	-61.4		309	8	
2025-10-18T12:00	20500	50	-61.7		307	8	
2025-10-18T12:00	20550	50	-61.6		302	9	
2025-10-18T12:00	20600	50	-61.5		299	10	
2025-10-18T12:00	20650	49	-61.8		302	10	
2025-10-18T12:00	20700	49	-62.0		306	10	
2025-10-18T12:00	20750	48	-61.9		310	11	
2025-10-18T12:00	20800	48	-62.1		313	10	
2025-10-18T12:00	20850	48	-62.3		317	10	
2025-10-18T12:00	20900	47	-62.4		321	9	
2025-10-18T12:00	20950	47	-62.3		323	8	
2025-10-18T12:00	21000	46	-61.9		319	8	
2025-10-18T12:00	21050	46	-62.2		311	7	
2025-10-18T12:00	21100	46	-62.6		302	7	
2025-10-18T12:00	21150	45	-62.6		303	7	
2025-10-18T12:00	21200	45	-62.2		313	8	
2025-10-18T12:00	21250	45	-62.0		321	8	
2025-10-18T12:00	21300	44	-62.1		324	9	
2025-10-18T12:00	21350	44	-62.2		325	9	
2025-10-18T12:00	21400	44	-62.2		326	9	
2025-10-18T12:00	21450	43	-61.8		325	8	
2025-10-18T12:00	21500	43	-61.3		320	8	
2025-10-18T12:00	21550	43	-61.1		316	7	
2025-10-18T12:00	21600	42	-61.1		311	6	
2025-10-18T12:00	21650	42	-61.0		309	5	
2025-10-18T12:00	21700	41	-60.8		312	4	
2025-10-18T12:00	21750	41	-60.7		313	4	
2025-10-18T12:00	21800	41	-60.7		306	5	
2025-10-18T12:00	21850	41	-61.0		294	6	
2025-10-18T12:00	21900	40	-61.1		285	7	
2025-10-18T12:00	21950	40	-60.8		282	7	
2025-10-18T12:00	22000	40	-60.6		284	7	
2025-10-18T12:00	22050	39	-60.7		287	6	
2025-10-18T12:00	22100	39	-60.4		288	5	
2025-10-18T12:00	22150	39	-60.0		281	5	
2025-10-18T12:00	22200	38	-59.6		271	6	
2025-10-18T12:00	22250	38	-59.6		266	7	
2025-10-18T12:00	22300	38	-59.7		266	8	
2025-10-18T12:00	22350	37	-59.4		267	8	
2025-10-18T12:00	22400	37	-58.9		265	8	
2025-10-18T12:00	22450	37	-58.6		259	8	
2025-10-18T12:00	22500	37	-58.3		250	8	
2025-10-18T12:00	22550	36	-58.6		242	8	
2025-10-18T12:00	22600	36	-58.7		238	9	
2025-10-18T12:00	22650	36	-58.4		238	9	
2025-10-18T12:00	22700	35	-58.7		239	10	
2025-10-18T12:00	22750	35	-59.1		241	10	
2025-10-18T12:00	22800	35	-59.4		246	11	
2025-10-18T12:00	22850	35	-59.6		253	11	
2025-10-18T12:00	22900	34	-59.7		261	12	
2025-10-18T12:00	22950	34	-59.9		268	13	
2025-10-18T12:00	23000	34	-60.0		272	13	
2025-10-18T12:00	23050	33	-60.1		275	13	
2025-10-18T12:00	23100	33	-59.9		277	13	
2025-10-18T12:00	23150	33	-60.1		281	13	
2025-10-18T12:00	23200	33	-60.2		288	13	
2025-10-18T12:00	23250	32	-60.3		296	14	
2025-10-18T12:00	23300	32	-60.4		303	14	
2025-10-18T12:00	23350	32	-60.4		308	14	
2025-10-18T12:00	23400	32	-60.1		312	13	
2025-10-18T12:00	23450	31	-59.4		313	11	
2025-10-18T12:00	23500	31	-59.1		312	10	
2025-10-18T12:00	23550	31	-58.9		307	9	
2025-10-18T12:00	23600	31	-58.9		302	9	
2025-10-18T12:00	23650	30	-59.1		300	9	
2025-10-18T12:00	23700	30	-59.1		301	9	
2025-10-18T12:00	23750	30	-58.8		300	9	
2025-10-18T12:00	23800	30	-58.8		296	9	
2025-10-18T12:00	23850	29	-58.4		291	8	
2025-10-18T12:00	23900	29	-58.2		286	8	
2025-10-18T12:00	23950	29	-58.0		282	7	
2025-10-18T12:00	24000	29	-58.0		279	8	
2025-10-18T12:00	24050	28	-58.0		275	9	
2025-10-18T12:00	24100	28	-58.4		268	10	
2025-10-18T12:00	24150	28	-58.4		259	11	
2025-10-18T12:00	24200	28	-58.0		252	11	
2025-10-18T12:00	24250	28	-57.9		251	12	
2025-10-18T12:00	24300	27	-57.8		255	13	
2025-10-18T12:00	24350	27	-57.8		260	14	
2025-10-18T12:00	24400	27	-58.0		266	14	
2025-10-18T12:00	24450	27	-58.1		272	15	
2025-10-18T12:00	24500	27	-58.2		277	15	
2025-10-18T12:00	24550	26	-58.2		282	14	
2025-10-18T12:00	24600	26	-58.4		286	14	
2025-10-18T12:00	24650	26	-58.4		288	14	
2025-10-18T12:00	24700	26	-58.6		290	14	
2025-10-18T12:00	24750	25	-58.9		290	13	
2025-10-18T12:00	24800	25	-59.1		288	13	
2025-10-18T12:00	24850	25	-59.3		287	13	
2025-10-18T12:00	24900	25	-59.5		285	14	
2025-10-18T12:00	24950	25	-59.7		285	14	
2025-10-18T12:00	25000	25	-59.7		287	13	
2025-10-18T12:00	25050	24	-59.8		290	13	
2025-10-18T12:00	25100	24	-60.0		294	12	
2025-10-18T12:00	25150	24	-60.4		299	12	
2025-10-18T12:00	25200	24	-60.3		304	11	
2025-10-18T12:00	25250	24	-60.2		307	10	
2025-10-18T12:00	25300	23	-60.1		306	10	
2025-10-18T12:00	25350	23	-59.6		301	10	
2025-10-18T12:00	25400	23	-59.4		297	11	
2025-10-18T12:00	25450	23	-59.4		293	12	
2025-10-18T12:00	25500	23	-59.2		291	14	
2025-10-18T12:00	25550	22	-59.1		291	15	
2025-10-18T12:00	25600	22	-59.1		292	16	
2025-10-18T12:00	25650	22	-59.2		295	16	
2025-10-18T12:00	25700	22	-59.0		299	16	
2025-10-18T12:00	25750	22	-58.4		303	15	
2025-10-18T12:00	25800	22	-58.0		306	14	
2025-10-18T12:00	25850	21	-58.1		308	14	
2025-10-18T12:00	25900	21	-57.9		308	13	
2025-10-18T12:00	25950	21	-57.1		308	13	
2025-10-18T12:00	26000	21	-56.1		309	13	
2025-10-18T12:00	26050	21	-55.8		312	14	
2025-10-18T12:00	26100	21	-55.9		314	13	
2025-10-18T12:00	26150	20	-55.9		313	12	
2025-10-18T12:00	26200	20	-55.3		311	11	
2025-10-18T12:00	26250	20	-54.7		310	10	
2025-10-18T12:00	26300	20	-54.4		307	10	
2025-10-18T12:00	26350	20	-53.9		301	9	
2025-10-18T12:00	26400	20	-53.3		293	9	
2025-10-18T12:00	26450	19	-52.8		288	10	
2025-10-18T12:00	26500	19	-52.3		285	11	
2025-10-18T12:00	26550	19	-51.9		286	11	
2025-10-18T12:00	26600	19	-51.7		287	11	
2025-10-18T12:00	26650	19	-51.6		287	11	
2025-10-18T12:00	26700	19	-51.7		287	10	
2025-10-18T12:00	26750	19	-51.9		285	10	
2025-10-18T12:00	26800	18	-52.1		283	10	
2025-10-18T12:00	26850	18	-52.2		283	10	
2025-10-18T12:00	26900	18	-52.2		284	10	
2025-10-18T12:00	26950	18	-52.2		284	9	
2025-10-18T12:00	27000	18	-52.4		283	9	
2025-10-18T12:00	27050	18	-52.6		279	9	
2025-10-18T12:00	27100	18	-52.6		272	9	
2025-10-18T12:00	27150	17	-52.4		266	10	
2025-10-18T12:00	27200	17	-52.4		261	11	
2025-10-18T12:00	27250	17	-52.6		257	11	
2025-10-18T12:00	27300	17	-52.6		255	11	
2025-10-18T12:00	27350	17	-52.4		255	12	
2025-10-18T12:00	27400	17	-52.4		257	12	
2025-10-18T12:00	27450	17	-52.3		260	12	
2025-10-18T12:00	27500	17	-52.4		262	12	
2025-10-18T12:00	27550	16	-52.5		265	13	
2025-10-18T12:00	27600	16	-52.6		267	14	
2025-10-18T12:00	27650	16	-52.4		269	15	
2025-10-18T12:00	27700	16	-52.2		270	16	
2025-10-18T12:00	27750	16	-52.1		270	16	
2025-10-18T12:00	27800	16	-52.0		271	17	
2025-10-18T12:00	27850	16	-51.9		271	17	
2025-10-18T12:00	27900	16	-52.0		270	18	
2025-10-18T12:00	27950	15	-52.1		270	18	
2025-10-18T12:00	28000	15	-52.2		270	17	
2025-10-18T12:00	28050	15	-52.5		271	16	
2025-10-18T12:00	28100	15	-52.8		272	15	
2025-10-18T12:00	28150	15	-53.1		272	14	
2025-10-18T12:00	28200	15	-53.3		269	13	
2025-10-18T12:00	28250	15	-53.2		264	13	
2025-10-18T12:00	28300	15	-53.1		259	14	
2025-10-18T12:00	28350	15	-52.8		256	15	
2025-10-18T12:00	28400	14	-52.0		258	16	
2025-10-18T12:00	28450	14	-51.1		262	17	
2025-10-18T12:00	28500	14	-50.5		266	17	
2025-10-18T12:00	28550	14	-50.4		271	16	
2025-10-18T12:00	28600	14	-50.6		273	16	
2025-10-18T12:00	28650	14	-50.6		275	16	
2025-10-18T12:00	28700	14	-50.7		276	17	
2025-10-18T12:00	28750	14	-50.8		279	18	
2025-10-18T12:00	28800	14	-50.8		282	18	
2025-10-18T12:00	28850	13	-50.9		284	18	
2025-10-18T12:00	28900	13	-51.1		285	17	
2025-10-18T12:00	28950	13	-51.2		283	17	
2025-10-18T12:00	29000	13	-51.1		281	16	
2025-10-18T12:00	29050	13	-50.7		279	15	
2025-10-18T12:00	29100	13	-50.5		277	15	
2025-10-18T12:00	29150	13	-50.6		276	14	
2025-10-18T12:00	29200	13	-50.7		275	13	
2025-10-18T12:00	29250	13	-50.8		272	12	
2025-10-18T12:00	29300	13	-50.8		267	11	
2025-10-18T12:00	29350	12	-50.8		262	11	
2025-10-18T12:00	29400	12	-50.6		261	11	
2025-10-18T12:00	29450	12	-50.3		265	12	
2025-10-18T12:00	29500	12	-50.2		271	12	
2025-10-18T12:00	29550	12	-50.4		276	13	
2025-10-18T12:00	29600	12	-50.4		276	13	
2025-10-18T12:00	29650	12	-50.1		274	13	
2025-10-18T12:00	29700	12	-49.4		272	14	
2025-10-18T12:00	29750	12	-49.0		272	14	
2025-10-18T12:00	29800	12	-48.6		274	15	
2025-10-18T12:00	29850	12	-48.4		276	16	
2025-10-18T12:00	29900	11	-48.4		278	17	
2025-10-18T12:00	29950	11	-48.2		278	18	
2025-10-18T12:00	30000	11	-48.2		278	18	
2025-10-18T12:00	30050	11	-47.9		278	19	
2025-10-18T12:00	30100	11	-47.8		279	20	
2025-10-18T12:00	30150	11	-47.8		281	22	
2025-10-18T12:00	30200	11	-47.8		283	23	
2025-10-18T12:00	30250	11	-47.9		285	22	
2025-10-18T12:00	30300	11	-48.0		286	22	
2025-10-18T12:00	30350	11	-48.0		284	21	
2025-10-18T12:00	30400	11	-47.9		280	20	
2025-10-18T12:00	30450	11	-47.6		275	19	
2025-10-18T12:00	30500	10	-47.2		272	19	
2025-10-18T12:00	30550	10	-46.8		271	19	
2025-10-18T12:00	30600	10	-46.6		272	20	
2025-10-18T12:00	30650	10	-46.4		274	22	
2025-10-18T12:00	30700	10	-45.8		277	25	
2025-10-18T12:00	30750	10	-45.1		281	27	
2025-10-18T12:00	30800	10	-44.3		284	28	
2025-10-18T12:00	30850	10	-43.6		287	28	
2025-10-18T12:00	30900	10	-43.6		290	27	
2025-10-18T12:00	30950	10	-43.7		292	26	
2025-10-18T12:00	31000	10	-43.9		294	26	
2025-10-18T12:00	31050	10	-43.8		296	26	
2025-10-18T12:00	31100	10	-43.5		298	26	
2025-10-18T12:00	31150	9	-43.5		299	26	
2025-10-18T12:00	31200	9	-43.6		299	25	
2025-10-18T12:00	31250	9	-43.7		299	25	
2025-10-18T12:00	31300	9	-43.6		298	24	
2025-10-18T12:00	31350	9	-43.2		297	25	
2025-10-18T12:00	31400	9	-42.5		295	25	
2025-10-18T12:00	31450	9	-41.9		294	25	
2025-10-18T12:00	31500	9	-41.9		294	25	
2025-10-18T12:00	31550	9	-41.9		295	24	
2025-10-18T12:00	31600	9	-42.0		295	24	
2025-10-18T12:00	31650	9	-42.1		295	24	
2025-10-18T12:00	31700	9	-42.1		296	24	
2025-10-18T12:00	31750	9	-42.1		298	24	
2025-10-18T12:00	31800	9	-42.1		301	24	
2025-10-18T12:00	31850	9	-41.8		303	24	
2025-10-18T12:00	31900	8	-41.5		303	25	
2025-10-18T12:00	31950	8	-41.2		302	24	
2025-10-18T12:00	32000	8	-41.2		299	23	
2025-10-18T12:00	32050	8	-41.1		296	23	
2025-10-18T12:00	32100	8	-40.9		294	23	
2025-10-18T12:00	32150	8	-40.5		294	24	
2025-10-18T12:00	32200	8	-40.0		296	26	
2025-10-18T12:00	32250	8	-39.8		299	27	
2025-10-18T12:00	32300	8	-39.9		301	28	
2025-10-18T12:00	32350	8	-40.0		303	29	
2025-10-18T12:00	32400	8	-39.9		303	30	
2025-10-18T12:00	32450	8	-39.7		303	31	
2025-10-18T12:00	32500	8	-39.6		303	32	
2025-10-18T12:00	32550	8	-39.5		303	33	
2025-10-18T12:00	32600	8	-39.4		303	33	
2025-10-18T12:00	32650	8	-39.5		303	33	
2025-10-18T12:00	32700	8	-39.5		303	32	
2025-10-18T12:00	32750	7	-39.6		303	31	
2025-10-18T12:00	32800	7	-39.8		303	30	
2025-10-18T12:00	32850	7	-40.1		303	29	
2025-10-18T12:00	32900	7	-40.3		303	28	
2025-10-18T12:00	32950	7	-40.4		302	27	
2025-10-18T12:00	33000	7	-40.6		300	25	
2025-10-18T12:00	33050	7	-40.7		299	24	
2025-10-18T12:00	33100	7	-40.6		298	23	
2025-10-18T12:00	33150	7	-40.8		297	23	
2025-10-18T12:00	33200	7	-40.8		294	23	
2025-10-18T12:00	33250	7	-40.7		291	23	
2025-10-18T12:00	33300	7	-40.6		288	25	
2025-10-18T12:00	33350	7	-40.5		287	26	
2025-10-18T12:00	33400	7	-39.9		286	27	
2025-10-18T12:00	33450	7	-39.3		287	28	
2025-10-18T12:00	33500	7	-39.2		288	28	
2025-10-18T12:00	33550	7	-39.2		288	28	
2025-10-18T12:00	33600	7	-39.0		289	28	
2025-10-18T12:00	33650	7	-38.8		289	28	
2025-10-19T00:00	491	964	4.2	3.8	179	1	
2025-10-19T00:00	501	963	4.8	4.4	192	2	
2025-10-19T00:00	520	961	5.8	4.9	193	3	
2025-10-19T00:00	540	958	6.2	4.7	192	3	
2025-10-19T00:00	560	956	6.6	4.9	192	3	
2025-10-19T00:00	580	954	7.0	5.0	190	3	
2025-10-19T00:00	600	951	7.5	5.3	186	3	
2025-10-19T00:00	620	949	7.9	5.3	181	2	
2025-10-19T00:00	640	947	8.4	5.4	174	2	
2025-10-19T00:00	660	945	8.4	5.5	161	1	
2025-10-19T00:00	680	942	8.5	5.4	148	1	
2025-10-19T00:00	700	940	8.5	5.3	130	0	
2025-10-19T00:00	720	938	8.4	5.3	108	0	
2025-10-19T00:00	740	936	8.3	5.4	66	0	
2025-10-19T00:00	760	933	8.2	5.4	345	0	
2025-10-19T00:00	780	931	8.0	5.3	317	0	
2025-10-19T00:00	800	929	7.9	5.3	308	0	
2025-10-19T00:00	820	927	7.8	5.3	299	0	
2025-10-19T00:00	840	925	7.7	5.1	290	0	
2025-10-19T00:00	860	922	7.6	4.9	274	0	
2025-10-19T00:00	880	920	7.5	4.9	226	0	
2025-10-19T00:00	900	918	7.4	4.8	178	0	
2025-10-19T00:00	920	915	7.3	4.8	173	0	
2025-10-19T00:00	940	913	7.2	4.8	187	0	
2025-10-19T00:00	960	911	7.0	4.8	207	0	
2025-10-19T00:00	980	909	6.8	4.8	223	1	
2025-10-19T00:00	1000	906	6.7	4.8	232	1	
2025-10-19T00:00	1020	904	6.5	4.7	236	1	
2025-10-19T00:00	1040	902	6.7	4.9	238	2	
2025-10-19T00:00	1060	900	6.6	4.9	237	2	
2025-10-19T00:00	1080	898	6.4	4.8	235	3	
2025-10-19T00:00	1100	896	6.3	4.8	233	3	
2025-10-19T00:00	1120	893	6.2	4.8	229	4	
2025-10-19T00:00	1140	891	6.2	4.7	226	4	
2025-10-19T00:00	1160	889	6.1	4.7	223	5	
2025-10-19T00:00	1180	887	6.1	4.7	221	5	
2025-10-19T00:00	1200	885	6.5	4.9	218	6	
2025-10-19T00:00	1220	882	6.4	4.9	216	7	
2025-10-19T00:00	1240	880	6.3	4.8	214	7	
2025-10-19T00:00	1260	878	6.2	4.8	213	7	
2025-10-19T00:00	1280	876	6.1	4.5	212	8	
2025-10-19T00:00	1300	874	6.2	4.1	211	8	
2025-10-19T00:00	1320	872	6.7	2.9	211	8	
2025-10-19T00:00	1340	870	8.0	1.2	211	8	
2025-10-19T00:00	1360	868	8.1	1.1	213	8	
2025-10-19T00:00	1380	865	7.9	1.0	215	8	
2025-10-19T00:00	1400	863	7.8	0.9	218	8	
2025-10-19T00:00	1420	861	7.6	0.7	221	8	
2025-10-19T00:00	1440	859	7.5	0.4	224	8	
2025-10-19T00:00	1460	857	7.5	-0.2	226	8	
2025-10-19T00:00	1480	855	7.7	-3.1	226	8	
2025-10-19T00:00	1500	853	8.2	-5.8	226	9	
2025-10-19T00:00	1520	851	8.2	-1.7	225	9	
2025-10-19T00:00	1540	849	8.1	-0.7	223	9	
2025-10-19T00:00	1560	847	8.1	-0.6	222	9	
2025-10-19T00:00	1580	845	8.1	0.1	221	9	
2025-10-19T00:00	1600	843	8.1	0.4	221	9	
2025-10-19T00:00	1620	841	8.0	0.1	221	9	
2025-10-19T00:00	1640	839	8.0	0.5	222	9	
2025-10-19T00:00	1660	837	7.8	2.2	223	9	
2025-10-19T00:00	1680	835	7.8	2.1	223	9	
2025-10-19T00:00	1700	833	7.7	1.9	224	9	
2025-10-19T00:00	1720	830	7.7	0.3	223	8	
2025-10-19T00:00	1740	829	7.7	-0.4	223	8	
2025-10-19T00:00	1760	826	7.7	-1.2	222	8	
2025-10-19T00:00	1780	824	7.7	-1.2	221	8	
2025-10-19T00:00	1800	822	7.9	-3.3	221	8	
2025-10-19T00:00	1820	821	7.9	-4.1	223	8	
2025-10-19T00:00	1840	819	7.9	-3.9	225	8	
2025-10-19T00:00	1860	816	8.1	-5.1	228	8	
2025-10-19T00:00	1880	815	8.3	-8.0	230	8	
2025-10-19T00:00	1900	813	8.4	-11.3	232	7	
2025-10-19T00:00	1920	811	8.3	-11.3	234	7	
2025-10-19T00:00	1940	809	8.3	-12.8	236	6	
2025-10-19T00:00	1960	807	8.5	-13.9	238	6	
2025-10-19T00:00	1980	805	8.6	-17.2	242	5	
2025-10-19T00:00	2000	803	8.6	-19.3	247	5	
2025-10-19T00:00	2020	801	8.5	-20.2	253	4	
2025-10-19T00:00	2040	799	8.4	-21.0	256	4	
2025-10-19T00:00	2060	797	8.3	-21.3	259	3	
2025-10-19T00:00	2080	795	8.3	-24.8	259	3	
2025-10-19T00:00	2100	793	8.4	-31.8	256	2	
2025-10-19T00:00	2120	791	8.4	-31.0	252	2	
2025-10-19T00:00	2140	789	8.4	-30.9	246	1	
2025-10-19T00:00	2160	787	8.2	-30.3	240	1	
2025-10-19T00:00	2180	786	8.0	-28.6	236	1	
2025-10-19T00:00	2200	784	7.8	-25.6	234	1	
2025-10-19T00:00	2220	782	7.7	-23.7	234	1	
2025-10-19T00:00	2240	780	7.5	-24.2	235	1	
2025-10-19T00:00	2260	778	7.4	-25.1	234	2	
2025-10-19T00:00	2280	776	7.2	-24.9	233	2	
2025-10-19T00:00	2300	774	7.1	-24.1	232	2	
2025-10-19T00:00	2320	772	7.0	-26.1	232	2	
2025-10-19T00:00	2340	770	6.8	-26.3	232	3	
2025-10-19T00:00	2360	769	6.6	-27.9	232	3	
2025-10-19T00:00	2380	767	6.5	-25.6	233	3	
2025-10-19T00:00	2400	765	6.3	-25.4	235	3	
2025-10-19T00:00	2420	763	6.1	-25.6	237	3	
2025-10-19T00:00	2440	761	5.9	-24.8	239	3	
2025-10-19T00:00	2460	759	5.7	-25.6	241	3	
2025-10-19T00:00	2480	757	5.5	-22.7	243	3	
2025-10-19T00:00	2500	755	5.3	-21.3	245	3	
2025-10-19T00:00	2520	754	5.1	-21.3	247	3	
2025-10-19T00:00	2540	752	5.0	-22.1	248	3	
2025-10-19T00:00	2560	750	4.9	-22.1	250	3	
2025-10-19T00:00	2580	748	4.8	-22.5	250	3	
2025-10-19T00:00	2600	746	4.7	-22.7	250	3	
2025-10-19T00:00	2620	744	4.6	-22.5	249	3	
2025-10-19T00:00	2640	742	4.4	-22.1	248	3	
2025-10-19T00:00	2660	741	4.3	-22.3	247	3	
2025-10-19T00:00	2680	739	4.1	-22.3	245	3	
2025-10-19T00:00	2700	737	3.9	-22.4	243	3	
2025-10-19T00:00	2720	735	3.8	-22.0	243	3	
2025-10-19T00:00	2740	733	3.7	-20.4	245	3	
2025-10-19T00:00	2760	732	3.5	-20.6	247	3	
2025-10-19T00:00	2780	730	3.3	-20.6	252	3	
2025-10-19T00:00	2800	728	3.1	-20.6	255	3	
2025-10-19T00:00	2820	726	3.0	-20.6	257	3	
2025-10-19T00:00	2840	724	2.8	-20.6	260	2	
2025-10-19T00:00	2860	723	2.6	-20.5	261	2	
2025-10-19T00:00	2880	721	2.4	-20.3	261	3	
2025-10-19T00:00	2900	719	2.2	-20.4	260	3	
2025-10-19T00:00	2920	717	2.1	-20.5	258	3	
2025-10-19T00:00	2940	716	1.9	-20.5	256	3	
2025-10-19T00:00	2960	714	1.7	-20.4	255	3	
2025-10-19T00:00	2980	712	1.5	-20.6	255	3	
2025-10-19T00:00	3000	710	1.3	-20.8	256	3	
2025-10-19T00:00	3020	708	1.2	-20.9	258	3	
2025-10-19T00:00	3040	707	1.0	-20.9	260	3	
2025-10-19T00:00	3060	705	0.9	-20.9	263	3	
2025-10-19T00:00	3080	703	0.7	-21.0	266	3	
2025-10-19T00:00	3100	701	0.6	-21.3	269	3	
2025-10-19T00:00	3120	700	0.4	-22.2	271	3	
2025-10-19T00:00	3140	698	0.4	-23.9	273	3	
2025-10-19T00:00	3160	696	0.3	-23.8	272	3	
2025-10-19T00:00	3180	694	0.1	-23.6	272	3	
2025-10-19T00:00	3200	693	-0.1	-23.7	271	3	
2025-10-19T00:00	3220	691	-0.2	-23.7	271	3	
2025-10-19T00:00	3240	689	-0.3	-23.4	272	2	
2025-10-19T00:00	3260	687	-0.4	-25.0	274	2	
2025-10-19T00:00	3280	686	-0.5	-26.1	276	2	
2025-10-19T00:00	3300	684	-0.6	-25.9	279	2	
2025-10-19T00:00	3320	682	-0.8	-25.3	282	2	
2025-10-19T00:00	3340	681	-0.9	-24.9	284	2	
2025-10-19T00:00	3360	679	-1.0	-24.2	285	2	
2025-10-19T00:00	3380	677	-1.2	-24.4	287	2	
2025-10-19T00:00	3400	675	-1.4	-24.8	287	2	
2025-10-19T00:00	3420	674	-1.5	-24.8	287	2	
2025-10-19T00:00	3440	672	-1.7	-24.7	288	2	
2025-10-19T00:00	3460	670	-1.9	-24.7	288	2	
2025-10-19T00:00	3480	669	-2.0	-23.6	290	2	
2025-10-19T00:00	3500	667	-2.1	-23.9	291	2	
2025-10-19T00:00	3520	666	-2.2	-24.5	294	2	
2025-10-19T00:00	3540	664	-2.2	-26.1	298	2	
2025-10-19T00:00	3560	662	-2.2	-27.0	302	2	
2025-10-19T00:00	3580	660	-2.3	-27.6	307	2	
2025-10-19T00:00	3600	659	-2.4	-27.5	309	2	
2025-10-19T00:00	3620	657	-2.5	-27.5	310	2	
2025-10-19T00:00	3640	655	-2.6	-27.9	307	2	
2025-10-19T00:00	3660	654	-2.7	-27.9	302	2	
2025-10-19T00:00	3680	652	-2.9	-27.6	294	2	
2025-10-19T00:00	3700	651	-3.0	-28.2	288	2	
2025-10-19T00:00	3720	649	-3.1	-28.4	283	2	
2025-10-19T00:00	3740	647	-3.1	-28.6	283	2	
2025-10-19T00:00	3760	646	-3.2	-29.1	287	3	
2025-10-19T00:00	3780	644	-3.2	-29.7	293	3	
2025-10-19T00:00	3800	642	-3.3	-30.4	299	3	
2025-10-19T00:00	3820	641	-3.3	-30.6	305	4	
2025-10-19T00:00	3840	639	-3.4	-30.7	310	4	
2025-10-19T00:00	3860	637	-3.5	-30.6	312	5	
2025-10-19T00:00	3880	636	-3.6	-30.5	312	5	
2025-10-19T00:00	3900	634	-3.7	-30.4	309	5	
2025-10-19T00:00	3920	633	-3.8	-30.4	304	5	
2025-10-19T00:00	3940	631	-4.0	-30.2	299	4	
2025-10-19T00:00	3960	629	-4.1	-30.2	295	4	
2025-10-19T00:00	3980	628	-4.2	-30.3	292	4	
2025-10-19T00:00	4000	626	-4.4	-30.2	290	4	
2025-10-19T00:00	4020	625	-4.5	-28.5	291	3	
2025-10-19T00:00	4040	623	-4.6	-26.4	295	3	
2025-10-19T00:00	4060	621	-4.8	-26.1	302	3	
2025-10-19T00:00	4080	620	-4.7	-29.0	310	3	
2025-10-19T00:00	4100	618	-4.7	-33.7	316	4	
2025-10-19T00:00	4120	617	-4.6	-35.6	320	4	
2025-10-19T00:00	4140	615	-4.7	-35.7	322	4	
2025-10-19T00:00	4160	614	-4.8	-35.3	321	4	
2025-10-19T00:00	4180	612	-4.9	-35.1	320	5	
2025-10-19T00:00	4200	611	-5.0	-35.3	318	5	
2025-10-19T00:00	4220	609	-5.2	-35.5	315	5	
2025-10-19T00:00	4240	607	-5.3	-35.1	312	5	
2025-10-19T00:00	4260	606	-5.4	-35.0	310	5	
2025-10-19T00:00	4280	604	-5.5	-35.1	309	6	
2025-10-19T00:00	4300	603	-5.7	-35.3	310	6	
2025-10-19T00:00	4320	601	-5.8	-35.8	312	6	
2025-10-19T00:00	4340	600	-6.0	-35.9	316	6	
2025-10-19T00:00	4360	598	-6.1	-36.6	319	6	
2025-10-19T00:00	4380	597	-6.2	-37.5	322	6	
2025-10-19T00:00	4400	595	-6.3	-38.0	324	6	
2025-10-19T00:00	4420	593	-6.4	-38.7	324	6	
2025-10-19T00:00	4440	592	-6.4	-39.2	324	6	
2025-10-19T00:00	4460	591	-6.5	-39.7	321	6	
2025-10-19T00:00	4480	589	-6.5	-39.9	318	6	
2025-10-19T00:00	4500	588	-6.5	-39.5	315	7	
2025-10-19T00:00	4520	586	-6.6	-38.5	313	7	
2025-10-19T00:00	4540	584	-6.8	-37.9	311	7	
2025-10-19T00:00	4560	583	-6.9	-37.8	310	7	
2025-10-19T00:00	4580	582	-7.0	-37.1	309	6	
2025-10-19T00:00	4600	580	-7.1	-35.1	308	6	
2025-10-19T00:00	4620	578	-7.2	-35.3	306	6	
2025-10-19T00:00	4640	577	-7.4	-36.3	303	6	
2025-10-19T00:00	4660	576	-7.5	-38.3	302	5	
2025-10-19T00:00	4680	574	-7.6	-40.4	302	5	
2025-10-19T00:00	4700	573	-7.8	-41.0	303	5	
2025-10-19T00:00	4720	571	-7.9	-38.8	305	5	
2025-10-19T00:00	4740	570	-8.1	-36.6	308	5	
2025-10-19T00:00	4760	568	-8.2	-36.6	309	5	
2025-10-19T00:00	4780	567	-8.4	-36.6	309	6	
2025-10-19T00:00	4800	565	-8.6	-36.6	309	6	
2025-10-19T00:00	4820	564	-8.8	-36.2	310	6	
2025-10-19T00:00	4840	562	-8.9	-36.1	311	6	
2025-10-19T00:00	4860	561	-9.1	-36.1	313	6	
2025-10-19T00:00	4880	559	-9.3	-36.1	314	7	
2025-10-19T00:00	4900	558	-9.5	-36.0	317	7	
2025-10-19T00:00	4920	557	-9.6	-35.5	318	7	
2025-10-19T00:00	4940	555	-9.8	-35.3	318	8	
2025-10-19T00:00	4960	554	-9.9	-35.9	318	8	
2025-10-19T00:00	4980	552	-9.9	-38.0	318	8	
2025-10-19T00:00	5000	551	-10.0	-41.3	318	9	
2025-10-19T00:00	5020	549	-10.1	-41.9	318	9	
2025-10-19T00:00	5040	548	-10.3	-41.6	319	9	
2025-10-19T00:00	5060	547	-10.4	-41.3	320	9	
2025-10-19T00:00	5080	545	-10.6	-41.3	322	9	
2025-10-19T00:00	5100	544	-10.8	-41.3	323	9	
2025-10-19T00:00	5120	542	-10.9	-41.5	324	9	
2025-10-19T00:00	5140	541	-11.1	-41.4	324	8	
2025-10-19T00:00	5160	540	-11.3	-41.3	324	8	
2025-10-19T00:00	5180	538	-11.5	-41.3	324	8	
2025-10-19T00:00	5200	537	-11.6	-41.4	323	7	
2025-10-19T00:00	5220	535	-11.8	-41.4	321	7	
2025-10-19T00:00	5240	534	-12.0	-41.4	319	7	
2025-10-19T00:00	5260	533	-12.1	-41.3	318	7	
2025-10-19T00:00	5280	531	-12.3	-41.3	317	7	
2025-10-19T00:00	5300	530	-12.5	-41.4	316	8	
2025-10-19T00:00	5320	528	-12.6	-41.4	315	8	
2025-10-19T00:00	5340	527	-12.7	-41.5	315	8	
2025-10-19T00:00	5360	526	-12.9	-41.6	315	9	
2025-10-19T00:00	5380	524	-12.9	-41.6	316	9	
2025-10-19T00:00	5400	523	-13.0	-41.2	317	9	
2025-10-19T00:00	5420	521	-13.1	-41.3	318	10	
2025-10-19T00:00	5440	520	-13.2	-41.8	319	10	
2025-10-19T00:00	5460	519	-13.3	-42.0	321	10	
2025-10-19T00:00	5480	517	-13.5	-41.8	322	10	
2025-10-19T00:00	5500	516	-13.7	-41.8	323	11	
2025-10-19T00:00	5520	515	-13.9	-41.7	323	11	
2025-10-19T00:00	5540	513	-14.0	-41.3	323	11	
2025-10-19T00:00	5560	512	-14.1	-41.0	323	11	
2025-10-19T00:00	5580	511	-14.3	-40.9	323	11	
2025-10-19T00:00	5600	509	-14.4	-40.6	323	11	
2025-10-19T00:00	5620	508	-14.5	-40.3	323	12	
2025-10-19T00:00	5640	507	-14.7	-39.9	323	12	
2025-10-19T00:00	5660	505	-14.9	-39.2	323	12	
2025-10-19T00:00	5680	504	-15.1	-38.4	323	12	
2025-10-19T00:00	5700	503	-15.3	-37.9	323	12	
2025-10-19T00:00	5720	501	-15.5	-36.5	323	13	
2025-10-19T00:00	5740	500	-15.6	-35.0	323	13	
2025-10-19T00:00	5760	499	-15.8	-34.5	323	13	
2025-10-19T00:00	5780	497	-16.0	-34.3	323	13	
2025-10-19T00:00	5800	496	-16.2	-33.0	323	13	
2025-10-19T00:00	5820	495	-16.3	-32.9	323	14	
2025-10-19T00:00	5840	493	-16.5	-32.5	323	14	
2025-10-19T00:00	5860	492	-16.7	-32.3	323	14	
2025-10-19T00:00	5880	491	-16.9	-32.4	323	14	
2025-10-19T00:00	5900	490	-17.1	-32.3	323	14	
2025-10-19T00:00	5920	488	-17.3	-32.3	324	14	
2025-10-19T00:00	5940	487	-17.5	-32.3	324	14	
2025-10-19T00:00	5960	486	-17.7	-32.1	324	14	
2025-10-19T00:00	5980	484	-17.9	-32.2	323	13	
2025-10-19T00:00	6000	483	-18.1	-32.3	322	13	
2025-10-19T00:00	6020	482	-18.3	-32.3	321	13	
2025-10-19T00:00	6040	480	-18.5	-32.3	319	12	
2025-10-19T00:00	6060	479	-18.7	-32.4	316	12	
2025-10-19T00:00	6080	478	-18.8	-32.4	313	12	
2025-10-19T00:00	6100	476	-19.0	-32.2	312	13	
2025-10-19T00:00	6120	475	-19.3	-32.3	312	13	
2025-10-19T00:00	6140	474	-19.4	-32.3	312	13	
2025-10-19T00:00	6160	473	-19.6	-32.2	313	14	
2025-10-19T00:00	6180	471	-19.8	-32.2	314	14	
2025-10-19T00:00	6200	470	-20.0	-32.1	315	14	
2025-10-19T00:00	6220	469	-20.2	-32.2	316	13	
2025-10-19T00:00	6240	467	-20.4	-32.3	316	13	
2025-10-19T00:00	6260	466	-20.6	-32.2	316	13	
2025-10-19T00:00	6280	465	-20.8	-32.4	315	13	
2025-10-19T00:00	6300	464	-21.0	-32.4	314	12	
2025-10-19T00:00	6320	463	-21.2	-32.4	314	12	
2025-10-19T00:00	6340	461	-21.4	-32.5	314	12	
2025-10-19T00:00	6360	460	-21.6	-32.5	314	12	
2025-10-19T00:00	6380	459	-21.8	-32.5	314	12	
2025-10-19T00:00	6400	458	-22.0	-32.5	314	12	
2025-10-19T00:00	6420	456	-22.2	-32.5	314	12	
2025-10-19T00:00	6440	455	-22.4	-32.5	314	13	
2025-10-19T00:00	6460	454	-22.6	-32.6	313	13	
2025-10-19T00:00	6480	452	-22.8	-32.6	312	13	
2025-10-19T00:00	6500	451	-23.0	-32.7	311	13	
2025-10-19T00:00	6520	450	-23.1	-32.6	310	13	
2025-10-19T00:00	6540	449	-23.3	-32.7	309	13	
2025-10-19T00:00	6560	448	-23.5	-32.7	308	13	
2025-10-19T00:00	6580	446	-23.7	-32.8	308	13	
2025-10-19T00:00	6600	445	-23.9	-32.9	307	13	
2025-10-19T00:00	6620	444	-24.1	-33.0	307	12	
2025-10-19T00:00	6640	443	-24.3	-32.9	307	12	
2025-10-19T00:00	6660	441	-24.5	-32.9	306	12	
2025-10-19T00:00	6680	440	-24.7	-33.0	305	12	
2025-10-19T00:00	6700	439	-24.9	-33.1	304	12	
2025-10-19T00:00	6720	438	-25.1	-33.1	304	11	
2025-10-19T00:00	6740	437	-25.3	-33.2	303	12	
2025-10-19T00:00	6760	436	-25.4	-32.9	303	12	
2025-10-19T00:00	6780	434	-25.7	-33.3	303	12	
2025-10-19T00:00	6800	433	-25.8	-33.0	305	12	
2025-10-19T00:00	6820	432	-26.1	-32.2	307	13	
2025-10-19T00:00	6840	431	-26.2	-30.8	309	13	
2025-10-19T00:00	6860	430	-26.2	-28.9	310	14	
2025-10-19T00:00	6880	428	-26.3	-29.2	311	15	
2025-10-19T00:00	6900	427	-26.5	-29.7	312	16	
2025-10-19T00:00	6920	426	-26.7	-29.4	312	16	
2025-10-19T00:00	6940	425	-26.7	-28.8	311	17	
2025-10-19T00:00	6960	424	-26.7	-29.2	310	17	
2025-10-19T00:00	6980	422	-26.7	-29.3	308	17	
2025-10-19T00:00	7000	421	-26.8	-29.4	307	17	
2025-10-19T00:00	7020	420	-26.9	-29.5	306	17	
2025-10-19T00:00	7040	419	-27.0	-29.6	305	17	
2025-10-19T00:00	7060	418	-27.1	-29.7	305	17	
2025-10-19T00:00	7080	417	-27.3	-29.8	304	17	
2025-10-19T00:00	7100	415	-27.4	-29.9	304	17	
2025-10-19T00:00	7120	414	-27.5	-29.9	305	17	
2025-10-19T00:00	7140	413	-27.5	-30.2	305	17	
2025-10-19T00:00	7160	412	-27.6	-30.3	307	16	
2025-10-19T00:00	7180	411	-27.6	-30.4	309	16	
2025-10-19T00:00	7200	410	-27.6	-30.6	310	16	
2025-10-19T00:00	7220	409	-27.7	-30.6	312	15	
2025-10-19T00:00	7240	408	-27.5	-30.3	314	15	
2025-10-19T00:00	7260	406	-27.4	-30.4	316	15	
2025-10-19T00:00	7280	405	-27.5	-30.7	318	14	
2025-10-19T00:00	7300	404	-27.5	-30.6	319	14	
2025-10-19T00:00	7320	403	-27.3	-30.4	320	14	
2025-10-19T00:00	7340	402	-27.3	-30.3	321	14	
2025-10-19T00:00	7360	401	-27.2	-30.1	321	14	
2025-10-19T00:00	7380	400	-27.3	-30.2	321	14	
2025-10-19T00:00	7400	398	-27.3	-30.2	322	14	
2025-10-19T00:00	7420	397	-27.4	-30.3	322	14	
2025-10-19T00:00	7440	396	-27.6	-30.4	323	14	
2025-10-19T00:00	7460	395	-27.6	-30.5	323	14	
2025-10-19T00:00	7480	394	-27.7	-30.6	324	14	
2025-10-19T00:00	7500	393	-27.8	-30.8	323	13	
2025-10-19T00:00	7520	392	-27.8	-30.8	323	13	
2025-10-19T00:00	7540	391	-27.8	-30.8	322	13	
2025-10-19T00:00	7560	390	-27.9	-30.8	322	13	
2025-10-19T00:00	7580	389	-28.0	-30.9	322	14	
2025-10-19T00:00	7600	388	-28.1	-31.0	322	14	
2025-10-19T00:00	7620	387	-28.2	-31.1	322	14	
2025-10-19T00:00	7640	385	-28.4	-31.2	323	14	
2025-10-19T00:00	7660	384	-28.5	-31.4	324	14	
2025-10-19T00:00	7680	383	-28.7	-31.5	325	14	
2025-10-19T00:00	7700	382	-28.8	-31.6	325	14	
2025-10-19T00:00	7720	381	-29.0	-31.6	326	14	
2025-10-19T00:00	7740	380	-29.2	-31.6	326	14	
2025-10-19T00:00	7760	379	-29.3	-31.8	327	14	
2025-10-19T00:00	7780	378	-29.4	-31.8	328	14	
2025-10-19T00:00	7800	377	-29.5	-31.9	330	15	
2025-10-19T00:00	7820	376	-29.6	-32.1	332	15	
2025-10-19T00:00	7840	375	-29.8	-32.1	333	15	
2025-10-19T00:00	7860	374	-29.9	-32.3	334	15	
2025-10-19T00:00	7880	373	-30.1	-32.6	335	15	
2025-10-19T00:00	7900	372	-30.2	-32.6	336	15	
2025-10-19T00:00	7920	371	-30.4	-32.7	336	16	
2025-10-19T00:00	7940	370	-30.6	-32.8	336	16	
2025-10-19T00:00	7960	369	-30.7	-32.9	336	16	
2025-10-19T00:00	7980	367	-30.8	-33.1	335	16	
2025-10-19T00:00	8000	366	-31.0	-33.4	335	16	
2025-10-19T00:00	8020	365	-31.2	-33.4	334	16	
2025-10-19T00:00	8040	364	-31.3	-33.4	334	16	
2025-10-19T00:00	8060	363	-31.5	-33.5	334	16	
2025-10-19T00:00	8080	362	-31.6	-33.8	335	16	
2025-10-19T00:00	8100	361	-31.8	-34.1	335	17	
2025-10-19T00:00	8120	360	-31.9	-34.1	335	17	
2025-10-19T00:00	8140	359	-32.1	-34.1	335	17	
2025-10-19T00:00	8160	358	-32.3	-34.2	335	17	
2025-10-19T00:00	8180	357	-32.5	-34.5	334	17	
2025-10-19T00:00	8200	356	-32.6	-34.5	334	17	
2025-10-19T00:00	8220	355	-32.8	-34.6	334	17	
2025-10-19T00:00	8240	354	-32.9	-34.8	334	17	
2025-10-19T00:00	8260	353	-33.1	-35.0	334	17	
2025-10-19T00:00	8280	352	-33.2	-35.2	334	17	
2025-10-19T00:00	8300	351	-33.4	-35.3	334	17	
2025-10-19T00:00	8320	350	-33.6	-35.5	335	18	
2025-10-19T00:00	8340	349	-33.7	-35.7	335	18	
2025-10-19T00:00	8360	348	-33.9	-35.7	336	18	
2025-10-19T00:00	8380	347	-34.1	-35.8	336	18	
2025-10-19T00:00	8400	346	-34.2	-36.0	337	18	
2025-10-19T00:00	8420	345	-34.4	-36.4	337	18	
2025-10-19T00:00	8440	344	-34.5	-36.7	337	18	
2025-10-19T00:00	8460	343	-34.6	-36.7	337	18	
2025-10-19T00:00	8480	342	-34.8	-36.7	337	18	
2025-10-19T00:00	8500	341	-34.9	-37.0	336	17	
2025-10-19T00:00	8520	340	-35.1	-37.2	336	17	
2025-10-19T00:00	8540	339	-35.3	-37.2	336	17	
2025-10-19T00:00	8560	338	-35.5	-37.3	336	17	
2025-10-19T00:00	8580	337	-35.6	-37.7	336	17	
2025-10-19T00:00	8600	336	-35.8	-38.1	336	17	
2025-10-19T00:00	8620	335	-35.9	-38.3	336	17	
2025-10-19T00:00	8640	335	-36.1	-38.2	336	17	
2025-10-19T00:00	8660	334	-36.3	-38.2	337	17	
2025-10-19T00:00	8680	333	-36.5	-38.3	337	17	
2025-10-19T00:00	8700	332	-36.6	-38.6	338	17	
2025-10-19T00:00	8720	331	-36.8	-38.8	338	17	
2025-10-19T00:00	8740	330	-36.9	-38.7	339	17	
2025-10-19T00:00	8760	329	-37.1	-38.8	340	17	
2025-10-19T00:00	8780	328	-37.2	-39.2	340	17	
2025-10-19T00:00	8800	327	-37.4	-39.4	341	17	
2025-10-19T00:00	8820	326	-37.5	-39.6	341	17	
2025-10-19T00:00	8840	325	-37.6	-39.9	342	17	
2025-10-19T00:00	8860	324	-37.8	-40.3	342	18	
2025-10-19T00:00	8880	323	-37.9	-40.4	342	18	
2025-10-19T00:00	8900	322	-38.1	-40.4	342	18	
2025-10-19T00:00	8920	321	-38.3	-40.4	342	18	
2025-10-19T00:00	8940	320	-38.5	-40.5	342	18	
2025-10-19T00:00	8960	319	-38.6	-40.8	342	18	
2025-10-19T00:00	8980	318	-38.8	-40.9	342	18	
2025-10-19T00:00	9000	317	-38.9	-41.1	342	18	
2025-10-19T00:00	9020	316	-39.1	-41.4	343	18	
2025-10-19T00:00	9040	316	-39.3	-41.6	343	18	
2025-10-19T00:00	9060	315	-39.4	-41.8	343	18	
2025-10-19T00:00	9080	314	-39.6	-42.0	343	18	
2025-10-19T00:00	9100	313	-39.7	-42.5	343	18	
2025-10-19T00:00	9120	312	-39.9	-42.6	343	18	
2025-10-19T00:00	9140	311	-40.0	-42.8	343	19	
2025-10-19T00:00	9160	310	-40.2	-43.0	343	19	
2025-10-19T00:00	9180	309	-40.4	-43.2	343	19	
2025-10-19T00:00	9200	308	-40.5	-43.4	343	19	
2025-10-19T00:00	9220	307	-40.7	-43.9	343	19	
2025-10-19T00:00	9240	307	-40.8	-44.1	343	19	
2025-10-19T00:00	9260	306	-41.0	-44.3	343	19	
2025-10-19T00:00	9280	305	-41.2	-44.3	342	19	
2025-10-19T00:00	9300	304	-41.4	-44.5	342	19	
2025-10-19T00:00	9320	303	-41.6	-44.8	341	19	
2025-10-19T00:00	9340	302	-41.7	-44.9	341	19	
2025-10-19T00:00	9360	301	-41.9	-45.1	341	18	
2025-10-19T00:00	9380	300	-42.0	-45.4	340	18	
2025-10-19T00:00	9400	299	-42.2	-45.8	340	18	
2025-10-19T00:00	9420	298	-42.4	-45.9	340	18	
2025-10-19T00:00	9440	298	-42.5	-45.9	339	18	
2025-10-19T00:00	9460	297	-42.7	-46.1	339	18	
2025-10-19T00:00	9480	296	-42.9	-46.7	339	18	
2025-10-19T00:00	9500	295	-43.1	-46.9	338	18	
2025-10-19T00:00	9520	294	-43.3	-47.0	338	18	
2025-10-19T00:00	9540	293	-43.4	-47.1	337	17	
2025-10-19T00:00	9560	292	-43.6	-47.1	336	17	
2025-10-19T00:00	9580	291	-43.8	-47.4	336	17	
2025-10-19T00:00	9600	291	-44.0	-47.6	335	17	
2025-10-19T00:00	9620	290	-44.1	-47.9	335	17	
2025-10-19T00:00	9640	289	-44.3	-48.1	335	17	
2025-10-19T00:00	9660	288	-44.4	-48.0	335	17	
2025-10-19T00:00	9680	287	-44.5	-48.0	335	17	
2025-10-19T00:00	9700	286	-44.7	-48.2	335	18	
2025-10-19T00:00	9720	285	-44.9	-48.6	336	18	
2025-10-19T00:00	9740	285	-45.0	-48.8	336	18	
2025-10-19T00:00	9760	284	-45.2	-48.9	336	18	
2025-10-19T00:00	9780	283	-45.4	-49.0	337	18	
2025-10-19T00:00	9800	282	-45.6	-49.1	337	18	
2025-10-19T00:00	9820	281	-45.8	-49.4	337	18	
2025-10-19T00:00	9840	280	-46.0	-49.6	337	18	
2025-10-19T00:00	9860	279	-46.1	-49.9	337	19	
2025-10-19T00:00	9880	279	-46.3	-50.3	337	19	
2025-10-19T00:00	9900	278	-46.4	-50.6	337	19	
2025-10-19T00:00	9920	277	-46.6	-50.7	336	19	
2025-10-19T00:00	9940	276	-46.8	-50.8	336	20	
2025-10-19T00:00	9960	275	-46.9	-50.9	336	20	
2025-10-19T00:00	9980	275	-47.0	-50.9	336	20	
2025-10-19T00:00	10000	274	-47.1	-50.9	337	20	
2025-10-19T00:00	10018	273	-47.2	-51.0	337	20	
2025-10-19T00:00	10050	272	-47.4	-51.5	337	20	
2025-10-19T00:00	10100	270	-47.9	-52.0	337	21	
2025-10-19T00:00	10150	268	-48.3	-52.4	337	21	
2025-10-19T00:00	10200	266	-48.8	-52.7	338	21	
2025-10-19T00:00	10250	263	-49.1	-53.1	339	21	
2025-10-19T00:00	10300	261	-49.5	-53.7	338	21	
2025-10-19T00:00	10350	259	-49.9	-54.2	338	21	
2025-10-19T00:00	10400	257	-50.4	-54.5	338	21	
2025-10-19T00:00	10450	255	-50.9	-55.1	338	21	
2025-10-19T00:00	10500	254	-51.3	-55.5	339	22	
2025-10-19T00:00	10550	252	-51.8	-55.9	339	22	
2025-10-19T00:00	10600	250	-52.2	-56.3	339	23	
2025-10-19T00:00	10650	248	-52.7	-56.7	339	23	
2025-10-19T00:00	10700	246	-53.2	-57.2	339	23	
2025-10-19T00:00	10750	244	-53.6	-57.6	339	23	
2025-10-19T00:00	10800	242	-54.1	-58.3	339	23	
2025-10-19T00:00	10850	240	-54.5	-58.8	339	23	
2025-10-19T00:00	10900	238	-55.0	-59.2	339	23	
2025-10-19T00:00	10950	236	-55.5	-59.6	338	23	
2025-10-19T00:00	11000	235	-55.9	-59.9	338	23	
2025-10-19T00:00	11050	233	-56.4	-60.3	338	23	
2025-10-19T00:00	11100	231	-56.9	-60.7	338	23	
2025-10-19T00:00	11150	229	-57.3	-61.3	339	24	
2025-10-19T00:00	11200	227	-57.8	-61.9	340	24	
2025-10-19T00:00	11250	226	-58.2	-62.5	341	25	
2025-10-19T00:00	11300	224	-58.6	-63.0	341	26	
2025-10-19T00:00	11350	222	-59.0	-63.2	340	27	
2025-10-19T00:00	11400	220	-59.3	-63.6	340	27	
2025-10-19T00:00	11450	218	-59.7	-64.0	340	28	
2025-10-19T00:00	11500	217	-60.1	-64.6	340	28	
2025-10-19T00:00	11550	215	-60.6	-65.0	341	28	
2025-10-19T00:00	11600	213	-61.0	-65.5	341	28	
2025-10-19T00:00	11650	211	-61.5	-66.1	342	28	
2025-10-19T00:00	11700	210	-61.9	-66.6	342	28	
2025-10-19T00:00	11750	208	-62.3	-67.0	342	29	
2025-10-19T00:00	11800	207	-62.7	-67.4	342	29	
2025-10-19T00:00	11850	205	-63.1	-67.8	342	29	
2025-10-19T00:00	11900	203	-63.5	-68.1	342	30	
2025-10-19T00:00	11950	201	-64.0	-68.7	342	30	
2025-10-19T00:00	12000	200	-64.5	-69.3	342	30	
2025-10-19T00:00	12050	198	-64.9	-69.8	343	30	
2025-10-19T00:00	12100	197	-65.2	-70.1	343	29	
2025-10-19T00:00	12150	195	-65.5	-70.3	343	29	
2025-10-19T00:00	12200	193	-65.4	-70.0	342	28	
2025-10-19T00:00	12250	192	-64.6	-69.1	343	26	
2025-10-19T00:00	12300	190	-64.1	-68.8	344	23	
2025-10-19T00:00	12350	189	-63.9	-69.0	344	22	
2025-10-19T00:00	12400	187	-64.0	-69.7	340	22	
2025-10-19T00:00	12450	186	-64.1	-69.9	336	22	
2025-10-19T00:00	12500	184	-64.3	-70.5	333	23	
2025-10-19T00:00	12550	183	-63.6	-72.7	332	24	
2025-10-19T00:00	12600	181	-62.6	-76.4	332	23	
2025-10-19T00:00	12650	180	-61.8	-78.8	335	22	
2025-10-19T00:00	12700	178	-60.9	-78.9	340	21	
2025-10-19T00:00	12750	177	-60.7	-78.6	340	20	
2025-10-19T00:00	12800	175	-60.7	-77.2	338	19	
2025-10-19T00:00	12850	174	-61.0	-75.6	337	19	
2025-10-19T00:00	12900	173	-61.3	-74.9	339	19	
2025-10-19T00:00	12950	171	-61.5	-74.8	339	20	
2025-10-19T00:00	13000	170	-61.8	-75.0	339	20	
2025-10-19T00:00	13050	168	-62.1	-75.2	339	20	
2025-10-19T00:00	13100	167	-62.5	-75.4	340	20	
2025-10-19T00:00	13150	166	-62.8	-75.7	339	20	
2025-10-19T00:00	13200	164	-63.0	-76.5	337	20	
2025-10-19T00:00	13250	163	-63.0	-77.7	335	20	
2025-10-19T00:00	13300	162	-62.7	-78.2	336	21	
2025-10-19T00:00	13350	160	-62.4	-78.0	337	22	
2025-10-19T00:00	13400	159	-62.6	-78.0	339	22	
2025-10-19T00:00	13450	158	-62.7	-78.2	339	21	
2025-10-19T00:00	13500	157	-62.9	-78.7	338	21	
2025-10-19T00:00	13550	155	-63.3	-79.4	337	21	
2025-10-19T00:00	13600	154	-63.2	-80.1	337	20	
2025-10-19T00:00	13650	153	-62.9	-81.0	336	19	
2025-10-19T00:00	13700	152	-62.6	-81.7	335	18	
2025-10-19T00:00	13750	150	-62.0	-81.8	333	17	
2025-10-19T00:00	13800	149	-61.9	-82.0	329	17	
2025-10-19T00:00	13850	148	-62.1	-82.0	328	17	
2025-10-19T00:00	13900	147	-62.0	-82.0	328	18	
2025-10-19T00:00	13950	146	-62.1	-82.2	330	18	
2025-10-19T00:00	14000	144	-61.5	-82.1	333	18	
2025-10-19T00:00	14050	143	-61.3	-82.3	333	16	
2025-10-19T00:00	14100	142	-61.2	-82.4	331	16	
2025-10-19T00:00	14150	141	-61.2	-82.5	327	16	
2025-10-19T00:00	14200	140	-61.1	-82.6	325	17	
2025-10-19T00:00	14250	139	-61.0	-82.6	327	17	
2025-10-19T00:00	14300	138	-60.8	-82.6	330	17	
2025-10-19T00:00	14350	136	-60.6	-82.7	333	17	
2025-10-19T00:00	14400	135	-60.6	-82.7	334	17	
2025-10-19T00:00	14450	134	-60.6	-82.8	335	15	
2025-10-19T00:00	14500	133	-60.8	-82.9	332	14	
2025-10-19T00:00	14550	132	-60.8	-82.9	327	13	
2025-10-19T00:00	14600	131	-60.9	-83.1	323	13	
2025-10-19T00:00	14650	130	-60.6	-83.0	321	11	
2025-10-19T00:00	14700	129	-60.6	-83.1	321	10	
2025-10-19T00:00	14750	128	-60.4	-83.0	320	10	
2025-10-19T00:00	14800	127	-60.5	-83.1	320	11	
2025-10-19T00:00	14850	126	-60.7	-83.2	319	13	
2025-10-19T00:00	14900	125	-60.8	-83.3	320	13	
2025-10-19T00:00	14950	124	-60.7	-83.4	322	14	
2025-10-19T00:00	15000	123	-60.6	-83.4	324	14	
2025-10-19T00:00	15050	122	-60.8	-83.5	325	13	
2025-10-19T00:00	15100	121	-61.0	-83.5	325	12	
2025-10-19T00:00	15150	120	-61.1	-83.6	325	11	
2025-10-19T00:00	15200	119	-61.3	-83.6	324	10	
2025-10-19T00:00	15250	118	-61.4	-83.6	322	10	
2025-10-19T00:00	15300	117	-61.4	-83.6	321	11	
2025-10-19T00:00	15350	116	-61.5	-83.6	320	11	
2025-10-19T00:00	15400	115	-61.7	-83.5	318	11	
2025-10-19T00:00	15450	114	-62.0	-83.6	315	11	
2025-10-19T00:00	15500	113	-62.1	-83.7	312	12	
2025-10-19T00:00	15550	113	-62.2	-83.7	309	12	
2025-10-19T00:00	15600	112	-62.4	-83.8	307	12	
2025-10-19T00:00	15650	111	-62.6	-83.8	309	13	
2025-10-19T00:00	15700	110	-62.4	-83.7	313	13	
2025-10-19T00:00	15750	109	-62.1	-83.8	315	13	
2025-10-19T00:00	15800	108	-61.5	-83.8	315	13	
2025-10-19T00:00	15850	107	-61.5	-84.0	318	14	
2025-10-19T00:00	15900	106	-61.5	-84.0	323	13	
2025-10-19T00:00	15950	105	-61.6	-84.1	325	13	
2025-10-19T00:00	16000	105	-61.5	-84.1	327	12	
2025-10-19T00:00	16050	104	-61.5	-84.1	329	11	
2025-10-19T00:00	16100	103	-61.8	-84.2	332	10	
2025-10-19T00:00	16150	102	-62.1	-84.3	337	9	
2025-10-19T00:00	16200	101	-62.4	-84.3	340	9	
2025-10-19T00:00	16250	100	-62.7	-84.4	337	8	
2025-10-19T00:00	16300	100	-62.9	-84.5	330	8	
2025-10-19T00:00	16350	99	-63.0	-84.5	321	8	
2025-10-19T00:00	16400	98	-63.0	-84.5	315	9	
2025-10-19T00:00	16450	97	-63.3	-84.6	312	9	
2025-10-19T00:00	16500	96	-63.5	-84.7	309	8	
2025-10-19T00:00	16550	96	-63.7	-84.8	305	9	
2025-10-19T00:00	16600	95	-63.6	-84.8	302	9	
2025-10-19T00:00	16650	94	-63.6	-84.9	302	11	
2025-10-19T00:00	16700	93	-63.8	-85.0	304	12	
2025-10-19T00:00	16750	93	-63.6	-85.1	305	13	
2025-10-19T00:00	16800	92	-63.3	-85.2	307	13	
2025-10-19T00:00	16850	91	-63.2	-85.4	311	13	
2025-10-19T00:00	16900	90	-63.1	-85.5	317	13	
2025-10-19T00:00	16950	90	-63.0	-85.6	321	12	
2025-10-19T00:00	17000	89	-63.0	-85.6	320	11	
2025-10-19T00:00	17050	88	-63.1	-85.7	316	11	
2025-10-19T00:00	17100	88	-63.2	-85.8	314	11	
2025-10-19T00:00	17150	87	-63.2	-85.9	313	11	
2025-10-19T00:00	17200	86	-63.0	-85.8	312	11	
2025-10-19T00:00	17250	85	-62.9	-85.9	311	10	
2025-10-19T00:00	17300	85	-62.7	-85.9	313	10	
2025-10-19T00:00	17350	84	-62.6	-86.0	319	11	
2025-10-19T00:00	17400	83	-62.5	-85.9	323	11	
2025-10-19T00:00	17450	83	-62.6	-86.0	324	11	
2025-10-19T00:00	17500	82	-62.6	-86.0	322	10	
2025-10-19T00:00	17550	81	-62.6	-85.9	318	10	
2025-10-19T00:00	17600	81	-62.9	-86.0	313	9	
2025-10-19T00:00	17650	80	-63.2	-86.1	309	9	
2025-10-19T00:00	17700	79	-63.2	-86.2	313	9	
2025-10-19T00:00	17750	79	-63.1	-86.2	317	9	
2025-10-19T00:00	17800	78	-63.1	-86.3	317	9	
2025-10-19T00:00	17850	77	-63.1	-86.3	314	9	
2025-10-19T00:00	17900	77	-62.9	-86.3	315	10	
2025-10-19T00:00	17950	76	-63.1	-86.5	320	10	
2025-10-19T00:00	18000	76	-62.8	-86.4	324	10	
2025-10-19T00:00	18050	75	-62.6	-86.5	322	10	
2025-10-19T00:00	18100	74	-62.4	-86.5	316	9	
2025-10-19T00:00	18150	74	-62.4	-86.5	308	9	
2025-10-19T00:00	18200	73	-62.3	-86.5	301	9	
2025-10-19T00:00	18250	73	-62.1	-86.4	298	8	
2025-10-19T00:00	18300	72	-62.1	-86.4	298	7	
2025-10-19T00:00	18350	71	-62.0	-86.4	301	7	
2025-10-19T00:00	18400	71	-62.0	-86.4	306	8	
2025-10-19T00:00	18450	70	-62.2	-86.5	313	8	
2025-10-19T00:00	18500	70	-62.3	-86.6	319	8	
2025-10-19T00:00	18550	69	-62.1	-86.5	324	8	
2025-10-19T00:00	18600	69	-62.0	-86.4	326	9	
2025-10-19T00:00	18650	68	-62.2	-86.5	325	9	
2025-10-19T00:00	18700	67	-62.3	-86.5	320	9	
2025-10-19T00:00	18750	67	-62.6	-86.5	313	9	
2025-10-19T00:00	18800	66	-62.9	-86.6	308	10	
2025-10-19T00:00	18850	66	-63.0	-86.7	306	10	
2025-10-19T00:00	18900	65	-63.1	-86.8	307	10	
2025-10-19T00:00	18950	65	-63.2	-86.9	307	10	
2025-10-19T00:00	19000	64	-63.1	-86.9	306	10	
2025-10-19T00:00	19050	64	-63.1	-86.9	306	10	
2025-10-19T00:00	19100	63	-63.3	-86.9	307	10	
2025-10-19T00:00	19150	63	-63.5	-87.0	309	11	
2025-10-19T00:00	19200	62	-63.4	-87.0	311	11	
2025-10-19T00:00	19250	62	-63.4	-87.0	314	11	
2025-10-19T00:00	19300	61	-63.6	-87.0	314	11	
2025-10-19T00:00	19350	61	-63.8	-87.1	312	10	
2025-10-19T00:00	19400	60	-63.8	-87.4	309	10	
2025-10-19T00:00	19450	60	-63.3	-87.4	304	9	
2025-10-19T00:00	19500	59	-62.5	-87.2	301	10	
2025-10-19T00:00	19550	59	-62.3	-87.2	303	10	
2025-10-19T00:00	19600	58	-61.9	-86.9	307	9	
2025-10-19T00:00	19650	58	-61.9	-86.8	311	9	
2025-10-19T00:00	19700	57	-62.0	-86.8	315	9	
2025-10-19T00:00	19750	57	-62.1	-86.7	315	9	
2025-10-19T00:00	19800	56	-62.2	-86.8	310	9	
2025-10-19T00:00	19850	56	-62.2	-86.8	306	9	
2025-10-19T00:00	19900	56	-62.4	-87.0	304	9	
2025-10-19T00:00	19950	55	-62.3	-87.0	301	8	
2025-10-19T00:00	20000	55	-61.8	-86.9	301	7	
2025-10-19T00:00	20050	54	-61.6		308	7	
2025-10-19T00:00	20100	54	-61.2		318	8	
2025-10-19T00:00	20150	53	-61.3		324	8	
2025-10-19T00:00	20200	53	-61.1		323	8	
2025-10-19T00:00	20250	52	-60.7		315	7	
2025-10-19T00:00	20300	52	-60.5		306	7	
2025-10-19T00:00	20350	52	-60.7		299	7	
2025-10-19T00:00	20400	51	-61.0		295	8	
2025-10-19T00:00	20450	51	-61.3		294	8	
2025-10-19T00:00	20500	50	-61.4		296	8	
2025-10-19T00:00	20550	50	-61.5		303	9	
2025-10-19T00:00	20600	50	-61.3		310	9	
2025-10-19T00:00	20650	49	-60.8		312	9	
2025-10-19T00:00	20700	49	-60.4		309	9	
2025-10-19T00:00	20750	48	-60.4		304	9	
2025-10-19T00:00	20800	48	-60.6		301	10	
2025-10-19T00:00	20850	48	-60.7		304	10	
2025-10-19T00:00	20900	47	-61.0		311	10	
2025-10-19T00:00	20950	47	-61.2		318	10	
2025-10-19T00:00	21000	46	-61.4		323	10	
2025-10-19T00:00	21050	46	-61.7		329	9	
2025-10-19T00:00	21100	46	-61.9		335	8	
2025-10-19T00:00	21150	45	-61.9		340	8	
2025-10-19T00:00	21200	45	-62.2		339	8	
2025-10-19T00:00	21250	45	-62.3		337	8	
2025-10-19T00:00	21300	44	-62.3		337	7	
2025-10-19T00:00	21350	44	-62.3		338	5	
2025-10-19T00:00	21400	44	-62.0		334	3	
2025-10-19T00:00	21450	43	-61.9		313	2	
2025-10-19T00:00	21500	43	-61.9		273	2	
2025-10-19T00:00	21550	43	-61.9		251	2	
2025-10-19T00:00	21600	42	-62.0		253	2	
2025-10-19T00:00	21650	42	-62.0		273	2	
2025-10-19T00:00	21700	42	-62.1		288	3	
2025-10-19T00:00	21750	41	-62.1		294	4	
2025-10-19T00:00	21800	41	-62.1		298	6	
2025-10-19T00:00	21850	41	-62.3		303	7	
2025-10-19T00:00	21900	40	-62.3		307	7	
2025-10-19T00:00	21950	40	-62.0		308	6	
2025-10-19T00:00	22000	40	-61.8		305	6	
2025-10-19T00:00	22050	39	-61.9		297	6	
2025-10-19T00:00	22100	39	-61.7		287	6	
2025-10-19T00:00	22150	39	-61.6		281	6	
2025-10-19T00:00	22200	38	-61.4		283	6	
2025-10-19T00:00	22250	38	-61.3		287	7	
2025-10-19T00:00	22300	38	-61.2		287	7	
2025-10-19T00:00	22350	37	-60.9		283	8	
2025-10-19T00:00	22400	37	-61.2		283	8	
2025-10-19T00:00	22450	37	-61.5		288	9	
2025-10-19T00:00	22500	36	-61.4		295	9	
2025-10-19T00:00	22550	36	-61.2		299	9	
2025-10-19T00:00	22600	36	-61.1		298	8	
2025-10-19T00:00	22650	36	-60.8		295	8	
2025-10-19T00:00	22700	35	-60.6		291	7	
2025-10-19T00:00	22750	35	-60.6		288	7	
2025-10-19T00:00	22800	35	-60.7		283	8	
2025-10-19T00:00	22850	34	-60.7		278	8	
2025-10-19T00:00	22900	34	-60.9		273	9	
2025-10-19T00:00	22950	34	-60.9		272	11	
2025-10-19T00:00	23000	34	-61.1		274	12	
2025-10-19T00:00	23050	33	-61.2		278	13	
2025-10-19T00:00	23100	33	-61.0		283	14	
2025-10-19T00:00	23150	33	-60.7		288	15	
2025-10-19T00:00	23200	33	-60.2		293	15	
2025-10-19T00:00	23250	32	-59.9		298	15	
2025-10-19T00:00	23300	32	-59.6		303	15	
2025-10-19T00:00	23350	32	-59.9		308	15	
2025-10-19T00:00	23400	32	-59.9		311	15	
2025-10-19T00:00	23450	31	-59.7		314	15	
2025-10-19T00:00	23500	31	-59.7		315	15	
2025-10-19T00:00	23550	31	-59.5		316	14	
2025-10-19T00:00	23600	31	-59.5		317	13	
2025-10-19T00:00	23650	30	-59.7		315	12	
2025-10-19T00:00	23700	30	-60.0		312	11	
2025-10-19T00:00	23750	30	-60.0		308	10	
2025-10-19T00:00	23800	30	-59.7		306	9	
2025-10-19T00:00	23850	29	-59.8		304	9	
2025-10-19T00:00	23900	29	-59.7		301	8	
2025-10-19T00:00	23950	29	-59.4		299	8	
2025-10-19T00:00	24000	29	-59.3		296	8	
2025-10-19T00:00	24050	28	-59.3		294	9	
2025-10-19T00:00	24100	28	-59.4		294	9	
2025-10-19T00:00	24150	28	-59.5		295	10	
2025-10-19T00:00	24200	28	-59.7		296	10	
2025-10-19T00:00	24250	28	-59.6		298	10	
2025-10-19T00:00	24300	27	-59.5		298	11	
2025-10-19T00:00	24350	27	-59.3		297	12	
2025-10-19T00:00	24400	27	-59.0		297	13	
2025-10-19T00:00	24450	27	-58.6		299	13	
2025-10-19T00:00	24500	26	-58.0		302	12	
2025-10-19T00:00	24550	26	-57.6		303	12	
2025-10-19T00:00	24600	26	-57.6		301	12	
2025-10-19T00:00	24650	26	-57.5		296	11	
2025-10-19T00:00	24700	26	-57.3		294	10	
2025-10-19T00:00	24750	25	-57.3		292	10	
2025-10-19T00:00	24800	25	-57.5		287	9	
2025-10-19T00:00	24850	25	-57.5		278	8	
2025-10-19T00:00	24900	25	-57.5		268	8	
2025-10-19T00:00	24950	25	-57.4		262	8	
2025-10-19T00:00	25000	24	-57.4		261	9	
2025-10-19T00:00	25050	24	-57.5		262	9	
2025-10-19T00:00	25100	24	-57.6		260	9	
2025-10-19T00:00	25150	24	-57.5		254	9	
2025-10-19T00:00	25200	24	-57.6		246	9	
2025-10-19T00:00	25250	24	-57.7		242	10	
2025-10-19T00:00	25300	23	-57.7		242	10	
2025-10-19T00:00	25350	23	-58.0		248	11	
2025-10-19T00:00	25400	23	-58.2		257	12	
2025-10-19T00:00	25450	23	-58.2		265	14	
2025-10-19T00:00	25500	23	-58.1		273	14	
2025-10-19T00:00	25550	22	-57.9		279	15	
2025-10-19T00:00	25600	22	-58.0		283	15	
2025-10-19T00:00	25650	22	-58.3		286	14	
2025-10-19T00:00	25700	22	-58.7		290	13	
2025-10-19T00:00	25750	22	-59.1		294	13	
2025-10-19T00:00	25800	22	-59.5		299	12	
2025-10-19T00:00	25850	21	-59.8		302	11	
2025-10-19T00:00	25900	21	-59.8		301	10	
2025-10-19T00:00	25950	21	-59.6		297	10	
2025-10-19T00:00	26000	21	-59.4		291	10	
2025-10-19T00:00	26050	21	-58.9		286	10	
2025-10-19T00:00	26100	21	-58.5		281	11	
2025-10-19T00:00	26150	20	-58.1		277	11	
2025-10-19T00:00	26200	20	-57.7		271	10	
2025-10-19T00:00	26250	20	-57.5		266	11	
2025-10-19T00:00	26300	20	-57.5		265	12	
2025-10-19T00:00	26350	20	-56.8		269	14	
2025-10-19T00:00	26400	20	-55.9		274	16	
2025-10-19T00:00	26450	19	-55.8		280	17	
2025-10-19T00:00	26500	19	-55.8		286	17	
2025-10-19T00:00	26550	19	-55.8		291	17	
2025-10-19T00:00	26600	19	-55.8		296	17	
2025-10-19T00:00	26650	19	-55.6		298	16	
2025-10-19T00:00	26700	19	-55.2		296	16	
2025-10-19T00:00	26750	19	-55.2		294	16	
2025-10-19T00:00	26800	18	-55.1		292	16	
2025-10-19T00:00	26850	18	-55.1		292	16	
2025-10-19T00:00	26900	18	-55.2		294	15	
2025-10-19T00:00	26950	18	-55.6		295	14	
2025-10-19T00:00	27000	18	-56.0		294	13	
2025-10-19T00:00	27050	18	-56.2		290	12	
2025-10-19T00:00	27100	18	-55.9		284	13	
2025-10-19T00:00	27150	17	-55.9		278	13	
2025-10-19T00:00	27200	17	-55.4		275	14	
2025-10-19T00:00	27250	17	-55.3		273	14	
2025-10-19T00:00	27300	17	-55.1		274	14	
2025-10-19T00:00	27350	17	-55.0		278	13	
2025-10-19T00:00	27400	17	-55.2		284	12	
2025-10-19T00:00	27450	17	-55.2		291	11	
2025-10-19T00:00	27500	16	-55.6		298	11	
2025-10-19T00:00	27550	16	-55.9		304	10	
2025-10-19T00:00	27600	16	-56.2		307	10	
2025-10-19T00:00	27650	16	-56.2		308	10	
2025-10-19T00:00	27700	16	-55.6		308	11	
2025-10-19T00:00	27750	16	-55.1		310	13	
2025-10-19T00:00	27800	16	-54.9		314	14	
2025-10-19T00:00	27850	16	-54.9		319	16	
2025-10-19T00:00	27900	15	-55.1		321	17	
2025-10-19T00:00	27950	15	-55.1		320	18	
2025-10-19T00:00	28000	15	-54.7		317	17	
2025-10-19T00:00	28050	15	-54.2		314	16	
2025-10-19T00:00	28100	15	-53.9		311	15	
2025-10-19T00:00	28150	15	-53.6		306	14	
2025-10-19T00:00	28200	15	-53.0		303	14	
2025-10-19T00:00	28250	15	-52.3		302	14	
2025-10-19T00:00	28300	15	-52.0		302	13	
2025-10-19T00:00	28350	14	-52.0		303	11	
2025-10-19T00:00	28400	14	-52.1		300	11	
2025-10-19T00:00	28450	14	-52.1		294	11	
2025-10-19T00:00	28500	14	-52.1		288	11	
2025-10-19T00:00	28550	14	-51.8		284	11	
2025-10-19T00:00	28600	14	-51.6		281	12	
2025-10-19T00:00	28650	14	-51.3		281	12	
2025-10-19T00:00	28700	14	-51.0		283	13	
2025-10-19T00:00	28750	14	-50.8		284	14	
2025-10-19T00:00	28800	13	-50.6		284	15	
2025-10-19T00:00	28850	13	-50.6		284	15	
2025-10-19T00:00	28900	13	-50.6		285	14	
2025-10-19T00:00	28950	13	-50.8		285	14	
2025-10-19T00:00	29000	13	-51.1		284	13	
2025-10-19T00:00	29050	13	-51.1		281	13	
2025-10-19T00:00	29100	13	-50.9		279	13	
2025-10-19T00:00	29150	13	-50.7		279	13	
2025-10-19T00:00	29200	13	-50.3		283	13	
2025-10-19T00:00	29250	13	-50.0		289	13	
2025-10-19T00:00	29300	12	-50.1		292	13	
2025-10-19T00:00	29350	12	-50.1		289	14	
2025-10-19T00:00	29400	12	-49.2		282	15	
2025-10-19T00:00	29450	12	-48.5		276	16	
2025-10-19T00:00	29500	12	-48.0		272	18	
2025-10-19T00:00	29550	12	-47.5		270	20	
2025-10-19T00:00	29600	12	-46.8		273	22	
2025-10-19T00:00	29650	12	-45.7		276	24	
2025-10-19T00:00	29700	12	-45.3		281	25	
2025-10-19T00:00	29750	12	-45.3		286	25	
2025-10-19T00:00	29800	12	-45.5		290	25	
2025-10-19T00:00	29850	11	-45.5		293	25	
2025-10-19T00:00	29900	11	-45.4		294	24	
2025-10-19T00:00	29950	11	-45.8		295	24	
2025-10-19T00:00	30000	11	-45.8		294	24	
2025-10-19T00:00	30050	11	-45.4		294	25	
2025-10-19T00:00	30100	11	-45.1		292	25	
2025-10-19T00:00	30150	11	-45.2		292	25	
2025-10-19T00:00	30200	11	-45.2		294	25	
2025-10-19T00:00	30250	11	-45.2		296	26	
2025-10-19T00:00	30300	11	-45.4		299	27	
2025-10-19T00:00	30350	11	-45.7		300	27	
2025-10-19T00:00	30400	11	-46.0		300	26	
2025-10-19T00:00	30450	10	-45.7		299	25	
2025-10-19T00:00	30500	10	-45.3		299	24	
2025-10-19T00:00	30550	10	-45.1		299	22	
2025-10-19T00:00	30600	10	-45.0		300	21	
2025-10-19T00:00	30650	10	-44.7		300	21	
2025-10-19T00:00	30700	10	-44.3		299	21	
2025-10-19T00:00	30750	10	-43.9		298	21	
2025-10-19T00:00	30800	10	-43.3		296	20	
2025-10-19T00:00	30850	10	-43.4		296	20	
2025-10-19T00:00	30900	10	-43.5		297	20	
2025-10-19T00:00	30950	10	-43.1		299	20	
2025-10-19T00:00	31000	10	-43.1		300	20	
2025-10-19T00:00	31050	10	-43.3		300	21	
2025-10-19T00:00	31100	10	-43.2		298	23	
2025-10-19T00:00	31150	9	-42.9		295	25	
2025-10-19T00:00	31200	9	-42.6		294	27	
2025-10-19T00:00	31250	9	-42.3		293	29	
2025-10-19T00:00	31300	9	-42.4		293	29	
2025-10-19T00:00	31350	9	-42.5		294	30	
2025-10-19T00:00	31400	9	-42.7		296	30	
2025-10-19T00:00	31450	9	-42.8		297	30	
2025-10-19T00:00	31500	9	-42.7		299	29	
2025-10-19T00:00	31550	9	-42.7		301	29	
2025-10-19T00:00	31600	9	-42.9		303	29	
2025-10-19T00:00	31650	9	-43.0		305	29	
2025-10-19T00:00	31700	9	-42.5		306	29	
2025-10-19T00:00	31750	9	-42.8		306	29	
2025-10-19T00:00	31800	9	-43.1		306	29	
2025-10-19T00:00	31850	9	-42.7		307	29	
2025-10-19T00:00	31900	8	-42.3		309	28	
2025-10-19T00:00	31950	8	-42.3		311	28	
2025-10-19T00:00	32000	8	-41.9		313	27	
2025-10-19T00:00	32050	8	-41.9		314	27	
2025-10-19T00:00	32100	8	-41.8		312	28	
2025-10-19T00:00	32150	8	-41.7		309	29	
2025-10-19T00:00	32200	8	-41.8		307	30	
2025-10-19T00:00	32250	8	-42.0		305	31	
2025-10-19T00:00	32300	8	-42.0		303	31	
2025-10-19T00:00	32350	8	-41.6		303	31	
2025-10-19T00:00	32400	8	-41.0		304	31	
2025-10-19T00:00	32450	8	-41.0		305	31	
2025-10-19T00:00	32500	8	-41.2		307	31	
2025-10-19T00:00	32550	8	-41.4		309	31	
2025-10-19T00:00	32600	8	-41.6		311	32	
2025-10-19T00:00	32650	8	-41.6		312	32	
2025-10-19T00:00	32700	8	-41.5		312	32	
2025-10-19T00:00	32750	7	-41.7		311	32	
2025-10-19T00:00	32800	7	-41.9		309	31	
2025-10-19T00:00	32850	7	-42.1		307	31	
2025-10-19T00:00	32900	7	-42.2		305	30	
2025-10-19T00:00	32950	7	-42.3		303	30	
2025-10-19T00:00	33000	7	-42.2		299	29	
2025-10-19T00:00	33050	7	-42.3		296	29	
2025-10-19T00:00	33100	7	-42.5		293	29	
2025-10-19T00:00	33150	7	-42.6		291	30	
2025-10-19T00:00	33200	7	-42.7		290	31	
2025-10-19T00:00	33250	7	-42.5		290	32	
2025-10-19T00:00	33300	7	-42.3		290	32	
2025-10-19T00:00	33350	7	-41.9		291	33	
2025-10-19T00:00	33400	7	-41.5		292	33	
2025-10-19T00:00	33450	7	-41.2		293	32	
2025-10-19T00:00	33500	7	-41.4		294	32	
2025-10-19T00:00	33550	7	-41.4		294	32	
2025-10-19T00:00	33600	7	-41.6		294	31	
2025-10-19T00:00	33650	7	-41.7		292	31	
2025-10-19T00:00	33700	6	-41.7		291	31	
2025-10-19T00:00	33750	6	-41.8		290	30	
2025-10-19T00:00	33800	6	-42.0		289	30	
2025-10-19T00:00	33850	6	-42.0		288	30	
2025-10-19T00:00	33900	6	-42.1		287	30	
2025-10-19T00:00	33950	6	-42.1		286	30	
2025-10-19T00:00	34000	6	-42.4		286	30	
2025-10-19T00:00	34050	6	-42.5		285	31	
2025-10-19T00:00	34100	6	-42.6		285	32	
2025-10-19T00:00	34150	6	-42.9		285	32	
2025-10-19T00:00	34200	6	-42.7		286	32	
2025-10-19T00:00	34250	6	-42.5		287	31	
2025-10-19T00:00	34300	6	-42.5		288	30	
2025-10-19T00:00	34350	6	-42.6		289	29	
2025-10-19T00:00	34400	6	-42.8		290	28	
2025-10-19T00:00	34450	6	-42.7		291	27	
2025-10-19T00:00	34500	6	-42.4		291	27	
2025-10-19T00:00	34550	6	-42.5		290	27	
2025-10-19T00:00	34600	6	-42.7		289	28	
2025-10-19T00:00	34650	6	-42.6		289	28	
2025-10-19T00:00	34700	6	-42.5		288	29	
2025-10-19T00:00	34750	6	-42.6		288	30	
2025-10-19T00:00	34800	6	-42.8		288	31	
2025-10-19T00:00	34850	5	-42.9		288	32	
2025-10-19T00:00	34900	5	-43.1		290	33	
2025-10-19T00:00	34950	5	-43.2		291	33	
2025-10-19T00:00	35000	5	-43.0		292	33	
2025-10-19T00:00	35050	5	-43.0		292	33	
2025-10-19T00:00	35100	5	-43.0		293	32	
2025-10-19T00:00	35150	5	-42.8		294	31	
2025-10-19T00:00	35200	5	-42.4		293	31	
2025-10-19T00:00	35250	5	-41.9		292	32	
2025-10-19T00:00	35300	5	-41.7		292	32	
2025-10-19T00:00	35350	5	-41.3		293	32	
2025-10-19T00:00	35400	5	-41.0		292	31	
2025-10-19T00:00	35450	5	-40.8		292	31	
2025-10-19T00:00	35500	5	-40.7		291	30	
2025-10-19T00:00	35550	5	-40.5		288	30	
2025-10-19T00:00	35600	5	-40.4		286	31	
2025-10-19T00:00	35650	5	-40.4		283	32	
2025-10-19T00:00	35700	5	-40.5		281	33	
2025-10-19T00:00	35750	5	-40.5		280	34	
2025-10-19T00:00	35800	5	-40.6		280	35	
2025-10-19T00:00	35850	5	-40.4		282	36	
2025-10-19T00:00	35900	5	-40.4		284	37	
2025-10-19T00:00	35950	5	-40.4		287	37	
2025-10-19T00:00	36000	5	-40.5		288	38	
2025-10-19T00:00	36050	5	-40.6		289	39	
2025-10-19T00:00	36100	5	-40.8		290	40	
2025-10-19T00:00	36150	5	-40.9		291	40	
2025-10-19T00:00	36200	4	-41.0		292	41	
2025-10-19T00:00	36250	4	-41.2		293	40	
2025-10-19T00:00	36300	4	-41.4		294	40	
2025-10-19T00:00	36350	4	-41.5		294	40	
2025-10-19T00:00	36400	4	-41.6		293	40	
2025-10-19T00:00	36450	4	-41.7		292	39	
2025-10-19T00:00	36500	4	-41.7		292	38	
2025-10-19T00:00	36550	4	-41.5		294	38	
2025-10-19T00:00	36600	4	-41.5		294	37	
2025-10-19T00:00	36650	4	-41.2		293	37	
2025-10-19T00:00	36700	4	-40.4		291	38	
2025-10-19T00:00	36750	4	-38.9		291	39	
2025-10-19T12:00	491	961	10.1	7.4	90	1	
2025-10-19T12:00	520	958	9.3	7.4	225	0	
2025-10-19T12:00	540	955	8.8	7.2	266	0	
2025-10-19T12:00	560	953	8.6	7.0	292	0	
2025-10-19T12:00	580	951	8.5	6.9	306	1	
2025-10-19T12:00	600	948	8.3	6.8	318	1	
2025-10-19T12:00	620	946	8.1	6.8	327	1	
2025-10-19T12:00	640	944	7.8	6.8	334	1	
2025-10-19T12:00	660	942	7.7	6.8	338	1	
2025-10-19T12:00	680	939	7.4	6.8	335	1	
2025-10-19T12:00	700	937	7.3	6.8	314	1	
2025-10-19T12:00	720	935	7.1	6.7	264	1	
2025-10-19T12:00	740	932	6.9	6.6	242	1	
2025-10-19T12:00	760	930	6.7	6.6	234	2	
2025-10-19T12:00	780	928	6.6	6.5	229	3	
2025-10-19T12:00	800	925	6.3	6.3	225	4	
2025-10-19T12:00	820	923	6.2	6.2	222	4	
2025-10-19T12:00	840	921	6.5	6.2	220	5	
2025-10-19T12:00	860	919	6.7	6.1	219	6	
2025-10-19T12:00	880	917	6.6	6.0	218	6	
2025-10-19T12:00	900	914	6.7	5.8	217	7	
2025-10-19T12:00	920	912	7.2	5.6	217	7	
2025-10-19T12:00	940	910	7.5	5.5	217	7	
2025-10-19T12:00	960	908	8.1	5.1	216	8	
2025-10-19T12:00	980	906	8.4	4.9	216	8	
2025-10-19T12:00	1000	903	8.6	4.8	216	9	
2025-10-19T12:00	1020	901	8.6	4.7	215	9	
2025-10-19T12:00	1040	899	8.4	4.6	216	9	
2025-10-19T12:00	1060	897	8.3	4.6	216	9	
2025-10-19T12:00	1080	895	8.1	4.6	217	10	
2025-10-19T12:00	1100	892	7.9	4.6	218	10	
2025-10-19T12:00	1120	890	7.8	4.4	218	10	
2025-10-19T12:00	1140	888	7.8	4.4	218	10	
2025-10-19T12:00	1160	886	7.6	4.4	218	10	
2025-10-19T12:00	1180	884	7.6	4.2	218	11	
2025-10-19T12:00	1200	882	7.5	4.1	219	11	
2025-10-19T12:00	1220	879	7.4	3.9	219	11	
2025-10-19T12:00	1240	878	7.5	3.6	219	12	
2025-10-19T12:00	1260	876	7.6	3.5	220	12	
2025-10-19T12:00	1280	873	7.7	3.4	221	12	
2025-10-19T12:00	1300	871	7.5	3.4	223	13	
2025-10-19T12:00	1320	869	7.3	3.2	224	13	
2025-10-19T12:00	1340	867	7.2	3.1	225	13	
2025-10-19T12:00	1360	865	7.1	3.0	226	14	
2025-10-19T12:00	1380	863	7.0	2.9	226	14	
2025-10-19T12:00	1400	861	6.9	2.9	226	15	
2025-10-19T12:00	1420	859	6.7	2.7	225	15	
2025-10-19T12:00	1440	857	6.8	2.3	224	16	
2025-10-19T12:00	1460	854	6.9	2.0	222	16	
2025-10-19T12:00	1480	852	7.0	1.6	220	16	
2025-10-19T12:00	1500	850	7.2	0.5	219	16	
2025-10-19T12:00	1520	848	7.2	0.2	219	16	
2025-10-19T12:00	1540	846	7.0	0.1	218	16	
2025-10-19T12:00	1560	844	6.9	0.1	219	16	
2025-10-19T12:00	1580	842	6.8	0.3	219	15	
2025-10-19T12:00	1600	840	6.7	0.9	220	15	
2025-10-19T12:00	1620	838	6.5	1.0	220	15	
2025-10-19T12:00	1640	836	6.4	1.2	219	15	
2025-10-19T12:00	1660	834	6.4	0.9	219	15	
2025-10-19T12:00	1680	832	6.5	0.5	218	15	
2025-10-19T12:00	1700	830	6.4	0.5	217	15	
2025-10-19T12:00	1720	828	6.2	0.3	217	16	
2025-10-19T12:00	1740	826	6.4	-1.0	216	17	
2025-10-19T12:00	1760	824	7.1	-3.6	216	17	
2025-10-19T12:00	1780	822	7.3	-5.2	215	18	
2025-10-19T12:00	1800	820	7.4	-6.8	215	18	
2025-10-19T12:00	1820	818	7.3	-7.2	214	19	
2025-10-19T12:00	1840	816	7.2	-8.0	214	19	
2025-10-19T12:00	1860	814	7.1	-8.8	214	19	
2025-10-19T12:00	1880	812	7.1	-9.6	214	19	
2025-10-19T12:00	1900	810	7.1	-10.1	214	19	
2025-10-19T12:00	1920	808	6.9	-10.2	214	19	
2025-10-19T12:00	1940	806	6.7	-10.1	215	19	
2025-10-19T12:00	1960	804	6.6	-11.1	215	20	
2025-10-19T12:00	1980	802	6.6	-12.0	216	20	
2025-10-19T12:00	2000	800	6.4	-12.3	216	20	
2025-10-19T12:00	2020	798	6.3	-12.6	217	20	
2025-10-19T12:00	2040	796	6.2	-13.6	218	20	
2025-10-19T12:00	2060	794	6.2	-15.7	218	20	
2025-10-19T12:00	2080	792	6.2	-17.3	218	20	
2025-10-19T12:00	2100	790	6.1	-18.3	218	20	
2025-10-19T12:00	2120	788	6.0	-18.7	218	19	
2025-10-19T12:00	2140	787	5.8	-18.6	218	19	
2025-10-19T12:00	2160	785	5.7	-18.8	218	19	
2025-10-19T12:00	2180	783	5.5	-18.8	217	19	
2025-10-19T12:00	2200	781	5.3	-19.1	217	18	
2025-10-19T12:00	2220	779	5.2	-20.1	217	18	
2025-10-19T12:00	2240	777	5.1	-21.2	217	18	
2025-10-19T12:00	2260	775	5.2	-23.5	217	17	
2025-10-19T12:00	2280	773	5.4	-25.4	217	17	
2025-10-19T12:00	2300	771	5.4	-25.5	217	16	
2025-10-19T12:00	2320	769	5.4	-26.1	217	16	
2025-10-19T12:00	2340	767	5.9	-27.0	217	16	
2025-10-19T12:00	2360	766	6.2	-27.3	218	15	
2025-10-19T12:00	2380	764	6.2	-27.5	220	15	
2025-10-19T12:00	2400	762	6.2	-27.6	221	15	
2025-10-19T12:00	2420	760	6.1	-27.5	223	15	
2025-10-19T12:00	2440	758	5.9	-27.6	226	15	
2025-10-19T12:00	2460	756	5.8	-27.7	230	15	
2025-10-19T12:00	2480	754	5.8	-27.5	233	14	
2025-10-19T12:00	2500	753	5.7	-27.5	237	14	
2025-10-19T12:00	2520	751	5.7	-27.5	240	13	
2025-10-19T12:00	2540	749	5.6	-27.5	241	13	
2025-10-19T12:00	2560	747	5.4	-27.5	241	13	
2025-10-19T12:00	2580	745	5.3	-27.5	241	13	
2025-10-19T12:00	2600	743	5.1	-27.5	241	13	
2025-10-19T12:00	2620	741	5.0	-27.5	241	12	
2025-10-19T12:00	2640	740	4.8	-27.6	242	12	
2025-10-19T12:00	2660	738	4.6	-27.6	243	12	
2025-10-19T12:00	2680	736	4.4	-27.6	245	12	
2025-10-19T12:00	2700	734	4.2	-27.6	246	12	
2025-10-19T12:00	2720	733	4.0	-27.6	246	11	
2025-10-19T12:00	2740	731	3.9	-27.6	246	11	
2025-10-19T12:00	2760	729	3.8	-27.7	244	11	
2025-10-19T12:00	2780	727	3.7	-27.8	242	10	
2025-10-19T12:00	2800	725	3.6	-27.9	241	10	
2025-10-19T12:00	2820	723	3.5	-27.9	238	10	
2025-10-19T12:00	2840	722	3.4	-27.9	237	10	
2025-10-19T12:00	2860	720	3.2	-28.0	237	10	
2025-10-19T12:00	2880	718	3.1	-28.1	238	10	
2025-10-19T12:00	2900	716	2.9	-28.2	239	10	
2025-10-19T12:00	2920	714	2.8	-28.3	240	10	
2025-10-19T12:00	2940	713	2.7	-28.4	242	10	
2025-10-19T12:00	2960	711	2.6	-28.5	242	10	
2025-10-19T12:00	2980	709	2.6	-28.6	243	10	
2025-10-19T12:00	3000	708	2.5	-28.5	242	10	
2025-10-19T12:00	3020	706	2.3	-28.5	241	10	
2025-10-19T12:00	3040	704	2.2	-28.5	240	10	
2025-10-19T12:00	3060	702	2.1	-28.1	239	11	
2025-10-19T12:00	3080	701	1.9	-27.2	238	11	
2025-10-19T12:00	3100	699	1.8	-26.2	237	11	
2025-10-19T12:00	3120	697	1.6	-25.9	236	11	
2025-10-19T12:00	3140	695	1.4	-25.2	235	11	
2025-10-19T12:00	3160	693	1.3	-25.2	235	11	
2025-10-19T12:00	3180	692	1.1	-24.9	235	11	
2025-10-19T12:00	3200	690	0.9	-24.7	236	11	
2025-10-19T12:00	3220	689	0.8	-24.8	238	11	
2025-10-19T12:00	3240	687	0.6	-25.0	240	10	
2025-10-19T12:00	3260	685	0.5	-26.0	243	10	
2025-10-19T12:00	3280	683	0.8	-29.7	245	10	
2025-10-19T12:00	3300	682	0.9	-30.3	246	10	
2025-10-19T12:00	3320	680	0.7	-30.3	247	10	
2025-10-19T12:00	3340	678	0.5	-30.4	248	11	
2025-10-19T12:00	3360	676	0.3	-30.5	248	11	
2025-10-19T12:00	3380	675	0.1	-30.5	248	11	
2025-10-19T12:00	3400	673	-0.1	-30.5	248	11	
2025-10-19T12:00	3420	672	-0.2	-30.5	248	11	
2025-10-19T12:00	3440	670	-0.4	-30.6	247	11	
2025-10-19T12:00	3460	668	-0.6	-30.7	247	11	
2025-10-19T12:00	3480	667	-0.8	-30.6	246	11	
2025-10-19T12:00	3500	665	-0.9	-30.7	246	11	
2025-10-19T12:00	3520	663	-1.0	-30.9	245	11	
2025-10-19T12:00	3540	662	-1.0	-30.6	245	11	
2025-10-19T12:00	3560	660	-1.2	-30.8	245	11	
2025-10-19T12:00	3580	658	-1.4	-30.1	245	11	
2025-10-19T12:00	3600	657	-1.5	-27.5	246	11	
2025-10-19T12:00	3620	655	-1.6	-28.2	246	11	
2025-10-19T12:00	3640	653	-1.8	-29.3	246	10	
2025-10-19T12:00	3660	652	-1.9	-28.2	246	10	
2025-10-19T12:00	3680	650	-2.1	-26.8	245	10	
2025-10-19T12:00	3700	648	-2.2	-26.1	243	11	
2025-10-19T12:00	3720	647	-2.4	-25.3	242	11	
2025-10-19T12:00	3740	645	-2.5	-25.1	241	12	
2025-10-19T12:00	3760	643	-2.6	-26.2	241	12	
2025-10-19T12:00	3780	642	-2.6	-27.9	242	12	
2025-10-19T12:00	3800	640	-2.6	-30.1	243	12	
2025-10-19T12:00	3820	639	-2.5	-33.6	244	12	
2025-10-19T12:00	3840	637	-2.5	-34.6	246	12	
2025-10-19T12:00	3860	635	-2.6	-34.5	247	12	
2025-10-19T12:00	3880	634	-2.7	-34.5	248	12	
2025-10-19T12:00	3900	632	-2.7	-34.6	249	12	
2025-10-19T12:00	3920	631	-2.8	-34.6	250	12	
2025-10-19T12:00	3940	629	-2.9	-34.4	252	12	
2025-10-19T12:00	3960	627	-3.0	-34.3	254	12	
2025-10-19T12:00	3980	626	-3.1	-34.5	256	12	
2025-10-19T12:00	4000	624	-3.3	-34.6	257	12	
2025-10-19T12:00	4020	623	-3.4	-34.7	258	12	
2025-10-19T12:00	4040	621	-3.5	-35.2	259	13	
2025-10-19T12:00	4060	619	-3.6	-35.7	259	13	
2025-10-19T12:00	4080	618	-3.7	-35.4	259	13	
2025-10-19T12:00	4100	616	-3.8	-34.5	258	13	
2025-10-19T12:00	4120	615	-4.0	-33.9	257	13	
2025-10-19T12:00	4140	613	-4.1	-33.5	256	13	
2025-10-19T12:00	4160	612	-4.3	-33.2	254	14	
2025-10-19T12:00	4180	610	-4.5	-33.3	254	14	
2025-10-19T12:00	4200	609	-4.6	-33.3	253	14	
2025-10-19T12:00	4220	607	-4.8	-33.5	253	14	
2025-10-19T12:00	4240	605	-5.0	-33.8	252	15	
2025-10-19T12:00	4260	604	-5.2	-34.3	251	15	
2025-10-19T12:00	4280	603	-5.3	-35.5	251	15	
2025-10-19T12:00	4300	601	-5.4	-36.0	250	14	
2025-10-19T12:00	4320	600	-5.6	-35.2	250	14	
2025-10-19T12:00	4340	598	-5.7	-33.9	250	14	
2025-10-19T12:00	4360	596	-5.8	-33.4	250	14	
2025-10-19T12:00	4380	595	-6.0	-33.2	250	14	
2025-10-19T12:00	4400	593	-6.1	-34.2	251	13	
2025-10-19T12:00	4420	592	-6.2	-34.7	252	13	
2025-10-19T12:00	4440	590	-6.3	-35.0	252	13	
2025-10-19T12:00	4460	589	-6.4	-35.1	251	13	
2025-10-19T12:00	4480	587	-6.5	-35.4	250	13	
2025-10-19T12:00	4500	586	-6.6	-34.7	249	13	
2025-10-19T12:00	4520	584	-6.8	-34.1	248	13	
2025-10-19T12:00	4540	583	-7.0	-33.5	247	14	
2025-10-19T12:00	4560	581	-7.1	-33.6	247	14	
2025-10-19T12:00	4580	580	-7.3	-33.9	247	14	
2025-10-19T12:00	4600	578	-7.5	-33.9	248	14	
2025-10-19T12:00	4620	577	-7.8	-33.6	249	14	
2025-10-19T12:00	4640	575	-8.0	-34.1	249	14	
2025-10-19T12:00	4660	574	-8.1	-34.0	249	14	
2025-10-19T12:00	4680	572	-8.2	-33.4	249	14	
2025-10-19T12:00	4700	571	-8.4	-33.3	249	15	
2025-10-19T12:00	4720	569	-8.6	-33.2	249	15	
2025-10-19T12:00	4740	568	-8.7	-33.1	250	15	
2025-10-19T12:00	4760	566	-8.8	-33.4	251	15	
2025-10-19T12:00	4780	565	-9.0	-34.3	253	15	
2025-10-19T12:00	4800	564	-9.1	-36.7	254	15	
2025-10-19T12:00	4820	562	-9.2	-38.1	255	15	
2025-10-19T12:00	4840	561	-9.3	-39.4	256	16	
2025-10-19T12:00	4860	559	-9.4	-40.0	257	16	
2025-10-19T12:00	4880	558	-9.5	-39.7	258	17	
2025-10-19T12:00	4900	556	-9.7	-38.9	259	17	
2025-10-19T12:00	4920	555	-9.8	-38.5	260	17	
2025-10-19T12:00	4940	553	-10.0	-38.2	260	17	
2025-10-19T12:00	4960	552	-10.2	-38.0	261	17	
2025-10-19T12:00	4980	551	-10.3	-38.1	262	17	
2025-10-19T12:00	5000	549	-10.5	-38.1	263	17	
2025-10-19T12:00	5020	548	-10.7	-38.3	264	17	
2025-10-19T12:00	5040	546	-10.9	-38.3	264	16	
2025-10-19T12:00	5060	545	-11.0	-38.4	264	16	
2025-10-19T12:00	5080	543	-11.2	-38.6	264	16	
2025-10-19T12:00	5100	542	-11.3	-38.6	264	16	
2025-10-19T12:00	5120	541	-11.5	-38.5	265	16	
2025-10-19T12:00	5140	539	-11.6	-38.6	265	17	
2025-10-19T12:00	5160	538	-11.8	-38.7	265	17	
2025-10-19T12:00	5180	536	-12.0	-38.8	266	17	
2025-10-19T12:00	5200	535	-12.2	-39.2	266	17	
2025-10-19T12:00	5220	534	-12.2	-40.3	266	17	
2025-10-19T12:00	5240	532	-12.4	-40.8	265	17	
2025-10-19T12:00	5260	531	-12.5	-40.9	265	17	
2025-10-19T12:00	5280	529	-12.7	-40.9	264	17	
2025-10-19T12:00	5300	528	-12.9	-40.9	264	17	
2025-10-19T12:00	5320	527	-12.9	-41.2	264	17	
2025-10-19T12:00	5340	525	-13.1	-41.6	264	17	
2025-10-19T12:00	5360	524	-13.2	-42.0	263	18	
2025-10-19T12:00	5380	523	-13.4	-41.7	262	18	
2025-10-19T12:00	5400	521	-13.5	-41.6	261	18	
2025-10-19T12:00	5420	520	-13.7	-41.7	260	19	
2025-10-19T12:00	5440	518	-13.9	-41.8	260	19	
2025-10-19T12:00	5460	517	-14.0	-41.7	260	19	
2025-10-19T12:00	5480	516	-14.2	-41.7	260	20	
2025-10-19T12:00	5500	514	-14.4	-41.9	260	20	
2025-10-19T12:00	5520	513	-14.5	-42.2	262	20	
2025-10-19T12:00	5540	511	-14.7	-42.3	264	20	
2025-10-19T12:00	5560	510	-14.8	-42.6	265	19	
2025-10-19T12:00	5580	509	-15.0	-43.5	266	19	
2025-10-19T12:00	5600	507	-15.1	-44.6	267	19	
2025-10-19T12:00	5620	506	-15.2	-44.9	267	18	
2025-10-19T12:00	5640	505	-15.3	-44.9	267	18	
2025-10-19T12:00	5660	503	-15.5	-44.8	266	17	
2025-10-19T12:00	5680	502	-15.7	-44.7	266	17	
2025-10-19T12:00	5700	501	-15.9	-44.6	266	17	
2025-10-19T12:00	5720	500	-16.0	-44.1	266	17	
2025-10-19T12:00	5740	498	-16.2	-43.0	267	17	
2025-10-19T12:00	5760	497	-16.4	-42.6	268	16	
2025-10-19T12:00	5780	496	-16.5	-40.9	268	16	
2025-10-19T12:00	5800	494	-16.7	-40.4	268	17	
2025-10-19T12:00	5820	493	-16.9	-40.7	268	17	
2025-10-19T12:00	5840	492	-17.1	-41.1	268	17	
2025-10-19T12:00	5860	490	-17.2	-41.2	267	17	
2025-10-19T12:00	5880	489	-17.4	-41.3	267	18	
2025-10-19T12:00	5900	487	-17.6	-41.3	266	18	
2025-10-19T12:00	5920	486	-17.8	-41.5	266	18	
2025-10-19T12:00	5940	485	-18.0	-41.9	266	18	
2025-10-19T12:00	5960	484	-18.1	-42.2	266	18	
2025-10-19T12:00	5980	483	-18.3	-42.0	266	18	
2025-10-19T12:00	6000	481	-18.5	-41.7	267	18	
2025-10-19T12:00	6020	480	-18.7	-41.7	267	18	
2025-10-19T12:00	6040	478	-18.9	-41.6	267	18	
2025-10-19T12:00	6060	477	-19.1	-41.7	268	18	
2025-10-19T12:00	6080	476	-19.2	-41.8	268	18	
2025-10-19T12:00	6100	475	-19.4	-41.9	268	18	
2025-10-19T12:00	6120	473	-19.6	-41.8	267	18	
2025-10-19T12:00	6140	472	-19.7	-41.7	267	18	
2025-10-19T12:00	6160	471	-19.9	-41.7	267	18	
2025-10-19T12:00	6180	470	-20.1	-41.6	267	18	
2025-10-19T12:00	6200	468	-20.3	-41.6	267	18	
2025-10-19T12:00	6220	467	-20.4	-41.7	267	19	
2025-10-19T12:00	6240	466	-20.6	-41.6	267	19	
2025-10-19T12:00	6260	465	-20.8	-41.6	267	19	
2025-10-19T12:00	6280	463	-21.0	-41.6	267	19	
2025-10-19T12:00	6300	462	-21.2	-40.5	267	18	
2025-10-19T12:00	6320	461	-21.4	-40.3	267	18	
2025-10-19T12:00	6340	460	-21.6	-42.2	267	18	
2025-10-19T12:00	6360	458	-21.8	-42.1	267	18	
2025-10-19T12:00	6380	457	-22.0	-39.4	267	18	
2025-10-19T12:00	6400	456	-22.1	-41.7	267	18	
2025-10-19T12:00	6420	455	-22.3	-42.7	267	18	
2025-10-19T12:00	6440	454	-22.5	-42.6	267	18	
2025-10-19T12:00	6460	452	-22.7	-42.7	267	19	
2025-10-19T12:00	6480	451	-22.9	-42.1	267	19	
2025-10-19T12:00	6500	450	-23.1	-40.8	268	19	
2025-10-19T12:00	6520	448	-23.3	-37.9	269	19	
2025-10-19T12:00	6540	447	-23.5	-38.3	270	19	
2025-10-19T12:00	6560	446	-23.7	-38.4	271	19	
2025-10-19T12:00	6580	445	-23.9	-38.8	271	19	
2025-10-19T12:00	6600	444	-24.1	-37.9	272	19	
2025-10-19T12:00	6620	442	-24.3	-39.6	271	19	
2025-10-19T12:00	6640	441	-24.5	-39.3	270	18	
2025-10-19T12:00	6660	440	-24.7	-38.3	269	18	
2025-10-19T12:00	6680	439	-24.9	-36.8	268	18	
2025-10-19T12:00	6700	438	-25.0	-39.8	266	19	
2025-10-19T12:00	6720	436	-25.2	-40.2	265	19	
2025-10-19T12:00	6740	435	-25.4	-38.3	263	19	
2025-10-19T12:00	6760	434	-25.6	-35.2	263	20	
2025-10-19T12:00	6780	433	-25.6	-33.2	263	20	
2025-10-19T12:00	6800	431	-25.7	-29.6	263	21	
2025-10-19T12:00	6820	430	-25.7	-28.1	263	21	
2025-10-19T12:00	6840	429	-25.8	-29.2	264	22	
2025-10-19T12:00	6860	428	-25.8	-29.7	265	22	
2025-10-19T12:00	6880	427	-25.8	-28.7	266	22	
2025-10-19T12:00	6900	426	-25.8	-28.3	267	22	
2025-10-19T12:00	6920	425	-25.8	-28.2	269	22	
2025-10-19T12:00	6940	423	-25.7	-27.9	271	22	
2025-10-19T12:00	6960	422	-25.2	-27.0	274	21	
2025-10-19T12:00	6980	421	-24.7	-26.1	276	21	
2025-10-19T12:00	7000	420	-24.4	-26.0	278	20	
2025-10-19T12:00	7020	419	-24.4	-26.1	280	20	
2025-10-19T12:00	7040	418	-24.5	-26.1	282	20	
2025-10-19T12:00	7060	417	-24.5	-26.2	283	20	
2025-10-19T12:00	7080	415	-24.6	-26.1	284	19	
2025-10-19T12:00	7100	414	-24.7	-25.9	286	19	
2025-10-19T12:00	7120	413	-24.8	-25.6	287	18	
2025-10-19T12:00	7140	412	-24.9	-25.4	289	18	
2025-10-19T12:00	7160	411	-25.0	-25.6	290	18	
2025-10-19T12:00	7180	409	-25.0	-25.8	291	17	
2025-10-19T12:00	7200	408	-24.9	-26.3	292	17	
2025-10-19T12:00	7220	407	-25.1	-26.5	292	17	
2025-10-19T12:00	7240	406	-25.3	-26.4	292	17	
2025-10-19T12:00	7260	405	-25.5	-26.3	292	17	
2025-10-19T12:00	7280	404	-25.6	-26.8	292	17	
2025-10-19T12:00	7300	403	-25.8	-27.0	293	17	
2025-10-19T12:00	7320	402	-25.9	-27.2	294	16	
2025-10-19T12:00	7340	401	-26.0	-27.3	296	16	
2025-10-19T12:00	7360	400	-26.0	-26.8	298	16	
2025-10-19T12:00	7380	399	-25.9	-26.2	301	15	
2025-10-19T12:00	7400	397	-25.9	-26.5	303	15	
2025-10-19T12:00	7420	396	-25.9	-26.8	306	14	
2025-10-19T12:00	7440	395	-26.0	-26.8	307	14	
2025-10-19T12:00	7460	394	-26.1	-27.1	308	14	
2025-10-19T12:00	7480	393	-26.1	-27.0	308	14	
2025-10-19T12:00	7500	392	-26.3	-26.9	307	14	
2025-10-19T12:00	7520	391	-26.5	-26.9	306	14	
2025-10-19T12:00	7540	390	-26.6	-26.9	305	14	
2025-10-19T12:00	7560	389	-26.8	-27.1	303	15	
2025-10-19T12:00	7580	387	-26.9	-27.7	302	15	
2025-10-19T12:00	7600	386	-27.1	-27.9	301	15	
2025-10-19T12:00	7620	385	-27.2	-28.0	300	15	
2025-10-19T12:00	7640	384	-27.4	-28.1	299	15	
2025-10-19T12:00	7660	383	-27.5	-28.3	299	15	
2025-10-19T12:00	7680	382	-27.7	-28.3	298	15	
2025-10-19T12:00	7700	381	-27.9	-28.8	298	15	
2025-10-19T12:00	7720	380	-28.0	-29.1	299	15	
2025-10-19T12:00	7740	379	-28.2	-29.2	299	15	
2025-10-19T12:00	7760	378	-28.3	-29.5	300	15	
2025-10-19T12:00	7780	377	-28.5	-29.4	301	15	
2025-10-19T12:00	7800	376	-28.7	-29.5	301	16	
2025-10-19T12:00	7820	375	-28.8	-29.4	301	16	
2025-10-19T12:00	7840	374	-29.0	-29.4	301	16	
2025-10-19T12:00	7860	373	-29.1	-29.6	301	16	
2025-10-19T12:00	7880	372	-29.3	-29.5	301	16	
2025-10-19T12:00	7900	371	-29.5	-29.8	301	16	
2025-10-19T12:00	7920	370	-29.6	-30.0	301	16	
2025-10-19T12:00	7940	369	-29.8	-30.4	300	16	
2025-10-19T12:00	7960	367	-29.9	-30.9	300	16	
2025-10-19T12:00	7980	366	-30.1	-30.8	299	16	
2025-10-19T12:00	8000	366	-30.3	-31.0	298	16	
2025-10-19T12:00	8020	365	-30.4	-31.3	297	16	
2025-10-19T12:00	8040	363	-30.6	-31.4	296	16	
2025-10-19T12:00	8060	362	-30.7	-31.7	296	16	
2025-10-19T12:00	8080	361	-30.9	-31.5	295	17	
2025-10-19T12:00	8100	360	-31.1	-31.7	294	17	
2025-10-19T12:00	8120	359	-31.2	-31.9	294	17	
2025-10-19T12:00	8140	358	-31.4	-32.0	294	17	
2025-10-19T12:00	8160	357	-31.6	-32.0	294	17	
2025-10-19T12:00	8180	356	-31.8	-32.2	294	17	
2025-10-19T12:00	8200	355	-31.9	-32.5	294	17	
2025-10-19T12:00	8220	354	-32.1	-32.6	294	17	
2025-10-19T12:00	8240	353	-32.3	-32.8	295	17	
2025-10-19T12:00	8260	352	-32.5	-32.9	295	17	
2025-10-19T12:00	8280	351	-32.6	-33.2	295	17	
2025-10-19T12:00	8300	350	-32.8	-33.2	295	17	
2025-10-19T12:00	8320	349	-33.0	-33.2	295	17	
2025-10-19T12:00	8340	348	-33.2	-33.3	295	17	
2025-10-19T12:00	8360	347	-33.3	-33.4	295	17	
2025-10-19T12:00	8380	346	-33.5	-33.6	294	18	
2025-10-19T12:00	8400	345	-33.6	-33.7	293	18	
2025-10-19T12:00	8420	344	-33.9	-33.9	293	18	
2025-10-19T12:00	8440	343	-34.0	-34.1	292	19	
2025-10-19T12:00	8460	342	-34.2	-34.2	291	19	
2025-10-19T12:00	8480	342	-34.3	-34.3	291	20	
2025-10-19T12:00	8500	340	-34.4	-35.1	290	20	
2025-10-19T12:00	8520	339	-34.2	-37.0	290	20	
2025-10-19T12:00	8540	339	-34.0	-37.1	289	20	
2025-10-19T12:00	8560	338	-34.1	-37.1	289	20	
2025-10-19T12:00	8580	336	-34.1	-37.5	289	20	
2025-10-19T12:00	8600	336	-34.1	-38.1	289	20	
2025-10-19T12:00	8620	335	-34.2	-38.4	289	20	
2025-10-19T12:00	8640	334	-34.4	-38.6	289	20	
2025-10-19T12:00	8660	333	-34.5	-38.8	289	20	
2025-10-19T12:00	8680	332	-34.6	-39.1	289	20	
2025-10-19T12:00	8700	331	-34.7	-39.3	289	20	
2025-10-19T12:00	8720	330	-34.9	-39.5	288	20	
2025-10-19T12:00	8740	329	-35.0	-39.7	288	20	
2025-10-19T12:00	8760	328	-35.2	-40.0	287	20	
2025-10-19T12:00	8780	327	-35.3	-39.9	287	20	
2025-10-19T12:00	8800	326	-35.5	-40.4	287	20	
2025-10-19T12:00	8820	325	-35.6	-40.8	287	21	
2025-10-19T12:00	8840	324	-35.8	-40.9	287	21	
2025-10-19T12:00	8860	323	-36.0	-41.0	288	21	
2025-10-19T12:00	8880	322	-36.2	-41.3	288	21	
2025-10-19T12:00	8900	322	-36.3	-41.4	287	21	
2025-10-19T12:00	8920	321	-36.5	-41.6	287	22	
2025-10-19T12:00	8940	320	-36.7	-41.9	286	21	
2025-10-19T12:00	8960	319	-36.8	-42.7	286	21	
2025-10-19T12:00	8980	318	-36.9	-43.5	286	21	
2025-10-19T12:00	9000	317	-37.1	-43.3	285	22	
2025-10-19T12:00	9020	316	-37.3	-43.3	285	21	
2025-10-19T12:00	9040	315	-37.5	-43.6	286	21	
2025-10-19T12:00	9060	314	-37.6	-43.7	286	21	
2025-10-19T12:00	9080	313	-37.8	-44.2	286	21	
2025-10-19T12:00	9100	312	-37.9	-45.1	286	21	
2025-10-19T12:00	9120	311	-38.1	-45.2	287	21	
2025-10-19T12:00	9140	311	-38.2	-45.7	287	21	
2025-10-19T12:00	9160	310	-38.4	-45.5	287	21	
2025-10-19T12:00	9180	309	-38.6	-45.4	287	21	
2025-10-19T12:00	9200	308	-38.8	-45.8	287	21	
2025-10-19T12:00	9220	307	-38.9	-46.2	287	21	
2025-10-19T12:00	9240	306	-39.1	-46.5	287	21	
2025-10-19T12:00	9260	305	-39.3	-46.6	287	21	
2025-10-19T12:00	9280	304	-39.5	-47.0	287	21	
2025-10-19T12:00	9300	303	-39.7	-47.0	287	20	
2025-10-19T12:00	9320	303	-39.8	-47.1	287	20	
2025-10-19T12:00	9340	302	-40.0	-47.2	287	20	
2025-10-19T12:00	9360	301	-40.2	-47.2	288	20	
2025-10-19T12:00	9380	300	-40.4	-47.4	288	20	
2025-10-19T12:00	9400	299	-40.6	-47.7	289	20	
2025-10-19T12:00	9420	298	-40.8	-48.1	289	20	
2025-10-19T12:00	9440	297	-41.0	-48.1	289	21	
2025-10-19T12:00	9460	296	-41.2	-48.0	289	21	
2025-10-19T12:00	9480	295	-41.3	-48.1	289	21	
2025-10-19T12:00	9500	295	-41.5	-48.1	288	21	
2025-10-19T12:00	9520	294	-41.7	-48.2	288	21	
2025-10-19T12:00	9540	293	-41.9	-48.6	288	21	
2025-10-19T12:00	9560	292	-42.1	-48.7	287	21	
2025-10-19T12:00	9580	291	-42.3	-48.8	287	21	
2025-10-19T12:00	9600	290	-42.5	-49.0	287	21	
2025-10-19T12:00	9620	289	-42.7	-49.3	287	21	
2025-10-19T12:00	9640	288	-42.9	-49.6	287	21	
2025-10-19T12:00	9660	288	-43.1	-49.8	287	21	
2025-10-19T12:00	9680	287	-43.2	-50.0	287	21	
2025-10-19T12:00	9700	286	-43.4	-50.4	287	21	
2025-10-19T12:00	9720	285	-43.6	-50.7	287	21	
2025-10-19T12:00	9740	284	-43.8	-50.6	287	21	
2025-10-19T12:00	9760	283	-43.9	-50.5	287	21	
2025-10-19T12:00	9780	283	-44.1	-50.5	287	20	
2025-10-19T12:00	9800	282	-44.3	-50.6	288	20	
2025-10-19T12:00	9820	281	-44.5	-50.7	288	20	
2025-10-19T12:00	9840	280	-44.7	-51.1	289	20	
2025-10-19T12:00	9860	279	-44.9	-51.5	289	20	
2025-10-19T12:00	9880	278	-45.0	-51.6	289	20	
2025-10-19T12:00	9900	278	-45.2	-51.4	288	21	
2025-10-19T12:00	9920	277	-45.4	-51.3	288	21	
2025-10-19T12:00	9940	276	-45.6	-51.3	287	21	
2025-10-19T12:00	9960	275	-45.8	-51.3	287	21	
2025-10-19T12:00	9980	274	-46.0	-51.3	286	20	
2025-10-19T12:00	10000	273	-46.2	-51.4	286	20	
2025-10-19T12:00	10018	273	-46.3	-51.6	286	20	
2025-10-19T12:00	10050	271	-46.6	-52.1	286	20	
2025-10-19T12:00	10100	269	-47.1	-52.4	286	20	
2025-10-19T12:00	10150	267	-47.6	-52.6	285	20	
2025-10-19T12:00	10200	265	-48.1	-53.5	285	20	
2025-10-19T12:00	10250	263	-48.5	-54.2	285	21	
2025-10-19T12:00	10300	261	-49.0	-54.3	286	21	
2025-10-19T12:00	10350	259	-49.5	-54.7	286	21	
2025-10-19T12:00	10400	257	-49.9	-54.6	288	21	
2025-10-19T12:00	10450	255	-50.4	-55.2	289	21	
2025-10-19T12:00	10500	253	-50.9	-56.5	290	21	
2025-10-19T12:00	10550	251	-51.3	-57.0	289	22	
2025-10-19T12:00	10600	250	-51.7	-57.3	288	23	
2025-10-19T12:00	10650	248	-52.2	-57.6	287	23	
2025-10-19T12:00	10700	246	-52.7	-57.2	287	23	
2025-10-19T12:00	10750	244	-53.1	-57.4	287	23	
2025-10-19T12:00	10800	242	-53.6	-58.0	287	23	
2025-10-19T12:00	10850	240	-54.0	-58.5	286	24	
2025-10-19T12:00	10900	238	-54.5	-58.7	285	24	
2025-10-19T12:00	10950	236	-54.9	-58.8	285	24	
2025-10-19T12:00	11000	234	-55.4	-59.0	286	24	
2025-10-19T12:00	11050	233	-55.8	-59.6	287	24	
2025-10-19T12:00	11100	231	-56.2	-60.2	288	24	
2025-10-19T12:00	11150	229	-56.7	-60.6	288	24	
2025-10-19T12:00	11200	227	-57.1	-61.0	288	24	
2025-10-19T12:00	11250	225	-57.6	-61.5	289	24	
2025-10-19T12:00	11300	224	-58.0	-62.0	290	24	
2025-10-19T12:00	11350	222	-58.4	-62.2	290	23	
2025-10-19T12:00	11400	220	-58.8	-62.3	289	23	
2025-10-19T12:00	11450	218	-59.2	-62.6	289	23	
2025-10-19T12:00	11500	217	-59.7	-62.8	289	22	
2025-10-19T12:00	11550	215	-60.2	-63.0	290	22	
2025-10-19T12:00	11600	213	-60.6	-63.2	290	22	
2025-10-19T12:00	11650	212	-61.1	-63.5	289	22	
2025-10-19T12:00	11700	210	-61.5	-64.1	288	22	
2025-10-19T12:00	11750	208	-61.9	-64.9	287	21	
2025-10-19T12:00	11800	206	-62.2	-65.6	287	21	
2025-10-19T12:00	11850	205	-62.5	-66.3	286	22	
2025-10-19T12:00	11900	203	-62.7	-67.1	286	22	
2025-10-19T12:00	11950	201	-62.9	-67.5	287	23	
2025-10-19T12:00	12000	200	-63.0	-67.3	288	23	
2025-10-19T12:00	12050	198	-63.3	-67.8	289	23	
2025-10-19T12:00	12100	197	-63.8	-68.4	289	23	
2025-10-19T12:00	12150	195	-63.9	-68.4	288	23	
2025-10-19T12:00	12200	193	-63.8	-67.9	287	23	
2025-10-19T12:00	12250	192	-63.9	-67.6	287	24	
2025-10-19T12:00	12300	190	-64.1	-67.5	286	23	
2025-10-19T12:00	12350	189	-64.5	-67.9	286	23	
2025-10-19T12:00	12400	187	-64.9	-68.9	288	22	
2025-10-19T12:00	12450	186	-65.1	-69.1	290	21	
2025-10-19T12:00	12500	184	-65.1	-68.2	293	21	
2025-10-19T12:00	12550	183	-64.9	-67.1	294	21	
2025-10-19T12:00	12600	181	-65.0	-67.2	294	21	
2025-10-19T12:00	12650	180	-64.8	-68.7	295	21	
2025-10-19T12:00	12700	178	-63.4	-73.1	296	21	
2025-10-19T12:00	12750	177	-62.6	-76.6	296	21	
2025-10-19T12:00	12800	175	-62.1	-76.9	298	20	
2025-10-19T12:00	12850	174	-61.3	-77.2	302	19	
2025-10-19T12:00	12900	173	-61.0	-77.3	304	17	
2025-10-19T12:00	12950	171	-61.3	-77.3	305	17	
2025-10-19T12:00	13000	170	-61.6	-76.4	304	16	
2025-10-19T12:00	13050	168	-61.9	-75.8	303	17	
2025-10-19T12:00	13100	167	-61.9	-76.0	303	17	
2025-10-19T12:00	13150	166	-61.9	-76.7	305	18	
2025-10-19T12:00	13200	164	-61.6	-77.0	305	18	
2025-10-19T12:00	13250	163	-61.4	-77.2	304	18	
2025-10-19T12:00	13300	162	-61.7	-77.5	303	18	
2025-10-19T12:00	13350	160	-61.6	-77.9	302	18	
2025-10-19T12:00	13400	159	-61.1	-78.7	303	18	
2025-10-19T12:00	13450	158	-60.9	-79.3	304	18	
2025-10-19T12:00	13500	157	-61.2	-79.6	304	18	
2025-10-19T12:00	13550	155	-61.5	-79.7	305	17	
2025-10-19T12:00	13600	154	-61.7	-79.7	306	16	
2025-10-19T12:00	13650	153	-62.0	-79.9	307	16	
2025-10-19T12:00	13700	152	-62.0	-80.0	307	16	
2025-10-19T12:00	13750	150	-62.2	-80.2	306	15	
2025-10-19T12:00	13800	149	-62.7	-80.4	305	14	
2025-10-19T12:00	13850	148	-62.8	-80.6	303	14	
2025-10-19T12:00	13900	147	-62.6	-80.7	301	15	
2025-10-19T12:00	13950	146	-62.8	-80.9	300	16	
2025-10-19T12:00	14000	144	-62.9	-80.9	301	16	
2025-10-19T12:00	14050	143	-63.1	-81.1	303	16	
2025-10-19T12:00	14100	142	-63.2	-81.3	304	16	
2025-10-19T12:00	14150	141	-63.2	-81.6	301	16	
2025-10-19T12:00	14200	140	-62.9	-81.9	299	16	
2025-10-19T12:00	14250	139	-62.5	-82.1	299	15	
2025-10-19T12:00	14300	138	-62.2	-82.1	298	15	
2025-10-19T12:00	14350	136	-62.4	-82.1	297	16	
2025-10-19T12:00	14400	135	-62.7	-82.2	298	16	
2025-10-19T12:00	14450	134	-63.0	-82.3	299	16	
2025-10-19T12:00	14500	133	-63.1	-82.5	300	16	
2025-10-19T12:00	14550	132	-62.6	-82.4	301	15	
2025-10-19T12:00	14600	131	-62.7	-82.7	303	14	
2025-10-19T12:00	14650	130	-63.0	-82.8	306	12	
2025-10-19T12:00	14700	129	-63.1	-82.9	308	11	
2025-10-19T12:00	14750	128	-62.9	-83.0	306	10	
2025-10-19T12:00	14800	127	-62.8	-83.1	300	11	
2025-10-19T12:00	14850	126	-63.0	-83.3	295	11	
2025-10-19T12:00	14900	125	-63.4	-83.3	292	13	
2025-10-19T12:00	14950	124	-63.7	-83.4	294	14	
2025-10-19T12:00	15000	123	-63.7	-83.6	297	15	
2025-10-19T12:00	15050	122	-63.5	-83.7	299	15	
2025-10-19T12:00	15100	121	-63.4	-83.9	301	16	
2025-10-19T12:00	15150	120	-63.2	-84.0	303	16	
2025-10-19T12:00	15200	119	-63.1	-84.1	305	16	
2025-10-19T12:00	15250	118	-63.2	-84.1	306	15	
2025-10-19T12:00	15300	117	-63.4	-84.2	306	15	
2025-10-19T12:00	15350	116	-63.4	-84.2	307	16	
2025-10-19T12:00	15400	115	-63.5	-84.2	308	16	
2025-10-19T12:00	15450	114	-63.5	-84.2	310	16	
2025-10-19T12:00	15500	113	-63.5	-84.2	312	15	
2025-10-19T12:00	15550	112	-63.5	-84.2	312	14	
2025-10-19T12:00	15600	111	-63.6	-84.1	312	14	
2025-10-19T12:00	15650	110	-63.7	-84.2	311	15	
2025-10-19T12:00	15700	109	-63.7	-84.4	311	16	
2025-10-19T12:00	15750	109	-63.7	-84.7	313	16	
2025-10-19T12:00	15800	108	-63.8	-84.8	317	16	
2025-10-19T12:00	15850	107	-63.6	-84.9	319	16	
2025-10-19T12:00	15900	106	-63.3	-84.9	320	15	
2025-10-19T12:00	15950	105	-63.0	-84.8	318	14	
2025-10-19T12:00	16000	104	-63.1	-84.9	315	13	
2025-10-19T12:00	16050	103	-63.0	-84.7	315	12	
2025-10-19T12:00	16100	103	-63.1	-84.8	315	12	
2025-10-19T12:00	16150	102	-62.9	-84.8	315	11	
2025-10-19T12:00	16200	101	-62.7	-84.8	312	11	
2025-10-19T12:00	16250	100	-62.6	-84.9	308	11	
2025-10-19T12:00	16300	99	-62.7	-85.0	307	11	
2025-10-19T12:00	16350	99	-62.5	-84.9	309	11	
2025-10-19T12:00	16400	98	-62.5	-85.0	306	11	
2025-10-19T12:00	16450	97	-62.6	-85.1	304	11	
2025-10-19T12:00	16500	96	-62.7	-85.2	307	12	
2025-10-19T12:00	16550	95	-62.4	-85.1	310	13	
2025-10-19T12:00	16600	95	-62.2	-85.1	314	12	
2025-10-19T12:00	16650	94	-62.1	-85.1	318	11	
2025-10-19T12:00	16700	93	-62.2	-85.1	320	11	
2025-10-19T12:00	16750	92	-62.4	-85.2	321	11	
2025-10-19T12:00	16800	92	-62.6	-85.3	321	11	
2025-10-19T12:00	16850	91	-62.4	-85.4	320	10	
2025-10-19T12:00	16900	90	-62.2	-85.4	319	10	
2025-10-19T12:00	16950	89	-62.5	-85.5	319	9	
2025-10-19T12:00	17000	89	-62.6	-85.5	319	8	
2025-10-19T12:00	17050	88	-62.8	-85.5	318	7	
2025-10-19T12:00	17100	87	-63.1	-85.6	316	7	
2025-10-19T12:00	17150	87	-63.2	-85.6	314	8	
2025-10-19T12:00	17200	86	-63.4	-85.7	311	9	
2025-10-19T12:00	17250	85	-63.5	-85.8	307	9	
2025-10-19T12:00	17300	84	-63.6	-85.8	306	9	
2025-10-19T12:00	17350	84	-63.6	-85.9	305	9	
2025-10-19T12:00	17400	83	-63.8	-86.1	303	10	
2025-10-19T12:00	17450	82	-63.8	-86.2	299	11	
2025-10-19T12:00	17500	82	-63.6	-86.2	295	11	
2025-10-19T12:00	17550	81	-63.7	-86.2	292	11	
2025-10-19T12:00	17600	80	-63.7	-86.3	290	11	
2025-10-19T12:00	17650	80	-63.5	-86.3	290	11	
2025-10-19T12:00	17700	79	-63.5	-86.3	294	12	
2025-10-19T12:00	17750	78	-63.5	-86.4	299	13	
2025-10-19T12:00	17800	78	-63.3	-86.3	300	12	
2025-10-19T12:00	17850	77	-63.3	-86.4	298	12	
2025-10-19T12:00	17900	77	-63.3	-86.4	292	11	
2025-10-19T12:00	17950	76	-63.3	-86.5	287	11	
2025-10-19T12:00	18000	75	-63.2	-86.4	283	12	
2025-10-19T12:00	18050	75	-63.3	-86.6	285	12	
2025-10-19T12:00	18100	74	-63.2	-86.6	291	12	
2025-10-19T12:00	18150	74	-63.1	-86.7	299	11	
2025-10-19T12:00	18200	73	-62.8	-86.7	306	10	
2025-10-19T12:00	18250	72	-62.7	-86.6	308	10	
2025-10-19T12:00	18300	72	-62.7	-86.6	305	10	
2025-10-19T12:00	18350	71	-62.9	-86.7	303	10	
2025-10-19T12:00	18400	71	-62.8	-86.6	306	10	
2025-10-19T12:00	18450	70	-62.8	-86.7	309	9	
2025-10-19T12:00	18500	69	-62.7	-86.7	307	9	
2025-10-19T12:00	18550	69	-62.6	-86.7	304	9	
2025-10-19T12:00	18600	68	-62.5	-86.8	301	9	
2025-10-19T12:00	18650	68	-62.3	-86.7	297	9	
2025-10-19T12:00	18700	67	-62.3	-86.7	294	10	
2025-10-19T12:00	18750	67	-62.5	-86.7	293	11	
2025-10-19T12:00	18800	66	-62.6	-86.7	296	11	
2025-10-19T12:00	18850	66	-62.7	-86.8	298	10	
2025-10-19T12:00	18900	65	-62.6	-86.8	300	10	
2025-10-19T12:00	18950	65	-62.3	-86.8	303	11	
2025-10-19T12:00	19000	64	-62.4	-86.9	306	12	
2025-10-19T12:00	19050	64	-62.3	-86.8	309	12	
2025-10-19T12:00	19100	63	-62.1	-86.8	311	11	
2025-10-19T12:00	19150	63	-62.1	-86.7	311	11	
2025-10-19T12:00	19200	62	-62.2	-86.7	309	10	
2025-10-19T12:00	19250	61	-62.3	-86.7	308	9	
2025-10-19T12:00	19300	61	-62.4	-86.9	309	8	
2025-10-19T12:00	19350	61	-62.3	-86.9	312	8	
2025-10-19T12:00	19400	60	-62.0	-86.9	312	9	
2025-10-19T12:00	19450	60	-61.9	-86.9	313	9	
2025-10-19T12:00	19500	59	-61.7	-86.8	316	9	
2025-10-19T12:00	19550	59	-61.6	-86.8	317	8	
2025-10-19T12:00	19600	58	-61.4	-86.7	315	8	
2025-10-19T12:00	19650	58	-61.4	-86.7	313	6	
2025-10-19T12:00	19700	57	-61.2	-86.6	316	5	
2025-10-19T12:00	19750	57	-61.3	-86.6	321	4	
2025-10-19T12:00	19800	56	-61.2	-86.6	317	3	
2025-10-19T12:00	19850	56	-60.9	-86.5	302	4	
2025-10-19T12:00	19900	55	-61.1	-86.5	289	4	
2025-10-19T12:00	19950	55	-61.1	-86.4	280	5	
2025-10-19T12:00	20000	54	-61.4	-86.4	278	5	
2025-10-19T12:00	20050	54	-61.6		280	6	
2025-10-19T12:00	20100	54	-61.7		279	6	
2025-10-19T12:00	20150	53	-62.0		277	7	
2025-10-19T12:00	20200	53	-62.0		277	8	
2025-10-19T12:00	20250	52	-62.1		280	8	
2025-10-19T12:00	20300	52	-62.2		284	8	
2025-10-19T12:00	20350	51	-62.2		288	7	
2025-10-19T12:00	20400	51	-62.2		291	7	
2025-10-19T12:00	20450	51	-62.4		294	7	
2025-10-19T12:00	20500	50	-62.5		293	6	
2025-10-19T12:00	20550	50	-62.7		288	6	
2025-10-19T12:00	20600	49	-62.9		282	7	
2025-10-19T12:00	20650	49	-63.0		278	8	
2025-10-19T12:00	20700	49	-62.9		275	9	
2025-10-19T12:00	20750	48	-62.8		274	10	
2025-10-19T12:00	20800	48	-62.7		276	10	
2025-10-19T12:00	20850	47	-63.0		284	10	
2025-10-19T12:00	20900	47	-63.1		293	10	
2025-10-19T12:00	20950	47	-63.1		297	10	
2025-10-19T12:00	21000	46	-62.9		298	11	
2025-10-19T12:00	21050	46	-62.8		301	11	
2025-10-19T12:00	21100	46	-62.6		304	12	
2025-10-19T12:00	21150	45	-62.6		308	13	
2025-10-19T12:00	21200	45	-62.7		312	14	
2025-10-19T12:00	21250	45	-62.7		315	14	
2025-10-19T12:00	21300	44	-62.3		315	13	
2025-10-19T12:00	21350	44	-62.0		313	11	
2025-10-19T12:00	21400	43	-61.9		312	10	
2025-10-19T12:00	21450	43	-62.2		309	8	
2025-10-19T12:00	21500	43	-62.0		306	8	
2025-10-19T12:00	21550	42	-61.8		307	9	
2025-10-19T12:00	21600	42	-61.4		310	9	
2025-10-19T12:00	21650	42	-61.4		314	10	
2025-10-19T12:00	21700	41	-61.5		318	11	
2025-10-19T12:00	21750	41	-61.4		321	10	
2025-10-19T12:00	21800	41	-61.2		322	9	
2025-10-19T12:00	21850	40	-61.3		321	8	
2025-10-19T12:00	21900	40	-61.4		316	7	
2025-10-19T12:00	21950	40	-61.5		304	6	
2025-10-19T12:00	22000	39	-61.4		289	6	
2025-10-19T12:00	22050	39	-61.3		273	7	
2025-10-19T12:00	22100	39	-61.4		265	7	
2025-10-19T12:00	22150	38	-61.3		265	7	
2025-10-19T12:00	22200	38	-61.5		271	7	
2025-10-19T12:00	22250	38	-61.7		274	6	
2025-10-19T12:00	22300	38	-62.0		270	6	
2025-10-19T12:00	22350	37	-62.0		265	6	
2025-10-19T12:00	22400	37	-62.2		265	6	
2025-10-19T12:00	22450	37	-62.3		269	6	
2025-10-19T12:00	22500	36	-62.3		271	6	
2025-10-19T12:00	22550	36	-62.6		271	7	
2025-10-19T12:00	22600	36	-62.9		272	8	
2025-10-19T12:00	22650	35	-63.0		274	8	
2025-10-19T12:00	22700	35	-62.9		279	9	
2025-10-19T12:00	22750	35	-62.7		285	8	
2025-10-19T12:00	22800	35	-62.6		292	7	
2025-10-19T12:00	22850	34	-62.9		299	6	
2025-10-19T12:00	22900	34	-63.1		305	6	
2025-10-19T12:00	22950	34	-63.0		309	5	
2025-10-19T12:00	23000	34	-62.4		311	5	
2025-10-19T12:00	23050	33	-62.0		308	5	
2025-10-19T12:00	23100	33	-62.0		299	6	
2025-10-19T12:00	23150	33	-61.7		286	6	
2025-10-19T12:00	23200	32	-61.2		279	7	
2025-10-19T12:00	23250	32	-60.8		277	7	
2025-10-19T12:00	23300	32	-60.8		275	7	
2025-10-19T12:00	23350	32	-61.0		273	6	
2025-10-19T12:00	23400	31	-61.2		271	5	
2025-10-19T12:00	23450	31	-61.3		271	5	
2025-10-19T12:00	23500	31	-61.3		271	6	
2025-10-19T12:00	23550	31	-61.1		273	7	
2025-10-19T12:00	23600	30	-60.9		273	8	
2025-10-19T12:00	23650	30	-60.7		273	9	
2025-10-19T12:00	23700	30	-60.4		271	10	
2025-10-19T12:00	23750	30	-60.1		272	11	
2025-10-19T12:00	23800	29	-60.1		273	11	
2025-10-19T12:00	23850	29	-60.0		274	10	
2025-10-19T12:00	23900	29	-60.0		276	10	
2025-10-19T12:00	23950	29	-59.9		279	11	
2025-10-19T12:00	24000	29	-59.7		284	12	
2025-10-19T12:00	24050	28	-59.6		286	12	
2025-10-19T12:00	24100	28	-59.7		285	12	
2025-10-19T12:00	24150	28	-59.6		283	12	
2025-10-19T12:00	24200	28	-59.1		282	12	
2025-10-19T12:00	24250	27	-59.1		282	11	
2025-10-19T12:00	24300	27	-59.3		283	11	
2025-10-19T12:00	24350	27	-59.4		283	10	
2025-10-19T12:00	24400	27	-59.6		282	11	
2025-10-19T12:00	24450	27	-59.8		280	11	
2025-10-19T12:00	24500	26	-59.7		278	12	
2025-10-19T12:00	24550	26	-59.4		274	12	
2025-10-19T12:00	24600	26	-59.3		270	13	
2025-10-19T12:00	24650	26	-59.2		268	14	
2025-10-19T12:00	24700	26	-58.6		270	14	
2025-10-19T12:00	24750	25	-57.9		272	15	
2025-10-19T12:00	24800	25	-57.8		273	15	
2025-10-19T12:00	24850	25	-57.8		272	15	
2025-10-19T12:00	24900	25	-57.8		271	14	
2025-10-19T12:00	24950	25	-58.0		271	14	
2025-10-19T12:00	25000	24	-58.2		274	14	
2025-10-19T12:00	25050	24	-58.3		275	15	
2025-10-19T12:00	25100	24	-58.3		273	14	
2025-10-19T12:00	25150	24	-58.0		270	14	
2025-10-19T12:00	25200	24	-57.9		268	13	
2025-10-19T12:00	25250	23	-58.0		268	13	
2025-10-19T12:00	25300	23	-57.9		270	13	
2025-10-19T12:00	25350	23	-57.8		272	13	
2025-10-19T12:00	25400	23	-57.8		274	13	
2025-10-19T12:00	25450	23	-57.4		276	13	
2025-10-19T12:00	25500	22	-57.3		278	13	
2025-10-19T12:00	25550	22	-57.5		280	13	
2025-10-19T12:00	25600	22	-57.4		282	13	
2025-10-19T12:00	25650	22	-57.3		283	14	
2025-10-19T12:00	25700	22	-57.1		282	14	
2025-10-19T12:00	25750	22	-56.5		280	14	
2025-10-19T12:00	25800	21	-56.0		277	14	
2025-10-19T12:00	25850	21	-55.4		275	14	
2025-10-19T12:00	25900	21	-55.1		271	13	
2025-10-19T12:00	25950	21	-55.0		267	14	
2025-10-19T12:00	26000	21	-54.9		267	15	
2025-10-19T12:00	26050	21	-54.4		271	15	
2025-10-19T12:00	26100	20	-54.3		277	16	
2025-10-19T12:00	26150	20	-54.5		282	17	
2025-10-19T12:00	26200	20	-54.7		287	17	
2025-10-19T12:00	26250	20	-55.0		291	18	
2025-10-19T12:00	26300	20	-55.4		294	18	
2025-10-19T12:00	26350	20	-55.7		296	18	
2025-10-19T12:00	26400	20	-55.7		295	16	
2025-10-19T12:00	26450	19	-55.8		292	15	
2025-10-19T12:00	26500	19	-55.9		290	15	
2025-10-19T12:00	26550	19	-56.0		290	15	
2025-10-19T12:00	26600	19	-55.8		294	15	
2025-10-19T12:00	26650	19	-55.5		299	15	
2025-10-19T12:00	26700	19	-55.5		304	15	
2025-10-19T12:00	26750	18	-55.7		307	14	
2025-10-19T12:00	26800	18	-55.9		308	14	
2025-10-19T12:00	26850	18	-56.2		308	13	
2025-10-19T12:00	26900	18	-56.2		306	12	
2025-10-19T12:00	26950	18	-56.0		303	12	
2025-10-19T12:00	27000	18	-55.6		298	12	
2025-10-19T12:00	27050	18	-55.4		295	12	
2025-10-19T12:00	27100	17	-55.3		294	12	
2025-10-19T12:00	27150	17	-55.2		296	13	
2025-10-19T12:00	27200	17	-55.4		297	13	
2025-10-19T12:00	27250	17	-55.6		295	13	
2025-10-19T12:00	27300	17	-55.5		291	13	
2025-10-19T12:00	27350	17	-55.4		287	14	
2025-10-19T12:00	27400	17	-55.0		286	15	
2025-10-19T12:00	27450	17	-54.5		289	16	
2025-10-19T12:00	27500	16	-54.6		293	16	
2025-10-19T12:00	27550	16	-54.9		298	16	
2025-10-19T12:00	27600	16	-55.2		300	16	
2025-10-19T12:00	27650	16	-55.6		301	15	
2025-10-19T12:00	27700	16	-55.8		300	14	
2025-10-19T12:00	27750	16	-55.9		298	13	
2025-10-19T12:00	27800	16	-55.3		294	11	
2025-10-19T12:00	27850	16	-55.0		288	10	
2025-10-19T12:00	27900	15	-55.0		278	9	
2025-10-19T12:00	27950	15	-54.7		266	9	
2025-10-19T12:00	28000	15	-54.4		257	10	
2025-10-19T12:00	28050	15	-54.4		255	11	
2025-10-19T12:00	28100	15	-54.1		258	12	
2025-10-19T12:00	28150	15	-53.8		263	12	
2025-10-19T12:00	28200	15	-53.9		268	13	
2025-10-19T12:00	28250	15	-54.0		271	14	
2025-10-19T12:00	28300	14	-53.8		273	15	
2025-10-19T12:00	28350	14	-53.5		275	17	
2025-10-19T12:00	28400	14	-53.1		277	18	
2025-10-19T12:00	28450	14	-52.8		279	20	
2025-10-19T12:00	28500	14	-52.5		282	21	
2025-10-19T12:00	28550	14	-52.1		285	22	
2025-10-19T12:00	28600	14	-52.0		289	22	
2025-10-19T12:00	28650	14	-52.2		292	22	
2025-10-19T12:00	28700	14	-52.4		295	21	
2025-10-19T12:00	28750	14	-52.7		296	21	
2025-10-19T12:00	28800	13	-52.4		295	20	
2025-10-19T12:00	28850	13	-52.0		291	20	
2025-10-19T12:00	28900	13	-51.9		285	20	
2025-10-19T12:00	28950	13	-51.7		281	21	
2025-10-19T12:00	29000	13	-51.5		279	22	
2025-10-19T12:00	29050	13	-51.0		280	22	
2025-10-19T12:00	29100	13	-50.2		282	22	
2025-10-19T12:00	29150	13	-49.9		285	21	
2025-10-19T12:00	29200	13	-49.9		286	21	
2025-10-19T12:00	29250	13	-49.8		287	20	
2025-10-19T12:00	29300	12	-49.7		288	20	
2025-10-19T12:00	29350	12	-49.8		289	21	
2025-10-19T12:00	29400	12	-49.9		288	21	
2025-10-19T12:00	29450	12	-49.8		287	21	
2025-10-19T12:00	29500	12	-49.4		287	22	
2025-10-19T12:00	29550	12	-48.8		289	22	
2025-10-19T12:00	29600	12	-48.3		292	24	
2025-10-19T12:00	29650	12	-47.8		292	25	
2025-10-19T12:00	29700	12	-47.7		291	26	
2025-10-19T12:00	29750	12	-47.5		288	27	
2025-10-19T12:00	29800	12	-47.3		285	28	
2025-10-19T12:00	29850	11	-47.0		284	28	
2025-10-19T12:00	29900	11	-46.8		284	28	
2025-10-19T12:00	29950	11	-46.7		286	28	
2025-10-19T12:00	30000	11	-46.1		288	28	
2025-10-19T12:00	30050	11	-45.7		291	29	
2025-10-19T12:00	30100	11	-45.6		293	30	
2025-10-19T12:00	30150	11	-45.7		295	31	
2025-10-19T12:00	30200	11	-45.8		296	31	
2025-10-19T12:00	30250	11	-45.6		296	32	
2025-10-19T12:00	30300	11	-45.3		294	32	
2025-10-19T12:00	30350	11	-45.0		291	33	
2025-10-19T12:00	30400	11	-44.8		288	33	
2025-10-19T12:00	30450	10	-44.5		287	33	
2025-10-19T12:00	30500	10	-44.2		288	33	
2025-10-19T12:00	30550	10	-44.0		289	32	
2025-10-19T12:00	30600	10	-43.9		290	32	
2025-10-19T12:00	30650	10	-43.8		290	32	
2025-10-19T12:00	30700	10	-43.7		290	32	
2025-10-19T12:00	30750	10	-43.7		290	31	
2025-10-19T12:00	30800	10	-43.9		289	32	
2025-10-19T12:00	30850	10	-43.7		287	33	
2025-10-19T12:00	30900	10	-43.5		285	33	
2025-10-19T12:00	30950	10	-43.3		284	33	
2025-10-19T12:00	31000	10	-43.1		284	33	
2025-10-19T12:00	31050	10	-43.2		285	33	
2025-10-19T12:00	31100	9	-43.2		286	33	
2025-10-19T12:00	31150	9	-43.2		287	34	
2025-10-19T12:00	31200	9	-43.3		287	33	
2025-10-19T12:00	31250	9	-43.3		287	33	
2025-10-19T12:00	31300	9	-43.3		286	32	
2025-10-19T12:00	31350	9	-43.3		284	32	
2025-10-19T12:00	31400	9	-43.2		284	32	
2025-10-19T12:00	31450	9	-42.8		284	32	
2025-10-19T12:00	31500	9	-42.5		284	31	
2025-10-19T12:00	31550	9	-42.6		285	31	
2025-10-19T12:00	31600	9	-42.8		284	31	
2025-10-19T12:00	31650	9	-42.9		283	31	
2025-10-19T12:00	31700	9	-42.8		282	31	
2025-10-19T12:00	31750	9	-42.9		281	32	
2025-10-19T12:00	31800	9	-43.1		280	32	
2025-10-19T12:00	31850	8	-43.2		281	32	
2025-10-19T12:00	31900	8	-43.2		281	32	
2025-10-19T12:00	31950	8	-43.4		281	33	
2025-10-19T12:00	32000	8	-43.7		281	33	
2025-10-19T12:00	32050	8	-43.8		280	34	
2025-10-19T12:00	32100	8	-44.0		280	34	
2025-10-19T12:00	32150	8	-44.2		281	34	
2025-10-19T12:00	32200	8	-44.4		283	34	
2025-10-19T12:00	32250	8	-44.4		285	34	
2025-10-19T12:00	32300	8	-44.4		287	35	
2025-10-19T12:00	32350	8	-44.4		289	34	
2025-10-19T12:00	32400	8	-44.6		291	34	
2025-10-19T12:00	32450	8	-44.8		294	34	
2025-10-19T12:00	32500	8	-44.7		295	34	
2025-10-19T12:00	32550	8	-44.5		296	34	
2025-10-19T12:00	32600	8	-44.3		295	34	
2025-10-19T12:00	32650	8	-44.3		295	34	
2025-10-19T12:00	32700	7	-44.5		295	34	
2025-10-19T12:00	32750	7	-44.7		294	34	
2025-10-19T12:00	32800	7	-44.7		292	34	
2025-10-19T12:00	32850	7	-44.7		291	34	
2025-10-19T12:00	32900	7	-44.6		289	34	
2025-10-19T12:00	32950	7	-44.3		289	34	
2025-10-19T12:00	33000	7	-44.3		289	34	
2025-10-19T12:00	33050	7	-44.3		290	34	
2025-10-19T12:00	33100	7	-44.4		290	35	
2025-10-19T12:00	33150	7	-44.4		288	35	
2025-10-19T12:00	33200	7	-44.3		288	35	
2025-10-19T12:00	33250	7	-44.4		288	35	
2025-10-19T12:00	33300	7	-44.2		289	34	
2025-10-19T12:00	33350	7	-43.9		290	33	
2025-10-19T12:00	33400	7	-43.5		289	32	
2025-10-19T12:00	33450	7	-42.9		288	31	
2025-10-19T12:00	33500	7	-42.5		286	30	
2025-10-19T12:00	33550	7	-42.4		286	29	
2025-10-19T12:00	33600	7	-42.3		286	28	
2025-10-19T12:00	33650	6	-42.2		286	28	
2025-10-19T12:00	33700	6	-42.3		286	28	
2025-10-19T12:00	33750	6	-42.2		285	28	
2025-10-19T12:00	33800	6	-42.1		283	28	
2025-10-19T12:00	33850	6	-42.2		281	28	
2025-10-19T12:00	33900	6	-41.9		280	28	
2025-10-19T12:00	33950	6	-41.6		280	28	
2025-10-19T12:00	34000	6	-41.5		281	28	
2025-10-19T12:00	34050	6	-41.5		281	28	
2025-10-19T12:00	34100	6	-41.7		280	29	
2025-10-19T12:00	34150	6	-42.0		279	29	
2025-10-19T12:00	34200	6	-41.8		277	30	
2025-10-19T12:00	34250	6	-41.8		275	30	
2025-10-19T12:00	34300	6	-41.8		274	31	
2025-10-19T12:00	34350	6	-41.7		274	31	
2025-10-19T12:00	34400	6	-41.7		273	32	
2025-10-19T12:00	34450	6	-41.7		271	32	
2025-10-19T12:00	34500	6	-41.8		270	32	
2025-10-19T12:00	34550	6	-41.8		269	33	
2025-10-19T12:00	34600	6	-41.6		269	33	
2025-10-19T12:00	34650	6	-41.5		270	33	
2025-10-19T12:00	34700	6	-41.5		271	33	
2025-10-19T12:00	34750	6	-41.4		272	32	
2025-10-19T12:00	34800	5	-41.5		271	32	
2025-10-19T12:00	34850	5	-41.6		270	32	
2025-10-19T12:00	34900	5	-41.5		269	31	
2025-10-19T12:00	34950	5	-41.2		269	31	
2025-10-19T12:00	35000	5	-40.9		268	30	
2025-10-19T12:00	35050	5	-40.8		268	29	
2025-10-19T12:00	35100	5	-40.9		267	29	
2025-10-19T12:00	35150	5	-40.7		267	30	
2025-10-19T12:00	35200	5	-40.4		266	31	
2025-10-19T12:00	35250	5	-40.4		265	32	
2025-10-19T12:00	35300	5	-40.5		265	33	
2025-10-19T12:00	35350	5	-40.6		265	34	
2025-10-19T12:00	35400	5	-41.0		267	35	
2025-10-19T12:00	35450	5	-41.3		268	35	
2025-10-19T12:00	35500	5	-41.5		270	36	
2025-10-19T12:00	35550	5	-41.7		271	36	
2025-10-19T12:00	35600	5	-41.8		272	36	
2025-10-19T12:00	35650	5	-41.7		274	36	
2025-10-19T12:00	35700	5	-41.7		277	37	
2025-10-19T12:00	35750	5	-41.4		280	38	
2025-10-19T12:00	35800	5	-41.2		282	39	
2025-10-19T12:00	35850	5	-41.0		284	40	
2025-10-19T12:00	35900	5	-40.6		286	40	
2025-10-19T12:00	35950	5	-40.4		286	39	
2025-10-19T12:00	36000	5	-40.4		285	38	
2025-10-19T12:00	36050	5	-40.2		284	37	
2025-10-19T12:00	36100	5	-40.1		283	36	
2025-10-19T12:00	36150	4	-40.2		281	36	
2025-10-19T12:00	36200	4	-40.4		280	35	
2025-10-19T12:00	36250	4	-40.6		278	34	
2025-10-19T12:00	36300	4	-40.7		275	33	
2025-10-19T12:00	36350	4	-40.8		273	32	
2025-10-19T12:00	36400	4	-40.7		273	32	
2025-10-19T12:00	36450	4	-40.6		274	32	
2025-10-20T00:00	491	954	8.2	7.8	144	0	
2025-10-20T00:00	501	953	8.4	8.0	253	0	
2025-10-20T00:00	520	951	8.7	8.1	279	0	
2025-10-20T00:00	540	948	9.1	8.0	282	1	
2025-10-20T00:00	560	946	9.6	8.1	284	1	
2025-10-20T00:00	580	944	9.7	8.1	283	1	
2025-10-20T00:00	600	942	9.6	8.2	280	1	
2025-10-20T00:00	620	940	9.5	8.5	276	1	
2025-10-20T00:00	640	938	9.8	8.1	272	1	
2025-10-20T00:00	660	935	10.2	7.8	269	1	
2025-10-20T00:00	680	933	10.3	7.8	267	2	
2025-10-20T00:00	700	931	10.6	8.0	267	2	
2025-10-20T00:00	720	929	10.7	8.1	266	2	
2025-10-20T00:00	740	926	10.9	8.1	265	3	
2025-10-20T00:00	760	924	11.0	8.1	263	3	
2025-10-20T00:00	780	922	11.1	8.0	258	4	
2025-10-20T00:00	800	920	11.1	7.9	254	4	
2025-10-20T00:00	820	917	11.2	7.6	249	5	
2025-10-20T00:00	840	915	11.5	6.8	243	5	
2025-10-20T00:00	860	913	11.8	6.1	238	6	
2025-10-20T00:00	880	911	11.8	6.1	234	6	
2025-10-20T00:00	900	909	11.5	6.1	231	7	
2025-10-20T00:00	920	906	11.4	6.0	230	7	
2025-10-20T00:00	940	904	11.2	5.9	229	7	
2025-10-20T00:00	960	902	11.1	5.7	229	8	
2025-10-20T00:00	980	900	10.9	5.7	228	8	
2025-10-20T00:00	1000	898	10.9	5.4	227	8	
2025-10-20T00:00	1020	896	10.9	5.2	227	9	
2025-10-20T00:00	1040	894	10.8	5.0	225	10	
2025-10-20T00:00	1060	891	10.7	5.1	224	10	
2025-10-20T00:00	1080	889	10.6	5.1	224	11	
2025-10-20T00:00	1100	887	10.7	5.3	224	12	
2025-10-20T00:00	1120	885	11.0	5.5	225	12	
2025-10-20T00:00	1140	883	11.1	5.7	225	13	
2025-10-20T00:00	1160	881	10.9	5.6	226	13	
2025-10-20T00:00	1180	879	10.7	5.7	226	13	
2025-10-20T00:00	1200	876	10.5	5.7	225	14	
2025-10-20T00:00	1220	875	10.5	5.8	225	14	
2025-10-20T00:00	1240	873	10.4	5.8	224	14	
2025-10-20T00:00	1260	870	10.2	5.7	223	14	
2025-10-20T00:00	1280	868	10.2	5.5	223	15	
2025-10-20T00:00	1300	866	10.2	5.4	222	15	
2025-10-20T00:00	1320	864	10.1	5.3	222	15	
2025-10-20T00:00	1340	862	10.0	5.1	222	15	
2025-10-20T00:00	1360	860	10.2	4.7	221	15	
2025-10-20T00:00	1380	858	10.2	4.6	221	15	
2025-10-20T00:00	1400	856	10.1	4.5	221	15	
2025-10-20T00:00	1420	854	9.9	4.5	221	15	
2025-10-20T00:00	1440	852	9.8	4.3	220	15	
2025-10-20T00:00	1460	850	9.8	4.1	220	16	
2025-10-20T00:00	1480	848	9.8	3.8	220	16	
2025-10-20T00:00	1500	845	9.8	3.4	219	16	
2025-10-20T00:00	1520	844	9.8	3.1	219	17	
2025-10-20T00:00	1540	842	9.8	2.8	219	17	
2025-10-20T00:00	1560	839	9.7	2.4	219	17	
2025-10-20T00:00	1580	837	9.6	2.1	219	18	
2025-10-20T00:00	1600	836	9.5	1.8	219	18	
2025-10-20T00:00	1620	834	9.3	1.8	219	18	
2025-10-20T00:00	1640	832	9.2	1.6	218	18	
2025-10-20T00:00	1660	830	9.1	1.2	219	19	
2025-10-20T00:00	1680	827	9.0	0.9	219	19	
2025-10-20T00:00	1700	826	8.9	0.7	219	19	
2025-10-20T00:00	1720	824	8.8	0.5	220	19	
2025-10-20T00:00	1740	822	8.6	0.5	221	20	
2025-10-20T00:00	1760	820	8.4	0.4	221	20	
2025-10-20T00:00	1780	818	8.3	0.3	222	20	
2025-10-20T00:00	1800	816	8.1	0.1	222	21	
2025-10-20T00:00	1820	814	7.9	0.0	223	21	
2025-10-20T00:00	1840	812	7.8	0.0	223	21	
2025-10-20T00:00	1860	810	7.6	-0.1	222	21	
2025-10-20T00:00	1880	808	7.5	-0.2	222	21	
2025-10-20T00:00	1900	806	7.4	-0.2	221	21	
2025-10-20T00:00	1920	804	7.2	-0.1	221	21	
2025-10-20T00:00	1940	802	7.0	-0.1	221	21	
2025-10-20T00:00	1960	800	6.9	-0.1	221	21	
2025-10-20T00:00	1980	798	6.8	-0.3	222	21	
2025-10-20T00:00	2000	796	6.7	-0.3	222	21	
2025-10-20T00:00	2020	794	6.6	-0.1	222	21	
2025-10-20T00:00	2040	792	6.5	0.1	222	22	
2025-10-20T00:00	2060	790	6.4	0.4	223	22	
2025-10-20T00:00	2080	788	6.2	0.3	223	22	
2025-10-20T00:00	2100	786	6.0	0.3	223	22	
2025-10-20T00:00	2120	784	5.9	0.3	223	22	
2025-10-20T00:00	2140	782	5.7	0.2	223	22	
2025-10-20T00:00	2160	781	5.5	0.1	223	22	
2025-10-20T00:00	2180	779	5.3	0.2	223	21	
2025-10-20T00:00	2200	777	5.2	0.2	223	21	
2025-10-20T00:00	2220	775	5.0	0.1	223	21	
2025-10-20T00:00	2240	773	4.9	0.1	224	21	
2025-10-20T00:00	2260	771	4.7	0.5	224	20	
2025-10-20T00:00	2280	769	4.6	0.6	225	20	
2025-10-20T00:00	2300	767	4.5	0.5	225	20	
2025-10-20T00:00	2320	765	4.4	0.4	226	20	
2025-10-20T00:00	2340	764	4.3	0.6	226	20	
2025-10-20T00:00	2360	762	4.1	0.6	227	20	
2025-10-20T00:00	2380	760	4.0	0.7	227	20	
2025-10-20T00:00	2400	758	3.8	0.8	228	20	
2025-10-20T00:00	2420	756	3.6	0.8	228	19	
2025-10-20T00:00	2440	754	3.4	0.8	228	19	
2025-10-20T00:00	2460	753	3.3	0.8	228	19	
2025-10-20T00:00	2480	751	3.2	0.7	228	19	
2025-10-20T00:00	2500	749	3.1	0.3	229	18	
2025-10-20T00:00	2520	747	3.0	0.2	228	18	
2025-10-20T00:00	2540	745	2.9	0.1	228	18	
2025-10-20T00:00	2560	743	2.7	0.1	228	17	
2025-10-20T00:00	2580	741	2.6	0.0	227	17	
2025-10-20T00:00	2600	740	2.4	0.0	226	17	
2025-10-20T00:00	2620	738	2.2	0.0	225	16	
2025-10-20T00:00	2640	736	2.1	-0.2	225	16	
2025-10-20T00:00	2660	734	2.1	-0.7	224	16	
2025-10-20T00:00	2680	732	2.0	-0.8	224	16	
2025-10-20T00:00	2700	731	1.9	-1.0	224	15	
2025-10-20T00:00	2720	729	1.8	-1.0	224	15	
2025-10-20T00:00	2740	727	1.6	-1.3	225	15	
2025-10-20T00:00	2760	725	1.5	-1.6	226	15	
2025-10-20T00:00	2780	723	1.4	-1.8	226	15	
2025-10-20T00:00	2800	721	1.2	-1.9	227	15	
2025-10-20T00:00	2820	720	1.0	-2.2	227	15	
2025-10-20T00:00	2840	718	1.0	-3.0	228	15	
2025-10-20T00:00	2860	716	0.8	-2.8	228	14	
2025-10-20T00:00	2880	714	0.7	-3.6	229	14	
2025-10-20T00:00	2900	712	0.6	-5.2	229	14	
2025-10-20T00:00	2920	711	0.6	-7.6	229	13	
2025-10-20T00:00	2940	709	0.5	-7.5	229	13	
2025-10-20T00:00	2960	707	0.2	-7.6	229	13	
2025-10-20T00:00	2980	705	0.1	-7.8	228	12	
2025-10-20T00:00	3000	704	-0.1	-9.5	227	12	
2025-10-20T00:00	3020	702	0.0	-13.0	226	12	
2025-10-20T00:00	3040	700	-0.1	-15.6	224	11	
2025-10-20T00:00	3060	699	0.0	-19.5	224	11	
2025-10-20T00:00	3080	697	-0.2	-20.8	223	11	
2025-10-20T00:00	3100	695	-0.4	-20.6	223	10	
2025-10-20T00:00	3120	693	-0.5	-21.0	223	10	
2025-10-20T00:00	3140	692	-0.6	-22.7	224	10	
2025-10-20T00:00	3160	690	-0.7	-25.0	224	9	
2025-10-20T00:00	3180	688	-0.7	-26.4	225	9	
2025-10-20T00:00	3200	686	-0.8	-26.4	225	9	
2025-10-20T00:00	3220	685	-0.9	-26.4	226	9	
2025-10-20T00:00	3240	683	-1.1	-26.5	227	9	
2025-10-20T00:00	3260	681	-1.3	-26.6	228	9	
2025-10-20T00:00	3280	679	-1.4	-26.7	229	9	
2025-10-20T00:00	3300	678	-1.6	-26.7	230	9	
2025-10-20T00:00	3320	676	-1.8	-26.8	232	9	
2025-10-20T00:00	3340	675	-1.9	-26.9	233	9	
2025-10-20T00:00	3360	673	-2.1	-27.0	234	9	
2025-10-20T00:00	3380	671	-2.3	-27.1	233	9	
2025-10-20T00:00	3400	669	-2.4	-27.2	232	10	
2025-10-20T00:00	3420	668	-2.6	-27.2	230	10	
2025-10-20T00:00	3440	666	-2.7	-27.3	227	10	
2025-10-20T00:00	3460	664	-2.9	-27.3	225	10	
2025-10-20T00:00	3480	663	-3.1	-27.4	224	10	
2025-10-20T00:00	3500	661	-3.3	-27.6	223	11	
2025-10-20T00:00	3520	659	-3.4	-27.7	223	11	
2025-10-20T00:00	3540	658	-3.6	-27.8	223	11	
2025-10-20T00:00	3560	656	-3.8	-27.9	223	11	
2025-10-20T00:00	3580	654	-3.9	-28.1	224	12	
2025-10-20T00:00	3600	653	-4.0	-28.0	225	12	
2025-10-20T00:00	3620	651	-4.2	-27.8	226	12	
2025-10-20T00:00	3640	649	-4.3	-27.7	226	13	
2025-10-20T00:00	3660	648	-4.4	-28.1	227	13	
2025-10-20T00:00	3680	646	-4.6	-29.4	228	13	
2025-10-20T00:00	3700	644	-4.6	-30.4	228	14	
2025-10-20T00:00	3720	643	-4.7	-30.8	229	14	
2025-10-20T00:00	3740	641	-4.9	-31.2	229	14	
2025-10-20T00:00	3760	639	-5.0	-31.6	229	14	
2025-10-20T00:00	3780	638	-5.1	-32.0	228	14	
2025-10-20T00:00	3800	636	-5.1	-32.1	227	14	
2025-10-20T00:00	3820	634	-5.2	-32.3	226	14	
2025-10-20T00:00	3840	633	-5.2	-32.6	225	14	
2025-10-20T00:00	3860	631	-5.3	-33.0	223	14	
2025-10-20T00:00	3880	630	-5.2	-33.4	222	14	
2025-10-20T00:00	3900	628	-5.2	-33.4	222	14	
2025-10-20T00:00	3920	627	-5.1	-32.9	223	14	
2025-10-20T00:00	3940	625	-5.2	-33.1	225	15	
2025-10-20T00:00	3960	623	-5.3	-33.4	227	15	
2025-10-20T00:00	3980	622	-5.5	-33.2	229	15	
2025-10-20T00:00	4000	620	-5.5	-31.5	231	15	
2025-10-20T00:00	4020	619	-5.5	-28.6	233	15	
2025-10-20T00:00	4040	617	-5.5	-25.8	235	15	
2025-10-20T00:00	4060	616	-5.5	-24.3	235	15	
2025-10-20T00:00	4080	614	-5.7	-23.6	235	16	
2025-10-20T00:00	4100	612	-5.9	-23.5	234	16	
2025-10-20T00:00	4120	611	-6.1	-23.8	233	16	
2025-10-20T00:00	4140	609	-6.3	-23.4	232	16	
2025-10-20T00:00	4160	608	-6.3	-21.2	231	17	
2025-10-20T00:00	4180	606	-6.4	-17.9	230	17	
2025-10-20T00:00	4200	605	-6.3	-14.9	230	17	
2025-10-20T00:00	4220	603	-6.4	-14.8	229	17	
2025-10-20T00:00	4240	601	-6.6	-14.9	228	16	
2025-10-20T00:00	4260	600	-6.8	-14.6	228	16	
2025-10-20T00:00	4280	598	-7.0	-14.3	228	17	
2025-10-20T00:00	4300	597	-7.2	-14.4	228	17	
2025-10-20T00:00	4320	595	-7.4	-14.6	228	17	
2025-10-20T00:00	4340	594	-7.6	-14.5	228	17	
2025-10-20T00:00	4360	592	-7.8	-14.2	227	17	
2025-10-20T00:00	4380	591	-7.9	-14.0	227	17	
2025-10-20T00:00	4400	589	-8.1	-14.0	226	17	
2025-10-20T00:00	4420	588	-8.3	-13.9	226	17	
2025-10-20T00:00	4440	586	-8.5	-13.8	226	17	
2025-10-20T00:00	4460	585	-8.6	-13.5	226	17	
2025-10-20T00:00	4480	583	-8.8	-13.5	227	17	
2025-10-20T00:00	4500	582	-8.9	-13.5	228	17	
2025-10-20T00:00	4520	580	-9.1	-13.5	228	18	
2025-10-20T00:00	4540	579	-9.3	-13.6	229	18	
2025-10-20T00:00	4560	577	-9.5	-13.6	229	18	
2025-10-20T00:00	4580	576	-9.7	-13.6	229	17	
2025-10-20T00:00	4600	574	-9.9	-13.7	228	17	
2025-10-20T00:00	4620	573	-9.9	-14.0	228	17	
2025-10-20T00:00	4640	571	-10.0	-14.2	227	16	
2025-10-20T00:00	4660	570	-10.1	-14.4	226	16	
2025-10-20T00:00	4680	568	-10.3	-14.6	225	16	
2025-10-20T00:00	4700	567	-10.4	-14.9	225	17	
2025-10-20T00:00	4720	565	-10.6	-15.1	225	17	
2025-10-20T00:00	4740	564	-10.7	-15.3	225	17	
2025-10-20T00:00	4760	562	-10.9	-15.4	225	17	
2025-10-20T00:00	4780	561	-11.1	-15.5	225	17	
2025-10-20T00:00	4800	559	-11.3	-15.7	225	16	
2025-10-20T00:00	4820	558	-11.3	-16.8	226	16	
2025-10-20T00:00	4840	557	-11.4	-17.0	227	16	
2025-10-20T00:00	4860	555	-11.5	-16.9	229	16	
2025-10-20T00:00	4880	554	-11.7	-16.9	230	16	
2025-10-20T00:00	4900	552	-11.8	-17.2	232	16	
2025-10-20T00:00	4920	551	-11.8	-17.0	235	16	
2025-10-20T00:00	4940	549	-11.9	-16.2	236	16	
2025-10-20T00:00	4960	548	-11.8	-15.0	238	17	
2025-10-20T00:00	4980	546	-11.9	-14.5	240	17	
2025-10-20T00:00	5000	545	-12.1	-14.6	241	17	
2025-10-20T00:00	5020	544	-12.2	-14.1	242	17	
2025-10-20T00:00	5040	542	-12.3	-14.0	242	17	
2025-10-20T00:00	5060	541	-12.4	-14.1	243	17	
2025-10-20T00:00	5080	539	-12.5	-14.2	244	17	
2025-10-20T00:00	5100	538	-12.7	-14.3	246	17	
2025-10-20T00:00	5120	536	-12.8	-14.4	247	16	
2025-10-20T00:00	5140	535	-12.9	-14.5	249	16	
2025-10-20T00:00	5160	534	-12.9	-14.4	251	16	
2025-10-20T00:00	5180	532	-12.9	-14.3	253	16	
2025-10-20T00:00	5200	531	-13.0	-14.2	254	15	
2025-10-20T00:00	5220	529	-13.1	-14.2	255	15	
2025-10-20T00:00	5240	528	-13.2	-14.2	256	15	
2025-10-20T00:00	5260	527	-13.3	-14.2	257	14	
2025-10-20T00:00	5280	525	-13.3	-14.2	256	14	
2025-10-20T00:00	5300	524	-13.5	-14.2	256	14	
2025-10-20T00:00	5320	523	-13.6	-14.2	256	14	
2025-10-20T00:00	5340	521	-13.8	-14.3	256	14	
2025-10-20T00:00	5360	520	-14.0	-14.3	256	14	
2025-10-20T00:00	5380	519	-14.2	-14.3	257	14	
2025-10-20T00:00	5400	517	-14.4	-14.5	258	14	
2025-10-20T00:00	5420	516	-14.5	-14.6	259	13	
2025-10-20T00:00	5440	514	-14.6	-14.6	260	13	
2025-10-20T00:00	5460	513	-14.8	-14.8	262	13	
2025-10-20T00:00	5480	512	-14.9	-15.0	264	13	
2025-10-20T00:00	5500	510	-15.1	-15.2	266	12	
2025-10-20T00:00	5520	509	-15.3	-15.4	268	12	
2025-10-20T00:00	5540	508	-15.4	-15.4	271	12	
2025-10-20T00:00	5560	506	-15.5	-15.6	274	11	
2025-10-20T00:00	5580	505	-15.6	-15.8	276	11	
2025-10-20T00:00	5600	504	-15.5	-15.9	279	11	
2025-10-20T00:00	5620	502	-15.4	-16.1	281	11	
2025-10-20T00:00	5640	501	-15.1	-16.4	282	11	
2025-10-20T00:00	5660	500	-15.0	-16.5	282	11	
2025-10-20T00:00	5680	498	-15.1	-16.3	281	11	
2025-10-20T00:00	5700	497	-15.1	-16.2	279	11	
2025-10-20T00:00	5720	496	-15.1	-16.0	277	11	
2025-10-20T00:00	5740	494	-14.9	-16.4	276	11	
2025-10-20T00:00	5760	493	-14.9	-16.7	276	11	
2025-10-20T00:00	5780	492	-14.9	-16.9	276	11	
2025-10-20T00:00	5800	490	-14.8	-17.1	277	10	
2025-10-20T00:00	5820	489	-14.6	-17.3	278	10	
2025-10-20T00:00	5840	488	-14.6	-17.6	280	10	
2025-10-20T00:00	5860	487	-14.7	-17.7	282	10	
2025-10-20T00:00	5880	485	-14.7	-17.9	283	10	
2025-10-20T00:00	5900	484	-14.8	-18.0	283	10	
2025-10-20T00:00	5920	483	-15.0	-18.0	284	10	
2025-10-20T00:00	5940	482	-15.1	-18.1	283	10	
2025-10-20T00:00	5960	480	-15.3	-18.2	282	10	
2025-10-20T00:00	5980	479	-15.4	-18.3	281	10	
2025-10-20T00:00	6000	478	-15.5	-18.4	280	10	
2025-10-20T00:00	6020	476	-15.7	-18.5	278	10	
2025-10-20T00:00	6040	475	-15.8	-18.6	278	10	
2025-10-20T00:00	6060	474	-15.9	-18.6	277	10	
2025-10-20T00:00	6080	473	-16.0	-18.8	277	10	
2025-10-20T00:00	6100	471	-16.1	-18.9	277	10	
2025-10-20T00:00	6120	470	-16.3	-19.1	278	11	
2025-10-20T00:00	6140	469	-16.4	-19.2	279	11	
2025-10-20T00:00	6160	468	-16.5	-19.4	280	11	
2025-10-20T00:00	6180	466	-16.6	-19.6	280	11	
2025-10-20T00:00	6200	465	-16.8	-19.8	280	11	
2025-10-20T00:00	6220	464	-17.0	-19.9	280	11	
2025-10-20T00:00	6240	463	-17.2	-20.0	279	11	
2025-10-20T00:00	6260	461	-17.3	-20.1	277	12	
2025-10-20T00:00	6280	460	-17.5	-20.1	276	12	
2025-10-20T00:00	6300	459	-17.7	-20.2	275	12	
2025-10-20T00:00	6320	458	-17.9	-20.4	275	12	
2025-10-20T00:00	6340	457	-18.1	-20.5	276	12	
2025-10-20T00:00	6360	455	-18.2	-20.6	278	12	
2025-10-20T00:00	6380	454	-18.4	-21.3	279	12	
2025-10-20T00:00	6400	453	-18.5	-21.5	281	12	
2025-10-20T00:00	6420	452	-18.6	-21.7	282	12	
2025-10-20T00:00	6440	451	-18.7	-22.1	284	13	
2025-10-20T00:00	6460	449	-18.9	-22.3	285	13	
2025-10-20T00:00	6480	448	-19.1	-22.6	285	13	
2025-10-20T00:00	6500	447	-19.2	-22.6	284	13	
2025-10-20T00:00	6520	446	-19.3	-23.1	284	13	
2025-10-20T00:00	6540	444	-19.4	-24.0	283	14	
2025-10-20T00:00	6560	443	-19.5	-24.1	282	14	
2025-10-20T00:00	6580	442	-19.7	-24.0	281	15	
2025-10-20T00:00	6600	441	-19.8	-24.3	281	15	
2025-10-20T00:00	6620	440	-19.7	-25.4	281	15	
2025-10-20T00:00	6640	439	-19.8	-25.6	281	16	
2025-10-20T00:00	6660	437	-20.0	-25.6	282	16	
2025-10-20T00:00	6680	436	-20.2	-25.6	282	16	
2025-10-20T00:00	6700	435	-20.3	-25.6	283	16	
2025-10-20T00:00	6720	434	-20.5	-25.7	283	16	
2025-10-20T00:00	6740	433	-20.7	-25.8	283	15	
2025-10-20T00:00	6760	432	-20.8	-25.9	284	15	
2025-10-20T00:00	6780	430	-21.0	-26.0	284	15	
2025-10-20T00:00	6800	429	-21.2	-26.2	283	16	
2025-10-20T00:00	6820	428	-21.4	-26.4	283	16	
2025-10-20T00:00	6840	427	-21.5	-26.4	282	16	
2025-10-20T00:00	6860	426	-21.7	-26.7	281	16	
2025-10-20T00:00	6880	425	-21.9	-26.8	279	16	
2025-10-20T00:00	6900	424	-22.1	-26.8	278	17	
2025-10-20T00:00	6920	422	-22.3	-27.1	276	17	
2025-10-20T00:00	6940	421	-22.5	-26.9	275	17	
2025-10-20T00:00	6960	420	-22.7	-27.1	274	17	
2025-10-20T00:00	6980	419	-22.9	-26.9	273	16	
2025-10-20T00:00	7000	418	-23.1	-26.4	274	15	
2025-10-20T00:00	7020	417	-23.2	-26.1	274	15	
2025-10-20T00:00	7040	415	-23.4	-26.1	275	15	
2025-10-20T00:00	7060	414	-23.5	-26.3	275	14	
2025-10-20T00:00	7080	413	-23.6	-26.3	276	14	
2025-10-20T00:00	7100	412	-23.7	-26.6	276	13	
2025-10-20T00:00	7120	411	-23.8	-26.8	275	13	
2025-10-20T00:00	7140	410	-24.0	-26.9	275	13	
2025-10-20T00:00	7160	409	-24.2	-27.1	274	13	
2025-10-20T00:00	7180	408	-24.3	-27.4	273	13	
2025-10-20T00:00	7200	406	-24.4	-27.4	271	13	
2025-10-20T00:00	7220	405	-24.6	-27.2	270	13	
2025-10-20T00:00	7240	404	-24.7	-26.9	269	13	
2025-10-20T00:00	7260	403	-24.9	-27.1	269	14	
2025-10-20T00:00	7280	402	-25.0	-27.2	269	14	
2025-10-20T00:00	7300	401	-25.2	-27.5	270	14	
2025-10-20T00:00	7320	400	-25.3	-27.6	271	14	
2025-10-20T00:00	7340	399	-25.5	-27.8	272	14	
2025-10-20T00:00	7360	397	-25.6	-28.1	273	14	
2025-10-20T00:00	7380	396	-25.8	-28.4	273	14	
2025-10-20T00:00	7400	395	-26.0	-28.6	273	14	
2025-10-20T00:00	7420	394	-26.1	-28.8	273	14	
2025-10-20T00:00	7440	393	-26.2	-29.0	273	14	
2025-10-20T00:00	7460	392	-26.4	-29.1	272	14	
2025-10-20T00:00	7480	391	-26.5	-29.2	272	14	
2025-10-20T00:00	7500	390	-26.7	-29.4	271	14	
2025-10-20T00:00	7520	389	-26.9	-29.6	270	14	
2025-10-20T00:00	7540	388	-27.0	-29.8	270	13	
2025-10-20T00:00	7560	387	-27.2	-30.0	270	13	
2025-10-20T00:00	7580	386	-27.3	-30.1	270	13	
2025-10-20T00:00	7600	385	-27.5	-30.1	271	13	
2025-10-20T00:00	7620	383	-27.6	-30.2	272	12	
2025-10-20T00:00	7640	382	-27.8	-30.5	273	12	
2025-10-20T00:00	7660	381	-28.0	-30.9	274	12	
2025-10-20T00:00	7680	380	-28.1	-31.2	275	12	
2025-10-20T00:00	7700	379	-28.3	-31.3	276	11	
2025-10-20T00:00	7720	378	-28.4	-31.4	276	11	
2025-10-20T00:00	7740	377	-28.6	-31.6	275	11	
2025-10-20T00:00	7760	376	-28.8	-31.9	274	11	
2025-10-20T00:00	7780	375	-29.0	-32.0	272	12	
2025-10-20T00:00	7800	374	-29.2	-32.0	269	12	
2025-10-20T00:00	7820	373	-29.3	-32.2	268	12	
2025-10-20T00:00	7840	372	-29.4	-32.3	267	12	
2025-10-20T00:00	7860	371	-29.6	-32.7	265	13	
2025-10-20T00:00	7880	370	-29.8	-32.8	264	13	
2025-10-20T00:00	7900	369	-29.9	-32.9	262	13	
2025-10-20T00:00	7920	368	-30.1	-32.9	260	13	
2025-10-20T00:00	7940	367	-30.2	-33.1	260	13	
2025-10-20T00:00	7960	366	-30.4	-33.4	259	13	
2025-10-20T00:00	7980	365	-30.5	-33.6	259	13	
2025-10-20T00:00	8000	364	-30.7	-33.9	259	13	
2025-10-20T00:00	8020	363	-30.9	-33.9	258	13	
2025-10-20T00:00	8040	362	-31.1	-34.0	258	13	
2025-10-20T00:00	8060	361	-31.2	-34.1	257	13	
2025-10-20T00:00	8080	360	-31.4	-34.3	256	13	
2025-10-20T00:00	8100	359	-31.6	-34.6	255	13	
2025-10-20T00:00	8120	358	-31.7	-34.9	254	13	
2025-10-20T00:00	8140	357	-31.9	-35.0	252	13	
2025-10-20T00:00	8160	355	-32.1	-35.1	251	13	
2025-10-20T00:00	8180	354	-32.2	-35.2	251	12	
2025-10-20T00:00	8200	354	-32.4	-35.1	251	12	
2025-10-20T00:00	8220	352	-32.5	-35.4	251	12	
2025-10-20T00:00	8240	351	-32.7	-35.7	251	12	
2025-10-20T00:00	8260	350	-32.8	-35.7	252	12	
2025-10-20T00:00	8280	349	-33.0	-36.0	253	12	
2025-10-20T00:00	8300	348	-33.1	-36.1	253	12	
2025-10-20T00:00	8320	348	-33.3	-36.4	253	12	
2025-10-20T00:00	8340	346	-33.5	-36.4	253	13	
2025-10-20T00:00	8360	345	-33.6	-36.5	253	13	
2025-10-20T00:00	8380	344	-33.8	-37.0	252	13	
2025-10-20T00:00	8400	344	-33.9	-37.2	252	14	
2025-10-20T00:00	8420	343	-34.1	-37.3	253	14	
2025-10-20T00:00	8440	342	-34.3	-37.5	253	14	
2025-10-20T00:00	8460	341	-34.4	-37.6	254	15	
2025-10-20T00:00	8480	340	-34.6	-37.7	254	15	
2025-10-20T00:00	8500	339	-34.7	-37.8	254	15	
2025-10-20T00:00	8520	338	-34.9	-38.0	254	15	
2025-10-20T00:00	8540	337	-35.1	-38.3	254	16	
2025-10-20T00:00	8560	336	-35.3	-38.6	253	16	
2025-10-20T00:00	8580	335	-35.4	-38.7	253	16	
2025-10-20T00:00	8600	334	-35.6	-38.7	252	17	
2025-10-20T00:00	8620	333	-35.7	-39.1	252	17	
2025-10-20T00:00	8640	332	-35.9	-39.3	251	17	
2025-10-20T00:00	8660	331	-36.1	-39.2	251	17	
2025-10-20T00:00	8680	330	-36.2	-39.4	251	17	
2025-10-20T00:00	8700	329	-36.3	-39.6	251	17	
2025-10-20T00:00	8720	328	-36.5	-39.9	251	17	
2025-10-20T00:00	8740	327	-36.7	-40.3	251	17	
2025-10-20T00:00	8760	326	-36.9	-40.4	251	17	
2025-10-20T00:00	8780	325	-37.0	-40.5	251	17	
2025-10-20T00:00	8800	324	-37.3	-40.7	251	16	
2025-10-20T00:00	8820	323	-37.5	-41.0	251	16	
2025-10-20T00:00	8840	322	-37.6	-41.1	250	16	
2025-10-20T00:00	8860	322	-37.8	-41.2	250	16	
2025-10-20T00:00	8880	321	-37.9	-41.3	250	16	
2025-10-20T00:00	8900	320	-38.1	-41.5	250	16	
2025-10-20T00:00	8920	319	-38.3	-42.1	250	16	
2025-10-20T00:00	8940	318	-38.5	-42.5	250	16	
2025-10-20T00:00	8960	317	-38.7	-42.5	250	16	
2025-10-20T00:00	8980	316	-38.9	-42.6	250	16	
2025-10-20T00:00	9000	315	-39.0	-42.7	250	16	
2025-10-20T00:00	9020	314	-39.1	-42.8	250	16	
2025-10-20T00:00	9040	313	-39.3	-42.9	250	16	
2025-10-20T00:00	9060	312	-39.5	-43.4	250	15	
2025-10-20T00:00	9080	311	-39.7	-43.3	250	15	
2025-10-20T00:00	9100	310	-39.9	-43.4	249	15	
2025-10-20T00:00	9120	310	-40.0	-43.5	248	15	
2025-10-20T00:00	9140	309	-40.2	-43.7	247	15	
2025-10-20T00:00	9160	308	-40.3	-44.2	246	15	
2025-10-20T00:00	9180	307	-40.5	-44.3	245	16	
2025-10-20T00:00	9200	306	-40.7	-44.4	244	16	
2025-10-20T00:00	9220	305	-40.9	-44.6	243	16	
2025-10-20T00:00	9240	304	-41.0	-44.8	243	16	
2025-10-20T00:00	9260	303	-41.2	-45.1	243	16	
2025-10-20T00:00	9280	302	-41.4	-45.5	242	16	
2025-10-20T00:00	9300	301	-41.6	-45.7	242	16	
2025-10-20T00:00	9320	301	-41.7	-45.9	242	16	
2025-10-20T00:00	9340	300	-41.9	-46.2	241	16	
2025-10-20T00:00	9360	299	-42.0	-46.4	241	16	
2025-10-20T00:00	9380	298	-42.2	-46.6	240	16	
2025-10-20T00:00	9400	297	-42.4	-46.7	239	16	
2025-10-20T00:00	9420	296	-42.6	-47.0	238	16	
2025-10-20T00:00	9440	295	-42.8	-47.4	237	16	
2025-10-20T00:00	9460	294	-43.0	-47.9	236	16	
2025-10-20T00:00	9480	294	-43.2	-47.9	235	16	
2025-10-20T00:00	9500	293	-43.3	-48.0	234	16	
2025-10-20T00:00	9520	292	-43.5	-47.9	234	16	
2025-10-20T00:00	9540	291	-43.7	-47.7	234	16	
2025-10-20T00:00	9560	290	-43.9	-47.8	235	15	
2025-10-20T00:00	9580	289	-44.1	-48.2	236	15	
2025-10-20T00:00	9600	288	-44.3	-48.4	237	15	
2025-10-20T00:00	9620	288	-44.4	-48.5	238	16	
2025-10-20T00:00	9640	287	-44.6	-48.5	239	16	
2025-10-20T00:00	9660	286	-44.8	-48.5	240	16	
2025-10-20T00:00	9680	285	-45.0	-48.6	241	16	
2025-10-20T00:00	9700	284	-45.2	-49.0	242	16	
2025-10-20T00:00	9720	283	-45.3	-49.4	243	16	
2025-10-20T00:00	9740	283	-45.5	-49.5	243	17	
2025-10-20T00:00	9760	282	-45.7	-49.7	244	17	
2025-10-20T00:00	9780	281	-45.9	-49.9	244	17	
2025-10-20T00:00	9800	280	-46.1	-50.2	243	17	
2025-10-20T00:00	9820	279	-46.3	-50.3	243	17	
2025-10-20T00:00	9840	278	-46.5	-50.5	243	17	
2025-10-20T00:00	9860	277	-46.7	-50.7	243	17	
2025-10-20T00:00	9880	276	-46.8	-50.9	243	17	
2025-10-20T00:00	9900	276	-47.0	-51.0	243	17	
2025-10-20T00:00	9920	275	-47.2	-51.1	243	18	
2025-10-20T00:00	9940	274	-47.3	-51.1	244	18	
2025-10-20T00:00	9960	273	-47.5	-51.2	244	18	
2025-10-20T00:00	9980	272	-47.8	-51.4	245	18	
2025-10-20T00:00	10000	272	-48.0	-51.5	245	18	
2025-10-20T00:00	10018	271	-48.1	-51.6	245	18	
2025-10-20T00:00	10050	270	-48.4	-51.7	245	18	
2025-10-20T00:00	10100	268	-48.8	-52.2	243	18	
2025-10-20T00:00	10150	265	-49.3	-52.9	242	18	
2025-10-20T00:00	10200	263	-49.7	-53.6	243	18	
2025-10-20T00:00	10250	262	-50.2	-54.9	244	18	
2025-10-20T00:00	10300	259	-50.7	-54.7	244	19	
2025-10-20T00:00	10350	257	-51.2	-54.8	243	19	
2025-10-20T00:00	10400	255	-51.6	-55.3	242	19	
2025-10-20T00:00	10450	253	-52.1	-56.1	242	19	
2025-10-20T00:00	10500	252	-52.6	-56.1	244	18	
2025-10-20T00:00	10550	250	-53.0	-56.8	245	18	
2025-10-20T00:00	10600	248	-53.5	-57.4	244	18	
2025-10-20T00:00	10650	246	-54.0	-57.4	243	19	
2025-10-20T00:00	10700	244	-54.4	-57.6	242	20	
2025-10-20T00:00	10750	242	-54.9	-58.2	244	20	
2025-10-20T00:00	10800	240	-55.4	-58.2	245	20	
2025-10-20T00:00	10850	238	-55.9	-58.2	244	19	
2025-10-20T00:00	10900	236	-56.3	-58.6	243	19	
2025-10-20T00:00	10950	234	-56.6	-59.3	242	19	
2025-10-20T00:00	11000	233	-56.7	-60.2	240	19	
2025-10-20T00:00	11050	231	-57.1	-61.1	238	20	
2025-10-20T00:00	11100	229	-57.5	-61.9	236	20	
2025-10-20T00:00	11150	227	-57.9	-61.9	234	20	
2025-10-20T00:00	11200	225	-58.3	-61.8	233	21	
2025-10-20T00:00	11250	224	-58.7	-62.4	233	21	
2025-10-20T00:00	11300	222	-59.1	-62.9	233	21	
2025-10-20T00:00	11350	220	-59.5	-63.1	233	21	
2025-10-20T00:00	11400	218	-59.9	-63.7	232	22	
2025-10-20T00:00	11450	217	-60.3	-64.3	233	22	
2025-10-20T00:00	11500	215	-60.6	-64.7	235	23	
2025-10-20T00:00	11550	213	-61.0	-65.3	239	23	
2025-10-20T00:00	11600	211	-61.3	-65.5	243	23	
2025-10-20T00:00	11650	210	-61.6	-65.6	246	23	
2025-10-20T00:00	11700	208	-61.9	-64.9	249	23	
2025-10-20T00:00	11750	206	-62.2	-64.4	249	22	
2025-10-20T00:00	11800	205	-62.3	-64.5	248	21	
2025-10-20T00:00	11850	203	-62.5	-65.3	248	21	
2025-10-20T00:00	11900	201	-62.4	-66.0	248	20	
2025-10-20T00:00	11950	200	-62.5	-66.2	250	20	
2025-10-20T00:00	12000	198	-62.8	-66.4	254	20	
2025-10-20T00:00	12050	196	-63.0	-67.2	258	20	
2025-10-20T00:00	12100	195	-62.4	-68.5	262	21	
2025-10-20T00:00	12150	193	-61.8	-70.2	263	23	
2025-10-20T00:00	12200	192	-61.9	-71.4	264	23	
2025-10-20T00:00	12250	190	-61.8	-72.1	266	22	
2025-10-20T00:00	12300	189	-61.2	-73.3	268	21	
2025-10-20T00:00	12350	187	-60.8	-74.3	271	20	
2025-10-20T00:00	12400	186	-60.5	-74.7	273	19	
2025-10-20T00:00	12450	184	-60.7	-74.9	272	18	
2025-10-20T00:00	12500	183	-60.7	-75.2	270	17	
2025-10-20T00:00	12550	181	-60.4	-76.2	269	17	
2025-10-20T00:00	12600	180	-60.3	-78.1	267	17	
2025-10-20T00:00	12650	178	-60.0	-79.4	265	16	
2025-10-20T00:00	12700	177	-60.2	-80.3	264	16	
2025-10-20T00:00	12750	176	-59.9	-80.4	263	16	
2025-10-20T00:00	12800	174	-59.7	-80.1	264	15	
2025-10-20T00:00	12850	173	-60.0	-80.0	265	15	
2025-10-20T00:00	12900	171	-60.3	-80.0	265	15	
2025-10-20T00:00	12950	170	-60.1	-80.1	266	16	
2025-10-20T00:00	13000	169	-59.6	-80.2	266	16	
2025-10-20T00:00	13050	167	-59.1	-79.8	265	15	
2025-10-20T00:00	13100	166	-59.0	-79.5	266	14	
2025-10-20T00:00	13150	165	-58.9	-79.5	267	13	
2025-10-20T00:00	13200	163	-58.9	-79.9	270	13	
2025-10-20T00:00	13250	162	-59.0	-80.0	273	13	
2025-10-20T00:00	13300	161	-59.2	-80.3	276	13	
2025-10-20T00:00	13350	159	-59.1	-80.3	277	13	
2025-10-20T00:00	13400	158	-59.1	-79.9	276	14	
2025-10-20T00:00	13450	157	-59.4	-79.8	275	14	
2025-10-20T00:00	13500	156	-59.6	-79.9	274	14	
2025-10-20T00:00	13550	154	-59.5	-80.0	273	13	
2025-10-20T00:00	13600	153	-59.7	-80.2	274	13	
2025-10-20T00:00	13650	152	-60.1	-80.3	273	12	
2025-10-20T00:00	13700	151	-60.5	-80.5	271	13	
2025-10-20T00:00	13750	150	-60.9	-80.6	269	13	
2025-10-20T00:00	13800	148	-61.2	-80.8	268	14	
2025-10-20T00:00	13850	147	-61.3	-81.2	268	14	
2025-10-20T00:00	13900	146	-61.0	-81.7	270	15	
2025-10-20T00:00	13950	145	-60.7	-81.9	272	15	
2025-10-20T00:00	14000	144	-60.9	-82.1	275	15	
2025-10-20T00:00	14050	143	-61.1	-82.1	277	15	
2025-10-20T00:00	14100	141	-61.2	-82.1	278	15	
2025-10-20T00:00	14150	140	-61.6	-82.3	279	15	
2025-10-20T00:00	14200	139	-61.8	-82.3	278	14	
2025-10-20T00:00	14250	138	-62.0	-82.5	277	14	
2025-10-20T00:00	14300	137	-62.0	-82.7	275	13	
2025-10-20T00:00	14350	136	-61.9	-82.8	273	13	
2025-10-20T00:00	14400	135	-61.8	-82.9	270	13	
2025-10-20T00:00	14450	134	-61.6	-83.0	269	14	
2025-10-20T00:00	14500	133	-61.6	-83.4	270	14	
2025-10-20T00:00	14550	132	-61.4	-83.6	272	15	
2025-10-20T00:00	14600	130	-60.9	-83.5	274	16	
2025-10-20T00:00	14650	129	-60.9	-83.6	278	16	
2025-10-20T00:00	14700	128	-61.2	-83.9	281	15	
2025-10-20T00:00	14750	127	-60.9	-83.8	285	15	
2025-10-20T00:00	14800	126	-60.9	-83.8	289	14	
2025-10-20T00:00	14850	125	-61.1	-83.9	291	13	
2025-10-20T00:00	14900	124	-61.4	-84.0	292	13	
2025-10-20T00:00	14950	123	-61.6	-84.1	291	12	
2025-10-20T00:00	15000	122	-61.6	-84.1	286	12	
2025-10-20T00:00	15050	121	-61.6	-84.1	281	11	
2025-10-20T00:00	15100	120	-61.8	-84.2	280	11	
2025-10-20T00:00	15150	119	-61.6	-84.1	280	12	
2025-10-20T00:00	15200	118	-61.6	-84.1	279	12	
2025-10-20T00:00	15250	117	-61.9	-84.3	277	13	
2025-10-20T00:00	15300	117	-61.9	-84.4	277	12	
2025-10-20T00:00	15350	116	-61.6	-84.3	279	10	
2025-10-20T00:00	15400	115	-61.3	-84.2	278	9	
2025-10-20T00:00	15450	114	-61.2	-84.1	275	8	
2025-10-20T00:00	15500	113	-61.6	-84.2	271	8	
2025-10-20T00:00	15550	112	-62.0	-84.2	267	9	
2025-10-20T00:00	15600	111	-62.4	-84.2	262	9	
2025-10-20T00:00	15650	110	-62.8	-84.3	259	10	
2025-10-20T00:00	15700	109	-63.1	-84.4	258	11	
2025-10-20T00:00	15750	108	-63.4	-84.4	259	12	
2025-10-20T00:00	15800	107	-63.5	-84.5	261	13	
2025-10-20T00:00	15850	107	-63.5	-84.5	262	13	
2025-10-20T00:00	15900	106	-63.5	-84.6	264	13	
2025-10-20T00:00	15950	105	-63.5	-84.7	266	13	
2025-10-20T00:00	16000	104	-63.2	-84.7	268	14	
2025-10-20T00:00	16050	103	-63.3	-84.8	272	14	
2025-10-20T00:00	16100	102	-63.2	-84.9	277	15	
2025-10-20T00:00	16150	101	-62.8	-84.9	281	16	
2025-10-20T00:00	16200	101	-62.9	-85.1	284	16	
2025-10-20T00:00	16250	100	-63.1	-85.4	286	15	
2025-10-20T00:00	16300	99	-62.6	-85.2	287	14	
2025-10-20T00:00	16350	98	-62.9	-85.5	288	13	
2025-10-20T00:00	16400	97	-62.9	-85.6	290	13	
2025-10-20T00:00	16450	97	-62.5	-85.5	292	13	
2025-10-20T00:00	16500	96	-62.5	-85.5	294	14	
2025-10-20T00:00	16550	95	-62.7	-85.6	292	14	
2025-10-20T00:00	16600	94	-62.7	-85.6	289	14	
2025-10-20T00:00	16650	94	-63.0	-85.8	290	14	
2025-10-20T00:00	16700	93	-63.1	-86.1	293	15	
2025-10-20T00:00	16750	92	-62.9	-86.2	298	15	
2025-10-20T00:00	16800	91	-62.9	-86.3	301	14	
2025-10-20T00:00	16850	91	-62.7	-86.3	302	13	
2025-10-20T00:00	16900	90	-62.8	-86.4	297	11	
2025-10-20T00:00	16950	89	-62.7	-86.3	290	12	
2025-10-20T00:00	17000	88	-62.7	-86.4	289	12	
2025-10-20T00:00	17050	88	-62.5	-86.5	288	12	
2025-10-20T00:00	17100	87	-62.4	-86.6	286	13	
2025-10-20T00:00	17150	86	-62.3	-86.6	286	13	
2025-10-20T00:00	17200	86	-62.1	-86.6	287	14	
2025-10-20T00:00	17250	85	-62.1	-86.6	289	14	
2025-10-20T00:00	17300	84	-62.1	-86.7	292	13	
2025-10-20T00:00	17350	83	-61.9	-86.7	295	13	
2025-10-20T00:00	17400	83	-62.0	-86.8	294	13	
2025-10-20T00:00	17450	82	-61.8	-86.7	291	11	
2025-10-20T00:00	17500	82	-62.0	-86.9	288	11	
2025-10-20T00:00	17550	81	-62.1	-86.9	287	11	
2025-10-20T00:00	17600	80	-61.9	-86.8	290	11	
2025-10-20T00:00	17650	80	-61.8	-86.8	295	11	
2025-10-20T00:00	17700	79	-61.8	-86.8	300	12	
2025-10-20T00:00	17750	78	-62.0	-86.9	302	12	
2025-10-20T00:00	17800	78	-62.2	-86.9	301	11	
2025-10-20T00:00	17850	77	-62.3	-86.9	297	10	
2025-10-20T00:00	17900	76	-62.4	-87.0	290	10	
2025-10-20T00:00	17950	76	-62.6	-87.1	284	10	
2025-10-20T00:00	18000	75	-62.9	-87.3	282	11	
2025-10-20T00:00	18050	75	-62.8	-87.3	282	11	
2025-10-20T00:00	18100	74	-62.5	-87.2	284	11	
2025-10-20T00:00	18150	73	-62.6	-87.3	287	11	
2025-10-20T00:00	18200	73	-62.7	-87.5	290	10	
2025-10-20T00:00	18250	72	-62.3	-87.4	292	10	
2025-10-20T00:00	18300	72	-62.1	-87.4	291	10	
2025-10-20T00:00	18350	71	-62.2	-87.4	290	10	
2025-10-20T00:00	18400	70	-62.4	-87.3	289	9	
2025-10-20T00:00	18450	70	-62.7	-87.4	288	9	
2025-10-20T00:00	18500	69	-62.8	-87.5	289	9	
2025-10-20T00:00	18550	69	-62.9	-87.6	288	9	
2025-10-20T00:00	18600	68	-62.8	-87.6	287	9	
2025-10-20T00:00	18650	68	-62.8	-87.6	288	10	
2025-10-20T00:00	18700	67	-63.0	-87.7	291	10	
2025-10-20T00:00	18750	67	-62.9	-87.7	298	9	
2025-10-20T00:00	18800	66	-62.9	-87.8	305	8	
2025-10-20T00:00	18850	65	-62.8	-87.8	306	7	
2025-10-20T00:00	18900	65	-62.8	-87.8	297	7	
2025-10-20T00:00	18950	64	-62.7	-87.8	288	8	
2025-10-20T00:00	19000	64	-62.8	-87.9	286	10	
2025-10-20T00:00	19050	63	-62.4	-88.0	286	11	
2025-10-20T00:00	19100	63	-61.9	-87.9	288	11	
2025-10-20T00:00	19150	62	-61.5	-87.9	292	11	
2025-10-20T00:00	19200	62	-61.2	-87.8	296	10	
2025-10-20T00:00	19250	61	-61.1	-87.7	297	10	
2025-10-20T00:00	19300	61	-61.1	-87.6	295	10	
2025-10-20T00:00	19350	60	-60.9	-87.5	292	10	
2025-10-20T00:00	19400	60	-60.9	-87.5	289	10	
2025-10-20T00:00	19450	59	-61.0	-87.6	286	11	
2025-10-20T00:00	19500	59	-60.9	-87.5	285	11	
2025-10-20T00:00	19550	59	-61.1	-87.6	286	12	
2025-10-20T00:00	19600	58	-60.9	-87.5	290	13	
2025-10-20T00:00	19650	58	-61.0	-87.6	292	14	
2025-10-20T00:00	19700	57	-61.1	-87.6	294	14	
2025-10-20T00:00	19750	57	-61.2	-87.7	296	13	
2025-10-20T00:00	19800	56	-61.2	-87.7	301	12	
2025-10-20T00:00	19850	56	-61.3	-87.7	305	12	
2025-10-20T00:00	19900	55	-61.1	-87.6	306	11	
2025-10-20T00:00	19950	55	-61.1	-87.6	306	11	
2025-10-20T00:00	20000	54	-61.1	-87.6	306	11	
2025-10-20T00:00	20050	54	-61.3		305	11	
2025-10-20T00:00	20100	54	-61.5		305	12	
2025-10-20T00:00	20150	53	-61.7		306	12	
2025-10-20T00:00	20200	53	-61.7		308	12	
2025-10-20T00:00	20250	52	-61.8		311	11	
2025-10-20T00:00	20300	52	-61.6		312	11	
2025-10-20T00:00	20350	51	-61.5		313	10	
2025-10-20T00:00	20400	51	-61.6		315	10	
2025-10-20T00:00	20450	51	-61.6		319	10	
2025-10-20T00:00	20500	50	-61.9		322	9	
2025-10-20T00:00	20550	50	-62.1		323	8	
2025-10-20T00:00	20600	49	-62.4		321	7	
2025-10-20T00:00	20650	49	-62.5		317	7	
2025-10-20T00:00	20700	49	-62.7		312	6	
2025-10-20T00:00	20750	48	-62.9		306	6	
2025-10-20T00:00	20800	48	-63.1		303	6	
2025-10-20T00:00	20850	47	-63.2		304	7	
2025-10-20T00:00	20900	47	-63.3		305	8	
2025-10-20T00:00	20950	47	-63.3		304	8	
2025-10-20T00:00	21000	46	-63.4		300	9	
2025-10-20T00:00	21050	46	-63.4		297	9	
2025-10-20T00:00	21100	46	-63.5		295	10	
2025-10-20T00:00	21150	45	-63.4		294	10	
2025-10-20T00:00	21200	45	-63.5		293	10	
2025-10-20T00:00	21250	44	-63.5		293	9	
2025-10-20T00:00	21300	44	-63.4		290	9	
2025-10-20T00:00	21350	44	-63.3		284	10	
2025-10-20T00:00	21400	43	-63.2		277	11	
2025-10-20T00:00	21450	43	-63.1		271	12	
2025-10-20T00:00	21500	43	-62.9		268	12	
2025-10-20T00:00	21550	42	-62.9		269	13	
2025-10-20T00:00	21600	42	-62.7		271	13	
2025-10-20T00:00	21650	42	-62.8		276	13	
2025-10-20T00:00	21700	41	-62.8		281	13	
2025-10-20T00:00	21750	41	-62.5		286	14	
2025-10-20T00:00	21800	41	-62.3		289	14	
2025-10-20T00:00	21850	40	-62.0		291	14	
2025-10-20T00:00	21900	40	-61.9		291	14	
2025-10-20T00:00	21950	40	-62.1		290	13	
2025-10-20T00:00	22000	39	-61.8		288	12	
2025-10-20T00:00	22050	39	-61.6		289	12	
2025-10-20T00:00	22100	39	-61.4		293	13	
2025-10-20T00:00	22150	38	-61.5		297	13	
2025-10-20T00:00	22200	38	-61.7		300	13	
2025-10-20T00:00	22250	38	-61.7		301	12	
2025-10-20T00:00	22300	37	-61.6		303	12	
2025-10-20T00:00	22350	37	-61.7		305	12	
2025-10-20T00:00	22400	37	-61.8		307	12	
2025-10-20T00:00	22450	37	-61.6		308	11	
2025-10-20T00:00	22500	36	-61.6		306	10	
2025-10-20T00:00	22550	36	-61.7		302	9	
2025-10-20T00:00	22600	36	-61.5		295	8	
2025-10-20T00:00	22650	35	-61.4		286	7	
2025-10-20T00:00	22700	35	-61.1		275	6	
2025-10-20T00:00	22750	35	-60.9		266	7	
2025-10-20T00:00	22800	35	-60.9		265	7	
2025-10-20T00:00	22850	34	-60.9		273	8	
2025-10-20T00:00	22900	34	-60.2		285	8	
2025-10-20T00:00	22950	34	-60.5		297	9	
2025-10-20T00:00	23000	33	-60.5		305	10	
2025-10-20T00:00	23050	33	-60.6		309	11	
2025-10-20T00:00	23100	33	-60.5		311	12	
2025-10-20T00:00	23150	33	-60.5		315	12	
2025-10-20T00:00	23200	32	-60.7		320	13	
2025-10-20T00:00	23250	32	-60.8		323	13	
2025-10-20T00:00	23300	32	-60.8		322	13	
2025-10-20T00:00	23350	32	-60.6		319	12	
2025-10-20T00:00	23400	31	-60.7		312	10	
2025-10-20T00:00	23450	31	-60.6		303	9	
2025-10-20T00:00	23500	31	-60.4		293	9	
2025-10-20T00:00	23550	31	-60.1		288	9	
2025-10-20T00:00	23600	30	-60.4		287	9	
2025-10-20T00:00	23650	30	-60.5		290	9	
2025-10-20T00:00	23700	30	-60.8		293	9	
2025-10-20T00:00	23750	30	-61.1		292	10	
2025-10-20T00:00	23800	29	-61.0		288	11	
2025-10-20T00:00	23850	29	-60.6		282	11	
2025-10-20T00:00	23900	29	-60.8		280	11	
2025-10-20T00:00	23950	29	-60.9		283	12	
2025-10-20T00:00	24000	29	-60.7		287	12	
2025-10-20T00:00	24050	28	-61.0		290	12	
2025-10-20T00:00	24100	28	-60.9		290	12	
2025-10-20T00:00	24150	28	-60.8		285	12	
2025-10-20T00:00	24200	28	-60.6		277	12	
2025-10-20T00:00	24250	27	-60.5		270	13	
2025-10-20T00:00	24300	27	-60.4		266	14	
2025-10-20T00:00	24350	27	-60.2		267	15	
2025-10-20T00:00	24400	27	-60.3		271	15	
2025-10-20T00:00	24450	27	-60.2		275	15	
2025-10-20T00:00	24500	26	-60.1		280	15	
2025-10-20T00:00	24550	26	-60.2		285	15	
2025-10-20T00:00	24600	26	-60.2		290	14	
2025-10-20T00:00	24650	26	-60.5		297	14	
2025-10-20T00:00	24700	25	-60.7		303	14	
2025-10-20T00:00	24750	25	-61.1		307	13	
2025-10-20T00:00	24800	25	-61.0		309	11	
2025-10-20T00:00	24850	25	-60.4		305	9	
2025-10-20T00:00	24900	25	-60.1		297	8	
2025-10-20T00:00	24950	24	-59.8		289	8	
2025-10-20T00:00	25000	24	-59.4		284	9	
2025-10-20T00:00	25050	24	-59.0		282	10	
2025-10-20T00:00	25100	24	-59.0		281	10	
2025-10-20T00:00	25150	24	-59.1		280	10	
2025-10-20T00:00	25200	24	-59.1		279	10	
2025-10-20T00:00	25250	23	-59.3		277	10	
2025-10-20T00:00	25300	23	-59.5		274	10	
2025-10-20T00:00	25350	23	-59.6		269	11	
2025-10-20T00:00	25400	23	-59.5		266	12	
2025-10-20T00:00	25450	23	-59.3		265	13	
2025-10-20T00:00	25500	22	-58.8		267	15	
2025-10-20T00:00	25550	22	-58.3		270	17	
2025-10-20T00:00	25600	22	-58.1		273	19	
2025-10-20T00:00	25650	22	-57.7		276	20	
2025-10-20T00:00	25700	22	-57.2		279	20	
2025-10-20T00:00	25750	22	-57.1		282	20	
2025-10-20T00:00	25800	21	-56.8		285	19	
2025-10-20T00:00	25850	21	-56.9		286	18	
2025-10-20T00:00	25900	21	-57.1		286	17	
2025-10-20T00:00	25950	21	-57.2		286	17	
2025-10-20T00:00	26000	21	-57.1		287	18	
2025-10-20T00:00	26050	21	-57.1		289	18	
2025-10-20T00:00	26100	20	-57.0		290	17	
2025-10-20T00:00	26150	20	-57.0		290	15	
2025-10-20T00:00	26200	20	-57.3		288	14	
2025-10-20T00:00	26250	20	-57.6		284	13	
2025-10-20T00:00	26300	20	-57.6		281	13	
2025-10-20T00:00	26350	20	-57.2		281	14	
2025-10-20T00:00	26400	19	-56.7		281	15	
2025-10-20T00:00	26450	19	-56.3		281	16	
2025-10-20T00:00	26500	19	-56.3		281	16	
2025-10-20T00:00	26550	19	-56.3		284	17	
2025-10-20T00:00	26600	19	-56.2		288	18	
2025-10-20T00:00	26650	19	-56.1		291	19	
2025-10-20T00:00	26700	19	-56.1		293	19	
2025-10-20T00:00	26750	18	-55.9		294	18	
2025-10-20T00:00	26800	18	-55.9		294	17	
2025-10-20T00:00	26850	18	-56.2		293	15	
2025-10-20T00:00	26900	18	-56.1		293	15	
2025-10-20T00:00	26950	18	-55.7		294	15	
2025-10-20T00:00	27000	18	-55.6		293	16	
2025-10-20T00:00	27050	18	-55.5		292	16	
2025-10-20T00:00	27100	17	-55.6		290	16	
2025-10-20T00:00	27150	17	-55.6		288	16	
2025-10-20T00:00	27200	17	-55.5		286	16	
2025-10-20T00:00	27250	17	-55.1		283	16	
2025-10-20T00:00	27300	17	-54.9		284	17	
2025-10-20T00:00	27350	17	-54.2		288	18	
2025-10-20T00:00	27400	17	-53.8		294	19	
2025-10-20T00:00	27450	16	-53.9		297	19	
2025-10-20T00:00	27500	16	-53.9		297	18	
2025-10-20T00:00	27550	16	-53.7		292	18	
2025-10-20T00:00	27600	16	-53.5		288	18	
2025-10-20T00:00	27650	16	-52.7		286	20	
2025-10-20T00:00	27700	16	-52.0		286	22	
2025-10-20T00:00	27750	16	-51.8		284	23	
2025-10-20T00:00	27800	16	-51.7		283	23	
2025-10-20T00:00	27850	15	-51.4		284	22	
2025-10-20T00:00	27900	15	-51.4		285	22	
2025-10-20T00:00	27950	15	-51.2		284	23	
2025-10-20T00:00	28000	15	-50.9		284	23	
2025-10-20T00:00	28050	15	-50.9		283	23	
2025-10-20T00:00	28100	15	-50.8		282	22	
2025-10-20T00:00	28150	15	-50.6		280	22	
2025-10-20T00:00	28200	15	-50.0		280	22	
2025-10-20T00:00	28250	15	-49.7		281	23	
2025-10-20T00:00	28300	14	-49.5		282	24	
2025-10-20T00:00	28350	14	-49.5		283	25	
2025-10-20T00:00	28400	14	-49.0		283	25	
2025-10-20T00:00	28450	14	-48.6		282	26	
2025-10-20T00:00	28500	14	-48.4		282	27	
2025-10-20T00:00	28550	14	-48.3		281	27	
2025-10-20T00:00	28600	14	-48.1		281	28	
2025-10-20T00:00	28650	14	-47.9		281	28	
2025-10-20T00:00	28700	14	-47.7		280	29	
2025-10-20T00:00	28750	13	-47.7		280	29	
2025-10-20T00:00	28800	13	-47.9		280	28	
2025-10-20T00:00	28850	13	-48.2		280	27	
2025-10-20T00:00	28900	13	-48.5		278	26	
2025-10-20T00:00	28950	13	-48.6		275	26	
2025-10-20T00:00	29000	13	-48.2		273	26	
2025-10-20T00:00	29050	13	-48.0		273	26	
2025-10-20T00:00	29100	13	-48.0		275	25	
2025-10-20T00:00	29150	13	-48.2		277	25	
2025-10-20T00:00	29200	13	-48.3		278	24	
2025-10-20T00:00	29250	13	-48.3		277	24	
2025-10-20T00:00	29300	12	-48.1		275	25	
2025-10-20T00:00	29350	12	-47.9		274	26	
2025-10-20T00:00	29400	12	-47.9		272	26	
2025-10-20T00:00	29450	12	-47.9		272	27	
2025-10-20T00:00	29500	12	-47.5		271	27	
2025-10-20T00:00	29550	12	-46.9		270	27	
2025-10-20T00:00	29600	12	-46.6		270	29	
2025-10-20T00:00	29650	12	-46.7		271	31	
2025-10-20T00:00	29700	12	-46.2		273	32	
2025-10-20T00:00	29750	12	-46.0		274	33	
2025-10-20T00:00	29800	12	-46.0		275	33	
2025-10-20T00:00	29850	11	-45.9		275	32	
2025-10-20T00:00	29900	11	-46.0		275	32	
2025-10-20T00:00	29950	11	-45.9		274	31	
2025-10-20T00:00	30000	11	-46.1		274	31	
2025-10-20T00:00	30050	11	-46.3		274	31	
2025-10-20T00:00	30100	11	-46.5		274	31	
2025-10-20T00:00	30150	11	-46.7		273	31	
2025-10-20T00:00	30200	11	-46.8		273	32	
2025-10-20T00:00	30250	11	-46.9		274	32	
2025-10-20T00:00	30300	11	-47.0		274	32	
2025-10-20T00:00	30350	11	-47.2		275	32	
2025-10-20T00:00	30400	11	-47.3		276	32	
2025-10-20T00:00	30450	10	-47.1		278	31	
2025-10-20T00:00	30500	10	-47.2		278	30	
2025-10-20T00:00	30550	10	-47.4		278	30	
2025-10-20T00:00	30600	10	-47.2		278	29	
2025-10-20T00:00	30650	10	-47.1		277	29	
2025-10-20T00:00	30700	10	-47.2		277	30	
2025-10-20T00:00	30750	10	-47.1		278	30	
2025-10-20T00:00	30800	10	-47.1		279	31	
2025-10-20T00:00	30850	10	-47.2		280	31	
2025-10-20T00:00	30900	10	-47.3		281	32	
2025-10-20T00:00	30950	10	-47.4		281	32	
2025-10-20T00:00	31000	10	-47.2		282	32	
2025-10-20T00:00	31050	10	-46.9		283	32	
2025-10-20T00:00	31100	9	-46.4		285	32	
2025-10-20T00:00	31150	9	-46.3		286	31	
2025-10-20T00:00	31200	9	-46.4		287	30	
2025-10-20T00:00	31250	9	-46.5		288	30	
2025-10-20T00:00	31300	9	-46.6		287	30	
2025-10-20T00:00	31350	9	-46.7		285	29	
2025-10-20T00:00	31400	9	-46.5		282	30	
2025-10-20T00:00	31450	9	-46.6		279	30	
2025-10-20T00:00	31500	9	-46.5		278	31	
2025-10-20T00:00	31550	9	-46.6		278	31	
2025-10-20T00:00	31600	9	-46.8		279	32	
2025-10-20T00:00	31650	9	-46.8		281	33	
2025-10-20T00:00	31700	9	-46.8		282	34	
2025-10-20T00:00	31750	9	-46.9		284	35	
2025-10-20T00:00	31800	9	-47.1		285	36	
2025-10-20T00:00	31850	8	-47.4		287	37	
2025-10-20T00:00	31900	8	-47.5		289	38	
2025-10-20T00:00	31950	8	-47.6		290	38	
2025-10-20T00:00	32000	8	-47.3		290	38	
2025-10-20T00:00	32050	8	-47.0		288	37	
2025-10-20T00:00	32100	8	-46.9		285	37	
2025-10-20T00:00	32150	8	-46.3		283	38	
2025-10-20T00:00	32200	8	-45.8		282	38	
2025-10-20T00:00	32250	8	-45.8		282	38	
2025-10-20T00:00	32300	8	-45.9		281	38	
2025-10-20T00:00	32350	8	-45.7		280	38	
2025-10-20T00:00	32400	8	-46.0		279	38	
2025-10-20T00:00	32450	8	-46.0		278	39	
2025-10-20T00:00	32500	8	-45.9		277	39	
2025-10-20T00:00	32550	8	-46.0		277	39	
2025-10-20T00:00	32600	8	-46.1		276	40	
2025-10-20T00:00	32650	7	-46.3		276	40	
2025-10-20T00:00	32700	7	-46.4		275	40	
2025-10-20T00:00	32750	7	-46.6		275	40	
2025-10-20T00:00	32800	7	-46.8		275	40	
2025-10-20T00:00	32850	7	-46.6		277	40	
2025-10-20T00:00	32900	7	-46.6		279	39	
2025-10-20T00:00	32950	7	-46.7		281	39	
2025-10-20T00:00	33000	7	-47.0		284	38	
2025-10-20T00:00	33050	7	-46.8		285	38	
2025-10-20T00:00	33100	7	-46.6		287	37	
2025-10-20T00:00	33150	7	-46.6		288	36	
2025-10-20T00:00	33200	7	-46.9		288	35	
2025-10-20T00:00	33250	7	-46.5		289	35	
2025-10-20T00:00	33300	7	-46.1		289	34	
2025-10-20T00:00	33350	7	-46.1		288	34	
2025-10-20T00:00	33400	7	-46.0		286	33	
2025-10-20T00:00	33450	7	-46.2		284	33	
2025-10-20T00:00	33500	7	-46.4		282	33	
2025-10-20T00:00	33550	7	-46.4		282	33	
2025-10-20T00:00	33600	6	-46.0		282	33	
2025-10-20T00:00	33650	6	-45.3		282	34	
2025-10-20T00:00	33700	6	-45.3		281	35	
2025-10-20T00:00	33750	6	-45.5		281	36	
2025-10-20T00:00	33800	6	-45.6		281	37	
2025-10-20T00:00	33850	6	-45.8		280	38	
2025-10-20T00:00	33900	6	-46.0		280	38	
2025-10-20T00:00	33950	6	-46.0		279	38	
2025-10-20T00:00	34000	6	-46.1		279	38	
2025-10-20T00:00	34050	6	-46.3		278	37	
2025-10-20T00:00	34100	6	-46.5		276	37	
2025-10-20T00:00	34150	6	-46.5		275	37	
2025-10-20T00:00	34200	6	-46.5		275	38	
2025-10-20T00:00	34250	6	-46.4		275	38	
2025-10-20T00:00	34300	6	-46.4		275	39	
2025-10-20T00:00	34350	6	-46.6		276	39	
2025-10-20T00:00	34400	6	-46.9		278	40	
2025-10-20T00:00	34450	6	-47.1		280	40	
2025-10-20T00:00	34500	6	-46.7		282	40	
2025-10-20T00:00	34550	6	-46.7		284	40	
2025-10-20T00:00	34600	6	-47.0		285	39	
2025-10-20T00:00	34650	6	-47.0		285	38	
2025-10-20T00:00	34700	6	-46.5		286	37	
2025-10-20T00:00	34750	5	-46.2		286	37	
2025-10-20T00:00	34800	5	-45.9		285	37	
2025-10-20T00:00	34850	5	-45.5		284	38	
2025-10-20T00:00	34900	5	-45.2		284	38	
2025-10-20T00:00	34950	5	-45.0		283	39	
2025-10-20T00:00	35000	5	-44.6		282	39	
2025-10-20T00:00	35050	5	-44.1		282	39	
2025-10-20T00:00	35100	5	-43.8		282	40	
2025-10-20T00:00	35150	5	-43.1		283	40	
2025-10-20T00:00	35200	5	-42.8		284	41	
2025-10-20T00:00	35250	5	-43.0		284	41	
2025-10-20T00:00	35300	5	-43.2		285	41	
2025-10-20T00:00	35350	5	-43.1		285	41	
2025-10-20T00:00	35400	5	-43.0		287	41	
2025-10-20T00:00	35450	5	-42.9		288	41	
2025-10-20T00:00	35500	5	-42.8		289	40	
2025-10-20T00:00	35550	5	-42.4		290	39	
2025-10-20T00:00	35600	5	-42.1		291	39	
2025-10-20T00:00	35650	5	-42.0		291	38	
2025-10-20T00:00	35700	5	-41.9		291	37	
2025-10-20T00:00	35750	5	-41.8		290	36	
2025-10-20T00:00	35800	5	-41.8		288	36	
2025-10-20T00:00	35850	5	-41.7		285	36	
2025-10-20T00:00	35900	5	-41.7		282	36	
2025-10-20T00:00	35950	5	-41.5		280	37	
2025-10-20T00:00	36000	5	-40.9		279	38	
2025-10-20T00:00	36050	5	-40.3		279	39	
2025-10-20T00:00	36100	4	-40.2		279	39	
2025-10-20T00:00	36150	4	-40.3		279	39	
2025-10-20T00:00	36200	4	-40.6		279	40	
2025-10-20T00:00	36250	4	-40.6		279	41	
2025-10-20T00:00	36300	4	-40.6		280	41	
2025-10-20T00:00	36350	4	-40.6		282	41	
2025-10-20T00:00	36400	4	-40.8		282	41	
2025-10-20T00:00	36450	4	-40.6		281	41	
2025-10-20T00:00	36500	4	-40.5		280	41	
2025-10-20T00:00	36550	4	-40.4		280	41	
2025-10-20T00:00	36600	4	-39.9		280	42	
2025-10-20T00:00	36650	4	-39.6		279	42	
2025-10-20T00:00	36700	4	-39.6		279	42	
2025-10-20T00:00	36750	4	-39.7		278	42	
2025-10-20T00:00	36800	4	-39.3		279	42	
2025-10-20T12:00	491	950	12.6	10.0	229	2	1.9
2025-10-20T12:00	501	949	12.2	9.8	222	2	1.9
2025-10-20T12:00	520	947	11.9	9.4	222	3	1.9
2025-10-20T12:00	540	944	11.8	8.8	222	4	2.0
2025-10-20T12:00	560	942	11.6	8.7	221	4	2.0
2025-10-20T12:00	580	940	11.4	8.5	222	5	2.1
2025-10-20T12:00	600	938	11.4	8.2	223	5	2.1
2025-10-20T12:00	620	935	11.3	7.9	225	5	2.2
2025-10-20T12:00	640	933	11.2	7.7	227	6	2.3
2025-10-20T12:00	660	931	11.1	7.6	228	6	2.4
2025-10-20T12:00	680	928	10.9	7.4	229	6	2.5
2025-10-20T12:00	700	926	10.8	7.3	229	7	2.6
2025-10-20T12:00	720	924	10.6	7.2	229	7	2.7
2025-10-20T12:00	740	922	10.5	7.1	228	7	2.7
2025-10-20T12:00	760	920	10.3	7.1	227	8	2.8
2025-10-20T12:00	780	918	10.2	6.9	226	8	2.9
2025-10-20T12:00	800	915	10.0	6.8	225	8	2.9
2025-10-20T12:00	820	913	9.9	6.5	225	9	3.0
2025-10-20T12:00	840	911	9.7	6.3	225	9	3.0
2025-10-20T12:00	860	909	9.5	6.3	226	9	3.0
2025-10-20T12:00	880	907	9.4	6.2	227	10	3.0
2025-10-20T12:00	900	904	9.4	5.7	229	10	3.1
2025-10-20T12:00	920	902	9.4	5.4	230	10	3.1
2025-10-20T12:00	940	900	9.6	5.1	231	10	3.1
2025-10-20T12:00	960	898	10.0	4.8	232	10	3.2
2025-10-20T12:00	980	896	10.3	4.7	233	10	3.2
2025-10-20T12:00	1000	893	10.2	4.7	234	10	3.3
2025-10-20T12:00	1020	891	10.1	4.6	234	10	3.3
2025-10-20T12:00	1040	889	9.9	4.4	234	11	3.4
2025-10-20T12:00	1060	887	9.8	4.4	233	11	3.4
2025-10-20T12:00	1080	885	9.7	4.3	232	11	3.5
2025-10-20T12:00	1100	883	9.6	4.2	230	11	3.5
2025-10-20T12:00	1120	881	9.4	4.4	229	11	3.5
2025-10-20T12:00	1140	879	9.3	4.6	228	11	3.5
2025-10-20T12:00	1160	877	9.2	4.8	227	11	3.6
2025-10-20T12:00	1180	874	9.1	5.2	226	11	3.6
2025-10-20T12:00	1200	872	9.0	5.3	225	11	3.6
2025-10-20T12:00	1220	870	8.9	5.3	224	11	3.6
2025-10-20T12:00	1240	868	8.7	5.2	224	11	3.7
2025-10-20T12:00	1260	866	8.6	4.9	224	11	3.7
2025-10-20T12:00	1280	864	8.4	4.9	224	11	3.7
2025-10-20T12:00	1300	862	8.2	4.8	224	11	3.7
2025-10-20T12:00	1320	860	8.0	4.7	223	11	3.7
2025-10-20T12:00	1340	858	7.8	4.5	223	11	3.7
2025-10-20T12:00	1360	856	7.6	4.7	222	11	3.7
2025-10-20T12:00	1380	854	7.5	4.5	221	11	3.7
2025-10-20T12:00	1400	852	7.3	4.7	219	11	3.7
2025-10-20T12:00	1420	849	7.2	4.7	218	11	3.7
2025-10-20T12:00	1440	848	6.9	4.7	217	11	3.7
2025-10-20T12:00	1460	845	6.8	4.5	215	11	3.7
2025-10-20T12:00	1480	843	6.8	4.3	214	11	3.7
2025-10-20T12:00	1500	841	6.6	4.3	213	11	3.7
2025-10-20T12:00	1520	839	6.5	4.2	212	11	3.7
2025-10-20T12:00	1540	837	6.3	3.7	211	12	3.7
2025-10-20T12:00	1560	835	6.2	3.5	211	12	3.7
2025-10-20T12:00	1580	833	6.1	3.4	210	12	3.7
2025-10-20T12:00	1600	831	5.9	3.4	209	12	3.7
2025-10-20T12:00	1620	829	5.8	3.3	208	12	3.7
2025-10-20T12:00	1640	827	5.7	3.4	208	12	3.7
2025-10-20T12:00	1660	825	5.5	3.3	207	12	3.7
2025-10-20T12:00	1680	823	5.3	3.2	207	12	3.7
2025-10-20T12:00	1700	821	5.2	3.2	207	13	3.7
2025-10-20T12:00	1720	819	5.0	3.3	207	13	3.7
2025-10-20T12:00	1740	817	4.8	3.3	208	13	3.7
2025-10-20T12:00	1760	815	4.6	3.2	208	13	3.7
2025-10-20T12:00	1780	813	4.5	3.2	208	13	3.7
2025-10-20T12:00	1800	811	4.4	3.2	209	14	3.6
2025-10-20T12:00	1820	809	4.3	3.3	210	14	3.6
2025-10-20T12:00	1840	807	4.1	3.3	211	14	3.6
2025-10-20T12:00	1860	805	3.9	3.3	212	14	3.7
2025-10-20T12:00	1880	803	3.9	3.1	213	15	3.7
2025-10-20T12:00	1900	801	3.9	2.8	214	15	3.6
2025-10-20T12:00	1920	799	3.9	2.8	215	16	3.6
2025-10-20T12:00	1940	797	3.8	2.7	215	16	3.6
2025-10-20T12:00	1960	795	3.7	2.6	215	17	3.6
2025-10-20T12:00	1980	793	3.5	2.6	216	17	3.6
2025-10-20T12:00	2000	791	3.4	2.4	215	18	3.6
2025-10-20T12:00	2020	789	3.5	2.3	215	19	3.6
2025-10-20T12:00	2040	788	3.3	2.2	215	19	3.7
2025-10-20T12:00	2060	786	3.2	2.1	215	20	3.7
2025-10-20T12:00	2080	784	3.1	2.1	215	21	3.7
2025-10-20T12:00	2100	782	3.0	2.0	215	21	3.7
2025-10-20T12:00	2120	780	2.9	2.0	215	22	3.7
2025-10-20T12:00	2140	778	2.8	2.0	216	22	3.7
2025-10-20T12:00	2160	776	2.7	2.0	217	23	3.7
2025-10-20T12:00	2180	774	2.7	2.0	218	23	3.7
2025-10-20T12:00	2200	772	2.7	2.1	220	23	3.7
2025-10-20T12:00	2220	770	2.6	2.1	221	23	3.7
2025-10-20T12:00	2240	768	2.6	2.2	223	23	3.7
2025-10-20T12:00	2260	766	2.5	2.3	225	23	3.7
2025-10-20T12:00	2280	764	2.4	2.2	226	23	3.7
2025-10-20T12:00	2300	762	2.4	2.2	227	23	3.7
2025-10-20T12:00	2320	761	2.3	2.1	228	22	3.7
2025-10-20T12:00	2340	759	2.4	1.9	229	22	3.7
2025-10-20T12:00	2360	757	2.3	1.7	230	22	3.7
2025-10-20T12:00	2380	755	2.2	1.7	231	22	3.7
2025-10-20T12:00	2400	753	2.2	1.3	232	22	3.7
2025-10-20T12:00	2420	751	2.2	1.0	232	21	3.6
2025-10-20T12:00	2440	749	2.0	1.0	233	21	3.5
2025-10-20T12:00	2460	748	1.8	1.1	233	21	3.5
2025-10-20T12:00	2480	746	1.6	1.0	234	21	3.5
2025-10-20T12:00	2500	744	1.5	0.9	234	21	3.5
2025-10-20T12:00	2520	742	1.4	0.8	234	21	3.5
2025-10-20T12:00	2540	740	1.2	0.8	235	21	3.5
2025-10-20T12:00	2560	738	1.0	0.9	235	21	3.4
2025-10-20T12:00	2580	736	0.9	0.7	236	20	3.4
2025-10-20T12:00	2600	735	0.7	0.6	237	20	3.4
2025-10-20T12:00	2620	733	0.6	0.5	238	20	3.4
2025-10-20T12:00	2640	731	0.5	0.5	239	20	3.4
2025-10-20T12:00	2660	730	0.4	0.4	240	20	3.4
2025-10-20T12:00	2680	728	0.3	0.2	240	20	3.4
2025-10-20T12:00	2700	726	0.2	0.1	241	20	3.4
2025-10-20T12:00	2720	724	0.1	0.0	242	19	3.4
2025-10-20T12:00	2740	722	0.0	0.0	242	19	3.4
2025-10-20T12:00	2760	720	-0.1	-0.1	241	19	3.4
2025-10-20T12:00	2780	718	-0.1	-0.3	241	19	3.4
2025-10-20T12:00	2800	717	-0.3	-0.3	240	18	3.4
2025-10-20T12:00	2820	715	-0.2	-0.4	239	18	3.4
2025-10-20T12:00	2840	713	-0.2	-0.6	239	18	3.3
2025-10-20T12:00	2860	711	-0.3	-0.5	238	18	3.3
2025-10-20T12:00	2880	710	-0.5	-0.6	238	18	3.3
2025-10-20T12:00	2900	708	-0.6	-0.7	238	18	3.3
2025-10-20T12:00	2920	706	-0.8	-0.9	237	18	3.3
2025-10-20T12:00	2940	704	-0.8	-1.0	237	18	3.3
2025-10-20T12:00	2960	702	-0.9	-1.1	237	18	3.3
2025-10-20T12:00	2980	701	-0.9	-1.2	236	18	3.3
2025-10-20T12:00	3000	699	-0.9	-1.3	236	18	3.3
2025-10-20T12:00	3020	697	-1.0	-1.4	235	18	3.3
2025-10-20T12:00	3040	696	-1.0	-1.4	235	18	3.3
2025-10-20T12:00	3060	694	-1.2	-1.5	235	18	3.3
2025-10-20T12:00	3080	692	-1.3	-1.6	235	18	3.3
2025-10-20T12:00	3100	690	-1.3	-1.7	234	17	3.3
2025-10-20T12:00	3120	689	-1.4	-1.8	234	17	3.3
2025-10-20T12:00	3140	687	-1.4	-2.0	234	17	3.3
2025-10-20T12:00	3160	685	-1.4	-2.2	234	17	3.3
2025-10-20T12:00	3180	683	-1.6	-2.2	234	17	3.3
2025-10-20T12:00	3200	682	-1.7	-2.3	234	17	3.3
2025-10-20T12:00	3220	680	-1.8	-2.4	234	16	3.2
2025-10-20T12:00	3240	678	-1.9	-2.6	234	16	3.2
2025-10-20T12:00	3260	676	-1.9	-2.8	234	16	3.2
2025-10-20T12:00	3280	675	-2.0	-3.0	234	16	3.2
2025-10-20T12:00	3300	673	-2.1	-3.1	234	15	3.2
2025-10-20T12:00	3320	672	-2.3	-3.1	234	15	3.2
2025-10-20T12:00	3340	670	-2.4	-3.2	234	15	3.1
2025-10-20T12:00	3360	668	-2.5	-3.2	233	15	3.1
2025-10-20T12:00	3380	666	-2.7	-3.3	233	15	3.1
2025-10-20T12:00	3400	665	-2.8	-3.6	232	15	3.1
2025-10-20T12:00	3420	663	-2.8	-3.7	232	15	3.1
2025-10-20T12:00	3440	662	-2.9	-3.9	231	15	3.1
2025-10-20T12:00	3460	660	-3.1	-3.9	231	15	3.1
2025-10-20T12:00	3480	658	-3.2	-4.1	231	15	3.1
2025-10-20T12:00	3500	656	-3.4	-4.2	231	15	3.1
2025-10-20T12:00	3520	655	-3.4	-4.3	231	15	3.1
2025-10-20T12:00	3540	653	-3.6	-4.4	231	16	3.1
2025-10-20T12:00	3560	651	-3.7	-4.6	231	16	3.1
2025-10-20T12:00	3580	650	-3.9	-4.6	231	16	3.1
2025-10-20T12:00	3600	648	-4.0	-4.5	232	16	3.1
2025-10-20T12:00	3620	647	-4.1	-4.5	232	16	3.1
2025-10-20T12:00	3640	645	-4.2	-4.7	232	16	3.1
2025-10-20T12:00	3660	643	-4.3	-4.8	233	16	3.1
2025-10-20T12:00	3680	642	-4.5	-4.9	233	16	3.1
2025-10-20T12:00	3700	640	-4.7	-5.0	233	17	3.1
2025-10-20T12:00	3720	638	-4.8	-5.0	233	17	3.1
2025-10-20T12:00	3740	637	-5.0	-5.1	233	17	3.0
2025-10-20T12:00	3760	635	-5.1	-5.2	234	17	3.0
2025-10-20T12:00	3780	633	-5.3	-5.3	234	17	3.0
2025-10-20T12:00	3800	632	-5.4	-5.4	234	17	3.0
2025-10-20T12:00	3820	630	-5.5	-5.5	234	17	3.0
2025-10-20T12:00	3840	629	-5.6	-5.8	234	18	3.0
2025-10-20T12:00	3860	627	-5.7	-5.8	235	18	3.0
2025-10-20T12:00	3880	626	-5.8	-5.9	235	18	3.0
2025-10-20T12:00	3900	624	-6.0	-6.0	235	18	3.0
2025-10-20T12:00	3920	623	-6.0	-6.0	235	17	3.0
2025-10-20T12:00	3940	621	-6.1	-6.1	236	17	3.0
2025-10-20T12:00	3960	619	-6.3	-6.3	236	17	2.9
2025-10-20T12:00	3980	618	-6.4	-6.4	237	17	2.9
2025-10-20T12:00	4000	616	-6.5	-6.5	237	17	2.9
2025-10-20T12:00	4020	614	-6.5	-6.7	238	17	2.9
2025-10-20T12:00	4040	613	-6.7	-6.7	239	17	2.9
2025-10-20T12:00	4060	611	-6.8	-6.8	240	16	2.9
2025-10-20T12:00	4080	610	-6.9	-6.9	240	16	2.9
2025-10-20T12:00	4100	608	-7.0	-7.0	241	16	2.9
2025-10-20T12:00	4120	607	-7.1	-7.1	241	16	2.9
2025-10-20T12:00	4140	605	-7.2	-7.2	242	16	2.8
2025-10-20T12:00	4160	604	-7.3	-7.4	242	16	2.9
2025-10-20T12:00	4180	602	-7.5	-7.6	243	16	2.9
2025-10-20T12:00	4200	600	-7.6	-7.7	243	16	2.8
2025-10-20T12:00	4220	599	-7.8	-7.8	243	16	2.8
2025-10-20T12:00	4240	597	-7.9	-7.9	243	16	2.8
2025-10-20T12:00	4260	596	-8.0	-8.1	242	16	2.8
2025-10-20T12:00	4280	594	-8.2	-8.2	242	16	2.8
2025-10-20T12:00	4300	593	-8.4	-8.4	242	16	2.8
2025-10-20T12:00	4320	591	-8.5	-8.5	241	16	2.8
2025-10-20T12:00	4340	590	-8.6	-8.6	240	16	2.7
2025-10-20T12:00	4360	588	-8.8	-8.8	240	16	2.7
2025-10-20T12:00	4380	587	-8.9	-8.9	239	16	2.7
2025-10-20T12:00	4400	585	-9.0	-9.0	238	16	2.7
2025-10-20T12:00	4420	584	-9.1	-9.1	237	15	2.7
2025-10-20T12:00	4440	582	-9.3	-9.3	237	15	2.7
2025-10-20T12:00	4460	581	-9.4	-9.4	236	15	2.7
2025-10-20T12:00	4480	579	-9.5	-9.6	236	15	2.7
2025-10-20T12:00	4500	578	-9.6	-9.8	236	15	2.7
2025-10-20T12:00	4520	576	-9.8	-9.9	236	15	2.7
2025-10-20T12:00	4540	575	-10.0	-10.0	236	15	2.7
2025-10-20T12:00	4560	573	-10.1	-10.2	236	15	2.7
2025-10-20T12:00	4580	572	-10.2	-10.3	236	15	2.7
2025-10-20T12:00	4600	570	-10.4	-10.4	237	15	2.7
2025-10-20T12:00	4620	569	-10.5	-10.5	237	15	2.7
2025-10-20T12:00	4640	567	-10.6	-10.7	237	15	2.7
2025-10-20T12:00	4660	566	-10.7	-10.8	236	15	2.7
2025-10-20T12:00	4680	564	-10.9	-11.0	235	15	2.6
2025-10-20T12:00	4700	563	-11.1	-11.1	234	16	2.6
2025-10-20T12:00	4720	561	-11.2	-11.3	233	16	2.6
2025-10-20T12:00	4740	560	-11.3	-11.8	232	16	2.6
2025-10-20T12:00	4760	558	-11.1	-12.5	231	17	2.6
2025-10-20T12:00	4780	557	-11.2	-12.8	230	17	2.6
2025-10-20T12:00	4800	555	-11.3	-12.9	229	18	2.6
2025-10-20T12:00	4820	554	-11.5	-13.0	229	18	2.6
2025-10-20T12:00	4840	553	-11.6	-13.1	229	19	2.6
2025-10-20T12:00	4860	551	-11.7	-13.1	229	19	2.6
2025-10-20T12:00	4880	550	-11.8	-13.4	229	19	2.6
2025-10-20T12:00	4900	548	-11.9	-14.4	230	20	2.6
2025-10-20T12:00	4920	547	-12.0	-15.6	230	20	2.6
2025-10-20T12:00	4940	545	-12.1	-15.6	230	20	2.7
2025-10-20T12:00	4960	544	-12.2	-15.6	230	20	2.7
2025-10-20T12:00	4980	543	-12.3	-15.7	230	20	2.7
2025-10-20T12:00	5000	541	-12.3	-16.0	230	20	2.7
2025-10-20T12:00	5020	540	-12.4	-16.1	229	19	2.7
2025-10-20T12:00	5040	539	-12.6	-16.1	228	19	2.7
2025-10-20T12:00	5060	537	-12.7	-16.1	228	19	2.7
2025-10-20T12:00	5080	536	-12.8	-15.9	227	19	2.7
2025-10-20T12:00	5100	534	-12.9	-16.0	227	18	2.7
2025-10-20T12:00	5120	533	-13.1	-16.0	226	18	2.7
2025-10-20T12:00	5140	531	-13.3	-16.0	226	19	2.7
2025-10-20T12:00	5160	530	-13.4	-15.8	226	19	2.7
2025-10-20T12:00	5180	529	-13.5	-15.9	227	19	2.7
2025-10-20T12:00	5200	527	-13.7	-16.0	228	19	2.6
2025-10-20T12:00	5220	526	-13.8	-16.4	229	20	2.6
2025-10-20T12:00	5240	525	-13.8	-18.2	230	20	2.6
2025-10-20T12:00	5260	523	-13.8	-21.8	231	20	2.6
2025-10-20T12:00	5280	522	-13.8	-19.7	232	20	2.7
2025-10-20T12:00	5300	520	-14.0	-19.7	232	20	2.7
2025-10-20T12:00	5320	519	-14.1	-20.0	233	20	2.7
2025-10-20T12:00	5340	518	-14.3	-20.5	234	20	2.7
2025-10-20T12:00	5360	516	-14.4	-22.0	234	20	2.7
2025-10-20T12:00	5380	515	-14.5	-22.8	234	20	2.7
2025-10-20T12:00	5400	513	-14.6	-22.1	234	20	2.7
2025-10-20T12:00	5420	512	-14.6	-20.6	234	20	2.7
2025-10-20T12:00	5440	511	-14.8	-19.0	234	20	2.8
2025-10-20T12:00	5460	509	-15.0	-17.8	234	20	2.7
2025-10-20T12:00	5480	508	-15.2	-17.9	234	20	2.7
2025-10-20T12:00	5500	507	-15.4	-17.9	234	20	2.7
2025-10-20T12:00	5520	505	-15.6	-17.9	233	21	2.6
2025-10-20T12:00	5540	504	-15.8	-17.8	233	21	2.6
2025-10-20T12:00	5560	503	-16.0	-17.8	232	21	2.5
2025-10-20T12:00	5580	502	-16.1	-18.0	232	21	2.5
2025-10-20T12:00	5600	500	-16.3	-18.2	231	21	2.5
2025-10-20T12:00	5620	499	-16.4	-18.6	231	21	2.5
2025-10-20T12:00	5640	497	-16.5	-19.7	231	21	2.5
2025-10-20T12:00	5660	496	-16.6	-21.2	231	21	2.5
2025-10-20T12:00	5680	495	-16.8	-24.9	231	21	2.5
2025-10-20T12:00	5700	493	-16.8	-26.9	231	21	2.5
2025-10-20T12:00	5720	492	-16.9	-27.8	231	21	2.5
2025-10-20T12:00	5740	491	-17.0	-25.4	231	21	2.5
2025-10-20T12:00	5760	489	-17.2	-21.6	230	21	2.6
2025-10-20T12:00	5780	488	-17.4	-21.4	230	21	2.6
2025-10-20T12:00	5800	487	-17.6	-20.3	230	21	2.6
2025-10-20T12:00	5820	486	-17.7	-19.4	230	21	2.6
2025-10-20T12:00	5840	484	-17.8	-19.8	230	21	2.6
2025-10-20T12:00	5860	483	-18.0	-19.8	230	20	2.5
2025-10-20T12:00	5880	482	-18.1	-20.0	230	20	2.5
2025-10-20T12:00	5900	481	-18.3	-20.3	230	20	2.5
2025-10-20T12:00	5920	479	-18.4	-20.4	230	20	2.5
2025-10-20T12:00	5940	478	-18.6	-20.8	230	20	2.5
2025-10-20T12:00	5960	477	-18.6	-21.5	230	20	2.5
2025-10-20T12:00	5980	475	-18.7	-21.7	230	19	2.5
2025-10-20T12:00	6000	474	-18.9	-21.7	230	19	2.5
2025-10-20T12:00	6020	473	-19.0	-21.7	230	19	2.5
2025-10-20T12:00	6040	472	-19.1	-22.1	231	19	2.5
2025-10-20T12:00	6060	470	-19.2	-22.5	231	19	2.5
2025-10-20T12:00	6080	469	-19.3	-22.9	231	19	2.5
2025-10-20T12:00	6100	468	-19.5	-23.1	230	19	2.5
2025-10-20T12:00	6120	466	-19.6	-23.1	230	19	2.5
2025-10-20T12:00	6140	465	-19.8	-23.3	230	19	2.5
2025-10-20T12:00	6160	464	-19.9	-23.5	230	19	2.5
2025-10-20T12:00	6180	463	-20.1	-23.6	230	19	2.5
2025-10-20T12:00	6200	462	-20.2	-24.1	230	19	2.5
2025-10-20T12:00	6220	460	-20.4	-24.3	230	19	2.5
2025-10-20T12:00	6240	459	-20.5	-24.5	230	19	2.5
2025-10-20T12:00	6260	458	-20.5	-24.9	230	19	2.5
2025-10-20T12:00	6280	456	-20.7	-25.3	230	19	2.5
2025-10-20T12:00	6300	455	-20.8	-25.8	230	20	2.5
2025-10-20T12:00	6320	454	-20.9	-26.0	230	20	2.5
2025-10-20T12:00	6340	453	-20.9	-26.6	230	20	2.5
2025-10-20T12:00	6360	452	-21.1	-27.2	230	20	2.5
2025-10-20T12:00	6380	450	-21.2	-27.4	231	20	2.5
2025-10-20T12:00	6400	449	-21.4	-26.1	231	20	2.5
2025-10-20T12:00	6420	448	-21.6	-26.0	232	20	2.5
2025-10-20T12:00	6440	447	-21.7	-26.3	232	21	2.5
2025-10-20T12:00	6460	446	-21.9	-26.2	232	21	2.4
2025-10-20T12:00	6480	444	-22.1	-26.4	232	21	2.4
2025-10-20T12:00	6500	443	-22.1	-27.3	232	21	2.4
2025-10-20T12:00	6520	442	-22.2	-28.0	232	21	2.4
2025-10-20T12:00	6540	441	-22.3	-29.2	231	21	2.4
2025-10-20T12:00	6560	440	-22.4	-30.0	230	21	2.4
2025-10-20T12:00	6580	438	-22.5	-30.9	230	21	2.4
2025-10-20T12:00	6600	437	-22.6	-34.4	229	21	2.4
2025-10-20T12:00	6620	436	-22.7	-38.1	229	21	2.4
2025-10-20T12:00	6640	435	-22.8	-41.1	228	21	2.4
2025-10-20T12:00	6660	433	-22.9	-41.8	228	21	2.4
2025-10-20T12:00	6680	432	-23.1	-42.4	228	21	2.4
2025-10-20T12:00	6700	431	-23.2	-42.9	227	22	2.5
2025-10-20T12:00	6720	430	-23.4	-42.9	227	22	2.5
2025-10-20T12:00	6740	429	-23.6	-43.0	227	22	2.5
2025-10-20T12:00	6760	428	-23.8	-42.2	227	22	2.5
2025-10-20T12:00	6780	426	-23.9	-41.9	226	22	2.5
2025-10-20T12:00	6800	425	-24.1	-41.7	226	22	2.5
2025-10-20T12:00	6820	424	-24.3	-41.8	225	22	2.5
2025-10-20T12:00	6840	423	-24.5	-41.9	225	21	2.5
2025-10-20T12:00	6860	422	-24.6	-42.6	225	21	2.5
2025-10-20T12:00	6880	421	-24.8	-43.9	224	21	2.4
2025-10-20T12:00	6900	420	-24.9	-42.5	224	21	2.4
2025-10-20T12:00	6920	418	-25.1	-41.6	225	21	2.4
2025-10-20T12:00	6940	417	-25.3	-39.9	225	21	2.4
2025-10-20T12:00	6960	416	-25.5	-39.1	225	21	2.4
2025-10-20T12:00	6980	415	-25.7	-39.4	226	21	2.4
2025-10-20T12:00	7000	414	-25.8	-36.9	226	21	2.4
2025-10-20T12:00	7020	413	-26.0	-32.3	227	20	2.4
2025-10-20T12:00	7040	412	-26.3	-33.8	228	20	2.3
2025-10-20T12:00	7060	410	-26.5	-34.4	228	20	2.3
2025-10-20T12:00	7080	409	-26.6	-33.0	229	20	2.3
2025-10-20T12:00	7100	408	-26.8	-33.0	229	20	2.3
2025-10-20T12:00	7120	407	-27.0	-34.0	229	20	2.3
2025-10-20T12:00	7140	406	-27.2	-34.4	229	20	2.3
2025-10-20T12:00	7160	405	-27.4	-33.9	229	20	2.3
2025-10-20T12:00	7180	404	-27.6	-33.8	229	19	2.3
2025-10-20T12:00	7200	402	-27.8	-33.3	228	19	2.3
2025-10-20T12:00	7220	401	-28.0	-33.4	228	19	2.3
2025-10-20T12:00	7240	400	-28.2	-33.5	228	19	2.3
2025-10-20T12:00	7260	399	-28.4	-33.3	228	19	2.3
2025-10-20T12:00	7280	398	-28.5	-32.5	228	19	2.3
2025-10-20T12:00	7300	397	-28.7	-32.4	228	19	2.3
2025-10-20T12:00	7320	396	-28.8	-32.6	228	20	2.3
2025-10-20T12:00	7340	395	-28.9	-32.8	228	20	2.3
2025-10-20T12:00	7360	394	-29.0	-32.9	228	20	2.3
2025-10-20T12:00	7380	393	-29.1	-32.9	228	20	2.3
2025-10-20T12:00	7400	391	-29.3	-33.0	229	20	2.3
2025-10-20T12:00	7420	390	-29.5	-33.0	229	20	2.3
2025-10-20T12:00	7440	389	-29.6	-33.1	229	20	2.3
2025-10-20T12:00	7460	388	-29.8	-33.2	228	20	2.3
2025-10-20T12:00	7480	387	-29.9	-33.3	228	21	2.2
2025-10-20T12:00	7500	386	-30.1	-33.4	228	21	2.2
2025-10-20T12:00	7520	385	-30.3	-33.6	228	21	2.2
2025-10-20T12:00	7540	384	-30.5	-33.9	227	21	2.2
2025-10-20T12:00	7560	383	-30.7	-34.0	227	21	2.2
2025-10-20T12:00	7580	382	-30.8	-34.0	227	21	2.2
2025-10-20T12:00	7600	380	-31.0	-34.4	226	21	2.2
2025-10-20T12:00	7620	379	-31.1	-34.8	226	21	2.2
2025-10-20T12:00	7640	378	-31.3	-34.7	226	21	2.2
2025-10-20T12:00	7660	377	-31.5	-34.9	226	21	2.2
2025-10-20T12:00	7680	376	-31.6	-35.3	225	21	2.2
2025-10-20T12:00	7700	375	-31.8	-35.5	225	21	2.2
2025-10-20T12:00	7720	374	-32.0	-35.6	224	21	2.2
2025-10-20T12:00	7740	373	-32.2	-35.8	224	21	2.2
2025-10-20T12:00	7760	372	-32.3	-36.0	223	21	2.2
2025-10-20T12:00	7780	371	-32.5	-36.2	222	22	2.2
2025-10-20T12:00	7800	370	-32.6	-36.5	221	22	2.2
2025-10-20T12:00	7820	369	-32.8	-36.7	220	22	2.2
2025-10-20T12:00	7840	368	-32.9	-36.7	219	22	2.2
2025-10-20T12:00	7860	367	-32.8	-36.6	217	22	2.3
2025-10-20T12:00	7880	366	-32.9	-36.5	216	22	2.3
2025-10-20T12:00	7900	365	-32.9	-36.6	216	22	2.3
2025-10-20T12:00	7920	364	-33.1	-36.6	215	22	2.3
2025-10-20T12:00	7940	363	-33.2	-36.7	214	22	2.2
2025-10-20T12:00	7960	362	-33.4	-36.9	213	22	2.2
2025-10-20T12:00	7980	361	-33.5	-37.0	213	22	2.2
2025-10-20T12:00	8000	360	-33.6	-37.2	212	22	2.2
2025-10-20T12:00	8020	359	-33.7	-37.5	211	22	2.1
2025-10-20T12:00	8040	358	-33.9	-37.5	211	22	2.1
2025-10-20T12:00	8060	356	-34.1	-37.5	210	22	2.1
2025-10-20T12:00	8080	355	-34.3	-37.5	210	22	2.1
2025-10-20T12:00	8100	354	-34.5	-37.6	210	22	2.0
2025-10-20T12:00	8120	354	-34.6	-37.9	210	22	2.0
2025-10-20T12:00	8140	352	-34.8	-38.3	209	22	2.0
2025-10-20T12:00	8160	351	-34.9	-38.3	209	22	2.0
2025-10-20T12:00	8180	350	-35.1	-38.4	209	22	1.9
2025-10-20T12:00	8200	349	-35.3	-38.5	208	21	1.9
2025-10-20T12:00	8220	348	-35.4	-38.9	208	21	1.9
2025-10-20T12:00	8240	347	-35.6	-39.2	208	21	1.9
2025-10-20T12:00	8260	346	-35.7	-39.2	207	21	1.9
2025-10-20T12:00	8280	345	-35.9	-39.3	207	21	1.8
2025-10-20T12:00	8300	344	-36.1	-39.4	206	21	1.8
2025-10-20T12:00	8320	343	-36.3	-39.6	205	21	1.8
2025-10-20T12:00	8340	342	-36.4	-40.0	205	20	1.8
2025-10-20T12:00	8360	341	-36.6	-40.1	204	20	1.8
2025-10-20T12:00	8380	340	-36.8	-40.2	203	20	1.8
2025-10-20T12:00	8400	339	-37.0	-40.4	203	20	1.7
2025-10-20T12:00	8420	339	-37.1	-40.7	202	20	1.7
2025-10-20T12:00	8440	338	-37.3	-40.8	202	21	1.7
2025-10-20T12:00	8460	337	-37.5	-40.8	201	21	1.7
2025-10-20T12:00	8480	336	-37.7	-40.9	201	21	1.7
2025-10-20T12:00	8500	335	-37.9	-41.0	200	21	1.7
2025-10-20T12:00	8520	334	-38.0	-41.4	200	21	1.7
2025-10-20T12:00	8540	333	-38.2	-41.4	200	21	1.6
2025-10-20T12:00	8560	332	-38.4	-41.3	199	22	1.6
2025-10-20T12:00	8580	331	-38.6	-41.2	199	22	1.6
2025-10-20T12:00	8600	330	-38.8	-41.2	199	22	1.6
2025-10-20T12:00	8620	329	-39.0	-41.5	199	22	1.6
2025-10-20T12:00	8640	328	-39.1	-41.9	199	22	1.6
2025-10-20T12:00	8660	327	-39.3	-42.0	199	22	1.6
2025-10-20T12:00	8680	326	-39.5	-42.0	199	22	1.6
2025-10-20T12:00	8700	325	-39.6	-42.1	200	22	1.6
2025-10-20T12:00	8720	324	-39.7	-42.5	200	23	1.6
2025-10-20T12:00	8740	323	-39.9	-42.6	200	23	1.6
2025-10-20T12:00	8760	322	-40.1	-42.8	200	23	1.6
2025-10-20T12:00	8780	321	-40.2	-43.2	200	23	1.6
2025-10-20T12:00	8800	320	-40.5	-43.4	201	23	1.6
2025-10-20T12:00	8820	319	-40.6	-43.7	201	24	1.6
2025-10-20T12:00	8840	318	-40.7	-44.2	201	24	1.6
2025-10-20T12:00	8860	317	-40.9	-44.2	201	24	1.6
2025-10-20T12:00	8880	317	-41.1	-44.1	201	24	1.6
2025-10-20T12:00	8900	316	-41.3	-44.3	201	24	1.6
2025-10-20T12:00	8920	315	-41.4	-44.6	201	24	1.6
2025-10-20T12:00	8940	314	-41.6	-44.6	201	24	1.6
2025-10-20T12:00	8960	313	-41.8	-44.7	201	24	1.6
2025-10-20T12:00	8980	312	-42.0	-45.1	200	24	1.6
2025-10-20T12:00	9000	311	-42.2	-45.3	200	24	1.6
2025-10-20T12:00	9020	310	-42.4	-45.3	200	24	1.6
2025-10-20T12:00	9040	309	-42.5	-45.2	200	24	1.6
2025-10-20T12:00	9060	308	-42.8	-45.1	200	24	1.6
2025-10-20T12:00	9080	307	-43.0	-45.1	199	24	1.5
2025-10-20T12:00	9100	306	-43.1	-45.4	199	24	1.5
2025-10-20T12:00	9120	306	-43.2	-45.9	199	24	1.5
2025-10-20T12:00	9140	305	-43.4	-46.1	199	24	1.5
2025-10-20T12:00	9160	304	-43.6	-46.2	198	24	1.5
2025-10-20T12:00	9180	303	-43.8	-46.1	198	24	1.5
2025-10-20T12:00	9200	302	-44.0	-46.4	198	24	1.5
2025-10-20T12:00	9220	301	-44.2	-46.9	198	24	1.5
2025-10-20T12:00	9240	300	-44.3	-47.2	198	24	1.5
2025-10-20T12:00	9260	299	-44.5	-47.4	198	24	1.5
2025-10-20T12:00	9280	298	-44.8	-47.5	198	24	1.5
2025-10-20T12:00	9300	297	-44.9	-47.7	198	24	1.5
2025-10-20T12:00	9320	297	-45.1	-48.1	198	24	1.5
2025-10-20T12:00	9340	296	-45.2	-48.4	198	24	1.4
2025-10-20T12:00	9360	295	-45.4	-48.6	198	24	1.4
2025-10-20T12:00	9380	294	-45.7	-48.7	198	24	1.4
2025-10-20T12:00	9400	293	-45.8	-49.0	198	24	1.4
2025-10-20T12:00	9420	292	-46.0	-49.2	198	24	1.4
2025-10-20T12:00	9440	291	-46.2	-49.3	198	24	1.4
2025-10-20T12:00	9460	290	-46.3	-49.4	198	24	1.4
2025-10-20T12:00	9480	289	-46.5	-49.5	198	24	1.4
2025-10-20T12:00	9500	289	-46.7	-49.9	198	24	1.4
2025-10-20T12:00	9520	288	-46.9	-50.2	198	25	1.4
2025-10-20T12:00	9540	287	-47.1	-50.6	198	25	1.4
2025-10-20T12:00	9560	286	-47.2	-50.7	198	25	1.4
2025-10-20T12:00	9580	285	-47.4	-50.7	198	25	1.4
2025-10-20T12:00	9600	284	-47.5	-50.8	198	25	1.4
2025-10-20T12:00	9620	283	-47.7	-50.9	198	25	1.4
2025-10-20T12:00	9640	283	-47.9	-50.8	198	26	1.4
2025-10-20T12:00	9660	282	-48.1	-50.9	199	26	1.4
2025-10-20T12:00	9680	281	-48.3	-51.3	199	26	1.5
2025-10-20T12:00	9700	280	-48.4	-51.7	199	26	1.5
2025-10-20T12:00	9720	279	-48.5	-52.1	199	26	1.5
2025-10-20T12:00	9740	278	-48.6	-52.6	199	26	1.5
2025-10-20T12:00	9760	277	-48.9	-52.7	200	26	1.5
2025-10-20T12:00	9780	277	-49.1	-52.8	200	26	1.6
2025-10-20T12:00	9800	276	-49.2	-52.9	200	26	1.6
2025-10-20T12:00	9820	275	-49.4	-53.1	201	27	1.6
2025-10-20T12:00	9840	274	-49.6	-53.3	201	27	1.6
2025-10-20T12:00	9860	273	-49.7	-53.4	201	27	1.6
2025-10-20T12:00	9880	272	-49.9	-53.6	202	27	1.7
2025-10-20T12:00	9900	272	-50.1	-53.8	202	27	1.7
2025-10-20T12:00	9920	271	-50.3	-54.0	203	27	1.7
2025-10-20T12:00	9940	270	-50.4	-54.1	203	27	1.7
2025-10-20T12:00	9960	269	-50.6	-54.2	203	27	1.7
2025-10-20T12:00	9980	268	-50.8	-54.1	203	28	1.7
2025-10-20T12:00	10000	267	-51.0	-54.1	203	28	1.7
2025-10-20T12:00	10018	267	-51.1	-54.1	204	28	1.7
2025-10-20T12:00	10050	265	-51.3	-54.1	204	29	1.7
2025-10-20T12:00	10100	263	-51.6	-54.1	204	29	1.7
2025-10-20T12:00	10150	261	-52.0	-55.3	204	30	1.7
2025-10-20T12:00	10200	259	-52.4	-55.6	204	30	1.7
2025-10-20T12:00	10250	257	-52.7	-55.8	204	30	1.7
2025-10-20T12:00	10300	255	-53.2	-56.6	203	30	1.7
2025-10-20T12:00	10350	253	-53.7	-57.1	202	30	1.7
2025-10-20T12:00	10400	251	-54.1	-58.4	202	31	1.7
2025-10-20T12:00	10450	250	-54.5	-59.6	203	31	1.7
2025-10-20T12:00	10500	247	-55.1	-60.0	204	31	1.7
2025-10-20T12:00	10550	246	-55.6	-60.2	204	31	1.7
2025-10-20T12:00	10600	244	-56.1	-60.6	205	31	1.7
2025-10-20T12:00	10650	242	-56.6	-60.9	206	32	1.7
2025-10-20T12:00	10700	240	-56.9	-60.7	206	33	1.7
2025-10-20T12:00	10750	238	-57.3	-60.5	205	33	1.6
2025-10-20T12:00	10800	236	-57.6	-60.2	204	33	1.6
2025-10-20T12:00	10850	234	-58.1	-60.4	202	33	1.7
2025-10-20T12:00	10900	232	-58.5	-62.0	202	33	1.7
2025-10-20T12:00	10950	230	-58.9	-63.5	203	34	1.7
2025-10-20T12:00	11000	229	-59.1	-64.1	203	34	1.7
2025-10-20T12:00	11050	227	-59.6	-64.4	204	34	1.7
2025-10-20T12:00	11100	225	-60.0	-64.8	205	34	1.7
2025-10-20T12:00	11150	223	-60.4	-64.8	206	34	1.7
2025-10-20T12:00	11200	221	-60.6	-65.0	209	32	1.7
2025-10-20T12:00	11250	220	-60.0	-65.2	212	31	1.8
2025-10-20T12:00	11300	218	-59.7	-66.8	215	29	1.9
2025-10-20T12:00	11350	216	-59.5	-68.9	218	28	2.2
2025-10-20T12:00	11400	215	-59.6	-71.0	220	27	2.5
2025-10-20T12:00	11450	213	-59.8	-72.7	223	26	2.7
2025-10-20T12:00	11500	211	-59.6	-74.2	227	25	2.9
2025-10-20T12:00	11550	209	-59.7	-76.0	229	23	3.2
2025-10-20T12:00	11600	208	-59.6	-76.5	231	22	3.4
2025-10-20T12:00	11650	206	-58.9	-77.3	232	20	3.6
2025-10-20T12:00	11700	204	-58.7	-76.8	231	19	3.9
2025-10-20T12:00	11750	203	-58.7	-76.1	231	19	4.1
2025-10-20T12:00	11800	201	-58.9	-76.0	232	20	4.2
2025-10-20T12:00	11850	200	-58.6	-76.5	235	21	4.2
2025-10-20T12:00	11900	198	-58.1	-77.0	239	21	4.3
2025-10-20T12:00	11950	197	-57.5	-77.3	244	22	4.3
2025-10-20T12:00	12000	195	-57.1	-77.2	247	22	4.3
2025-10-20T12:00	12050	193	-56.7	-77.9	248	22	4.3
2025-10-20T12:00	12100	192	-56.4	-78.3	248	20	4.3
2025-10-20T12:00	12150	190	-56.1	-78.7	247	19	4.4
2025-10-20T12:00	12200	189	-55.8	-78.9	246	19	4.4
2025-10-20T12:00	12250	187	-55.9	-79.2	246	18	4.5
2025-10-20T12:00	12300	186	-55.4	-79.5	246	18	4.5
2025-10-20T12:00	12350	184	-55.0	-79.8	247	17	4.6
2025-10-20T12:00	12400	183	-55.0	-80.0	249	16	4.7
2025-10-20T12:00	12450	182	-55.4	-80.0	254	16	4.7
2025-10-20T12:00	12500	180	-55.6	-80.0	258	17	4.8
2025-10-20T12:00	12550	179	-56.1	-80.1	261	17	4.8
2025-10-20T12:00	12600	177	-55.9	-80.3	260	16	4.8
2025-10-20T12:00	12650	176	-55.7	-80.6	257	15	4.9
2025-10-20T12:00	12700	175	-56.1	-80.7	254	14	5.0
2025-10-20T12:00	12750	173	-56.3	-80.8	252	14	5.0
2025-10-20T12:00	12800	172	-56.7	-81.0	250	14	5.2
2025-10-20T12:00	12850	170	-56.8	-81.2	248	15	5.2
2025-10-20T12:00	12900	169	-56.8	-81.2	246	15	5.3
2025-10-20T12:00	12950	168	-57.3	-81.5	244	16	5.5
2025-10-20T12:00	13000	166	-57.5	-81.6	246	16	5.5
2025-10-20T12:00	13050	165	-57.4	-81.8	249	16	5.6
2025-10-20T12:00	13100	164	-56.9	-81.7	253	16	5.6
2025-10-20T12:00	13150	163	-56.8	-81.9	257	16	5.6
2025-10-20T12:00	13200	161	-56.9	-82.0	259	17	5.6
2025-10-20T12:00	13250	160	-56.6	-82.1	261	17	5.6
2025-10-20T12:00	13300	159	-56.2	-82.0	263	17	5.6
2025-10-20T12:00	13350	158	-56.2	-82.1	264	16	5.6
2025-10-20T12:00	13400	156	-56.5	-82.2	265	16	5.7
2025-10-20T12:00	13450	155	-56.9	-82.2	265	16	5.7
2025-10-20T12:00	13500	154	-57.2	-82.2	264	15	5.6
2025-10-20T12:00	13550	153	-57.2	-82.2	263	14	5.6
2025-10-20T12:00	13600	151	-57.3	-82.3	264	13	5.7
2025-10-20T12:00	13650	150	-57.6	-82.4	264	12	5.7
2025-10-20T12:00	13700	149	-57.7	-82.5	262	12	5.6
2025-10-20T12:00	13750	148	-57.9	-82.5	259	12	5.7
2025-10-20T12:00	13800	147	-58.1	-82.7	257	13	5.7
2025-10-20T12:00	13850	146	-58.1	-82.7	255	14	5.6
2025-10-20T12:00	13900	144	-58.1	-82.7	253	15	5.6
2025-10-20T12:00	13950	143	-58.4	-82.8	251	16	5.6
2025-10-20T12:00	14000	142	-58.4	-82.7	250	17	5.5
2025-10-20T12:00	14050	141	-58.6	-82.8	251	18	5.4
2025-10-20T12:00	14100	140	-58.7	-83.0	254	18	5.3
2025-10-20T12:00	14150	139	-58.2	-83.0	257	19	5.2
2025-10-20T12:00	14200	138	-58.0	-83.2	259	19	5.0
2025-10-20T12:00	14250	137	-57.7	-83.3	261	19	4.9
2025-10-20T12:00	14300	135	-57.2	-83.2	262	19	4.8
2025-10-20T12:00	14350	134	-57.2	-83.3	262	19	4.6
2025-10-20T12:00	14400	133	-57.4	-83.3	262	19	4.4
2025-10-20T12:00	14450	132	-57.4	-83.3	262	20	4.1
2025-10-20T12:00	14500	131	-57.6	-83.3	261	20	3.9
2025-10-20T12:00	14550	130	-57.8	-83.3	261	20	3.9
2025-10-20T12:00	14600	129	-58.1	-83.4	263	21	3.9
2025-10-20T12:00	14650	128	-58.3	-83.5	265	21	4.0
2025-10-20T12:00	14700	127	-58.4	-83.6	268	20	4.1
2025-10-20T12:00	14750	126	-58.0	-83.4	270	19	4.1
2025-10-20T12:00	14800	125	-57.8	-83.4	273	19	4.0
2025-10-20T12:00	14850	124	-57.8	-83.4	276	18	3.9
2025-10-20T12:00	14900	123	-58.1	-83.5	280	17	3.9
2025-10-20T12:00	14950	122	-58.4	-83.6	282	17	3.9
2025-10-20T12:00	15000	121	-58.7	-83.7	283	16	3.9
2025-10-20T12:00	15050	120	-58.7	-83.6	284	14	4.0
2025-10-20T12:00	15100	119	-58.6	-83.5	283	13	4.0
2025-10-20T12:00	15150	118	-59.0	-83.6	282	12	4.0
2025-10-20T12:00	15200	117	-59.4	-83.8	278	12	4.0
2025-10-20T12:00	15250	117	-59.9	-84.0	274	11	4.0
2025-10-20T12:00	15300	116	-59.8	-84.0	268	11	4.1
2025-10-20T12:00	15350	115	-59.9	-84.3	262	11	4.4
2025-10-20T12:00	15400	114	-60.1	-84.7	259	11	4.9
2025-10-20T12:00	15450	113	-60.2	-85.1	255	11	5.4
2025-10-20T12:00	15500	112	-59.7	-84.9	252	11	5.9
2025-10-20T12:00	15550	111	-59.2	-84.8	249	11	6.3
2025-10-20T12:00	15600	110	-59.5	-84.9	248	11	6.7
2025-10-20T12:00	15650	109	-59.8	-85.0	250	12	6.9
2025-10-20T12:00	15700	108	-60.0	-85.0	253	12	7.0
2025-10-20T12:00	15750	108	-60.2	-85.1	256	13	7.0
2025-10-20T12:00	15800	107	-60.2	-85.2	258	13	7.1
2025-10-20T12:00	15850	106	-60.1	-85.2	259	14	7.1
2025-10-20T12:00	15900	105	-60.1	-85.2	260	15	7.1
2025-10-20T12:00	15950	104	-60.0	-85.2	261	16	7.1
2025-10-20T12:00	16000	103	-60.1	-85.4	262	16	7.1
2025-10-20T12:00	16050	102	-60.0	-85.4	262	15	7.1
2025-10-20T12:00	16100	102	-59.5	-85.4	262	14	7.1
2025-10-20T12:00	16150	101	-59.4	-85.4	261	14	7.2
2025-10-20T12:00	16200	100	-59.4	-85.3	261	13	7.2
2025-10-20T12:00	16250	99	-59.9	-85.5	262	13	7.1
2025-10-20T12:00	16300	98	-60.2	-85.4	263	14	7.1
2025-10-20T12:00	16350	98	-60.2	-85.3	264	14	6.9
2025-10-20T12:00	16400	97	-60.5	-85.4	266	15	6.9
2025-10-20T12:00	16450	96	-60.8	-85.7	268	16	6.8
2025-10-20T12:00	16500	95	-60.7	-85.6	273	16	6.7
2025-10-20T12:00	16550	95	-60.4	-85.5	278	17	6.6
2025-10-20T12:00	16600	94	-60.6	-85.7	282	17	6.5
2025-10-20T12:00	16650	93	-60.5	-85.7	285	17	6.4
2025-10-20T12:00	16700	92	-60.1	-85.5	285	16	6.3
2025-10-20T12:00	16750	92	-60.3	-85.6	284	15	6.3
2025-10-20T12:00	16800	91	-60.5	-85.9	285	13	6.2
2025-10-20T12:00	16850	90	-59.9	-85.7	288	12	6.1
2025-10-20T12:00	16900	89	-59.8	-85.6	290	11	6.0
2025-10-20T12:00	16950	89	-60.0	-85.6	292	10	5.8
2025-10-20T12:00	17000	88	-60.2	-85.5	292	10	5.7
2025-10-20T12:00	17050	87	-60.5	-85.6	290	8	5.6
2025-10-20T12:00	17100	87	-60.7	-85.7	284	7	5.5
2025-10-20T12:00	17150	86	-61.0	-86.0	276	7	5.4
2025-10-20T12:00	17200	85	-60.8	-85.9	271	8	5.4
2025-10-20T12:00	17250	85	-60.8	-86.0	270	10	5.6
2025-10-20T12:00	17300	84	-61.0	-86.2	272	11	5.7
2025-10-20T12:00	17350	83	-61.2	-86.3	275	12	5.9
2025-10-20T12:00	17400	83	-61.3	-86.5	278	12	6.1
2025-10-20T12:00	17450	82	-61.2	-86.5	280	11	6.2
2025-10-20T12:00	17500	81	-61.1	-86.6	280	10	6.4
2025-10-20T12:00	17550	81	-60.9	-86.6	278	9	6.7
2025-10-20T12:00	17600	80	-60.8	-86.5	274	9	6.8
2025-10-20T12:00	17650	79	-60.9	-86.7	272	10	7.0
2025-10-20T12:00	17700	79	-60.8	-86.6	274	10	7.0
2025-10-20T12:00	17750	78	-60.9	-86.6	275	11	7.1
2025-10-20T12:00	17800	77	-61.1	-86.7	277	11	7.1
2025-10-20T12:00	17850	77	-61.3	-86.8	278	12	7.1
2025-10-20T12:00	17900	76	-61.5	-86.9	280	12	7.2
2025-10-20T12:00	17950	76	-61.4	-86.9	283	11	7.2
2025-10-20T12:00	18000	75	-61.4	-86.9	286	10	7.2
2025-10-20T12:00	18050	74	-61.5	-86.9	286	9	7.2
2025-10-20T12:00	18100	74	-61.8	-86.9	286	8	7.2
2025-10-20T12:00	18150	73	-62.1	-87.0	283	7	7.1
2025-10-20T12:00	18200	73	-62.4	-87.1	276	7	7.1
2025-10-20T12:00	18250	72	-62.6	-87.3	268	8	7.0
2025-10-20T12:00	18300	71	-62.4	-87.1	263	8	6.9
2025-10-20T12:00	18350	71	-62.6	-87.3	264	9	7.0
2025-10-20T12:00	18400	70	-62.8	-87.4	270	10	7.2
2025-10-20T12:00	18450	70	-62.9	-87.6	275	11	7.4
2025-10-20T12:00	18500	69	-62.8	-87.7	277	12	7.5
2025-10-20T12:00	18550	69	-62.4	-87.6	277	12	7.6
2025-10-20T12:00	18600	68	-62.0	-87.4	276	12	7.7
2025-10-20T12:00	18650	67	-62.2	-87.5	274	13	8.0
2025-10-20T12:00	18700	67	-62.4	-87.6	273	13	8.3
2025-10-20T12:00	18750	66	-62.4	-87.6	272	13	8.5
2025-10-20T12:00	18800	66	-62.5	-87.6	273	13	8.7
2025-10-20T12:00	18850	65	-62.5	-87.7	276	13	8.7
2025-10-20T12:00	18900	65	-62.5	-87.8	280	14	8.7
2025-10-20T12:00	18950	64	-62.5	-87.9	285	14	8.6
2025-10-20T12:00	19000	64	-62.1	-87.7	289	14	8.6
2025-10-20T12:00	19050	63	-61.9	-87.7	291	13	8.6
2025-10-20T12:00	19100	63	-61.8	-87.8	292	12	8.7
2025-10-20T12:00	19150	62	-61.8	-87.8	292	11	8.7
2025-10-20T12:00	19200	62	-62.0	-87.7	290	11	8.7
2025-10-20T12:00	19250	61	-62.1	-87.6	286	10	8.7
2025-10-20T12:00	19300	61	-62.3	-87.6	282	11	8.7
2025-10-20T12:00	19350	60	-62.5	-87.7	282	11	8.7
2025-10-20T12:00	19400	60	-62.6	-87.8	284	12	8.7
2025-10-20T12:00	19450	59	-62.7	-87.9	287	12	8.7
2025-10-20T12:00	19500	59	-62.8	-88.1	290	13	8.7
2025-10-20T12:00	19550	58	-62.8	-88.1	294	13	8.8
2025-10-20T12:00	19600	58	-62.6	-88.0	295	12	8.9
2025-10-20T12:00	19650	57	-62.4	-87.9	295	12	8.9
2025-10-20T12:00	19700	57	-62.4	-88.0	295	11	9.0
2025-10-20T12:00	19750	56	-62.4	-88.0	295	11	9.1
2025-10-20T12:00	19800	56	-62.5	-88.0	297	10	9.1
2025-10-20T12:00	19850	56	-62.7	-88.1	302	10	9.1
2025-10-20T12:00	19900	55	-62.6	-88.1	307	10	9.2
2025-10-20T12:00	19950	55	-62.6	-88.0	312	9	9.3
2025-10-20T12:00	20000	54	-62.8	-88.2	316	9	9.3
2025-10-20T12:00	20050	54	-62.8		318	8	9.3
2025-10-20T12:00	20100	53	-62.9		318	7	9.3
2025-10-20T12:00	20150	53	-63.0		315	6	9.3
2025-10-20T12:00	20200	52	-63.0		310	6	9.4
2025-10-20T12:00	20250	52	-63.3		304	6	9.5
2025-10-20T12:00	20300	52	-63.4		301	6	9.5
2025-10-20T12:00	20350	51	-63.3		301	7	9.7
2025-10-20T12:00	20400	51	-63.1		302	8	9.6
2025-10-20T12:00	20450	50	-63.0		299	8	9.8
2025-10-20T12:00	20500	50	-63.0		294	8	9.9
2025-10-20T12:00	20550	50	-63.1		289	9	9.8
2025-10-20T12:00	20600	49	-63.3		286	9	9.9
2025-10-20T12:00	20650	49	-63.3		286	9	9.9
2025-10-20T12:00	20700	48	-63.2		284	10	10.0
2025-10-20T12:00	20750	48	-63.1		284	11	10.1
2025-10-20T12:00	20800	48	-63.0		285	11	10.1
2025-10-20T12:00	20850	47	-62.8		288	12	10.1
2025-10-20T12:00	20900	47	-62.7		290	11	10.2
2025-10-20T12:00	20950	46	-62.9		287	10	10.3
2025-10-20T12:00	21000	46	-62.9		282	9	10.3
2025-10-20T12:00	21050	46	-62.8		282	8	10.4
2025-10-20T12:00	21100	45	-62.6		286	8	10.5
2025-10-20T12:00	21150	45	-62.5		289	8	10.6
2025-10-20T12:00	21200	45	-62.6		288	9	10.7
2025-10-20T12:00	21250	44	-62.6		284	10	10.8
2025-10-20T12:00	21300	44	-62.5		281	11	10.8
2025-10-20T12:00	21350	44	-62.5		280	12	10.9
2025-10-20T12:00	21400	43	-62.5		280	13	10.8
2025-10-20T12:00	21450	43	-62.2		280	13	10.9
2025-10-20T12:00	21500	42	-61.9		280	12	10.9
2025-10-20T12:00	21550	42	-62.1		276	11	10.9
2025-10-20T12:00	21600	42	-62.2		271	11	11.0
2025-10-20T12:00	21650	41	-61.9		268	12	10.9
2025-10-20T12:00	21700	41	-61.8		270	13	10.9
2025-10-20T12:00	21750	41	-61.6		275	14	10.9
2025-10-20T12:00	21800	40	-61.7		281	14	11.0
2025-10-20T12:00	21850	40	-61.7		289	15	11.0
2025-10-20T12:00	21900	40	-61.8		295	15	10.9
2025-10-20T12:00	21950	39	-61.7		298	15	11.1
2025-10-20T12:00	22000	39	-61.6		298	14	11.0
2025-10-20T12:00	22050	39	-61.6		297	13	11.2
2025-10-20T12:00	22100	39	-61.5		296	13	11.1
2025-10-20T12:00	22150	38	-61.5		296	13	11.2
2025-10-20T12:00	22200	38	-61.6		296	13	11.1
2025-10-20T12:00	22250	38	-61.7		295	13	11.2
2025-10-20T12:00	22300	37	-61.9		294	14	11.1
2025-10-20T12:00	22350	37	-61.7		292	14	11.0
2025-10-20T12:00	22400	37	-61.7		292	14	10.9
2025-10-20T12:00	22450	36	-61.6		292	13	11.3
2025-10-20T12:00	22500	36	-61.5		293	12	11.2
2025-10-20T12:00	22550	36	-61.5		293	11	11.3
2025-10-20T12:00	22600	36	-61.8		292	10	11.4
2025-10-20T12:00	22650	35	-61.8		289	11	11.3
2025-10-20T12:00	22700	35	-61.6		286	12	11.3
2025-10-20T12:00	22750	35	-61.6		284	13	11.3
2025-10-20T12:00	22800	34	-61.7		283	14	11.3
2025-10-20T12:00	22850	34	-61.7		283	14	11.4
2025-10-20T12:00	22900	34	-61.7		282	14	11.3
2025-10-20T12:00	22950	34	-61.7		281	14	11.3
2025-10-20T12:00	23000	33	-61.7		280	15	11.2
2025-10-20T12:00	23050	33	-61.7		281	15	11.1
2025-10-20T12:00	23100	33	-61.6		282	16	11.0
2025-10-20T12:00	23150	33	-61.8		283	16	10.9
2025-10-20T12:00	23200	32	-61.7		284	17	10.9
2025-10-20T12:00	23250	32	-61.5		286	17	10.8
2025-10-20T12:00	23300	32	-61.4		289	16	10.7
2025-10-20T12:00	23350	32	-61.3		293	16	10.5
2025-10-20T12:00	23400	31	-61.3		297	16	10.5
2025-10-20T12:00	23450	31	-61.1		302	16	10.6
2025-10-20T12:00	23500	31	-60.6		306	16	10.5
2025-10-20T12:00	23550	30	-60.3		307	16	10.5
2025-10-20T12:00	23600	30	-60.2		306	15	10.5
2025-10-20T12:00	23650	30	-60.3		303	14	10.5
2025-10-20T12:00	23700	30	-60.4		299	13	10.5
2025-10-20T12:00	23750	30	-60.3		293	13	10.5
2025-10-20T12:00	23800	29	-60.1		288	13	10.5
2025-10-20T12:00	23850	29	-59.5		283	13	10.3
2025-10-20T12:00	23900	29	-59.6		281	14	10.3
2025-10-20T12:00	23950	29	-59.6		283	14	10.3
2025-10-20T12:00	24000	28	-59.4		288	15	10.4
2025-10-20T12:00	24050	28	-59.3		295	15	10.3
2025-10-20T12:00	24100	28	-59.4		301	16	10.2
2025-10-20T12:00	24150	28	-59.4		302	17	10.2
2025-10-20T12:00	24200	27	-59.1		302	17	10.3
2025-10-20T12:00	24250	27	-58.9		303	16	10.2
2025-10-20T12:00	24300	27	-58.8		305	16	10.2
2025-10-20T12:00	24350	27	-58.8		308	15	10.1
2025-10-20T12:00	24400	27	-58.9		308	14	9.9
2025-10-20T12:00	24450	26	-59.2		308	12	9.8
2025-10-20T12:00	24500	26	-59.3		307	10	9.6
2025-10-20T12:00	24550	26	-59.3		306	9	9.4
2025-10-20T12:00	24600	26	-59.3		304	8	9.4
2025-10-20T12:00	24650	26	-59.1		297	8	9.4
2025-10-20T12:00	24700	25	-58.6		290	9	9.4
2025-10-20T12:00	24750	25	-58.3		288	9	9.5
2025-10-20T12:00	24800	25	-57.9		290	9	9.7
2025-10-20T12:00	24850	25	-57.8		291	9	10.0
2025-10-20T12:00	24900	25	-57.8		289	9	10.2
2025-10-20T12:00	24950	24	-57.7		283	9	10.1
2025-10-20T12:00	25000	24	-57.8		277	10	10.2
2025-10-20T12:00	25050	24	-57.8		275	10	10.2
2025-10-20T12:00	25100	24	-57.9		276	11	10.2
2025-10-20T12:00	25150	24	-58.1		280	11	10.2
2025-10-20T12:00	25200	23	-58.1		284	11	10.1
2025-10-20T12:00	25250	23	-57.9		285	11	10.1
2025-10-20T12:00	25300	23	-57.8		283	12	10.1
2025-10-20T12:00	25350	23	-57.6		280	13	10.3
2025-10-20T12:00	25400	23	-57.3		278	15	10.3
2025-10-20T12:00	25450	23	-57.0		280	15	10.4
2025-10-20T12:00	25500	22	-57.1		284	16	10.3
2025-10-20T12:00	25550	22	-57.2		287	16	10.1
2025-10-20T12:00	25600	22	-57.2		288	15	10.0
2025-10-20T12:00	25650	22	-57.0		288	14	9.9
2025-10-20T12:00	25700	22	-57.0		286	13	9.8
2025-10-20T12:00	25750	21	-57.3		283	12	9.8
2025-10-20T12:00	25800	21	-57.5		282	12	9.8
2025-10-20T12:00	25850	21	-57.4		282	13	9.9
2025-10-20T12:00	25900	21	-56.9		283	15	9.9
2025-10-20T12:00	25950	21	-56.5		285	16	10.0
2025-10-20T12:00	26000	21	-56.1		287	17	10.0
2025-10-20T12:00	26050	20	-55.7		290	17	10.1
2025-10-20T12:00	26100	20	-55.7		293	17	10.2
2025-10-20T12:00	26150	20	-55.7		295	16	10.2
2025-10-20T12:00	26200	20	-55.6		295	15	10.1
2025-10-20T12:00	26250	20	-55.8		292	13	10.0
2025-10-20T12:00	26300	20	-55.9		287	12	9.9
2025-10-20T12:00	26350	20	-55.7		279	12	9.9
2025-10-20T12:00	26400	19	-55.1		273	13	9.7
2025-10-20T12:00	26450	19	-54.8		268	14	9.7
2025-10-20T12:00	26500	19	-54.5		266	15	9.7
2025-10-20T12:00	26550	19	-54.0		266	17	9.7
2025-10-20T12:00	26600	19	-53.9		266	18	9.7
2025-10-20T12:00	26650	19	-53.9		266	20	9.7
2025-10-20T12:00	26700	19	-54.1		266	20	9.7
2025-10-20T12:00	26750	18	-54.2		265	21	9.7
2025-10-20T12:00	26800	18	-54.2		264	21	9.6
2025-10-20T12:00	26850	18	-53.9		264	21	9.6
2025-10-20T12:00	26900	18	-53.7		264	21	9.5
2025-10-20T12:00	26950	18	-53.4		265	21	9.5
2025-10-20T12:00	27000	18	-52.9		268	21	9.4
2025-10-20T12:00	27050	18	-52.9		271	20	9.4
2025-10-20T12:00	27100	17	-53.1		275	20	9.4
2025-10-20T12:00	27150	17	-53.1		278	19	9.3
2025-10-20T12:00	27200	17	-53.4		279	19	9.2
2025-10-20T12:00	27250	17	-53.6		276	18	9.2
2025-10-20T12:00	27300	17	-53.2		271	18	9.1
2025-10-20T12:00	27350	17	-53.1		267	18	9.1
2025-10-20T12:00	27400	17	-53.1		263	17	9.1
2025-10-20T12:00	27450	16	-53.3		258	18	9.1
2025-10-20T12:00	27500	16	-53.3		255	18	9.2
2025-10-20T12:00	27550	16	-53.2		255	20	9.1
2025-10-20T12:00	27600	16	-52.7		257	21	9.1
2025-10-20T12:00	27650	16	-52.1		259	23	9.1
2025-10-20T12:00	27700	16	-51.8		260	25	9.1
2025-10-20T12:00	27750	16	-51.6		263	25	9.1
2025-10-20T12:00	27800	16	-51.5		265	26	9.0
2025-10-20T12:00	27850	15	-51.4		268	26	9.0
2025-10-20T12:00	27900	15	-51.7		271	25	8.9
2025-10-20T12:00	27950	15	-51.9		274	25	8.9
2025-10-20T12:00	28000	15	-52.1		272	25	8.8
2025-10-20T12:00	28050	15	-52.0		269	26	8.7
2025-10-20T12:00	28100	15	-52.0		265	27	8.6
2025-10-20T12:00	28150	15	-52.2		262	27	8.5
2025-10-20T12:00	28200	15	-52.3		263	28	8.5
2025-10-20T12:00	28250	15	-52.1		265	29	8.5
2025-10-20T12:00	28300	14	-51.9		268	31	8.4
2025-10-20T12:00	28350	14	-51.9		270	33	8.3
2025-10-20T12:00	28400	14	-51.9		271	34	8.3
2025-10-20T12:00	28450	14	-51.6		272	35	8.2
2025-10-20T12:00	28500	14	-51.4		274	35	8.2
2025-10-20T12:00	28550	14	-51.1		275	35	8.3
2025-10-20T12:00	28600	14	-50.9		277	35	8.4
2025-10-20T12:00	28650	14	-50.7		279	34	8.4
2025-10-20T12:00	28700	14	-50.8		280	33	8.4
2025-10-20T12:00	28750	13	-51.1		281	33	8.4
2025-10-20T12:00	28800	13	-51.2		281	32	8.3
2025-10-20T12:00	28850	13	-51.0		281	31	8.2
2025-10-20T12:00	28900	13	-51.0		282	31	8.3
2025-10-20T12:00	28950	13	-51.0		283	31	8.1
2025-10-20T12:00	29000	13	-50.8		285	31	8.0
2025-10-20T12:00	29050	13	-50.8		286	32	7.9
2025-10-20T12:00	29100	13	-50.9		287	33	7.8
2025-10-20T12:00	29150	13	-50.3		287	34	7.8
2025-10-20T12:00	29200	13	-49.7		286	36	8.0
2025-10-20T12:00	29250	12	-49.7		285	37	8.0
2025-10-20T12:00	29300	12	-49.7		284	38	8.1
2025-10-20T12:00	29350	12	-49.3		283	38	8.2
2025-10-20T12:00	29400	12	-48.8		283	37	8.2
2025-10-20T12:00	29450	12	-48.7		283	37	8.3
2025-10-20T12:00	29500	12	-48.6		282	37	8.3
2025-10-20T12:00	29550	12	-48.5		282	37	8.3
2025-10-20T12:00	29600	12	-48.2		283	37	8.3
2025-10-20T12:00	29650	12	-47.9		284	36	8.3
2025-10-20T12:00	29700	12	-47.8		285	36	8.3
2025-10-20T12:00	29750	12	-48.0		286	35	8.1
2025-10-20T12:00	29800	11	-48.1		285	35	8.1
2025-10-20T12:00	29850	11	-48.0		282	36	7.9
2025-10-20T12:00	29900	11	-48.0		280	36	7.9
2025-10-20T12:00	29950	11	-47.7		278	36	8.0
2025-10-20T12:00	30000	11	-47.3		278	36	7.9
2025-10-20T12:00	30050	11	-47.1		279	36	8.0
2025-10-20T12:00	30100	11	-46.9		280	36	8.0
2025-10-20T12:00	30150	11	-47.0		281	36	8.0
2025-10-20T12:00	30200	11	-47.3		282	36	8.1
2025-10-20T12:00	30250	11	-47.7		283	35	8.0
2025-10-20T12:00	30300	11	-47.8		284	35	7.9
2025-10-20T12:00	30350	11	-47.9		285	35	7.9
2025-10-20T12:00	30400	10	-47.9		285	35	7.7
2025-10-20T12:00	30450	10	-47.8		284	35	7.7
2025-10-20T12:00	30500	10	-47.7		282	35	7.6
2025-10-20T12:00	30550	10	-47.6		280	36	7.5
2025-10-20T12:00	30600	10	-47.4		278	36	7.5
2025-10-20T12:00	30650	10	-47.1		278	35	7.5
2025-10-20T12:00	30700	10	-46.5		279	35	7.4
2025-10-20T12:00	30750	10	-46.5		282	35	7.3
2025-10-20T12:00	30800	10	-46.7		283	34	7.3
2025-10-20T12:00	30850	10	-46.9		283	33	7.2
2025-10-20T12:00	30900	10	-47.0		281	33	7.2
2025-10-20T12:00	30950	10	-47.0		278	32	7.0
2025-10-20T12:00	31000	10	-46.9		275	33	6.9
2025-10-20T12:00	31050	10	-46.8		272	33	6.9
2025-10-20T12:00	31100	9	-46.5		270	34	6.9
2025-10-20T12:00	31150	9	-46.4		270	35	6.9
2025-10-20T12:00	31200	9	-46.5		270	35	6.8
2025-10-20T12:00	31250	9	-46.5		271	35	6.8
2025-10-20T12:00	31300	9	-46.4		271	36	6.8
2025-10-20T12:00	31350	9	-46.2		271	35	6.8
2025-10-20T12:00	31400	9	-45.8		270	35	6.7
2025-10-20T12:00	31450	9	-45.6		268	34	6.6
2025-10-20T12:00	31500	9	-45.7		266	34	6.5
2025-10-20T12:00	31550	9	-45.9		265	34	6.5
2025-10-20T12:00	31600	9	-46.2		265	34	6.4
2025-10-20T12:00	31650	9	-46.5		266	34	6.4
2025-10-20T12:00	31700	9	-46.8		268	34	6.3
2025-10-20T12:00	31750	9	-46.8		269	34	6.3
2025-10-20T12:00	31800	8	-47.0		271	34	6.3
2025-10-20T12:00	31850	8	-47.2		272	34	6.2
2025-10-20T12:00	31900	8	-47.2		272	34	6.2
2025-10-20T12:00	31950	8	-47.2		272	34	6.1
2025-10-20T12:00	32000	8	-47.2		271	34	6.0
2025-10-20T12:00	32050	8	-47.4		271	34	6.0
2025-10-20T12:00	32100	8	-47.7		270	33	6.0
2025-10-20T12:00	32150	8	-48.0		270	33	5.9
2025-10-20T12:00	32200	8	-48.3		269	32	5.8
2025-10-20T12:00	32250	8	-48.6		268	32	5.8
2025-10-20T12:00	32300	8	-49.0		267	32	5.7
2025-10-20T12:00	32350	8	-49.2		267	32	5.6
2025-10-20T12:00	32400	8	-49.3		269	33	5.5
2025-10-20T12:00	32450	8	-48.8		271	34	5.4
2025-10-20T12:00	32500	8	-48.1		273	35	5.4
2025-10-20T12:00	32550	8	-47.6		273	35	5.4
2025-10-20T12:00	32600	8	-47.3		273	36	5.3
2025-10-20T12:00	32650	7	-47.1		274	36	5.3
2025-10-20T12:00	32700	7	-46.8		275	37	5.2
2025-10-20T12:00	32750	7	-46.7		277	37	5.2
2025-10-20T12:00	32800	7	-46.5		279	38	5.2
2025-10-20T12:00	32850	7	-46.1		280	38	5.1
2025-10-20T12:00	32900	7	-45.6		280	38	5.0
2025-10-20T12:00	32950	7	-45.4		281	37	5.0
2025-10-20T12:00	33000	7	-45.4		281	36	4.9
2025-10-20T12:00	33050	7	-45.5		281	36	4.9
2025-10-20T12:00	33100	7	-45.5		280	36	4.8
2025-10-20T12:00	33150	7	-45.5		278	36	4.7
2025-10-20T12:00	33200	7	-45.5		277	36	4.7
2025-10-20T12:00	33250	7	-45.6		276	37	4.6
2025-10-20T12:00	33300	7	-45.7		275	38	4.6
2025-10-20T12:00	33350	7	-45.3		274	39	4.6
2025-10-20T12:00	33400	7	-45.3		274	39	4.6
2025-10-20T12:00	33450	7	-45.4		273	39	4.6
2025-10-20T12:00	33500	7	-45.2		273	39	4.6
2025-10-20T12:00	33550	7	-45.0		273	39	4.5
2025-10-20T12:00	33600	6	-45.1		272	39	4.5
2025-10-20T12:00	33650	6	-45.1		272	38	4.5
2025-10-20T12:00	33700	6	-45.2		272	38	4.5
2025-10-20T12:00	33750	6	-45.3		272	37	4.5
2025-10-20T12:00	33800	6	-45.7		272	37	4.4
2025-10-20T12:00	33850	6	-46.0		272	37	4.4
2025-10-20T12:00	33900	6	-46.2		271	37	4.3
2025-10-20T12:00	33950	6	-46.4		272	38	4.2
2025-10-20T12:00	34000	6	-46.3		272	39	4.1
2025-10-20T12:00	34050	6	-46.2		273	39	4.1
2025-10-20T12:00	34100	6	-46.4		274	40	4.1
2025-10-20T12:00	34150	6	-46.7		274	40	4.1
2025-10-20T12:00	34200	6	-46.8		275	40	4.1
2025-10-20T12:00	34250	6	-46.5		274	40	4.1
2025-10-20T12:00	34300	6	-45.7		273	40	4.0
2025-10-20T12:00	34350	6	-45.1		273	40	4.0
2025-10-20T12:00	34400	6	-45.0		273	39	4.0
2025-10-20T12:00	34450	6	-45.1		272	40	3.9
2025-10-20T12:00	34500	6	-45.1		270	40	3.9
2025-10-20T12:00	34550	6	-45.2		269	41	3.8
2025-10-20T12:00	34600	6	-45.1		269	41	3.8
2025-10-20T12:00	34650	6	-44.6		268	41	3.8
2025-10-20T12:00	34700	5	-43.7		267	41	
2025-10-20T12:00	34750	5	-43.2		267	41	
2025-10-20T12:00	34800	5	-43.3		267	41	
2025-10-20T12:00	34850	5	-43.5		267	41	
2025-10-20T12:00	34900	5	-43.8		267	41	
2025-10-20T12:00	34950	5	-44.0		268	41	
2025-10-20T12:00	35000	5	-43.8		268	41	
2025-10-20T12:00	35050	5	-43.6		267	42	
2025-10-20T12:00	35100	5	-43.3		266	41	
2025-10-20T12:00	35150	5	-43.2		265	41	
2025-10-20T12:00	35200	5	-43.2		264	42	
2025-10-20T12:00	35250	5	-42.8		263	42	
2025-10-20T12:00	35300	5	-42.0		262	43	
2025-10-20T12:00	35350	5	-41.3		262	43	
2025-10-20T12:00	35400	5	-41.1		261	43	
2025-10-20T12:00	35450	5	-41.2		260	43	
2025-10-20T12:00	35500	5	-41.3		259	44	
2025-10-20T12:00	35550	5	-41.2		259	45	
2025-10-20T12:00	35600	5	-41.0		258	46	
2025-10-20T12:00	35650	5	-40.8		258	46	
2025-10-20T12:00	35700	5	-40.9		259	47	
2025-10-20T12:00	35750	5	-41.1		259	48	
2025-10-20T12:00	35800	5	-41.0		259	48	
2025-10-20T12:00	35850	5	-41.0		259	48	
2025-10-20T12:00	35900	5	-41.2		259	48	
2025-10-20T12:00	35950	5	-41.4		259	48	
2025-10-20T12:00	36000	5	-41.5		260	48	
2025-10-20T12:00	36050	4	-41.6		261	48	
2025-10-20T12:00	36100	4	-41.8		261	49	
2025-10-20T12:00	36150	4	-41.9		262	48	
2025-10-20T12:00	36200	4	-41.7		264	48	
2025-10-20T12:00	36250	4	-41.4		265	48	
2025-10-20T12:00	36300	4	-41.1		265	48	
2025-10-20T12:00	36350	4	-40.4		264	46	
2025-10-20T12:00	36400	4	-39.8		263	46	
2025-10-20T12:00	36450	4	-39.5		263	46	
2025-10-20T12:00	36500	4	-38.6		265	47	
2025-10-20T12:00	36550	4	-38.0		266	49	
2025-10-20T12:00	36600	4	-37.7		267	50	
2025-10-20T12:00	36650	4	-37.6		268	51	
2025-10-20T12:00	36700	4	-37.6		269	52	
2025-10-20T12:00	36750	4	-37.4		270	52	
2025-10-20T12:00	36800	4	-37.3		271	51	
2025-10-20T12:00	36850	4	-37.5		271	51	
2025-10-20T12:00	36900	4	-37.7		271	51	
2025-10-20T12:00	36950	4	-37.8		270	50	
2025-10-20T12:00	37000	4	-38.0		270	50	
2025-10-20T12:00	37050	4	-38.0		270	49	
2025-10-20T12:00	37100	4	-38.1		269	48	
2025-10-20T12:00	37150	4	-38.3		268	47	
2025-10-20T12:00	37200	4	-38.5		266	47	
2025-10-20T12:00	37250	4	-38.4		264	47	
2025-10-20T12:00	37300	4	-38.3		263	47	
2025-10-20T12:00	37350	4	-38.4		261	47	
2025-10-20T12:00	37400	4	-38.4		261	48	
2025-10-20T12:00	37450	4	-38.2		262	50	
2025-10-20T12:00	37500	4	-37.9		263	51	
2025-10-20T12:00	37550	4	-37.9		264	53	
2025-10-20T12:00	37600	4	-38.0		266	54	
2025-10-20T12:00	37650	4	-38.0		268	55	
2025-10-20T12:00	37700	4	-38.0		269	55	
2025-10-20T12:00	37750	4	-37.8		270	55	
2025-10-20T12:00	37800	3	-37.6		271	54	
2025-10-20T12:00	37850	3	-37.3		271	53	
2025-10-20T12:00	37900	3	-36.9		271	53	
2025-10-20T12:00	37950	3	-36.9		271	52	
2025-10-20T12:00	38000	3	-36.9		271	51	
2025-10-20T12:00	38050	3	-36.8		272	50	
2025-10-20T12:00	38100	3	-36.9		272	50	
2025-10-20T12:00	38150	3	-37.2		274	50	
2025-10-20T12:00	38200	3	-37.4		275	50	
2025-10-20T12:00	38250	3	-37.8		275	50	
2025-10-20T12:00	38300	3	-38.1		275	49	
2025-10-20T12:00	38350	3	-38.3		275	48	
2025-10-20T12:00	38400	3	-38.5		275	47	
2025-10-20T12:00	38450	3	-38.6		275	47	
2025-10-20T12:00	38500	3	-38.7		274	47	
2025-10-20T12:00	38550	3	-38.7		274	49	
2025-10-20T12:00	38600	3	-38.8		275	49	
2025-10-20T12:00	38650	3	-38.8		275	49	
2025-10-21T00:00	491	948	10.7	8.8	193	4	
2025-10-21T00:00	520	945	10.6	9.0	216	4	
2025-10-21T00:00	540	943	10.7	8.7	217	5	
2025-10-21T00:00	560	940	10.6	8.6	218	7	
2025-10-21T00:00	580	938	10.5	8.5	218	8	
2025-10-21T00:00	600	936	10.5	8.5	218	9	
2025-10-21T00:00	620	934	10.5	8.5	218	10	
2025-10-21T00:00	640	931	10.8	8.8	219	10	
2025-10-21T00:00	660	929	10.9	8.9	219	11	
2025-10-21T00:00	680	927	11.0	8.9	220	12	
2025-10-21T00:00	700	925	11.3	8.8	221	12	
2025-10-21T00:00	720	923	11.4	8.6	221	13	
2025-10-21T00:00	740	920	11.7	8.6	222	13	
2025-10-21T00:00	760	918	11.6	8.8	222	14	
2025-10-21T00:00	780	916	11.4	8.8	222	14	
2025-10-21T00:00	800	914	11.2	8.7	221	14	
2025-10-21T00:00	820	912	11.2	8.6	220	14	
2025-10-21T00:00	840	909	11.0	8.5	219	15	
2025-10-21T00:00	860	907	10.9	8.5	218	15	
2025-10-21T00:00	880	905	10.7	8.4	217	15	
2025-10-21T00:00	900	903	10.6	8.4	217	16	
2025-10-21T00:00	920	901	10.5	8.3	217	16	
2025-10-21T00:00	940	899	10.5	8.3	217	17	
2025-10-21T00:00	960	897	10.3	8.3	218	17	
2025-10-21T00:00	980	894	10.2	8.1	220	17	
2025-10-21T00:00	1000	892	10.1	8.0	221	18	
2025-10-21T00:00	1020	890	10.1	7.8	222	18	
2025-10-21T00:00	1040	888	10.2	7.5	222	18	
2025-10-21T00:00	1060	886	10.1	7.4	223	18	
2025-10-21T00:00	1080	884	10.0	7.2	223	19	
2025-10-21T00:00	1100	881	9.9	6.9	223	19	
2025-10-21T00:00	1120	879	9.8	6.8	223	19	
2025-10-21T00:00	1140	877	9.8	6.3	222	20	
2025-10-21T00:00	1160	875	9.6	6.3	222	20	
2025-10-21T00:00	1180	873	9.5	6.2	222	20	
2025-10-21T00:00	1200	871	9.3	6.2	222	20	
2025-10-21T00:00	1220	869	9.1	6.1	221	21	
2025-10-21T00:00	1240	867	9.0	5.8	221	21	
2025-10-21T00:00	1260	865	8.9	5.9	221	21	
2025-10-21T00:00	1280	863	8.8	5.3	222	22	
2025-10-21T00:00	1300	860	8.6	5.1	222	22	
2025-10-21T00:00	1320	858	8.5	4.9	223	22	
2025-10-21T00:00	1340	856	8.3	4.8	224	22	
2025-10-21T00:00	1360	854	8.2	4.9	225	22	
2025-10-21T00:00	1380	852	8.0	4.8	226	22	
2025-10-21T00:00	1400	850	7.9	4.9	226	22	
2025-10-21T00:00	1420	848	7.7	4.9	227	22	
2025-10-21T00:00	1440	846	7.5	4.5	227	22	
2025-10-21T00:00	1460	844	7.5	4.3	228	22	
2025-10-21T00:00	1480	842	7.3	4.2	228	22	
2025-10-21T00:00	1500	840	7.2	4.1	228	22	
2025-10-21T00:00	1520	838	6.9	4.1	228	22	
2025-10-21T00:00	1540	836	6.8	4.2	228	22	
2025-10-21T00:00	1560	834	6.6	4.1	228	22	
2025-10-21T00:00	1580	832	6.4	3.9	227	22	
2025-10-21T00:00	1600	830	6.3	3.6	227	22	
2025-10-21T00:00	1620	828	6.1	3.6	227	22	
2025-10-21T00:00	1640	826	6.0	3.5	228	22	
2025-10-21T00:00	1660	824	5.9	3.6	229	22	
2025-10-21T00:00	1680	822	5.8	3.3	229	22	
2025-10-21T00:00	1700	820	5.6	3.1	230	22	
2025-10-21T00:00	1720	817	5.5	3.0	230	22	
2025-10-21T00:00	1740	816	5.3	3.0	230	22	
2025-10-21T00:00	1760	814	5.2	2.9	230	22	
2025-10-21T00:00	1780	812	5.0	2.6	230	22	
2025-10-21T00:00	1800	810	4.9	2.5	231	21	
2025-10-21T00:00	1820	808	4.7	2.5	231	21	
2025-10-21T00:00	1840	806	4.6	2.4	232	21	
2025-10-21T00:00	1860	804	4.5	2.3	232	20	
2025-10-21T00:00	1880	802	4.4	2.1	233	20	
2025-10-21T00:00	1900	800	4.4	1.9	234	21	
2025-10-21T00:00	1920	798	4.1	2.0	235	21	
2025-10-21T00:00	1940	796	3.9	1.9	235	21	
2025-10-21T00:00	1960	794	3.7	1.9	236	21	
2025-10-21T00:00	1980	792	3.5	1.8	237	21	
2025-10-21T00:00	2000	790	3.4	1.7	237	21	
2025-10-21T00:00	2020	788	3.2	1.4	238	21	
2025-10-21T00:00	2040	786	3.1	1.1	238	21	
2025-10-21T00:00	2060	784	3.0	1.0	238	21	
2025-10-21T00:00	2080	783	2.9	1.0	237	21	
2025-10-21T00:00	2100	780	2.7	0.9	236	21	
2025-10-21T00:00	2120	778	2.5	0.9	235	20	
2025-10-21T00:00	2140	776	2.3	0.8	234	20	
2025-10-21T00:00	2160	775	2.2	0.6	233	19	
2025-10-21T00:00	2180	773	2.1	0.5	233	19	
2025-10-21T00:00	2200	771	2.0	0.5	234	19	
2025-10-21T00:00	2220	769	1.8	0.4	235	19	
2025-10-21T00:00	2240	767	1.8	0.3	237	19	
2025-10-21T00:00	2260	765	1.6	0.3	238	19	
2025-10-21T00:00	2280	763	1.5	0.2	240	19	
2025-10-21T00:00	2300	761	1.4	0.1	241	19	
2025-10-21T00:00	2320	759	1.2	0.1	241	19	
2025-10-21T00:00	2340	758	1.1	-0.1	241	19	
2025-10-21T00:00	2360	756	1.0	0.0	241	19	
2025-10-21T00:00	2380	754	0.8	0.0	241	19	
2025-10-21T00:00	2400	752	0.6	0.0	240	19	
2025-10-21T00:00	2420	750	0.5	-0.1	239	18	
2025-10-21T00:00	2440	748	0.4	-0.2	239	18	
2025-10-21T00:00	2460	746	0.2	-0.3	239	18	
2025-10-21T00:00	2480	744	0.0	-0.4	239	19	
2025-10-21T00:00	2500	743	-0.1	-0.4	239	19	
2025-10-21T00:00	2520	741	-0.3	-0.5	240	18	
2025-10-21T00:00	2540	739	-0.4	-0.5	240	18	
2025-10-21T00:00	2560	737	-0.5	-0.6	240	18	
2025-10-21T00:00	2580	735	-0.5	-0.6	239	18	
2025-10-21T00:00	2600	734	-0.5	-0.8	239	18	
2025-10-21T00:00	2620	732	-0.6	-0.9	239	17	
2025-10-21T00:00	2640	730	-0.7	-0.9	238	17	
2025-10-21T00:00	2660	728	-0.9	-0.9	238	17	
2025-10-21T00:00	2680	726	-1.0	-1.1	237	17	
2025-10-21T00:00	2700	724	-0.9	-1.2	237	16	
2025-10-21T00:00	2720	722	-1.1	-1.1	237	16	
2025-10-21T00:00	2740	721	-1.2	-1.3	237	16	
2025-10-21T00:00	2760	719	-1.3	-1.5	238	16	
2025-10-21T00:00	2780	717	-1.4	-1.6	239	16	
2025-10-21T00:00	2800	715	-1.5	-1.7	240	16	
2025-10-21T00:00	2820	714	-1.7	-1.8	241	17	
2025-10-21T00:00	2840	712	-1.8	-1.9	241	17	
2025-10-21T00:00	2860	710	-1.9	-2.0	241	18	
2025-10-21T00:00	2880	708	-2.1	-2.1	241	18	
2025-10-21T00:00	2900	706	-2.2	-2.2	240	19	
2025-10-21T00:00	2920	705	-2.4	-2.4	239	20	
2025-10-21T00:00	2940	703	-2.5	-2.5	239	20	
2025-10-21T00:00	2960	701	-2.5	-2.5	238	21	
2025-10-21T00:00	2980	700	-2.6	-2.6	238	21	
2025-10-21T00:00	3000	698	-2.7	-2.7	238	21	
2025-10-21T00:00	3020	696	-2.7	-2.7	238	21	
2025-10-21T00:00	3040	694	-2.8	-2.8	238	21	
2025-10-21T00:00	3060	692	-2.9	-3.0	239	21	
2025-10-21T00:00	3080	690	-3.0	-3.1	239	21	
2025-10-21T00:00	3100	689	-3.0	-3.1	240	21	
2025-10-21T00:00	3120	687	-3.1	-3.3	240	21	
2025-10-21T00:00	3140	685	-3.3	-3.4	240	20	
2025-10-21T00:00	3160	684	-3.5	-3.6	240	20	
2025-10-21T00:00	3180	682	-3.5	-3.7	240	20	
2025-10-21T00:00	3200	680	-3.6	-3.7	240	20	
2025-10-21T00:00	3220	679	-3.7	-3.9	240	20	
2025-10-21T00:00	3240	677	-3.8	-4.1	240	20	
2025-10-21T00:00	3260	675	-4.2	-4.4	240	19	
2025-10-21T00:00	3280	673	-4.3	-4.4	240	19	
2025-10-21T00:00	3300	672	-4.3	-4.5	241	19	
2025-10-21T00:00	3320	670	-4.6	-5.0	241	19	
2025-10-21T00:00	3340	668	-4.7	-5.1	242	20	
2025-10-21T00:00	3360	666	-4.9	-5.2	243	20	
2025-10-21T00:00	3380	665	-4.9	-5.3	244	20	
2025-10-21T00:00	3400	663	-5.1	-5.5	244	20	
2025-10-21T00:00	3420	662	-5.0	-5.9	243	21	
2025-10-21T00:00	3440	660	-5.1	-6.0	243	21	
2025-10-21T00:00	3460	658	-5.3	-6.1	243	21	
2025-10-21T00:00	3480	656	-5.4	-6.3	243	21	
2025-10-21T00:00	3500	655	-5.6	-6.5	244	21	
2025-10-21T00:00	3520	653	-5.7	-6.7	244	21	
2025-10-21T00:00	3540	651	-5.9	-7.0	245	21	
2025-10-21T00:00	3560	650	-6.1	-7.2	245	22	
2025-10-21T00:00	3580	648	-6.3	-7.8	244	22	
2025-10-21T00:00	3600	646	-6.7	-8.8	244	22	
2025-10-21T00:00	3620	645	-6.9	-9.1	243	22	
2025-10-21T00:00	3640	643	-6.9	-8.9	242	23	
2025-10-21T00:00	3660	641	-7.0	-8.9	241	23	
2025-10-21T00:00	3680	640	-7.2	-8.9	241	23	
2025-10-21T00:00	3700	638	-7.2	-8.9	241	23	
2025-10-21T00:00	3720	637	-7.3	-8.5	241	23	
2025-10-21T00:00	3740	635	-7.4	-8.6	241	23	
2025-10-21T00:00	3760	633	-7.6	-8.8	241	23	
2025-10-21T00:00	3780	632	-7.7	-8.9	242	23	
2025-10-21T00:00	3800	630	-7.7	-8.5	242	23	
2025-10-21T00:00	3820	628	-7.8	-8.6	242	23	
2025-10-21T00:00	3840	627	-7.9	-8.5	243	22	
2025-10-21T00:00	3860	625	-8.0	-8.9	243	22	
2025-10-21T00:00	3880	624	-8.1	-9.3	243	22	
2025-10-21T00:00	3900	622	-8.2	-9.5	243	22	
2025-10-21T00:00	3920	620	-8.3	-9.6	243	22	
2025-10-21T00:00	3940	619	-8.4	-9.7	243	22	
2025-10-21T00:00	3960	617	-8.5	-9.7	242	21	
2025-10-21T00:00	3980	616	-8.8	-9.8	241	21	
2025-10-21T00:00	4000	614	-8.9	-9.8	241	21	
2025-10-21T00:00	4020	612	-9.0	-9.9	241	20	
2025-10-21T00:00	4040	611	-9.2	-9.9	241	20	
2025-10-21T00:00	4060	609	-9.3	-9.7	241	20	
2025-10-21T00:00	4080	608	-9.5	-9.8	242	20	
2025-10-21T00:00	4100	606	-9.6	-9.8	242	20	
2025-10-21T00:00	4120	605	-9.7	-9.9	242	20	
2025-10-21T00:00	4140	603	-9.9	-10.1	241	20	
2025-10-21T00:00	4160	601	-10.0	-10.4	240	20	
2025-10-21T00:00	4180	600	-10.2	-10.6	240	20	
2025-10-21T00:00	4200	598	-10.3	-10.7	240	20	
2025-10-21T00:00	4220	597	-10.4	-10.7	241	20	
2025-10-21T00:00	4240	595	-10.6	-10.9	242	21	
2025-10-21T00:00	4260	594	-10.7	-11.1	244	21	
2025-10-21T00:00	4280	592	-10.9	-11.2	245	21	
2025-10-21T00:00	4300	591	-10.9	-11.5	247	21	
2025-10-21T00:00	4320	589	-10.9	-11.9	249	21	
2025-10-21T00:00	4340	588	-11.0	-12.0	249	20	
2025-10-21T00:00	4360	586	-11.2	-12.1	249	20	
2025-10-21T00:00	4380	585	-11.2	-12.3	247	20	
2025-10-21T00:00	4400	583	-11.3	-12.4	246	21	
2025-10-21T00:00	4420	581	-11.4	-12.4	244	21	
2025-10-21T00:00	4440	580	-11.5	-12.5	243	21	
2025-10-21T00:00	4460	579	-11.5	-12.6	242	21	
2025-10-21T00:00	4480	577	-11.7	-12.8	242	22	
2025-10-21T00:00	4500	575	-11.8	-13.0	242	22	
2025-10-21T00:00	4520	574	-11.9	-13.0	242	22	
2025-10-21T00:00	4540	572	-12.1	-13.4	243	22	
2025-10-21T00:00	4560	571	-12.3	-13.5	243	22	
2025-10-21T00:00	4580	569	-12.4	-13.5	243	23	
2025-10-21T00:00	4600	568	-12.6	-13.7	243	23	
2025-10-21T00:00	4620	566	-12.8	-14.0	243	23	
2025-10-21T00:00	4640	565	-13.0	-14.1	244	23	
2025-10-21T00:00	4660	564	-13.2	-14.4	244	22	
2025-10-21T00:00	4680	562	-13.4	-14.7	245	22	
2025-10-21T00:00	4700	561	-13.5	-14.6	245	22	
2025-10-21T00:00	4720	559	-13.8	-15.4	246	22	
2025-10-21T00:00	4740	557	-14.1	-17.8	247	21	
2025-10-21T00:00	4760	556	-14.4	-18.2	247	21	
2025-10-21T00:00	4780	555	-14.6	-18.1	248	21	
2025-10-21T00:00	4800	553	-14.8	-18.3	249	21	
2025-10-21T00:00	4820	552	-15.0	-18.7	250	21	
2025-10-21T00:00	4840	550	-15.1	-18.8	252	21	
2025-10-21T00:00	4860	549	-15.2	-18.8	253	21	
2025-10-21T00:00	4880	547	-15.3	-18.8	254	21	
2025-10-21T00:00	4900	546	-15.4	-19.0	255	21	
2025-10-21T00:00	4920	545	-15.5	-19.6	255	21	
2025-10-21T00:00	4940	543	-15.8	-21.3	255	21	
2025-10-21T00:00	4960	542	-16.1	-23.1	255	21	
2025-10-21T00:00	4980	540	-16.4	-27.0	255	21	
2025-10-21T00:00	5000	539	-16.6	-29.3	256	22	
2025-10-21T00:00	5020	537	-16.9	-29.8	256	22	
2025-10-21T00:00	5040	536	-17.1	-31.6	256	22	
2025-10-21T00:00	5060	534	-17.4	-31.3	256	23	
2025-10-21T00:00	5080	533	-17.5	-31.2	256	23	
2025-10-21T00:00	5100	532	-17.6	-31.3	256	24	
2025-10-21T00:00	5120	530	-17.7	-31.2	255	24	
2025-10-21T00:00	5140	529	-17.9	-31.3	255	24	
2025-10-21T00:00	5160	527	-18.0	-30.5	255	24	
2025-10-21T00:00	5180	526	-18.0	-29.8	255	23	
2025-10-21T00:00	5200	525	-18.1	-29.4	255	23	
2025-10-21T00:00	5220	523	-18.2	-28.7	256	23	
2025-10-21T00:00	5240	522	-18.3	-28.5	256	23	
2025-10-21T00:00	5260	520	-18.4	-28.5	256	23	
2025-10-21T00:00	5280	519	-18.5	-28.4	255	22	
2025-10-21T00:00	5300	518	-18.7	-28.3	254	23	
2025-10-21T00:00	5320	516	-18.8	-28.5	254	23	
2025-10-21T00:00	5340	515	-18.9	-28.6	253	23	
2025-10-21T00:00	5360	513	-19.1	-28.9	253	23	
2025-10-21T00:00	5380	512	-19.2	-29.4	253	24	
2025-10-21T00:00	5400	511	-19.3	-30.3	254	24	
2025-10-21T00:00	5420	509	-19.4	-31.0	254	24	
2025-10-21T00:00	5440	508	-19.4	-33.2	255	24	
2025-10-21T00:00	5460	507	-19.4	-34.2	255	25	
2025-10-21T00:00	5480	505	-19.4	-34.5	255	25	
2025-10-21T00:00	5500	504	-19.3	-35.2	255	25	
2025-10-21T00:00	5520	502	-19.3	-35.5	256	25	
2025-10-21T00:00	5540	501	-19.4	-35.5	256	24	
2025-10-21T00:00	5560	500	-19.5	-35.4	256	24	
2025-10-21T00:00	5580	498	-19.6	-35.6	256	24	
2025-10-21T00:00	5600	497	-19.7	-36.0	256	24	
2025-10-21T00:00	5620	496	-19.8	-37.0	256	24	
2025-10-21T00:00	5640	495	-19.7	-38.4	256	24	
2025-10-21T00:00	5660	493	-19.6	-40.3	256	24	
2025-10-21T00:00	5680	492	-19.5	-41.7	256	24	
2025-10-21T00:00	5700	490	-19.3	-41.1	256	23	
2025-10-21T00:00	5720	489	-19.2	-40.6	257	23	
2025-10-21T00:00	5740	488	-19.3	-39.9	259	23	
2025-10-21T00:00	5760	487	-19.4	-39.0	259	23	
2025-10-21T00:00	5780	485	-19.5	-34.9	260	23	
2025-10-21T00:00	5800	484	-19.5	-34.2	260	23	
2025-10-21T00:00	5820	483	-19.6	-34.2	260	23	
2025-10-21T00:00	5840	481	-19.7	-34.4	261	23	
2025-10-21T00:00	5860	480	-19.8	-34.8	261	23	
2025-10-21T00:00	5880	479	-19.7	-37.0	261	23	
2025-10-21T00:00	5900	477	-19.7	-36.4	262	23	
2025-10-21T00:00	5920	476	-19.8	-36.3	262	23	
2025-10-21T00:00	5940	475	-19.7	-36.7	262	23	
2025-10-21T00:00	5960	474	-19.8	-38.2	262	23	
2025-10-21T00:00	5980	472	-19.9	-40.9	262	23	
2025-10-21T00:00	6000	471	-20.0	-42.5	261	23	
2025-10-21T00:00	6020	470	-20.2	-44.2	261	23	
2025-10-21T00:00	6040	469	-20.3	-44.3	261	23	
2025-10-21T00:00	6060	467	-20.5	-44.4	261	23	
2025-10-21T00:00	6080	466	-20.7	-44.6	261	23	
2025-10-21T00:00	6100	465	-20.8	-44.8	261	23	
2025-10-21T00:00	6120	463	-21.0	-44.7	261	23	
2025-10-21T00:00	6140	462	-21.2	-44.7	261	23	
2025-10-21T00:00	6160	461	-21.3	-45.3	261	23	
2025-10-21T00:00	6180	460	-21.5	-45.5	261	24	
2025-10-21T00:00	6200	458	-21.6	-45.6	261	24	
2025-10-21T00:00	6220	457	-21.8	-45.6	262	24	
2025-10-21T00:00	6240	456	-22.0	-45.6	263	24	
2025-10-21T00:00	6260	455	-22.1	-45.9	265	24	
2025-10-21T00:00	6280	454	-22.3	-46.1	266	24	
2025-10-21T00:00	6300	452	-22.5	-46.3	266	24	
2025-10-21T00:00	6320	451	-22.6	-46.5	267	24	
2025-10-21T00:00	6340	450	-22.8	-47.0	267	24	
2025-10-21T00:00	6360	449	-23.0	-47.2	268	25	
2025-10-21T00:00	6380	447	-23.1	-47.5	268	25	
2025-10-21T00:00	6400	446	-23.3	-48.4	268	26	
2025-10-21T00:00	6420	445	-23.4	-49.7	268	26	
2025-10-21T00:00	6440	444	-23.5	-49.7	268	26	
2025-10-21T00:00	6460	442	-23.7	-49.6	268	27	
2025-10-21T00:00	6480	441	-23.8	-49.5	268	26	
2025-10-21T00:00	6500	440	-23.8	-49.9	268	26	
2025-10-21T00:00	6520	439	-24.0	-49.9	268	26	
2025-10-21T00:00	6540	438	-24.1	-49.9	269	26	
2025-10-21T00:00	6560	436	-24.4	-50.2	269	26	
2025-10-21T00:00	6580	435	-24.5	-50.2	270	26	
2025-10-21T00:00	6600	434	-24.7	-50.2	270	26	
2025-10-21T00:00	6620	433	-24.7	-50.7	270	26	
2025-10-21T00:00	6640	432	-24.9	-50.6	270	26	
2025-10-21T00:00	6660	430	-25.0	-50.6	269	27	
2025-10-21T00:00	6680	429	-25.0	-50.8	269	27	
2025-10-21T00:00	6700	428	-25.2	-51.2	269	27	
2025-10-21T00:00	6720	427	-25.2	-51.3	269	27	
2025-10-21T00:00	6740	426	-25.4	-51.3	269	27	
2025-10-21T00:00	6760	425	-25.5	-51.3	269	27	
2025-10-21T00:00	6780	423	-25.6	-51.7	269	27	
2025-10-21T00:00	6800	422	-25.7	-52.0	269	27	
2025-10-21T00:00	6820	421	-25.9	-52.2	270	27	
2025-10-21T00:00	6840	420	-26.0	-52.5	270	27	
2025-10-21T00:00	6860	419	-26.1	-52.3	271	27	
2025-10-21T00:00	6880	418	-26.2	-52.2	272	27	
2025-10-21T00:00	6900	416	-26.4	-52.2	272	27	
2025-10-21T00:00	6920	415	-26.6	-51.9	273	27	
2025-10-21T00:00	6940	414	-26.7	-51.6	273	27	
2025-10-21T00:00	6960	413	-26.9	-51.1	272	27	
2025-10-21T00:00	6980	412	-27.1	-50.2	271	27	
2025-10-21T00:00	7000	411	-27.3	-49.7	271	27	
2025-10-21T00:00	7020	410	-27.4	-49.8	270	27	
2025-10-21T00:00	7040	409	-27.6	-49.9	270	26	
2025-10-21T00:00	7060	407	-27.8	-49.9	269	26	
2025-10-21T00:00	7080	406	-28.0	-50.0	268	26	
2025-10-21T00:00	7100	405	-28.2	-49.8	268	26	
2025-10-21T00:00	7120	404	-28.4	-49.7	267	26	
2025-10-21T00:00	7140	403	-28.6	-49.6	267	27	
2025-10-21T00:00	7160	402	-28.8	-49.7	267	27	
2025-10-21T00:00	7180	401	-28.9	-49.7	268	27	
2025-10-21T00:00	7200	399	-29.1	-49.7	268	27	
2025-10-21T00:00	7220	398	-29.3	-49.7	268	27	
2025-10-21T00:00	7240	397	-29.4	-50.1	269	27	
2025-10-21T00:00	7260	396	-29.6	-50.7	270	26	
2025-10-21T00:00	7280	395	-29.7	-50.8	270	26	
2025-10-21T00:00	7300	394	-29.9	-50.8	271	26	
2025-10-21T00:00	7320	393	-30.0	-50.7	272	26	
2025-10-21T00:00	7340	392	-30.2	-50.7	273	26	
2025-10-21T00:00	7360	391	-30.4	-50.9	274	26	
2025-10-21T00:00	7380	390	-30.5	-51.1	274	26	
2025-10-21T00:00	7400	388	-30.7	-51.8	275	26	
2025-10-21T00:00	7420	387	-30.9	-52.8	275	26	
2025-10-21T00:00	7440	386	-31.0	-53.3	275	26	
2025-10-21T00:00	7460	385	-31.2	-53.6	275	26	
2025-10-21T00:00	7480	384	-31.4	-53.8	275	26	
2025-10-21T00:00	7500	383	-31.6	-53.7	275	26	
2025-10-21T00:00	7520	382	-31.7	-53.4	275	26	
2025-10-21T00:00	7540	381	-31.9	-53.4	275	26	
2025-10-21T00:00	7560	380	-32.1	-53.0	275	26	
2025-10-21T00:00	7580	379	-32.3	-52.0	276	26	
2025-10-21T00:00	7600	378	-32.5	-51.9	276	27	
2025-10-21T00:00	7620	377	-32.7	-51.9	276	27	
2025-10-21T00:00	7640	376	-32.8	-52.1	277	27	
2025-10-21T00:00	7660	374	-33.0	-52.2	277	27	
2025-10-21T00:00	7680	373	-33.2	-52.3	277	27	
2025-10-21T00:00	7700	372	-33.4	-52.7	276	26	
2025-10-21T00:00	7720	371	-33.5	-53.0	275	26	
2025-10-21T00:00	7740	370	-33.7	-53.1	275	26	
2025-10-21T00:00	7760	369	-33.9	-53.4	275	26	
2025-10-21T00:00	7780	368	-34.0	-54.5	275	25	
2025-10-21T00:00	7800	367	-34.2	-54.7	275	25	
2025-10-21T00:00	7820	366	-34.4	-53.8	275	25	
2025-10-21T00:00	7840	365	-34.5	-52.8	275	26	
2025-10-21T00:00	7860	364	-34.7	-52.2	274	26	
2025-10-21T00:00	7880	363	-34.9	-51.5	274	26	
2025-10-21T00:00	7900	362	-35.0	-52.5	273	26	
2025-10-21T00:00	7920	361	-35.2	-52.8	273	26	
2025-10-21T00:00	7940	360	-35.3	-52.9	272	26	
2025-10-21T00:00	7960	359	-35.4	-53.8	271	26	
2025-10-21T00:00	7980	358	-35.5	-53.9	271	26	
2025-10-21T00:00	8000	357	-35.6	-52.7	270	26	
2025-10-21T00:00	8020	356	-35.6	-53.3	270	27	
2025-10-21T00:00	8040	354	-35.7	-54.7	271	27	
2025-10-21T00:00	8060	353	-35.8	-54.9	271	27	
2025-10-21T00:00	8080	352	-35.9	-54.8	272	27	
2025-10-21T00:00	8100	352	-36.0	-54.8	272	27	
2025-10-21T00:00	8120	351	-36.1	-55.1	273	27	
2025-10-21T00:00	8140	349	-36.2	-55.9	273	27	
2025-10-21T00:00	8160	348	-36.3	-56.8	274	28	
2025-10-21T00:00	8180	347	-36.3	-56.6	274	28	
2025-10-21T00:00	8200	346	-36.4	-57.1	273	29	
2025-10-21T00:00	8220	345	-36.3	-57.6	272	29	
2025-10-21T00:00	8240	344	-36.2	-57.4	271	30	
2025-10-21T00:00	8260	343	-36.1	-55.4	269	30	
2025-10-21T00:00	8280	342	-35.9	-54.1	268	30	
2025-10-21T00:00	8300	341	-35.9	-52.1	267	30	
2025-10-21T00:00	8320	340	-36.0	-51.1	267	31	
2025-10-21T00:00	8340	339	-36.1	-49.8	267	31	
2025-10-21T00:00	8360	339	-36.2	-49.0	267	31	
2025-10-21T00:00	8380	338	-36.3	-47.6	267	31	
2025-10-21T00:00	8400	337	-36.3	-47.2	267	31	
2025-10-21T00:00	8420	336	-36.4	-48.3	267	31	
2025-10-21T00:00	8440	335	-36.5	-47.5	267	30	
2025-10-21T00:00	8460	334	-36.6	-47.3	267	30	
2025-10-21T00:00	8480	333	-36.8	-47.2	267	30	
2025-10-21T00:00	8500	332	-37.0	-47.0	267	30	
2025-10-21T00:00	8520	331	-37.2	-46.5	267	30	
2025-10-21T00:00	8540	330	-37.4	-46.4	267	30	
2025-10-21T00:00	8560	329	-37.6	-46.4	267	30	
2025-10-21T00:00	8580	328	-37.8	-46.6	267	30	
2025-10-21T00:00	8600	327	-38.0	-46.7	268	30	
2025-10-21T00:00	8620	326	-38.1	-46.6	268	30	
2025-10-21T00:00	8640	325	-38.3	-46.8	268	30	
2025-10-21T00:00	8660	324	-38.5	-47.0	268	30	
2025-10-21T00:00	8680	323	-38.7	-47.3	268	30	
2025-10-21T00:00	8700	322	-38.9	-47.3	269	30	
2025-10-21T00:00	8720	321	-39.1	-47.0	269	30	
2025-10-21T00:00	8740	320	-39.3	-46.9	269	30	
2025-10-21T00:00	8760	319	-39.5	-46.9	270	30	
2025-10-21T00:00	8780	319	-39.6	-47.0	270	30	
2025-10-21T00:00	8800	318	-39.8	-47.3	270	31	
2025-10-21T00:00	8820	317	-40.0	-47.4	271	31	
2025-10-21T00:00	8840	316	-40.2	-47.6	271	31	
2025-10-21T00:00	8860	315	-40.4	-48.3	271	31	
2025-10-21T00:00	8880	314	-40.5	-49.0	270	31	
2025-10-21T00:00	8900	313	-40.6	-49.2	270	31	
2025-10-21T00:00	8920	312	-40.8	-49.4	270	31	
2025-10-21T00:00	8940	311	-40.9	-49.6	269	31	
2025-10-21T00:00	8960	310	-41.1	-49.7	269	31	
2025-10-21T00:00	8980	309	-41.3	-49.9	269	31	
2025-10-21T00:00	9000	308	-41.5	-50.0	268	31	
2025-10-21T00:00	9020	307	-41.6	-50.1	267	31	
2025-10-21T00:00	9040	307	-41.8	-50.2	267	31	
2025-10-21T00:00	9060	306	-42.0	-50.4	266	31	
2025-10-21T00:00	9080	305	-42.1	-50.5	266	31	
2025-10-21T00:00	9100	304	-42.3	-51.1	266	31	
2025-10-21T00:00	9120	303	-42.4	-51.8	266	31	
2025-10-21T00:00	9140	302	-42.5	-52.0	266	31	
2025-10-21T00:00	9160	301	-42.6	-52.0	267	31	
2025-10-21T00:00	9180	300	-42.8	-51.8	267	31	
2025-10-21T00:00	9200	299	-43.0	-51.8	267	30	
2025-10-21T00:00	9220	299	-43.2	-51.8	268	30	
2025-10-21T00:00	9240	298	-43.4	-51.8	268	30	
2025-10-21T00:00	9260	297	-43.6	-52.0	268	30	
2025-10-21T00:00	9280	296	-43.8	-52.0	268	30	
2025-10-21T00:00	9300	295	-44.0	-52.0	268	30	
2025-10-21T00:00	9320	294	-44.2	-52.1	269	30	
2025-10-21T00:00	9340	293	-44.4	-52.1	269	30	
2025-10-21T00:00	9360	292	-44.5	-52.3	270	30	
2025-10-21T00:00	9380	291	-44.7	-52.7	270	30	
2025-10-21T00:00	9400	291	-44.8	-53.5	271	30	
2025-10-21T00:00	9420	290	-45.0	-54.0	271	31	
2025-10-21T00:00	9440	289	-45.1	-53.9	271	31	
2025-10-21T00:00	9460	288	-45.3	-54.0	272	31	
2025-10-21T00:00	9480	287	-45.4	-54.2	272	31	
2025-10-21T00:00	9500	286	-45.6	-54.2	273	31	
2025-10-21T00:00	9520	285	-45.7	-54.3	273	31	
2025-10-21T00:00	9540	284	-45.9	-54.4	273	32	
2025-10-21T00:00	9560	284	-46.1	-54.6	274	32	
2025-10-21T00:00	9580	283	-46.2	-54.8	274	32	
2025-10-21T00:00	9600	282	-46.4	-55.0	274	32	
2025-10-21T00:00	9620	281	-46.6	-55.1	275	32	
2025-10-21T00:00	9640	280	-46.7	-55.2	275	32	
2025-10-21T00:00	9660	280	-46.9	-55.2	276	32	
2025-10-21T00:00	9680	279	-47.1	-55.3	276	32	
2025-10-21T00:00	9700	278	-47.3	-55.6	277	32	
2025-10-21T00:00	9720	277	-47.4	-56.0	277	32	
2025-10-21T00:00	9740	276	-47.5	-56.1	277	32	
2025-10-21T00:00	9760	275	-47.7	-56.1	276	32	
2025-10-21T00:00	9780	274	-47.9	-56.0	276	32	
2025-10-21T00:00	9800	274	-48.1	-55.9	276	32	
2025-10-21T00:00	9820	273	-48.3	-56.0	276	32	
2025-10-21T00:00	9840	272	-48.4	-56.1	276	32	
2025-10-21T00:00	9860	271	-48.7	-56.2	276	32	
2025-10-21T00:00	9880	270	-48.8	-56.3	276	31	
2025-10-21T00:00	9900	269	-49.0	-56.6	276	31	
2025-10-21T00:00	9920	269	-49.2	-56.7	276	31	
2025-10-21T00:00	9940	268	-49.3	-56.9	275	31	
2025-10-21T00:00	9960	267	-49.5	-57.0	275	31	
2025-10-21T00:00	9980	266	-49.7	-57.1	274	31	
2025-10-21T00:00	10000	265	-49.9	-57.1	274	31	
2025-10-21T00:00	10018	265	-50.0	-57.1	274	31	
2025-10-21T00:00	10050	263	-50.3	-57.2	274	30	
2025-10-21T00:00	10100	261	-50.7	-57.3	273	30	
2025-10-21T00:00	10150	259	-51.1	-57.3	272	29	
2025-10-21T00:00	10200	257	-51.5	-57.6	270	29	
2025-10-21T00:00	10250	255	-51.8	-58.3	269	28	
2025-10-21T00:00	10300	253	-52.2	-57.8	269	28	
2025-10-21T00:00	10350	251	-52.6	-58.1	269	28	
2025-10-21T00:00	10400	250	-53.1	-57.9	268	28	
2025-10-21T00:00	10450	248	-53.5	-58.0	268	28	
2025-10-21T00:00	10500	246	-53.8	-58.5	268	29	
2025-10-21T00:00	10550	244	-54.1	-58.6	268	29	
2025-10-21T00:00	10600	242	-54.6	-58.8	268	29	
2025-10-21T00:00	10650	240	-55.0	-59.0	268	29	
2025-10-21T00:00	10700	238	-55.3	-59.4	267	29	
2025-10-21T00:00	10750	236	-55.6	-59.6	266	28	
2025-10-21T00:00	10800	234	-55.9	-59.9	266	28	
2025-10-21T00:00	10850	233	-56.0	-60.6	266	28	
2025-10-21T00:00	10900	231	-56.2	-61.2	267	27	
2025-10-21T00:00	10950	229	-56.0	-62.2	267	27	
2025-10-21T00:00	11000	227	-56.1	-62.7	265	26	
2025-10-21T00:00	11050	225	-56.2	-63.5	264	26	
2025-10-21T00:00	11100	224	-56.1	-65.3	267	27	
2025-10-21T00:00	11150	222	-55.8	-68.6	269	27	
2025-10-21T00:00	11200	220	-55.5	-68.9	272	27	
2025-10-21T00:00	11250	218	-55.2	-69.8	272	27	
2025-10-21T00:00	11300	217	-54.9	-71.7	269	27	
2025-10-21T00:00	11350	215	-54.6	-72.4	265	27	
2025-10-21T00:00	11400	213	-54.8	-72.2	263	28	
2025-10-21T00:00	11450	212	-54.9	-72.4	263	27	
2025-10-21T00:00	11500	210	-54.7	-72.9	265	27	
2025-10-21T00:00	11550	208	-54.8	-73.3	267	26	
2025-10-21T00:00	11600	207	-54.7	-73.6	268	26	
2025-10-21T00:00	11650	205	-55.0	-73.6	268	25	
2025-10-21T00:00	11700	204	-54.9	-73.9	269	26	
2025-10-21T00:00	11750	202	-54.8	-74.4	270	26	
2025-10-21T00:00	11800	200	-54.7	-74.9	271	27	
2025-10-21T00:00	11850	199	-54.9	-75.1	272	27	
2025-10-21T00:00	11900	197	-55.0	-75.3	272	27	
2025-10-21T00:00	11950	196	-55.1	-75.5	273	27	
2025-10-21T00:00	12000	194	-55.3	-75.6	273	27	
2025-10-21T00:00	12050	193	-55.6	-75.7	273	27	
2025-10-21T00:00	12100	191	-55.9	-75.8	272	27	
2025-10-21T00:00	12150	190	-55.8	-76.1	272	28	
2025-10-21T00:00	12200	188	-55.8	-76.5	272	28	
2025-10-21T00:00	12250	187	-55.9	-76.8	273	28	
2025-10-21T00:00	12300	185	-55.8	-77.0	274	27	
2025-10-21T00:00	12350	184	-55.9	-76.9	273	26	
2025-10-21T00:00	12400	182	-56.0	-77.1	273	26	
2025-10-21T00:00	12450	181	-56.1	-77.1	272	26	
2025-10-21T00:00	12500	180	-56.1	-77.3	271	27	
2025-10-21T00:00	12550	178	-56.1	-77.6	270	28	
2025-10-21T00:00	12600	177	-55.9	-78.1	270	28	
2025-10-21T00:00	12650	175	-55.5	-78.4	271	29	
2025-10-21T00:00	12700	174	-55.5	-78.7	273	30	
2025-10-21T00:00	12750	173	-55.6	-78.7	273	30	
2025-10-21T00:00	12800	171	-55.9	-78.8	274	30	
2025-10-21T00:00	12850	170	-56.3	-78.8	276	30	
2025-10-21T00:00	12900	169	-56.6	-79.0	279	30	
2025-10-21T00:00	12950	167	-56.7	-79.1	282	30	
2025-10-21T00:00	13000	166	-56.9	-79.5	285	30	
2025-10-21T00:00	13050	165	-56.8	-79.7	287	29	
2025-10-21T00:00	13100	163	-56.9	-80.0	289	29	
2025-10-21T00:00	13150	162	-57.0	-80.3	289	28	
2025-10-21T00:00	13200	161	-57.2	-80.6	288	27	
2025-10-21T00:00	13250	160	-57.1	-81.0	287	26	
2025-10-21T00:00	13300	158	-57.3	-81.2	286	26	
2025-10-21T00:00	13350	157	-57.6	-81.2	285	25	
2025-10-21T00:00	13400	156	-57.6	-81.3	284	25	
2025-10-21T00:00	13450	154	-57.7	-81.5	284	26	
2025-10-21T00:00	13500	153	-57.9	-81.6	283	26	
2025-10-21T00:00	13550	152	-57.8	-81.8	282	25	
2025-10-21T00:00	13600	151	-58.0	-81.8	282	25	
2025-10-21T00:00	13650	150	-58.2	-81.8	282	25	
2025-10-21T00:00	13700	149	-58.3	-81.9	283	25	
2025-10-21T00:00	13750	147	-58.5	-82.0	283	26	
2025-10-21T00:00	13800	146	-58.7	-82.0	283	26	
2025-10-21T00:00	13850	145	-59.0	-82.2	283	27	
2025-10-21T00:00	13900	144	-59.0	-82.4	285	27	
2025-10-21T00:00	13950	143	-58.9	-82.4	286	27	
2025-10-21T00:00	14000	142	-59.0	-82.4	285	26	
2025-10-21T00:00	14050	140	-59.4	-82.6	285	27	
2025-10-21T00:00	14100	139	-59.5	-82.8	285	27	
2025-10-21T00:00	14150	138	-59.6	-82.9	284	28	
2025-10-21T00:00	14200	137	-59.7	-83.0	283	28	
2025-10-21T00:00	14250	136	-59.8	-83.1	282	27	
2025-10-21T00:00	14300	135	-59.7	-83.2	282	27	
2025-10-21T00:00	14350	134	-59.6	-83.3	284	26	
2025-10-21T00:00	14400	133	-59.6	-83.4	285	25	
2025-10-21T00:00	14450	132	-59.5	-83.5	285	23	
2025-10-21T00:00	14500	131	-59.5	-83.5	283	22	
2025-10-21T00:00	14550	130	-59.3	-83.5	281	22	
2025-10-21T00:00	14600	129	-59.2	-83.7	280	24	
2025-10-21T00:00	14650	128	-59.2	-83.7	279	25	
2025-10-21T00:00	14700	127	-59.0	-83.7	280	25	
2025-10-21T00:00	14750	126	-58.8	-83.7	280	24	
2025-10-21T00:00	14800	125	-59.0	-83.8	279	23	
2025-10-21T00:00	14850	124	-58.9	-83.8	278	23	
2025-10-21T00:00	14900	123	-58.5	-83.7	277	23	
2025-10-21T00:00	14950	122	-58.5	-83.9	277	24	
2025-10-21T00:00	15000	121	-58.4	-83.9	278	24	
2025-10-21T00:00	15050	120	-58.4	-83.9	279	25	
2025-10-21T00:00	15100	119	-58.6	-84.0	281	24	
2025-10-21T00:00	15150	118	-58.2	-84.2	283	23	
2025-10-21T00:00	15200	117	-57.4	-84.0	283	22	
2025-10-21T00:00	15250	116	-57.5	-84.1	283	21	
2025-10-21T00:00	15300	115	-57.9	-84.1	281	21	
2025-10-21T00:00	15350	114	-58.1	-84.2	282	19	
2025-10-21T00:00	15400	113	-57.8	-84.4	285	18	
2025-10-21T00:00	15450	112	-56.9	-84.2	289	17	
2025-10-21T00:00	15500	111	-56.8	-84.2	291	16	
2025-10-21T00:00	15550	111	-57.2	-84.2	292	15	
2025-10-21T00:00	15600	110	-57.6	-84.2	295	14	
2025-10-21T00:00	15650	109	-58.0	-84.2	296	13	
2025-10-21T00:00	15700	108	-58.5	-84.3	296	13	
2025-10-21T00:00	15750	107	-58.9	-84.5	293	12	
2025-10-21T00:00	15800	106	-58.8	-84.5	291	12	
2025-10-21T00:00	15850	105	-58.9	-84.6	290	12	
2025-10-21T00:00	15900	105	-59.0	-84.7	291	12	
2025-10-21T00:00	15950	104	-59.1	-84.7	287	11	
2025-10-21T00:00	16000	103	-59.1	-84.7	282	10	
2025-10-21T00:00	16050	102	-59.4	-84.7	278	9	
2025-10-21T00:00	16100	101	-59.8	-84.7	277	8	
2025-10-21T00:00	16150	101	-60.2	-84.7	275	8	
2025-10-21T00:00	16200	100	-60.6	-84.9	274	8	
2025-10-21T00:00	16250	99	-61.0	-85.0	273	8	
2025-10-21T00:00	16300	98	-61.5	-85.1	270	9	
2025-10-21T00:00	16350	97	-61.9	-85.1	267	10	
2025-10-21T00:00	16400	97	-62.4	-85.3	267	11	
2025-10-21T00:00	16450	96	-62.7	-85.6	270	12	
2025-10-21T00:00	16500	95	-62.3	-85.4	275	13	
2025-10-21T00:00	16550	94	-62.4	-85.6	280	14	
2025-10-21T00:00	16600	93	-62.8	-85.8	283	15	
2025-10-21T00:00	16650	93	-62.4	-85.8	281	16	
2025-10-21T00:00	16700	92	-62.0	-85.9	275	17	
2025-10-21T00:00	16750	91	-62.1	-85.9	269	17	
2025-10-21T00:00	16800	90	-62.4	-86.0	267	19	
2025-10-21T00:00	16850	90	-62.4	-86.1	268	20	
2025-10-21T00:00	16900	89	-61.9	-86.0	271	20	
2025-10-21T00:00	16950	88	-62.1	-86.0	274	21	
2025-10-21T00:00	17000	88	-62.2	-86.1	277	22	
2025-10-21T00:00	17050	87	-62.0	-86.2	280	23	
2025-10-21T00:00	17100	86	-61.6	-86.2	282	24	
2025-10-21T00:00	17150	85	-61.3	-86.3	285	24	
2025-10-21T00:00	17200	85	-60.6	-86.2	288	23	
2025-10-21T00:00	17250	84	-60.4	-86.4	288	22	
2025-10-21T00:00	17300	83	-60.0	-86.3	287	21	
2025-10-21T00:00	17350	83	-59.7	-86.1	286	20	
2025-10-21T00:00	17400	82	-59.7	-86.1	288	19	
2025-10-21T00:00	17450	81	-59.8	-86.1	289	19	
2025-10-21T00:00	17500	81	-60.1	-86.1	288	19	
2025-10-21T00:00	17550	80	-59.9	-86.2	288	19	
2025-10-21T00:00	17600	80	-59.5	-86.3	289	19	
2025-10-21T00:00	17650	79	-59.2	-86.3	291	18	
2025-10-21T00:00	17700	78	-58.7	-86.1	296	17	
2025-10-21T00:00	17750	78	-58.6	-86.0	302	16	
2025-10-21T00:00	17800	77	-58.9	-86.0	307	15	
2025-10-21T00:00	17850	76	-59.0	-86.1	312	14	
2025-10-21T00:00	17900	76	-58.7	-85.9	314	12	
2025-10-21T00:00	17950	75	-59.0	-86.1	316	11	
2025-10-21T00:00	18000	75	-59.2	-86.1	317	10	
2025-10-21T00:00	18050	74	-59.4	-86.2	319	9	
2025-10-21T00:00	18100	73	-59.4	-86.1	318	8	
2025-10-21T00:00	18150	73	-59.6	-86.2	314	9	
2025-10-21T00:00	18200	72	-59.9	-86.3	309	9	
2025-10-21T00:00	18250	72	-60.1	-86.3	305	10	
2025-10-21T00:00	18300	71	-60.5	-86.4	299	10	
2025-10-21T00:00	18350	71	-60.6	-86.5	294	10	
2025-10-21T00:00	18400	70	-60.6	-86.5	290	10	
2025-10-21T00:00	18450	69	-60.7	-86.5	286	10	
2025-10-21T00:00	18500	69	-61.0	-86.5	281	9	
2025-10-21T00:00	18550	68	-61.3	-86.6	277	9	
2025-10-21T00:00	18600	68	-61.6	-86.6	271	9	
2025-10-21T00:00	18650	67	-62.0	-86.7	266	9	
2025-10-21T00:00	18700	67	-62.4	-86.8	262	10	
2025-10-21T00:00	18750	66	-62.8	-87.0	261	10	
2025-10-21T00:00	18800	66	-63.1	-87.1	262	11	
2025-10-21T00:00	18850	65	-63.6	-87.3	265	12	
2025-10-21T00:00	18900	65	-63.8	-87.5	271	13	
2025-10-21T00:00	18950	64	-63.6	-87.4	276	14	
2025-10-21T00:00	19000	64	-63.9	-87.8	278	15	
2025-10-21T00:00	19050	63	-63.6	-88.0	278	16	
2025-10-21T00:00	19100	62	-62.4	-87.9	276	17	
2025-10-21T00:00	19150	62	-61.4	-87.7	274	17	
2025-10-21T00:00	19200	61	-61.2	-87.5	279	17	
2025-10-21T00:00	19250	61	-60.7	-87.3	286	15	
2025-10-21T00:00	19300	61	-60.3	-87.2	295	13	
2025-10-21T00:00	19350	60	-60.1	-87.0	299	12	
2025-10-21T00:00	19400	60	-60.2	-86.9	295	12	
2025-10-21T00:00	19450	59	-60.5	-87.0	289	12	
2025-10-21T00:00	19500	59	-60.4	-87.0	285	12	
2025-10-21T00:00	19550	58	-60.1	-87.0	281	12	
2025-10-21T00:00	19600	58	-60.2	-87.0	277	12	
2025-10-21T00:00	19650	57	-60.3	-87.1	274	10	
2025-10-21T00:00	19700	57	-60.2	-87.0	269	9	
2025-10-21T00:00	19750	56	-60.3	-87.0	262	7	
2025-10-21T00:00	19800	56	-60.5	-87.0	252	6	
2025-10-21T00:00	19850	55	-60.9	-87.1	244	6	
2025-10-21T00:00	19900	55	-60.9	-87.1	241	7	
2025-10-21T00:00	19950	55	-61.2	-87.2	243	7	
2025-10-21T00:00	20000	54	-61.3	-87.3	245	7	
2025-10-21T00:00	20050	54	-61.5		246	7	
2025-10-21T00:00	20100	53	-61.7		251	7	
2025-10-21T00:00	20150	53	-61.9		259	9	
2025-10-21T00:00	20200	52	-61.9		263	10	
2025-10-21T00:00	20250	52	-61.8		267	12	
2025-10-21T00:00	20300	52	-61.9		270	13	
2025-10-21T00:00	20350	51	-61.8		275	12	
2025-10-21T00:00	20400	51	-61.7		281	12	
2025-10-21T00:00	20450	50	-61.9		286	11	
2025-10-21T00:00	20500	50	-61.9		291	9	
2025-10-21T00:00	20550	49	-62.0		297	8	
2025-10-21T00:00	20600	49	-62.2		304	7	
2025-10-21T00:00	20650	49	-62.4		301	6	
2025-10-21T00:00	20700	48	-62.2		287	6	
2025-10-21T00:00	20750	48	-62.0		277	7	
2025-10-21T00:00	20800	48	-61.9		271	8	
2025-10-21T00:00	20850	47	-62.2		265	10	
2025-10-21T00:00	20900	47	-62.2		260	11	
2025-10-21T00:00	20950	46	-62.2		257	12	
2025-10-21T00:00	21000	46	-62.3		257	13	
2025-10-21T00:00	21050	46	-62.6		260	14	
2025-10-21T00:00	21100	45	-62.7		263	14	
2025-10-21T00:00	21150	45	-63.1		268	14	
2025-10-21T00:00	21200	45	-63.4		272	15	
2025-10-21T00:00	21250	44	-63.6		276	16	
2025-10-21T00:00	21300	44	-63.7		281	16	
2025-10-21T00:00	21350	43	-64.0		285	16	
2025-10-21T00:00	21400	43	-64.2		288	15	
2025-10-21T00:00	21450	43	-64.0		290	15	
2025-10-21T00:00	21500	42	-63.7		290	14	
2025-10-21T00:00	21550	42	-63.7		290	13	
2025-10-21T00:00	21600	42	-63.7		289	13	
2025-10-21T00:00	21650	41	-63.6		287	12	
2025-10-21T00:00	21700	41	-64.0		282	12	
2025-10-21T00:00	21750	41	-64.2		277	13	
2025-10-21T00:00	21800	40	-63.9		274	13	
2025-10-21T00:00	21850	40	-63.0		273	13	
2025-10-21T00:00	21900	40	-62.7		277	13	
2025-10-21T00:00	21950	39	-62.8		284	13	
2025-10-21T00:00	22000	39	-63.1		286	13	
2025-10-21T00:00	22050	39	-62.8		281	13	
2025-10-21T00:00	22100	38	-62.7		276	14	
2025-10-21T00:00	22150	38	-62.8		276	14	
2025-10-21T00:00	22200	38	-62.4		279	13	
2025-10-21T00:00	22250	38	-62.5		284	13	
2025-10-21T00:00	22300	37	-62.8		290	13	
2025-10-21T00:00	22350	37	-63.0		294	13	
2025-10-21T00:00	22400	37	-63.2		295	13	
2025-10-21T00:00	22450	36	-63.5		295	13	
2025-10-21T00:00	22500	36	-63.8		293	13	
2025-10-21T00:00	22550	36	-63.9		290	13	
2025-10-21T00:00	22600	35	-64.0		287	14	
2025-10-21T00:00	22650	35	-64.1		284	15	
2025-10-21T00:00	22700	35	-64.3		283	15	
2025-10-21T00:00	22750	35	-64.1		285	16	
2025-10-21T00:00	22800	34	-63.7		289	16	
2025-10-21T00:00	22850	34	-63.7		292	15	
2025-10-21T00:00	22900	34	-63.2		293	15	
2025-10-21T00:00	22950	33	-63.2		292	14	
2025-10-21T00:00	23000	33	-63.0		290	13	
2025-10-21T00:00	23050	33	-62.6		286	14	
2025-10-21T00:00	23100	33	-61.9		286	15	
2025-10-21T00:00	23150	32	-61.4		288	15	
2025-10-21T00:00	23200	32	-61.3		291	15	
2025-10-21T00:00	23250	32	-61.5		295	15	
2025-10-21T00:00	23300	32	-61.4		300	14	
2025-10-21T00:00	23350	31	-61.3		301	12	
2025-10-21T00:00	23400	31	-61.3		296	11	
2025-10-21T00:00	23450	31	-61.3		286	11	
2025-10-21T00:00	23500	31	-61.1		279	12	
2025-10-21T00:00	23550	30	-61.2		275	13	
2025-10-21T00:00	23600	30	-61.5		274	14	
2025-10-21T00:00	23650	30	-61.2		274	16	
2025-10-21T00:00	23700	30	-60.7		274	17	
2025-10-21T00:00	23750	29	-60.6		275	18	
2025-10-21T00:00	23800	29	-60.6		277	18	
2025-10-21T00:00	23850	29	-60.5		279	18	
2025-10-21T00:00	23900	29	-60.6		281	19	
2025-10-21T00:00	23950	28	-60.5		284	19	
2025-10-21T00:00	24000	28	-60.2		287	19	
2025-10-21T00:00	24050	28	-59.9		290	19	
2025-10-21T00:00	24100	28	-59.7		293	18	
2025-10-21T00:00	24150	28	-59.9		293	17	
2025-10-21T00:00	24200	27	-59.8		288	16	
2025-10-21T00:00	24250	27	-59.3		279	16	
2025-10-21T00:00	24300	27	-58.2		272	16	
2025-10-21T00:00	24350	27	-57.6		269	16	
2025-10-21T00:00	24400	27	-57.3		266	17	
2025-10-21T00:00	24450	26	-57.3		265	17	
2025-10-21T00:00	24500	26	-57.0		268	18	
2025-10-21T00:00	24550	26	-56.7		274	18	
2025-10-21T00:00	24600	26	-56.8		280	18	
2025-10-21T00:00	24650	25	-56.9		285	18	
2025-10-21T00:00	24700	25	-57.2		290	18	
2025-10-21T00:00	24750	25	-57.5		293	18	
2025-10-21T00:00	24800	25	-57.7		296	19	
2025-10-21T00:00	24850	25	-58.0		299	19	
2025-10-21T00:00	24900	24	-57.9		301	18	
2025-10-21T00:00	24950	24	-57.7		299	16	
2025-10-21T00:00	25000	24	-57.4		295	15	
2025-10-21T00:00	25050	24	-57.6		288	14	
2025-10-21T00:00	25100	24	-57.8		282	13	
2025-10-21T00:00	25150	24	-57.8		275	12	
2025-10-21T00:00	25200	23	-57.9		269	12	
2025-10-21T00:00	25250	23	-58.1		265	13	
2025-10-21T00:00	25300	23	-58.2		266	14	
2025-10-21T00:00	25350	23	-57.8		269	14	
2025-10-21T00:00	25400	23	-57.7		271	15	
2025-10-21T00:00	25450	22	-57.7		272	16	
2025-10-21T00:00	25500	22	-57.4		273	17	
2025-10-21T00:00	25550	22	-56.9		277	19	
2025-10-21T00:00	25600	22	-55.8		282	20	
2025-10-21T00:00	25650	22	-55.1		287	21	
2025-10-21T00:00	25700	22	-55.2		291	20	
2025-10-21T00:00	25750	21	-55.5		293	19	
2025-10-21T00:00	25800	21	-55.2		292	18	
2025-10-21T00:00	25850	21	-54.9		289	17	
2025-10-21T00:00	25900	21	-54.6		286	17	
2025-10-21T00:00	25950	21	-54.3		288	17	
2025-10-21T00:00	26000	21	-54.2		293	17	
2025-10-21T00:00	26050	20	-54.3		298	16	
2025-10-21T00:00	26100	20	-54.4		301	16	
2025-10-21T00:00	26150	20	-54.3		302	15	
2025-10-21T00:00	26200	20	-54.5		301	14	
2025-10-21T00:00	26250	20	-54.7		298	13	
2025-10-21T00:00	26300	20	-54.7		293	12	
2025-10-21T00:00	26350	20	-54.8		287	11	
2025-10-21T00:00	26400	19	-54.9		279	11	
2025-10-21T00:00	26450	19	-55.0		272	12	
2025-10-21T00:00	26500	19	-55.2		269	13	
2025-10-21T00:00	26550	19	-54.5		269	15	
2025-10-21T00:00	26600	19	-54.3		270	17	
2025-10-21T00:00	26650	19	-54.2		272	18	
2025-10-21T00:00	26700	18	-53.8		274	19	
2025-10-21T00:00	26750	18	-53.7		278	20	
2025-10-21T00:00	26800	18	-53.6		283	21	
2025-10-21T00:00	26850	18	-53.6		286	21	
2025-10-21T00:00	26900	18	-53.7		289	20	
2025-10-21T00:00	26950	18	-53.9		291	20	
2025-10-21T00:00	27000	18	-53.7		290	20	
2025-10-21T00:00	27050	17	-53.7		286	20	
2025-10-21T00:00	27100	17	-53.6		281	20	
2025-10-21T00:00	27150	17	-53.4		278	21	
2025-10-21T00:00	27200	17	-53.0		280	22	
2025-10-21T00:00	27250	17	-53.1		283	22	
2025-10-21T00:00	27300	17	-53.3		285	23	
2025-10-21T00:00	27350	17	-53.4		285	24	
2025-10-21T00:00	27400	17	-53.1		283	24	
2025-10-21T00:00	27450	16	-53.0		283	24	
2025-10-21T00:00	27500	16	-53.0		283	24	
2025-10-21T00:00	27550	16	-52.8		282	24	
2025-10-21T00:00	27600	16	-52.7		279	24	
2025-10-21T00:00	27650	16	-52.4		277	25	
2025-10-21T00:00	27700	16	-52.0		275	25	
2025-10-21T00:00	27750	16	-51.9		274	25	
2025-10-21T00:00	27800	16	-51.6		273	24	
2025-10-21T00:00	27850	15	-51.3		272	24	
2025-10-21T00:00	27900	15	-51.3		272	23	
2025-10-21T00:00	27950	15	-51.2		272	23	
2025-10-21T00:00	28000	15	-51.2		274	24	
2025-10-21T00:00	28050	15	-51.3		276	24	
2025-10-21T00:00	28100	15	-51.3		277	25	
2025-10-21T00:00	28150	15	-51.5		278	26	
2025-10-21T00:00	28200	15	-51.6		278	27	
2025-10-21T00:00	28250	15	-51.9		277	27	
2025-10-21T00:00	28300	14	-52.1		275	28	
2025-10-21T00:00	28350	14	-51.9		273	28	
2025-10-21T00:00	28400	14	-51.7		270	28	
2025-10-21T00:00	28450	14	-51.9		268	29	
2025-10-21T00:00	28500	14	-52.1		266	30	
2025-10-21T00:00	28550	14	-52.2		265	31	
2025-10-21T00:00	28600	14	-51.9		266	32	
2025-10-21T00:00	28650	14	-51.8		268	33	
2025-10-21T00:00	28700	14	-51.8		270	34	
2025-10-21T00:00	28750	13	-51.7		270	35	
2025-10-21T00:00	28800	13	-51.4		270	35	
2025-10-21T00:00	28850	13	-51.2		268	35	
2025-10-21T00:00	28900	13	-51.0		267	35	
2025-10-21T00:00	28950	13	-50.3		268	36	
2025-10-21T00:00	29000	13	-49.6		269	36	
2025-10-21T00:00	29050	13	-49.2		270	35	
2025-10-21T00:00	29100	13	-49.0		272	33	
2025-10-21T00:00	29150	13	-48.8		273	32	
2025-10-21T00:00	29200	13	-49.0		275	31	
2025-10-21T00:00	29250	12	-49.3		276	31	
2025-10-21T00:00	29300	12	-49.1		276	31	
2025-10-21T00:00	29350	12	-49.0		275	31	
2025-10-21T00:00	29400	12	-48.8		274	31	
2025-10-21T00:00	29450	12	-48.7		272	32	
2025-10-21T00:00	29500	12	-49.0		271	32	
2025-10-21T00:00	29550	12	-49.4		270	34	
2025-10-21T00:00	29600	12	-49.3		269	35	
2025-10-21T00:00	29650	12	-49.3		268	36	
2025-10-21T00:00	29700	12	-49.6		269	37	
2025-10-21T00:00	29750	12	-49.9		270	37	
2025-10-21T00:00	29800	11	-49.8		273	36	
2025-10-21T00:00	29850	11	-49.4		275	36	
2025-10-21T00:00	29900	11	-49.4		276	35	
2025-10-21T00:00	29950	11	-49.5		277	35	
2025-10-21T00:00	30000	11	-49.4		278	35	
2025-10-21T00:00	30050	11	-49.2		279	35	
2025-10-21T00:00	30100	11	-48.5		280	34	
2025-10-21T00:00	30150	11	-48.4		281	34	
2025-10-21T00:00	30200	11	-48.3		281	34	
2025-10-21T00:00	30250	11	-48.1		280	34	
2025-10-21T00:00	30300	11	-48.5		278	35	
2025-10-21T00:00	30350	11	-48.8		276	35	
2025-10-21T00:00	30400	10	-48.8		274	36	
2025-10-21T00:00	30450	10	-48.8		272	36	
2025-10-21T00:00	30500	10	-48.9		271	37	
2025-10-21T00:00	30550	10	-49.3		270	37	
2025-10-21T00:00	30600	10	-49.6		271	37	
2025-10-21T00:00	30650	10	-50.0		272	37	
2025-10-21T00:00	30700	10	-50.1		274	38	
2025-10-21T00:00	30750	10	-49.9		276	38	
2025-10-21T00:00	30800	10	-49.8		277	38	
2025-10-21T00:00	30850	10	-49.8		279	38	
2025-10-21T00:00	30900	10	-49.5		281	37	
2025-10-21T00:00	30950	10	-49.6		282	36	
2025-10-21T00:00	31000	10	-49.8		282	35	
2025-10-21T00:00	31050	9	-49.8		281	35	
2025-10-21T00:00	31100	9	-49.7		280	34	
2025-10-21T00:00	31150	9	-49.5		277	34	
2025-10-21T00:00	31200	9	-49.3		274	35	
2025-10-21T00:00	31250	9	-49.0		271	36	
2025-10-21T00:00	31300	9	-49.0		269	37	
2025-10-21T00:00	31350	9	-48.7		268	37	
2025-10-21T00:00	31400	9	-48.4		267	36	
2025-10-21T00:00	31450	9	-48.0		266	35	
2025-10-21T00:00	31500	9	-48.0		266	34	
2025-10-21T00:00	31550	9	-48.0		265	33	
2025-10-21T00:00	31600	9	-48.3		265	33	
2025-10-21T00:00	31650	9	-48.7		265	32	
2025-10-21T00:00	31700	9	-49.0		266	32	
2025-10-21T00:00	31750	9	-49.0		267	32	
2025-10-21T00:00	31800	8	-49.2		267	32	
2025-10-21T00:00	31850	8	-49.5		267	32	
2025-10-21T00:00	31900	8	-49.5		267	33	
2025-10-21T00:00	31950	8	-49.4		267	33	
2025-10-21T00:00	32000	8	-49.5		266	34	
2025-10-21T00:00	32050	8	-49.6		265	35	
2025-10-21T00:00	32100	8	-49.9		264	36	
2025-10-21T00:00	32150	8	-50.3		265	36	
2025-10-21T00:00	32200	8	-50.6		267	37	
2025-10-21T00:00	32250	8	-50.5		269	37	
2025-10-21T00:00	32300	8	-49.7		270	38	
2025-10-21T00:00	32350	8	-49.6		270	39	
2025-10-21T00:00	32400	8	-49.5		271	40	
2025-10-21T00:00	32450	8	-49.6		272	41	
2025-10-21T00:00	32500	8	-49.4		273	41	
2025-10-21T00:00	32550	8	-49.2		273	41	
2025-10-21T00:00	32600	7	-49.4		272	40	
2025-10-21T00:00	32650	7	-49.6		271	39	
2025-10-21T00:00	32700	7	-49.5		270	39	
2025-10-21T00:00	32750	7	-49.3		268	38	
2025-10-21T00:00	32800	7	-49.6		267	37	
2025-10-21T00:00	32850	7	-49.6		265	37	
2025-10-21T00:00	32900	7	-49.3		264	37	
2025-10-21T00:00	32950	7	-49.1		263	36	
2025-10-21T00:00	33000	7	-49.1		263	37	
2025-10-21T00:00	33050	7	-48.5		263	38	
2025-10-21T00:00	33100	7	-47.7		263	39	
2025-10-21T00:00	33150	7	-47.5		264	39	
2025-10-21T00:00	33200	7	-47.3		264	39	
2025-10-21T00:00	33250	7	-47.1		264	39	
2025-10-21T00:00	33300	7	-47.0		264	39	
2025-10-21T00:00	33350	7	-47.1		265	39	
2025-10-21T00:00	33400	7	-47.2		264	38	
2025-10-21T00:00	33450	7	-46.4		264	39	
2025-10-21T00:00	33500	7	-45.6		265	40	
2025-10-21T00:00	33550	6	-44.5		265	39	
2025-10-21T00:00	33600	6	-43.9		261	39	
2025-10-21T00:00	33650	6	-43.8		258	39	
2025-10-21T00:00	33700	6	-43.9		256	39	
2025-10-21T00:00	33750	6	-42.9		256	39	
2025-10-21T00:00	33800	6	-42.1		258	39	
2025-10-21T00:00	33850	6	-41.9		261	38	
2025-10-21T00:00	33900	6	-42.1		263	37	
2025-10-21T00:00	33950	6	-42.4		265	36	
2025-10-21T00:00	34000	6	-42.8		266	36	
2025-10-21T00:00	34050	6	-43.0		267	36	
2025-10-21T00:00	34100	6	-43.0		267	37	
2025-10-21T00:00	34150	6	-42.8		267	38	
2025-10-21T00:00	34200	6	-43.1		267	39	
2025-10-21T00:00	34250	6	-43.5		268	40	
2025-10-21T00:00	34300	6	-43.8		270	40	
2025-10-21T00:00	34350	6	-43.9		272	40	
2025-10-21T00:00	34400	6	-44.1		273	41	
2025-10-21T00:00	34450	6	-44.2		274	41	
2025-10-21T00:00	34500	6	-44.3		274	42	
2025-10-21T00:00	34550	6	-44.6		275	43	
2025-10-21T00:00	34600	6	-44.9		276	44	
2025-10-21T00:00	34650	5	-44.9		276	44	
2025-10-21T00:00	34700	5	-45.0		275	44	
2025-10-21T12:00	491	948	15.7	8.9	209	5	
2025-10-21T12:00	501	946	15.3	8.8	223	5	
2025-10-21T12:00	520	944	15.2	8.4	225	6	
2025-10-21T12:00	540	943	15.0	8.4	224	8	
2025-10-21T12:00	560	940	14.8	8.1	223	9	
2025-10-21T12:00	580	938	14.7	8.1	222	10	
2025-10-21T12:00	600	936	14.5	8.0	221	10	
2025-10-21T12:00	620	933	14.3	7.8	221	10	
2025-10-21T12:00	640	931	14.1	7.9	221	11	
2025-10-21T12:00	660	929	13.8	8.0	222	11	
2025-10-21T12:00	680	927	13.6	7.8	222	11	
2025-10-21T12:00	700	924	13.5	7.7	222	11	
2025-10-21T12:00	720	922	13.2	7.7	222	11	
2025-10-21T12:00	740	920	13.1	7.7	221	11	
2025-10-21T12:00	760	918	12.9	7.7	221	11	
2025-10-21T12:00	780	916	12.7	7.6	220	12	
2025-10-21T12:00	800	913	12.5	7.4	220	12	
2025-10-21T12:00	820	911	12.5	7.3	221	12	
2025-10-21T12:00	840	909	12.3	7.2	222	13	
2025-10-21T12:00	860	907	12.2	7.0	222	13	
2025-10-21T12:00	880	905	12.0	7.0	223	13	
2025-10-21T12:00	900	903	11.8	7.1	223	14	
2025-10-21T12:00	920	901	11.6	6.7	223	14	
2025-10-21T12:00	940	899	11.5	6.7	222	14	
2025-10-21T12:00	960	896	11.4	6.4	222	14	
2025-10-21T12:00	980	894	11.2	6.4	222	14	
2025-10-21T12:00	1000	892	11.1	6.0	222	15	
2025-10-21T12:00	1020	890	11.2	5.3	223	15	
2025-10-21T12:00	1040	888	11.3	4.7	224	15	
2025-10-21T12:00	1060	886	11.2	4.8	224	16	
2025-10-21T12:00	1080	884	11.0	4.7	223	16	
2025-10-21T12:00	1100	882	11.0	4.3	223	16	
2025-10-21T12:00	1120	879	10.9	4.1	222	17	
2025-10-21T12:00	1140	877	10.8	4.0	221	17	
2025-10-21T12:00	1160	875	10.7	3.8	221	17	
2025-10-21T12:00	1180	873	10.5	3.8	220	17	
2025-10-21T12:00	1200	871	10.3	3.7	220	18	
2025-10-21T12:00	1220	869	10.1	3.7	220	18	
2025-10-21T12:00	1240	867	9.9	3.7	220	18	
2025-10-21T12:00	1260	865	9.7	3.6	220	18	
2025-10-21T12:00	1280	863	9.6	3.6	220	18	
2025-10-21T12:00	1300	861	9.4	3.6	220	18	
2025-10-21T12:00	1320	859	9.2	3.5	220	18	
2025-10-21T12:00	1340	857	9.0	3.5	221	18	
2025-10-21T12:00	1360	855	8.8	3.4	221	18	
2025-10-21T12:00	1380	852	8.7	3.4	221	18	
2025-10-21T12:00	1400	850	8.4	3.4	222	18	
2025-10-21T12:00	1420	848	8.2	3.5	222	18	
2025-10-21T12:00	1440	846	8.1	3.4	222	18	
2025-10-21T12:00	1460	844	7.8	3.4	222	18	
2025-10-21T12:00	1480	842	7.6	3.4	223	18	
2025-10-21T12:00	1500	840	7.5	3.3	223	18	
2025-10-21T12:00	1520	838	7.3	3.3	223	18	
2025-10-21T12:00	1540	836	7.1	3.3	224	18	
2025-10-21T12:00	1560	834	6.9	3.2	224	18	
2025-10-21T12:00	1580	832	6.8	3.2	225	18	
2025-10-21T12:00	1600	830	6.6	3.3	226	18	
2025-10-21T12:00	1620	828	6.4	3.2	226	18	
2025-10-21T12:00	1640	826	6.2	3.1	227	18	
2025-10-21T12:00	1660	824	6.1	3.0	228	18	
2025-10-21T12:00	1680	822	6.0	2.9	228	18	
2025-10-21T12:00	1700	820	5.8	2.8	229	18	
2025-10-21T12:00	1720	818	5.6	2.8	230	18	
2025-10-21T12:00	1740	816	5.4	2.7	231	18	
2025-10-21T12:00	1760	814	5.3	2.6	231	18	
2025-10-21T12:00	1780	812	5.1	2.5	232	18	
2025-10-21T12:00	1800	810	5.0	2.5	233	18	
2025-10-21T12:00	1820	808	4.8	2.5	234	18	
2025-10-21T12:00	1840	806	4.6	2.4	235	18	
2025-10-21T12:00	1860	804	4.4	2.2	236	18	
2025-10-21T12:00	1880	802	4.2	2.2	236	18	
2025-10-21T12:00	1900	800	4.1	2.2	237	17	
2025-10-21T12:00	1920	798	3.9	2.1	238	17	
2025-10-21T12:00	1940	796	3.7	2.1	239	17	
2025-10-21T12:00	1960	794	3.5	1.9	239	17	
2025-10-21T12:00	1980	792	3.4	1.9	239	17	
2025-10-21T12:00	2000	790	3.2	1.9	239	17	
2025-10-21T12:00	2020	788	3.0	1.9	238	17	
2025-10-21T12:00	2040	786	2.8	1.9	238	17	
2025-10-21T12:00	2060	784	2.6	1.8	238	17	
2025-10-21T12:00	2080	782	2.4	1.8	239	18	
2025-10-21T12:00	2100	781	2.3	1.8	240	18	
2025-10-21T12:00	2120	779	2.1	1.5	241	18	
2025-10-21T12:00	2140	776	2.0	1.2	243	18	
2025-10-21T12:00	2160	775	1.8	1.1	245	18	
2025-10-21T12:00	2180	773	1.6	0.9	247	19	
2025-10-21T12:00	2200	771	1.4	1.0	247	19	
2025-10-21T12:00	2220	769	1.2	1.0	247	19	
2025-10-21T12:00	2240	767	1.0	1.0	247	19	
2025-10-21T12:00	2260	765	0.8	0.8	245	19	
2025-10-21T12:00	2280	763	0.7	0.7	244	18	
2025-10-21T12:00	2300	761	0.5	0.4	243	18	
2025-10-21T12:00	2320	759	0.4	0.3	242	18	
2025-10-21T12:00	2340	758	0.2	0.2	241	18	
2025-10-21T12:00	2360	756	0.0	0.0	239	17	
2025-10-21T12:00	2380	754	-0.1	-0.1	239	17	
2025-10-21T12:00	2400	752	-0.3	-0.3	238	17	
2025-10-21T12:00	2420	750	-0.4	-0.4	238	17	
2025-10-21T12:00	2440	748	-0.5	-0.5	239	17	
2025-10-21T12:00	2460	746	-0.6	-0.6	239	17	
2025-10-21T12:00	2480	744	-0.8	-0.8	240	17	
2025-10-21T12:00	2500	743	-0.9	-0.9	241	17	
2025-10-21T12:00	2520	741	-1.1	-1.1	241	17	
2025-10-21T12:00	2540	739	-1.2	-1.2	241	17	
2025-10-21T12:00	2560	737	-1.4	-1.4	241	17	
2025-10-21T12:00	2580	735	-1.6	-1.6	241	17	
2025-10-21T12:00	2600	733	-1.8	-2.2	242	17	
2025-10-21T12:00	2620	732	-1.9	-2.8	242	17	
2025-10-21T12:00	2640	730	-2.0	-3.0	243	16	
2025-10-21T12:00	2660	728	-2.2	-3.4	244	16	
2025-10-21T12:00	2680	726	-2.2	-4.5	245	15	
2025-10-21T12:00	2700	724	-2.3	-5.3	246	15	
2025-10-21T12:00	2720	722	-2.4	-5.8	246	15	
2025-10-21T12:00	2740	721	-2.5	-6.0	247	15	
2025-10-21T12:00	2760	719	-2.6	-6.1	247	15	
2025-10-21T12:00	2780	717	-2.7	-6.8	247	15	
2025-10-21T12:00	2800	715	-2.6	-9.5	247	15	
2025-10-21T12:00	2820	713	-2.4	-13.0	246	15	
2025-10-21T12:00	2840	712	-2.3	-13.7	245	15	
2025-10-21T12:00	2860	710	-2.3	-10.8	244	15	
2025-10-21T12:00	2880	708	-2.3	-9.1	243	16	
2025-10-21T12:00	2900	706	-2.3	-9.2	242	16	
2025-10-21T12:00	2920	704	-2.4	-8.5	241	16	
2025-10-21T12:00	2940	703	-2.5	-8.0	240	16	
2025-10-21T12:00	2960	701	-2.6	-9.1	240	16	
2025-10-21T12:00	2980	699	-2.6	-9.7	241	16	
2025-10-21T12:00	3000	697	-2.8	-10.8	242	16	
2025-10-21T12:00	3020	696	-2.9	-11.4	243	16	
2025-10-21T12:00	3040	694	-3.1	-11.3	244	15	
2025-10-21T12:00	3060	692	-3.2	-11.1	246	15	
2025-10-21T12:00	3080	690	-3.4	-11.8	247	15	
2025-10-21T12:00	3100	689	-3.5	-13.0	248	16	
2025-10-21T12:00	3120	687	-3.7	-11.9	248	16	
2025-10-21T12:00	3140	685	-3.9	-11.1	248	16	
2025-10-21T12:00	3160	684	-4.1	-10.2	248	16	
2025-10-21T12:00	3180	682	-4.3	-10.3	248	16	
2025-10-21T12:00	3200	680	-4.5	-10.3	248	16	
2025-10-21T12:00	3220	678	-4.6	-10.4	247	16	
2025-10-21T12:00	3240	677	-4.7	-11.0	248	16	
2025-10-21T12:00	3260	675	-4.8	-11.7	249	16	
2025-10-21T12:00	3280	673	-4.8	-12.3	250	16	
2025-10-21T12:00	3300	671	-4.9	-13.1	251	16	
2025-10-21T12:00	3320	670	-5.0	-13.9	252	16	
2025-10-21T12:00	3340	668	-5.1	-13.7	253	16	
2025-10-21T12:00	3360	666	-5.2	-13.4	253	16	
2025-10-21T12:00	3380	665	-5.3	-13.2	253	17	
2025-10-21T12:00	3400	663	-5.3	-13.3	252	17	
2025-10-21T12:00	3420	661	-5.4	-13.8	252	18	
2025-10-21T12:00	3440	660	-5.5	-14.1	251	18	
2025-10-21T12:00	3460	658	-5.5	-15.0	250	19	
2025-10-21T12:00	3480	656	-5.4	-15.7	251	19	
2025-10-21T12:00	3500	654	-5.4	-16.7	251	19	
2025-10-21T12:00	3520	653	-5.6	-17.2	253	19	
2025-10-21T12:00	3540	651	-5.6	-18.6	254	19	
2025-10-21T12:00	3560	650	-5.7	-19.8	255	19	
2025-10-21T12:00	3580	648	-5.5	-18.6	256	19	
2025-10-21T12:00	3600	646	-5.4	-15.7	257	19	
2025-10-21T12:00	3620	644	-5.5	-16.0	258	19	
2025-10-21T12:00	3640	643	-5.7	-14.6	258	18	
2025-10-21T12:00	3660	641	-5.9	-13.1	258	18	
2025-10-21T12:00	3680	639	-6.1	-12.6	258	18	
2025-10-21T12:00	3700	638	-6.3	-12.3	258	18	
2025-10-21T12:00	3720	636	-6.5	-12.3	259	17	
2025-10-21T12:00	3740	635	-6.7	-12.5	260	17	
2025-10-21T12:00	3760	633	-6.9	-12.5	261	18	
2025-10-21T12:00	3780	631	-7.1	-12.6	262	18	
2025-10-21T12:00	3800	630	-7.2	-12.4	262	17	
2025-10-21T12:00	3820	628	-7.4	-12.1	263	17	
2025-10-21T12:00	3840	627	-7.6	-12.1	263	17	
2025-10-21T12:00	3860	625	-7.8	-11.8	263	17	
2025-10-21T12:00	3880	623	-8.0	-11.8	262	17	
2025-10-21T12:00	3900	622	-8.2	-11.7	262	17	
2025-10-21T12:00	3920	620	-8.3	-11.6	262	17	
2025-10-21T12:00	3940	619	-8.5	-11.6	261	17	
2025-10-21T12:00	3960	617	-8.7	-11.7	260	17	
2025-10-21T12:00	3980	615	-8.9	-11.7	259	18	
2025-10-21T12:00	4000	614	-9.1	-11.7	258	18	
2025-10-21T12:00	4020	612	-9.3	-11.7	258	17	
2025-10-21T12:00	4040	611	-9.4	-11.6	257	17	
2025-10-21T12:00	4060	609	-9.6	-11.6	257	17	
2025-10-21T12:00	4080	608	-9.8	-11.6	257	17	
2025-10-21T12:00	4100	606	-9.8	-11.0	258	16	
2025-10-21T12:00	4120	604	-9.9	-10.7	258	16	
2025-10-21T12:00	4140	603	-9.9	-10.5	258	16	
2025-10-21T12:00	4160	601	-9.7	-10.1	258	15	
2025-10-21T12:00	4180	600	-9.7	-10.2	258	15	
2025-10-21T12:00	4200	598	-9.9	-10.2	258	15	
2025-10-21T12:00	4220	597	-10.0	-10.2	258	15	
2025-10-21T12:00	4240	595	-10.2	-10.2	258	15	
2025-10-21T12:00	4260	594	-10.3	-10.3	259	15	
2025-10-21T12:00	4280	592	-10.3	-10.3	261	15	
2025-10-21T12:00	4300	590	-10.2	-10.7	262	15	
2025-10-21T12:00	4320	589	-10.1	-11.1	264	16	
2025-10-21T12:00	4340	587	-9.9	-11.4	266	17	
2025-10-21T12:00	4360	586	-9.7	-11.5	267	18	
2025-10-21T12:00	4380	584	-9.9	-11.5	268	18	
2025-10-21T12:00	4400	583	-10.0	-11.6	268	19	
2025-10-21T12:00	4420	581	-10.2	-11.6	267	20	
2025-10-21T12:00	4440	580	-10.3	-11.6	266	20	
2025-10-21T12:00	4460	578	-10.5	-11.6	266	20	
2025-10-21T12:00	4480	577	-10.5	-11.5	265	20	
2025-10-21T12:00	4500	575	-10.6	-11.5	265	20	
2025-10-21T12:00	4520	574	-10.8	-11.4	265	20	
2025-10-21T12:00	4540	572	-11.0	-11.4	266	20	
2025-10-21T12:00	4560	571	-11.1	-11.7	267	20	
2025-10-21T12:00	4580	569	-11.1	-11.8	268	19	
2025-10-21T12:00	4600	568	-11.1	-11.8	269	19	
2025-10-21T12:00	4620	567	-11.2	-11.9	270	19	
2025-10-21T12:00	4640	565	-11.4	-12.0	272	19	
2025-10-21T12:00	4660	563	-11.3	-12.5	272	19	
2025-10-21T12:00	4680	562	-11.1	-12.9	273	19	
2025-10-21T12:00	4700	561	-11.3	-13.0	273	20	
2025-10-21T12:00	4720	559	-11.5	-13.0	273	20	
2025-10-21T12:00	4740	558	-11.7	-13.1	272	20	
2025-10-21T12:00	4760	556	-11.9	-13.1	272	20	
2025-10-21T12:00	4780	555	-12.1	-13.2	271	20	
2025-10-21T12:00	4800	553	-12.3	-13.2	271	20	
2025-10-21T12:00	4820	552	-12.4	-13.2	270	20	
2025-10-21T12:00	4840	551	-12.6	-13.3	270	20	
2025-10-21T12:00	4860	549	-12.8	-13.3	268	20	
2025-10-21T12:00	4880	548	-13.0	-13.5	268	20	
2025-10-21T12:00	4900	546	-13.2	-13.7	267	20	
2025-10-21T12:00	4920	545	-13.3	-13.9	266	20	
2025-10-21T12:00	4940	543	-13.5	-13.9	266	20	
2025-10-21T12:00	4960	542	-13.7	-13.9	267	20	
2025-10-21T12:00	4980	540	-13.9	-13.9	268	20	
2025-10-21T12:00	5000	539	-14.1	-14.1	269	20	
2025-10-21T12:00	5020	537	-14.2	-14.2	270	20	
2025-10-21T12:00	5040	536	-14.4	-14.4	271	20	
2025-10-21T12:00	5060	535	-14.5	-14.5	272	19	
2025-10-21T12:00	5080	533	-14.5	-14.5	272	19	
2025-10-21T12:00	5100	532	-14.6	-14.6	273	18	
2025-10-21T12:00	5120	530	-14.7	-14.7	273	18	
2025-10-21T12:00	5140	529	-14.9	-14.9	273	18	
2025-10-21T12:00	5160	528	-15.0	-15.0	273	17	
2025-10-21T12:00	5180	526	-15.2	-15.2	274	17	
2025-10-21T12:00	5200	525	-15.3	-15.3	274	17	
2025-10-21T12:00	5220	523	-15.4	-15.4	275	17	
2025-10-21T12:00	5240	522	-15.5	-15.5	275	17	
2025-10-21T12:00	5260	521	-15.6	-15.6	275	18	
2025-10-21T12:00	5280	519	-15.7	-15.8	274	18	
2025-10-21T12:00	5300	518	-15.8	-16.1	274	19	
2025-10-21T12:00	5320	517	-15.9	-16.2	273	19	
2025-10-21T12:00	5340	515	-16.0	-16.4	273	20	
2025-10-21T12:00	5360	514	-16.1	-16.6	272	20	
2025-10-21T12:00	5380	512	-16.2	-16.7	272	20	
2025-10-21T12:00	5400	511	-16.3	-16.8	271	20	
2025-10-21T12:00	5420	510	-16.4	-16.9	271	20	
2025-10-21T12:00	5440	508	-16.5	-17.0	271	20	
2025-10-21T12:00	5460	507	-16.7	-17.0	271	20	
2025-10-21T12:00	5480	506	-16.8	-17.1	271	20	
2025-10-21T12:00	5500	504	-16.9	-17.2	272	20	
2025-10-21T12:00	5520	503	-17.0	-17.5	272	20	
2025-10-21T12:00	5540	502	-17.1	-17.6	273	21	
2025-10-21T12:00	5560	500	-17.3	-17.6	274	22	
2025-10-21T12:00	5580	499	-17.5	-17.7	274	22	
2025-10-21T12:00	5600	498	-17.6	-17.9	274	22	
2025-10-21T12:00	5620	496	-17.8	-18.1	274	22	
2025-10-21T12:00	5640	495	-17.9	-18.5	274	22	
2025-10-21T12:00	5660	494	-18.0	-19.1	274	22	
2025-10-21T12:00	5680	492	-18.2	-19.1	274	22	
2025-10-21T12:00	5700	491	-18.4	-19.2	273	22	
2025-10-21T12:00	5720	490	-18.5	-19.1	273	22	
2025-10-21T12:00	5740	488	-18.7	-19.2	272	22	
2025-10-21T12:00	5760	487	-18.9	-19.2	271	21	
2025-10-21T12:00	5780	486	-19.0	-19.2	269	21	
2025-10-21T12:00	5800	485	-19.2	-19.2	269	21	
2025-10-21T12:00	5820	483	-19.3	-19.3	268	21	
2025-10-21T12:00	5840	482	-19.5	-19.5	268	21	
2025-10-21T12:00	5860	481	-19.6	-19.7	268	21	
2025-10-21T12:00	5880	479	-19.8	-19.8	268	21	
2025-10-21T12:00	5900	478	-19.9	-19.9	267	21	
2025-10-21T12:00	5920	477	-20.0	-20.1	267	21	
2025-10-21T12:00	5940	476	-20.2	-20.2	267	21	
2025-10-21T12:00	5960	474	-20.4	-20.4	267	21	
2025-10-21T12:00	5980	473	-20.5	-20.5	268	21	
2025-10-21T12:00	6000	472	-20.7	-20.7	269	21	
2025-10-21T12:00	6020	470	-20.7	-20.8	271	21	
2025-10-21T12:00	6040	469	-20.8	-21.2	272	21	
2025-10-21T12:00	6060	468	-20.6	-21.7	273	21	
2025-10-21T12:00	6080	467	-20.7	-21.7	274	21	
2025-10-21T12:00	6100	465	-20.8	-21.9	274	21	
2025-10-21T12:00	6120	464	-21.0	-22.0	274	21	
2025-10-21T12:00	6140	463	-21.1	-22.5	274	21	
2025-10-21T12:00	6160	462	-21.1	-23.6	274	20	
2025-10-21T12:00	6180	460	-21.2	-23.5	274	20	
2025-10-21T12:00	6200	459	-21.3	-23.4	274	20	
2025-10-21T12:00	6220	458	-21.4	-23.4	274	20	
2025-10-21T12:00	6240	457	-21.4	-23.7	275	20	
2025-10-21T12:00	6260	455	-21.5	-24.2	275	20	
2025-10-21T12:00	6280	454	-21.6	-25.2	276	20	
2025-10-21T12:00	6300	453	-21.7	-25.3	277	20	
2025-10-21T12:00	6320	452	-21.8	-24.7	277	20	
2025-10-21T12:00	6340	450	-21.9	-25.1	278	20	
2025-10-21T12:00	6360	449	-22.0	-25.6	278	20	
2025-10-21T12:00	6380	448	-22.1	-26.1	278	20	
2025-10-21T12:00	6400	447	-22.3	-26.5	278	20	
2025-10-21T12:00	6420	446	-22.4	-26.6	277	20	
2025-10-21T12:00	6440	444	-22.6	-26.7	277	20	
2025-10-21T12:00	6460	443	-22.8	-26.8	277	20	
2025-10-21T12:00	6480	442	-22.9	-26.8	277	20	
2025-10-21T12:00	6500	441	-23.1	-27.2	278	20	
2025-10-21T12:00	6520	440	-23.2	-27.6	278	20	
2025-10-21T12:00	6540	438	-23.4	-28.0	279	20	
2025-10-21T12:00	6560	437	-23.5	-28.1	279	20	
2025-10-21T12:00	6580	436	-23.7	-28.0	280	20	
2025-10-21T12:00	6600	435	-23.9	-28.3	280	20	
2025-10-21T12:00	6620	434	-24.0	-28.7	279	19	
2025-10-21T12:00	6640	432	-24.2	-28.9	279	19	
2025-10-21T12:00	6660	431	-24.4	-29.2	278	19	
2025-10-21T12:00	6680	430	-24.5	-29.5	278	20	
2025-10-21T12:00	6700	429	-24.7	-29.4	277	20	
2025-10-21T12:00	6720	428	-24.9	-29.6	277	20	
2025-10-21T12:00	6740	427	-25.1	-29.8	276	20	
2025-10-21T12:00	6760	425	-25.2	-30.1	276	20	
2025-10-21T12:00	6780	424	-25.4	-30.0	276	20	
2025-10-21T12:00	6800	423	-25.6	-29.9	276	20	
2025-10-21T12:00	6820	422	-25.8	-29.9	277	19	
2025-10-21T12:00	6840	421	-26.0	-30.1	277	19	
2025-10-21T12:00	6860	419	-26.2	-30.5	278	19	
2025-10-21T12:00	6880	418	-26.3	-30.6	278	19	
2025-10-21T12:00	6900	417	-26.5	-30.7	278	19	
2025-10-21T12:00	6920	416	-26.7	-30.7	278	19	
2025-10-21T12:00	6940	415	-26.9	-30.7	278	20	
2025-10-21T12:00	6960	414	-27.0	-31.2	278	20	
2025-10-21T12:00	6980	413	-27.2	-31.7	278	20	
2025-10-21T12:00	7000	411	-27.4	-31.5	278	20	
2025-10-21T12:00	7020	410	-27.5	-31.3	278	20	
2025-10-21T12:00	7040	409	-27.7	-31.5	278	20	
2025-10-21T12:00	7060	408	-27.9	-31.7	278	20	
2025-10-21T12:00	7080	407	-28.0	-31.9	279	20	
2025-10-21T12:00	7100	406	-28.2	-32.2	279	20	
2025-10-21T12:00	7120	405	-28.3	-33.1	279	20	
2025-10-21T12:00	7140	404	-28.5	-33.0	278	20	
2025-10-21T12:00	7160	402	-28.5	-33.6	278	20	
2025-10-21T12:00	7180	401	-28.6	-35.0	278	20	
2025-10-21T12:00	7200	400	-28.7	-35.4	278	20	
2025-10-21T12:00	7220	399	-28.9	-35.4	278	20	
2025-10-21T12:00	7240	398	-29.1	-35.6	277	20	
2025-10-21T12:00	7260	397	-29.2	-36.1	277	20	
2025-10-21T12:00	7280	396	-29.4	-36.5	277	20	
2025-10-21T12:00	7300	395	-29.5	-36.7	277	20	
2025-10-21T12:00	7320	393	-29.7	-36.8	276	21	
2025-10-21T12:00	7340	392	-29.9	-36.7	276	21	
2025-10-21T12:00	7360	391	-30.1	-36.7	276	20	
2025-10-21T12:00	7380	390	-30.2	-36.9	276	20	
2025-10-21T12:00	7400	389	-30.4	-37.4	277	20	
2025-10-21T12:00	7420	388	-30.6	-37.4	277	20	
2025-10-21T12:00	7440	387	-30.8	-37.3	277	20	
2025-10-21T12:00	7460	386	-31.0	-37.2	277	20	
2025-10-21T12:00	7480	385	-31.2	-37.1	277	19	
2025-10-21T12:00	7500	384	-31.4	-37.1	277	19	
2025-10-21T12:00	7520	383	-31.6	-37.1	278	19	
2025-10-21T12:00	7540	381	-31.8	-37.1	278	19	
2025-10-21T12:00	7560	380	-31.9	-37.0	278	19	
2025-10-21T12:00	7580	379	-32.1	-36.8	279	19	
2025-10-21T12:00	7600	378	-32.2	-37.1	279	19	
2025-10-21T12:00	7620	377	-32.4	-38.0	280	19	
2025-10-21T12:00	7640	376	-32.6	-38.5	281	20	
2025-10-21T12:00	7660	375	-32.8	-38.6	281	20	
2025-10-21T12:00	7680	374	-32.9	-38.4	281	20	
2025-10-21T12:00	7700	373	-33.1	-38.3	281	20	
2025-10-21T12:00	7720	372	-33.2	-38.5	281	20	
2025-10-21T12:00	7740	371	-33.4	-38.9	281	20	
2025-10-21T12:00	7760	370	-33.5	-39.7	280	20	
2025-10-21T12:00	7780	369	-33.7	-39.6	280	19	
2025-10-21T12:00	7800	368	-33.9	-39.7	279	19	
2025-10-21T12:00	7820	366	-34.0	-40.1	279	19	
2025-10-21T12:00	7840	366	-34.2	-40.4	279	19	
2025-10-21T12:00	7860	364	-34.4	-40.9	279	18	
2025-10-21T12:00	7880	363	-34.6	-40.7	279	18	
2025-10-21T12:00	7900	362	-34.8	-40.7	279	18	
2025-10-21T12:00	7920	361	-35.0	-41.0	279	18	
2025-10-21T12:00	7940	360	-35.1	-41.3	278	18	
2025-10-21T12:00	7960	359	-35.3	-41.2	278	18	
2025-10-21T12:00	7980	358	-35.5	-41.2	278	18	
2025-10-21T12:00	8000	357	-35.7	-41.8	278	18	
2025-10-21T12:00	8020	356	-35.9	-41.9	278	18	
2025-10-21T12:00	8040	355	-36.1	-41.6	278	18	
2025-10-21T12:00	8060	354	-36.3	-41.6	278	18	
2025-10-21T12:00	8080	353	-36.4	-41.6	279	18	
2025-10-21T12:00	8100	352	-36.6	-41.9	279	18	
2025-10-21T12:00	8120	351	-36.8	-42.2	279	18	
2025-10-21T12:00	8140	350	-36.9	-42.4	279	18	
2025-10-21T12:00	8160	349	-37.1	-42.8	279	18	
2025-10-21T12:00	8180	348	-37.2	-42.4	279	18	
2025-10-21T12:00	8200	347	-37.4	-42.0	279	18	
2025-10-21T12:00	8220	346	-37.6	-41.9	278	18	
2025-10-21T12:00	8240	345	-37.8	-41.8	278	18	
2025-10-21T12:00	8260	344	-38.0	-41.9	278	18	
2025-10-21T12:00	8280	343	-38.1	-41.7	278	18	
2025-10-21T12:00	8300	342	-38.3	-41.6	278	18	
2025-10-21T12:00	8320	341	-38.4	-41.7	278	17	
2025-10-21T12:00	8340	340	-38.5	-42.1	279	17	
2025-10-21T12:00	8360	339	-38.6	-42.6	281	17	
2025-10-21T12:00	8380	338	-38.8	-42.9	282	16	
2025-10-21T12:00	8400	337	-39.0	-43.5	285	16	
2025-10-21T12:00	8420	336	-39.1	-44.0	287	16	
2025-10-21T12:00	8440	335	-39.3	-44.0	289	16	
2025-10-21T12:00	8460	334	-39.5	-44.4	291	16	
2025-10-21T12:00	8480	333	-39.6	-44.7	291	17	
2025-10-21T12:00	8500	332	-39.7	-45.5	291	17	
2025-10-21T12:00	8520	331	-39.8	-46.1	290	17	
2025-10-21T12:00	8540	330	-39.8	-46.3	290	17	
2025-10-21T12:00	8560	329	-39.9	-45.9	290	17	
2025-10-21T12:00	8580	328	-40.0	-46.1	290	17	
2025-10-21T12:00	8600	327	-40.1	-46.2	290	17	
2025-10-21T12:00	8620	326	-40.2	-46.1	290	17	
2025-10-21T12:00	8640	325	-40.4	-46.1	291	17	
2025-10-21T12:00	8660	325	-40.6	-46.2	291	17	
2025-10-21T12:00	8680	324	-40.7	-46.6	292	17	
2025-10-21T12:00	8700	323	-40.9	-46.7	292	17	
2025-10-21T12:00	8720	322	-41.0	-46.8	291	17	
2025-10-21T12:00	8740	321	-41.2	-47.1	290	17	
2025-10-21T12:00	8760	320	-41.3	-47.6	289	17	
2025-10-21T12:00	8780	319	-41.5	-47.9	288	17	
2025-10-21T12:00	8800	318	-41.7	-48.0	287	17	
2025-10-21T12:00	8820	317	-41.8	-48.1	287	17	
2025-10-21T12:00	8840	316	-42.0	-48.3	286	17	
2025-10-21T12:00	8860	315	-42.2	-48.5	285	18	
2025-10-21T12:00	8880	314	-42.3	-48.8	285	18	
2025-10-21T12:00	8900	313	-42.4	-49.2	285	18	
2025-10-21T12:00	8920	312	-42.5	-49.8	284	18	
2025-10-21T12:00	8940	311	-42.6	-50.2	284	18	
2025-10-21T12:00	8960	310	-42.7	-50.2	284	18	
2025-10-21T12:00	8980	309	-42.9	-50.4	283	18	
2025-10-21T12:00	9000	309	-43.1	-50.5	282	17	
2025-10-21T12:00	9020	308	-43.2	-50.4	281	17	
2025-10-21T12:00	9040	307	-43.4	-50.5	281	17	
2025-10-21T12:00	9060	306	-43.6	-50.7	280	17	
2025-10-21T12:00	9080	305	-43.8	-50.7	279	16	
2025-10-21T12:00	9100	304	-44.0	-50.8	279	16	
2025-10-21T12:00	9120	303	-44.1	-51.0	278	16	
2025-10-21T12:00	9140	302	-44.3	-51.1	278	16	
2025-10-21T12:00	9160	301	-44.5	-51.2	278	16	
2025-10-21T12:00	9180	300	-44.7	-51.3	278	16	
2025-10-21T12:00	9200	300	-44.9	-51.4	278	16	
2025-10-21T12:00	9220	299	-45.0	-51.7	278	16	
2025-10-21T12:00	9240	298	-45.2	-51.9	278	16	
2025-10-21T12:00	9260	297	-45.4	-51.9	278	16	
2025-10-21T12:00	9280	296	-45.6	-52.1	279	16	
2025-10-21T12:00	9300	295	-45.7	-52.4	279	15	
2025-10-21T12:00	9320	294	-45.9	-52.6	280	15	
2025-10-21T12:00	9340	293	-46.1	-52.8	280	15	
2025-10-21T12:00	9360	292	-46.3	-53.0	280	15	
2025-10-21T12:00	9380	292	-46.5	-53.1	281	15	
2025-10-21T12:00	9400	291	-46.6	-53.1	280	15	
2025-10-21T12:00	9420	290	-46.8	-53.3	280	14	
2025-10-21T12:00	9440	289	-47.0	-53.7	280	14	
2025-10-21T12:00	9460	288	-47.2	-54.0	280	14	
2025-10-21T12:00	9480	287	-47.3	-54.2	280	14	
2025-10-21T12:00	9500	286	-47.5	-54.3	280	14	
2025-10-21T12:00	9520	285	-47.6	-54.3	281	14	
2025-10-21T12:00	9540	285	-47.7	-54.5	281	13	
2025-10-21T12:00	9560	284	-47.9	-54.8	282	13	
2025-10-21T12:00	9580	283	-48.0	-55.2	282	13	
2025-10-21T12:00	9600	282	-48.1	-55.9	282	13	
2025-10-21T12:00	9620	281	-48.2	-56.4	282	12	
2025-10-21T12:00	9640	280	-48.4	-56.3	283	12	
2025-10-21T12:00	9660	279	-48.5	-56.1	283	12	
2025-10-21T12:00	9680	279	-48.7	-56.1	283	12	
2025-10-21T12:00	9700	278	-48.8	-56.1	283	12	
2025-10-21T12:00	9720	277	-49.0	-56.4	282	12	
2025-10-21T12:00	9740	276	-49.1	-56.7	281	12	
2025-10-21T12:00	9760	275	-49.3	-56.9	280	12	
2025-10-21T12:00	9780	274	-49.4	-57.0	279	13	
2025-10-21T12:00	9800	274	-49.5	-57.2	277	13	
2025-10-21T12:00	9820	273	-49.7	-57.4	276	13	
2025-10-21T12:00	9840	272	-49.8	-57.6	274	13	
2025-10-21T12:00	9860	271	-49.9	-57.6	274	13	
2025-10-21T12:00	9880	270	-49.9	-57.1	273	14	
2025-10-21T12:00	9900	269	-50.1	-57.0	273	14	
2025-10-21T12:00	9920	268	-50.1	-57.6	274	15	
2025-10-21T12:00	9940	268	-50.2	-58.4	274	15	
2025-10-21T12:00	9960	267	-50.2	-59.0	274	15	
2025-10-21T12:00	9980	266	-50.3	-59.1	275	15	
2025-10-21T12:00	10000	265	-50.3	-59.0	275	16	
2025-10-21T12:00	10018	265	-50.4	-59.1	276	16	
2025-10-21T12:00	10050	263	-50.6	-59.2	276	16	
2025-10-21T12:00	10100	261	-50.9	-59.5	278	16	
2025-10-21T12:00	10150	259	-51.4	-59.3	282	15	
2025-10-21T12:00	10200	257	-51.8	-59.1	286	15	
2025-10-21T12:00	10250	255	-52.2	-58.6	289	14	
2025-10-21T12:00	10300	253	-52.7	-58.3	290	13	
2025-10-21T12:00	10350	251	-53.1	-58.5	290	13	
2025-10-21T12:00	10400	249	-53.6	-58.7	290	12	
2025-10-21T12:00	10450	248	-54.0	-58.6	289	12	
2025-10-21T12:00	10500	246	-54.3	-58.9	287	13	
2025-10-21T12:00	10550	244	-54.6	-58.8	285	13	
2025-10-21T12:00	10600	242	-55.0	-59.0	282	12	
2025-10-21T12:00	10650	240	-55.3	-59.7	280	13	
2025-10-21T12:00	10700	238	-55.5	-60.1	278	13	
2025-10-21T12:00	10750	236	-55.4	-60.5	278	15	
2025-10-21T12:00	10800	234	-55.7	-60.6	278	16	
2025-10-21T12:00	10850	232	-55.9	-61.0	278	17	
2025-10-21T12:00	10900	231	-55.9	-62.5	278	17	
2025-10-21T12:00	10950	229	-56.1	-63.8	281	18	
2025-10-21T12:00	11000	227	-56.3	-64.4	283	18	
2025-10-21T12:00	11050	225	-56.7	-64.0	284	18	
2025-10-21T12:00	11100	224	-57.2	-63.6	284	17	
2025-10-21T12:00	11150	222	-57.6	-63.2	282	17	
2025-10-21T12:00	11200	220	-57.6	-63.7	277	17	
2025-10-21T12:00	11250	218	-57.1	-65.9	274	18	
2025-10-21T12:00	11300	216	-56.4	-68.1	275	19	
2025-10-21T12:00	11350	215	-56.2	-69.4	277	20	
2025-10-21T12:00	11400	213	-56.3	-70.2	279	21	
2025-10-21T12:00	11450	211	-56.1	-72.4	279	21	
2025-10-21T12:00	11500	210	-55.7	-73.9	279	20	
2025-10-21T12:00	11550	208	-55.8	-75.1	278	20	
2025-10-21T12:00	11600	206	-55.7	-75.5	277	21	
2025-10-21T12:00	11650	205	-55.7	-75.6	278	21	
2025-10-21T12:00	11700	203	-55.3	-75.5	281	22	
2025-10-21T12:00	11750	202	-55.4	-75.7	282	22	
2025-10-21T12:00	11800	200	-55.2	-76.4	281	22	
2025-10-21T12:00	11850	199	-54.9	-77.2	279	22	
2025-10-21T12:00	11900	197	-54.6	-77.5	277	23	
2025-10-21T12:00	11950	195	-54.4	-77.7	277	23	
2025-10-21T12:00	12000	194	-54.4	-77.9	279	24	
2025-10-21T12:00	12050	192	-54.6	-77.8	282	24	
2025-10-21T12:00	12100	191	-54.4	-77.9	284	24	
2025-10-21T12:00	12150	190	-54.5	-78.1	284	24	
2025-10-21T12:00	12200	188	-54.7	-78.1	284	23	
2025-10-21T12:00	12250	187	-54.8	-78.3	284	22	
2025-10-21T12:00	12300	185	-54.9	-78.4	284	21	
2025-10-21T12:00	12350	184	-55.0	-78.6	286	21	
2025-10-21T12:00	12400	182	-55.0	-78.7	288	21	
2025-10-21T12:00	12450	181	-55.0	-78.9	286	22	
2025-10-21T12:00	12500	179	-55.2	-78.9	283	23	
2025-10-21T12:00	12550	178	-55.2	-79.1	280	23	
2025-10-21T12:00	12600	177	-55.2	-79.3	280	23	
2025-10-21T12:00	12650	175	-55.0	-79.3	282	23	
2025-10-21T12:00	12700	174	-55.1	-79.4	283	22	
2025-10-21T12:00	12750	172	-55.3	-79.5	283	22	
2025-10-21T12:00	12800	171	-55.3	-79.7	280	22	
2025-10-21T12:00	12850	170	-55.2	-79.8	278	23	
2025-10-21T12:00	12900	169	-55.4	-79.9	277	23	
2025-10-21T12:00	12950	167	-55.6	-80.0	278	24	
2025-10-21T12:00	13000	166	-55.5	-80.1	281	24	
2025-10-21T12:00	13050	165	-55.5	-80.2	282	25	
2025-10-21T12:00	13100	163	-55.6	-80.4	283	25	
2025-10-21T12:00	13150	162	-55.8	-80.4	284	24	
2025-10-21T12:00	13200	161	-55.8	-80.4	284	24	
2025-10-21T12:00	13250	159	-56.1	-80.5	285	23	
2025-10-21T12:00	13300	158	-56.4	-80.5	286	23	
2025-10-21T12:00	13350	157	-56.6	-80.7	287	22	
2025-10-21T12:00	13400	156	-56.8	-80.7	286	22	
2025-10-21T12:00	13450	155	-57.1	-80.9	284	23	
2025-10-21T12:00	13500	153	-56.9	-81.0	280	23	
2025-10-21T12:00	13550	152	-56.7	-81.1	278	24	
2025-10-21T12:00	13600	151	-56.6	-81.2	278	25	
2025-10-21T12:00	13650	150	-56.5	-81.4	277	25	
2025-10-21T12:00	13700	149	-56.4	-81.3	277	25	
2025-10-21T12:00	13750	147	-56.7	-81.5	278	25	
2025-10-21T12:00	13800	146	-56.8	-81.5	278	25	
2025-10-21T12:00	13850	145	-56.9	-81.6	279	25	
2025-10-21T12:00	13900	144	-56.7	-81.7	280	25	
2025-10-21T12:00	13950	143	-56.4	-81.7	279	24	
2025-10-21T12:00	14000	142	-56.5	-81.8	279	24	
2025-10-21T12:00	14050	141	-56.8	-82.0	280	24	
2025-10-21T12:00	14100	139	-56.7	-81.9	282	25	
2025-10-21T12:00	14150	138	-56.8	-82.0	284	25	
2025-10-21T12:00	14200	137	-57.1	-82.0	285	25	
2025-10-21T12:00	14250	136	-57.3	-82.2	286	24	
2025-10-21T12:00	14300	135	-57.1	-82.1	286	23	
2025-10-21T12:00	14350	134	-57.4	-82.3	285	22	
2025-10-21T12:00	14400	133	-57.4	-82.4	285	21	
2025-10-21T12:00	14450	132	-57.4	-82.5	286	20	
2025-10-21T12:00	14500	131	-57.5	-82.6	285	20	
2025-10-21T12:00	14550	130	-57.5	-82.5	285	20	
2025-10-21T12:00	14600	129	-57.7	-82.7	287	20	
2025-10-21T12:00	14650	128	-57.5	-82.7	290	20	
2025-10-21T12:00	14700	127	-57.2	-82.7	292	20	
2025-10-21T12:00	14750	126	-57.4	-82.8	293	19	
2025-10-21T12:00	14800	125	-57.8	-82.8	292	19	
2025-10-21T12:00	14850	124	-57.9	-82.8	291	19	
2025-10-21T12:00	14900	123	-58.2	-82.9	292	18	
2025-10-21T12:00	14950	122	-58.4	-83.0	293	18	
2025-10-21T12:00	15000	121	-58.8	-83.1	293	17	
2025-10-21T12:00	15050	120	-59.1	-83.2	289	17	
2025-10-21T12:00	15100	119	-59.3	-83.4	285	17	
2025-10-21T12:00	15150	118	-59.2	-83.4	281	17	
2025-10-21T12:00	15200	117	-59.1	-83.5	279	18	
2025-10-21T12:00	15250	116	-59.1	-83.6	278	19	
2025-10-21T12:00	15300	115	-59.0	-83.6	280	20	
2025-10-21T12:00	15350	114	-59.1	-83.6	284	20	
2025-10-21T12:00	15400	113	-59.1	-83.5	286	20	
2025-10-21T12:00	15450	113	-59.1	-83.6	287	18	
2025-10-21T12:00	15500	112	-59.0	-83.7	285	17	
2025-10-21T12:00	15550	111	-59.3	-83.9	283	16	
2025-10-21T12:00	15600	110	-59.5	-83.9	282	17	
2025-10-21T12:00	15650	109	-59.5	-84.0	283	17	
2025-10-21T12:00	15700	108	-59.4	-83.9	286	17	
2025-10-21T12:00	15750	107	-59.7	-84.1	290	18	
2025-10-21T12:00	15800	106	-59.8	-84.1	292	17	
2025-10-21T12:00	15850	106	-59.8	-84.2	290	17	
2025-10-21T12:00	15900	105	-59.9	-84.2	286	16	
2025-10-21T12:00	15950	104	-60.1	-84.3	282	15	
2025-10-21T12:00	16000	103	-60.0	-84.4	279	15	
2025-10-21T12:00	16050	102	-59.8	-84.4	276	14	
2025-10-21T12:00	16100	101	-59.9	-84.4	275	14	
2025-10-21T12:00	16150	101	-60.1	-84.5	274	14	
2025-10-21T12:00	16200	100	-60.3	-84.5	275	13	
2025-10-21T12:00	16250	99	-60.6	-84.7	274	13	
2025-10-21T12:00	16300	98	-60.7	-84.8	272	13	
2025-10-21T12:00	16350	97	-60.6	-84.9	271	15	
2025-10-21T12:00	16400	97	-60.4	-85.0	269	16	
2025-10-21T12:00	16450	96	-60.4	-85.0	266	17	
2025-10-21T12:00	16500	95	-60.5	-85.1	264	17	
2025-10-21T12:00	16550	94	-60.3	-85.1	265	18	
2025-10-21T12:00	16600	94	-60.0	-85.1	266	19	
2025-10-21T12:00	16650	93	-60.1	-85.0	268	19	
2025-10-21T12:00	16700	92	-60.4	-85.2	271	19	
2025-10-21T12:00	16750	91	-60.4	-85.2	272	19	
2025-10-21T12:00	16800	91	-60.6	-85.2	272	19	
2025-10-21T12:00	16850	90	-60.9	-85.1	272	18	
2025-10-21T12:00	16900	89	-61.1	-85.1	274	17	
2025-10-21T12:00	16950	88	-61.3	-85.3	277	16	
2025-10-21T12:00	17000	88	-61.2	-85.3	277	15	
2025-10-21T12:00	17050	87	-61.4	-85.4	276	15	
2025-10-21T12:00	17100	86	-61.6	-85.5	276	14	
2025-10-21T12:00	17150	86	-61.9	-85.6	275	14	
2025-10-21T12:00	17200	85	-62.1	-85.7	276	14	
2025-10-21T12:00	17250	84	-62.2	-85.9	280	15	
2025-10-21T12:00	17300	84	-61.9	-85.9	284	16	
2025-10-21T12:00	17350	83	-61.8	-86.0	286	17	
2025-10-21T12:00	17400	82	-61.7	-85.9	286	17	
2025-10-21T12:00	17450	82	-61.7	-85.8	284	16	
2025-10-21T12:00	17500	81	-62.1	-85.9	282	16	
2025-10-21T12:00	17550	80	-62.4	-86.0	279	15	
2025-10-21T12:00	17600	80	-62.4	-86.1	275	15	
2025-10-21T12:00	17650	79	-62.3	-86.1	273	15	
2025-10-21T12:00	17700	78	-62.3	-86.1	271	15	
2025-10-21T12:00	17750	78	-62.3	-86.3	268	15	
2025-10-21T12:00	17800	77	-61.9	-86.2	267	16	
2025-10-21T12:00	17850	77	-61.8	-86.3	268	16	
2025-10-21T12:00	17900	76	-61.5	-86.3	268	15	
2025-10-21T12:00	17950	75	-61.3	-86.2	266	15	
2025-10-21T12:00	18000	75	-61.2	-86.2	264	15	
2025-10-21T12:00	18050	74	-61.3	-86.1	266	15	
2025-10-21T12:00	18100	73	-61.4	-86.2	269	15	
2025-10-21T12:00	18150	73	-61.2	-86.1	271	15	
2025-10-21T12:00	18200	72	-61.1	-86.2	271	15	
2025-10-21T12:00	18250	72	-61.3	-86.3	270	16	
2025-10-21T12:00	18300	71	-61.1	-86.2	269	16	
2025-10-21T12:00	18350	71	-61.0	-86.2	270	15	
2025-10-21T12:00	18400	70	-61.2	-86.3	273	15	
2025-10-21T12:00	18450	69	-61.2	-86.2	277	14	
2025-10-21T12:00	18500	69	-61.3	-86.1	280	14	
2025-10-21T12:00	18550	68	-61.8	-86.3	283	13	
2025-10-21T12:00	18600	68	-62.2	-86.4	287	13	
2025-10-21T12:00	18650	67	-62.4	-86.5	291	12	
2025-10-21T12:00	18700	67	-62.8	-86.5	296	12	
2025-10-21T12:00	18750	66	-63.3	-86.8	297	12	
2025-10-21T12:00	18800	66	-63.4	-87.0	293	12	
2025-10-21T12:00	18850	65	-63.1	-86.9	287	12	
2025-10-21T12:00	18900	65	-63.3	-87.0	282	13	
2025-10-21T12:00	18950	64	-63.6	-87.1	280	14	
2025-10-21T12:00	19000	64	-63.6	-87.2	280	14	
2025-10-21T12:00	19050	63	-63.0	-87.2	281	15	
2025-10-21T12:00	19100	62	-62.7	-87.4	280	16	
2025-10-21T12:00	19150	62	-61.8	-87.2	277	18	
2025-10-21T12:00	19200	61	-61.1	-87.0	275	20	
2025-10-21T12:00	19250	61	-60.7	-86.6	277	19	
2025-10-21T12:00	19300	61	-60.8	-86.6	281	19	
2025-10-21T12:00	19350	60	-60.4	-86.5	285	18	
2025-10-21T12:00	19400	60	-60.0	-86.4	287	17	
2025-10-21T12:00	19450	59	-60.0	-86.4	288	16	
2025-10-21T12:00	19500	59	-59.8	-86.4	289	14	
2025-10-21T12:00	19550	58	-59.3	-86.2	289	12	
2025-10-21T12:00	19600	58	-58.8	-86.0	287	10	
2025-10-21T12:00	19650	57	-58.9	-86.0	284	8	
2025-10-21T12:00	19700	57	-58.8	-85.8	284	7	
2025-10-21T12:00	19750	56	-59.2	-85.9	285	6	
2025-10-21T12:00	19800	56	-59.5	-85.8	285	6	
2025-10-21T12:00	19850	55	-59.8	-85.9	286	6	
2025-10-21T12:00	19900	55	-60.2	-86.1	286	6	
2025-10-21T12:00	19950	55	-60.4	-86.2	283	6	
2025-10-21T12:00	20000	54	-60.5	-86.2	280	6	
2025-10-21T12:00	20050	54	-60.7		277	6	
2025-10-21T12:00	20100	53	-61.0		271	6	
2025-10-21T12:00	20150	53	-61.1		262	6	
2025-10-21T12:00	20200	52	-60.9		256	7	
2025-10-21T12:00	20250	52	-60.5		256	8	
2025-10-21T12:00	20300	52	-60.3		262	9	
2025-10-21T12:00	20350	51	-60.5		269	9	
2025-10-21T12:00	20400	51	-60.7		274	10	
2025-10-21T12:00	20450	50	-60.8		279	10	
2025-10-21T12:00	20500	50	-61.0		285	11	
2025-10-21T12:00	20550	50	-61.1		291	11	
2025-10-21T12:00	20600	49	-60.9		294	12	
2025-10-21T12:00	20650	49	-61.1		296	13	
2025-10-21T12:00	20700	48	-61.2		297	13	
2025-10-21T12:00	20750	48	-61.4		297	12	
2025-10-21T12:00	20800	48	-61.1		296	11	
2025-10-21T12:00	20850	47	-60.9		292	10	
2025-10-21T12:00	20900	47	-61.4		286	9	
2025-10-21T12:00	20950	46	-61.8		277	9	
2025-10-21T12:00	21000	46	-62.0		268	9	
2025-10-21T12:00	21050	46	-62.2		260	9	
2025-10-21T12:00	21100	45	-62.5		255	10	
2025-10-21T12:00	21150	45	-62.9		253	11	
2025-10-21T12:00	21200	45	-63.4		252	12	
2025-10-21T12:00	21250	44	-63.7		250	13	
2025-10-21T12:00	21300	44	-63.7		249	13	
2025-10-21T12:00	21350	43	-64.0		249	13	
2025-10-21T12:00	21400	43	-64.0		249	13	
2025-10-21T12:00	21450	43	-64.2		251	13	
2025-10-21T12:00	21500	42	-64.5		256	12	
2025-10-21T12:00	21550	42	-64.5		262	12	
2025-10-21T12:00	21600	42	-64.5		265	13	
2025-10-21T12:00	21650	41	-64.5		267	15	
2025-10-21T12:00	21700	41	-64.7		267	17	
2025-10-21T12:00	21750	41	-64.5		269	18	
2025-10-21T12:00	21800	40	-64.1		272	19	
2025-10-21T12:00	21850	40	-63.8		273	19	
2025-10-21T12:00	21900	40	-63.4		275	19	
2025-10-21T12:00	21950	39	-63.4		278	19	
2025-10-21T12:00	22000	39	-63.1		278	18	
2025-10-21T12:00	22050	39	-62.4		272	17	
2025-10-21T12:00	22100	38	-62.2		268	17	
2025-10-21T12:00	22150	38	-61.7		267	16	
2025-10-21T12:00	22200	38	-61.4		270	15	
2025-10-21T12:00	22250	38	-61.3		272	15	
2025-10-21T12:00	22300	37	-60.9		275	14	
2025-10-21T12:00	22350	37	-60.8		278	14	
2025-10-21T12:00	22400	37	-60.7		280	13	
2025-10-21T12:00	22450	36	-60.7		280	13	
2025-10-21T12:00	22500	36	-60.6		281	12	
2025-10-21T12:00	22550	36	-60.7		284	11	
2025-10-21T12:00	22600	36	-61.1		288	11	
2025-10-21T12:00	22650	35	-61.3		291	10	
2025-10-21T12:00	22700	35	-61.6		292	10	
2025-10-21T12:00	22750	35	-61.7		286	10	
2025-10-21T12:00	22800	34	-61.5		277	10	
2025-10-21T12:00	22850	34	-61.4		268	11	
2025-10-21T12:00	22900	34	-61.5		260	13	
2025-10-21T12:00	22950	34	-60.3		256	14	
2025-10-21T12:00	23000	33	-59.3		253	16	
2025-10-21T12:00	23050	33	-58.8		250	17	
2025-10-21T12:00	23100	33	-58.6		251	18	
2025-10-21T12:00	23150	33	-58.6		255	17	
2025-10-21T12:00	23200	32	-58.4		260	17	
2025-10-21T12:00	23250	32	-58.6		265	18	
2025-10-21T12:00	23300	32	-58.9		270	18	
2025-10-21T12:00	23350	31	-58.9		277	18	
2025-10-21T12:00	23400	31	-58.5		280	17	
2025-10-21T12:00	23450	31	-58.6		281	16	
2025-10-21T12:00	23500	31	-58.9		280	15	
2025-10-21T12:00	23550	30	-59.2		276	14	
2025-10-21T12:00	23600	30	-59.4		271	14	
2025-10-21T12:00	23650	30	-59.7		267	14	
2025-10-21T12:00	23700	30	-59.9		264	14	
2025-10-21T12:00	23750	30	-60.2		262	15	
2025-10-21T12:00	23800	29	-60.4		263	16	
2025-10-21T12:00	23850	29	-60.1		265	17	
2025-10-21T12:00	23900	29	-59.9		266	18	
2025-10-21T12:00	23950	29	-59.6		267	19	
2025-10-21T12:00	24000	28	-59.7		268	19	
2025-10-21T12:00	24050	28	-59.4		270	19	
2025-10-21T12:00	24100	28	-58.7		272	19	
2025-10-21T12:00	24150	28	-58.6		275	19	
2025-10-21T12:00	24200	27	-58.9		280	19	
2025-10-21T12:00	24250	27	-58.9		285	19	
2025-10-21T12:00	24300	27	-58.7		288	18	
2025-10-21T12:00	24350	27	-58.8		288	17	
2025-10-21T12:00	24400	27	-58.8		285	16	
2025-10-21T12:00	24450	26	-59.0		281	15	
2025-10-21T12:00	24500	26	-59.2		276	14	
2025-10-21T12:00	24550	26	-59.3		271	14	
2025-10-21T12:00	24600	26	-59.1		268	13	
2025-10-21T12:00	24650	26	-58.3		266	14	
2025-10-21T12:00	24700	25	-57.5		267	15	
2025-10-21T12:00	24750	25	-56.8		267	16	
2025-10-21T12:00	24800	25	-56.6		267	17	
2025-10-21T12:00	24850	25	-56.5		267	18	
2025-10-21T12:00	24900	25	-56.1		269	18	
2025-10-21T12:00	24950	24	-56.2		271	18	
2025-10-21T12:00	25000	24	-56.1		274	19	
2025-10-21T12:00	25050	24	-56.1		278	19	
2025-10-21T12:00	25100	24	-56.3		282	20	
2025-10-21T12:00	25150	24	-56.5		285	20	
2025-10-21T12:00	25200	23	-56.7		286	21	
2025-10-21T12:00	25250	23	-56.5		285	21	
2025-10-21T12:00	25300	23	-56.6		283	21	
2025-10-21T12:00	25350	23	-56.6		282	21	
2025-10-21T12:00	25400	23	-56.0		281	21	
2025-10-21T12:00	25450	23	-55.4		277	22	
2025-10-21T12:00	25500	22	-54.7		272	22	
2025-10-21T12:00	25550	22	-54.1		270	23	
2025-10-21T12:00	25600	22	-53.8		272	23	
2025-10-21T12:00	25650	22	-53.2		274	23	
2025-10-21T12:00	25700	22	-53.2		277	23	
2025-10-21T12:00	25750	22	-52.8		279	23	
2025-10-21T12:00	25800	21	-52.1		283	23	
2025-10-21T12:00	25850	21	-51.8		285	24	
2025-10-21T12:00	25900	21	-51.7		287	24	
2025-10-21T12:00	25950	21	-51.7		289	25	
2025-10-21T12:00	26000	21	-51.8		290	26	
2025-10-21T12:00	26050	21	-52.0		290	27	
2025-10-21T12:00	26100	20	-52.4		290	27	
2025-10-21T12:00	26150	20	-52.5		289	27	
2025-10-21T12:00	26200	20	-52.4		288	27	
2025-10-21T12:00	26250	20	-52.6		286	26	
2025-10-21T12:00	26300	20	-52.8		285	26	
2025-10-21T12:00	26350	20	-53.0		283	26	
2025-10-21T12:00	26400	19	-53.3		281	26	
2025-10-21T12:00	26450	19	-53.6		278	26	
2025-10-21T12:00	26500	19	-53.7		276	26	
2025-10-21T12:00	26550	19	-53.8		274	27	
2025-10-21T12:00	26600	19	-53.6		273	28	
2025-10-21T12:00	26650	19	-52.9		273	29	
2025-10-21T12:00	26700	19	-52.3		275	29	
2025-10-21T12:00	26750	18	-51.9		277	29	
2025-10-21T12:00	26800	18	-51.5		278	29	
2025-10-21T12:00	26850	18	-51.2		276	30	
2025-10-21T12:00	26900	18	-50.7		274	29	
2025-10-21T12:00	26950	18	-50.3		276	28	
2025-10-21T12:00	27000	18	-50.0		281	27	
2025-10-21T12:00	27050	18	-49.7		283	27	
2025-10-21T12:00	27100	17	-49.3		284	26	
2025-10-21T12:00	27150	17	-48.9		284	26	
2025-10-21T12:00	27200	17	-48.7		281	26	
2025-10-21T12:00	27250	17	-48.5		277	26	
2025-10-21T12:00	27300	17	-48.1		273	26	
2025-10-21T12:00	27350	17	-47.9		270	27	
2025-10-21T12:00	27400	17	-47.6		268	28	
2025-10-21T12:00	27450	17	-47.8		268	28	
2025-10-21T12:00	27500	16	-47.8		267	29	
2025-10-21T12:00	27550	16	-47.4		267	30	
2025-10-21T12:00	27600	16	-46.7		265	30	
2025-10-21T12:00	27650	16	-46.4		264	31	
2025-10-21T12:00	27700	16	-46.5		264	32	
2025-10-21T12:00	27750	16	-46.7		264	32	
2025-10-21T12:00	27800	16	-46.9		263	32	
2025-10-21T12:00	27850	16	-47.1		262	32	
2025-10-21T12:00	27900	15	-47.3		261	32	
2025-10-21T12:00	27950	15	-47.4		260	32	
2025-10-21T12:00	28000	15	-47.6		259	32	
2025-10-21T12:00	28050	15	-47.9		259	31	
2025-10-21T12:00	28100	15	-48.1		259	30	
2025-10-21T12:00	28150	15	-48.1		260	29	
2025-10-21T12:00	28200	15	-48.1		262	28	
2025-10-21T12:00	28250	15	-48.4		264	28	
2025-10-21T12:00	28300	15	-48.8		267	28	
2025-10-21T12:00	28350	14	-49.1		269	28	
2025-10-21T12:00	28400	14	-49.0		270	29	
2025-10-21T12:00	28450	14	-48.8		270	29	
2025-10-21T12:00	28500	14	-48.7		269	29	
2025-10-21T12:00	28550	14	-48.5		267	29	
2025-10-21T12:00	28600	14	-48.3		266	29	
2025-10-21T12:00	28650	14	-48.1		265	28	
2025-10-21T12:00	28700	14	-48.4		264	28	
2025-10-21T12:00	28750	14	-48.7		262	27	
2025-10-21T12:00	28800	13	-48.8		260	27	
2025-10-21T12:00	28850	13	-48.9		258	28	
2025-10-21T12:00	28900	13	-48.9		257	29	
2025-10-21T12:00	28950	13	-49.1		256	29	
2025-10-21T12:00	29000	13	-49.6		256	30	
2025-10-21T12:00	29050	13	-49.5		255	30	
2025-10-21T12:00	29100	13	-49.5		255	31	
2025-10-21T12:00	29150	13	-49.7		256	32	
2025-10-21T12:00	29200	13	-49.9		257	33	
2025-10-21T12:00	29250	13	-50.0		259	33	
2025-10-21T12:00	29300	12	-49.9		260	33	
2025-10-21T12:00	29350	12	-49.9		260	33	
2025-10-21T12:00	29400	12	-49.9		261	33	
2025-10-21T12:00	29450	12	-49.5		262	33	
2025-10-21T12:00	29500	12	-49.3		263	33	
2025-10-21T12:00	29550	12	-49.4		263	33	
2025-10-21T12:00	29600	12	-49.5		262	33	
2025-10-21T12:00	29650	12	-49.6		261	33	
2025-10-21T12:00	29700	12	-49.7		261	32	
2025-10-21T12:00	29750	12	-49.8		260	32	
2025-10-21T12:00	29800	12	-50.0		260	32	
2025-10-21T12:00	29850	11	-50.2		259	32	
2025-10-21T12:00	29900	11	-50.4		259	32	
2025-10-21T12:00	29950	11	-50.3		259	32	
2025-10-21T12:00	30000	11	-50.5		260	32	
2025-10-21T12:00	30050	11	-50.4		261	32	
2025-10-21T12:00	30100	11	-50.4		262	32	
2025-10-21T12:00	30150	11	-50.7		265	32	
2025-10-21T12:00	30200	11	-51.0		268	32	
2025-10-21T12:00	30250	11	-51.2		270	32	
2025-10-21T12:00	30300	11	-51.3		272	32	
2025-10-21T12:00	30350	11	-51.1		275	32	
2025-10-21T12:00	30400	11	-51.1		276	31	
2025-10-21T12:00	30450	10	-51.3		278	31	
2025-10-21T12:00	30500	10	-51.5		279	30	
2025-10-21T12:00	30550	10	-51.7		278	30	
2025-10-21T12:00	30600	10	-51.8		276	29	
2025-10-21T12:00	30650	10	-51.6		274	29	
2025-10-21T12:00	30700	10	-51.4		271	30	
2025-10-21T12:00	30750	10	-51.1		269	31	
2025-10-21T12:00	30800	10	-50.7		269	32	
2025-10-21T12:00	30850	10	-50.5		269	32	
2025-10-21T12:00	30900	10	-50.3		270	33	
2025-10-21T12:00	30950	10	-50.4		270	33	
2025-10-21T12:00	31000	10	-50.3		269	33	
2025-10-21T12:00	31050	10	-50.2		267	32	
2025-10-21T12:00	31100	9	-49.4		264	31	
2025-10-21T12:00	31150	9	-48.6		263	30	
2025-10-21T12:00	31200	9	-48.1		262	30	
2025-10-21T12:00	31250	9	-47.4		261	31	
2025-10-21T12:00	31300	9	-46.4		260	32	
2025-10-21T12:00	31350	9	-45.6		259	34	
2025-10-21T12:00	31400	9	-45.1		259	35	
2025-10-21T12:00	31450	9	-44.7		260	36	
2025-10-21T12:00	31500	9	-44.4		260	37	
2025-10-21T12:00	31550	9	-44.3		260	37	
2025-10-21T12:00	31600	9	-44.5		260	37	
2025-10-21T12:00	31650	9	-44.6		259	36	
2025-10-21T12:00	31700	9	-44.5		258	34	
2025-10-21T12:00	31750	9	-44.2		258	33	
2025-10-21T12:00	31800	9	-43.9		258	32	
2025-10-21T12:00	31850	8	-43.8		260	32	
2025-10-21T12:00	31900	8	-43.8		261	32	
2025-10-21T12:00	31950	8	-44.0		263	32	
2025-10-21T12:00	32000	8	-44.3		264	32	
2025-10-21T12:00	32050	8	-44.7		265	32	
2025-10-21T12:00	32100	8	-45.1		266	32	
2025-10-21T12:00	32150	8	-45.4		267	32	
2025-10-21T12:00	32200	8	-45.7		268	32	
2025-10-21T12:00	32250	8	-45.7		269	32	
2025-10-21T12:00	32300	8	-45.7		269	33	
2025-10-21T12:00	32350	8	-45.5		269	34	
2025-10-21T12:00	32400	8	-45.3		269	35	
2025-10-21T12:00	32450	8	-45.4		270	36	
2025-10-21T12:00	32500	8	-45.5		270	37	
2025-10-21T12:00	32550	8	-45.6		270	38	
2025-10-21T12:00	32600	8	-45.6		269	38	
2025-10-21T12:00	32650	8	-45.7		268	37	
2025-10-21T12:00	32700	7	-45.9		267	37	
2025-10-21T12:00	32750	7	-45.9		265	37	
2025-10-21T12:00	32800	7	-45.7		263	37	
2025-10-21T12:00	32850	7	-45.4		260	37	
2025-10-21T12:00	32900	7	-45.4		257	36	
2025-10-21T12:00	32950	7	-45.6		255	36	
2025-10-21T12:00	33000	7	-45.9		253	36	
2025-10-21T12:00	33050	7	-46.2		251	36	
2025-10-21T12:00	33100	7	-46.6		250	37	
2025-10-21T12:00	33150	7	-46.8		248	37	
2025-10-21T12:00	33200	7	-47.0		248	37	
2025-10-21T12:00	33250	7	-47.2		248	38	
2025-10-21T12:00	33300	7	-47.3		249	38	
2025-10-21T12:00	33350	7	-47.4		251	38	
2025-10-21T12:00	33400	7	-47.7		252	38	
2025-10-21T12:00	33450	7	-47.9		253	38	
2025-10-21T12:00	33500	7	-48.1		254	37	
2025-10-21T12:00	33550	7	-48.3		255	37	
2025-10-21T12:00	33600	7	-48.3		256	37	
2025-10-21T12:00	33650	6	-48.4		258	37	
2025-10-21T12:00	33700	6	-48.5		261	37	
2025-10-21T12:00	33750	6	-48.5		263	37	
2025-10-21T12:00	33800	6	-48.4		263	36	
2025-10-21T12:00	33850	6	-48.1		263	36	
2025-10-21T12:00	33900	6	-48.0		263	36	
2025-10-21T12:00	33950	6	-48.0		266	36	
2025-10-21T12:00	34000	6	-47.8		267	37	
2025-10-21T12:00	34050	6	-47.6		267	38	
2025-10-21T12:00	34100	6	-47.4		265	38	
2025-10-21T12:00	34150	6	-47.0		262	39	
2025-10-21T12:00	34200	6	-46.4		260	40	
2025-10-21T12:00	34250	6	-46.1		257	41	
2025-10-21T12:00	34300	6	-46.0		256	42	
2025-10-21T12:00	34350	6	-45.7		255	42	
2025-10-21T12:00	34400	6	-45.5		255	43	
2025-10-21T12:00	34450	6	-45.7		256	44	
2025-10-21T12:00	34500	6	-45.7		256	44	
2025-10-21T12:00	34550	6	-45.5		256	45	
2025-10-21T12:00	34600	6	-45.4		257	45	
2025-10-21T12:00	34650	6	-45.4		257	46	
2025-10-21T12:00	34700	6	-45.3		258	46	
2025-10-21T12:00	34750	5	-45.4		258	46	
2025-10-21T12:00	34800	5	-45.6		259	46	
2025-10-21T12:00	34850	5	-45.9		259	45	
2025-10-21T12:00	34900	5	-46.3		260	45	
2025-10-21T12:00	34950	5	-46.7		260	45	
2025-10-21T12:00	35000	5	-47.2		260	45	
2025-10-21T12:00	35050	5	-47.6		260	45	
2025-10-21T12:00	35100	5	-47.8		261	46	
2025-10-21T12:00	35150	5	-47.9		261	47	
2025-10-21T12:00	35200	5	-47.6		261	48	
2025-10-21T12:00	35250	5	-47.2		261	49	
2025-10-21T12:00	35300	5	-47.1		260	49	
2025-10-21T12:00	35350	5	-47.2		260	50	
2025-10-21T12:00	35400	5	-46.9		259	50	
2025-10-21T12:00	35450	5	-46.0		260	52	
2025-10-21T12:00	35500	5	-44.4		262	53	
2025-10-21T12:00	35550	5	-43.7		262	53	
2025-10-21T12:00	35600	5	-43.4		263	51	
2025-10-21T12:00	35650	5	-43.3		265	51	
2025-10-21T12:00	35700	5	-43.2		267	51	
2025-10-21T12:00	35750	5	-42.7		268	51	
2025-10-21T12:00	35800	5	-42.2		267	51	
2025-10-21T12:00	35850	5	-42.2		266	50	
2025-10-21T12:00	35900	5	-42.2		266	50	
2025-10-21T12:00	35950	5	-41.9		265	49	
2025-10-21T12:00	36000	5	-41.8		265	49	
2025-10-21T12:00	36050	5	-42.0		265	48	
2025-10-21T12:00	36100	4	-42.3		265	48	
2025-10-21T12:00	36150	4	-42.6		265	48	
2025-10-21T12:00	36200	4	-43.0		265	48	
2025-10-21T12:00	36250	4	-43.3		265	48	
2025-10-21T12:00	36300	4	-43.6		265	48	
2025-10-21T12:00	36350	4	-43.9		266	48	
2025-10-21T12:00	36400	4	-44.3		266	47	
2025-10-21T12:00	36450	4	-44.6		266	47	
2025-10-21T12:00	36500	4	-44.9		266	47	
2025-10-21T12:00	36550	4	-44.9		266	47	
2025-10-21T12:00	36600	4	-45.0		265	47	
2025-10-22T00:00	491	946	13.9	11.1	197	5	
2025-10-22T00:00	501	945	13.6	11.1	203	4	
2025-10-22T00:00	520	943	13.6	10.9	205	4	
2025-10-22T00:00	540	941	13.6	10.7	205	5	
2025-10-22T00:00	560	939	13.5	10.6	206	6	
2025-10-22T00:00	580	936	13.3	10.5	207	7	
2025-10-22T00:00	600	934	13.2	10.4	208	8	
2025-10-22T00:00	620	932	13.1	10.3	209	9	
2025-10-22T00:00	640	930	13.0	10.3	210	10	
2025-10-22T00:00	660	927	12.8	10.2	211	10	
2025-10-22T00:00	680	925	12.6	10.3	211	11	
2025-10-22T00:00	700	923	12.5	10.4	212	11	
2025-10-22T00:00	720	921	12.4	10.4	212	12	
2025-10-22T00:00	740	919	12.2	10.3	212	12	
2025-10-22T00:00	760	916	12.0	10.2	213	12	
2025-10-22T00:00	780	915	11.9	10.2	214	13	
2025-10-22T00:00	800	912	11.8	10.1	215	13	
2025-10-22T00:00	820	910	11.6	10.1	216	13	
2025-10-22T00:00	840	908	11.5	10.0	218	14	
2025-10-22T00:00	860	906	11.4	9.9	218	14	
2025-10-22T00:00	880	904	11.4	9.8	219	14	
2025-10-22T00:00	900	901	11.3	9.7	220	14	
2025-10-22T00:00	920	899	11.2	9.4	220	15	
2025-10-22T00:00	940	897	11.1	9.2	220	15	
2025-10-22T00:00	960	895	11.0	9.3	220	16	
2025-10-22T00:00	980	893	11.0	9.2	220	16	
2025-10-22T00:00	1000	891	10.9	9.0	220	17	
2025-10-22T00:00	1020	889	11.0	8.9	220	18	
2025-10-22T00:00	1040	886	11.3	8.9	220	18	
2025-10-22T00:00	1060	884	11.2	8.9	220	19	
2025-10-22T00:00	1080	882	11.0	9.0	220	19	
2025-10-22T00:00	1100	880	10.8	8.9	220	20	
2025-10-22T00:00	1120	878	10.6	8.8	220	20	
2025-10-22T00:00	1140	876	10.4	8.8	220	20	
2025-10-22T00:00	1160	874	10.3	8.8	220	20	
2025-10-22T00:00	1180	872	10.1	8.8	220	20	
2025-10-22T00:00	1200	869	9.9	8.8	221	20	
2025-10-22T00:00	1220	867	9.7	8.7	221	20	
2025-10-22T00:00	1240	865	9.5	8.7	222	20	
2025-10-22T00:00	1260	863	9.4	8.6	222	20	
2025-10-22T00:00	1280	861	9.2	8.6	223	20	
2025-10-22T00:00	1300	859	9.0	8.5	224	20	
2025-10-22T00:00	1320	857	8.9	8.5	224	20	
2025-10-22T00:00	1340	855	8.7	8.5	225	20	
2025-10-22T00:00	1360	853	8.6	8.4	225	20	
2025-10-22T00:00	1380	851	8.5	8.3	226	20	
2025-10-22T00:00	1400	849	8.3	8.3	226	20	
2025-10-22T00:00	1420	847	8.2	8.2	227	20	
2025-10-22T00:00	1440	845	8.1	8.1	228	20	
2025-10-22T00:00	1460	843	8.0	8.0	229	20	
2025-10-22T00:00	1480	841	7.9	7.7	230	20	
2025-10-22T00:00	1500	838	8.2	7.2	232	20	
2025-10-22T00:00	1520	837	8.4	7.0	233	20	
2025-10-22T00:00	1540	835	8.5	6.9	234	20	
2025-10-22T00:00	1560	833	8.5	6.7	235	20	
2025-10-22T00:00	1580	831	8.6	6.6	236	20	
2025-10-22T00:00	1600	829	8.4	6.4	236	19	
2025-10-22T00:00	1620	827	8.3	6.3	237	19	
2025-10-22T00:00	1640	825	8.2	6.2	237	19	
2025-10-22T00:00	1660	823	8.0	6.1	238	19	
2025-10-22T00:00	1680	821	7.9	6.0	238	19	
2025-10-22T00:00	1700	818	7.7	5.9	239	19	
2025-10-22T00:00	1720	817	7.6	5.8	239	19	
2025-10-22T00:00	1740	815	7.5	5.7	239	19	
2025-10-22T00:00	1760	813	7.3	5.4	240	19	
2025-10-22T00:00	1780	811	7.3	5.3	240	19	
2025-10-22T00:00	1800	809	7.2	5.2	240	19	
2025-10-22T00:00	1820	807	7.1	5.1	240	19	
2025-10-22T00:00	1840	805	6.9	5.0	240	19	
2025-10-22T00:00	1860	803	6.7	4.9	240	19	
2025-10-22T00:00	1880	801	6.5	4.9	240	19	
2025-10-22T00:00	1900	799	6.4	4.7	240	19	
2025-10-22T00:00	1920	797	6.2	4.7	239	19	
2025-10-22T00:00	1940	795	6.0	4.7	239	19	
2025-10-22T00:00	1960	793	5.9	4.5	239	19	
2025-10-22T00:00	1980	791	5.8	4.4	240	19	
2025-10-22T00:00	2000	790	5.6	4.5	240	19	
2025-10-22T00:00	2020	787	5.5	4.2	240	19	
2025-10-22T00:00	2040	785	5.4	4.1	241	19	
2025-10-22T00:00	2060	783	5.3	3.8	241	18	
2025-10-22T00:00	2080	782	5.1	3.8	242	19	
2025-10-22T00:00	2100	780	5.0	3.8	242	18	
2025-10-22T00:00	2120	778	4.8	3.6	243	18	
2025-10-22T00:00	2140	776	4.8	3.4	244	18	
2025-10-22T00:00	2160	774	4.6	3.4	244	18	
2025-10-22T00:00	2180	772	4.4	3.3	245	19	
2025-10-22T00:00	2200	770	4.2	3.3	245	19	
2025-10-22T00:00	2220	769	4.0	3.2	245	19	
2025-10-22T00:00	2240	767	3.8	3.1	246	19	
2025-10-22T00:00	2260	765	3.6	3.1	246	19	
2025-10-22T00:00	2280	763	3.5	3.0	245	18	
2025-10-22T00:00	2300	761	3.3	3.0	245	18	
2025-10-22T00:00	2320	759	3.1	2.9	245	18	
2025-10-22T00:00	2340	757	2.9	2.9	245	18	
2025-10-22T00:00	2360	755	2.8	2.7	245	18	
2025-10-22T00:00	2380	753	2.7	2.4	245	18	
2025-10-22T00:00	2400	751	2.8	2.2	245	18	
2025-10-22T00:00	2420	750	2.8	1.9	245	18	
2025-10-22T00:00	2440	748	2.7	1.6	244	18	
2025-10-22T00:00	2460	746	2.6	1.4	244	18	
2025-10-22T00:00	2480	744	2.5	1.1	243	18	
2025-10-22T00:00	2500	742	2.4	1.1	242	18	
2025-10-22T00:00	2520	741	2.3	1.0	241	18	
2025-10-22T00:00	2540	739	2.1	0.9	240	18	
2025-10-22T00:00	2560	737	1.9	0.8	239	18	
2025-10-22T00:00	2580	735	1.8	0.8	238	18	
2025-10-22T00:00	2600	733	1.6	0.7	238	18	
2025-10-22T00:00	2620	731	1.4	0.7	238	18	
2025-10-22T00:00	2640	729	1.3	0.7	238	18	
2025-10-22T00:00	2660	728	1.2	0.5	239	17	
2025-10-22T00:00	2680	726	1.1	0.2	239	17	
2025-10-22T00:00	2700	724	1.0	0.1	240	17	
2025-10-22T00:00	2720	722	1.0	-0.1	240	17	
2025-10-22T00:00	2740	721	0.8	-0.1	241	17	
2025-10-22T00:00	2760	719	0.7	-0.2	241	17	
2025-10-22T00:00	2780	717	0.6	-0.2	241	17	
2025-10-22T00:00	2800	715	0.4	-0.3	242	18	
2025-10-22T00:00	2820	713	0.2	-0.3	242	18	
2025-10-22T00:00	2840	712	0.0	-0.3	242	18	
2025-10-22T00:00	2860	710	-0.2	-0.4	243	18	
2025-10-22T00:00	2880	708	-0.3	-0.5	244	18	
2025-10-22T00:00	2900	706	-0.5	-0.6	244	18	
2025-10-22T00:00	2920	705	-0.6	-0.7	245	18	
2025-10-22T00:00	2940	703	-0.7	-0.8	245	18	
2025-10-22T00:00	2960	701	-0.8	-1.0	246	18	
2025-10-22T00:00	2980	699	-0.8	-1.5	247	18	
2025-10-22T00:00	3000	698	-0.7	-2.1	248	18	
2025-10-22T00:00	3020	696	-0.8	-2.4	248	18	
2025-10-22T00:00	3040	694	-0.8	-2.7	249	18	
2025-10-22T00:00	3060	692	-0.7	-2.3	250	19	
2025-10-22T00:00	3080	691	-0.8	-2.1	251	19	
2025-10-22T00:00	3100	689	-0.9	-1.9	252	18	
2025-10-22T00:00	3120	687	-1.1	-1.8	252	18	
2025-10-22T00:00	3140	685	-1.3	-1.7	253	18	
2025-10-22T00:00	3160	684	-1.3	-1.4	253	18	
2025-10-22T00:00	3180	682	-1.1	-1.3	254	18	
2025-10-22T00:00	3200	680	-1.2	-1.5	254	18	
2025-10-22T00:00	3220	679	-1.2	-1.7	254	18	
2025-10-22T00:00	3240	677	-1.2	-2.0	254	17	
2025-10-22T00:00	3260	675	-1.3	-2.2	255	17	
2025-10-22T00:00	3280	673	-1.5	-2.3	255	17	
2025-10-22T00:00	3300	672	-1.5	-2.3	256	17	
2025-10-22T00:00	3320	670	-1.7	-2.3	256	17	
2025-10-22T00:00	3340	669	-1.8	-2.4	257	17	
2025-10-22T00:00	3360	667	-1.9	-2.5	257	17	
2025-10-22T00:00	3380	665	-2.1	-2.7	257	17	
2025-10-22T00:00	3400	663	-2.2	-2.7	258	17	
2025-10-22T00:00	3420	662	-2.4	-2.8	258	17	
2025-10-22T00:00	3440	660	-2.6	-2.8	258	17	
2025-10-22T00:00	3460	659	-2.6	-3.0	257	17	
2025-10-22T00:00	3480	657	-2.8	-3.1	257	17	
2025-10-22T00:00	3500	655	-2.9	-3.2	257	16	
2025-10-22T00:00	3520	653	-3.0	-3.3	257	16	
2025-10-22T00:00	3540	652	-3.2	-3.4	257	16	
2025-10-22T00:00	3560	650	-3.4	-3.4	258	16	
2025-10-22T00:00	3580	649	-3.5	-3.5	258	16	
2025-10-22T00:00	3600	647	-3.5	-3.7	259	17	
2025-10-22T00:00	3620	645	-3.6	-3.8	259	17	
2025-10-22T00:00	3640	644	-3.6	-4.0	260	17	
2025-10-22T00:00	3660	642	-3.6	-4.2	261	17	
2025-10-22T00:00	3680	640	-3.6	-4.3	262	17	
2025-10-22T00:00	3700	639	-3.7	-4.5	263	17	
2025-10-22T00:00	3720	637	-3.9	-4.5	264	17	
2025-10-22T00:00	3740	635	-4.0	-4.7	265	17	
2025-10-22T00:00	3760	634	-4.1	-4.8	266	17	
2025-10-22T00:00	3780	632	-4.2	-4.9	266	17	
2025-10-22T00:00	3800	631	-4.4	-5.0	267	17	
2025-10-22T00:00	3820	629	-4.5	-5.1	268	17	
2025-10-22T00:00	3840	628	-4.7	-5.1	268	17	
2025-10-22T00:00	3860	626	-4.9	-5.2	268	17	
2025-10-22T00:00	3880	624	-5.0	-5.3	268	17	
2025-10-22T00:00	3900	623	-5.2	-5.4	268	17	
2025-10-22T00:00	3920	621	-5.4	-5.5	268	17	
2025-10-22T00:00	3940	620	-5.5	-5.7	268	16	
2025-10-22T00:00	3960	618	-5.7	-5.8	267	16	
2025-10-22T00:00	3980	616	-5.8	-5.9	266	16	
2025-10-22T00:00	4000	615	-5.9	-6.0	266	16	
2025-10-22T00:00	4020	614	-6.1	-6.2	265	16	
2025-10-22T00:00	4040	612	-6.2	-6.5	265	16	
2025-10-22T00:00	4060	610	-6.4	-6.7	264	17	
2025-10-22T00:00	4080	609	-6.5	-6.8	264	17	
2025-10-22T00:00	4100	607	-6.7	-6.9	264	17	
2025-10-22T00:00	4120	606	-6.8	-7.1	264	17	
2025-10-22T00:00	4140	604	-6.9	-7.2	264	17	
2025-10-22T00:00	4160	602	-7.1	-7.3	264	17	
2025-10-22T00:00	4180	601	-7.2	-7.4	264	17	
2025-10-22T00:00	4200	599	-7.4	-7.5	264	17	
2025-10-22T00:00	4220	598	-7.4	-7.7	264	17	
2025-10-22T00:00	4240	596	-7.6	-7.7	264	17	
2025-10-22T00:00	4260	595	-7.8	-7.8	263	18	
2025-10-22T00:00	4280	593	-7.9	-8.0	264	18	
2025-10-22T00:00	4300	592	-8.0	-8.0	264	18	
2025-10-22T00:00	4320	590	-8.1	-8.2	264	18	
2025-10-22T00:00	4340	589	-8.1	-8.3	264	18	
2025-10-22T00:00	4360	587	-8.2	-8.3	265	18	
2025-10-22T00:00	4380	586	-8.4	-8.4	265	18	
2025-10-22T00:00	4400	584	-8.5	-8.5	266	18	
2025-10-22T00:00	4420	583	-8.6	-8.6	266	18	
2025-10-22T00:00	4440	581	-8.8	-8.8	266	19	
2025-10-22T00:00	4460	579	-8.8	-9.0	266	19	
2025-10-22T00:00	4480	578	-8.9	-9.0	266	19	
2025-10-22T00:00	4500	577	-8.9	-9.6	265	19	
2025-10-22T00:00	4520	575	-8.9	-10.3	265	19	
2025-10-22T00:00	4540	574	-8.9	-10.7	265	19	
2025-10-22T00:00	4560	572	-9.0	-10.8	265	19	
2025-10-22T00:00	4580	571	-9.1	-11.0	265	19	
2025-10-22T00:00	4600	569	-9.3	-11.2	264	19	
2025-10-22T00:00	4620	568	-9.5	-11.3	264	19	
2025-10-22T00:00	4640	566	-9.6	-11.4	264	20	
2025-10-22T00:00	4660	565	-9.7	-11.6	263	20	
2025-10-22T00:00	4680	564	-9.9	-11.7	263	20	
2025-10-22T00:00	4700	562	-10.0	-11.8	263	20	
2025-10-22T00:00	4720	560	-10.2	-11.9	262	20	
2025-10-22T00:00	4740	559	-10.3	-12.0	262	20	
2025-10-22T00:00	4760	558	-10.5	-12.3	262	20	
2025-10-22T00:00	4780	556	-10.5	-12.7	262	20	
2025-10-22T00:00	4800	555	-10.6	-12.8	262	19	
2025-10-22T00:00	4820	553	-10.8	-12.8	263	19	
2025-10-22T00:00	4840	552	-11.0	-12.9	263	19	
2025-10-22T00:00	4860	550	-11.2	-12.9	264	19	
2025-10-22T00:00	4880	549	-11.4	-12.9	264	19	
2025-10-22T00:00	4900	547	-11.6	-12.9	265	19	
2025-10-22T00:00	4920	546	-11.7	-13.0	265	19	
2025-10-22T00:00	4940	545	-11.9	-13.1	266	18	
2025-10-22T00:00	4960	543	-12.1	-13.2	266	18	
2025-10-22T00:00	4980	542	-12.2	-13.4	267	18	
2025-10-22T00:00	5000	540	-12.3	-13.7	267	18	
2025-10-22T00:00	5020	539	-12.4	-14.0	268	18	
2025-10-22T00:00	5040	538	-12.5	-14.3	269	18	
2025-10-22T00:00	5060	536	-12.6	-14.5	269	17	
2025-10-22T00:00	5080	535	-12.7	-14.7	269	17	
2025-10-22T00:00	5100	533	-12.9	-14.8	269	17	
2025-10-22T00:00	5120	532	-13.1	-14.9	269	17	
2025-10-22T00:00	5140	531	-13.3	-14.9	269	16	
2025-10-22T00:00	5160	529	-13.4	-15.0	268	16	
2025-10-22T00:00	5180	528	-13.6	-15.0	268	16	
2025-10-22T00:00	5200	527	-13.8	-15.0	268	16	
2025-10-22T00:00	5220	525	-13.9	-15.0	268	16	
2025-10-22T00:00	5240	524	-14.1	-15.1	267	16	
2025-10-22T00:00	5260	522	-14.3	-15.1	267	16	
2025-10-22T00:00	5280	521	-14.5	-15.2	267	16	
2025-10-22T00:00	5300	519	-14.7	-15.2	267	16	
2025-10-22T00:00	5320	518	-14.8	-15.3	267	16	
2025-10-22T00:00	5340	517	-15.0	-15.3	268	16	
2025-10-22T00:00	5360	516	-15.2	-15.4	268	16	
2025-10-22T00:00	5380	514	-15.4	-15.5	269	16	
2025-10-22T00:00	5400	513	-15.6	-15.6	269	15	
2025-10-22T00:00	5420	511	-15.7	-15.7	270	15	
2025-10-22T00:00	5440	510	-15.8	-15.8	270	15	
2025-10-22T00:00	5460	509	-16.0	-16.2	270	15	
2025-10-22T00:00	5480	507	-16.1	-16.4	270	15	
2025-10-22T00:00	5500	506	-15.8	-17.0	269	15	
2025-10-22T00:00	5520	505	-15.8	-17.4	269	16	
2025-10-22T00:00	5540	503	-15.8	-17.4	268	16	
2025-10-22T00:00	5560	502	-15.9	-17.6	268	16	
2025-10-22T00:00	5580	501	-16.0	-18.0	267	17	
2025-10-22T00:00	5600	499	-16.0	-17.8	266	17	
2025-10-22T00:00	5620	498	-16.1	-17.6	266	18	
2025-10-22T00:00	5640	497	-16.3	-17.8	265	18	
2025-10-22T00:00	5660	496	-16.3	-18.0	265	18	
2025-10-22T00:00	5680	494	-16.5	-18.1	265	18	
2025-10-22T00:00	5700	493	-16.7	-18.3	265	18	
2025-10-22T00:00	5720	491	-16.8	-18.7	265	18	
2025-10-22T00:00	5740	490	-17.0	-18.9	266	18	
2025-10-22T00:00	5760	489	-17.1	-19.1	266	18	
2025-10-22T00:00	5780	487	-17.2	-19.2	266	18	
2025-10-22T00:00	5800	486	-17.4	-19.5	266	18	
2025-10-22T00:00	5820	485	-17.5	-19.6	266	18	
2025-10-22T00:00	5840	484	-17.7	-19.7	266	18	
2025-10-22T00:00	5860	482	-17.9	-19.6	266	18	
2025-10-22T00:00	5880	481	-18.0	-19.7	265	18	
2025-10-22T00:00	5900	480	-18.2	-19.8	266	18	
2025-10-22T00:00	5920	478	-18.4	-19.8	266	18	
2025-10-22T00:00	5940	477	-18.6	-19.8	266	18	
2025-10-22T00:00	5960	476	-18.8	-19.8	267	18	
2025-10-22T00:00	5980	475	-19.0	-19.9	269	17	
2025-10-22T00:00	6000	473	-19.1	-20.0	270	17	
2025-10-22T00:00	6020	472	-19.3	-20.1	271	17	
2025-10-22T00:00	6040	471	-19.5	-20.4	272	17	
2025-10-22T00:00	6060	469	-19.6	-20.6	273	17	
2025-10-22T00:00	6080	468	-19.8	-20.6	273	17	
2025-10-22T00:00	6100	467	-19.9	-20.7	273	17	
2025-10-22T00:00	6120	466	-20.1	-20.9	274	17	
2025-10-22T00:00	6140	465	-20.2	-21.2	274	17	
2025-10-22T00:00	6160	463	-20.3	-21.2	274	17	
2025-10-22T00:00	6180	462	-20.5	-21.3	275	17	
2025-10-22T00:00	6200	461	-20.7	-21.5	275	17	
2025-10-22T00:00	6220	459	-20.9	-21.6	275	17	
2025-10-22T00:00	6240	458	-21.2	-21.6	275	17	
2025-10-22T00:00	6260	457	-21.4	-21.6	275	17	
2025-10-22T00:00	6280	456	-21.6	-21.7	275	17	
2025-10-22T00:00	6300	455	-21.8	-21.9	274	18	
2025-10-22T00:00	6320	453	-21.9	-22.0	274	18	
2025-10-22T00:00	6340	452	-22.0	-22.3	273	18	
2025-10-22T00:00	6360	451	-21.7	-23.7	272	19	
2025-10-22T00:00	6380	450	-21.6	-23.9	272	19	
2025-10-22T00:00	6400	448	-21.5	-24.2	272	19	
2025-10-22T00:00	6420	447	-21.5	-24.7	273	19	
2025-10-22T00:00	6440	446	-21.5	-24.7	274	19	
2025-10-22T00:00	6460	445	-21.7	-24.9	275	19	
2025-10-22T00:00	6480	444	-21.7	-25.5	277	20	
2025-10-22T00:00	6500	442	-21.7	-26.0	278	20	
2025-10-22T00:00	6520	441	-21.8	-26.1	278	20	
2025-10-22T00:00	6540	440	-22.0	-26.0	278	20	
2025-10-22T00:00	6560	439	-22.1	-26.2	279	20	
2025-10-22T00:00	6580	438	-22.3	-26.2	279	20	
2025-10-22T00:00	6600	436	-22.5	-26.3	279	20	
2025-10-22T00:00	6620	435	-22.6	-26.5	278	20	
2025-10-22T00:00	6640	434	-22.8	-26.5	278	20	
2025-10-22T00:00	6660	433	-22.9	-26.7	277	19	
2025-10-22T00:00	6680	432	-23.1	-26.9	277	19	
2025-10-22T00:00	6700	430	-23.3	-27.2	276	19	
2025-10-22T00:00	6720	429	-23.4	-27.3	275	19	
2025-10-22T00:00	6740	428	-23.6	-27.2	275	20	
2025-10-22T00:00	6760	427	-23.7	-27.2	275	20	
2025-10-22T00:00	6780	426	-23.9	-27.5	274	20	
2025-10-22T00:00	6800	425	-24.0	-28.2	274	21	
2025-10-22T00:00	6820	423	-24.2	-28.2	274	21	
2025-10-22T00:00	6840	422	-24.4	-28.5	273	21	
2025-10-22T00:00	6860	421	-24.5	-28.8	273	21	
2025-10-22T00:00	6880	420	-24.7	-29.0	273	22	
2025-10-22T00:00	6900	419	-24.8	-29.4	272	22	
2025-10-22T00:00	6920	418	-25.0	-29.5	272	22	
2025-10-22T00:00	6940	416	-25.2	-29.7	272	22	
2025-10-22T00:00	6960	415	-25.3	-29.8	272	22	
2025-10-22T00:00	6980	414	-25.5	-29.9	271	21	
2025-10-22T00:00	7000	413	-25.7	-29.9	271	21	
2025-10-22T00:00	7020	412	-25.9	-30.1	271	21	
2025-10-22T00:00	7040	411	-26.0	-30.0	270	21	
2025-10-22T00:00	7060	410	-26.2	-30.2	269	21	
2025-10-22T00:00	7080	409	-26.4	-30.1	269	21	
2025-10-22T00:00	7100	407	-26.6	-30.2	268	21	
2025-10-22T00:00	7120	406	-26.8	-30.4	267	21	
2025-10-22T00:00	7140	405	-26.9	-30.5	267	21	
2025-10-22T00:00	7160	404	-27.1	-30.6	267	21	
2025-10-22T00:00	7180	403	-27.3	-30.8	267	21	
2025-10-22T00:00	7200	402	-27.5	-30.8	268	21	
2025-10-22T00:00	7220	401	-27.7	-30.8	268	21	
2025-10-22T00:00	7240	400	-27.8	-30.8	269	21	
2025-10-22T00:00	7260	398	-28.0	-31.1	269	21	
2025-10-22T00:00	7280	397	-28.2	-31.1	269	21	
2025-10-22T00:00	7300	396	-28.3	-31.1	269	21	
2025-10-22T00:00	7320	395	-28.5	-31.1	269	21	
2025-10-22T00:00	7340	394	-28.7	-31.3	270	21	
2025-10-22T00:00	7360	393	-28.9	-31.5	270	21	
2025-10-22T00:00	7380	392	-29.0	-31.6	270	21	
2025-10-22T00:00	7400	391	-29.2	-32.0	271	21	
2025-10-22T00:00	7420	390	-29.3	-32.7	271	22	
2025-10-22T00:00	7440	389	-29.4	-32.8	272	22	
2025-10-22T00:00	7460	388	-29.5	-33.2	272	22	
2025-10-22T00:00	7480	386	-29.6	-33.6	271	22	
2025-10-22T00:00	7500	385	-29.8	-33.8	271	22	
2025-10-22T00:00	7520	384	-29.9	-34.1	271	22	
2025-10-22T00:00	7540	383	-30.0	-34.7	271	22	
2025-10-22T00:00	7560	382	-30.1	-34.9	271	22	
2025-10-22T00:00	7580	381	-30.3	-35.1	271	22	
2025-10-22T00:00	7600	380	-30.4	-35.3	271	22	
2025-10-22T00:00	7620	379	-30.6	-35.7	271	22	
2025-10-22T00:00	7640	378	-30.7	-35.7	271	23	
2025-10-22T00:00	7660	377	-30.9	-35.9	270	23	
2025-10-22T00:00	7680	376	-31.1	-36.0	270	23	
2025-10-22T00:00	7700	375	-31.3	-36.1	270	23	
2025-10-22T00:00	7720	374	-31.5	-36.6	270	23	
2025-10-22T00:00	7740	373	-31.6	-36.6	270	23	
2025-10-22T00:00	7760	371	-31.8	-36.5	270	23	
2025-10-22T00:00	7780	370	-32.0	-36.6	270	23	
2025-10-22T00:00	7800	369	-32.2	-36.6	271	23	
2025-10-22T00:00	7820	368	-32.4	-36.7	271	23	
2025-10-22T00:00	7840	367	-32.6	-36.7	271	23	
2025-10-22T00:00	7860	366	-32.8	-36.8	272	23	
2025-10-22T00:00	7880	365	-32.9	-37.0	272	23	
2025-10-22T00:00	7900	364	-33.1	-37.1	272	23	
2025-10-22T00:00	7920	363	-33.3	-37.2	272	23	
2025-10-22T00:00	7940	362	-33.5	-37.3	273	23	
2025-10-22T00:00	7960	361	-33.6	-37.4	273	23	
2025-10-22T00:00	7980	360	-33.8	-37.5	274	23	
2025-10-22T00:00	8000	359	-34.0	-37.5	274	24	
2025-10-22T00:00	8020	358	-34.1	-37.5	274	24	
2025-10-22T00:00	8040	357	-34.3	-37.6	275	24	
2025-10-22T00:00	8060	356	-34.5	-37.5	275	24	
2025-10-22T00:00	8080	355	-34.7	-37.5	276	24	
2025-10-22T00:00	8100	354	-34.8	-37.6	276	24	
2025-10-22T00:00	8120	353	-35.0	-37.9	276	24	
2025-10-22T00:00	8140	352	-35.2	-38.2	276	24	
2025-10-22T00:00	8160	351	-35.4	-38.3	276	24	
2025-10-22T00:00	8180	350	-35.5	-38.1	276	24	
2025-10-22T00:00	8200	349	-35.7	-38.0	277	24	
2025-10-22T00:00	8220	348	-35.9	-38.3	277	24	
2025-10-22T00:00	8240	347	-36.1	-38.5	277	24	
2025-10-22T00:00	8260	346	-36.2	-39.0	277	23	
2025-10-22T00:00	8280	345	-36.3	-39.3	277	23	
2025-10-22T00:00	8300	344	-36.5	-39.6	277	23	
2025-10-22T00:00	8320	343	-36.6	-40.3	277	23	
2025-10-22T00:00	8340	342	-36.8	-40.8	277	23	
2025-10-22T00:00	8360	341	-36.9	-40.7	277	22	
2025-10-22T00:00	8380	340	-37.2	-40.6	277	22	
2025-10-22T00:00	8400	339	-37.4	-40.8	277	22	
2025-10-22T00:00	8420	338	-37.5	-41.1	277	22	
2025-10-22T00:00	8440	337	-37.7	-41.3	278	22	
2025-10-22T00:00	8460	336	-37.9	-41.5	278	22	
2025-10-22T00:00	8480	335	-38.0	-41.5	279	23	
2025-10-22T00:00	8500	334	-38.3	-41.8	279	23	
2025-10-22T00:00	8520	333	-38.4	-42.2	279	23	
2025-10-22T00:00	8540	332	-38.6	-42.3	279	23	
2025-10-22T00:00	8560	331	-38.8	-42.1	279	22	
2025-10-22T00:00	8580	330	-38.9	-42.0	279	22	
2025-10-22T00:00	8600	329	-39.1	-42.0	279	22	
2025-10-22T00:00	8620	328	-39.3	-42.3	279	22	
2025-10-22T00:00	8640	327	-39.4	-42.7	280	22	
2025-10-22T00:00	8660	326	-39.5	-43.8	280	22	
2025-10-22T00:00	8680	325	-39.6	-44.5	280	22	
2025-10-22T00:00	8700	324	-39.8	-45.3	280	22	
2025-10-22T00:00	8720	324	-39.9	-45.2	280	22	
2025-10-22T00:00	8740	323	-40.1	-45.2	280	22	
2025-10-22T00:00	8760	322	-40.3	-45.1	280	22	
2025-10-22T00:00	8780	321	-40.5	-45.1	280	22	
2025-10-22T00:00	8800	320	-40.7	-45.2	280	22	
2025-10-22T00:00	8820	319	-40.9	-45.7	279	22	
2025-10-22T00:00	8840	318	-41.1	-45.7	279	22	
2025-10-22T00:00	8860	317	-41.3	-45.7	279	22	
2025-10-22T00:00	8880	316	-41.5	-46.0	279	22	
2025-10-22T00:00	8900	315	-41.6	-46.1	279	22	
2025-10-22T00:00	8920	314	-41.8	-46.1	279	21	
2025-10-22T00:00	8940	313	-42.0	-46.8	279	21	
2025-10-22T00:00	8960	312	-42.1	-47.8	279	21	
2025-10-22T00:00	8980	311	-42.2	-48.8	279	21	
2025-10-22T00:00	9000	310	-42.4	-49.7	279	21	
2025-10-22T00:00	9020	309	-42.6	-49.8	278	21	
2025-10-22T00:00	9040	309	-42.7	-49.5	278	21	
2025-10-22T00:00	9060	308	-42.9	-49.3	277	21	
2025-10-22T00:00	9080	307	-43.1	-49.4	277	21	
2025-10-22T00:00	9100	306	-43.3	-49.6	277	21	
2025-10-22T00:00	9120	305	-43.4	-49.6	277	21	
2025-10-22T00:00	9140	304	-43.6	-49.7	278	22	
2025-10-22T00:00	9160	303	-43.8	-50.0	278	22	
2025-10-22T00:00	9180	302	-44.0	-50.5	278	22	
2025-10-22T00:00	9200	301	-44.2	-50.3	278	21	
2025-10-22T00:00	9220	301	-44.4	-50.1	278	21	
2025-10-22T00:00	9240	300	-44.6	-50.4	277	21	
2025-10-22T00:00	9260	299	-44.8	-50.8	277	21	
2025-10-22T00:00	9280	298	-45.0	-50.9	277	21	
2025-10-22T00:00	9300	297	-45.2	-50.9	277	21	
2025-10-22T00:00	9320	296	-45.3	-50.9	277	21	
2025-10-22T00:00	9340	295	-45.5	-51.1	277	22	
2025-10-22T00:00	9360	294	-45.7	-51.3	277	22	
2025-10-22T00:00	9380	293	-45.9	-51.5	277	22	
2025-10-22T00:00	9400	293	-46.1	-51.6	278	22	
2025-10-22T00:00	9420	292	-46.3	-52.2	278	22	
2025-10-22T00:00	9440	291	-46.4	-53.0	278	22	
2025-10-22T00:00	9460	290	-46.6	-53.2	278	22	
2025-10-22T00:00	9480	289	-46.8	-53.1	279	22	
2025-10-22T00:00	9500	288	-47.0	-53.4	279	22	
2025-10-22T00:00	9520	287	-47.2	-53.8	279	22	
2025-10-22T00:00	9540	286	-47.4	-54.4	279	22	
2025-10-22T00:00	9560	285	-47.5	-55.1	279	22	
2025-10-22T00:00	9580	285	-47.7	-55.2	279	21	
2025-10-22T00:00	9600	284	-47.9	-55.4	279	21	
2025-10-22T00:00	9620	283	-48.1	-55.7	279	21	
2025-10-22T00:00	9640	282	-48.3	-56.0	280	21	
2025-10-22T00:00	9660	281	-48.5	-56.1	280	21	
2025-10-22T00:00	9680	280	-48.7	-56.3	280	21	
2025-10-22T00:00	9700	279	-48.9	-56.6	280	22	
2025-10-22T00:00	9720	279	-49.1	-56.7	280	22	
2025-10-22T00:00	9740	278	-49.3	-56.7	280	22	
2025-10-22T00:00	9760	277	-49.4	-56.8	281	22	
2025-10-22T00:00	9780	276	-49.6	-56.9	281	22	
2025-10-22T00:00	9800	275	-49.8	-57.0	281	22	
2025-10-22T00:00	9820	274	-50.0	-57.1	281	22	
2025-10-22T00:00	9840	274	-50.2	-57.4	281	21	
2025-10-22T00:00	9860	273	-50.4	-57.8	281	21	
2025-10-22T00:00	9880	272	-50.6	-58.0	281	21	
2025-10-22T00:00	9900	271	-50.7	-57.9	280	21	
2025-10-22T00:00	9920	270	-50.9	-57.9	280	21	
2025-10-22T00:00	9940	269	-51.1	-58.0	280	21	
2025-10-22T00:00	9960	269	-51.3	-58.1	279	21	
2025-10-22T00:00	9980	268	-51.5	-58.2	279	21	
2025-10-22T00:00	10000	267	-51.7	-58.3	279	21	
2025-10-22T00:00	10018	266	-51.9	-58.3	279	21	
2025-10-22T00:00	10050	265	-52.1	-58.8	280	20	
2025-10-22T00:00	10100	263	-52.6	-59.7	280	20	
2025-10-22T00:00	10150	261	-53.0	-59.5	280	20	
2025-10-22T00:00	10200	259	-53.5	-58.5	279	20	
2025-10-22T00:00	10250	257	-53.9	-58.3	277	19	
2025-10-22T00:00	10300	255	-54.4	-58.6	275	19	
2025-10-22T00:00	10350	253	-54.8	-59.1	274	19	
2025-10-22T00:00	10400	251	-55.2	-59.6	274	18	
2025-10-22T00:00	10450	249	-55.6	-59.9	274	19	
2025-10-22T00:00	10500	247	-56.1	-60.3	273	19	
2025-10-22T00:00	10550	245	-56.6	-60.9	272	18	
2025-10-22T00:00	10600	243	-57.1	-61.4	271	18	
2025-10-22T00:00	10650	241	-57.5	-61.9	270	19	
2025-10-22T00:00	10700	239	-58.0	-62.7	269	19	
2025-10-22T00:00	10750	237	-58.4	-63.4	270	19	
2025-10-22T00:00	10800	235	-58.8	-64.4	270	19	
2025-10-22T00:00	10850	233	-59.3	-65.4	272	19	
2025-10-22T00:00	10900	232	-59.7	-65.5	273	19	
2025-10-22T00:00	10950	230	-60.2	-65.2	274	19	
2025-10-22T00:00	11000	228	-60.6	-65.1	275	18	
2025-10-22T00:00	11050	226	-61.0	-65.3	276	17	
2025-10-22T00:00	11100	224	-60.6	-64.7	277	15	
2025-10-22T00:00	11150	223	-60.6	-64.7	276	14	
2025-10-22T00:00	11200	221	-60.8	-64.9	273	14	
2025-10-22T00:00	11250	219	-61.1	-65.4	269	15	
2025-10-22T00:00	11300	217	-61.4	-65.9	267	17	
2025-10-22T00:00	11350	216	-61.7	-66.3	266	18	
2025-10-22T00:00	11400	214	-60.7	-68.9	267	19	
2025-10-22T00:00	11450	212	-58.5	-73.9	269	20	
2025-10-22T00:00	11500	210	-58.1	-75.6	269	20	
2025-10-22T00:00	11550	209	-57.3	-76.7	269	20	
2025-10-22T00:00	11600	207	-56.7	-76.2	269	18	
2025-10-22T00:00	11650	206	-56.5	-75.3	270	18	
2025-10-22T00:00	11700	204	-55.9	-76.2	270	19	
2025-10-22T00:00	11750	202	-55.8	-77.1	270	20	
2025-10-22T00:00	11800	201	-55.8	-77.4	270	21	
2025-10-22T00:00	11850	199	-56.2	-77.4	270	23	
2025-10-22T00:00	11900	198	-55.2	-77.8	269	25	
2025-10-22T00:00	11950	196	-54.5	-77.9	271	25	
2025-10-22T00:00	12000	195	-54.4	-78.4	273	23	
2025-10-22T00:00	12050	193	-54.0	-78.6	274	22	
2025-10-22T00:00	12100	192	-53.8	-78.8	273	21	
2025-10-22T00:00	12150	190	-53.9	-78.8	272	20	
2025-10-22T00:00	12200	189	-54.0	-78.8	270	19	
2025-10-22T00:00	12250	187	-54.2	-78.8	267	19	
2025-10-22T00:00	12300	186	-54.6	-78.9	265	19	
2025-10-22T00:00	12350	184	-55.0	-79.0	264	19	
2025-10-22T00:00	12400	183	-55.1	-79.2	262	19	
2025-10-22T00:00	12450	181	-55.4	-79.2	259	19	
2025-10-22T00:00	12500	180	-55.8	-79.4	257	20	
2025-10-22T00:00	12550	178	-55.9	-79.5	257	20	
2025-10-22T00:00	12600	177	-56.0	-79.6	260	20	
2025-10-22T00:00	12650	176	-56.4	-79.7	264	21	
2025-10-22T00:00	12700	174	-56.7	-79.8	267	22	
2025-10-22T00:00	12750	173	-56.5	-79.6	269	23	
2025-10-22T00:00	12800	172	-56.5	-79.7	269	23	
2025-10-22T00:00	12850	170	-56.4	-79.7	269	23	
2025-10-22T00:00	12900	169	-56.6	-79.8	267	23	
2025-10-22T00:00	12950	168	-56.7	-79.9	263	22	
2025-10-22T00:00	13000	166	-56.6	-80.0	261	22	
2025-10-22T00:00	13050	165	-56.5	-79.9	260	23	
2025-10-22T00:00	13100	164	-56.9	-79.9	259	23	
2025-10-22T00:00	13150	162	-57.2	-79.9	261	23	
2025-10-22T00:00	13200	161	-57.0	-80.0	265	22	
2025-10-22T00:00	13250	160	-57.0	-80.2	270	22	
2025-10-22T00:00	13300	158	-57.1	-80.4	274	23	
2025-10-22T00:00	13350	157	-57.3	-80.5	278	23	
2025-10-22T00:00	13400	156	-57.5	-80.8	282	22	
2025-10-22T00:00	13450	155	-57.5	-80.9	282	21	
2025-10-22T00:00	13500	154	-57.4	-80.9	280	20	
2025-10-22T00:00	13550	152	-57.8	-81.0	278	20	
2025-10-22T00:00	13600	151	-58.1	-81.1	277	20	
2025-10-22T00:00	13650	150	-58.3	-81.0	276	21	
2025-10-22T00:00	13700	149	-58.4	-80.9	276	22	
2025-10-22T00:00	13750	148	-58.6	-81.0	276	22	
2025-10-22T00:00	13800	146	-58.8	-81.1	276	21	
2025-10-22T00:00	13850	145	-59.0	-81.3	275	22	
2025-10-22T00:00	13900	144	-59.2	-81.4	274	22	
2025-10-22T00:00	13950	143	-59.5	-81.6	274	23	
2025-10-22T00:00	14000	142	-59.7	-81.7	274	23	
2025-10-22T00:00	14050	141	-59.7	-81.9	275	23	
2025-10-22T00:00	14100	140	-60.1	-82.1	277	23	
2025-10-22T00:00	14150	138	-60.3	-82.2	279	23	
2025-10-22T00:00	14200	137	-60.4	-82.3	281	23	
2025-10-22T00:00	14250	136	-60.7	-82.5	283	22	
2025-10-22T00:00	14300	135	-60.9	-82.7	284	21	
2025-10-22T00:00	14350	134	-61.0	-82.8	283	20	
2025-10-22T00:00	14400	133	-60.9	-82.9	281	20	
2025-10-22T00:00	14450	132	-61.3	-83.1	278	20	
2025-10-22T00:00	14500	131	-61.2	-83.3	281	21	
2025-10-22T00:00	14550	130	-60.5	-83.5	287	21	
2025-10-22T00:00	14600	129	-60.3	-83.6	292	20	
2025-10-22T00:00	14650	128	-60.5	-83.6	295	19	
2025-10-22T00:00	14700	127	-60.6	-83.6	296	18	
2025-10-22T00:00	14750	126	-60.5	-83.8	294	17	
2025-10-22T00:00	14800	125	-60.2	-83.8	291	16	
2025-10-22T00:00	14850	124	-60.6	-84.0	287	16	
2025-10-22T00:00	14900	123	-60.9	-84.0	282	16	
2025-10-22T00:00	14950	122	-61.1	-84.2	277	16	
2025-10-22T00:00	15000	121	-61.2	-84.4	276	18	
2025-10-22T00:00	15050	120	-60.6	-84.4	277	19	
2025-10-22T00:00	15100	119	-60.0	-84.3	278	19	
2025-10-22T00:00	15150	118	-59.7	-84.3	280	19	
2025-10-22T00:00	15200	117	-59.5	-84.3	279	18	
2025-10-22T00:00	15250	116	-59.9	-84.3	277	17	
2025-10-22T00:00	15300	115	-60.0	-84.3	274	17	
2025-10-22T00:00	15350	114	-60.2	-84.3	273	18	
2025-10-22T00:00	15400	113	-60.2	-84.4	275	19	
2025-10-22T00:00	15450	112	-60.2	-84.4	278	20	
2025-10-22T00:00	15500	112	-60.2	-84.6	282	21	
2025-10-22T00:00	15550	111	-59.8	-84.6	285	20	
2025-10-22T00:00	15600	110	-59.7	-84.7	287	19	
2025-10-22T00:00	15650	109	-59.7	-84.5	286	18	
2025-10-22T00:00	15700	108	-60.1	-84.4	284	17	
2025-10-22T00:00	15750	107	-60.4	-84.3	283	16	
2025-10-22T00:00	15800	106	-60.4	-84.2	283	17	
2025-10-22T00:00	15850	105	-60.2	-84.2	282	17	
2025-10-22T00:00	15900	105	-60.1	-84.3	281	17	
2025-10-22T00:00	15950	104	-59.6	-84.2	278	17	
2025-10-22T00:00	16000	103	-59.6	-84.2	276	16	
2025-10-22T00:00	16050	102	-59.6	-84.4	276	16	
2025-10-22T00:00	16100	101	-59.1	-84.7	280	16	
2025-10-22T00:00	16150	100	-58.3	-84.7	282	15	
2025-10-22T00:00	16200	100	-57.8	-84.6	283	13	
2025-10-22T00:00	16250	99	-57.7	-84.4	280	13	
2025-10-22T00:00	16300	98	-57.6	-84.4	274	12	
2025-10-22T00:00	16350	97	-57.7	-84.4	268	12	
2025-10-22T00:00	16400	97	-57.9	-84.4	262	11	
2025-10-22T00:00	16450	96	-58.2	-84.5	258	11	
2025-10-22T00:00	16500	95	-58.7	-84.6	257	12	
2025-10-22T00:00	16550	94	-58.8	-84.7	256	13	
2025-10-22T00:00	16600	94	-59.1	-84.7	257	14	
2025-10-22T00:00	16650	93	-59.4	-84.8	256	15	
2025-10-22T00:00	16700	92	-59.5	-84.9	255	15	
2025-10-22T00:00	16750	91	-59.5	-84.9	255	16	
2025-10-22T00:00	16800	91	-59.5	-85.0	257	16	
2025-10-22T00:00	16850	90	-59.5	-85.1	259	16	
2025-10-22T00:00	16900	89	-59.7	-85.2	262	16	
2025-10-22T00:00	16950	88	-59.8	-85.2	265	16	
2025-10-22T00:00	17000	88	-59.8	-85.3	267	17	
2025-10-22T00:00	17050	87	-59.7	-85.4	269	16	
2025-10-22T00:00	17100	86	-59.5	-85.4	270	15	
2025-10-22T00:00	17150	86	-59.6	-85.5	268	15	
2025-10-22T00:00	17200	85	-59.8	-85.5	265	14	
2025-10-22T00:00	17250	84	-60.1	-85.6	262	14	
2025-10-22T00:00	17300	84	-60.2	-85.7	260	14	
2025-10-22T00:00	17350	83	-60.3	-85.8	260	14	
2025-10-22T00:00	17400	82	-60.3	-85.7	260	15	
2025-10-22T00:00	17450	82	-60.5	-85.8	262	15	
2025-10-22T00:00	17500	81	-60.8	-85.9	265	16	
2025-10-22T00:00	17550	80	-61.0	-86.0	270	15	
2025-10-22T00:00	17600	80	-61.2	-86.0	275	15	
2025-10-22T00:00	17650	79	-61.3	-86.1	278	14	
2025-10-22T00:00	17700	78	-61.4	-86.1	279	13	
2025-10-22T00:00	17750	78	-61.6	-86.1	278	12	
2025-10-22T00:00	17800	77	-62.0	-86.2	277	12	
2025-10-22T00:00	17850	77	-62.2	-86.4	274	12	
2025-10-22T00:00	17900	76	-62.1	-86.5	269	12	
2025-10-22T00:00	17950	75	-62.1	-86.5	265	12	
2025-10-22T00:00	18000	75	-62.0	-86.6	264	13	
2025-10-22T00:00	18050	74	-61.7	-86.6	265	13	
2025-10-22T00:00	18100	74	-61.7	-86.7	268	14	
2025-10-22T00:00	18150	73	-61.7	-86.8	272	14	
2025-10-22T00:00	18200	72	-61.5	-86.8	275	13	
2025-10-22T00:00	18250	72	-61.4	-86.7	274	13	
2025-10-22T00:00	18300	71	-61.3	-86.7	272	14	
2025-10-22T00:00	18350	71	-61.4	-86.9	272	15	
2025-10-22T00:00	18400	70	-61.0	-86.8	273	15	
2025-10-22T00:00	18450	69	-60.7	-86.8	274	15	
2025-10-22T00:00	18500	69	-60.6	-86.8	275	15	
2025-10-22T00:00	18550	68	-60.4	-86.6	278	15	
2025-10-22T00:00	18600	68	-60.4	-86.7	283	14	
2025-10-22T00:00	18650	67	-60.3	-86.7	287	13	
2025-10-22T00:00	18700	67	-60.0	-86.7	287	12	
2025-10-22T00:00	18750	66	-59.9	-86.6	285	13	
2025-10-22T00:00	18800	66	-59.8	-86.5	286	15	
2025-10-22T00:00	18850	65	-59.9	-86.5	286	14	
2025-10-22T00:00	18900	65	-59.8	-86.3	283	13	
2025-10-22T00:00	18950	64	-60.0	-86.4	276	11	
2025-10-22T00:00	19000	64	-60.1	-86.5	264	10	
2025-10-22T00:00	19050	63	-60.0	-86.5	254	11	
2025-10-22T00:00	19100	63	-60.1	-86.6	248	11	
2025-10-22T00:00	19150	62	-60.0	-86.6	252	11	
2025-10-22T00:00	19200	62	-60.0	-86.6	262	12	
2025-10-22T00:00	19250	61	-60.1	-86.7	273	13	
2025-10-22T00:00	19300	61	-59.9	-86.6	279	14	
2025-10-22T00:00	19350	60	-60.0	-86.7	283	13	
2025-10-22T00:00	19400	60	-59.6	-86.8	286	12	
2025-10-22T00:00	19450	59	-59.0	-86.5	287	12	
2025-10-22T00:00	19500	59	-59.0	-86.4	286	11	
2025-10-22T00:00	19550	58	-59.0	-86.3	286	10	
2025-10-22T00:00	19600	58	-59.2	-86.3	288	10	
2025-10-22T00:00	19650	57	-59.5	-86.4	286	9	
2025-10-22T00:00	19700	57	-59.4	-86.3	282	8	
2025-10-22T00:00	19750	56	-59.6	-86.3	278	8	
2025-10-22T00:00	19800	56	-59.9	-86.5	277	8	
2025-10-22T00:00	19850	56	-59.8	-86.5	276	8	
2025-10-22T00:00	19900	55	-60.0	-86.6	271	9	
2025-10-22T00:00	19950	55	-60.0	-86.5	267	10	
2025-10-22T00:00	20000	54	-60.2	-86.5	264	11	
2025-10-22T00:00	20050	54	-60.6		263	11	
2025-10-22T00:00	20100	53	-61.0		262	12	
2025-10-22T00:00	20150	53	-61.5		260	13	
2025-10-22T00:00	20200	52	-61.9		260	14	
2025-10-22T00:00	20250	52	-62.2		261	13	
2025-10-22T00:00	20300	52	-62.2		263	12	
2025-10-22T00:00	20350	51	-62.2		266	12	
2025-10-22T00:00	20400	51	-62.4		270	11	
2025-10-22T00:00	20450	50	-62.7		273	11	
2025-10-22T00:00	20500	50	-62.9		276	11	
2025-10-22T00:00	20550	50	-63.0		279	12	
2025-10-22T00:00	20600	49	-63.1		280	12	
2025-10-22T00:00	20650	49	-63.1		280	12	
2025-10-22T00:00	20700	48	-63.2		281	13	
2025-10-22T00:00	20750	48	-63.3		280	13	
2025-10-22T00:00	20800	48	-63.5		278	14	
2025-10-22T00:00	20850	47	-63.5		275	14	
2025-10-22T00:00	20900	47	-63.6		275	15	
2025-10-22T00:00	20950	46	-63.5		278	15	
2025-10-22T00:00	21000	46	-63.7		282	15	
2025-10-22T00:00	21050	46	-63.9		285	15	
2025-10-22T00:00	21100	45	-64.0		284	15	
2025-10-22T00:00	21150	45	-63.9		282	15	
2025-10-22T00:00	21200	45	-64.0		281	16	
2025-10-22T00:00	21250	44	-63.8		282	16	
2025-10-22T00:00	21300	44	-63.1		283	15	
2025-10-22T00:00	21350	44	-63.0		281	14	
2025-10-22T00:00	21400	43	-62.0		285	14	
2025-10-22T00:00	21450	43	-61.5		294	14	
2025-10-22T00:00	21500	42	-61.2		300	13	
2025-10-22T00:00	21550	42	-60.7		296	13	
2025-10-22T00:00	21600	42	-60.6		290	14	
2025-10-22T00:00	21650	41	-60.7		287	15	
2025-10-22T00:00	21700	41	-60.7		286	15	
2025-10-22T00:00	21750	41	-60.4		286	15	
2025-10-22T00:00	21800	40	-60.2		284	14	
2025-10-22T00:00	21850	40	-59.7		282	13	
2025-10-22T00:00	21900	40	-59.7		278	12	
2025-10-22T00:00	21950	40	-59.6		272	11	
2025-10-22T00:00	22000	39	-60.0		266	10	
2025-10-22T00:00	22050	39	-60.0		259	9	
2025-10-22T00:00	22100	39	-60.2		254	10	
2025-10-22T00:00	22150	38	-60.1		249	11	
2025-10-22T00:00	22200	38	-60.2		244	12	
2025-10-22T00:00	22250	38	-60.4		241	13	
2025-10-22T00:00	22300	37	-60.1		241	14	
2025-10-22T00:00	22350	37	-59.8		245	15	
2025-10-22T00:00	22400	37	-59.9		249	16	
2025-10-22T00:00	22450	36	-60.1		252	17	
2025-10-22T00:00	22500	36	-60.4		255	18	
2025-10-22T00:00	22550	36	-60.7		258	19	
2025-10-22T00:00	22600	36	-61.1		261	19	
2025-10-22T00:00	22650	35	-61.3		265	19	
2025-10-22T00:00	22700	35	-61.2		267	18	
2025-10-22T00:00	22750	35	-60.7		267	15	
2025-10-22T00:00	22800	34	-60.4		265	13	
2025-10-22T00:00	22850	34	-60.4		264	12	
2025-10-22T00:00	22900	34	-60.3		264	11	
2025-10-22T00:00	22950	34	-60.1		266	12	
2025-10-22T00:00	23000	33	-59.7		269	13	
2025-10-22T00:00	23050	33	-59.4		272	14	
2025-10-22T00:00	23100	33	-59.2		276	14	
2025-10-22T00:00	23150	33	-58.8		279	14	
2025-10-22T00:00	23200	32	-58.4		278	13	
2025-10-22T00:00	23250	32	-58.5		277	12	
2025-10-22T00:00	23300	32	-58.7		276	12	
2025-10-22T00:00	23350	32	-58.8		279	12	
2025-10-22T00:00	23400	31	-58.9		281	12	
2025-10-22T00:00	23450	31	-58.3		282	12	
2025-10-22T00:00	23500	31	-57.9		283	13	
2025-10-22T00:00	23550	31	-57.8		281	13	
2025-10-22T00:00	23600	30	-57.8		277	13	
2025-10-22T00:00	23650	30	-57.3		271	13	
2025-10-22T00:00	23700	30	-57.4		265	13	
2025-10-22T00:00	23750	30	-57.5		259	14	
2025-10-22T00:00	23800	29	-57.8		252	14	
2025-10-22T00:00	23850	29	-58.1		247	15	
2025-10-22T00:00	23900	29	-58.3		244	17	
2025-10-22T00:00	23950	29	-58.1		243	18	
2025-10-22T00:00	24000	28	-57.7		241	19	
2025-10-22T00:00	24050	28	-57.9		241	19	
2025-10-22T00:00	24100	28	-58.2		243	20	
2025-10-22T00:00	24150	28	-58.4		248	21	
2025-10-22T00:00	24200	28	-58.2		252	21	
2025-10-22T00:00	24250	27	-57.9		255	23	
2025-10-22T00:00	24300	27	-56.6		258	23	
2025-10-22T00:00	24350	27	-55.6		260	22	
2025-10-22T00:00	24400	27	-55.7		262	21	
2025-10-22T00:00	24450	27	-56.1		266	20	
2025-10-22T00:00	24500	26	-56.4		268	20	
2025-10-22T00:00	24550	26	-56.7		266	20	
2025-10-22T00:00	24600	26	-56.7		264	20	
2025-10-22T00:00	24650	26	-56.5		266	20	
2025-10-22T00:00	24700	26	-56.6		267	20	
2025-10-22T00:00	24750	25	-56.9		267	20	
2025-10-22T00:00	24800	25	-56.9		266	20	
2025-10-22T00:00	24850	25	-56.7		265	22	
2025-10-22T00:00	24900	25	-56.7		264	23	
2025-10-22T00:00	24950	25	-56.6		264	24	
2025-10-22T00:00	25000	24	-56.1		266	25	
2025-10-22T00:00	25050	24	-55.7		269	25	
2025-10-22T00:00	25100	24	-55.8		271	25	
2025-10-22T00:00	25150	24	-55.7		272	25	
2025-10-22T00:00	25200	24	-56.0		272	25	
2025-10-22T00:00	25250	23	-56.1		273	25	
2025-10-22T00:00	25300	23	-56.1		275	25	
2025-10-22T00:00	25350	23	-55.4		277	26	
2025-10-22T00:00	25400	23	-55.3		277	26	
2025-10-22T00:00	25450	23	-55.3		275	26	
2025-10-22T00:00	25500	22	-55.0		273	25	
2025-10-22T00:00	25550	22	-54.4		273	25	
2025-10-22T00:00	25600	22	-53.9		275	24	
2025-10-22T00:00	25650	22	-53.4		277	24	
2025-10-22T00:00	25700	22	-53.4		278	25	
2025-10-22T00:00	25750	22	-53.5		278	25	
2025-10-22T00:00	25800	21	-53.5		279	26	
2025-10-22T00:00	25850	21	-53.3		279	26	
2025-10-22T00:00	25900	21	-53.1		279	27	
2025-10-22T00:00	25950	21	-53.2		279	27	
2025-10-22T00:00	26000	21	-53.3		280	26	
2025-10-22T00:00	26050	21	-53.4		282	26	
2025-10-22T00:00	26100	20	-53.2		284	25	
2025-10-22T00:00	26150	20	-53.2		286	24	
2025-10-22T00:00	26200	20	-53.5		288	24	
2025-10-22T00:00	26250	20	-53.6		290	25	
2025-10-22T00:00	26300	20	-53.6		290	26	
2025-10-22T00:00	26350	20	-53.1		288	26	
2025-10-22T00:00	26400	20	-52.9		287	26	
2025-10-22T00:00	26450	19	-52.8		286	27	
2025-10-22T00:00	26500	19	-52.0		287	28	
2025-10-22T00:00	26550	19	-51.4		290	28	
2025-10-22T00:00	26600	19	-51.3		293	27	
2025-10-22T00:00	26650	19	-50.9		293	25	
2025-10-22T00:00	26700	19	-50.4		291	24	
2025-10-22T00:00	26750	19	-50.3		289	23	
2025-10-22T00:00	26800	18	-49.9		287	22	
2025-10-22T00:00	26850	18	-49.4		282	21	
2025-10-22T00:00	26900	18	-48.9		276	20	
2025-10-22T00:00	26950	18	-48.9		270	20	
2025-10-22T00:00	27000	18	-49.1		264	21	
2025-10-22T00:00	27050	18	-49.2		260	21	
2025-10-22T00:00	27100	18	-49.4		257	22	
2025-10-22T00:00	27150	17	-49.2		256	22	
2025-10-22T00:00	27200	17	-49.0		256	23	
2025-10-22T00:00	27250	17	-48.8		256	23	
2025-10-22T00:00	27300	17	-48.4		255	24	
2025-10-22T00:00	27350	17	-48.2		254	25	
2025-10-22T00:00	27400	17	-48.5		253	26	
2025-10-22T00:00	27450	17	-48.7		252	26	
2025-10-22T00:00	27500	17	-48.9		252	26	
2025-10-22T00:00	27550	16	-49.0		252	26	
2025-10-22T00:00	27600	16	-48.9		252	26	
2025-10-22T00:00	27650	16	-48.8		253	26	
2025-10-22T00:00	27700	16	-49.1		253	26	
2025-10-22T00:00	27750	16	-49.1		254	25	
2025-10-22T00:00	27800	16	-49.3		255	24	
2025-10-22T00:00	27850	16	-49.6		256	24	
2025-10-22T00:00	27900	16	-50.0		258	23	
2025-10-22T00:00	27950	15	-50.3		261	23	
2025-10-22T00:00	28000	15	-50.6		262	23	
2025-10-22T00:00	28050	15	-51.0		262	23	
2025-10-22T00:00	28100	15	-51.1		262	23	
2025-10-22T00:00	28150	15	-51.3		261	23	
2025-10-22T00:00	28200	15	-51.6		259	24	
2025-10-22T00:00	28250	15	-52.1		258	24	
2025-10-22T00:00	28300	15	-52.5		256	24	
2025-10-22T00:00	28350	15	-53.0		253	25	
2025-10-22T00:00	28400	14	-53.3		251	25	
2025-10-22T00:00	28450	14	-53.5		251	25	
2025-10-22T00:00	28500	14	-53.2		252	25	
2025-10-22T00:00	28550	14	-53.4		254	24	
2025-10-22T00:00	28600	14	-53.8		256	23	
2025-10-22T00:00	28650	14	-54.1		257	23	
2025-10-22T00:00	28700	14	-54.6		258	23	
2025-10-22T00:00	28750	14	-54.4		257	23	
2025-10-22T00:00	28800	14	-53.9		256	24	
2025-10-22T00:00	28850	13	-53.4		255	25	
2025-10-22T00:00	28900	13	-53.1		255	26	
2025-10-22T00:00	28950	13	-53.3		256	27	
2025-10-22T00:00	29000	13	-53.4		257	28	
2025-10-22T00:00	29050	13	-53.8		257	30	
2025-10-22T00:00	29100	13	-54.0		258	31	
2025-10-22T00:00	29150	13	-53.8		259	32	
2025-10-22T00:00	29200	13	-53.7		258	34	
2025-10-22T00:00	29250	13	-53.2		259	34	
2025-10-22T00:00	29300	13	-52.8		260	34	
2025-10-22T00:00	29350	12	-52.6		261	33	
2025-10-22T00:00	29400	12	-52.6		261	32	
2025-10-22T00:00	29450	12	-52.7		262	32	
2025-10-22T00:00	29500	12	-52.7		264	32	
2025-10-22T00:00	29550	12	-52.6		265	32	
2025-10-22T00:00	29600	12	-52.3		265	32	
2025-10-22T00:00	29650	12	-51.6		265	32	
2025-10-22T00:00	29700	12	-51.0		265	32	
2025-10-22T00:00	29750	12	-50.4		266	33	
2025-10-22T00:00	29800	12	-50.5		266	33	
2025-10-22T00:00	29850	11	-50.3		266	34	
2025-10-22T00:00	29900	11	-50.2		265	35	
2025-10-22T00:00	29950	11	-50.0		265	36	
2025-10-22T00:00	30000	11	-49.8		265	37	
2025-10-22T00:00	30050	11	-49.9		266	37	
2025-10-22T00:00	30100	11	-49.9		268	37	
2025-10-22T00:00	30150	11	-49.7		270	37	
2025-10-22T00:00	30200	11	-49.7		273	36	
2025-10-22T00:00	30250	11	-49.8		274	36	
2025-10-22T00:00	30300	11	-49.6		273	36	
2025-10-22T00:00	30350	11	-49.4		272	36	
2025-10-22T00:00	30400	11	-49.4		271	35	
2025-10-22T00:00	30450	10	-49.6		268	35	
2025-10-22T00:00	30500	10	-49.4		266	35	
2025-10-22T00:00	30550	10	-49.2		265	34	
2025-10-22T00:00	30600	10	-48.8		265	34	
2025-10-22T00:00	30650	10	-48.8		265	33	
2025-10-22T00:00	30700	10	-48.9		263	33	
2025-10-22T00:00	30750	10	-48.8		261	34	
2025-10-22T00:00	30800	10	-48.6		260	34	
2025-10-22T00:00	30850	10	-48.6		259	35	
2025-10-22T00:00	30900	10	-48.7		260	36	
2025-10-22T00:00	30950	10	-48.7		261	37	
2025-10-22T00:00	31000	10	-49.0		261	37	
2025-10-22T00:00	31050	10	-49.1		262	36	
2025-10-22T00:00	31100	9	-49.3		262	35	
2025-10-22T00:00	31150	9	-49.7		263	34	
2025-10-22T00:00	31200	9	-50.0		265	34	
2025-10-22T00:00	31250	9	-50.1		266	35	
2025-10-22T00:00	31300	9	-50.1		267	36	
2025-10-22T00:00	31350	9	-50.0		267	37	
2025-10-22T00:00	31400	9	-50.2		268	37	
2025-10-22T00:00	31450	9	-50.4		269	38	
2025-10-22T00:00	31500	9	-50.5		270	39	
2025-10-22T00:00	31550	9	-50.6		271	40	
2025-10-22T00:00	31600	9	-50.7		271	40	
2025-10-22T00:00	31650	9	-49.4		271	39	
2025-10-22T00:00	31700	9	-48.5		269	37	
2025-10-22T00:00	31750	9	-48.5		267	36	
2025-10-22T00:00	31800	9	-48.4		265	35	
2025-10-22T00:00	31850	8	-48.3		263	34	
2025-10-22T00:00	31900	8	-48.5		262	33	
2025-10-22T00:00	31950	8	-48.5		262	33	
2025-10-22T00:00	32000	8	-48.6		262	33	
2025-10-22T00:00	32050	8	-48.8		263	33	
2025-10-22T00:00	32100	8	-48.8		264	34	
2025-10-22T00:00	32150	8	-48.7		264	35	
2025-10-22T00:00	32200	8	-48.8		264	36	
2025-10-22T00:00	32250	8	-49.0		264	37	
2025-10-22T00:00	32300	8	-49.1		264	38	
2025-10-22T00:00	32350	8	-49.2		265	39	
2025-10-22T00:00	32400	8	-49.1		266	40	
2025-10-22T00:00	32450	8	-48.9		267	41	
2025-10-22T00:00	32500	8	-48.8		266	41	
2025-10-22T00:00	32550	8	-48.4		264	40	
2025-10-22T00:00	32600	8	-48.4		262	40	
2025-10-22T00:00	32650	7	-48.3		262	38	
2025-10-22T00:00	32700	7	-48.0		263	38	
2025-10-22T00:00	32750	7	-47.8		265	38	
2025-10-22T00:00	32800	7	-47.6		266	38	
2025-10-22T00:00	32850	7	-47.1		266	37	
2025-10-22T00:00	32900	7	-46.8		266	37	
2025-10-22T00:00	32950	7	-46.5		266	36	
2025-10-22T00:00	33000	7	-46.3		268	36	
2025-10-22T00:00	33050	7	-46.1		270	36	
2025-10-22T00:00	33100	7	-46.1		272	36	
2025-10-22T00:00	33150	7	-45.9		272	36	
2025-10-22T00:00	33200	7	-45.5		272	36	
2025-10-22T00:00	33250	7	-45.7		272	36	
2025-10-22T00:00	33300	7	-45.9		271	36	
2025-10-22T00:00	33350	7	-46.2		271	37	
2025-10-22T00:00	33400	7	-46.5		271	37	
2025-10-22T00:00	33450	7	-46.7		272	38	
2025-10-22T00:00	33500	7	-46.6		272	38	
2025-10-22T00:00	33550	7	-46.5		272	38	
2025-10-22T00:00	33600	6	-46.5		271	38	
2025-10-22T00:00	33650	6	-46.4		270	38	
2025-10-22T00:00	33700	6	-46.3		268	39	
2025-10-22T00:00	33750	6	-46.3		265	39	
2025-10-22T00:00	33800	6	-46.2		264	40	
2025-10-22T00:00	33850	6	-45.7		262	42	
2025-10-22T00:00	33900	6	-44.8		262	43	
2025-10-22T00:00	33950	6	-44.2		262	43	
2025-10-22T00:00	34000	6	-44.2		262	42	
2025-10-22T00:00	34050	6	-44.1		262	42	
2025-10-22T00:00	34100	6	-43.8		263	43	
2025-10-22T00:00	34150	6	-43.6		264	43	
2025-10-22T00:00	34200	6	-43.8		266	42	
2025-10-22T00:00	34250	6	-43.9		267	42	
2025-10-22T00:00	34300	6	-43.8		268	41	
2025-10-22T00:00	34350	6	-43.8		267	40	
2025-10-22T00:00	34400	6	-44.0		267	40	
2025-10-22T00:00	34450	6	-44.1		267	39	
2025-10-22T00:00	34500	6	-44.2		266	38	
2025-10-22T00:00	34550	6	-44.5		266	38	
2025-10-22T00:00	34600	6	-44.6		265	38	
2025-10-22T00:00	34650	6	-44.7		264	38	
2025-10-22T00:00	34700	6	-44.4		262	39	
2025-10-22T00:00	34750	5	-44.4		261	39	
2025-10-22T00:00	34800	5	-44.4		261	40	
2025-10-22T00:00	34850	5	-44.2		261	40	
2025-10-22T00:00	34900	5	-43.9		260	41	
2025-10-22T00:00	34950	5	-44.2		260	42	
2025-10-22T00:00	35000	5	-44.6		260	42	
2025-10-22T00:00	35050	5	-44.8		260	42	
2025-10-22T00:00	35100	5	-45.0		261	43	
2025-10-22T00:00	35150	5	-45.2		261	43	
2025-10-22T00:00	35200	5	-45.2		262	43	
2025-10-22T00:00	35250	5	-45.4		262	44	
2025-10-22T00:00	35300	5	-45.5		262	44	
2025-10-22T00:00	35350	5	-45.8		262	45	
2025-10-22T00:00	35400	5	-46.1		262	45	
2025-10-22T00:00	35450	5	-46.1		262	46	
2025-10-22T00:00	35500	5	-46.0		262	46	
2025-10-22T00:00	35550	5	-45.8		262	46	
2025-10-22T00:00	35600	5	-45.6		262	46	
2025-10-22T00:00	35650	5	-45.5		261	45	
2025-10-22T00:00	35700	5	-45.4		260	45	
2025-10-22T00:00	35750	5	-45.2		258	44	
2025-10-22T00:00	35800	5	-45.3		256	43	
2025-10-22T12:00	491	948	16.3	12.6	202	3	2.9
2025-10-22T12:00	501	946	16.0	12.7	199	4	2.9
2025-10-22T12:00	520	944	15.8	12.3	202	5	2.9
2025-10-22T12:00	540	942	15.6	12.2	203	6	2.9
2025-10-22T12:00	560	940	15.3	12.1	205	7	2.9
2025-10-22T12:00	580	938	15.2	12.0	206	8	2.9
2025-10-22T12:00	600	936	14.9	11.9	208	9	2.9
2025-10-22T12:00	620	933	14.8	11.4	209	10	2.9
2025-10-22T12:00	640	931	14.7	11.3	210	11	2.9
2025-10-22T12:00	660	929	14.5	11.4	211	12	3.0
2025-10-22T12:00	680	927	14.4	10.9	212	13	3.0
2025-10-22T12:00	700	925	14.5	10.5	212	13	3.0
2025-10-22T12:00	720	922	14.3	10.6	213	14	3.1
2025-10-22T12:00	740	920	14.0	10.5	213	14	3.2
2025-10-22T12:00	760	918	14.1	10.2	213	15	3.3
2025-10-22T12:00	780	916	13.9	10.3	214	15	3.3
2025-10-22T12:00	800	914	13.7	10.2	214	16	3.3
2025-10-22T12:00	820	911	13.6	10.0	213	16	3.3
2025-10-22T12:00	840	909	13.5	9.9	214	16	3.4
2025-10-22T12:00	860	907	13.4	10.0	214	16	3.4
2025-10-22T12:00	880	905	13.2	9.8	214	16	3.4
2025-10-22T12:00	900	903	13.1	9.6	215	16	3.4
2025-10-22T12:00	920	901	13.1	9.5	216	16	3.5
2025-10-22T12:00	940	899	12.9	9.4	217	17	3.5
2025-10-22T12:00	960	897	12.8	9.2	218	17	3.5
2025-10-22T12:00	980	894	12.7	8.9	220	17	3.6
2025-10-22T12:00	1000	892	12.7	8.7	221	17	3.6
2025-10-22T12:00	1020	890	12.6	8.6	222	17	3.6
2025-10-22T12:00	1040	888	12.4	8.6	223	18	3.6
2025-10-22T12:00	1060	886	12.3	8.4	223	18	3.6
2025-10-22T12:00	1080	884	12.2	8.4	224	18	3.6
2025-10-22T12:00	1100	882	11.9	8.3	226	17	3.7
2025-10-22T12:00	1120	880	11.8	8.2	227	17	3.7
2025-10-22T12:00	1140	878	11.7	8.1	228	17	3.7
2025-10-22T12:00	1160	875	11.5	8.1	230	16	3.7
2025-10-22T12:00	1180	873	11.4	8.0	232	16	3.7
2025-10-22T12:00	1200	871	11.2	8.0	234	16	3.6
2025-10-22T12:00	1220	869	11.2	7.8	234	15	3.6
2025-10-22T12:00	1240	867	11.3	7.1	235	15	3.6
2025-10-22T12:00	1260	865	11.4	6.8	235	15	3.7
2025-10-22T12:00	1280	863	11.3	6.8	236	15	3.7
2025-10-22T12:00	1300	861	11.1	6.7	236	15	3.7
2025-10-22T12:00	1320	859	11.1	6.7	237	15	3.7
2025-10-22T12:00	1340	857	10.9	6.6	237	15	3.7
2025-10-22T12:00	1360	855	10.8	6.6	238	15	3.7
2025-10-22T12:00	1380	853	10.6	6.6	239	15	3.7
2025-10-22T12:00	1400	851	10.3	6.6	240	15	3.8
2025-10-22T12:00	1420	849	10.2	6.5	241	16	3.7
2025-10-22T12:00	1440	846	10.0	6.5	241	16	3.7
2025-10-22T12:00	1460	845	9.7	6.4	242	16	3.7
2025-10-22T12:00	1480	842	9.5	6.5	242	16	3.7
2025-10-22T12:00	1500	840	9.3	6.5	242	16	3.7
2025-10-22T12:00	1520	838	9.1	6.5	242	15	3.7
2025-10-22T12:00	1540	836	9.0	6.5	243	15	3.7
2025-10-22T12:00	1560	834	8.8	6.4	244	15	3.7
2025-10-22T12:00	1580	832	8.6	6.4	245	15	3.7
2025-10-22T12:00	1600	830	8.4	6.3	246	16	3.7
2025-10-22T12:00	1620	828	8.2	6.3	246	16	3.7
2025-10-22T12:00	1640	826	8.0	6.3	245	15	3.7
2025-10-22T12:00	1660	824	7.8	6.3	244	15	3.7
2025-10-22T12:00	1680	822	7.7	6.2	243	15	3.6
2025-10-22T12:00	1700	820	7.5	6.1	242	15	3.6
2025-10-22T12:00	1720	819	7.3	6.2	242	14	3.6
2025-10-22T12:00	1740	816	7.1	6.1	243	14	3.6
2025-10-22T12:00	1760	814	7.0	5.8	244	14	3.6
2025-10-22T12:00	1780	812	6.9	5.7	245	15	3.6
2025-10-22T12:00	1800	811	6.8	5.7	247	15	3.6
2025-10-22T12:00	1820	809	6.5	5.8	248	15	3.6
2025-10-22T12:00	1840	807	6.4	5.6	249	15	3.6
2025-10-22T12:00	1860	805	6.2	5.5	250	15	3.6
2025-10-22T12:00	1880	803	6.1	5.5	252	15	3.6
2025-10-22T12:00	1900	800	5.8	5.4	253	16	3.6
2025-10-22T12:00	1920	798	5.7	5.3	254	16	3.6
2025-10-22T12:00	1940	797	5.5	5.2	255	16	3.6
2025-10-22T12:00	1960	795	5.5	4.9	255	16	3.6
2025-10-22T12:00	1980	793	5.5	4.5	255	16	3.6
2025-10-22T12:00	2000	791	5.4	4.3	254	16	3.6
2025-10-22T12:00	2020	789	5.3	4.1	254	16	3.6
2025-10-22T12:00	2040	787	5.3	3.5	253	16	3.6
2025-10-22T12:00	2060	785	5.3	3.1	252	16	3.7
2025-10-22T12:00	2080	783	5.1	3.0	251	16	3.7
2025-10-22T12:00	2100	781	5.0	3.0	250	16	3.7
2025-10-22T12:00	2120	780	4.9	3.4	249	16	3.7
2025-10-22T12:00	2140	778	4.7	3.8	248	16	3.7
2025-10-22T12:00	2160	776	4.5	3.8	249	16	3.7
2025-10-22T12:00	2180	774	4.4	3.8	250	16	3.7
2025-10-22T12:00	2200	772	4.3	3.6	251	16	3.7
2025-10-22T12:00	2220	770	4.2	3.5	253	16	3.7
2025-10-22T12:00	2240	768	4.1	3.5	254	16	3.7
2025-10-22T12:00	2260	766	3.9	3.4	255	16	3.6
2025-10-22T12:00	2280	764	3.7	3.4	255	16	3.6
2025-10-22T12:00	2300	762	3.7	2.9	254	16	3.6
2025-10-22T12:00	2320	760	3.9	2.2	253	16	3.6
2025-10-22T12:00	2340	759	3.8	2.2	252	16	3.6
2025-10-22T12:00	2360	757	3.5	2.2	251	16	3.6
2025-10-22T12:00	2380	755	3.5	1.9	250	16	3.6
2025-10-22T12:00	2400	753	3.3	1.8	249	16	3.6
2025-10-22T12:00	2420	751	3.1	1.7	247	17	3.7
2025-10-22T12:00	2440	749	3.0	1.4	246	17	3.6
2025-10-22T12:00	2460	747	2.9	1.6	245	16	3.6
2025-10-22T12:00	2480	746	2.8	1.7	242	16	3.6
2025-10-22T12:00	2500	744	2.7	1.6	240	15	3.6
2025-10-22T12:00	2520	742	2.6	1.2	238	14	3.5
2025-10-22T12:00	2540	740	2.5	1.1	237	13	3.5
2025-10-22T12:00	2560	738	2.5	0.7	235	12	3.5
2025-10-22T12:00	2580	737	2.6	0.4	234	12	3.6
2025-10-22T12:00	2600	735	2.4	0.4	234	12	3.6
2025-10-22T12:00	2620	733	2.3	0.3	234	13	3.6
2025-10-22T12:00	2640	731	2.2	0.2	234	14	3.6
2025-10-22T12:00	2660	729	2.1	0.2	235	15	3.6
2025-10-22T12:00	2680	727	2.0	0.0	236	16	3.6
2025-10-22T12:00	2700	726	1.9	0.0	237	17	3.6
2025-10-22T12:00	2720	724	1.8	-0.2	237	18	3.6
2025-10-22T12:00	2740	722	1.6	-0.3	237	18	3.6
2025-10-22T12:00	2760	720	1.5	-0.3	237	18	3.5
2025-10-22T12:00	2780	719	1.3	-0.4	236	18	3.6
2025-10-22T12:00	2800	717	1.2	-0.5	236	18	3.6
2025-10-22T12:00	2820	715	1.0	-0.5	237	17	3.5
2025-10-22T12:00	2840	713	0.9	-0.5	238	17	3.5
2025-10-22T12:00	2860	712	0.6	-0.5	240	16	3.5
2025-10-22T12:00	2880	710	0.5	-0.7	242	16	3.5
2025-10-22T12:00	2900	708	0.4	-0.8	243	15	3.5
2025-10-22T12:00	2920	706	0.3	-0.9	245	15	3.5
2025-10-22T12:00	2940	704	0.2	-1.1	246	15	3.5
2025-10-22T12:00	2960	702	0.0	-1.2	246	15	3.5
2025-10-22T12:00	2980	701	-0.1	-1.1	246	15	3.4
2025-10-22T12:00	3000	699	-0.2	-1.1	246	15	3.4
2025-10-22T12:00	3020	697	-0.2	-1.4	245	16	3.4
2025-10-22T12:00	3040	696	-0.3	-1.4	244	16	3.4
2025-10-22T12:00	3060	694	-0.4	-1.6	243	17	3.4
2025-10-22T12:00	3080	692	-0.5	-1.8	241	17	3.4
2025-10-22T12:00	3100	690	-0.6	-1.9	240	17	3.4
2025-10-22T12:00	3120	689	-0.8	-2.0	239	17	3.3
2025-10-22T12:00	3140	687	-0.9	-2.0	238	17	3.3
2025-10-22T12:00	3160	685	-0.9	-2.3	237	17	3.3
2025-10-22T12:00	3180	684	-1.0	-2.4	236	17	3.3
2025-10-22T12:00	3200	682	-1.2	-2.5	236	16	3.3
2025-10-22T12:00	3220	680	-1.2	-2.7	236	15	3.3
2025-10-22T12:00	3240	678	-1.3	-3.0	236	14	3.3
2025-10-22T12:00	3260	677	-1.4	-3.1	238	13	3.3
2025-10-22T12:00	3280	675	-1.5	-3.2	240	13	3.3
2025-10-22T12:00	3300	673	-1.7	-3.3	242	13	3.3
2025-10-22T12:00	3320	672	-1.8	-3.3	244	13	3.3
2025-10-22T12:00	3340	670	-2.0	-3.5	244	13	3.2
2025-10-22T12:00	3360	668	-2.1	-3.7	244	13	3.2
2025-10-22T12:00	3380	667	-2.2	-3.6	243	13	3.2
2025-10-22T12:00	3400	665	-2.4	-3.6	242	13	3.2
2025-10-22T12:00	3420	663	-2.5	-3.7	240	13	3.2
2025-10-22T12:00	3440	662	-2.7	-3.8	238	13	3.2
2025-10-22T12:00	3460	660	-2.9	-3.8	236	13	3.2
2025-10-22T12:00	3480	658	-3.1	-3.9	234	14	3.2
2025-10-22T12:00	3500	657	-3.2	-4.1	232	14	3.2
2025-10-22T12:00	3520	655	-3.4	-4.0	231	14	3.2
2025-10-22T12:00	3540	653	-3.6	-4.0	232	14	3.2
2025-10-22T12:00	3560	652	-3.8	-4.1	234	14	3.2
2025-10-22T12:00	3580	650	-3.9	-4.2	237	13	3.2
2025-10-22T12:00	3600	648	-4.1	-4.4	242	13	3.2
2025-10-22T12:00	3620	647	-4.0	-4.8	246	13	3.1
2025-10-22T12:00	3640	645	-4.2	-4.9	249	12	3.1
2025-10-22T12:00	3660	644	-4.4	-5.0	252	12	3.1
2025-10-22T12:00	3680	642	-4.4	-5.5	252	12	3.1
2025-10-22T12:00	3700	640	-4.5	-5.7	253	12	3.1
2025-10-22T12:00	3720	639	-4.6	-6.0	253	12	3.1
2025-10-22T12:00	3740	637	-4.6	-6.4	254	12	3.2
2025-10-22T12:00	3760	636	-4.6	-6.7	255	13	3.2
2025-10-22T12:00	3780	634	-4.8	-6.7	257	13	3.2
2025-10-22T12:00	3800	632	-5.0	-6.7	258	14	3.1
2025-10-22T12:00	3820	631	-5.2	-6.8	258	15	3.2
2025-10-22T12:00	3840	629	-5.4	-6.8	258	16	3.2
2025-10-22T12:00	3860	627	-5.5	-7.0	257	16	3.2
2025-10-22T12:00	3880	626	-5.6	-7.0	257	16	3.2
2025-10-22T12:00	3900	624	-5.8	-7.4	256	15	3.2
2025-10-22T12:00	3920	623	-5.9	-8.0	256	15	3.1
2025-10-22T12:00	3940	621	-6.1	-8.1	255	14	3.2
2025-10-22T12:00	3960	619	-6.3	-8.3	255	13	3.2
2025-10-22T12:00	3980	618	-6.5	-8.6	254	13	3.2
2025-10-22T12:00	4000	616	-6.6	-8.8	252	13	3.2
2025-10-22T12:00	4020	615	-6.7	-9.0	250	13	3.2
2025-10-22T12:00	4040	613	-6.8	-9.6	248	13	3.2
2025-10-22T12:00	4060	612	-6.8	-9.6	247	13	3.2
2025-10-22T12:00	4080	610	-7.0	-9.2	247	14	3.2
2025-10-22T12:00	4100	608	-7.0	-8.9	248	15	3.2
2025-10-22T12:00	4120	607	-7.1	-8.4	249	15	3.2
2025-10-22T12:00	4140	605	-7.2	-8.4	251	15	3.2
2025-10-22T12:00	4160	604	-7.3	-8.5	253	15	3.2
2025-10-22T12:00	4180	602	-7.3	-8.6	255	16	3.1
2025-10-22T12:00	4200	601	-7.5	-8.8	257	16	3.1
2025-10-22T12:00	4220	599	-7.6	-9.1	259	16	3.1
2025-10-22T12:00	4240	598	-7.6	-9.6	260	16	3.1
2025-10-22T12:00	4260	596	-7.7	-9.8	261	16	3.1
2025-10-22T12:00	4280	595	-7.9	-9.7	262	17	3.1
2025-10-22T12:00	4300	593	-8.1	-9.7	263	17	3.1
2025-10-22T12:00	4320	591	-8.4	-9.8	264	16	3.0
2025-10-22T12:00	4340	590	-8.5	-9.9	265	16	3.0
2025-10-22T12:00	4360	588	-8.7	-9.9	266	16	3.0
2025-10-22T12:00	4380	587	-8.8	-9.9	268	16	3.0
2025-10-22T12:00	4400	585	-9.0	-9.9	269	15	3.0
2025-10-22T12:00	4420	584	-9.2	-9.9	270	15	3.0
2025-10-22T12:00	4440	582	-9.4	-9.8	271	15	3.0
2025-10-22T12:00	4460	581	-9.5	-9.7	272	15	3.0
2025-10-22T12:00	4480	579	-9.6	-9.8	271	16	2.9
2025-10-22T12:00	4500	578	-9.7	-9.9	270	16	2.9
2025-10-22T12:00	4520	576	-9.9	-10.0	269	16	2.9
2025-10-22T12:00	4540	575	-10.0	-10.4	268	16	2.9
2025-10-22T12:00	4560	573	-10.1	-10.3	266	15	2.9
2025-10-22T12:00	4580	572	-10.2	-10.2	264	15	2.9
2025-10-22T12:00	4600	571	-10.2	-10.2	263	14	2.9
2025-10-22T12:00	4620	569	-10.1	-10.4	262	14	2.8
2025-10-22T12:00	4640	568	-10.2	-10.6	262	13	2.8
2025-10-22T12:00	4660	566	-10.4	-10.5	262	14	2.8
2025-10-22T12:00	4680	565	-10.6	-10.7	263	14	2.8
2025-10-22T12:00	4700	563	-10.6	-10.8	263	15	2.7
2025-10-22T12:00	4720	562	-10.8	-11.0	264	15	2.7
2025-10-22T12:00	4740	560	-10.9	-11.1	264	15	2.7
2025-10-22T12:00	4760	559	-10.6	-12.1	264	15	2.7
2025-10-22T12:00	4780	557	-10.3	-12.7	265	15	2.7
2025-10-22T12:00	4800	556	-10.4	-13.0	265	15	2.7
2025-10-22T12:00	4820	554	-10.5	-13.0	266	15	2.7
2025-10-22T12:00	4840	553	-10.8	-12.9	266	15	2.7
2025-10-22T12:00	4860	551	-11.0	-13.0	266	15	2.7
2025-10-22T12:00	4880	550	-11.1	-13.0	265	15	2.7
2025-10-22T12:00	4900	549	-11.4	-13.1	265	15	2.7
2025-10-22T12:00	4920	547	-11.6	-13.2	264	15	2.7
2025-10-22T12:00	4940	546	-11.7	-13.3	263	15	2.7
2025-10-22T12:00	4960	544	-11.9	-13.4	262	15	2.7
2025-10-22T12:00	4980	543	-12.1	-13.4	261	15	2.7
2025-10-22T12:00	5000	541	-12.3	-13.5	261	16	2.7
2025-10-22T12:00	5020	540	-12.6	-13.5	261	16	2.7
2025-10-22T12:00	5040	539	-12.8	-13.5	262	16	2.7
2025-10-22T12:00	5060	537	-12.9	-13.7	262	16	2.7
2025-10-22T12:00	5080	536	-13.0	-13.8	263	16	2.7
2025-10-22T12:00	5100	535	-13.2	-13.9	264	16	2.7
2025-10-22T12:00	5120	533	-13.3	-13.9	265	15	2.7
2025-10-22T12:00	5140	532	-13.4	-14.1	265	15	2.6
2025-10-22T12:00	5160	530	-13.6	-14.0	266	15	2.6
2025-10-22T12:00	5180	529	-13.9	-14.1	267	15	2.6
2025-10-22T12:00	5200	527	-14.1	-14.1	268	16	2.6
2025-10-22T12:00	5220	526	-14.2	-14.2	269	16	2.6
2025-10-22T12:00	5240	525	-14.4	-14.4	270	16	2.6
2025-10-22T12:00	5260	523	-14.5	-14.5	271	16	2.6
2025-10-22T12:00	5280	522	-14.7	-14.7	271	16	2.6
2025-10-22T12:00	5300	521	-14.8	-14.8	270	16	2.5
2025-10-22T12:00	5320	519	-14.9	-14.9	268	16	2.5
2025-10-22T12:00	5340	518	-15.0	-15.0	266	16	2.5
2025-10-22T12:00	5360	517	-14.9	-15.3	264	16	2.5
2025-10-22T12:00	5380	515	-14.8	-15.8	262	16	2.5
2025-10-22T12:00	5400	514	-14.8	-16.1	260	16	2.5
2025-10-22T12:00	5420	512	-15.0	-16.2	260	16	2.5
2025-10-22T12:00	5440	511	-15.1	-16.3	260	15	2.4
2025-10-22T12:00	5460	510	-15.3	-16.4	262	15	2.4
2025-10-22T12:00	5480	508	-15.5	-16.5	264	14	2.4
2025-10-22T12:00	5500	507	-15.6	-16.7	269	14	2.4
2025-10-22T12:00	5520	506	-15.8	-16.8	274	14	2.4
2025-10-22T12:00	5540	504	-16.0	-16.8	276	15	2.4
2025-10-22T12:00	5560	503	-16.2	-17.2	278	15	2.4
2025-10-22T12:00	5580	501	-16.3	-17.7	279	16	2.4
2025-10-22T12:00	5600	500	-16.4	-17.6	279	17	2.4
2025-10-22T12:00	5620	499	-16.6	-17.7	277	17	2.4
2025-10-22T12:00	5640	498	-16.7	-18.2	275	17	2.4
2025-10-22T12:00	5660	496	-16.8	-18.2	273	18	2.4
2025-10-22T12:00	5680	495	-16.9	-18.6	270	18	2.4
2025-10-22T12:00	5700	494	-17.1	-18.7	268	18	2.4
2025-10-22T12:00	5720	492	-17.3	-18.9	267	17	2.4
2025-10-22T12:00	5740	491	-17.4	-19.2	267	17	2.5
2025-10-22T12:00	5760	490	-17.5	-19.3	267	17	2.5
2025-10-22T12:00	5780	489	-17.6	-19.4	267	17	2.4
2025-10-22T12:00	5800	487	-17.8	-19.5	268	16	2.4
2025-10-22T12:00	5820	486	-18.0	-19.6	270	16	2.5
2025-10-22T12:00	5840	484	-18.1	-20.0	271	16	2.5
2025-10-22T12:00	5860	483	-18.1	-19.6	272	16	2.5
2025-10-22T12:00	5880	482	-18.1	-19.9	273	16	2.5
2025-10-22T12:00	5900	481	-18.3	-19.9	274	16	2.5
2025-10-22T12:00	5920	479	-18.4	-20.1	275	16	2.5
2025-10-22T12:00	5940	478	-18.6	-19.8	276	16	2.5
2025-10-22T12:00	5960	477	-18.7	-20.1	277	15	2.5
2025-10-22T12:00	5980	475	-18.8	-21.1	278	15	2.4
2025-10-22T12:00	6000	474	-18.8	-21.5	279	16	2.4
2025-10-22T12:00	6020	473	-19.0	-21.0	278	16	2.4
2025-10-22T12:00	6040	472	-19.1	-21.4	277	16	2.4
2025-10-22T12:00	6060	470	-19.3	-23.4	275	16	2.4
2025-10-22T12:00	6080	469	-19.2	-25.2	272	16	2.4
2025-10-22T12:00	6100	468	-19.3	-24.3	269	16	2.4
2025-10-22T12:00	6120	467	-19.5	-24.0	267	16	2.5
2025-10-22T12:00	6140	465	-19.4	-24.9	265	16	2.5
2025-10-22T12:00	6160	464	-19.3	-25.7	263	15	2.4
2025-10-22T12:00	6180	463	-19.5	-26.4	263	15	2.4
2025-10-22T12:00	6200	462	-19.8	-27.6	263	14	2.5
2025-10-22T12:00	6220	460	-19.9	-28.5	264	13	2.5
2025-10-22T12:00	6240	459	-20.0	-28.7	265	13	2.5
2025-10-22T12:00	6260	458	-20.1	-29.2	264	12	2.5
2025-10-22T12:00	6280	457	-20.2	-29.6	264	12	2.5
2025-10-22T12:00	6300	455	-20.3	-29.7	263	12	2.6
2025-10-22T12:00	6320	454	-20.4	-30.1	263	12	2.6
2025-10-22T12:00	6340	453	-20.5	-30.3	262	12	2.6
2025-10-22T12:00	6360	452	-20.7	-30.7	262	12	2.6
2025-10-22T12:00	6380	451	-20.7	-31.1	262	12	2.6
2025-10-22T12:00	6400	450	-20.8	-31.2	262	12	2.6
2025-10-22T12:00	6420	448	-21.2	-31.2	261	12	2.6
2025-10-22T12:00	6440	447	-21.4	-31.3	261	12	2.6
2025-10-22T12:00	6460	446	-21.6	-31.3	260	12	2.7
2025-10-22T12:00	6480	445	-21.7	-31.4	259	11	2.7
2025-10-22T12:00	6500	443	-21.8	-31.8	259	11	2.6
2025-10-22T12:00	6520	442	-21.9	-31.9	259	11	2.6
2025-10-22T12:00	6540	441	-22.1	-32.1	261	11	2.6
2025-10-22T12:00	6560	440	-22.3	-32.9	263	11	2.6
2025-10-22T12:00	6580	439	-22.4	-33.3	264	11	2.6
2025-10-22T12:00	6600	437	-22.5	-33.2	265	11	2.6
2025-10-22T12:00	6620	436	-22.8	-33.6	265	12	2.6
2025-10-22T12:00	6640	435	-23.0	-34.1	265	12	2.6
2025-10-22T12:00	6660	434	-23.0	-34.5	263	12	2.6
2025-10-22T12:00	6680	433	-23.2	-34.5	261	12	2.6
2025-10-22T12:00	6700	431	-23.4	-34.6	260	12	2.7
2025-10-22T12:00	6720	430	-23.5	-35.0	258	12	2.7
2025-10-22T12:00	6740	429	-23.7	-35.0	258	12	2.7
2025-10-22T12:00	6760	428	-23.9	-35.1	257	12	2.7
2025-10-22T12:00	6780	427	-24.1	-35.3	257	11	2.7
2025-10-22T12:00	6800	426	-24.3	-35.5	256	11	2.7
2025-10-22T12:00	6820	424	-24.5	-35.5	255	11	2.7
2025-10-22T12:00	6840	423	-24.7	-35.6	255	12	2.7
2025-10-22T12:00	6860	422	-24.8	-35.8	255	12	2.7
2025-10-22T12:00	6880	421	-25.0	-35.8	255	12	2.7
2025-10-22T12:00	6900	420	-25.2	-35.8	256	12	2.7
2025-10-22T12:00	6920	418	-25.4	-36.0	258	12	2.7
2025-10-22T12:00	6940	417	-25.6	-36.2	259	12	2.6
2025-10-22T12:00	6960	416	-25.7	-36.3	260	12	2.6
2025-10-22T12:00	6980	415	-25.9	-36.4	261	12	2.6
2025-10-22T12:00	7000	414	-26.1	-36.9	262	11	2.6
2025-10-22T12:00	7020	413	-26.2	-37.1	261	11	2.6
2025-10-22T12:00	7040	412	-26.3	-37.2	261	11	2.6
2025-10-22T12:00	7060	411	-26.4	-37.5	261	11	2.5
2025-10-22T12:00	7080	409	-26.7	-37.5	261	11	2.5
2025-10-22T12:00	7100	408	-26.9	-37.6	261	11	2.5
2025-10-22T12:00	7120	407	-27.1	-37.9	261	11	2.5
2025-10-22T12:00	7140	406	-27.2	-37.9	262	11	2.5
2025-10-22T12:00	7160	405	-27.3	-38.2	262	11	2.5
2025-10-22T12:00	7180	404	-27.5	-38.3	262	11	2.6
2025-10-22T12:00	7200	403	-27.8	-38.1	262	11	2.5
2025-10-22T12:00	7220	402	-27.9	-38.3	263	11	2.5
2025-10-22T12:00	7240	400	-28.2	-38.5	264	11	2.5
2025-10-22T12:00	7260	399	-28.3	-39.0	265	11	2.5
2025-10-22T12:00	7280	398	-28.4	-39.2	266	11	2.5
2025-10-22T12:00	7300	397	-28.6	-39.3	266	11	2.5
2025-10-22T12:00	7320	396	-28.7	-39.6	266	11	2.5
2025-10-22T12:00	7340	395	-28.9	-39.7	264	12	2.5
2025-10-22T12:00	7360	394	-29.0	-39.8	263	12	2.6
2025-10-22T12:00	7380	393	-29.3	-40.0	262	12	2.6
2025-10-22T12:00	7400	392	-29.5	-40.1	261	12	2.6
2025-10-22T12:00	7420	391	-29.6	-40.3	260	13	2.6
2025-10-22T12:00	7440	389	-29.8	-40.4	261	13	2.6
2025-10-22T12:00	7460	388	-29.9	-40.0	261	13	2.6
2025-10-22T12:00	7480	387	-30.1	-39.4	263	13	2.6
2025-10-22T12:00	7500	386	-30.3	-38.6	265	13	2.5
2025-10-22T12:00	7520	385	-30.5	-39.0	267	13	2.5
2025-10-22T12:00	7540	384	-30.6	-36.4	269	13	2.5
2025-10-22T12:00	7560	383	-30.9	-34.6	270	14	2.4
2025-10-22T12:00	7580	382	-31.1	-34.5	271	14	2.3
2025-10-22T12:00	7600	381	-31.2	-38.1	271	14	2.2
2025-10-22T12:00	7620	380	-31.3	-42.3	270	13	2.2
2025-10-22T12:00	7640	379	-31.5	-41.9	269	13	2.2
2025-10-22T12:00	7660	377	-31.7	-42.2	267	13	2.2
2025-10-22T12:00	7680	376	-31.9	-42.3	266	13	2.1
2025-10-22T12:00	7700	375	-32.0	-42.1	266	13	2.1
2025-10-22T12:00	7720	374	-32.1	-42.1	266	13	2.1
2025-10-22T12:00	7740	373	-32.4	-41.8	268	14	2.1
2025-10-22T12:00	7760	372	-32.6	-41.5	269	14	2.1
2025-10-22T12:00	7780	371	-32.9	-38.3	270	15	2.0
2025-10-22T12:00	7800	370	-33.0	-35.1	270	15	2.0
2025-10-22T12:00	7820	369	-33.1	-36.3	270	15	2.0
2025-10-22T12:00	7840	368	-33.2	-39.4	270	15	1.9
2025-10-22T12:00	7860	367	-33.3	-40.9	270	14	1.9
2025-10-22T12:00	7880	366	-33.5	-40.3	269	14	1.9
2025-10-22T12:00	7900	365	-33.6	-41.6	269	14	1.9
2025-10-22T12:00	7920	364	-33.7	-42.1	268	13	1.9
2025-10-22T12:00	7940	363	-33.9	-41.6	267	13	2.0
2025-10-22T12:00	7960	362	-34.2	-41.5	267	13	2.0
2025-10-22T12:00	7980	361	-34.3	-42.0	266	13	2.0
2025-10-22T12:00	8000	360	-34.5	-42.5	266	13	2.0
2025-10-22T12:00	8020	359	-34.8	-42.3	266	13	2.0
2025-10-22T12:00	8040	358	-34.9	-42.0	267	13	2.0
2025-10-22T12:00	8060	357	-35.1	-41.5	267	13	2.0
2025-10-22T12:00	8080	356	-35.3	-40.8	268	13	2.0
2025-10-22T12:00	8100	355	-35.5	-40.2	268	13	2.0
2025-10-22T12:00	8120	353	-35.7	-40.4	268	13	2.0
2025-10-22T12:00	8140	352	-35.9	-40.6	268	14	2.0
2025-10-22T12:00	8160	351	-36.1	-41.0	267	14	2.0
2025-10-22T12:00	8180	350	-36.3	-40.4	266	14	2.0
2025-10-22T12:00	8200	350	-36.3	-40.1	266	15	1.9
2025-10-22T12:00	8220	348	-36.5	-40.6	265	15	1.9
2025-10-22T12:00	8240	347	-36.6	-41.0	265	15	1.9
2025-10-22T12:00	8260	346	-36.7	-41.3	265	15	1.9
2025-10-22T12:00	8280	345	-36.8	-41.1	266	15	1.9
2025-10-22T12:00	8300	345	-37.1	-41.1	267	15	1.9
2025-10-22T12:00	8320	344	-37.2	-41.4	268	16	1.8
2025-10-22T12:00	8340	342	-37.4	-42.1	269	16	1.8
2025-10-22T12:00	8360	341	-37.6	-42.4	271	16	1.8
2025-10-22T12:00	8380	340	-37.8	-42.9	271	17	1.8
2025-10-22T12:00	8400	339	-37.9	-43.4	272	17	1.8
2025-10-22T12:00	8420	339	-38.1	-43.2	272	18	1.8
2025-10-22T12:00	8440	338	-38.2	-43.4	272	19	1.7
2025-10-22T12:00	8460	337	-38.5	-44.1	272	19	1.7
2025-10-22T12:00	8480	336	-38.6	-44.1	272	19	1.7
2025-10-22T12:00	8500	335	-38.8	-44.9	272	19	1.7
2025-10-22T12:00	8520	334	-39.0	-46.5	272	18	1.7
2025-10-22T12:00	8540	333	-39.2	-46.8	272	18	1.7
2025-10-22T12:00	8560	332	-39.3	-46.9	272	17	1.7
2025-10-22T12:00	8580	331	-39.5	-47.0	272	17	1.7
2025-10-22T12:00	8600	330	-39.6	-46.9	272	17	1.7
2025-10-22T12:00	8620	329	-39.8	-47.6	271	17	1.6
2025-10-22T12:00	8640	328	-40.0	-48.5	271	17	1.6
2025-10-22T12:00	8660	327	-40.0	-48.6	271	17	1.6
2025-10-22T12:00	8680	326	-40.3	-48.6	272	17	1.6
2025-10-22T12:00	8700	325	-40.5	-48.4	272	17	1.6
2025-10-22T12:00	8720	324	-40.8	-48.6	273	17	1.6
2025-10-22T12:00	8740	323	-40.9	-49.1	273	17	1.6
2025-10-22T12:00	8760	322	-41.1	-49.2	273	17	1.6
2025-10-22T12:00	8780	321	-41.2	-49.2	273	17	1.6
2025-10-22T12:00	8800	320	-41.5	-49.4	273	17	1.6
2025-10-22T12:00	8820	319	-41.7	-49.5	272	17	1.6
2025-10-22T12:00	8840	318	-41.9	-49.7	272	17	1.6
2025-10-22T12:00	8860	317	-42.0	-50.4	271	17	1.6
2025-10-22T12:00	8880	316	-42.1	-51.0	271	17	1.6
2025-10-22T12:00	8900	316	-42.3	-50.4	271	17	1.6
2025-10-22T12:00	8920	315	-42.5	-50.3	271	17	1.6
2025-10-22T12:00	8940	314	-42.8	-50.3	271	17	1.6
2025-10-22T12:00	8960	313	-42.9	-50.3	271	17	1.6
2025-10-22T12:00	8980	312	-43.1	-50.3	271	17	1.6
2025-10-22T12:00	9000	311	-43.2	-50.2	270	17	1.6
2025-10-22T12:00	9020	310	-43.6	-49.9	270	17	1.6
2025-10-22T12:00	9040	309	-43.7	-49.7	270	17	1.6
2025-10-22T12:00	9060	308	-43.8	-50.1	270	17	1.6
2025-10-22T12:00	9080	307	-44.0	-50.8	270	16	1.6
2025-10-22T12:00	9100	306	-44.3	-51.2	270	16	1.6
2025-10-22T12:00	9120	305	-44.4	-51.3	270	16	1.5
2025-10-22T12:00	9140	304	-44.6	-51.5	271	16	1.5
2025-10-22T12:00	9160	304	-44.7	-51.7	272	16	1.5
2025-10-22T12:00	9180	303	-44.9	-51.8	273	15	1.6
2025-10-22T12:00	9200	302	-45.1	-51.5	275	15	1.6
2025-10-22T12:00	9220	301	-45.3	-51.2	277	16	1.6
2025-10-22T12:00	9240	300	-45.6	-51.8	278	16	1.6
2025-10-22T12:00	9260	299	-45.8	-52.1	279	16	1.6
2025-10-22T12:00	9280	298	-46.0	-52.3	279	17	1.6
2025-10-22T12:00	9300	297	-46.1	-52.2	279	17	1.6
2025-10-22T12:00	9320	296	-46.3	-52.2	279	18	1.6
2025-10-22T12:00	9340	295	-46.5	-52.1	279	18	1.6
2025-10-22T12:00	9360	295	-46.7	-52.1	279	18	1.6
2025-10-22T12:00	9380	294	-46.8	-52.3	280	18	1.6
2025-10-22T12:00	9400	293	-46.9	-52.8	280	18	1.7
2025-10-22T12:00	9420	292	-47.1	-53.2	282	19	1.7
2025-10-22T12:00	9440	291	-47.3	-53.4	283	19	1.7
2025-10-22T12:00	9460	290	-47.4	-53.4	284	19	1.8
2025-10-22T12:00	9480	289	-47.6	-53.5	285	18	1.8
2025-10-22T12:00	9500	288	-47.7	-53.7	286	18	1.8
2025-10-22T12:00	9520	288	-47.9	-53.8	287	18	1.9
2025-10-22T12:00	9540	287	-48.0	-54.3	287	18	1.9
2025-10-22T12:00	9560	286	-48.1	-54.6	287	17	1.9
2025-10-22T12:00	9580	285	-48.1	-54.6	287	17	2.0
2025-10-22T12:00	9600	284	-48.4	-54.6	287	17	2.0
2025-10-22T12:00	9620	283	-48.6	-54.5	286	17	2.0
2025-10-22T12:00	9640	282	-48.8	-54.8	286	16	2.0
2025-10-22T12:00	9660	281	-48.9	-54.9	285	16	2.0
2025-10-22T12:00	9680	281	-49.1	-55.1	284	16	2.0
2025-10-22T12:00	9700	280	-49.3	-55.0	283	16	2.0
2025-10-22T12:00	9720	279	-49.4	-55.2	283	16	2.0
2025-10-22T12:00	9740	278	-49.5	-56.0	284	16	2.0
2025-10-22T12:00	9760	277	-49.8	-56.9	285	15	2.0
2025-10-22T12:00	9780	276	-49.9	-57.3	286	15	2.0
2025-10-22T12:00	9800	276	-50.0	-57.6	288	15	2.0
2025-10-22T12:00	9820	275	-50.1	-57.6	290	15	2.0
2025-10-22T12:00	9840	274	-50.2	-57.5	292	15	2.0
2025-10-22T12:00	9860	273	-50.4	-57.6	292	15	2.0
2025-10-22T12:00	9880	272	-50.5	-57.6	293	15	2.0
2025-10-22T12:00	9900	271	-50.8	-57.7	293	15	2.0
2025-10-22T12:00	9920	270	-51.0	-57.7	292	15	2.0
2025-10-22T12:00	9940	270	-51.1	-57.7	292	16	2.0
2025-10-22T12:00	9960	269	-51.3	-58.0	292	16	2.0
2025-10-22T12:00	9980	268	-51.5	-58.1	292	17	2.0
2025-10-22T12:00	10000	267	-51.7	-58.1	293	17	2.0
2025-10-22T12:00	10018	266	-51.8	-57.9	293	17	2.0
2025-10-22T12:00	10050	265	-52.1	-57.8	293	18	2.0
2025-10-22T12:00	10100	263	-52.6	-58.2	292	18	2.0
2025-10-22T12:00	10150	261	-53.1	-58.7	292	18	2.0
2025-10-22T12:00	10200	259	-53.6	-58.8	292	17	2.0
2025-10-22T12:00	10250	257	-54.0	-59.0	292	17	2.1
2025-10-22T12:00	10300	255	-54.3	-59.5	291	18	2.0
2025-10-22T12:00	10350	253	-54.7	-60.0	290	18	2.0
2025-10-22T12:00	10400	251	-55.0	-60.7	290	18	2.0
2025-10-22T12:00	10450	249	-55.3	-61.1	291	18	2.0
2025-10-22T12:00	10500	247	-55.7	-61.1	291	18	2.1
2025-10-22T12:00	10550	245	-56.3	-60.9	291	18	2.1
2025-10-22T12:00	10600	243	-56.7	-60.7	291	19	2.1
2025-10-22T12:00	10650	241	-57.3	-60.9	291	19	2.2
2025-10-22T12:00	10700	239	-57.6	-61.2	291	19	2.2
2025-10-22T12:00	10750	238	-57.9	-61.8	291	18	2.2
2025-10-22T12:00	10800	236	-58.3	-62.3	290	18	2.2
2025-10-22T12:00	10850	234	-58.7	-63.1	291	18	2.2
2025-10-22T12:00	10900	232	-59.1	-63.6	292	19	2.2
2025-10-22T12:00	10950	230	-59.2	-63.7	295	20	2.1
2025-10-22T12:00	11000	228	-59.6	-64.0	296	20	2.1
2025-10-22T12:00	11050	227	-60.0	-64.3	296	20	2.0
2025-10-22T12:00	11100	225	-60.4	-64.5	295	20	2.0
2025-10-22T12:00	11150	223	-60.9	-64.6	294	20	2.0
2025-10-22T12:00	11200	221	-61.0	-64.6	292	19	2.1
2025-10-22T12:00	11250	219	-61.1	-65.1	291	19	2.1
2025-10-22T12:00	11300	218	-61.5	-65.8	289	19	2.3
2025-10-22T12:00	11350	216	-62.0	-66.4	287	19	2.5
2025-10-22T12:00	11400	214	-62.2	-66.5	286	20	2.6
2025-10-22T12:00	11450	212	-62.6	-66.4	286	20	2.7
2025-10-22T12:00	11500	211	-62.9	-65.9	288	21	2.7
2025-10-22T12:00	11550	209	-63.2	-66.1	290	20	2.8
2025-10-22T12:00	11600	207	-63.2	-66.6	290	20	2.9
2025-10-22T12:00	11650	206	-63.4	-66.9	290	20	2.9
2025-10-22T12:00	11700	204	-63.4	-65.9	289	20	3.0
2025-10-22T12:00	11750	202	-62.4	-66.6	287	20	3.2
2025-10-22T12:00	11800	201	-59.7	-71.5	287	21	3.4
2025-10-22T12:00	11850	199	-58.5	-78.1	288	21	3.6
2025-10-22T12:00	11900	197	-58.2	-79.5	288	21	3.8
2025-10-22T12:00	11950	196	-58.1	-78.5	287	20	4.0
2025-10-22T12:00	12000	194	-58.3	-77.2	285	19	4.1
2025-10-22T12:00	12050	193	-58.2	-77.1	287	19	4.2
2025-10-22T12:00	12100	191	-57.9	-77.7	289	19	4.2
2025-10-22T12:00	12150	190	-57.6	-78.4	290	19	4.3
2025-10-22T12:00	12200	188	-57.4	-78.4	289	18	4.3
2025-10-22T12:00	12250	187	-57.5	-78.2	287	18	4.2
2025-10-22T12:00	12300	185	-57.0	-78.4	283	17	4.2
2025-10-22T12:00	12350	184	-56.8	-78.8	279	16	4.2
2025-10-22T12:00	12400	182	-57.2	-79.0	276	17	4.4
2025-10-22T12:00	12450	181	-57.1	-79.2	274	18	4.6
2025-10-22T12:00	12500	180	-57.1	-79.4	274	19	4.7
2025-10-22T12:00	12550	178	-57.1	-79.5	274	20	4.8
2025-10-22T12:00	12600	177	-56.9	-79.7	274	21	4.9
2025-10-22T12:00	12650	175	-56.5	-79.9	275	21	4.9
2025-10-22T12:00	12700	174	-56.3	-80.0	275	22	5.0
2025-10-22T12:00	12750	173	-56.4	-80.0	276	23	5.1
2025-10-22T12:00	12800	171	-56.7	-80.1	276	23	5.1
2025-10-22T12:00	12850	170	-56.6	-80.1	278	23	5.0
2025-10-22T12:00	12900	169	-56.4	-80.1	280	22	5.0
2025-10-22T12:00	12950	167	-56.7	-80.2	283	21	4.8
2025-10-22T12:00	13000	166	-57.0	-80.3	284	20	4.8
2025-10-22T12:00	13050	165	-57.1	-80.3	284	19	4.7
2025-10-22T12:00	13100	163	-57.3	-80.4	282	18	4.7
2025-10-22T12:00	13150	162	-57.6	-80.5	280	17	4.7
2025-10-22T12:00	13200	161	-57.7	-80.6	277	17	4.6
2025-10-22T12:00	13250	159	-57.7	-80.7	276	17	4.6
2025-10-22T12:00	13300	158	-57.5	-80.9	276	18	4.5
2025-10-22T12:00	13350	157	-57.2	-81.1	277	19	4.6
2025-10-22T12:00	13400	156	-57.1	-81.1	277	20	4.7
2025-10-22T12:00	13450	155	-57.2	-81.2	276	20	4.7
2025-10-22T12:00	13500	153	-57.2	-81.1	274	20	4.8
2025-10-22T12:00	13550	152	-57.7	-81.3	273	20	4.9
2025-10-22T12:00	13600	151	-58.0	-81.3	271	21	4.9
2025-10-22T12:00	13650	150	-58.2	-81.5	270	22	4.9
2025-10-22T12:00	13700	149	-58.4	-81.6	270	22	4.9
2025-10-22T12:00	13750	147	-58.6	-81.6	273	22	5.0
2025-10-22T12:00	13800	146	-58.7	-81.7	275	22	5.1
2025-10-22T12:00	13850	145	-58.8	-81.9	276	22	5.1
2025-10-22T12:00	13900	144	-58.7	-81.9	275	22	5.2
2025-10-22T12:00	13950	143	-58.7	-82.1	275	21	5.4
2025-10-22T12:00	14000	142	-58.4	-82.2	274	21	5.5
2025-10-22T12:00	14050	140	-57.8	-82.2	274	21	5.6
2025-10-22T12:00	14100	139	-57.7	-82.2	276	21	5.7
2025-10-22T12:00	14150	138	-57.7	-82.2	279	21	5.7
2025-10-22T12:00	14200	137	-57.8	-82.2	282	21	5.6
2025-10-22T12:00	14250	136	-57.9	-82.2	284	21	5.6
2025-10-22T12:00	14300	135	-57.8	-82.2	285	21	5.7
2025-10-22T12:00	14350	134	-57.8	-82.5	286	20	5.8
2025-10-22T12:00	14400	133	-57.3	-82.4	288	19	5.9
2025-10-22T12:00	14450	132	-56.9	-82.5	288	18	5.9
2025-10-22T12:00	14500	131	-56.3	-82.4	287	18	6.0
2025-10-22T12:00	14550	130	-56.2	-82.4	284	18	6.1
2025-10-22T12:00	14600	129	-56.2	-82.3	282	17	6.1
2025-10-22T12:00	14650	128	-56.4	-82.3	280	16	6.2
2025-10-22T12:00	14700	127	-56.4	-82.3	279	17	6.2
2025-10-22T12:00	14750	126	-56.6	-82.4	278	18	6.1
2025-10-22T12:00	14800	125	-56.7	-82.5	278	19	5.8
2025-10-22T12:00	14850	124	-56.9	-82.6	278	21	5.6
2025-10-22T12:00	14900	123	-57.0	-82.6	279	21	5.4
2025-10-22T12:00	14950	122	-57.2	-82.8	280	22	5.2
2025-10-22T12:00	15000	121	-56.9	-82.7	281	22	5.2
2025-10-22T12:00	15050	120	-57.1	-82.8	281	22	5.3
2025-10-22T12:00	15100	119	-57.0	-82.8	282	21	5.4
2025-10-22T12:00	15150	118	-57.3	-82.8	282	20	5.3
2025-10-22T12:00	15200	117	-57.7	-82.9	283	19	5.1
2025-10-22T12:00	15250	116	-58.0	-83.0	283	17	5.1
2025-10-22T12:00	15300	115	-58.1	-83.1	282	16	5.0
2025-10-22T12:00	15350	114	-58.2	-83.2	282	16	4.8
2025-10-22T12:00	15400	113	-57.9	-83.2	282	16	4.6
2025-10-22T12:00	15450	113	-57.9	-83.3	281	16	4.4
2025-10-22T12:00	15500	112	-58.0	-83.3	279	16	4.4
2025-10-22T12:00	15550	111	-58.2	-83.4	277	16	4.4
2025-10-22T12:00	15600	110	-58.3	-83.4	275	16	4.6
2025-10-22T12:00	15650	109	-58.6	-83.5	273	15	4.8
2025-10-22T12:00	15700	108	-58.6	-83.5	272	14	4.9
2025-10-22T12:00	15750	107	-58.9	-83.6	273	15	5.0
2025-10-22T12:00	15800	106	-59.1	-83.7	274	15	5.0
2025-10-22T12:00	15850	106	-59.4	-83.9	275	16	5.0
2025-10-22T12:00	15900	105	-59.0	-83.8	276	17	5.1
2025-10-22T12:00	15950	104	-59.0	-83.9	278	18	5.2
2025-10-22T12:00	16000	103	-59.0	-83.9	280	18	5.4
2025-10-22T12:00	16050	102	-58.9	-83.9	279	18	5.6
2025-10-22T12:00	16100	101	-59.2	-84.0	277	18	6.0
2025-10-22T12:00	16150	101	-59.6	-84.0	275	17	6.2
2025-10-22T12:00	16200	100	-60.0	-84.1	273	17	6.3
2025-10-22T12:00	16250	99	-60.1	-84.3	273	17	6.4
2025-10-22T12:00	16300	98	-60.0	-84.4	276	17	6.6
2025-10-22T12:00	16350	97	-59.8	-84.4	281	16	6.6
2025-10-22T12:00	16400	97	-59.4	-84.3	287	15	6.6
2025-10-22T12:00	16450	96	-59.3	-84.2	292	13	6.5
2025-10-22T12:00	16500	95	-59.6	-84.2	295	12	6.3
2025-10-22T12:00	16550	94	-59.2	-84.0	295	10	6.1
2025-10-22T12:00	16600	94	-59.3	-83.9	292	10	5.7
2025-10-22T12:00	16650	93	-59.7	-84.1	287	11	5.3
2025-10-22T12:00	16700	92	-59.7	-84.1	282	11	5.1
2025-10-22T12:00	16750	91	-60.0	-84.1	277	12	5.0
2025-10-22T12:00	16800	91	-60.5	-84.3	271	11	5.0
2025-10-22T12:00	16850	90	-60.7	-84.4	265	11	5.0
2025-10-22T12:00	16900	89	-60.8	-84.4	265	12	5.0
2025-10-22T12:00	16950	89	-61.1	-84.7	267	13	5.2
2025-10-22T12:00	17000	88	-61.2	-84.8	267	13	5.3
2025-10-22T12:00	17050	87	-61.2	-84.9	265	14	5.4
2025-10-22T12:00	17100	86	-61.3	-85.0	261	14	5.6
2025-10-22T12:00	17150	86	-61.5	-85.2	258	15	5.8
2025-10-22T12:00	17200	85	-61.4	-85.2	257	16	5.9
2025-10-22T12:00	17250	84	-61.4	-85.4	261	17	6.1
2025-10-22T12:00	17300	84	-61.3	-85.4	266	17	6.2
2025-10-22T12:00	17350	83	-61.1	-85.4	271	17	6.3
2025-10-22T12:00	17400	82	-61.0	-85.3	275	16	6.5
2025-10-22T12:00	17450	82	-61.1	-85.4	278	16	6.6
2025-10-22T12:00	17500	81	-61.3	-85.5	281	16	6.7
2025-10-22T12:00	17550	80	-61.3	-85.4	283	17	6.8
2025-10-22T12:00	17600	80	-61.5	-85.6	285	17	6.8
2025-10-22T12:00	17650	79	-61.0	-85.5	287	16	7.0
2025-10-22T12:00	17700	78	-61.1	-85.6	286	15	7.0
2025-10-22T12:00	17750	78	-61.0	-85.7	284	14	7.0
2025-10-22T12:00	17800	77	-60.8	-85.7	284	14	7.2
2025-10-22T12:00	17850	77	-60.4	-85.6	285	14	7.4
2025-10-22T12:00	17900	76	-60.5	-85.6	287	14	7.7
2025-10-22T12:00	17950	75	-60.5	-85.6	287	14	8.0
2025-10-22T12:00	18000	75	-60.5	-85.5	283	14	8.2
2025-10-22T12:00	18050	74	-60.7	-85.7	279	14	8.1
2025-10-22T12:00	18100	74	-60.6	-85.7	276	14	8.3
2025-10-22T12:00	18150	73	-60.4	-85.6	273	14	8.5
2025-10-22T12:00	18200	72	-60.4	-85.6	270	13	8.7
2025-10-22T12:00	18250	72	-60.6	-85.6	267	12	8.8
2025-10-22T12:00	18300	71	-60.8	-85.7	265	12	9.0
2025-10-22T12:00	18350	71	-61.1	-85.7	262	12	8.9
2025-10-22T12:00	18400	70	-61.4	-85.7	259	13	8.8
2025-10-22T12:00	18450	70	-61.7	-85.9	258	13	8.9
2025-10-22T12:00	18500	69	-62.1	-86.0	261	14	8.9
2025-10-22T12:00	18550	68	-62.0	-86.2	267	15	8.9
2025-10-22T12:00	18600	68	-61.7	-86.2	273	16	8.9
2025-10-22T12:00	18650	67	-61.8	-86.3	278	16	8.9
2025-10-22T12:00	18700	67	-61.8	-86.2	281	15	8.8
2025-10-22T12:00	18750	66	-61.9	-86.4	282	15	8.7
2025-10-22T12:00	18800	66	-61.6	-86.3	280	15	8.7
2025-10-22T12:00	18850	65	-61.5	-86.3	278	15	9.0
2025-10-22T12:00	18900	65	-61.5	-86.3	276	15	8.9
2025-10-22T12:00	18950	64	-61.4	-86.4	275	15	9.1
2025-10-22T12:00	19000	64	-60.9	-86.2	276	14	9.2
2025-10-22T12:00	19050	63	-60.9	-86.3	279	13	9.5
2025-10-22T12:00	19100	63	-60.5	-86.1	277	12	9.8
2025-10-22T12:00	19150	62	-60.3	-86.2	266	11	10.0
2025-10-22T12:00	19200	62	-59.9	-86.0	251	11	10.4
2025-10-22T12:00	19250	61	-59.6	-85.8	241	12	10.9
2025-10-22T12:00	19300	61	-59.7	-85.9	237	12	11.1
2025-10-22T12:00	19350	60	-59.6	-85.8	233	11	11.1
2025-10-22T12:00	19400	60	-59.6	-85.7	231	9	10.9
2025-10-22T12:00	19450	59	-59.6	-85.7	230	9	11.0
2025-10-22T12:00	19500	59	-59.9	-85.7	229	9	11.0
2025-10-22T12:00	19550	58	-60.4	-85.8	229	9	10.9
2025-10-22T12:00	19600	58	-60.9	-85.9	231	9	10.9
2025-10-22T12:00	19650	57	-61.3	-86.0	235	10	11.1
2025-10-22T12:00	19700	57	-61.5	-86.1	241	10	10.9
2025-10-22T12:00	19750	56	-61.7	-86.2	247	11	11.0
2025-10-22T12:00	19800	56	-61.9	-86.4	251	12	10.9
2025-10-22T12:00	19850	56	-62.1	-86.5	254	13	11.0
2025-10-22T12:00	19900	55	-62.2	-86.4	255	13	11.0
2025-10-22T12:00	19950	55	-62.5	-86.6	257	14	11.0
2025-10-22T12:00	20000	54	-62.6	-86.6	259	14	11.0
2025-10-22T12:00	20050	54	-62.7		261	14	11.1
2025-10-22T12:00	20100	53	-62.8		261	14	11.1
2025-10-22T12:00	20150	53	-62.7		260	14	11.1
2025-10-22T12:00	20200	52	-62.4		259	15	11.1
2025-10-22T12:00	20250	52	-62.2		259	15	11.2
2025-10-22T12:00	20300	52	-61.9		261	15	11.3
2025-10-22T12:00	20350	51	-62.2		264	15	11.3
2025-10-22T12:00	20400	51	-62.6		266	15	11.6
2025-10-22T12:00	20450	50	-62.8		269	15	11.6
2025-10-22T12:00	20500	50	-62.5		270	15	11.5
2025-10-22T12:00	20550	50	-62.3		272	15	11.5
2025-10-22T12:00	20600	49	-62.6		273	15	11.6
2025-10-22T12:00	20650	49	-62.8		274	15	11.5
2025-10-22T12:00	20700	48	-62.5		276	16	11.5
2025-10-22T12:00	20750	48	-62.1		278	16	11.4
2025-10-22T12:00	20800	48	-61.9		281	16	11.6
2025-10-22T12:00	20850	47	-61.5		282	16	11.7
2025-10-22T12:00	20900	47	-61.3		282	15	11.7
2025-10-22T12:00	20950	46	-61.4		280	14	11.9
2025-10-22T12:00	21000	46	-61.0		280	14	11.8
2025-10-22T12:00	21050	46	-60.9		279	13	11.9
2025-10-22T12:00	21100	45	-60.9		277	13	11.8
2025-10-22T12:00	21150	45	-60.8		272	14	11.8
2025-10-22T12:00	21200	45	-60.5		267	14	11.9
2025-10-22T12:00	21250	44	-60.4		264	14	11.9
2025-10-22T12:00	21300	44	-60.1		263	15	11.9
2025-10-22T12:00	21350	44	-60.2		264	15	12.0
2025-10-22T12:00	21400	43	-60.6		265	16	12.1
2025-10-22T12:00	21450	43	-60.8		265	16	12.1
2025-10-22T12:00	21500	43	-61.0		265	16	12.0
2025-10-22T12:00	21550	42	-60.6		262	17	11.9
2025-10-22T12:00	21600	42	-60.3		260	17	11.9
2025-10-22T12:00	21650	42	-60.4		259	18	12.0
2025-10-22T12:00	21700	41	-60.6		261	18	12.1
2025-10-22T12:00	21750	41	-60.5		263	19	12.1
2025-10-22T12:00	21800	41	-60.3		265	19	12.1
2025-10-22T12:00	21850	40	-60.1		268	19	11.9
2025-10-22T12:00	21900	40	-59.9		273	19	11.9
2025-10-22T12:00	21950	40	-59.4		278	19	12.0
2025-10-22T12:00	22000	39	-59.5		281	19	12.1
2025-10-22T12:00	22050	39	-59.7		283	19	12.1
2025-10-22T12:00	22100	39	-60.0		284	19	12.1
2025-10-22T12:00	22150	38	-60.1		284	19	12.0
2025-10-22T12:00	22200	38	-59.9		284	19	12.1
2025-10-22T12:00	22250	38	-59.8		283	18	12.2
2025-10-22T12:00	22300	37	-59.8		282	18	12.3
2025-10-22T12:00	22350	37	-59.5		283	17	12.2
2025-10-22T12:00	22400	37	-58.9		285	16	12.1
2025-10-22T12:00	22450	37	-58.6		285	16	12.0
2025-10-22T12:00	22500	36	-58.6		281	15	12.2
2025-10-22T12:00	22550	36	-58.4		273	15	12.1
2025-10-22T12:00	22600	36	-57.4		266	15	12.2
2025-10-22T12:00	22650	35	-56.3		262	16	12.2
2025-10-22T12:00	22700	35	-55.4		260	17	12.3
2025-10-22T12:00	22750	35	-55.2		261	16	12.3
2025-10-22T12:00	22800	35	-55.5		265	15	12.3
2025-10-22T12:00	22850	34	-55.6		270	15	12.2
2025-10-22T12:00	22900	34	-55.7		275	15	12.2
2025-10-22T12:00	22950	34	-55.9		278	14	12.1
2025-10-22T12:00	23000	33	-55.8		280	13	11.9
2025-10-22T12:00	23050	33	-55.6		281	12	11.9
2025-10-22T12:00	23100	33	-55.6		280	11	11.7
2025-10-22T12:00	23150	33	-55.4		274	10	11.7
2025-10-22T12:00	23200	32	-55.1		266	10	11.7
2025-10-22T12:00	23250	32	-55.0		258	10	11.7
2025-10-22T12:00	23300	32	-55.2		252	10	11.9
2025-10-22T12:00	23350	32	-55.4		249	11	12.0
2025-10-22T12:00	23400	31	-55.8		247	11	12.1
2025-10-22T12:00	23450	31	-56.1		246	12	12.3
2025-10-22T12:00	23500	31	-56.1		249	13	12.0
2025-10-22T12:00	23550	31	-56.0		253	14	12.2
2025-10-22T12:00	23600	30	-55.6		257	15	12.5
2025-10-22T12:00	23650	30	-55.4		260	15	12.6
2025-10-22T12:00	23700	30	-55.8		263	15	12.8
2025-10-22T12:00	23750	30	-56.1		265	15	12.9
2025-10-22T12:00	23800	30	-56.5		266	14	12.8
2025-10-22T12:00	23850	29	-57.1		266	14	12.9
2025-10-22T12:00	23900	29	-57.5		267	14	12.9
2025-10-22T12:00	23950	29	-57.8		267	15	12.9
2025-10-22T12:00	24000	29	-57.9		266	16	13.0
2025-10-22T12:00	24050	28	-57.9		266	17	12.8
2025-10-22T12:00	24100	28	-58.0		265	18	12.8
2025-10-22T12:00	24150	28	-57.9		265	18	12.8
2025-10-22T12:00	24200	28	-58.1		265	18	12.7
2025-10-22T12:00	24250	27	-58.3		265	18	12.5
2025-10-22T12:00	24300	27	-58.2		264	19	12.1
2025-10-22T12:00	24350	27	-57.9		264	20	11.7
2025-10-22T12:00	24400	27	-57.7		264	21	11.4
2025-10-22T12:00	24450	27	-57.7		265	22	11.4
2025-10-22T12:00	24500	26	-57.2		268	22	11.4
2025-10-22T12:00	24550	26	-56.7		271	22	11.5
2025-10-22T12:00	24600	26	-56.7		273	22	11.5
2025-10-22T12:00	24650	26	-56.7		273	21	11.4
2025-10-22T12:00	24700	26	-56.6		272	21	11.2
2025-10-22T12:00	24750	25	-56.5		269	21	10.9
2025-10-22T12:00	24800	25	-56.4		266	21	10.9
2025-10-22T12:00	24850	25	-56.3		263	22	10.7
2025-10-22T12:00	24900	25	-56.2		260	23	10.7
2025-10-22T12:00	24950	25	-56.3		257	23	10.9
2025-10-22T12:00	25000	24	-55.8		256	23	10.8
2025-10-22T12:00	25050	24	-55.6		258	23	10.8
2025-10-22T12:00	25100	24	-55.2		260	23	11.0
2025-10-22T12:00	25150	24	-54.8		259	23	11.1
2025-10-22T12:00	25200	24	-54.7		257	22	11.3
2025-10-22T12:00	25250	23	-54.9		256	22	11.5
2025-10-22T12:00	25300	23	-54.6		256	22	11.8
2025-10-22T12:00	25350	23	-54.1		256	22	12.0
2025-10-22T12:00	25400	23	-53.9		255	22	12.1
2025-10-22T12:00	25450	23	-53.8		255	22	12.4
2025-10-22T12:00	25500	23	-54.0		255	22	12.4
2025-10-22T12:00	25550	22	-54.0		256	23	12.5
2025-10-22T12:00	25600	22	-54.2		257	24	12.6
2025-10-22T12:00	25650	22	-54.2		257	24	12.8
2025-10-22T12:00	25700	22	-54.3		258	25	12.7
2025-10-22T12:00	25750	22	-54.4		258	24	12.7
2025-10-22T12:00	25800	22	-54.2		257	23	12.7
2025-10-22T12:00	25850	21	-53.9		256	23	12.7
2025-10-22T12:00	25900	21	-53.9		256	23	12.6
2025-10-22T12:00	25950	21	-54.1		257	23	12.7
2025-10-22T12:00	26000	21	-54.3		258	23	12.7
2025-10-22T12:00	26050	21	-54.2		258	23	12.6
2025-10-22T12:00	26100	21	-54.3		258	23	12.8
2025-10-22T12:00	26150	20	-54.3		259	23	13.0
2025-10-22T12:00	26200	20	-54.2		262	24	12.8
2025-10-22T12:00	26250	20	-54.4		266	24	12.7
2025-10-22T12:00	26300	20	-54.5		269	25	12.6
2025-10-22T12:00	26350	20	-54.1		272	26	12.7
2025-10-22T12:00	26400	20	-53.4		274	26	12.6
2025-10-22T12:00	26450	19	-53.3		274	26	12.8
2025-10-22T12:00	26500	19	-53.5		274	25	12.6
2025-10-22T12:00	26550	19	-53.5		274	24	12.6
2025-10-22T12:00	26600	19	-53.6		274	24	12.5
2025-10-22T12:00	26650	19	-54.0		273	23	12.5
2025-10-22T12:00	26700	19	-54.5		273	23	12.5
2025-10-22T12:00	26750	19	-54.8		273	23	12.3
2025-10-22T12:00	26800	18	-54.9		273	23	12.1
2025-10-22T12:00	26850	18	-54.9		272	23	12.1
2025-10-22T12:00	26900	18	-54.8		270	24	12.0
2025-10-22T12:00	26950	18	-54.2		268	25	11.9
2025-10-22T12:00	27000	18	-54.0		268	27	11.9
2025-10-22T12:00	27050	18	-53.7		269	28	12.0
2025-10-22T12:00	27100	18	-53.3		272	28	11.7
2025-10-22T12:00	27150	17	-52.8		274	29	11.5
2025-10-22T12:00	27200	17	-52.3		275	29	11.6
2025-10-22T12:00	27250	17	-51.8		276	29	11.6
2025-10-22T12:00	27300	17	-51.8		276	29	11.6
2025-10-22T12:00	27350	17	-51.8		276	28	11.6
2025-10-22T12:00	27400	17	-51.2		276	27	11.5
2025-10-22T12:00	27450	17	-50.7		276	26	11.5
2025-10-22T12:00	27500	17	-50.3		277	26	11.3
2025-10-22T12:00	27550	16	-49.9		278	25	11.4
2025-10-22T12:00	27600	16	-49.9		279	26	11.6
2025-10-22T12:00	27650	16	-50.4		280	26	11.5
2025-10-22T12:00	27700	16	-50.8		280	26	11.3
2025-10-22T12:00	27750	16	-51.3		280	26	11.4
2025-10-22T12:00	27800	16	-51.6		279	25	11.3
2025-10-22T12:00	27850	16	-51.9		278	25	11.2
2025-10-22T12:00	27900	16	-51.9		275	25	11.1
2025-10-22T12:00	27950	15	-51.9		272	25	10.9
2025-10-22T12:00	28000	15	-51.8		268	26	11.0
2025-10-22T12:00	28050	15	-51.8		266	27	10.9
2025-10-22T12:00	28100	15	-51.8		264	28	10.8
2025-10-22T12:00	28150	15	-51.6		264	28	10.7
2025-10-22T12:00	28200	15	-51.1		265	27	10.6
2025-10-22T12:00	28250	15	-50.8		266	27	10.5
2025-10-22T12:00	28300	15	-50.5		265	27	10.5
2025-10-22T12:00	28350	15	-49.7		263	28	10.5
2025-10-22T12:00	28400	14	-49.2		262	29	10.4
2025-10-22T12:00	28450	14	-49.3		261	31	10.3
2025-10-22T12:00	28500	14	-49.5		261	32	10.3
2025-10-22T12:00	28550	14	-49.7		261	32	10.2
2025-10-22T12:00	28600	14	-49.6		261	32	10.1
2025-10-22T12:00	28650	14	-49.1		261	31	10.0
2025-10-22T12:00	28700	14	-48.9		261	30	9.9
2025-10-22T12:00	28750	14	-49.3		260	29	9.9
2025-10-22T12:00	28800	14	-49.7		259	29	9.7
2025-10-22T12:00	28850	13	-49.7		259	28	9.7
2025-10-22T12:00	28900	13	-49.4		260	28	9.8
2025-10-22T12:00	28950	13	-49.3		261	28	9.5
2025-10-22T12:00	29000	13	-49.4		262	29	9.5
2025-10-22T12:00	29050	13	-49.7		262	29	9.5
2025-10-22T12:00	29100	13	-50.0		264	29	9.4
2025-10-22T12:00	29150	13	-50.3		265	29	9.3
2025-10-22T12:00	29200	13	-50.5		266	29	9.3
2025-10-22T12:00	29250	13	-50.4		266	29	9.2
2025-10-22T12:00	29300	13	-50.1		264	29	9.0
2025-10-22T12:00	29350	12	-49.8		260	28	9.0
2025-10-22T12:00	29400	12	-49.7		257	28	8.9
2025-10-22T12:00	29450	12	-49.5		254	28	8.8
2025-10-22T12:00	29500	12	-49.1		253	29	8.7
2025-10-22T12:00	29550	12	-48.8		253	29	8.6
2025-10-22T12:00	29600	12	-48.7		256	29	8.5
2025-10-22T12:00	29650	12	-48.7		261	29	8.5
2025-10-22T12:00	29700	12	-48.2		265	29	8.4
2025-10-22T12:00	29750	12	-47.4		267	29	8.3
2025-10-22T12:00	29800	12	-47.2		266	28	8.2
2025-10-22T12:00	29850	12	-47.3		263	28	8.1
2025-10-22T12:00	29900	11	-47.1		259	28	8.1
2025-10-22T12:00	29950	11	-47.3		256	29	8.1
2025-10-22T12:00	30000	11	-47.6		254	29	8.0
2025-10-22T12:00	30050	11	-47.5		253	30	7.9
2025-10-22T12:00	30100	11	-47.1		252	31	7.8
2025-10-22T12:00	30150	11	-46.5		250	31	7.7
2025-10-22T12:00	30200	11	-46.3		249	30	7.6
2025-10-22T12:00	30250	11	-46.5		248	30	7.6
2025-10-22T12:00	30300	11	-46.4		248	30	7.6
2025-10-22T12:00	30350	11	-46.3		249	30	7.5
2025-10-22T12:00	30400	11	-46.5		249	30	7.4
2025-10-22T12:00	30450	11	-46.4		249	31	7.3
2025-10-22T12:00	30500	10	-46.3		248	32	7.3
2025-10-22T12:00	30550	10	-46.4		247	33	7.3
2025-10-22T12:00	30600	10	-46.7		246	34	7.2
2025-10-22T12:00	30650	10	-47.1		245	35	7.1
2025-10-22T12:00	30700	10	-47.3		245	35	7.0
2025-10-22T12:00	30750	10	-47.6		245	36	7.0
2025-10-22T12:00	30800	10	-47.8		245	36	6.9
2025-10-22T12:00	30850	10	-47.6		245	36	6.8
2025-10-22T12:00	30900	10	-47.3		245	35	6.8
2025-10-22T12:00	30950	10	-46.9		245	34	6.7
2025-10-22T12:00	31000	10	-46.8		245	34	6.7
2025-10-22T12:00	31050	10	-47.1		246	33	6.6
2025-10-22T12:00	31100	10	-47.4		246	33	6.6
2025-10-22T12:00	31150	9	-47.5		247	32	6.5
2025-10-22T12:00	31200	9	-47.5		249	32	6.5
2025-10-22T12:00	31250	9	-47.6		250	31	6.4
2025-10-22T12:00	31300	9	-47.6		250	31	6.3
2025-10-22T12:00	31350	9	-47.7		249	29	6.3
2025-10-22T12:00	31400	9	-47.9		248	28	6.2
2025-10-22T12:00	31450	9	-48.0		247	28	6.2
2025-10-22T12:00	31500	9	-47.6		248	28	6.1
2025-10-22T12:00	31550	9	-47.2		250	30	6.1
2025-10-22T12:00	31600	9	-47.2		253	30	6.0
2025-10-22T12:00	31650	9	-47.1		254	31	6.0
2025-10-22T12:00	31700	9	-47.2		253	32	5.9
2025-10-22T12:00	31750	9	-47.4		253	33	5.8
2025-10-22T12:00	31800	9	-47.7		252	34	5.8
2025-10-22T12:00	31850	9	-48.1		253	35	5.7
2025-10-22T12:00	31900	8	-48.5		253	36	5.7
2025-10-22T12:00	31950	8	-48.8		253	37	5.6
2025-10-22T12:00	32000	8	-49.1		253	38	5.5
2025-10-22T12:00	32050	8	-49.3		254	39	5.5
2025-10-22T12:00	32100	8	-49.4		255	40	5.4
2025-10-22T12:00	32150	8	-49.4		255	41	5.4
2025-10-22T12:00	32200	8	-49.3		255	41	5.3
2025-10-22T12:00	32250	8	-49.1		255	41	5.3
2025-10-22T12:00	32300	8	-48.4		255	41	5.2
2025-10-22T12:00	32350	8	-48.0		256	41	5.2
2025-10-22T12:00	32400	8	-47.9		258	41	5.1
2025-10-22T12:00	32450	8	-47.8		259	41	5.1
2025-10-22T12:00	32500	8	-47.8		261	41	5.0
2025-10-22T12:00	32550	8	-47.9		262	40	5.0
2025-10-22T12:00	32600	8	-48.0		263	40	4.9
2025-10-22T12:00	32650	8	-48.1		264	40	4.9
2025-10-22T12:00	32700	7	-48.2		265	40	4.9
2025-10-22T12:00	32750	7	-48.4		266	39	4.8
2025-10-22T12:00	32800	7	-48.7		266	39	4.8
2025-10-22T12:00	32850	7	-49.0		266	38	4.8
2025-10-22T12:00	32900	7	-49.0		266	38	4.7
2025-10-22T12:00	32950	7	-48.9		265	38	4.7
2025-10-22T12:00	33000	7	-48.7		265	38	4.6
2025-10-22T12:00	33050	7	-48.9		266	39	4.6
2025-10-22T12:00	33100	7	-49.0		267	40	4.5
2025-10-22T12:00	33150	7	-49.0		268	40	4.5
2025-10-22T12:00	33200	7	-49.0		268	40	4.4
2025-10-22T12:00	33250	7	-48.7		266	40	4.4
2025-10-22T12:00	33300	7	-48.8		263	38	4.3
2025-10-22T12:00	33350	7	-48.7		260	36	4.3
2025-10-22T12:00	33400	7	-48.7		257	36	4.3
2025-10-22T12:00	33450	7	-48.6		255	36	4.3
2025-10-22T12:00	33500	7	-48.2		256	37	4.3
2025-10-22T12:00	33550	7	-47.4		255	38	4.3
2025-10-22T12:00	33600	7	-46.8		254	39	4.3
2025-10-22T12:00	33650	6	-46.4		255	40	4.3
2025-10-22T12:00	33700	6	-45.9		255	41	4.2
2025-10-22T12:00	33750	6	-46.0		256	41	4.1
2025-10-22T12:00	33800	6	-45.7		257	41	4.1
2025-10-22T12:00	33850	6	-45.6		258	41	4.1
2025-10-22T12:00	33900	6	-45.8		260	41	4.1
2025-10-22T12:00	33950	6	-46.0		262	41	4.1
2025-10-22T12:00	34000	6	-46.0		263	40	4.1
2025-10-22T12:00	34050	6	-46.0		263	40	4.1
2025-10-23T00:00	491	945	14.2	12.8	201	4	
2025-10-23T00:00	501	944	14.3	12.7	204	4	
2025-10-23T00:00	520	942	14.3	12.5	206	5	
2025-10-23T00:00	540	940	14.4	12.2	207	7	
2025-10-23T00:00	560	938	14.3	12.1	208	8	
2025-10-23T00:00	580	935	14.1	12.1	209	10	
2025-10-23T00:00	600	933	13.8	12.1	210	11	
2025-10-23T00:00	620	931	13.8	11.9	211	12	
2025-10-23T00:00	640	929	13.8	11.7	212	12	
2025-10-23T00:00	660	927	13.7	11.7	213	13	
2025-10-23T00:00	680	925	13.5	11.7	213	13	
2025-10-23T00:00	700	923	13.3	11.7	214	14	
2025-10-23T00:00	720	920	13.1	11.7	214	14	
2025-10-23T00:00	740	918	13.0	11.6	214	15	
2025-10-23T00:00	760	916	12.8	11.4	213	15	
2025-10-23T00:00	780	914	12.9	11.2	213	16	
2025-10-23T00:00	800	911	12.7	11.2	211	16	
2025-10-23T00:00	820	909	12.6	11.2	211	17	
2025-10-23T00:00	840	907	12.5	11.0	210	18	
2025-10-23T00:00	860	905	12.3	11.0	210	18	
2025-10-23T00:00	880	903	12.2	10.9	210	19	
2025-10-23T00:00	900	901	12.1	10.8	210	19	
2025-10-23T00:00	920	899	11.9	10.7	210	20	
2025-10-23T00:00	940	896	12.0	10.4	210	20	
2025-10-23T00:00	960	894	12.0	10.3	210	21	
2025-10-23T00:00	980	892	12.0	10.1	210	21	
2025-10-23T00:00	1000	890	11.9	10.0	211	22	
2025-10-23T00:00	1020	888	11.7	10.0	211	22	
2025-10-23T00:00	1040	885	11.6	9.9	212	23	
2025-10-23T00:00	1060	884	11.6	9.8	213	23	
2025-10-23T00:00	1080	882	11.4	9.7	213	23	
2025-10-23T00:00	1100	879	11.2	9.7	214	24	
2025-10-23T00:00	1120	877	11.1	9.6	214	24	
2025-10-23T00:00	1140	875	11.0	9.6	215	24	
2025-10-23T00:00	1160	873	10.8	9.5	216	24	
2025-10-23T00:00	1180	871	10.6	9.5	217	24	
2025-10-23T00:00	1200	869	10.6	9.4	217	24	
2025-10-23T00:00	1220	867	10.5	9.3	218	24	
2025-10-23T00:00	1240	865	10.4	9.2	219	23	
2025-10-23T00:00	1260	863	10.3	9.1	220	23	
2025-10-23T00:00	1280	860	10.2	9.1	220	23	
2025-10-23T00:00	1300	858	10.1	9.0	221	23	
2025-10-23T00:00	1320	857	10.0	8.8	221	23	
2025-10-23T00:00	1340	854	10.0	8.7	222	23	
2025-10-23T00:00	1360	852	9.8	8.6	223	23	
2025-10-23T00:00	1380	850	9.6	8.6	224	23	
2025-10-23T00:00	1400	848	9.5	8.5	225	22	
2025-10-23T00:00	1420	846	9.4	8.3	226	22	
2025-10-23T00:00	1440	844	9.4	8.0	226	22	
2025-10-23T00:00	1460	842	9.2	7.8	226	22	
2025-10-23T00:00	1480	840	9.2	7.3	226	21	
2025-10-23T00:00	1500	838	9.1	7.1	226	21	
2025-10-23T00:00	1520	836	9.0	6.7	226	21	
2025-10-23T00:00	1540	834	8.9	6.6	226	22	
2025-10-23T00:00	1560	832	8.8	6.3	227	22	
2025-10-23T00:00	1580	830	8.6	6.1	227	22	
2025-10-23T00:00	1600	828	8.5	6.1	228	22	
2025-10-23T00:00	1620	826	8.3	6.1	229	23	
2025-10-23T00:00	1640	824	8.1	5.9	230	23	
2025-10-23T00:00	1660	822	7.9	5.8	230	24	
2025-10-23T00:00	1680	820	7.8	5.7	231	24	
2025-10-23T00:00	1700	818	7.7	5.6	231	24	
2025-10-23T00:00	1720	816	7.6	5.5	232	24	
2025-10-23T00:00	1740	814	7.5	5.4	233	25	
2025-10-23T00:00	1760	812	7.3	5.4	233	25	
2025-10-23T00:00	1780	810	7.2	5.4	234	25	
2025-10-23T00:00	1800	808	7.1	5.4	234	25	
2025-10-23T00:00	1820	806	6.9	5.3	235	25	
2025-10-23T00:00	1840	804	6.7	5.3	235	25	
2025-10-23T00:00	1860	803	6.6	5.3	236	25	
2025-10-23T00:00	1880	800	6.5	5.3	237	25	
2025-10-23T00:00	1900	799	6.3	5.2	238	24	
2025-10-23T00:00	1920	797	6.1	5.1	238	24	
2025-10-23T00:00	1940	795	6.1	5.1	239	24	
2025-10-23T00:00	1960	793	6.0	5.0	240	24	
2025-10-23T00:00	1980	791	5.9	4.9	240	24	
2025-10-23T00:00	2000	789	5.8	4.8	241	24	
2025-10-23T00:00	2020	787	5.6	4.7	241	24	
2025-10-23T00:00	2040	785	5.5	4.6	241	24	
2025-10-23T00:00	2060	783	5.3	4.5	242	23	
2025-10-23T00:00	2080	781	5.1	4.5	242	23	
2025-10-23T00:00	2100	779	4.9	4.4	242	23	
2025-10-23T00:00	2120	778	4.8	4.4	243	23	
2025-10-23T00:00	2140	775	4.6	4.2	243	23	
2025-10-23T00:00	2160	774	4.5	4.1	243	23	
2025-10-23T00:00	2180	772	4.4	4.1	244	23	
2025-10-23T00:00	2200	770	4.2	4.0	244	23	
2025-10-23T00:00	2220	768	4.0	3.9	245	23	
2025-10-23T00:00	2240	766	3.9	3.8	245	23	
2025-10-23T00:00	2260	764	3.8	3.6	246	23	
2025-10-23T00:00	2280	762	3.6	3.5	246	24	
2025-10-23T00:00	2300	760	3.5	3.4	247	24	
2025-10-23T00:00	2320	758	3.4	3.2	248	24	
2025-10-23T00:00	2340	757	3.3	2.9	248	24	
2025-10-23T00:00	2360	755	3.2	2.8	248	24	
2025-10-23T00:00	2380	753	3.0	2.9	249	24	
2025-10-23T00:00	2400	751	2.9	2.8	248	23	
2025-10-23T00:00	2420	749	2.9	2.8	248	23	
2025-10-23T00:00	2440	747	2.9	2.7	248	23	
2025-10-23T00:00	2460	746	2.7	2.6	248	23	
2025-10-23T00:00	2480	744	2.6	2.5	248	23	
2025-10-23T00:00	2500	742	2.5	2.4	248	23	
2025-10-23T00:00	2520	740	2.4	2.3	247	23	
2025-10-23T00:00	2540	738	2.3	2.3	246	23	
2025-10-23T00:00	2560	736	2.3	2.0	246	23	
2025-10-23T00:00	2580	735	2.2	1.9	245	23	
2025-10-23T00:00	2600	733	2.1	1.6	244	22	
2025-10-23T00:00	2620	731	1.9	1.5	244	22	
2025-10-23T00:00	2640	729	1.8	1.4	244	22	
2025-10-23T00:00	2660	727	1.6	1.3	244	22	
2025-10-23T00:00	2680	725	1.4	1.3	244	23	
2025-10-23T00:00	2700	724	1.2	1.2	244	23	
2025-10-23T00:00	2720	722	1.1	1.1	244	23	
2025-10-23T00:00	2740	720	0.9	0.9	244	23	
2025-10-23T00:00	2760	718	0.7	0.7	243	24	
2025-10-23T00:00	2780	717	0.6	0.6	244	24	
2025-10-23T00:00	2800	715	0.4	0.4	244	24	
2025-10-23T00:00	2820	713	0.3	0.3	244	24	
2025-10-23T00:00	2840	711	0.3	0.2	245	25	
2025-10-23T00:00	2860	710	0.2	0.1	245	25	
2025-10-23T00:00	2880	708	0.1	0.1	246	25	
2025-10-23T00:00	2900	706	0.1	0.0	246	25	
2025-10-23T00:00	2920	704	0.0	0.0	246	25	
2025-10-23T00:00	2940	702	0.0	-0.1	246	25	
2025-10-23T00:00	2960	701	-0.1	-0.1	247	25	
2025-10-23T00:00	2980	699	-0.1	-0.1	246	25	
2025-10-23T00:00	3000	697	-0.2	-0.2	246	25	
2025-10-23T00:00	3020	695	-0.3	-0.3	246	25	
2025-10-23T00:00	3040	694	-0.4	-0.4	246	25	
2025-10-23T00:00	3060	692	-0.5	-0.5	245	26	
2025-10-23T00:00	3080	690	-0.6	-0.6	244	26	
2025-10-23T00:00	3100	688	-0.7	-0.7	244	26	
2025-10-23T00:00	3120	687	-0.8	-0.8	244	26	
2025-10-23T00:00	3140	685	-0.9	-0.9	243	26	
2025-10-23T00:00	3160	684	-0.9	-0.9	243	26	
2025-10-23T00:00	3180	682	-1.0	-1.0	243	26	
2025-10-23T00:00	3200	680	-1.1	-1.1	243	26	
2025-10-23T00:00	3220	678	-1.2	-1.2	243	26	
2025-10-23T00:00	3240	677	-1.2	-1.2	244	26	
2025-10-23T00:00	3260	675	-1.3	-1.3	244	26	
2025-10-23T00:00	3280	673	-1.4	-1.4	244	26	
2025-10-23T00:00	3300	671	-1.6	-1.6	244	26	
2025-10-23T00:00	3320	670	-1.7	-1.7	245	26	
2025-10-23T00:00	3340	668	-1.8	-1.8	245	26	
2025-10-23T00:00	3360	666	-1.9	-1.9	245	26	
2025-10-23T00:00	3380	665	-2.0	-2.0	245	26	
2025-10-23T00:00	3400	663	-2.1	-2.1	245	26	
2025-10-23T00:00	3420	661	-2.2	-2.2	245	26	
2025-10-23T00:00	3440	660	-2.4	-2.4	245	26	
2025-10-23T00:00	3460	658	-2.5	-2.5	245	26	
2025-10-23T00:00	3480	657	-2.6	-2.6	245	26	
2025-10-23T00:00	3500	655	-2.7	-2.7	245	26	
2025-10-23T00:00	3520	653	-2.7	-2.7	245	25	
2025-10-23T00:00	3540	652	-2.9	-2.9	245	25	
2025-10-23T00:00	3560	650	-2.9	-3.0	246	25	
2025-10-23T00:00	3580	648	-3.0	-3.1	247	25	
2025-10-23T00:00	3600	647	-3.0	-3.3	247	25	
2025-10-23T00:00	3620	645	-3.1	-3.4	247	25	
2025-10-23T00:00	3640	643	-3.2	-3.5	247	25	
2025-10-23T00:00	3660	642	-3.3	-3.6	247	25	
2025-10-23T00:00	3680	640	-3.5	-3.6	247	25	
2025-10-23T00:00	3700	639	-3.6	-3.8	247	25	
2025-10-23T00:00	3720	637	-3.7	-3.8	247	25	
2025-10-23T00:00	3740	635	-3.8	-4.1	247	25	
2025-10-23T00:00	3760	634	-3.9	-4.4	246	25	
2025-10-23T00:00	3780	632	-4.0	-4.5	246	25	
2025-10-23T00:00	3800	631	-4.1	-4.6	246	25	
2025-10-23T00:00	3820	629	-4.2	-4.7	246	25	
2025-10-23T00:00	3840	627	-4.4	-4.7	247	25	
2025-10-23T00:00	3860	626	-4.5	-4.9	248	25	
2025-10-23T00:00	3880	624	-4.5	-5.0	249	26	
2025-10-23T00:00	3900	622	-4.6	-5.2	251	26	
2025-10-23T00:00	3920	621	-4.7	-5.4	252	26	
2025-10-23T00:00	3940	619	-4.8	-5.5	253	26	
2025-10-23T00:00	3960	618	-4.8	-5.7	253	26	
2025-10-23T00:00	3980	616	-4.9	-5.8	252	26	
2025-10-23T00:00	4000	615	-5.0	-5.9	251	26	
2025-10-23T00:00	4020	613	-5.1	-6.2	250	26	
2025-10-23T00:00	4040	612	-5.1	-6.3	249	27	
2025-10-23T00:00	4060	610	-5.3	-6.3	248	27	
2025-10-23T00:00	4080	609	-5.5	-6.4	248	27	
2025-10-23T00:00	4100	607	-5.6	-6.4	248	27	
2025-10-23T00:00	4120	605	-5.7	-6.5	247	27	
2025-10-23T00:00	4140	604	-5.9	-6.6	247	27	
2025-10-23T00:00	4160	602	-6.0	-6.7	247	27	
2025-10-23T00:00	4180	601	-6.2	-6.8	246	26	
2025-10-23T00:00	4200	599	-6.3	-6.8	246	26	
2025-10-23T00:00	4220	598	-6.5	-6.9	246	26	
2025-10-23T00:00	4240	596	-6.6	-7.0	245	26	
2025-10-23T00:00	4260	595	-6.8	-7.1	245	26	
2025-10-23T00:00	4280	593	-6.9	-7.3	245	26	
2025-10-23T00:00	4300	592	-7.0	-7.3	244	27	
2025-10-23T00:00	4320	590	-7.2	-7.4	244	27	
2025-10-23T00:00	4340	589	-7.3	-7.5	244	27	
2025-10-23T00:00	4360	587	-7.4	-7.6	243	27	
2025-10-23T00:00	4380	585	-7.5	-7.7	243	27	
2025-10-23T00:00	4400	584	-7.6	-7.8	243	27	
2025-10-23T00:00	4420	583	-7.7	-7.8	243	27	
2025-10-23T00:00	4440	581	-7.8	-8.0	242	26	
2025-10-23T00:00	4460	580	-7.9	-8.1	242	26	
2025-10-23T00:00	4480	578	-8.0	-8.2	242	26	
2025-10-23T00:00	4500	577	-8.1	-8.4	241	26	
2025-10-23T00:00	4520	575	-8.2	-8.5	241	26	
2025-10-23T00:00	4540	574	-8.2	-8.6	241	25	
2025-10-23T00:00	4560	572	-8.3	-8.7	241	25	
2025-10-23T00:00	4580	571	-8.4	-8.9	241	25	
2025-10-23T00:00	4600	569	-8.6	-9.0	241	25	
2025-10-23T00:00	4620	568	-8.7	-9.2	241	25	
2025-10-23T00:00	4640	566	-8.8	-9.2	241	25	
2025-10-23T00:00	4660	565	-8.9	-9.4	240	25	
2025-10-23T00:00	4680	563	-9.1	-9.5	240	25	
2025-10-23T00:00	4700	562	-9.2	-9.6	240	24	
2025-10-23T00:00	4720	561	-9.3	-9.7	239	24	
2025-10-23T00:00	4740	559	-9.4	-9.9	239	24	
2025-10-23T00:00	4760	558	-9.5	-10.0	239	24	
2025-10-23T00:00	4780	556	-9.7	-10.0	240	24	
2025-10-23T00:00	4800	555	-9.8	-10.2	241	24	
2025-10-23T00:00	4820	553	-9.9	-10.3	242	24	
2025-10-23T00:00	4840	552	-10.0	-10.5	243	24	
2025-10-23T00:00	4860	551	-10.1	-10.5	244	24	
2025-10-23T00:00	4880	549	-10.2	-10.7	245	24	
2025-10-23T00:00	4900	548	-10.4	-10.9	246	24	
2025-10-23T00:00	4920	546	-10.5	-11.1	246	24	
2025-10-23T00:00	4940	545	-10.6	-11.2	247	24	
2025-10-23T00:00	4960	543	-10.8	-11.3	247	23	
2025-10-23T00:00	4980	542	-10.9	-11.5	246	23	
2025-10-23T00:00	5000	540	-11.0	-11.6	246	23	
2025-10-23T00:00	5020	539	-11.1	-11.7	245	24	
2025-10-23T00:00	5040	538	-11.2	-11.9	245	24	
2025-10-23T00:00	5060	536	-11.4	-12.1	246	24	
2025-10-23T00:00	5080	535	-11.5	-12.3	246	25	
2025-10-23T00:00	5100	534	-11.6	-12.5	246	25	
2025-10-23T00:00	5120	532	-11.7	-12.6	247	24	
2025-10-23T00:00	5140	531	-11.8	-12.7	247	24	
2025-10-23T00:00	5160	530	-11.9	-12.9	247	23	
2025-10-23T00:00	5180	528	-12.1	-13.0	247	23	
2025-10-23T00:00	5200	527	-12.2	-13.1	247	23	
2025-10-23T00:00	5220	525	-12.3	-13.4	248	23	
2025-10-23T00:00	5240	524	-12.4	-13.5	248	23	
2025-10-23T00:00	5260	522	-12.6	-13.5	249	23	
2025-10-23T00:00	5280	521	-12.7	-13.7	250	24	
2025-10-23T00:00	5300	520	-12.8	-13.8	250	24	
2025-10-23T00:00	5320	518	-12.9	-13.9	250	24	
2025-10-23T00:00	5340	517	-13.0	-14.1	250	24	
2025-10-23T00:00	5360	516	-13.1	-14.2	250	24	
2025-10-23T00:00	5380	515	-13.2	-14.4	250	23	
2025-10-23T00:00	5400	513	-13.4	-14.6	250	23	
2025-10-23T00:00	5420	512	-13.5	-14.7	250	23	
2025-10-23T00:00	5440	510	-13.6	-14.8	250	23	
2025-10-23T00:00	5460	509	-13.8	-14.9	251	23	
2025-10-23T00:00	5480	508	-13.9	-15.0	251	23	
2025-10-23T00:00	5500	506	-14.0	-15.1	252	23	
2025-10-23T00:00	5520	505	-14.2	-15.3	252	23	
2025-10-23T00:00	5540	504	-14.3	-15.4	253	24	
2025-10-23T00:00	5560	502	-14.4	-15.5	253	24	
2025-10-23T00:00	5580	501	-14.5	-15.7	254	24	
2025-10-23T00:00	5600	500	-14.7	-15.8	254	24	
2025-10-23T00:00	5620	498	-14.8	-15.9	254	24	
2025-10-23T00:00	5640	497	-14.9	-16.1	255	24	
2025-10-23T00:00	5660	496	-15.1	-16.3	255	24	
2025-10-23T00:00	5680	494	-15.2	-16.4	255	24	
2025-10-23T00:00	5700	493	-15.3	-16.5	255	24	
2025-10-23T00:00	5720	492	-15.5	-16.7	255	24	
2025-10-23T00:00	5740	491	-15.6	-16.8	256	24	
2025-10-23T00:00	5760	489	-15.7	-16.9	256	24	
2025-10-23T00:00	5780	488	-15.9	-17.0	256	24	
2025-10-23T00:00	5800	487	-16.0	-17.2	257	24	
2025-10-23T00:00	5820	485	-16.1	-17.4	257	24	
2025-10-23T00:00	5840	484	-16.3	-17.6	258	23	
2025-10-23T00:00	5860	483	-16.5	-17.8	258	23	
2025-10-23T00:00	5880	481	-16.6	-18.0	259	23	
2025-10-23T00:00	5900	480	-16.8	-18.2	260	23	
2025-10-23T00:00	5920	479	-16.9	-18.2	261	23	
2025-10-23T00:00	5940	478	-17.0	-18.4	262	24	
2025-10-23T00:00	5960	476	-17.1	-18.5	262	24	
2025-10-23T00:00	5980	475	-17.3	-18.7	262	25	
2025-10-23T00:00	6000	474	-17.4	-18.8	262	25	
2025-10-23T00:00	6020	473	-17.6	-19.0	262	26	
2025-10-23T00:00	6040	471	-17.7	-19.2	262	26	
2025-10-23T00:00	6060	470	-17.8	-19.5	261	26	
2025-10-23T00:00	6080	469	-18.0	-19.6	261	26	
2025-10-23T00:00	6100	468	-18.1	-19.7	261	26	
2025-10-23T00:00	6120	466	-18.3	-19.8	262	26	
2025-10-23T00:00	6140	465	-18.4	-19.8	263	26	
2025-10-23T00:00	6160	464	-18.6	-20.1	264	27	
2025-10-23T00:00	6180	463	-18.8	-20.2	265	27	
2025-10-23T00:00	6200	461	-18.9	-20.3	265	27	
2025-10-23T00:00	6220	460	-19.0	-20.3	265	27	
2025-10-23T00:00	6240	459	-19.2	-20.5	265	27	
2025-10-23T00:00	6260	458	-19.3	-20.8	265	27	
2025-10-23T00:00	6280	456	-19.5	-21.1	264	27	
2025-10-23T00:00	6300	455	-19.6	-21.2	264	27	
2025-10-23T00:00	6320	454	-19.7	-21.3	263	26	
2025-10-23T00:00	6340	453	-19.9	-21.4	262	26	
2025-10-23T00:00	6360	452	-20.0	-21.4	261	26	
2025-10-23T00:00	6380	450	-20.1	-21.7	260	26	
2025-10-23T00:00	6400	449	-20.3	-21.9	259	26	
2025-10-23T00:00	6420	448	-20.5	-22.2	259	26	
2025-10-23T00:00	6440	447	-20.7	-22.4	259	26	
2025-10-23T00:00	6460	445	-20.9	-22.6	259	25	
2025-10-23T00:00	6480	444	-21.0	-22.7	260	25	
2025-10-23T00:00	6500	443	-21.2	-22.9	261	24	
2025-10-23T00:00	6520	442	-21.3	-23.1	263	24	
2025-10-23T00:00	6540	441	-21.5	-23.3	265	24	
2025-10-23T00:00	6560	439	-21.6	-23.4	266	24	
2025-10-23T00:00	6580	438	-21.7	-23.4	266	25	
2025-10-23T00:00	6600	437	-21.9	-23.6	267	25	
2025-10-23T00:00	6620	436	-22.0	-23.7	267	25	
2025-10-23T00:00	6640	435	-22.2	-23.8	266	25	
2025-10-23T00:00	6660	433	-22.3	-23.9	266	25	
2025-10-23T00:00	6680	432	-22.4	-24.1	265	25	
2025-10-23T00:00	6700	431	-22.5	-24.2	265	25	
2025-10-23T00:00	6720	430	-22.7	-24.4	264	25	
2025-10-23T00:00	6740	429	-22.8	-24.5	263	25	
2025-10-23T00:00	6760	428	-23.0	-24.6	262	25	
2025-10-23T00:00	6780	427	-23.1	-24.7	261	25	
2025-10-23T00:00	6800	425	-23.2	-24.9	260	25	
2025-10-23T00:00	6820	424	-23.4	-25.1	260	25	
2025-10-23T00:00	6840	423	-23.5	-25.3	259	25	
2025-10-23T00:00	6860	422	-23.7	-25.5	259	24	
2025-10-23T00:00	6880	421	-23.9	-25.7	259	24	
2025-10-23T00:00	6900	420	-24.0	-25.8	260	23	
2025-10-23T00:00	6920	418	-24.2	-25.9	260	23	
2025-10-23T00:00	6940	417	-24.3	-26.0	261	23	
2025-10-23T00:00	6960	416	-24.5	-26.2	261	23	
2025-10-23T00:00	6980	415	-24.6	-26.3	261	23	
2025-10-23T00:00	7000	414	-24.8	-26.4	260	24	
2025-10-23T00:00	7020	413	-24.9	-26.7	259	24	
2025-10-23T00:00	7040	412	-25.1	-26.8	258	24	
2025-10-23T00:00	7060	410	-25.2	-27.0	258	24	
2025-10-23T00:00	7080	409	-25.4	-27.3	257	24	
2025-10-23T00:00	7100	408	-25.6	-27.6	257	24	
2025-10-23T00:00	7120	407	-25.8	-27.7	258	24	
2025-10-23T00:00	7140	406	-25.9	-28.0	258	24	
2025-10-23T00:00	7160	405	-26.1	-28.2	259	24	
2025-10-23T00:00	7180	404	-26.3	-28.2	259	24	
2025-10-23T00:00	7200	403	-26.4	-28.4	258	24	
2025-10-23T00:00	7220	402	-26.6	-28.5	258	24	
2025-10-23T00:00	7240	400	-26.7	-28.7	258	24	
2025-10-23T00:00	7260	399	-26.9	-29.0	258	24	
2025-10-23T00:00	7280	398	-27.1	-29.1	258	24	
2025-10-23T00:00	7300	397	-27.2	-29.2	257	24	
2025-10-23T00:00	7320	396	-27.4	-29.4	257	24	
2025-10-23T00:00	7340	395	-27.6	-29.6	256	24	
2025-10-23T00:00	7360	394	-27.8	-29.8	256	24	
2025-10-23T00:00	7380	393	-27.9	-29.9	255	24	
2025-10-23T00:00	7400	392	-28.1	-30.0	254	24	
2025-10-23T00:00	7420	391	-28.2	-30.2	254	24	
2025-10-23T00:00	7440	389	-28.4	-30.4	255	24	
2025-10-23T00:00	7460	388	-28.6	-30.7	256	25	
2025-10-23T00:00	7480	387	-28.7	-30.7	257	25	
2025-10-23T00:00	7500	386	-28.9	-30.9	258	25	
2025-10-23T00:00	7520	385	-29.1	-31.0	259	25	
2025-10-23T00:00	7540	384	-29.2	-31.2	259	26	
2025-10-23T00:00	7560	383	-29.4	-31.3	260	26	
2025-10-23T00:00	7580	382	-29.6	-31.6	260	26	
2025-10-23T00:00	7600	381	-29.8	-31.8	260	26	
2025-10-23T00:00	7620	380	-30.0	-32.1	261	25	
2025-10-23T00:00	7640	379	-30.1	-32.2	261	25	
2025-10-23T00:00	7660	378	-30.3	-32.3	261	25	
2025-10-23T00:00	7680	377	-30.5	-32.6	261	24	
2025-10-23T00:00	7700	375	-30.7	-33.2	261	24	
2025-10-23T00:00	7720	374	-30.9	-33.2	261	24	
2025-10-23T00:00	7740	373	-31.0	-33.2	261	24	
2025-10-23T00:00	7760	372	-31.2	-33.3	260	24	
2025-10-23T00:00	7780	371	-31.3	-33.5	259	24	
2025-10-23T00:00	7800	370	-31.5	-33.8	258	24	
2025-10-23T00:00	7820	369	-31.7	-34.0	257	24	
2025-10-23T00:00	7840	368	-31.9	-34.1	256	24	
2025-10-23T00:00	7860	367	-32.0	-34.2	256	24	
2025-10-23T00:00	7880	366	-32.2	-34.4	255	24	
2025-10-23T00:00	7900	365	-32.3	-34.5	255	24	
2025-10-23T00:00	7920	364	-32.5	-34.7	255	24	
2025-10-23T00:00	7940	363	-32.7	-34.8	255	24	
2025-10-23T00:00	7960	362	-32.9	-35.1	255	23	
2025-10-23T00:00	7980	361	-33.0	-35.3	255	23	
2025-10-23T00:00	8000	360	-33.2	-35.3	255	23	
2025-10-23T00:00	8020	359	-33.4	-35.5	255	23	
2025-10-23T00:00	8040	358	-33.5	-35.6	254	23	
2025-10-23T00:00	8060	357	-33.6	-35.8	254	23	
2025-10-23T00:00	8080	356	-33.8	-36.0	254	23	
2025-10-23T00:00	8100	355	-34.0	-36.0	253	22	
2025-10-23T00:00	8120	354	-34.2	-36.2	253	22	
2025-10-23T00:00	8140	353	-34.3	-36.5	253	23	
2025-10-23T00:00	8160	352	-34.5	-36.7	253	23	
2025-10-23T00:00	8180	351	-34.7	-36.9	253	23	
2025-10-23T00:00	8200	350	-34.9	-37.1	253	23	
2025-10-23T00:00	8220	349	-35.0	-37.2	254	23	
2025-10-23T00:00	8240	348	-35.2	-37.3	255	23	
2025-10-23T00:00	8260	347	-35.4	-37.5	255	23	
2025-10-23T00:00	8280	346	-35.5	-37.7	255	23	
2025-10-23T00:00	8300	345	-35.7	-38.1	255	23	
2025-10-23T00:00	8320	344	-35.9	-38.4	254	23	
2025-10-23T00:00	8340	343	-36.1	-38.6	253	22	
2025-10-23T00:00	8360	342	-36.3	-39.0	251	22	
2025-10-23T00:00	8380	341	-36.5	-39.1	251	22	
2025-10-23T00:00	8400	340	-36.7	-39.2	250	22	
2025-10-23T00:00	8420	339	-36.8	-39.3	250	22	
2025-10-23T00:00	8440	338	-37.0	-39.4	251	22	
2025-10-23T00:00	8460	337	-37.2	-39.7	251	22	
2025-10-23T00:00	8480	336	-37.4	-40.0	251	22	
2025-10-23T00:00	8500	335	-37.6	-40.1	252	22	
2025-10-23T00:00	8520	334	-37.7	-40.1	252	22	
2025-10-23T00:00	8540	333	-37.9	-40.2	252	23	
2025-10-23T00:00	8560	332	-38.1	-40.5	253	23	
2025-10-23T00:00	8580	331	-38.3	-41.0	253	23	
2025-10-23T00:00	8600	330	-38.5	-41.2	253	23	
2025-10-23T00:00	8620	329	-38.6	-41.6	252	24	
2025-10-23T00:00	8640	328	-38.8	-42.0	252	24	
2025-10-23T00:00	8660	327	-38.9	-41.9	252	24	
2025-10-23T00:00	8680	326	-39.0	-42.1	252	24	
2025-10-23T00:00	8700	325	-39.2	-41.8	253	24	
2025-10-23T00:00	8720	324	-39.3	-41.8	254	24	
2025-10-23T00:00	8740	323	-39.5	-42.3	256	24	
2025-10-23T00:00	8760	323	-39.7	-43.1	257	24	
2025-10-23T00:00	8780	322	-39.9	-43.1	258	24	
2025-10-23T00:00	8800	321	-40.1	-43.2	259	24	
2025-10-23T00:00	8820	320	-40.3	-43.7	258	24	
2025-10-23T00:00	8840	319	-40.5	-44.6	257	25	
2025-10-23T00:00	8860	318	-40.7	-44.6	255	25	
2025-10-23T00:00	8880	317	-40.9	-44.6	254	26	
2025-10-23T00:00	8900	316	-41.1	-44.8	253	26	
2025-10-23T00:00	8920	315	-41.3	-44.6	253	26	
2025-10-23T00:00	8940	314	-41.5	-44.7	254	26	
2025-10-23T00:00	8960	313	-41.6	-45.0	255	26	
2025-10-23T00:00	8980	312	-41.8	-45.1	255	26	
2025-10-23T00:00	9000	311	-42.0	-45.2	256	27	
2025-10-23T00:00	9020	310	-42.2	-45.3	256	27	
2025-10-23T00:00	9040	309	-42.4	-46.0	256	27	
2025-10-23T00:00	9060	309	-42.5	-47.4	256	27	
2025-10-23T00:00	9080	308	-42.7	-48.0	256	27	
2025-10-23T00:00	9100	307	-42.9	-47.6	256	27	
2025-10-23T00:00	9120	306	-43.0	-47.4	256	27	
2025-10-23T00:00	9140	305	-43.2	-47.9	256	27	
2025-10-23T00:00	9160	304	-43.4	-48.0	256	27	
2025-10-23T00:00	9180	303	-43.6	-48.7	256	27	
2025-10-23T00:00	9200	302	-43.8	-48.9	256	28	
2025-10-23T00:00	9220	301	-44.0	-49.6	255	28	
2025-10-23T00:00	9240	300	-44.2	-51.0	254	28	
2025-10-23T00:00	9260	300	-44.4	-51.4	254	28	
2025-10-23T00:00	9280	299	-44.5	-51.5	253	28	
2025-10-23T00:00	9300	298	-44.7	-51.3	253	28	
2025-10-23T00:00	9320	297	-44.9	-51.8	254	27	
2025-10-23T00:00	9340	296	-45.1	-52.8	255	27	
2025-10-23T00:00	9360	295	-45.3	-52.8	255	27	
2025-10-23T00:00	9380	294	-45.5	-53.0	255	27	
2025-10-23T00:00	9400	293	-45.7	-53.6	255	27	
2025-10-23T00:00	9420	292	-45.8	-53.6	255	28	
2025-10-23T00:00	9440	292	-46.0	-53.6	255	28	
2025-10-23T00:00	9460	291	-46.2	-53.2	255	28	
2025-10-23T00:00	9480	290	-46.4	-53.5	256	28	
2025-10-23T00:00	9500	289	-46.6	-53.6	256	28	
2025-10-23T00:00	9520	288	-46.8	-53.4	256	28	
2025-10-23T00:00	9540	287	-47.0	-53.3	257	28	
2025-10-23T00:00	9560	286	-47.2	-52.9	257	28	
2025-10-23T00:00	9580	285	-47.3	-52.8	257	28	
2025-10-23T00:00	9600	285	-47.5	-52.8	257	28	
2025-10-23T00:00	9620	284	-47.7	-52.7	258	28	
2025-10-23T00:00	9640	283	-47.9	-53.1	257	28	
2025-10-23T00:00	9660	282	-48.1	-53.6	257	28	
2025-10-23T00:00	9680	281	-48.3	-53.9	257	28	
2025-10-23T00:00	9700	280	-48.5	-54.0	258	28	
2025-10-23T00:00	9720	279	-48.7	-53.8	258	28	
2025-10-23T00:00	9740	279	-48.9	-53.8	258	28	
2025-10-23T00:00	9760	278	-49.1	-53.9	258	28	
2025-10-23T00:00	9780	277	-49.3	-53.8	258	28	
2025-10-23T00:00	9800	276	-49.4	-53.6	258	28	
2025-10-23T00:00	9820	275	-49.6	-54.0	258	28	
2025-10-23T00:00	9840	274	-49.8	-54.2	258	28	
2025-10-23T00:00	9860	273	-50.0	-54.4	258	28	
2025-10-23T00:00	9880	273	-50.2	-54.7	258	29	
2025-10-23T00:00	9900	272	-50.4	-55.1	257	29	
2025-10-23T00:00	9920	271	-50.6	-55.9	257	29	
2025-10-23T00:00	9940	270	-50.8	-56.6	256	30	
2025-10-23T00:00	9960	269	-51.0	-57.2	256	30	
2025-10-23T00:00	9980	269	-51.2	-57.2	256	30	
2025-10-23T00:00	10000	268	-51.4	-56.9	256	30	
2025-10-23T00:00	10018	267	-51.5	-56.8	256	30	
2025-10-23T00:00	10050	266	-51.8	-56.8	257	30	
2025-10-23T00:00	10100	264	-52.3	-57.0	257	30	
2025-10-23T00:00	10150	262	-52.8	-57.7	257	30	
2025-10-23T00:00	10200	260	-53.2	-58.0	257	29	
2025-10-23T00:00	10250	258	-53.7	-58.3	258	29	
2025-10-23T00:00	10300	256	-54.2	-59.2	257	29	
2025-10-23T00:00	10350	254	-54.6	-59.9	258	29	
2025-10-23T00:00	10400	252	-55.1	-60.2	259	29	
2025-10-23T00:00	10450	250	-55.6	-60.3	260	29	
2025-10-23T00:00	10500	248	-56.0	-60.5	259	28	
2025-10-23T00:00	10550	246	-56.4	-60.7	257	29	
2025-10-23T00:00	10600	244	-56.8	-60.7	258	30	
2025-10-23T00:00	10650	242	-57.3	-60.9	258	31	
2025-10-23T00:00	10700	240	-57.6	-61.2	258	31	
2025-10-23T00:00	10750	238	-57.9	-61.3	260	31	
2025-10-23T00:00	10800	236	-58.1	-61.6	261	31	
2025-10-23T00:00	10850	234	-58.5	-62.3	263	31	
2025-10-23T00:00	10900	232	-57.6	-65.6	265	31	
2025-10-23T00:00	10950	231	-57.3	-67.1	267	32	
2025-10-23T00:00	11000	229	-57.2	-67.6	268	32	
2025-10-23T00:00	11050	227	-56.9	-69.2	268	31	
2025-10-23T00:00	11100	225	-56.6	-70.0	270	30	
2025-10-23T00:00	11150	223	-56.6	-69.7	271	29	
2025-10-23T00:00	11200	222	-57.0	-69.4	271	29	
2025-10-23T00:00	11250	220	-56.6	-70.3	271	30	
2025-10-23T00:00	11300	218	-56.6	-71.5	272	31	
2025-10-23T00:00	11350	216	-56.8	-71.8	272	33	
2025-10-23T00:00	11400	215	-56.8	-72.0	273	33	
2025-10-23T00:00	11450	213	-57.0	-72.5	274	32	
2025-10-23T00:00	11500	211	-57.1	-72.2	274	32	
2025-10-23T00:00	11550	210	-57.1	-72.5	275	32	
2025-10-23T00:00	11600	208	-57.3	-72.9	276	33	
2025-10-23T00:00	11650	206	-57.5	-73.0	275	33	
2025-10-23T00:00	11700	205	-57.5	-72.8	275	33	
2025-10-23T00:00	11750	203	-57.3	-72.7	276	33	
2025-10-23T00:00	11800	202	-56.8	-73.6	277	32	
2025-10-23T00:00	11850	200	-56.8	-73.9	277	32	
2025-10-23T00:00	11900	198	-56.8	-73.9	276	32	
2025-10-23T00:00	11950	197	-57.0	-74.3	276	31	
2025-10-23T00:00	12000	195	-57.1	-75.5	277	30	
2025-10-23T00:00	12050	194	-57.5	-75.9	278	29	
2025-10-23T00:00	12100	192	-57.9	-75.8	276	29	
2025-10-23T00:00	12150	191	-58.1	-75.7	275	29	
2025-10-23T00:00	12200	189	-58.0	-75.9	277	29	
2025-10-23T00:00	12250	188	-57.7	-75.9	279	30	
2025-10-23T00:00	12300	186	-57.2	-75.9	280	30	
2025-10-23T00:00	12350	185	-57.2	-76.2	280	30	
2025-10-23T00:00	12400	183	-57.4	-76.3	279	30	
2025-10-23T00:00	12450	182	-57.7	-76.3	279	30	
2025-10-23T00:00	12500	180	-57.7	-76.4	280	30	
2025-10-23T00:00	12550	179	-57.9	-76.5	281	30	
2025-10-23T00:00	12600	178	-58.1	-76.8	282	30	
2025-10-23T00:00	12650	176	-58.2	-77.1	283	30	
2025-10-23T00:00	12700	175	-58.3	-77.5	284	29	
2025-10-23T00:00	12750	173	-58.4	-77.8	283	29	
2025-10-23T00:00	12800	172	-58.5	-78.2	281	28	
2025-10-23T00:00	12850	171	-58.0	-78.3	280	28	
2025-10-23T00:00	12900	169	-57.8	-78.4	281	28	
2025-10-23T00:00	12950	168	-57.9	-78.7	282	28	
2025-10-23T00:00	13000	167	-58.0	-79.2	283	27	
2025-10-23T00:00	13050	165	-58.0	-79.4	283	27	
2025-10-23T00:00	13100	164	-58.1	-79.4	283	27	
2025-10-23T00:00	13150	163	-58.4	-79.4	282	27	
2025-10-23T00:00	13200	162	-58.3	-79.4	283	28	
2025-10-23T00:00	13250	160	-58.2	-79.7	283	28	
2025-10-23T00:00	13300	159	-58.4	-79.9	283	28	
2025-10-23T00:00	13350	158	-58.6	-80.3	283	26	
2025-10-23T00:00	13400	156	-58.6	-80.6	282	25	
2025-10-23T00:00	13450	155	-58.7	-81.0	281	25	
2025-10-23T00:00	13500	154	-58.7	-81.1	281	24	
2025-10-23T00:00	13550	153	-58.5	-81.1	281	24	
2025-10-23T00:00	13600	152	-58.5	-81.4	281	24	
2025-10-23T00:00	13650	150	-58.4	-81.5	281	24	
2025-10-23T00:00	13700	149	-58.1	-81.4	281	24	
2025-10-23T00:00	13750	148	-58.3	-81.5	281	23	
2025-10-23T00:00	13800	147	-58.6	-81.7	280	23	
2025-10-23T00:00	13850	146	-58.6	-81.8	280	22	
2025-10-23T00:00	13900	144	-58.6	-81.8	280	21	
2025-10-23T00:00	13950	143	-58.9	-81.8	279	20	
2025-10-23T00:00	14000	142	-59.3	-81.7	277	20	
2025-10-23T00:00	14050	141	-59.7	-81.6	274	20	
2025-10-23T00:00	14100	140	-60.0	-81.7	273	21	
2025-10-23T00:00	14150	139	-60.0	-81.8	272	21	
2025-10-23T00:00	14200	138	-60.2	-82.3	271	21	
2025-10-23T00:00	14250	137	-60.1	-82.4	270	21	
2025-10-23T00:00	14300	136	-60.3	-82.5	269	21	
2025-10-23T00:00	14350	134	-60.6	-82.8	268	22	
2025-10-23T00:00	14400	133	-60.5	-82.9	269	22	
2025-10-23T00:00	14450	132	-60.5	-83.0	270	23	
2025-10-23T00:00	14500	131	-60.3	-82.9	271	23	
2025-10-23T00:00	14550	130	-60.2	-82.9	271	24	
2025-10-23T00:00	14600	129	-60.3	-83.1	270	25	
2025-10-23T00:00	14650	128	-60.1	-83.2	269	26	
2025-10-23T00:00	14700	127	-59.8	-83.1	268	27	
2025-10-23T00:00	14750	126	-60.1	-83.5	268	28	
2025-10-23T00:00	14800	125	-59.7	-83.4	269	28	
2025-10-23T00:00	14850	124	-59.3	-83.2	269	29	
2025-10-23T00:00	14900	123	-59.5	-83.3	270	30	
2025-10-23T00:00	14950	122	-59.8	-83.4	271	30	
2025-10-23T00:00	15000	121	-59.9	-83.4	273	30	
2025-10-23T00:00	15050	120	-59.7	-83.4	275	30	
2025-10-23T00:00	15100	119	-59.2	-83.1	275	29	
2025-10-23T00:00	15150	118	-59.0	-83.2	277	28	
2025-10-23T00:00	15200	117	-58.5	-83.2	280	26	
2025-10-23T00:00	15250	116	-58.4	-83.3	283	25	
2025-10-23T00:00	15300	115	-58.4	-83.3	284	24	
2025-10-23T00:00	15350	115	-58.5	-83.5	283	23	
2025-10-23T00:00	15400	114	-58.6	-83.5	282	21	
2025-10-23T00:00	15450	113	-58.9	-83.3	279	21	
2025-10-23T00:00	15500	112	-59.2	-83.1	277	21	
2025-10-23T00:00	15550	111	-59.6	-83.2	275	20	
2025-10-23T00:00	15600	110	-60.1	-83.4	272	20	
2025-10-23T00:00	15650	109	-60.4	-83.7	270	21	
2025-10-23T00:00	15700	108	-60.3	-83.8	269	22	
2025-10-23T00:00	15750	107	-59.9	-83.7	269	23	
2025-10-23T00:00	15800	107	-60.2	-83.9	271	23	
2025-10-23T00:00	15850	106	-60.5	-84.0	274	23	
2025-10-23T00:00	15900	105	-60.5	-84.1	277	22	
2025-10-23T00:00	15950	104	-60.5	-84.1	281	21	
2025-10-23T00:00	16000	103	-60.3	-84.1	282	19	
2025-10-23T00:00	16050	102	-60.0	-84.1	281	18	
2025-10-23T00:00	16100	102	-59.8	-84.1	279	17	
2025-10-23T00:00	16150	101	-59.7	-84.0	276	16	
2025-10-23T00:00	16200	100	-60.1	-84.2	274	15	
2025-10-23T00:00	16250	99	-60.3	-84.3	272	15	
2025-10-23T00:00	16300	98	-60.3	-84.3	272	16	
2025-10-23T00:00	16350	98	-60.4	-84.3	274	17	
2025-10-23T00:00	16400	97	-60.6	-84.3	276	18	
2025-10-23T00:00	16450	96	-60.7	-84.5	276	19	
2025-10-23T00:00	16500	95	-60.7	-84.4	275	19	
2025-10-23T00:00	16550	94	-61.0	-84.4	276	19	
2025-10-23T00:00	16600	94	-61.1	-84.5	278	19	
2025-10-23T00:00	16650	93	-60.8	-84.4	281	20	
2025-10-23T00:00	16700	92	-60.7	-84.7	283	20	
2025-10-23T00:00	16750	91	-60.6	-84.7	282	19	
2025-10-23T00:00	16800	91	-60.6	-84.7	278	18	
2025-10-23T00:00	16850	90	-61.0	-84.9	273	18	
2025-10-23T00:00	16900	89	-60.8	-84.9	270	17	
2025-10-23T00:00	16950	89	-60.7	-85.0	269	15	
2025-10-23T00:00	17000	88	-60.6	-85.1	269	14	
2025-10-23T00:00	17050	87	-60.0	-84.9	270	14	
2025-10-23T00:00	17100	87	-60.3	-85.0	271	14	
2025-10-23T00:00	17150	86	-60.5	-84.8	272	14	
2025-10-23T00:00	17200	85	-60.8	-84.9	274	15	
2025-10-23T00:00	17250	84	-61.1	-85.1	276	16	
2025-10-23T00:00	17300	84	-61.0	-85.2	277	17	
2025-10-23T00:00	17350	83	-60.9	-85.4	275	16	
2025-10-23T00:00	17400	82	-60.5	-85.3	270	15	
2025-10-23T00:00	17450	82	-60.3	-85.1	266	14	
2025-10-23T00:00	17500	81	-60.5	-85.1	267	14	
2025-10-23T00:00	17550	80	-60.4	-85.1	269	14	
2025-10-23T00:00	17600	80	-60.5	-85.2	268	14	
2025-10-23T00:00	17650	79	-60.5	-85.3	264	13	
2025-10-23T00:00	17700	79	-60.5	-85.2	261	13	
2025-10-23T00:00	17750	78	-60.9	-85.4	260	14	
2025-10-23T00:00	17800	77	-61.0	-85.4	258	14	
2025-10-23T00:00	17850	77	-61.3	-85.6	258	15	
2025-10-23T00:00	17900	76	-61.5	-85.7	259	16	
2025-10-23T00:00	17950	75	-61.4	-85.7	260	17	
2025-10-23T00:00	18000	75	-61.3	-85.7	260	18	
2025-10-23T00:00	18050	74	-61.3	-85.9	261	19	
2025-10-23T00:00	18100	74	-61.2	-86.0	262	19	
2025-10-23T00:00	18150	73	-60.8	-85.8	263	19	
2025-10-23T00:00	18200	72	-60.7	-85.8	263	19	
2025-10-23T00:00	18250	72	-60.9	-85.9	263	20	
2025-10-23T00:00	18300	71	-60.8	-85.7	264	19	
2025-10-23T00:00	18350	71	-60.8	-85.7	265	18	
2025-10-23T00:00	18400	70	-60.7	-85.8	265	18	
2025-10-23T00:00	18450	70	-60.5	-85.8	263	18	
2025-10-23T00:00	18500	69	-60.3	-85.8	260	19	
2025-10-23T00:00	18550	68	-60.5	-86.0	260	20	
2025-10-23T00:00	18600	68	-60.0	-85.8	261	20	
2025-10-23T00:00	18650	67	-60.0	-85.9	263	20	
2025-10-23T00:00	18700	67	-60.0	-85.7	266	19	
2025-10-23T00:00	18750	66	-60.2	-85.4	266	19	
2025-10-23T00:00	18800	66	-60.2	-85.3	265	19	
2025-10-23T00:00	18850	65	-60.3	-85.6	267	18	
2025-10-23T00:00	18900	65	-60.4	-85.8	269	17	
2025-10-23T00:00	18950	64	-60.4	-85.8	269	16	
2025-10-23T00:00	19000	64	-60.6	-85.9	270	15	
2025-10-23T00:00	19050	63	-60.8	-85.9	272	14	
2025-10-23T00:00	19100	63	-61.1	-86.1	273	15	
2025-10-23T00:00	19150	62	-61.0	-85.9	274	15	
2025-10-23T00:00	19200	62	-61.2	-85.6	275	14	
2025-10-23T00:00	19250	61	-61.3	-85.3	275	13	
2025-10-23T00:00	19300	61	-61.4	-85.3	276	12	
2025-10-23T00:00	19350	60	-61.7	-85.7	275	11	
2025-10-23T00:00	19400	60	-62.1	-86.1	273	12	
2025-10-23T00:00	19450	59	-62.4	-86.3	272	13	
2025-10-23T00:00	19500	59	-62.7	-86.5	272	13	
2025-10-23T00:00	19550	58	-62.7	-86.5	272	14	
2025-10-23T00:00	19600	58	-62.6	-86.4	272	15	
2025-10-23T00:00	19650	57	-62.6	-86.4	272	15	
2025-10-23T00:00	19700	57	-62.5	-86.4	272	15	
2025-10-23T00:00	19750	56	-62.6	-86.6	273	14	
2025-10-23T00:00	19800	56	-62.3	-86.6	273	14	
2025-10-23T00:00	19850	56	-62.0	-86.6	274	14	
2025-10-23T00:00	19900	55	-61.7	-86.6	274	14	
2025-10-23T00:00	19950	55	-61.7	-86.6	273	15	
2025-10-23T00:00	20000	54	-61.4	-86.3	271	15	
2025-10-23T00:00	20050	54	-61.8		268	15	
2025-10-23T00:00	20100	53	-62.1		267	15	
2025-10-23T00:00	20150	53	-62.0		268	15	
2025-10-23T00:00	20200	52	-61.7		268	15	
2025-10-23T00:00	20250	52	-61.2		265	15	
2025-10-23T00:00	20300	52	-61.1		261	15	
2025-10-23T00:00	20350	51	-61.3		261	15	
2025-10-23T00:00	20400	51	-60.8		264	16	
2025-10-23T00:00	20450	50	-60.0		268	17	
2025-10-23T00:00	20500	50	-59.6		273	17	
2025-10-23T00:00	20550	50	-58.2		278	17	
2025-10-23T00:00	20600	49	-58.3		280	15	
2025-10-23T00:00	20650	49	-58.6		279	14	
2025-10-23T00:00	20700	48	-58.8		275	13	
2025-10-23T00:00	20750	48	-58.5		269	13	
2025-10-23T00:00	20800	48	-58.8		263	13	
2025-10-23T00:00	20850	47	-58.7		258	14	
2025-10-23T00:00	20900	47	-58.5		258	15	
2025-10-23T00:00	20950	47	-58.2		261	15	
2025-10-23T00:00	21000	46	-58.1		265	16	
2025-10-23T00:00	21050	46	-58.5		269	17	
2025-10-23T00:00	21100	45	-58.8		273	17	
2025-10-23T00:00	21150	45	-59.0		276	18	
2025-10-23T00:00	21200	45	-58.8		278	18	
2025-10-23T00:00	21250	44	-57.8		279	17	
2025-10-23T00:00	21300	44	-57.4		278	15	
2025-10-23T00:00	21350	44	-57.6		276	14	
2025-10-23T00:00	21400	43	-57.8		273	13	
2025-10-23T00:00	21450	43	-58.0		270	12	
2025-10-23T00:00	21500	43	-58.4		266	12	
2025-10-23T00:00	21550	42	-58.7		262	12	
2025-10-23T00:00	21600	42	-59.1		258	12	
2025-10-23T00:00	21650	42	-59.5		255	12	
2025-10-23T00:00	21700	41	-60.0		253	12	
2025-10-23T00:00	21750	41	-60.2		249	12	
2025-10-23T00:00	21800	41	-60.5		244	12	
2025-10-23T00:00	21850	40	-60.5		240	12	
2025-10-23T00:00	21900	40	-60.7		238	12	
2025-10-23T00:00	21950	40	-60.9		237	14	
2025-10-23T00:00	22000	39	-61.1		235	15	
2025-10-23T00:00	22050	39	-61.1		236	15	
2025-10-23T00:00	22100	39	-61.4		238	16	
2025-10-23T00:00	22150	38	-61.7		240	17	
2025-10-23T00:00	22200	38	-62.0		243	18	
2025-10-23T00:00	22250	38	-62.4		247	18	
2025-10-23T00:00	22300	38	-62.6		251	19	
2025-10-23T00:00	22350	37	-62.8		253	20	
2025-10-23T00:00	22400	37	-62.9		255	21	
2025-10-23T00:00	22450	37	-62.7		257	22	
2025-10-23T00:00	22500	36	-62.7		258	22	
2025-10-23T00:00	22550	36	-63.2		261	23	
2025-10-23T00:00	22600	36	-63.6		264	23	
2025-10-23T00:00	22650	35	-63.2		265	24	
2025-10-23T00:00	22700	35	-62.9		265	25	
2025-10-23T00:00	22750	35	-63.0		266	24	
2025-10-23T00:00	22800	35	-63.2		267	24	
2025-10-23T00:00	22850	34	-63.4		267	25	
2025-10-23T00:00	22900	34	-63.7		269	26	
2025-10-23T00:00	22950	34	-63.5		272	27	
2025-10-23T00:00	23000	33	-61.8		274	28	
2025-10-23T00:00	23050	33	-61.1		276	27	
2025-10-23T00:00	23100	33	-60.6		277	25	
2025-10-23T00:00	23150	33	-60.3		277	24	
2025-10-23T00:00	23200	32	-60.0		274	24	
2025-10-23T00:00	23250	32	-59.6		270	23	
2025-10-23T00:00	23300	32	-58.7		267	24	
2025-10-23T00:00	23350	32	-57.8		268	26	
2025-10-23T00:00	23400	31	-57.4		270	27	
2025-10-23T00:00	23450	31	-57.1		273	28	
2025-10-23T00:00	23500	31	-57.0		276	29	
2025-10-23T00:00	23550	31	-56.9		278	29	
2025-10-23T00:00	23600	30	-56.4		278	29	
2025-10-23T00:00	23650	30	-56.4		278	29	
2025-10-23T00:00	23700	30	-56.2		276	28	
2025-10-23T00:00	23750	30	-55.7		273	28	
2025-10-23T00:00	23800	29	-55.4		271	28	
2025-10-23T00:00	23850	29	-54.4		272	28	
2025-10-23T00:00	23900	29	-53.8		277	29	
2025-10-23T00:00	23950	29	-53.2		280	29	
2025-10-23T00:00	24000	29	-52.3		281	29	
2025-10-23T00:00	24050	28	-52.1		282	29	
2025-10-23T00:00	24100	28	-52.2		282	27	
2025-10-23T00:00	24150	28	-51.6		280	24	
2025-10-23T00:00	24200	28	-51.0		276	22	
2025-10-23T00:00	24250	27	-51.1		274	20	
2025-10-23T00:00	24300	27	-50.7		275	19	
2025-10-23T00:00	24350	27	-50.3		277	19	
2025-10-23T00:00	24400	27	-50.3		280	19	
2025-10-23T00:00	24450	27	-50.5		282	20	
2025-10-23T00:00	24500	26	-50.7		282	20	
2025-10-23T00:00	24550	26	-50.9		283	20	
2025-10-23T00:00	24600	26	-51.2		284	20	
2025-10-23T00:00	24650	26	-51.5		286	20	
2025-10-23T00:00	24700	26	-51.9		286	19	
2025-10-23T00:00	24750	25	-52.1		285	18	
2025-10-23T00:00	24800	25	-52.0		281	16	
2025-10-23T00:00	24850	25	-51.8		275	15	
2025-10-23T00:00	24900	25	-51.8		270	15	
2025-10-23T00:00	24950	25	-51.9		266	14	
2025-10-23T00:00	25000	24	-52.1		262	13	
2025-10-23T00:00	25050	24	-52.3		257	13	
2025-10-23T00:00	25100	24	-52.5		251	12	
2025-10-23T00:00	25150	24	-52.7		245	12	
2025-10-23T00:00	25200	24	-53.0		241	13	
2025-10-23T00:00	25250	24	-53.3		237	13	
2025-10-23T00:00	25300	23	-53.4		235	13	
2025-10-23T00:00	25350	23	-53.8		232	14	
2025-10-23T00:00	25400	23	-54.1		231	14	
2025-10-23T00:00	25450	23	-54.2		230	15	
2025-10-23T00:00	25500	23	-54.4		230	15	
2025-10-23T00:00	25550	22	-54.7		230	16	
2025-10-23T00:00	25600	22	-55.0		231	16	
2025-10-23T00:00	25650	22	-55.3		233	17	
2025-10-23T00:00	25700	22	-55.7		234	18	
2025-10-23T00:00	25750	22	-55.7		234	20	
2025-10-23T00:00	25800	22	-54.7		236	21	
2025-10-23T00:00	25850	21	-54.9		239	21	
2025-10-23T00:00	25900	21	-55.2		243	21	
2025-10-23T00:00	25950	21	-54.6		246	21	
2025-10-23T00:00	26000	21	-54.0		247	21	
2025-10-23T00:00	26050	21	-54.0		249	21	
2025-10-23T00:00	26100	21	-53.7		250	22	
2025-10-23T00:00	26150	20	-53.7		251	23	
2025-10-23T00:00	26200	20	-53.9		252	24	
2025-10-23T00:00	26250	20	-53.7		253	25	
2025-10-23T00:00	26300	20	-53.2		255	28	
2025-10-23T00:00	26350	20	-52.7		256	29	
2025-10-23T00:00	26400	20	-52.1		259	29	
2025-10-23T00:00	26450	20	-51.9		263	29	
2025-10-23T00:00	26500	19	-52.0		266	28	
2025-10-23T00:00	26550	19	-52.2		269	28	
2025-10-23T00:00	26600	19	-52.0		269	27	
2025-10-23T00:00	26650	19	-51.3		268	28	
2025-10-23T00:00	26700	19	-50.8		268	29	
2025-10-23T00:00	26750	19	-50.5		268	31	
2025-10-23T00:00	26800	19	-50.6		268	32	
2025-10-23T00:00	26850	18	-50.7		268	31	
2025-10-23T00:00	26900	18	-50.9		268	31	
2025-10-23T00:00	26950	18	-51.1		268	31	
2025-10-23T00:00	27000	18	-51.2		267	31	
2025-10-23T00:00	27050	18	-50.9		267	31	
2025-10-23T00:00	27100	18	-50.5		267	30	
2025-10-23T00:00	27150	18	-50.3		269	29	
2025-10-23T00:00	27200	17	-50.2		270	28	
2025-10-23T00:00	27250	17	-50.4		271	27	
2025-10-23T00:00	27300	17	-50.3		271	26	
2025-10-23T00:00	27350	17	-50.3		271	25	
2025-10-23T00:00	27400	17	-50.2		268	25	
2025-10-23T00:00	27450	17	-49.6		264	26	
2025-10-23T00:00	27500	17	-49.7		262	27	
2025-10-23T00:00	27550	17	-49.6		260	27	
2025-10-23T00:00	27600	16	-49.6		258	26	
2025-10-23T00:00	27650	16	-49.7		256	25	
2025-10-23T00:00	27700	16	-49.7		254	24	
2025-10-23T00:00	27750	16	-49.3		253	24	
2025-10-23T00:00	27800	16	-49.4		253	25	
2025-10-23T00:00	27850	16	-49.7		253	25	
2025-10-23T00:00	27900	16	-50.2		253	25	
2025-10-23T00:00	27950	16	-50.5		254	25	
2025-10-23T00:00	28000	15	-50.9		254	25	
2025-10-23T00:00	28050	15	-51.1		254	25	
2025-10-23T00:00	28100	15	-51.2		254	25	
2025-10-23T00:00	28150	15	-51.6		253	24	
2025-10-23T00:00	28200	15	-52.0		250	24	
2025-10-23T00:00	28250	15	-52.2		248	24	
2025-10-23T00:00	28300	15	-52.5		246	25	
2025-10-23T00:00	28350	15	-52.8		245	25	
2025-10-23T00:00	28400	14	-53.2		245	26	
2025-10-23T00:00	28450	14	-53.2		247	26	
2025-10-23T00:00	28500	14	-53.5		249	26	
2025-10-23T00:00	28550	14	-53.8		253	26	
2025-10-23T00:00	28600	14	-54.0		256	27	
2025-10-23T00:00	28650	14	-54.2		258	28	
2025-10-23T00:00	28700	14	-54.2		259	28	
2025-10-23T00:00	28750	14	-53.9		258	28	
2025-10-23T12:00	491	942	12.6	5.5	208	9	
2025-10-23T12:00	501	941	12.4	5.0	220	7	
2025-10-23T12:00	520	939	12.3	4.9	221	8	
2025-10-23T12:00	540	937	12.1	4.7	220	10	
2025-10-23T12:00	560	935	11.9	4.7	220	12	
2025-10-23T12:00	580	932	11.7	4.6	221	13	
2025-10-23T12:00	600	930	11.6	4.1	222	15	
2025-10-23T12:00	620	928	11.6	3.6	223	16	
2025-10-23T12:00	640	925	11.6	3.0	224	18	
2025-10-23T12:00	660	923	11.5	3.1	225	19	
2025-10-23T12:00	680	921	11.2	3.2	226	20	
2025-10-23T12:00	700	919	11.0	3.0	227	21	
2025-10-23T12:00	720	917	10.8	3.1	227	22	
2025-10-23T12:00	740	914	10.7	2.3	227	22	
2025-10-23T12:00	760	912	10.6	2.3	227	23	
2025-10-23T12:00	780	910	10.5	1.9	226	23	
2025-10-23T12:00	800	908	10.2	2.2	225	24	
2025-10-23T12:00	820	906	10.1	2.0	224	24	
2025-10-23T12:00	840	904	9.9	2.0	224	24	
2025-10-23T12:00	860	902	9.7	2.1	224	24	
2025-10-23T12:00	880	899	9.5	1.9	225	25	
2025-10-23T12:00	900	897	9.3	2.0	225	25	
2025-10-23T12:00	920	895	9.1	1.8	227	25	
2025-10-23T12:00	940	893	8.9	1.8	227	25	
2025-10-23T12:00	960	891	8.7	1.7	228	25	
2025-10-23T12:00	980	888	8.6	1.3	229	26	
2025-10-23T12:00	1000	886	8.4	1.2	230	26	
2025-10-23T12:00	1020	884	8.2	1.1	230	26	
2025-10-23T12:00	1040	882	8.0	1.0	231	26	
2025-10-23T12:00	1060	880	7.8	1.2	231	26	
2025-10-23T12:00	1080	878	7.7	1.0	231	26	
2025-10-23T12:00	1100	876	7.5	1.0	231	26	
2025-10-23T12:00	1120	873	7.2	1.0	231	26	
2025-10-23T12:00	1140	871	7.1	0.9	231	26	
2025-10-23T12:00	1160	869	6.9	0.8	231	27	
2025-10-23T12:00	1180	867	6.7	0.6	231	27	
2025-10-23T12:00	1200	865	6.6	0.5	231	27	
2025-10-23T12:00	1220	863	6.3	0.7	231	27	
2025-10-23T12:00	1240	861	6.1	0.8	231	27	
2025-10-23T12:00	1260	859	6.0	0.5	231	27	
2025-10-23T12:00	1280	856	5.7	0.5	232	27	
2025-10-23T12:00	1300	855	5.6	0.5	232	28	
2025-10-23T12:00	1320	853	5.4	0.5	233	28	
2025-10-23T12:00	1340	850	5.1	0.4	233	28	
2025-10-23T12:00	1360	849	5.0	0.3	234	28	
2025-10-23T12:00	1380	846	4.8	0.3	235	28	
2025-10-23T12:00	1400	844	4.6	0.1	236	28	
2025-10-23T12:00	1420	842	4.4	-0.1	236	28	
2025-10-23T12:00	1440	840	4.3	-0.2	236	28	
2025-10-23T12:00	1460	838	4.1	-0.3	237	28	
2025-10-23T12:00	1480	836	3.9	-0.3	237	28	
2025-10-23T12:00	1500	834	3.7	-0.4	237	28	
2025-10-23T12:00	1520	832	3.5	-0.5	237	28	
2025-10-23T12:00	1540	830	3.3	-0.4	237	28	
2025-10-23T12:00	1560	828	3.1	-0.3	237	27	
2025-10-23T12:00	1580	826	2.9	-0.5	237	27	
2025-10-23T12:00	1600	824	2.7	-0.5	238	27	
2025-10-23T12:00	1620	822	2.5	-0.6	238	26	
2025-10-23T12:00	1640	820	2.3	-0.4	238	26	
2025-10-23T12:00	1660	817	2.0	-0.4	239	26	
2025-10-23T12:00	1680	816	1.9	-0.5	239	26	
2025-10-23T12:00	1700	814	1.6	-0.2	240	26	
2025-10-23T12:00	1720	811	1.4	-0.6	240	27	
2025-10-23T12:00	1740	809	1.3	-0.8	241	27	
2025-10-23T12:00	1760	808	1.3	-1.2	241	27	
2025-10-23T12:00	1780	806	1.3	-1.6	242	28	
2025-10-23T12:00	1800	803	1.1	-1.7	243	28	
2025-10-23T12:00	1820	801	0.9	-1.7	243	28	
2025-10-23T12:00	1840	799	0.7	-1.5	243	28	
2025-10-23T12:00	1860	798	0.4	-1.5	244	28	
2025-10-23T12:00	1880	795	0.2	-1.6	245	28	
2025-10-23T12:00	1900	794	0.1	-1.8	245	28	
2025-10-23T12:00	1920	792	-0.1	-1.7	246	28	
2025-10-23T12:00	1940	789	-0.3	-1.9	246	29	
2025-10-23T12:00	1960	787	-0.4	-2.0	247	29	
2025-10-23T12:00	1980	785	-0.5	-2.3	247	29	
2025-10-23T12:00	2000	784	-0.6	-2.4	247	29	
2025-10-23T12:00	2020	782	-0.7	-2.6	247	29	
2025-10-23T12:00	2040	780	-0.9	-2.8	248	30	
2025-10-23T12:00	2060	778	-1.1	-2.8	248	30	
2025-10-23T12:00	2080	776	-1.2	-2.9	248	30	
2025-10-23T12:00	2100	774	-1.4	-3.0	248	31	
2025-10-23T12:00	2120	772	-1.6	-2.9	248	31	
2025-10-23T12:00	2140	770	-1.8	-3.1	249	31	
2025-10-23T12:00	2160	768	-1.9	-3.3	249	31	
2025-10-23T12:00	2180	766	-2.1	-3.3	249	32	
2025-10-23T12:00	2200	764	-2.3	-3.1	250	32	
2025-10-23T12:00	2220	763	-2.5	-3.4	250	32	
2025-10-23T12:00	2240	760	-2.6	-3.9	251	33	
2025-10-23T12:00	2260	759	-2.5	-4.6	251	33	
2025-10-23T12:00	2280	757	-2.4	-5.2	251	33	
2025-10-23T12:00	2300	755	-2.5	-5.4	252	34	
2025-10-23T12:00	2320	753	-2.7	-5.5	252	34	
2025-10-23T12:00	2340	751	-2.9	-5.6	252	34	
2025-10-23T12:00	2360	749	-2.8	-6.4	253	34	
2025-10-23T12:00	2380	747	-2.7	-6.9	253	34	
2025-10-23T12:00	2400	745	-2.7	-7.1	253	34	
2025-10-23T12:00	2420	743	-2.9	-7.2	253	34	
2025-10-23T12:00	2440	741	-3.0	-7.3	252	34	
2025-10-23T12:00	2460	740	-3.1	-7.4	252	34	
2025-10-23T12:00	2480	738	-3.2	-7.9	252	34	
2025-10-23T12:00	2500	736	-3.1	-8.7	251	34	
2025-10-23T12:00	2520	734	-3.1	-9.1	250	34	
2025-10-23T12:00	2540	732	-3.1	-9.4	250	34	
2025-10-23T12:00	2560	730	-3.1	-10.0	249	34	
2025-10-23T12:00	2580	728	-3.0	-10.6	248	34	
2025-10-23T12:00	2600	727	-3.2	-10.6	248	34	
2025-10-23T12:00	2620	725	-3.3	-10.7	248	33	
2025-10-23T12:00	2640	723	-3.4	-10.9	248	33	
2025-10-23T12:00	2660	721	-3.4	-11.4	248	33	
2025-10-23T12:00	2680	720	-3.5	-11.5	248	33	
2025-10-23T12:00	2700	718	-3.7	-11.5	248	33	
2025-10-23T12:00	2720	716	-3.9	-11.8	248	33	
2025-10-23T12:00	2740	714	-4.0	-12.0	248	32	
2025-10-23T12:00	2760	712	-4.2	-12.1	248	32	
2025-10-23T12:00	2780	710	-4.3	-12.1	248	32	
2025-10-23T12:00	2800	709	-4.5	-11.7	248	33	
2025-10-23T12:00	2820	707	-4.5	-11.8	248	33	
2025-10-23T12:00	2840	705	-4.6	-12.1	248	33	
2025-10-23T12:00	2860	703	-4.8	-12.5	248	33	
2025-10-23T12:00	2880	701	-4.9	-12.8	248	33	
2025-10-23T12:00	2900	700	-5.1	-13.0	248	33	
2025-10-23T12:00	2920	698	-5.3	-13.1	248	33	
2025-10-23T12:00	2940	696	-5.4	-13.2	248	33	
2025-10-23T12:00	2960	694	-5.6	-13.2	248	33	
2025-10-23T12:00	2980	693	-5.8	-13.2	248	33	
2025-10-23T12:00	3000	691	-5.9	-13.5	248	33	
2025-10-23T12:00	3020	689	-5.9	-14.4	248	33	
2025-10-23T12:00	3040	687	-6.0	-14.6	247	32	
2025-10-23T12:00	3060	685	-6.2	-14.8	247	32	
2025-10-23T12:00	3080	684	-6.3	-14.8	247	32	
2025-10-23T12:00	3100	682	-6.5	-14.8	247	32	
2025-10-23T12:00	3120	680	-6.7	-14.9	246	32	
2025-10-23T12:00	3140	678	-6.9	-14.9	246	31	
2025-10-23T12:00	3160	677	-7.0	-14.7	246	31	
2025-10-23T12:00	3180	675	-7.1	-14.7	245	31	
2025-10-23T12:00	3200	673	-7.3	-14.7	244	31	
2025-10-23T12:00	3220	671	-7.4	-14.6	243	32	
2025-10-23T12:00	3240	670	-7.5	-14.2	242	32	
2025-10-23T12:00	3260	668	-7.7	-14.2	242	32	
2025-10-23T12:00	3280	666	-7.8	-14.1	241	32	
2025-10-23T12:00	3300	665	-8.0	-14.2	241	33	
2025-10-23T12:00	3320	663	-8.2	-14.2	240	33	
2025-10-23T12:00	3340	661	-8.4	-14.2	240	33	
2025-10-23T12:00	3360	660	-8.6	-14.3	240	33	
2025-10-23T12:00	3380	658	-8.7	-14.4	240	33	
2025-10-23T12:00	3400	656	-8.7	-14.6	240	33	
2025-10-23T12:00	3420	654	-8.9	-14.7	239	33	
2025-10-23T12:00	3440	653	-9.1	-14.8	239	33	
2025-10-23T12:00	3460	651	-9.3	-14.9	239	32	
2025-10-23T12:00	3480	649	-9.5	-14.9	239	32	
2025-10-23T12:00	3500	648	-9.7	-15.0	238	32	
2025-10-23T12:00	3520	646	-9.9	-15.0	238	32	
2025-10-23T12:00	3540	644	-10.0	-15.0	238	32	
2025-10-23T12:00	3560	643	-10.2	-15.1	238	32	
2025-10-23T12:00	3580	641	-10.4	-15.0	238	32	
2025-10-23T12:00	3600	639	-10.6	-15.1	239	32	
2025-10-23T12:00	3620	638	-10.7	-15.4	239	32	
2025-10-23T12:00	3640	636	-10.9	-15.5	239	32	
2025-10-23T12:00	3660	635	-11.1	-15.6	240	32	
2025-10-23T12:00	3680	633	-11.3	-15.7	240	32	
2025-10-23T12:00	3700	631	-11.6	-15.5	241	32	
2025-10-23T12:00	3720	630	-11.8	-15.4	241	32	
2025-10-23T12:00	3740	628	-12.0	-15.4	241	32	
2025-10-23T12:00	3760	626	-12.2	-15.5	241	32	
2025-10-23T12:00	3780	624	-12.4	-15.6	241	31	
2025-10-23T12:00	3800	623	-12.6	-15.7	241	31	
2025-10-23T12:00	3820	621	-12.7	-16.2	241	31	
2025-10-23T12:00	3840	619	-12.7	-16.9	241	31	
2025-10-23T12:00	3860	618	-12.8	-17.2	242	31	
2025-10-23T12:00	3880	617	-12.9	-17.2	242	31	
2025-10-23T12:00	3900	615	-13.0	-17.7	242	31	
2025-10-23T12:00	3920	613	-13.2	-17.8	242	31	
2025-10-23T12:00	3940	611	-13.4	-17.8	242	31	
2025-10-23T12:00	3960	610	-13.5	-17.8	242	31	
2025-10-23T12:00	3980	609	-13.7	-18.0	242	30	
2025-10-23T12:00	4000	607	-13.9	-18.1	242	30	
2025-10-23T12:00	4020	605	-14.0	-18.2	242	30	
2025-10-23T12:00	4040	604	-14.2	-18.1	241	30	
2025-10-23T12:00	4060	602	-14.3	-17.8	241	30	
2025-10-23T12:00	4080	600	-14.5	-17.9	241	30	
2025-10-23T12:00	4100	599	-14.7	-18.0	241	30	
2025-10-23T12:00	4120	597	-14.9	-18.1	240	30	
2025-10-23T12:00	4140	596	-15.1	-18.1	240	30	
2025-10-23T12:00	4160	594	-15.3	-18.1	240	30	
2025-10-23T12:00	4180	593	-15.4	-18.2	240	30	
2025-10-23T12:00	4200	591	-15.6	-18.2	239	30	
2025-10-23T12:00	4220	589	-15.8	-18.2	239	30	
2025-10-23T12:00	4240	588	-16.0	-18.1	239	31	
2025-10-23T12:00	4260	586	-16.2	-18.1	239	30	
2025-10-23T12:00	4280	585	-16.4	-18.1	239	31	
2025-10-23T12:00	4300	583	-16.6	-18.4	239	31	
2025-10-23T12:00	4320	582	-16.8	-18.3	239	31	
2025-10-23T12:00	4340	580	-16.9	-18.6	239	31	
2025-10-23T12:00	4360	578	-16.9	-19.1	239	31	
2025-10-23T12:00	4380	577	-16.9	-19.5	239	31	
2025-10-23T12:00	4400	575	-17.0	-19.6	240	32	
2025-10-23T12:00	4420	574	-17.2	-19.6	240	32	
2025-10-23T12:00	4440	572	-17.4	-19.7	240	32	
2025-10-23T12:00	4460	571	-17.6	-19.8	240	32	
2025-10-23T12:00	4480	569	-17.7	-19.9	240	33	
2025-10-23T12:00	4500	568	-17.8	-19.9	240	33	
2025-10-23T12:00	4520	566	-18.0	-20.1	240	33	
2025-10-23T12:00	4540	565	-18.2	-20.4	240	34	
2025-10-23T12:00	4560	563	-18.3	-20.6	240	34	
2025-10-23T12:00	4580	562	-18.4	-20.8	239	34	
2025-10-23T12:00	4600	560	-18.5	-21.2	239	35	
2025-10-23T12:00	4620	559	-18.5	-21.6	238	35	
2025-10-23T12:00	4640	557	-18.5	-22.0	238	36	
2025-10-23T12:00	4660	556	-18.6	-22.5	237	36	
2025-10-23T12:00	4680	554	-18.7	-23.0	237	36	
2025-10-23T12:00	4700	553	-18.6	-24.5	236	37	
2025-10-23T12:00	4720	551	-18.7	-24.5	236	37	
2025-10-23T12:00	4740	550	-18.8	-24.7	236	37	
2025-10-23T12:00	4760	548	-19.0	-24.8	236	37	
2025-10-23T12:00	4780	547	-19.1	-25.0	236	37	
2025-10-23T12:00	4800	545	-19.2	-25.2	236	37	
2025-10-23T12:00	4820	544	-19.4	-25.6	235	37	
2025-10-23T12:00	4840	542	-19.5	-25.9	235	38	
2025-10-23T12:00	4860	541	-19.7	-25.8	235	38	
2025-10-23T12:00	4880	540	-19.9	-25.7	235	38	
2025-10-23T12:00	4900	538	-20.0	-26.0	235	38	
2025-10-23T12:00	4920	537	-20.2	-26.0	235	39	
2025-10-23T12:00	4940	535	-20.4	-26.0	234	39	
2025-10-23T12:00	4960	534	-20.5	-26.5	234	39	
2025-10-23T12:00	4980	532	-20.5	-27.4	234	40	
2025-10-23T12:00	5000	531	-20.7	-28.1	234	40	
2025-10-23T12:00	5020	530	-20.7	-29.3	234	40	
2025-10-23T12:00	5040	528	-20.9	-28.8	233	41	
2025-10-23T12:00	5060	527	-21.1	-29.8	233	41	
2025-10-23T12:00	5080	525	-21.0	-32.7	233	42	
2025-10-23T12:00	5100	524	-21.1	-32.5	233	42	
2025-10-23T12:00	5120	522	-21.3	-32.6	232	42	
2025-10-23T12:00	5140	521	-21.5	-32.6	232	43	
2025-10-23T12:00	5160	519	-21.8	-32.3	232	43	
2025-10-23T12:00	5180	518	-21.9	-32.8	231	43	
2025-10-23T12:00	5200	517	-22.1	-32.6	231	44	
2025-10-23T12:00	5220	515	-22.3	-33.3	231	44	
2025-10-23T12:00	5240	514	-22.4	-34.5	231	44	
2025-10-23T12:00	5260	512	-22.5	-35.3	231	44	
2025-10-23T12:00	5280	511	-22.7	-35.6	231	44	
2025-10-23T12:00	5300	510	-22.9	-35.7	230	45	
2025-10-23T12:00	5320	508	-23.0	-36.2	230	45	
2025-10-23T12:00	5340	507	-23.2	-36.4	230	45	
2025-10-23T12:00	5360	506	-23.3	-36.7	229	45	
2025-10-23T12:00	5380	504	-23.5	-37.3	229	45	
2025-10-23T12:00	5400	503	-23.6	-38.2	228	46	
2025-10-23T12:00	5420	501	-23.7	-38.5	227	46	
2025-10-23T12:00	5440	500	-23.7	-39.0	227	47	
2025-10-23T12:00	5460	499	-23.7	-39.5	226	47	
2025-10-23T12:00	5480	497	-23.7	-38.1	226	48	
2025-10-23T12:00	5500	496	-23.7	-35.6	226	48	
2025-10-23T12:00	5520	495	-23.9	-35.6	225	49	
2025-10-23T12:00	5540	493	-24.0	-34.5	225	49	
2025-10-23T12:00	5560	492	-24.0	-33.1	225	50	
2025-10-23T12:00	5580	491	-24.1	-31.9	224	50	
2025-10-23T12:00	5600	489	-24.0	-29.9	224	50	
2025-10-23T12:00	5620	488	-24.2	-30.5	224	50	
2025-10-23T12:00	5640	487	-24.5	-30.9	223	50	
2025-10-23T12:00	5660	485	-24.6	-30.0	223	50	
2025-10-23T12:00	5680	484	-24.7	-29.2	222	50	
2025-10-23T12:00	5700	483	-24.7	-28.0	222	50	
2025-10-23T12:00	5720	481	-24.7	-26.6	221	50	
2025-10-23T12:00	5740	480	-24.6	-24.7	221	50	
2025-10-23T12:00	5760	479	-24.6	-24.6	220	50	
2025-10-23T12:00	5780	477	-24.2	-24.5	220	50	
2025-10-23T12:00	5800	476	-24.1	-25.8	220	50	
2025-10-23T12:00	5820	475	-24.1	-27.0	219	50	
2025-10-23T12:00	5840	473	-24.2	-26.9	219	50	
2025-10-23T12:00	5860	472	-24.4	-26.8	219	50	
2025-10-23T12:00	5880	471	-24.5	-26.4	219	50	
2025-10-23T12:00	5900	469	-24.6	-26.3	219	50	
2025-10-23T12:00	5920	468	-24.6	-26.5	218	50	
2025-10-23T12:00	5940	467	-24.8	-26.6	218	49	
2025-10-23T12:00	5960	466	-24.8	-26.9	218	49	
2025-10-23T12:00	5980	464	-25.0	-27.0	218	49	
2025-10-23T12:00	6000	463	-25.1	-27.4	218	48	
2025-10-23T12:00	6020	462	-25.3	-27.4	218	48	
2025-10-23T12:00	6040	461	-25.4	-27.5	218	48	
2025-10-23T12:00	6060	459	-25.6	-27.7	218	48	
2025-10-23T12:00	6080	458	-25.7	-27.7	218	48	
2025-10-23T12:00	6100	457	-25.9	-27.7	218	48	
2025-10-23T12:00	6120	455	-26.1	-27.8	217	48	
2025-10-23T12:00	6140	454	-26.2	-28.3	217	48	
2025-10-23T12:00	6160	453	-26.3	-28.6	217	48	
2025-10-23T12:00	6180	452	-26.5	-28.7	217	48	
2025-10-23T12:00	6200	450	-26.6	-28.9	217	48	
2025-10-23T12:00	6220	449	-26.8	-29.0	217	48	
2025-10-23T12:00	6240	448	-27.0	-29.2	216	48	
2025-10-23T12:00	6260	447	-27.1	-29.5	216	48	
2025-10-23T12:00	6280	445	-27.3	-29.9	216	48	
2025-10-23T12:00	6300	444	-27.4	-30.2	216	48	
2025-10-23T12:00	6320	443	-27.6	-30.5	216	48	
2025-10-23T12:00	6340	442	-27.8	-30.9	216	48	
2025-10-23T12:00	6360	440	-27.9	-30.9	216	48	
2025-10-23T12:00	6380	439	-28.1	-30.9	215	49	
2025-10-23T12:00	6400	438	-28.3	-31.0	215	49	
2025-10-23T12:00	6420	437	-28.4	-31.0	215	49	
2025-10-23T12:00	6440	436	-28.6	-31.3	215	49	
2025-10-23T12:00	6460	434	-28.7	-33.0	215	49	
2025-10-23T12:00	6480	433	-28.8	-33.2	215	48	
2025-10-23T12:00	6500	432	-29.0	-32.7	215	48	
2025-10-23T12:00	6520	431	-29.2	-33.3	215	48	
2025-10-23T12:00	6540	430	-29.5	-33.2	216	47	
2025-10-23T12:00	6560	429	-29.6	-33.2	216	47	
2025-10-23T12:00	6580	427	-29.7	-33.7	216	46	
2025-10-23T12:00	6600	426	-29.9	-34.4	216	46	
2025-10-23T12:00	6620	425	-30.1	-34.6	217	46	
2025-10-23T12:00	6640	424	-30.3	-34.3	217	46	
2025-10-23T12:00	6660	422	-30.4	-38.5	218	46	
2025-10-23T12:00	6680	421	-30.5	-42.1	218	46	
2025-10-23T12:00	6700	420	-30.7	-40.8	218	46	
2025-10-23T12:00	6720	419	-30.8	-41.2	218	46	
2025-10-23T12:00	6740	418	-31.1	-38.6	218	47	
2025-10-23T12:00	6760	416	-31.4	-34.6	218	47	
2025-10-23T12:00	6780	415	-31.6	-33.4	218	47	
2025-10-23T12:00	6800	414	-31.9	-33.5	217	48	
2025-10-23T12:00	6820	413	-32.1	-33.9	217	48	
2025-10-23T12:00	6840	412	-32.3	-34.7	217	48	
2025-10-23T12:00	6860	411	-32.4	-35.5	217	48	
2025-10-23T12:00	6880	409	-32.6	-39.4	217	48	
2025-10-23T12:00	6900	408	-32.7	-41.6	218	48	
2025-10-23T12:00	6920	407	-32.9	-40.0	218	48	
2025-10-23T12:00	6940	406	-33.1	-40.1	218	48	
2025-10-23T12:00	6960	405	-33.3	-41.8	219	48	
2025-10-23T12:00	6980	404	-33.4	-44.5	219	48	
2025-10-23T12:00	7000	403	-33.6	-44.2	220	48	
2025-10-23T12:00	7020	401	-33.8	-42.6	220	48	
2025-10-23T12:00	7040	400	-34.0	-41.6	221	47	
2025-10-23T12:00	7060	399	-34.2	-43.6	222	47	
2025-10-23T12:00	7080	398	-34.4	-48.5	222	47	
2025-10-23T12:00	7100	397	-34.4	-59.8	222	47	
2025-10-23T12:00	7120	396	-34.5	-60.0	222	47	
2025-10-23T12:00	7140	395	-34.6	-57.2	222	47	
2025-10-23T12:00	7160	394	-34.7	-56.6	221	47	
2025-10-23T12:00	7180	392	-34.8	-56.3	221	47	
2025-10-23T12:00	7200	391	-34.9	-56.0	221	47	
2025-10-23T12:00	7220	390	-35.1	-56.0	220	46	
2025-10-23T12:00	7240	389	-35.2	-55.5	220	46	
2025-10-23T12:00	7260	388	-35.3	-55.2	220	46	
2025-10-23T12:00	7280	387	-35.5	-54.6	219	46	
2025-10-23T12:00	7300	386	-35.5	-53.7	219	46	
2025-10-23T12:00	7320	385	-35.6	-53.6	219	46	
2025-10-23T12:00	7340	383	-35.8	-53.7	219	46	
2025-10-23T12:00	7360	382	-36.0	-53.7	219	47	
2025-10-23T12:00	7380	381	-36.1	-54.3	219	47	
2025-10-23T12:00	7400	380	-36.3	-54.7	219	47	
2025-10-23T12:00	7420	379	-36.4	-55.1	219	47	
2025-10-23T12:00	7440	378	-36.5	-54.0	220	47	
2025-10-23T12:00	7460	377	-36.6	-52.5	220	47	
2025-10-23T12:00	7480	376	-36.8	-52.4	221	47	
2025-10-23T12:00	7500	375	-37.0	-52.8	221	47	
2025-10-23T12:00	7520	374	-37.2	-53.0	221	47	
2025-10-23T12:00	7540	373	-37.4	-53.3	221	47	
2025-10-23T12:00	7560	371	-37.6	-53.3	222	47	
2025-10-23T12:00	7580	370	-37.7	-53.2	222	47	
2025-10-23T12:00	7600	369	-37.9	-53.1	222	47	
2025-10-23T12:00	7620	368	-38.0	-54.3	222	47	
2025-10-23T12:00	7640	367	-38.2	-55.3	222	46	
2025-10-23T12:00	7660	366	-38.3	-55.5	222	46	
2025-10-23T12:00	7680	365	-38.5	-55.8	222	46	
2025-10-23T12:00	7700	364	-38.7	-56.1	222	46	
2025-10-23T12:00	7720	363	-38.9	-57.6	222	46	
2025-10-23T12:00	7740	362	-39.0	-57.5	222	46	
2025-10-23T12:00	7760	361	-39.1	-56.6	222	46	
2025-10-23T12:00	7780	360	-39.2	-57.2	223	46	
2025-10-23T12:00	7800	359	-39.3	-58.0	223	46	
2025-10-23T12:00	7820	358	-39.5	-58.3	223	46	
2025-10-23T12:00	7840	357	-39.6	-58.1	223	46	
2025-10-23T12:00	7860	356	-39.8	-58.3	223	46	
2025-10-23T12:00	7880	354	-40.0	-58.3	223	46	
2025-10-23T12:00	7900	354	-40.2	-58.6	223	46	
2025-10-23T12:00	7920	353	-40.3	-59.0	223	46	
2025-10-23T12:00	7940	352	-40.5	-59.2	222	45	
2025-10-23T12:00	7960	350	-40.6	-59.5	222	45	
2025-10-23T12:00	7980	349	-40.7	-59.6	222	44	
2025-10-23T12:00	8000	348	-40.8	-59.4	222	44	
2025-10-23T12:00	8020	347	-40.9	-59.4	221	43	
2025-10-23T12:00	8040	346	-41.0	-59.7	221	42	
2025-10-23T12:00	8060	345	-41.0	-59.9	221	42	
2025-10-23T12:00	8080	344	-41.0	-59.9	221	41	
2025-10-23T12:00	8100	343	-40.8	-60.9	221	41	
2025-10-23T12:00	8120	342	-40.7	-61.3	220	40	
2025-10-23T12:00	8140	341	-40.7	-61.3	220	40	
2025-10-23T12:00	8160	340	-40.8	-61.3	221	40	
2025-10-23T12:00	8180	339	-40.8	-61.2	221	40	
2025-10-23T12:00	8200	338	-41.0	-61.3	221	40	
2025-10-23T12:00	8220	337	-41.1	-61.3	222	40	
2025-10-23T12:00	8240	336	-41.3	-61.1	222	40	
2025-10-23T12:00	8260	335	-41.4	-61.1	222	40	
2025-10-23T12:00	8280	334	-41.6	-61.2	223	40	
2025-10-23T12:00	8300	333	-41.8	-61.3	223	40	
2025-10-23T12:00	8320	332	-41.7	-61.1	223	40	
2025-10-23T12:00	8340	331	-41.8	-61.0	223	40	
2025-10-23T12:00	8360	330	-41.9	-61.1	224	40	
2025-10-23T12:00	8380	329	-42.0	-61.1	224	40	
2025-10-23T12:00	8400	328	-42.2	-61.2	224	39	
2025-10-23T12:00	8420	327	-42.3	-61.1	225	39	
2025-10-23T12:00	8440	326	-42.5	-61.1	225	39	
2025-10-23T12:00	8460	325	-42.6	-61.0	226	39	
2025-10-23T12:00	8480	324	-42.7	-61.1	226	39	
2025-10-23T12:00	8500	323	-42.7	-61.0	227	39	
2025-10-23T12:00	8520	323	-42.5	-60.9	227	39	
2025-10-23T12:00	8540	322	-42.5	-60.8	228	40	
2025-10-23T12:00	8560	321	-42.4	-60.7	228	40	
2025-10-23T12:00	8580	320	-42.3	-60.8	228	39	
2025-10-23T12:00	8600	319	-42.3	-61.1	228	39	
2025-10-23T12:00	8620	318	-42.2	-61.6	227	38	
2025-10-23T12:00	8640	317	-42.0	-62.4	227	38	
2025-10-23T12:00	8660	316	-41.7	-63.1	227	37	
2025-10-23T12:00	8680	315	-41.4	-63.9	227	36	
2025-10-23T12:00	8700	314	-41.4	-64.1	228	36	
2025-10-23T12:00	8720	313	-41.4	-64.0	228	35	
2025-10-23T12:00	8740	312	-41.5	-63.9	229	35	
2025-10-23T12:00	8760	311	-41.6	-64.3	229	34	
2025-10-23T12:00	8780	310	-41.4	-65.0	230	34	
2025-10-23T12:00	8800	310	-41.2	-65.5	231	34	
2025-10-23T12:00	8820	309	-41.3	-65.5	231	34	
2025-10-23T12:00	8840	308	-41.3	-65.4	231	34	
2025-10-23T12:00	8860	307	-41.2	-65.4	232	35	
2025-10-23T12:00	8880	306	-41.2	-65.8	232	35	
2025-10-23T12:00	8900	305	-41.0	-66.5	232	35	
2025-10-23T12:00	8920	304	-40.9	-66.9	232	36	
2025-10-23T12:00	8940	303	-40.9	-66.9	231	36	
2025-10-23T12:00	8960	302	-41.0	-66.9	231	36	
2025-10-23T12:00	8980	302	-41.0	-67.1	231	37	
2025-10-23T12:00	9000	301	-40.9	-67.4	231	37	
2025-10-23T12:00	9020	300	-40.9	-67.7	230	37	
2025-10-23T12:00	9040	299	-41.0	-68.0	230	38	
2025-10-23T12:00	9060	298	-41.0	-67.9	230	38	
2025-10-23T12:00	9080	297	-41.1	-67.4	229	38	
2025-10-23T12:00	9100	296	-41.2	-67.3	229	38	
2025-10-23T12:00	9120	295	-41.2	-67.2	229	38	
2025-10-23T12:00	9140	294	-41.2	-67.0	229	38	
2025-10-23T12:00	9160	294	-41.3	-66.8	230	38	
2025-10-23T12:00	9180	293	-41.2	-67.0	230	37	
2025-10-23T12:00	9200	292	-41.1	-67.3	231	37	
2025-10-23T12:00	9220	291	-41.3	-67.4	231	37	
2025-10-23T12:00	9240	290	-41.3	-67.4	232	37	
2025-10-23T12:00	9260	289	-41.4	-67.5	233	36	
2025-10-23T12:00	9280	288	-41.5	-67.6	234	36	
2025-10-23T12:00	9300	288	-41.5	-68.0	235	36	
2025-10-23T12:00	9320	287	-41.3	-68.7	236	36	
2025-10-23T12:00	9340	286	-41.0	-69.2	237	36	
2025-10-23T12:00	9360	285	-40.8	-69.3	238	36	
2025-10-23T12:00	9380	284	-40.9	-69.5	238	36	
2025-10-23T12:00	9400	283	-41.0	-69.7	238	36	
2025-10-23T12:00	9420	282	-41.1	-69.7	238	35	
2025-10-23T12:00	9440	282	-41.1	-69.6	238	35	
2025-10-23T12:00	9460	281	-41.0	-69.3	238	34	
2025-10-23T12:00	9480	280	-40.9	-69.0	238	34	
2025-10-23T12:00	9500	279	-41.0	-69.1	238	33	
2025-10-23T12:00	9520	278	-41.1	-69.3	239	33	
2025-10-23T12:00	9540	278	-41.0	-69.3	240	32	
2025-10-23T12:00	9560	277	-40.8	-69.4	241	32	
2025-10-23T12:00	9580	276	-40.7	-69.4	242	32	
2025-10-23T12:00	9600	275	-40.8	-69.6	243	32	
2025-10-23T12:00	9620	274	-40.8	-69.8	243	32	
2025-10-23T12:00	9640	274	-40.9	-69.8	244	31	
2025-10-23T12:00	9660	273	-41.0	-69.8	244	31	
2025-10-23T12:00	9680	272	-41.2	-69.8	244	31	
2025-10-23T12:00	9700	271	-41.3	-69.7	244	31	
2025-10-23T12:00	9720	270	-41.3	-69.7	243	31	
2025-10-23T12:00	9740	270	-41.2	-70.0	242	31	
2025-10-23T12:00	9760	269	-41.1	-70.0	242	31	
2025-10-23T12:00	9780	268	-41.1	-69.9	242	31	
2025-10-23T12:00	9800	267	-41.1	-69.9	241	31	
2025-10-23T12:00	9820	266	-41.0	-70.1	242	32	
2025-10-23T12:00	9840	266	-41.1	-70.3	242	32	
2025-10-23T12:00	9860	265	-41.2	-70.5	242	32	
2025-10-23T12:00	9880	264	-41.2	-71.1	242	32	
2025-10-23T12:00	9900	263	-41.1	-71.8	242	32	
2025-10-23T12:00	9920	263	-41.1	-72.3	242	32	
2025-10-23T12:00	9940	262	-41.1	-72.2	242	32	
2025-10-23T12:00	9960	261	-41.1	-72.1	242	33	
2025-10-23T12:00	9980	260	-41.1	-72.2	241	33	
2025-10-23T12:00	10000	259	-41.2	-72.6	241	34	
2025-10-23T12:00	10018	259	-41.2	-72.8	241	34	
2025-10-23T12:00	10050	257	-41.4	-73.3	241	35	
2025-10-23T12:00	10100	256	-41.4	-73.7	242	36	
2025-10-23T12:00	10150	254	-41.0	-73.9	243	36	
2025-10-23T12:00	10200	252	-41.2	-74.0	244	36	
2025-10-23T12:00	10250	250	-41.3	-73.9	244	36	
2025-10-23T12:00	10300	248	-41.3	-73.9	243	35	
2025-10-23T12:00	10350	246	-41.4	-74.0	242	36	
2025-10-23T12:00	10400	245	-41.5	-74.3	242	37	
2025-10-23T12:00	10450	243	-41.8	-74.4	242	38	
2025-10-23T12:00	10500	241	-41.7	-74.3	242	38	
2025-10-23T12:00	10550	239	-41.8	-74.1	243	37	
2025-10-23T12:00	10600	238	-41.8	-73.9	244	37	
2025-10-23T12:00	10650	236	-41.9	-73.9	245	36	
2025-10-23T12:00	10700	234	-42.1	-74.0	246	36	
2025-10-23T12:00	10750	232	-42.5	-74.0	246	36	
2025-10-23T12:00	10800	231	-42.9	-74.1	247	36	
2025-10-23T12:00	10850	229	-43.2	-74.2	248	36	
2025-10-23T12:00	10900	227	-43.7	-74.2	249	37	
2025-10-23T12:00	10950	225	-44.1	-74.5	250	38	
2025-10-23T12:00	11000	224	-44.3	-74.8	250	38	
2025-10-23T12:00	11050	222	-44.2	-74.7	250	39	
2025-10-23T12:00	11100	220	-44.2	-74.6	251	38	
2025-10-23T12:00	11150	219	-44.5	-74.7	251	38	
2025-10-23T12:00	11200	217	-44.8	-74.8	252	38	
2025-10-23T12:00	11250	216	-45.1	-74.8	254	38	
2025-10-23T12:00	11300	214	-45.4	-74.9	254	38	
2025-10-23T12:00	11350	212	-45.8	-75.1	255	38	
2025-10-23T12:00	11400	211	-46.1	-75.1	255	38	
2025-10-23T12:00	11450	209	-46.5	-75.2	256	37	
2025-10-23T12:00	11500	208	-46.8	-75.4	257	37	
2025-10-23T12:00	11550	206	-47.1	-75.5	258	37	
2025-10-23T12:00	11600	204	-47.3	-75.8	259	37	
2025-10-23T12:00	11650	203	-47.4	-76.2	259	36	
2025-10-23T12:00	11700	201	-47.5	-76.6	260	36	
2025-10-23T12:00	11750	200	-47.7	-76.9	261	36	
2025-10-23T12:00	11800	198	-48.0	-77.0	263	37	
2025-10-23T12:00	11850	197	-48.3	-77.0	265	37	
2025-10-23T12:00	11900	195	-48.4	-77.1	267	37	
2025-10-23T12:00	11950	194	-48.5	-77.3	268	37	
2025-10-23T12:00	12000	192	-48.4	-77.4	269	36	
2025-10-23T12:00	12050	191	-48.5	-77.3	269	35	
2025-10-23T12:00	12100	189	-48.3	-77.6	269	34	
2025-10-23T12:00	12150	188	-48.3	-78.0	269	33	
2025-10-23T12:00	12200	187	-48.6	-78.1	269	32	
2025-10-23T12:00	12250	185	-48.4	-78.2	269	30	
2025-10-23T12:00	12300	184	-48.0	-78.3	269	28	
2025-10-23T12:00	12350	183	-48.3	-78.4	267	25	
2025-10-23T12:00	12400	181	-48.5	-78.6	265	23	
2025-10-23T12:00	12450	180	-48.5	-78.5	261	21	
2025-10-23T12:00	12500	178	-48.8	-78.7	257	20	
2025-10-23T12:00	12550	177	-49.1	-78.8	255	21	
2025-10-23T12:00	12600	176	-49.4	-78.8	256	22	
2025-10-23T12:00	12650	174	-49.9	-79.0	257	22	
2025-10-23T12:00	12700	173	-50.3	-79.1	255	22	
2025-10-23T12:00	12750	172	-50.8	-79.2	252	21	
2025-10-23T12:00	12800	170	-51.2	-79.5	249	20	
2025-10-23T12:00	12850	169	-51.6	-79.5	248	21	
2025-10-23T12:00	12900	168	-51.8	-79.6	249	22	
2025-10-23T12:00	12950	167	-52.1	-79.7	251	22	
2025-10-23T12:00	13000	165	-52.4	-79.8	253	22	
2025-10-23T12:00	13050	164	-52.7	-80.0	255	22	
2025-10-23T12:00	13100	163	-53.1	-80.1	257	22	
2025-10-23T12:00	13150	161	-53.5	-80.2	258	23	
2025-10-23T12:00	13200	160	-53.9	-80.3	258	24	
2025-10-23T12:00	13250	159	-54.2	-80.5	257	25	
2025-10-23T12:00	13300	158	-54.3	-80.6	256	26	
2025-10-23T12:00	13350	156	-54.5	-80.7	254	27	
2025-10-23T12:00	13400	155	-54.7	-80.8	253	27	
2025-10-23T12:00	13450	154	-54.7	-81.0	252	28	
2025-10-23T12:00	13500	153	-54.7	-81.1	253	28	
2025-10-23T12:00	13550	152	-54.9	-81.3	254	27	
2025-10-23T12:00	13600	150	-54.7	-81.4	257	27	
2025-10-23T12:00	13650	149	-54.7	-81.6	260	27	
2025-10-23T12:00	13700	148	-54.5	-81.8	264	27	
2025-10-23T12:00	13750	147	-54.7	-82.0	266	28	
2025-10-23T12:00	13800	146	-54.9	-82.0	268	28	
2025-10-23T12:00	13850	145	-55.1	-82.1	269	29	
2025-10-23T12:00	13900	144	-55.3	-82.2	268	29	
2025-10-23T12:00	13950	142	-55.1	-82.2	267	29	
2025-10-23T12:00	14000	141	-55.1	-82.4	266	29	
2025-10-23T12:00	14050	140	-54.8	-82.2	266	29	
2025-10-23T12:00	14100	139	-54.7	-82.0	265	29	
2025-10-23T12:00	14150	138	-55.0	-82.0	265	29	
2025-10-23T12:00	14200	137	-55.5	-82.1	265	29	
2025-10-23T12:00	14250	136	-56.0	-82.2	266	29	
2025-10-23T12:00	14300	135	-56.3	-82.2	266	29	
2025-10-23T12:00	14350	134	-56.6	-82.2	267	29	
2025-10-23T12:00	14400	133	-57.1	-82.3	267	29	
2025-10-23T12:00	14450	132	-57.5	-82.5	268	30	
2025-10-23T12:00	14500	131	-57.7	-82.7	269	30	
2025-10-23T12:00	14550	130	-57.6	-82.6	270	30	
2025-10-23T12:00	14600	129	-57.6	-82.6	272	30	
2025-10-23T12:00	14650	128	-57.7	-82.9	274	29	
2025-10-23T12:00	14700	127	-57.4	-83.1	275	28	
2025-10-23T12:00	14750	126	-56.4	-82.9	276	26	
2025-10-23T12:00	14800	125	-56.1	-82.9	276	24	
2025-10-23T12:00	14850	124	-56.1	-83.0	276	23	
2025-10-23T12:00	14900	123	-56.2	-82.9	275	22	
2025-10-23T12:00	14950	122	-56.4	-82.9	273	22	
2025-10-23T12:00	15000	121	-56.8	-82.9	271	22	
2025-10-23T12:00	15050	120	-57.1	-82.9	268	23	
2025-10-23T12:00	15100	119	-57.6	-83.0	266	23	
2025-10-23T12:00	15150	118	-58.1	-83.1	263	21	
2025-10-23T12:00	15200	117	-58.4	-83.1	263	20	
2025-10-23T12:00	15250	116	-58.7	-83.2	264	19	
2025-10-23T12:00	15300	115	-59.2	-83.4	263	19	
2025-10-23T12:00	15350	114	-59.6	-83.5	261	19	
2025-10-23T12:00	15400	113	-60.1	-83.6	259	19	
2025-10-23T12:00	15450	112	-60.6	-83.8	259	20	
2025-10-23T12:00	15500	111	-60.8	-83.9	258	20	
2025-10-23T12:00	15550	111	-61.1	-84.0	256	21	
2025-10-23T12:00	15600	110	-61.3	-84.0	253	22	
2025-10-23T12:00	15650	109	-61.7	-84.2	252	22	
2025-10-23T12:00	15700	108	-61.9	-84.2	252	22	
2025-10-23T12:00	15750	107	-62.2	-84.4	252	23	
2025-10-23T12:00	15800	106	-62.5	-84.6	252	24	
2025-10-23T12:00	15850	105	-62.4	-84.6	250	25	
2025-10-23T12:00	15900	104	-62.1	-84.5	248	27	
2025-10-23T12:00	15950	104	-62.2	-84.6	246	28	
2025-10-23T12:00	16000	103	-62.2	-84.6	245	29	
2025-10-23T12:00	16050	102	-62.5	-84.7	246	30	
2025-10-23T12:00	16100	101	-62.7	-84.9	248	31	
2025-10-23T12:00	16150	100	-62.2	-84.9	252	31	
2025-10-23T12:00	16200	99	-61.5	-84.7	255	32	
2025-10-23T12:00	16250	99	-61.5	-84.7	258	32	
2025-10-23T12:00	16300	98	-61.7	-84.7	260	32	
2025-10-23T12:00	16350	97	-62.0	-84.8	263	33	
2025-10-23T12:00	16400	96	-61.8	-85.1	266	32	
2025-10-23T12:00	16450	96	-60.8	-84.9	268	31	
2025-10-23T12:00	16500	95	-60.3	-85.0	270	29	
2025-10-23T12:00	16550	94	-60.2	-85.2	271	28	
2025-10-23T12:00	16600	93	-59.9	-85.1	272	28	
2025-10-23T12:00	16650	93	-60.0	-85.3	273	27	
2025-10-23T12:00	16700	92	-59.7	-85.3	275	27	
2025-10-23T12:00	16750	91	-59.0	-85.0	277	27	
2025-10-23T12:00	16800	90	-58.8	-85.0	278	27	
2025-10-23T12:00	16850	90	-59.0	-85.0	277	27	
2025-10-23T12:00	16900	89	-59.1	-84.9	277	27	
2025-10-23T12:00	16950	88	-59.1	-84.9	278	26	
2025-10-23T12:00	17000	88	-59.1	-84.8	281	25	
2025-10-23T12:00	17050	87	-59.3	-84.8	283	25	
2025-10-23T12:00	17100	86	-59.6	-84.9	286	24	
2025-10-23T12:00	17150	85	-59.7	-84.9	288	24	
2025-10-23T12:00	17200	85	-60.0	-85.1	288	25	
2025-10-23T12:00	17250	84	-60.3	-85.2	287	26	
2025-10-23T12:00	17300	83	-60.3	-85.3	287	26	
2025-10-23T12:00	17350	83	-60.3	-85.3	289	26	
2025-10-23T12:00	17400	82	-60.3	-85.4	291	25	
2025-10-23T12:00	17450	81	-60.4	-85.6	293	24	
2025-10-23T12:00	17500	81	-60.2	-85.5	295	22	
2025-10-23T12:00	17550	80	-60.2	-85.7	296	20	
2025-10-23T12:00	17600	79	-60.0	-85.7	295	18	
2025-10-23T12:00	17650	79	-59.9	-85.7	293	16	
2025-10-23T12:00	17700	78	-59.6	-85.5	288	15	
2025-10-23T12:00	17750	78	-59.5	-85.5	282	14	
2025-10-23T12:00	17800	77	-59.2	-85.4	277	14	
2025-10-23T12:00	17850	76	-59.2	-85.3	273	14	
2025-10-23T12:00	17900	76	-59.6	-85.4	272	15	
2025-10-23T12:00	17950	75	-59.9	-85.4	272	15	
2025-10-23T12:00	18000	75	-60.2	-85.5	271	14	
2025-10-23T12:00	18050	74	-60.5	-85.5	270	14	
2025-10-23T12:00	18100	73	-60.7	-85.6	271	14	
2025-10-23T12:00	18150	73	-61.1	-85.7	273	15	
2025-10-23T12:00	18200	72	-61.5	-85.8	276	16	
2025-10-23T12:00	18250	72	-61.8	-86.1	277	17	
2025-10-23T12:00	18300	71	-61.5	-86.1	279	18	
2025-10-23T12:00	18350	71	-61.2	-86.1	279	19	
2025-10-23T12:00	18400	70	-61.2	-86.2	278	17	
2025-10-23T12:00	18450	69	-61.2	-86.1	277	16	
2025-10-23T12:00	18500	69	-61.6	-86.2	275	14	
2025-10-23T12:00	18550	68	-62.0	-86.2	271	13	
2025-10-23T12:00	18600	68	-62.2	-86.4	266	13	
2025-10-23T12:00	18650	67	-62.3	-86.6	262	14	
2025-10-23T12:00	18700	67	-61.7	-86.3	260	15	
2025-10-23T12:00	18750	66	-61.8	-86.5	259	16	
2025-10-23T12:00	18800	66	-61.9	-86.5	259	18	
2025-10-23T12:00	18850	65	-62.1	-86.6	259	19	
2025-10-23T12:00	18900	65	-62.4	-86.8	260	21	
2025-10-23T12:00	18950	64	-61.8	-86.6	261	22	
2025-10-23T12:00	19000	63	-61.6	-86.7	264	23	
2025-10-23T12:00	19050	63	-61.5	-86.8	266	23	
2025-10-23T12:00	19100	62	-61.0	-86.6	268	24	
2025-10-23T12:00	19150	62	-60.8	-86.3	268	24	
2025-10-23T12:00	19200	61	-61.0	-86.4	268	25	
2025-10-23T12:00	19250	61	-61.4	-86.5	269	25	
2025-10-23T12:00	19300	60	-61.5	-86.6	269	24	
2025-10-23T12:00	19350	60	-61.2	-86.5	270	22	
2025-10-23T12:00	19400	59	-61.0	-86.6	270	20	
2025-10-23T12:00	19450	59	-60.8	-86.6	270	19	
2025-10-23T12:00	19500	59	-60.3	-86.5	271	20	
2025-10-23T12:00	19550	58	-60.1	-86.5	272	21	
2025-10-23T12:00	19600	58	-59.8	-86.8	272	20	
2025-10-23T12:00	19650	57	-58.1	-86.5	268	17	
2025-10-23T12:00	19700	57	-56.6	-86.0	261	14	
2025-10-23T12:00	19750	56	-56.4	-85.8	253	13	
2025-10-23T12:00	19800	56	-56.2	-85.4	245	12	
2025-10-23T12:00	19850	55	-56.1	-85.1	238	13	
2025-10-23T12:00	19900	55	-56.2	-85.1	232	14	
2025-10-23T12:00	19950	55	-56.3	-85.0	227	14	
2025-10-23T12:00	20000	54	-56.4	-84.8	224	14	
2025-10-23T12:00	20050	54	-56.9		222	14	
2025-10-23T12:00	20100	53	-57.5		222	14	
2025-10-23T12:00	20150	53	-58.0		224	14	
2025-10-23T12:00	20200	52	-58.4		226	15	
2025-10-23T12:00	20250	52	-58.8		227	16	
2025-10-23T12:00	20300	52	-59.1		228	17	
2025-10-23T12:00	20350	51	-59.6		230	18	
2025-10-23T12:00	20400	51	-59.8		232	18	
2025-10-23T12:00	20450	50	-60.0		236	18	
2025-10-23T12:00	20500	50	-60.4		240	18	
2025-10-23T12:00	20550	50	-60.2		243	19	
2025-10-23T12:00	20600	49	-59.9		246	18	
2025-10-23T12:00	20650	49	-60.1		248	17	
2025-10-23T12:00	20700	48	-60.1		252	15	
2025-10-23T12:00	20750	48	-60.3		255	14	
2025-10-23T12:00	20800	48	-60.4		258	13	
2025-10-23T12:00	20850	47	-60.5		261	13	
2025-10-23T12:00	20900	47	-60.6		264	12	
2025-10-23T12:00	20950	46	-60.9		267	12	
2025-10-23T12:00	21000	46	-61.0		270	12	
2025-10-23T12:00	21050	46	-60.7		271	12	
2025-10-23T12:00	21100	45	-60.4		272	12	
2025-10-23T12:00	21150	45	-60.4		274	12	
2025-10-23T12:00	21200	45	-60.6		276	13	
2025-10-23T12:00	21250	44	-60.8		276	13	
2025-10-23T12:00	21300	44	-61.1		273	14	
2025-10-23T12:00	21350	44	-61.1		270	15	
2025-10-23T12:00	21400	43	-61.3		268	16	
2025-10-23T12:00	21450	43	-61.6		267	17	
2025-10-23T12:00	21500	43	-62.0		267	18	
2025-10-23T12:00	21550	42	-62.3		268	18	
2025-10-23T12:00	21600	42	-62.6		270	19	
2025-10-23T12:00	21650	41	-62.4		273	18	
2025-10-23T12:00	21700	41	-62.6		276	18	
2025-10-23T12:00	21750	41	-62.8		277	18	
2025-10-23T12:00	21800	41	-62.8		277	19	
2025-10-23T12:00	21850	40	-62.8		278	20	
2025-10-23T12:00	21900	40	-62.4		278	20	
2025-10-23T12:00	21950	40	-62.1		277	19	
2025-10-23T12:00	22000	39	-62.1		274	18	
2025-10-23T12:00	22050	39	-61.7		269	17	
2025-10-23T12:00	22100	39	-61.2		262	16	
2025-10-23T12:00	22150	38	-61.0		256	16	
2025-10-23T12:00	22200	38	-60.7		251	15	
2025-10-23T12:00	22250	38	-60.5		249	15	
2025-10-23T12:00	22300	37	-60.8		251	16	
2025-10-23T12:00	22350	37	-61.2		253	16	
2025-10-23T12:00	22400	37	-61.6		257	17	
2025-10-23T12:00	22450	36	-61.9		260	17	
2025-10-23T12:00	22500	36	-62.1		261	18	
2025-10-23T12:00	22550	36	-62.0		260	18	
2025-10-23T12:00	22600	36	-61.7		257	19	
2025-10-23T12:00	22650	35	-61.7		255	19	
2025-10-23T12:00	22700	35	-61.0		255	20	
2025-10-23T12:00	22750	35	-60.4		255	21	
2025-10-23T12:00	22800	34	-60.4		255	22	
2025-10-23T12:00	22850	34	-60.4		257	23	
2025-10-23T12:00	22900	34	-60.6		259	24	
2025-10-23T12:00	22950	34	-60.8		261	24	
2025-10-23T12:00	23000	33	-60.7		265	25	
2025-10-23T12:00	23050	33	-60.2		267	26	
2025-10-23T12:00	23100	33	-59.5		269	26	
2025-10-23T12:00	23150	33	-58.9		269	27	
2025-10-23T12:00	23200	32	-58.3		267	28	
2025-10-23T12:00	23250	32	-57.7		264	28	
2025-10-23T12:00	23300	32	-56.9		261	29	
2025-10-23T12:00	23350	32	-55.7		260	30	
2025-10-23T12:00	23400	31	-55.4		259	30	
2025-10-23T12:00	23450	31	-55.7		261	30	
2025-10-23T12:00	23500	31	-55.9		262	29	
2025-10-23T12:00	23550	31	-55.7		264	28	
2025-10-23T12:00	23600	30	-55.9		264	27	
2025-10-23T12:00	23650	30	-56.2		264	26	
2025-10-23T12:00	23700	30	-56.4		265	25	
2025-10-23T12:00	23750	30	-56.1		267	25	
2025-10-23T12:00	23800	29	-55.2		268	26	
2025-10-23T12:00	23850	29	-54.9		266	26	
2025-10-23T12:00	23900	29	-54.6		266	26	
2025-10-23T12:00	23950	29	-54.5		268	26	
2025-10-23T12:00	24000	29	-54.4		271	26	
2025-10-23T12:00	24050	28	-53.7		274	26	
2025-10-23T12:00	24100	28	-53.5		277	26	
2025-10-23T12:00	24150	28	-53.5		278	26	
2025-10-23T12:00	24200	28	-53.4		278	25	
2025-10-23T12:00	24250	27	-53.0		279	23	
2025-10-23T12:00	24300	27	-52.7		278	21	
2025-10-23T12:00	24350	27	-52.7		277	20	
2025-10-23T12:00	24400	27	-52.9		276	18	
2025-10-23T12:00	24450	27	-53.2		274	17	
2025-10-23T12:00	24500	26	-53.4		273	16	
2025-10-23T12:00	24550	26	-53.7		272	15	
2025-10-23T12:00	24600	26	-54.0		272	14	
2025-10-23T12:00	24650	26	-54.0		273	13	
2025-10-23T12:00	24700	26	-53.9		276	12	
2025-10-23T12:00	24750	25	-54.0		278	11	
2025-10-23T12:00	24800	25	-54.3		278	11	
2025-10-23T12:00	24850	25	-53.9		276	12	
2025-10-23T12:00	24900	25	-53.7		271	14	
2025-10-23T12:00	24950	25	-53.6		266	16	
2025-10-23T12:00	25000	24	-53.3		263	18	
2025-10-23T12:00	25050	24	-53.1		261	20	
2025-10-23T12:00	25100	24	-52.8		261	22	
2025-10-23T12:00	25150	24	-52.4		263	24	
2025-10-23T12:00	25200	24	-51.7		265	24	
2025-10-23T12:00	25250	23	-50.9		268	23	
2025-10-23T12:00	25300	23	-50.6		269	22	
2025-10-23T12:00	25350	23	-50.9		269	20	
2025-10-23T12:00	25400	23	-51.1		269	19	
2025-10-23T12:00	25450	23	-51.4		269	17	
2025-10-23T12:00	25500	23	-51.7		268	16	
2025-10-23T12:00	25550	22	-52.0		267	16	
2025-10-23T12:00	25600	22	-52.4		266	15	
2025-10-23T12:00	25650	22	-52.8		265	15	
2025-10-23T12:00	25700	22	-53.2		264	15	
2025-10-23T12:00	25750	22	-53.3		265	16	
2025-10-23T12:00	25800	22	-53.3		265	17	
2025-10-23T12:00	25850	21	-53.5		265	18	
2025-10-23T12:00	25900	21	-53.5		265	19	
2025-10-23T12:00	25950	21	-53.4		265	19	
2025-10-23T12:00	26000	21	-53.2		265	19	
2025-10-23T12:00	26050	21	-53.3		265	20	
2025-10-23T12:00	26100	21	-53.3		266	20	
2025-10-23T12:00	26150	20	-53.0		268	21	
2025-10-23T12:00	26200	20	-52.9		269	22	
2025-10-23T12:00	26250	20	-53.3		271	23	
2025-10-23T12:00	26300	20	-53.7		271	24	
2025-10-23T12:00	26350	20	-54.1		271	24	
2025-10-23T12:00	26400	20	-54.1		269	23	
2025-10-23T12:00	26450	19	-54.1		267	23	
2025-10-23T12:00	26500	19	-54.1		264	23	
2025-10-23T12:00	26550	19	-53.3		261	23	
2025-10-23T12:00	26600	19	-52.7		259	23	
2025-10-23T12:00	26650	19	-52.6		260	23	
2025-10-23T12:00	26700	19	-51.9		263	23	
2025-10-23T12:00	26750	19	-51.8		264	23	
2025-10-23T12:00	26800	18	-52.1		264	22	
2025-10-23T12:00	26850	18	-52.0		262	22	
2025-10-23T12:00	26900	18	-51.8		261	23	
2025-10-23T12:00	26950	18	-51.6		260	24	
2025-10-23T12:00	27000	18	-51.5		258	25	
2025-10-23T12:00	27050	18	-51.5		256	26	
2025-10-23T12:00	27100	18	-51.2		255	27	
2025-10-23T12:00	27150	17	-51.2		255	28	
2025-10-23T12:00	27200	17	-51.3		255	29	
2025-10-23T12:00	27250	17	-51.4		256	30	
2025-10-23T12:00	27300	17	-51.7		257	31	
2025-10-23T12:00	27350	17	-52.0		258	31	
2025-10-23T12:00	27400	17	-52.3		259	32	
2025-10-23T12:00	27450	17	-52.3		260	33	
2025-10-23T12:00	27500	17	-52.2		261	33	
2025-10-23T12:00	27550	16	-52.3		260	34	
2025-10-23T12:00	27600	16	-52.4		259	33	
2025-10-23T12:00	27650	16	-52.6		259	33	
2025-10-23T12:00	27700	16	-52.7		258	32	
2025-10-23T12:00	27750	16	-52.5		259	32	
2025-10-23T12:00	27800	16	-52.2		259	31	
2025-10-23T12:00	27850	16	-52.4		259	30	
2025-10-23T12:00	27900	16	-52.7		259	30	
2025-10-23T12:00	27950	15	-52.9		259	30	
2025-10-23T12:00	28000	15	-53.0		258	29	
2025-10-23T12:00	28050	15	-52.7		257	30	
2025-10-23T12:00	28100	15	-52.4		257	30	
2025-10-23T12:00	28150	15	-52.4		258	30	
2025-10-23T12:00	28200	15	-52.6		258	31	
2025-10-23T12:00	28250	15	-52.7		258	30	
2025-10-23T12:00	28300	15	-52.8		257	30	
2025-10-23T12:00	28350	15	-52.4		256	30	
2025-10-23T12:00	28400	14	-51.9		253	30	
2025-10-23T12:00	28450	14	-51.2		251	30	
2025-10-23T12:00	28500	14	-49.9		249	31	
2025-10-23T12:00	28550	14	-49.3		248	31	
2025-10-23T12:00	28600	14	-49.5		248	32	
2025-10-23T12:00	28650	14	-49.7		248	33	
2025-10-23T12:00	28700	14	-49.7		249	33	
2025-10-23T12:00	28750	14	-49.4		250	34	
2025-10-23T12:00	28800	14	-49.1		251	33	
2025-10-23T12:00	28850	13	-49.0		251	33	
2025-10-23T12:00	28900	13	-49.1		252	33	
2025-10-23T12:00	28950	13	-49.4		254	33	
2025-10-23T12:00	29000	13	-49.5		255	33	
2025-10-23T12:00	29050	13	-49.3		255	34	
2025-10-23T12:00	29100	13	-48.8		255	34	
2025-10-23T12:00	29150	13	-48.8		255	35	
2025-10-23T12:00	29200	13	-48.8		256	35	
2025-10-23T12:00	29250	13	-48.6		259	36	
2025-10-23T12:00	29300	13	-48.1		261	36	
2025-10-23T12:00	29350	12	-47.7		263	36	
2025-10-23T12:00	29400	12	-47.3		263	36	
2025-10-23T12:00	29450	12	-47.1		263	37	
2025-10-23T12:00	29500	12	-47.0		262	37	
2025-10-23T12:00	29550	12	-46.8		261	37	
2025-10-23T12:00	29600	12	-46.7		259	37	
2025-10-23T12:00	29650	12	-46.5		258	37	
2025-10-23T12:00	29700	12	-46.0		259	37	
2025-10-23T12:00	29750	12	-45.9		260	37	
2025-10-23T12:00	29800	12	-46.0		263	36	
2025-10-23T12:00	29850	12	-46.1		266	36	
2025-10-23T12:00	29900	11	-46.3		268	35	
2025-10-23T12:00	29950	11	-46.7		269	35	
2025-10-23T12:00	30000	11	-47.1		270	35	
2025-10-23T12:00	30050	11	-47.3		270	34	
2025-10-23T12:00	30100	11	-47.1		270	34	
2025-10-23T12:00	30150	11	-46.7		269	33	
2025-10-23T12:00	30200	11	-46.0		268	33	
2025-10-23T12:00	30250	11	-45.2		266	32	
2025-10-23T12:00	30300	11	-44.8		265	32	
2025-10-23T12:00	30350	11	-44.6		263	32	
2025-10-23T12:00	30400	11	-44.4		261	32	
2025-10-23T12:00	30450	11	-44.6		258	32	
2025-10-23T12:00	30500	10	-45.0		256	32	
2025-10-23T12:00	30550	10	-45.3		254	33	
2025-10-23T12:00	30600	10	-45.6		252	33	
2025-10-23T12:00	30650	10	-46.0		250	33	
2025-10-23T12:00	30700	10	-46.3		249	34	
2025-10-23T12:00	30750	10	-46.6		248	34	
2025-10-23T12:00	30800	10	-46.9		247	34	
2025-10-23T12:00	30850	10	-47.1		247	34	
2025-10-23T12:00	30900	10	-47.3		246	34	
2025-10-23T12:00	30950	10	-47.4		245	34	
2025-10-23T12:00	31000	10	-47.6		244	33	
2025-10-23T12:00	31050	10	-47.8		243	33	
2025-10-23T12:00	31100	10	-48.2		243	33	
2025-10-23T12:00	31150	10	-48.5		243	33	
2025-10-23T12:00	31200	9	-48.9		243	33	
2025-10-23T12:00	31250	9	-49.3		244	33	
2025-10-23T12:00	31300	9	-49.7		244	34	
2025-10-23T12:00	31350	9	-50.1		245	34	
2025-10-23T12:00	31400	9	-50.5		245	34	
2025-10-23T12:00	31450	9	-50.9		245	35	
2025-10-23T12:00	31500	9	-51.1		245	35	
2025-10-23T12:00	31550	9	-51.2		245	36	
2025-10-23T12:00	31600	9	-51.2		246	36	
2025-10-23T12:00	31650	9	-51.0		247	36	
2025-10-23T12:00	31700	9	-50.9		247	37	
2025-10-23T12:00	31750	9	-50.8		247	37	
2025-10-23T12:00	31800	9	-51.0		247	38	
2025-10-23T12:00	31850	9	-51.2		246	38	
2025-10-23T12:00	31900	8	-51.6		245	38	
2025-10-23T12:00	31950	8	-52.1		244	38	
2025-10-23T12:00	32000	8	-52.2		242	38	
2025-10-23T12:00	32050	8	-52.2		241	38	
2025-10-23T12:00	32100	8	-52.5		242	38	
2025-10-23T12:00	32150	8	-52.3		242	38	
2025-10-23T12:00	32200	8	-51.9		242	39	
2025-10-23T12:00	32250	8	-51.7		242	40	
2025-10-23T12:00	32300	8	-51.5		242	41	
2025-10-23T12:00	32350	8	-51.2		241	42	
2025-10-23T12:00	32400	8	-51.1		240	42	
2025-10-23T12:00	32450	8	-51.3		239	42	
2025-10-23T12:00	32500	8	-51.4		239	42	
2025-10-23T12:00	32550	8	-51.6		240	42	
2025-10-23T12:00	32600	8	-51.7		241	42	
2025-10-23T12:00	32650	8	-51.7		241	43	
2025-10-23T12:00	32700	7	-51.4		242	44	
2025-10-23T12:00	32750	7	-50.9		242	44	
2025-10-23T12:00	32800	7	-50.8		243	44	
2025-10-23T12:00	32850	7	-51.0		244	44	
2025-10-23T12:00	32900	7	-51.3		245	44	
2025-10-23T12:00	32950	7	-51.7		247	44	
2025-10-23T12:00	33000	7	-52.0		249	45	
2025-10-23T12:00	33050	7	-52.3		252	45	
2025-10-23T12:00	33100	7	-52.4		253	45	
2025-10-23T12:00	33150	7	-52.5		255	46	
2025-10-23T12:00	33200	7	-52.3		256	47	
2025-10-23T12:00	33250	7	-51.8		257	48	
2025-10-23T12:00	33300	7	-51.3		257	48	
2025-10-23T12:00	33350	7	-50.8		258	49	
2025-10-23T12:00	33400	7	-50.8		259	50	
2025-10-23T12:00	33450	7	-50.8		259	50	
2025-10-23T12:00	33500	7	-50.7		259	50	
2025-10-23T12:00	33550	7	-50.7		260	50	
2025-10-23T12:00	33600	7	-50.7		262	50	
2025-10-23T12:00	33650	6	-50.3		265	50	
2025-10-23T12:00	33700	6	-49.7		267	51	
2025-10-23T12:00	33750	6	-49.2		268	51	
2025-10-23T12:00	33800	6	-48.9		269	50	
2025-10-23T12:00	33850	6	-48.8		268	49	
2025-10-23T12:00	33900	6	-48.9		268	48	
2025-10-23T12:00	33950	6	-48.5		269	49	
2025-10-23T12:00	34000	6	-48.1		270	50	
2025-10-23T12:00	34050	6	-47.7		271	49	
2025-10-23T12:00	34100	6	-47.4		273	49	
2025-10-23T12:00	34150	6	-47.4		273	48	
2025-10-23T12:00	34200	6	-47.4		272	49	
2025-10-23T12:00	34250	6	-47.4		271	50	
2025-10-23T12:00	34300	6	-47.3		270	51	
2025-10-23T12:00	34350	6	-47.1		268	52	
2025-10-23T12:00	34400	6	-47.0		268	52	
2025-10-23T12:00	34450	6	-46.8		268	51	
2025-10-23T12:00	34500	6	-46.6		268	50	
2025-10-24T00:00	491	951	8.2	4.2	230	6	
2025-10-24T00:00	501	949	8.3	3.8	235	6	
2025-10-24T00:00	520	947	8.3	3.7	237	7	
2025-10-24T00:00	540	945	8.1	3.5	236	8	
2025-10-24T00:00	560	943	8.0	3.3	236	9	
2025-10-24T00:00	580	941	7.9	3.2	236	11	
2025-10-24T00:00	600	938	7.8	2.9	236	13	
2025-10-24T00:00	620	936	7.9	2.4	236	13	
2025-10-24T00:00	640	934	7.7	2.5	237	14	
2025-10-24T00:00	660	931	7.6	2.3	237	15	
2025-10-24T00:00	680	929	7.4	2.1	238	15	
2025-10-24T00:00	700	927	7.5	1.7	240	15	
2025-10-24T00:00	720	925	7.5	1.6	241	15	
2025-10-24T00:00	740	923	7.3	1.5	242	15	
2025-10-24T00:00	760	920	7.1	1.5	243	15	
2025-10-24T00:00	780	918	6.9	1.5	244	15	
2025-10-24T00:00	800	916	6.7	1.5	245	15	
2025-10-24T00:00	820	914	6.5	1.4	246	15	
2025-10-24T00:00	840	911	6.3	1.5	248	15	
2025-10-24T00:00	860	909	6.1	1.4	250	15	
2025-10-24T00:00	880	907	6.0	1.0	252	15	
2025-10-24T00:00	900	905	6.0	0.8	254	15	
2025-10-24T00:00	920	903	5.7	1.0	256	15	
2025-10-24T00:00	940	900	5.7	0.3	257	15	
2025-10-24T00:00	960	898	5.5	0.4	257	15	
2025-10-24T00:00	980	896	5.4	0.1	258	16	
2025-10-24T00:00	1000	894	5.2	0.1	258	16	
2025-10-24T00:00	1020	891	5.0	0.0	258	16	
2025-10-24T00:00	1040	889	4.8	0.1	258	16	
2025-10-24T00:00	1060	887	4.7	-0.1	258	17	
2025-10-24T00:00	1080	885	4.5	0.0	258	17	
2025-10-24T00:00	1100	883	4.3	-0.2	258	17	
2025-10-24T00:00	1120	880	4.1	-0.4	258	18	
2025-10-24T00:00	1140	878	3.9	-0.6	259	18	
2025-10-24T00:00	1160	876	3.8	-0.7	259	18	
2025-10-24T00:00	1180	874	3.6	-0.6	260	18	
2025-10-24T00:00	1200	872	3.3	-0.6	261	19	
2025-10-24T00:00	1220	870	3.1	-0.6	262	19	
2025-10-24T00:00	1240	868	2.9	-0.7	262	19	
2025-10-24T00:00	1260	866	2.7	-0.6	264	19	
2025-10-24T00:00	1280	863	2.5	-0.6	265	20	
2025-10-24T00:00	1300	861	2.4	-1.0	265	20	
2025-10-24T00:00	1320	859	2.3	-1.2	266	20	
2025-10-24T00:00	1340	857	2.1	-1.2	266	20	
2025-10-24T00:00	1360	855	1.8	-1.2	266	20	
2025-10-24T00:00	1380	853	1.7	-1.3	267	20	
2025-10-24T00:00	1400	850	1.5	-1.3	267	20	
2025-10-24T00:00	1420	849	1.4	-1.6	268	20	
2025-10-24T00:00	1440	846	1.2	-1.6	268	20	
2025-10-24T00:00	1460	844	1.0	-1.5	268	21	
2025-10-24T00:00	1480	842	0.8	-1.7	269	21	
2025-10-24T00:00	1500	840	0.6	-1.7	269	21	
2025-10-24T00:00	1520	838	0.3	-1.6	269	21	
2025-10-24T00:00	1540	836	0.2	-1.6	269	22	
2025-10-24T00:00	1560	834	-0.1	-1.5	269	22	
2025-10-24T00:00	1580	832	-0.3	-1.6	268	22	
2025-10-24T00:00	1600	829	-0.5	-1.6	268	21	
2025-10-24T00:00	1620	827	-0.7	-1.7	268	21	
2025-10-24T00:00	1640	825	-0.8	-1.8	268	21	
2025-10-24T00:00	1660	824	-1.1	-1.8	267	21	
2025-10-24T00:00	1680	821	-1.2	-1.8	267	21	
2025-10-24T00:00	1700	819	-1.4	-1.9	268	20	
2025-10-24T00:00	1720	817	-1.6	-1.9	268	20	
2025-10-24T00:00	1740	815	-1.8	-2.0	268	20	
2025-10-24T00:00	1760	813	-2.0	-2.1	269	21	
2025-10-24T00:00	1780	811	-2.1	-2.1	270	21	
2025-10-24T00:00	1800	809	-2.3	-2.3	271	21	
2025-10-24T00:00	1820	807	-2.4	-2.6	271	21	
2025-10-24T00:00	1840	805	-2.6	-2.7	271	22	
2025-10-24T00:00	1860	803	-2.7	-2.9	271	22	
2025-10-24T00:00	1880	801	-2.9	-3.1	271	22	
2025-10-24T00:00	1900	799	-3.0	-3.1	271	22	
2025-10-24T00:00	1920	797	-3.2	-3.2	272	22	
2025-10-24T00:00	1940	795	-3.3	-3.3	272	22	
2025-10-24T00:00	1960	793	-3.5	-3.5	272	23	
2025-10-24T00:00	1980	791	-3.6	-3.6	272	23	
2025-10-24T00:00	2000	789	-3.7	-3.7	272	23	
2025-10-24T00:00	2020	787	-3.8	-3.8	272	23	
2025-10-24T00:00	2040	785	-3.9	-3.9	272	23	
2025-10-24T00:00	2060	783	-4.1	-4.1	272	23	
2025-10-24T00:00	2080	781	-4.2	-4.2	272	23	
2025-10-24T00:00	2100	779	-4.3	-4.3	272	23	
2025-10-24T00:00	2120	777	-4.5	-4.5	271	23	
2025-10-24T00:00	2140	775	-4.7	-4.7	271	23	
2025-10-24T00:00	2160	773	-4.9	-4.9	270	23	
2025-10-24T00:00	2180	771	-5.1	-5.1	270	23	
2025-10-24T00:00	2200	769	-5.3	-5.3	270	23	
2025-10-24T00:00	2220	767	-5.4	-5.4	270	22	
2025-10-24T00:00	2240	765	-5.5	-5.5	270	22	
2025-10-24T00:00	2260	763	-5.6	-5.6	269	22	
2025-10-24T00:00	2280	762	-5.7	-5.7	269	22	
2025-10-24T00:00	2300	760	-5.9	-5.9	269	22	
2025-10-24T00:00	2320	758	-6.1	-6.1	269	22	
2025-10-24T00:00	2340	756	-6.2	-6.2	269	22	
2025-10-24T00:00	2360	754	-6.3	-6.3	269	22	
2025-10-24T00:00	2380	752	-6.5	-6.7	269	22	
2025-10-24T00:00	2400	750	-6.7	-7.8	269	22	
2025-10-24T00:00	2420	748	-6.8	-9.4	269	23	
2025-10-24T00:00	2440	746	-6.9	-9.9	268	23	
2025-10-24T00:00	2460	744	-7.1	-10.5	268	23	
2025-10-24T00:00	2480	742	-7.3	-11.9	267	23	
2025-10-24T00:00	2500	740	-7.5	-12.8	267	23	
2025-10-24T00:00	2520	738	-7.3	-11.2	266	23	
2025-10-24T00:00	2540	736	-7.3	-11.1	265	23	
2025-10-24T00:00	2560	734	-7.4	-11.3	265	23	
2025-10-24T00:00	2580	733	-7.6	-11.5	264	23	
2025-10-24T00:00	2600	731	-7.5	-11.7	264	23	
2025-10-24T00:00	2620	729	-7.6	-11.6	264	23	
2025-10-24T00:00	2640	727	-7.7	-11.8	264	23	
2025-10-24T00:00	2660	725	-7.8	-12.0	264	23	
2025-10-24T00:00	2680	723	-7.9	-12.0	264	23	
2025-10-24T00:00	2700	721	-8.1	-12.0	264	23	
2025-10-24T00:00	2720	719	-8.1	-12.1	264	23	
2025-10-24T00:00	2740	718	-8.2	-12.3	264	23	
2025-10-24T00:00	2760	716	-8.4	-12.5	264	23	
2025-10-24T00:00	2780	714	-8.5	-12.9	264	23	
2025-10-24T00:00	2800	712	-8.6	-13.4	264	23	
2025-10-24T00:00	2820	710	-8.7	-15.7	264	23	
2025-10-24T00:00	2840	709	-8.8	-16.6	264	23	
2025-10-24T00:00	2860	707	-8.8	-18.3	264	23	
2025-10-24T00:00	2880	705	-8.8	-18.0	264	23	
2025-10-24T00:00	2900	703	-8.7	-16.2	264	23	
2025-10-24T00:00	2920	702	-8.7	-16.3	264	23	
2025-10-24T00:00	2940	700	-8.8	-15.0	264	23	
2025-10-24T00:00	2960	698	-8.7	-12.4	264	22	
2025-10-24T00:00	2980	696	-8.8	-12.3	265	22	
2025-10-24T00:00	3000	694	-9.0	-12.3	265	22	
2025-10-24T00:00	3020	692	-9.2	-12.3	265	22	
2025-10-24T00:00	3040	690	-9.4	-12.4	265	22	
2025-10-24T00:00	3060	689	-9.5	-12.5	265	22	
2025-10-24T00:00	3080	687	-9.7	-12.5	265	22	
2025-10-24T00:00	3100	685	-9.8	-12.5	265	22	
2025-10-24T00:00	3120	684	-10.0	-12.6	264	21	
2025-10-24T00:00	3140	682	-10.2	-12.6	264	21	
2025-10-24T00:00	3160	680	-10.4	-12.7	264	21	
2025-10-24T00:00	3180	678	-10.5	-12.7	263	21	
2025-10-24T00:00	3200	676	-10.7	-13.0	262	21	
2025-10-24T00:00	3220	675	-10.7	-13.4	261	22	
2025-10-24T00:00	3240	673	-10.8	-13.5	260	22	
2025-10-24T00:00	3260	671	-10.7	-13.5	259	22	
2025-10-24T00:00	3280	669	-10.8	-13.3	258	22	
2025-10-24T00:00	3300	668	-11.0	-13.2	258	22	
2025-10-24T00:00	3320	666	-11.2	-13.2	257	22	
2025-10-24T00:00	3340	664	-11.4	-13.2	257	22	
2025-10-24T00:00	3360	663	-11.6	-13.2	256	22	
2025-10-24T00:00	3380	661	-11.8	-13.1	256	22	
2025-10-24T00:00	3400	659	-12.0	-13.1	255	22	
2025-10-24T00:00	3420	657	-12.2	-12.9	254	22	
2025-10-24T00:00	3440	656	-12.4	-13.0	254	22	
2025-10-24T00:00	3460	654	-12.6	-13.0	253	22	
2025-10-24T00:00	3480	652	-12.7	-13.0	252	22	
2025-10-24T00:00	3500	650	-12.9	-13.1	252	22	
2025-10-24T00:00	3520	649	-13.1	-13.2	252	22	
2025-10-24T00:00	3540	647	-13.2	-13.3	252	22	
2025-10-24T00:00	3560	645	-13.4	-13.4	253	21	
2025-10-24T00:00	3580	644	-13.5	-13.5	255	21	
2025-10-24T00:00	3600	642	-13.6	-13.7	256	21	
2025-10-24T00:00	3620	640	-13.7	-13.8	259	21	
2025-10-24T00:00	3640	639	-13.9	-14.0	260	21	
2025-10-24T00:00	3660	637	-14.1	-14.3	260	21	
2025-10-24T00:00	3680	635	-14.3	-14.4	260	22	
2025-10-24T00:00	3700	634	-14.4	-14.5	259	22	
2025-10-24T00:00	3720	632	-14.7	-14.8	259	22	
2025-10-24T00:00	3740	630	-14.8	-15.0	258	22	
2025-10-24T00:00	3760	628	-14.6	-15.4	257	22	
2025-10-24T00:00	3780	627	-14.8	-15.8	257	22	
2025-10-24T00:00	3800	625	-15.0	-16.2	256	22	
2025-10-24T00:00	3820	624	-15.1	-16.5	256	22	
2025-10-24T00:00	3840	622	-15.3	-16.9	256	22	
2025-10-24T00:00	3860	620	-15.5	-18.2	257	22	
2025-10-24T00:00	3880	619	-15.6	-18.5	258	22	
2025-10-24T00:00	3900	617	-15.8	-19.0	258	22	
2025-10-24T00:00	3920	615	-16.0	-19.5	259	22	
2025-10-24T00:00	3940	614	-16.1	-19.7	259	22	
2025-10-24T00:00	3960	612	-16.3	-20.2	259	22	
2025-10-24T00:00	3980	611	-16.4	-20.2	259	22	
2025-10-24T00:00	4000	609	-16.6	-20.3	258	22	
2025-10-24T00:00	4020	607	-16.6	-20.7	257	22	
2025-10-24T00:00	4040	606	-16.7	-21.0	256	22	
2025-10-24T00:00	4060	604	-16.8	-20.9	256	21	
2025-10-24T00:00	4080	602	-16.9	-20.8	255	21	
2025-10-24T00:00	4100	601	-16.8	-23.1	256	21	
2025-10-24T00:00	4120	599	-16.9	-24.3	257	21	
2025-10-24T00:00	4140	598	-16.9	-25.3	259	22	
2025-10-24T00:00	4160	596	-17.0	-26.0	260	22	
2025-10-24T00:00	4180	595	-17.0	-29.2	261	22	
2025-10-24T00:00	4200	593	-17.1	-29.4	262	22	
2025-10-24T00:00	4220	591	-17.3	-28.7	263	21	
2025-10-24T00:00	4240	590	-17.3	-32.7	264	21	
2025-10-24T00:00	4260	588	-17.3	-33.0	264	21	
2025-10-24T00:00	4280	586	-17.5	-32.8	265	21	
2025-10-24T00:00	4300	585	-17.7	-32.8	266	21	
2025-10-24T00:00	4320	584	-17.8	-33.0	266	21	
2025-10-24T00:00	4340	582	-17.9	-33.3	266	22	
2025-10-24T00:00	4360	580	-18.1	-33.5	266	22	
2025-10-24T00:00	4380	579	-18.2	-33.6	265	22	
2025-10-24T00:00	4400	577	-18.4	-33.9	265	22	
2025-10-24T00:00	4420	576	-18.6	-34.0	265	22	
2025-10-24T00:00	4440	574	-18.7	-34.1	265	23	
2025-10-24T00:00	4460	573	-18.9	-34.1	265	23	
2025-10-24T00:00	4480	571	-19.1	-34.6	266	23	
2025-10-24T00:00	4500	570	-19.3	-34.8	267	23	
2025-10-24T00:00	4520	568	-19.4	-35.3	268	23	
2025-10-24T00:00	4540	566	-19.5	-35.9	270	24	
2025-10-24T00:00	4560	565	-19.6	-35.0	271	24	
2025-10-24T00:00	4580	564	-19.7	-34.4	271	24	
2025-10-24T00:00	4600	562	-19.9	-34.0	272	24	
2025-10-24T00:00	4620	561	-20.0	-30.5	272	24	
2025-10-24T00:00	4640	559	-20.2	-27.9	272	24	
2025-10-24T00:00	4660	557	-20.3	-27.1	272	24	
2025-10-24T00:00	4680	556	-20.4	-26.3	271	25	
2025-10-24T00:00	4700	554	-20.6	-27.7	270	25	
2025-10-24T00:00	4720	553	-20.7	-27.7	270	25	
2025-10-24T00:00	4740	551	-20.8	-26.1	269	25	
2025-10-24T00:00	4760	550	-20.9	-24.6	269	25	
2025-10-24T00:00	4780	548	-21.0	-24.6	269	25	
2025-10-24T00:00	4800	547	-21.2	-24.2	268	25	
2025-10-24T00:00	4820	546	-21.4	-24.3	268	25	
2025-10-24T00:00	4840	544	-21.7	-24.3	268	25	
2025-10-24T00:00	4860	543	-21.8	-24.5	268	25	
2025-10-24T00:00	4880	541	-22.1	-24.5	267	25	
2025-10-24T00:00	4900	540	-22.2	-24.5	267	25	
2025-10-24T00:00	4920	538	-22.4	-24.6	267	25	
2025-10-24T00:00	4940	537	-22.6	-24.7	266	25	
2025-10-24T00:00	4960	535	-22.8	-24.7	266	26	
2025-10-24T00:00	4980	534	-23.0	-24.6	266	26	
2025-10-24T00:00	5000	532	-23.2	-24.7	266	26	
2025-10-24T00:00	5020	531	-23.4	-24.9	267	26	
2025-10-24T00:00	5040	529	-23.5	-25.0	267	26	
2025-10-24T00:00	5060	528	-23.6	-25.1	268	26	
2025-10-24T00:00	5080	526	-23.7	-25.3	269	26	
2025-10-24T00:00	5100	525	-23.8	-25.8	270	26	
2025-10-24T00:00	5120	524	-23.9	-26.6	271	26	
2025-10-24T00:00	5140	522	-24.0	-26.6	271	26	
2025-10-24T00:00	5160	521	-24.2	-26.6	271	26	
2025-10-24T00:00	5180	519	-24.4	-26.8	271	26	
2025-10-24T00:00	5200	518	-24.5	-28.5	271	26	
2025-10-24T00:00	5220	517	-24.4	-33.0	271	26	
2025-10-24T00:00	5240	515	-24.4	-36.7	271	26	
2025-10-24T00:00	5260	514	-24.5	-39.0	272	26	
2025-10-24T00:00	5280	512	-24.5	-39.3	272	26	
2025-10-24T00:00	5300	511	-24.6	-38.9	273	26	
2025-10-24T00:00	5320	509	-24.8	-37.8	273	26	
2025-10-24T00:00	5340	508	-24.9	-38.5	273	27	
2025-10-24T00:00	5360	506	-25.0	-39.6	274	27	
2025-10-24T00:00	5380	505	-25.1	-42.0	274	27	
2025-10-24T00:00	5400	504	-25.2	-42.5	274	28	
2025-10-24T00:00	5420	502	-25.3	-40.7	274	28	
2025-10-24T00:00	5440	501	-25.5	-41.4	275	29	
2025-10-24T00:00	5460	500	-25.5	-39.7	275	29	
2025-10-24T00:00	5480	498	-25.6	-38.0	276	30	
2025-10-24T00:00	5500	497	-25.8	-38.3	276	30	
2025-10-24T00:00	5520	496	-25.9	-38.5	277	30	
2025-10-24T00:00	5540	494	-26.0	-38.7	277	31	
2025-10-24T00:00	5560	493	-26.0	-39.1	278	31	
2025-10-24T00:00	5580	491	-26.0	-39.6	278	31	
2025-10-24T00:00	5600	490	-26.2	-40.0	279	31	
2025-10-24T00:00	5620	489	-26.3	-40.9	279	31	
2025-10-24T00:00	5640	487	-26.4	-41.2	279	31	
2025-10-24T00:00	5660	486	-26.5	-42.0	278	32	
2025-10-24T00:00	5680	485	-26.6	-44.0	278	32	
2025-10-24T00:00	5700	483	-26.7	-44.0	278	32	
2025-10-24T00:00	5720	482	-26.8	-42.5	278	32	
2025-10-24T00:00	5740	481	-26.9	-42.0	277	32	
2025-10-24T00:00	5760	479	-27.1	-41.9	277	32	
2025-10-24T00:00	5780	478	-27.2	-42.1	277	32	
2025-10-24T00:00	5800	477	-27.3	-42.9	277	32	
2025-10-24T00:00	5820	475	-27.4	-43.5	277	32	
2025-10-24T00:00	5840	474	-27.4	-44.0	277	32	
2025-10-24T00:00	5860	473	-27.5	-45.6	278	32	
2025-10-24T00:00	5880	471	-27.6	-45.9	279	32	
2025-10-24T00:00	5900	470	-27.8	-46.1	280	33	
2025-10-24T00:00	5920	469	-28.0	-46.1	280	33	
2025-10-24T00:00	5940	468	-28.1	-46.3	280	33	
2025-10-24T00:00	5960	466	-28.4	-46.6	281	34	
2025-10-24T00:00	5980	465	-28.5	-46.8	281	34	
2025-10-24T00:00	6000	464	-28.6	-46.1	281	34	
2025-10-24T00:00	6020	462	-28.7	-45.5	280	34	
2025-10-24T00:00	6040	461	-28.9	-45.1	280	34	
2025-10-24T00:00	6060	460	-29.0	-45.4	280	34	
2025-10-24T00:00	6080	458	-29.1	-46.5	280	34	
2025-10-24T00:00	6100	457	-29.2	-46.4	279	34	
2025-10-24T00:00	6120	456	-29.3	-45.7	279	34	
2025-10-24T00:00	6140	455	-29.3	-45.8	278	34	
2025-10-24T00:00	6160	453	-29.5	-45.8	278	34	
2025-10-24T00:00	6180	452	-29.6	-46.5	277	34	
2025-10-24T00:00	6200	451	-29.8	-46.6	277	34	
2025-10-24T00:00	6220	449	-29.9	-46.8	278	34	
2025-10-24T00:00	6240	448	-30.0	-46.9	278	34	
2025-10-24T00:00	6260	447	-30.1	-47.0	278	35	
2025-10-24T00:00	6280	446	-30.3	-47.1	279	35	
2025-10-24T00:00	6300	444	-30.4	-48.2	279	35	
2025-10-24T00:00	6320	443	-30.5	-47.7	279	35	
2025-10-24T00:00	6340	442	-30.6	-45.8	279	35	
2025-10-24T00:00	6360	441	-30.8	-44.3	278	35	
2025-10-24T00:00	6380	440	-30.9	-45.1	278	35	
2025-10-24T00:00	6400	438	-31.0	-45.9	278	36	
2025-10-24T00:00	6420	437	-31.0	-43.0	278	36	
2025-10-24T00:00	6440	436	-31.1	-41.3	279	36	
2025-10-24T00:00	6460	435	-31.3	-41.0	279	36	
2025-10-24T00:00	6480	433	-31.4	-39.6	280	37	
2025-10-24T00:00	6500	432	-31.4	-37.2	280	37	
2025-10-24T00:00	6520	431	-31.5	-37.8	281	37	
2025-10-24T00:00	6540	430	-31.6	-38.3	281	37	
2025-10-24T00:00	6560	428	-31.7	-37.6	281	38	
2025-10-24T00:00	6580	427	-31.8	-37.1	281	38	
2025-10-24T00:00	6600	426	-31.9	-37.1	282	38	
2025-10-24T00:00	6620	425	-32.1	-37.4	283	38	
2025-10-24T00:00	6640	424	-32.2	-38.3	284	38	
2025-10-24T00:00	6660	422	-32.3	-39.1	284	38	
2025-10-24T00:00	6680	421	-32.4	-40.3	285	38	
2025-10-24T00:00	6700	420	-32.4	-45.8	285	39	
2025-10-24T00:00	6720	419	-32.3	-46.2	286	40	
2025-10-24T00:00	6740	418	-32.4	-45.6	286	40	
2025-10-24T00:00	6760	416	-32.5	-46.0	286	41	
2025-10-24T00:00	6780	415	-32.6	-47.3	287	41	
2025-10-24T00:00	6800	414	-32.7	-48.2	287	41	
2025-10-24T00:00	6820	413	-32.6	-47.3	287	41	
2025-10-24T00:00	6840	412	-32.6	-46.3	287	42	
2025-10-24T00:00	6860	411	-32.7	-46.1	287	43	
2025-10-24T00:00	6880	409	-32.7	-45.4	287	44	
2025-10-24T00:00	6900	408	-32.9	-44.9	287	45	
2025-10-24T00:00	6920	407	-33.0	-44.1	287	45	
2025-10-24T00:00	6940	406	-33.0	-43.6	288	46	
2025-10-24T00:00	6960	405	-33.1	-43.1	288	46	
2025-10-24T00:00	6980	404	-33.3	-42.8	288	46	
2025-10-24T00:00	7000	403	-33.4	-42.8	288	46	
2025-10-24T00:00	7020	402	-33.5	-43.0	287	45	
2025-10-24T00:00	7040	400	-33.8	-43.1	287	45	
2025-10-24T00:00	7060	399	-33.9	-43.6	287	45	
2025-10-24T00:00	7080	398	-34.1	-43.8	286	45	
2025-10-24T00:00	7100	397	-34.2	-43.6	287	45	
2025-10-24T00:00	7120	396	-34.4	-43.2	287	46	
2025-10-24T00:00	7140	395	-34.6	-43.2	288	46	
2025-10-24T00:00	7160	393	-34.8	-43.1	288	46	
2025-10-24T00:00	7180	392	-35.0	-43.2	288	47	
2025-10-24T00:00	7200	391	-35.2	-43.1	288	46	
2025-10-24T00:00	7220	390	-35.3	-43.0	288	46	
2025-10-24T00:00	7240	389	-35.5	-42.7	287	46	
2025-10-24T00:00	7260	388	-35.7	-42.6	287	45	
2025-10-24T00:00	7280	387	-35.8	-43.2	287	45	
2025-10-24T00:00	7300	385	-36.0	-43.9	286	45	
2025-10-24T00:00	7320	384	-36.2	-44.0	287	45	
2025-10-24T00:00	7340	383	-36.2	-45.5	287	45	
2025-10-24T00:00	7360	382	-36.3	-45.0	288	46	
2025-10-24T00:00	7380	381	-36.3	-44.3	288	46	
2025-10-24T00:00	7400	380	-36.4	-44.5	289	46	
2025-10-24T00:00	7420	379	-36.5	-44.1	290	47	
2025-10-24T00:00	7440	378	-36.6	-43.9	291	47	
2025-10-24T00:00	7460	377	-36.7	-44.4	291	47	
2025-10-24T00:00	7480	376	-36.9	-44.9	292	47	
2025-10-24T00:00	7500	375	-37.0	-45.0	292	47	
2025-10-24T00:00	7520	374	-37.2	-45.1	292	47	
2025-10-24T00:00	7540	372	-37.4	-45.5	292	47	
2025-10-24T00:00	7560	371	-37.5	-46.1	292	47	
2025-10-24T00:00	7580	370	-37.7	-46.7	292	47	
2025-10-24T00:00	7600	369	-37.9	-46.9	292	47	
2025-10-24T00:00	7620	368	-38.1	-47.5	292	47	
2025-10-24T00:00	7640	367	-38.2	-49.2	292	47	
2025-10-24T00:00	7660	366	-38.3	-52.9	292	47	
2025-10-24T00:00	7680	365	-38.4	-54.5	291	47	
2025-10-24T00:00	7700	364	-38.4	-54.4	291	46	
2025-10-24T00:00	7720	363	-38.5	-54.7	291	46	
2025-10-24T00:00	7740	362	-38.5	-55.1	291	46	
2025-10-24T00:00	7760	361	-38.5	-55.8	291	46	
2025-10-24T00:00	7780	360	-38.6	-55.8	291	46	
2025-10-24T00:00	7800	359	-38.6	-56.3	290	46	
2025-10-24T00:00	7820	358	-38.6	-57.1	290	46	
2025-10-24T00:00	7840	356	-38.5	-57.5	290	47	
2025-10-24T00:00	7860	356	-38.6	-57.7	291	47	
2025-10-24T00:00	7880	355	-38.6	-58.1	291	47	
2025-10-24T00:00	7900	354	-38.5	-59.4	291	47	
2025-10-24T00:00	7920	353	-38.5	-60.2	291	47	
2025-10-24T00:00	7940	351	-38.5	-60.0	291	48	
2025-10-24T00:00	7960	350	-38.6	-60.1	291	48	
2025-10-24T00:00	7980	349	-38.7	-59.7	291	48	
2025-10-24T00:00	8000	348	-38.7	-59.8	291	48	
2025-10-24T00:00	8020	347	-38.8	-59.9	291	48	
2025-10-24T00:00	8040	346	-38.9	-60.1	291	48	
2025-10-24T00:00	8060	345	-38.9	-60.1	291	48	
2025-10-24T00:00	8080	344	-38.9	-60.5	291	48	
2025-10-24T00:00	8100	343	-38.9	-60.6	290	48	
2025-10-24T00:00	8120	342	-39.0	-60.6	290	48	
2025-10-24T00:00	8140	341	-38.9	-60.7	290	48	
2025-10-24T00:00	8160	340	-38.8	-60.9	290	49	
2025-10-24T00:00	8180	339	-38.9	-60.8	290	49	
2025-10-24T00:00	8200	338	-39.1	-60.5	290	49	
2025-10-24T00:00	8220	337	-39.3	-60.5	290	49	
2025-10-24T00:00	8240	336	-39.5	-60.4	290	49	
2025-10-24T00:00	8260	335	-39.6	-59.3	289	49	
2025-10-24T00:00	8280	334	-39.5	-55.8	289	49	
2025-10-24T00:00	8300	333	-39.6	-54.3	289	49	
2025-10-24T00:00	8320	332	-39.7	-52.9	289	49	
2025-10-24T00:00	8340	331	-39.7	-50.8	289	49	
2025-10-24T00:00	8360	331	-39.7	-49.6	289	49	
2025-10-24T00:00	8380	330	-39.9	-50.2	289	49	
2025-10-24T00:00	8400	329	-40.0	-50.3	289	48	
2025-10-24T00:00	8420	328	-40.1	-50.6	289	48	
2025-10-24T00:00	8440	327	-40.2	-51.1	289	48	
2025-10-24T00:00	8460	326	-40.3	-51.5	289	48	
2025-10-24T00:00	8480	325	-40.2	-53.3	289	48	
2025-10-24T00:00	8500	324	-40.1	-54.4	289	48	
2025-10-24T00:00	8520	323	-40.1	-54.4	290	48	
2025-10-24T00:00	8540	322	-40.0	-55.2	290	48	
2025-10-24T00:00	8560	321	-40.0	-55.6	290	48	
2025-10-24T00:00	8580	320	-39.8	-57.3	291	48	
2025-10-24T00:00	8600	319	-39.4	-60.9	291	48	
2025-10-24T00:00	8620	318	-39.1	-62.2	291	48	
2025-10-24T00:00	8640	317	-39.2	-62.1	291	49	
2025-10-24T00:00	8660	316	-39.3	-62.0	291	49	
2025-10-24T00:00	8680	315	-39.4	-62.0	290	49	
2025-10-24T00:00	8700	315	-39.4	-62.3	290	48	
2025-10-24T00:00	8720	314	-39.4	-62.6	290	48	
2025-10-24T00:00	8740	313	-39.5	-62.8	290	48	
2025-10-24T00:00	8760	312	-39.5	-63.1	290	47	
2025-10-24T00:00	8780	311	-39.6	-63.2	291	47	
2025-10-24T00:00	8800	310	-39.8	-63.2	291	46	
2025-10-24T00:00	8820	309	-40.0	-63.2	291	46	
2025-10-24T00:00	8840	308	-40.1	-63.3	291	46	
2025-10-24T00:00	8860	307	-40.3	-63.2	290	46	
2025-10-24T00:00	8880	306	-40.4	-63.4	290	46	
2025-10-24T00:00	8900	305	-40.5	-63.6	290	46	
2025-10-24T00:00	8920	304	-40.5	-64.3	290	47	
2025-10-24T00:00	8940	304	-40.3	-65.0	291	47	
2025-10-24T00:00	8960	303	-40.4	-64.9	291	47	
2025-10-24T00:00	8980	302	-40.4	-64.8	291	47	
2025-10-24T00:00	9000	301	-40.5	-64.5	290	47	
2025-10-24T00:00	9020	300	-40.4	-64.1	290	47	
2025-10-24T00:00	9040	299	-40.4	-64.3	290	47	
2025-10-24T00:00	9060	298	-40.5	-64.4	290	48	
2025-10-24T00:00	9080	298	-40.6	-64.4	290	48	
2025-10-24T00:00	9100	297	-40.7	-64.3	290	48	
2025-10-24T00:00	9120	296	-40.8	-64.6	290	48	
2025-10-24T00:00	9140	295	-40.8	-65.3	290	48	
2025-10-24T00:00	9160	294	-40.9	-65.6	289	48	
2025-10-24T00:00	9180	293	-40.9	-65.6	289	48	
2025-10-24T00:00	9200	292	-41.0	-65.6	289	48	
2025-10-24T00:00	9220	291	-41.2	-65.8	289	49	
2025-10-24T00:00	9240	290	-41.3	-65.9	289	49	
2025-10-24T00:00	9260	290	-41.4	-65.9	288	49	
2025-10-24T00:00	9280	289	-41.5	-66.0	288	49	
2025-10-24T00:00	9300	288	-41.6	-66.2	288	49	
2025-10-24T00:00	9320	287	-41.7	-66.4	288	49	
2025-10-24T00:00	9340	286	-41.5	-66.7	287	50	
2025-10-24T00:00	9360	285	-41.5	-67.0	287	50	
2025-10-24T00:00	9380	285	-41.6	-67.1	287	50	
2025-10-24T00:00	9400	284	-41.6	-67.1	286	50	
2025-10-24T00:00	9420	283	-41.6	-67.3	286	50	
2025-10-24T00:00	9440	282	-41.6	-67.4	286	50	
2025-10-24T00:00	9460	281	-41.6	-67.5	285	50	
2025-10-24T00:00	9480	280	-41.6	-67.6	285	50	
2025-10-24T00:00	9500	280	-41.7	-67.7	285	50	
2025-10-24T00:00	9520	279	-41.8	-67.8	285	50	
2025-10-24T00:00	9540	278	-41.9	-67.8	285	50	
2025-10-24T00:00	9560	277	-41.9	-67.9	285	50	
2025-10-24T00:00	9580	276	-42.0	-68.0	285	49	
2025-10-24T00:00	9600	275	-42.2	-68.0	285	49	
2025-10-24T00:00	9620	275	-42.3	-68.1	285	49	
2025-10-24T00:00	9640	274	-42.4	-68.2	285	49	
2025-10-24T00:00	9660	273	-42.5	-68.3	285	49	
2025-10-24T00:00	9680	272	-42.5	-68.4	285	49	
2025-10-24T00:00	9700	271	-42.5	-68.5	285	49	
2025-10-24T00:00	9720	271	-42.4	-68.7	285	49	
2025-10-24T00:00	9740	270	-42.3	-68.8	285	49	
2025-10-24T00:00	9760	269	-42.4	-68.9	286	49	
2025-10-24T00:00	9780	268	-42.5	-68.8	286	49	
2025-10-24T00:00	9800	267	-42.6	-69.0	286	49	
2025-10-24T00:00	9820	267	-42.5	-69.2	286	49	
2025-10-24T00:00	9840	266	-42.5	-69.1	286	49	
2025-10-24T00:00	9860	265	-42.7	-69.2	286	49	
2025-10-24T00:00	9880	264	-42.8	-69.3	286	49	
2025-10-24T00:00	9900	263	-43.0	-69.3	286	49	
2025-10-24T00:00	9920	263	-43.2	-69.4	286	49	
2025-10-24T00:00	9940	262	-43.3	-69.4	286	49	
2025-10-24T00:00	9960	261	-43.3	-69.5	286	49	
2025-10-24T00:00	9980	260	-43.3	-69.7	286	49	
2025-10-24T00:00	10000	260	-43.2	-70.1	287	49	
2025-10-24T00:00	10018	259	-43.2	-70.2	287	49	
2025-10-24T00:00	10050	258	-43.0	-70.6	287	49	
2025-10-24T00:00	10100	256	-42.9	-71.1	286	48	
2025-10-24T00:00	10150	254	-43.1	-71.2	285	48	
2025-10-24T00:00	10200	252	-43.1	-71.6	285	48	
2025-10-24T00:00	10250	250	-43.3	-71.9	286	47	
2025-10-24T00:00	10300	248	-43.3	-72.2	287	47	
2025-10-24T00:00	10350	246	-43.1	-71.9	286	47	
2025-10-24T00:00	10400	245	-42.8	-72.0	287	46	
2025-10-24T00:00	10450	243	-42.2	-72.7	288	45	
2025-10-24T00:00	10500	241	-41.9	-73.0	288	43	
2025-10-24T00:00	10550	239	-41.4	-73.0	288	43	
2025-10-24T00:00	10600	238	-41.3	-73.1	288	43	
2025-10-24T00:00	10650	236	-41.6	-73.3	288	42	
2025-10-24T00:00	10700	234	-41.4	-73.5	287	41	
2025-10-24T00:00	10750	232	-41.6	-73.6	287	41	
2025-10-24T00:00	10800	231	-41.7	-73.6	285	40	
2025-10-24T00:00	10850	229	-41.8	-73.9	284	39	
2025-10-24T00:00	10900	227	-41.6	-73.8	284	39	
2025-10-24T00:00	10950	225	-41.7	-73.9	284	37	
2025-10-24T00:00	11000	224	-41.8	-74.0	283	36	
2025-10-24T00:00	11050	222	-42.2	-74.2	283	35	
2025-10-24T00:00	11100	221	-42.5	-74.4	283	34	
2025-10-24T00:00	11150	219	-42.8	-74.5	282	34	
2025-10-24T00:00	11200	217	-43.1	-74.6	281	33	
2025-10-24T00:00	11250	216	-43.6	-74.8	281	33	
2025-10-24T00:00	11300	214	-43.9	-74.8	280	33	
2025-10-24T00:00	11350	213	-44.2	-75.1	279	33	
2025-10-24T00:00	11400	211	-44.3	-75.3	278	33	
2025-10-24T00:00	11450	209	-44.5	-75.6	277	34	
2025-10-24T00:00	11500	208	-44.7	-75.7	275	34	
2025-10-24T00:00	11550	206	-45.0	-76.0	274	34	
2025-10-24T00:00	11600	205	-45.1	-76.3	273	35	
2025-10-24T00:00	11650	203	-45.2	-76.4	273	36	
2025-10-24T00:00	11700	202	-45.2	-76.6	273	37	
2025-10-24T00:00	11750	200	-45.2	-76.9	272	37	
2025-10-24T00:00	11800	199	-45.3	-77.0	272	37	
2025-10-24T00:00	11850	197	-45.4	-77.1	272	37	
2025-10-24T00:00	11900	196	-45.6	-77.4	272	36	
2025-10-24T00:00	11950	194	-45.7	-77.5	272	34	
2025-10-24T00:00	12000	193	-46.1	-77.7	272	33	
2025-10-24T00:00	12050	191	-46.4	-77.9	271	32	
2025-10-24T00:00	12100	190	-46.6	-78.2	270	31	
2025-10-24T00:00	12150	189	-46.5	-78.2	270	30	
2025-10-24T00:00	12200	187	-46.6	-78.5	269	29	
2025-10-24T00:00	12250	186	-46.8	-78.6	268	28	
2025-10-24T00:00	12300	184	-47.1	-78.8	267	27	
2025-10-24T00:00	12350	183	-47.4	-79.0	266	25	
2025-10-24T00:00	12400	182	-47.2	-79.3	264	25	
2025-10-24T00:00	12450	180	-47.2	-79.2	263	25	
2025-10-24T00:00	12500	179	-47.5	-79.3	262	25	
2025-10-24T00:00	12550	178	-47.9	-79.5	260	26	
2025-10-24T00:00	12600	176	-48.2	-79.5	258	26	
2025-10-24T00:00	12650	175	-48.6	-79.8	257	26	
2025-10-24T00:00	12700	173	-49.0	-79.8	256	26	
2025-10-24T00:00	12750	172	-49.3	-80.0	256	26	
2025-10-24T00:00	12800	171	-49.7	-80.1	256	26	
2025-10-24T00:00	12850	170	-50.1	-80.3	257	27	
2025-10-24T00:00	12900	168	-50.5	-80.5	256	27	
2025-10-24T00:00	12950	167	-50.9	-80.5	256	27	
2025-10-24T00:00	13000	166	-51.2	-80.6	256	28	
2025-10-24T00:00	13050	164	-51.6	-80.8	257	28	
2025-10-24T00:00	13100	163	-51.8	-80.9	257	29	
2025-10-24T00:00	13150	162	-51.8	-81.1	258	29	
2025-10-24T00:00	13200	161	-52.1	-81.1	259	30	
2025-10-24T00:00	13250	159	-52.6	-81.2	259	31	
2025-10-24T00:00	13300	158	-52.9	-81.3	259	31	
2025-10-24T00:00	13350	157	-53.2	-81.4	259	32	
2025-10-24T00:00	13400	156	-53.5	-81.6	259	32	
2025-10-24T00:00	13450	155	-53.6	-81.7	260	31	
2025-10-24T00:00	13500	153	-53.8	-81.9	261	30	
2025-10-24T00:00	13550	152	-54.0	-82.0	263	30	
2025-10-24T00:00	13600	151	-54.4	-82.0	264	29	
2025-10-24T00:00	13650	150	-54.7	-82.1	266	29	
2025-10-24T00:00	13700	149	-54.8	-82.3	267	28	
2025-10-24T00:00	13750	147	-55.0	-82.3	268	27	
2025-10-24T00:00	13800	146	-55.2	-82.3	267	26	
2025-10-24T00:00	13850	145	-55.6	-82.4	266	25	
2025-10-24T00:00	13900	144	-55.9	-82.4	265	25	
2025-10-24T00:00	13950	143	-56.3	-82.4	263	24	
2025-10-24T00:00	14000	142	-56.5	-82.6	264	25	
2025-10-24T00:00	14050	141	-56.6	-82.6	265	25	
2025-10-24T00:00	14100	140	-56.8	-82.8	264	24	
2025-10-24T00:00	14150	138	-57.0	-82.9	264	24	
2025-10-24T00:00	14200	137	-57.2	-83.1	264	25	
2025-10-24T00:00	14250	136	-57.0	-83.3	264	25	
2025-10-24T00:00	14300	135	-56.7	-83.2	262	25	
2025-10-24T00:00	14350	134	-57.1	-83.2	260	25	
2025-10-24T00:00	14400	133	-57.2	-83.2	259	24	
2025-10-24T00:00	14450	132	-57.4	-83.4	260	24	
2025-10-24T00:00	14500	131	-57.2	-83.4	262	23	
2025-10-24T00:00	14550	130	-57.4	-83.5	263	22	
2025-10-24T00:00	14600	129	-57.8	-83.6	264	21	
2025-10-24T00:00	14650	128	-58.2	-83.6	264	21	
2025-10-24T00:00	14700	127	-58.4	-83.8	261	20	
2025-10-24T00:00	14750	126	-58.5	-84.1	258	20	
2025-10-24T00:00	14800	125	-57.9	-83.9	254	20	
2025-10-24T00:00	14850	124	-58.3	-84.1	250	20	
2025-10-24T00:00	14900	123	-58.6	-84.2	248	20	
2025-10-24T00:00	14950	122	-59.2	-84.2	248	20	
2025-10-24T00:00	15000	121	-59.7	-84.2	247	21	
2025-10-24T00:00	15050	120	-60.1	-84.3	245	21	
2025-10-24T00:00	15100	119	-60.4	-84.3	241	22	
2025-10-24T00:00	15150	118	-60.7	-84.4	238	22	
2025-10-24T00:00	15200	117	-60.9	-84.5	237	23	
2025-10-24T00:00	15250	116	-61.1	-84.5	238	24	
2025-10-24T00:00	15300	115	-61.6	-84.7	238	24	
2025-10-24T00:00	15350	114	-61.9	-84.7	239	25	
2025-10-24T00:00	15400	114	-62.1	-84.8	240	26	
2025-10-24T00:00	15450	113	-62.4	-84.9	242	26	
2025-10-24T00:00	15500	112	-62.9	-85.0	244	27	
2025-10-24T00:00	15550	111	-63.0	-85.0	245	28	
2025-10-24T00:00	15600	110	-63.2	-85.0	246	29	
2025-10-24T00:00	15650	109	-63.5	-85.2	248	31	
2025-10-24T00:00	15700	108	-63.4	-85.2	249	32	
2025-10-24T00:00	15750	107	-63.2	-85.1	250	32	
2025-10-24T00:00	15800	106	-63.5	-85.2	252	32	
2025-10-24T00:00	15850	105	-63.7	-85.5	255	33	
2025-10-24T00:00	15900	105	-63.1	-85.5	259	34	
2025-10-24T00:00	15950	104	-62.6	-85.6	261	35	
2025-10-24T00:00	16000	103	-62.2	-85.5	262	36	
2025-10-24T00:00	16050	102	-62.0	-85.5	262	36	
2025-10-24T00:00	16100	101	-62.3	-85.5	262	36	
2025-10-24T00:00	16150	100	-62.4	-85.8	263	36	
2025-10-24T00:00	16200	100	-61.3	-85.6	266	34	
2025-10-24T00:00	16250	99	-60.8	-85.8	269	32	
2025-10-24T00:00	16300	98	-59.8	-85.6	271	30	
2025-10-24T00:00	16350	97	-59.4	-85.5	270	30	
2025-10-24T00:00	16400	96	-59.7	-85.4	269	30	
2025-10-24T00:00	16450	96	-59.9	-86.0	270	29	
2025-10-24T00:00	16500	95	-56.5	-85.9	274	23	
2025-10-24T00:00	16550	94	-53.8	-85.4	278	19	
2025-10-24T00:00	16600	93	-53.8	-85.4	278	16	
2025-10-24T00:00	16650	93	-54.2	-85.1	274	15	
2025-10-24T00:00	16700	92	-54.7	-84.9	267	14	
2025-10-24T00:00	16750	91	-55.4	-84.8	260	13	
2025-10-24T00:00	16800	91	-56.2	-84.8	252	12	
2025-10-24T00:00	16850	90	-56.8	-85.0	250	9	
2025-10-24T00:00	16900	89	-56.4	-84.9	252	6	
2025-10-24T00:00	16950	88	-56.1	-84.8	255	5	
2025-10-24T00:00	17000	88	-56.6	-85.0	250	4	
2025-10-24T00:00	17050	87	-57.0	-85.0	243	5	
2025-10-24T00:00	17100	86	-57.5	-85.0	241	5	
2025-10-24T00:00	17150	86	-58.0	-85.1	236	6	
2025-10-24T00:00	17200	85	-58.5	-85.2	227	5	
2025-10-24T00:00	17250	84	-59.0	-85.4	212	5	
2025-10-24T00:00	17300	84	-59.4	-85.7	194	5	
2025-10-24T00:00	17350	83	-59.3	-85.9	196	5	
2025-10-24T00:00	17400	82	-58.7	-85.8	209	5	
2025-10-24T00:00	17450	82	-58.9	-86.0	217	6	
2025-10-24T00:00	17500	81	-59.0	-85.9	221	7	
2025-10-24T00:00	17550	80	-59.1	-85.9	224	7	
2025-10-24T00:00	17600	80	-59.5	-85.9	226	7	
2025-10-24T00:00	17650	79	-59.8	-85.9	226	7	
2025-10-24T00:00	17700	79	-60.2	-86.0	225	8	
2025-10-24T00:00	17750	78	-60.7	-86.1	226	9	
2025-10-24T00:00	17800	77	-60.9	-86.2	230	9	
2025-10-24T00:00	17850	77	-61.2	-86.4	236	10	
2025-10-24T00:00	17900	76	-61.4	-86.6	242	11	
2025-10-24T00:00	17950	75	-60.9	-86.4	246	12	
2025-10-24T00:00	18000	75	-60.8	-86.4	248	14	
2025-10-24T00:00	18050	74	-61.1	-86.5	249	15	
2025-10-24T00:00	18100	74	-61.5	-86.5	248	15	
2025-10-24T00:00	18150	73	-62.0	-86.5	248	16	
2025-10-24T00:00	18200	72	-62.4	-86.5	246	17	
2025-10-24T00:00	18250	72	-62.9	-86.6	245	18	
2025-10-24T00:00	18300	71	-63.2	-86.8	244	18	
2025-10-24T00:00	18350	71	-63.6	-87.0	243	19	
2025-10-24T00:00	18400	70	-63.5	-87.0	242	19	
2025-10-24T00:00	18450	70	-63.6	-87.2	242	21	
2025-10-24T00:00	18500	69	-63.8	-87.7	242	22	
2025-10-24T00:00	18550	68	-62.7	-87.3	241	24	
2025-10-24T00:00	18600	68	-61.9	-87.2	242	25	
2025-10-24T00:00	18650	67	-61.8	-87.3	244	25	
2025-10-24T00:00	18700	67	-62.0	-87.4	247	25	
2025-10-24T00:00	18750	66	-61.9	-87.2	250	25	
2025-10-24T00:00	18800	66	-62.0	-87.2	253	25	
2025-10-24T00:00	18850	65	-62.1	-87.3	256	25	
2025-10-24T00:00	18900	65	-62.0	-87.4	260	25	
2025-10-24T00:00	18950	64	-61.5	-87.2	263	25	
2025-10-24T00:00	19000	64	-61.5	-87.1	266	24	
2025-10-24T00:00	19050	63	-61.7	-87.2	269	23	
2025-10-24T00:00	19100	63	-61.9	-87.4	271	22	
2025-10-24T00:00	19150	62	-61.5	-87.5	271	22	
2025-10-24T00:00	19200	62	-60.7	-87.4	268	22	
2025-10-24T00:00	19250	61	-60.0	-87.4	266	21	
2025-10-24T00:00	19300	61	-59.0	-87.1	269	21	
2025-10-24T00:00	19350	60	-58.5	-86.8	273	22	
2025-10-24T00:00	19400	60	-58.6	-86.7	277	23	
2025-10-24T00:00	19450	59	-58.7	-86.5	280	24	
2025-10-24T00:00	19500	59	-59.0	-86.6	282	25	
2025-10-24T00:00	19550	58	-59.1	-86.9	282	25	
2025-10-24T00:00	19600	58	-58.2	-86.8	280	23	
2025-10-24T00:00	19650	57	-57.3	-86.5	277	21	
2025-10-24T00:00	19700	57	-57.4	-86.5	271	19	
2025-10-24T00:00	19750	56	-57.1	-86.3	265	17	
2025-10-24T00:00	19800	56	-57.2	-86.4	259	16	
2025-10-24T00:00	19850	56	-56.4	-86.2	257	15	
2025-10-24T00:00	19900	55	-56.0	-86.0	261	15	
2025-10-24T00:00	19950	55	-56.1	-85.9	263	15	
2025-10-24T00:00	20000	54	-56.3	-85.9	261	14	
2025-10-24T00:00	20050	54	-56.0		256	14	
2025-10-24T00:00	20100	53	-56.1		251	14	
2025-10-24T00:00	20150	53	-56.4		248	14	
2025-10-24T00:00	20200	53	-56.9		246	13	
2025-10-24T00:00	20250	52	-57.3		244	13	
2025-10-24T00:00	20300	52	-57.7		242	13	
2025-10-24T00:00	20350	51	-58.2		241	12	
2025-10-24T00:00	20400	51	-58.7		239	12	
2025-10-24T00:00	20450	51	-59.1		238	13	
2025-10-24T00:00	20500	50	-59.4		236	14	
2025-10-24T00:00	20550	50	-59.8		236	15	
2025-10-24T00:00	20600	49	-60.0		237	16	
2025-10-24T00:00	20650	49	-60.3		239	17	
2025-10-24T00:00	20700	49	-60.4		241	18	
2025-10-24T00:00	20750	48	-60.6		242	19	
2025-10-24T00:00	20800	48	-60.9		243	19	
2025-10-24T00:00	20850	47	-61.2		243	19	
2025-10-24T00:00	20900	47	-61.7		245	20	
2025-10-24T00:00	20950	47	-62.0		246	20	
2025-10-24T00:00	21000	46	-62.5		248	20	
2025-10-24T00:00	21050	46	-62.8		250	20	
2025-10-24T00:00	21100	46	-63.1		253	20	
2025-10-24T00:00	21150	45	-63.3		256	20	
2025-10-24T00:00	21200	45	-63.0		260	19	
2025-10-24T00:00	21250	44	-62.3		262	18	
2025-10-24T00:00	21300	44	-61.7		263	17	
2025-10-24T00:00	21350	44	-61.6		263	17	
2025-10-24T00:00	21400	43	-61.9		262	17	
2025-10-24T00:00	21450	43	-62.2		260	17	
2025-10-24T00:00	21500	43	-62.0		261	17	
2025-10-24T00:00	21550	42	-61.9		265	16	
2025-10-24T00:00	21600	42	-61.5		266	16	
2025-10-24T00:00	21650	42	-61.3		265	16	
2025-10-24T00:00	21700	41	-61.3		262	15	
2025-10-24T00:00	21750	41	-61.2		258	14	
2025-10-24T00:00	21800	41	-61.1		253	13	
2025-10-24T00:00	21850	40	-61.1		246	13	
2025-10-24T00:00	21900	40	-61.3		241	13	
2025-10-24T00:00	21950	40	-61.6		239	13	
2025-10-24T00:00	22000	39	-62.0		239	13	
2025-10-24T00:00	22050	39	-62.5		241	14	
2025-10-24T00:00	22100	39	-62.9		243	15	
2025-10-24T00:00	22150	38	-63.2		246	17	
2025-10-24T00:00	22200	38	-62.9		251	17	
2025-10-24T00:00	22250	38	-62.6		255	17	
2025-10-24T00:00	22300	37	-62.7		259	18	
2025-10-24T00:00	22350	37	-62.7		262	18	
2025-10-24T00:00	22400	37	-62.4		264	19	
2025-10-24T00:00	22450	37	-62.0		265	19	
2025-10-24T00:00	22500	36	-61.1		266	19	
2025-10-24T00:00	22550	36	-60.8		265	20	
2025-10-24T00:00	22600	36	-60.7		263	20	
2025-10-24T00:00	22650	35	-60.4		260	21	
2025-10-24T00:00	22700	35	-60.3		258	22	
2025-10-24T00:00	22750	35	-59.6		261	22	
2025-10-24T00:00	22800	35	-57.3		270	20	
2025-10-24T00:00	22850	34	-56.9		277	19	
2025-10-24T00:00	22900	34	-57.2		284	19	
2025-10-24T00:00	22950	34	-57.3		292	18	
2025-10-24T00:00	23000	34	-57.3		298	18	
2025-10-24T00:00	23050	33	-57.4		301	16	
2025-10-24T00:00	23100	33	-57.0		303	15	
2025-10-24T00:00	23150	33	-56.5		303	14	
2025-10-24T00:00	23200	32	-56.3		301	13	
2025-10-24T00:00	23250	32	-55.6		297	13	
2025-10-24T00:00	23300	32	-55.6		293	13	
2025-10-24T00:00	23350	32	-56.0		287	13	
2025-10-24T00:00	23400	31	-56.2		283	14	
2025-10-24T00:00	23450	31	-56.4		281	13	
2025-10-24T00:00	23500	31	-56.5		280	13	
2025-10-24T00:00	23550	31	-56.9		280	12	
2025-10-24T00:00	23600	30	-57.2		276	12	
2025-10-24T00:00	23650	30	-57.2		270	12	
2025-10-24T00:00	23700	30	-57.2		263	12	
2025-10-24T00:00	23750	30	-57.1		257	12	
2025-10-24T00:00	23800	30	-56.9		252	12	
2025-10-24T00:00	23850	29	-56.5		251	12	
2025-10-24T00:00	23900	29	-56.8		254	11	
2025-10-24T00:00	23950	29	-56.9		259	11	
2025-10-24T00:00	24000	29	-57.2		264	11	
2025-10-24T00:00	24050	28	-57.5		266	12	
2025-10-24T00:00	24100	28	-57.0		263	13	
2025-10-24T00:00	24150	28	-56.3		257	15	
2025-10-24T00:00	24200	28	-56.0		253	16	
2025-10-24T00:00	24250	28	-56.2		251	16	
2025-10-24T00:00	24300	27	-56.6		251	16	
2025-10-24T00:00	24350	27	-57.0		251	17	
2025-10-24T00:00	24400	27	-57.3		251	19	
2025-10-24T00:00	24450	27	-57.6		251	21	
2025-10-24T00:00	24500	26	-57.5		250	22	
2025-10-24T00:00	24550	26	-57.3		249	24	
2025-10-24T00:00	24600	26	-57.2		250	25	
2025-10-24T00:00	24650	26	-55.6		252	26	
2025-10-24T00:00	24700	26	-55.5		255	26	
2025-10-24T00:00	24750	25	-55.7		258	27	
2025-10-24T00:00	24800	25	-55.7		260	27	
2025-10-24T00:00	24850	25	-55.9		263	27	
2025-10-24T00:00	24900	25	-56.0		266	27	
2025-10-24T00:00	24950	25	-56.2		268	27	
2025-10-24T00:00	25000	24	-56.2		270	27	
2025-10-24T00:00	25050	24	-56.1		272	26	
2025-10-24T00:00	25100	24	-56.2		273	25	
2025-10-24T00:00	25150	24	-56.4		274	24	
2025-10-24T00:00	25200	24	-56.3		273	24	
2025-10-24T00:00	25250	23	-56.2		271	24	
2025-10-24T00:00	25300	23	-55.9		270	24	
2025-10-24T00:00	25350	23	-55.9		269	25	
2025-10-24T00:00	25400	23	-56.2		268	26	
2025-10-24T00:00	25450	23	-55.9		268	27	
2025-10-24T00:00	25500	23	-55.5		270	28	
2025-10-24T00:00	25550	22	-55.5		272	29	
2025-10-24T00:00	25600	22	-55.5		273	30	
2025-10-24T00:00	25650	22	-55.3		274	30	
2025-10-24T00:00	25700	22	-54.6		273	30	
2025-10-24T00:00	25750	22	-54.2		272	29	
2025-10-24T00:00	25800	22	-54.1		271	28	
2025-10-24T00:00	25850	21	-54.0		270	27	
2025-10-24T00:00	25900	21	-53.8		267	27	
2025-10-24T00:00	25950	21	-53.4		265	27	
2025-10-24T00:00	26000	21	-53.3		264	26	
2025-10-24T00:00	26050	21	-53.4		266	25	
2025-10-24T00:00	26100	21	-53.2		269	25	
2025-10-24T00:00	26150	20	-53.2		269	24	
2025-10-24T00:00	26200	20	-52.8		268	24	
2025-10-24T00:00	26250	20	-52.7		267	23	
2025-10-24T00:00	26300	20	-52.2		268	23	
2025-10-24T00:00	26350	20	-51.8		269	24	
2025-10-24T00:00	26400	20	-51.7		269	25	
2025-10-24T00:00	26450	19	-51.3		269	26	
2025-10-24T00:00	26500	19	-51.2		269	27	
2025-10-24T00:00	26550	19	-51.1		269	27	
2025-10-24T00:00	26600	19	-50.9		267	27	
2025-10-24T00:00	26650	19	-50.6		265	26	
2025-10-24T00:00	26700	19	-50.9		264	26	
2025-10-24T00:00	26750	19	-50.9		265	26	
2025-10-24T00:00	26800	18	-50.5		266	25	
2025-10-24T00:00	26850	18	-50.3		267	24	
2025-10-24T00:00	26900	18	-50.3		267	24	
2025-10-24T00:00	26950	18	-50.1		266	23	
2025-10-24T00:00	27000	18	-50.0		263	22	
2025-10-24T00:00	27050	18	-49.7		259	21	
2025-10-24T00:00	27100	18	-49.5		257	20	
2025-10-24T00:00	27150	17	-48.7		255	20	
2025-10-24T00:00	27200	17	-48.5		254	21	
2025-10-24T00:00	27250	17	-48.0		251	21	
2025-10-24T00:00	27300	17	-48.1		247	22	
2025-10-24T00:00	27350	17	-48.1		243	23	
2025-10-24T00:00	27400	17	-48.0		240	24	
2025-10-24T00:00	27450	17	-47.9		239	25	
2025-10-24T00:00	27500	17	-48.0		240	26	
2025-10-24T00:00	27550	16	-48.2		242	26	
2025-10-24T00:00	27600	16	-48.4		243	26	
2025-10-24T00:00	27650	16	-48.7		246	26	
2025-10-24T00:00	27700	16	-49.1		247	27	
2025-10-24T00:00	27750	16	-49.4		248	27	
2025-10-24T00:00	27800	16	-49.8		248	28	
2025-10-24T00:00	27850	16	-49.7		249	29	
2025-10-24T00:00	27900	16	-49.7		249	30	
2025-10-24T00:00	27950	15	-49.7		250	31	
2025-10-24T00:00	28000	15	-49.7		250	31	
2025-10-24T00:00	28050	15	-50.1		250	32	
2025-10-24T00:00	28100	15	-50.5		251	33	
2025-10-24T00:00	28150	15	-51.0		251	33	
2025-10-24T00:00	28200	15	-51.4		251	34	
2025-10-24T00:00	28250	15	-51.7		252	34	
2025-10-24T00:00	28300	15	-51.0		252	35	
2025-10-24T00:00	28350	15	-50.8		253	36	
2025-10-24T00:00	28400	14	-50.9		254	36	
2025-10-24T00:00	28450	14	-50.8		254	36	
2025-10-24T00:00	28500	14	-50.7		255	35	
2025-10-24T00:00	28550	14	-50.8		256	34	
2025-10-24T00:00	28600	14	-51.0		258	34	
2025-10-24T00:00	28650	14	-51.3		259	33	
2025-10-24T00:00	28700	14	-51.4		260	32	
2025-10-24T00:00	28750	14	-51.7		261	32	
2025-10-24T00:00	28800	14	-51.9		262	31	
2025-10-24T00:00	28850	13	-52.3		262	31	
2025-10-24T00:00	28900	13	-52.6		262	31	
2025-10-24T00:00	28950	13	-52.6		261	30	
2025-10-24T00:00	29000	13	-52.9		260	31	
2025-10-24T00:00	29050	13	-53.2		259	31	
2025-10-24T00:00	29100	13	-53.4		258	31	
2025-10-24T00:00	29150	13	-53.7		258	31	
2025-10-24T00:00	29200	13	-54.0		258	31	
2025-10-24T00:00	29250	13	-53.8		258	31	
2025-10-24T00:00	29300	13	-53.4		258	32	
2025-10-24T00:00	29350	12	-52.8		258	32	
2025-10-24T00:00	29400	12	-52.7		258	33	
2025-10-24T00:00	29450	12	-52.8		258	34	
2025-10-24T00:00	29500	12	-53.1		259	34	
2025-10-24T00:00	29550	12	-53.4		260	35	
2025-10-24T00:00	29600	12	-53.4		261	35	
2025-10-24T00:00	29650	12	-53.0		262	34	
2025-10-24T00:00	29700	12	-52.4		261	33	
2025-10-24T00:00	29750	12	-50.8		260	33	
2025-10-24T00:00	29800	12	-50.5		258	32	
2025-10-24T00:00	29850	12	-50.8		256	32	
2025-10-24T00:00	29900	11	-51.2		255	33	
2025-10-24T00:00	29950	11	-51.4		255	33	
2025-10-24T00:00	30000	11	-51.8		256	33	
2025-10-24T00:00	30050	11	-52.0		259	33	
2025-10-24T00:00	30100	11	-52.0		261	34	
2025-10-24T00:00	30150	11	-52.2		261	35	
2025-10-24T00:00	30200	11	-52.2		261	36	
2025-10-24T00:00	30250	11	-52.0		261	37	
2025-10-24T00:00	30300	11	-51.7		260	37	
2025-10-24T00:00	30350	11	-51.0		260	36	
2025-10-24T00:00	30400	11	-50.2		259	36	
2025-10-24T00:00	30450	11	-49.7		258	35	
2025-10-24T00:00	30500	10	-49.6		257	35	
2025-10-24T00:00	30550	10	-49.3		256	35	
2025-10-24T00:00	30600	10	-49.0		256	36	
2025-10-24T00:00	30650	10	-49.0		258	36	
2025-10-24T00:00	30700	10	-49.0		260	36	
2025-10-24T00:00	30750	10	-49.0		262	37	
2025-10-24T00:00	30800	10	-49.0		264	38	
2025-10-24T00:00	30850	10	-49.2		266	38	
2025-10-24T00:00	30900	10	-49.2		268	39	
2025-10-24T00:00	30950	10	-49.0		269	39	
2025-10-24T00:00	31000	10	-47.9		268	38	
2025-10-24T00:00	31050	10	-47.3		264	36	
2025-10-24T00:00	31100	10	-47.0		259	35	
2025-10-24T00:00	31150	9	-47.1		255	36	
2025-10-24T00:00	31200	9	-47.3		253	36	
2025-10-24T00:00	31250	9	-47.7		251	36	
2025-10-24T00:00	31300	9	-48.1		251	37	
2025-10-24T00:00	31350	9	-48.5		250	38	
2025-10-24T00:00	31400	9	-48.5		249	38	
2025-10-24T00:00	31450	9	-47.0		248	38	
2025-10-24T00:00	31500	9	-46.4		249	38	
2025-10-24T00:00	31550	9	-46.8		249	38	
2025-10-24T00:00	31600	9	-47.2		251	37	
2025-10-24T00:00	31650	9	-47.4		251	37	
2025-10-24T00:00	31700	9	-47.6		252	36	
2025-10-24T00:00	31750	9	-48.0		252	35	
2025-10-24T00:00	31800	9	-48.2		253	35	
2025-10-24T00:00	31850	9	-48.1		254	34	
2025-10-24T00:00	31900	8	-48.4		255	34	
2025-10-24T00:00	31950	8	-48.5		255	34	
2025-10-24T00:00	32000	8	-48.3		255	34	
2025-10-24T00:00	32050	8	-48.3		255	34	
2025-10-24T00:00	32100	8	-48.5		253	34	
2025-10-24T00:00	32150	8	-48.5		252	35	
2025-10-24T00:00	32200	8	-48.6		251	35	
2025-10-24T00:00	32250	8	-48.7		251	36	
2025-10-24T00:00	32300	8	-49.0		250	37	
2025-10-24T00:00	32350	8	-49.4		250	37	
2025-10-24T00:00	32400	8	-49.6		250	38	
2025-10-24T00:00	32450	8	-49.8		250	39	
2025-10-24T00:00	32500	8	-49.9		249	40	
2025-10-24T00:00	32550	8	-50.1		249	41	
2025-10-24T00:00	32600	8	-50.3		248	41	
2025-10-24T00:00	32650	8	-50.6		247	41	
2025-10-24T00:00	32700	7	-50.8		247	41	
2025-10-24T00:00	32750	7	-51.2		246	41	
2025-10-24T00:00	32800	7	-51.4		246	41	
2025-10-24T00:00	32850	7	-51.4		247	41	
2025-10-24T00:00	32900	7	-51.2		249	40	
2025-10-24T00:00	32950	7	-51.2		251	40	
2025-10-24T00:00	33000	7	-50.8		252	41	
2025-10-24T00:00	33050	7	-51.0		252	41	
2025-10-24T00:00	33100	7	-51.1		253	41	
2025-10-24T00:00	33150	7	-51.2		254	41	
2025-10-24T00:00	33200	7	-51.4		254	41	
2025-10-24T00:00	33250	7	-51.7		255	40	
2025-10-24T00:00	33300	7	-52.0		255	40	
2025-10-24T00:00	33350	7	-52.0		256	40	
2025-10-24T00:00	33400	7	-52.1		256	40	
2025-10-24T00:00	33450	7	-52.2		256	41	
2025-10-24T00:00	33500	7	-52.1		255	41	
2025-10-24T00:00	33550	7	-51.7		255	43	
2025-10-24T00:00	33600	7	-51.7		256	44	
2025-10-24T00:00	33650	6	-51.9		256	45	
2025-10-24T00:00	33700	6	-51.9		257	46	
2025-10-24T00:00	33750	6	-51.9		257	47	
2025-10-24T00:00	33800	6	-52.1		258	47	
2025-10-24T00:00	33850	6	-51.8		259	47	
2025-10-24T00:00	33900	6	-51.9		259	47	
2025-10-24T00:00	33950	6	-52.0		259	48	
2025-10-24T00:00	34000	6	-52.2		259	48	
2025-10-24T00:00	34050	6	-52.4		258	49	
2025-10-24T00:00	34100	6	-52.1		258	50	
2025-10-24T00:00	34150	6	-52.1		257	51	
2025-10-24T00:00	34200	6	-52.3		257	51	
2025-10-24T00:00	34250	6	-52.6		257	52	
2025-10-24T00:00	34300	6	-53.0		256	53	
2025-10-24T00:00	34350	6	-53.3		256	54	
2025-10-24T00:00	34400	6	-53.6		256	54	
2025-10-24T00:00	34450	6	-53.9		256	55	
2025-10-24T00:00	34500	6	-54.3		255	55	
2025-10-24T00:00	34550	6	-54.7		255	56	
2025-10-24T00:00	34600	6	-54.9		255	57	
2025-10-24T00:00	34650	6	-54.9		256	58	
2025-10-24T00:00	34700	5	-54.7		256	58	
2025-10-24T00:00	34750	5	-54.0		258	58	
2025-10-24T00:00	34800	5	-54.2		259	57	
2025-10-24T00:00	34850	5	-54.4		260	56	
2025-10-24T00:00	34900	5	-54.2		260	55	
2025-10-24T00:00	34950	5	-52.3		257	55	
2025-10-24T00:00	35000	5	-49.8		250	56	
2025-10-24T12:00	491	955	10.8	2.1	222	8	3.8
2025-10-24T12:00	501	954	10.3	1.4	212	4	3.8
2025-10-24T12:00	520	952	10.0	1.1	214	6	3.7
2025-10-24T12:00	540	950	9.8	0.9	215	6	3.8
2025-10-24T12:00	560	948	9.5	0.4	216	7	3.8
2025-10-24T12:00	580	945	9.4	0.4	218	8	3.8
2025-10-24T12:00	600	943	9.1	0.5	221	8	3.8
2025-10-24T12:00	620	941	8.9	0.4	223	8	3.8
2025-10-24T12:00	640	938	8.7	0.6	226	9	3.8
2025-10-24T12:00	660	936	8.5	0.6	227	9	3.8
2025-10-24T12:00	680	934	8.3	0.5	228	10	3.8
2025-10-24T12:00	700	931	8.1	0.6	228	10	3.8
2025-10-24T12:00	720	929	8.0	0.8	228	10	3.9
2025-10-24T12:00	740	927	7.7	0.4	228	11	3.9
2025-10-24T12:00	760	925	7.5	0.4	228	11	3.9
2025-10-24T12:00	780	922	7.3	0.3	228	11	3.9
2025-10-24T12:00	800	920	7.1	0.0	228	11	3.8
2025-10-24T12:00	820	918	6.9	0.2	228	11	3.8
2025-10-24T12:00	840	916	6.8	0.1	228	11	3.9
2025-10-24T12:00	860	913	6.5	0.3	228	11	3.9
2025-10-24T12:00	880	911	6.3	0.5	229	11	3.9
2025-10-24T12:00	900	909	6.1	0.3	229	11	3.9
2025-10-24T12:00	920	907	5.9	0.1	229	11	3.9
2025-10-24T12:00	940	905	5.6	-0.1	229	11	3.9
2025-10-24T12:00	960	902	5.4	-0.1	229	11	3.8
2025-10-24T12:00	980	900	5.2	0.1	229	11	3.8
2025-10-24T12:00	1000	898	5.1	0.1	229	11	3.8
2025-10-24T12:00	1020	896	4.9	0.1	229	11	3.8
2025-10-24T12:00	1040	894	4.7	0.2	228	11	3.8
2025-10-24T12:00	1060	891	4.6	0.2	229	11	3.8
2025-10-24T12:00	1080	889	4.4	0.1	229	11	3.8
2025-10-24T12:00	1100	887	4.1	0.0	229	11	3.8
2025-10-24T12:00	1120	885	3.9	0.1	229	11	3.7
2025-10-24T12:00	1140	883	3.7	0.1	229	11	3.8
2025-10-24T12:00	1160	880	3.5	-0.1	229	11	3.8
2025-10-24T12:00	1180	878	3.4	-0.1	229	11	3.7
2025-10-24T12:00	1200	876	3.1	-0.1	229	11	3.7
2025-10-24T12:00	1220	874	3.0	0.1	230	11	3.7
2025-10-24T12:00	1240	872	2.8	-0.1	230	12	3.7
2025-10-24T12:00	1260	870	2.7	-0.3	230	12	3.7
2025-10-24T12:00	1280	868	2.5	-0.2	230	12	3.7
2025-10-24T12:00	1300	865	2.3	-0.2	230	12	3.7
2025-10-24T12:00	1320	863	2.2	-0.2	230	12	3.7
2025-10-24T12:00	1340	861	1.9	-0.1	230	12	3.7
2025-10-24T12:00	1360	859	1.7	-0.1	229	12	3.7
2025-10-24T12:00	1380	857	1.5	-0.3	229	12	3.7
2025-10-24T12:00	1400	855	1.3	-0.4	229	12	3.7
2025-10-24T12:00	1420	853	1.1	-0.5	229	11	3.7
2025-10-24T12:00	1440	850	0.8	-0.6	229	11	3.6
2025-10-24T12:00	1460	848	0.6	-0.7	229	11	3.6
2025-10-24T12:00	1480	847	0.5	-0.6	229	11	3.6
2025-10-24T12:00	1500	844	0.2	-0.6	230	11	3.6
2025-10-24T12:00	1520	842	-0.1	-0.7	230	11	3.6
2025-10-24T12:00	1540	840	-0.2	-0.7	231	11	3.6
2025-10-24T12:00	1560	838	-0.4	-0.7	233	10	3.6
2025-10-24T12:00	1580	836	-0.6	-0.7	234	10	3.6
2025-10-24T12:00	1600	834	-0.8	-0.8	234	10	3.6
2025-10-24T12:00	1620	831	-1.0	-1.0	235	10	3.6
2025-10-24T12:00	1640	829	-1.1	-1.1	236	10	3.5
2025-10-24T12:00	1660	828	-1.2	-1.2	236	10	3.5
2025-10-24T12:00	1680	826	-1.5	-1.5	236	10	3.5
2025-10-24T12:00	1700	823	-1.8	-1.8	236	10	3.5
2025-10-24T12:00	1720	821	-2.0	-2.0	236	10	3.5
2025-10-24T12:00	1740	819	-2.2	-2.2	236	10	3.5
2025-10-24T12:00	1760	817	-2.4	-2.4	235	10	3.5
2025-10-24T12:00	1780	815	-2.6	-2.6	235	10	3.5
2025-10-24T12:00	1800	813	-2.7	-2.7	235	10	3.5
2025-10-24T12:00	1820	811	-2.8	-2.8	235	10	3.5
2025-10-24T12:00	1840	809	-3.1	-3.1	235	10	3.5
2025-10-24T12:00	1860	807	-3.3	-3.3	235	10	3.5
2025-10-24T12:00	1880	805	-3.1	-3.1	235	10	3.5
2025-10-24T12:00	1900	803	-3.2	-3.2	235	10	3.5
2025-10-24T12:00	1920	800	-3.3	-3.3	235	10	3.4
2025-10-24T12:00	1940	799	-3.5	-3.5	235	10	3.4
2025-10-24T12:00	1960	797	-3.7	-3.7	235	11	3.4
2025-10-24T12:00	1980	795	-3.8	-3.8	235	11	3.4
2025-10-24T12:00	2000	793	-4.0	-4.0	235	11	3.4
2025-10-24T12:00	2020	791	-4.1	-4.1	235	11	3.4
2025-10-24T12:00	2040	789	-4.3	-4.3	234	11	3.4
2025-10-24T12:00	2060	787	-4.7	-4.7	234	12	3.4
2025-10-24T12:00	2080	785	-4.9	-4.9	234	12	3.4
2025-10-24T12:00	2100	783	-4.7	-4.7	233	12	3.4
2025-10-24T12:00	2120	781	-4.9	-4.9	233	13	3.4
2025-10-24T12:00	2140	779	-5.0	-5.0	233	13	3.4
2025-10-24T12:00	2160	777	-4.7	-4.7	233	13	3.4
2025-10-24T12:00	2180	775	-4.7	-4.7	233	13	3.4
2025-10-24T12:00	2200	773	-4.8	-4.9	233	13	3.4
2025-10-24T12:00	2220	771	-5.0	-5.0	233	14	3.3
2025-10-24T12:00	2240	769	-5.2	-5.2	233	14	3.3
2025-10-24T12:00	2260	767	-5.3	-5.3	233	14	3.3
2025-10-24T12:00	2280	765	-5.4	-5.4	233	14	3.3
2025-10-24T12:00	2300	763	-5.5	-5.5	234	14	3.3
2025-10-24T12:00	2320	761	-5.7	-5.7	234	14	3.3
2025-10-24T12:00	2340	759	-5.8	-5.8	234	14	3.3
2025-10-24T12:00	2360	757	-5.9	-5.9	234	14	3.3
2025-10-24T12:00	2380	755	-6.1	-6.1	235	14	3.3
2025-10-24T12:00	2400	753	-6.6	-6.6	235	14	3.3
2025-10-24T12:00	2420	751	-6.8	-6.8	235	14	3.3
2025-10-24T12:00	2440	750	-7.0	-7.0	234	14	3.3
2025-10-24T12:00	2460	748	-7.2	-7.2	234	14	3.3
2025-10-24T12:00	2480	746	-7.2	-7.2	234	14	3.2
2025-10-24T12:00	2500	744	-7.2	-7.2	234	14	3.2
2025-10-24T12:00	2520	742	-7.1	-7.1	234	14	3.2
2025-10-24T12:00	2540	740	-7.2	-7.2	234	14	3.2
2025-10-24T12:00	2560	738	-7.2	-7.2	234	14	3.2
2025-10-24T12:00	2580	736	-7.4	-7.4	235	14	3.2
2025-10-24T12:00	2600	734	-7.6	-7.6	235	14	3.2
2025-10-24T12:00	2620	733	-7.7	-7.7	237	14	3.2
2025-10-24T12:00	2640	731	-7.7	-7.7	237	14	3.2
2025-10-24T12:00	2660	729	-7.9	-7.9	239	14	3.2
2025-10-24T12:00	2680	727	-8.1	-8.1	242	13	3.2
2025-10-24T12:00	2700	725	-8.4	-8.4	244	14	3.1
2025-10-24T12:00	2720	723	-8.6	-8.7	247	14	3.1
2025-10-24T12:00	2740	721	-8.8	-8.9	251	14	3.1
2025-10-24T12:00	2760	719	-9.1	-10.1	255	14	3.1
2025-10-24T12:00	2780	718	-9.3	-9.5	258	15	3.2
2025-10-24T12:00	2800	716	-9.6	-12.8	260	15	3.2
2025-10-24T12:00	2820	714	-9.8	-18.3	261	16	3.2
2025-10-24T12:00	2840	712	-10.1	-18.2	262	16	3.3
2025-10-24T12:00	2860	710	-10.3	-18.6	262	16	3.3
2025-10-24T12:00	2880	708	-10.5	-19.1	261	16	3.3
2025-10-24T12:00	2900	707	-10.5	-19.4	261	16	3.4
2025-10-24T12:00	2920	705	-10.7	-19.4	261	16	3.4
2025-10-24T12:00	2940	703	-10.9	-19.3	261	16	3.4
2025-10-24T12:00	2960	701	-11.0	-19.2	262	16	3.4
2025-10-24T12:00	2980	699	-11.1	-19.7	263	16	3.4
2025-10-24T12:00	3000	697	-11.3	-19.4	264	16	3.5
2025-10-24T12:00	3020	695	-11.5	-19.2	266	16	3.5
2025-10-24T12:00	3040	694	-11.7	-19.5	268	16	3.5
2025-10-24T12:00	3060	692	-11.8	-19.7	269	16	3.5
2025-10-24T12:00	3080	690	-12.0	-20.9	270	16	3.5
2025-10-24T12:00	3100	688	-12.0	-26.4	271	16	3.5
2025-10-24T12:00	3120	686	-11.9	-27.0	271	17	3.6
2025-10-24T12:00	3140	685	-12.0	-25.8	271	17	3.6
2025-10-24T12:00	3160	683	-12.0	-26.8	272	17	3.6
2025-10-24T12:00	3180	681	-11.9	-27.7	272	17	3.6
2025-10-24T12:00	3200	679	-11.9	-25.4	274	17	3.7
2025-10-24T12:00	3220	677	-12.0	-24.8	275	17	3.7
2025-10-24T12:00	3240	676	-12.2	-25.2	276	17	3.7
2025-10-24T12:00	3260	674	-12.4	-24.7	277	16	3.7
2025-10-24T12:00	3280	672	-12.5	-24.8	277	17	3.7
2025-10-24T12:00	3300	670	-12.7	-25.0	278	17	3.7
2025-10-24T12:00	3320	669	-12.9	-25.2	278	17	3.7
2025-10-24T12:00	3340	667	-13.0	-26.6	278	17	3.7
2025-10-24T12:00	3360	665	-13.2	-28.3	278	17	3.7
2025-10-24T12:00	3380	664	-13.2	-31.7	278	17	3.7
2025-10-24T12:00	3400	662	-13.3	-30.6	278	17	3.8
2025-10-24T12:00	3420	660	-13.3	-29.2	278	17	3.8
2025-10-24T12:00	3440	658	-13.4	-27.8	277	16	3.8
2025-10-24T12:00	3460	657	-13.5	-27.6	276	16	3.8
2025-10-24T12:00	3480	655	-13.6	-27.0	276	16	3.8
2025-10-24T12:00	3500	653	-13.8	-27.8	275	16	3.7
2025-10-24T12:00	3520	652	-13.9	-28.1	275	16	3.7
2025-10-24T12:00	3540	650	-14.1	-23.9	275	16	3.7
2025-10-24T12:00	3560	648	-14.3	-24.1	275	17	3.7
2025-10-24T12:00	3580	646	-14.4	-24.2	275	17	3.7
2025-10-24T12:00	3600	645	-14.5	-23.8	275	18	3.7
2025-10-24T12:00	3620	643	-14.7	-23.8	274	18	3.7
2025-10-24T12:00	3640	641	-14.7	-23.6	273	19	3.7
2025-10-24T12:00	3660	639	-14.9	-22.4	273	19	3.7
2025-10-24T12:00	3680	638	-15.2	-22.0	273	19	3.7
2025-10-24T12:00	3700	636	-15.4	-21.5	272	19	3.7
2025-10-24T12:00	3720	634	-15.4	-21.1	272	19	3.7
2025-10-24T12:00	3740	633	-15.6	-21.0	272	19	3.7
2025-10-24T12:00	3760	631	-15.8	-21.3	272	18	3.7
2025-10-24T12:00	3780	629	-15.8	-22.5	272	18	3.7
2025-10-24T12:00	3800	628	-16.0	-24.2	273	18	3.7
2025-10-24T12:00	3820	626	-15.9	-25.6	273	18	3.7
2025-10-24T12:00	3840	624	-15.8	-31.3	274	18	3.8
2025-10-24T12:00	3860	623	-15.6	-37.1	274	18	3.8
2025-10-24T12:00	3880	621	-15.5	-40.6	275	18	3.8
2025-10-24T12:00	3900	619	-15.4	-42.0	275	18	3.8
2025-10-24T12:00	3920	618	-15.5	-43.8	275	17	3.9
2025-10-24T12:00	3940	616	-15.7	-43.6	276	17	4.0
2025-10-24T12:00	3960	615	-15.8	-43.4	276	16	4.2
2025-10-24T12:00	3980	613	-15.8	-45.3	277	16	4.3
2025-10-24T12:00	4000	611	-15.6	-47.2	277	16	4.3
2025-10-24T12:00	4020	610	-15.4	-46.7	277	16	4.4
2025-10-24T12:00	4040	608	-15.4	-47.3	278	16	4.4
2025-10-24T12:00	4060	606	-15.4	-48.1	277	15	4.4
2025-10-24T12:00	4080	605	-15.1	-49.3	276	15	4.4
2025-10-24T12:00	4100	603	-15.2	-48.6	274	15	4.5
2025-10-24T12:00	4120	602	-15.2	-46.3	274	16	4.5
2025-10-24T12:00	4140	600	-15.3	-40.5	275	17	4.6
2025-10-24T12:00	4160	599	-15.4	-36.7	277	17	4.6
2025-10-24T12:00	4180	597	-15.5	-38.4	279	18	4.5
2025-10-24T12:00	4200	595	-15.5	-38.9	282	19	4.4
2025-10-24T12:00	4220	594	-15.6	-33.8	284	20	4.3
2025-10-24T12:00	4240	592	-15.6	-31.8	286	20	4.2
2025-10-24T12:00	4260	591	-15.6	-31.0	286	21	4.0
2025-10-24T12:00	4280	589	-15.7	-28.3	286	21	3.9
2025-10-24T12:00	4300	588	-15.6	-30.1	286	21	3.7
2025-10-24T12:00	4320	586	-15.7	-31.0	285	20	3.6
2025-10-24T12:00	4340	584	-15.9	-31.1	284	20	3.5
2025-10-24T12:00	4360	583	-15.9	-30.5	284	20	3.5
2025-10-24T12:00	4380	581	-16.1	-30.5	285	20	3.5
2025-10-24T12:00	4400	580	-16.3	-30.2	286	20	3.4
2025-10-24T12:00	4420	578	-16.6	-30.0	286	19	3.4
2025-10-24T12:00	4440	577	-16.7	-30.2	287	20	3.3
2025-10-24T12:00	4460	575	-16.9	-30.0	288	20	3.3
2025-10-24T12:00	4480	574	-17.0	-28.7	288	20	3.2
2025-10-24T12:00	4500	572	-17.1	-27.6	288	20	3.2
2025-10-24T12:00	4520	571	-17.3	-27.3	288	20	3.1
2025-10-24T12:00	4540	569	-17.4	-27.8	288	20	3.1
2025-10-24T12:00	4560	568	-17.6	-27.9	287	20	3.1
2025-10-24T12:00	4580	566	-17.8	-27.8	286	20	3.0
2025-10-24T12:00	4600	564	-17.9	-28.0	286	19	3.0
2025-10-24T12:00	4620	563	-18.0	-28.3	285	19	3.0
2025-10-24T12:00	4640	562	-18.3	-28.6	284	19	3.1
2025-10-24T12:00	4660	560	-18.4	-29.1	284	19	3.1
2025-10-24T12:00	4680	558	-18.5	-29.5	284	19	3.0
2025-10-24T12:00	4700	557	-18.7	-29.6	284	19	3.0
2025-10-24T12:00	4720	555	-18.9	-29.5	285	20	3.0
2025-10-24T12:00	4740	554	-19.1	-29.7	285	20	3.0
2025-10-24T12:00	4760	552	-19.3	-30.0	286	20	3.0
2025-10-24T12:00	4780	551	-19.4	-30.2	286	21	3.0
2025-10-24T12:00	4800	549	-19.5	-30.5	287	21	3.0
2025-10-24T12:00	4820	548	-19.7	-30.8	287	22	3.0
2025-10-24T12:00	4840	547	-19.8	-31.3	287	22	3.0
2025-10-24T12:00	4860	545	-19.9	-31.8	287	23	3.0
2025-10-24T12:00	4880	543	-19.9	-32.5	287	23	3.0
2025-10-24T12:00	4900	542	-20.1	-32.8	287	23	3.0
2025-10-24T12:00	4920	541	-20.3	-32.9	287	23	3.0
2025-10-24T12:00	4940	539	-20.4	-33.1	288	23	3.0
2025-10-24T12:00	4960	538	-20.5	-33.0	288	23	3.0
2025-10-24T12:00	4980	536	-20.5	-33.7	288	23	3.0
2025-10-24T12:00	5000	535	-20.6	-34.2	288	23	3.0
2025-10-24T12:00	5020	533	-20.8	-33.7	289	23	3.0
2025-10-24T12:00	5040	532	-20.9	-33.0	289	23	3.0
2025-10-24T12:00	5060	531	-21.1	-33.2	289	23	2.9
2025-10-24T12:00	5080	529	-21.4	-33.4	290	23	2.8
2025-10-24T12:00	5100	528	-21.6	-33.6	290	22	2.8
2025-10-24T12:00	5120	526	-21.6	-34.1	291	22	2.7
2025-10-24T12:00	5140	525	-21.8	-34.5	291	22	2.7
2025-10-24T12:00	5160	524	-22.0	-34.6	291	22	2.6
2025-10-24T12:00	5180	522	-22.1	-34.7	291	22	2.6
2025-10-24T12:00	5200	521	-22.3	-35.0	290	23	2.6
2025-10-24T12:00	5220	519	-22.6	-35.2	290	23	2.6
2025-10-24T12:00	5240	518	-22.7	-35.5	289	24	2.5
2025-10-24T12:00	5260	516	-22.9	-35.3	289	24	2.5
2025-10-24T12:00	5280	515	-23.1	-35.5	288	24	2.5
2025-10-24T12:00	5300	513	-23.2	-35.5	288	24	2.5
2025-10-24T12:00	5320	512	-23.3	-35.6	288	24	2.5
2025-10-24T12:00	5340	511	-23.6	-35.8	288	24	2.5
2025-10-24T12:00	5360	509	-23.7	-36.1	288	24	2.4
2025-10-24T12:00	5380	508	-23.8	-36.4	288	24	2.4
2025-10-24T12:00	5400	507	-24.0	-36.5	288	24	2.4
2025-10-24T12:00	5420	505	-24.3	-36.7	288	24	2.4
2025-10-24T12:00	5440	504	-24.4	-37.2	287	25	2.4
2025-10-24T12:00	5460	502	-24.5	-37.6	287	25	2.4
2025-10-24T12:00	5480	501	-24.6	-38.0	287	26	2.4
2025-10-24T12:00	5500	500	-24.6	-38.0	287	26	2.4
2025-10-24T12:00	5520	498	-24.8	-38.2	287	26	2.4
2025-10-24T12:00	5540	497	-25.0	-38.8	287	27	2.5
2025-10-24T12:00	5560	495	-25.0	-40.3	287	27	2.5
2025-10-24T12:00	5580	494	-25.2	-40.7	286	27	2.5
2025-10-24T12:00	5600	493	-25.3	-39.8	286	28	2.6
2025-10-24T12:00	5620	491	-25.5	-39.9	286	28	2.5
2025-10-24T12:00	5640	490	-25.7	-41.0	286	28	2.5
2025-10-24T12:00	5660	489	-25.7	-41.6	286	28	2.5
2025-10-24T12:00	5680	487	-25.8	-41.7	286	28	2.5
2025-10-24T12:00	5700	486	-26.0	-41.6	287	28	2.4
2025-10-24T12:00	5720	485	-26.1	-41.6	287	28	2.4
2025-10-24T12:00	5740	483	-26.3	-41.6	288	29	2.4
2025-10-24T12:00	5760	482	-26.6	-41.7	288	29	2.3
2025-10-24T12:00	5780	481	-26.7	-42.5	289	29	2.3
2025-10-24T12:00	5800	479	-26.8	-43.0	289	30	2.3
2025-10-24T12:00	5820	478	-26.9	-44.6	289	30	2.4
2025-10-24T12:00	5840	477	-26.7	-48.0	289	30	2.5
2025-10-24T12:00	5860	475	-26.6	-50.9	289	31	2.5
2025-10-24T12:00	5880	474	-26.7	-53.0	288	31	2.6
2025-10-24T12:00	5900	473	-26.7	-52.8	288	31	2.7
2025-10-24T12:00	5920	471	-26.7	-52.7	289	31	2.8
2025-10-24T12:00	5940	470	-26.7	-52.5	289	32	2.8
2025-10-24T12:00	5960	469	-26.7	-51.0	289	32	2.9
2025-10-24T12:00	5980	468	-26.8	-50.7	289	32	2.9
2025-10-24T12:00	6000	466	-27.0	-50.7	289	32	2.9
2025-10-24T12:00	6020	465	-27.0	-50.6	290	33	3.0
2025-10-24T12:00	6040	464	-27.1	-50.5	290	33	3.0
2025-10-24T12:00	6060	462	-27.3	-50.7	291	33	3.0
2025-10-24T12:00	6080	461	-27.4	-50.9	291	33	3.0
2025-10-24T12:00	6100	460	-27.6	-50.8	291	33	3.0
2025-10-24T12:00	6120	459	-27.7	-49.1	292	34	3.0
2025-10-24T12:00	6140	457	-27.8	-48.1	292	34	3.0
2025-10-24T12:00	6160	456	-27.9	-48.5	292	34	3.0
2025-10-24T12:00	6180	455	-27.9	-47.4	292	35	3.0
2025-10-24T12:00	6200	453	-28.1	-45.6	291	35	3.0
2025-10-24T12:00	6220	452	-28.1	-45.0	291	35	3.0
2025-10-24T12:00	6240	451	-28.2	-43.5	290	35	3.0
2025-10-24T12:00	6260	450	-28.3	-41.2	290	36	3.0
2025-10-24T12:00	6280	448	-28.4	-40.4	290	36	3.0
2025-10-24T12:00	6300	447	-28.6	-39.5	290	36	3.0
2025-10-24T12:00	6320	446	-28.8	-39.4	290	36	3.0
2025-10-24T12:00	6340	445	-29.0	-39.3	290	37	2.9
2025-10-24T12:00	6360	443	-29.1	-39.1	290	38	2.9
2025-10-24T12:00	6380	442	-29.2	-39.4	290	38	2.9
2025-10-24T12:00	6400	441	-29.4	-39.3	290	38	2.9
2025-10-24T12:00	6420	440	-29.6	-39.0	291	39	2.9
2025-10-24T12:00	6440	439	-29.7	-39.1	291	39	2.9
2025-10-24T12:00	6460	437	-29.8	-39.6	292	39	2.8
2025-10-24T12:00	6480	436	-30.0	-39.8	292	39	2.8
2025-10-24T12:00	6500	435	-30.1	-39.6	292	40	2.8
2025-10-24T12:00	6520	433	-30.1	-40.3	293	40	2.7
2025-10-24T12:00	6540	432	-30.3	-41.7	293	41	2.7
2025-10-24T12:00	6560	431	-30.4	-43.3	292	41	2.6
2025-10-24T12:00	6580	430	-30.5	-45.2	292	42	2.6
2025-10-24T12:00	6600	429	-30.6	-47.0	291	42	2.6
2025-10-24T12:00	6620	427	-30.6	-47.0	291	43	2.6
2025-10-24T12:00	6640	426	-30.5	-46.9	290	43	2.7
2025-10-24T12:00	6660	425	-30.6	-47.2	290	43	2.7
2025-10-24T12:00	6680	424	-30.6	-46.9	290	43	2.8
2025-10-24T12:00	6700	423	-30.7	-46.4	290	44	2.8
2025-10-24T12:00	6720	422	-30.7	-46.4	290	44	2.8
2025-10-24T12:00	6740	420	-30.9	-45.3	290	44	2.9
2025-10-24T12:00	6760	419	-31.0	-44.7	290	44	2.9
2025-10-24T12:00	6780	418	-31.0	-44.1	290	44	2.9
2025-10-24T12:00	6800	417	-31.3	-43.9	290	43	2.9
2025-10-24T12:00	6820	416	-31.6	-43.4	289	43	2.9
2025-10-24T12:00	6840	414	-31.8	-42.8	289	43	2.8
2025-10-24T12:00	6860	413	-31.9	-42.6	289	43	2.8
2025-10-24T12:00	6880	412	-32.1	-42.8	288	43	2.8
2025-10-24T12:00	6900	411	-32.2	-43.1	288	44	2.7
2025-10-24T12:00	6920	410	-32.4	-43.0	288	44	2.7
2025-10-24T12:00	6940	409	-32.4	-43.1	288	44	2.7
2025-10-24T12:00	6960	407	-32.5	-43.1	288	44	2.7
2025-10-24T12:00	6980	406	-32.7	-43.0	289	44	2.6
2025-10-24T12:00	7000	405	-32.9	-43.2	289	44	2.6
2025-10-24T12:00	7020	404	-33.1	-43.3	289	44	2.6
2025-10-24T12:00	7040	403	-33.3	-43.5	290	44	2.6
2025-10-24T12:00	7060	402	-33.5	-43.6	290	44	2.6
2025-10-24T12:00	7080	400	-33.5	-43.3	290	45	2.5
2025-10-24T12:00	7100	399	-33.6	-42.4	290	45	2.5
2025-10-24T12:00	7120	398	-33.9	-41.5	290	45	2.5
2025-10-24T12:00	7140	397	-34.1	-42.9	290	45	2.5
2025-10-24T12:00	7160	396	-34.2	-43.7	290	45	2.4
2025-10-24T12:00	7180	395	-34.4	-42.1	290	45	2.4
2025-10-24T12:00	7200	394	-34.4	-43.8	290	45	2.4
2025-10-24T12:00	7220	393	-34.4	-45.9	289	45	2.4
2025-10-24T12:00	7240	392	-34.4	-47.5	289	46	2.4
2025-10-24T12:00	7260	390	-34.6	-48.8	289	46	2.5
2025-10-24T12:00	7280	389	-34.8	-49.4	289	46	2.4
2025-10-24T12:00	7300	388	-35.0	-48.9	289	46	2.4
2025-10-24T12:00	7320	387	-35.0	-49.1	289	46	2.4
2025-10-24T12:00	7340	386	-35.1	-49.0	289	46	2.4
2025-10-24T12:00	7360	385	-35.3	-48.6	290	46	2.4
2025-10-24T12:00	7380	384	-35.5	-48.2	290	46	2.4
2025-10-24T12:00	7400	382	-35.7	-48.0	290	46	2.3
2025-10-24T12:00	7420	382	-35.8	-48.2	290	46	2.3
2025-10-24T12:00	7440	381	-36.0	-48.2	290	46	2.3
2025-10-24T12:00	7460	379	-36.3	-47.8	291	46	2.3
2025-10-24T12:00	7480	378	-36.4	-47.7	291	46	2.3
2025-10-24T12:00	7500	377	-36.6	-48.0	291	46	2.3
2025-10-24T12:00	7520	376	-36.7	-49.5	291	47	2.3
2025-10-24T12:00	7540	375	-36.7	-52.2	292	47	2.3
2025-10-24T12:00	7560	374	-36.7	-52.6	292	47	2.3
2025-10-24T12:00	7580	373	-36.9	-52.4	292	48	2.3
2025-10-24T12:00	7600	372	-37.0	-52.4	292	48	2.3
2025-10-24T12:00	7620	371	-37.2	-52.8	292	48	2.3
2025-10-24T12:00	7640	370	-37.2	-53.4	292	49	2.3
2025-10-24T12:00	7660	369	-37.3	-53.9	292	49	2.3
2025-10-24T12:00	7680	367	-37.4	-53.8	292	49	2.3
2025-10-24T12:00	7700	366	-37.5	-53.6	292	49	2.3
2025-10-24T12:00	7720	365	-37.7	-53.1	292	50	2.2
2025-10-24T12:00	7740	364	-37.8	-52.4	292	50	2.3
2025-10-24T12:00	7760	363	-37.9	-51.7	292	50	2.3
2025-10-24T12:00	7780	362	-38.1	-50.9	292	50	2.3
2025-10-24T12:00	7800	361	-38.2	-49.8	292	50	2.2
2025-10-24T12:00	7820	360	-38.3	-49.6	292	51	2.2
2025-10-24T12:00	7840	359	-38.4	-50.3	292	51	2.2
2025-10-24T12:00	7860	358	-38.6	-50.4	293	51	2.2
2025-10-24T12:00	7880	357	-38.6	-50.2	293	52	2.3
2025-10-24T12:00	7900	356	-38.7	-49.8	293	52	2.4
2025-10-24T12:00	7920	355	-38.7	-49.1	293	52	2.4
2025-10-24T12:00	7940	354	-38.9	-49.3	293	52	2.4
2025-10-24T12:00	7960	353	-39.1	-49.0	293	52	2.4
2025-10-24T12:00	7980	352	-39.2	-49.2	293	52	2.4
2025-10-24T12:00	8000	351	-39.4	-49.6	293	52	2.4
2025-10-24T12:00	8020	350	-39.6	-49.7	293	52	2.4
2025-10-24T12:00	8040	349	-39.8	-49.8	293	52	2.4
2025-10-24T12:00	8060	348	-39.9	-50.7	293	52	2.4
2025-10-24T12:00	8080	347	-40.0	-51.4	293	53	2.4
2025-10-24T12:00	8100	346	-40.1	-50.0	293	53	2.4
2025-10-24T12:00	8120	345	-40.2	-49.2	293	54	2.4
2025-10-24T12:00	8140	344	-40.4	-48.0	293	54	2.4
2025-10-24T12:00	8160	343	-40.6	-46.2	293	54	2.4
2025-10-24T12:00	8180	342	-40.9	-45.7	293	54	2.4
2025-10-24T12:00	8200	341	-41.0	-46.4	294	54	2.4
2025-10-24T12:00	8220	340	-41.2	-49.2	294	53	2.4
2025-10-24T12:00	8240	339	-41.3	-53.6	294	52	2.3
2025-10-24T12:00	8260	338	-41.3	-57.4	293	52	2.3
2025-10-24T12:00	8280	337	-41.3	-58.8	293	51	2.4
2025-10-24T12:00	8300	336	-41.4	-59.1	293	51	2.4
2025-10-24T12:00	8320	335	-41.5	-58.0	293	50	2.4
2025-10-24T12:00	8340	334	-41.6	-55.9	292	50	2.4
2025-10-24T12:00	8360	333	-41.8	-55.5	292	51	2.4
2025-10-24T12:00	8380	332	-42.0	-57.0	292	51	2.5
2025-10-24T12:00	8400	331	-42.1	-58.6	292	51	2.5
2025-10-24T12:00	8420	330	-42.2	-58.3	293	52	2.5
2025-10-24T12:00	8440	329	-42.1	-57.6	293	52	2.6
2025-10-24T12:00	8460	328	-41.9	-58.1	294	52	2.6
2025-10-24T12:00	8480	327	-41.9	-57.8	294	53	2.7
2025-10-24T12:00	8500	326	-41.9	-57.2	295	54	2.7
2025-10-24T12:00	8520	325	-41.8	-56.9	296	54	2.6
2025-10-24T12:00	8540	324	-41.9	-57.2	296	55	2.6
2025-10-24T12:00	8560	323	-42.0	-57.3	297	56	2.6
2025-10-24T12:00	8580	322	-42.0	-57.2	297	56	2.6
2025-10-24T12:00	8600	321	-42.1	-57.7	298	57	2.6
2025-10-24T12:00	8620	320	-42.2	-58.3	298	58	2.5
2025-10-24T12:00	8640	319	-42.1	-59.2	299	59	2.5
2025-10-24T12:00	8660	318	-42.1	-60.3	299	59	2.5
2025-10-24T12:00	8680	317	-42.2	-61.2	299	59	2.5
2025-10-24T12:00	8700	316	-42.1	-60.9	299	59	2.5
2025-10-24T12:00	8720	315	-42.1	-60.9	299	59	2.5
2025-10-24T12:00	8740	315	-42.2	-61.0	299	59	2.5
2025-10-24T12:00	8760	314	-42.2	-61.1	299	59	2.5
2025-10-24T12:00	8780	313	-42.3	-61.5	299	59	2.5
2025-10-24T12:00	8800	312	-42.4	-61.2	299	58	2.6
2025-10-24T12:00	8820	311	-42.5	-61.2	299	58	2.6
2025-10-24T12:00	8840	310	-42.6	-61.5	299	58	2.6
2025-10-24T12:00	8860	309	-42.8	-61.5	298	58	2.6
2025-10-24T12:00	8880	308	-42.8	-61.7	298	58	2.6
2025-10-24T12:00	8900	307	-42.9	-61.6	297	59	2.6
2025-10-24T12:00	8920	306	-43.1	-61.1	297	59	2.6
2025-10-24T12:00	8940	305	-43.2	-60.7	297	60	2.7
2025-10-24T12:00	8960	304	-43.2	-60.2	297	60	2.7
2025-10-24T12:00	8980	304	-43.5	-59.6	297	61	2.7
2025-10-24T12:00	9000	303	-43.7	-58.4	297	62	2.8
2025-10-24T12:00	9020	302	-43.7	-57.9	297	62	2.8
2025-10-24T12:00	9040	301	-43.9	-57.6	297	63	2.7
2025-10-24T12:00	9060	300	-44.1	-56.4	298	63	2.7
2025-10-24T12:00	9080	299	-44.3	-56.0	298	63	2.7
2025-10-24T12:00	9100	298	-44.4	-56.6	298	63	2.6
2025-10-24T12:00	9120	297	-44.5	-57.2	297	63	2.6
2025-10-24T12:00	9140	296	-44.7	-57.6	297	63	2.5
2025-10-24T12:00	9160	295	-44.8	-57.8	297	63	2.5
2025-10-24T12:00	9180	295	-44.9	-57.8	297	63	2.5
2025-10-24T12:00	9200	294	-45.0	-57.9	296	63	2.5
2025-10-24T12:00	9220	293	-45.2	-58.0	296	63	2.5
2025-10-24T12:00	9240	292	-45.5	-58.0	296	62	2.5
2025-10-24T12:00	9260	291	-45.6	-58.9	296	62	2.5
2025-10-24T12:00	9280	290	-45.8	-60.3	296	61	2.5
2025-10-24T12:00	9300	289	-46.0	-61.5	296	61	2.5
2025-10-24T12:00	9320	288	-46.1	-62.9	297	60	2.5
2025-10-24T12:00	9340	288	-46.2	-64.1	297	60	2.5
2025-10-24T12:00	9360	287	-46.2	-64.4	297	60	2.6
2025-10-24T12:00	9380	286	-46.4	-64.4	297	60	2.7
2025-10-24T12:00	9400	285	-46.4	-64.4	297	60	2.7
2025-10-24T12:00	9420	284	-46.6	-64.6	296	60	2.8
2025-10-24T12:00	9440	283	-46.7	-64.6	296	60	2.8
2025-10-24T12:00	9460	282	-46.8	-64.5	296	60	2.9
2025-10-24T12:00	9480	282	-46.9	-64.6	296	60	2.9
2025-10-24T12:00	9500	281	-46.8	-64.8	295	60	2.9
2025-10-24T12:00	9520	280	-46.9	-65.0	295	60	2.9
2025-10-24T12:00	9540	279	-47.1	-64.9	295	60	3.0
2025-10-24T12:00	9560	278	-47.2	-65.0	296	60	3.0
2025-10-24T12:00	9580	277	-47.3	-65.2	296	60	3.0
2025-10-24T12:00	9600	277	-47.3	-65.3	296	60	3.0
2025-10-24T12:00	9620	276	-47.3	-65.6	296	60	3.1
2025-10-24T12:00	9640	275	-47.5	-65.9	296	60	3.1
2025-10-24T12:00	9660	274	-47.6	-65.7	296	60	3.1
2025-10-24T12:00	9680	273	-47.7	-65.8	296	60	3.2
2025-10-24T12:00	9700	272	-47.8	-65.7	296	60	3.2
2025-10-24T12:00	9720	271	-48.0	-65.7	296	60	3.2
2025-10-24T12:00	9740	271	-48.0	-65.8	295	59	3.2
2025-10-24T12:00	9760	270	-48.1	-66.0	295	59	3.2
2025-10-24T12:00	9780	269	-48.1	-66.1	295	59	3.2
2025-10-24T12:00	9800	268	-48.1	-66.1	294	58	3.3
2025-10-24T12:00	9820	267	-48.3	-66.2	294	58	3.3
2025-10-24T12:00	9840	267	-48.1	-66.3	295	57	3.3
2025-10-24T12:00	9860	266	-48.0	-66.5	295	57	3.3
2025-10-24T12:00	9880	265	-48.0	-66.7	295	57	3.2
2025-10-24T12:00	9900	264	-48.0	-66.7	295	56	3.2
2025-10-24T12:00	9920	263	-48.2	-66.7	294	56	3.2
2025-10-24T12:00	9940	263	-48.3	-66.7	294	56	3.2
2025-10-24T12:00	9960	262	-48.2	-66.7	294	56	3.1
2025-10-24T12:00	9980	261	-48.4	-66.8	293	56	3.1
2025-10-24T12:00	10000	260	-48.5	-66.9	293	56	3.1
2025-10-24T12:00	10018	260	-48.4	-67.0	293	56	3.1
2025-10-24T12:00	10050	258	-48.4	-67.5	293	56	3.0
2025-10-24T12:00	10100	256	-48.3	-68.2	293	55	3.0
2025-10-24T12:00	10150	254	-48.2	-68.9	293	55	3.0
2025-10-24T12:00	10200	252	-48.0	-68.9	292	54	3.2
2025-10-24T12:00	10250	250	-47.6	-69.7	291	53	3.2
2025-10-24T12:00	10300	249	-47.4	-70.2	291	52	3.3
2025-10-24T12:00	10350	247	-46.8	-70.4	291	51	3.4
2025-10-24T12:00	10400	245	-46.5	-71.0	290	51	3.4
2025-10-24T12:00	10450	243	-46.9	-71.0	290	51	3.5
2025-10-24T12:00	10500	241	-47.2	-70.9	290	51	3.5
2025-10-24T12:00	10550	240	-47.4	-71.1	290	50	3.5
2025-10-24T12:00	10600	238	-47.2	-71.5	289	49	3.6
2025-10-24T12:00	10650	236	-47.1	-72.5	288	49	3.6
2025-10-24T12:00	10700	234	-47.0	-72.9	287	48	3.7
2025-10-24T12:00	10750	232	-46.1	-73.5	286	47	3.7
2025-10-24T12:00	10800	231	-46.2	-73.4	285	46	3.8
2025-10-24T12:00	10850	229	-46.6	-72.5	284	46	3.9
2025-10-24T12:00	10900	227	-47.2	-72.4	284	45	3.8
2025-10-24T12:00	10950	225	-47.6	-72.2	285	45	3.7
2025-10-24T12:00	11000	224	-47.8	-72.5	285	45	3.6
2025-10-24T12:00	11050	222	-47.3	-74.5	286	45	3.6
2025-10-24T12:00	11100	220	-46.9	-75.2	286	46	3.8
2025-10-24T12:00	11150	219	-47.2	-74.4	286	46	3.9
2025-10-24T12:00	11200	217	-47.6	-74.7	287	46	3.8
2025-10-24T12:00	11250	215	-48.0	-75.1	288	46	3.8
2025-10-24T12:00	11300	214	-48.3	-75.1	288	45	3.8
2025-10-24T12:00	11350	212	-48.5	-75.2	287	45	3.7
2025-10-24T12:00	11400	211	-48.6	-75.1	287	45	3.6
2025-10-24T12:00	11450	209	-48.8	-75.3	286	45	3.4
2025-10-24T12:00	11500	207	-49.1	-75.9	285	44	3.4
2025-10-24T12:00	11550	206	-48.9	-76.7	284	44	3.5
2025-10-24T12:00	11600	204	-48.6	-76.6	283	43	3.7
2025-10-24T12:00	11650	203	-48.6	-76.2	283	43	3.8
2025-10-24T12:00	11700	201	-48.4	-76.5	282	43	3.7
2025-10-24T12:00	11750	200	-48.3	-76.7	281	43	3.6
2025-10-24T12:00	11800	198	-48.2	-77.0	281	43	3.5
2025-10-24T12:00	11850	197	-48.2	-77.0	283	43	3.5
2025-10-24T12:00	11900	195	-48.5	-76.9	284	43	3.5
2025-10-24T12:00	11950	194	-48.7	-76.9	284	43	3.4
2025-10-24T12:00	12000	192	-48.6	-77.0	284	42	3.3
2025-10-24T12:00	12050	191	-48.8	-77.2	284	41	3.3
2025-10-24T12:00	12100	189	-48.9	-77.5	284	41	3.2
2025-10-24T12:00	12150	188	-48.8	-77.8	285	40	3.3
2025-10-24T12:00	12200	186	-48.7	-77.9	286	40	3.3
2025-10-24T12:00	12250	185	-48.7	-78.3	286	38	3.3
2025-10-24T12:00	12300	184	-48.4	-78.4	284	37	3.4
2025-10-24T12:00	12350	182	-48.2	-78.5	283	36	3.6
2025-10-24T12:00	12400	181	-48.0	-78.4	281	36	3.8
2025-10-24T12:00	12450	179	-48.3	-78.4	280	36	3.8
2025-10-24T12:00	12500	178	-48.6	-78.6	278	36	3.8
2025-10-24T12:00	12550	177	-48.2	-78.5	277	36	3.9
2025-10-24T12:00	12600	175	-48.1	-78.3	276	36	3.9
2025-10-24T12:00	12650	174	-48.2	-78.6	276	35	3.8
2025-10-24T12:00	12700	173	-48.6	-79.0	276	35	3.8
2025-10-24T12:00	12750	171	-48.9	-78.8	276	34	3.7
2025-10-24T12:00	12800	170	-49.5	-78.8	276	32	3.7
2025-10-24T12:00	12850	169	-50.0	-78.9	277	32	3.6
2025-10-24T12:00	12900	168	-50.2	-78.9	278	31	3.5
2025-10-24T12:00	12950	166	-50.5	-79.1	280	32	3.3
2025-10-24T12:00	13000	165	-51.0	-79.3	280	32	3.2
2025-10-24T12:00	13050	164	-51.3	-79.5	280	32	3.2
2025-10-24T12:00	13100	163	-51.7	-79.8	280	32	3.1
2025-10-24T12:00	13150	161	-51.5	-79.9	279	31	3.1
2025-10-24T12:00	13200	160	-51.6	-80.1	278	31	3.1
2025-10-24T12:00	13250	159	-51.8	-80.2	276	31	3.1
2025-10-24T12:00	13300	158	-52.0	-80.1	273	31	3.0
2025-10-24T12:00	13350	156	-52.5	-80.2	271	30	2.9
2025-10-24T12:00	13400	155	-53.0	-80.1	271	30	2.9
2025-10-24T12:00	13450	154	-53.3	-80.2	271	31	2.8
2025-10-24T12:00	13500	153	-53.7	-80.4	271	31	2.8
2025-10-24T12:00	13550	152	-54.1	-80.6	271	30	2.8
2025-10-24T12:00	13600	150	-54.2	-80.9	269	30	2.8
2025-10-24T12:00	13650	149	-53.8	-81.1	268	29	2.8
2025-10-24T12:00	13700	148	-54.1	-81.4	267	29	2.7
2025-10-24T12:00	13750	147	-54.3	-81.4	267	28	2.7
2025-10-24T12:00	13800	146	-54.5	-81.5	268	27	2.7
2025-10-24T12:00	13850	145	-54.7	-81.6	269	27	2.7
2025-10-24T12:00	13900	144	-54.7	-81.7	270	26	2.7
2025-10-24T12:00	13950	142	-54.6	-81.6	273	26	2.8
2025-10-24T12:00	14000	141	-54.6	-81.7	278	25	2.9
2025-10-24T12:00	14050	140	-54.7	-82.0	281	24	2.9
2025-10-24T12:00	14100	139	-54.6	-81.9	283	22	3.0
2025-10-24T12:00	14150	138	-54.4	-82.1	282	21	3.2
2025-10-24T12:00	14200	137	-54.6	-82.0	276	20	3.2
2025-10-24T12:00	14250	136	-54.9	-82.2	269	20	3.2
2025-10-24T12:00	14300	135	-55.0	-82.1	263	20	3.2
2025-10-24T12:00	14350	134	-55.2	-82.1	259	19	3.3
2025-10-24T12:00	14400	133	-55.5	-82.3	257	19	3.3
2025-10-24T12:00	14450	132	-55.8	-82.3	254	19	3.4
2025-10-24T12:00	14500	131	-56.2	-82.1	252	19	3.5
2025-10-24T12:00	14550	130	-56.4	-82.0	251	20	3.6
2025-10-24T12:00	14600	129	-56.1	-82.1	248	22	3.7
2025-10-24T12:00	14650	128	-56.2	-82.2	247	22	4.0
2025-10-24T12:00	14700	127	-56.6	-82.3	248	22	4.2
2025-10-24T12:00	14750	126	-57.0	-82.5	250	23	4.3
2025-10-24T12:00	14800	125	-57.1	-82.5	253	22	4.4
2025-10-24T12:00	14850	124	-57.2	-82.5	255	22	4.4
2025-10-24T12:00	14900	123	-57.3	-82.7	256	22	4.5
2025-10-24T12:00	14950	122	-57.6	-82.8	257	22	4.5
2025-10-24T12:00	15000	121	-57.8	-82.9	258	22	4.5
2025-10-24T12:00	15050	120	-58.2	-83.1	258	22	4.5
2025-10-24T12:00	15100	119	-58.4	-83.1	258	22	4.4
2025-10-24T12:00	15150	118	-58.6	-83.1	257	21	4.3
2025-10-24T12:00	15200	117	-58.8	-83.3	256	21	4.2
2025-10-24T12:00	15250	116	-59.0	-83.5	257	21	4.2
2025-10-24T12:00	15300	115	-59.2	-83.7	259	21	4.2
2025-10-24T12:00	15350	114	-59.5	-84.0	262	20	4.2
2025-10-24T12:00	15400	113	-59.4	-83.9	264	21	4.3
2025-10-24T12:00	15450	112	-59.6	-83.9	265	21	4.4
2025-10-24T12:00	15500	111	-59.9	-83.9	265	21	4.5
2025-10-24T12:00	15550	111	-60.3	-83.9	266	21	4.5
2025-10-24T12:00	15600	110	-60.7	-83.9	266	22	4.6
2025-10-24T12:00	15650	109	-61.3	-84.0	266	22	4.6
2025-10-24T12:00	15700	108	-61.6	-84.0	267	22	4.6
2025-10-24T12:00	15750	107	-61.8	-84.2	269	23	4.6
2025-10-24T12:00	15800	106	-61.6	-84.3	272	23	4.6
2025-10-24T12:00	15850	105	-61.6	-84.5	273	22	4.8
2025-10-24T12:00	15900	105	-61.8	-84.6	272	21	4.9
2025-10-24T12:00	15950	104	-62.1	-84.8	270	21	5.1
2025-10-24T12:00	16000	103	-62.2	-84.7	270	21	5.2
2025-10-24T12:00	16050	102	-62.2	-84.6	270	21	5.4
2025-10-24T12:00	16100	101	-62.4	-84.8	271	23	5.6
2025-10-24T12:00	16150	100	-62.2	-84.7	270	23	5.8
2025-10-24T12:00	16200	100	-62.1	-84.7	268	23	6.0
2025-10-24T12:00	16250	99	-62.4	-84.9	266	23	6.2
2025-10-24T12:00	16300	98	-62.8	-85.0	263	23	6.5
2025-10-24T12:00	16350	97	-63.0	-85.2	263	23	6.6
2025-10-24T12:00	16400	96	-62.9	-85.3	264	24	6.7
2025-10-24T12:00	16450	96	-62.9	-85.3	266	25	6.9
2025-10-24T12:00	16500	95	-62.9	-85.3	267	26	7.1
2025-10-24T12:00	16550	94	-63.3	-85.3	268	27	7.2
2025-10-24T12:00	16600	93	-63.7	-85.4	269	28	7.3
2025-10-24T12:00	16650	93	-64.0	-85.6	269	28	7.3
2025-10-24T12:00	16700	92	-63.7	-85.5	267	28	7.4
2025-10-24T12:00	16750	91	-63.7	-85.8	265	28	7.5
2025-10-24T12:00	16800	90	-63.6	-86.0	264	28	7.7
2025-10-24T12:00	16850	90	-63.6	-86.2	265	29	8.0
2025-10-24T12:00	16900	89	-62.9	-86.1	267	30	8.4
2025-10-24T12:00	16950	88	-62.2	-86.0	270	30	9.0
2025-10-24T12:00	17000	87	-61.8	-85.8	272	30	9.5
2025-10-24T12:00	17050	87	-62.2	-85.9	273	29	9.8
2025-10-24T12:00	17100	86	-62.4	-86.0	272	29	10.1
2025-10-24T12:00	17150	85	-61.8	-85.9	272	29	10.3
2025-10-24T12:00	17200	85	-61.1	-85.8	270	29	10.4
2025-10-24T12:00	17250	84	-60.1	-86.1	272	26	10.1
2025-10-24T12:00	17300	83	-55.2	-85.2	279	22	10.2
2025-10-24T12:00	17350	83	-53.1	-84.7	281	18	10.9
2025-10-24T12:00	17400	82	-53.5	-84.8	281	15	11.8
2025-10-24T12:00	17450	81	-53.3	-83.7	270	12	12.6
2025-10-24T12:00	17500	81	-53.5	-83.0	253	11	13.2
2025-10-24T12:00	17550	80	-53.7	-83.0	245	10	13.6
2025-10-24T12:00	17600	79	-54.1	-83.2	238	10	13.9
2025-10-24T12:00	17650	79	-54.3	-83.2	233	10	14.0
2025-10-24T12:00	17700	78	-54.6	-83.3	229	10	14.2
2025-10-24T12:00	17750	78	-55.1	-83.3	226	10	14.4
2025-10-24T12:00	17800	77	-55.5	-83.4	224	10	14.4
2025-10-24T12:00	17850	76	-56.0	-83.5	222	10	14.4
2025-10-24T12:00	17900	76	-56.4	-83.7	220	10	14.4
2025-10-24T12:00	17950	75	-56.8	-83.9	217	10	14.5
2025-10-24T12:00	18000	75	-57.3	-84.2	214	11	14.3
2025-10-24T12:00	18050	74	-57.7	-84.3	211	11	14.3
2025-10-24T12:00	18100	73	-58.1	-84.4	210	11	14.3
2025-10-24T12:00	18150	73	-58.5	-84.6	212	12	14.2
2025-10-24T12:00	18200	72	-58.9	-84.9	217	13	14.2
2025-10-24T12:00	18250	72	-59.2	-85.1	222	14	14.1
2025-10-24T12:00	18300	71	-59.2	-85.1	225	15	14.1
2025-10-24T12:00	18350	71	-59.3	-85.1	225	17	14.1
2025-10-24T12:00	18400	70	-59.5	-85.2	225	18	14.1
2025-10-24T12:00	18450	70	-59.7	-85.2	225	19	14.1
2025-10-24T12:00	18500	69	-60.0	-85.3	225	19	14.1
2025-10-24T12:00	18550	68	-60.4	-85.5	226	19	14.1
2025-10-24T12:00	18600	68	-60.3	-85.4	229	19	14.1
2025-10-24T12:00	18650	67	-60.6	-85.6	234	18	14.1
2025-10-24T12:00	18700	67	-60.8	-85.5	238	18	14.1
2025-10-24T12:00	18750	66	-61.0	-85.4	241	17	14.0
2025-10-24T12:00	18800	66	-61.3	-85.5	244	16	13.9
2025-10-24T12:00	18850	65	-61.7	-85.7	248	15	13.8
2025-10-24T12:00	18900	65	-62.0	-85.8	253	15	13.8
2025-10-24T12:00	18950	64	-62.3	-86.0	259	14	13.7
2025-10-24T12:00	19000	64	-62.4	-86.1	265	14	13.5
2025-10-24T12:00	19050	63	-62.4	-86.1	271	15	13.6
2025-10-24T12:00	19100	63	-62.7	-86.6	275	15	13.5
2025-10-24T12:00	19150	62	-62.4	-86.7	276	16	13.5
2025-10-24T12:00	19200	62	-61.2	-86.2	273	16	13.5
2025-10-24T12:00	19250	61	-60.8	-86.1	268	17	13.6
2025-10-24T12:00	19300	61	-61.0	-86.1	263	17	13.6
2025-10-24T12:00	19350	60	-61.1	-86.2	260	18	13.6
2025-10-24T12:00	19400	60	-61.2	-86.2	259	19	13.6
2025-10-24T12:00	19450	59	-61.1	-86.2	259	20	13.5
2025-10-24T12:00	19500	59	-61.2	-86.2	262	21	13.5
2025-10-24T12:00	19550	58	-61.3	-86.3	264	21	13.4
2025-10-24T12:00	19600	58	-61.3	-86.4	265	21	13.3
2025-10-24T12:00	19650	57	-60.9	-86.4	265	21	13.2
2025-10-24T12:00	19700	57	-60.6	-86.4	264	20	13.1
2025-10-24T12:00	19750	56	-60.1	-86.2	264	19	13.0
2025-10-24T12:00	19800	56	-60.2	-86.2	265	19	12.8
2025-10-24T12:00	19850	55	-60.6	-86.2	267	18	12.7
2025-10-24T12:00	19900	55	-60.6	-86.1	267	18	12.5
2025-10-24T12:00	19950	55	-60.7	-86.3	267	18	12.3
2025-10-24T12:00	20000	54	-60.6	-86.3	267	17	12.2
2025-10-24T12:00	20050	54	-60.4		269	16	12.2
2025-10-24T12:00	20100	53	-60.5		271	14	12.0
2025-10-24T12:00	20150	53	-60.7		271	13	12.0
2025-10-24T12:00	20200	52	-60.8		267	12	12.0
2025-10-24T12:00	20250	52	-60.3		261	12	12.0
2025-10-24T12:00	20300	52	-60.1		255	12	12.1
2025-10-24T12:00	20350	51	-60.3		252	13	12.1
2025-10-24T12:00	20400	51	-60.7		252	13	12.1
2025-10-24T12:00	20450	50	-60.9		253	14	12.2
2025-10-24T12:00	20500	50	-61.2		254	15	12.1
2025-10-24T12:00	20550	50	-61.5		254	16	12.1
2025-10-24T12:00	20600	49	-61.9		254	17	12.1
2025-10-24T12:00	20650	49	-62.4		254	18	12.1
2025-10-24T12:00	20700	48	-62.9		255	19	12.0
2025-10-24T12:00	20750	48	-63.1		256	19	12.1
2025-10-24T12:00	20800	48	-63.0		258	19	12.1
2025-10-24T12:00	20850	47	-62.3		261	19	12.0
2025-10-24T12:00	20900	47	-61.6		264	19	12.1
2025-10-24T12:00	20950	46	-61.4		268	19	12.2
2025-10-24T12:00	21000	46	-61.5		270	19	12.2
2025-10-24T12:00	21050	46	-61.6		273	20	12.3
2025-10-24T12:00	21100	45	-61.6		275	21	12.3
2025-10-24T12:00	21150	45	-61.2		277	22	12.4
2025-10-24T12:00	21200	45	-61.1		278	22	12.5
2025-10-24T12:00	21250	44	-60.8		279	20	12.5
2025-10-24T12:00	21300	44	-60.2		279	19	12.6
2025-10-24T12:00	21350	44	-59.4		276	17	12.9
2025-10-24T12:00	21400	43	-59.3		271	16	13.0
2025-10-24T12:00	21450	43	-59.4		264	16	13.1
2025-10-24T12:00	21500	43	-59.7		256	16	13.3
2025-10-24T12:00	21550	42	-59.7		248	17	13.3
2025-10-24T12:00	21600	42	-59.9		242	18	13.4
2025-10-24T12:00	21650	42	-59.0		240	18	13.4
2025-10-24T12:00	21700	41	-58.6		240	18	13.6
2025-10-24T12:00	21750	41	-58.9		241	18	13.6
2025-10-24T12:00	21800	41	-59.3		243	17	13.6
2025-10-24T12:00	21850	40	-59.5		244	16	13.7
2025-10-24T12:00	21900	40	-59.7		247	15	13.7
2025-10-24T12:00	21950	40	-59.5		251	13	13.6
2025-10-24T12:00	22000	39	-59.7		256	13	13.6
2025-10-24T12:00	22050	39	-59.9		260	14	13.6
2025-10-24T12:00	22100	39	-60.3		264	15	13.5
2025-10-24T12:00	22150	38	-60.6		266	16	13.4
2025-10-24T12:00	22200	38	-60.5		268	17	13.4
2025-10-24T12:00	22250	38	-60.5		269	17	13.4
2025-10-24T12:00	22300	37	-60.0		269	17	13.3
2025-10-24T12:00	22350	37	-60.0		268	17	13.1
2025-10-24T12:00	22400	37	-59.9		268	17	13.0
2025-10-24T12:00	22450	37	-59.8		268	17	13.0
2025-10-24T12:00	22500	36	-59.8		267	17	13.0
2025-10-24T12:00	22550	36	-59.2		265	17	13.0
2025-10-24T12:00	22600	36	-58.6		263	16	13.2
2025-10-24T12:00	22650	35	-58.6		260	16	13.3
2025-10-24T12:00	22700	35	-58.9		257	16	13.3
2025-10-24T12:00	22750	35	-59.1		255	16	13.3
2025-10-24T12:00	22800	35	-58.5		253	17	13.3
2025-10-24T12:00	22850	34	-58.3		252	18	13.3
2025-10-24T12:00	22900	34	-58.1		251	19	13.4
2025-10-24T12:00	22950	34	-57.9		249	20	13.5
2025-10-24T12:00	23000	33	-57.7		248	22	13.5
2025-10-24T12:00	23050	33	-57.6		246	23	13.5
2025-10-24T12:00	23100	33	-57.6		246	24	13.5
2025-10-24T12:00	23150	33	-57.9		246	25	13.5
2025-10-24T12:00	23200	32	-58.3		246	26	13.4
2025-10-24T12:00	23250	32	-58.7		247	27	13.4
2025-10-24T12:00	23300	32	-58.8		249	27	13.3
2025-10-24T12:00	23350	32	-58.5		252	27	13.2
2025-10-24T12:00	23400	31	-58.4		255	27	13.1
2025-10-24T12:00	23450	31	-58.5		259	26	13.1
2025-10-24T12:00	23500	31	-58.4		262	25	13.1
2025-10-24T12:00	23550	31	-58.7		264	25	13.2
2025-10-24T12:00	23600	30	-59.1		266	24	13.1
2025-10-24T12:00	23650	30	-59.4		268	23	13.2
2025-10-24T12:00	23700	30	-59.7		271	22	13.2
2025-10-24T12:00	23750	30	-60.0		273	21	13.2
2025-10-24T12:00	23800	29	-60.0		275	20	13.2
2025-10-24T12:00	23850	29	-59.8		274	21	13.3
2025-10-24T12:00	23900	29	-59.8		272	21	13.2
2025-10-24T12:00	23950	29	-59.8		269	23	13.2
2025-10-24T12:00	24000	29	-59.4		266	24	13.1
2025-10-24T12:00	24050	28	-58.8		264	25	13.2
2025-10-24T12:00	24100	28	-58.4		264	26	13.2
2025-10-24T12:00	24150	28	-58.3		265	26	13.3
2025-10-24T12:00	24200	28	-57.4		268	26	13.3
2025-10-24T12:00	24250	27	-57.1		270	25	13.4
2025-10-24T12:00	24300	27	-57.2		273	25	13.3
2025-10-24T12:00	24350	27	-57.3		276	25	13.3
2025-10-24T12:00	24400	27	-57.1		278	25	13.4
2025-10-24T12:00	24450	27	-56.2		277	25	13.3
2025-10-24T12:00	24500	26	-55.4		276	25	13.4
2025-10-24T12:00	24550	26	-55.0		275	25	13.5
2025-10-24T12:00	24600	26	-54.9		274	24	13.6
2025-10-24T12:00	24650	26	-55.0		273	23	13.6
2025-10-24T12:00	24700	26	-54.6		275	23	13.6
2025-10-24T12:00	24750	25	-54.5		277	22	13.6
2025-10-24T12:00	24800	25	-54.4		280	21	13.5
2025-10-24T12:00	24850	25	-54.1		280	20	13.6
2025-10-24T12:00	24900	25	-53.8		274	20	13.4
2025-10-24T12:00	24950	25	-53.7		268	20	13.5
2025-10-24T12:00	25000	24	-53.5		261	20	13.5
2025-10-24T12:00	25050	24	-53.1		257	20	13.6
2025-10-24T12:00	25100	24	-52.8		254	19	13.4
2025-10-24T12:00	25150	24	-52.7		252	19	13.4
2025-10-24T12:00	25200	24	-52.9		251	18	13.4
2025-10-24T12:00	25250	23	-53.1		251	17	13.4
2025-10-24T12:00	25300	23	-53.2		252	17	13.3
2025-10-24T12:00	25350	23	-53.5		253	17	13.1
2025-10-24T12:00	25400	23	-53.4		252	17	13.0
2025-10-24T12:00	25450	23	-52.8		250	17	12.9
2025-10-24T12:00	25500	23	-52.5		246	17	12.9
2025-10-24T12:00	25550	22	-52.5		243	17	12.8
2025-10-24T12:00	25600	22	-52.5		240	18	12.5
2025-10-24T12:00	25650	22	-52.7		236	19	12.4
2025-10-24T12:00	25700	22	-52.9		234	20	12.4
2025-10-24T12:00	25750	22	-53.2		232	21	12.5
2025-10-24T12:00	25800	22	-53.4		230	22	12.4
2025-10-24T12:00	25850	21	-53.6		228	22	12.3
2025-10-24T12:00	25900	21	-53.8		227	23	12.3
2025-10-24T12:00	25950	21	-54.0		225	24	12.2
2025-10-24T12:00	26000	21	-54.2		225	25	12.3
2025-10-24T12:00	26050	21	-54.4		224	26	12.2
2025-10-24T12:00	26100	21	-54.7		224	27	12.1
2025-10-24T12:00	26150	20	-55.0		224	28	12.1
2025-10-24T12:00	26200	20	-55.0		225	28	12.0
2025-10-24T12:00	26250	20	-55.1		227	29	11.9
2025-10-24T12:00	26300	20	-55.3		229	29	11.8
2025-10-24T12:00	26350	20	-55.5		232	29	11.9
2025-10-24T12:00	26400	20	-55.5		236	30	11.9
2025-10-24T12:00	26450	19	-55.4		239	31	11.9
2025-10-24T12:00	26500	19	-55.4		241	31	11.7
2025-10-24T12:00	26550	19	-55.5		242	32	11.6
2025-10-24T12:00	26600	19	-55.2		244	33	11.4
2025-10-24T12:00	26650	19	-55.3		246	34	11.3
2025-10-24T12:00	26700	19	-55.3		248	35	11.3
2025-10-24T12:00	26750	19	-55.5		250	36	11.3
2025-10-24T12:00	26800	18	-55.7		251	37	11.3
2025-10-24T12:00	26850	18	-55.8		251	37	11.2
2025-10-24T12:00	26900	18	-55.8		252	36	11.3
2025-10-24T12:00	26950	18	-55.6		253	34	11.3
2025-10-24T12:00	27000	18	-55.7		254	33	11.2
2025-10-24T12:00	27050	18	-55.4		254	33	11.0
2025-10-24T12:00	27100	18	-55.1		255	33	10.8
2025-10-24T12:00	27150	17	-54.5		257	33	10.7
2025-10-24T12:00	27200	17	-54.1		259	33	10.7
2025-10-24T12:00	27250	17	-53.7		261	33	10.6
2025-10-24T12:00	27300	17	-53.3		261	34	10.5
2025-10-24T12:00	27350	17	-53.0		261	35	10.5
2025-10-24T12:00	27400	17	-52.6		260	36	10.5
2025-10-24T12:00	27450	17	-52.5		260	37	10.5
2025-10-24T12:00	27500	17	-52.7		261	38	10.5
2025-10-24T12:00	27550	16	-53.0		261	39	10.6
2025-10-24T12:00	27600	16	-53.3		261	40	10.7
2025-10-24T12:00	27650	16	-53.5		261	40	10.7
2025-10-24T12:00	27700	16	-53.8		261	41	10.6
2025-10-24T12:00	27750	16	-53.9		262	42	10.6
2025-10-24T12:00	27800	16	-53.3		263	42	10.7
2025-10-24T12:00	27850	16	-52.4		264	41	10.8
2025-10-24T12:00	27900	16	-52.4		265	40	10.8
2025-10-24T12:00	27950	15	-52.7		266	39	10.7
2025-10-24T12:00	28000	15	-52.7		266	39	10.6
2025-10-24T12:00	28050	15	-52.5		267	38	10.5
2025-10-24T12:00	28100	15	-52.2		267	38	10.4
2025-10-24T12:00	28150	15	-52.1		267	38	10.3
2025-10-24T12:00	28200	15	-52.2		267	38	10.1
2025-10-24T12:00	28250	15	-52.2		266	38	10.0
2025-10-24T12:00	28300	15	-52.4		265	38	9.9
2025-10-24T12:00	28350	14	-52.1		265	39	9.8
2025-10-24T12:00	28400	14	-51.5		264	39	9.7
2025-10-24T12:00	28450	14	-51.4		264	40	9.7
2025-10-24T12:00	28500	14	-51.4		263	41	9.7
2025-10-24T12:00	28550	14	-51.3		262	42	9.7
2025-10-24T12:00	28600	14	-50.9		260	42	9.7
2025-10-24T12:00	28650	14	-50.4		260	42	9.7
2025-10-24T12:00	28700	14	-50.7		260	41	9.6
2025-10-24T12:00	28750	14	-50.7		261	40	9.6
2025-10-24T12:00	28800	13	-50.8		260	40	9.6
2025-10-24T12:00	28850	13	-50.8		260	39	9.5
2025-10-24T12:00	28900	13	-50.5		260	38	9.4
2025-10-24T12:00	28950	13	-50.1		260	37	9.3
2025-10-24T12:00	29000	13	-49.6		261	37	9.3
2025-10-24T12:00	29050	13	-48.5		263	36	9.4
2025-10-24T12:00	29100	13	-48.0		266	35	9.3
2025-10-24T12:00	29150	13	-48.1		267	34	9.2
2025-10-24T12:00	29200	13	-48.3		267	33	9.2
2025-10-24T12:00	29250	13	-48.5		267	32	9.1
2025-10-24T12:00	29300	13	-48.8		266	31	8.9
2025-10-24T12:00	29350	12	-48.9		264	30	8.8
2025-10-24T12:00	29400	12	-48.9		263	30	8.7
2025-10-24T12:00	29450	12	-49.1		261	30	8.6
2025-10-24T12:00	29500	12	-49.1		259	30	8.4
2025-10-24T12:00	29550	12	-49.0		258	31	8.4
2025-10-24T12:00	29600	12	-48.8		257	31	8.3
2025-10-24T12:00	29650	12	-48.7		256	32	8.2
2025-10-24T12:00	29700	12	-48.6		255	32	8.1
2025-10-24T12:00	29750	12	-48.5		254	33	8.1
2025-10-24T12:00	29800	12	-48.5		254	34	8.1
2025-10-24T12:00	29850	11	-48.6		253	35	8.1
2025-10-24T12:00	29900	11	-48.9		253	36	8.1
2025-10-24T12:00	29950	11	-49.4		253	36	8.2
2025-10-24T12:00	30000	11	-49.7		253	36	8.2
2025-10-24T12:00	30050	11	-50.0		253	36	8.1
2025-10-24T12:00	30100	11	-50.4		253	36	8.0
2025-10-24T12:00	30150	11	-50.8		253	36	8.1
2025-10-24T12:00	30200	11	-51.2		253	36	8.1
2025-10-24T12:00	30250	11	-51.7		252	36	8.0
2025-10-24T12:00	30300	11	-52.0		250	36	7.9
2025-10-24T12:00	30350	11	-52.2		249	37	7.8
2025-10-24T12:00	30400	11	-52.0		247	37	7.7
2025-10-24T12:00	30450	10	-51.7		246	38	7.6
2025-10-24T12:00	30500	10	-51.4		245	38	7.5
2025-10-24T12:00	30550	10	-51.1		245	39	7.3
2025-10-24T12:00	30600	10	-50.7		246	40	7.2
2025-10-24T12:00	30650	10	-50.6		247	41	7.1
2025-10-24T12:00	30700	10	-50.8		247	42	7.1
2025-10-24T12:00	30750	10	-51.0		248	42	7.1
2025-10-24T12:00	30800	10	-51.1		249	42	7.0
2025-10-24T12:00	30850	10	-51.1		249	42	7.0
2025-10-24T12:00	30900	10	-51.3		249	42	6.9
2025-10-24T12:00	30950	10	-51.3		249	42	6.8
2025-10-24T12:00	31000	10	-50.9		249	42	6.7
2025-10-24T12:00	31050	10	-50.3		249	42	6.6
2025-10-24T12:00	31100	9	-49.9		249	42	6.3
2025-10-24T12:00	31150	9	-50.1		248	43	6.3
2025-10-24T12:00	31200	9	-50.3		247	44	6.2
2025-10-24T12:00	31250	9	-50.6		246	45	6.0
2025-10-24T12:00	31300	9	-50.6		244	47	6.0
2025-10-24T12:00	31350	9	-50.2		244	49	6.0
2025-10-24T12:00	31400	9	-49.5		245	51	6.0
2025-10-24T12:00	31450	9	-49.3		246	51	6.2
2025-10-24T12:00	31500	9	-49.3		248	51	6.0
2025-10-24T12:00	31550	9	-49.4		248	52	6.0
2025-10-24T12:00	31600	9	-49.4		248	52	6.0
2025-10-24T12:00	31650	9	-49.4		248	51	5.9
2025-10-24T12:00	31700	9	-49.4		247	51	5.9
2025-10-24T12:00	31750	9	-49.5		246	49	5.8
2025-10-24T12:00	31800	9	-49.6		245	48	5.7
2025-10-24T12:00	31850	8	-49.7		244	47	5.6
2025-10-24T12:00	31900	8	-49.6		244	47	5.5
2025-10-24T12:00	31950	8	-49.6		244	46	5.4
2025-10-24T12:00	32000	8	-49.8		245	46	5.3
2025-10-24T12:00	32050	8	-49.8		246	46	5.3
2025-10-24T12:00	32100	8	-49.7		246	45	5.3
2025-10-24T12:00	32150	8	-49.7		246	45	5.2
2025-10-24T12:00	32200	8	-49.3		246	45	5.1
2025-10-24T12:00	32250	8	-48.8		246	46	5.1
2025-10-24T12:00	32300	8	-48.4		247	46	5.0
2025-10-24T12:00	32350	8	-48.1		248	47	5.0
2025-10-24T12:00	32400	8	-48.0		249	47	5.0
2025-10-24T12:00	32450	8	-48.0		250	47	4.9
2025-10-24T12:00	32500	8	-48.0		251	48	4.8
2025-10-24T12:00	32550	8	-48.0		250	48	4.9
2025-10-24T12:00	32600	8	-48.0		249	49	4.8
2025-10-24T12:00	32650	7	-48.0		249	49	4.8
2025-10-24T12:00	32700	7	-47.9		250	49	4.8
2025-10-24T12:00	32750	7	-47.8		251	50	4.7
2025-10-24T12:00	32800	7	-47.7		252	50	4.7
2025-10-24T12:00	32850	7	-47.3		253	50	4.7
2025-10-24T12:00	32900	7	-47.1		254	50	
2025-10-25T00:00	491	953	8.9	6.5	215	5	
2025-10-25T00:00	520	950	8.8	6.5	213	5	
2025-10-25T00:00	540	948	8.7	6.2	213	7	
2025-10-25T00:00	560	946	8.6	6.0	214	8	
2025-10-25T00:00	580	943	8.5	5.8	214	10	
2025-10-25T00:00	600	941	8.4	5.6	214	11	
2025-10-25T00:00	620	938	8.3	5.6	214	11	
2025-10-25T00:00	640	936	8.0	5.7	214	12	
2025-10-25T00:00	660	934	7.9	5.6	214	12	
2025-10-25T00:00	680	932	7.7	5.6	214	12	
2025-10-25T00:00	700	930	7.4	5.6	213	12	
2025-10-25T00:00	720	928	7.2	5.7	213	12	
2025-10-25T00:00	740	925	7.0	5.6	214	13	
2025-10-25T00:00	760	923	6.8	5.6	214	13	
2025-10-25T00:00	780	921	6.7	5.5	214	13	
2025-10-25T00:00	800	918	6.5	5.4	215	13	
2025-10-25T00:00	820	916	6.4	5.2	216	14	
2025-10-25T00:00	840	914	6.2	5.2	217	14	
2025-10-25T00:00	860	912	6.0	5.2	218	14	
2025-10-25T00:00	880	910	6.1	4.6	220	15	
2025-10-25T00:00	900	907	5.9	4.5	221	15	
2025-10-25T00:00	920	905	5.8	4.5	223	16	
2025-10-25T00:00	940	903	5.6	4.4	225	17	
2025-10-25T00:00	960	901	5.4	4.2	227	17	
2025-10-25T00:00	980	898	5.6	3.6	228	18	
2025-10-25T00:00	1000	896	5.6	3.3	230	19	
2025-10-25T00:00	1020	894	5.5	3.1	231	19	
2025-10-25T00:00	1040	892	5.7	2.4	233	20	
2025-10-25T00:00	1060	890	6.0	2.1	234	20	
2025-10-25T00:00	1080	887	5.9	2.0	234	20	
2025-10-25T00:00	1100	885	5.8	1.8	235	20	
2025-10-25T00:00	1120	883	5.7	1.8	236	20	
2025-10-25T00:00	1140	881	5.6	1.8	236	20	
2025-10-25T00:00	1160	879	5.4	1.8	236	20	
2025-10-25T00:00	1180	877	5.2	1.9	236	20	
2025-10-25T00:00	1200	874	5.0	1.9	237	20	
2025-10-25T00:00	1220	872	4.8	1.9	237	21	
2025-10-25T00:00	1240	870	4.7	1.9	237	21	
2025-10-25T00:00	1260	868	4.5	1.9	238	21	
2025-10-25T00:00	1280	866	4.3	1.9	238	21	
2025-10-25T00:00	1300	864	4.3	1.7	239	21	
2025-10-25T00:00	1320	862	4.1	1.6	240	21	
2025-10-25T00:00	1340	860	3.9	1.7	240	20	
2025-10-25T00:00	1360	857	3.7	1.6	241	20	
2025-10-25T00:00	1380	855	3.6	1.5	242	20	
2025-10-25T00:00	1400	853	3.4	1.4	243	20	
2025-10-25T00:00	1420	851	3.3	1.4	244	19	
2025-10-25T00:00	1440	849	3.2	1.3	245	19	
2025-10-25T00:00	1460	847	3.0	1.2	245	19	
2025-10-25T00:00	1480	845	2.8	1.3	246	20	
2025-10-25T00:00	1500	843	2.6	1.2	246	20	
2025-10-25T00:00	1520	841	2.4	1.2	246	20	
2025-10-25T00:00	1540	839	2.2	1.2	247	20	
2025-10-25T00:00	1560	836	2.0	1.1	247	20	
2025-10-25T00:00	1580	834	1.9	1.1	247	20	
2025-10-25T00:00	1600	832	1.7	1.0	247	20	
2025-10-25T00:00	1620	830	1.5	1.0	248	20	
2025-10-25T00:00	1640	828	1.4	0.9	248	20	
2025-10-25T00:00	1660	826	1.3	0.8	249	20	
2025-10-25T00:00	1680	824	1.1	0.7	249	20	
2025-10-25T00:00	1700	822	1.0	0.6	249	20	
2025-10-25T00:00	1720	820	0.8	0.5	249	19	
2025-10-25T00:00	1740	818	0.6	0.5	250	20	
2025-10-25T00:00	1760	816	0.4	0.4	250	20	
2025-10-25T00:00	1780	814	0.2	0.2	250	20	
2025-10-25T00:00	1800	812	0.1	0.1	251	20	
2025-10-25T00:00	1820	810	0.0	0.0	251	20	
2025-10-25T00:00	1840	808	-0.2	-0.2	251	20	
2025-10-25T00:00	1860	806	-0.3	-0.3	251	20	
2025-10-25T00:00	1880	804	-0.4	-0.4	251	20	
2025-10-25T00:00	1900	802	-0.6	-0.6	251	20	
2025-10-25T00:00	1920	800	-0.7	-0.7	251	20	
2025-10-25T00:00	1940	798	-0.8	-0.8	250	20	
2025-10-25T00:00	1960	796	-0.9	-0.9	250	20	
2025-10-25T00:00	1980	794	-1.0	-1.0	250	20	
2025-10-25T00:00	2000	792	-1.2	-1.2	250	20	
2025-10-25T00:00	2020	790	-1.3	-1.3	250	20	
2025-10-25T00:00	2040	788	-1.4	-1.4	250	20	
2025-10-25T00:00	2060	786	-1.5	-1.5	250	21	
2025-10-25T00:00	2080	784	-1.7	-1.7	251	21	
2025-10-25T00:00	2100	782	-1.8	-1.8	251	21	
2025-10-25T00:00	2120	780	-1.9	-1.9	251	21	
2025-10-25T00:00	2140	778	-2.0	-2.0	251	21	
2025-10-25T00:00	2160	776	-2.2	-2.2	252	21	
2025-10-25T00:00	2180	774	-2.3	-2.3	252	21	
2025-10-25T00:00	2200	772	-2.4	-2.4	253	21	
2025-10-25T00:00	2220	770	-2.5	-2.5	254	21	
2025-10-25T00:00	2240	768	-2.7	-2.7	254	21	
2025-10-25T00:00	2260	767	-2.8	-2.8	255	21	
2025-10-25T00:00	2280	765	-2.9	-2.9	255	21	
2025-10-25T00:00	2300	763	-3.0	-3.0	256	21	
2025-10-25T00:00	2320	761	-3.1	-3.1	256	21	
2025-10-25T00:00	2340	759	-3.2	-3.2	257	21	
2025-10-25T00:00	2360	757	-3.3	-3.3	257	21	
2025-10-25T00:00	2380	755	-3.4	-3.4	257	21	
2025-10-25T00:00	2400	753	-3.5	-3.5	257	21	
2025-10-25T00:00	2420	751	-3.7	-3.7	258	21	
2025-10-25T00:00	2440	749	-3.8	-3.8	258	21	
2025-10-25T00:00	2460	747	-3.9	-3.9	258	21	
2025-10-25T00:00	2480	746	-4.0	-4.0	258	21	
2025-10-25T00:00	2500	744	-4.1	-4.1	258	21	
2025-10-25T00:00	2520	742	-4.3	-4.3	258	21	
2025-10-25T00:00	2540	740	-4.4	-4.4	258	20	
2025-10-25T00:00	2560	738	-4.6	-4.6	258	20	
2025-10-25T00:00	2580	736	-4.7	-4.7	257	20	
2025-10-25T00:00	2600	734	-4.8	-4.8	257	20	
2025-10-25T00:00	2620	732	-4.9	-4.9	256	20	
2025-10-25T00:00	2640	731	-5.0	-5.0	256	20	
2025-10-25T00:00	2660	729	-5.2	-5.2	256	20	
2025-10-25T00:00	2680	727	-5.3	-5.3	255	21	
2025-10-25T00:00	2700	725	-5.4	-5.4	255	21	
2025-10-25T00:00	2720	723	-5.5	-5.5	255	21	
2025-10-25T00:00	2740	721	-5.6	-5.6	256	21	
2025-10-25T00:00	2760	719	-5.7	-5.7	256	21	
2025-10-25T00:00	2780	718	-5.9	-5.9	256	22	
2025-10-25T00:00	2800	716	-6.0	-6.0	257	22	
2025-10-25T00:00	2820	714	-6.1	-6.1	258	22	
2025-10-25T00:00	2840	712	-6.2	-6.2	258	22	
2025-10-25T00:00	2860	710	-6.3	-6.3	259	22	
2025-10-25T00:00	2880	709	-6.4	-6.5	259	22	
2025-10-25T00:00	2900	707	-6.6	-6.6	259	22	
2025-10-25T00:00	2920	705	-6.7	-6.7	259	22	
2025-10-25T00:00	2940	703	-6.9	-6.9	259	23	
2025-10-25T00:00	2960	701	-7.0	-7.1	259	23	
2025-10-25T00:00	2980	700	-7.1	-7.3	259	23	
2025-10-25T00:00	3000	698	-7.3	-7.4	259	22	
2025-10-25T00:00	3020	696	-7.3	-7.7	259	22	
2025-10-25T00:00	3040	694	-7.5	-8.0	259	22	
2025-10-25T00:00	3060	692	-7.6	-8.1	259	22	
2025-10-25T00:00	3080	691	-7.7	-8.3	259	22	
2025-10-25T00:00	3100	689	-7.9	-8.4	258	22	
2025-10-25T00:00	3120	687	-8.1	-8.3	258	22	
2025-10-25T00:00	3140	685	-8.2	-8.5	259	22	
2025-10-25T00:00	3160	684	-8.3	-8.7	259	22	
2025-10-25T00:00	3180	682	-8.4	-8.8	259	23	
2025-10-25T00:00	3200	680	-8.6	-9.0	260	23	
2025-10-25T00:00	3220	678	-8.7	-9.1	260	23	
2025-10-25T00:00	3240	677	-8.9	-9.1	261	23	
2025-10-25T00:00	3260	675	-9.1	-9.2	261	23	
2025-10-25T00:00	3280	673	-9.3	-9.3	261	23	
2025-10-25T00:00	3300	671	-9.4	-9.5	261	22	
2025-10-25T00:00	3320	670	-9.5	-9.6	262	22	
2025-10-25T00:00	3340	668	-9.7	-9.7	262	22	
2025-10-25T00:00	3360	666	-9.8	-9.9	262	22	
2025-10-25T00:00	3380	665	-10.0	-10.0	262	23	
2025-10-25T00:00	3400	663	-10.1	-10.2	261	23	
2025-10-25T00:00	3420	661	-10.3	-10.3	261	23	
2025-10-25T00:00	3440	659	-10.4	-10.4	260	23	
2025-10-25T00:00	3460	658	-10.6	-10.7	260	23	
2025-10-25T00:00	3480	656	-10.7	-10.8	259	24	
2025-10-25T00:00	3500	654	-10.9	-10.9	258	24	
2025-10-25T00:00	3520	652	-11.0	-11.2	258	24	
2025-10-25T00:00	3540	651	-11.0	-11.4	258	24	
2025-10-25T00:00	3560	649	-11.1	-11.5	259	24	
2025-10-25T00:00	3580	647	-11.2	-11.5	259	24	
2025-10-25T00:00	3600	646	-11.3	-11.6	260	24	
2025-10-25T00:00	3620	644	-11.2	-12.0	261	24	
2025-10-25T00:00	3640	642	-11.3	-12.1	262	24	
2025-10-25T00:00	3660	640	-11.5	-12.1	262	23	
2025-10-25T00:00	3680	639	-11.6	-12.2	263	23	
2025-10-25T00:00	3700	638	-11.6	-12.7	263	23	
2025-10-25T00:00	3720	636	-11.8	-13.6	263	23	
2025-10-25T00:00	3740	634	-11.9	-13.9	262	23	
2025-10-25T00:00	3760	632	-12.1	-14.2	262	23	
2025-10-25T00:00	3780	631	-12.3	-14.4	261	23	
2025-10-25T00:00	3800	629	-12.4	-14.6	261	23	
2025-10-25T00:00	3820	627	-12.6	-15.0	261	23	
2025-10-25T00:00	3840	626	-12.7	-15.7	260	23	
2025-10-25T00:00	3860	624	-12.8	-16.1	260	23	
2025-10-25T00:00	3880	622	-12.9	-17.1	260	23	
2025-10-25T00:00	3900	621	-13.1	-17.9	260	23	
2025-10-25T00:00	3920	619	-13.0	-19.7	260	23	
2025-10-25T00:00	3940	618	-13.0	-20.8	260	23	
2025-10-25T00:00	3960	616	-13.2	-21.4	261	23	
2025-10-25T00:00	3980	614	-13.2	-22.6	262	23	
2025-10-25T00:00	4000	613	-13.2	-24.2	263	23	
2025-10-25T00:00	4020	611	-13.3	-25.0	264	23	
2025-10-25T00:00	4040	609	-13.4	-24.1	265	24	
2025-10-25T00:00	4060	608	-13.5	-23.5	266	24	
2025-10-25T00:00	4080	606	-13.7	-23.0	266	25	
2025-10-25T00:00	4100	605	-13.8	-22.1	266	25	
2025-10-25T00:00	4120	603	-13.9	-20.9	266	25	
2025-10-25T00:00	4140	601	-14.0	-20.5	266	25	
2025-10-25T00:00	4160	600	-14.1	-19.4	265	25	
2025-10-25T00:00	4180	598	-14.2	-18.9	265	25	
2025-10-25T00:00	4200	597	-14.3	-18.9	264	25	
2025-10-25T00:00	4220	595	-14.5	-18.8	264	25	
2025-10-25T00:00	4240	594	-14.7	-18.8	264	25	
2025-10-25T00:00	4260	592	-14.8	-18.5	265	25	
2025-10-25T00:00	4280	590	-14.8	-18.4	266	25	
2025-10-25T00:00	4300	589	-15.0	-18.5	266	25	
2025-10-25T00:00	4320	588	-15.2	-18.4	267	25	
2025-10-25T00:00	4340	586	-15.4	-18.4	268	25	
2025-10-25T00:00	4360	584	-15.6	-18.4	269	25	
2025-10-25T00:00	4380	583	-15.8	-18.2	270	24	
2025-10-25T00:00	4400	581	-15.9	-18.2	270	24	
2025-10-25T00:00	4420	580	-16.1	-18.2	271	24	
2025-10-25T00:00	4440	578	-16.3	-18.3	271	24	
2025-10-25T00:00	4460	577	-16.5	-18.6	271	25	
2025-10-25T00:00	4480	575	-16.7	-18.5	272	25	
2025-10-25T00:00	4500	574	-16.8	-18.4	272	25	
2025-10-25T00:00	4520	572	-17.0	-18.4	272	25	
2025-10-25T00:00	4540	570	-17.2	-18.5	272	26	
2025-10-25T00:00	4560	569	-17.4	-18.6	273	26	
2025-10-25T00:00	4580	568	-17.6	-18.6	273	26	
2025-10-25T00:00	4600	566	-17.8	-18.7	273	26	
2025-10-25T00:00	4620	564	-17.9	-18.7	273	25	
2025-10-25T00:00	4640	563	-18.1	-18.7	273	25	
2025-10-25T00:00	4660	561	-18.3	-18.8	273	25	
2025-10-25T00:00	4680	560	-18.5	-18.8	273	25	
2025-10-25T00:00	4700	559	-18.6	-18.9	272	25	
2025-10-25T00:00	4720	557	-18.8	-18.9	271	25	
2025-10-25T00:00	4740	555	-19.0	-19.1	271	25	
2025-10-25T00:00	4760	554	-19.2	-19.2	270	25	
2025-10-25T00:00	4780	552	-19.3	-19.4	270	25	
2025-10-25T00:00	4800	551	-19.5	-19.5	269	25	
2025-10-25T00:00	4820	549	-19.6	-19.6	269	25	
2025-10-25T00:00	4840	548	-19.7	-19.8	268	25	
2025-10-25T00:00	4860	547	-19.9	-20.0	268	25	
2025-10-25T00:00	4880	545	-20.0	-20.1	267	25	
2025-10-25T00:00	4900	544	-20.2	-20.2	267	25	
2025-10-25T00:00	4920	542	-20.4	-20.4	267	25	
2025-10-25T00:00	4940	541	-20.5	-20.6	268	25	
2025-10-25T00:00	4960	539	-20.8	-21.0	269	26	
2025-10-25T00:00	4980	538	-21.0	-21.1	269	26	
2025-10-25T00:00	5000	536	-21.1	-21.1	270	26	
2025-10-25T00:00	5020	535	-21.3	-21.3	270	26	
2025-10-25T00:00	5040	534	-21.6	-22.0	271	26	
2025-10-25T00:00	5060	532	-21.8	-22.2	271	26	
2025-10-25T00:00	5080	530	-22.0	-22.3	271	26	
2025-10-25T00:00	5100	529	-22.1	-22.3	271	26	
2025-10-25T00:00	5120	528	-22.3	-22.5	271	25	
2025-10-25T00:00	5140	526	-22.5	-22.6	272	25	
2025-10-25T00:00	5160	525	-22.6	-22.8	272	25	
2025-10-25T00:00	5180	523	-22.8	-22.8	273	25	
2025-10-25T00:00	5200	522	-22.9	-23.1	274	25	
2025-10-25T00:00	5220	521	-23.2	-23.3	275	25	
2025-10-25T00:00	5240	519	-23.4	-23.5	276	25	
2025-10-25T00:00	5260	518	-23.5	-23.7	277	25	
2025-10-25T00:00	5280	516	-23.7	-23.8	278	25	
2025-10-25T00:00	5300	515	-23.8	-24.3	278	25	
2025-10-25T00:00	5320	513	-23.9	-24.6	279	25	
2025-10-25T00:00	5340	512	-24.0	-24.9	280	25	
2025-10-25T00:00	5360	511	-24.1	-25.1	280	26	
2025-10-25T00:00	5380	509	-24.2	-25.6	281	26	
2025-10-25T00:00	5400	508	-24.3	-25.8	281	26	
2025-10-25T00:00	5420	506	-24.4	-26.2	282	26	
2025-10-25T00:00	5440	505	-24.5	-26.7	282	26	
2025-10-25T00:00	5460	504	-24.5	-27.3	282	26	
2025-10-25T00:00	5480	502	-24.7	-27.5	282	27	
2025-10-25T00:00	5500	501	-24.7	-27.6	282	27	
2025-10-25T00:00	5520	500	-24.9	-27.7	281	27	
2025-10-25T00:00	5540	498	-25.0	-27.9	281	28	
2025-10-25T00:00	5560	497	-25.2	-28.2	281	28	
2025-10-25T00:00	5580	495	-25.3	-28.5	280	29	
2025-10-25T00:00	5600	494	-25.5	-29.0	280	29	
2025-10-25T00:00	5620	493	-25.7	-29.4	281	30	
2025-10-25T00:00	5640	491	-25.8	-29.8	281	30	
2025-10-25T00:00	5660	490	-25.9	-30.0	282	30	
2025-10-25T00:00	5680	489	-26.1	-30.1	282	30	
2025-10-25T00:00	5700	487	-26.3	-30.3	283	30	
2025-10-25T00:00	5720	486	-26.5	-30.5	283	30	
2025-10-25T00:00	5740	485	-26.6	-31.4	283	30	
2025-10-25T00:00	5760	483	-26.8	-33.6	282	30	
2025-10-25T00:00	5780	482	-26.9	-35.2	282	30	
2025-10-25T00:00	5800	480	-27.0	-36.8	282	30	
2025-10-25T00:00	5820	479	-27.2	-37.3	282	30	
2025-10-25T00:00	5840	478	-27.3	-36.2	282	31	
2025-10-25T00:00	5860	477	-27.5	-35.4	283	31	
2025-10-25T00:00	5880	475	-27.6	-36.7	283	31	
2025-10-25T00:00	5900	474	-27.7	-38.7	283	32	
2025-10-25T00:00	5920	473	-27.7	-38.4	283	32	
2025-10-25T00:00	5940	471	-27.8	-38.1	283	33	
2025-10-25T00:00	5960	470	-27.9	-38.0	282	33	
2025-10-25T00:00	5980	469	-28.0	-38.3	281	34	
2025-10-25T00:00	6000	467	-28.1	-38.1	280	34	
2025-10-25T00:00	6020	466	-28.1	-38.3	280	35	
2025-10-25T00:00	6040	465	-28.2	-38.2	279	35	
2025-10-25T00:00	6060	464	-28.3	-38.2	279	36	
2025-10-25T00:00	6080	462	-28.3	-38.6	279	37	
2025-10-25T00:00	6100	461	-28.2	-39.2	280	38	
2025-10-25T00:00	6120	460	-28.0	-39.7	280	38	
2025-10-25T00:00	6140	458	-27.9	-39.6	281	39	
2025-10-25T00:00	6160	457	-28.0	-38.9	281	39	
2025-10-25T00:00	6180	456	-28.0	-38.5	282	39	
2025-10-25T00:00	6200	454	-28.2	-38.4	282	39	
2025-10-25T00:00	6220	453	-28.3	-38.3	281	40	
2025-10-25T00:00	6240	452	-28.4	-38.1	281	40	
2025-10-25T00:00	6260	451	-28.5	-38.0	281	41	
2025-10-25T00:00	6280	450	-28.6	-37.8	281	42	
2025-10-25T00:00	6300	448	-28.7	-37.2	281	43	
2025-10-25T00:00	6320	447	-28.8	-36.4	281	43	
2025-10-25T00:00	6340	446	-28.9	-35.4	281	44	
2025-10-25T00:00	6360	445	-28.9	-33.7	281	44	
2025-10-25T00:00	6380	443	-29.0	-32.6	280	45	
2025-10-25T00:00	6400	442	-29.0	-32.1	280	44	
2025-10-25T00:00	6420	441	-29.1	-31.9	280	44	
2025-10-25T00:00	6440	440	-29.2	-32.2	280	44	
2025-10-25T00:00	6460	438	-29.3	-33.0	279	43	
2025-10-25T00:00	6480	437	-29.4	-34.0	278	43	
2025-10-25T00:00	6500	436	-29.3	-36.6	277	42	
2025-10-25T00:00	6520	435	-29.2	-40.2	276	42	
2025-10-25T00:00	6540	433	-29.0	-42.7	276	42	
2025-10-25T00:00	6560	432	-28.9	-45.6	275	42	
2025-10-25T00:00	6580	431	-28.8	-47.4	275	42	
2025-10-25T00:00	6600	430	-28.9	-44.6	275	42	
2025-10-25T00:00	6620	429	-29.1	-41.9	275	42	
2025-10-25T00:00	6640	428	-29.3	-40.2	275	42	
2025-10-25T00:00	6660	426	-29.4	-39.5	275	41	
2025-10-25T00:00	6680	425	-29.6	-40.1	275	41	
2025-10-25T00:00	6700	424	-29.7	-44.0	275	41	
2025-10-25T00:00	6720	423	-29.9	-45.9	275	41	
2025-10-25T00:00	6740	422	-29.9	-48.5	275	41	
2025-10-25T00:00	6760	420	-29.9	-51.3	275	41	
2025-10-25T00:00	6780	419	-30.1	-52.0	275	41	
2025-10-25T00:00	6800	418	-30.3	-52.7	276	41	
2025-10-25T00:00	6820	417	-30.5	-53.0	276	41	
2025-10-25T00:00	6840	415	-30.7	-53.4	276	41	
2025-10-25T00:00	6860	414	-30.9	-54.4	276	40	
2025-10-25T00:00	6880	413	-31.0	-54.1	276	40	
2025-10-25T00:00	6900	412	-31.2	-53.0	276	40	
2025-10-25T00:00	6920	411	-31.3	-52.0	275	40	
2025-10-25T00:00	6940	410	-31.5	-51.9	275	40	
2025-10-25T00:00	6960	409	-31.7	-52.4	275	40	
2025-10-25T00:00	6980	408	-31.8	-51.9	275	40	
2025-10-25T00:00	7000	406	-31.9	-52.6	275	40	
2025-10-25T00:00	7020	405	-32.0	-53.0	276	40	
2025-10-25T00:00	7040	404	-32.1	-53.5	276	40	
2025-10-25T00:00	7060	403	-32.2	-53.2	276	40	
2025-10-25T00:00	7080	402	-32.4	-53.1	276	40	
2025-10-25T00:00	7100	400	-32.6	-53.1	276	40	
2025-10-25T00:00	7120	399	-32.8	-53.2	275	40	
2025-10-25T00:00	7140	398	-33.0	-53.7	275	40	
2025-10-25T00:00	7160	397	-33.1	-53.6	275	40	
2025-10-25T00:00	7180	396	-33.3	-52.8	275	40	
2025-10-25T00:00	7200	395	-33.4	-52.9	275	40	
2025-10-25T00:00	7220	394	-33.6	-53.5	274	40	
2025-10-25T00:00	7240	393	-33.8	-53.2	274	40	
2025-10-25T00:00	7260	392	-34.0	-53.2	274	40	
2025-10-25T00:00	7280	390	-34.2	-53.6	274	40	
2025-10-25T00:00	7300	389	-34.4	-53.3	275	40	
2025-10-25T00:00	7320	388	-34.6	-53.4	275	40	
2025-10-25T00:00	7340	387	-34.8	-53.2	275	40	
2025-10-25T00:00	7360	386	-35.0	-53.2	275	40	
2025-10-25T00:00	7380	385	-35.2	-53.9	275	40	
2025-10-25T00:00	7400	384	-35.3	-53.5	275	40	
2025-10-25T00:00	7420	383	-35.6	-53.2	275	41	
2025-10-25T00:00	7440	381	-35.8	-53.3	275	41	
2025-10-25T00:00	7460	380	-35.9	-53.2	275	41	
2025-10-25T00:00	7480	379	-36.1	-53.1	275	41	
2025-10-25T00:00	7500	378	-36.2	-53.1	275	41	
2025-10-25T00:00	7520	377	-36.4	-51.9	275	41	
2025-10-25T00:00	7540	376	-36.6	-51.4	275	41	
2025-10-25T00:00	7560	375	-36.7	-52.5	275	41	
2025-10-25T00:00	7580	374	-36.9	-52.7	275	41	
2025-10-25T00:00	7600	373	-37.0	-53.6	275	41	
2025-10-25T00:00	7620	372	-37.1	-49.6	275	41	
2025-10-25T00:00	7640	371	-37.3	-46.8	275	41	
2025-10-25T00:00	7660	370	-37.5	-45.5	276	41	
2025-10-25T00:00	7680	369	-37.6	-45.1	276	41	
2025-10-25T00:00	7700	367	-37.8	-46.8	276	41	
2025-10-25T00:00	7720	366	-37.9	-47.2	277	42	
2025-10-25T00:00	7740	365	-38.0	-46.6	277	42	
2025-10-25T00:00	7760	364	-38.2	-45.4	277	43	
2025-10-25T00:00	7780	363	-38.4	-44.0	277	43	
2025-10-25T00:00	7800	362	-38.5	-42.9	277	44	
2025-10-25T00:00	7820	361	-38.7	-43.0	276	44	
2025-10-25T00:00	7840	360	-38.8	-43.1	276	44	
2025-10-25T00:00	7860	359	-38.7	-42.0	275	44	
2025-10-25T00:00	7880	358	-38.4	-42.4	275	44	
2025-10-25T00:00	7900	357	-38.4	-44.3	275	44	
2025-10-25T00:00	7920	356	-38.4	-45.2	275	45	
2025-10-25T00:00	7940	355	-38.3	-45.6	275	45	
2025-10-25T00:00	7960	354	-38.4	-45.1	275	45	
2025-10-25T00:00	7980	353	-38.4	-46.0	275	45	
2025-10-25T00:00	8000	352	-38.4	-46.4	276	45	
2025-10-25T00:00	8020	351	-38.5	-45.6	276	45	
2025-10-25T00:00	8040	350	-38.7	-45.7	276	45	
2025-10-25T00:00	8060	349	-38.8	-45.5	276	45	
2025-10-25T00:00	8080	348	-38.9	-45.7	276	45	
2025-10-25T00:00	8100	347	-39.0	-45.4	276	45	
2025-10-25T00:00	8120	346	-39.1	-45.9	276	46	
2025-10-25T00:00	8140	345	-39.2	-46.2	276	46	
2025-10-25T00:00	8160	344	-39.3	-46.3	276	46	
2025-10-25T00:00	8180	343	-39.5	-46.5	275	46	
2025-10-25T00:00	8200	342	-39.6	-46.5	275	46	
2025-10-25T00:00	8220	341	-39.8	-46.7	275	46	
2025-10-25T00:00	8240	340	-39.9	-46.5	274	46	
2025-10-25T00:00	8260	339	-40.1	-46.5	274	47	
2025-10-25T00:00	8280	338	-40.3	-46.5	274	47	
2025-10-25T00:00	8300	337	-40.5	-46.3	273	47	
2025-10-25T00:00	8320	336	-40.6	-46.3	273	47	
2025-10-25T00:00	8340	335	-40.8	-46.1	273	47	
2025-10-25T00:00	8360	334	-41.1	-46.3	272	47	
2025-10-25T00:00	8380	333	-41.2	-46.5	272	47	
2025-10-25T00:00	8400	332	-41.4	-46.5	272	47	
2025-10-25T00:00	8420	331	-41.6	-46.5	272	46	
2025-10-25T00:00	8440	330	-41.8	-46.2	272	46	
2025-10-25T00:00	8460	329	-42.0	-46.3	272	46	
2025-10-25T00:00	8480	328	-42.2	-46.4	272	47	
2025-10-25T00:00	8500	327	-42.4	-46.5	273	47	
2025-10-25T00:00	8520	326	-42.6	-46.6	273	47	
2025-10-25T00:00	8540	325	-42.8	-46.6	273	47	
2025-10-25T00:00	8560	324	-42.9	-46.8	273	47	
2025-10-25T00:00	8580	323	-43.0	-46.5	273	47	
2025-10-25T00:00	8600	322	-43.0	-46.4	273	47	
2025-10-25T00:00	8620	321	-43.0	-48.3	272	47	
2025-10-25T00:00	8640	320	-43.0	-50.3	272	47	
2025-10-25T00:00	8660	319	-43.0	-51.4	272	47	
2025-10-25T00:00	8680	318	-43.2	-51.2	272	47	
2025-10-25T00:00	8700	317	-43.3	-51.2	272	47	
2025-10-25T00:00	8720	316	-43.4	-51.8	273	47	
2025-10-25T00:00	8740	316	-43.5	-51.6	273	47	
2025-10-25T00:00	8760	315	-43.6	-51.1	274	47	
2025-10-25T00:00	8780	314	-43.8	-50.6	274	47	
2025-10-25T00:00	8800	313	-44.0	-50.6	274	47	
2025-10-25T00:00	8820	312	-44.1	-50.5	275	47	
2025-10-25T00:00	8840	311	-44.3	-50.6	275	47	
2025-10-25T00:00	8860	310	-44.5	-51.0	275	47	
2025-10-25T00:00	8880	309	-44.6	-51.3	275	46	
2025-10-25T00:00	8900	308	-44.8	-51.4	275	46	
2025-10-25T00:00	8920	307	-45.0	-51.7	274	47	
2025-10-25T00:00	8940	306	-45.1	-51.4	274	47	
2025-10-25T00:00	8960	305	-45.3	-50.9	274	47	
2025-10-25T00:00	8980	304	-45.3	-51.0	274	47	
2025-10-25T00:00	9000	303	-45.4	-51.6	274	47	
2025-10-25T00:00	9020	303	-45.5	-52.1	273	47	
2025-10-25T00:00	9040	302	-45.6	-52.3	273	47	
2025-10-25T00:00	9060	301	-45.7	-52.7	273	47	
2025-10-25T00:00	9080	300	-45.8	-53.4	273	47	
2025-10-25T00:00	9100	299	-45.9	-53.4	272	47	
2025-10-25T00:00	9120	298	-46.1	-53.0	272	48	
2025-10-25T00:00	9140	297	-46.3	-52.9	272	48	
2025-10-25T00:00	9160	296	-46.5	-52.8	272	48	
2025-10-25T00:00	9180	295	-46.6	-52.6	272	48	
2025-10-25T00:00	9200	294	-46.8	-52.4	272	48	
2025-10-25T00:00	9220	294	-46.9	-52.7	272	48	
2025-10-25T00:00	9240	293	-47.0	-53.1	272	48	
2025-10-25T00:00	9260	292	-47.2	-53.4	273	48	
2025-10-25T00:00	9280	291	-47.4	-53.7	273	48	
2025-10-25T00:00	9300	290	-47.5	-53.8	273	48	
2025-10-25T00:00	9320	289	-47.7	-53.6	273	48	
2025-10-25T00:00	9340	288	-47.9	-53.7	273	48	
2025-10-25T00:00	9360	287	-48.0	-54.4	272	48	
2025-10-25T00:00	9380	287	-48.0	-54.8	272	48	
2025-10-25T00:00	9400	286	-48.1	-54.7	272	48	
2025-10-25T00:00	9420	285	-48.1	-54.6	271	48	
2025-10-25T00:00	9440	284	-48.3	-54.7	270	48	
2025-10-25T00:00	9460	283	-48.4	-54.7	270	48	
2025-10-25T00:00	9480	282	-48.6	-54.8	270	48	
2025-10-25T00:00	9500	281	-48.7	-55.2	269	48	
2025-10-25T00:00	9520	281	-48.7	-55.7	269	49	
2025-10-25T00:00	9540	280	-48.7	-56.3	269	49	
2025-10-25T00:00	9560	279	-48.7	-57.0	269	49	
2025-10-25T00:00	9580	278	-48.5	-57.5	269	49	
2025-10-25T00:00	9600	277	-48.6	-57.5	270	49	
2025-10-25T00:00	9620	276	-48.7	-57.5	270	49	
2025-10-25T00:00	9640	275	-48.8	-57.6	270	49	
2025-10-25T00:00	9660	275	-48.9	-57.6	269	49	
2025-10-25T00:00	9680	274	-49.1	-57.8	269	49	
2025-10-25T00:00	9700	273	-49.2	-58.0	269	49	
2025-10-25T00:00	9720	272	-49.3	-58.2	269	49	
2025-10-25T00:00	9740	271	-49.5	-58.3	269	49	
2025-10-25T00:00	9760	270	-49.6	-58.5	269	49	
2025-10-25T00:00	9780	270	-49.7	-58.9	270	49	
2025-10-25T00:00	9800	269	-49.6	-59.8	270	49	
2025-10-25T00:00	9820	268	-49.7	-60.7	270	49	
2025-10-25T00:00	9840	267	-49.9	-61.0	270	49	
2025-10-25T00:00	9860	266	-49.9	-61.3	270	49	
2025-10-25T00:00	9880	265	-50.0	-61.8	270	49	
2025-10-25T00:00	9900	265	-50.1	-62.9	270	49	
2025-10-25T00:00	9920	264	-50.3	-63.5	270	49	
2025-10-25T00:00	9940	263	-50.5	-63.7	270	48	
2025-10-25T00:00	9960	262	-50.6	-64.0	270	48	
2025-10-25T00:00	9980	262	-50.7	-64.2	270	48	
2025-10-25T00:00	10000	261	-50.9	-64.4	271	47	
2025-10-25T00:00	10018	260	-51.0	-64.8	271	47	
2025-10-25T00:00	10050	259	-50.6	-65.8	272	47	
2025-10-25T00:00	10100	257	-50.3	-65.2	273	46	
2025-10-25T00:00	10150	255	-50.2	-64.6	273	46	
2025-10-25T00:00	10200	253	-49.8	-65.6	273	46	
2025-10-25T00:00	10250	251	-49.7	-65.9	274	46	
2025-10-25T00:00	10300	249	-49.5	-65.8	275	46	
2025-10-25T00:00	10350	247	-49.1	-66.0	276	45	
2025-10-25T00:00	10400	245	-48.3	-67.8	276	43	
2025-10-25T00:00	10450	243	-47.7	-69.1	276	42	
2025-10-25T00:00	10500	241	-47.3	-69.1	276	41	
2025-10-25T00:00	10550	240	-47.2	-68.6	276	40	
2025-10-25T00:00	10600	238	-47.3	-68.8	276	40	
2025-10-25T00:00	10650	236	-47.3	-69.4	276	40	
2025-10-25T00:00	10700	234	-47.3	-69.8	275	39	
2025-10-25T00:00	10750	233	-47.6	-70.2	274	39	
2025-10-25T00:00	10800	231	-47.6	-70.2	272	39	
2025-10-25T00:00	10850	229	-47.8	-70.2	273	39	
2025-10-25T00:00	10900	227	-47.9	-70.6	274	39	
2025-10-25T00:00	10950	226	-48.0	-70.7	274	38	
2025-10-25T00:00	11000	224	-48.2	-71.7	274	37	
2025-10-25T00:00	11050	222	-48.1	-71.9	273	36	
2025-10-25T00:00	11100	220	-48.2	-71.8	272	36	
2025-10-25T00:00	11150	219	-48.5	-72.1	270	37	
2025-10-25T00:00	11200	217	-48.9	-72.4	269	37	
2025-10-25T00:00	11250	216	-49.3	-72.3	268	37	
2025-10-25T00:00	11300	214	-49.2	-72.6	268	37	
2025-10-25T00:00	11350	212	-49.2	-72.7	268	37	
2025-10-25T00:00	11400	211	-49.2	-72.7	268	36	
2025-10-25T00:00	11450	209	-49.4	-72.9	268	36	
2025-10-25T00:00	11500	208	-49.7	-73.3	269	36	
2025-10-25T00:00	11550	206	-49.7	-73.7	270	36	
2025-10-25T00:00	11600	204	-50.1	-73.9	272	35	
2025-10-25T00:00	11650	203	-50.3	-74.2	273	35	
2025-10-25T00:00	11700	201	-50.5	-74.2	274	35	
2025-10-25T00:00	11750	200	-50.7	-74.4	275	35	
2025-10-25T00:00	11800	198	-50.6	-74.6	275	36	
2025-10-25T00:00	11850	197	-50.7	-74.6	275	35	
2025-10-25T00:00	11900	195	-50.8	-75.0	274	35	
2025-10-25T00:00	11950	194	-50.7	-75.1	273	36	
2025-10-25T00:00	12000	192	-50.5	-74.7	272	37	
2025-10-25T00:00	12050	191	-50.6	-74.8	271	37	
2025-10-25T00:00	12100	189	-50.9	-75.3	271	36	
2025-10-25T00:00	12150	188	-51.0	-75.5	272	36	
2025-10-25T00:00	12200	186	-50.6	-75.6	272	36	
2025-10-25T00:00	12250	185	-50.3	-75.9	275	36	
2025-10-25T00:00	12300	184	-50.4	-75.9	276	36	
2025-10-25T00:00	12350	182	-50.6	-76.1	276	34	
2025-10-25T00:00	12400	181	-50.7	-76.1	275	33	
2025-10-25T00:00	12450	179	-51.0	-76.2	275	32	
2025-10-25T00:00	12500	178	-51.1	-76.4	274	31	
2025-10-25T00:00	12550	177	-50.8	-76.9	274	29	
2025-10-25T00:00	12600	175	-50.6	-76.9	273	28	
2025-10-25T00:00	12650	174	-50.7	-76.8	273	28	
2025-10-25T00:00	12700	173	-51.1	-77.1	274	28	
2025-10-25T00:00	12750	171	-51.5	-77.0	273	27	
2025-10-25T00:00	12800	170	-51.6	-77.5	271	27	
2025-10-25T00:00	12850	169	-51.7	-77.5	270	28	
2025-10-25T00:00	12900	167	-51.9	-77.5	269	28	
2025-10-25T00:00	12950	166	-52.1	-77.7	267	28	
2025-10-25T00:00	13000	165	-52.4	-78.0	266	28	
2025-10-25T00:00	13050	164	-52.8	-78.2	265	28	
2025-10-25T00:00	13100	162	-53.2	-78.2	264	28	
2025-10-25T00:00	13150	161	-53.5	-78.5	262	28	
2025-10-25T00:00	13200	160	-53.7	-78.8	261	28	
2025-10-25T00:00	13250	158	-53.8	-79.1	260	29	
2025-10-25T00:00	13300	157	-54.0	-78.9	259	28	
2025-10-25T00:00	13350	156	-54.2	-79.0	259	28	
2025-10-25T00:00	13400	155	-54.4	-79.2	259	28	
2025-10-25T00:00	13450	154	-54.4	-79.2	259	27	
2025-10-25T00:00	13500	152	-54.7	-79.3	258	27	
2025-10-25T00:00	13550	151	-55.1	-79.4	257	27	
2025-10-25T00:00	13600	150	-55.4	-79.7	258	28	
2025-10-25T00:00	13650	149	-55.6	-80.1	259	29	
2025-10-25T00:00	13700	148	-55.9	-80.2	260	30	
2025-10-25T00:00	13750	147	-56.0	-79.7	261	30	
2025-10-25T00:00	13800	145	-56.2	-79.8	263	31	
2025-10-25T00:00	13850	144	-56.4	-80.3	264	31	
2025-10-25T00:00	13900	143	-56.6	-80.8	265	32	
2025-10-25T00:00	13950	142	-56.8	-80.9	265	32	
2025-10-25T00:00	14000	141	-57.0	-80.8	266	33	
2025-10-25T00:00	14050	140	-57.2	-81.0	266	33	
2025-10-25T00:00	14100	139	-57.2	-81.1	266	33	
2025-10-25T00:00	14150	138	-57.5	-81.5	266	33	
2025-10-25T00:00	14200	137	-57.3	-81.7	267	32	
2025-10-25T00:00	14250	135	-57.5	-81.8	268	32	
2025-10-25T00:00	14300	134	-57.7	-81.9	268	32	
2025-10-25T00:00	14350	133	-58.0	-81.9	268	32	
2025-10-25T00:00	14400	132	-58.4	-82.0	268	33	
2025-10-25T00:00	14450	131	-58.5	-82.1	267	33	
2025-10-25T00:00	14500	130	-58.9	-82.3	266	34	
2025-10-25T00:00	14550	129	-59.0	-82.2	266	33	
2025-10-25T00:00	14600	128	-59.0	-82.2	266	33	
2025-10-25T00:00	14650	127	-59.3	-82.4	268	32	
2025-10-25T00:00	14700	126	-59.6	-82.6	270	32	
2025-10-25T00:00	14750	125	-59.8	-82.4	270	31	
2025-10-25T00:00	14800	124	-60.2	-82.5	270	30	
2025-10-25T00:00	14850	123	-60.5	-82.7	269	29	
2025-10-25T00:00	14900	122	-60.4	-82.9	268	29	
2025-10-25T00:00	14950	121	-60.1	-83.0	267	29	
2025-10-25T00:00	15000	120	-59.6	-82.8	267	29	
2025-10-25T00:00	15050	119	-59.6	-82.6	268	29	
2025-10-25T00:00	15100	118	-59.8	-82.5	269	28	
2025-10-25T00:00	15150	117	-60.1	-82.9	268	28	
2025-10-25T00:00	15200	116	-60.0	-83.0	268	27	
2025-10-25T00:00	15250	115	-59.7	-83.0	268	27	
2025-10-25T00:00	15300	115	-59.7	-82.9	268	27	
2025-10-25T00:00	15350	114	-60.1	-82.7	268	28	
2025-10-25T00:00	15400	113	-60.1	-82.5	270	29	
2025-10-25T00:00	15450	112	-60.0	-82.6	271	29	
2025-10-25T00:00	15500	111	-60.1	-82.9	273	29	
2025-10-25T00:00	15550	110	-60.1	-83.2	275	29	
2025-10-25T00:00	15600	109	-59.9	-83.1	276	29	
2025-10-25T00:00	15650	108	-60.0	-83.3	277	28	
2025-10-25T00:00	15700	107	-60.0	-83.2	276	28	
2025-10-25T00:00	15750	107	-60.0	-83.0	275	27	
2025-10-25T00:00	15800	106	-60.1	-82.9	274	27	
2025-10-25T00:00	15850	105	-60.6	-83.0	271	27	
2025-10-25T00:00	15900	104	-60.9	-83.1	269	27	
2025-10-25T00:00	15950	103	-60.7	-83.0	268	26	
2025-10-25T00:00	16000	102	-60.6	-83.4	269	26	
2025-10-25T00:00	16050	102	-60.7	-83.7	268	26	
2025-10-25T00:00	16100	101	-60.5	-83.7	267	26	
2025-10-25T00:00	16150	100	-60.6	-83.8	266	27	
2025-10-25T00:00	16200	99	-60.0	-83.7	266	28	
2025-10-25T00:00	16250	98	-60.0	-83.8	264	29	
2025-10-25T00:00	16300	98	-60.2	-83.9	263	30	
2025-10-25T00:00	16350	97	-60.0	-84.0	266	30	
2025-10-25T00:00	16400	96	-59.7	-84.0	269	29	
2025-10-25T00:00	16450	95	-59.6	-84.2	274	29	
2025-10-25T00:00	16500	94	-59.0	-83.9	278	28	
2025-10-25T00:00	16550	94	-59.0	-83.9	281	27	
2025-10-25T00:00	16600	93	-58.5	-83.7	282	26	
2025-10-25T00:00	16650	92	-58.4	-83.7	283	25	
2025-10-25T00:00	16700	91	-58.6	-83.5	284	25	
2025-10-25T00:00	16750	91	-58.9	-83.7	286	24	
2025-10-25T00:00	16800	90	-59.4	-83.8	286	23	
2025-10-25T00:00	16850	89	-59.7	-83.6	284	22	
2025-10-25T00:00	16900	89	-59.8	-83.1	280	22	
2025-10-25T00:00	16950	88	-60.1	-83.0	277	22	
2025-10-25T00:00	17000	87	-60.5	-83.3	276	23	
2025-10-25T00:00	17050	87	-60.9	-84.0	277	24	
2025-10-25T00:00	17100	86	-61.1	-84.4	279	24	
2025-10-25T00:00	17150	85	-61.1	-84.2	281	23	
2025-10-25T00:00	17200	84	-61.2	-84.1	282	22	
2025-10-25T00:00	17250	84	-61.2	-84.6	283	21	
2025-10-25T00:00	17300	83	-60.9	-85.2	282	22	
2025-10-25T00:00	17350	82	-60.2	-85.3	284	22	
2025-10-25T00:00	17400	82	-59.6	-85.1	285	22	
2025-10-25T00:00	17450	81	-59.1	-84.9	282	23	
2025-10-25T00:00	17500	80	-59.0	-84.9	279	24	
2025-10-25T00:00	17550	80	-58.5	-84.7	277	22	
2025-10-25T00:00	17600	79	-58.2	-84.5	277	21	
2025-10-25T00:00	17650	79	-58.1	-84.4	279	20	
2025-10-25T00:00	17700	78	-58.3	-84.4	280	20	
2025-10-25T00:00	17750	77	-58.4	-84.5	280	20	
2025-10-25T00:00	17800	77	-58.5	-84.4	280	20	
2025-10-25T00:00	17850	76	-58.8	-84.5	281	20	
2025-10-25T00:00	17900	76	-59.1	-84.6	282	20	
2025-10-25T00:00	17950	75	-59.1	-84.7	282	19	
2025-10-25T00:00	18000	74	-58.9	-84.6	282	18	
2025-10-25T00:00	18050	74	-58.9	-84.3	281	17	
2025-10-25T00:00	18100	73	-59.1	-83.9	279	16	
2025-10-25T00:00	18150	73	-59.0	-83.9	275	15	
2025-10-25T00:00	18200	72	-58.1	-83.8	266	13	
2025-10-25T00:00	18250	71	-57.9	-84.2	257	11	
2025-10-25T00:00	18300	71	-57.4	-84.1	245	10	
2025-10-25T00:00	18350	70	-57.5	-84.1	234	10	
2025-10-25T00:00	18400	70	-57.8	-84.1	226	11	
2025-10-25T00:00	18450	69	-58.0	-83.9	220	12	
2025-10-25T00:00	18500	69	-58.3	-83.9	216	12	
2025-10-25T00:00	18550	68	-58.8	-84.1	214	12	
2025-10-25T00:00	18600	68	-59.3	-84.3	213	12	
2025-10-25T00:00	18650	67	-59.8	-84.6	213	11	
2025-10-25T00:00	18700	66	-60.2	-84.7	213	11	
2025-10-25T00:00	18750	66	-60.7	-84.8	215	12	
2025-10-25T00:00	18800	65	-61.1	-85.0	219	12	
2025-10-25T00:00	18850	65	-61.6	-85.3	228	13	
2025-10-25T00:00	18900	64	-61.9	-85.7	237	13	
2025-10-25T00:00	18950	64	-61.5	-85.5	244	13	
2025-10-25T00:00	19000	63	-61.3	-85.4	249	13	
2025-10-25T00:00	19050	63	-61.7	-85.6	252	13	
2025-10-25T00:00	19100	62	-62.1	-85.7	253	13	
2025-10-25T00:00	19150	62	-62.5	-85.8	256	13	
2025-10-25T00:00	19200	61	-62.8	-86.1	262	14	
2025-10-25T00:00	19250	61	-62.8	-86.1	267	14	
2025-10-25T00:00	19300	60	-62.6	-86.1	267	13	
2025-10-25T00:00	19350	60	-62.7	-86.2	267	12	
2025-10-25T00:00	19400	59	-63.0	-86.2	270	11	
2025-10-25T00:00	19450	59	-63.4	-86.3	274	10	
2025-10-25T00:00	19500	58	-63.8	-86.5	278	9	
2025-10-25T00:00	19550	58	-63.9	-86.6	279	10	
2025-10-25T00:00	19600	57	-63.8	-86.7	276	12	
2025-10-25T00:00	19650	57	-63.7	-86.6	271	13	
2025-10-25T00:00	19700	57	-63.7	-86.6	266	15	
2025-10-25T00:00	19750	56	-64.0	-86.7	263	16	
2025-10-25T00:00	19800	56	-64.1	-86.8	263	17	
2025-10-25T00:00	19850	55	-64.2	-86.8	262	18	
2025-10-25T00:00	19900	55	-64.2	-86.7	260	19	
2025-10-25T00:00	19950	54	-64.6	-86.8	258	20	
2025-10-25T00:00	20000	54	-64.9	-86.9	258	20	
2025-10-25T00:00	20050	53	-65.3		259	20	
2025-10-25T00:00	20100	53	-65.5		261	20	
2025-10-25T00:00	20150	53	-65.7		262	20	
2025-10-25T00:00	20200	52	-65.8		262	21	
2025-10-25T00:00	20250	52	-66.0		263	21	
2025-10-25T00:00	20300	51	-66.3		263	22	
2025-10-25T00:00	20350	51	-66.4		263	25	
2025-10-25T00:00	20400	50	-66.0		265	27	
2025-10-25T00:00	20450	50	-64.2		267	28	
2025-10-25T00:00	20500	50	-62.1		270	27	
2025-10-25T00:00	20550	49	-61.7		272	25	
2025-10-25T00:00	20600	49	-60.6		270	24	
2025-10-25T00:00	20650	48	-59.2		270	21	
2025-10-25T00:00	20700	48	-58.4		270	18	
2025-10-25T00:00	20750	48	-57.5		269	16	
2025-10-25T00:00	20800	47	-57.3		266	15	
2025-10-25T00:00	20850	47	-57.2		259	15	
2025-10-25T00:00	20900	47	-56.7		253	15	
2025-10-25T00:00	20950	46	-56.8		249	16	
2025-10-25T00:00	21000	46	-57.2		246	16	
2025-10-25T00:00	21050	45	-57.6		244	17	
2025-10-25T00:00	21100	45	-57.7		243	18	
2025-10-25T00:00	21150	45	-58.0		241	18	
2025-10-25T00:00	21200	44	-58.4		239	18	
2025-10-25T00:00	21250	44	-58.8		239	19	
2025-10-25T00:00	21300	44	-59.3		240	19	
2025-10-25T00:00	21350	43	-59.7		241	20	
2025-10-25T00:00	21400	43	-60.1		241	20	
2025-10-25T00:00	21450	43	-60.5		241	21	
2025-10-25T00:00	21500	42	-60.8		241	21	
2025-10-25T00:00	21550	42	-61.2		241	22	
2025-10-25T00:00	21600	42	-61.5		242	22	
2025-10-25T00:00	21650	41	-61.4		243	22	
2025-10-25T00:00	21700	41	-61.7		245	21	
2025-10-25T00:00	21750	41	-61.7		248	20	
2025-10-25T00:00	21800	40	-62.1		251	20	
2025-10-25T00:00	21850	40	-62.4		254	20	
2025-10-25T00:00	21900	40	-62.8		260	20	
2025-10-25T00:00	21950	39	-62.7		265	20	
2025-10-25T00:00	22000	39	-62.0		270	20	
2025-10-25T00:00	22050	39	-61.9		273	19	
2025-10-25T00:00	22100	38	-61.6		273	19	
2025-10-25T00:00	22150	38	-61.6		271	19	
2025-10-25T00:00	22200	38	-61.6		267	19	
2025-10-25T00:00	22250	37	-61.3		266	20	
2025-10-25T00:00	22300	37	-61.1		267	20	
2025-10-25T00:00	22350	37	-60.8		268	20	
2025-10-25T00:00	22400	37	-60.1		266	20	
2025-10-25T00:00	22450	36	-59.3		264	20	
2025-10-25T00:00	22500	36	-59.4		263	20	
2025-10-25T00:00	22550	36	-59.0		264	20	
2025-10-25T00:00	22600	35	-58.8		263	20	
2025-10-25T00:00	22650	35	-58.3		262	21	
2025-10-25T00:00	22700	35	-58.5		264	21	
2025-10-25T00:00	22750	35	-58.7		268	21	
2025-10-25T00:00	22800	34	-58.5		272	21	
2025-10-25T00:00	22850	34	-58.3		276	22	
2025-10-25T00:00	22900	34	-58.5		278	22	
2025-10-25T00:00	22950	33	-58.9		281	22	
2025-10-25T00:00	23000	33	-59.0		283	22	
2025-10-25T00:00	23050	33	-58.7		285	21	
2025-10-25T00:00	23100	33	-58.4		286	19	
2025-10-25T00:00	23150	32	-58.7		285	18	
2025-10-25T00:00	23200	32	-58.8		283	16	
2025-10-25T00:00	23250	32	-58.5		282	15	
2025-10-25T00:00	23300	32	-58.6		283	14	
2025-10-25T00:00	23350	31	-58.7		281	13	
2025-10-25T00:00	23400	31	-58.7		278	13	
2025-10-25T00:00	23450	31	-58.2		273	13	
2025-10-25T00:00	23500	31	-58.3		267	14	
2025-10-25T00:00	23550	30	-57.9		262	16	
2025-10-25T00:00	23600	30	-58.1		259	17	
2025-10-25T00:00	23650	30	-58.4		256	18	
2025-10-25T00:00	23700	30	-58.6		252	19	
2025-10-25T00:00	23750	29	-58.6		248	20	
2025-10-25T00:00	23800	29	-58.0		247	20	
2025-10-25T00:00	23850	29	-58.1		249	20	
2025-10-25T00:00	23900	29	-58.5		252	20	
2025-10-25T00:00	23950	29	-58.6		256	20	
2025-10-25T00:00	24000	28	-58.6		259	21	
2025-10-25T00:00	24050	28	-58.6		261	21	
2025-10-25T00:00	24100	28	-58.6		259	22	
2025-10-25T00:00	24150	28	-58.4		257	22	
2025-10-25T00:00	24200	27	-58.2		255	22	
2025-10-25T00:00	24250	27	-57.6		255	23	
2025-10-25T00:00	24300	27	-57.1		256	25	
2025-10-25T00:00	24350	27	-57.1		257	26	
2025-10-25T00:00	24400	27	-57.4		257	27	
2025-10-25T00:00	24450	26	-57.3		256	26	
2025-10-25T00:00	24500	26	-56.8		255	26	
2025-10-25T00:00	24550	26	-57.1		255	25	
2025-10-25T00:00	24600	26	-57.1		255	25	
2025-10-25T00:00	24650	26	-56.9		256	26	
2025-10-25T00:00	24700	25	-57.1		259	26	
2025-10-25T00:00	24750	25	-56.8		262	26	
2025-10-25T00:00	24800	25	-56.9		264	25	
2025-10-25T00:00	24850	25	-56.8		267	26	
2025-10-25T00:00	24900	25	-56.3		269	26	
2025-10-25T00:00	24950	24	-56.4		270	26	
2025-10-25T00:00	25000	24	-56.5		272	26	
2025-10-25T00:00	25050	24	-56.4		273	25	
2025-10-25T00:00	25100	24	-56.4		273	24	
2025-10-25T00:00	25150	24	-56.1		273	23	
2025-10-25T00:00	25200	23	-56.0		271	22	
2025-10-25T00:00	25250	23	-56.2		270	22	
2025-10-25T00:00	25300	23	-56.3		270	23	
2025-10-25T00:00	25350	23	-56.3		270	25	
2025-10-25T00:00	25400	23	-56.0		271	26	
2025-10-25T00:00	25450	23	-55.3		272	26	
2025-10-25T00:00	25500	22	-54.9		274	25	
2025-10-25T00:00	25550	22	-55.0		275	25	
2025-10-25T00:00	25600	22	-54.9		274	25	
2025-10-25T00:00	25650	22	-54.9		272	26	
2025-10-25T00:00	25700	22	-54.7		269	27	
2025-10-25T00:00	25750	22	-54.2		267	28	
2025-10-25T00:00	25800	21	-54.2		265	29	
2025-10-25T00:00	25850	21	-53.8		265	29	
2025-10-25T00:00	25900	21	-54.0		265	29	
2025-10-25T00:00	25950	21	-54.5		264	29	
2025-10-25T00:00	26000	21	-54.9		263	29	
2025-10-25T00:00	26050	21	-55.2		262	29	
2025-10-25T00:00	26100	20	-55.2		263	29	
2025-10-25T00:00	26150	20	-55.2		264	30	
2025-10-25T00:00	26200	20	-55.6		264	30	
2025-10-25T00:00	26250	20	-56.0		263	29	
2025-10-25T00:00	26300	20	-56.0		261	27	
2025-10-25T00:00	26350	20	-56.1		258	25	
2025-10-25T00:00	26400	19	-56.0		254	24	
2025-10-25T00:00	26450	19	-55.3		251	24	
2025-10-25T00:00	26500	19	-54.9		249	24	
2025-10-25T00:00	26550	19	-54.7		248	25	
2025-10-25T00:00	26600	19	-54.5		248	26	
2025-10-25T00:00	26650	19	-54.3		249	27	
2025-10-25T00:00	26700	19	-54.2		251	28	
2025-10-25T00:00	26750	18	-54.3		251	29	
2025-10-25T00:00	26800	18	-53.9		252	29	
2025-10-25T00:00	26850	18	-53.8		254	29	
2025-10-25T00:00	26900	18	-53.6		257	29	
2025-10-25T00:00	26950	18	-53.3		259	29	
2025-10-25T00:00	27000	18	-53.6		261	30	
2025-10-25T00:00	27050	18	-53.8		262	31	
2025-10-25T00:00	27100	17	-54.2		262	32	
2025-10-25T00:00	27150	17	-54.6		262	32	
2025-10-25T00:00	27200	17	-54.9		262	33	
2025-10-25T00:00	27250	17	-54.8		264	32	
2025-10-25T00:00	27300	17	-54.9		265	31	
2025-10-25T00:00	27350	17	-55.1		267	30	
2025-10-25T00:00	27400	17	-54.8		268	29	
2025-10-25T00:00	27450	16	-54.4		267	28	
2025-10-25T00:00	27500	16	-53.8		264	28	
2025-10-25T00:00	27550	16	-53.5		260	27	
2025-10-25T00:00	27600	16	-53.2		257	27	
2025-10-25T00:00	27650	16	-53.2		255	27	
2025-10-25T00:00	27700	16	-53.3		254	28	
2025-10-25T00:00	27750	16	-53.1		255	30	
2025-10-25T00:00	27800	16	-52.6		256	30	
2025-10-25T00:00	27850	15	-52.4		257	31	
2025-10-25T00:00	27900	15	-52.4		256	31	
2025-10-25T00:00	27950	15	-52.4		255	30	
2025-10-25T00:00	28000	15	-52.1		253	29	
2025-10-25T00:00	28050	15	-52.4		252	28	
2025-10-25T00:00	28100	15	-52.5		251	28	
2025-10-25T00:00	28150	15	-52.1		252	28	
2025-10-25T00:00	28200	15	-52.2		254	29	
2025-10-25T00:00	28250	15	-52.4		254	29	
2025-10-25T00:00	28300	14	-52.5		255	28	
2025-10-25T00:00	28350	14	-52.7		255	28	
2025-10-25T00:00	28400	14	-52.7		255	28	
2025-10-25T00:00	28450	14	-52.4		255	29	
2025-10-25T00:00	28500	14	-52.3		254	29	
2025-10-25T00:00	28550	14	-51.7		253	30	
2025-10-25T00:00	28600	14	-51.7		252	29	
2025-10-25T00:00	28650	14	-52.0		252	29	
2025-10-25T00:00	28700	14	-52.4		252	29	
2025-10-25T00:00	28750	13	-52.8		251	29	
2025-10-25T00:00	28800	13	-53.1		250	30	
2025-10-25T00:00	28850	13	-53.1		249	30	
2025-10-25T00:00	28900	13	-53.2		249	31	
2025-10-25T00:00	28950	13	-53.1		248	31	
2025-10-25T00:00	29000	13	-53.2		247	32	
2025-10-25T00:00	29050	13	-53.4		247	32	
2025-10-25T00:00	29100	13	-53.5		248	33	
2025-10-25T00:00	29150	13	-53.6		249	34	
2025-10-25T00:00	29200	13	-53.8		250	35	
2025-10-25T00:00	29250	12	-53.9		250	36	
2025-10-25T00:00	29300	12	-54.0		251	37	
2025-10-25T00:00	29350	12	-53.6		251	38	
2025-10-25T00:00	29400	12	-53.6		251	40	
2025-10-25T00:00	29450	12	-53.6		251	41	
2025-10-25T00:00	29500	12	-53.8		251	43	
2025-10-25T00:00	29550	12	-54.1		251	44	
2025-10-25T00:00	29600	12	-54.2		251	44	
2025-10-25T00:00	29650	12	-53.8		252	43	
2025-10-25T00:00	29700	12	-54.1		253	42	
2025-10-25T00:00	29750	12	-54.5		254	42	
2025-10-25T00:00	29800	11	-54.8		256	41	
2025-10-25T00:00	29850	11	-54.8		259	41	
2025-10-25T00:00	29900	11	-54.9		261	40	
2025-10-25T00:00	29950	11	-54.5		264	40	
2025-10-25T00:00	30000	11	-53.8		266	40	
2025-10-25T00:00	30050	11	-53.8		267	41	
2025-10-25T00:00	30100	11	-53.6		266	41	
2025-10-25T00:00	30150	11	-53.4		263	42	
2025-10-25T00:00	30200	11	-53.3		261	44	
2025-10-25T00:00	30250	11	-53.1		259	45	
2025-10-25T00:00	30300	11	-53.4		258	47	
2025-10-25T00:00	30350	11	-53.5		258	47	
2025-10-25T00:00	30400	10	-52.7		259	47	
2025-10-25T00:00	30450	10	-52.8		260	46	
2025-10-25T00:00	30500	10	-52.9		261	46	
2025-10-25T00:00	30550	10	-53.2		262	45	
2025-10-25T00:00	30600	10	-53.4		262	45	
2025-10-25T00:00	30650	10	-52.9		261	45	
2025-10-25T00:00	30700	10	-52.9		260	45	
2025-10-25T00:00	30750	10	-52.9		259	45	
2025-10-25T00:00	30800	10	-52.5		258	46	
2025-10-25T00:00	30850	10	-51.7		258	47	
2025-10-25T00:00	30900	10	-51.4		258	48	
2025-10-25T00:00	30950	10	-51.1		258	48	
2025-10-25T00:00	31000	9	-50.8		259	49	
2025-10-25T00:00	31050	9	-51.0		259	49	
2025-10-25T00:00	31100	9	-51.3		260	49	
2025-10-25T00:00	31150	9	-51.4		261	49	
2025-10-25T00:00	31200	9	-51.3		262	49	
2025-10-25T00:00	31250	9	-51.1		262	49	
2025-10-25T00:00	31300	9	-50.9		263	49	
2025-10-25T00:00	31350	9	-50.9		263	49	
2025-10-25T00:00	31400	9	-50.0		263	49	
2025-10-25T00:00	31450	9	-49.5		263	48	
2025-10-25T00:00	31500	9	-49.3		263	48	
2025-10-25T00:00	31550	9	-48.9		263	47	
2025-10-25T00:00	31600	9	-48.4		265	46	
2025-10-25T00:00	31650	9	-47.6		267	46	
2025-10-25T00:00	31700	9	-46.9		269	45	
2025-10-25T00:00	31750	8	-46.8		271	43	
2025-10-25T00:00	31800	8	-46.6		273	42	
2025-10-25T00:00	31850	8	-46.2		273	41	
2025-10-25T00:00	31900	8	-46.1		272	42	
2025-10-25T00:00	31950	8	-46.2		270	43	
2025-10-25T00:00	32000	8	-46.1		269	43	
2025-10-25T00:00	32050	8	-46.1		269	43	
2025-10-25T00:00	32100	8	-45.8		269	42	
2025-10-25T00:00	32150	8	-45.6		269	42	
2025-10-25T00:00	32200	8	-45.4		269	42	
2025-10-25T00:00	32250	8	-45.5		268	41	
2025-10-25T00:00	32300	8	-45.4		268	40	
2025-10-25T00:00	32350	8	-45.4		267	39	
2025-10-25T00:00	32400	8	-45.6		265	38	
2025-10-25T00:00	32450	8	-45.8		264	37	
2025-10-25T00:00	32500	8	-46.0		262	37	
2025-10-25T00:00	32550	8	-46.2		260	38	
2025-10-25T00:00	32600	7	-45.8		259	39	
2025-10-25T00:00	32650	7	-45.7		258	41	
2025-10-25T00:00	32700	7	-45.9		257	42	
2025-10-25T00:00	32750	7	-46.0		256	42	
2025-10-25T00:00	32800	7	-46.2		255	42	
2025-10-25T00:00	32850	7	-46.4		255	42	
2025-10-25T00:00	32900	7	-46.6		254	41	
2025-10-25T00:00	32950	7	-46.9		253	40	
2025-10-25T00:00	33000	7	-47.3		252	39	
2025-10-25T00:00	33050	7	-47.3		250	38	
2025-10-25T00:00	33100	7	-47.4		248	38	
2025-10-25T00:00	33150	7	-47.4		246	38	
2025-10-25T00:00	33200	7	-47.6		244	38	
2025-10-25T00:00	33250	7	-47.6		243	38	
2025-10-25T00:00	33300	7	-47.6		242	39	
2025-10-25T00:00	33350	7	-47.9		241	39	
2025-10-25T00:00	33400	7	-48.2		240	39	
2025-10-25T00:00	33450	7	-48.5		240	39	
2025-10-25T00:00	33500	7	-48.8		241	40	
2025-10-25T00:00	33550	6	-49.0		243	40	
2025-10-25T00:00	33600	6	-48.7		245	41	
2025-10-25T00:00	33650	6	-48.8		247	42	
2025-10-25T00:00	33700	6	-49.1		249	42	
2025-10-25T00:00	33750	6	-49.4		251	42	
2025-10-25T00:00	33800	6	-49.5		253	43	
2025-10-25T00:00	33850	6	-49.0		253	43	
2025-10-25T00:00	33900	6	-48.5		251	43	
2025-10-25T00:00	33950	6	-48.7		249	42	
2025-10-25T00:00	34000	6	-48.7		247	42	
2025-10-25T00:00	34050	6	-48.5		246	42	
2025-10-25T00:00	34100	6	-48.4		245	42	
2025-10-25T00:00	34150	6	-48.5		245	42	
2025-10-25T00:00	34200	6	-48.4		247	42	
2025-10-25T00:00	34250	6	-48.3		249	43	
2025-10-25T00:00	34300	6	-48.4		251	44	
2025-10-25T00:00	34350	6	-48.5		253	44	
2025-10-25T00:00	34400	6	-48.5		254	45	
2025-10-25T00:00	34450	6	-48.2		254	45	
2025-10-25T00:00	34500	6	-48.4		254	46	
2025-10-25T00:00	34550	6	-48.4		255	46	
2025-10-25T00:00	34600	6	-48.3		254	46	
2025-10-25T00:00	34650	5	-48.4		254	47	
2025-10-25T00:00	34700	5	-48.7		253	47	
2025-10-25T00:00	34750	5	-48.9		253	48	
2025-10-25T00:00	34800	5	-48.9		253	48	
2025-10-25T00:00	34850	5	-48.6		254	48	
2025-10-25T00:00	34900	5	-48.6		255	48	
2025-10-25T00:00	34950	5	-48.9		256	48	
2025-10-25T00:00	35000	5	-49.2		257	48	
2025-10-25T00:00	35050	5	-49.2		257	48	
2025-10-25T00:00	35100	5	-49.2		257	49	
2025-10-25T00:00	35150	5	-49.4		257	50	
2025-10-25T00:00	35200	5	-49.5		257	51	
2025-10-25T00:00	35250	5	-49.7		257	52	
2025-10-25T00:00	35300	5	-49.6		256	53	
2025-10-25T00:00	35350	5	-49.5		254	54	
2025-10-25T00:00	35400	5	-48.9		254	54	
2025-10-25T00:00	35450	5	-48.5		255	53	
2025-10-25T00:00	35500	5	-48.5		255	53	
2025-10-25T00:00	35550	5	-47.9		254	54	
2025-10-25T00:00	35600	5	-47.2		253	56	
2025-10-25T00:00	35650	5	-45.9		254	57	
2025-10-25T00:00	35700	5	-45.7		256	58	
2025-10-25T00:00	35750	5	-45.1		257	58	
2025-10-25T00:00	35800	5	-45.0		258	58	
2025-10-25T00:00	35850	5	-44.5		259	58	
2025-10-25T00:00	35900	5	-44.2		260	57	
2025-10-25T00:00	35950	4	-44.5		262	56	
2025-10-25T00:00	36000	4	-44.8		263	56	
2025-10-25T00:00	36050	4	-44.9		264	57	
2025-10-25T00:00	36100	4	-45.1		264	58	
2025-10-25T00:00	36150	4	-45.2		264	58	
2025-10-25T00:00	36200	4	-45.1		263	58	
2025-10-25T00:00	36250	4	-45.1		263	58	
2025-10-25T00:00	36300	4	-45.2		263	57	
2025-10-25T00:00	36350	4	-45.4		263	57	
2025-10-25T00:00	36400	4	-45.7		263	56	
2025-10-25T00:00	36450	4	-46.0		262	56	
2025-10-25T00:00	36500	4	-46.1		262	56	
2025-10-25T00:00	36550	4	-45.9		261	57	
2025-10-25T00:00	36600	4	-45.8		261	57	
2025-10-25T00:00	36650	4	-45.6		261	58	
2025-10-25T00:00	36700	4	-45.5		261	58	
2025-10-25T00:00	36750	4	-45.2		261	58	
2025-10-25T12:00	491	951	10.9	8.6	220	4	
2025-10-25T12:00	501	949	10.6	8.6	215	5	
2025-10-25T12:00	520	948	10.5	8.5	213	6	
2025-10-25T12:00	540	946	10.3	8.0	213	7	
2025-10-25T12:00	560	943	10.2	7.6	213	9	
2025-10-25T12:00	580	941	10.1	7.5	213	11	
2025-10-25T12:00	600	939	9.9	7.3	213	12	
2025-10-25T12:00	620	937	9.8	7.3	214	12	
2025-10-25T12:00	640	935	9.6	7.2	214	13	
2025-10-25T12:00	660	932	9.3	7.3	215	13	
2025-10-25T12:00	680	930	9.2	7.1	217	13	
2025-10-25T12:00	700	928	9.0	7.0	219	13	
2025-10-25T12:00	720	925	8.9	7.0	222	13	
2025-10-25T12:00	740	923	8.8	6.7	223	14	
2025-10-25T12:00	760	921	8.8	6.5	224	15	
2025-10-25T12:00	780	919	8.7	6.2	225	15	
2025-10-25T12:00	800	917	8.4	6.3	225	16	
2025-10-25T12:00	820	914	8.3	6.1	224	16	
2025-10-25T12:00	840	912	8.1	6.1	223	17	
2025-10-25T12:00	860	910	7.9	6.1	223	17	
2025-10-25T12:00	880	908	7.7	5.9	223	17	
2025-10-25T12:00	900	906	7.5	5.8	223	17	
2025-10-25T12:00	920	904	7.4	5.8	224	17	
2025-10-25T12:00	940	901	7.3	5.5	225	17	
2025-10-25T12:00	960	899	7.1	5.4	226	17	
2025-10-25T12:00	980	897	7.0	5.2	226	16	
2025-10-25T12:00	1000	895	6.8	5.2	227	16	
2025-10-25T12:00	1020	893	6.5	5.3	227	16	
2025-10-25T12:00	1040	890	6.4	5.1	228	16	
2025-10-25T12:00	1060	888	6.3	4.9	228	17	
2025-10-25T12:00	1080	886	6.1	5.0	229	17	
2025-10-25T12:00	1100	884	6.1	4.3	229	17	
2025-10-25T12:00	1120	882	6.0	4.0	229	17	
2025-10-25T12:00	1140	880	6.0	3.8	230	18	
2025-10-25T12:00	1160	878	5.9	3.8	230	17	
2025-10-25T12:00	1180	875	5.7	3.7	231	17	
2025-10-25T12:00	1200	873	5.5	3.7	232	17	
2025-10-25T12:00	1220	871	5.4	3.6	234	17	
2025-10-25T12:00	1240	869	5.3	3.4	235	17	
2025-10-25T12:00	1260	867	5.2	3.3	237	17	
2025-10-25T12:00	1280	865	5.0	3.3	238	16	
2025-10-25T12:00	1300	863	4.9	3.1	239	16	
2025-10-25T12:00	1320	861	4.8	3.1	240	16	
2025-10-25T12:00	1340	858	4.7	3.0	240	16	
2025-10-25T12:00	1360	856	4.5	3.0	241	16	
2025-10-25T12:00	1380	854	4.3	2.8	241	16	
2025-10-25T12:00	1400	852	4.2	2.8	242	16	
2025-10-25T12:00	1420	850	4.0	2.8	242	15	
2025-10-25T12:00	1440	848	3.8	2.6	243	15	
2025-10-25T12:00	1460	846	3.7	2.4	243	15	
2025-10-25T12:00	1480	844	3.5	2.4	244	15	
2025-10-25T12:00	1500	841	3.3	2.4	245	15	
2025-10-25T12:00	1520	839	3.1	2.3	245	15	
2025-10-25T12:00	1540	837	3.0	2.2	246	14	
2025-10-25T12:00	1560	835	2.8	2.2	246	15	
2025-10-25T12:00	1580	833	2.6	2.1	246	14	
2025-10-25T12:00	1600	831	2.4	2.1	245	15	
2025-10-25T12:00	1620	829	2.2	2.0	245	15	
2025-10-25T12:00	1640	827	2.1	1.8	244	14	
2025-10-25T12:00	1660	825	1.9	1.6	244	14	
2025-10-25T12:00	1680	823	1.7	1.4	243	14	
2025-10-25T12:00	1700	821	1.6	1.3	243	14	
2025-10-25T12:00	1720	819	1.4	1.1	243	14	
2025-10-25T12:00	1740	817	1.2	1.0	242	15	
2025-10-25T12:00	1760	815	1.0	1.0	240	15	
2025-10-25T12:00	1780	813	0.9	0.7	239	15	
2025-10-25T12:00	1800	811	0.8	0.6	237	16	
2025-10-25T12:00	1820	809	0.8	0.4	236	16	
2025-10-25T12:00	1840	807	0.6	0.4	238	16	
2025-10-25T12:00	1860	805	0.4	0.3	240	16	
2025-10-25T12:00	1880	803	0.2	0.2	243	16	
2025-10-25T12:00	1900	801	0.1	0.1	245	16	
2025-10-25T12:00	1920	799	0.0	0.0	247	16	
2025-10-25T12:00	1940	797	0.0	0.0	247	17	
2025-10-25T12:00	1960	795	-0.1	-0.1	247	17	
2025-10-25T12:00	1980	793	-0.2	-0.2	246	17	
2025-10-25T12:00	2000	791	-0.3	-0.3	246	17	
2025-10-25T12:00	2020	789	-0.4	-0.4	245	17	
2025-10-25T12:00	2040	787	-0.5	-0.5	245	17	
2025-10-25T12:00	2060	785	-0.6	-0.6	245	17	
2025-10-25T12:00	2080	783	-0.7	-0.7	244	17	
2025-10-25T12:00	2100	781	-0.7	-0.7	243	17	
2025-10-25T12:00	2120	779	-0.8	-0.8	243	17	
2025-10-25T12:00	2140	777	-1.0	-1.0	243	18	
2025-10-25T12:00	2160	775	-1.1	-1.1	243	18	
2025-10-25T12:00	2180	773	-1.2	-1.2	244	18	
2025-10-25T12:00	2200	771	-1.3	-1.3	246	18	
2025-10-25T12:00	2220	770	-1.4	-1.4	247	18	
2025-10-25T12:00	2240	768	-1.5	-1.5	248	18	
2025-10-25T12:00	2260	766	-1.6	-1.6	248	18	
2025-10-25T12:00	2280	764	-1.7	-1.7	248	18	
2025-10-25T12:00	2300	762	-1.8	-1.8	249	18	
2025-10-25T12:00	2320	760	-1.9	-1.9	250	18	
2025-10-25T12:00	2340	758	-2.0	-2.0	251	18	
2025-10-25T12:00	2360	756	-2.1	-2.1	251	18	
2025-10-25T12:00	2380	754	-2.2	-2.2	251	18	
2025-10-25T12:00	2400	752	-2.3	-2.4	251	19	
2025-10-25T12:00	2420	751	-2.4	-2.5	251	19	
2025-10-25T12:00	2440	749	-2.6	-2.6	251	19	
2025-10-25T12:00	2460	747	-2.7	-2.7	252	19	
2025-10-25T12:00	2480	745	-2.9	-2.9	253	19	
2025-10-25T12:00	2500	743	-3.0	-3.0	254	19	
2025-10-25T12:00	2520	741	-3.1	-3.1	256	19	
2025-10-25T12:00	2540	739	-3.2	-3.2	257	19	
2025-10-25T12:00	2560	737	-3.3	-3.3	258	18	
2025-10-25T12:00	2580	735	-3.4	-3.5	257	19	
2025-10-25T12:00	2600	734	-3.5	-3.6	256	19	
2025-10-25T12:00	2620	732	-3.7	-3.7	254	19	
2025-10-25T12:00	2640	730	-3.8	-3.9	252	20	
2025-10-25T12:00	2660	728	-3.9	-4.1	251	20	
2025-10-25T12:00	2680	726	-4.0	-4.2	250	21	
2025-10-25T12:00	2700	724	-4.0	-4.3	250	21	
2025-10-25T12:00	2720	723	-4.2	-4.5	250	22	
2025-10-25T12:00	2740	721	-4.3	-4.7	250	22	
2025-10-25T12:00	2760	719	-4.4	-4.7	251	21	
2025-10-25T12:00	2780	717	-4.6	-4.8	251	21	
2025-10-25T12:00	2800	715	-4.7	-4.9	251	21	
2025-10-25T12:00	2820	713	-4.9	-5.0	251	20	
2025-10-25T12:00	2840	712	-5.0	-5.1	251	20	
2025-10-25T12:00	2860	710	-5.2	-5.3	252	20	
2025-10-25T12:00	2880	708	-5.3	-5.5	252	19	
2025-10-25T12:00	2900	706	-5.4	-5.6	253	19	
2025-10-25T12:00	2920	704	-5.5	-5.7	253	18	
2025-10-25T12:00	2940	703	-5.6	-5.8	254	18	
2025-10-25T12:00	2960	701	-5.8	-6.0	254	18	
2025-10-25T12:00	2980	699	-5.8	-6.2	254	18	
2025-10-25T12:00	3000	697	-5.9	-6.3	254	18	
2025-10-25T12:00	3020	695	-6.1	-6.4	253	18	
2025-10-25T12:00	3040	694	-6.2	-6.5	252	18	
2025-10-25T12:00	3060	692	-6.3	-6.5	252	18	
2025-10-25T12:00	3080	690	-6.5	-6.7	252	18	
2025-10-25T12:00	3100	689	-6.6	-6.8	251	18	
2025-10-25T12:00	3120	687	-6.7	-6.9	251	18	
2025-10-25T12:00	3140	685	-6.9	-7.0	251	18	
2025-10-25T12:00	3160	683	-7.0	-7.1	252	18	
2025-10-25T12:00	3180	681	-7.1	-7.1	252	18	
2025-10-25T12:00	3200	679	-7.3	-7.3	251	18	
2025-10-25T12:00	3220	678	-7.4	-7.4	251	18	
2025-10-25T12:00	3240	676	-7.5	-7.5	251	17	
2025-10-25T12:00	3260	674	-7.6	-7.6	251	17	
2025-10-25T12:00	3280	673	-7.7	-7.8	251	17	
2025-10-25T12:00	3300	671	-7.8	-7.9	252	17	
2025-10-25T12:00	3320	669	-7.9	-8.0	254	17	
2025-10-25T12:00	3340	667	-8.1	-8.2	256	17	
2025-10-25T12:00	3360	666	-8.2	-8.3	259	17	
2025-10-25T12:00	3380	664	-8.4	-8.5	261	18	
2025-10-25T12:00	3400	662	-8.4	-8.9	263	19	
2025-10-25T12:00	3420	661	-8.6	-9.0	263	20	
2025-10-25T12:00	3440	659	-8.7	-9.0	262	21	
2025-10-25T12:00	3460	657	-8.8	-9.1	261	21	
2025-10-25T12:00	3480	656	-8.9	-9.2	260	22	
2025-10-25T12:00	3500	654	-9.0	-9.2	258	22	
2025-10-25T12:00	3520	652	-9.1	-9.4	258	22	
2025-10-25T12:00	3540	651	-9.2	-9.4	257	22	
2025-10-25T12:00	3560	649	-9.3	-9.6	258	21	
2025-10-25T12:00	3580	647	-9.4	-9.7	258	21	
2025-10-25T12:00	3600	645	-9.5	-9.8	260	21	
2025-10-25T12:00	3620	644	-9.6	-9.9	262	21	
2025-10-25T12:00	3640	642	-9.7	-10.0	263	21	
2025-10-25T12:00	3660	640	-9.9	-10.2	264	22	
2025-10-25T12:00	3680	639	-10.0	-10.3	265	22	
2025-10-25T12:00	3700	637	-10.1	-10.4	265	23	
2025-10-25T12:00	3720	636	-10.2	-10.5	264	23	
2025-10-25T12:00	3740	634	-10.3	-10.5	262	24	
2025-10-25T12:00	3760	632	-10.4	-10.6	261	23	
2025-10-25T12:00	3780	631	-10.5	-10.7	260	23	
2025-10-25T12:00	3800	629	-10.7	-10.9	260	23	
2025-10-25T12:00	3820	627	-10.8	-11.0	260	23	
2025-10-25T12:00	3840	626	-10.9	-11.2	261	23	
2025-10-25T12:00	3860	624	-11.1	-11.4	262	23	
2025-10-25T12:00	3880	622	-11.2	-11.5	262	23	
2025-10-25T12:00	3900	621	-11.4	-11.7	261	24	
2025-10-25T12:00	3920	619	-11.5	-11.8	260	24	
2025-10-25T12:00	3940	618	-11.6	-11.9	259	24	
2025-10-25T12:00	3960	616	-11.7	-11.9	258	24	
2025-10-25T12:00	3980	614	-11.9	-12.1	258	24	
2025-10-25T12:00	4000	613	-12.0	-12.3	258	24	
2025-10-25T12:00	4020	611	-12.2	-12.5	258	24	
2025-10-25T12:00	4040	610	-12.3	-12.7	259	24	
2025-10-25T12:00	4060	608	-12.5	-12.8	259	23	
2025-10-25T12:00	4080	606	-12.6	-12.9	259	22	
2025-10-25T12:00	4100	605	-12.7	-13.0	260	22	
2025-10-25T12:00	4120	603	-12.9	-13.5	260	22	
2025-10-25T12:00	4140	602	-13.1	-13.6	260	22	
2025-10-25T12:00	4160	600	-13.2	-13.8	261	22	
2025-10-25T12:00	4180	599	-13.4	-13.9	262	22	
2025-10-25T12:00	4200	597	-13.5	-14.1	262	23	
2025-10-25T12:00	4220	595	-13.7	-14.3	262	23	
2025-10-25T12:00	4240	594	-13.8	-14.4	262	23	
2025-10-25T12:00	4260	592	-13.9	-14.4	261	23	
2025-10-25T12:00	4280	591	-14.0	-14.5	260	23	
2025-10-25T12:00	4300	589	-14.1	-14.7	259	22	
2025-10-25T12:00	4320	588	-14.2	-14.9	259	22	
2025-10-25T12:00	4340	586	-14.3	-15.0	259	22	
2025-10-25T12:00	4360	585	-14.4	-15.1	259	22	
2025-10-25T12:00	4380	583	-14.6	-15.2	259	23	
2025-10-25T12:00	4400	581	-14.7	-15.3	259	23	
2025-10-25T12:00	4420	580	-14.9	-15.4	259	23	
2025-10-25T12:00	4440	578	-15.0	-15.5	260	23	
2025-10-25T12:00	4460	577	-15.2	-15.7	260	23	
2025-10-25T12:00	4480	575	-15.3	-16.0	261	23	
2025-10-25T12:00	4500	574	-15.5	-16.1	262	23	
2025-10-25T12:00	4520	572	-15.6	-16.4	262	23	
2025-10-25T12:00	4540	571	-15.8	-16.4	263	23	
2025-10-25T12:00	4560	569	-15.9	-16.5	264	23	
2025-10-25T12:00	4580	568	-16.0	-16.6	264	23	
2025-10-25T12:00	4600	566	-16.2	-16.8	264	23	
2025-10-25T12:00	4620	565	-16.4	-17.1	265	24	
2025-10-25T12:00	4640	563	-16.6	-17.2	265	24	
2025-10-25T12:00	4660	562	-16.7	-17.3	265	24	
2025-10-25T12:00	4680	560	-16.9	-17.4	265	24	
2025-10-25T12:00	4700	559	-17.0	-17.4	266	24	
2025-10-25T12:00	4720	557	-17.2	-17.6	266	24	
2025-10-25T12:00	4740	556	-17.3	-17.7	267	23	
2025-10-25T12:00	4760	554	-17.3	-17.7	267	23	
2025-10-25T12:00	4780	553	-17.5	-17.9	268	24	
2025-10-25T12:00	4800	551	-17.6	-18.0	268	24	
2025-10-25T12:00	4820	550	-17.9	-18.3	268	24	
2025-10-25T12:00	4840	548	-18.1	-18.6	269	25	
2025-10-25T12:00	4860	547	-18.1	-18.5	270	25	
2025-10-25T12:00	4880	545	-18.3	-18.6	271	26	
2025-10-25T12:00	4900	544	-18.4	-19.0	272	26	
2025-10-25T12:00	4920	542	-18.5	-19.0	273	26	
2025-10-25T12:00	4940	541	-18.7	-19.2	274	26	
2025-10-25T12:00	4960	540	-18.9	-19.3	274	25	
2025-10-25T12:00	4980	538	-19.0	-19.5	275	25	
2025-10-25T12:00	5000	537	-19.2	-19.7	275	25	
2025-10-25T12:00	5020	535	-19.3	-19.8	276	25	
2025-10-25T12:00	5040	534	-19.5	-20.0	276	25	
2025-10-25T12:00	5060	532	-19.6	-20.1	277	25	
2025-10-25T12:00	5080	531	-19.8	-20.2	277	25	
2025-10-25T12:00	5100	530	-19.9	-20.4	277	26	
2025-10-25T12:00	5120	528	-20.1	-20.6	276	26	
2025-10-25T12:00	5140	527	-20.2	-20.7	276	27	
2025-10-25T12:00	5160	525	-20.3	-20.8	276	27	
2025-10-25T12:00	5180	524	-20.5	-20.9	276	27	
2025-10-25T12:00	5200	523	-20.6	-21.2	276	27	
2025-10-25T12:00	5220	521	-20.8	-21.4	276	27	
2025-10-25T12:00	5240	520	-20.9	-21.5	277	27	
2025-10-25T12:00	5260	518	-21.2	-21.7	277	27	
2025-10-25T12:00	5280	517	-21.5	-22.0	277	26	
2025-10-25T12:00	5300	516	-21.6	-22.3	277	26	
2025-10-25T12:00	5320	514	-21.7	-22.4	277	26	
2025-10-25T12:00	5340	513	-21.8	-22.4	277	26	
2025-10-25T12:00	5360	511	-21.9	-22.5	276	27	
2025-10-25T12:00	5380	510	-22.0	-22.6	276	27	
2025-10-25T12:00	5400	509	-22.2	-22.8	277	27	
2025-10-25T12:00	5420	507	-22.5	-23.1	277	27	
2025-10-25T12:00	5440	506	-22.8	-23.2	277	26	
2025-10-25T12:00	5460	504	-23.0	-23.5	277	26	
2025-10-25T12:00	5480	503	-23.2	-23.6	277	26	
2025-10-25T12:00	5500	502	-23.2	-23.6	276	26	
2025-10-25T12:00	5520	500	-23.4	-23.9	276	26	
2025-10-25T12:00	5540	499	-23.5	-24.1	276	26	
2025-10-25T12:00	5560	498	-23.7	-24.1	276	26	
2025-10-25T12:00	5580	496	-23.8	-24.3	277	26	
2025-10-25T12:00	5600	495	-24.0	-24.6	277	26	
2025-10-25T12:00	5620	493	-24.2	-24.7	277	26	
2025-10-25T12:00	5640	492	-24.3	-25.1	277	27	
2025-10-25T12:00	5660	491	-24.5	-25.6	277	27	
2025-10-25T12:00	5680	489	-24.7	-26.0	277	28	
2025-10-25T12:00	5700	488	-24.9	-26.6	277	28	
2025-10-25T12:00	5720	487	-25.0	-27.0	277	29	
2025-10-25T12:00	5740	485	-25.2	-26.9	278	29	
2025-10-25T12:00	5760	484	-25.4	-27.3	278	30	
2025-10-25T12:00	5780	483	-25.5	-28.6	279	30	
2025-10-25T12:00	5800	481	-25.7	-28.7	279	30	
2025-10-25T12:00	5820	480	-25.8	-28.5	279	30	
2025-10-25T12:00	5840	479	-26.0	-28.5	279	30	
2025-10-25T12:00	5860	477	-26.1	-28.6	279	30	
2025-10-25T12:00	5880	476	-26.3	-28.7	278	30	
2025-10-25T12:00	5900	475	-26.5	-28.6	278	31	
2025-10-25T12:00	5920	474	-26.6	-28.7	279	31	
2025-10-25T12:00	5940	472	-26.8	-28.9	279	32	
2025-10-25T12:00	5960	471	-27.0	-29.1	280	32	
2025-10-25T12:00	5980	470	-27.1	-29.2	280	32	
2025-10-25T12:00	6000	468	-27.3	-29.6	280	33	
2025-10-25T12:00	6020	467	-27.5	-30.2	280	33	
2025-10-25T12:00	6040	466	-27.7	-30.1	280	33	
2025-10-25T12:00	6060	464	-27.8	-30.3	280	33	
2025-10-25T12:00	6080	463	-28.0	-30.5	280	33	
2025-10-25T12:00	6100	462	-28.1	-30.6	281	32	
2025-10-25T12:00	6120	460	-28.3	-30.7	281	32	
2025-10-25T12:00	6140	459	-28.5	-30.9	281	33	
2025-10-25T12:00	6160	458	-28.6	-31.1	281	33	
2025-10-25T12:00	6180	457	-28.8	-31.3	281	34	
2025-10-25T12:00	6200	455	-29.0	-31.4	280	34	
2025-10-25T12:00	6220	454	-29.1	-31.5	279	34	
2025-10-25T12:00	6240	453	-29.3	-31.9	279	34	
2025-10-25T12:00	6260	452	-29.5	-32.0	279	34	
2025-10-25T12:00	6280	450	-29.6	-32.1	279	33	
2025-10-25T12:00	6300	449	-29.8	-32.3	279	33	
2025-10-25T12:00	6320	448	-30.0	-32.6	279	33	
2025-10-25T12:00	6340	447	-30.1	-32.5	280	32	
2025-10-25T12:00	6360	445	-30.3	-32.6	280	32	
2025-10-25T12:00	6380	444	-30.5	-33.1	280	33	
2025-10-25T12:00	6400	443	-30.7	-33.1	281	33	
2025-10-25T12:00	6420	441	-30.8	-33.2	281	34	
2025-10-25T12:00	6440	440	-31.0	-33.3	282	34	
2025-10-25T12:00	6460	439	-31.2	-33.4	282	34	
2025-10-25T12:00	6480	438	-31.4	-33.6	282	34	
2025-10-25T12:00	6500	437	-31.6	-33.8	281	34	
2025-10-25T12:00	6520	435	-31.7	-34.0	280	34	
2025-10-25T12:00	6540	434	-31.9	-33.9	280	34	
2025-10-25T12:00	6560	433	-32.1	-34.1	279	35	
2025-10-25T12:00	6580	432	-32.3	-34.5	279	35	
2025-10-25T12:00	6600	430	-32.4	-35.0	279	35	
2025-10-25T12:00	6620	429	-32.6	-35.1	279	35	
2025-10-25T12:00	6640	428	-32.8	-35.3	280	35	
2025-10-25T12:00	6660	427	-32.9	-35.4	280	35	
2025-10-25T12:00	6680	426	-33.1	-35.5	281	35	
2025-10-25T12:00	6700	424	-33.2	-35.8	281	35	
2025-10-25T12:00	6720	423	-33.4	-36.3	281	35	
2025-10-25T12:00	6740	422	-33.6	-36.9	281	35	
2025-10-25T12:00	6760	421	-33.8	-36.4	281	35	
2025-10-25T12:00	6780	420	-33.9	-35.8	281	35	
2025-10-25T12:00	6800	418	-34.1	-36.6	280	35	
2025-10-25T12:00	6820	417	-34.3	-36.7	279	36	
2025-10-25T12:00	6840	416	-34.5	-37.5	279	36	
2025-10-25T12:00	6860	415	-34.6	-37.4	279	36	
2025-10-25T12:00	6880	413	-34.8	-37.8	279	36	
2025-10-25T12:00	6900	412	-35.0	-37.9	279	37	
2025-10-25T12:00	6920	411	-35.1	-37.7	280	37	
2025-10-25T12:00	6940	410	-35.3	-38.2	280	37	
2025-10-25T12:00	6960	409	-35.5	-38.5	281	37	
2025-10-25T12:00	6980	408	-35.6	-38.6	281	36	
2025-10-25T12:00	7000	407	-35.8	-38.7	281	36	
2025-10-25T12:00	7020	405	-36.0	-38.7	281	37	
2025-10-25T12:00	7040	404	-36.2	-39.2	281	37	
2025-10-25T12:00	7060	403	-36.4	-39.3	281	37	
2025-10-25T12:00	7080	402	-36.5	-39.5	282	37	
2025-10-25T12:00	7100	401	-36.7	-39.8	282	37	
2025-10-25T12:00	7120	400	-36.9	-39.9	282	37	
2025-10-25T12:00	7140	398	-37.1	-40.0	282	37	
2025-10-25T12:00	7160	397	-37.3	-40.2	282	37	
2025-10-25T12:00	7180	396	-37.5	-40.3	282	36	
2025-10-25T12:00	7200	395	-37.6	-40.6	282	36	
2025-10-25T12:00	7220	394	-37.8	-40.9	282	36	
2025-10-25T12:00	7240	393	-38.0	-40.9	282	36	
2025-10-25T12:00	7260	392	-38.1	-41.0	281	36	
2025-10-25T12:00	7280	390	-38.3	-41.1	281	36	
2025-10-25T12:00	7300	389	-38.5	-41.2	280	37	
2025-10-25T12:00	7320	388	-38.6	-41.1	280	37	
2025-10-25T12:00	7340	387	-38.8	-41.2	280	37	
2025-10-25T12:00	7360	386	-39.0	-41.4	280	38	
2025-10-25T12:00	7380	385	-39.2	-41.4	280	37	
2025-10-25T12:00	7400	384	-39.4	-41.3	281	37	
2025-10-25T12:00	7420	382	-39.6	-41.6	281	37	
2025-10-25T12:00	7440	381	-39.7	-41.7	281	37	
2025-10-25T12:00	7460	380	-39.9	-42.1	281	37	
2025-10-25T12:00	7480	379	-40.1	-42.4	282	37	
2025-10-25T12:00	7500	378	-40.3	-42.7	282	37	
2025-10-25T12:00	7520	377	-40.4	-42.6	282	37	
2025-10-25T12:00	7540	376	-40.6	-42.4	282	38	
2025-10-25T12:00	7560	375	-40.8	-42.6	283	38	
2025-10-25T12:00	7580	374	-41.0	-42.8	283	38	
2025-10-25T12:00	7600	373	-41.2	-43.4	283	38	
2025-10-25T12:00	7620	371	-41.4	-43.3	284	38	
2025-10-25T12:00	7640	370	-41.6	-44.0	284	38	
2025-10-25T12:00	7660	369	-41.8	-44.4	284	38	
2025-10-25T12:00	7680	368	-42.0	-45.4	284	38	
2025-10-25T12:00	7700	367	-42.2	-47.6	283	38	
2025-10-25T12:00	7720	366	-42.3	-48.0	283	38	
2025-10-25T12:00	7740	365	-42.4	-47.3	283	38	
2025-10-25T12:00	7760	364	-42.5	-47.9	283	39	
2025-10-25T12:00	7780	363	-42.6	-49.5	283	39	
2025-10-25T12:00	7800	362	-42.6	-51.7	282	39	
2025-10-25T12:00	7820	361	-42.7	-53.8	282	39	
2025-10-25T12:00	7840	360	-42.8	-54.3	282	40	
2025-10-25T12:00	7860	358	-42.9	-54.7	282	40	
2025-10-25T12:00	7880	357	-43.0	-54.8	282	40	
2025-10-25T12:00	7900	356	-43.1	-54.2	283	40	
2025-10-25T12:00	7920	355	-43.3	-54.2	283	40	
2025-10-25T12:00	7940	354	-43.4	-54.2	283	41	
2025-10-25T12:00	7960	353	-43.6	-54.1	283	41	
2025-10-25T12:00	7980	352	-43.7	-54.2	283	41	
2025-10-25T12:00	8000	351	-43.9	-53.7	283	40	
2025-10-25T12:00	8020	350	-44.0	-54.2	283	40	
2025-10-25T12:00	8040	349	-44.0	-54.4	283	41	
2025-10-25T12:00	8060	348	-44.0	-54.6	283	41	
2025-10-25T12:00	8080	347	-43.9	-56.2	283	41	
2025-10-25T12:00	8100	346	-44.0	-55.4	283	42	
2025-10-25T12:00	8120	345	-44.1	-55.6	283	42	
2025-10-25T12:00	8140	344	-44.3	-55.9	283	42	
2025-10-25T12:00	8160	343	-44.5	-55.4	283	42	
2025-10-25T12:00	8180	342	-44.4	-55.5	283	42	
2025-10-25T12:00	8200	341	-44.5	-56.2	283	43	
2025-10-25T12:00	8220	340	-44.5	-55.6	283	43	
2025-10-25T12:00	8240	339	-44.6	-56.2	282	43	
2025-10-25T12:00	8260	338	-44.8	-56.9	282	43	
2025-10-25T12:00	8280	337	-44.6	-56.2	282	44	
2025-10-25T12:00	8300	336	-44.5	-57.0	282	44	
2025-10-25T12:00	8320	335	-44.5	-57.4	282	44	
2025-10-25T12:00	8340	334	-44.5	-56.5	283	45	
2025-10-25T12:00	8360	333	-44.6	-56.3	283	45	
2025-10-25T12:00	8380	332	-44.5	-57.6	283	46	
2025-10-25T12:00	8400	331	-44.5	-57.1	283	47	
2025-10-25T12:00	8420	330	-44.6	-56.9	283	48	
2025-10-25T12:00	8440	329	-44.5	-57.0	283	48	
2025-10-25T12:00	8460	328	-44.7	-57.4	283	49	
2025-10-25T12:00	8480	327	-44.7	-57.2	283	49	
2025-10-25T12:00	8500	326	-44.6	-56.4	283	49	
2025-10-25T12:00	8520	325	-44.7	-56.4	283	50	
2025-10-25T12:00	8540	324	-44.9	-56.8	283	50	
2025-10-25T12:00	8560	323	-45.0	-56.5	283	50	
2025-10-25T12:00	8580	322	-44.9	-56.8	283	50	
2025-10-25T12:00	8600	321	-44.8	-57.3	282	50	
2025-10-25T12:00	8620	320	-44.8	-58.0	282	51	
2025-10-25T12:00	8640	319	-45.0	-59.3	281	51	
2025-10-25T12:00	8660	318	-45.1	-60.3	280	51	
2025-10-25T12:00	8680	317	-45.0	-61.3	279	51	
2025-10-25T12:00	8700	316	-44.8	-60.2	279	52	
2025-10-25T12:00	8720	315	-44.6	-59.1	279	53	
2025-10-25T12:00	8740	314	-44.5	-60.5	279	54	
2025-10-25T12:00	8760	313	-44.3	-60.4	279	54	
2025-10-25T12:00	8780	312	-44.3	-59.7	279	55	
2025-10-25T12:00	8800	312	-44.4	-58.8	280	56	
2025-10-25T12:00	8820	311	-44.4	-57.7	280	56	
2025-10-25T12:00	8840	310	-44.4	-58.8	280	56	
2025-10-25T12:00	8860	309	-44.6	-59.5	280	57	
2025-10-25T12:00	8880	308	-44.7	-59.9	280	57	
2025-10-25T12:00	8900	307	-44.7	-59.8	280	58	
2025-10-25T12:00	8920	306	-44.8	-58.8	280	58	
2025-10-25T12:00	8940	305	-44.8	-59.5	280	59	
2025-10-25T12:00	8960	304	-44.8	-59.2	280	59	
2025-10-25T12:00	8980	303	-44.8	-59.7	280	59	
2025-10-25T12:00	9000	302	-44.9	-59.5	280	60	
2025-10-25T12:00	9020	301	-45.0	-60.1	280	60	
2025-10-25T12:00	9040	300	-45.0	-60.9	281	61	
2025-10-25T12:00	9060	300	-45.0	-61.2	281	61	
2025-10-25T12:00	9080	299	-45.0	-59.8	281	62	
2025-10-25T12:00	9100	298	-44.9	-59.8	281	62	
2025-10-25T12:00	9120	297	-44.9	-60.4	281	62	
2025-10-25T12:00	9140	296	-44.8	-60.0	281	62	
2025-10-25T12:00	9160	295	-44.9	-59.9	281	62	
2025-10-25T12:00	9180	294	-45.0	-60.5	281	62	
2025-10-25T12:00	9200	293	-45.1	-60.7	281	62	
2025-10-25T12:00	9220	292	-45.2	-60.5	281	62	
2025-10-25T12:00	9240	292	-45.2	-60.3	281	62	
2025-10-25T12:00	9260	291	-45.3	-60.4	281	63	
2025-10-25T12:00	9280	290	-45.4	-61.1	281	63	
2025-10-25T12:00	9300	289	-45.6	-61.9	281	63	
2025-10-25T12:00	9320	288	-45.7	-62.8	281	63	
2025-10-25T12:00	9340	287	-45.8	-62.5	281	63	
2025-10-25T12:00	9360	287	-45.8	-61.2	281	63	
2025-10-25T12:00	9380	286	-45.9	-61.2	281	64	
2025-10-25T12:00	9400	285	-46.1	-61.5	281	64	
2025-10-25T12:00	9420	284	-46.3	-61.7	281	64	
2025-10-25T12:00	9440	283	-46.5	-61.9	281	64	
2025-10-25T12:00	9460	282	-46.7	-62.6	281	64	
2025-10-25T12:00	9480	281	-46.8	-62.7	281	65	
2025-10-25T12:00	9500	280	-46.9	-63.0	281	65	
2025-10-25T12:00	9520	280	-47.0	-61.7	281	65	
2025-10-25T12:00	9540	279	-46.9	-62.5	281	65	
2025-10-25T12:00	9560	278	-47.1	-64.5	281	65	
2025-10-25T12:00	9580	277	-47.3	-63.7	281	65	
2025-10-25T12:00	9600	276	-47.3	-62.2	281	65	
2025-10-25T12:00	9620	276	-47.5	-63.1	281	65	
2025-10-25T12:00	9640	275	-47.6	-62.9	281	65	
2025-10-25T12:00	9660	274	-47.7	-62.7	281	65	
2025-10-25T12:00	9680	273	-47.8	-62.5	281	64	
2025-10-25T12:00	9700	272	-47.6	-62.5	281	64	
2025-10-25T12:00	9720	271	-47.6	-63.0	281	63	
2025-10-25T12:00	9740	270	-47.8	-63.3	281	63	
2025-10-25T12:00	9760	270	-47.9	-63.4	281	62	
2025-10-25T12:00	9780	269	-48.0	-62.9	281	62	
2025-10-25T12:00	9800	268	-48.1	-62.6	281	61	
2025-10-25T12:00	9820	267	-48.0	-63.5	281	61	
2025-10-25T12:00	9840	266	-48.0	-64.0	281	60	
2025-10-25T12:00	9860	266	-48.0	-63.7	281	60	
2025-10-25T12:00	9880	265	-48.1	-63.9	281	60	
2025-10-25T12:00	9900	264	-48.1	-64.6	280	60	
2025-10-25T12:00	9920	263	-48.1	-64.1	280	59	
2025-10-25T12:00	9940	262	-48.2	-63.9	280	59	
2025-10-25T12:00	9960	262	-48.2	-64.1	280	59	
2025-10-25T12:00	9980	261	-48.2	-63.4	280	58	
2025-10-25T12:00	10000	260	-48.3	-63.5	280	58	
2025-10-25T12:00	10018	259	-48.3	-63.4	280	58	
2025-10-25T12:00	10050	258	-48.5	-64.0	280	57	
2025-10-25T12:00	10100	256	-48.7	-64.5	280	56	
2025-10-25T12:00	10150	254	-49.0	-65.1	280	56	
2025-10-25T12:00	10200	252	-49.1	-64.4	280	56	
2025-10-25T12:00	10250	250	-49.2	-64.7	279	56	
2025-10-25T12:00	10300	248	-49.3	-64.9	279	55	
2025-10-25T12:00	10350	247	-49.4	-65.3	279	54	
2025-10-25T12:00	10400	245	-49.5	-64.8	279	53	
2025-10-25T12:00	10450	243	-49.5	-65.1	279	52	
2025-10-25T12:00	10500	241	-49.3	-65.2	278	51	
2025-10-25T12:00	10550	239	-49.4	-64.9	278	50	
2025-10-25T12:00	10600	237	-49.8	-65.5	278	49	
2025-10-25T12:00	10650	235	-49.9	-66.1	279	49	
2025-10-25T12:00	10700	234	-49.9	-66.1	279	49	
2025-10-25T12:00	10750	232	-50.0	-65.6	280	49	
2025-10-25T12:00	10800	230	-50.1	-66.1	279	49	
2025-10-25T12:00	10850	228	-50.3	-66.6	279	49	
2025-10-25T12:00	10900	227	-50.6	-66.9	278	49	
2025-10-25T12:00	10950	225	-50.7	-66.4	278	49	
2025-10-25T12:00	11000	223	-50.6	-66.7	277	48	
2025-10-25T12:00	11050	221	-50.7	-67.2	276	48	
2025-10-25T12:00	11100	220	-50.9	-67.6	275	47	
2025-10-25T12:00	11150	218	-51.1	-67.5	274	47	
2025-10-25T12:00	11200	216	-51.3	-66.9	274	46	
2025-10-25T12:00	11250	215	-51.4	-67.6	274	47	
2025-10-25T12:00	11300	213	-51.3	-67.4	274	48	
2025-10-25T12:00	11350	212	-51.4	-67.2	275	48	
2025-10-25T12:00	11400	210	-51.6	-67.4	276	48	
2025-10-25T12:00	11450	208	-51.6	-68.2	277	48	
2025-10-25T12:00	11500	207	-51.6	-68.3	277	47	
2025-10-25T12:00	11550	205	-51.9	-68.2	278	47	
2025-10-25T12:00	11600	203	-52.1	-68.9	278	46	
2025-10-25T12:00	11650	202	-52.2	-69.3	278	45	
2025-10-25T12:00	11700	200	-52.2	-68.4	278	45	
2025-10-25T12:00	11750	199	-52.4	-68.8	277	46	
2025-10-25T12:00	11800	197	-52.6	-69.2	277	45	
2025-10-25T12:00	11850	196	-52.8	-71.0	278	45	
2025-10-25T12:00	11900	194	-53.0	-72.8	279	45	
2025-10-25T12:00	11950	193	-53.3	-70.8	279	45	
2025-10-25T12:00	12000	191	-52.9	-69.3	279	44	
2025-10-25T12:00	12050	190	-53.1	-69.4	279	44	
2025-10-25T12:00	12100	188	-53.5	-70.6	280	45	
2025-10-25T12:00	12150	187	-53.4	-70.7	281	45	
2025-10-25T12:00	12200	185	-53.4	-70.0	281	44	
2025-10-25T12:00	12250	184	-53.4	-69.8	281	44	
2025-10-25T12:00	12300	182	-53.5	-70.3	281	43	
2025-10-25T12:00	12350	181	-53.6	-70.9	280	42	
2025-10-25T12:00	12400	180	-53.7	-70.5	279	41	
2025-10-25T12:00	12450	178	-53.8	-70.8	278	40	
2025-10-25T12:00	12500	177	-53.8	-71.5	278	39	
2025-10-25T12:00	12550	176	-53.9	-71.5	278	38	
2025-10-25T12:00	12600	174	-53.7	-71.3	279	38	
2025-10-25T12:00	12650	173	-53.5	-70.6	280	38	
2025-10-25T12:00	12700	172	-53.2	-70.7	280	38	
2025-10-25T12:00	12750	170	-53.1	-70.3	279	38	
2025-10-25T12:00	12800	169	-53.4	-70.8	279	37	
2025-10-25T12:00	12850	168	-53.5	-71.0	279	37	
2025-10-25T12:00	12900	166	-53.3	-70.8	278	38	
2025-10-25T12:00	12950	165	-53.2	-70.5	277	38	
2025-10-25T12:00	13000	164	-53.2	-70.8	275	38	
2025-10-25T12:00	13050	162	-53.2	-70.8	274	38	
2025-10-25T12:00	13100	161	-53.4	-70.5	274	38	
2025-10-25T12:00	13150	160	-53.5	-70.9	274	38	
2025-10-25T12:00	13200	159	-53.4	-71.2	273	37	
2025-10-25T12:00	13250	157	-53.2	-70.7	272	38	
2025-10-25T12:00	13300	156	-53.3	-70.7	271	38	
2025-10-25T12:00	13350	155	-53.0	-70.5	271	38	
2025-10-25T12:00	13400	154	-52.5	-70.3	271	38	
2025-10-25T12:00	13450	153	-52.9	-70.8	271	39	
2025-10-25T12:00	13500	152	-53.3	-70.8	271	38	
2025-10-25T12:00	13550	150	-53.2	-70.9	273	38	
2025-10-25T12:00	13600	149	-52.7	-70.8	273	37	
2025-10-25T12:00	13650	148	-52.3	-70.6	274	37	
2025-10-25T12:00	13700	147	-52.2	-70.4	275	37	
2025-10-25T12:00	13750	146	-52.3	-70.2	275	38	
2025-10-25T12:00	13800	145	-52.7	-70.4	276	37	
2025-10-25T12:00	13850	143	-53.0	-70.8	276	37	
2025-10-25T12:00	13900	142	-53.2	-71.1	276	36	
2025-10-25T12:00	13950	141	-53.4	-71.2	275	36	
2025-10-25T12:00	14000	140	-53.5	-71.3	273	35	
2025-10-25T12:00	14050	139	-53.7	-71.4	272	35	
2025-10-25T12:00	14100	138	-53.7	-71.5	272	34	
2025-10-25T12:00	14150	137	-53.7	-71.9	272	32	
2025-10-25T12:00	14200	136	-54.0	-72.4	272	31	
2025-10-25T12:00	14250	135	-54.2	-72.2	273	31	
2025-10-25T12:00	14300	134	-54.3	-72.1	272	30	
2025-10-25T12:00	14350	133	-54.6	-73.0	269	28	
2025-10-25T12:00	14400	132	-54.2	-72.9	267	28	
2025-10-25T12:00	14450	131	-54.4	-72.5	265	27	
2025-10-25T12:00	14500	130	-54.6	-72.1	264	27	
2025-10-25T12:00	14550	129	-55.0	-72.3	263	27	
2025-10-25T12:00	14600	128	-55.3	-72.8	263	26	
2025-10-25T12:00	14650	127	-55.5	-72.9	261	25	
2025-10-25T12:00	14700	126	-55.8	-73.1	260	24	
2025-10-25T12:00	14750	125	-56.0	-73.6	258	24	
2025-10-25T12:00	14800	124	-56.3	-74.0	257	24	
2025-10-25T12:00	14850	123	-56.7	-74.1	255	24	
2025-10-25T12:00	14900	122	-57.1	-74.3	254	25	
2025-10-25T12:00	14950	121	-57.5	-74.8	252	25	
2025-10-25T12:00	15000	120	-57.7	-75.0	250	25	
2025-10-25T12:00	15050	119	-57.9	-75.0	250	26	
2025-10-25T12:00	15100	118	-58.3	-75.2	252	26	
2025-10-25T12:00	15150	117	-58.7	-75.5	253	26	
2025-10-25T12:00	15200	116	-59.0	-75.9	255	26	
2025-10-25T12:00	15250	115	-59.3	-76.3	257	27	
2025-10-25T12:00	15300	114	-59.7	-76.4	260	27	
2025-10-25T12:00	15350	113	-60.1	-76.8	261	28	
2025-10-25T12:00	15400	112	-60.1	-77.0	261	28	
2025-10-25T12:00	15450	112	-60.4	-77.1	261	28	
2025-10-25T12:00	15500	111	-60.8	-76.8	261	28	
2025-10-25T12:00	15550	110	-61.1	-77.0	260	28	
2025-10-25T12:00	15600	109	-61.2	-77.5	261	28	
2025-10-25T12:00	15650	108	-61.4	-77.3	261	28	
2025-10-25T12:00	15700	107	-61.5	-77.3	261	28	
2025-10-25T12:00	15750	106	-61.4	-77.7	261	28	
2025-10-25T12:00	15800	105	-61.3	-77.8	263	29	
2025-10-25T12:00	15850	105	-61.4	-77.6	265	30	
2025-10-25T12:00	15900	104	-61.7	-77.5	267	30	
2025-10-25T12:00	15950	103	-62.0	-77.9	269	31	
2025-10-25T12:00	16000	102	-62.1	-78.9	272	30	
2025-10-25T12:00	16050	101	-62.0	-80.6	275	28	
2025-10-25T12:00	16100	100	-61.7	-79.5	278	26	
2025-10-25T12:00	16150	100	-61.6	-78.2	279	26	
2025-10-25T12:00	16200	99	-61.8	-78.1	281	25	
2025-10-25T12:00	16250	98	-62.0	-78.3	283	25	
2025-10-25T12:00	16300	97	-62.1	-78.5	283	26	
2025-10-25T12:00	16350	96	-61.7	-78.4	284	26	
2025-10-25T12:00	16400	96	-61.1	-78.1	284	26	
2025-10-25T12:00	16450	95	-61.5	-78.4	285	25	
2025-10-25T12:00	16500	94	-61.8	-78.4	284	24	
2025-10-25T12:00	16550	93	-62.0	-78.6	282	24	
2025-10-25T12:00	16600	93	-62.3	-78.8	280	24	
2025-10-25T12:00	16650	92	-62.2	-79.0	277	23	
2025-10-25T12:00	16700	91	-62.1	-78.9	276	24	
2025-10-25T12:00	16750	90	-62.0	-78.5	277	26	
2025-10-25T12:00	16800	90	-61.7	-78.4	278	27	
2025-10-25T12:00	16850	89	-61.7	-78.5	280	28	
2025-10-25T12:00	16900	88	-61.5	-78.4	282	28	
2025-10-25T12:00	16950	88	-61.4	-78.7	283	28	
2025-10-25T12:00	17000	87	-61.4	-79.0	284	28	
2025-10-25T12:00	17050	86	-61.4	-78.9	284	27	
2025-10-25T12:00	17100	85	-61.5	-78.9	282	27	
2025-10-25T12:00	17150	85	-61.7	-78.9	281	27	
2025-10-25T12:00	17200	84	-61.9	-79.0	281	26	
2025-10-25T12:00	17250	83	-62.3	-79.3	281	27	
2025-10-25T12:00	17300	83	-62.6	-79.6	282	27	
2025-10-25T12:00	17350	82	-62.7	-79.7	281	28	
2025-10-25T12:00	17400	81	-62.9	-79.7	281	29	
2025-10-25T12:00	17450	81	-63.1	-79.6	282	30	
2025-10-25T12:00	17500	80	-63.3	-79.4	284	30	
2025-10-25T12:00	17550	79	-63.2	-79.0	287	30	
2025-10-25T12:00	17600	79	-63.1	-79.2	288	30	
2025-10-25T12:00	17650	78	-62.9	-79.7	288	29	
2025-10-25T12:00	17700	78	-62.3	-79.8	286	28	
2025-10-25T12:00	17750	77	-62.1	-79.8	284	27	
2025-10-25T12:00	17800	76	-61.6	-79.4	280	27	
2025-10-25T12:00	17850	76	-61.1	-79.2	275	27	
2025-10-25T12:00	17900	75	-60.4	-78.9	271	27	
2025-10-25T12:00	17950	74	-60.4	-79.0	268	27	
2025-10-25T12:00	18000	74	-60.4	-79.0	265	28	
2025-10-25T12:00	18050	73	-60.0	-78.7	265	29	
2025-10-25T12:00	18100	73	-60.0	-78.6	267	29	
2025-10-25T12:00	18150	72	-60.1	-78.7	269	29	
2025-10-25T12:00	18200	72	-59.7	-78.5	271	28	
2025-10-25T12:00	18250	71	-59.7	-78.4	273	26	
2025-10-25T12:00	18300	70	-59.7	-78.2	273	24	
2025-10-25T12:00	18350	70	-59.7	-78.1	270	22	
2025-10-25T12:00	18400	69	-58.8	-77.6	265	20	
2025-10-25T12:00	18450	69	-57.7	-77.2	260	19	
2025-10-25T12:00	18500	68	-57.4	-77.2	256	18	
2025-10-25T12:00	18550	68	-57.7	-77.3	251	18	
2025-10-25T12:00	18600	67	-58.1	-77.6	248	18	
2025-10-25T12:00	18650	67	-58.4	-78.0	245	18	
2025-10-25T12:00	18700	66	-58.8	-78.4	241	18	
2025-10-25T12:00	18750	66	-59.2	-78.5	237	18	
2025-10-25T12:00	18800	65	-59.3	-78.5	234	18	
2025-10-25T12:00	18850	64	-59.4	-78.6	232	19	
2025-10-25T12:00	18900	64	-59.6	-78.7	233	20	
2025-10-25T12:00	18950	63	-59.8	-78.6	236	20	
2025-10-25T12:00	19000	63	-59.7	-78.6	241	20	
2025-10-25T12:00	19050	62	-59.6	-78.7	244	20	
2025-10-25T12:00	19100	62	-59.9	-79.2	247	19	
2025-10-25T12:00	19150	61	-60.3	-79.4	252	19	
2025-10-25T12:00	19200	61	-60.6	-79.2	255	18	
2025-10-25T12:00	19250	61	-61.0	-78.3	260	18	
2025-10-25T12:00	19300	60	-61.4	-77.5	267	18	
2025-10-25T12:00	19350	60	-61.4	-78.4	272	18	
2025-10-25T12:00	19400	59	-61.6	-80.2	274	17	
2025-10-25T12:00	19450	59	-61.8	-80.7	277	16	
2025-10-25T12:00	19500	58	-61.6	-80.0	281	15	
2025-10-25T12:00	19550	58	-61.8	-79.5	286	14	
2025-10-25T12:00	19600	57	-61.8	-79.8	289	13	
2025-10-25T12:00	19650	57	-62.1	-80.8	286	12	
2025-10-25T12:00	19700	56	-62.4	-81.3	281	12	
2025-10-25T12:00	19750	56	-62.6	-81.5	278	12	
2025-10-25T12:00	19800	55	-62.7	-81.7	279	13	
2025-10-25T12:00	19850	55	-62.8	-81.9	279	13	
2025-10-25T12:00	19900	54	-62.7	-81.9	277	13	
2025-10-25T12:00	19950	54	-62.7	-81.8	273	14	
2025-10-25T12:00	20000	54	-63.0	-81.9	271	14	
2025-10-25T12:00	20050	53	-63.3		270	14	
2025-10-25T12:00	20100	53	-63.3		270	15	
2025-10-25T12:00	20150	52	-63.2		270	15	
2025-10-25T12:00	20200	52	-63.1		270	15	
2025-10-25T12:00	20250	51	-63.3		270	14	
2025-10-25T12:00	20300	51	-63.5		269	14	
2025-10-25T12:00	20350	51	-63.7		266	14	
2025-10-25T12:00	20400	50	-63.2		264	15	
2025-10-25T12:00	20450	50	-63.0		262	16	
2025-10-25T12:00	20500	49	-63.2		260	18	
2025-10-25T12:00	20550	49	-63.2		259	19	
2025-10-25T12:00	20600	49	-62.8		263	19	
2025-10-25T12:00	20650	48	-62.7		267	19	
2025-10-25T12:00	20700	48	-62.5		271	19	
2025-10-25T12:00	20750	47	-62.1		273	21	
2025-10-25T12:00	20800	47	-60.9		277	23	
2025-10-25T12:00	20850	47	-60.1		284	23	
2025-10-25T12:00	20900	46	-60.1		289	23	
2025-10-25T12:00	20950	46	-59.7		291	22	
2025-10-25T12:00	21000	46	-59.4		293	21	
2025-10-25T12:00	21050	45	-59.5		296	21	
2025-10-25T12:00	21100	45	-59.8		297	20	
2025-10-25T12:00	21150	44	-60.1		299	20	
2025-10-25T12:00	21200	44	-60.3		300	19	
2025-10-25T12:00	21250	44	-60.5		300	18	
2025-10-25T12:00	21300	43	-60.8		299	17	
2025-10-25T12:00	21350	43	-61.0		298	16	
2025-10-25T12:00	21400	43	-61.3		297	15	
2025-10-25T12:00	21450	42	-61.5		295	14	
2025-10-25T12:00	21500	42	-61.8		292	13	
2025-10-25T12:00	21550	42	-61.5		288	12	
2025-10-25T12:00	21600	41	-61.5		283	12	
2025-10-25T12:00	21650	41	-61.6		278	12	
2025-10-25T12:00	21700	41	-61.7		276	13	
2025-10-25T12:00	21750	40	-61.8		274	15	
2025-10-25T12:00	21800	40	-62.0		274	16	
2025-10-25T12:00	21850	40	-62.3		273	17	
2025-10-25T12:00	21900	39	-61.9		274	17	
2025-10-25T12:00	21950	39	-61.4		277	17	
2025-10-25T12:00	22000	39	-61.0		277	17	
2025-10-25T12:00	22050	38	-60.7		273	16	
2025-10-25T12:00	22100	38	-60.6		268	14	
2025-10-25T12:00	22150	38	-60.9		263	14	
2025-10-25T12:00	22200	38	-61.1		256	14	
2025-10-25T12:00	22250	37	-61.1		250	15	
2025-10-25T12:00	22300	37	-60.5		247	16	
2025-10-25T12:00	22350	37	-60.5		245	16	
2025-10-25T12:00	22400	36	-60.4		242	15	
2025-10-25T12:00	22450	36	-60.3		240	15	
2025-10-25T12:00	22500	36	-60.3		242	15	
2025-10-25T12:00	22550	36	-60.5		246	15	
2025-10-25T12:00	22600	35	-60.5		249	16	
2025-10-25T12:00	22650	35	-60.5		251	16	
2025-10-25T12:00	22700	35	-60.5		253	16	
2025-10-25T12:00	22750	34	-60.6		255	17	
2025-10-25T12:00	22800	34	-60.7		258	17	
2025-10-25T12:00	22850	34	-61.1		260	17	
2025-10-25T12:00	22900	34	-61.5		262	18	
2025-10-25T12:00	22950	33	-61.8		265	19	
2025-10-25T12:00	23000	33	-62.1		268	20	
2025-10-25T12:00	23050	33	-62.5		271	20	
2025-10-25T12:00	23100	32	-62.8		274	21	
2025-10-25T12:00	23150	32	-63.0		277	21	
2025-10-25T12:00	23200	32	-63.1		280	20	
2025-10-25T12:00	23250	32	-63.6		283	20	
2025-10-25T12:00	23300	31	-63.8		287	19	
2025-10-25T12:00	23350	31	-63.9		289	19	
2025-10-25T12:00	23400	31	-63.8		285	19	
2025-10-25T12:00	23450	31	-63.1		282	18	
2025-10-25T12:00	23500	30	-62.9		283	17	
2025-10-25T12:00	23550	30	-62.7		281	16	
2025-10-25T12:00	23600	30	-62.5		274	16	
2025-10-25T12:00	23650	30	-62.6		269	17	
2025-10-25T12:00	23700	29	-62.1		268	19	
2025-10-25T12:00	23750	29	-61.9		268	21	
2025-10-25T12:00	23800	29	-61.8		267	22	
2025-10-25T12:00	23850	29	-61.7		265	22	
2025-10-25T12:00	23900	29	-61.2		261	21	
2025-10-25T12:00	23950	28	-60.5		257	21	
2025-10-25T12:00	24000	28	-59.9		255	22	
2025-10-25T12:00	24050	28	-60.0		255	23	
2025-10-25T12:00	24100	28	-60.0		255	24	
2025-10-25T12:00	24150	27	-59.5		257	25	
2025-10-25T12:00	24200	27	-59.1		260	25	
2025-10-25T12:00	24250	27	-58.6		263	25	
2025-10-25T12:00	24300	27	-58.4		266	25	
2025-10-25T12:00	24350	27	-58.3		268	25	
2025-10-25T12:00	24400	26	-58.0		267	25	
2025-10-25T12:00	24450	26	-57.9		264	25	
2025-10-25T12:00	24500	26	-57.8		259	25	
2025-10-25T12:00	24550	26	-57.1		254	27	
2025-10-25T12:00	24600	26	-56.5		250	28	
2025-10-25T12:00	24650	25	-55.9		249	29	
2025-10-25T12:00	24700	25	-55.4		252	29	
2025-10-25T12:00	24750	25	-54.7		255	28	
2025-10-25T12:00	24800	25	-54.5		258	28	
2025-10-25T12:00	24850	25	-54.7		261	27	
2025-10-25T12:00	24900	24	-54.8		264	27	
2025-10-25T12:00	24950	24	-54.9		265	26	
2025-10-25T12:00	25000	24	-55.1		264	26	
2025-10-25T12:00	25050	24	-55.2		263	25	
2025-10-25T12:00	25100	24	-55.2		261	24	
2025-10-25T12:00	25150	23	-55.3		258	24	
2025-10-25T12:00	25200	23	-55.2		254	24	
2025-10-25T12:00	25250	23	-54.9		253	24	
2025-10-25T12:00	25300	23	-54.4		253	24	
2025-10-25T12:00	25350	23	-54.3		254	25	
2025-10-25T12:00	25400	22	-54.5		255	26	
2025-10-25T12:00	25450	22	-54.8		255	27	
2025-10-25T12:00	25500	22	-55.0		254	27	
2025-10-25T12:00	25550	22	-54.8		252	27	
2025-10-25T12:00	25600	22	-54.7		250	28	
2025-10-25T12:00	25650	22	-54.9		250	29	
2025-10-25T12:00	25700	21	-54.4		250	29	
2025-10-25T12:00	25750	21	-54.3		251	29	
2025-10-25T12:00	25800	21	-54.2		253	29	
2025-10-25T12:00	25850	21	-53.7		254	28	
2025-10-25T12:00	25900	21	-53.3		253	27	
2025-10-25T12:00	25950	21	-53.0		252	27	
2025-10-25T12:00	26000	20	-52.1		252	28	
2025-10-25T12:00	26050	20	-51.8		253	27	
2025-10-25T12:00	26100	20	-52.2		255	26	
2025-10-25T12:00	26150	20	-52.6		258	25	
2025-10-25T12:00	26200	20	-52.9		260	24	
2025-10-25T12:00	26250	20	-52.9		261	23	
2025-10-25T12:00	26300	20	-52.9		260	22	
2025-10-25T12:00	26350	19	-53.1		257	22	
2025-10-25T12:00	26400	19	-53.2		253	22	
2025-10-25T12:00	26450	19	-53.2		251	22	
2025-10-25T12:00	26500	19	-53.0		252	23	
2025-10-25T12:00	26550	19	-52.8		253	24	
2025-10-25T12:00	26600	19	-53.0		255	24	
2025-10-25T12:00	26650	19	-53.3		255	25	
2025-10-25T12:00	26700	18	-53.6		255	26	
2025-10-25T12:00	26750	18	-53.6		254	27	
2025-10-25T12:00	26800	18	-53.9		253	26	
2025-10-25T12:00	26850	18	-54.0		252	25	
2025-10-25T12:00	26900	18	-53.8		249	24	
2025-10-25T12:00	26950	18	-53.8		247	24	
2025-10-25T12:00	27000	18	-53.8		246	24	
2025-10-25T12:00	27050	17	-53.4		246	25	
2025-10-25T12:00	27100	17	-52.6		247	25	
2025-10-25T12:00	27150	17	-52.8		249	25	
2025-10-25T12:00	27200	17	-53.2		251	25	
2025-10-25T12:00	27250	17	-53.6		254	25	
2025-10-25T12:00	27300	17	-53.7		256	25	
2025-10-25T12:00	27350	17	-53.7		257	25	
2025-10-25T12:00	27400	16	-53.7		258	25	
2025-10-25T12:00	27450	16	-53.9		259	25	
2025-10-25T12:00	27500	16	-54.0		260	25	
2025-10-25T12:00	27550	16	-53.9		260	26	
2025-10-25T12:00	27600	16	-53.9		261	27	
2025-10-25T12:00	27650	16	-54.1		261	28	
2025-10-25T12:00	27700	16	-54.3		262	28	
2025-10-25T12:00	27750	16	-54.2		261	29	
2025-10-25T12:00	27800	16	-54.1		259	29	
2025-10-25T12:00	27850	15	-54.2		258	29	
2025-10-25T12:00	27900	15	-54.4		257	29	
2025-10-25T12:00	27950	15	-54.6		258	29	
2025-10-25T12:00	28000	15	-54.8		260	29	
2025-10-25T12:00	28050	15	-54.7		262	29	
2025-10-25T12:00	28100	15	-54.5		263	29	
2025-10-25T12:00	28150	15	-54.4		263	29	
2025-10-25T12:00	28200	15	-54.4		263	30	
2025-10-25T12:00	28250	14	-54.5		263	32	
2025-10-25T12:00	28300	14	-54.3		263	34	
2025-10-25T12:00	28350	14	-54.1		262	35	
2025-10-25T12:00	28400	14	-54.0		262	36	
2025-10-25T12:00	28450	14	-54.1		261	36	
2025-10-25T12:00	28500	14	-54.2		261	36	
2025-10-25T12:00	28550	14	-54.1		261	36	
2025-10-25T12:00	28600	14	-53.6		262	37	
2025-10-25T12:00	28650	14	-53.0		263	37	
2025-10-25T12:00	28700	13	-53.0		265	39	
2025-10-25T12:00	28750	13	-52.6		266	40	
2025-10-25T12:00	28800	13	-52.5		265	41	
2025-10-25T12:00	28850	13	-52.7		263	41	
2025-10-25T12:00	28900	13	-52.9		261	42	
2025-10-25T12:00	28950	13	-53.0		259	42	
2025-10-25T12:00	29000	13	-53.2		260	42	
2025-10-25T12:00	29050	13	-53.1		261	42	
2025-10-25T12:00	29100	13	-52.9		262	42	
2025-10-25T12:00	29150	13	-53.1		263	41	
2025-10-25T12:00	29200	12	-53.4		263	40	
2025-10-25T12:00	29250	12	-53.5		262	39	
2025-10-25T12:00	29300	12	-53.5		261	39	
2025-10-25T12:00	29350	12	-53.5		260	39	
2025-10-25T12:00	29400	12	-53.6		259	39	
2025-10-25T12:00	29450	12	-53.8		258	38	
2025-10-25T12:00	29500	12	-53.8		257	39	
2025-10-25T12:00	29550	12	-53.6		256	39	
2025-10-25T12:00	29600	12	-53.2		256	40	
2025-10-25T12:00	29650	12	-52.8		255	41	
2025-10-25T12:00	29700	12	-52.6		254	42	
2025-10-25T12:00	29750	11	-52.5		253	43	
2025-10-25T12:00	29800	11	-52.4		254	44	
2025-10-25T12:00	29850	11	-52.1		254	45	
2025-10-25T12:00	29900	11	-52.0		255	45	
2025-10-25T12:00	29950	11	-52.0		256	45	
2025-10-25T12:00	30000	11	-52.0		256	46	
2025-10-25T12:00	30050	11	-51.9		256	46	
2025-10-25T12:00	30100	11	-51.5		257	46	
2025-10-25T12:00	30150	11	-51.4		258	45	
2025-10-25T12:00	30200	11	-51.6		259	45	
2025-10-25T12:00	30250	11	-51.3		260	45	
2025-10-25T12:00	30300	11	-50.2		261	45	
2025-10-25T12:00	30350	10	-49.6		262	45	
2025-10-25T12:00	30400	10	-49.4		262	45	
2025-10-25T12:00	30450	10	-49.5		263	44	
2025-10-25T12:00	30500	10	-49.8		263	43	
2025-10-25T12:00	30550	10	-50.3		264	42	
2025-10-25T12:00	30600	10	-50.8		264	41	
2025-10-25T12:00	30650	10	-51.1		262	40	
2025-10-25T12:00	30700	10	-51.1		261	39	
2025-10-25T12:00	30750	10	-51.2		259	39	
2025-10-25T12:00	30800	10	-51.4		257	40	
2025-10-25T12:00	30850	10	-51.4		256	42	
2025-10-25T12:00	30900	10	-51.6		256	42	
2025-10-25T12:00	30950	10	-51.5		256	42	
2025-10-25T12:00	31000	9	-51.6		255	42	
2025-10-25T12:00	31050	9	-51.7		255	41	
2025-10-25T12:00	31100	9	-51.6		255	41	
2025-10-25T12:00	31150	9	-51.4		255	41	
2025-10-25T12:00	31200	9	-51.4		254	41	
2025-10-25T12:00	31250	9	-51.3		253	41	
2025-10-25T12:00	31300	9	-51.3		252	40	
2025-10-25T12:00	31350	9	-51.2		252	40	
2025-10-25T12:00	31400	9	-51.2		252	40	
2025-10-25T12:00	31450	9	-51.2		251	41	
2025-10-25T12:00	31500	9	-51.2		250	42	
2025-10-25T12:00	31550	9	-51.2		249	43	
2025-10-25T12:00	31600	9	-51.4		248	44	
2025-10-25T12:00	31650	9	-51.8		249	44	
2025-10-25T12:00	31700	8	-51.9		250	45	
2025-10-25T12:00	31750	8	-51.5		252	45	
2025-10-25T12:00	31800	8	-51.5		254	46	
2025-10-25T12:00	31850	8	-51.2		255	47	
2025-10-25T12:00	31900	8	-51.1		256	47	
2025-10-25T12:00	31950	8	-51.0		257	47	
2025-10-25T12:00	32000	8	-50.9		258	47	
2025-10-25T12:00	32050	8	-50.6		258	47	
2025-10-25T12:00	32100	8	-50.3		258	47	
2025-10-25T12:00	32150	8	-50.0		260	48	
2025-10-25T12:00	32200	8	-49.7		261	48	
2025-10-25T12:00	32250	8	-49.7		262	48	
2025-10-25T12:00	32300	8	-49.6		262	48	
2025-10-25T12:00	32350	8	-49.3		260	47	
2025-10-25T12:00	32400	8	-49.2		258	47	
2025-10-25T12:00	32450	8	-49.2		257	48	
2025-10-25T12:00	32500	7	-49.2		255	48	
2025-10-25T12:00	32550	7	-49.5		254	48	
2025-10-25T12:00	32600	7	-49.8		254	48	
2025-10-25T12:00	32650	7	-50.2		253	49	
2025-10-25T12:00	32700	7	-50.4		253	49	
2025-10-25T12:00	32750	7	-50.1		253	49	
2025-10-25T12:00	32800	7	-49.5		254	49	
2025-10-25T12:00	32850	7	-49.3		255	50	
2025-10-25T12:00	32900	7	-49.4		256	50	
2025-10-25T12:00	32950	7	-49.7		257	50	
2025-10-25T12:00	33000	7	-50.0		258	50	
2025-10-25T12:00	33050	7	-50.4		259	50	
2025-10-25T12:00	33100	7	-50.8		259	50	
2025-10-25T12:00	33150	7	-50.9		258	50	
2025-10-25T12:00	33200	7	-50.9		258	50	
2025-10-25T12:00	33250	7	-51.1		258	50	
2025-10-25T12:00	33300	7	-51.3		258	50	
2025-10-25T12:00	33350	7	-51.1		258	50	
2025-10-25T12:00	33400	7	-50.7		258	51	
2025-10-25T12:00	33450	6	-50.5		257	52	
2025-10-25T12:00	33500	6	-50.3		256	53	
2025-10-25T12:00	33550	6	-50.2		255	54	
2025-10-25T12:00	33600	6	-50.2		255	54	
2025-10-25T12:00	33650	6	-50.1		256	54	
2025-10-25T12:00	33700	6	-50.0		256	53	
2025-10-25T12:00	33750	6	-50.0		256	53	
2025-10-25T12:00	33800	6	-50.1		256	52	
2025-10-25T12:00	33850	6	-50.2		257	52	
2025-10-25T12:00	33900	6	-50.4		257	51	
2025-10-25T12:00	33950	6	-50.7		258	51	
2025-10-25T12:00	34000	6	-50.6		259	50	
2025-10-25T12:00	34050	6	-50.5		259	50	
2025-10-25T12:00	34100	6	-50.7		260	50	
2025-10-25T12:00	34150	6	-51.2		261	50	
2025-10-25T12:00	34200	6	-51.5		261	50	
2025-10-25T12:00	34250	6	-51.7		260	51	
2025-10-25T12:00	34300	6	-51.8		259	52	
2025-10-25T12:00	34350	6	-51.9		259	53	
2025-10-25T12:00	34400	6	-52.1		258	54	
2025-10-25T12:00	34450	6	-52.5		258	55	
2025-10-25T12:00	34500	6	-52.7		258	55	
2025-10-25T12:00	34550	5	-52.9		259	56	
2025-10-25T12:00	34600	5	-53.1		259	57	
2025-10-25T12:00	34650	5	-53.0		259	57	
2025-10-26T00:00	491	953	8.8	6.6	245	5	
2025-10-26T00:00	501	950	8.9	6.1	245	4	
2025-10-26T00:00	520	949	9.0	5.6	245	5	
2025-10-26T00:00	540	947	8.9	5.2	247	6	
2025-10-26T00:00	560	945	8.7	5.0	248	7	
2025-10-26T00:00	580	942	8.6	4.8	250	8	
2025-10-26T00:00	600	940	8.5	4.5	252	9	
2025-10-26T00:00	620	938	8.3	4.7	253	9	
2025-10-26T00:00	640	936	8.2	4.3	254	10	
2025-10-26T00:00	660	933	8.3	3.7	256	10	
2025-10-26T00:00	680	931	8.4	3.4	256	10	
2025-10-26T00:00	700	929	8.2	3.4	257	10	
2025-10-26T00:00	720	927	8.0	3.3	257	10	
2025-10-26T00:00	740	924	7.9	3.2	256	10	
2025-10-26T00:00	760	922	7.7	3.2	256	10	
2025-10-26T00:00	780	920	7.5	3.0	256	10	
2025-10-26T00:00	800	918	7.4	2.9	256	9	
2025-10-26T00:00	820	915	7.2	2.8	256	9	
2025-10-26T00:00	840	913	7.1	2.5	256	9	
2025-10-26T00:00	860	911	6.9	2.3	257	10	
2025-10-26T00:00	880	909	6.9	1.8	257	10	
2025-10-26T00:00	900	907	6.8	1.6	258	10	
2025-10-26T00:00	920	905	6.6	1.6	259	10	
2025-10-26T00:00	940	902	6.4	1.7	261	11	
2025-10-26T00:00	960	900	6.2	1.6	262	11	
2025-10-26T00:00	980	898	6.0	1.6	264	11	
2025-10-26T00:00	1000	896	5.9	1.5	265	11	
2025-10-26T00:00	1020	893	5.8	1.3	266	12	
2025-10-26T00:00	1040	891	5.6	1.2	266	12	
2025-10-26T00:00	1060	889	5.4	0.9	267	12	
2025-10-26T00:00	1080	887	5.3	0.8	268	12	
2025-10-26T00:00	1100	885	5.1	0.8	268	13	
2025-10-26T00:00	1120	883	5.0	0.7	268	13	
2025-10-26T00:00	1140	880	4.9	0.6	268	13	
2025-10-26T00:00	1160	878	4.7	0.6	268	13	
2025-10-26T00:00	1180	876	4.5	0.5	267	13	
2025-10-26T00:00	1200	874	4.3	0.5	267	13	
2025-10-26T00:00	1220	872	4.1	0.4	266	13	
2025-10-26T00:00	1240	870	3.9	0.4	265	13	
2025-10-26T00:00	1260	868	3.7	0.4	264	12	
2025-10-26T00:00	1280	865	3.5	0.4	264	12	
2025-10-26T00:00	1300	863	3.3	0.4	263	13	
2025-10-26T00:00	1320	861	3.1	0.4	263	13	
2025-10-26T00:00	1340	859	2.9	0.3	263	13	
2025-10-26T00:00	1360	857	2.8	0.3	263	13	
2025-10-26T00:00	1380	855	2.6	0.2	263	13	
2025-10-26T00:00	1400	853	2.4	0.1	263	13	
2025-10-26T00:00	1420	850	2.2	0.1	264	13	
2025-10-26T00:00	1440	848	2.0	0.0	264	13	
2025-10-26T00:00	1460	847	1.9	0.0	264	13	
2025-10-26T00:00	1480	844	1.7	-0.1	264	13	
2025-10-26T00:00	1500	842	1.5	-0.1	264	13	
2025-10-26T00:00	1520	840	1.4	-0.3	264	13	
2025-10-26T00:00	1540	838	1.2	-0.2	264	13	
2025-10-26T00:00	1560	836	1.0	-0.2	264	12	
2025-10-26T00:00	1580	834	0.8	-0.2	265	12	
2025-10-26T00:00	1600	832	0.6	-0.1	265	12	
2025-10-26T00:00	1620	830	0.4	-0.3	265	12	
2025-10-26T00:00	1640	828	0.2	-0.1	265	11	
2025-10-26T00:00	1660	825	0.1	-0.1	265	11	
2025-10-26T00:00	1680	823	-0.1	-0.1	264	11	
2025-10-26T00:00	1700	822	-0.3	-0.3	263	11	
2025-10-26T00:00	1720	820	-0.4	-0.4	262	11	
2025-10-26T00:00	1740	817	-0.5	-0.5	261	11	
2025-10-26T00:00	1760	815	-0.6	-0.6	260	11	
2025-10-26T00:00	1780	813	-0.6	-0.6	260	11	
2025-10-26T00:00	1800	811	-0.7	-0.7	259	11	
2025-10-26T00:00	1820	809	-0.8	-0.8	258	11	
2025-10-26T00:00	1840	807	-0.9	-0.9	256	11	
2025-10-26T00:00	1860	805	-1.0	-1.0	255	11	
2025-10-26T00:00	1880	803	-1.1	-1.1	254	11	
2025-10-26T00:00	1900	801	-1.2	-1.2	253	11	
2025-10-26T00:00	1920	799	-1.3	-1.3	253	11	
2025-10-26T00:00	1940	797	-1.4	-1.4	252	11	
2025-10-26T00:00	1960	795	-1.5	-1.5	252	11	
2025-10-26T00:00	1980	793	-1.5	-1.6	252	11	
2025-10-26T00:00	2000	791	-1.6	-1.6	251	11	
2025-10-26T00:00	2020	789	-1.6	-1.9	251	11	
2025-10-26T00:00	2040	787	-1.6	-2.1	251	12	
2025-10-26T00:00	2060	785	-1.6	-2.1	252	12	
2025-10-26T00:00	2080	783	-1.7	-2.2	252	12	
2025-10-26T00:00	2100	781	-1.7	-2.4	253	12	
2025-10-26T00:00	2120	779	-1.8	-2.5	254	12	
2025-10-26T00:00	2140	777	-1.9	-2.6	254	12	
2025-10-26T00:00	2160	775	-2.1	-2.7	255	13	
2025-10-26T00:00	2180	774	-2.2	-2.7	256	13	
2025-10-26T00:00	2200	772	-2.4	-2.9	256	13	
2025-10-26T00:00	2220	770	-2.5	-2.9	255	13	
2025-10-26T00:00	2240	768	-2.6	-3.0	255	13	
2025-10-26T00:00	2260	766	-2.7	-3.2	254	13	
2025-10-26T00:00	2280	764	-2.8	-3.3	253	13	
2025-10-26T00:00	2300	762	-2.9	-3.4	253	13	
2025-10-26T00:00	2320	760	-3.0	-3.6	252	13	
2025-10-26T00:00	2340	758	-3.1	-3.8	251	12	
2025-10-26T00:00	2360	756	-3.1	-3.9	251	12	
2025-10-26T00:00	2380	754	-3.2	-4.1	251	12	
2025-10-26T00:00	2400	752	-3.2	-4.2	252	12	
2025-10-26T00:00	2420	751	-3.3	-4.4	253	11	
2025-10-26T00:00	2440	749	-3.4	-4.4	254	11	
2025-10-26T00:00	2460	747	-3.6	-4.6	254	10	
2025-10-26T00:00	2480	745	-3.7	-4.7	253	10	
2025-10-26T00:00	2500	743	-3.8	-4.7	251	10	
2025-10-26T00:00	2520	741	-4.0	-4.9	249	10	
2025-10-26T00:00	2540	739	-4.1	-5.0	247	10	
2025-10-26T00:00	2560	737	-4.2	-5.2	246	10	
2025-10-26T00:00	2580	735	-4.3	-5.3	245	10	
2025-10-26T00:00	2600	733	-4.4	-5.4	245	11	
2025-10-26T00:00	2620	732	-4.5	-5.5	244	11	
2025-10-26T00:00	2640	730	-4.6	-5.7	244	12	
2025-10-26T00:00	2660	728	-4.7	-5.9	243	12	
2025-10-26T00:00	2680	726	-4.9	-5.9	242	12	
2025-10-26T00:00	2700	724	-4.9	-5.9	241	12	
2025-10-26T00:00	2720	722	-5.1	-6.0	240	12	
2025-10-26T00:00	2740	721	-5.2	-6.1	239	12	
2025-10-26T00:00	2760	719	-5.3	-6.1	238	12	
2025-10-26T00:00	2780	717	-5.5	-6.3	238	12	
2025-10-26T00:00	2800	715	-5.6	-6.4	237	12	
2025-10-26T00:00	2820	713	-5.7	-6.6	237	12	
2025-10-26T00:00	2840	712	-5.8	-6.6	237	12	
2025-10-26T00:00	2860	710	-6.0	-6.7	236	12	
2025-10-26T00:00	2880	708	-6.1	-6.9	236	12	
2025-10-26T00:00	2900	706	-6.2	-7.0	235	12	
2025-10-26T00:00	2920	704	-6.4	-7.0	234	13	
2025-10-26T00:00	2940	702	-6.5	-7.1	234	13	
2025-10-26T00:00	2960	701	-6.6	-7.2	233	13	
2025-10-26T00:00	2980	699	-6.7	-7.5	232	14	
2025-10-26T00:00	3000	697	-6.7	-7.6	231	14	
2025-10-26T00:00	3020	695	-6.8	-7.7	231	15	
2025-10-26T00:00	3040	693	-6.9	-7.8	230	15	
2025-10-26T00:00	3060	692	-7.1	-7.9	230	15	
2025-10-26T00:00	3080	690	-7.2	-8.0	229	15	
2025-10-26T00:00	3100	688	-7.4	-8.1	229	15	
2025-10-26T00:00	3120	686	-7.5	-8.2	230	14	
2025-10-26T00:00	3140	685	-7.6	-8.3	230	14	
2025-10-26T00:00	3160	683	-7.8	-8.4	231	14	
2025-10-26T00:00	3180	681	-7.9	-8.6	232	14	
2025-10-26T00:00	3200	679	-8.0	-8.7	233	14	
2025-10-26T00:00	3220	678	-8.1	-8.9	234	14	
2025-10-26T00:00	3240	676	-8.3	-9.0	234	14	
2025-10-26T00:00	3260	674	-8.4	-9.1	234	14	
2025-10-26T00:00	3280	672	-8.5	-9.4	234	14	
2025-10-26T00:00	3300	671	-8.6	-9.5	233	14	
2025-10-26T00:00	3320	669	-8.7	-9.7	233	14	
2025-10-26T00:00	3340	667	-8.8	-9.8	232	14	
2025-10-26T00:00	3360	666	-8.9	-10.0	232	14	
2025-10-26T00:00	3380	664	-9.1	-10.0	232	14	
2025-10-26T00:00	3400	662	-9.2	-10.1	232	14	
2025-10-26T00:00	3420	660	-9.3	-10.3	232	14	
2025-10-26T00:00	3440	659	-9.5	-10.5	233	14	
2025-10-26T00:00	3460	657	-9.6	-10.6	233	14	
2025-10-26T00:00	3480	655	-9.8	-10.9	233	14	
2025-10-26T00:00	3500	653	-9.9	-12.7	234	14	
2025-10-26T00:00	3520	652	-10.0	-14.7	234	14	
2025-10-26T00:00	3540	650	-10.2	-14.8	234	14	
2025-10-26T00:00	3560	648	-10.4	-15.2	235	14	
2025-10-26T00:00	3580	647	-10.6	-11.8	235	14	
2025-10-26T00:00	3600	645	-10.7	-13.4	237	14	
2025-10-26T00:00	3620	643	-10.6	-19.7	239	14	
2025-10-26T00:00	3640	642	-10.8	-19.7	241	14	
2025-10-26T00:00	3660	640	-11.1	-19.5	243	13	
2025-10-26T00:00	3680	638	-11.3	-19.8	246	13	
2025-10-26T00:00	3700	637	-11.4	-20.1	248	13	
2025-10-26T00:00	3720	635	-11.6	-20.8	250	13	
2025-10-26T00:00	3740	634	-11.8	-19.8	251	13	
2025-10-26T00:00	3760	632	-12.0	-20.4	252	14	
2025-10-26T00:00	3780	630	-12.2	-21.5	252	14	
2025-10-26T00:00	3800	629	-12.3	-21.5	251	15	
2025-10-26T00:00	3820	627	-12.6	-21.2	251	15	
2025-10-26T00:00	3840	625	-12.7	-21.3	250	16	
2025-10-26T00:00	3860	624	-12.9	-20.9	250	16	
2025-10-26T00:00	3880	622	-13.1	-20.9	250	17	
2025-10-26T00:00	3900	620	-13.4	-21.8	251	17	
2025-10-26T00:00	3920	619	-13.6	-20.4	251	17	
2025-10-26T00:00	3940	617	-13.6	-21.4	252	17	
2025-10-26T00:00	3960	616	-13.7	-22.0	253	17	
2025-10-26T00:00	3980	614	-13.7	-22.0	255	17	
2025-10-26T00:00	4000	612	-13.9	-21.3	257	17	
2025-10-26T00:00	4020	611	-14.3	-18.9	258	17	
2025-10-26T00:00	4040	609	-14.4	-20.8	260	18	
2025-10-26T00:00	4060	608	-14.1	-31.2	260	18	
2025-10-26T00:00	4080	606	-13.9	-34.1	261	17	
2025-10-26T00:00	4100	604	-14.0	-33.3	261	17	
2025-10-26T00:00	4120	603	-14.2	-32.9	261	17	
2025-10-26T00:00	4140	601	-14.3	-34.1	261	17	
2025-10-26T00:00	4160	600	-14.3	-35.7	261	17	
2025-10-26T00:00	4180	598	-14.3	-35.7	262	16	
2025-10-26T00:00	4200	596	-14.5	-34.1	263	16	
2025-10-26T00:00	4220	595	-14.7	-31.3	264	17	
2025-10-26T00:00	4240	593	-14.9	-31.1	264	17	
2025-10-26T00:00	4260	592	-15.1	-31.3	265	18	
2025-10-26T00:00	4280	590	-15.2	-30.6	265	18	
2025-10-26T00:00	4300	589	-15.4	-29.8	265	19	
2025-10-26T00:00	4320	587	-15.6	-28.3	266	19	
2025-10-26T00:00	4340	585	-15.7	-27.5	266	20	
2025-10-26T00:00	4360	584	-15.9	-27.5	266	20	
2025-10-26T00:00	4380	582	-16.0	-27.4	266	20	
2025-10-26T00:00	4400	581	-16.2	-27.4	266	20	
2025-10-26T00:00	4420	579	-16.3	-27.6	266	20	
2025-10-26T00:00	4440	578	-16.5	-27.7	266	20	
2025-10-26T00:00	4460	576	-16.7	-27.8	266	20	
2025-10-26T00:00	4480	574	-16.9	-28.2	266	20	
2025-10-26T00:00	4500	573	-17.0	-28.4	266	20	
2025-10-26T00:00	4520	572	-17.1	-28.4	265	20	
2025-10-26T00:00	4540	570	-17.2	-28.6	266	20	
2025-10-26T00:00	4560	568	-17.4	-28.6	266	20	
2025-10-26T00:00	4580	567	-17.6	-28.7	266	20	
2025-10-26T00:00	4600	566	-17.8	-28.9	267	20	
2025-10-26T00:00	4620	564	-18.0	-29.0	267	19	
2025-10-26T00:00	4640	562	-18.1	-29.2	268	19	
2025-10-26T00:00	4660	561	-18.3	-29.3	268	19	
2025-10-26T00:00	4680	559	-18.5	-29.3	268	19	
2025-10-26T00:00	4700	558	-18.7	-29.3	268	19	
2025-10-26T00:00	4720	556	-18.9	-29.3	267	18	
2025-10-26T00:00	4740	555	-19.1	-29.3	267	18	
2025-10-26T00:00	4760	553	-19.3	-29.3	267	18	
2025-10-26T00:00	4780	552	-19.5	-29.4	267	18	
2025-10-26T00:00	4800	550	-19.7	-29.4	267	18	
2025-10-26T00:00	4820	549	-19.8	-29.7	267	18	
2025-10-26T00:00	4840	548	-20.0	-29.8	267	18	
2025-10-26T00:00	4860	546	-20.2	-30.1	266	18	
2025-10-26T00:00	4880	545	-20.4	-30.1	266	18	
2025-10-26T00:00	4900	543	-20.6	-30.3	267	18	
2025-10-26T00:00	4920	541	-20.8	-30.4	267	18	
2025-10-26T00:00	4940	540	-20.9	-30.6	268	18	
2025-10-26T00:00	4960	539	-21.0	-31.8	268	18	
2025-10-26T00:00	4980	537	-21.0	-36.4	269	18	
2025-10-26T00:00	5000	536	-20.7	-42.5	270	18	
2025-10-26T00:00	5020	534	-20.6	-41.7	270	18	
2025-10-26T00:00	5040	533	-20.6	-36.8	271	19	
2025-10-26T00:00	5060	532	-20.6	-33.8	271	19	
2025-10-26T00:00	5080	530	-20.6	-30.6	272	19	
2025-10-26T00:00	5100	529	-20.8	-28.6	272	20	
2025-10-26T00:00	5120	527	-20.9	-29.0	273	20	
2025-10-26T00:00	5140	526	-21.0	-29.4	273	20	
2025-10-26T00:00	5160	524	-21.1	-29.0	274	20	
2025-10-26T00:00	5180	523	-21.2	-29.2	274	20	
2025-10-26T00:00	5200	521	-21.1	-30.3	276	20	
2025-10-26T00:00	5220	520	-21.1	-31.6	277	20	
2025-10-26T00:00	5240	519	-21.1	-31.3	278	21	
2025-10-26T00:00	5260	517	-21.3	-30.9	279	21	
2025-10-26T00:00	5280	516	-21.5	-30.9	280	21	
2025-10-26T00:00	5300	514	-21.6	-30.7	281	21	
2025-10-26T00:00	5320	513	-21.7	-31.3	281	21	
2025-10-26T00:00	5340	512	-21.6	-32.5	282	21	
2025-10-26T00:00	5360	510	-21.6	-32.6	282	21	
2025-10-26T00:00	5380	509	-21.7	-32.5	281	21	
2025-10-26T00:00	5400	508	-21.9	-32.2	280	21	
2025-10-26T00:00	5420	506	-22.0	-32.3	278	21	
2025-10-26T00:00	5440	505	-22.1	-32.4	277	22	
2025-10-26T00:00	5460	504	-22.3	-32.7	275	22	
2025-10-26T00:00	5480	502	-22.4	-32.9	273	22	
2025-10-26T00:00	5500	501	-22.5	-33.3	272	23	
2025-10-26T00:00	5520	499	-22.5	-33.5	271	23	
2025-10-26T00:00	5540	498	-22.5	-33.5	271	23	
2025-10-26T00:00	5560	497	-22.3	-34.4	270	23	
2025-10-26T00:00	5580	495	-22.3	-34.6	270	23	
2025-10-26T00:00	5600	494	-22.4	-34.3	270	24	
2025-10-26T00:00	5620	492	-22.5	-33.9	270	24	
2025-10-26T00:00	5640	491	-22.6	-33.2	271	24	
2025-10-26T00:00	5660	490	-22.6	-31.5	271	24	
2025-10-26T00:00	5680	488	-22.7	-31.4	271	25	
2025-10-26T00:00	5700	487	-22.7	-31.6	272	25	
2025-10-26T00:00	5720	486	-22.7	-31.8	272	25	
2025-10-26T00:00	5740	485	-22.8	-31.8	272	26	
2025-10-26T00:00	5760	483	-22.9	-32.0	273	26	
2025-10-26T00:00	5780	482	-23.0	-32.1	273	26	
2025-10-26T00:00	5800	481	-23.1	-32.3	274	26	
2025-10-26T00:00	5820	479	-23.3	-32.4	274	26	
2025-10-26T00:00	5840	478	-23.4	-32.6	274	25	
2025-10-26T00:00	5860	477	-23.5	-32.7	275	25	
2025-10-26T00:00	5880	475	-23.6	-32.9	275	25	
2025-10-26T00:00	5900	474	-23.8	-33.0	275	25	
2025-10-26T00:00	5920	473	-24.0	-33.1	275	25	
2025-10-26T00:00	5940	472	-24.1	-33.2	275	25	
2025-10-26T00:00	5960	470	-24.3	-33.5	276	26	
2025-10-26T00:00	5980	469	-24.4	-33.8	276	26	
2025-10-26T00:00	6000	468	-24.6	-34.1	276	26	
2025-10-26T00:00	6020	466	-24.7	-34.4	275	26	
2025-10-26T00:00	6040	465	-24.8	-34.9	275	26	
2025-10-26T00:00	6060	464	-24.9	-35.2	275	26	
2025-10-26T00:00	6080	462	-25.1	-35.4	275	26	
2025-10-26T00:00	6100	461	-25.2	-35.4	274	26	
2025-10-26T00:00	6120	460	-25.3	-35.6	274	25	
2025-10-26T00:00	6140	459	-25.4	-36.0	274	25	
2025-10-26T00:00	6160	458	-25.5	-36.3	274	25	
2025-10-26T00:00	6180	456	-25.6	-37.4	274	25	
2025-10-26T00:00	6200	455	-25.6	-39.2	273	25	
2025-10-26T00:00	6220	454	-25.6	-39.6	273	25	
2025-10-26T00:00	6240	452	-25.8	-39.7	273	24	
2025-10-26T00:00	6260	451	-25.9	-39.7	274	24	
2025-10-26T00:00	6280	450	-26.1	-39.7	274	24	
2025-10-26T00:00	6300	449	-26.3	-39.7	275	25	
2025-10-26T00:00	6320	447	-26.5	-39.8	276	25	
2025-10-26T00:00	6340	446	-26.7	-39.7	277	25	
2025-10-26T00:00	6360	445	-26.9	-39.8	277	25	
2025-10-26T00:00	6380	444	-27.1	-39.9	278	25	
2025-10-26T00:00	6400	443	-27.2	-40.0	278	25	
2025-10-26T00:00	6420	441	-27.5	-40.4	278	25	
2025-10-26T00:00	6440	440	-27.6	-40.4	278	25	
2025-10-26T00:00	6460	439	-27.8	-40.4	277	25	
2025-10-26T00:00	6480	438	-28.0	-40.5	277	25	
2025-10-26T00:00	6500	436	-28.2	-40.4	277	25	
2025-10-26T00:00	6520	435	-28.4	-40.5	278	25	
2025-10-26T00:00	6540	434	-28.6	-40.6	278	25	
2025-10-26T00:00	6560	433	-28.8	-41.0	278	25	
2025-10-26T00:00	6580	432	-29.0	-41.4	278	25	
2025-10-26T00:00	6600	430	-29.1	-42.2	277	25	
2025-10-26T00:00	6620	429	-29.2	-42.9	277	25	
2025-10-26T00:00	6640	428	-29.3	-43.3	277	25	
2025-10-26T00:00	6660	427	-29.4	-44.1	277	25	
2025-10-26T00:00	6680	426	-29.4	-44.2	277	25	
2025-10-26T00:00	6700	424	-29.5	-44.9	277	25	
2025-10-26T00:00	6720	423	-29.6	-45.6	277	25	
2025-10-26T00:00	6740	422	-29.8	-45.4	278	25	
2025-10-26T00:00	6760	421	-29.9	-45.4	278	25	
2025-10-26T00:00	6780	420	-30.1	-45.3	278	24	
2025-10-26T00:00	6800	418	-30.3	-45.6	278	24	
2025-10-26T00:00	6820	417	-30.4	-45.7	278	24	
2025-10-26T00:00	6840	416	-30.6	-45.6	278	24	
2025-10-26T00:00	6860	415	-30.8	-45.5	277	23	
2025-10-26T00:00	6880	414	-31.0	-45.7	277	24	
2025-10-26T00:00	6900	413	-31.2	-45.7	276	24	
2025-10-26T00:00	6920	411	-31.4	-45.7	276	24	
2025-10-26T00:00	6940	410	-31.6	-45.6	276	24	
2025-10-26T00:00	6960	409	-31.7	-45.7	276	24	
2025-10-26T00:00	6980	408	-31.9	-45.6	277	24	
2025-10-26T00:00	7000	407	-32.2	-45.5	277	24	
2025-10-26T00:00	7020	406	-32.4	-45.9	278	25	
2025-10-26T00:00	7040	404	-32.5	-46.0	279	25	
2025-10-26T00:00	7060	403	-32.7	-46.0	279	25	
2025-10-26T00:00	7080	402	-32.9	-46.0	279	25	
2025-10-26T00:00	7100	401	-33.1	-46.2	279	25	
2025-10-26T00:00	7120	400	-33.2	-47.0	279	26	
2025-10-26T00:00	7140	399	-33.4	-47.6	279	26	
2025-10-26T00:00	7160	398	-33.5	-47.9	279	26	
2025-10-26T00:00	7180	397	-33.6	-49.5	279	26	
2025-10-26T00:00	7200	395	-33.7	-50.1	279	26	
2025-10-26T00:00	7220	394	-33.9	-49.8	279	26	
2025-10-26T00:00	7240	393	-34.1	-49.5	279	26	
2025-10-26T00:00	7260	392	-34.3	-49.3	278	26	
2025-10-26T00:00	7280	391	-34.5	-48.9	278	26	
2025-10-26T00:00	7300	390	-34.7	-49.2	278	26	
2025-10-26T00:00	7320	389	-34.8	-50.3	278	26	
2025-10-26T00:00	7340	388	-35.0	-50.6	278	26	
2025-10-26T00:00	7360	387	-35.2	-50.4	278	26	
2025-10-26T00:00	7380	385	-35.4	-50.2	278	26	
2025-10-26T00:00	7400	384	-35.6	-50.4	279	27	
2025-10-26T00:00	7420	383	-35.8	-51.2	279	27	
2025-10-26T00:00	7440	382	-35.9	-51.3	279	27	
2025-10-26T00:00	7460	381	-36.1	-51.5	278	27	
2025-10-26T00:00	7480	380	-36.3	-51.8	278	27	
2025-10-26T00:00	7500	379	-36.5	-52.0	278	27	
2025-10-26T00:00	7520	378	-36.7	-52.2	277	27	
2025-10-26T00:00	7540	377	-36.8	-52.5	276	27	
2025-10-26T00:00	7560	375	-37.0	-53.4	275	27	
2025-10-26T00:00	7580	374	-37.1	-54.5	275	27	
2025-10-26T00:00	7600	373	-37.2	-54.7	274	27	
2025-10-26T00:00	7620	372	-37.3	-54.5	274	27	
2025-10-26T00:00	7640	371	-37.5	-54.8	273	27	
2025-10-26T00:00	7660	370	-37.6	-55.1	273	27	
2025-10-26T00:00	7680	369	-37.7	-55.1	273	27	
2025-10-26T00:00	7700	368	-37.9	-56.0	273	27	
2025-10-26T00:00	7720	367	-38.0	-56.4	273	27	
2025-10-26T00:00	7740	366	-38.1	-55.9	273	27	
2025-10-26T00:00	7760	365	-38.3	-56.2	274	27	
2025-10-26T00:00	7780	364	-38.5	-56.2	274	27	
2025-10-26T00:00	7800	363	-38.6	-56.4	275	27	
2025-10-26T00:00	7820	362	-38.8	-56.6	275	27	
2025-10-26T00:00	7840	360	-39.0	-57.0	275	27	
2025-10-26T00:00	7860	359	-39.2	-57.1	276	27	
2025-10-26T00:00	7880	358	-39.4	-57.0	276	27	
2025-10-26T00:00	7900	357	-39.6	-56.8	276	27	
2025-10-26T00:00	7920	356	-39.8	-57.0	275	27	
2025-10-26T00:00	7940	355	-39.9	-57.3	275	27	
2025-10-26T00:00	7960	354	-40.1	-57.4	275	27	
2025-10-26T00:00	7980	353	-40.2	-57.6	275	27	
2025-10-26T00:00	8000	352	-40.4	-58.0	275	27	
2025-10-26T00:00	8020	351	-40.5	-58.1	275	27	
2025-10-26T00:00	8040	350	-40.7	-58.2	275	27	
2025-10-26T00:00	8060	349	-40.9	-58.4	275	27	
2025-10-26T00:00	8080	348	-41.0	-58.4	274	27	
2025-10-26T00:00	8100	347	-41.2	-58.8	274	27	
2025-10-26T00:00	8120	346	-41.4	-59.1	274	27	
2025-10-26T00:00	8140	345	-41.5	-59.2	274	27	
2025-10-26T00:00	8160	344	-41.7	-59.2	274	27	
2025-10-26T00:00	8180	343	-41.8	-59.1	274	27	
2025-10-26T00:00	8200	342	-42.0	-59.0	274	27	
2025-10-26T00:00	8220	341	-42.2	-59.1	274	27	
2025-10-26T00:00	8240	340	-42.3	-59.5	275	27	
2025-10-26T00:00	8260	339	-42.4	-59.9	275	27	
2025-10-26T00:00	8280	338	-42.6	-59.9	276	27	
2025-10-26T00:00	8300	337	-42.7	-60.0	276	27	
2025-10-26T00:00	8320	336	-42.8	-60.1	277	28	
2025-10-26T00:00	8340	335	-42.9	-60.1	277	28	
2025-10-26T00:00	8360	334	-43.1	-60.2	277	28	
2025-10-26T00:00	8380	333	-43.3	-60.5	277	29	
2025-10-26T00:00	8400	332	-43.5	-60.4	277	29	
2025-10-26T00:00	8420	331	-43.7	-59.8	277	29	
2025-10-26T00:00	8440	330	-43.8	-59.5	278	30	
2025-10-26T00:00	8460	329	-44.0	-59.6	278	30	
2025-10-26T00:00	8480	328	-44.1	-59.8	278	30	
2025-10-26T00:00	8500	327	-44.3	-60.1	278	30	
2025-10-26T00:00	8520	326	-44.4	-60.4	278	29	
2025-10-26T00:00	8540	325	-44.5	-60.4	278	29	
2025-10-26T00:00	8560	324	-44.6	-60.4	278	29	
2025-10-26T00:00	8580	323	-44.8	-60.5	276	30	
2025-10-26T00:00	8600	322	-45.1	-60.6	274	31	
2025-10-26T00:00	8620	321	-45.2	-60.8	273	31	
2025-10-26T00:00	8640	320	-45.3	-60.9	272	32	
2025-10-26T00:00	8660	319	-45.5	-61.2	271	33	
2025-10-26T00:00	8680	318	-45.2	-61.7	270	33	
2025-10-26T00:00	8700	317	-45.1	-62.3	269	34	
2025-10-26T00:00	8720	316	-45.0	-62.6	268	35	
2025-10-26T00:00	8740	316	-44.8	-62.6	269	36	
2025-10-26T00:00	8760	314	-44.8	-62.6	269	37	
2025-10-26T00:00	8780	313	-45.0	-62.7	270	38	
2025-10-26T00:00	8800	313	-44.9	-63.1	271	39	
2025-10-26T00:00	8820	312	-44.7	-63.6	272	40	
2025-10-26T00:00	8840	311	-44.7	-63.6	273	41	
2025-10-26T00:00	8860	310	-44.8	-63.8	273	42	
2025-10-26T00:00	8880	309	-44.8	-64.2	273	43	
2025-10-26T00:00	8900	308	-44.9	-64.6	273	44	
2025-10-26T00:00	8920	307	-44.7	-64.9	273	44	
2025-10-26T00:00	8940	306	-44.5	-65.1	273	45	
2025-10-26T00:00	8960	305	-44.4	-65.3	273	45	
2025-10-26T00:00	8980	304	-44.5	-65.2	273	45	
2025-10-26T00:00	9000	303	-44.6	-65.1	274	45	
2025-10-26T00:00	9020	303	-44.6	-65.1	274	45	
2025-10-26T00:00	9040	302	-44.5	-65.5	274	45	
2025-10-26T00:00	9060	301	-44.5	-66.0	274	45	
2025-10-26T00:00	9080	300	-44.6	-67.0	275	45	
2025-10-26T00:00	9100	299	-44.7	-67.9	275	46	
2025-10-26T00:00	9120	298	-44.8	-68.1	275	46	
2025-10-26T00:00	9140	297	-45.0	-67.9	275	45	
2025-10-26T00:00	9160	296	-45.1	-67.7	276	45	
2025-10-26T00:00	9180	295	-45.3	-67.2	276	45	
2025-10-26T00:00	9200	294	-45.4	-66.9	276	45	
2025-10-26T00:00	9220	294	-45.5	-67.2	276	45	
2025-10-26T00:00	9240	293	-45.7	-67.7	276	44	
2025-10-26T00:00	9260	292	-45.8	-68.0	275	44	
2025-10-26T00:00	9280	291	-45.9	-68.3	275	45	
2025-10-26T00:00	9300	290	-46.0	-68.6	274	45	
2025-10-26T00:00	9320	289	-46.1	-68.7	274	46	
2025-10-26T00:00	9340	288	-46.1	-68.9	274	46	
2025-10-26T00:00	9360	288	-46.3	-69.0	273	46	
2025-10-26T00:00	9380	287	-46.4	-69.1	273	47	
2025-10-26T00:00	9400	286	-46.4	-69.3	272	47	
2025-10-26T00:00	9420	285	-46.4	-69.6	272	48	
2025-10-26T00:00	9440	284	-46.5	-69.5	272	48	
2025-10-26T00:00	9460	283	-46.5	-69.6	272	49	
2025-10-26T00:00	9480	282	-46.6	-69.9	272	49	
2025-10-26T00:00	9500	282	-46.6	-70.0	272	50	
2025-10-26T00:00	9520	281	-46.7	-69.9	273	51	
2025-10-26T00:00	9540	280	-46.6	-69.5	273	52	
2025-10-26T00:00	9560	279	-46.6	-69.3	273	53	
2025-10-26T00:00	9580	278	-46.5	-69.0	273	55	
2025-10-26T00:00	9600	277	-46.4	-68.8	273	56	
2025-10-26T00:00	9620	276	-46.3	-68.5	273	56	
2025-10-26T00:00	9640	276	-46.3	-68.1	274	57	
2025-10-26T00:00	9660	275	-46.4	-67.8	274	57	
2025-10-26T00:00	9680	274	-46.5	-67.7	274	58	
2025-10-26T00:00	9700	273	-46.5	-67.5	274	58	
2025-10-26T00:00	9720	272	-46.6	-67.2	275	58	
2025-10-26T00:00	9740	271	-46.7	-67.2	275	58	
2025-10-26T00:00	9760	271	-46.9	-67.2	275	57	
2025-10-26T00:00	9780	270	-46.9	-67.2	275	57	
2025-10-26T00:00	9800	269	-47.0	-67.6	275	57	
2025-10-26T00:00	9820	268	-47.0	-67.7	275	57	
2025-10-26T00:00	9840	268	-47.0	-67.7	276	56	
2025-10-26T00:00	9860	267	-47.1	-67.7	276	56	
2025-10-26T00:00	9880	266	-47.2	-68.3	276	56	
2025-10-26T00:00	9900	265	-47.3	-69.0	276	56	
2025-10-26T00:00	9920	264	-47.4	-69.5	276	56	
2025-10-26T00:00	9940	263	-47.5	-70.0	276	56	
2025-10-26T00:00	9960	263	-47.5	-70.5	276	55	
2025-10-26T00:00	9980	262	-47.6	-70.9	276	55	
2025-10-26T00:00	10000	261	-47.7	-70.8	276	55	
2025-10-26T00:00	10018	260	-47.8	-70.9	276	55	
2025-10-26T00:00	10050	259	-48.1	-71.1	276	55	
2025-10-26T00:00	10100	257	-48.4	-71.5	276	55	
2025-10-26T00:00	10150	255	-48.5	-71.7	276	54	
2025-10-26T00:00	10200	253	-48.7	-71.9	276	54	
2025-10-26T00:00	10250	251	-48.8	-72.2	275	54	
2025-10-26T00:00	10300	249	-49.0	-72.4	274	54	
2025-10-26T00:00	10350	248	-49.2	-72.5	274	53	
2025-10-26T00:00	10400	246	-49.5	-72.7	273	52	
2025-10-26T00:00	10450	244	-49.5	-73.2	273	51	
2025-10-26T00:00	10500	242	-49.7	-73.6	274	50	
2025-10-26T00:00	10550	240	-50.0	-73.7	275	50	
2025-10-26T00:00	10600	238	-50.4	-73.9	275	50	
2025-10-26T00:00	10650	236	-50.6	-74.6	275	50	
2025-10-26T00:00	10700	235	-50.8	-74.6	274	51	
2025-10-26T00:00	10750	233	-51.1	-74.5	274	51	
2025-10-26T00:00	10800	231	-51.4	-74.6	273	51	
2025-10-26T00:00	10850	229	-51.3	-74.8	273	51	
2025-10-26T00:00	10900	228	-50.8	-75.3	272	50	
2025-10-26T00:00	10950	226	-50.4	-75.7	272	49	
2025-10-26T00:00	11000	224	-50.1	-76.5	272	47	
2025-10-26T00:00	11050	222	-50.3	-76.6	272	46	
2025-10-26T00:00	11100	221	-49.8	-76.9	273	46	
2025-10-26T00:00	11150	219	-49.7	-77.4	273	46	
2025-10-26T00:00	11200	217	-49.5	-77.5	273	46	
2025-10-26T00:00	11250	216	-49.5	-77.5	273	46	
2025-10-26T00:00	11300	214	-49.2	-77.6	273	45	
2025-10-26T00:00	11350	212	-49.0	-77.7	272	44	
2025-10-26T00:00	11400	211	-49.1	-77.8	272	43	
2025-10-26T00:00	11450	209	-49.3	-77.7	272	42	
2025-10-26T00:00	11500	208	-49.3	-77.3	273	42	
2025-10-26T00:00	11550	206	-49.3	-76.9	275	42	
2025-10-26T00:00	11600	204	-49.6	-77.1	275	42	
2025-10-26T00:00	11650	203	-49.8	-77.1	275	42	
2025-10-26T00:00	11700	201	-50.1	-77.2	274	43	
2025-10-26T00:00	11750	200	-50.4	-77.4	274	42	
2025-10-26T00:00	11800	198	-50.6	-77.6	273	42	
2025-10-26T00:00	11850	197	-50.7	-77.7	273	41	
2025-10-26T00:00	11900	195	-50.8	-77.8	273	41	
2025-10-26T00:00	11950	194	-50.6	-78.0	273	41	
2025-10-26T00:00	12000	192	-50.6	-78.1	274	40	
2025-10-26T00:00	12050	191	-50.8	-78.2	275	40	
2025-10-26T00:00	12100	189	-51.0	-78.3	276	41	
2025-10-26T00:00	12150	188	-51.4	-78.4	275	40	
2025-10-26T00:00	12200	186	-51.9	-78.5	275	40	
2025-10-26T00:00	12250	185	-52.4	-78.6	274	40	
2025-10-26T00:00	12300	184	-52.6	-78.8	273	40	
2025-10-26T00:00	12350	182	-52.6	-79.1	272	39	
2025-10-26T00:00	12400	181	-52.5	-79.3	270	38	
2025-10-26T00:00	12450	179	-52.4	-79.3	268	37	
2025-10-26T00:00	12500	178	-52.5	-79.4	268	37	
2025-10-26T00:00	12550	177	-52.7	-79.5	268	37	
2025-10-26T00:00	12600	175	-52.9	-79.7	268	36	
2025-10-26T00:00	12650	174	-53.1	-79.7	268	36	
2025-10-26T00:00	12700	173	-53.1	-79.8	268	36	
2025-10-26T00:00	12750	171	-53.2	-80.0	267	37	
2025-10-26T00:00	12800	170	-53.4	-80.0	267	37	
2025-10-26T00:00	12850	169	-53.5	-80.2	268	37	
2025-10-26T00:00	12900	167	-53.9	-80.2	268	36	
2025-10-26T00:00	12950	166	-54.3	-80.3	268	36	
2025-10-26T00:00	13000	165	-54.6	-80.5	267	36	
2025-10-26T00:00	13050	163	-54.6	-80.7	265	35	
2025-10-26T00:00	13100	162	-54.8	-80.8	264	36	
2025-10-26T00:00	13150	161	-55.1	-80.8	263	36	
2025-10-26T00:00	13200	160	-55.5	-80.9	263	36	
2025-10-26T00:00	13250	158	-56.0	-81.1	262	36	
2025-10-26T00:00	13300	157	-56.3	-81.3	262	36	
2025-10-26T00:00	13350	156	-56.5	-81.5	263	36	
2025-10-26T00:00	13400	155	-56.5	-81.5	264	36	
2025-10-26T00:00	13450	153	-56.6	-81.4	265	36	
2025-10-26T00:00	13500	152	-57.0	-81.5	267	36	
2025-10-26T00:00	13550	151	-57.0	-81.6	268	36	
2025-10-26T00:00	13600	150	-57.3	-81.7	269	36	
2025-10-26T00:00	13650	149	-57.3	-81.7	271	36	
2025-10-26T00:00	13700	147	-57.5	-81.8	272	36	
2025-10-26T00:00	13750	146	-57.8	-81.9	272	36	
2025-10-26T00:00	13800	145	-58.0	-82.0	273	35	
2025-10-26T00:00	13850	144	-57.9	-82.1	273	35	
2025-10-26T00:00	13900	143	-57.7	-82.2	272	34	
2025-10-26T00:00	13950	142	-57.9	-82.2	273	33	
2025-10-26T00:00	14000	141	-58.1	-82.2	274	33	
2025-10-26T00:00	14050	139	-58.3	-82.3	275	32	
2025-10-26T00:00	14100	138	-58.7	-82.5	275	31	
2025-10-26T00:00	14150	137	-58.8	-82.8	274	31	
2025-10-26T00:00	14200	136	-58.6	-83.0	272	31	
2025-10-26T00:00	14250	135	-58.7	-83.0	269	31	
2025-10-26T00:00	14300	134	-58.7	-83.1	268	31	
2025-10-26T00:00	14350	133	-58.5	-83.1	269	30	
2025-10-26T00:00	14400	132	-58.4	-83.2	270	30	
2025-10-26T00:00	14450	131	-58.2	-83.2	270	31	
2025-10-26T00:00	14500	130	-58.2	-83.1	270	32	
2025-10-26T00:00	14550	129	-58.4	-83.1	270	32	
2025-10-26T00:00	14600	128	-58.5	-83.1	271	31	
2025-10-26T00:00	14650	127	-58.7	-83.3	272	31	
2025-10-26T00:00	14700	126	-58.7	-83.4	273	31	
2025-10-26T00:00	14750	125	-58.5	-83.3	275	30	
2025-10-26T00:00	14800	124	-58.7	-83.4	276	30	
2025-10-26T00:00	14850	123	-59.0	-83.5	276	29	
2025-10-26T00:00	14900	122	-59.0	-83.4	276	29	
2025-10-26T00:00	14950	121	-59.2	-83.5	275	28	
2025-10-26T00:00	15000	120	-59.5	-83.7	274	27	
2025-10-26T00:00	15050	119	-59.7	-83.7	274	27	
2025-10-26T00:00	15100	118	-59.8	-83.8	274	27	
2025-10-26T00:00	15150	117	-59.7	-83.7	272	27	
2025-10-26T00:00	15200	116	-59.9	-83.8	272	28	
2025-10-26T00:00	15250	115	-60.3	-83.9	271	29	
2025-10-26T00:00	15300	114	-60.6	-84.0	271	30	
2025-10-26T00:00	15350	113	-60.7	-84.0	272	30	
2025-10-26T00:00	15400	112	-61.0	-84.2	272	30	
2025-10-26T00:00	15450	112	-61.0	-84.2	272	30	
2025-10-26T00:00	15500	111	-60.9	-84.2	273	29	
2025-10-26T00:00	15550	110	-60.4	-84.2	275	29	
2025-10-26T00:00	15600	109	-60.4	-84.4	276	28	
2025-10-26T00:00	15650	108	-60.4	-84.3	276	28	
2025-10-26T00:00	15700	107	-60.5	-84.4	276	28	
2025-10-26T00:00	15750	106	-60.7	-84.4	275	28	
2025-10-26T00:00	15800	105	-60.9	-84.4	273	28	
2025-10-26T00:00	15850	105	-61.2	-84.5	272	29	
2025-10-26T00:00	15900	104	-61.3	-84.5	272	29	
2025-10-26T00:00	15950	103	-61.4	-84.5	273	29	
2025-10-26T00:00	16000	102	-61.6	-84.6	274	29	
2025-10-26T00:00	16050	101	-61.9	-84.7	275	29	
2025-10-26T00:00	16100	100	-62.0	-84.8	277	29	
2025-10-26T00:00	16150	100	-61.8	-84.6	279	29	
2025-10-26T00:00	16200	99	-62.1	-84.7	281	28	
2025-10-26T00:00	16250	98	-62.2	-84.8	281	27	
2025-10-26T00:00	16300	97	-62.2	-84.9	281	27	
2025-10-26T00:00	16350	96	-61.9	-85.0	280	26	
2025-10-26T00:00	16400	96	-61.9	-85.3	281	26	
2025-10-26T00:00	16450	95	-61.7	-85.4	282	26	
2025-10-26T00:00	16500	94	-61.5	-85.3	283	27	
2025-10-26T00:00	16550	93	-61.7	-85.4	284	27	
2025-10-26T00:00	16600	93	-61.9	-85.5	284	26	
2025-10-26T00:00	16650	92	-61.6	-85.5	284	25	
2025-10-26T00:00	16700	91	-61.2	-85.3	283	24	
2025-10-26T00:00	16750	90	-61.2	-85.3	281	23	
2025-10-26T00:00	16800	90	-61.4	-85.3	277	22	
2025-10-26T00:00	16850	89	-61.6	-85.3	274	22	
2025-10-26T00:00	16900	88	-61.9	-85.3	272	23	
2025-10-26T00:00	16950	88	-62.2	-85.4	270	23	
2025-10-26T00:00	17000	87	-62.3	-85.4	269	23	
2025-10-26T00:00	17050	86	-62.7	-85.5	269	23	
2025-10-26T00:00	17100	85	-62.9	-85.6	270	24	
2025-10-26T00:00	17150	85	-63.0	-85.7	272	24	
2025-10-26T00:00	17200	84	-63.0	-85.7	274	25	
2025-10-26T00:00	17250	83	-63.2	-85.8	276	26	
2025-10-26T00:00	17300	83	-63.3	-85.9	277	27	
2025-10-26T00:00	17350	82	-63.5	-86.0	279	27	
2025-10-26T00:00	17400	81	-63.7	-86.2	282	28	
2025-10-26T00:00	17450	81	-63.6	-86.4	284	28	
2025-10-26T00:00	17500	80	-63.2	-86.4	286	28	
2025-10-26T00:00	17550	79	-62.7	-86.4	286	28	
2025-10-26T00:00	17600	79	-62.3	-86.4	285	28	
2025-10-26T00:00	17650	78	-62.0	-86.3	285	27	
2025-10-26T00:00	17700	78	-61.7	-86.3	285	26	
2025-10-26T00:00	17750	77	-61.4	-86.2	285	25	
2025-10-26T00:00	17800	76	-61.2	-86.2	285	25	
2025-10-26T00:00	17850	76	-60.7	-86.0	284	25	
2025-10-26T00:00	17900	75	-60.6	-85.9	282	25	
2025-10-26T00:00	17950	74	-60.7	-85.8	280	26	
2025-10-26T00:00	18000	74	-61.1	-85.8	278	27	
2025-10-26T00:00	18050	73	-61.6	-85.8	277	27	
2025-10-26T00:00	18100	73	-62.1	-85.9	275	28	
2025-10-26T00:00	18150	72	-62.4	-86.2	275	28	
2025-10-26T00:00	18200	72	-62.1	-86.3	277	27	
2025-10-26T00:00	18250	71	-61.6	-86.5	279	27	
2025-10-26T00:00	18300	70	-60.7	-86.2	277	27	
2025-10-26T00:00	18350	70	-60.4	-86.0	277	28	
2025-10-26T00:00	18400	69	-60.6	-86.1	279	28	
2025-10-26T00:00	18450	69	-60.0	-85.8	282	27	
2025-10-26T00:00	18500	68	-59.8	-85.8	285	26	
2025-10-26T00:00	18550	68	-59.8	-85.9	289	25	
2025-10-26T00:00	18600	67	-59.5	-85.9	293	23	
2025-10-26T00:00	18650	67	-58.8	-85.8	296	21	
2025-10-26T00:00	18700	66	-58.0	-85.4	298	19	
2025-10-26T00:00	18750	65	-58.0	-85.3	297	18	
2025-10-26T00:00	18800	65	-58.3	-85.3	294	16	
2025-10-26T00:00	18850	64	-58.3	-85.3	292	16	
2025-10-26T00:00	18900	64	-58.3	-85.4	290	16	
2025-10-26T00:00	18950	63	-57.9	-85.4	288	15	
2025-10-26T00:00	19000	63	-57.6	-85.2	286	14	
2025-10-26T00:00	19050	62	-57.5	-85.0	286	14	
2025-10-26T00:00	19100	62	-57.7	-85.0	285	13	
2025-10-26T00:00	19150	61	-58.0	-85.0	284	14	
2025-10-26T00:00	19200	61	-58.3	-85.2	282	14	
2025-10-26T00:00	19250	60	-58.3	-85.3	281	14	
2025-10-26T00:00	19300	60	-58.1	-85.2	280	12	
2025-10-26T00:00	19350	60	-58.3	-85.3	275	11	
2025-10-26T00:00	19400	59	-58.3	-85.3	266	10	
2025-10-26T00:00	19450	59	-58.4	-85.2	257	9	
2025-10-26T00:00	19500	58	-58.8	-85.3	248	8	
2025-10-26T00:00	19550	58	-58.9	-85.2	241	8	
2025-10-26T00:00	19600	57	-59.3	-85.3	235	8	
2025-10-26T00:00	19650	57	-59.7	-85.3	233	8	
2025-10-26T00:00	19700	56	-60.2	-85.4	232	8	
2025-10-26T00:00	19750	56	-60.7	-85.5	231	8	
2025-10-26T00:00	19800	55	-61.2	-85.7	229	8	
2025-10-26T00:00	19850	55	-61.6	-85.8	228	8	
2025-10-26T00:00	19900	55	-62.1	-85.9	226	7	
2025-10-26T00:00	19950	54	-62.6	-86.1	227	7	
2025-10-26T00:00	20000	54	-63.1	-86.2	229	7	
2025-10-26T00:00	20050	53	-63.6		231	7	
2025-10-26T00:00	20100	53	-64.0		232	7	
2025-10-26T00:00	20150	52	-64.5		232	8	
2025-10-26T00:00	20200	52	-64.9		231	8	
2025-10-26T00:00	20250	52	-65.4		232	8	
2025-10-26T00:00	20300	51	-65.9		234	9	
2025-10-26T00:00	20350	51	-66.3		236	9	
2025-10-26T00:00	20400	50	-66.7		239	10	
2025-10-26T00:00	20450	50	-66.6		242	12	
2025-10-26T00:00	20500	49	-66.4		246	13	
2025-10-26T00:00	20550	49	-66.5		249	15	
2025-10-26T00:00	20600	49	-66.4		251	16	
2025-10-26T00:00	20650	48	-66.6		254	17	
2025-10-26T00:00	20700	48	-66.7		255	18	
2025-10-26T00:00	20750	47	-66.9		255	19	
2025-10-26T00:00	20800	47	-67.1		256	20	
2025-10-26T00:00	20850	47	-67.4		258	20	
2025-10-26T00:00	20900	46	-67.5		259	21	
2025-10-26T00:00	20950	46	-67.5		260	22	
2025-10-26T00:00	21000	45	-67.0		262	23	
2025-10-26T00:00	21050	45	-66.9		264	23	
2025-10-26T00:00	21100	45	-66.7		266	24	
2025-10-26T00:00	21150	44	-66.9		268	25	
2025-10-26T00:00	21200	44	-66.9		271	25	
2025-10-26T00:00	21250	44	-67.1		275	25	
2025-10-26T00:00	21300	43	-67.3		277	24	
2025-10-26T00:00	21350	43	-67.7		278	24	
2025-10-26T00:00	21400	43	-67.8		278	25	
2025-10-26T00:00	21450	42	-66.4		276	27	
2025-10-26T00:00	21500	42	-65.4		275	30	
2025-10-26T00:00	21550	42	-64.2		276	31	
2025-10-26T00:00	21600	41	-63.6		279	31	
2025-10-26T00:00	21650	41	-63.4		283	31	
2025-10-26T00:00	21700	41	-63.5		286	30	
2025-10-26T00:00	21750	40	-62.9		288	29	
2025-10-26T00:00	21800	40	-62.3		288	27	
2025-10-26T00:00	21850	40	-61.8		287	26	
2025-10-26T00:00	21900	39	-60.6		286	27	
2025-10-26T00:00	21950	39	-60.1		286	27	
2025-10-26T00:00	22000	39	-59.7		286	26	
2025-10-26T00:00	22050	38	-59.6		284	26	
2025-10-26T00:00	22100	38	-58.6		283	26	
2025-10-26T00:00	22150	38	-57.0		282	27	
2025-10-26T00:00	22200	37	-56.8		284	27	
2025-10-26T00:00	22250	37	-56.2		285	27	
2025-10-26T00:00	22300	37	-56.3		287	26	
2025-10-26T00:00	22350	37	-56.6		288	26	
2025-10-26T00:00	22400	36	-56.2		288	25	
2025-10-26T00:00	22450	36	-56.0		290	24	
2025-10-26T00:00	22500	36	-56.1		292	22	
2025-10-26T00:00	22550	35	-56.5		294	21	
2025-10-26T00:00	22600	35	-56.6		296	20	
2025-10-26T00:00	22650	35	-56.6		299	20	
2025-10-26T00:00	22700	35	-56.6		300	20	
2025-10-26T00:00	22750	34	-56.8		301	20	
2025-10-26T00:00	22800	34	-57.2		302	19	
2025-10-26T00:00	22850	34	-57.5		303	18	
2025-10-26T00:00	22900	33	-57.7		302	16	
2025-10-26T00:00	22950	33	-57.7		299	15	
2025-10-26T00:00	23000	33	-57.8		293	14	
2025-10-26T00:00	23050	33	-57.3		287	13	
2025-10-26T00:00	23100	32	-57.0		282	13	
2025-10-26T00:00	23150	32	-56.9		277	12	
2025-10-26T00:00	23200	32	-56.8		270	12	
2025-10-26T00:00	23250	32	-56.9		266	12	
2025-10-26T00:00	23300	31	-57.1		266	12	
2025-10-26T00:00	23350	31	-57.3		270	12	
2025-10-26T00:00	23400	31	-57.5		271	13	
2025-10-26T00:00	23450	31	-57.4		268	13	
2025-10-26T00:00	23500	30	-57.6		266	12	
2025-10-26T00:00	23550	30	-57.8		264	12	
2025-10-26T00:00	23600	30	-58.1		261	11	
2025-10-26T00:00	23650	30	-58.4		258	11	
2025-10-26T00:00	23700	30	-58.7		256	11	
2025-10-26T00:00	23750	29	-59.0		254	11	
2025-10-26T00:00	23800	29	-59.4		251	11	
2025-10-26T00:00	23850	29	-59.8		246	11	
2025-10-26T00:00	23900	29	-59.7		239	11	
2025-10-26T00:00	23950	28	-59.7		234	12	
2025-10-26T00:00	24000	28	-60.0		233	12	
2025-10-26T00:00	24050	28	-60.4		232	13	
2025-10-26T00:00	24100	28	-60.8		232	13	
2025-10-26T00:00	24150	27	-61.0		233	13	
2025-10-26T00:00	24200	27	-60.9		238	13	
2025-10-26T00:00	24250	27	-61.0		243	13	
2025-10-26T00:00	24300	27	-61.2		248	12	
2025-10-26T00:00	24350	27	-61.4		253	12	
2025-10-26T00:00	24400	26	-61.8		258	13	
2025-10-26T00:00	24450	26	-62.2		262	13	
2025-10-26T00:00	24500	26	-62.6		265	14	
2025-10-26T00:00	24550	26	-62.8		265	14	
2025-10-26T00:00	24600	26	-63.1		265	14	
2025-10-26T00:00	24650	25	-63.3		266	14	
2025-10-26T00:00	24700	25	-63.3		268	14	
2025-10-26T00:00	24750	25	-63.5		271	15	
2025-10-26T00:00	24800	25	-63.5		274	15	
2025-10-26T00:00	24850	25	-63.9		277	16	
2025-10-26T00:00	24900	24	-64.2		278	16	
2025-10-26T00:00	24950	24	-64.4		276	17	
2025-10-26T00:00	25000	24	-64.7		272	17	
2025-10-26T00:00	25050	24	-64.8		268	18	
2025-10-26T00:00	25100	24	-64.9		264	19	
2025-10-26T00:00	25150	23	-64.9		260	20	
2025-10-26T00:00	25200	23	-65.0		257	21	
2025-10-26T00:00	25250	23	-65.2		255	22	
2025-10-26T00:00	25300	23	-65.5		253	23	
2025-10-26T00:00	25350	23	-65.8		251	24	
2025-10-26T00:00	25400	22	-66.0		251	26	
2025-10-26T00:00	25450	22	-65.3		252	27	
2025-10-26T00:00	25500	22	-64.4		255	28	
2025-10-26T00:00	25550	22	-64.6		257	29	
2025-10-26T00:00	25600	22	-64.7		259	30	
2025-10-26T00:00	25650	21	-64.5		261	31	
2025-10-26T00:00	25700	21	-64.0		263	32	
2025-10-26T00:00	25750	21	-63.0		265	32	
2025-10-26T00:00	25800	21	-61.8		266	33	
2025-10-26T00:00	25850	21	-60.5		266	32	
2025-10-26T00:00	25900	21	-59.5		269	32	
2025-10-26T00:00	25950	20	-59.2		272	32	
2025-10-26T00:00	26000	20	-58.3		274	33	
2025-10-26T00:00	26050	20	-58.0		275	33	
2025-10-26T00:00	26100	20	-58.1		274	33	
2025-10-26T00:00	26150	20	-57.8		272	33	
2025-10-26T00:00	26200	20	-58.1		269	33	
2025-10-26T00:00	26250	20	-58.3		267	33	
2025-10-26T00:00	26300	19	-58.4		265	33	
2025-10-26T00:00	26350	19	-58.5		265	34	
2025-10-26T00:00	26400	19	-58.5		265	34	
2025-10-26T00:00	26450	19	-58.3		266	35	
2025-10-26T00:00	26500	19	-58.1		267	35	
2025-10-26T00:00	26550	19	-58.0		269	35	
2025-10-26T00:00	26600	18	-57.8		271	35	
2025-10-26T00:00	26650	18	-57.8		273	35	
2025-10-26T00:00	26700	18	-57.9		275	34	
2025-10-26T00:00	26750	18	-58.0		276	34	
2025-10-26T00:00	26800	18	-58.0		278	34	
2025-10-26T00:00	26850	18	-58.2		278	33	
2025-10-26T00:00	26900	18	-57.7		275	32	
2025-10-26T00:00	26950	17	-56.3		271	33	
2025-10-26T00:00	27000	17	-55.0		267	34	
2025-10-26T00:00	27050	17	-53.8		264	35	
2025-10-26T00:00	27100	17	-53.1		262	36	
2025-10-26T00:00	27150	17	-51.8		263	36	
2025-10-26T00:00	27200	17	-51.4		264	35	
2025-10-26T00:00	27250	17	-51.5		264	35	
2025-10-26T00:00	27300	17	-51.2		263	34	
2025-10-26T00:00	27350	16	-51.2		262	35	
2025-10-26T00:00	27400	16	-51.4		262	35	
2025-10-26T00:00	27450	16	-51.6		261	36	
2025-10-26T00:00	27500	16	-51.4		260	36	
2025-10-26T00:00	27550	16	-51.3		259	36	
2025-10-26T00:00	27600	16	-51.2		259	36	
2025-10-26T00:00	27650	16	-51.1		259	35	
2025-10-26T00:00	27700	16	-51.2		260	35	
2025-10-26T00:00	27750	15	-51.3		261	34	
2025-10-26T00:00	27800	15	-51.3		262	34	
2025-10-26T00:00	27850	15	-51.6		263	34	
2025-10-26T00:00	27900	15	-52.0		265	33	
2025-10-26T00:00	27950	15	-52.3		266	33	
2025-10-26T00:00	28000	15	-52.6		267	33	
2025-10-26T00:00	28050	15	-52.8		268	32	
2025-10-26T00:00	28100	15	-53.0		267	32	
2025-10-26T00:00	28150	15	-53.2		266	31	
2025-10-26T00:00	28200	14	-53.1		265	30	
2025-10-26T00:00	28250	14	-53.3		264	29	
2025-10-26T00:00	28300	14	-53.3		263	29	
2025-10-26T00:00	28350	14	-53.4		262	28	
2025-10-26T00:00	28400	14	-53.1		262	29	
2025-10-26T00:00	28450	14	-53.0		262	29	
2025-10-26T00:00	28500	14	-53.3		261	30	
2025-10-26T00:00	28550	14	-53.6		260	30	
2025-10-26T00:00	28600	14	-53.8		258	30	
2025-10-26T00:00	28650	13	-53.8		257	29	
2025-10-26T00:00	28700	13	-54.0		256	28	
2025-10-26T00:00	28750	13	-54.2		255	26	
2025-10-26T00:00	28800	13	-54.3		256	26	
2025-10-26T00:00	28850	13	-54.2		259	26	
2025-10-26T00:00	28900	13	-54.1		260	26	
2025-10-26T00:00	28950	13	-54.0		256	25	
2025-10-26T00:00	29000	13	-54.2		250	25	
2025-10-26T00:00	29050	13	-54.4		245	26	
2025-10-26T00:00	29100	13	-54.4		242	26	
2025-10-26T00:00	29150	12	-54.4		241	26	
2025-10-26T00:00	29200	12	-54.4		242	26	
2025-10-26T00:00	29250	12	-54.3		245	26	
2025-10-26T00:00	29300	12	-54.6		247	26	
2025-10-26T00:00	29350	12	-55.0		249	25	
2025-10-26T00:00	29400	12	-55.4		251	25	
2025-10-26T00:00	29450	12	-55.9		251	24	
2025-10-26T00:00	29500	12	-56.4		250	24	
2025-10-26T00:00	29550	12	-56.8		249	24	
2025-10-26T00:00	29600	12	-57.0		248	24	
2025-10-26T00:00	29650	11	-57.0		247	24	
2025-10-26T00:00	29700	11	-56.9		245	25	
2025-10-26T00:00	29750	11	-56.8		245	26	
2025-10-26T00:00	29800	11	-57.0		244	27	
2025-10-26T00:00	29850	11	-57.2		243	28	
2025-10-26T00:00	29900	11	-57.4		243	29	
2025-10-26T00:00	29950	11	-57.5		244	29	
2025-10-26T00:00	30000	11	-57.7		245	30	
2025-10-26T00:00	30050	11	-57.7		245	31	
2025-10-26T00:00	30100	11	-57.9		246	33	
2025-10-26T00:00	30150	11	-58.0		247	34	
2025-10-26T00:00	30200	11	-58.2		248	36	
2025-10-26T00:00	30250	10	-58.1		248	37	
2025-10-26T00:00	30300	10	-57.7		248	38	
2025-10-26T00:00	30350	10	-57.4		249	39	
2025-10-26T00:00	30400	10	-57.4		249	40	
2025-10-26T00:00	30450	10	-57.7		250	41	
2025-10-26T00:00	30500	10	-57.5		251	41	
2025-10-26T00:00	30550	10	-57.3		251	41	
2025-10-26T00:00	30600	10	-57.6		252	42	
2025-10-26T00:00	30650	10	-57.3		253	42	
2025-10-26T00:00	30700	10	-57.2		254	43	
2025-10-26T00:00	30750	10	-57.2		254	44	
2025-10-26T00:00	30800	10	-57.2		254	44	
2025-10-26T00:00	30850	9	-57.1		255	45	
2025-10-26T00:00	30900	9	-57.1		256	45	
2025-10-26T00:00	30950	9	-56.9		258	46	
2025-10-26T00:00	31000	9	-56.7		259	47	
2025-10-26T00:00	31050	9	-56.7		260	47	
2025-10-26T00:00	31100	9	-57.0		260	48	
2025-10-26T00:00	31150	9	-57.3		260	49	
2025-10-26T00:00	31200	9	-57.0		261	50	
2025-10-26T00:00	31250	9	-56.1		262	51	
2025-10-26T00:00	31300	9	-55.6		261	50	
2025-10-26T00:00	31350	9	-55.4		261	49	
2025-10-26T00:00	31400	9	-55.5		260	49	
2025-10-26T00:00	31450	9	-54.6		260	50	
2025-10-26T00:00	31500	9	-53.9		261	50	
2025-10-26T00:00	31550	9	-54.1		262	50	
2025-10-26T00:00	31600	8	-54.3		263	50	
2025-10-26T00:00	31650	8	-54.0		263	49	
2025-10-26T00:00	31700	8	-53.8		264	49	
2025-10-26T00:00	31750	8	-53.7		265	50	
2025-10-26T00:00	31800	8	-53.7		265	50	
2025-10-26T00:00	31850	8	-53.8		266	51	
2025-10-26T00:00	31900	8	-53.4		268	52	
2025-10-26T00:00	31950	8	-53.1		269	52	
2025-10-26T00:00	32000	8	-53.1		269	51	
2025-10-26T00:00	32050	8	-53.1		270	51	
2025-10-26T00:00	32100	8	-53.3		270	50	
2025-10-26T00:00	32150	8	-53.6		269	50	
2025-10-26T00:00	32200	8	-53.9		268	51	
2025-10-26T00:00	32250	8	-53.8		267	51	
2025-10-26T00:00	32300	8	-53.7		266	52	
2025-10-26T00:00	32350	8	-53.3		265	52	
2025-10-26T00:00	32400	7	-52.7		263	52	
2025-10-26T00:00	32450	7	-52.7		261	51	
2025-10-26T00:00	32500	7	-52.8		260	50	
2025-10-26T00:00	32550	7	-52.9		257	50	
2025-10-26T00:00	32600	7	-52.7		256	51	
2025-10-26T00:00	32650	7	-52.3		255	52	
2025-10-26T00:00	32700	7	-51.7		255	53	
2025-10-26T00:00	32750	7	-50.4		254	53	
2025-10-26T00:00	32800	7	-49.4		254	53	
2025-10-26T00:00	32850	7	-48.2		256	53	
2025-10-26T00:00	32900	7	-48.0		258	52	
2025-10-26T00:00	32950	7	-48.1		261	53	
2025-10-26T00:00	33000	7	-47.4		262	53	
2025-10-26T00:00	33050	7	-47.1		262	54	
2025-10-26T00:00	33100	7	-47.2		261	54	
2025-10-26T00:00	33150	7	-47.4		260	55	
2025-10-26T00:00	33200	7	-47.6		258	55	
2025-10-26T00:00	33250	7	-47.6		257	55	
2025-10-26T00:00	33300	6	-47.7		256	55	
2025-10-26T00:00	33350	6	-47.9		255	55	
2025-10-26T00:00	33400	6	-48.1		255	56	
2025-10-26T00:00	33450	6	-48.2		254	56	
2025-10-26T00:00	33500	6	-48.2		254	57	
2025-10-26T00:00	33550	6	-48.1		254	57	
2025-10-26T00:00	33600	6	-47.6		255	58	
2025-10-26T00:00	33650	6	-47.6		256	58	
2025-10-26T00:00	33700	6	-47.8		258	58	
2025-10-26T00:00	33750	6	-48.0		259	58	
2025-10-26T00:00	33800	6	-48.2		260	58	
2025-10-26T00:00	33850	6	-48.3		261	57	
2025-10-26T00:00	33900	6	-48.3		261	56	
2025-10-26T00:00	33950	6	-48.5		262	56	
2025-10-26T00:00	34000	6	-48.5		262	55	
2025-10-26T00:00	34050	6	-48.8		263	54	
2025-10-26T00:00	34100	6	-49.0		263	54	
2025-10-26T00:00	34150	6	-48.9		264	53	
2025-10-26T00:00	34200	6	-48.7		265	53	
2025-10-26T00:00	34250	6	-48.9		265	53	
2025-10-26T00:00	34300	6	-49.1		266	54	
2025-10-26T00:00	34350	6	-49.3		266	54	
2025-10-26T00:00	34400	5	-49.5		267	53	
2025-10-26T00:00	34450	5	-49.7		268	53	
2025-10-26T00:00	34500	5	-49.7		269	54	
2025-10-26T00:00	34550	5	-49.8		270	54	
2025-10-26T00:00	34600	5	-49.5		269	54	
2025-10-26T00:00	34650	5	-49.3		269	53	
2025-10-26T00:00	34700	5	-49.3		268	53	
2025-10-26T00:00	34750	5	-49.3		267	53	
2025-10-26T00:00	34800	5	-49.4		267	52	
2025-10-26T00:00	34850	5	-49.5		267	52	
2025-10-26T00:00	34900	5	-49.6		268	52	
2025-10-26T00:00	34950	5	-49.7		268	52	
2025-10-26T00:00	35000	5	-49.7		268	52	
2025-10-26T00:00	35050	5	-49.6		267	51	
2025-10-26T00:00	35100	5	-49.8		267	50	
2025-10-26T00:00	35150	5	-50.1		267	49	
2025-10-26T00:00	35200	5	-50.2		267	49	
2025-10-26T00:00	35250	5	-50.1		268	50	
2025-10-26T00:00	35300	5	-49.6		268	50	
2025-10-26T00:00	35350	5	-49.4		268	50	
2025-10-26T00:00	35400	5	-49.0		267	50	
2025-10-26T00:00	35450	5	-48.8		266	51	
2025-10-26T00:00	35500	5	-48.3		264	51	
2025-10-26T00:00	35550	5	-47.9		261	52	
2025-10-26T00:00	35600	5	-47.4		259	53	
2025-10-26T00:00	35650	5	-46.7		257	53	
2025-10-26T00:00	35700	5	-45.9		256	54	
2025-10-26T00:00	35750	4	-45.8		255	54	
2025-10-26T00:00	35800	4	-45.6		256	54	
2025-10-26T00:00	35850	4	-45.8		257	54	
2025-10-26T00:00	35900	4	-46.0		259	53	
2025-10-26T00:00	35950	4	-46.3		261	53	
2025-10-26T00:00	36000	4	-46.4		262	52	
2025-10-26T00:00	36050	4	-46.3		261	52	
2025-10-26T00:00	36100	4	-46.4		259	53	
2025-10-26T00:00	36150	4	-46.7		257	54	
2025-10-26T00:00	36200	4	-46.8		256	55	
2025-10-26T00:00	36250	4	-47.0		255	56	
2025-10-26T00:00	36300	4	-46.9		255	58	
2025-10-26T00:00	36350	4	-46.4		254	58	
2025-10-26T00:00	36400	4	-46.3		254	58	
2025-10-26T00:00	36450	4	-46.3		255	56	
2025-10-26T00:00	36500	4	-46.7		255	56	
2025-10-26T00:00	36550	4	-47.1		256	55	
2025-10-26T00:00	36600	4	-47.4		256	54	
2025-10-26T00:00	36650	4	-47.5		257	53	
2025-10-26T00:00	36700	4	-47.8		259	54	
2025-10-26T00:00	36750	4	-47.7		260	55	
2025-10-26T00:00	36800	4	-46.7		259	57	
2025-10-26T00:00	36850	4	-46.0		259	59	
2025-10-26T12:00	491	956	9.2	1.8	241	4	
2025-10-26T12:00	501	955	8.8	1.5	240	4	
2025-10-26T12:00	520	953	8.5	1.3	238	3	
2025-10-26T12:00	540	951	8.2	0.6	238	4	
2025-10-26T12:00	560	948	7.9	0.2	238	5	
2025-10-26T12:00	580	946	7.7	0.3	238	6	
2025-10-26T12:00	600	944	7.5	0.0	239	6	
2025-10-26T12:00	620	941	7.3	-0.4	241	6	
2025-10-26T12:00	640	939	7.1	-0.5	242	6	
2025-10-26T12:00	660	937	6.9	-0.3	244	7	
2025-10-26T12:00	680	935	6.8	-0.3	244	7	
2025-10-26T12:00	700	932	6.6	-0.3	244	7	
2025-10-26T12:00	720	930	6.4	-0.3	243	7	
2025-10-26T12:00	740	928	6.2	-0.4	242	7	
2025-10-26T12:00	760	925	5.9	-0.3	240	7	
2025-10-26T12:00	780	923	5.8	-0.5	237	7	
2025-10-26T12:00	800	921	5.6	-0.5	236	7	
2025-10-26T12:00	820	919	5.4	-0.6	234	7	
2025-10-26T12:00	840	916	5.1	-0.4	234	7	
2025-10-26T12:00	860	914	4.9	-0.4	234	7	
2025-10-26T12:00	880	912	4.7	-0.5	234	7	
2025-10-26T12:00	900	910	4.6	-0.7	235	7	
2025-10-26T12:00	920	908	4.4	-0.8	236	8	
2025-10-26T12:00	940	905	4.3	-1.3	237	8	
2025-10-26T12:00	960	903	4.1	-1.1	237	8	
2025-10-26T12:00	980	901	3.9	-1.4	237	8	
2025-10-26T12:00	1000	899	3.7	-1.5	237	8	
2025-10-26T12:00	1020	896	3.5	-1.7	237	9	
2025-10-26T12:00	1040	894	3.3	-1.5	237	9	
2025-10-26T12:00	1060	892	3.1	-1.4	238	9	
2025-10-26T12:00	1080	890	2.9	-1.5	238	10	
2025-10-26T12:00	1100	888	2.7	-1.8	239	10	
2025-10-26T12:00	1120	885	2.6	-2.1	239	10	
2025-10-26T12:00	1140	883	2.4	-2.0	239	10	
2025-10-26T12:00	1160	881	2.2	-2.1	239	10	
2025-10-26T12:00	1180	879	2.0	-2.2	239	10	
2025-10-26T12:00	1200	877	1.9	-2.2	239	10	
2025-10-26T12:00	1220	875	1.7	-2.3	238	10	
2025-10-26T12:00	1240	872	1.5	-2.4	239	10	
2025-10-26T12:00	1260	870	1.3	-2.5	239	10	
2025-10-26T12:00	1280	868	1.2	-2.5	239	10	
2025-10-26T12:00	1300	866	1.0	-2.6	240	9	
2025-10-26T12:00	1320	864	0.8	-2.7	240	9	
2025-10-26T12:00	1340	862	0.6	-2.7	240	9	
2025-10-26T12:00	1360	859	0.4	-2.8	241	9	
2025-10-26T12:00	1380	857	0.3	-2.9	241	9	
2025-10-26T12:00	1400	855	0.1	-3.1	242	9	
2025-10-26T12:00	1420	853	0.0	-3.2	243	9	
2025-10-26T12:00	1440	851	-0.3	-3.2	244	9	
2025-10-26T12:00	1460	849	-0.4	-3.2	244	9	
2025-10-26T12:00	1480	847	-0.6	-3.2	245	10	
2025-10-26T12:00	1500	844	-0.8	-3.3	245	10	
2025-10-26T12:00	1520	842	-1.0	-3.4	245	10	
2025-10-26T12:00	1540	841	-1.2	-3.4	245	10	
2025-10-26T12:00	1560	838	-1.4	-3.4	245	10	
2025-10-26T12:00	1580	836	-1.6	-3.4	246	10	
2025-10-26T12:00	1600	834	-1.8	-3.5	247	10	
2025-10-26T12:00	1620	832	-2.0	-3.5	248	9	
2025-10-26T12:00	1640	830	-2.1	-3.6	250	9	
2025-10-26T12:00	1660	828	-2.3	-3.8	251	9	
2025-10-26T12:00	1680	826	-2.3	-4.1	253	10	
2025-10-26T12:00	1700	824	-2.4	-4.2	255	10	
2025-10-26T12:00	1720	822	-2.6	-4.4	256	10	
2025-10-26T12:00	1740	820	-2.7	-4.5	256	10	
2025-10-26T12:00	1760	818	-2.9	-4.6	257	10	
2025-10-26T12:00	1780	816	-3.1	-4.7	256	11	
2025-10-26T12:00	1800	814	-3.2	-4.9	256	11	
2025-10-26T12:00	1820	811	-3.3	-5.1	255	11	
2025-10-26T12:00	1840	809	-3.5	-5.2	254	11	
2025-10-26T12:00	1860	807	-3.6	-5.2	253	11	
2025-10-26T12:00	1880	805	-3.8	-5.2	252	11	
2025-10-26T12:00	1900	803	-4.0	-5.3	251	11	
2025-10-26T12:00	1920	801	-4.1	-5.5	250	11	
2025-10-26T12:00	1940	799	-4.1	-5.9	250	11	
2025-10-26T12:00	1960	797	-4.3	-6.2	249	11	
2025-10-26T12:00	1980	795	-4.4	-6.4	249	11	
2025-10-26T12:00	2000	793	-4.6	-6.3	249	11	
2025-10-26T12:00	2020	791	-4.8	-6.4	249	11	
2025-10-26T12:00	2040	789	-5.0	-6.5	249	11	
2025-10-26T12:00	2060	787	-5.2	-6.4	249	11	
2025-10-26T12:00	2080	785	-5.4	-6.6	249	11	
2025-10-26T12:00	2100	783	-5.5	-6.7	249	11	
2025-10-26T12:00	2120	781	-5.7	-6.6	249	11	
2025-10-26T12:00	2140	779	-5.8	-6.7	249	11	
2025-10-26T12:00	2160	777	-6.0	-6.9	249	11	
2025-10-26T12:00	2180	775	-6.2	-7.3	248	11	
2025-10-26T12:00	2200	773	-6.3	-7.3	248	11	
2025-10-26T12:00	2220	771	-6.5	-7.5	247	11	
2025-10-26T12:00	2240	769	-6.6	-7.7	247	11	
2025-10-26T12:00	2260	767	-6.8	-7.8	247	11	
2025-10-26T12:00	2280	765	-7.0	-7.9	247	12	
2025-10-26T12:00	2300	763	-7.1	-7.8	248	12	
2025-10-26T12:00	2320	761	-7.3	-7.4	249	12	
2025-10-26T12:00	2340	759	-7.4	-7.4	249	12	
2025-10-26T12:00	2360	758	-7.5	-7.5	250	12	
2025-10-26T12:00	2380	755	-7.6	-7.6	251	12	
2025-10-26T12:00	2400	753	-7.7	-7.7	251	12	
2025-10-26T12:00	2420	751	-7.9	-7.9	252	12	
2025-10-26T12:00	2440	749	-8.0	-8.0	252	12	
2025-10-26T12:00	2460	748	-8.1	-8.1	253	12	
2025-10-26T12:00	2480	746	-8.3	-8.3	253	12	
2025-10-26T12:00	2500	744	-8.4	-8.4	254	12	
2025-10-26T12:00	2520	742	-8.6	-8.6	256	13	
2025-10-26T12:00	2540	740	-8.7	-8.7	257	13	
2025-10-26T12:00	2560	738	-8.9	-8.9	259	13	
2025-10-26T12:00	2580	736	-9.0	-9.0	260	13	
2025-10-26T12:00	2600	734	-9.2	-9.2	261	13	
2025-10-26T12:00	2620	732	-9.3	-9.3	262	13	
2025-10-26T12:00	2640	730	-9.4	-9.4	263	14	
2025-10-26T12:00	2660	729	-9.5	-9.5	263	14	
2025-10-26T12:00	2680	727	-9.7	-9.8	263	13	
2025-10-26T12:00	2700	725	-10.0	-10.1	263	13	
2025-10-26T12:00	2720	723	-10.2	-10.2	263	13	
2025-10-26T12:00	2740	721	-10.3	-10.7	264	13	
2025-10-26T12:00	2760	719	-10.4	-10.9	265	13	
2025-10-26T12:00	2780	717	-10.4	-11.8	266	13	
2025-10-26T12:00	2800	716	-10.4	-12.4	268	12	
2025-10-26T12:00	2820	714	-10.5	-13.5	271	12	
2025-10-26T12:00	2840	712	-10.6	-14.3	274	11	
2025-10-26T12:00	2860	710	-10.6	-17.1	278	11	
2025-10-26T12:00	2880	708	-10.7	-17.8	283	11	
2025-10-26T12:00	2900	706	-10.8	-18.0	286	11	
2025-10-26T12:00	2920	705	-10.8	-18.7	290	11	
2025-10-26T12:00	2940	703	-10.8	-19.4	293	11	
2025-10-26T12:00	2960	701	-10.7	-19.4	294	11	
2025-10-26T12:00	2980	699	-10.7	-19.2	295	11	
2025-10-26T12:00	3000	697	-10.8	-19.1	295	11	
2025-10-26T12:00	3020	695	-11.0	-19.3	294	11	
2025-10-26T12:00	3040	693	-11.1	-19.3	293	11	
2025-10-26T12:00	3060	692	-11.3	-19.2	293	11	
2025-10-26T12:00	3080	690	-11.3	-17.8	293	11	
2025-10-26T12:00	3100	688	-11.4	-17.7	293	11	
2025-10-26T12:00	3120	686	-11.5	-17.5	293	10	
2025-10-26T12:00	3140	685	-11.6	-16.7	293	10	
2025-10-26T12:00	3160	683	-11.6	-16.2	295	9	
2025-10-26T12:00	3180	681	-11.8	-15.9	296	8	
2025-10-26T12:00	3200	679	-11.9	-15.9	297	8	
2025-10-26T12:00	3220	677	-12.1	-16.0	297	8	
2025-10-26T12:00	3240	676	-12.3	-16.0	297	8	
2025-10-26T12:00	3260	674	-12.4	-16.0	296	8	
2025-10-26T12:00	3280	672	-12.6	-15.9	296	8	
2025-10-26T12:00	3300	670	-12.8	-15.8	295	9	
2025-10-26T12:00	3320	669	-13.0	-15.7	295	9	
2025-10-26T12:00	3340	667	-13.1	-15.7	294	9	
2025-10-26T12:00	3360	665	-13.3	-15.7	294	10	
2025-10-26T12:00	3380	664	-13.5	-15.6	293	10	
2025-10-26T12:00	3400	662	-13.6	-15.6	292	10	
2025-10-26T12:00	3420	660	-13.8	-15.6	292	10	
2025-10-26T12:00	3440	658	-13.9	-15.8	292	11	
2025-10-26T12:00	3460	656	-14.1	-15.9	292	11	
2025-10-26T12:00	3480	655	-14.1	-15.9	293	12	
2025-10-26T12:00	3500	653	-14.2	-16.2	293	12	
2025-10-26T12:00	3520	651	-14.4	-16.3	294	12	
2025-10-26T12:00	3540	650	-14.5	-16.5	295	12	
2025-10-26T12:00	3560	648	-14.6	-16.7	296	13	
2025-10-26T12:00	3580	646	-14.7	-17.0	297	13	
2025-10-26T12:00	3600	644	-14.9	-17.2	298	13	
2025-10-26T12:00	3620	643	-15.0	-17.4	298	13	
2025-10-26T12:00	3640	641	-15.1	-17.8	299	13	
2025-10-26T12:00	3660	640	-15.3	-17.9	300	13	
2025-10-26T12:00	3680	638	-15.4	-18.1	300	12	
2025-10-26T12:00	3700	636	-15.6	-18.1	301	12	
2025-10-26T12:00	3720	634	-15.8	-18.2	300	12	
2025-10-26T12:00	3740	632	-16.0	-18.1	299	12	
2025-10-26T12:00	3760	631	-16.2	-18.3	298	12	
2025-10-26T12:00	3780	629	-16.4	-18.4	297	11	
2025-10-26T12:00	3800	628	-16.6	-18.4	296	11	
2025-10-26T12:00	3820	626	-16.7	-18.5	295	11	
2025-10-26T12:00	3840	624	-16.9	-18.7	294	11	
2025-10-26T12:00	3860	623	-17.1	-18.7	293	11	
2025-10-26T12:00	3880	621	-17.3	-18.7	291	11	
2025-10-26T12:00	3900	619	-17.5	-18.8	290	11	
2025-10-26T12:00	3920	617	-17.7	-18.6	289	11	
2025-10-26T12:00	3940	616	-17.8	-18.6	288	11	
2025-10-26T12:00	3960	614	-18.0	-18.7	289	12	
2025-10-26T12:00	3980	613	-18.2	-18.8	289	12	
2025-10-26T12:00	4000	611	-18.4	-18.8	290	12	
2025-10-26T12:00	4020	609	-18.6	-18.7	291	12	
2025-10-26T12:00	4040	608	-18.7	-19.0	292	12	
2025-10-26T12:00	4060	606	-18.9	-19.0	293	12	
2025-10-26T12:00	4080	605	-19.1	-19.1	293	12	
2025-10-26T12:00	4100	603	-19.3	-19.3	292	12	
2025-10-26T12:00	4120	601	-19.4	-19.6	291	13	
2025-10-26T12:00	4140	600	-19.6	-19.8	290	13	
2025-10-26T12:00	4160	598	-19.7	-20.7	290	13	
2025-10-26T12:00	4180	596	-19.8	-21.7	290	14	
2025-10-26T12:00	4200	595	-19.8	-23.1	290	15	
2025-10-26T12:00	4220	593	-19.8	-24.8	290	15	
2025-10-26T12:00	4240	592	-19.8	-27.0	290	16	
2025-10-26T12:00	4260	590	-19.7	-29.7	291	16	
2025-10-26T12:00	4280	588	-19.8	-30.6	291	17	
2025-10-26T12:00	4300	587	-19.9	-32.1	291	17	
2025-10-26T12:00	4320	585	-20.0	-33.8	291	18	
2025-10-26T12:00	4340	584	-20.0	-35.7	291	18	
2025-10-26T12:00	4360	582	-20.1	-36.9	291	19	
2025-10-26T12:00	4380	581	-20.3	-37.7	291	19	
2025-10-26T12:00	4400	579	-20.4	-39.3	290	19	
2025-10-26T12:00	4420	577	-20.5	-40.0	289	19	
2025-10-26T12:00	4440	576	-20.5	-40.5	288	19	
2025-10-26T12:00	4460	574	-20.7	-40.3	287	19	
2025-10-26T12:00	4480	573	-20.8	-40.5	286	19	
2025-10-26T12:00	4500	571	-21.0	-40.9	285	19	
2025-10-26T12:00	4520	570	-21.0	-40.7	285	20	
2025-10-26T12:00	4540	568	-21.1	-41.3	286	21	
2025-10-26T12:00	4560	567	-21.2	-41.5	286	21	
2025-10-26T12:00	4580	565	-21.4	-41.3	286	21	
2025-10-26T12:00	4600	564	-21.5	-41.8	287	21	
2025-10-26T12:00	4620	562	-21.7	-41.6	287	21	
2025-10-26T12:00	4640	560	-21.7	-41.8	286	20	
2025-10-26T12:00	4660	559	-21.8	-41.7	285	20	
2025-10-26T12:00	4680	558	-22.0	-40.7	284	20	
2025-10-26T12:00	4700	556	-22.1	-40.6	283	21	
2025-10-26T12:00	4720	554	-22.3	-41.2	282	21	
2025-10-26T12:00	4740	553	-22.4	-40.0	281	21	
2025-10-26T12:00	4760	551	-22.6	-40.2	281	21	
2025-10-26T12:00	4780	550	-22.8	-39.6	281	21	
2025-10-26T12:00	4800	548	-23.0	-39.4	282	21	
2025-10-26T12:00	4820	547	-23.0	-40.1	284	21	
2025-10-26T12:00	4840	545	-23.1	-41.2	284	21	
2025-10-26T12:00	4860	544	-23.2	-41.6	284	21	
2025-10-26T12:00	4880	542	-23.3	-41.4	283	21	
2025-10-26T12:00	4900	541	-23.5	-41.4	281	21	
2025-10-26T12:00	4920	540	-23.6	-40.5	280	21	
2025-10-26T12:00	4940	538	-23.7	-41.0	279	21	
2025-10-26T12:00	4960	537	-23.7	-42.1	279	21	
2025-10-26T12:00	4980	535	-23.8	-41.5	279	22	
2025-10-26T12:00	5000	534	-23.8	-42.2	280	22	
2025-10-26T12:00	5020	532	-23.7	-42.3	280	22	
2025-10-26T12:00	5040	531	-23.6	-42.2	280	22	
2025-10-26T12:00	5060	529	-23.5	-42.5	279	22	
2025-10-26T12:00	5080	528	-23.6	-43.2	278	22	
2025-10-26T12:00	5100	526	-23.8	-44.1	277	22	
2025-10-26T12:00	5120	525	-23.9	-44.0	277	22	
2025-10-26T12:00	5140	523	-24.1	-43.2	278	22	
2025-10-26T12:00	5160	522	-24.2	-43.8	279	22	
2025-10-26T12:00	5180	520	-24.4	-44.9	280	22	
2025-10-26T12:00	5200	519	-24.4	-47.4	281	23	
2025-10-26T12:00	5220	518	-24.4	-46.8	281	23	
2025-10-26T12:00	5240	516	-24.4	-47.2	282	23	
2025-10-26T12:00	5260	515	-24.6	-45.7	282	24	
2025-10-26T12:00	5280	513	-24.8	-45.7	283	24	
2025-10-26T12:00	5300	512	-24.9	-46.4	283	24	
2025-10-26T12:00	5320	511	-24.9	-48.3	283	24	
2025-10-26T12:00	5340	509	-24.9	-47.1	284	24	
2025-10-26T12:00	5360	508	-25.0	-46.5	284	24	
2025-10-26T12:00	5380	506	-25.0	-47.6	284	25	
2025-10-26T12:00	5400	505	-25.0	-47.8	284	25	
2025-10-26T12:00	5420	504	-25.0	-48.0	284	25	
2025-10-26T12:00	5440	502	-25.1	-50.0	285	26	
2025-10-26T12:00	5460	501	-25.0	-49.6	285	26	
2025-10-26T12:00	5480	500	-25.0	-49.5	285	26	
2025-10-26T12:00	5500	498	-25.0	-50.4	285	27	
2025-10-26T12:00	5520	497	-25.1	-49.8	285	27	
2025-10-26T12:00	5540	495	-25.3	-48.3	285	27	
2025-10-26T12:00	5560	494	-25.2	-50.4	285	27	
2025-10-26T12:00	5580	493	-25.2	-49.6	284	27	
2025-10-26T12:00	5600	491	-25.3	-50.3	284	27	
2025-10-26T12:00	5620	490	-25.3	-50.7	284	27	
2025-10-26T12:00	5640	489	-25.4	-50.5	285	27	
2025-10-26T12:00	5660	487	-25.5	-51.3	285	27	
2025-10-26T12:00	5680	486	-25.6	-51.6	286	27	
2025-10-26T12:00	5700	485	-25.6	-52.3	286	27	
2025-10-26T12:00	5720	483	-25.8	-53.3	286	27	
2025-10-26T12:00	5740	482	-25.9	-52.4	286	27	
2025-10-26T12:00	5760	481	-26.0	-51.8	285	27	
2025-10-26T12:00	5780	479	-26.2	-51.6	284	27	
2025-10-26T12:00	5800	478	-26.2	-52.6	284	27	
2025-10-26T12:00	5820	477	-26.3	-53.7	283	27	
2025-10-26T12:00	5840	475	-26.3	-54.4	282	27	
2025-10-26T12:00	5860	474	-26.4	-54.2	281	27	
2025-10-26T12:00	5880	473	-26.6	-53.0	281	26	
2025-10-26T12:00	5900	471	-26.7	-53.8	281	26	
2025-10-26T12:00	5920	470	-26.8	-53.5	281	26	
2025-10-26T12:00	5940	469	-26.8	-53.2	281	26	
2025-10-26T12:00	5960	468	-26.8	-53.9	282	26	
2025-10-26T12:00	5980	466	-26.8	-54.2	282	26	
2025-10-26T12:00	6000	465	-26.8	-55.3	283	26	
2025-10-26T12:00	6020	464	-26.8	-53.2	283	26	
2025-10-26T12:00	6040	462	-27.0	-53.5	284	26	
2025-10-26T12:00	6060	461	-27.1	-54.1	284	26	
2025-10-26T12:00	6080	460	-27.3	-54.6	285	26	
2025-10-26T12:00	6100	458	-27.5	-53.5	286	26	
2025-10-26T12:00	6120	457	-27.7	-53.2	286	26	
2025-10-26T12:00	6140	456	-27.9	-54.2	286	25	
2025-10-26T12:00	6160	454	-28.1	-55.1	287	25	
2025-10-26T12:00	6180	453	-28.2	-54.1	287	25	
2025-10-26T12:00	6200	452	-28.3	-52.8	286	25	
2025-10-26T12:00	6220	451	-28.4	-53.8	285	25	
2025-10-26T12:00	6240	450	-28.4	-53.0	285	25	
2025-10-26T12:00	6260	448	-28.3	-53.0	285	25	
2025-10-26T12:00	6280	447	-28.5	-52.7	284	25	
2025-10-26T12:00	6300	446	-28.6	-52.1	284	25	
2025-10-26T12:00	6320	445	-28.7	-52.7	284	25	
2025-10-26T12:00	6340	443	-28.9	-52.4	285	25	
2025-10-26T12:00	6360	442	-29.0	-51.4	285	25	
2025-10-26T12:00	6380	441	-29.2	-50.8	286	26	
2025-10-26T12:00	6400	440	-29.3	-49.9	287	26	
2025-10-26T12:00	6420	438	-29.4	-49.8	287	26	
2025-10-26T12:00	6440	437	-29.4	-50.3	287	26	
2025-10-26T12:00	6460	436	-29.5	-50.3	288	26	
2025-10-26T12:00	6480	435	-29.7	-50.7	288	26	
2025-10-26T12:00	6500	434	-29.9	-50.5	288	26	
2025-10-26T12:00	6520	432	-30.1	-50.2	289	26	
2025-10-26T12:00	6540	431	-30.2	-50.6	289	26	
2025-10-26T12:00	6560	430	-30.5	-49.9	290	26	
2025-10-26T12:00	6580	429	-30.6	-50.3	290	26	
2025-10-26T12:00	6600	428	-30.8	-49.9	291	26	
2025-10-26T12:00	6620	426	-31.0	-50.1	292	26	
2025-10-26T12:00	6640	425	-31.1	-49.7	292	26	
2025-10-26T12:00	6660	424	-31.2	-49.8	292	26	
2025-10-26T12:00	6680	423	-31.2	-49.5	292	26	
2025-10-26T12:00	6700	421	-31.4	-48.7	292	25	
2025-10-26T12:00	6720	420	-31.5	-48.8	292	25	
2025-10-26T12:00	6740	419	-31.7	-48.8	291	24	
2025-10-26T12:00	6760	418	-31.9	-49.1	291	24	
2025-10-26T12:00	6780	417	-32.1	-48.8	291	24	
2025-10-26T12:00	6800	416	-32.3	-48.8	291	25	
2025-10-26T12:00	6820	414	-32.5	-49.0	291	25	
2025-10-26T12:00	6840	413	-32.7	-48.9	291	25	
2025-10-26T12:00	6860	412	-32.9	-49.2	291	26	
2025-10-26T12:00	6880	411	-33.1	-49.2	291	26	
2025-10-26T12:00	6900	410	-33.2	-49.3	291	26	
2025-10-26T12:00	6920	409	-33.4	-49.2	291	26	
2025-10-26T12:00	6940	407	-33.6	-49.1	291	26	
2025-10-26T12:00	6960	406	-33.8	-49.1	292	25	
2025-10-26T12:00	6980	405	-34.0	-49.1	292	25	
2025-10-26T12:00	7000	404	-34.1	-49.0	292	25	
2025-10-26T12:00	7020	403	-34.3	-49.1	292	26	
2025-10-26T12:00	7040	402	-34.5	-49.1	291	26	
2025-10-26T12:00	7060	400	-34.7	-49.3	291	26	
2025-10-26T12:00	7080	399	-34.9	-48.9	291	26	
2025-10-26T12:00	7100	398	-35.0	-48.9	290	26	
2025-10-26T12:00	7120	397	-35.2	-49.2	290	26	
2025-10-26T12:00	7140	396	-35.4	-49.3	289	25	
2025-10-26T12:00	7160	395	-35.5	-49.5	288	24	
2025-10-26T12:00	7180	394	-35.7	-49.5	287	24	
2025-10-26T12:00	7200	393	-35.8	-50.0	287	24	
2025-10-26T12:00	7220	392	-35.8	-50.2	287	24	
2025-10-26T12:00	7240	390	-36.0	-50.6	287	24	
2025-10-26T12:00	7260	389	-36.0	-51.2	287	24	
2025-10-26T12:00	7280	388	-36.2	-51.2	288	24	
2025-10-26T12:00	7300	387	-36.3	-51.3	290	24	
2025-10-26T12:00	7320	386	-36.5	-51.6	291	24	
2025-10-26T12:00	7340	385	-36.6	-52.3	292	23	
2025-10-26T12:00	7360	384	-36.8	-52.1	293	23	
2025-10-26T12:00	7380	382	-37.0	-52.4	293	24	
2025-10-26T12:00	7400	381	-37.1	-52.2	294	24	
2025-10-26T12:00	7420	380	-37.2	-52.4	293	24	
2025-10-26T12:00	7440	379	-37.4	-52.7	293	24	
2025-10-26T12:00	7460	378	-37.5	-52.7	293	24	
2025-10-26T12:00	7480	377	-37.6	-52.3	293	24	
2025-10-26T12:00	7500	376	-37.8	-52.1	293	24	
2025-10-26T12:00	7520	375	-37.9	-52.6	293	24	
2025-10-26T12:00	7540	374	-38.0	-53.8	293	24	
2025-10-26T12:00	7560	373	-38.0	-52.8	293	24	
2025-10-26T12:00	7580	372	-38.0	-51.5	294	24	
2025-10-26T12:00	7600	370	-38.1	-53.4	294	24	
2025-10-26T12:00	7620	369	-38.2	-53.6	295	24	
2025-10-26T12:00	7640	368	-38.3	-53.2	296	24	
2025-10-26T12:00	7660	367	-38.4	-52.9	296	24	
2025-10-26T12:00	7680	366	-38.5	-53.1	296	24	
2025-10-26T12:00	7700	365	-38.6	-54.1	295	23	
2025-10-26T12:00	7720	364	-38.7	-54.8	294	23	
2025-10-26T12:00	7740	363	-38.9	-54.9	293	23	
2025-10-26T12:00	7760	362	-39.0	-55.3	291	22	
2025-10-26T12:00	7780	361	-39.2	-55.5	290	22	
2025-10-26T12:00	7800	360	-39.2	-55.5	290	22	
2025-10-26T12:00	7820	359	-39.4	-55.5	289	22	
2025-10-26T12:00	7840	358	-39.6	-55.6	289	22	
2025-10-26T12:00	7860	357	-39.8	-55.8	289	22	
2025-10-26T12:00	7880	356	-39.9	-55.5	289	23	
2025-10-26T12:00	7900	355	-40.1	-55.6	289	23	
2025-10-26T12:00	7920	354	-40.3	-56.1	289	23	
2025-10-26T12:00	7940	353	-40.4	-57.1	289	24	
2025-10-26T12:00	7960	351	-40.5	-57.9	290	24	
2025-10-26T12:00	7980	350	-40.6	-58.1	290	24	
2025-10-26T12:00	8000	349	-40.6	-58.2	290	24	
2025-10-26T12:00	8020	348	-40.7	-58.4	291	24	
2025-10-26T12:00	8040	347	-40.9	-58.0	291	23	
2025-10-26T12:00	8060	346	-41.1	-57.9	291	23	
2025-10-26T12:00	8080	345	-41.3	-58.1	291	23	
2025-10-26T12:00	8100	344	-41.4	-57.8	291	22	
2025-10-26T12:00	8120	343	-41.6	-57.2	291	22	
2025-10-26T12:00	8140	342	-41.7	-57.1	290	22	
2025-10-26T12:00	8160	341	-41.9	-57.1	289	22	
2025-10-26T12:00	8180	340	-42.1	-57.2	289	22	
2025-10-26T12:00	8200	339	-42.3	-57.3	288	22	
2025-10-26T12:00	8220	338	-42.5	-57.5	288	22	
2025-10-26T12:00	8240	337	-42.7	-57.5	288	23	
2025-10-26T12:00	8260	336	-42.8	-57.4	288	23	
2025-10-26T12:00	8280	335	-43.0	-57.4	288	23	
2025-10-26T12:00	8300	334	-43.2	-57.3	288	23	
2025-10-26T12:00	8320	333	-43.4	-57.4	289	23	
2025-10-26T12:00	8340	332	-43.5	-57.5	289	23	
2025-10-26T12:00	8360	331	-43.7	-57.6	288	23	
2025-10-26T12:00	8380	330	-43.9	-58.1	288	23	
2025-10-26T12:00	8400	329	-44.0	-58.9	288	23	
2025-10-26T12:00	8420	328	-44.2	-59.4	287	23	
2025-10-26T12:00	8440	327	-44.3	-59.5	286	23	
2025-10-26T12:00	8460	326	-44.5	-59.4	285	23	
2025-10-26T12:00	8480	326	-44.6	-59.3	284	23	
2025-10-26T12:00	8500	324	-44.7	-59.5	283	23	
2025-10-26T12:00	8520	324	-44.8	-59.6	282	23	
2025-10-26T12:00	8540	323	-45.0	-59.6	281	24	
2025-10-26T12:00	8560	322	-45.2	-59.7	280	24	
2025-10-26T12:00	8580	321	-45.3	-59.6	279	24	
2025-10-26T12:00	8600	320	-45.5	-59.6	279	24	
2025-10-26T12:00	8620	319	-45.7	-59.7	279	25	
2025-10-26T12:00	8640	318	-45.8	-59.9	279	25	
2025-10-26T12:00	8660	317	-45.8	-59.9	279	25	
2025-10-26T12:00	8680	316	-46.0	-59.9	279	25	
2025-10-26T12:00	8700	315	-46.1	-59.6	279	25	
2025-10-26T12:00	8720	314	-46.2	-59.1	279	24	
2025-10-26T12:00	8740	313	-46.4	-59.0	279	24	
2025-10-26T12:00	8760	312	-46.5	-59.0	279	24	
2025-10-26T12:00	8780	311	-46.7	-59.2	279	24	
2025-10-26T12:00	8800	310	-46.9	-59.4	278	24	
2025-10-26T12:00	8820	309	-47.0	-59.6	278	24	
2025-10-26T12:00	8840	308	-47.1	-59.9	278	25	
2025-10-26T12:00	8860	307	-47.1	-60.4	278	25	
2025-10-26T12:00	8880	306	-47.1	-60.8	277	25	
2025-10-26T12:00	8900	306	-47.2	-61.2	277	26	
2025-10-26T12:00	8920	305	-47.3	-62.5	277	26	
2025-10-26T12:00	8940	304	-47.1	-64.9	276	26	
2025-10-26T12:00	8960	303	-47.1	-66.6	276	27	
2025-10-26T12:00	8980	302	-47.2	-66.7	276	27	
2025-10-26T12:00	9000	301	-47.2	-67.1	277	27	
2025-10-26T12:00	9020	300	-47.3	-67.7	277	28	
2025-10-26T12:00	9040	299	-47.3	-67.8	277	28	
2025-10-26T12:00	9060	298	-47.4	-68.0	278	28	
2025-10-26T12:00	9080	297	-47.5	-67.7	278	29	
2025-10-26T12:00	9100	296	-47.5	-67.5	278	29	
2025-10-26T12:00	9120	295	-47.6	-67.6	278	30	
2025-10-26T12:00	9140	295	-47.7	-67.6	277	30	
2025-10-26T12:00	9160	294	-47.7	-67.8	277	31	
2025-10-26T12:00	9180	293	-47.5	-68.3	277	31	
2025-10-26T12:00	9200	292	-47.3	-68.1	277	31	
2025-10-26T12:00	9220	291	-47.3	-67.3	277	31	
2025-10-26T12:00	9240	290	-47.4	-66.8	276	32	
2025-10-26T12:00	9260	289	-47.6	-66.7	276	32	
2025-10-26T12:00	9280	288	-47.6	-67.0	276	32	
2025-10-26T12:00	9300	288	-47.4	-67.2	276	32	
2025-10-26T12:00	9320	287	-47.2	-67.5	275	32	
2025-10-26T12:00	9340	286	-46.9	-67.7	275	32	
2025-10-26T12:00	9360	285	-46.7	-67.5	275	32	
2025-10-26T12:00	9380	284	-46.7	-67.5	275	32	
2025-10-26T12:00	9400	283	-46.7	-67.4	274	31	
2025-10-26T12:00	9420	282	-46.4	-67.3	274	31	
2025-10-26T12:00	9440	282	-46.3	-67.7	273	31	
2025-10-26T12:00	9460	281	-46.2	-67.9	273	31	
2025-10-26T12:00	9480	280	-46.0	-67.7	272	32	
2025-10-26T12:00	9500	279	-46.0	-67.8	271	32	
2025-10-26T12:00	9520	278	-45.9	-68.2	270	32	
2025-10-26T12:00	9540	277	-45.8	-68.5	270	31	
2025-10-26T12:00	9560	276	-45.7	-68.6	270	31	
2025-10-26T12:00	9580	276	-45.7	-68.7	270	31	
2025-10-26T12:00	9600	275	-45.6	-68.9	271	31	
2025-10-26T12:00	9620	274	-45.7	-69.0	272	31	
2025-10-26T12:00	9640	273	-45.7	-69.1	273	30	
2025-10-26T12:00	9660	272	-45.7	-69.2	273	30	
2025-10-26T12:00	9680	272	-45.8	-69.4	273	30	
2025-10-26T12:00	9700	271	-45.8	-69.6	273	29	
2025-10-26T12:00	9720	270	-45.8	-69.7	273	29	
2025-10-26T12:00	9740	269	-45.7	-69.9	272	29	
2025-10-26T12:00	9760	268	-45.7	-70.1	271	29	
2025-10-26T12:00	9780	267	-45.7	-70.2	270	29	
2025-10-26T12:00	9800	267	-45.9	-70.2	270	30	
2025-10-26T12:00	9820	266	-46.1	-70.0	270	30	
2025-10-26T12:00	9840	265	-46.3	-69.9	270	30	
2025-10-26T12:00	9860	264	-46.5	-69.9	270	30	
2025-10-26T12:00	9880	263	-46.7	-69.9	270	30	
2025-10-26T12:00	9900	263	-46.8	-70.0	271	30	
2025-10-26T12:00	9920	262	-47.0	-70.1	272	30	
2025-10-26T12:00	9940	261	-47.1	-70.4	272	29	
2025-10-26T12:00	9960	260	-47.0	-70.7	273	29	
2025-10-26T12:00	9980	260	-46.8	-70.8	274	29	
2025-10-26T12:00	10000	259	-46.9	-70.9	274	29	
2025-10-26T12:00	10018	258	-46.9	-71.2	274	29	
2025-10-26T12:00	10050	257	-46.7	-71.5	275	29	
2025-10-26T12:00	10100	255	-46.6	-71.9	275	28	
2025-10-26T12:00	10150	253	-46.9	-72.0	275	28	
2025-10-26T12:00	10200	251	-46.9	-72.3	273	27	
2025-10-26T12:00	10250	249	-46.8	-72.1	271	28	
2025-10-26T12:00	10300	247	-47.1	-72.2	270	29	
2025-10-26T12:00	10350	246	-47.3	-72.1	270	29	
2025-10-26T12:00	10400	244	-47.3	-72.0	269	30	
2025-10-26T12:00	10450	242	-47.6	-72.1	269	30	
2025-10-26T12:00	10500	240	-47.4	-72.6	267	29	
2025-10-26T12:00	10550	238	-47.3	-73.0	266	29	
2025-10-26T12:00	10600	236	-47.2	-73.0	266	29	
2025-10-26T12:00	10650	235	-47.1	-73.3	266	28	
2025-10-26T12:00	10700	233	-46.6	-73.2	267	28	
2025-10-26T12:00	10750	231	-46.7	-73.3	268	28	
2025-10-26T12:00	10800	229	-46.7	-73.3	269	28	
2025-10-26T12:00	10850	228	-47.0	-73.4	268	29	
2025-10-26T12:00	10900	226	-47.5	-73.7	267	29	
2025-10-26T12:00	10950	224	-47.6	-74.1	266	30	
2025-10-26T12:00	11000	223	-47.9	-74.5	267	30	
2025-10-26T12:00	11050	221	-48.2	-74.9	268	30	
2025-10-26T12:00	11100	219	-48.3	-75.1	268	30	
2025-10-26T12:00	11150	218	-48.1	-75.1	270	30	
2025-10-26T12:00	11200	216	-48.0	-75.1	273	30	
2025-10-26T12:00	11250	214	-48.2	-75.0	275	30	
2025-10-26T12:00	11300	213	-48.3	-75.1	276	30	
2025-10-26T12:00	11350	211	-48.4	-75.2	275	29	
2025-10-26T12:00	11400	209	-48.3	-75.7	275	28	
2025-10-26T12:00	11450	208	-48.1	-76.0	277	29	
2025-10-26T12:00	11500	206	-48.1	-76.2	279	30	
2025-10-26T12:00	11550	205	-47.5	-76.5	279	29	
2025-10-26T12:00	11600	203	-47.1	-76.7	277	29	
2025-10-26T12:00	11650	201	-47.2	-76.9	274	28	
2025-10-26T12:00	11700	200	-47.5	-77.0	271	28	
2025-10-26T12:00	11750	199	-47.2	-77.2	271	29	
2025-10-26T12:00	11800	197	-47.4	-77.2	270	30	
2025-10-26T12:00	11850	196	-47.8	-77.3	270	30	
2025-10-26T12:00	11900	194	-48.1	-77.4	270	30	
2025-10-26T12:00	11950	193	-48.1	-77.4	270	30	
2025-10-26T12:00	12000	191	-48.4	-77.8	272	29	
2025-10-26T12:00	12050	190	-48.9	-78.1	274	29	
2025-10-26T12:00	12100	188	-49.3	-78.3	276	28	
2025-10-26T12:00	12150	187	-49.7	-78.5	279	28	
2025-10-26T12:00	12200	186	-49.8	-78.6	281	28	
2025-10-26T12:00	12250	184	-49.9	-78.6	282	28	
2025-10-26T12:00	12300	183	-50.0	-78.9	282	28	
2025-10-26T12:00	12350	181	-49.9	-79.0	281	27	
2025-10-26T12:00	12400	180	-50.0	-79.2	279	26	
2025-10-26T12:00	12450	178	-50.0	-79.2	278	26	
2025-10-26T12:00	12500	177	-50.3	-79.4	278	26	
2025-10-26T12:00	12550	176	-50.4	-79.3	276	26	
2025-10-26T12:00	12600	175	-50.6	-79.3	275	27	
2025-10-26T12:00	12650	173	-51.0	-79.5	274	27	
2025-10-26T12:00	12700	172	-51.5	-79.7	274	27	
2025-10-26T12:00	12750	170	-51.7	-79.7	274	27	
2025-10-26T12:00	12800	169	-52.0	-79.8	274	26	
2025-10-26T12:00	12850	168	-52.2	-80.0	273	26	
2025-10-26T12:00	12900	167	-52.3	-80.1	271	26	
2025-10-26T12:00	12950	165	-52.6	-80.3	269	26	
2025-10-26T12:00	13000	164	-53.0	-80.4	267	26	
2025-10-26T12:00	13050	163	-53.2	-80.5	266	26	
2025-10-26T12:00	13100	161	-53.1	-80.6	266	26	
2025-10-26T12:00	13150	160	-52.9	-80.6	266	27	
2025-10-26T12:00	13200	159	-53.0	-80.7	266	27	
2025-10-26T12:00	13250	158	-53.3	-80.8	266	28	
2025-10-26T12:00	13300	156	-53.6	-80.9	267	28	
2025-10-26T12:00	13350	155	-53.6	-80.9	269	28	
2025-10-26T12:00	13400	154	-53.9	-81.0	270	28	
2025-10-26T12:00	13450	153	-54.1	-81.1	271	28	
2025-10-26T12:00	13500	152	-54.3	-81.2	271	28	
2025-10-26T12:00	13550	150	-54.5	-81.3	272	28	
2025-10-26T12:00	13600	149	-54.7	-81.4	273	28	
2025-10-26T12:00	13650	148	-54.9	-81.5	275	28	
2025-10-26T12:00	13700	147	-55.2	-81.5	277	28	
2025-10-26T12:00	13750	146	-55.5	-81.7	279	27	
2025-10-26T12:00	13800	145	-55.6	-81.8	279	27	
2025-10-26T12:00	13850	144	-55.7	-81.9	277	27	
2025-10-26T12:00	13900	142	-55.6	-82.1	274	26	
2025-10-26T12:00	13950	141	-55.8	-82.2	273	26	
2025-10-26T12:00	14000	140	-56.1	-82.3	272	26	
2025-10-26T12:00	14050	139	-56.0	-82.4	272	28	
2025-10-26T12:00	14100	138	-56.2	-82.6	273	29	
2025-10-26T12:00	14150	137	-56.3	-82.7	274	30	
2025-10-26T12:00	14200	136	-56.3	-82.8	274	29	
2025-10-26T12:00	14250	135	-56.4	-83.1	273	28	
2025-10-26T12:00	14300	134	-56.5	-83.1	273	27	
2025-10-26T12:00	14350	133	-56.8	-83.1	274	26	
2025-10-26T12:00	14400	132	-57.2	-83.3	276	26	
2025-10-26T12:00	14450	131	-57.4	-83.5	277	27	
2025-10-26T12:00	14500	130	-57.4	-83.5	274	27	
2025-10-26T12:00	14550	129	-57.2	-83.6	270	27	
2025-10-26T12:00	14600	128	-57.2	-83.5	268	27	
2025-10-26T12:00	14650	127	-57.4	-83.5	266	28	
2025-10-26T12:00	14700	126	-57.8	-83.6	263	29	
2025-10-26T12:00	14750	125	-58.0	-83.6	263	30	
2025-10-26T12:00	14800	124	-58.2	-83.7	265	31	
2025-10-26T12:00	14850	123	-57.9	-83.6	267	31	
2025-10-26T12:00	14900	122	-58.1	-83.7	269	31	
2025-10-26T12:00	14950	121	-58.3	-83.8	271	30	
2025-10-26T12:00	15000	120	-58.5	-83.8	273	30	
2025-10-26T12:00	15050	119	-58.7	-83.9	275	29	
2025-10-26T12:00	15100	118	-59.0	-83.9	277	28	
2025-10-26T12:00	15150	117	-59.4	-84.1	278	28	
2025-10-26T12:00	15200	116	-59.5	-84.1	277	28	
2025-10-26T12:00	15250	115	-59.4	-84.1	276	28	
2025-10-26T12:00	15300	114	-59.6	-84.4	276	28	
2025-10-26T12:00	15350	113	-59.3	-84.3	275	28	
2025-10-26T12:00	15400	112	-59.0	-84.3	274	29	
2025-10-26T12:00	15450	111	-59.2	-84.3	272	29	
2025-10-26T12:00	15500	111	-59.5	-84.4	269	30	
2025-10-26T12:00	15550	110	-59.8	-84.4	268	30	
2025-10-26T12:00	15600	109	-60.1	-84.4	268	31	
2025-10-26T12:00	15650	108	-60.5	-84.5	269	31	
2025-10-26T12:00	15700	107	-60.9	-84.7	272	31	
2025-10-26T12:00	15750	106	-60.8	-84.8	275	31	
2025-10-26T12:00	15800	105	-60.4	-84.9	279	30	
2025-10-26T12:00	15850	105	-60.0	-84.8	282	29	
2025-10-26T12:00	15900	104	-60.3	-84.9	284	28	
2025-10-26T12:00	15950	103	-60.6	-85.0	285	26	
2025-10-26T12:00	16000	102	-60.6	-85.1	285	25	
2025-10-26T12:00	16050	101	-60.4	-85.0	282	25	
2025-10-26T12:00	16100	100	-60.7	-85.2	280	24	
2025-10-26T12:00	16150	100	-60.5	-85.2	279	25	
2025-10-26T12:00	16200	99	-60.2	-85.2	279	26	
2025-10-26T12:00	16250	98	-60.2	-85.2	280	28	
2025-10-26T12:00	16300	97	-60.3	-85.4	280	29	
2025-10-26T12:00	16350	96	-59.7	-85.2	283	29	
2025-10-26T12:00	16400	96	-59.6	-85.3	286	28	
2025-10-26T12:00	16450	95	-59.5	-85.4	289	28	
2025-10-26T12:00	16500	94	-59.1	-85.3	292	27	
2025-10-26T12:00	16550	93	-58.7	-85.2	293	26	
2025-10-26T12:00	16600	93	-58.5	-85.2	293	25	
2025-10-26T12:00	16650	92	-58.4	-85.1	294	24	
2025-10-26T12:00	16700	91	-58.5	-85.1	294	23	
2025-10-26T12:00	16750	90	-58.7	-85.0	294	23	
2025-10-26T12:00	16800	90	-59.0	-85.3	293	22	
2025-10-26T12:00	16850	89	-58.8	-85.5	290	21	
2025-10-26T12:00	16900	88	-57.8	-85.2	288	22	
2025-10-26T12:00	16950	88	-57.7	-85.4	285	23	
2025-10-26T12:00	17000	87	-57.7	-85.4	283	24	
2025-10-26T12:00	17050	86	-57.8	-85.2	282	26	
2025-10-26T12:00	17100	86	-58.0	-85.2	281	27	
2025-10-26T12:00	17150	85	-58.3	-85.4	281	28	
2025-10-26T12:00	17200	84	-58.2	-85.5	283	27	
2025-10-26T12:00	17250	84	-57.7	-85.4	286	25	
2025-10-26T12:00	17300	83	-57.7	-85.5	289	24	
2025-10-26T12:00	17350	82	-57.4	-85.4	291	23	
2025-10-26T12:00	17400	82	-57.0	-85.3	293	24	
2025-10-26T12:00	17450	81	-57.0	-85.2	294	24	
2025-10-26T12:00	17500	80	-57.2	-85.2	295	25	
2025-10-26T12:00	17550	80	-57.2	-85.2	297	24	
2025-10-26T12:00	17600	79	-56.8	-85.2	300	22	
2025-10-26T12:00	17650	78	-56.5	-85.1	303	20	
2025-10-26T12:00	17700	78	-56.3	-85.0	305	18	
2025-10-26T12:00	17750	77	-56.4	-84.9	305	16	
2025-10-26T12:00	17800	77	-56.6	-85.1	301	14	
2025-10-26T12:00	17850	76	-56.0	-84.9	290	12	
2025-10-26T12:00	17900	75	-55.6	-84.9	276	10	
2025-10-26T12:00	17950	75	-55.6	-84.9	262	9	
2025-10-26T12:00	18000	74	-55.5	-84.8	248	8	
2025-10-26T12:00	18050	74	-55.5	-84.7	235	8	
2025-10-26T12:00	18100	73	-55.5	-84.5	225	8	
2025-10-26T12:00	18150	73	-55.9	-84.5	223	9	
2025-10-26T12:00	18200	72	-56.5	-84.6	223	10	
2025-10-26T12:00	18250	71	-56.9	-84.7	221	10	
2025-10-26T12:00	18300	71	-57.3	-84.8	218	11	
2025-10-26T12:00	18350	70	-57.8	-85.1	216	11	
2025-10-26T12:00	18400	70	-58.0	-85.2	216	11	
2025-10-26T12:00	18450	69	-58.1	-85.3	220	11	
2025-10-26T12:00	18500	69	-58.3	-85.4	224	12	
2025-10-26T12:00	18550	68	-58.5	-85.5	228	12	
2025-10-26T12:00	18600	68	-58.8	-85.6	229	12	
2025-10-26T12:00	18650	67	-59.1	-85.6	230	12	
2025-10-26T12:00	18700	66	-59.5	-85.7	231	11	
2025-10-26T12:00	18750	66	-59.9	-85.8	232	11	
2025-10-26T12:00	18800	65	-60.3	-85.9	234	11	
2025-10-26T12:00	18850	65	-60.7	-86.0	236	11	
2025-10-26T12:00	18900	64	-61.1	-86.2	239	11	
2025-10-26T12:00	18950	64	-61.5	-86.3	243	11	
2025-10-26T12:00	19000	63	-61.9	-86.5	246	12	
2025-10-26T12:00	19050	63	-62.2	-86.6	248	12	
2025-10-26T12:00	19100	62	-62.3	-86.8	251	13	
2025-10-26T12:00	19150	62	-62.1	-86.9	253	14	
2025-10-26T12:00	19200	61	-61.8	-86.8	253	15	
2025-10-26T12:00	19250	61	-61.9	-86.8	250	15	
2025-10-26T12:00	19300	60	-62.2	-86.7	248	16	
2025-10-26T12:00	19350	60	-62.7	-86.7	247	16	
2025-10-26T12:00	19400	59	-63.2	-86.8	247	17	
2025-10-26T12:00	19450	59	-63.6	-87.0	247	18	
2025-10-26T12:00	19500	58	-63.8	-87.1	249	18	
2025-10-26T12:00	19550	58	-63.9	-87.3	251	18	
2025-10-26T12:00	19600	57	-63.8	-87.2	253	18	
2025-10-26T12:00	19650	57	-64.1	-87.3	255	18	
2025-10-26T12:00	19700	57	-64.6	-87.4	257	17	
2025-10-26T12:00	19750	56	-65.0	-87.4	260	17	
2025-10-26T12:00	19800	56	-65.4	-87.5	264	17	
2025-10-26T12:00	19850	55	-65.7	-87.7	268	17	
2025-10-26T12:00	19900	55	-66.0	-87.8	271	17	
2025-10-26T12:00	19950	54	-66.3	-87.8	272	17	
2025-10-26T12:00	20000	54	-66.6	-87.9	272	17	
2025-10-26T12:00	20050	53	-67.0		272	17	
2025-10-26T12:00	20100	53	-66.9		272	17	
2025-10-26T12:00	20150	52	-67.0		274	17	
2025-10-26T12:00	20200	52	-67.2		276	17	
2025-10-26T12:00	20250	52	-67.5		280	18	
2025-10-26T12:00	20300	51	-67.9		283	18	
2025-10-26T12:00	20350	51	-67.9		286	19	
2025-10-26T12:00	20400	50	-67.7		287	20	
2025-10-26T12:00	20450	50	-67.7		287	20	
2025-10-26T12:00	20500	50	-67.8		286	20	
2025-10-26T12:00	20550	49	-67.6		284	19	
2025-10-26T12:00	20600	49	-67.9		282	20	
2025-10-26T12:00	20650	48	-67.9		281	21	
2025-10-26T12:00	20700	48	-67.5		279	22	
2025-10-26T12:00	20750	47	-67.5		277	23	
2025-10-26T12:00	20800	47	-67.7		275	25	
2025-10-26T12:00	20850	47	-67.9		273	26	
2025-10-26T12:00	20900	46	-68.0		271	28	
2025-10-26T12:00	20950	46	-68.2		268	30	
2025-10-26T12:00	21000	46	-68.2		268	31	
2025-10-26T12:00	21050	45	-67.5		271	32	
2025-10-26T12:00	21100	45	-66.1		275	31	
2025-10-26T12:00	21150	44	-65.6		279	31	
2025-10-26T12:00	21200	44	-65.4		282	31	
2025-10-26T12:00	21250	44	-65.3		283	30	
2025-10-26T12:00	21300	43	-64.4		283	30	
2025-10-26T12:00	21350	43	-63.0		281	32	
2025-10-26T12:00	21400	43	-61.8		279	34	
2025-10-26T12:00	21450	42	-61.2		280	34	
2025-10-26T12:00	21500	42	-60.6		283	33	
2025-10-26T12:00	21550	42	-59.1		286	30	
2025-10-26T12:00	21600	41	-59.0		289	27	
2025-10-26T12:00	21650	41	-58.8		291	24	
2025-10-26T12:00	21700	41	-57.0		292	19	
2025-10-26T12:00	21750	40	-54.5		292	15	
2025-10-26T12:00	21800	40	-52.7		287	12	
2025-10-26T12:00	21850	40	-51.9		282	10	
2025-10-26T12:00	21900	39	-52.0		278	8	
2025-10-26T12:00	21950	39	-51.9		273	7	
2025-10-26T12:00	22000	39	-52.0		261	6	
2025-10-26T12:00	22050	39	-51.8		248	6	
2025-10-26T12:00	22100	38	-52.0		239	5	
2025-10-26T12:00	22150	38	-52.3		228	5	
2025-10-26T12:00	22200	38	-52.8		215	5	
2025-10-26T12:00	22250	37	-53.2		206	5	
2025-10-26T12:00	22300	37	-53.6		203	6	
2025-10-26T12:00	22350	37	-54.0		204	6	
2025-10-26T12:00	22400	36	-54.5		206	6	
2025-10-26T12:00	22450	36	-54.9		206	7	
2025-10-26T12:00	22500	36	-55.2		203	7	
2025-10-26T12:00	22550	36	-55.7		200	8	
2025-10-26T12:00	22600	35	-56.2		196	7	
2025-10-26T12:00	22650	35	-56.7		194	8	
2025-10-26T12:00	22700	35	-57.1		195	8	
2025-10-26T12:00	22750	35	-57.6		196	9	
2025-10-26T12:00	22800	34	-58.0		198	10	
2025-10-26T12:00	22850	34	-58.4		200	11	
2025-10-26T12:00	22900	34	-58.8		202	12	
2025-10-26T12:00	22950	33	-59.2		203	13	
2025-10-26T12:00	23000	33	-59.6		204	13	
2025-10-26T12:00	23050	33	-59.9		207	14	
2025-10-26T12:00	23100	33	-60.4		213	14	
2025-10-26T12:00	23150	32	-60.7		220	13	
2025-10-26T12:00	23200	32	-60.5		227	13	
2025-10-26T12:00	23250	32	-60.5		232	12	
2025-10-26T12:00	23300	32	-60.8		238	12	
2025-10-26T12:00	23350	31	-61.1		243	12	
2025-10-26T12:00	23400	31	-61.3		247	12	
2025-10-26T12:00	23450	31	-61.5		249	12	
2025-10-26T12:00	23500	31	-61.7		249	13	
2025-10-26T12:00	23550	30	-61.8		247	14	
2025-10-26T12:00	23600	30	-62.1		246	15	
2025-10-26T12:00	23650	30	-62.3		246	16	
2025-10-26T12:00	23700	30	-62.8		247	17	
2025-10-26T12:00	23750	29	-63.0		250	17	
2025-10-26T12:00	23800	29	-62.9		254	17	
2025-10-26T12:00	23850	29	-62.8		259	17	
2025-10-26T12:00	23900	29	-62.8		263	17	
2025-10-26T12:00	23950	28	-63.0		267	18	
2025-10-26T12:00	24000	28	-63.2		270	18	
2025-10-26T12:00	24050	28	-63.6		272	19	
2025-10-26T12:00	24100	28	-63.7		272	19	
2025-10-26T12:00	24150	28	-63.5		271	20	
2025-10-26T12:00	24200	27	-63.1		268	20	
2025-10-26T12:00	24250	27	-63.1		265	21	
2025-10-26T12:00	24300	27	-63.5		264	22	
2025-10-26T12:00	24350	27	-63.9		263	22	
2025-10-26T12:00	24400	26	-64.1		263	22	
2025-10-26T12:00	24450	26	-64.4		263	22	
2025-10-26T12:00	24500	26	-64.6		264	22	
2025-10-26T12:00	24550	26	-64.8		265	22	
2025-10-26T12:00	24600	26	-63.8		267	23	
2025-10-26T12:00	24650	25	-62.2		266	23	
2025-10-26T12:00	24700	25	-61.1		270	23	
2025-10-26T12:00	24750	25	-60.4		277	23	
2025-10-26T12:00	24800	25	-59.7		281	23	
2025-10-26T12:00	24850	25	-58.8		283	22	
2025-10-26T12:00	24900	24	-57.8		282	22	
2025-10-26T12:00	24950	24	-57.5		281	22	
2025-10-26T12:00	25000	24	-57.4		280	22	
2025-10-26T12:00	25050	24	-57.1		279	22	
2025-10-26T12:00	25100	24	-56.6		278	22	
2025-10-26T12:00	25150	23	-56.4		276	22	
2025-10-26T12:00	25200	23	-56.2		273	23	
2025-10-26T12:00	25250	23	-56.1		271	24	
2025-10-26T12:00	25300	23	-55.9		272	24	
2025-10-26T12:00	25350	23	-56.0		273	24	
2025-10-26T12:00	25400	23	-56.2		274	24	
2025-10-26T12:00	25450	22	-56.4		273	23	
2025-10-26T12:00	25500	22	-56.4		270	23	
2025-10-26T12:00	25550	22	-56.3		268	24	
2025-10-26T12:00	25600	22	-56.3		268	24	
2025-10-26T12:00	25650	22	-56.1		268	24	
2025-10-26T12:00	25700	22	-55.8		267	25	
2025-10-26T12:00	25750	21	-55.3		263	25	
2025-10-26T12:00	25800	21	-55.3		259	26	
2025-10-26T12:00	25850	21	-55.4		256	27	
2025-10-26T12:00	25900	21	-55.5		254	28	
2025-10-26T12:00	25950	21	-55.7		253	28	
2025-10-26T12:00	26000	21	-55.3		255	28	
2025-10-26T12:00	26050	20	-55.4		257	26	
2025-10-26T12:00	26100	20	-55.7		258	25	
2025-10-26T12:00	26150	20	-56.1		259	24	
2025-10-26T12:00	26200	20	-56.5		259	23	
2025-10-26T12:00	26250	20	-56.7		258	22	
2025-10-26T12:00	26300	20	-56.5		256	23	
2025-10-26T12:00	26350	19	-56.2		256	24	
2025-10-26T12:00	26400	19	-56.2		256	25	
2025-10-26T12:00	26450	19	-56.4		256	25	
2025-10-26T12:00	26500	19	-56.5		257	25	
2025-10-26T12:00	26550	19	-56.2		258	26	
2025-10-26T12:00	26600	19	-56.1		258	27	
2025-10-26T12:00	26650	19	-56.3		257	28	
2025-10-26T12:00	26700	18	-56.2		256	29	
2025-10-26T12:00	26750	18	-55.7		255	29	
2025-10-26T12:00	26800	18	-55.5		256	29	
2025-10-26T12:00	26850	18	-55.5		257	28	
2025-10-26T12:00	26900	18	-55.6		257	27	
2025-10-26T12:00	26950	18	-55.9		257	26	
2025-10-26T12:00	27000	18	-56.3		256	25	
2025-10-26T12:00	27050	17	-56.8		254	24	
2025-10-26T12:00	27100	17	-57.0		252	23	
2025-10-26T12:00	27150	17	-56.9		249	22	
2025-10-26T12:00	27200	17	-57.2		247	22	
2025-10-26T12:00	27250	17	-57.5		245	21	
2025-10-26T12:00	27300	17	-57.6		245	21	
2025-10-26T12:00	27350	17	-57.5		245	22	
2025-10-26T12:00	27400	16	-57.9		246	22	
2025-10-26T12:00	27450	16	-58.2		247	23	
2025-10-26T12:00	27500	16	-58.3		248	24	
2025-10-26T12:00	27550	16	-58.4		250	25	
2025-10-26T12:00	27600	16	-58.3		251	26	
2025-10-26T12:00	27650	16	-58.6		253	27	
2025-10-26T12:00	27700	16	-58.9		254	28	
2025-10-26T12:00	27750	16	-59.2		255	29	
2025-10-26T12:00	27800	15	-59.3		255	29	
2025-10-26T12:00	27850	15	-59.1		254	28	
2025-10-26T12:00	27900	15	-58.9		253	28	
2025-10-26T12:00	27950	15	-59.1		251	28	
2025-10-26T12:00	28000	15	-59.4		249	28	
2025-10-26T12:00	28050	15	-59.6		249	29	
2025-10-26T12:00	28100	15	-59.5		250	30	
2025-10-26T12:00	28150	15	-59.3		252	32	
2025-10-26T12:00	28200	14	-59.2		254	33	
2025-10-26T12:00	28250	14	-59.4		256	34	
2025-10-26T12:00	28300	14	-59.5		257	35	
2025-10-26T12:00	28350	14	-59.5		256	35	
2025-10-26T12:00	28400	14	-59.8		255	34	
2025-10-26T12:00	28450	14	-60.0		254	35	
2025-10-26T12:00	28500	14	-59.5		255	35	
2025-10-26T12:00	28550	14	-58.8		257	36	
2025-10-26T12:00	28600	14	-58.0		259	37	
2025-10-26T12:00	28650	13	-57.6		260	37	
2025-10-26T12:00	28700	13	-57.4		257	37	
2025-10-26T12:00	28750	13	-57.5		253	37	
2025-10-26T12:00	28800	13	-57.5		251	37	
2025-10-26T12:00	28850	13	-57.1		253	38	
2025-10-26T12:00	28900	13	-56.5		256	38	
2025-10-26T12:00	28950	13	-56.1		258	39	
2025-10-26T12:00	29000	13	-55.7		260	39	
2025-10-26T12:00	29050	13	-55.5		261	39	
2025-10-26T12:00	29100	13	-55.4		261	39	
2025-10-26T12:00	29150	12	-55.3		260	39	
2025-10-26T12:00	29200	12	-55.4		260	39	
2025-10-26T12:00	29250	12	-55.4		259	39	
2025-10-26T12:00	29300	12	-55.2		260	39	
2025-10-26T12:00	29350	12	-55.3		260	39	
2025-10-26T12:00	29400	12	-55.4		261	40	
2025-10-26T12:00	29450	12	-55.3		262	40	
2025-10-26T12:00	29500	12	-55.2		263	40	
2025-10-26T12:00	29550	12	-55.4		265	40	
2025-10-26T12:00	29600	12	-55.7		266	40	
2025-10-26T12:00	29650	12	-55.9		268	40	
2025-10-26T12:00	29700	11	-56.1		268	41	
2025-10-26T12:00	29750	11	-56.1		268	41	
2025-10-26T12:00	29800	11	-56.0		268	42	
2025-10-26T12:00	29850	11	-55.8		268	42	
2025-10-26T12:00	29900	11	-55.5		268	42	
2025-10-26T12:00	29950	11	-55.3		269	41	
2025-10-26T12:00	30000	11	-55.4		270	41	
2025-10-26T12:00	30050	11	-55.6		272	40	
2025-10-26T12:00	30100	11	-56.0		273	39	
2025-10-26T12:00	30150	11	-56.2		275	38	
2025-10-26T12:00	30200	11	-56.3		275	36	
2025-10-26T12:00	30250	10	-56.5		275	35	
2025-10-26T12:00	30300	10	-56.7		275	34	
2025-10-26T12:00	30350	10	-56.5		275	34	
2025-10-26T12:00	30400	10	-56.2		275	34	
2025-10-26T12:00	30450	10	-56.1		276	34	
2025-10-26T12:00	30500	10	-56.3		276	34	
2025-10-26T12:00	30550	10	-56.2		275	34	
2025-10-26T12:00	30600	10	-55.5		273	35	
2025-10-26T12:00	30650	10	-54.9		271	36	
2025-10-26T12:00	30700	10	-54.1		270	38	
2025-10-26T12:00	30750	10	-53.6		269	39	
2025-10-26T12:00	30800	10	-53.2		269	39	
2025-10-26T12:00	30850	10	-52.8		269	39	
2025-10-26T12:00	30900	9	-52.9		267	39	
2025-10-26T12:00	30950	9	-52.6		265	40	
2025-10-26T12:00	31000	9	-52.5		264	40	
2025-10-26T12:00	31050	9	-52.4		262	39	
2025-10-26T12:00	31100	9	-52.6		262	39	
2025-10-26T12:00	31150	9	-53.0		261	39	
2025-10-26T12:00	31200	9	-53.1		260	39	
2025-10-26T12:00	31250	9	-52.9		260	39	
2025-10-26T12:00	31300	9	-52.6		260	39	
2025-10-26T12:00	31350	9	-52.5		260	39	
2025-10-26T12:00	31400	9	-52.4		261	39	
2025-10-26T12:00	31450	9	-52.2		261	39	
2025-10-26T12:00	31500	9	-52.2		261	41	
2025-10-26T12:00	31550	9	-52.2		261	42	
2025-10-26T12:00	31600	8	-52.1		261	44	
2025-10-26T12:00	31650	8	-52.2		261	45	
2025-10-26T12:00	31700	8	-52.3		260	46	
2025-10-26T12:00	31750	8	-52.7		260	47	
2025-10-26T12:00	31800	8	-52.9		261	47	
2025-10-26T12:00	31850	8	-52.8		261	47	
2025-10-26T12:00	31900	8	-52.7		261	47	
2025-10-26T12:00	31950	8	-52.8		261	46	
2025-10-26T12:00	32000	8	-53.2		260	46	
2025-10-26T12:00	32050	8	-53.5		259	46	
2025-10-26T12:00	32100	8	-53.3		259	48	
2025-10-26T12:00	32150	8	-52.8		260	49	
2025-10-26T12:00	32200	8	-52.4		261	51	
2025-10-26T12:00	32250	8	-51.5		262	51	
2025-10-26T12:00	32300	8	-51.4		262	50	
2025-10-26T12:00	32350	8	-50.9		260	48	
2025-10-26T12:00	32400	8	-50.4		257	47	
2025-10-26T12:00	32450	7	-50.0		254	48	
2025-10-26T12:00	32500	7	-48.9		252	49	
2025-10-26T12:00	32550	7	-48.3		251	50	
2025-10-26T12:00	32600	7	-48.1		252	50	
2025-10-26T12:00	32650	7	-47.9		253	50	
2025-10-26T12:00	32700	7	-47.7		255	50	
2025-10-26T12:00	32750	7	-47.4		258	50	
2025-10-26T12:00	32800	7	-46.7		259	50	
2025-10-26T12:00	32850	7	-46.1		260	50	
2025-10-26T12:00	32900	7	-45.9		260	50	
2025-10-26T12:00	32950	7	-46.1		259	50	
2025-10-26T12:00	33000	7	-46.3		258	50	
2025-10-26T12:00	33050	7	-46.2		257	50	
2025-10-26T12:00	33100	7	-46.0		256	51	
2025-10-26T12:00	33150	7	-46.0		255	52	
2025-10-26T12:00	33200	7	-46.3		255	53	
2025-10-26T12:00	33250	7	-46.5		256	54	
2025-10-26T12:00	33300	7	-46.4		257	55	
2025-10-26T12:00	33350	6	-46.4		258	55	
2025-10-26T12:00	33400	6	-46.5		259	55	
2025-10-26T12:00	33450	6	-46.8		260	55	
2025-10-26T12:00	33500	6	-47.0		260	55	
2025-10-26T12:00	33550	6	-47.0		259	56	
2025-10-26T12:00	33600	6	-47.2		258	57	
2025-10-26T12:00	33650	6	-47.3		258	57	
2025-10-26T12:00	33700	6	-47.2		258	58	
2025-10-26T12:00	33750	6	-46.9		259	59	
2025-10-26T12:00	33800	6	-46.6		260	58	
2025-10-26T12:00	33850	6	-46.6		261	58	
2025-10-26T12:00	33900	6	-46.6		261	58	
2025-10-26T12:00	33950	6	-46.4		261	58	
2025-10-26T12:00	34000	6	-46.1		260	59	
2025-10-26T12:00	34050	6	-45.9		259	59	
2025-10-26T12:00	34100	6	-45.7		259	58	
2025-10-26T12:00	34150	6	-45.0		260	59	
2025-10-26T12:00	34200	6	-44.7		261	60	
2025-10-26T12:00	34250	6	-44.6		262	61	
2025-10-26T12:00	34300	6	-44.8		262	62	
2025-10-26T12:00	34350	6	-44.9		263	63	
2025-10-26T12:00	34400	6	-44.8		263	64	
2025-10-26T12:00	34450	6	-44.6		263	64	
2025-10-26T12:00	34500	5	-44.3		262	64	
2025-10-26T12:00	34550	5	-44.1		262	64	
2025-10-26T12:00	34600	5	-44.0		261	63	
2025-10-26T12:00	34650	5	-44.0		260	62	
2025-10-26T12:00	34700	5	-44.1		259	62	
2025-10-26T12:00	34750	5	-44.0		259	62	
2025-10-26T12:00	34800	5	-43.6		259	62	
2025-10-26T12:00	34850	5	-42.8		259	62	
2025-10-26T12:00	34900	5	-42.2		259	62	
2025-10-26T12:00	34950	5	-41.8		260	62	
2025-10-26T12:00	35000	5	-41.5		261	61	
2025-10-26T12:00	35050	5	-41.1		261	61	
2025-10-26T12:00	35100	5	-40.3		262	61	
2025-10-26T12:00	35150	5	-40.0		263	61	
2025-10-26T12:00	35200	5	-40.2		265	62	
2025-10-26T12:00	35250	5	-40.2		266	61	
2025-10-26T12:00	35300	5	-40.3		267	61	
2025-10-26T12:00	35350	5	-40.4		269	60	
2025-10-26T12:00	35400	5	-40.4		271	59	
2025-10-26T12:00	35450	5	-40.5		272	59	
2025-10-26T12:00	35500	5	-40.7		273	58	
2025-10-26T12:00	35550	5	-40.5		273	57	
2025-10-26T12:00	35600	5	-40.4		272	57	
2025-10-26T12:00	35650	5	-40.6		271	57	
2025-10-26T12:00	35700	5	-40.9		271	56	
2025-10-26T12:00	35750	5	-41.2		271	55	
2025-10-26T12:00	35800	5	-41.4		270	55	
2025-10-26T12:00	35850	4	-41.2		270	56	
2025-10-26T12:00	35900	4	-40.9		269	56	
2025-10-26T12:00	35950	4	-40.9		269	57	
2025-10-26T12:00	36000	4	-40.8		269	57	
2025-10-26T12:00	36050	4	-40.8		268	56	
2025-10-26T12:00	36100	4	-41.0		268	56	
2025-10-26T12:00	36150	4	-41.3		267	56	
2025-10-26T12:00	36200	4	-41.6		267	55	
2025-10-26T12:00	36250	4	-41.8		265	55	
2025-10-26T12:00	36300	4	-41.8		264	55	
2025-10-26T12:00	36350	4	-41.5		262	54	
2025-10-26T12:00	36400	4	-41.2		262	55	
2025-10-27T00:00	491	958	6.8	3.1	231	3	
2025-10-27T00:00	501	956	6.7	3.4	221	4	
2025-10-27T00:00	520	955	6.6	3.2	220	5	
2025-10-27T00:00	540	952	6.4	2.9	220	6	
2025-10-27T00:00	560	950	6.3	2.6	220	8	
2025-10-27T00:00	580	948	6.2	2.5	220	9	
2025-10-27T00:00	600	946	6.0	2.5	220	10	
2025-10-27T00:00	620	943	5.9	2.4	220	11	
2025-10-27T00:00	640	941	5.8	2.2	219	12	
2025-10-27T00:00	660	939	5.7	2.1	218	12	
2025-10-27T00:00	680	936	5.5	2.2	218	12	
2025-10-27T00:00	700	934	5.3	2.1	218	12	
2025-10-27T00:00	720	932	5.1	2.0	218	13	
2025-10-27T00:00	740	929	5.0	1.9	219	13	
2025-10-27T00:00	760	927	4.8	1.8	220	14	
2025-10-27T00:00	780	925	4.6	1.6	220	14	
2025-10-27T00:00	800	922	4.5	1.3	220	15	
2025-10-27T00:00	820	920	4.4	1.0	220	15	
2025-10-27T00:00	840	918	4.2	0.9	220	15	
2025-10-27T00:00	860	915	4.1	0.0	219	15	
2025-10-27T00:00	880	913	3.9	0.0	219	15	
2025-10-27T00:00	900	911	3.8	-0.2	219	15	
2025-10-27T00:00	920	909	3.6	-0.1	219	15	
2025-10-27T00:00	940	907	3.4	-0.4	219	14	
2025-10-27T00:00	960	905	3.4	-0.8	220	14	
2025-10-27T00:00	980	902	3.3	-0.8	220	14	
2025-10-27T00:00	1000	900	3.1	-0.8	220	14	
2025-10-27T00:00	1020	898	2.8	-0.9	220	14	
2025-10-27T00:00	1040	896	2.6	-0.9	220	14	
2025-10-27T00:00	1060	893	2.4	-1.0	220	14	
2025-10-27T00:00	1080	891	2.3	-1.0	220	14	
2025-10-27T00:00	1100	889	2.1	-1.0	221	14	
2025-10-27T00:00	1120	887	2.0	-1.1	222	14	
2025-10-27T00:00	1140	885	1.8	-1.2	223	14	
2025-10-27T00:00	1160	882	1.6	-1.3	224	14	
2025-10-27T00:00	1180	880	1.5	-1.4	225	14	
2025-10-27T00:00	1200	878	1.5	-1.5	226	14	
2025-10-27T00:00	1220	876	1.5	-1.7	226	14	
2025-10-27T00:00	1240	874	1.4	-1.8	227	14	
2025-10-27T00:00	1260	871	1.2	-1.9	227	14	
2025-10-27T00:00	1280	869	1.0	-1.9	228	14	
2025-10-27T00:00	1300	867	0.8	-1.9	229	15	
2025-10-27T00:00	1320	865	0.7	-2.0	230	15	
2025-10-27T00:00	1340	863	0.6	-2.1	231	15	
2025-10-27T00:00	1360	861	0.4	-2.2	232	15	
2025-10-27T00:00	1380	859	0.3	-2.3	232	15	
2025-10-27T00:00	1400	856	0.2	-2.3	234	14	
2025-10-27T00:00	1420	854	0.1	-2.3	235	14	
2025-10-27T00:00	1440	852	-0.1	-2.4	235	14	
2025-10-27T00:00	1460	850	-0.3	-2.4	236	14	
2025-10-27T00:00	1480	848	-0.5	-2.5	237	14	
2025-10-27T00:00	1500	846	-0.7	-2.5	238	14	
2025-10-27T00:00	1520	844	-0.8	-2.6	239	15	
2025-10-27T00:00	1540	842	-1.0	-2.7	239	15	
2025-10-27T00:00	1560	840	-1.2	-2.7	239	15	
2025-10-27T00:00	1580	837	-1.4	-2.7	240	15	
2025-10-27T00:00	1600	835	-1.5	-2.8	240	14	
2025-10-27T00:00	1620	833	-1.7	-2.9	241	14	
2025-10-27T00:00	1640	831	-1.8	-3.0	241	14	
2025-10-27T00:00	1660	829	-2.0	-3.1	242	14	
2025-10-27T00:00	1680	827	-2.1	-3.1	244	13	
2025-10-27T00:00	1700	825	-2.3	-3.2	245	13	
2025-10-27T00:00	1720	823	-2.5	-3.4	246	13	
2025-10-27T00:00	1740	821	-2.5	-3.6	247	13	
2025-10-27T00:00	1760	819	-2.7	-3.7	249	13	
2025-10-27T00:00	1780	817	-2.9	-3.8	250	13	
2025-10-27T00:00	1800	815	-3.1	-3.8	251	13	
2025-10-27T00:00	1820	812	-3.2	-4.0	252	13	
2025-10-27T00:00	1840	810	-3.4	-4.0	254	12	
2025-10-27T00:00	1860	808	-3.5	-4.2	256	12	
2025-10-27T00:00	1880	806	-3.6	-4.4	258	12	
2025-10-27T00:00	1900	804	-3.8	-4.4	261	11	
2025-10-27T00:00	1920	802	-3.9	-4.6	264	11	
2025-10-27T00:00	1940	800	-4.1	-4.8	265	11	
2025-10-27T00:00	1960	798	-3.9	-5.3	265	11	
2025-10-27T00:00	1980	796	-4.0	-5.3	263	12	
2025-10-27T00:00	2000	794	-4.1	-5.5	261	12	
2025-10-27T00:00	2020	792	-4.2	-5.3	259	12	
2025-10-27T00:00	2040	790	-4.3	-5.3	258	13	
2025-10-27T00:00	2060	788	-4.5	-5.3	258	13	
2025-10-27T00:00	2080	786	-4.6	-5.3	259	12	
2025-10-27T00:00	2100	784	-4.8	-5.5	259	12	
2025-10-27T00:00	2120	782	-4.9	-5.7	260	12	
2025-10-27T00:00	2140	780	-5.0	-5.7	261	12	
2025-10-27T00:00	2160	778	-5.2	-5.7	261	11	
2025-10-27T00:00	2180	776	-5.4	-5.8	260	11	
2025-10-27T00:00	2200	774	-5.6	-5.9	259	11	
2025-10-27T00:00	2220	772	-5.7	-6.1	258	12	
2025-10-27T00:00	2240	770	-5.9	-6.1	257	12	
2025-10-27T00:00	2260	768	-6.1	-6.2	256	12	
2025-10-27T00:00	2280	767	-6.3	-6.3	255	13	
2025-10-27T00:00	2300	765	-6.4	-6.5	255	13	
2025-10-27T00:00	2320	762	-6.6	-6.6	254	13	
2025-10-27T00:00	2340	760	-6.8	-6.8	254	13	
2025-10-27T00:00	2360	759	-6.8	-6.8	255	13	
2025-10-27T00:00	2380	757	-6.9	-6.9	255	14	
2025-10-27T00:00	2400	754	-7.1	-7.1	255	14	
2025-10-27T00:00	2420	753	-7.2	-7.2	255	14	
2025-10-27T00:00	2440	751	-7.3	-7.3	256	14	
2025-10-27T00:00	2460	749	-7.5	-7.5	256	15	
2025-10-27T00:00	2480	747	-7.6	-7.6	256	15	
2025-10-27T00:00	2500	745	-7.7	-7.7	256	15	
2025-10-27T00:00	2520	743	-7.6	-8.2	256	14	
2025-10-27T00:00	2540	741	-7.6	-8.5	256	14	
2025-10-27T00:00	2560	739	-7.7	-8.6	255	13	
2025-10-27T00:00	2580	737	-7.8	-8.8	255	13	
2025-10-27T00:00	2600	736	-7.8	-9.1	254	13	
2025-10-27T00:00	2620	734	-7.9	-9.2	254	12	
2025-10-27T00:00	2640	732	-8.0	-9.4	254	12	
2025-10-27T00:00	2660	730	-8.1	-9.5	255	12	
2025-10-27T00:00	2680	728	-8.2	-9.8	255	12	
2025-10-27T00:00	2700	726	-8.4	-10.0	255	12	
2025-10-27T00:00	2720	724	-8.6	-10.3	255	12	
2025-10-27T00:00	2740	723	-8.5	-13.2	256	13	
2025-10-27T00:00	2760	721	-8.4	-18.6	256	13	
2025-10-27T00:00	2780	719	-8.5	-18.8	257	14	
2025-10-27T00:00	2800	717	-8.6	-19.2	258	14	
2025-10-27T00:00	2820	715	-8.7	-20.0	260	14	
2025-10-27T00:00	2840	713	-8.9	-19.7	261	15	
2025-10-27T00:00	2860	712	-9.1	-20.4	263	15	
2025-10-27T00:00	2880	710	-9.1	-21.6	265	15	
2025-10-27T00:00	2900	708	-9.2	-20.6	265	15	
2025-10-27T00:00	2920	706	-9.3	-20.5	265	15	
2025-10-27T00:00	2940	704	-9.5	-20.4	265	15	
2025-10-27T00:00	2960	702	-9.6	-20.4	264	15	
2025-10-27T00:00	2980	700	-9.8	-20.3	263	15	
2025-10-27T00:00	3000	699	-10.0	-20.4	262	15	
2025-10-27T00:00	3020	697	-10.2	-20.5	262	15	
2025-10-27T00:00	3040	695	-10.4	-20.5	262	15	
2025-10-27T00:00	3060	693	-10.6	-20.5	262	15	
2025-10-27T00:00	3080	691	-10.7	-20.6	263	15	
2025-10-27T00:00	3100	690	-10.9	-20.6	264	15	
2025-10-27T00:00	3120	688	-11.1	-20.6	265	15	
2025-10-27T00:00	3140	686	-11.3	-20.6	266	16	
2025-10-27T00:00	3160	684	-11.5	-20.7	267	16	
2025-10-27T00:00	3180	682	-11.6	-20.7	268	16	
2025-10-27T00:00	3200	681	-11.8	-20.7	270	16	
2025-10-27T00:00	3220	679	-12.0	-20.8	271	17	
2025-10-27T00:00	3240	677	-12.2	-20.8	273	17	
2025-10-27T00:00	3260	675	-12.4	-20.9	276	17	
2025-10-27T00:00	3280	674	-12.5	-20.9	280	17	
2025-10-27T00:00	3300	672	-12.7	-20.9	284	18	
2025-10-27T00:00	3320	670	-12.8	-20.4	287	19	
2025-10-27T00:00	3340	668	-12.8	-19.1	290	19	
2025-10-27T00:00	3360	667	-12.8	-17.6	292	20	
2025-10-27T00:00	3380	665	-12.0	-14.4	293	21	
2025-10-27T00:00	3400	663	-11.1	-12.2	295	22	
2025-10-27T00:00	3420	661	-10.9	-11.7	296	22	
2025-10-27T00:00	3440	660	-10.6	-10.7	297	23	
2025-10-27T00:00	3460	658	-10.3	-10.3	298	23	
2025-10-27T00:00	3480	656	-10.1	-10.1	299	23	
2025-10-27T00:00	3500	655	-10.0	-10.0	301	23	
2025-10-27T00:00	3520	653	-9.8	-9.8	303	23	
2025-10-27T00:00	3540	651	-9.9	-9.9	304	23	
2025-10-27T00:00	3560	649	-10.0	-10.0	306	23	
2025-10-27T00:00	3580	648	-10.1	-10.1	308	23	
2025-10-27T00:00	3600	646	-10.2	-10.2	310	24	
2025-10-27T00:00	3620	644	-10.3	-10.3	311	24	
2025-10-27T00:00	3640	643	-10.4	-10.4	312	24	
2025-10-27T00:00	3660	641	-10.5	-10.5	312	25	
2025-10-27T00:00	3680	639	-10.6	-10.6	312	25	
2025-10-27T00:00	3700	638	-10.5	-10.5	313	25	
2025-10-27T00:00	3720	636	-10.1	-10.1	313	25	
2025-10-27T00:00	3740	634	-9.6	-9.6	312	25	
2025-10-27T00:00	3760	633	-9.3	-10.0	312	25	
2025-10-27T00:00	3780	631	-9.4	-10.0	312	24	
2025-10-27T00:00	3800	630	-9.5	-10.1	312	24	
2025-10-27T00:00	3820	628	-9.7	-10.1	312	23	
2025-10-27T00:00	3840	626	-9.8	-10.1	312	23	
2025-10-27T00:00	3860	625	-10.0	-10.1	311	23	
2025-10-27T00:00	3880	623	-10.2	-10.3	311	23	
2025-10-27T00:00	3900	621	-10.3	-10.3	312	24	
2025-10-27T00:00	3920	620	-10.5	-10.5	311	24	
2025-10-27T00:00	3940	618	-10.7	-10.7	311	25	
2025-10-27T00:00	3960	617	-10.9	-10.9	310	24	
2025-10-27T00:00	3980	615	-11.0	-11.0	310	24	
2025-10-27T00:00	4000	613	-11.2	-11.2	310	24	
2025-10-27T00:00	4020	612	-11.3	-11.3	311	23	
2025-10-27T00:00	4040	610	-11.5	-11.5	312	23	
2025-10-27T00:00	4060	609	-11.6	-11.6	313	22	
2025-10-27T00:00	4080	607	-11.8	-11.8	315	22	
2025-10-27T00:00	4100	606	-11.9	-11.9	317	22	
2025-10-27T00:00	4120	604	-11.7	-12.0	318	22	
2025-10-27T00:00	4140	602	-11.3	-12.3	319	22	
2025-10-27T00:00	4160	601	-11.4	-12.4	319	22	
2025-10-27T00:00	4180	599	-11.4	-12.5	319	22	
2025-10-27T00:00	4200	598	-11.5	-12.7	318	23	
2025-10-27T00:00	4220	596	-11.6	-12.8	317	23	
2025-10-27T00:00	4240	594	-11.8	-12.8	316	23	
2025-10-27T00:00	4260	593	-11.9	-12.9	316	23	
2025-10-27T00:00	4280	591	-12.0	-12.9	316	23	
2025-10-27T00:00	4300	590	-12.1	-12.9	316	23	
2025-10-27T00:00	4320	588	-12.2	-12.9	316	23	
2025-10-27T00:00	4340	587	-12.2	-13.1	317	23	
2025-10-27T00:00	4360	585	-12.3	-13.2	318	23	
2025-10-27T00:00	4380	584	-12.4	-13.5	318	23	
2025-10-27T00:00	4400	582	-12.4	-13.6	318	24	
2025-10-27T00:00	4420	581	-12.4	-14.2	318	24	
2025-10-27T00:00	4440	579	-12.4	-14.4	318	24	
2025-10-27T00:00	4460	578	-12.6	-14.3	318	24	
2025-10-27T00:00	4480	576	-12.8	-14.5	319	24	
2025-10-27T00:00	4500	575	-12.9	-14.5	319	24	
2025-10-27T00:00	4520	573	-13.0	-14.6	320	24	
2025-10-27T00:00	4540	572	-13.2	-14.7	322	25	
2025-10-27T00:00	4560	570	-13.3	-14.8	323	25	
2025-10-27T00:00	4580	569	-13.5	-14.8	323	25	
2025-10-27T00:00	4600	567	-13.7	-15.0	324	25	
2025-10-27T00:00	4620	566	-13.8	-15.3	324	25	
2025-10-27T00:00	4640	564	-13.9	-15.4	324	26	
2025-10-27T00:00	4660	563	-14.0	-15.5	323	26	
2025-10-27T00:00	4680	561	-14.1	-15.6	323	26	
2025-10-27T00:00	4700	560	-14.2	-15.9	323	26	
2025-10-27T00:00	4720	558	-14.4	-15.9	323	26	
2025-10-27T00:00	4740	557	-14.5	-16.0	323	26	
2025-10-27T00:00	4760	555	-14.6	-16.2	322	26	
2025-10-27T00:00	4780	554	-14.7	-16.4	322	25	
2025-10-27T00:00	4800	552	-14.9	-16.4	322	25	
2025-10-27T00:00	4820	551	-15.0	-16.6	322	24	
2025-10-27T00:00	4840	550	-15.1	-16.8	322	24	
2025-10-27T00:00	4860	548	-15.2	-17.0	323	24	
2025-10-27T00:00	4880	547	-15.4	-17.1	324	24	
2025-10-27T00:00	4900	545	-15.5	-17.3	324	24	
2025-10-27T00:00	4920	544	-15.7	-17.4	325	24	
2025-10-27T00:00	4940	542	-15.8	-17.4	325	24	
2025-10-27T00:00	4960	541	-16.0	-17.5	324	24	
2025-10-27T00:00	4980	540	-16.2	-17.4	324	24	
2025-10-27T00:00	5000	538	-16.4	-17.5	323	24	
2025-10-27T00:00	5020	537	-16.6	-17.7	323	24	
2025-10-27T00:00	5040	535	-16.7	-17.9	323	24	
2025-10-27T00:00	5060	534	-16.8	-18.1	323	24	
2025-10-27T00:00	5080	532	-17.0	-18.1	324	25	
2025-10-27T00:00	5100	531	-17.2	-18.1	324	25	
2025-10-27T00:00	5120	529	-17.3	-18.2	324	25	
2025-10-27T00:00	5140	528	-17.4	-18.4	324	25	
2025-10-27T00:00	5160	527	-17.6	-18.6	324	26	
2025-10-27T00:00	5180	525	-17.7	-19.0	324	26	
2025-10-27T00:00	5200	524	-17.8	-19.3	324	26	
2025-10-27T00:00	5220	522	-17.8	-19.5	324	26	
2025-10-27T00:00	5240	521	-17.9	-19.9	324	25	
2025-10-27T00:00	5260	520	-18.0	-20.1	324	25	
2025-10-27T00:00	5280	518	-18.2	-20.1	324	25	
2025-10-27T00:00	5300	517	-18.3	-20.5	324	26	
2025-10-27T00:00	5320	516	-18.4	-20.4	324	26	
2025-10-27T00:00	5340	514	-18.6	-20.4	324	26	
2025-10-27T00:00	5360	513	-18.7	-20.5	324	26	
2025-10-27T00:00	5380	511	-18.9	-20.5	324	27	
2025-10-27T00:00	5400	510	-19.0	-20.7	325	27	
2025-10-27T00:00	5420	509	-19.2	-21.0	325	27	
2025-10-27T00:00	5440	507	-19.3	-21.3	325	27	
2025-10-27T00:00	5460	506	-19.4	-21.4	326	27	
2025-10-27T00:00	5480	504	-19.6	-21.3	326	27	
2025-10-27T00:00	5500	503	-19.8	-21.3	326	27	
2025-10-27T00:00	5520	502	-20.0	-21.3	325	27	
2025-10-27T00:00	5540	500	-20.2	-21.4	325	27	
2025-10-27T00:00	5560	499	-20.3	-21.4	324	27	
2025-10-27T00:00	5580	498	-20.5	-21.5	324	27	
2025-10-27T00:00	5600	496	-20.6	-21.9	324	27	
2025-10-27T00:00	5620	495	-20.7	-22.2	323	27	
2025-10-27T00:00	5640	494	-20.9	-22.3	323	27	
2025-10-27T00:00	5660	492	-21.0	-22.5	323	27	
2025-10-27T00:00	5680	491	-21.2	-22.5	323	28	
2025-10-27T00:00	5700	490	-21.3	-22.9	323	28	
2025-10-27T00:00	5720	488	-21.4	-22.4	324	28	
2025-10-27T00:00	5740	487	-21.6	-22.4	324	29	
2025-10-27T00:00	5760	486	-21.8	-22.6	325	29	
2025-10-27T00:00	5780	484	-22.0	-22.7	325	29	
2025-10-27T00:00	5800	483	-22.1	-22.6	325	30	
2025-10-27T00:00	5820	482	-22.3	-22.6	324	30	
2025-10-27T00:00	5840	481	-22.5	-22.8	323	30	
2025-10-27T00:00	5860	479	-22.7	-22.9	323	30	
2025-10-27T00:00	5880	478	-22.9	-23.4	322	30	
2025-10-27T00:00	5900	477	-23.0	-23.8	321	30	
2025-10-27T00:00	5920	475	-23.1	-23.7	321	30	
2025-10-27T00:00	5940	474	-23.3	-23.4	320	30	
2025-10-27T00:00	5960	473	-23.5	-23.5	320	29	
2025-10-27T00:00	5980	471	-23.7	-23.7	320	29	
2025-10-27T00:00	6000	470	-23.9	-24.0	321	29	
2025-10-27T00:00	6020	469	-24.1	-24.1	321	29	
2025-10-27T00:00	6040	467	-24.3	-24.3	321	29	
2025-10-27T00:00	6060	466	-24.4	-24.4	322	29	
2025-10-27T00:00	6080	465	-24.6	-24.6	322	29	
2025-10-27T00:00	6100	464	-24.9	-24.9	322	28	
2025-10-27T00:00	6120	462	-25.0	-25.5	322	28	
2025-10-27T00:00	6140	461	-25.3	-26.1	322	27	
2025-10-27T00:00	6160	460	-25.5	-26.2	322	27	
2025-10-27T00:00	6180	459	-25.6	-26.3	322	27	
2025-10-27T00:00	6200	457	-25.8	-26.7	322	27	
2025-10-27T00:00	6220	456	-26.0	-26.9	322	27	
2025-10-27T00:00	6240	455	-26.2	-27.1	322	27	
2025-10-27T00:00	6260	454	-26.3	-27.0	322	28	
2025-10-27T00:00	6280	452	-26.5	-27.7	321	28	
2025-10-27T00:00	6300	451	-26.7	-27.8	320	28	
2025-10-27T00:00	6320	450	-26.8	-27.7	319	28	
2025-10-27T00:00	6340	449	-26.9	-28.1	318	28	
2025-10-27T00:00	6360	447	-27.1	-28.6	317	28	
2025-10-27T00:00	6380	446	-27.2	-28.7	317	28	
2025-10-27T00:00	6400	445	-27.3	-28.6	317	29	
2025-10-27T00:00	6420	444	-27.5	-28.9	317	29	
2025-10-27T00:00	6440	442	-27.6	-29.2	318	29	
2025-10-27T00:00	6460	441	-27.7	-30.0	320	29	
2025-10-27T00:00	6480	440	-27.8	-30.8	321	30	
2025-10-27T00:00	6500	439	-27.8	-32.0	322	30	
2025-10-27T00:00	6520	438	-27.9	-33.2	323	30	
2025-10-27T00:00	6540	436	-28.0	-34.6	324	30	
2025-10-27T00:00	6560	435	-28.2	-35.4	324	30	
2025-10-27T00:00	6580	434	-28.2	-35.5	324	30	
2025-10-27T00:00	6600	433	-28.4	-35.8	325	30	
2025-10-27T00:00	6620	431	-28.6	-36.0	325	29	
2025-10-27T00:00	6640	430	-28.8	-36.2	325	29	
2025-10-27T00:00	6660	429	-28.9	-36.6	325	29	
2025-10-27T00:00	6680	428	-29.1	-37.3	326	29	
2025-10-27T00:00	6700	427	-29.2	-37.7	326	30	
2025-10-27T00:00	6720	425	-29.3	-38.7	326	31	
2025-10-27T00:00	6740	424	-29.4	-39.5	326	32	
2025-10-27T00:00	6760	423	-29.6	-40.2	326	33	
2025-10-27T00:00	6780	422	-29.7	-40.5	326	34	
2025-10-27T00:00	6800	421	-29.8	-40.8	326	34	
2025-10-27T00:00	6820	419	-29.9	-41.8	326	35	
2025-10-27T00:00	6840	418	-30.0	-42.3	326	35	
2025-10-27T00:00	6860	417	-30.0	-42.5	326	35	
2025-10-27T00:00	6880	416	-30.0	-42.5	326	35	
2025-10-27T00:00	6900	415	-30.2	-42.8	326	35	
2025-10-27T00:00	6920	414	-30.3	-43.1	327	35	
2025-10-27T00:00	6940	413	-30.4	-43.0	327	35	
2025-10-27T00:00	6960	411	-30.5	-42.6	327	35	
2025-10-27T00:00	6980	410	-30.7	-43.1	327	36	
2025-10-27T00:00	7000	409	-30.9	-42.7	328	36	
2025-10-27T00:00	7020	408	-31.1	-42.5	328	36	
2025-10-27T00:00	7040	407	-31.4	-42.8	328	35	
2025-10-27T00:00	7060	406	-31.6	-43.3	329	35	
2025-10-27T00:00	7080	405	-31.7	-42.9	329	35	
2025-10-27T00:00	7100	403	-31.8	-42.9	329	35	
2025-10-27T00:00	7120	402	-32.1	-43.2	329	35	
2025-10-27T00:00	7140	401	-32.3	-43.2	330	35	
2025-10-27T00:00	7160	400	-32.4	-42.8	330	35	
2025-10-27T00:00	7180	399	-32.6	-42.3	330	35	
2025-10-27T00:00	7200	398	-32.8	-42.6	330	35	
2025-10-27T00:00	7220	397	-33.2	-42.8	329	34	
2025-10-27T00:00	7240	395	-33.3	-42.9	329	34	
2025-10-27T00:00	7260	394	-33.5	-43.0	329	34	
2025-10-27T00:00	7280	393	-33.7	-42.8	329	34	
2025-10-27T00:00	7300	392	-33.8	-42.9	329	35	
2025-10-27T00:00	7320	391	-34.0	-42.8	329	35	
2025-10-27T00:00	7340	390	-34.2	-42.8	329	35	
2025-10-27T00:00	7360	389	-34.4	-42.9	329	35	
2025-10-27T00:00	7380	387	-34.6	-43.1	329	35	
2025-10-27T00:00	7400	386	-34.8	-42.9	329	35	
2025-10-27T00:00	7420	385	-35.0	-43.1	329	35	
2025-10-27T00:00	7440	384	-35.1	-43.1	329	35	
2025-10-27T00:00	7460	383	-35.3	-42.9	329	34	
2025-10-27T00:00	7480	382	-35.5	-43.1	328	34	
2025-10-27T00:00	7500	381	-35.7	-43.1	328	34	
2025-10-27T00:00	7520	380	-35.9	-43.1	328	34	
2025-10-27T00:00	7540	379	-36.1	-43.2	328	33	
2025-10-27T00:00	7560	378	-36.2	-43.3	328	33	
2025-10-27T00:00	7580	377	-36.4	-43.0	329	33	
2025-10-27T00:00	7600	376	-36.6	-43.0	330	32	
2025-10-27T00:00	7620	374	-36.8	-42.9	331	32	
2025-10-27T00:00	7640	373	-37.0	-43.1	331	32	
2025-10-27T00:00	7660	372	-37.1	-43.2	332	32	
2025-10-27T00:00	7680	371	-37.4	-43.2	332	32	
2025-10-27T00:00	7700	370	-37.5	-43.2	332	32	
2025-10-27T00:00	7720	369	-37.7	-43.1	332	32	
2025-10-27T00:00	7740	368	-37.9	-43.0	332	32	
2025-10-27T00:00	7760	367	-38.1	-43.0	332	32	
2025-10-27T00:00	7780	366	-38.3	-43.1	332	33	
2025-10-27T00:00	7800	365	-38.4	-43.2	332	33	
2025-10-27T00:00	7820	364	-38.6	-43.2	332	33	
2025-10-27T00:00	7840	363	-38.8	-43.5	333	33	
2025-10-27T00:00	7860	361	-38.9	-43.6	334	33	
2025-10-27T00:00	7880	361	-39.0	-43.2	334	33	
2025-10-27T00:00	7900	360	-39.2	-43.2	335	34	
2025-10-27T00:00	7920	358	-39.3	-43.0	336	34	
2025-10-27T00:00	7940	357	-39.4	-43.3	336	35	
2025-10-27T00:00	7960	356	-39.6	-43.2	336	36	
2025-10-27T00:00	7980	355	-39.8	-43.3	335	37	
2025-10-27T00:00	8000	354	-39.8	-43.8	335	37	
2025-10-27T00:00	8020	353	-40.1	-43.7	334	37	
2025-10-27T00:00	8040	352	-40.2	-43.9	334	37	
2025-10-27T00:00	8060	351	-40.3	-44.1	333	37	
2025-10-27T00:00	8080	350	-40.5	-44.1	333	38	
2025-10-27T00:00	8100	349	-40.6	-44.4	333	38	
2025-10-27T00:00	8120	348	-40.8	-44.8	332	38	
2025-10-27T00:00	8140	347	-40.9	-45.1	332	39	
2025-10-27T00:00	8160	346	-41.1	-45.6	333	39	
2025-10-27T00:00	8180	345	-41.2	-46.0	333	40	
2025-10-27T00:00	8200	344	-41.4	-46.1	333	40	
2025-10-27T00:00	8220	343	-41.6	-46.7	333	40	
2025-10-27T00:00	8240	342	-41.7	-47.4	333	40	
2025-10-27T00:00	8260	341	-41.9	-47.9	333	40	
2025-10-27T00:00	8280	340	-42.0	-47.2	332	40	
2025-10-27T00:00	8300	339	-42.1	-47.1	332	41	
2025-10-27T00:00	8320	338	-42.3	-47.3	332	40	
2025-10-27T00:00	8340	337	-42.4	-47.7	332	40	
2025-10-27T00:00	8360	336	-42.6	-48.7	331	40	
2025-10-27T00:00	8380	335	-42.7	-49.7	331	40	
2025-10-27T00:00	8400	334	-42.9	-50.0	331	39	
2025-10-27T00:00	8420	333	-43.1	-49.8	331	39	
2025-10-27T00:00	8440	332	-43.2	-50.1	331	39	
2025-10-27T00:00	8460	331	-43.3	-50.8	331	39	
2025-10-27T00:00	8480	330	-43.4	-51.3	331	39	
2025-10-27T00:00	8500	329	-43.5	-51.3	331	39	
2025-10-27T00:00	8520	328	-43.7	-50.4	331	40	
2025-10-27T00:00	8540	327	-43.8	-50.5	330	40	
2025-10-27T00:00	8560	326	-44.0	-50.9	330	40	
2025-10-27T00:00	8580	325	-44.1	-49.9	329	40	
2025-10-27T00:00	8600	324	-44.2	-50.0	329	41	
2025-10-27T00:00	8620	323	-44.4	-51.8	328	41	
2025-10-27T00:00	8640	322	-44.4	-52.1	327	41	
2025-10-27T00:00	8660	321	-44.4	-51.7	327	42	
2025-10-27T00:00	8680	320	-44.4	-51.8	326	42	
2025-10-27T00:00	8700	319	-44.5	-52.0	326	42	
2025-10-27T00:00	8720	318	-44.6	-52.4	326	42	
2025-10-27T00:00	8740	317	-44.7	-52.7	326	42	
2025-10-27T00:00	8760	316	-44.9	-52.7	325	42	
2025-10-27T00:00	8780	316	-45.0	-52.8	325	42	
2025-10-27T00:00	8800	315	-45.2	-53.2	325	42	
2025-10-27T00:00	8820	314	-45.3	-53.2	325	42	
2025-10-27T00:00	8840	313	-45.4	-53.2	325	42	
2025-10-27T00:00	8860	312	-45.5	-52.8	326	41	
2025-10-27T00:00	8880	311	-45.6	-52.5	326	41	
2025-10-27T00:00	8900	310	-45.6	-53.2	327	41	
2025-10-27T00:00	8920	309	-45.7	-54.3	327	41	
2025-10-27T00:00	8940	308	-45.9	-54.7	327	41	
2025-10-27T00:00	8960	307	-46.1	-55.0	327	41	
2025-10-27T00:00	8980	306	-46.2	-55.2	327	41	
2025-10-27T00:00	9000	305	-46.4	-55.7	328	41	
2025-10-27T00:00	9020	304	-46.5	-56.2	328	41	
2025-10-27T00:00	9040	303	-46.6	-56.3	328	40	
2025-10-27T00:00	9060	303	-46.7	-56.3	328	40	
2025-10-27T00:00	9080	302	-46.8	-56.4	328	40	
2025-10-27T00:00	9100	301	-47.0	-56.5	329	40	
2025-10-27T00:00	9120	300	-47.1	-56.6	329	39	
2025-10-27T00:00	9140	299	-47.2	-56.7	330	39	
2025-10-27T00:00	9160	298	-47.3	-56.9	330	39	
2025-10-27T00:00	9180	297	-47.4	-57.0	330	40	
2025-10-27T00:00	9200	296	-47.6	-57.3	331	40	
2025-10-27T00:00	9220	295	-47.6	-57.5	331	40	
2025-10-27T00:00	9240	294	-47.7	-57.6	330	40	
2025-10-27T00:00	9260	294	-47.9	-57.8	330	41	
2025-10-27T00:00	9280	293	-48.0	-58.0	330	41	
2025-10-27T00:00	9300	292	-48.1	-58.1	330	41	
2025-10-27T00:00	9320	291	-48.2	-58.1	330	41	
2025-10-27T00:00	9340	290	-48.3	-58.0	330	41	
2025-10-27T00:00	9360	289	-48.5	-58.0	330	41	
2025-10-27T00:00	9380	288	-48.6	-58.0	330	41	
2025-10-27T00:00	9400	287	-48.8	-58.3	330	40	
2025-10-27T00:00	9420	286	-48.9	-58.4	330	40	
2025-10-27T00:00	9440	286	-49.0	-58.4	331	40	
2025-10-27T00:00	9460	285	-49.2	-58.4	331	40	
2025-10-27T00:00	9480	284	-49.4	-58.5	331	40	
2025-10-27T00:00	9500	283	-49.5	-58.7	331	40	
2025-10-27T00:00	9520	282	-49.6	-58.9	331	41	
2025-10-27T00:00	9540	281	-49.7	-59.2	332	41	
2025-10-27T00:00	9560	280	-49.7	-59.5	332	41	
2025-10-27T00:00	9580	280	-49.7	-59.7	332	41	
2025-10-27T00:00	9600	279	-49.9	-59.8	332	40	
2025-10-27T00:00	9620	278	-50.0	-59.8	332	40	
2025-10-27T00:00	9640	277	-50.1	-59.9	332	40	
2025-10-27T00:00	9660	276	-50.1	-60.3	333	39	
2025-10-27T00:00	9680	275	-50.0	-60.5	333	39	
2025-10-27T00:00	9700	275	-50.1	-60.7	333	39	
2025-10-27T00:00	9720	274	-50.3	-60.8	332	38	
2025-10-27T00:00	9740	273	-50.4	-60.8	332	38	
2025-10-27T00:00	9760	272	-50.6	-60.9	332	37	
2025-10-27T00:00	9780	271	-50.7	-61.1	332	37	
2025-10-27T00:00	9800	270	-50.9	-61.2	331	37	
2025-10-27T00:00	9820	269	-51.0	-61.3	331	36	
2025-10-27T00:00	9840	269	-51.1	-61.6	330	36	
2025-10-27T00:00	9860	268	-51.3	-61.8	330	35	
2025-10-27T00:00	9880	267	-51.4	-61.9	329	35	
2025-10-27T00:00	9900	266	-51.6	-61.8	329	35	
2025-10-27T00:00	9920	265	-51.8	-61.8	329	35	
2025-10-27T00:00	9940	264	-51.9	-61.9	328	35	
2025-10-27T00:00	9960	264	-52.1	-61.9	328	34	
2025-10-27T00:00	9980	263	-52.3	-61.9	327	34	
2025-10-27T00:00	10000	262	-52.5	-61.7	327	34	
2025-10-27T00:00	10018	261	-52.6	-61.6	326	33	
2025-10-27T00:00	10050	260	-52.9	-61.6	325	33	
2025-10-27T00:00	10100	258	-53.3	-61.6	325	33	
2025-10-27T00:00	10150	256	-53.7	-62.0	325	34	
2025-10-27T00:00	10200	254	-54.0	-62.7	326	35	
2025-10-27T00:00	10250	252	-53.8	-63.8	327	36	
2025-10-27T00:00	10300	250	-53.8	-63.4	328	36	
2025-10-27T00:00	10350	248	-53.7	-63.8	328	35	
2025-10-27T00:00	10400	246	-53.8	-64.7	329	33	
2025-10-27T00:00	10450	244	-53.6	-66.3	330	31	
2025-10-27T00:00	10500	242	-52.5	-68.2	329	28	
2025-10-27T00:00	10550	241	-52.0	-68.7	326	26	
2025-10-27T00:00	10600	239	-51.8	-68.4	323	24	
2025-10-27T00:00	10650	237	-51.8	-68.0	320	23	
2025-10-27T00:00	10700	235	-51.7	-68.5	317	22	
2025-10-27T00:00	10750	233	-51.7	-68.6	313	20	
2025-10-27T00:00	10800	232	-51.7	-69.1	310	19	
2025-10-27T00:00	10850	230	-51.9	-69.2	306	19	
2025-10-27T00:00	10900	228	-52.2	-69.4	303	20	
2025-10-27T00:00	10950	226	-52.4	-69.9	301	21	
2025-10-27T00:00	11000	224	-52.6	-69.7	301	21	
2025-10-27T00:00	11050	223	-52.9	-69.9	301	21	
2025-10-27T00:00	11100	221	-53.3	-70.2	299	22	
2025-10-27T00:00	11150	219	-53.7	-70.0	297	22	
2025-10-27T00:00	11200	218	-54.1	-69.7	294	22	
2025-10-27T00:00	11250	216	-54.4	-70.0	291	22	
2025-10-27T00:00	11300	214	-54.8	-70.1	290	23	
2025-10-27T00:00	11350	213	-55.0	-70.1	291	24	
2025-10-27T00:00	11400	211	-55.3	-70.3	291	25	
2025-10-27T00:00	11450	209	-55.6	-70.5	292	26	
2025-10-27T00:00	11500	208	-55.8	-70.5	293	28	
2025-10-27T00:00	11550	206	-56.0	-71.0	294	29	
2025-10-27T00:00	11600	204	-56.2	-71.4	295	30	
2025-10-27T00:00	11650	203	-56.5	-71.8	296	31	
2025-10-27T00:00	11700	201	-56.7	-71.9	297	32	
2025-10-27T00:00	11750	200	-56.9	-72.2	298	32	
2025-10-27T00:00	11800	198	-57.2	-72.3	299	33	
2025-10-27T00:00	11850	196	-57.5	-72.5	300	34	
2025-10-27T00:00	11900	195	-57.6	-72.9	301	35	
2025-10-27T00:00	11950	193	-57.8	-73.3	302	36	
2025-10-27T00:00	12000	192	-57.9	-73.7	303	36	
2025-10-27T00:00	12050	190	-58.1	-74.7	304	35	
2025-10-27T00:00	12100	189	-57.9	-75.3	306	34	
2025-10-27T00:00	12150	187	-57.9	-75.7	307	33	
2025-10-27T00:00	12200	186	-57.9	-76.0	308	32	
2025-10-27T00:00	12250	184	-57.9	-76.2	307	30	
2025-10-27T00:00	12300	183	-58.0	-76.6	306	28	
2025-10-27T00:00	12350	181	-58.0	-77.0	304	27	
2025-10-27T00:00	12400	180	-58.2	-77.1	301	26	
2025-10-27T00:00	12450	179	-58.4	-77.4	297	26	
2025-10-27T00:00	12500	177	-58.5	-77.7	294	26	
2025-10-27T00:00	12550	176	-58.6	-77.7	293	27	
2025-10-27T00:00	12600	174	-58.3	-77.7	293	28	
2025-10-27T00:00	12650	173	-58.4	-78.0	295	28	
2025-10-27T00:00	12700	172	-57.9	-78.1	297	28	
2025-10-27T00:00	12750	170	-57.4	-78.1	298	26	
2025-10-27T00:00	12800	169	-57.2	-77.8	299	25	
2025-10-27T00:00	12850	168	-57.2	-78.3	298	24	
2025-10-27T00:00	12900	166	-57.4	-78.7	296	23	
2025-10-27T00:00	12950	165	-57.4	-78.5	295	23	
2025-10-27T00:00	13000	164	-57.8	-78.4	291	24	
2025-10-27T00:00	13050	162	-58.2	-78.5	287	24	
2025-10-27T00:00	13100	161	-58.5	-78.9	285	24	
2025-10-27T00:00	13150	160	-58.6	-79.3	286	25	
2025-10-27T00:00	13200	159	-58.8	-79.6	289	25	
2025-10-27T00:00	13250	157	-58.8	-79.6	293	26	
2025-10-27T00:00	13300	156	-58.7	-79.8	296	27	
2025-10-27T00:00	13350	155	-58.6	-80.0	299	27	
2025-10-27T00:00	13400	154	-58.4	-80.1	301	26	
2025-10-27T00:00	13450	152	-58.3	-80.4	301	25	
2025-10-27T00:00	13500	151	-58.0	-80.0	299	24	
2025-10-27T00:00	13550	150	-58.2	-80.0	296	24	
2025-10-27T00:00	13600	149	-58.6	-80.7	293	24	
2025-10-27T00:00	13650	148	-58.8	-81.1	290	25	
2025-10-27T00:00	13700	146	-58.6	-80.9	289	26	
2025-10-27T00:00	13750	145	-58.2	-81.0	290	26	
2025-10-27T00:00	13800	144	-57.8	-80.9	292	25	
2025-10-27T00:00	13850	143	-57.6	-80.9	292	24	
2025-10-27T00:00	13900	142	-57.5	-80.8	291	24	
2025-10-27T00:00	13950	141	-57.3	-80.7	291	24	
2025-10-27T00:00	14000	140	-57.4	-80.9	290	24	
2025-10-27T00:00	14050	139	-57.3	-80.9	289	23	
2025-10-27T00:00	14100	137	-57.5	-81.0	289	22	
2025-10-27T00:00	14150	136	-57.6	-80.9	289	22	
2025-10-27T00:00	14200	135	-57.7	-81.0	289	23	
2025-10-27T00:00	14250	134	-57.8	-81.1	289	23	
2025-10-27T00:00	14300	133	-57.8	-81.1	289	23	
2025-10-27T00:00	14350	132	-57.8	-81.2	288	23	
2025-10-27T00:00	14400	131	-58.1	-81.3	287	23	
2025-10-27T00:00	14450	130	-58.4	-81.4	286	23	
2025-10-27T00:00	14500	129	-58.5	-81.5	284	24	
2025-10-27T00:00	14550	128	-58.8	-81.7	282	25	
2025-10-27T00:00	14600	127	-58.9	-81.7	281	26	
2025-10-27T00:00	14650	126	-59.0	-81.8	282	27	
2025-10-27T00:00	14700	125	-59.0	-81.8	284	28	
2025-10-27T00:00	14750	124	-59.0	-82.0	285	28	
2025-10-27T00:00	14800	123	-58.3	-81.9	286	27	
2025-10-27T00:00	14850	122	-57.9	-81.9	287	26	
2025-10-27T00:00	14900	121	-57.8	-81.9	286	25	
2025-10-27T00:00	14950	120	-57.9	-81.9	286	25	
2025-10-27T00:00	15000	119	-58.3	-82.0	286	25	
2025-10-27T00:00	15050	118	-58.5	-82.2	286	26	
2025-10-27T00:00	15100	117	-58.5	-82.3	288	27	
2025-10-27T00:00	15150	116	-58.4	-82.2	289	26	
2025-10-27T00:00	15200	115	-58.5	-82.3	288	26	
2025-10-27T00:00	15250	114	-58.4	-82.4	286	26	
2025-10-27T00:00	15300	114	-58.4	-82.4	285	26	
2025-10-27T00:00	15350	113	-58.6	-82.5	285	27	
2025-10-27T00:00	15400	112	-58.7	-82.6	287	27	
2025-10-27T00:00	15450	111	-58.8	-82.8	288	27	
2025-10-27T00:00	15500	110	-58.4	-82.8	290	26	
2025-10-27T00:00	15550	109	-58.2	-83.0	290	26	
2025-10-27T00:00	15600	108	-58.1	-82.9	288	25	
2025-10-27T00:00	15650	107	-58.4	-83.0	285	25	
2025-10-27T00:00	15700	107	-58.7	-83.0	282	26	
2025-10-27T00:00	15750	106	-58.9	-83.1	280	26	
2025-10-27T00:00	15800	105	-58.9	-83.1	279	27	
2025-10-27T00:00	15850	104	-58.9	-83.1	280	27	
2025-10-27T00:00	15900	103	-59.0	-83.1	280	28	
2025-10-27T00:00	15950	102	-58.8	-83.2	280	28	
2025-10-27T00:00	16000	102	-58.6	-83.3	282	27	
2025-10-27T00:00	16050	101	-58.4	-83.4	286	27	
2025-10-27T00:00	16100	100	-58.4	-83.4	289	26	
2025-10-27T00:00	16150	99	-58.1	-83.3	292	23	
2025-10-27T00:00	16200	98	-57.3	-83.2	292	22	
2025-10-27T00:00	16250	98	-56.7	-83.1	290	21	
2025-10-27T00:00	16300	97	-56.6	-82.9	287	21	
2025-10-27T00:00	16350	96	-56.6	-83.0	288	20	
2025-10-27T00:00	16400	95	-56.2	-82.9	287	18	
2025-10-27T00:00	16450	95	-55.8	-82.7	283	16	
2025-10-27T00:00	16500	94	-55.6	-82.1	278	14	
2025-10-27T00:00	16550	93	-55.5	-81.6	272	13	
2025-10-27T00:00	16600	92	-55.7	-81.7	266	13	
2025-10-27T00:00	16650	92	-56.0	-81.8	260	12	
2025-10-27T00:00	16700	91	-56.3	-82.1	255	13	
2025-10-27T00:00	16750	90	-56.8	-82.6	251	13	
2025-10-27T00:00	16800	90	-57.1	-83.0	248	14	
2025-10-27T00:00	16850	89	-57.5	-83.0	244	14	
2025-10-27T00:00	16900	88	-57.9	-82.9	242	15	
2025-10-27T00:00	16950	87	-58.2	-83.0	242	16	
2025-10-27T00:00	17000	87	-58.7	-83.5	243	17	
2025-10-27T00:00	17050	86	-59.0	-83.9	244	17	
2025-10-27T00:00	17100	85	-59.4	-84.2	247	18	
2025-10-27T00:00	17150	85	-59.7	-84.3	250	18	
2025-10-27T00:00	17200	84	-60.0	-84.4	252	18	
2025-10-27T00:00	17250	83	-60.3	-84.6	255	19	
2025-10-27T00:00	17300	83	-60.3	-84.7	257	19	
2025-10-27T00:00	17350	82	-60.0	-84.6	260	18	
2025-10-27T00:00	17400	81	-60.3	-84.7	264	18	
2025-10-27T00:00	17450	81	-60.5	-84.8	268	18	
2025-10-27T00:00	17500	80	-60.5	-84.8	272	18	
2025-10-27T00:00	17550	79	-60.7	-84.8	277	18	
2025-10-27T00:00	17600	79	-60.9	-85.0	282	18	
2025-10-27T00:00	17650	78	-60.8	-85.1	284	18	
2025-10-27T00:00	17700	78	-60.6	-85.1	284	18	
2025-10-27T00:00	17750	77	-60.7	-85.3	282	18	
2025-10-27T00:00	17800	76	-60.7	-85.2	279	18	
2025-10-27T00:00	17850	76	-60.8	-85.3	277	19	
2025-10-27T00:00	17900	75	-60.9	-85.3	277	20	
2025-10-27T00:00	17950	74	-61.1	-85.3	277	21	
2025-10-27T00:00	18000	74	-61.4	-85.5	279	21	
2025-10-27T00:00	18050	73	-61.7	-85.6	281	20	
2025-10-27T00:00	18100	73	-61.9	-85.7	282	19	
2025-10-27T00:00	18150	72	-62.0	-85.8	284	19	
2025-10-27T00:00	18200	72	-62.1	-85.8	285	18	
2025-10-27T00:00	18250	71	-62.1	-85.8	286	18	
2025-10-27T00:00	18300	70	-62.5	-85.9	286	19	
2025-10-27T00:00	18350	70	-62.9	-86.0	286	19	
2025-10-27T00:00	18400	69	-63.0	-86.1	286	18	
2025-10-27T00:00	18450	69	-63.2	-86.2	287	17	
2025-10-27T00:00	18500	68	-63.5	-86.3	289	17	
2025-10-27T00:00	18550	68	-63.9	-86.6	289	17	
2025-10-27T00:00	18600	67	-63.8	-86.6	286	19	
2025-10-27T00:00	18650	66	-63.8	-86.6	283	20	
2025-10-27T00:00	18700	66	-63.7	-86.7	282	21	
2025-10-27T00:00	18750	65	-63.2	-86.5	281	22	
2025-10-27T00:00	18800	65	-63.0	-86.5	282	21	
2025-10-27T00:00	18850	64	-62.8	-86.4	283	20	
2025-10-27T00:00	18900	64	-62.9	-86.4	282	20	
2025-10-27T00:00	18950	63	-62.7	-86.4	280	20	
2025-10-27T00:00	19000	63	-62.6	-86.6	276	20	
2025-10-27T00:00	19050	62	-62.5	-86.8	274	19	
2025-10-27T00:00	19100	62	-62.1	-86.7	274	19	
2025-10-27T00:00	19150	61	-62.0	-86.6	274	19	
2025-10-27T00:00	19200	61	-61.9	-86.5	271	20	
2025-10-27T00:00	19250	60	-62.0	-86.4	268	21	
2025-10-27T00:00	19300	60	-62.3	-86.4	266	21	
2025-10-27T00:00	19350	59	-62.7	-86.6	266	22	
2025-10-27T00:00	19400	59	-63.1	-86.9	267	22	
2025-10-27T00:00	19450	58	-62.8	-86.9	271	21	
2025-10-27T00:00	19500	58	-62.3	-86.7	275	21	
2025-10-27T00:00	19550	57	-62.4	-86.7	278	20	
2025-10-27T00:00	19600	57	-62.6	-86.7	277	19	
2025-10-27T00:00	19650	57	-62.1	-86.6	275	19	
2025-10-27T00:00	19700	56	-61.3	-86.4	271	20	
2025-10-27T00:00	19750	56	-60.5	-86.2	269	21	
2025-10-27T00:00	19800	55	-60.5	-86.1	267	22	
2025-10-27T00:00	19850	55	-60.7	-86.1	267	23	
2025-10-27T00:00	19900	54	-60.9	-86.1	266	24	
2025-10-27T00:00	19950	54	-61.3	-86.1	267	25	
2025-10-27T00:00	20000	53	-61.5	-86.1	268	26	
2025-10-27T00:00	20050	53	-61.5		272	25	
2025-10-27T00:00	20100	53	-61.0		275	24	
2025-10-27T00:00	20150	52	-60.5		278	21	
2025-10-27T00:00	20200	52	-60.6		281	19	
2025-10-27T00:00	20250	51	-60.7		285	18	
2025-10-27T00:00	20300	51	-61.0		288	16	
2025-10-27T00:00	20350	50	-61.3		292	15	
2025-10-27T00:00	20400	50	-61.6		295	14	
2025-10-27T00:00	20450	50	-61.8		297	13	
2025-10-27T00:00	20500	49	-61.9		297	13	
2025-10-27T00:00	20550	49	-61.7		296	14	
2025-10-27T00:00	20600	48	-62.0		294	15	
2025-10-27T00:00	20650	48	-62.2		292	17	
2025-10-27T00:00	20700	48	-62.3		290	19	
2025-10-27T00:00	20750	47	-62.4		288	21	
2025-10-27T00:00	20800	47	-62.6		288	22	
2025-10-27T00:00	20850	47	-62.3		290	22	
2025-10-27T00:00	20900	46	-61.2		293	21	
2025-10-27T00:00	20950	46	-61.1		294	19	
2025-10-27T00:00	21000	45	-61.1		296	18	
2025-10-27T00:00	21050	45	-61.1		293	15	
2025-10-27T00:00	21100	45	-60.6		284	12	
2025-10-27T00:00	21150	44	-60.2		271	10	
2025-10-27T00:00	21200	44	-59.9		256	10	
2025-10-27T00:00	21250	44	-59.1		244	10	
2025-10-27T00:00	21300	43	-59.1		234	11	
2025-10-27T00:00	21350	43	-59.5		226	12	
2025-10-27T00:00	21400	43	-59.6		222	13	
2025-10-27T00:00	21450	42	-59.6		223	13	
2025-10-27T00:00	21500	42	-59.8		227	13	
2025-10-27T00:00	21550	42	-59.7		234	13	
2025-10-27T00:00	21600	41	-60.0		240	13	
2025-10-27T00:00	21650	41	-60.3		245	12	
2025-10-27T00:00	21700	41	-60.6		251	12	
2025-10-27T00:00	21750	40	-61.0		256	12	
2025-10-27T00:00	21800	40	-61.2		261	12	
2025-10-27T00:00	21850	40	-61.5		265	13	
2025-10-27T00:00	21900	39	-61.8		268	14	
2025-10-27T00:00	21950	39	-62.1		269	14	
2025-10-27T00:00	22000	39	-62.2		271	14	
2025-10-27T00:00	22050	38	-62.4		273	14	
2025-10-27T00:00	22100	38	-62.5		277	14	
2025-10-27T00:00	22150	38	-62.8		280	15	
2025-10-27T00:00	22200	37	-63.0		282	15	
2025-10-27T00:00	22250	37	-63.2		284	15	
2025-10-27T00:00	22300	37	-63.1		286	15	
2025-10-27T00:00	22350	37	-63.1		287	15	
2025-10-27T00:00	22400	36	-63.2		288	15	
2025-10-27T00:00	22450	36	-63.3		289	15	
2025-10-27T00:00	22500	36	-63.3		290	15	
2025-10-27T00:00	22550	35	-63.3		291	15	
2025-10-27T00:00	22600	35	-63.3		292	14	
2025-10-27T00:00	22650	35	-63.3		292	14	
2025-10-27T00:00	22700	35	-63.2		290	13	
2025-10-27T00:00	22750	34	-63.2		287	13	
2025-10-27T00:00	22800	34	-63.5		282	13	
2025-10-27T00:00	22850	34	-63.8		278	13	
2025-10-27T00:00	22900	33	-63.9		275	14	
2025-10-27T00:00	22950	33	-63.9		275	15	
2025-10-27T00:00	23000	33	-64.0		275	15	
2025-10-27T00:00	23050	33	-64.1		276	16	
2025-10-27T00:00	23100	32	-63.9		275	17	
2025-10-27T00:00	23150	32	-63.7		271	18	
2025-10-27T00:00	23200	32	-63.1		266	20	
2025-10-27T00:00	23250	32	-63.2		262	21	
2025-10-27T00:00	23300	31	-63.0		260	23	
2025-10-27T00:00	23350	31	-63.0		260	24	
2025-10-27T00:00	23400	31	-62.7		262	25	
2025-10-27T00:00	23450	31	-60.9		265	24	
2025-10-27T00:00	23500	30	-60.9		270	23	
2025-10-27T00:00	23550	30	-61.1		275	22	
2025-10-27T00:00	23600	30	-61.1		277	22	
2025-10-27T00:00	23650	30	-60.5		275	23	
2025-10-27T00:00	23700	29	-59.7		271	23	
2025-10-27T00:00	23750	29	-59.5		269	24	
2025-10-27T00:00	23800	29	-59.6		269	24	
2025-10-27T00:00	23850	29	-59.1		271	24	
2025-10-27T00:00	23900	28	-59.0		274	23	
2025-10-27T00:00	23950	28	-59.1		278	22	
2025-10-27T00:00	24000	28	-58.9		280	21	
2025-10-27T00:00	24050	28	-59.2		282	20	
2025-10-27T00:00	24100	28	-59.0		280	20	
2025-10-27T00:00	24150	27	-58.7		278	20	
2025-10-27T00:00	24200	27	-58.7		276	20	
2025-10-27T00:00	24250	27	-58.8		276	20	
2025-10-27T00:00	24300	27	-59.2		276	19	
2025-10-27T00:00	24350	26	-59.6		275	18	
2025-10-27T00:00	24400	26	-59.3		274	17	
2025-10-27T00:00	24450	26	-59.5		274	16	
2025-10-27T00:00	24500	26	-59.6		276	15	
2025-10-27T00:00	24550	26	-59.2		275	15	
2025-10-27T00:00	24600	25	-59.0		271	16	
2025-10-27T00:00	24650	25	-59.0		266	16	
2025-10-27T00:00	24700	25	-59.1		262	17	
2025-10-27T00:00	24750	25	-59.0		260	17	
2025-10-27T00:00	24800	25	-59.3		260	18	
2025-10-27T00:00	24850	24	-59.7		260	18	
2025-10-27T00:00	24900	24	-59.8		259	17	
2025-10-27T00:00	24950	24	-60.1		259	17	
2025-10-27T00:00	25000	24	-60.5		260	16	
2025-10-27T00:00	25050	24	-60.5		260	16	
2025-10-27T00:00	25100	23	-60.6		262	16	
2025-10-27T00:00	25150	23	-60.9		264	17	
2025-10-27T00:00	25200	23	-61.3		265	17	
2025-10-27T00:00	25250	23	-61.6		266	18	
2025-10-27T00:00	25300	23	-61.3		266	17	
2025-10-27T00:00	25350	23	-61.4		264	17	
2025-10-27T00:00	25400	22	-61.5		263	17	
2025-10-27T00:00	25450	22	-61.7		262	19	
2025-10-27T00:00	25500	22	-61.3		262	20	
2025-10-27T00:00	25550	22	-61.3		262	22	
2025-10-27T00:00	25600	22	-61.5		262	23	
2025-10-27T00:00	25650	21	-61.8		262	25	
2025-10-27T00:00	25700	21	-61.9		262	26	
2025-10-27T00:00	25750	21	-61.8		263	28	
2025-10-27T00:00	25800	21	-61.4		265	29	
2025-10-27T00:00	25850	21	-61.1		266	29	
2025-10-27T00:00	25900	21	-61.0		267	30	
2025-10-27T00:00	25950	20	-60.8		268	30	
2025-10-27T00:00	26000	20	-60.1		269	30	
2025-10-27T00:00	26050	20	-60.2		269	30	
2025-10-27T00:00	26100	20	-60.1		268	30	
2025-10-27T00:00	26150	20	-59.9		266	29	
2025-10-27T00:00	26200	20	-59.6		265	29	
2025-10-27T00:00	26250	20	-58.6		266	30	
2025-10-27T00:00	26300	19	-58.3		268	31	
2025-10-27T00:00	26350	19	-58.4		269	31	
2025-10-27T00:00	26400	19	-58.4		271	31	
2025-10-27T00:00	26450	19	-58.5		273	31	
2025-10-27T00:00	26500	19	-58.7		274	31	
2025-10-27T00:00	26550	19	-58.7		275	30	
2025-10-27T00:00	26600	18	-59.0		277	29	
2025-10-27T00:00	26650	18	-59.1		277	28	
2025-10-27T00:00	26700	18	-58.9		277	27	
2025-10-27T00:00	26750	18	-58.6		276	27	
2025-10-27T00:00	26800	18	-58.4		275	26	
2025-10-27T00:00	26850	18	-58.2		274	26	
2025-10-27T00:00	26900	18	-57.7		272	26	
2025-10-27T00:00	26950	17	-57.0		269	27	
2025-10-27T00:00	27000	17	-56.8		266	28	
2025-10-27T00:00	27050	17	-56.9		264	30	
2025-10-27T00:00	27100	17	-56.7		263	31	
2025-10-27T00:00	27150	17	-56.4		263	32	
2025-10-27T00:00	27200	17	-56.4		262	32	
2025-10-27T00:00	27250	17	-56.6		261	32	
2025-10-27T00:00	27300	17	-56.8		260	33	
2025-10-27T00:00	27350	16	-57.1		260	33	
2025-10-27T00:00	27400	16	-57.1		259	33	
2025-10-27T00:00	27450	16	-57.2		260	34	
2025-10-27T00:00	27500	16	-57.2		262	34	
2025-10-27T00:00	27550	16	-57.0		264	34	
2025-10-27T00:00	27600	16	-57.0		265	34	
2025-10-27T00:00	27650	16	-57.2		267	34	
2025-10-27T00:00	27700	16	-57.2		268	34	
2025-10-27T00:00	27750	15	-57.1		269	34	
2025-10-27T00:00	27800	15	-56.9		270	33	
2025-10-27T00:00	27850	15	-56.6		270	33	
2025-10-27T00:00	27900	15	-56.5		272	32	
2025-10-27T00:00	27950	15	-56.4		273	32	
2025-10-27T00:00	28000	15	-56.5		273	32	
2025-10-27T00:00	28050	15	-56.3		272	32	
2025-10-27T00:00	28100	15	-55.9		270	32	
2025-10-27T00:00	28150	14	-56.0		269	33	
2025-10-27T00:00	28200	14	-56.1		267	33	
2025-10-27T00:00	28250	14	-56.3		267	33	
2025-10-27T00:00	28300	14	-56.1		268	33	
2025-10-27T00:00	28350	14	-56.0		268	33	
2025-10-27T00:00	28400	14	-56.1		267	33	
2025-10-27T00:00	28450	14	-56.0		265	33	
2025-10-27T00:00	28500	14	-55.8		264	34	
2025-10-27T00:00	28550	14	-55.8		264	35	
2025-10-27T00:00	28600	13	-55.8		265	36	
2025-10-27T00:00	28650	13	-55.7		265	37	
2025-10-27T00:00	28700	13	-55.6		266	38	
2025-10-27T00:00	28750	13	-55.4		268	38	
2025-10-27T00:00	28800	13	-55.4		269	38	
2025-10-27T00:00	28850	13	-54.7		269	38	
2025-10-27T00:00	28900	13	-55.0		270	38	
2025-10-27T00:00	28950	13	-55.4		270	37	
2025-10-27T00:00	29000	13	-55.8		270	37	
2025-10-27T00:00	29050	13	-56.2		269	36	
2025-10-27T00:00	29100	12	-56.5		268	36	
2025-10-27T00:00	29150	12	-56.6		267	37	
2025-10-27T00:00	29200	12	-56.3		266	38	
2025-10-27T00:00	29250	12	-55.9		266	38	
2025-10-27T00:00	29300	12	-55.6		266	38	
2025-10-27T00:00	29350	12	-55.4		267	38	
2025-10-27T00:00	29400	12	-55.3		268	36	
2025-10-27T00:00	29450	12	-55.1		269	35	
2025-10-27T00:00	29500	12	-55.2		269	34	
2025-10-27T00:00	29550	12	-55.3		267	33	
2025-10-27T00:00	29600	11	-55.2		264	33	
2025-10-27T00:00	29650	11	-55.0		261	34	
2025-10-27T00:00	29700	11	-54.6		259	34	
2025-10-27T00:00	29750	11	-54.1		259	34	
2025-10-27T00:00	29800	11	-53.9		260	34	
2025-10-27T00:00	29850	11	-53.4		260	35	
2025-10-27T00:00	29900	11	-53.1		259	37	
2025-10-27T00:00	29950	11	-53.1		259	38	
2025-10-27T00:00	30000	11	-51.9		260	38	
2025-10-27T00:00	30050	11	-51.9		261	37	
2025-10-27T00:00	30100	11	-52.3		261	38	
2025-10-27T00:00	30150	11	-52.5		261	39	
2025-10-27T00:00	30200	10	-52.4		261	40	
2025-10-27T00:00	30250	10	-52.5		260	41	
2025-10-27T00:00	30300	10	-52.7		260	42	
2025-10-27T00:00	30350	10	-53.0		260	43	
2025-10-27T00:00	30400	10	-53.0		261	43	
2025-10-27T00:00	30450	10	-52.9		261	42	
2025-10-27T00:00	30500	10	-52.9		262	42	
2025-10-27T00:00	30550	10	-52.7		262	41	
2025-10-27T00:00	30600	10	-52.8		261	41	
2025-10-27T00:00	30650	10	-52.6		260	41	
2025-10-27T00:00	30700	10	-52.7		260	41	
2025-10-27T00:00	30750	10	-52.9		259	41	
2025-10-27T00:00	30800	10	-52.9		258	42	
2025-10-27T00:00	30850	9	-53.2		258	42	
2025-10-27T00:00	30900	9	-53.4		257	42	
2025-10-27T00:00	30950	9	-53.6		257	43	
2025-10-27T00:00	31000	9	-53.4		257	44	
2025-10-27T00:00	31050	9	-52.9		257	45	
2025-10-27T00:00	31100	9	-52.5		256	45	
2025-10-27T00:00	31150	9	-52.3		256	46	
2025-10-27T00:00	31200	9	-52.3		256	46	
2025-10-27T00:00	31250	9	-51.9		257	47	
2025-10-27T00:00	31300	9	-51.7		257	47	
2025-10-27T00:00	31350	9	-51.2		258	48	
2025-10-27T00:00	31400	9	-50.9		258	48	
2025-10-27T00:00	31450	9	-51.0		258	49	
2025-10-27T00:00	31500	9	-50.8		258	49	
2025-10-27T00:00	31550	9	-50.9		258	49	
2025-10-27T00:00	31600	8	-50.7		259	50	
2025-10-27T00:00	31650	8	-49.9		261	50	
2025-10-27T00:00	31700	8	-49.7		261	50	
2025-10-27T00:00	31750	8	-49.2		260	51	
2025-10-27T00:00	31800	8	-47.6		258	52	
2025-10-27T00:00	31850	8	-46.9		256	53	
2025-10-27T00:00	31900	8	-46.9		256	53	
2025-10-27T00:00	31950	8	-46.7		258	54	
2025-10-27T00:00	32000	8	-45.9		261	54	
2025-10-27T00:00	32050	8	-45.2		262	53	
2025-10-27T00:00	32100	8	-44.4		262	53	
2025-10-27T00:00	32150	8	-44.1		261	53	
2025-10-27T00:00	32200	8	-43.7		261	53	
2025-10-27T00:00	32250	8	-43.7		261	53	
2025-10-27T00:00	32300	8	-43.5		261	54	
2025-10-27T00:00	32350	8	-43.8		260	54	
2025-10-27T00:00	32400	7	-44.1		259	54	
2025-10-27T00:00	32450	7	-44.1		259	54	
2025-10-27T00:00	32500	7	-43.9		260	55	
2025-10-27T00:00	32550	7	-43.6		261	55	
2025-10-27T00:00	32600	7	-43.7		262	56	
2025-10-27T00:00	32650	7	-43.9		262	56	
2025-10-27T00:00	32700	7	-44.2		263	56	
2025-10-27T00:00	32750	7	-44.5		263	57	
2025-10-27T00:00	32800	7	-44.9		263	57	
2025-10-27T00:00	32850	7	-45.3		264	57	
2025-10-27T00:00	32900	7	-45.7		264	57	
2025-10-27T00:00	32950	7	-46.1		264	58	
2025-10-27T00:00	33000	7	-46.5		264	58	
2025-10-27T00:00	33050	7	-46.9		265	58	
2025-10-27T00:00	33100	7	-47.1		265	59	
2025-10-27T00:00	33150	7	-47.0		265	59	
2025-10-27T00:00	33200	7	-46.7		265	58	
2025-10-27T00:00	33250	7	-46.8		266	58	
2025-10-27T00:00	33300	7	-46.9		266	57	
2025-10-27T00:00	33350	6	-46.6		267	56	
2025-10-27T00:00	33400	6	-46.4		266	55	
2025-10-27T00:00	33450	6	-46.6		266	54	
2025-10-27T00:00	33500	6	-46.7		265	53	
2025-10-27T00:00	33550	6	-46.7		264	52	
2025-10-27T00:00	33600	6	-46.7		262	53	
2025-10-27T00:00	33650	6	-46.1		261	53	
2025-10-27T00:00	33700	6	-45.9		260	52	
2025-10-27T00:00	33750	6	-45.4		258	51	
2025-10-27T00:00	33800	6	-44.4		257	52	
2025-10-27T00:00	33850	6	-43.5		258	54	
2025-10-27T00:00	33900	6	-42.5		260	55	
2025-10-27T00:00	33950	6	-41.8		260	57	
2025-10-27T00:00	34000	6	-41.3		259	57	
2025-10-27T00:00	34050	6	-41.1		259	57	
2025-10-27T00:00	34100	6	-41.0		260	57	
2025-10-27T00:00	34150	6	-40.7		261	58	
2025-10-27T00:00	34200	6	-40.7		263	58	
2025-10-27T00:00	34250	6	-40.9		264	58	
2025-10-27T00:00	34300	6	-41.1		266	58	
2025-10-27T00:00	34350	6	-41.3		267	58	
2025-10-27T00:00	34400	6	-41.5		268	58	
2025-10-27T00:00	34450	6	-41.9		269	58	
2025-10-27T00:00	34500	5	-42.2		270	57	
2025-10-27T00:00	34550	5	-42.7		270	57	
2025-10-27T00:00	34600	5	-42.8		271	57	
2025-10-27T00:00	34650	5	-42.7		271	56	
2025-10-27T00:00	34700	5	-42.8		271	56	
2025-10-27T00:00	34750	5	-43.0		271	56	
2025-10-27T00:00	34800	5	-43.2		271	56	
2025-10-27T00:00	34850	5	-43.4		271	57	
2025-10-27T00:00	34900	5	-43.5		270	57	
2025-10-27T12:00	491	955	7.5	5.3	203	6	2.8
2025-10-27T12:00	501	954	7.4	5.2	231	5	2.9
2025-10-27T12:00	520	952	7.2	4.9	231	7	2.9
2025-10-27T12:00	540	949	7.1	4.6	230	8	2.9
2025-10-27T12:00	560	947	6.9	4.7	229	9	2.9
2025-10-27T12:00	580	945	6.7	4.6	228	10	2.9
2025-10-27T12:00	600	942	6.5	4.5	226	11	2.9
2025-10-27T12:00	620	940	6.3	4.6	225	11	2.9
2025-10-27T12:00	640	938	6.1	4.5	223	12	3.0
2025-10-27T12:00	660	935	5.9	4.3	222	13	3.0
2025-10-27T12:00	680	933	5.7	4.2	221	14	3.0
2025-10-27T12:00	700	931	5.7	4.1	220	15	3.0
2025-10-27T12:00	720	929	5.5	4.1	220	16	3.0
2025-10-27T12:00	740	926	5.4	3.8	220	17	3.0
2025-10-27T12:00	760	924	5.2	3.7	219	18	3.0
2025-10-27T12:00	780	922	5.1	3.5	219	19	3.0
2025-10-27T12:00	800	919	5.0	3.3	219	20	3.0
2025-10-27T12:00	820	917	4.9	3.1	218	21	3.1
2025-10-27T12:00	840	915	4.9	2.8	218	21	3.1
2025-10-27T12:00	860	913	4.8	2.7	218	21	3.1
2025-10-27T12:00	880	911	4.7	2.6	219	22	3.1
2025-10-27T12:00	900	908	4.5	2.7	219	22	3.1
2025-10-27T12:00	920	906	4.3	2.6	220	22	3.1
2025-10-27T12:00	940	904	4.1	2.6	221	22	3.1
2025-10-27T12:00	960	902	3.9	2.5	222	23	3.2
2025-10-27T12:00	980	899	3.9	2.3	223	23	3.1
2025-10-27T12:00	1000	897	3.9	1.9	224	23	3.1
2025-10-27T12:00	1020	895	4.1	1.6	225	24	3.1
2025-10-27T12:00	1040	893	4.0	1.6	226	24	3.1
2025-10-27T12:00	1060	891	3.8	1.6	226	24	3.2
2025-10-27T12:00	1080	888	3.8	1.5	228	24	3.2
2025-10-27T12:00	1100	886	3.8	1.6	229	23	3.2
2025-10-27T12:00	1120	884	3.6	1.5	231	23	3.2
2025-10-27T12:00	1140	882	3.6	1.5	233	22	3.2
2025-10-27T12:00	1160	880	3.6	1.5	235	22	3.1
2025-10-27T12:00	1180	878	3.6	1.5	237	21	3.1
2025-10-27T12:00	1200	875	3.5	1.5	239	21	3.1
2025-10-27T12:00	1220	873	3.4	1.4	240	21	3.1
2025-10-27T12:00	1240	871	3.4	1.3	242	21	3.0
2025-10-27T12:00	1260	869	3.4	1.2	243	21	3.0
2025-10-27T12:00	1280	867	3.3	1.1	244	22	3.0
2025-10-27T12:00	1300	865	3.0	1.1	246	22	3.0
2025-10-27T12:00	1320	863	2.8	1.1	247	22	3.0
2025-10-27T12:00	1340	860	2.6	1.0	248	22	3.0
2025-10-27T12:00	1360	858	2.5	0.9	249	22	3.0
2025-10-27T12:00	1380	856	2.4	0.9	250	22	3.0
2025-10-27T12:00	1400	854	2.3	0.9	251	21	3.0
2025-10-27T12:00	1420	852	2.2	0.8	251	21	3.0
2025-10-27T12:00	1440	850	2.1	0.8	251	21	3.0
2025-10-27T12:00	1460	848	1.9	0.8	251	20	3.0
2025-10-27T12:00	1480	846	1.8	0.6	252	20	3.0
2025-10-27T12:00	1500	844	1.6	0.5	252	20	2.9
2025-10-27T12:00	1520	841	1.5	0.5	252	20	2.9
2025-10-27T12:00	1540	839	1.3	0.4	252	20	2.9
2025-10-27T12:00	1560	837	1.2	0.4	253	20	2.9
2025-10-27T12:00	1580	835	1.1	0.3	253	20	2.9
2025-10-27T12:00	1600	833	1.1	0.3	254	20	2.9
2025-10-27T12:00	1620	831	1.0	0.2	254	21	2.9
2025-10-27T12:00	1640	829	0.9	0.1	255	21	2.9
2025-10-27T12:00	1660	827	0.8	0.1	255	21	2.9
2025-10-27T12:00	1680	825	0.7	0.0	256	21	2.9
2025-10-27T12:00	1700	823	0.6	0.0	257	22	2.9
2025-10-27T12:00	1720	821	0.4	-0.1	257	22	2.9
2025-10-27T12:00	1740	819	0.4	-0.2	258	22	2.9
2025-10-27T12:00	1760	817	0.2	-0.3	259	22	2.9
2025-10-27T12:00	1780	815	0.1	-0.3	259	22	2.9
2025-10-27T12:00	1800	813	-0.1	-0.3	260	23	2.9
2025-10-27T12:00	1820	811	-0.2	-0.4	261	23	2.9
2025-10-27T12:00	1840	809	-0.3	-0.5	262	23	2.8
2025-10-27T12:00	1860	807	-0.4	-0.6	263	24	2.8
2025-10-27T12:00	1880	805	-0.5	-0.6	264	24	2.8
2025-10-27T12:00	1900	802	-0.6	-0.8	265	24	2.8
2025-10-27T12:00	1920	800	-0.6	-0.8	266	24	2.8
2025-10-27T12:00	1940	798	-0.7	-0.9	268	25	2.8
2025-10-27T12:00	1960	796	-0.8	-1.0	269	25	2.8
2025-10-27T12:00	1980	795	-0.8	-0.9	270	25	2.8
2025-10-27T12:00	2000	793	-0.7	-1.0	272	25	2.8
2025-10-27T12:00	2020	791	-0.7	-1.0	273	25	2.8
2025-10-27T12:00	2040	789	-0.9	-1.0	274	25	2.8
2025-10-27T12:00	2060	787	-1.0	-1.1	276	25	2.8
2025-10-27T12:00	2080	785	-1.0	-1.0	276	25	2.8
2025-10-27T12:00	2100	783	-1.1	-1.1	277	25	2.8
2025-10-27T12:00	2120	781	-1.3	-1.3	278	25	2.8
2025-10-27T12:00	2140	779	-1.4	-1.4	279	25	2.8
2025-10-27T12:00	2160	777	-1.6	-1.6	280	25	2.9
2025-10-27T12:00	2180	775	-1.6	-1.6	280	25	2.9
2025-10-27T12:00	2200	773	-1.7	-1.7	280	25	2.9
2025-10-27T12:00	2220	771	-1.7	-1.7	281	25	2.9
2025-10-27T12:00	2240	769	-1.8	-1.8	281	25	2.9
2025-10-27T12:00	2260	767	-1.9	-1.9	281	25	2.9
2025-10-27T12:00	2280	765	-2.0	-2.0	281	25	2.9
2025-10-27T12:00	2300	763	-2.1	-2.1	282	25	2.9
2025-10-27T12:00	2320	761	-2.2	-2.2	282	25	2.9
2025-10-27T12:00	2340	759	-2.4	-2.4	282	25	2.9
2025-10-27T12:00	2360	758	-2.5	-2.5	283	25	2.9
2025-10-27T12:00	2380	756	-2.6	-2.6	283	25	2.9
2025-10-27T12:00	2400	754	-2.7	-2.7	284	25	2.9
2025-10-27T12:00	2420	752	-2.8	-2.8	284	25	2.9
2025-10-27T12:00	2440	750	-2.9	-2.9	284	25	2.9
2025-10-27T12:00	2460	748	-3.0	-3.0	284	25	2.9
2025-10-27T12:00	2480	746	-3.1	-3.1	284	24	2.9
2025-10-27T12:00	2500	744	-3.2	-3.2	284	24	2.9
2025-10-27T12:00	2520	742	-3.3	-3.3	284	24	2.9
2025-10-27T12:00	2540	741	-3.4	-3.4	284	24	2.9
2025-10-27T12:00	2560	739	-3.5	-3.5	284	24	2.9
2025-10-27T12:00	2580	737	-3.6	-3.6	284	24	2.9
2025-10-27T12:00	2600	735	-3.6	-3.6	284	24	2.9
2025-10-27T12:00	2620	733	-3.7	-3.7	284	24	2.9
2025-10-27T12:00	2640	731	-3.9	-3.9	283	24	2.9
2025-10-27T12:00	2660	729	-4.0	-4.0	283	24	2.9
2025-10-27T12:00	2680	728	-4.1	-4.1	283	23	2.9
2025-10-27T12:00	2700	726	-4.2	-4.2	282	24	2.9
2025-10-27T12:00	2720	724	-4.2	-4.2	282	24	2.9
2025-10-27T12:00	2740	722	-4.3	-4.4	282	24	2.9
2025-10-27T12:00	2760	720	-4.3	-4.5	282	24	2.9
2025-10-27T12:00	2780	718	-4.4	-4.6	282	23	2.9
2025-10-27T12:00	2800	717	-4.4	-4.7	282	23	3.0
2025-10-27T12:00	2820	715	-4.4	-4.7	283	23	3.0
2025-10-27T12:00	2840	713	-4.5	-4.7	282	23	3.0
2025-10-27T12:00	2860	711	-4.5	-4.8	282	23	3.1
2025-10-27T12:00	2880	709	-4.7	-5.0	282	23	3.1
2025-10-27T12:00	2900	708	-4.8	-5.1	281	24	3.1
2025-10-27T12:00	2920	706	-4.9	-5.1	280	24	3.1
2025-10-27T12:00	2940	704	-5.0	-5.2	280	24	3.1
2025-10-27T12:00	2960	702	-5.1	-5.3	280	24	3.2
2025-10-27T12:00	2980	700	-5.2	-5.4	280	25	3.2
2025-10-27T12:00	3000	699	-5.3	-5.5	279	25	3.2
2025-10-27T12:00	3020	697	-5.4	-5.6	280	25	3.2
2025-10-27T12:00	3040	695	-5.5	-5.7	280	25	3.1
2025-10-27T12:00	3060	693	-5.6	-5.9	280	25	3.1
2025-10-27T12:00	3080	692	-5.7	-5.9	281	26	3.1
2025-10-27T12:00	3100	690	-5.8	-6.0	281	26	3.1
2025-10-27T12:00	3120	688	-5.9	-6.1	281	26	3.1
2025-10-27T12:00	3140	686	-6.0	-6.2	281	26	3.1
2025-10-27T12:00	3160	685	-6.1	-6.3	281	26	3.1
2025-10-27T12:00	3180	683	-6.1	-6.4	280	26	3.1
2025-10-27T12:00	3200	681	-6.2	-6.4	280	26	3.2
2025-10-27T12:00	3220	679	-6.3	-6.5	280	26	3.2
2025-10-27T12:00	3240	678	-6.4	-6.5	280	26	3.2
2025-10-27T12:00	3260	676	-6.5	-6.6	280	26	3.2
2025-10-27T12:00	3280	674	-6.7	-6.7	280	26	3.2
2025-10-27T12:00	3300	672	-6.8	-6.9	280	26	3.2
2025-10-27T12:00	3320	671	-6.9	-7.0	280	26	3.2
2025-10-27T12:00	3340	669	-7.0	-7.1	280	26	3.2
2025-10-27T12:00	3360	667	-7.1	-7.3	280	27	3.1
2025-10-27T12:00	3380	666	-7.2	-7.4	281	27	3.1
2025-10-27T12:00	3400	664	-7.3	-7.5	282	27	3.1
2025-10-27T12:00	3420	662	-7.3	-7.5	282	28	3.0
2025-10-27T12:00	3440	660	-7.4	-7.6	283	28	3.0
2025-10-27T12:00	3460	659	-7.5	-7.7	283	27	3.0
2025-10-27T12:00	3480	657	-7.5	-7.9	284	27	3.0
2025-10-27T12:00	3500	655	-7.6	-7.9	284	27	3.0
2025-10-27T12:00	3520	654	-7.7	-8.2	284	27	3.1
2025-10-27T12:00	3540	652	-7.8	-8.2	285	27	3.1
2025-10-27T12:00	3560	650	-7.9	-8.4	286	27	3.1
2025-10-27T12:00	3580	649	-8.0	-8.5	286	27	3.1
2025-10-27T12:00	3600	647	-8.1	-8.6	287	27	3.2
2025-10-27T12:00	3620	645	-8.2	-8.8	287	27	3.2
2025-10-27T12:00	3640	644	-8.4	-8.9	286	28	3.2
2025-10-27T12:00	3660	642	-8.5	-9.0	286	28	3.2
2025-10-27T12:00	3680	640	-8.6	-9.2	286	28	3.2
2025-10-27T12:00	3700	639	-8.6	-9.3	285	28	3.2
2025-10-27T12:00	3720	637	-8.7	-9.3	285	28	3.2
2025-10-27T12:00	3740	636	-8.7	-9.4	285	28	3.2
2025-10-27T12:00	3760	634	-8.8	-9.5	285	28	3.2
2025-10-27T12:00	3780	632	-8.9	-9.7	286	28	3.2
2025-10-27T12:00	3800	631	-9.0	-9.7	286	28	3.2
2025-10-27T12:00	3820	629	-9.1	-9.9	286	28	3.2
2025-10-27T12:00	3840	627	-9.2	-9.9	286	28	3.2
2025-10-27T12:00	3860	626	-9.4	-10.1	285	28	3.2
2025-10-27T12:00	3880	624	-9.4	-10.4	285	28	3.2
2025-10-27T12:00	3900	622	-9.5	-10.6	285	28	3.2
2025-10-27T12:00	3920	621	-9.6	-10.9	284	29	3.1
2025-10-27T12:00	3940	619	-9.7	-10.9	284	29	3.1
2025-10-27T12:00	3960	618	-9.8	-10.9	284	29	3.1
2025-10-27T12:00	3980	616	-10.0	-10.8	285	30	3.1
2025-10-27T12:00	4000	614	-10.0	-10.8	285	30	3.1
2025-10-27T12:00	4020	613	-10.1	-10.9	286	30	3.0
2025-10-27T12:00	4040	611	-10.3	-10.9	286	30	3.0
2025-10-27T12:00	4060	610	-10.4	-10.9	287	30	3.0
2025-10-27T12:00	4080	608	-10.5	-11.0	287	30	3.0
2025-10-27T12:00	4100	607	-10.6	-10.9	288	30	3.0
2025-10-27T12:00	4120	605	-10.8	-10.8	288	30	3.0
2025-10-27T12:00	4140	604	-10.9	-10.9	288	30	3.0
2025-10-27T12:00	4160	602	-11.1	-11.1	288	30	3.0
2025-10-27T12:00	4180	600	-11.2	-11.2	288	31	2.9
2025-10-27T12:00	4200	599	-11.3	-11.3	288	31	2.9
2025-10-27T12:00	4220	597	-11.5	-11.5	288	31	2.9
2025-10-27T12:00	4240	596	-11.6	-11.6	288	31	2.9
2025-10-27T12:00	4260	594	-11.7	-11.7	288	32	2.9
2025-10-27T12:00	4280	592	-11.9	-11.9	288	32	2.9
2025-10-27T12:00	4300	591	-12.1	-12.1	288	32	2.9
2025-10-27T12:00	4320	589	-12.2	-12.2	288	32	2.9
2025-10-27T12:00	4340	588	-12.2	-12.2	288	32	2.9
2025-10-27T12:00	4360	586	-12.4	-12.4	288	31	2.9
2025-10-27T12:00	4380	585	-12.5	-12.5	288	31	2.9
2025-10-27T12:00	4400	583	-12.7	-12.7	289	31	2.9
2025-10-27T12:00	4420	582	-12.8	-13.1	289	31	2.9
2025-10-27T12:00	4440	580	-12.9	-13.2	289	31	2.9
2025-10-27T12:00	4460	579	-13.0	-13.3	290	31	2.9
2025-10-27T12:00	4480	577	-13.3	-13.4	290	31	2.9
2025-10-27T12:00	4500	576	-13.4	-13.7	290	31	2.9
2025-10-27T12:00	4520	574	-13.5	-14.2	290	31	2.9
2025-10-27T12:00	4540	573	-13.6	-14.5	291	31	2.9
2025-10-27T12:00	4560	571	-13.7	-14.2	291	32	2.9
2025-10-27T12:00	4580	570	-13.9	-14.3	291	32	2.9
2025-10-27T12:00	4600	568	-14.0	-14.3	291	32	2.9
2025-10-27T12:00	4620	567	-14.2	-14.3	291	32	2.9
2025-10-27T12:00	4640	565	-14.4	-14.4	291	32	2.9
2025-10-27T12:00	4660	564	-14.6	-14.7	291	33	2.9
2025-10-27T12:00	4680	562	-14.7	-14.8	291	33	2.9
2025-10-27T12:00	4700	561	-14.7	-15.2	291	33	2.9
2025-10-27T12:00	4720	559	-14.9	-15.5	291	33	2.9
2025-10-27T12:00	4740	558	-15.1	-15.7	291	33	2.9
2025-10-27T12:00	4760	556	-15.2	-15.9	292	33	2.9
2025-10-27T12:00	4780	555	-15.4	-15.9	292	33	2.8
2025-10-27T12:00	4800	553	-15.5	-16.2	292	33	2.8
2025-10-27T12:00	4820	552	-15.7	-16.2	292	33	2.8
2025-10-27T12:00	4840	550	-15.8	-16.3	293	34	2.9
2025-10-27T12:00	4860	549	-15.9	-16.3	293	34	2.9
2025-10-27T12:00	4880	547	-16.1	-16.4	293	34	2.9
2025-10-27T12:00	4900	546	-16.3	-16.7	293	34	2.8
2025-10-27T12:00	4920	545	-16.3	-17.0	294	35	2.8
2025-10-27T12:00	4940	543	-16.3	-17.5	294	35	2.9
2025-10-27T12:00	4960	542	-16.5	-17.6	294	35	2.9
2025-10-27T12:00	4980	540	-16.7	-17.7	294	35	2.8
2025-10-27T12:00	5000	539	-16.7	-18.3	295	35	2.8
2025-10-27T12:00	5020	537	-16.7	-19.4	295	35	2.8
2025-10-27T12:00	5040	536	-16.8	-20.5	295	35	2.8
2025-10-27T12:00	5060	534	-16.8	-21.5	295	36	2.8
2025-10-27T12:00	5080	533	-16.8	-21.9	295	36	2.8
2025-10-27T12:00	5100	532	-16.8	-21.7	295	36	2.8
2025-10-27T12:00	5120	530	-16.9	-21.8	295	36	2.8
2025-10-27T12:00	5140	529	-17.0	-21.7	295	36	2.8
2025-10-27T12:00	5160	527	-17.2	-21.7	295	36	2.8
2025-10-27T12:00	5180	526	-17.3	-21.7	295	36	2.8
2025-10-27T12:00	5200	525	-17.4	-21.9	295	36	2.8
2025-10-27T12:00	5220	523	-17.5	-22.1	294	36	2.8
2025-10-27T12:00	5240	522	-17.8	-21.9	294	36	2.8
2025-10-27T12:00	5260	520	-18.0	-22.1	294	36	2.8
2025-10-27T12:00	5280	519	-18.2	-22.3	294	36	2.8
2025-10-27T12:00	5300	518	-18.3	-22.3	293	36	2.8
2025-10-27T12:00	5320	516	-18.5	-22.5	293	36	2.7
2025-10-27T12:00	5340	515	-18.6	-22.6	293	36	2.8
2025-10-27T12:00	5360	514	-18.8	-22.9	293	36	2.8
2025-10-27T12:00	5380	512	-19.0	-23.0	293	36	2.8
2025-10-27T12:00	5400	511	-19.2	-23.0	292	36	2.8
2025-10-27T12:00	5420	509	-19.3	-22.9	292	36	2.8
2025-10-27T12:00	5440	508	-19.4	-22.9	292	37	2.8
2025-10-27T12:00	5460	507	-19.5	-23.0	292	37	2.8
2025-10-27T12:00	5480	505	-19.7	-22.9	292	37	2.7
2025-10-27T12:00	5500	504	-19.9	-22.7	292	37	2.7
2025-10-27T12:00	5520	503	-20.0	-22.6	292	37	2.7
2025-10-27T12:00	5540	501	-20.1	-22.7	292	37	2.7
2025-10-27T12:00	5560	500	-20.2	-22.7	293	38	2.7
2025-10-27T12:00	5580	499	-20.4	-22.4	293	38	2.7
2025-10-27T12:00	5600	497	-20.5	-22.2	293	38	2.6
2025-10-27T12:00	5620	496	-20.6	-22.1	293	38	2.6
2025-10-27T12:00	5640	494	-20.7	-22.0	293	38	2.6
2025-10-27T12:00	5660	493	-21.0	-22.2	293	38	2.6
2025-10-27T12:00	5680	492	-21.2	-22.1	293	38	2.6
2025-10-27T12:00	5700	491	-21.3	-22.1	293	38	2.6
2025-10-27T12:00	5720	489	-21.5	-22.0	294	38	2.6
2025-10-27T12:00	5740	488	-21.7	-22.1	294	38	2.5
2025-10-27T12:00	5760	486	-21.9	-22.1	294	38	2.5
2025-10-27T12:00	5780	485	-22.0	-22.2	294	38	2.5
2025-10-27T12:00	5800	484	-22.2	-22.4	294	38	2.5
2025-10-27T12:00	5820	483	-22.4	-22.5	294	38	2.5
2025-10-27T12:00	5840	481	-22.5	-22.7	294	38	2.5
2025-10-27T12:00	5860	480	-22.7	-22.9	294	38	2.5
2025-10-27T12:00	5880	479	-22.9	-22.9	294	38	2.5
2025-10-27T12:00	5900	477	-23.0	-23.0	295	38	2.5
2025-10-27T12:00	5920	476	-23.2	-23.2	295	38	2.5
2025-10-27T12:00	5940	475	-23.4	-23.5	295	38	2.5
2025-10-27T12:00	5960	473	-23.6	-24.1	296	38	2.4
2025-10-27T12:00	5980	472	-23.7	-25.9	296	38	2.4
2025-10-27T12:00	6000	471	-23.7	-26.9	296	38	2.4
2025-10-27T12:00	6020	470	-23.7	-27.0	297	38	2.4
2025-10-27T12:00	6040	468	-23.8	-27.3	297	38	2.5
2025-10-27T12:00	6060	467	-24.0	-27.3	297	38	2.5
2025-10-27T12:00	6080	466	-24.1	-27.3	298	38	2.5
2025-10-27T12:00	6100	464	-24.2	-27.4	298	38	2.5
2025-10-27T12:00	6120	463	-24.5	-27.3	299	38	2.5
2025-10-27T12:00	6140	462	-24.6	-27.3	299	39	2.5
2025-10-27T12:00	6160	461	-24.7	-27.4	300	39	2.5
2025-10-27T12:00	6180	459	-24.9	-27.5	300	39	2.5
2025-10-27T12:00	6200	458	-25.1	-27.4	301	39	2.5
2025-10-27T12:00	6220	457	-25.2	-27.8	302	39	2.5
2025-10-27T12:00	6240	456	-25.3	-28.1	302	40	2.5
2025-10-27T12:00	6260	454	-25.4	-28.2	302	40	2.5
2025-10-27T12:00	6280	453	-25.4	-28.5	303	40	2.5
2025-10-27T12:00	6300	452	-25.5	-28.7	303	40	2.5
2025-10-27T12:00	6320	451	-25.7	-28.7	303	40	2.5
2025-10-27T12:00	6340	449	-25.9	-28.7	303	41	2.5
2025-10-27T12:00	6360	448	-26.1	-28.8	303	41	2.5
2025-10-27T12:00	6380	447	-26.3	-28.8	303	41	2.5
2025-10-27T12:00	6400	446	-26.4	-29.1	303	42	2.5
2025-10-27T12:00	6420	444	-26.6	-29.3	304	42	2.5
2025-10-27T12:00	6440	443	-26.7	-29.1	304	42	2.5
2025-10-27T12:00	6460	442	-26.9	-29.2	304	42	2.5
2025-10-27T12:00	6480	441	-27.2	-29.4	305	43	2.5
2025-10-27T12:00	6500	440	-27.4	-29.4	306	43	2.5
2025-10-27T12:00	6520	438	-27.5	-29.5	306	44	2.5
2025-10-27T12:00	6540	437	-27.5	-29.5	307	44	2.5
2025-10-27T12:00	6560	436	-27.4	-29.6	307	44	2.5
2025-10-27T12:00	6580	435	-27.4	-29.1	308	44	2.5
2025-10-27T12:00	6600	433	-27.4	-29.3	308	44	2.5
2025-10-27T12:00	6620	432	-27.4	-29.7	308	45	2.5
2025-10-27T12:00	6640	431	-27.6	-29.9	308	45	2.5
2025-10-27T12:00	6660	430	-27.7	-30.0	308	45	2.5
2025-10-27T12:00	6680	429	-27.8	-29.9	309	45	2.5
2025-10-27T12:00	6700	427	-27.9	-30.0	309	45	2.5
2025-10-27T12:00	6720	426	-28.0	-30.2	309	45	2.5
2025-10-27T12:00	6740	425	-28.2	-30.5	309	45	2.5
2025-10-27T12:00	6760	424	-28.3	-30.4	309	46	2.4
2025-10-27T12:00	6780	423	-28.4	-30.5	309	46	2.4
2025-10-27T12:00	6800	422	-28.5	-30.5	309	46	2.4
2025-10-27T12:00	6820	421	-28.6	-30.6	309	46	2.4
2025-10-27T12:00	6840	419	-28.7	-30.7	309	46	2.4
2025-10-27T12:00	6860	418	-28.8	-30.6	309	46	2.3
2025-10-27T12:00	6880	417	-29.0	-30.8	309	46	2.3
2025-10-27T12:00	6900	416	-29.2	-30.9	309	46	2.3
2025-10-27T12:00	6920	414	-29.4	-31.1	309	46	2.3
2025-10-27T12:00	6940	413	-29.5	-31.2	310	46	2.2
2025-10-27T12:00	6960	412	-29.7	-31.4	310	46	2.2
2025-10-27T12:00	6980	411	-29.7	-31.6	310	47	2.2
2025-10-27T12:00	7000	410	-29.9	-31.7	310	47	2.2
2025-10-27T12:00	7020	409	-30.2	-31.8	310	47	2.2
2025-10-27T12:00	7040	408	-30.3	-32.0	310	47	2.2
2025-10-27T12:00	7060	406	-30.4	-32.2	310	47	2.2
2025-10-27T12:00	7080	405	-30.7	-32.4	310	47	2.2
2025-10-27T12:00	7100	404	-30.8	-32.3	310	47	2.1
2025-10-27T12:00	7120	403	-31.0	-32.6	310	47	2.1
2025-10-27T12:00	7140	402	-31.1	-32.7	310	47	2.1
2025-10-27T12:00	7160	401	-31.4	-32.8	310	47	2.1
2025-10-27T12:00	7180	400	-31.5	-32.9	310	47	2.1
2025-10-27T12:00	7200	398	-31.7	-33.0	310	47	2.1
2025-10-27T12:00	7220	397	-31.9	-33.0	310	47	2.0
2025-10-27T12:00	7240	396	-32.2	-33.1	310	47	2.0
2025-10-27T12:00	7260	395	-32.3	-33.6	311	47	2.0
2025-10-27T12:00	7280	394	-32.3	-34.1	311	47	2.0
2025-10-27T12:00	7300	393	-32.6	-34.0	311	46	2.0
2025-10-27T12:00	7320	392	-32.8	-33.9	311	46	2.0
2025-10-27T12:00	7340	391	-33.0	-34.2	311	46	2.0
2025-10-27T12:00	7360	390	-33.1	-34.4	311	46	2.0
2025-10-27T12:00	7380	389	-33.3	-34.4	311	46	2.0
2025-10-27T12:00	7400	387	-33.4	-34.6	311	46	2.0
2025-10-27T12:00	7420	386	-33.6	-35.2	311	46	2.0
2025-10-27T12:00	7440	385	-33.8	-35.6	311	46	2.0
2025-10-27T12:00	7460	384	-33.9	-35.5	312	46	1.9
2025-10-27T12:00	7480	383	-34.0	-35.5	312	46	1.9
2025-10-27T12:00	7500	382	-34.1	-35.8	312	46	1.9
2025-10-27T12:00	7520	381	-34.4	-35.6	312	46	1.9
2025-10-27T12:00	7540	380	-34.5	-35.6	312	46	1.9
2025-10-27T12:00	7560	379	-34.6	-36.2	312	47	1.9
2025-10-27T12:00	7580	377	-34.9	-36.6	312	47	1.9
2025-10-27T12:00	7600	376	-35.1	-36.8	312	47	1.9
2025-10-27T12:00	7620	375	-35.2	-37.7	312	47	1.9
2025-10-27T12:00	7640	374	-35.4	-38.1	312	47	1.9
2025-10-27T12:00	7660	373	-35.6	-38.1	312	47	1.9
2025-10-27T12:00	7680	372	-35.8	-37.9	312	47	1.9
2025-10-27T12:00	7700	371	-36.0	-38.1	312	47	1.9
2025-10-27T12:00	7720	370	-36.1	-38.4	312	47	1.9
2025-10-27T12:00	7740	369	-36.3	-38.4	312	47	1.9
2025-10-27T12:00	7760	368	-36.5	-38.8	313	47	1.9
2025-10-27T12:00	7780	367	-36.7	-39.5	313	47	1.8
2025-10-27T12:00	7800	366	-36.8	-39.6	313	47	1.9
2025-10-27T12:00	7820	365	-37.0	-39.2	313	47	1.9
2025-10-27T12:00	7840	364	-37.2	-39.0	313	47	1.9
2025-10-27T12:00	7860	363	-37.4	-39.3	313	47	1.9
2025-10-27T12:00	7880	362	-37.5	-39.8	313	47	1.9
2025-10-27T12:00	7900	361	-37.7	-40.5	313	47	1.9
2025-10-27T12:00	7920	359	-37.8	-40.8	313	47	1.8
2025-10-27T12:00	7940	359	-38.0	-40.6	313	47	1.8
2025-10-27T12:00	7960	357	-38.2	-40.9	313	47	1.8
2025-10-27T12:00	7980	356	-38.5	-41.1	313	47	1.8
2025-10-27T12:00	8000	355	-38.6	-41.3	313	47	1.8
2025-10-27T12:00	8020	354	-38.8	-41.8	313	47	1.8
2025-10-27T12:00	8040	353	-38.9	-42.0	313	47	1.8
2025-10-27T12:00	8060	352	-39.2	-41.8	313	47	1.8
2025-10-27T12:00	8080	351	-39.3	-42.0	313	47	1.8
2025-10-27T12:00	8100	350	-39.5	-42.2	313	47	1.8
2025-10-27T12:00	8120	349	-39.7	-41.9	313	47	1.8
2025-10-27T12:00	8140	348	-40.0	-41.8	313	47	1.8
2025-10-27T12:00	8160	347	-40.1	-42.5	313	47	1.8
2025-10-27T12:00	8180	346	-40.3	-43.3	313	47	1.8
2025-10-27T12:00	8200	345	-40.4	-43.3	313	46	1.8
2025-10-27T12:00	8220	344	-40.6	-43.2	313	47	1.7
2025-10-27T12:00	8240	343	-40.9	-44.0	313	47	1.7
2025-10-27T12:00	8260	342	-41.0	-44.5	313	47	1.7
2025-10-27T12:00	8280	341	-41.1	-44.5	313	47	1.7
2025-10-27T12:00	8300	340	-41.3	-44.8	312	47	1.7
2025-10-27T12:00	8320	339	-41.5	-44.9	312	47	1.7
2025-10-27T12:00	8340	338	-41.7	-44.8	312	47	1.7
2025-10-27T12:00	8360	337	-41.9	-44.7	312	47	1.7
2025-10-27T12:00	8380	336	-42.0	-45.0	312	47	1.7
2025-10-27T12:00	8400	335	-42.3	-45.0	312	47	1.7
2025-10-27T12:00	8420	334	-42.5	-44.9	312	47	1.7
2025-10-27T12:00	8440	333	-42.6	-45.2	312	47	1.7
2025-10-27T12:00	8460	332	-42.8	-45.4	312	47	1.7
2025-10-27T12:00	8480	331	-43.0	-45.2	312	47	1.7
2025-10-27T12:00	8500	330	-43.2	-45.0	312	47	1.7
2025-10-27T12:00	8520	329	-43.4	-45.1	312	47	1.7
2025-10-27T12:00	8540	328	-43.6	-45.3	312	47	1.7
2025-10-27T12:00	8560	327	-43.7	-45.9	312	47	1.7
2025-10-27T12:00	8580	326	-43.9	-46.0	312	47	1.7
2025-10-27T12:00	8600	325	-44.2	-45.8	312	47	1.7
2025-10-27T12:00	8620	324	-44.3	-45.9	312	47	1.7
2025-10-27T12:00	8640	323	-44.6	-46.3	312	47	1.6
2025-10-27T12:00	8660	322	-44.7	-46.6	312	47	1.6
2025-10-27T12:00	8680	321	-44.8	-46.8	312	47	1.6
2025-10-27T12:00	8700	320	-45.0	-47.3	312	47	1.6
2025-10-27T12:00	8720	319	-45.2	-47.3	313	47	1.6
2025-10-27T12:00	8740	319	-45.4	-47.3	313	47	1.6
2025-10-27T12:00	8760	318	-45.6	-47.6	313	47	1.6
2025-10-27T12:00	8780	317	-45.9	-48.0	313	47	1.6
2025-10-27T12:00	8800	316	-46.0	-48.7	313	47	1.6
2025-10-27T12:00	8820	315	-46.1	-50.2	313	47	1.7
2025-10-27T12:00	8840	314	-46.2	-51.8	313	48	1.7
2025-10-27T12:00	8860	313	-46.3	-51.4	312	48	1.7
2025-10-27T12:00	8880	312	-46.3	-50.6	312	48	1.7
2025-10-27T12:00	8900	311	-46.4	-50.5	312	48	1.7
2025-10-27T12:00	8920	310	-46.6	-50.8	312	48	1.8
2025-10-27T12:00	8940	309	-46.7	-50.3	312	48	1.8
2025-10-27T12:00	8960	308	-46.8	-50.0	312	48	1.8
2025-10-27T12:00	8980	307	-46.9	-51.1	311	48	1.8
2025-10-27T12:00	9000	306	-47.1	-52.6	311	48	1.8
2025-10-27T12:00	9020	305	-47.3	-53.1	311	48	1.8
2025-10-27T12:00	9040	304	-47.4	-53.2	311	48	1.8
2025-10-27T12:00	9060	304	-47.6	-53.4	310	48	1.8
2025-10-27T12:00	9080	303	-47.8	-53.4	310	48	1.8
2025-10-27T12:00	9100	302	-47.9	-54.2	310	48	1.8
2025-10-27T12:00	9120	301	-48.0	-55.5	309	48	1.8
2025-10-27T12:00	9140	300	-48.1	-57.1	309	48	1.9
2025-10-27T12:00	9160	299	-48.1	-58.0	309	48	1.9
2025-10-27T12:00	9180	298	-48.3	-58.0	309	48	1.9
2025-10-27T12:00	9200	297	-48.5	-57.4	309	47	1.9
2025-10-27T12:00	9220	296	-48.7	-57.2	309	47	1.9
2025-10-27T12:00	9240	295	-48.8	-57.5	309	47	1.9
2025-10-27T12:00	9260	294	-48.9	-57.9	310	47	1.9
2025-10-27T12:00	9280	294	-49.0	-57.9	310	47	1.9
2025-10-27T12:00	9300	293	-49.1	-58.1	310	47	1.9
2025-10-27T12:00	9320	292	-49.1	-58.7	311	47	1.9
2025-10-27T12:00	9340	291	-49.1	-59.3	312	47	1.9
2025-10-27T12:00	9360	290	-49.1	-59.2	312	47	2.0
2025-10-27T12:00	9380	289	-49.2	-58.6	312	47	2.0
2025-10-27T12:00	9400	288	-49.4	-58.1	313	47	1.9
2025-10-27T12:00	9420	287	-49.5	-57.9	313	47	1.9
2025-10-27T12:00	9440	286	-49.7	-57.9	313	47	1.9
2025-10-27T12:00	9460	286	-49.9	-57.9	313	47	1.9
2025-10-27T12:00	9480	285	-50.1	-57.8	313	47	1.9
2025-10-27T12:00	9500	284	-50.2	-57.8	313	47	1.9
2025-10-27T12:00	9520	283	-50.4	-57.8	313	47	1.9
2025-10-27T12:00	9540	282	-50.6	-57.9	313	47	1.8
2025-10-27T12:00	9560	281	-50.8	-57.9	313	47	1.8
2025-10-27T12:00	9580	280	-51.0	-57.8	313	47	1.8
2025-10-27T12:00	9600	280	-51.1	-57.9	313	47	1.8
2025-10-27T12:00	9620	279	-51.3	-58.1	313	47	1.8
2025-10-27T12:00	9640	278	-51.4	-58.3	312	47	1.8
2025-10-27T12:00	9660	277	-51.5	-58.5	312	48	1.8
2025-10-27T12:00	9680	276	-51.6	-58.5	312	48	1.8
2025-10-27T12:00	9700	275	-51.7	-58.6	312	48	1.8
2025-10-27T12:00	9720	274	-51.8	-58.6	312	48	1.8
2025-10-27T12:00	9740	274	-52.0	-58.7	312	48	1.8
2025-10-27T12:00	9760	273	-52.1	-58.7	312	49	1.8
2025-10-27T12:00	9780	272	-52.2	-58.8	312	49	1.8
2025-10-27T12:00	9800	271	-52.3	-58.9	312	49	1.8
2025-10-27T12:00	9820	270	-52.4	-59.0	312	49	1.8
2025-10-27T12:00	9840	269	-52.6	-59.1	311	50	1.8
2025-10-27T12:00	9860	268	-52.7	-59.3	311	50	1.8
2025-10-27T12:00	9880	268	-53.0	-59.3	311	50	1.8
2025-10-27T12:00	9900	267	-53.0	-59.4	311	50	1.8
2025-10-27T12:00	9920	266	-53.1	-59.6	311	50	1.8
2025-10-27T12:00	9940	265	-53.3	-59.9	311	50	1.8
2025-10-27T12:00	9960	264	-53.5	-60.2	310	51	1.8
2025-10-27T12:00	9980	264	-53.5	-60.3	310	51	1.8
2025-10-27T12:00	10000	263	-53.6	-60.5	310	51	1.8
2025-10-27T12:00	10018	262	-53.6	-60.8	311	51	1.8
2025-10-27T12:00	10050	261	-53.8	-61.1	311	51	1.9
2025-10-27T12:00	10100	259	-54.1	-61.4	311	51	1.9
2025-10-27T12:00	10150	257	-54.5	-61.4	312	50	1.9
2025-10-27T12:00	10200	255	-54.8	-61.5	312	50	1.9
2025-10-27T12:00	10250	253	-55.0	-61.9	312	50	2.0
2025-10-27T12:00	10300	251	-54.8	-62.3	312	51	2.0
2025-10-27T12:00	10350	249	-55.1	-62.5	313	51	2.0
2025-10-27T12:00	10400	247	-55.5	-62.7	313	52	2.0
2025-10-27T12:00	10450	245	-55.9	-63.3	314	53	2.1
2025-10-27T12:00	10500	243	-56.0	-63.9	314	54	2.1
2025-10-27T12:00	10550	241	-56.1	-63.8	315	54	2.1
2025-10-27T12:00	10600	239	-56.4	-63.3	316	55	2.2
2025-10-27T12:00	10650	237	-56.9	-63.1	316	55	2.2
2025-10-27T12:00	10700	235	-57.4	-62.9	317	55	2.2
2025-10-27T12:00	10750	233	-57.8	-62.9	318	56	2.2
2025-10-27T12:00	10800	232	-57.9	-64.1	319	55	2.2
2025-10-27T12:00	10850	230	-57.5	-66.1	319	54	2.2
2025-10-27T12:00	10900	228	-57.5	-66.9	318	53	2.3
2025-10-27T12:00	10950	226	-57.7	-67.1	317	52	2.3
2025-10-27T12:00	11000	224	-58.0	-67.5	316	51	2.4
2025-10-27T12:00	11050	223	-58.4	-67.6	315	50	2.5
2025-10-27T12:00	11100	221	-58.8	-67.7	314	49	2.5
2025-10-27T12:00	11150	219	-59.1	-67.9	313	48	2.5
2025-10-27T12:00	11200	217	-59.3	-68.3	312	48	2.5
2025-10-27T12:00	11250	216	-59.2	-68.9	311	48	2.4
2025-10-27T12:00	11300	214	-58.9	-70.0	311	48	2.5
2025-10-27T12:00	11350	212	-58.2	-71.1	311	48	2.5
2025-10-27T12:00	11400	211	-57.2	-71.6	311	49	2.6
2025-10-27T12:00	11450	209	-57.0	-72.1	312	50	2.6
2025-10-27T12:00	11500	207	-57.1	-72.7	312	50	2.7
2025-10-27T12:00	11550	206	-56.9	-73.1	313	49	2.8
2025-10-27T12:00	11600	204	-57.1	-73.4	312	47	2.8
2025-10-27T12:00	11650	202	-57.1	-73.5	310	46	2.9
2025-10-27T12:00	11700	201	-57.2	-73.8	308	45	3.0
2025-10-27T12:00	11750	199	-57.0	-74.4	306	43	3.0
2025-10-27T12:00	11800	198	-56.1	-75.3	305	43	3.1
2025-10-27T12:00	11850	196	-56.1	-76.0	303	42	3.1
2025-10-27T12:00	11900	195	-56.0	-76.0	302	42	3.1
2025-10-27T12:00	11950	193	-55.9	-76.3	301	43	3.2
2025-10-27T12:00	12000	192	-55.6	-76.5	302	43	3.2
2025-10-27T12:00	12050	190	-55.4	-76.8	302	44	3.2
2025-10-27T12:00	12100	189	-55.4	-77.0	302	44	3.2
2025-10-27T12:00	12150	187	-55.4	-77.2	302	44	3.2
2025-10-27T12:00	12200	186	-55.3	-77.7	301	43	3.1
2025-10-27T12:00	12250	184	-54.5	-78.0	300	42	3.1
2025-10-27T12:00	12300	183	-54.7	-78.3	298	41	3.1
2025-10-27T12:00	12350	181	-54.8	-78.4	297	41	3.2
2025-10-27T12:00	12400	180	-55.0	-78.4	297	41	3.4
2025-10-27T12:00	12450	179	-55.4	-78.5	297	42	3.4
2025-10-27T12:00	12500	177	-55.5	-78.8	298	42	3.5
2025-10-27T12:00	12550	176	-55.5	-79.1	299	41	3.6
2025-10-27T12:00	12600	174	-55.5	-79.4	300	41	3.6
2025-10-27T12:00	12650	173	-55.3	-79.6	300	40	3.8
2025-10-27T12:00	12700	172	-55.4	-79.9	300	39	4.1
2025-10-27T12:00	12750	170	-55.4	-80.2	299	38	4.3
2025-10-27T12:00	12800	169	-55.4	-80.5	299	37	4.5
2025-10-27T12:00	12850	168	-54.7	-80.4	299	36	4.7
2025-10-27T12:00	12900	166	-54.6	-80.5	299	35	4.9
2025-10-27T12:00	12950	165	-54.6	-80.5	299	34	5.1
2025-10-27T12:00	13000	164	-54.7	-80.6	299	33	5.2
2025-10-27T12:00	13050	163	-54.7	-80.6	298	33	5.3
2025-10-27T12:00	13100	161	-55.1	-80.8	298	33	5.3
2025-10-27T12:00	13150	160	-55.0	-80.8	298	33	5.4
2025-10-27T12:00	13200	159	-54.0	-80.5	298	33	5.5
2025-10-27T12:00	13250	158	-53.7	-80.6	298	33	5.6
2025-10-27T12:00	13300	156	-53.3	-80.6	299	33	5.8
2025-10-27T12:00	13350	155	-53.3	-80.9	298	33	6.1
2025-10-27T12:00	13400	154	-53.2	-81.0	298	33	6.2
2025-10-27T12:00	13450	153	-52.3	-80.4	299	32	6.2
2025-10-27T12:00	13500	152	-52.3	-80.5	299	31	6.1
2025-10-27T12:00	13550	150	-52.4	-80.6	301	29	6.0
2025-10-27T12:00	13600	149	-52.7	-80.5	302	28	5.9
2025-10-27T12:00	13650	148	-52.7	-80.4	303	26	5.9
2025-10-27T12:00	13700	147	-52.9	-80.5	304	25	5.8
2025-10-27T12:00	13750	146	-52.9	-80.6	303	23	5.8
2025-10-27T12:00	13800	145	-52.9	-80.6	301	22	5.8
2025-10-27T12:00	13850	143	-53.2	-80.6	297	22	5.7
2025-10-27T12:00	13900	142	-53.5	-80.6	294	21	5.6
2025-10-27T12:00	13950	141	-53.8	-80.7	291	22	5.5
2025-10-27T12:00	14000	140	-54.3	-81.0	290	22	5.4
2025-10-27T12:00	14050	139	-54.4	-80.8	289	23	5.3
2025-10-27T12:00	14100	138	-54.6	-80.8	290	24	5.3
2025-10-27T12:00	14150	137	-54.8	-81.1	291	25	5.2
2025-10-27T12:00	14200	136	-54.8	-81.2	292	25	5.1
2025-10-27T12:00	14250	135	-54.9	-81.2	293	25	5.0
2025-10-27T12:00	14300	134	-54.9	-81.2	294	24	5.0
2025-10-27T12:00	14350	133	-54.8	-81.2	294	23	5.0
2025-10-27T12:00	14400	132	-54.8	-81.0	294	21	4.9
2025-10-27T12:00	14450	131	-55.1	-80.5	293	20	4.9
2025-10-27T12:00	14500	130	-55.4	-79.9	291	19	4.8
2025-10-27T12:00	14550	129	-55.6	-79.8	287	17	4.8
2025-10-27T12:00	14600	128	-55.4	-80.1	283	16	4.8
2025-10-27T12:00	14650	127	-55.2	-80.9	276	15	4.7
2025-10-27T12:00	14700	126	-55.2	-81.9	269	15	4.6
2025-10-27T12:00	14750	125	-55.0	-82.4	264	15	4.6
2025-10-27T12:00	14800	124	-55.0	-82.4	261	16	4.6
2025-10-27T12:00	14850	123	-55.2	-82.3	260	16	4.6
2025-10-27T12:00	14900	122	-55.7	-82.3	258	15	4.5
2025-10-27T12:00	14950	121	-56.0	-82.1	256	15	4.4
2025-10-27T12:00	15000	120	-56.4	-82.0	253	14	4.4
2025-10-27T12:00	15050	119	-56.9	-82.1	249	14	4.4
2025-10-27T12:00	15100	118	-57.2	-82.1	245	14	4.3
2025-10-27T12:00	15150	117	-57.7	-82.2	243	14	4.3
2025-10-27T12:00	15200	116	-58.2	-82.3	241	14	4.3
2025-10-27T12:00	15250	115	-58.5	-82.5	239	15	4.3
2025-10-27T12:00	15300	114	-59.0	-82.8	237	16	4.2
2025-10-27T12:00	15350	113	-59.3	-82.8	236	16	4.2
2025-10-27T12:00	15400	113	-59.8	-83.0	235	16	4.2
2025-10-27T12:00	15450	112	-60.3	-83.1	234	16	4.2
2025-10-27T12:00	15500	111	-60.7	-83.3	234	16	4.1
2025-10-27T12:00	15550	110	-61.2	-83.4	235	17	4.1
2025-10-27T12:00	15600	109	-61.5	-83.3	235	17	4.1
2025-10-27T12:00	15650	108	-61.6	-83.1	236	18	4.1
2025-10-27T12:00	15700	107	-61.7	-83.2	239	19	4.0
2025-10-27T12:00	15750	106	-61.8	-83.5	244	19	4.0
2025-10-27T12:00	15800	106	-61.6	-83.7	250	19	4.0
2025-10-27T12:00	15850	105	-61.8	-84.0	257	19	4.0
2025-10-27T12:00	15900	104	-62.2	-84.3	262	19	4.0
2025-10-27T12:00	15950	103	-62.6	-84.5	266	20	4.0
2025-10-27T12:00	16000	102	-62.1	-84.1	270	21	4.0
2025-10-27T12:00	16050	101	-62.1	-83.9	273	21	4.1
2025-10-27T12:00	16100	100	-62.4	-84.0	275	21	4.4
2025-10-27T12:00	16150	100	-62.6	-84.1	277	21	4.5
2025-10-27T12:00	16200	99	-62.7	-84.3	280	21	4.6
2025-10-27T12:00	16250	98	-62.7	-84.4	284	21	4.7
2025-10-27T12:00	16300	97	-62.7	-84.5	286	21	4.9
2025-10-27T12:00	16350	96	-62.9	-84.5	288	21	5.1
2025-10-27T12:00	16400	96	-63.0	-84.0	286	21	5.3
2025-10-27T12:00	16450	95	-63.2	-83.3	283	20	5.5
2025-10-27T12:00	16500	94	-63.7	-83.4	281	20	5.7
2025-10-27T12:00	16550	93	-64.1	-84.0	281	21	5.8
2025-10-27T12:00	16600	93	-64.5	-84.3	280	21	5.9
2025-10-27T12:00	16650	92	-64.8	-84.3	278	22	5.9
2025-10-27T12:00	16700	91	-65.1	-84.7	278	24	6.0
2025-10-27T12:00	16750	90	-64.8	-84.8	279	26	6.1
2025-10-27T12:00	16800	90	-64.5	-84.8	281	27	6.1
2025-10-27T12:00	16850	89	-64.4	-84.6	284	26	6.2
2025-10-27T12:00	16900	88	-64.2	-84.7	287	25	6.1
2025-10-27T12:00	16950	87	-63.6	-84.6	290	23	6.1
2025-10-27T12:00	17000	87	-63.6	-84.7	290	24	6.1
2025-10-27T12:00	17050	86	-63.9	-85.2	292	24	6.0
2025-10-27T12:00	17100	85	-63.7	-85.3	294	24	5.9
2025-10-27T12:00	17150	85	-63.4	-85.4	297	24	6.0
2025-10-27T12:00	17200	84	-63.5	-85.3	298	23	6.1
2025-10-27T12:00	17250	83	-63.6	-84.6	298	23	6.1
2025-10-27T12:00	17300	83	-63.3	-83.7	296	22	6.1
2025-10-27T12:00	17350	82	-62.5	-83.9	295	22	6.1
2025-10-27T12:00	17400	81	-61.7	-84.2	295	21	6.4
2025-10-27T12:00	17450	81	-61.3	-85.3	296	20	7.0
2025-10-27T12:00	17500	80	-60.9	-85.4	298	20	7.4
2025-10-27T12:00	17550	79	-60.6	-84.7	299	20	7.8
2025-10-27T12:00	17600	79	-60.5	-85.0	298	20	8.1
2025-10-27T12:00	17650	78	-60.3	-85.4	298	20	8.3
2025-10-27T12:00	17700	77	-60.0	-85.2	298	20	8.5
2025-10-27T12:00	17750	77	-59.6	-84.0	295	20	8.6
2025-10-27T12:00	17800	76	-59.5	-83.7	293	21	8.5
2025-10-27T12:00	17850	76	-59.1	-84.9	292	22	8.5
2025-10-27T12:00	17900	75	-58.4	-85.3	294	22	8.6
2025-10-27T12:00	17950	74	-58.4	-85.3	295	24	8.8
2025-10-27T12:00	18000	74	-58.4	-85.1	294	25	8.8
2025-10-27T12:00	18050	73	-58.5	-84.9	295	25	8.7
2025-10-27T12:00	18100	73	-58.5	-84.8	298	24	8.6
2025-10-27T12:00	18150	72	-58.4	-84.1	301	23	8.7
2025-10-27T12:00	18200	72	-58.5	-83.7	300	22	8.7
2025-10-27T12:00	18250	71	-57.7	-84.6	299	20	8.8
2025-10-27T12:00	18300	70	-57.0	-85.0	296	17	8.9
2025-10-27T12:00	18350	70	-56.3	-84.4	294	15	9.1
2025-10-27T12:00	18400	69	-55.9	-83.0	292	14	9.4
2025-10-27T12:00	18450	69	-55.9	-82.5	291	14	9.9
2025-10-27T12:00	18500	68	-56.1	-83.9	289	12	10.2
2025-10-27T12:00	18550	68	-56.0	-83.6	290	11	10.5
2025-10-27T12:00	18600	67	-56.0	-81.8	290	11	10.8
2025-10-27T12:00	18650	67	-56.1	-80.9	289	10	11.0
2025-10-27T12:00	18700	66	-55.9	-81.6	286	9	11.1
2025-10-27T12:00	18750	66	-56.2	-82.9	283	7	11.0
2025-10-27T12:00	18800	65	-56.5	-83.6	278	4	10.8
2025-10-27T12:00	18850	65	-56.8	-83.5	265	3	10.7
2025-10-27T12:00	18900	64	-57.2	-83.0	258	3	10.7
2025-10-27T12:00	18950	64	-57.8	-82.3	254	3	10.6
2025-10-27T12:00	19000	63	-58.2	-81.8	247	3	10.5
2025-10-27T12:00	19050	63	-58.6	-81.3	249	3	10.4
2025-10-27T12:00	19100	62	-59.1	-81.3	260	3	10.4
2025-10-27T12:00	19150	62	-59.7	-82.4	258	3	10.3
2025-10-27T12:00	19200	61	-60.1	-84.1	252	3	10.2
2025-10-27T12:00	19250	61	-60.5	-85.3	258	3	10.1
2025-10-27T12:00	19300	60	-60.9	-85.6	265	3	10.2
2025-10-27T12:00	19350	60	-61.4	-85.4	271	3	10.1
2025-10-27T12:00	19400	59	-61.8	-84.7	278	3	10.0
2025-10-27T12:00	19450	59	-62.4	-84.5	285	3	9.9
2025-10-27T12:00	19500	58	-62.7	-85.0	292	3	9.9
2025-10-27T12:00	19550	58	-63.0	-86.0	302	2	9.9
2025-10-27T12:00	19600	57	-63.4	-86.4	306	3	9.8
2025-10-27T12:00	19650	57	-63.7	-86.3	302	4	9.7
2025-10-27T12:00	19700	56	-64.0	-85.7	292	4	9.7
2025-10-27T12:00	19750	56	-64.2	-85.1	280	5	9.8
2025-10-27T12:00	19800	55	-64.6	-85.4	270	5	9.7
2025-10-27T12:00	19850	55	-65.1	-86.4	265	6	9.6
2025-10-27T12:00	19900	55	-65.5	-86.9	264	6	9.5
2025-10-27T12:00	19950	54	-65.7	-86.7	266	6	9.5
2025-10-27T12:00	20000	54	-66.3	-86.6	270	7	9.5
2025-10-27T12:00	20050	53	-66.6		276	8	9.4
2025-10-27T12:00	20100	53	-66.9		282	9	9.4
2025-10-27T12:00	20150	52	-67.0		284	10	9.5
2025-10-27T12:00	20200	52	-67.0		280	11	9.5
2025-10-27T12:00	20250	51	-66.8		276	12	9.6
2025-10-27T12:00	20300	51	-66.9		271	13	9.7
2025-10-27T12:00	20350	51	-67.1		265	15	10.0
2025-10-27T12:00	20400	50	-67.3		261	17	10.1
2025-10-27T12:00	20450	50	-67.9		259	18	10.2
2025-10-27T12:00	20500	49	-68.0		260	20	10.2
2025-10-27T12:00	20550	49	-67.7		264	21	10.2
2025-10-27T12:00	20600	49	-66.9		270	22	10.2
2025-10-27T12:00	20650	48	-66.8		275	22	10.5
2025-10-27T12:00	20700	48	-66.2		278	24	10.6
2025-10-27T12:00	20750	47	-64.9		278	25	10.7
2025-10-27T12:00	20800	47	-63.3		277	26	10.9
2025-10-27T12:00	20850	47	-63.4		276	27	11.3
2025-10-27T12:00	20900	46	-63.6		276	28	11.6
2025-10-27T12:00	20950	46	-63.5		277	28	11.8
2025-10-27T12:00	21000	45	-62.9		280	28	11.9
2025-10-27T12:00	21050	45	-62.2		283	28	11.9
2025-10-27T12:00	21100	45	-61.8		286	27	12.3
2025-10-27T12:00	21150	44	-61.1		287	25	12.6
2025-10-27T12:00	21200	44	-60.2		283	23	12.8
2025-10-27T12:00	21250	44	-57.6		280	23	13.2
2025-10-27T12:00	21300	43	-56.8		280	23	13.4
2025-10-27T12:00	21350	43	-56.2		280	22	13.7
2025-10-27T12:00	21400	43	-55.7		279	21	14.0
2025-10-27T12:00	21450	42	-55.8		280	19	14.2
2025-10-27T12:00	21500	42	-56.2		283	19	14.4
2025-10-27T12:00	21550	42	-56.6		285	18	14.4
2025-10-27T12:00	21600	41	-56.7		285	17	14.7
2025-10-27T12:00	21650	41	-56.5		283	17	14.5
2025-10-27T12:00	21700	41	-56.7		279	16	14.6
2025-10-27T12:00	21750	40	-56.7		274	16	14.8
2025-10-27T12:00	21800	40	-56.8		269	15	14.9
2025-10-27T12:00	21850	40	-56.9		267	16	14.9
2025-10-27T12:00	21900	39	-56.9		266	16	14.9
2025-10-27T12:00	21950	39	-57.0		266	16	14.8
2025-10-27T12:00	22000	39	-56.8		266	15	14.9
2025-10-27T12:00	22050	38	-56.7		264	14	15.3
2025-10-27T12:00	22100	38	-56.5		259	12	15.4
2025-10-27T12:00	22150	38	-56.2		253	11	15.1
2025-10-27T12:00	22200	38	-56.1		249	10	15.2
2025-10-27T12:00	22250	37	-56.4		244	8	15.1
2025-10-27T12:00	22300	37	-56.5		238	6	15.6
2025-10-27T12:00	22350	37	-56.7		231	5	15.3
2025-10-27T12:00	22400	36	-57.2		223	4	15.0
2025-10-27T12:00	22450	36	-57.6		213	4	15.3
2025-10-27T12:00	22500	36	-58.1		205	5	15.4
2025-10-27T12:00	22550	36	-58.6		198	5	15.4
2025-10-27T12:00	22600	35	-59.0		193	6	14.7
2025-10-27T12:00	22650	35	-59.3		191	8	14.6
2025-10-27T12:00	22700	35	-59.7		195	8	14.5
2025-10-27T12:00	22750	34	-60.2		199	8	14.7
2025-10-27T12:00	22800	34	-60.3		203	8	14.6
2025-10-27T12:00	22850	34	-60.6		206	7	14.7
2025-10-27T12:00	22900	34	-61.0		211	6	14.9
2025-10-27T12:00	22950	33	-61.4		220	6	14.9
2025-10-27T12:00	23000	33	-62.0		229	7	14.6
2025-10-27T12:00	23050	33	-62.5		235	7	14.4
2025-10-27T12:00	23100	33	-62.8		238	8	14.1
2025-10-27T12:00	23150	32	-62.8		242	9	13.7
2025-10-27T12:00	23200	32	-63.0		247	11	13.8
2025-10-27T12:00	23250	32	-63.1		248	13	13.9
2025-10-27T12:00	23300	31	-63.0		247	14	13.8
2025-10-27T12:00	23350	31	-62.8		247	15	13.6
2025-10-27T12:00	23400	31	-63.0		249	15	13.6
2025-10-27T12:00	23450	31	-63.4		252	15	13.6
2025-10-27T12:00	23500	30	-63.7		256	15	13.5
2025-10-27T12:00	23550	30	-64.1		259	16	13.5
2025-10-27T12:00	23600	30	-64.4		262	17	13.6
2025-10-27T12:00	23650	30	-64.5		266	18	13.3
2025-10-27T12:00	23700	30	-64.5		269	19	13.3
2025-10-27T12:00	23750	29	-64.7		272	19	13.5
2025-10-27T12:00	23800	29	-64.5		276	19	13.0
2025-10-27T12:00	23850	29	-64.0		279	19	13.0
2025-10-27T12:00	23900	29	-64.1		280	19	13.2
2025-10-27T12:00	23950	28	-63.7		279	19	13.0
2025-10-27T12:00	24000	28	-63.5		277	20	13.0
2025-10-27T12:00	24050	28	-62.9		277	21	12.9
2025-10-27T12:00	24100	28	-62.1		277	22	12.6
2025-10-27T12:00	24150	27	-61.5		276	22	12.5
2025-10-27T12:00	24200	27	-61.4		276	22	12.6
2025-10-27T12:00	24250	27	-61.5		276	23	12.8
2025-10-27T12:00	24300	27	-61.7		274	23	12.9
2025-10-27T12:00	24350	27	-61.5		274	23	12.8
2025-10-27T12:00	24400	26	-61.3		275	23	12.8
2025-10-27T12:00	24450	26	-60.7		273	23	12.8
2025-10-27T12:00	24500	26	-60.6		270	24	12.4
2025-10-27T12:00	24550	26	-60.2		266	24	12.4
2025-10-27T12:00	24600	26	-58.7		264	25	12.4
2025-10-27T12:00	24650	25	-58.2		265	26	12.2
2025-10-27T12:00	24700	25	-57.3		265	27	12.1
2025-10-27T12:00	24750	25	-56.8		266	27	12.1
2025-10-27T12:00	24800	25	-56.2		267	28	12.0
2025-10-27T12:00	24850	25	-55.9		269	28	11.9
2025-10-27T12:00	24900	24	-55.8		271	28	11.9
2025-10-27T12:00	24950	24	-55.3		273	28	11.9
2025-10-27T12:00	25000	24	-55.0		275	26	11.8
2025-10-27T12:00	25050	24	-55.3		277	25	11.6
2025-10-27T12:00	25100	24	-55.2		276	24	11.2
2025-10-27T12:00	25150	23	-55.0		273	22	10.7
2025-10-27T12:00	25200	23	-54.8		268	22	10.3
2025-10-27T12:00	25250	23	-55.0		263	21	10.0
2025-10-27T12:00	25300	23	-55.1		259	20	9.7
2025-10-27T12:00	25350	23	-55.1		255	20	9.6
2025-10-27T12:00	25400	23	-54.7		252	20	9.3
2025-10-27T12:00	25450	22	-54.4		246	20	9.2
2025-10-27T12:00	25500	22	-54.2		240	20	9.4
2025-10-27T12:00	25550	22	-53.6		233	20	9.3
2025-10-27T12:00	25600	22	-53.2		229	19	9.2
2025-10-27T12:00	25650	22	-53.2		226	19	9.3
2025-10-27T12:00	25700	21	-53.4		226	20	9.2
2025-10-27T12:00	25750	21	-53.8		227	19	9.1
2025-10-27T12:00	25800	21	-54.2		230	19	9.0
2025-10-27T12:00	25850	21	-54.6		232	19	8.9
2025-10-27T12:00	25900	21	-54.9		235	20	8.9
2025-10-27T12:00	25950	21	-55.4		237	20	8.7
2025-10-27T12:00	26000	20	-55.8		240	19	8.8
2025-10-27T12:00	26050	20	-55.9		242	19	8.8
2025-10-27T12:00	26100	20	-56.2		242	19	8.8
2025-10-27T12:00	26150	20	-56.5		239	18	8.9
2025-10-27T12:00	26200	20	-56.8		237	19	8.9
2025-10-27T12:00	26250	20	-57.2		233	19	9.0
2025-10-27T12:00	26300	20	-57.6		231	19	8.9
2025-10-27T12:00	26350	19	-57.8		231	19	8.9
2025-10-27T12:00	26400	19	-58.0		232	19	8.8
2025-10-27T12:00	26450	19	-58.2		234	19	8.9
2025-10-27T12:00	26500	19	-58.6		237	19	8.9
2025-10-27T12:00	26550	19	-58.9		240	20	8.9
2025-10-27T12:00	26600	19	-59.3		243	20	8.8
2025-10-27T12:00	26650	18	-59.7		244	21	8.8
2025-10-27T12:00	26700	18	-60.1		245	22	8.8
2025-10-27T12:00	26750	18	-60.4		245	22	8.7
2025-10-27T12:00	26800	18	-60.7		244	22	8.8
2025-10-27T12:00	26850	18	-61.1		243	21	8.7
2025-10-27T12:00	26900	18	-61.4		242	21	8.7
2025-10-27T12:00	26950	18	-61.4		242	21	8.7
2025-10-27T12:00	27000	17	-61.7		242	22	8.7
2025-10-27T12:00	27050	17	-61.9		244	23	8.6
2025-10-27T12:00	27100	17	-62.2		246	23	8.6
2025-10-27T12:00	27150	17	-62.4		248	24	8.5
2025-10-27T12:00	27200	17	-62.6		250	25	8.6
2025-10-27T12:00	27250	17	-62.8		252	25	8.6
2025-10-27T12:00	27300	17	-63.0		254	27	8.5
2025-10-27T12:00	27350	17	-63.0		254	28	8.4
2025-10-27T12:00	27400	16	-63.0		255	29	8.3
2025-10-27T12:00	27450	16	-62.6		255	31	8.2
2025-10-27T12:00	27500	16	-62.4		255	33	8.3
2025-10-27T12:00	27550	16	-62.2		255	34	8.4
2025-10-27T12:00	27600	16	-62.0		257	35	8.5
2025-10-27T12:00	27650	16	-61.6		260	34	8.6
2025-10-27T12:00	27700	16	-61.1		264	33	8.4
2025-10-27T12:00	27750	15	-60.6		268	32	8.4
2025-10-27T12:00	27800	15	-60.0		269	32	8.5
2025-10-27T12:00	27850	15	-59.4		270	32	8.7
2025-10-27T12:00	27900	15	-58.9		269	33	8.8
2025-10-27T12:00	27950	15	-58.1		269	33	8.8
2025-10-27T12:00	28000	15	-57.7		270	34	8.7
2025-10-27T12:00	28050	15	-57.3		272	34	8.6
2025-10-27T12:00	28100	15	-57.1		274	35	8.4
2025-10-27T12:00	28150	15	-57.2		274	36	8.3
2025-10-27T12:00	28200	14	-57.2		274	36	8.2
2025-10-27T12:00	28250	14	-57.2		273	36	8.1
2025-10-27T12:00	28300	14	-57.6		273	36	8.0
2025-10-27T12:00	28350	14	-57.9		273	35	7.9
2025-10-27T12:00	28400	14	-58.3		273	35	7.8
2025-10-27T12:00	28450	14	-58.6		273	34	7.7
2025-10-27T12:00	28500	14	-58.9		273	34	7.6
2025-10-27T12:00	28550	14	-59.1		272	33	7.5
2025-10-27T12:00	28600	14	-59.2		271	33	7.5
2025-10-27T12:00	28650	13	-59.1		269	34	7.4
2025-10-27T12:00	28700	13	-59.1		267	35	7.3
2025-10-27T12:00	28750	13	-59.0		266	36	7.3
2025-10-27T12:00	28800	13	-58.9		265	38	7.3
2025-10-27T12:00	28850	13	-59.1		265	38	7.3
2025-10-27T12:00	28900	13	-59.1		264	39	7.2
2025-10-27T12:00	28950	13	-58.9		262	40	7.2
2025-10-27T12:00	29000	13	-58.5		260	42	7.3
2025-10-27T12:00	29050	13	-57.5		260	43	7.3
2025-10-27T12:00	29100	12	-56.1		262	44	7.3
2025-10-27T12:00	29150	12	-55.7		262	43	7.4
2025-10-27T12:00	29200	12	-55.8		261	42	7.3
2025-10-27T12:00	29250	12	-55.6		259	40	7.3
2025-10-27T12:00	29300	12	-54.9		260	41	7.1
2025-10-27T12:00	29350	12	-53.6		260	41	7.0
2025-10-27T12:00	29400	12	-52.4		260	42	6.9
2025-10-27T12:00	29450	12	-51.5		259	43	6.9
2025-10-27T12:00	29500	12	-51.0		258	44	6.9
2025-10-27T12:00	29550	12	-50.8		259	45	6.9
2025-10-27T12:00	29600	12	-50.8		259	46	6.9
2025-10-27T12:00	29650	11	-50.9		260	46	6.9
2025-10-27T12:00	29700	11	-51.1		261	47	6.9
2025-10-27T12:00	29750	11	-51.3		262	47	6.8
2025-10-27T12:00	29800	11	-51.6		263	46	6.7
2025-10-27T12:00	29850	11	-51.7		264	47	6.7
2025-10-27T12:00	29900	11	-52.1		264	47	6.6
2025-10-27T12:00	29950	11	-52.4		263	48	6.6
2025-10-27T12:00	30000	11	-52.3		263	49	6.5
2025-10-27T12:00	30050	11	-52.2		262	50	6.5
2025-10-27T12:00	30100	11	-52.0		262	50	6.5
2025-10-27T12:00	30150	11	-51.7		263	50	6.5
2025-10-27T12:00	30200	11	-51.9		264	50	6.4
2025-10-27T12:00	30250	10	-52.3		266	49	6.4
2025-10-27T12:00	30300	10	-52.5		267	49	6.3
2025-10-27T12:00	30350	10	-52.5		267	50	6.3
2025-10-27T12:00	30400	10	-52.3		268	50	6.2
2025-10-27T12:00	30450	10	-52.4		268	51	6.2
2025-10-27T12:00	30500	10	-52.2		268	51	6.1
2025-10-27T12:00	30550	10	-52.1		268	51	6.2
2025-10-27T12:00	30600	10	-52.0		268	50	6.2
2025-10-27T12:00	30650	10	-51.8		268	49	6.2
2025-10-27T12:00	30700	10	-51.6		268	48	6.1
2025-10-27T12:00	30750	10	-51.8		268	47	6.1
2025-10-27T12:00	30800	10	-52.0		268	46	6.0
2025-10-27T12:00	30850	10	-52.2		268	46	6.0
2025-10-27T12:00	30900	9	-52.4		267	45	5.9
2025-10-27T12:00	30950	9	-52.4		267	45	5.9
2025-10-27T12:00	31000	9	-52.3		267	45	5.8
2025-10-27T12:00	31050	9	-52.3		268	46	5.8
2025-10-27T12:00	31100	9	-52.4		268	46	5.8
2025-10-27T12:00	31150	9	-52.7		269	46	5.8
2025-10-27T12:00	31200	9	-52.9		269	46	5.7
2025-10-27T12:00	31250	9	-53.1		269	46	5.7
2025-10-27T12:00	31300	9	-53.1		269	46	5.7
2025-10-27T12:00	31350	9	-52.6		270	46	5.7
2025-10-27T12:00	31400	9	-52.3		272	47	5.6
2025-10-27T12:00	31450	9	-52.4		273	47	5.6
2025-10-27T12:00	31500	9	-52.6		274	48	5.5
2025-10-27T12:00	31550	9	-52.4		274	48	5.4
2025-10-27T12:00	31600	8	-52.1		273	48	5.4
2025-10-27T12:00	31650	8	-52.1		272	47	5.3
2025-10-27T12:00	31700	8	-51.6		272	46	5.3
2025-10-27T12:00	31750	8	-50.6		271	45	5.3
2025-10-27T12:00	31800	8	-49.3		268	43	5.2
2025-10-27T12:00	31850	8	-48.4		265	43	5.2
2025-10-27T12:00	31900	8	-48.0		262	43	5.1
2025-10-27T12:00	31950	8	-47.5		258	44	5.1
2025-10-27T12:00	32000	8	-47.4		255	45	5.0
2025-10-27T12:00	32050	8	-47.0		256	46	5.0
2025-10-27T12:00	32100	8	-46.4		258	47	5.0
2025-10-27T12:00	32150	8	-46.3		260	47	4.9
2025-10-27T12:00	32200	8	-46.5		261	47	4.9
2025-10-27T12:00	32250	8	-46.5		262	46	4.9
2025-10-27T12:00	32300	8	-46.7		263	45	4.8
2025-10-27T12:00	32350	8	-46.6		263	44	4.8
2025-10-27T12:00	32400	8	-46.4		264	43	4.8
2025-10-27T12:00	32450	7	-46.6		265	43	4.7
2025-10-27T12:00	32500	7	-46.8		266	43	4.7
2025-10-27T12:00	32550	7	-47.0		267	44	4.7
2025-10-27T12:00	32600	7	-47.0		268	44	4.6
2025-10-27T12:00	32650	7	-47.1		268	44	4.6
2025-10-27T12:00	32700	7	-47.1		267	44	4.5
2025-10-27T12:00	32750	7	-47.1		265	44	4.5
2025-10-27T12:00	32800	7	-47.2		264	45	4.5
2025-10-27T12:00	32850	7	-47.6		263	46	4.5
2025-10-27T12:00	32900	7	-48.0		262	47	4.5
2025-10-27T12:00	32950	7	-48.4		261	49	4.4
2025-10-27T12:00	33000	7	-48.6		261	50	4.4
2025-10-27T12:00	33050	7	-48.8		261	52	4.4
2025-10-27T12:00	33100	7	-49.2		261	53	4.3
2025-10-27T12:00	33150	7	-49.7		261	54	4.3
2025-10-27T12:00	33200	7	-49.5		262	54	4.2
2025-10-27T12:00	33250	7	-48.8		263	52	4.2
2025-10-27T12:00	33300	7	-48.0		261	52	4.2
2025-10-27T12:00	33350	6	-47.1		259	53	4.1
2025-10-27T12:00	33400	6	-47.0		258	54	4.1
2025-10-27T12:00	33450	6	-46.5		258	54	4.1
2025-10-27T12:00	33500	6	-45.6		258	55	4.1
2025-10-27T12:00	33550	6	-44.9		258	56	
2025-10-27T12:00	33600	6	-44.5		258	57	
2025-10-27T12:00	33650	6	-44.1		259	58	
2025-10-27T12:00	33700	6	-43.7		260	58	
2025-10-27T12:00	33750	6	-43.5		261	57	
2025-10-27T12:00	33800	6	-43.6		261	56	
2025-10-27T12:00	33850	6	-43.7		261	55	
2025-10-27T12:00	33900	6	-43.9		260	55	
2025-10-27T12:00	33950	6	-44.2		260	54	
2025-10-27T12:00	34000	6	-44.3		259	54	
2025-10-27T12:00	34050	6	-44.3		259	54	
2025-10-27T12:00	34100	6	-44.4		259	54	
2025-10-27T12:00	34150	6	-44.5		259	54	
2025-10-27T12:00	34200	6	-44.5		259	54	
2025-10-27T12:00	34250	6	-44.8		259	55	
2025-10-27T12:00	34300	6	-45.2		259	55	
2025-10-27T12:00	34350	6	-45.4		259	56	
2025-10-27T12:00	34400	6	-45.6		259	57	
2025-10-27T12:00	34450	6	-45.7		259	58	
2025-10-27T12:00	34500	5	-45.9		259	59	
2025-10-27T12:00	34550	5	-46.0		258	60	
2025-10-27T12:00	34600	5	-46.2		258	60	
2025-10-27T12:00	34650	5	-46.3		258	60	
2025-10-27T12:00	34700	5	-46.4		258	60	
2025-10-28T00:00	491	960	8.6	6.1	188	2	
2025-10-28T00:00	501	959	8.6	6.2	213	2	
2025-10-28T00:00	520	957	8.7	5.8	216	2	
2025-10-28T00:00	540	954	8.7	5.4	217	3	
2025-10-28T00:00	560	952	8.7	5.2	218	4	
2025-10-28T00:00	580	950	8.9	4.9	218	5	
2025-10-28T00:00	600	948	9.1	4.7	218	6	
2025-10-28T00:00	620	945	9.1	4.5	218	6	
2025-10-28T00:00	640	943	9.1	4.4	218	7	
2025-10-28T00:00	660	941	9.1	4.5	218	8	
2025-10-28T00:00	680	938	9.0	4.7	218	8	
2025-10-28T00:00	700	936	8.9	4.9	218	8	
2025-10-28T00:00	720	934	8.8	4.9	218	9	
2025-10-28T00:00	740	931	8.7	4.9	219	9	
2025-10-28T00:00	760	929	8.6	4.9	220	9	
2025-10-28T00:00	780	928	8.5	4.7	221	10	
2025-10-28T00:00	800	925	8.5	4.3	223	10	
2025-10-28T00:00	820	923	8.4	3.8	225	10	
2025-10-28T00:00	840	921	8.3	3.6	226	10	
2025-10-28T00:00	860	918	8.2	3.4	227	11	
2025-10-28T00:00	880	916	8.0	3.4	228	11	
2025-10-28T00:00	900	914	7.9	3.4	229	11	
2025-10-28T00:00	920	911	7.7	3.2	229	12	
2025-10-28T00:00	940	909	7.5	3.3	229	12	
2025-10-28T00:00	960	907	7.3	3.2	229	12	
2025-10-28T00:00	980	905	7.2	3.1	229	12	
2025-10-28T00:00	1000	903	7.0	3.1	228	12	
2025-10-28T00:00	1020	901	6.8	3.1	228	12	
2025-10-28T00:00	1040	899	6.6	3.0	228	12	
2025-10-28T00:00	1060	896	6.4	3.0	228	12	
2025-10-28T00:00	1080	894	6.2	2.9	228	12	
2025-10-28T00:00	1100	892	6.1	2.9	228	12	
2025-10-28T00:00	1120	890	5.9	2.9	228	12	
2025-10-28T00:00	1140	887	5.7	2.8	227	12	
2025-10-28T00:00	1160	885	5.5	2.8	227	12	
2025-10-28T00:00	1180	883	5.3	2.7	227	12	
2025-10-28T00:00	1200	881	5.1	2.7	227	12	
2025-10-28T00:00	1220	879	4.9	2.6	227	12	
2025-10-28T00:00	1240	877	4.7	2.6	228	12	
2025-10-28T00:00	1260	875	4.5	2.5	228	12	
2025-10-28T00:00	1280	873	4.4	2.5	229	12	
2025-10-28T00:00	1300	870	4.2	2.4	229	12	
2025-10-28T00:00	1320	868	4.0	2.2	229	12	
2025-10-28T00:00	1340	866	3.8	2.2	229	12	
2025-10-28T00:00	1360	864	3.6	2.1	229	12	
2025-10-28T00:00	1380	862	3.4	2.1	229	12	
2025-10-28T00:00	1400	860	3.2	2.0	229	12	
2025-10-28T00:00	1420	858	3.1	1.9	229	12	
2025-10-28T00:00	1440	855	2.9	1.9	229	11	
2025-10-28T00:00	1460	853	2.6	1.8	230	11	
2025-10-28T00:00	1480	851	2.5	1.7	231	11	
2025-10-28T00:00	1500	849	2.3	1.7	232	11	
2025-10-28T00:00	1520	847	2.1	1.6	234	11	
2025-10-28T00:00	1540	845	1.9	1.6	236	10	
2025-10-28T00:00	1560	843	1.8	1.5	236	10	
2025-10-28T00:00	1580	841	1.6	1.4	237	10	
2025-10-28T00:00	1600	839	1.4	1.2	238	10	
2025-10-28T00:00	1620	836	1.2	0.9	239	10	
2025-10-28T00:00	1640	835	1.1	0.5	238	9	
2025-10-28T00:00	1660	832	0.9	0.5	238	9	
2025-10-28T00:00	1680	830	0.7	0.5	237	9	
2025-10-28T00:00	1700	828	0.6	0.4	236	9	
2025-10-28T00:00	1720	826	0.4	0.4	235	9	
2025-10-28T00:00	1740	824	0.2	0.2	234	9	
2025-10-28T00:00	1760	822	0.1	0.1	233	9	
2025-10-28T00:00	1780	820	-0.1	-0.1	233	9	
2025-10-28T00:00	1800	818	-0.2	-0.2	232	9	
2025-10-28T00:00	1820	816	-0.3	-0.3	232	9	
2025-10-28T00:00	1840	814	-0.4	-0.4	232	9	
2025-10-28T00:00	1860	812	-0.5	-0.5	233	9	
2025-10-28T00:00	1880	810	-0.7	-0.7	233	10	
2025-10-28T00:00	1900	808	-0.8	-0.8	234	10	
2025-10-28T00:00	1920	806	-0.9	-0.9	234	10	
2025-10-28T00:00	1940	804	-1.0	-1.0	235	10	
2025-10-28T00:00	1960	802	-1.2	-1.2	236	10	
2025-10-28T00:00	1980	800	-1.3	-1.3	236	10	
2025-10-28T00:00	2000	798	-1.4	-1.4	237	10	
2025-10-28T00:00	2020	796	-1.5	-1.5	238	10	
2025-10-28T00:00	2040	794	-1.7	-1.7	239	10	
2025-10-28T00:00	2060	792	-1.8	-1.8	240	10	
2025-10-28T00:00	2080	790	-1.9	-1.9	242	10	
2025-10-28T00:00	2100	788	-2.0	-2.0	244	10	
2025-10-28T00:00	2120	786	-2.2	-2.2	246	9	
2025-10-28T00:00	2140	784	-2.3	-2.3	248	9	
2025-10-28T00:00	2160	782	-2.4	-2.4	249	9	
2025-10-28T00:00	2180	780	-2.5	-2.5	250	9	
2025-10-28T00:00	2200	778	-2.6	-2.7	251	9	
2025-10-28T00:00	2220	776	-2.8	-2.8	252	9	
2025-10-28T00:00	2240	774	-2.9	-2.9	253	9	
2025-10-28T00:00	2260	772	-3.0	-3.0	254	9	
2025-10-28T00:00	2280	770	-3.1	-3.1	256	9	
2025-10-28T00:00	2300	768	-3.2	-3.2	258	9	
2025-10-28T00:00	2320	767	-3.3	-3.3	259	9	
2025-10-28T00:00	2340	765	-3.4	-3.5	261	9	
2025-10-28T00:00	2360	762	-3.5	-3.6	264	9	
2025-10-28T00:00	2380	760	-3.5	-3.6	266	9	
2025-10-28T00:00	2400	759	-3.6	-3.7	268	9	
2025-10-28T00:00	2420	757	-3.7	-3.9	270	9	
2025-10-28T00:00	2440	755	-3.9	-4.0	272	8	
2025-10-28T00:00	2460	753	-4.0	-4.2	273	8	
2025-10-28T00:00	2480	751	-4.1	-4.3	274	8	
2025-10-28T00:00	2500	749	-4.3	-4.5	274	8	
2025-10-28T00:00	2520	747	-4.3	-4.4	274	8	
2025-10-28T00:00	2540	745	-4.4	-4.5	273	8	
2025-10-28T00:00	2560	744	-4.6	-4.7	273	8	
2025-10-28T00:00	2580	742	-4.6	-4.8	272	9	
2025-10-28T00:00	2600	740	-4.7	-4.9	271	9	
2025-10-28T00:00	2620	738	-5.0	-5.2	270	10	
2025-10-28T00:00	2640	736	-5.0	-5.2	269	10	
2025-10-28T00:00	2660	734	-5.2	-5.3	269	10	
2025-10-28T00:00	2680	732	-5.3	-5.6	269	11	
2025-10-28T00:00	2700	730	-5.4	-5.7	269	11	
2025-10-28T00:00	2720	728	-5.5	-5.7	269	11	
2025-10-28T00:00	2740	726	-5.6	-5.9	270	11	
2025-10-28T00:00	2760	725	-5.7	-5.9	271	11	
2025-10-28T00:00	2780	723	-5.9	-6.1	272	11	
2025-10-28T00:00	2800	721	-6.0	-6.3	272	11	
2025-10-28T00:00	2820	719	-6.1	-6.4	272	11	
2025-10-28T00:00	2840	717	-6.2	-6.6	271	11	
2025-10-28T00:00	2860	715	-6.3	-6.7	271	11	
2025-10-28T00:00	2880	714	-6.5	-6.8	270	12	
2025-10-28T00:00	2900	712	-6.6	-6.9	271	12	
2025-10-28T00:00	2920	710	-6.7	-7.1	271	12	
2025-10-28T00:00	2940	708	-6.8	-7.2	272	13	
2025-10-28T00:00	2960	706	-6.9	-7.3	274	13	
2025-10-28T00:00	2980	704	-7.1	-7.3	276	13	
2025-10-28T00:00	3000	703	-7.2	-7.5	278	14	
2025-10-28T00:00	3020	701	-7.3	-7.6	279	14	
2025-10-28T00:00	3040	699	-7.4	-7.8	281	14	
2025-10-28T00:00	3060	697	-7.5	-7.9	282	14	
2025-10-28T00:00	3080	696	-7.6	-8.1	283	14	
2025-10-28T00:00	3100	694	-7.7	-8.2	283	15	
2025-10-28T00:00	3120	692	-7.8	-8.3	284	15	
2025-10-28T00:00	3140	690	-7.9	-8.4	284	15	
2025-10-28T00:00	3160	689	-8.2	-8.6	285	16	
2025-10-28T00:00	3180	687	-8.2	-8.6	286	16	
2025-10-28T00:00	3200	685	-8.4	-8.9	288	17	
2025-10-28T00:00	3220	683	-8.6	-9.1	291	17	
2025-10-28T00:00	3240	681	-8.6	-9.2	294	18	
2025-10-28T00:00	3260	680	-8.8	-9.4	297	18	
2025-10-28T00:00	3280	678	-9.0	-9.6	300	18	
2025-10-28T00:00	3300	676	-9.4	-10.3	303	18	
2025-10-28T00:00	3320	675	-9.7	-12.9	306	19	
2025-10-28T00:00	3340	673	-9.9	-14.6	307	19	
2025-10-28T00:00	3360	671	-10.1	-16.4	308	19	
2025-10-28T00:00	3380	669	-10.3	-19.4	308	20	
2025-10-28T00:00	3400	668	-10.4	-25.2	308	20	
2025-10-28T00:00	3420	666	-10.6	-29.7	309	20	
2025-10-28T00:00	3440	664	-10.8	-32.5	309	21	
2025-10-28T00:00	3460	662	-11.0	-33.3	310	21	
2025-10-28T00:00	3480	660	-11.2	-33.6	310	22	
2025-10-28T00:00	3500	659	-11.4	-29.5	310	22	
2025-10-28T00:00	3520	657	-11.4	-17.1	310	22	
2025-10-28T00:00	3540	655	-10.7	-14.0	311	23	
2025-10-28T00:00	3560	654	-9.9	-11.3	311	23	
2025-10-28T00:00	3580	652	-9.9	-11.8	312	23	
2025-10-28T00:00	3600	650	-9.6	-10.7	313	22	
2025-10-28T00:00	3620	649	-9.4	-10.2	314	22	
2025-10-28T00:00	3640	647	-9.4	-10.1	315	22	
2025-10-28T00:00	3660	645	-9.4	-10.2	316	22	
2025-10-28T00:00	3680	644	-9.4	-10.1	316	22	
2025-10-28T00:00	3700	642	-9.6	-10.8	315	22	
2025-10-28T00:00	3720	640	-9.7	-11.2	314	22	
2025-10-28T00:00	3740	639	-9.8	-11.3	312	21	
2025-10-28T00:00	3760	637	-9.9	-11.3	311	21	
2025-10-28T00:00	3780	635	-9.9	-11.1	310	22	
2025-10-28T00:00	3800	634	-9.9	-11.2	310	22	
2025-10-28T00:00	3820	632	-9.9	-11.1	310	22	
2025-10-28T00:00	3840	631	-10.0	-11.2	311	22	
2025-10-28T00:00	3860	629	-10.0	-11.4	312	23	
2025-10-28T00:00	3880	627	-10.1	-11.5	314	23	
2025-10-28T00:00	3900	626	-10.1	-11.6	315	24	
2025-10-28T00:00	3920	624	-10.2	-11.8	316	24	
2025-10-28T00:00	3940	622	-10.3	-11.8	316	25	
2025-10-28T00:00	3960	621	-10.3	-11.8	317	25	
2025-10-28T00:00	3980	619	-10.3	-12.1	317	26	
2025-10-28T00:00	4000	618	-10.3	-12.5	317	27	
2025-10-28T00:00	4020	616	-10.3	-12.8	317	27	
2025-10-28T00:00	4040	614	-10.5	-13.4	316	27	
2025-10-28T00:00	4060	613	-10.6	-14.1	316	28	
2025-10-28T00:00	4080	611	-10.6	-14.3	316	28	
2025-10-28T00:00	4100	609	-10.6	-14.1	317	28	
2025-10-28T00:00	4120	608	-10.7	-14.1	317	28	
2025-10-28T00:00	4140	606	-10.8	-14.0	317	28	
2025-10-28T00:00	4160	605	-10.8	-14.0	317	28	
2025-10-28T00:00	4180	603	-10.9	-14.0	317	28	
2025-10-28T00:00	4200	602	-10.9	-13.8	316	28	
2025-10-28T00:00	4220	600	-11.0	-13.7	316	28	
2025-10-28T00:00	4240	598	-11.1	-13.7	315	28	
2025-10-28T00:00	4260	597	-11.2	-13.8	315	28	
2025-10-28T00:00	4280	595	-11.4	-13.9	315	28	
2025-10-28T00:00	4300	594	-11.5	-14.0	314	28	
2025-10-28T00:00	4320	592	-11.6	-14.1	314	28	
2025-10-28T00:00	4340	591	-11.8	-14.1	314	28	
2025-10-28T00:00	4360	589	-11.9	-14.2	313	28	
2025-10-28T00:00	4380	588	-12.0	-14.2	313	28	
2025-10-28T00:00	4400	586	-12.1	-14.1	313	28	
2025-10-28T00:00	4420	585	-12.2	-14.1	312	28	
2025-10-28T00:00	4440	583	-12.3	-13.9	313	28	
2025-10-28T00:00	4460	582	-12.3	-13.9	313	28	
2025-10-28T00:00	4480	580	-12.5	-14.4	314	28	
2025-10-28T00:00	4500	578	-12.7	-14.5	315	28	
2025-10-28T00:00	4520	577	-12.8	-14.7	315	28	
2025-10-28T00:00	4540	576	-13.0	-14.8	316	28	
2025-10-28T00:00	4560	574	-13.1	-14.9	316	28	
2025-10-28T00:00	4580	573	-13.2	-14.9	316	28	
2025-10-28T00:00	4600	571	-13.3	-15.1	316	28	
2025-10-28T00:00	4620	570	-13.4	-15.4	316	29	
2025-10-28T00:00	4640	568	-13.6	-15.7	316	29	
2025-10-28T00:00	4660	567	-13.8	-16.0	315	29	
2025-10-28T00:00	4680	565	-13.9	-16.1	315	28	
2025-10-28T00:00	4700	564	-14.1	-16.1	315	28	
2025-10-28T00:00	4720	562	-14.2	-16.2	314	28	
2025-10-28T00:00	4740	561	-14.4	-16.3	314	28	
2025-10-28T00:00	4760	559	-14.6	-16.6	313	28	
2025-10-28T00:00	4780	558	-14.7	-17.1	313	28	
2025-10-28T00:00	4800	556	-14.9	-17.2	312	28	
2025-10-28T00:00	4820	555	-15.0	-17.5	312	28	
2025-10-28T00:00	4840	553	-15.1	-17.6	312	28	
2025-10-28T00:00	4860	552	-15.1	-17.4	312	28	
2025-10-28T00:00	4880	550	-15.2	-17.4	313	28	
2025-10-28T00:00	4900	549	-15.3	-17.6	313	28	
2025-10-28T00:00	4920	547	-15.5	-17.8	313	28	
2025-10-28T00:00	4940	546	-15.6	-18.0	313	29	
2025-10-28T00:00	4960	545	-15.7	-18.1	313	29	
2025-10-28T00:00	4980	543	-15.9	-18.5	313	29	
2025-10-28T00:00	5000	542	-15.9	-18.5	313	29	
2025-10-28T00:00	5020	540	-16.0	-18.7	312	30	
2025-10-28T00:00	5040	539	-16.1	-18.7	312	30	
2025-10-28T00:00	5060	537	-16.1	-18.5	312	30	
2025-10-28T00:00	5080	536	-16.1	-18.4	311	30	
2025-10-28T00:00	5100	535	-16.2	-18.5	311	30	
2025-10-28T00:00	5120	533	-16.3	-18.5	311	30	
2025-10-28T00:00	5140	532	-16.5	-18.9	311	30	
2025-10-28T00:00	5160	530	-16.6	-19.3	312	30	
2025-10-28T00:00	5180	529	-16.8	-19.5	313	30	
2025-10-28T00:00	5200	528	-16.9	-19.6	313	30	
2025-10-28T00:00	5220	526	-17.0	-19.6	314	30	
2025-10-28T00:00	5240	525	-17.2	-20.0	314	30	
2025-10-28T00:00	5260	523	-17.3	-20.2	314	30	
2025-10-28T00:00	5280	522	-17.4	-20.8	315	30	
2025-10-28T00:00	5300	520	-17.5	-21.4	315	31	
2025-10-28T00:00	5320	519	-17.5	-21.5	315	31	
2025-10-28T00:00	5340	518	-17.6	-21.7	315	31	
2025-10-28T00:00	5360	516	-17.7	-21.4	315	31	
2025-10-28T00:00	5380	515	-17.7	-20.9	316	31	
2025-10-28T00:00	5400	513	-17.7	-20.7	316	30	
2025-10-28T00:00	5420	512	-17.7	-20.8	317	30	
2025-10-28T00:00	5440	511	-17.9	-21.2	318	30	
2025-10-28T00:00	5460	510	-18.0	-21.3	318	30	
2025-10-28T00:00	5480	508	-18.1	-21.5	319	30	
2025-10-28T00:00	5500	507	-18.3	-22.2	319	31	
2025-10-28T00:00	5520	505	-18.5	-22.9	319	31	
2025-10-28T00:00	5540	504	-18.7	-23.1	320	31	
2025-10-28T00:00	5560	503	-18.8	-23.2	319	32	
2025-10-28T00:00	5580	501	-18.9	-22.9	319	32	
2025-10-28T00:00	5600	500	-19.0	-22.7	318	32	
2025-10-28T00:00	5620	499	-19.1	-22.4	318	33	
2025-10-28T00:00	5640	497	-19.2	-22.3	317	33	
2025-10-28T00:00	5660	496	-19.3	-22.1	316	33	
2025-10-28T00:00	5680	495	-19.5	-22.1	316	32	
2025-10-28T00:00	5700	493	-19.6	-22.2	315	32	
2025-10-28T00:00	5720	492	-19.7	-22.2	315	32	
2025-10-28T00:00	5740	491	-19.8	-22.3	315	32	
2025-10-28T00:00	5760	489	-19.9	-22.1	315	32	
2025-10-28T00:00	5780	488	-20.1	-22.3	316	32	
2025-10-28T00:00	5800	487	-20.2	-22.5	316	32	
2025-10-28T00:00	5820	485	-20.4	-22.4	316	32	
2025-10-28T00:00	5840	484	-20.5	-22.4	317	32	
2025-10-28T00:00	5860	483	-20.6	-22.5	317	32	
2025-10-28T00:00	5880	481	-20.8	-22.5	318	32	
2025-10-28T00:00	5900	480	-21.0	-22.8	318	32	
2025-10-28T00:00	5920	479	-21.1	-22.9	319	32	
2025-10-28T00:00	5940	478	-21.3	-23.2	319	32	
2025-10-28T00:00	5960	476	-21.4	-23.3	320	32	
2025-10-28T00:00	5980	475	-21.5	-23.3	320	32	
2025-10-28T00:00	6000	474	-21.6	-23.3	321	32	
2025-10-28T00:00	6020	472	-21.8	-23.4	322	32	
2025-10-28T00:00	6040	471	-21.9	-23.5	322	32	
2025-10-28T00:00	6060	470	-22.0	-23.6	322	32	
2025-10-28T00:00	6080	469	-22.2	-24.2	323	32	
2025-10-28T00:00	6100	467	-22.3	-25.0	323	32	
2025-10-28T00:00	6120	466	-22.5	-25.8	323	32	
2025-10-28T00:00	6140	465	-22.7	-26.2	323	32	
2025-10-28T00:00	6160	464	-22.8	-26.3	324	32	
2025-10-28T00:00	6180	462	-22.9	-26.4	324	32	
2025-10-28T00:00	6200	461	-23.0	-26.6	324	32	
2025-10-28T00:00	6220	460	-23.2	-26.7	324	32	
2025-10-28T00:00	6240	458	-23.4	-26.7	324	33	
2025-10-28T00:00	6260	457	-23.5	-26.6	324	33	
2025-10-28T00:00	6280	456	-23.6	-26.6	325	33	
2025-10-28T00:00	6300	455	-23.8	-26.9	325	34	
2025-10-28T00:00	6320	453	-23.9	-26.9	325	34	
2025-10-28T00:00	6340	452	-24.0	-26.9	326	34	
2025-10-28T00:00	6360	451	-24.1	-26.9	326	35	
2025-10-28T00:00	6380	450	-24.2	-27.4	326	35	
2025-10-28T00:00	6400	448	-24.4	-28.3	327	35	
2025-10-28T00:00	6420	447	-24.5	-28.5	327	35	
2025-10-28T00:00	6440	446	-24.7	-28.5	326	35	
2025-10-28T00:00	6460	445	-24.8	-28.4	326	36	
2025-10-28T00:00	6480	444	-25.0	-28.3	326	36	
2025-10-28T00:00	6500	442	-25.1	-28.1	326	36	
2025-10-28T00:00	6520	441	-25.2	-27.8	325	36	
2025-10-28T00:00	6540	440	-25.3	-27.9	325	36	
2025-10-28T00:00	6560	439	-25.5	-28.1	325	37	
2025-10-28T00:00	6580	438	-25.6	-27.9	324	37	
2025-10-28T00:00	6600	436	-25.7	-28.4	324	37	
2025-10-28T00:00	6620	435	-25.8	-29.0	324	37	
2025-10-28T00:00	6640	434	-26.0	-29.3	324	37	
2025-10-28T00:00	6660	433	-26.1	-29.6	325	37	
2025-10-28T00:00	6680	432	-26.3	-29.6	325	37	
2025-10-28T00:00	6700	430	-26.4	-29.6	325	38	
2025-10-28T00:00	6720	429	-26.6	-29.6	326	38	
2025-10-28T00:00	6740	428	-26.7	-29.5	326	38	
2025-10-28T00:00	6760	427	-26.9	-29.5	326	39	
2025-10-28T00:00	6780	426	-27.0	-29.7	326	39	
2025-10-28T00:00	6800	424	-27.2	-29.7	326	39	
2025-10-28T00:00	6820	423	-27.3	-30.0	326	40	
2025-10-28T00:00	6840	422	-27.5	-30.3	326	40	
2025-10-28T00:00	6860	421	-27.6	-30.6	325	39	
2025-10-28T00:00	6880	420	-27.8	-30.8	325	39	
2025-10-28T00:00	6900	419	-27.9	-31.0	325	39	
2025-10-28T00:00	6920	417	-28.1	-31.2	325	39	
2025-10-28T00:00	6940	416	-28.3	-31.6	325	39	
2025-10-28T00:00	6960	415	-28.4	-32.0	325	39	
2025-10-28T00:00	6980	414	-28.6	-32.5	325	39	
2025-10-28T00:00	7000	413	-28.6	-33.2	325	39	
2025-10-28T00:00	7020	412	-28.8	-33.3	325	40	
2025-10-28T00:00	7040	411	-28.9	-33.3	324	40	
2025-10-28T00:00	7060	409	-29.1	-33.3	324	40	
2025-10-28T00:00	7080	408	-29.3	-33.3	324	41	
2025-10-28T00:00	7100	407	-29.5	-33.4	323	41	
2025-10-28T00:00	7120	406	-29.6	-33.6	323	41	
2025-10-28T00:00	7140	405	-29.7	-33.8	323	41	
2025-10-28T00:00	7160	404	-29.8	-34.5	323	41	
2025-10-28T00:00	7180	402	-29.9	-36.4	322	41	
2025-10-28T00:00	7200	401	-30.0	-38.6	322	41	
2025-10-28T00:00	7220	400	-30.2	-39.3	322	41	
2025-10-28T00:00	7240	399	-30.4	-39.6	322	41	
2025-10-28T00:00	7260	398	-30.6	-39.5	322	40	
2025-10-28T00:00	7280	397	-30.7	-39.3	322	40	
2025-10-28T00:00	7300	396	-30.9	-39.6	322	41	
2025-10-28T00:00	7320	395	-31.0	-39.4	322	41	
2025-10-28T00:00	7340	394	-31.2	-39.7	322	41	
2025-10-28T00:00	7360	392	-31.4	-40.0	322	41	
2025-10-28T00:00	7380	391	-31.6	-39.8	323	41	
2025-10-28T00:00	7400	390	-31.8	-39.8	323	40	
2025-10-28T00:00	7420	389	-32.0	-40.3	323	40	
2025-10-28T00:00	7440	388	-32.2	-40.3	323	40	
2025-10-28T00:00	7460	387	-32.3	-40.3	323	40	
2025-10-28T00:00	7480	386	-32.5	-40.8	323	39	
2025-10-28T00:00	7500	385	-32.7	-41.2	323	39	
2025-10-28T00:00	7520	384	-32.9	-41.3	322	39	
2025-10-28T00:00	7540	383	-33.0	-41.1	322	39	
2025-10-28T00:00	7560	381	-33.2	-41.0	322	39	
2025-10-28T00:00	7580	380	-33.4	-41.0	322	39	
2025-10-28T00:00	7600	379	-33.6	-41.0	323	39	
2025-10-28T00:00	7620	378	-33.7	-42.9	323	39	
2025-10-28T00:00	7640	377	-33.8	-46.3	324	39	
2025-10-28T00:00	7660	376	-33.8	-46.5	324	39	
2025-10-28T00:00	7680	375	-34.0	-46.5	325	39	
2025-10-28T00:00	7700	374	-34.1	-47.0	325	40	
2025-10-28T00:00	7720	373	-34.3	-47.3	326	40	
2025-10-28T00:00	7740	372	-34.5	-47.2	326	40	
2025-10-28T00:00	7760	371	-34.6	-48.2	326	40	
2025-10-28T00:00	7780	370	-34.8	-48.3	326	40	
2025-10-28T00:00	7800	369	-34.9	-48.8	326	40	
2025-10-28T00:00	7820	368	-35.1	-49.6	327	40	
2025-10-28T00:00	7840	366	-35.3	-50.8	327	40	
2025-10-28T00:00	7860	365	-35.5	-50.2	328	40	
2025-10-28T00:00	7880	364	-35.6	-51.3	328	40	
2025-10-28T00:00	7900	363	-35.7	-51.7	328	40	
2025-10-28T00:00	7920	362	-35.8	-50.3	328	40	
2025-10-28T00:00	7940	361	-35.9	-49.4	328	41	
2025-10-28T00:00	7960	360	-36.0	-49.1	328	42	
2025-10-28T00:00	7980	359	-36.1	-48.7	328	42	
2025-10-28T00:00	8000	358	-36.1	-49.5	328	43	
2025-10-28T00:00	8020	357	-36.1	-49.5	327	43	
2025-10-28T00:00	8040	356	-36.1	-49.8	326	44	
2025-10-28T00:00	8060	355	-36.1	-50.1	326	44	
2025-10-28T00:00	8080	354	-36.3	-50.1	325	43	
2025-10-28T00:00	8100	353	-36.4	-50.5	324	43	
2025-10-28T00:00	8120	352	-36.5	-50.6	323	44	
2025-10-28T00:00	8140	351	-36.6	-50.7	323	44	
2025-10-28T00:00	8160	350	-36.7	-51.3	323	45	
2025-10-28T00:00	8180	349	-36.8	-51.5	323	45	
2025-10-28T00:00	8200	348	-36.9	-51.3	323	46	
2025-10-28T00:00	8220	347	-37.0	-52.1	324	46	
2025-10-28T00:00	8240	346	-37.1	-52.0	324	47	
2025-10-28T00:00	8260	345	-37.2	-51.3	324	47	
2025-10-28T00:00	8280	344	-37.3	-50.9	324	47	
2025-10-28T00:00	8300	343	-37.4	-49.7	324	47	
2025-10-28T00:00	8320	342	-37.5	-50.3	324	47	
2025-10-28T00:00	8340	341	-37.7	-51.6	324	47	
2025-10-28T00:00	8360	340	-37.9	-51.4	324	47	
2025-10-28T00:00	8380	339	-38.1	-49.2	324	46	
2025-10-28T00:00	8400	338	-38.2	-48.4	324	46	
2025-10-28T00:00	8420	337	-38.4	-51.6	325	46	
2025-10-28T00:00	8440	336	-38.6	-53.6	325	46	
2025-10-28T00:00	8460	335	-38.7	-53.1	325	46	
2025-10-28T00:00	8480	334	-38.9	-52.2	324	46	
2025-10-28T00:00	8500	333	-39.1	-52.9	324	46	
2025-10-28T00:00	8520	332	-39.3	-53.2	324	46	
2025-10-28T00:00	8540	331	-39.5	-53.0	324	46	
2025-10-28T00:00	8560	330	-39.7	-53.3	324	46	
2025-10-28T00:00	8580	329	-39.8	-52.2	324	46	
2025-10-28T00:00	8600	328	-39.9	-49.7	325	46	
2025-10-28T00:00	8620	327	-40.0	-48.6	325	47	
2025-10-28T00:00	8640	326	-40.2	-49.0	325	47	
2025-10-28T00:00	8660	325	-40.4	-49.3	325	47	
2025-10-28T00:00	8680	324	-40.5	-49.4	325	47	
2025-10-28T00:00	8700	323	-40.6	-48.7	325	47	
2025-10-28T00:00	8720	323	-40.7	-48.7	325	47	
2025-10-28T00:00	8740	322	-40.8	-49.6	325	47	
2025-10-28T00:00	8760	321	-41.0	-49.9	325	48	
2025-10-28T00:00	8780	320	-41.2	-49.9	325	48	
2025-10-28T00:00	8800	319	-41.3	-49.7	325	48	
2025-10-28T00:00	8820	318	-41.5	-49.5	325	48	
2025-10-28T00:00	8840	317	-41.7	-49.6	325	48	
2025-10-28T00:00	8860	316	-41.9	-48.7	325	48	
2025-10-28T00:00	8880	315	-42.1	-48.0	326	48	
2025-10-28T00:00	8900	314	-42.2	-47.9	326	48	
2025-10-28T00:00	8920	313	-42.4	-48.3	326	48	
2025-10-28T00:00	8940	312	-42.5	-49.0	326	48	
2025-10-28T00:00	8960	311	-42.7	-49.4	326	48	
2025-10-28T00:00	8980	310	-42.9	-49.5	326	48	
2025-10-28T00:00	9000	310	-43.1	-49.6	325	48	
2025-10-28T00:00	9020	309	-43.2	-49.2	325	48	
2025-10-28T00:00	9040	308	-43.3	-48.9	325	48	
2025-10-28T00:00	9060	307	-43.5	-49.0	326	49	
2025-10-28T00:00	9080	306	-43.7	-49.4	326	49	
2025-10-28T00:00	9100	305	-43.8	-50.2	326	49	
2025-10-28T00:00	9120	304	-43.9	-50.9	327	49	
2025-10-28T00:00	9140	303	-44.1	-51.4	327	50	
2025-10-28T00:00	9160	302	-44.2	-51.4	327	50	
2025-10-28T00:00	9180	301	-44.3	-51.6	328	50	
2025-10-28T00:00	9200	300	-44.4	-52.1	328	50	
2025-10-28T00:00	9220	300	-44.5	-52.6	328	50	
2025-10-28T00:00	9240	299	-44.6	-53.0	328	50	
2025-10-28T00:00	9260	298	-44.7	-53.1	328	50	
2025-10-28T00:00	9280	297	-44.9	-53.1	328	50	
2025-10-28T00:00	9300	296	-45.1	-52.7	328	50	
2025-10-28T00:00	9320	295	-45.3	-52.8	328	51	
2025-10-28T00:00	9340	294	-45.4	-53.0	328	51	
2025-10-28T00:00	9360	293	-45.5	-53.4	328	51	
2025-10-28T00:00	9380	292	-45.7	-53.1	329	52	
2025-10-28T00:00	9400	292	-45.8	-52.7	329	52	
2025-10-28T00:00	9420	291	-46.0	-52.6	329	52	
2025-10-28T00:00	9440	290	-46.2	-52.6	328	52	
2025-10-28T00:00	9460	289	-46.4	-52.5	328	52	
2025-10-28T00:00	9480	288	-46.5	-52.5	328	52	
2025-10-28T00:00	9500	287	-46.6	-52.8	328	52	
2025-10-28T00:00	9520	286	-46.8	-53.2	328	52	
2025-10-28T00:00	9540	285	-46.9	-53.5	327	52	
2025-10-28T00:00	9560	285	-47.1	-53.6	327	52	
2025-10-28T00:00	9580	284	-47.2	-53.8	327	52	
2025-10-28T00:00	9600	283	-47.4	-53.9	327	52	
2025-10-28T00:00	9620	282	-47.6	-54.0	327	52	
2025-10-28T00:00	9640	281	-47.7	-54.0	327	52	
2025-10-28T00:00	9660	280	-47.9	-54.0	327	52	
2025-10-28T00:00	9680	280	-48.1	-54.1	327	52	
2025-10-28T00:00	9700	279	-48.3	-54.1	327	52	
2025-10-28T00:00	9720	278	-48.4	-54.1	327	52	
2025-10-28T00:00	9740	277	-48.6	-54.0	327	52	
2025-10-28T00:00	9760	276	-48.8	-54.2	327	52	
2025-10-28T00:00	9780	275	-48.9	-54.9	327	52	
2025-10-28T00:00	9800	274	-49.0	-55.9	327	52	
2025-10-28T00:00	9820	274	-49.1	-56.6	327	52	
2025-10-28T00:00	9840	273	-49.2	-56.7	326	52	
2025-10-28T00:00	9860	272	-49.3	-56.7	326	52	
2025-10-28T00:00	9880	271	-49.5	-57.1	326	52	
2025-10-28T00:00	9900	270	-49.6	-57.1	326	52	
2025-10-28T00:00	9920	269	-49.7	-56.8	326	51	
2025-10-28T00:00	9940	269	-49.9	-57.1	326	51	
2025-10-28T00:00	9960	268	-50.0	-57.7	326	51	
2025-10-28T00:00	9980	267	-50.2	-58.1	325	51	
2025-10-28T00:00	10000	266	-50.3	-58.4	325	51	
2025-10-28T00:00	10018	265	-50.4	-58.8	325	51	
2025-10-28T00:00	10050	264	-50.6	-59.2	324	51	
2025-10-28T00:00	10100	262	-50.6	-60.3	324	51	
2025-10-28T00:00	10150	260	-51.0	-60.0	324	51	
2025-10-28T00:00	10200	258	-51.5	-59.9	324	52	
2025-10-28T00:00	10250	256	-51.9	-59.5	323	52	
2025-10-28T00:00	10300	254	-52.2	-59.7	323	51	
2025-10-28T00:00	10350	252	-52.2	-62.6	322	51	
2025-10-28T00:00	10400	250	-52.4	-63.1	321	52	
2025-10-28T00:00	10450	248	-52.9	-62.7	322	52	
2025-10-28T00:00	10500	246	-53.1	-62.7	322	52	
2025-10-28T00:00	10550	244	-53.4	-63.5	323	51	
2025-10-28T00:00	10600	243	-53.7	-63.3	323	51	
2025-10-28T00:00	10650	241	-54.1	-63.3	322	51	
2025-10-28T00:00	10700	239	-54.5	-63.7	322	51	
2025-10-28T00:00	10750	237	-54.8	-64.0	322	51	
2025-10-28T00:00	10800	235	-55.1	-64.4	322	52	
2025-10-28T00:00	10850	233	-55.5	-64.5	321	52	
2025-10-28T00:00	10900	232	-55.7	-65.2	320	52	
2025-10-28T00:00	10950	230	-55.9	-66.4	321	52	
2025-10-28T00:00	11000	228	-56.1	-66.7	321	52	
2025-10-28T00:00	11050	226	-56.5	-66.8	321	52	
2025-10-28T00:00	11100	224	-56.9	-67.4	321	52	
2025-10-28T00:00	11150	223	-57.3	-68.0	320	52	
2025-10-28T00:00	11200	221	-57.6	-67.5	319	53	
2025-10-28T00:00	11250	219	-58.1	-67.3	319	53	
2025-10-28T00:00	11300	217	-58.5	-67.2	318	54	
2025-10-28T00:00	11350	216	-58.8	-67.4	318	54	
2025-10-28T00:00	11400	214	-59.0	-68.1	318	54	
2025-10-28T00:00	11450	212	-59.2	-68.2	318	54	
2025-10-28T00:00	11500	210	-59.6	-68.8	317	55	
2025-10-28T00:00	11550	209	-59.7	-69.9	317	55	
2025-10-28T00:00	11600	207	-59.9	-70.7	318	54	
2025-10-28T00:00	11650	205	-60.2	-71.0	318	54	
2025-10-28T00:00	11700	204	-60.5	-70.8	318	53	
2025-10-28T00:00	11750	202	-60.7	-70.8	318	51	
2025-10-28T00:00	11800	201	-59.7	-70.2	316	49	
2025-10-28T00:00	11850	199	-58.4	-71.5	316	47	
2025-10-28T00:00	11900	197	-57.5	-73.4	317	46	
2025-10-28T00:00	11950	196	-57.4	-73.6	318	46	
2025-10-28T00:00	12000	194	-57.8	-73.1	319	46	
2025-10-28T00:00	12050	193	-58.2	-73.2	318	46	
2025-10-28T00:00	12100	191	-58.4	-73.5	317	45	
2025-10-28T00:00	12150	190	-58.5	-73.9	315	45	
2025-10-28T00:00	12200	188	-58.4	-73.7	313	45	
2025-10-28T00:00	12250	187	-58.5	-73.9	313	45	
2025-10-28T00:00	12300	185	-58.7	-74.4	313	44	
2025-10-28T00:00	12350	184	-58.5	-74.8	313	43	
2025-10-28T00:00	12400	182	-58.2	-75.2	312	41	
2025-10-28T00:00	12450	181	-57.6	-75.8	313	39	
2025-10-28T00:00	12500	179	-56.2	-76.5	313	37	
2025-10-28T00:00	12550	178	-54.9	-77.4	314	36	
2025-10-28T00:00	12600	177	-54.8	-77.5	315	35	
2025-10-28T00:00	12650	175	-55.2	-76.8	316	34	
2025-10-28T00:00	12700	174	-55.5	-77.4	316	33	
2025-10-28T00:00	12750	173	-55.7	-77.7	316	32	
2025-10-28T00:00	12800	171	-55.9	-77.5	315	30	
2025-10-28T00:00	12850	170	-56.0	-77.2	314	30	
2025-10-28T00:00	12900	169	-56.2	-77.0	313	29	
2025-10-28T00:00	12950	167	-56.4	-77.5	313	28	
2025-10-28T00:00	13000	166	-56.1	-77.9	312	26	
2025-10-28T00:00	13050	165	-55.9	-78.1	312	24	
2025-10-28T00:00	13100	163	-55.9	-77.9	312	23	
2025-10-28T00:00	13150	162	-56.2	-77.8	312	22	
2025-10-28T00:00	13200	161	-56.5	-78.0	312	22	
2025-10-28T00:00	13250	160	-56.8	-78.3	312	23	
2025-10-28T00:00	13300	158	-57.2	-78.4	311	23	
2025-10-28T00:00	13350	157	-57.6	-78.6	311	24	
2025-10-28T00:00	13400	156	-57.9	-78.7	311	24	
2025-10-28T00:00	13450	154	-58.2	-78.9	310	25	
2025-10-28T00:00	13500	153	-58.6	-79.1	309	24	
2025-10-28T00:00	13550	152	-58.9	-79.3	308	23	
2025-10-28T00:00	13600	151	-59.3	-79.4	307	23	
2025-10-28T00:00	13650	150	-59.7	-79.7	306	22	
2025-10-28T00:00	13700	149	-60.0	-79.9	305	22	
2025-10-28T00:00	13750	147	-60.3	-79.9	303	22	
2025-10-28T00:00	13800	146	-60.6	-80.0	301	22	
2025-10-28T00:00	13850	145	-60.9	-80.1	298	22	
2025-10-28T00:00	13900	144	-61.2	-80.2	296	22	
2025-10-28T00:00	13950	143	-61.6	-80.5	294	22	
2025-10-28T00:00	14000	142	-61.9	-80.6	294	23	
2025-10-28T00:00	14050	140	-62.0	-80.3	295	24	
2025-10-28T00:00	14100	139	-61.9	-80.3	297	25	
2025-10-28T00:00	14150	138	-61.7	-81.2	298	23	
2025-10-28T00:00	14200	137	-61.2	-81.7	298	21	
2025-10-28T00:00	14250	136	-60.7	-81.6	297	20	
2025-10-28T00:00	14300	135	-60.1	-81.3	295	19	
2025-10-28T00:00	14350	134	-60.3	-81.2	292	18	
2025-10-28T00:00	14400	133	-60.1	-80.6	290	17	
2025-10-28T00:00	14450	132	-60.3	-80.5	287	16	
2025-10-28T00:00	14500	131	-60.6	-80.9	283	15	
2025-10-28T00:00	14550	129	-61.0	-81.0	279	14	
2025-10-28T00:00	14600	128	-61.4	-80.9	274	14	
2025-10-28T00:00	14650	127	-61.9	-81.2	269	14	
2025-10-28T00:00	14700	126	-62.2	-81.6	263	14	
2025-10-28T00:00	14750	125	-62.7	-81.9	259	14	
2025-10-28T00:00	14800	124	-63.0	-82.1	253	14	
2025-10-28T00:00	14850	123	-63.4	-82.3	249	15	
2025-10-28T00:00	14900	122	-63.5	-82.2	247	16	
2025-10-28T00:00	14950	121	-63.7	-82.3	246	17	
2025-10-28T00:00	15000	120	-64.1	-82.5	245	17	
2025-10-28T00:00	15050	119	-64.5	-82.6	244	18	
2025-10-28T00:00	15100	118	-64.9	-82.8	244	18	
2025-10-28T00:00	15150	117	-65.2	-82.8	244	18	
2025-10-28T00:00	15200	116	-65.7	-83.0	245	19	
2025-10-28T00:00	15250	116	-66.2	-83.0	246	19	
2025-10-28T00:00	15300	115	-66.6	-83.0	248	20	
2025-10-28T00:00	15350	114	-66.9	-83.1	253	20	
2025-10-28T00:00	15400	113	-67.3	-83.3	258	21	
2025-10-28T00:00	15450	112	-67.8	-83.6	262	22	
2025-10-28T00:00	15500	111	-68.1	-83.9	266	22	
2025-10-28T00:00	15550	110	-67.9	-83.7	270	22	
2025-10-28T00:00	15600	109	-68.2	-83.8	274	22	
2025-10-28T00:00	15650	108	-68.5	-83.9	277	23	
2025-10-28T00:00	15700	107	-68.9	-84.1	280	24	
2025-10-28T00:00	15750	106	-69.1	-84.0	284	25	
2025-10-28T00:00	15800	105	-69.1	-83.9	290	25	
2025-10-28T00:00	15850	105	-69.2	-83.9	296	25	
2025-10-28T00:00	15900	104	-69.1	-83.8	301	25	
2025-10-28T00:00	15950	103	-68.8	-83.8	302	24	
2025-10-28T00:00	16000	102	-68.6	-83.9	299	23	
2025-10-28T00:00	16050	101	-68.4	-83.9	296	23	
2025-10-28T00:00	16100	100	-68.7	-84.1	292	24	
2025-10-28T00:00	16150	99	-68.8	-84.3	287	25	
2025-10-28T00:00	16200	99	-68.6	-84.3	285	27	
2025-10-28T00:00	16250	98	-68.4	-84.3	286	28	
2025-10-28T00:00	16300	97	-68.4	-84.5	290	28	
2025-10-28T00:00	16350	96	-67.9	-84.4	294	28	
2025-10-28T00:00	16400	95	-68.0	-84.6	297	29	
2025-10-28T00:00	16450	95	-68.3	-84.7	297	29	
2025-10-28T00:00	16500	94	-68.3	-84.8	296	30	
2025-10-28T00:00	16550	93	-68.3	-84.9	296	31	
2025-10-28T00:00	16600	92	-68.2	-85.2	299	31	
2025-10-28T00:00	16650	91	-67.6	-85.1	301	31	
2025-10-28T00:00	16700	91	-67.3	-85.1	301	30	
2025-10-28T00:00	16750	90	-67.2	-85.1	299	31	
2025-10-28T00:00	16800	89	-67.3	-85.2	297	32	
2025-10-28T00:00	16850	89	-67.4	-85.7	298	32	
2025-10-28T00:00	16900	88	-66.1	-85.3	299	33	
2025-10-28T00:00	16950	87	-65.2	-84.8	298	34	
2025-10-28T00:00	17000	86	-64.4	-84.1	297	35	
2025-10-28T00:00	17050	86	-63.7	-84.0	300	35	
2025-10-28T00:00	17100	85	-63.3	-84.5	304	34	
2025-10-28T00:00	17150	84	-62.2	-84.9	306	32	
2025-10-28T00:00	17200	84	-61.1	-84.8	308	31	
2025-10-28T00:00	17250	83	-60.0	-84.2	311	30	
2025-10-28T00:00	17300	82	-59.2	-83.8	313	29	
2025-10-28T00:00	17350	82	-58.6	-83.6	310	29	
2025-10-28T00:00	17400	81	-58.0	-83.3	308	28	
2025-10-28T00:00	17450	80	-57.8	-83.3	308	28	
2025-10-28T00:00	17500	80	-57.5	-83.3	308	27	
2025-10-28T00:00	17550	79	-56.8	-83.0	308	27	
2025-10-28T00:00	17600	78	-56.9	-83.0	308	26	
2025-10-28T00:00	17650	78	-56.8	-82.8	308	24	
2025-10-28T00:00	17700	77	-55.9	-82.3	308	22	
2025-10-28T00:00	17750	77	-54.7	-81.7	311	20	
2025-10-28T00:00	17800	76	-54.6	-81.8	315	17	
2025-10-28T00:00	17850	75	-54.3	-81.5	319	14	
2025-10-28T00:00	17900	75	-53.8	-79.9	322	13	
2025-10-28T00:00	17950	74	-54.3	-78.7	324	12	
2025-10-28T00:00	18000	74	-54.8	-78.6	326	10	
2025-10-28T00:00	18050	73	-55.1	-79.2	326	8	
2025-10-28T00:00	18100	73	-55.5	-80.7	324	7	
2025-10-28T00:00	18150	72	-55.9	-82.5	319	6	
2025-10-28T00:00	18200	71	-56.4	-83.5	312	5	
2025-10-28T00:00	18250	71	-56.9	-83.5	301	5	
2025-10-28T00:00	18300	70	-57.4	-83.3	289	6	
2025-10-28T00:00	18350	70	-57.9	-83.6	281	6	
2025-10-28T00:00	18400	69	-58.3	-84.0	277	6	
2025-10-28T00:00	18450	69	-58.7	-84.0	279	5	
2025-10-28T00:00	18500	68	-59.0	-83.8	285	4	
2025-10-28T00:00	18550	68	-59.5	-83.7	290	3	
2025-10-28T00:00	18600	67	-60.0	-83.4	292	3	
2025-10-28T00:00	18650	66	-60.4	-82.9	289	2	
2025-10-28T00:00	18700	66	-60.9	-82.7	286	3	
2025-10-28T00:00	18750	65	-61.3	-82.8	287	3	
2025-10-28T00:00	18800	65	-61.9	-83.3	290	2	
2025-10-28T00:00	18850	64	-62.4	-83.9	291	2	
2025-10-28T00:00	18900	64	-62.8	-84.3	288	2	
2025-10-28T00:00	18950	63	-63.2	-84.6	284	2	
2025-10-28T00:00	19000	63	-63.6	-84.9	280	2	
2025-10-28T00:00	19050	62	-64.0	-85.4	281	3	
2025-10-28T00:00	19100	62	-64.4	-85.9	285	4	
2025-10-28T00:00	19150	61	-64.7	-86.1	287	6	
2025-10-28T00:00	19200	61	-65.0	-86.2	287	6	
2025-10-28T00:00	19250	60	-65.4	-86.4	286	6	
2025-10-28T00:00	19300	60	-65.8	-86.4	282	6	
2025-10-28T00:00	19350	59	-66.3	-86.5	276	7	
2025-10-28T00:00	19400	59	-66.8	-86.7	271	9	
2025-10-28T00:00	19450	58	-67.1	-86.9	269	11	
2025-10-28T00:00	19500	58	-67.1	-87.1	269	13	
2025-10-28T00:00	19550	57	-66.8	-87.2	270	15	
2025-10-28T00:00	19600	57	-66.7	-87.4	270	17	
2025-10-28T00:00	19650	56	-66.7	-87.5	271	18	
2025-10-28T00:00	19700	56	-66.6	-87.5	271	19	
2025-10-28T00:00	19750	56	-66.8	-87.7	270	19	
2025-10-28T00:00	19800	55	-66.8	-87.7	269	20	
2025-10-28T00:00	19850	55	-66.5	-87.6	269	21	
2025-10-28T00:00	19900	54	-66.1	-87.6	270	22	
2025-10-28T00:00	19950	54	-65.4	-87.5	274	22	
2025-10-28T00:00	20000	53	-64.5	-87.3	278	23	
2025-10-28T00:00	20050	53	-64.3		279	23	
2025-10-28T00:00	20100	52	-63.3		278	24	
2025-10-28T00:00	20150	52	-62.7		278	24	
2025-10-28T00:00	20200	52	-62.9		280	24	
2025-10-28T00:00	20250	51	-63.2		282	24	
2025-10-28T00:00	20300	51	-63.4		284	24	
2025-10-28T00:00	20350	50	-63.4		285	24	
2025-10-28T00:00	20400	50	-63.4		283	24	
2025-10-28T00:00	20450	49	-62.7		279	25	
2025-10-28T00:00	20500	49	-61.0		276	26	
2025-10-28T00:00	20550	49	-60.9		275	26	
2025-10-28T00:00	20600	48	-60.7		277	25	
2025-10-28T00:00	20650	48	-60.3		279	25	
2025-10-28T00:00	20700	48	-60.2		280	23	
2025-10-28T00:00	20750	47	-60.2		281	22	
2025-10-28T00:00	20800	47	-59.9		281	20	
2025-10-28T00:00	20850	46	-59.2		280	19	
2025-10-28T00:00	20900	46	-58.7		281	17	
2025-10-28T00:00	20950	46	-58.2		280	16	
2025-10-28T00:00	21000	45	-57.9		276	15	
2025-10-28T00:00	21050	45	-57.8		271	14	
2025-10-28T00:00	21100	45	-57.7		266	14	
2025-10-28T00:00	21150	44	-57.9		262	13	
2025-10-28T00:00	21200	44	-58.2		260	13	
2025-10-28T00:00	21250	44	-58.4		259	13	
2025-10-28T00:00	21300	43	-58.6		260	14	
2025-10-28T00:00	21350	43	-58.7		263	16	
2025-10-28T00:00	21400	43	-58.9		268	17	
2025-10-28T00:00	21450	42	-58.8		274	17	
2025-10-28T00:00	21500	42	-57.9		280	16	
2025-10-28T00:00	21550	42	-57.8		285	14	
2025-10-28T00:00	21600	41	-57.9		289	13	
2025-10-28T00:00	21650	41	-58.0		294	13	
2025-10-28T00:00	21700	41	-58.3		296	14	
2025-10-28T00:00	21750	40	-58.6		297	14	
2025-10-28T00:00	21800	40	-58.9		298	15	
2025-10-28T00:00	21850	40	-59.3		298	15	
2025-10-28T00:00	21900	39	-59.6		299	15	
2025-10-28T00:00	21950	39	-59.8		301	15	
2025-10-28T00:00	22000	39	-60.1		304	14	
2025-10-28T00:00	22050	38	-60.4		305	14	
2025-10-28T00:00	22100	38	-60.7		306	13	
2025-10-28T00:00	22150	38	-60.9		307	12	
2025-10-28T00:00	22200	37	-61.1		309	11	
2025-10-28T00:00	22250	37	-61.1		312	10	
2025-10-28T00:00	22300	37	-61.3		314	8	
2025-10-28T00:00	22350	37	-61.6		316	7	
2025-10-28T00:00	22400	36	-61.9		318	5	
2025-10-28T00:00	22450	36	-62.1		319	4	
2025-10-28T00:00	22500	36	-62.4		319	3	
2025-10-28T00:00	22550	35	-62.8		316	3	
2025-10-28T00:00	22600	35	-63.3		309	2	
2025-10-28T00:00	22650	35	-63.7		287	2	
2025-10-28T00:00	22700	35	-64.0		260	3	
2025-10-28T00:00	22750	34	-64.2		242	4	
2025-10-28T00:00	22800	34	-64.4		236	5	
2025-10-28T00:00	22850	34	-64.7		239	6	
2025-10-28T00:00	22900	33	-65.1		244	7	
2025-10-28T00:00	22950	33	-65.1		247	8	
2025-10-28T00:00	23000	33	-65.0		247	9	
2025-10-28T00:00	23050	33	-65.2		247	10	
2025-10-28T00:00	23100	32	-65.2		248	11	
2025-10-28T00:00	23150	32	-64.5		251	12	
2025-10-28T00:00	23200	32	-64.6		255	13	
2025-10-28T00:00	23250	32	-64.6		259	15	
2025-10-28T00:00	23300	31	-64.3		263	16	
2025-10-28T00:00	23350	31	-63.9		265	17	
2025-10-28T00:00	23400	31	-63.5		266	18	
2025-10-28T00:00	23450	31	-63.3		264	19	
2025-10-28T00:00	23500	30	-63.1		262	21	
2025-10-28T00:00	23550	30	-62.7		263	21	
2025-10-28T00:00	23600	30	-62.7		266	22	
2025-10-28T00:00	23650	30	-62.3		270	23	
2025-10-28T00:00	23700	29	-61.6		274	23	
2025-10-28T00:00	23750	29	-61.5		278	23	
2025-10-28T00:00	23800	29	-61.0		279	22	
2025-10-28T00:00	23850	29	-60.7		277	22	
2025-10-28T00:00	23900	28	-60.5		273	22	
2025-10-28T00:00	23950	28	-60.4		270	24	
2025-10-28T00:00	24000	28	-59.7		268	24	
2025-10-28T00:00	24050	28	-59.4		267	23	
2025-10-28T00:00	24100	27	-59.1		266	22	
2025-10-28T00:00	24150	27	-59.0		266	22	
2025-10-28T00:00	24200	27	-58.7		267	22	
2025-10-28T00:00	24250	27	-58.8		269	24	
2025-10-28T00:00	24300	27	-58.4		272	25	
2025-10-28T00:00	24350	26	-58.1		274	25	
2025-10-28T00:00	24400	26	-58.0		275	24	
2025-10-28T00:00	24450	26	-58.1		275	23	
2025-10-28T00:00	24500	26	-58.2		273	23	
2025-10-28T00:00	24550	26	-58.4		270	23	
2025-10-28T00:00	24600	25	-58.2		270	23	
2025-10-28T00:00	24650	25	-58.0		270	22	
2025-10-28T00:00	24700	25	-58.0		267	22	
2025-10-28T00:00	24750	25	-57.6		264	22	
2025-10-28T00:00	24800	25	-56.6		262	23	
2025-10-28T00:00	24850	24	-56.5		260	23	
2025-10-28T00:00	24900	24	-56.7		259	23	
2025-10-28T00:00	24950	24	-56.8		260	23	
2025-10-28T00:00	25000	24	-56.4		261	23	
2025-10-28T00:00	25050	24	-56.6		263	22	
2025-10-28T00:00	25100	23	-57.0		264	22	
2025-10-28T00:00	25150	23	-57.4		266	22	
2025-10-28T00:00	25200	23	-57.7		266	22	
2025-10-28T00:00	25250	23	-58.0		266	22	
2025-10-28T00:00	25300	23	-57.9		266	21	
2025-10-28T00:00	25350	23	-57.5		267	21	
2025-10-28T00:00	25400	22	-56.9		267	20	
2025-10-28T00:00	25450	22	-56.9		267	19	
2025-10-28T00:00	25500	22	-57.2		266	18	
2025-10-28T00:00	25550	22	-57.4		265	18	
2025-10-28T00:00	25600	22	-57.2		265	18	
2025-10-28T00:00	25650	22	-57.5		265	18	
2025-10-28T00:00	25700	21	-57.6		266	19	
2025-10-28T00:00	25750	21	-57.5		267	19	
2025-10-28T00:00	25800	21	-57.3		269	19	
2025-10-28T00:00	25850	21	-57.5		270	19	
2025-10-28T00:00	25900	21	-57.5		270	19	
2025-10-28T00:00	25950	20	-57.4		271	19	
2025-10-28T00:00	26000	20	-57.5		273	19	
2025-10-28T00:00	26050	20	-57.7		274	19	
2025-10-28T00:00	26100	20	-57.6		275	19	
2025-10-28T00:00	26150	20	-57.7		275	19	
2025-10-28T00:00	26200	20	-57.8		273	20	
2025-10-28T00:00	26250	20	-58.1		272	21	
2025-10-28T00:00	26300	19	-58.3		271	22	
2025-10-28T00:00	26350	19	-58.6		271	23	
2025-10-28T00:00	26400	19	-58.7		273	23	
2025-10-28T00:00	26450	19	-58.5		274	23	
2025-10-28T00:00	26500	19	-58.7		276	22	
2025-10-28T00:00	26550	19	-59.0		277	22	
2025-10-28T00:00	26600	18	-59.2		278	22	
2025-10-28T00:00	26650	18	-59.2		277	22	
2025-10-28T00:00	26700	18	-59.2		276	21	
2025-10-28T00:00	26750	18	-58.8		275	20	
2025-10-28T00:00	26800	18	-58.9		273	18	
2025-10-28T00:00	26850	18	-59.1		271	17	
2025-10-28T00:00	26900	18	-59.4		267	16	
2025-10-28T00:00	26950	17	-59.6		262	15	
2025-10-28T00:00	27000	17	-59.4		257	15	
2025-10-28T00:00	27050	17	-59.2		253	15	
2025-10-28T00:00	27100	17	-59.2		251	17	
2025-10-28T00:00	27150	17	-59.3		248	19	
2025-10-28T00:00	27200	17	-59.0		247	21	
2025-10-28T00:00	27250	17	-58.3		246	22	
2025-10-28T00:00	27300	17	-58.1		247	23	
2025-10-28T00:00	27350	16	-58.1		250	24	
2025-10-28T00:00	27400	16	-58.4		252	24	
2025-10-28T00:00	27450	16	-58.7		256	24	
2025-10-28T00:00	27500	16	-58.9		258	25	
2025-10-28T00:00	27550	16	-59.2		260	25	
2025-10-28T00:00	27600	16	-59.2		262	25	
2025-10-28T00:00	27650	16	-59.5		264	25	
2025-10-28T00:00	27700	16	-59.8		266	25	
2025-10-28T00:00	27750	15	-59.6		267	26	
2025-10-28T00:00	27800	15	-58.8		266	27	
2025-10-28T00:00	27850	15	-58.6		265	28	
2025-10-28T00:00	27900	15	-58.9		264	28	
2025-10-28T00:00	27950	15	-58.8		266	29	
2025-10-28T00:00	28000	15	-58.4		268	30	
2025-10-28T00:00	28050	15	-58.0		267	30	
2025-10-28T00:00	28100	15	-57.4		264	30	
2025-10-28T00:00	28150	14	-57.3		260	31	
2025-10-28T00:00	28200	14	-56.8		258	32	
2025-10-28T00:00	28250	14	-55.9		258	34	
2025-10-28T00:00	28300	14	-54.5		260	35	
2025-10-28T00:00	28350	14	-54.2		263	36	
2025-10-28T00:00	28400	14	-54.2		265	36	
2025-10-28T00:00	28450	14	-53.8		266	37	
2025-10-28T00:00	28500	14	-53.0		267	36	
2025-10-28T00:00	28550	14	-53.2		267	35	
2025-10-28T00:00	28600	13	-53.2		267	34	
2025-10-28T00:00	28650	13	-53.3		266	34	
2025-10-28T00:00	28700	13	-53.4		265	35	
2025-10-28T00:00	28750	13	-53.3		263	36	
2025-10-28T00:00	28800	13	-52.9		262	36	
2025-10-28T00:00	28850	13	-52.5		261	37	
2025-10-28T00:00	28900	13	-52.4		260	37	
2025-10-28T00:00	28950	13	-52.3		257	37	
2025-10-28T00:00	29000	13	-52.1		256	38	
2025-10-28T00:00	29050	13	-51.4		255	39	
2025-10-28T00:00	29100	12	-51.3		255	40	
2025-10-28T00:00	29150	12	-51.3		256	40	
2025-10-28T00:00	29200	12	-51.0		256	40	
2025-10-28T00:00	29250	12	-50.3		256	40	
2025-10-28T00:00	29300	12	-50.2		255	39	
2025-10-28T00:00	29350	12	-50.1		254	39	
2025-10-28T00:00	29400	12	-49.7		253	39	
2025-10-28T00:00	29450	12	-49.4		252	40	
2025-10-28T00:00	29500	12	-49.4		251	40	
2025-10-28T00:00	29550	12	-49.2		249	40	
2025-10-28T00:00	29600	12	-48.6		248	40	
2025-10-28T00:00	29650	11	-48.5		247	40	
2025-10-28T00:00	29700	11	-48.8		246	39	
2025-10-28T00:00	29750	11	-48.9		247	39	
2025-10-28T00:00	29800	11	-48.9		247	38	
2025-10-28T00:00	29850	11	-49.3		247	38	
2025-10-28T00:00	29900	11	-49.7		247	38	
2025-10-28T00:00	29950	11	-49.8		246	38	
2025-10-28T00:00	30000	11	-49.7		245	38	
2025-10-28T00:00	30050	11	-49.8		243	39	
2025-10-28T00:00	30100	11	-49.9		242	40	
2025-10-28T00:00	30150	11	-50.0		241	40	
2025-10-28T00:00	30200	11	-50.1		241	41	
2025-10-28T00:00	30250	10	-50.6		241	41	
2025-10-28T00:00	30300	10	-51.0		242	41	
2025-10-28T00:00	30350	10	-51.1		243	41	
2025-10-28T00:00	30400	10	-51.2		245	42	
2025-10-28T00:00	30450	10	-51.4		247	42	
2025-10-28T00:00	30500	10	-51.7		249	43	
2025-10-28T00:00	30550	10	-51.9		251	43	
2025-10-28T00:00	30600	10	-51.9		252	44	
2025-10-28T00:00	30650	10	-52.1		253	44	
2025-10-28T00:00	30700	10	-52.5		253	45	
2025-10-28T00:00	30750	10	-52.8		253	46	
2025-10-28T00:00	30800	10	-53.1		253	46	
2025-10-28T00:00	30850	10	-53.3		252	47	
2025-10-28T00:00	30900	9	-53.5		252	48	
2025-10-28T00:00	30950	9	-53.7		252	49	
2025-10-28T00:00	31000	9	-53.9		253	50	
2025-10-28T00:00	31050	9	-54.0		253	51	
2025-10-28T00:00	31100	9	-54.2		254	51	
2025-10-28T00:00	31150	9	-54.4		255	52	
2025-10-28T00:00	31200	9	-54.8		256	52	
2025-10-28T00:00	31250	9	-55.0		257	51	
2025-10-28T00:00	31300	9	-55.0		256	51	
2025-10-28T00:00	31350	9	-54.7		256	52	
2025-10-28T00:00	31400	9	-54.4		255	53	
2025-10-28T00:00	31450	9	-54.0		255	54	
2025-10-28T00:00	31500	9	-53.4		256	54	
2025-10-28T00:00	31550	9	-53.1		257	53	
2025-10-28T00:00	31600	8	-53.1		259	54	
2025-10-28T00:00	31650	8	-52.9		260	54	
2025-10-28T00:00	31700	8	-52.6		260	54	
2025-10-28T00:00	31750	8	-52.2		259	54	
2025-10-28T00:00	31800	8	-52.3		259	53	
2025-10-28T00:00	31850	8	-52.1		260	54	
2025-10-28T00:00	31900	8	-52.2		261	54	
2025-10-28T00:00	31950	8	-52.0		262	55	
2025-10-28T00:00	32000	8	-51.8		262	56	
2025-10-28T00:00	32050	8	-51.9		263	57	
2025-10-28T00:00	32100	8	-51.8		262	57	
2025-10-28T00:00	32150	8	-51.3		262	58	
2025-10-28T00:00	32200	8	-51.1		261	58	
2025-10-28T00:00	32250	8	-51.0		261	59	
2025-10-28T00:00	32300	8	-51.0		262	59	
2025-10-28T00:00	32350	8	-51.1		263	59	
2025-10-28T00:00	32400	7	-50.9		265	60	
2025-10-28T00:00	32450	7	-51.0		266	60	
2025-10-28T00:00	32500	7	-51.2		267	60	
2025-10-28T00:00	32550	7	-51.3		269	60	
2025-10-28T00:00	32600	7	-51.6		269	60	
2025-10-28T00:00	32650	7	-51.8		269	59	
2025-10-28T00:00	32700	7	-51.5		270	59	
2025-10-28T00:00	32750	7	-51.3		271	59	
2025-10-28T00:00	32800	7	-51.2		272	59	
2025-10-28T00:00	32850	7	-51.0		273	59	
2025-10-28T00:00	32900	7	-50.7		274	59	
2025-10-28T00:00	32950	7	-50.3		274	58	
2025-10-28T00:00	33000	7	-49.9		274	58	
2025-10-28T00:00	33050	7	-49.4		274	58	
2025-10-28T00:00	33100	7	-49.0		273	58	
2025-10-28T00:00	33150	7	-48.0		274	59	
2025-10-28T00:00	33200	7	-46.9		272	60	
2025-10-28T00:00	33250	7	-46.0		270	60	
2025-10-28T00:00	33300	7	-45.8		267	60	
2025-10-28T00:00	33350	6	-44.8		266	61	
2025-10-28T00:00	33400	6	-43.9		267	61	
2025-10-28T00:00	33450	6	-43.9		269	61	
2025-10-28T00:00	33500	6	-43.5		271	61	
2025-10-28T00:00	33550	6	-43.1		272	61	
2025-10-28T00:00	33600	6	-43.2		273	61	
2025-10-28T00:00	33650	6	-43.1		273	60	
2025-10-28T00:00	33700	6	-43.0		274	59	
2025-10-28T00:00	33750	6	-42.8		274	58	
2025-10-28T00:00	33800	6	-42.6		273	58	
2025-10-28T00:00	33850	6	-42.0		273	58	
2025-10-28T00:00	33900	6	-42.0		273	59	
2025-10-28T00:00	33950	6	-42.0		273	59	
2025-10-28T00:00	34000	6	-42.2		273	59	
2025-10-28T00:00	34050	6	-42.4		273	60	
2025-10-28T00:00	34100	6	-42.5		274	60	
2025-10-28T00:00	34150	6	-42.5		274	60	
2025-10-28T00:00	34200	6	-42.6		273	61	
2025-10-28T00:00	34250	6	-42.7		273	62	
2025-10-28T00:00	34300	6	-42.7		273	63	
2025-10-28T00:00	34350	6	-42.5		272	63	
2025-10-28T00:00	34400	6	-42.5		272	64	
2025-10-28T00:00	34450	6	-42.8		272	64	
2025-10-28T00:00	34500	5	-42.8		272	63	
2025-10-28T00:00	34550	5	-42.7		272	62	
2025-10-28T00:00	34600	5	-42.9		272	61	
2025-10-28T00:00	34650	5	-43.1		271	61	
2025-10-28T00:00	34700	5	-42.9		271	60	
2025-10-28T00:00	34750	5	-41.9		273	60	
2025-10-28T00:00	34800	5	-41.6		275	59	
2025-10-28T00:00	34850	5	-41.3		277	58	
2025-10-28T00:00	34900	5	-39.8		278	57	
2025-10-28T00:00	34950	5	-38.6		276	57	
2025-10-28T00:00	35000	5	-37.0		276	57	
2025-10-28T00:00	35050	5	-36.6		276	55	
2025-10-28T00:00	35100	5	-35.8		275	54	
2025-10-28T00:00	35150	5	-35.2		273	53	
2025-10-28T00:00	35200	5	-35.2		272	52	
2025-10-28T00:00	35250	5	-35.2		269	51	
2025-10-28T00:00	35300	5	-34.8		267	50	
2025-10-28T00:00	35350	5	-34.1		264	50	
2025-10-28T00:00	35400	5	-33.3		263	50	
2025-10-28T00:00	35450	5	-32.6		263	50	
2025-10-28T00:00	35500	5	-32.5		262	49	
2025-10-28T00:00	35550	5	-32.7		262	49	
2025-10-28T00:00	35600	5	-32.9		262	48	
2025-10-28T00:00	35650	5	-33.2		262	48	
2025-10-28T00:00	35700	5	-33.4		263	47	
2025-10-28T00:00	35750	5	-33.8		263	47	
2025-10-28T00:00	35800	5	-34.1		263	46	
2025-10-28T00:00	35850	4	-34.4		263	46	
2025-10-28T00:00	35900	4	-34.5		263	45	
2025-10-28T00:00	35950	4	-34.5		262	45	
2025-10-28T12:00	491	960	14.1	7.6	240	5	
2025-10-28T12:00	501	958	13.8	6.8	225	4	
2025-10-28T12:00	520	956	13.5	6.5	219	5	
2025-10-28T12:00	540	954	13.2	6.1	219	5	
2025-10-28T12:00	560	952	13.0	5.7	218	6	
2025-10-28T12:00	580	950	12.7	5.6	217	7	
2025-10-28T12:00	600	947	12.5	5.7	216	7	
2025-10-28T12:00	620	945	12.4	5.7	215	8	
2025-10-28T12:00	640	943	12.2	5.6	215	8	
2025-10-28T12:00	660	941	12.0	5.7	215	8	
2025-10-28T12:00	680	938	11.8	5.4	216	8	
2025-10-28T12:00	700	936	11.6	5.4	217	9	
2025-10-28T12:00	720	934	11.1	5.0	219	9	
2025-10-28T12:00	740	932	10.9	4.9	222	9	
2025-10-28T12:00	760	930	10.8	4.9	226	9	
2025-10-28T12:00	780	927	10.7	4.9	230	10	
2025-10-28T12:00	800	925	10.4	4.9	233	10	
2025-10-28T12:00	820	923	10.2	4.9	235	11	
2025-10-28T12:00	840	921	10.1	4.7	237	11	
2025-10-28T12:00	860	919	10.0	4.7	238	11	
2025-10-28T12:00	880	916	9.9	4.6	239	11	
2025-10-28T12:00	900	914	9.7	4.5	240	11	
2025-10-28T12:00	920	912	9.5	4.5	242	11	
2025-10-28T12:00	940	910	9.4	4.5	243	11	
2025-10-28T12:00	960	907	9.2	4.5	245	11	
2025-10-28T12:00	980	905	9.0	4.5	247	11	
2025-10-28T12:00	1000	903	8.8	4.4	249	11	
2025-10-28T12:00	1020	901	8.9	4.2	251	12	
2025-10-28T12:00	1040	899	8.8	4.1	252	12	
2025-10-28T12:00	1060	896	8.8	3.9	253	12	
2025-10-28T12:00	1080	894	8.7	3.8	254	12	
2025-10-28T12:00	1100	892	8.5	3.8	254	12	
2025-10-28T12:00	1120	890	8.3	3.7	254	12	
2025-10-28T12:00	1140	888	8.1	3.7	254	13	
2025-10-28T12:00	1160	886	7.9	3.6	255	13	
2025-10-28T12:00	1180	884	7.8	3.5	255	13	
2025-10-28T12:00	1200	881	7.6	3.3	255	13	
2025-10-28T12:00	1220	879	7.5	3.1	255	13	
2025-10-28T12:00	1240	877	7.4	2.6	256	13	
2025-10-28T12:00	1260	875	7.3	2.3	256	13	
2025-10-28T12:00	1280	873	7.1	2.3	256	13	
2025-10-28T12:00	1300	871	6.9	2.1	255	13	
2025-10-28T12:00	1320	869	6.7	2.0	255	13	
2025-10-28T12:00	1340	867	6.6	1.9	254	13	
2025-10-28T12:00	1360	865	6.5	1.9	253	13	
2025-10-28T12:00	1380	862	6.4	2.4	252	13	
2025-10-28T12:00	1400	860	6.3	2.4	251	13	
2025-10-28T12:00	1420	858	6.1	2.3	250	13	
2025-10-28T12:00	1440	856	5.9	2.3	249	13	
2025-10-28T12:00	1460	854	5.7	2.2	248	13	
2025-10-28T12:00	1480	852	5.6	2.1	248	13	
2025-10-28T12:00	1500	850	5.4	2.0	247	13	
2025-10-28T12:00	1520	848	5.3	2.0	246	13	
2025-10-28T12:00	1540	846	5.1	1.9	246	13	
2025-10-28T12:00	1560	843	4.9	1.7	244	13	
2025-10-28T12:00	1580	842	4.8	1.6	242	13	
2025-10-28T12:00	1600	840	4.6	1.5	240	13	
2025-10-28T12:00	1620	837	4.5	1.4	237	13	
2025-10-28T12:00	1640	835	4.4	1.3	235	13	
2025-10-28T12:00	1660	834	4.4	0.9	232	13	
2025-10-28T12:00	1680	832	4.9	0.6	230	13	
2025-10-28T12:00	1700	829	4.7	0.5	227	13	
2025-10-28T12:00	1720	827	4.6	0.5	226	13	
2025-10-28T12:00	1740	825	4.6	0.4	225	13	
2025-10-28T12:00	1760	823	4.8	0.5	224	13	
2025-10-28T12:00	1780	821	4.7	0.5	224	13	
2025-10-28T12:00	1800	819	4.5	0.5	225	13	
2025-10-28T12:00	1820	817	4.3	0.4	225	13	
2025-10-28T12:00	1840	815	4.1	0.4	226	13	
2025-10-28T12:00	1860	813	3.8	0.3	227	13	
2025-10-28T12:00	1880	811	3.7	0.3	227	12	
2025-10-28T12:00	1900	809	3.5	0.3	227	12	
2025-10-28T12:00	1920	807	3.3	0.2	228	12	
2025-10-28T12:00	1940	805	3.1	0.2	228	12	
2025-10-28T12:00	1960	803	2.9	0.2	228	12	
2025-10-28T12:00	1980	801	2.7	0.1	228	12	
2025-10-28T12:00	2000	799	2.6	0.0	229	13	
2025-10-28T12:00	2020	797	2.4	-0.1	229	13	
2025-10-28T12:00	2040	795	2.3	-0.2	229	13	
2025-10-28T12:00	2060	793	2.1	-0.7	229	13	
2025-10-28T12:00	2080	791	1.9	-0.9	230	13	
2025-10-28T12:00	2100	790	1.8	-1.1	230	13	
2025-10-28T12:00	2120	788	1.6	-1.3	231	13	
2025-10-28T12:00	2140	786	1.4	-1.7	232	13	
2025-10-28T12:00	2160	784	1.3	-2.2	233	13	
2025-10-28T12:00	2180	781	1.1	-2.6	234	13	
2025-10-28T12:00	2200	780	1.0	-2.8	236	12	
2025-10-28T12:00	2220	778	0.8	-2.8	238	12	
2025-10-28T12:00	2240	776	0.6	-3.6	241	12	
2025-10-28T12:00	2260	774	0.7	-5.8	244	11	
2025-10-28T12:00	2280	772	0.8	-7.1	248	11	
2025-10-28T12:00	2300	770	1.0	-8.8	251	11	
2025-10-28T12:00	2320	768	1.1	-9.9	254	11	
2025-10-28T12:00	2340	766	1.3	-12.0	258	11	
2025-10-28T12:00	2360	764	1.7	-13.8	261	11	
2025-10-28T12:00	2380	762	1.7	-13.9	263	11	
2025-10-28T12:00	2400	760	1.7	-13.4	264	11	
2025-10-28T12:00	2420	759	1.6	-12.2	265	11	
2025-10-28T12:00	2440	757	1.5	-12.3	266	11	
2025-10-28T12:00	2460	755	1.5	-12.6	266	11	
2025-10-28T12:00	2480	753	1.4	-11.9	266	11	
2025-10-28T12:00	2500	751	1.3	-12.8	267	11	
2025-10-28T12:00	2520	749	1.3	-13.8	268	11	
2025-10-28T12:00	2540	747	1.2	-16.8	269	11	
2025-10-28T12:00	2560	746	1.1	-18.3	270	11	
2025-10-28T12:00	2580	744	1.0	-19.0	271	11	
2025-10-28T12:00	2600	742	1.0	-19.5	272	11	
2025-10-28T12:00	2620	740	1.0	-20.5	273	11	
2025-10-28T12:00	2640	738	1.0	-20.8	273	11	
2025-10-28T12:00	2660	736	0.9	-20.9	273	11	
2025-10-28T12:00	2680	735	0.8	-21.2	273	11	
2025-10-28T12:00	2700	733	0.6	-21.2	273	11	
2025-10-28T12:00	2720	731	0.6	-19.7	273	11	
2025-10-28T12:00	2740	729	0.5	-18.4	272	11	
2025-10-28T12:00	2760	727	0.3	-15.1	272	11	
2025-10-28T12:00	2780	725	0.2	-15.6	271	11	
2025-10-28T12:00	2800	724	0.2	-17.7	270	10	
2025-10-28T12:00	2820	722	0.4	-20.9	269	10	
2025-10-28T12:00	2840	720	0.7	-23.7	268	10	
2025-10-28T12:00	2860	718	0.9	-24.6	267	10	
2025-10-28T12:00	2880	716	0.9	-25.8	266	10	
2025-10-28T12:00	2900	715	0.9	-26.1	265	10	
2025-10-28T12:00	2920	713	0.8	-24.7	264	9	
2025-10-28T12:00	2940	711	0.7	-22.4	264	9	
2025-10-28T12:00	2960	709	0.6	-18.7	264	9	
2025-10-28T12:00	2980	708	0.5	-17.7	264	9	
2025-10-28T12:00	3000	706	0.3	-17.4	264	9	
2025-10-28T12:00	3020	704	0.1	-17.2	265	9	
2025-10-28T12:00	3040	702	0.0	-17.0	266	9	
2025-10-28T12:00	3060	701	-0.2	-17.7	266	9	
2025-10-28T12:00	3080	699	-0.3	-18.0	267	9	
2025-10-28T12:00	3100	697	-0.4	-17.3	268	10	
2025-10-28T12:00	3120	695	-0.6	-16.1	269	10	
2025-10-28T12:00	3140	693	-0.6	-14.9	269	10	
2025-10-28T12:00	3160	692	-0.8	-14.7	270	10	
2025-10-28T12:00	3180	690	-1.0	-14.7	271	10	
2025-10-28T12:00	3200	688	-1.2	-15.0	272	10	
2025-10-28T12:00	3220	686	-1.3	-15.9	273	10	
2025-10-28T12:00	3240	685	-1.3	-17.2	274	10	
2025-10-28T12:00	3260	683	-1.4	-18.4	275	10	
2025-10-28T12:00	3280	681	-1.5	-18.3	276	10	
2025-10-28T12:00	3300	680	-1.6	-19.3	277	10	
2025-10-28T12:00	3320	678	-1.6	-19.8	278	11	
2025-10-28T12:00	3340	676	-1.7	-19.8	279	11	
2025-10-28T12:00	3360	675	-1.9	-19.9	280	11	
2025-10-28T12:00	3380	673	-1.9	-19.9	281	11	
2025-10-28T12:00	3400	671	-2.0	-20.0	281	12	
2025-10-28T12:00	3420	669	-2.1	-20.1	282	12	
2025-10-28T12:00	3440	668	-2.2	-20.3	283	12	
2025-10-28T12:00	3460	666	-2.3	-20.4	283	13	
2025-10-28T12:00	3480	665	-2.5	-20.6	283	13	
2025-10-28T12:00	3500	663	-2.6	-20.8	284	13	
2025-10-28T12:00	3520	661	-2.7	-20.9	284	13	
2025-10-28T12:00	3540	660	-2.8	-21.1	285	13	
2025-10-28T12:00	3560	658	-3.0	-21.2	285	13	
2025-10-28T12:00	3580	656	-3.1	-21.1	286	13	
2025-10-28T12:00	3600	654	-3.3	-20.9	286	13	
2025-10-28T12:00	3620	653	-3.4	-20.7	287	13	
2025-10-28T12:00	3640	651	-3.6	-20.8	287	13	
2025-10-28T12:00	3660	649	-3.8	-21.1	288	13	
2025-10-28T12:00	3680	648	-3.9	-21.2	288	13	
2025-10-28T12:00	3700	646	-4.1	-21.1	289	13	
2025-10-28T12:00	3720	645	-4.2	-21.1	289	13	
2025-10-28T12:00	3740	643	-4.4	-21.2	289	13	
2025-10-28T12:00	3760	641	-4.6	-21.2	289	14	
2025-10-28T12:00	3780	640	-4.8	-21.3	289	14	
2025-10-28T12:00	3800	638	-4.9	-21.4	289	14	
2025-10-28T12:00	3820	636	-5.1	-21.5	289	14	
2025-10-28T12:00	3840	635	-5.1	-21.8	289	14	
2025-10-28T12:00	3860	633	-5.2	-22.1	289	15	
2025-10-28T12:00	3880	631	-5.3	-22.4	289	15	
2025-10-28T12:00	3900	630	-5.4	-22.3	289	15	
2025-10-28T12:00	3920	628	-5.4	-22.5	289	15	
2025-10-28T12:00	3940	627	-5.4	-23.7	289	15	
2025-10-28T12:00	3960	625	-5.5	-24.9	289	15	
2025-10-28T12:00	3980	624	-5.5	-25.4	289	15	
2025-10-28T12:00	4000	622	-5.6	-26.1	288	15	
2025-10-28T12:00	4020	621	-5.6	-26.6	288	15	
2025-10-28T12:00	4040	619	-5.5	-27.9	287	16	
2025-10-28T12:00	4060	617	-5.3	-27.1	287	16	
2025-10-28T12:00	4080	616	-5.5	-26.2	287	16	
2025-10-28T12:00	4100	614	-5.6	-26.1	287	16	
2025-10-28T12:00	4120	613	-5.8	-26.1	287	16	
2025-10-28T12:00	4140	611	-6.0	-25.3	287	17	
2025-10-28T12:00	4160	609	-6.1	-25.4	287	17	
2025-10-28T12:00	4180	608	-6.3	-25.3	288	17	
2025-10-28T12:00	4200	606	-6.4	-25.7	288	17	
2025-10-28T12:00	4220	605	-6.5	-25.9	288	17	
2025-10-28T12:00	4240	603	-6.6	-26.0	289	17	
2025-10-28T12:00	4260	602	-6.7	-26.2	289	17	
2025-10-28T12:00	4280	600	-6.9	-26.2	290	17	
2025-10-28T12:00	4300	599	-7.0	-26.1	290	18	
2025-10-28T12:00	4320	597	-7.2	-26.2	290	18	
2025-10-28T12:00	4340	596	-7.3	-26.5	291	18	
2025-10-28T12:00	4360	594	-7.5	-26.4	292	18	
2025-10-28T12:00	4380	592	-7.7	-26.1	292	18	
2025-10-28T12:00	4400	591	-7.8	-26.4	293	18	
2025-10-28T12:00	4420	590	-7.9	-26.7	293	18	
2025-10-28T12:00	4440	588	-8.1	-26.9	293	18	
2025-10-28T12:00	4460	586	-8.3	-27.0	294	18	
2025-10-28T12:00	4480	585	-8.5	-27.0	294	18	
2025-10-28T12:00	4500	583	-8.6	-26.9	294	18	
2025-10-28T12:00	4520	582	-8.8	-26.8	294	18	
2025-10-28T12:00	4540	581	-9.0	-26.8	294	18	
2025-10-28T12:00	4560	579	-9.2	-26.8	294	18	
2025-10-28T12:00	4580	577	-9.4	-26.9	294	18	
2025-10-28T12:00	4600	576	-9.5	-27.1	293	17	
2025-10-28T12:00	4620	574	-9.8	-27.3	293	17	
2025-10-28T12:00	4640	573	-9.9	-27.6	293	17	
2025-10-28T12:00	4660	571	-10.1	-27.6	293	17	
2025-10-28T12:00	4680	570	-10.3	-27.7	292	17	
2025-10-28T12:00	4700	569	-10.4	-27.8	292	17	
2025-10-28T12:00	4720	567	-10.6	-27.8	292	17	
2025-10-28T12:00	4740	566	-10.8	-27.9	292	18	
2025-10-28T12:00	4760	564	-11.0	-28.0	292	18	
2025-10-28T12:00	4780	563	-11.2	-28.2	292	18	
2025-10-28T12:00	4800	561	-11.3	-28.3	292	18	
2025-10-28T12:00	4820	560	-11.5	-28.2	292	18	
2025-10-28T12:00	4840	558	-11.6	-28.2	292	18	
2025-10-28T12:00	4860	557	-11.8	-28.1	293	18	
2025-10-28T12:00	4880	555	-11.9	-28.2	293	18	
2025-10-28T12:00	4900	554	-12.1	-28.2	293	19	
2025-10-28T12:00	4920	552	-12.3	-28.3	294	19	
2025-10-28T12:00	4940	551	-12.6	-28.3	294	19	
2025-10-28T12:00	4960	549	-12.7	-28.3	294	19	
2025-10-28T12:00	4980	548	-12.9	-28.2	295	19	
2025-10-28T12:00	5000	547	-13.1	-28.3	295	19	
2025-10-28T12:00	5020	545	-13.2	-28.3	295	20	
2025-10-28T12:00	5040	544	-13.3	-28.5	295	20	
2025-10-28T12:00	5060	542	-13.5	-28.8	296	20	
2025-10-28T12:00	5080	541	-13.6	-29.1	296	20	
2025-10-28T12:00	5100	540	-13.8	-29.2	296	20	
2025-10-28T12:00	5120	538	-14.0	-29.5	297	20	
2025-10-28T12:00	5140	537	-14.1	-30.1	297	20	
2025-10-28T12:00	5160	535	-14.3	-30.1	297	20	
2025-10-28T12:00	5180	534	-14.4	-30.0	297	20	
2025-10-28T12:00	5200	533	-14.6	-30.0	298	20	
2025-10-28T12:00	5220	531	-14.8	-30.3	298	20	
2025-10-28T12:00	5240	530	-14.9	-30.1	298	20	
2025-10-28T12:00	5260	528	-15.0	-30.4	298	20	
2025-10-28T12:00	5280	527	-15.1	-30.6	298	21	
2025-10-28T12:00	5300	525	-15.1	-31.2	297	21	
2025-10-28T12:00	5320	524	-15.1	-32.5	297	21	
2025-10-28T12:00	5340	523	-15.0	-34.0	297	21	
2025-10-28T12:00	5360	521	-14.9	-36.2	296	22	
2025-10-28T12:00	5380	520	-14.7	-38.2	296	22	
2025-10-28T12:00	5400	519	-14.8	-39.1	296	22	
2025-10-28T12:00	5420	517	-14.8	-40.0	296	22	
2025-10-28T12:00	5440	516	-14.9	-40.3	296	22	
2025-10-28T12:00	5460	515	-15.0	-40.2	296	22	
2025-10-28T12:00	5480	513	-15.1	-40.8	296	22	
2025-10-28T12:00	5500	512	-15.3	-41.1	296	22	
2025-10-28T12:00	5520	510	-15.5	-41.2	296	22	
2025-10-28T12:00	5540	509	-15.6	-41.1	295	22	
2025-10-28T12:00	5560	508	-15.9	-41.2	295	22	
2025-10-28T12:00	5580	506	-16.0	-41.4	294	22	
2025-10-28T12:00	5600	505	-16.2	-41.4	293	22	
2025-10-28T12:00	5620	504	-16.3	-41.3	292	21	
2025-10-28T12:00	5640	502	-16.4	-41.8	291	21	
2025-10-28T12:00	5660	501	-16.5	-42.3	291	21	
2025-10-28T12:00	5680	500	-16.6	-43.0	290	21	
2025-10-28T12:00	5700	498	-16.7	-43.9	290	20	
2025-10-28T12:00	5720	497	-16.8	-44.3	289	20	
2025-10-28T12:00	5740	496	-16.9	-45.0	289	20	
2025-10-28T12:00	5760	494	-17.0	-45.3	290	20	
2025-10-28T12:00	5780	493	-17.1	-45.6	290	20	
2025-10-28T12:00	5800	492	-17.2	-46.0	291	21	
2025-10-28T12:00	5820	490	-17.3	-46.3	291	21	
2025-10-28T12:00	5840	489	-17.4	-46.3	292	21	
2025-10-28T12:00	5860	488	-17.6	-46.2	292	22	
2025-10-28T12:00	5880	487	-17.7	-46.1	292	22	
2025-10-28T12:00	5900	485	-17.9	-45.9	292	22	
2025-10-28T12:00	5920	484	-18.0	-45.9	292	22	
2025-10-28T12:00	5940	483	-18.1	-45.8	292	23	
2025-10-28T12:00	5960	481	-18.2	-45.6	291	23	
2025-10-28T12:00	5980	480	-18.3	-45.0	290	23	
2025-10-28T12:00	6000	479	-18.4	-44.3	289	24	
2025-10-28T12:00	6020	477	-18.4	-44.6	289	24	
2025-10-28T12:00	6040	476	-18.4	-44.7	288	24	
2025-10-28T12:00	6060	475	-18.4	-44.6	288	25	
2025-10-28T12:00	6080	474	-18.5	-44.6	288	25	
2025-10-28T12:00	6100	472	-18.6	-45.0	288	26	
2025-10-28T12:00	6120	471	-18.6	-46.4	288	26	
2025-10-28T12:00	6140	470	-18.7	-46.4	289	26	
2025-10-28T12:00	6160	469	-18.8	-46.5	289	27	
2025-10-28T12:00	6180	467	-18.9	-46.5	289	27	
2025-10-28T12:00	6200	466	-19.0	-46.6	289	27	
2025-10-28T12:00	6220	465	-19.1	-46.8	289	28	
2025-10-28T12:00	6240	464	-19.2	-47.3	289	28	
2025-10-28T12:00	6260	462	-19.3	-47.3	289	28	
2025-10-28T12:00	6280	461	-19.4	-47.2	288	28	
2025-10-28T12:00	6300	460	-19.5	-46.9	287	27	
2025-10-28T12:00	6320	459	-19.6	-46.0	287	27	
2025-10-28T12:00	6340	458	-19.7	-45.1	287	27	
2025-10-28T12:00	6360	456	-19.8	-45.4	287	27	
2025-10-28T12:00	6380	455	-19.9	-45.6	288	27	
2025-10-28T12:00	6400	454	-20.0	-45.7	289	27	
2025-10-28T12:00	6420	452	-20.1	-45.8	290	27	
2025-10-28T12:00	6440	451	-20.2	-46.0	292	27	
2025-10-28T12:00	6460	450	-20.4	-45.9	293	27	
2025-10-28T12:00	6480	449	-20.5	-45.7	294	28	
2025-10-28T12:00	6500	448	-20.7	-45.7	294	28	
2025-10-28T12:00	6520	446	-20.8	-45.8	295	28	
2025-10-28T12:00	6540	445	-21.0	-45.9	296	28	
2025-10-28T12:00	6560	444	-21.2	-46.1	296	28	
2025-10-28T12:00	6580	443	-21.3	-46.2	296	28	
2025-10-28T12:00	6600	441	-21.5	-46.3	296	28	
2025-10-28T12:00	6620	440	-21.7	-46.5	296	28	
2025-10-28T12:00	6640	439	-21.8	-46.9	296	29	
2025-10-28T12:00	6660	438	-22.0	-46.9	296	29	
2025-10-28T12:00	6680	437	-22.2	-47.1	296	29	
2025-10-28T12:00	6700	436	-22.4	-47.2	296	29	
2025-10-28T12:00	6720	434	-22.5	-47.4	296	29	
2025-10-28T12:00	6740	433	-22.7	-47.5	296	30	
2025-10-28T12:00	6760	432	-22.9	-47.8	296	30	
2025-10-28T12:00	6780	431	-23.0	-48.3	295	30	
2025-10-28T12:00	6800	430	-23.2	-48.7	295	30	
2025-10-28T12:00	6820	428	-23.4	-48.8	295	30	
2025-10-28T12:00	6840	427	-23.5	-48.7	295	31	
2025-10-28T12:00	6860	426	-23.7	-48.7	295	31	
2025-10-28T12:00	6880	425	-23.9	-48.8	294	31	
2025-10-28T12:00	6900	424	-24.1	-48.6	294	32	
2025-10-28T12:00	6920	423	-24.3	-47.9	294	32	
2025-10-28T12:00	6940	421	-24.4	-47.5	294	32	
2025-10-28T12:00	6960	420	-24.5	-47.3	294	33	
2025-10-28T12:00	6980	419	-24.7	-47.3	294	33	
2025-10-28T12:00	7000	418	-24.9	-47.2	294	33	
2025-10-28T12:00	7020	417	-25.1	-46.7	293	33	
2025-10-28T12:00	7040	416	-25.2	-46.1	293	33	
2025-10-28T12:00	7060	415	-25.4	-45.7	292	34	
2025-10-28T12:00	7080	413	-25.6	-45.6	292	34	
2025-10-28T12:00	7100	412	-25.8	-45.5	292	34	
2025-10-28T12:00	7120	411	-26.0	-45.4	292	34	
2025-10-28T12:00	7140	410	-26.1	-44.1	291	34	
2025-10-28T12:00	7160	409	-26.3	-43.8	291	35	
2025-10-28T12:00	7180	408	-26.5	-43.5	291	35	
2025-10-28T12:00	7200	407	-26.7	-43.2	291	35	
2025-10-28T12:00	7220	406	-26.9	-42.8	291	35	
2025-10-28T12:00	7240	405	-27.0	-42.2	290	35	
2025-10-28T12:00	7260	403	-27.2	-42.0	290	34	
2025-10-28T12:00	7280	402	-27.4	-41.8	290	34	
2025-10-28T12:00	7300	401	-27.5	-42.1	289	34	
2025-10-28T12:00	7320	400	-27.7	-42.5	288	34	
2025-10-28T12:00	7340	399	-27.9	-42.6	288	34	
2025-10-28T12:00	7360	398	-28.0	-42.5	287	34	
2025-10-28T12:00	7380	397	-28.2	-42.3	287	34	
2025-10-28T12:00	7400	396	-28.3	-42.2	286	34	
2025-10-28T12:00	7420	395	-28.5	-42.1	286	34	
2025-10-28T12:00	7440	393	-28.7	-42.2	287	34	
2025-10-28T12:00	7460	392	-28.9	-42.3	287	34	
2025-10-28T12:00	7480	391	-29.1	-42.5	287	34	
2025-10-28T12:00	7500	390	-29.2	-42.6	287	34	
2025-10-28T12:00	7520	389	-29.4	-42.6	287	34	
2025-10-28T12:00	7540	388	-29.6	-42.7	287	35	
2025-10-28T12:00	7560	387	-29.8	-42.6	286	35	
2025-10-28T12:00	7580	386	-30.0	-42.5	286	35	
2025-10-28T12:00	7600	385	-30.1	-42.3	286	35	
2025-10-28T12:00	7620	384	-30.3	-42.3	286	35	
2025-10-28T12:00	7640	382	-30.6	-42.5	286	35	
2025-10-28T12:00	7660	381	-30.8	-42.8	286	35	
2025-10-28T12:00	7680	380	-30.9	-42.9	285	35	
2025-10-28T12:00	7700	379	-31.1	-43.0	285	34	
2025-10-28T12:00	7720	378	-31.3	-42.9	285	34	
2025-10-28T12:00	7740	377	-31.5	-42.9	285	34	
2025-10-28T12:00	7760	376	-31.7	-43.1	285	34	
2025-10-28T12:00	7780	375	-31.8	-43.1	285	34	
2025-10-28T12:00	7800	374	-32.0	-43.5	285	34	
2025-10-28T12:00	7820	373	-32.1	-43.8	285	33	
2025-10-28T12:00	7840	372	-32.3	-44.1	285	33	
2025-10-28T12:00	7860	371	-32.5	-44.6	285	33	
2025-10-28T12:00	7880	370	-32.7	-44.5	284	33	
2025-10-28T12:00	7900	369	-32.9	-44.1	284	33	
2025-10-28T12:00	7920	367	-33.0	-44.1	284	33	
2025-10-28T12:00	7940	367	-33.2	-44.4	284	33	
2025-10-28T12:00	7960	365	-33.3	-44.4	283	33	
2025-10-28T12:00	7980	364	-33.5	-44.2	283	33	
2025-10-28T12:00	8000	363	-33.7	-44.4	283	33	
2025-10-28T12:00	8020	362	-33.9	-44.5	283	33	
2025-10-28T12:00	8040	361	-34.1	-44.8	283	33	
2025-10-28T12:00	8060	360	-34.2	-45.0	283	33	
2025-10-28T12:00	8080	359	-34.4	-45.1	283	33	
2025-10-28T12:00	8100	358	-34.6	-45.2	282	33	
2025-10-28T12:00	8120	357	-34.9	-44.7	282	33	
2025-10-28T12:00	8140	356	-35.0	-43.9	282	33	
2025-10-28T12:00	8160	355	-35.2	-44.0	282	33	
2025-10-28T12:00	8180	354	-35.4	-44.1	282	33	
2025-10-28T12:00	8200	353	-35.6	-44.0	282	33	
2025-10-28T12:00	8220	352	-35.8	-43.6	281	33	
2025-10-28T12:00	8240	351	-36.0	-43.7	281	33	
2025-10-28T12:00	8260	350	-36.1	-43.4	281	33	
2025-10-28T12:00	8280	349	-36.3	-42.9	281	32	
2025-10-28T12:00	8300	348	-36.5	-43.6	281	32	
2025-10-28T12:00	8320	347	-36.7	-43.5	281	32	
2025-10-28T12:00	8340	346	-36.9	-43.8	281	32	
2025-10-28T12:00	8360	345	-37.1	-43.7	281	32	
2025-10-28T12:00	8380	344	-37.2	-43.7	281	32	
2025-10-28T12:00	8400	343	-37.5	-43.8	281	33	
2025-10-28T12:00	8420	342	-37.7	-43.4	281	33	
2025-10-28T12:00	8440	341	-37.8	-42.2	280	33	
2025-10-28T12:00	8460	340	-38.0	-42.0	280	33	
2025-10-28T12:00	8480	339	-38.2	-42.2	280	33	
2025-10-28T12:00	8500	338	-38.4	-41.9	280	33	
2025-10-28T12:00	8520	337	-38.5	-42.0	279	33	
2025-10-28T12:00	8540	336	-38.7	-42.0	279	33	
2025-10-28T12:00	8560	335	-38.9	-42.0	280	33	
2025-10-28T12:00	8580	334	-39.0	-42.2	280	33	
2025-10-28T12:00	8600	333	-39.2	-42.4	280	33	
2025-10-28T12:00	8620	332	-39.4	-42.5	280	33	
2025-10-28T12:00	8640	331	-39.5	-42.6	280	33	
2025-10-28T12:00	8660	330	-39.7	-42.8	281	33	
2025-10-28T12:00	8680	329	-39.8	-43.1	281	33	
2025-10-28T12:00	8700	329	-40.0	-43.2	281	33	
2025-10-28T12:00	8720	328	-40.1	-43.3	281	33	
2025-10-28T12:00	8740	327	-40.3	-43.3	282	33	
2025-10-28T12:00	8760	326	-40.5	-43.8	282	33	
2025-10-28T12:00	8780	325	-40.6	-44.1	282	33	
2025-10-28T12:00	8800	324	-40.8	-44.0	282	33	
2025-10-28T12:00	8820	323	-41.0	-43.8	281	33	
2025-10-28T12:00	8840	322	-41.2	-43.4	281	33	
2025-10-28T12:00	8860	321	-41.4	-43.3	280	33	
2025-10-28T12:00	8880	320	-41.5	-43.4	280	33	
2025-10-28T12:00	8900	319	-41.7	-43.6	280	33	
2025-10-28T12:00	8920	318	-41.9	-43.9	280	34	
2025-10-28T12:00	8940	317	-42.0	-44.1	280	34	
2025-10-28T12:00	8960	316	-42.2	-44.3	281	34	
2025-10-28T12:00	8980	315	-42.4	-44.1	281	34	
2025-10-28T12:00	9000	314	-42.6	-44.2	282	34	
2025-10-28T12:00	9020	313	-42.7	-44.6	282	34	
2025-10-28T12:00	9040	312	-42.9	-45.1	282	33	
2025-10-28T12:00	9060	312	-43.0	-45.7	283	33	
2025-10-28T12:00	9080	311	-43.1	-45.9	283	33	
2025-10-28T12:00	9100	310	-43.3	-46.0	284	33	
2025-10-28T12:00	9120	309	-43.5	-45.9	284	33	
2025-10-28T12:00	9140	308	-43.6	-46.1	284	33	
2025-10-28T12:00	9160	307	-43.8	-46.3	284	33	
2025-10-28T12:00	9180	306	-44.0	-46.6	284	33	
2025-10-28T12:00	9200	305	-44.1	-46.9	284	33	
2025-10-28T12:00	9220	304	-44.3	-47.0	284	33	
2025-10-28T12:00	9240	303	-44.4	-47.2	283	33	
2025-10-28T12:00	9260	302	-44.6	-47.3	283	33	
2025-10-28T12:00	9280	301	-44.8	-47.4	283	33	
2025-10-28T12:00	9300	301	-45.0	-47.5	283	33	
2025-10-28T12:00	9320	300	-45.1	-47.6	283	33	
2025-10-28T12:00	9340	299	-45.3	-47.7	283	33	
2025-10-28T12:00	9360	298	-45.5	-48.0	282	33	
2025-10-28T12:00	9380	297	-45.7	-48.1	282	33	
2025-10-28T12:00	9400	296	-45.8	-48.2	282	33	
2025-10-28T12:00	9420	295	-46.0	-48.4	282	33	
2025-10-28T12:00	9440	294	-46.2	-48.5	282	33	
2025-10-28T12:00	9460	293	-46.4	-48.6	282	33	
2025-10-28T12:00	9480	292	-46.5	-48.8	282	33	
2025-10-28T12:00	9500	292	-46.7	-49.1	282	34	
2025-10-28T12:00	9520	291	-46.8	-49.3	281	34	
2025-10-28T12:00	9540	290	-47.0	-49.4	281	34	
2025-10-28T12:00	9560	289	-47.2	-49.5	281	34	
2025-10-28T12:00	9580	288	-47.3	-49.7	280	34	
2025-10-28T12:00	9600	287	-47.5	-50.0	280	34	
2025-10-28T12:00	9620	286	-47.6	-50.1	280	34	
2025-10-28T12:00	9640	286	-47.8	-50.2	280	34	
2025-10-28T12:00	9660	285	-48.0	-50.3	280	33	
2025-10-28T12:00	9680	284	-48.2	-50.5	280	33	
2025-10-28T12:00	9700	283	-48.4	-50.7	280	33	
2025-10-28T12:00	9720	282	-48.5	-51.0	280	33	
2025-10-28T12:00	9740	281	-48.7	-51.5	280	33	
2025-10-28T12:00	9760	280	-48.9	-51.9	280	33	
2025-10-28T12:00	9780	279	-49.0	-52.2	281	33	
2025-10-28T12:00	9800	279	-49.2	-52.4	281	33	
2025-10-28T12:00	9820	278	-49.3	-52.6	281	33	
2025-10-28T12:00	9840	277	-49.5	-52.8	280	33	
2025-10-28T12:00	9860	276	-49.7	-53.2	280	33	
2025-10-28T12:00	9880	275	-49.8	-53.4	280	33	
2025-10-28T12:00	9900	274	-50.0	-53.5	280	33	
2025-10-28T12:00	9920	273	-50.2	-53.7	280	33	
2025-10-28T12:00	9940	273	-50.3	-53.8	280	33	
2025-10-28T12:00	9960	272	-50.4	-54.0	280	33	
2025-10-28T12:00	9980	271	-50.6	-54.2	280	33	
2025-10-28T12:00	10000	270	-50.7	-54.3	280	34	
2025-10-28T12:00	10018	270	-50.9	-54.3	281	34	
2025-10-28T12:00	10050	268	-51.1	-54.3	281	35	
2025-10-28T12:00	10100	266	-51.4	-54.5	282	35	
2025-10-28T12:00	10150	264	-51.6	-55.0	282	35	
2025-10-28T12:00	10200	262	-52.1	-55.2	282	35	
2025-10-28T12:00	10250	260	-52.5	-55.4	282	35	
2025-10-28T12:00	10300	258	-52.9	-56.0	283	35	
2025-10-28T12:00	10350	256	-53.3	-56.7	284	35	
2025-10-28T12:00	10400	254	-53.7	-57.6	285	35	
2025-10-28T12:00	10450	252	-54.0	-57.9	286	35	
2025-10-28T12:00	10500	250	-54.5	-57.9	286	35	
2025-10-28T12:00	10550	248	-54.9	-58.1	285	35	
2025-10-28T12:00	10600	246	-55.3	-58.6	285	35	
2025-10-28T12:00	10650	244	-55.7	-58.9	285	35	
2025-10-28T12:00	10700	242	-56.2	-59.5	285	35	
2025-10-28T12:00	10750	240	-56.5	-60.0	285	35	
2025-10-28T12:00	10800	239	-56.9	-60.0	285	34	
2025-10-28T12:00	10850	237	-57.3	-60.3	286	34	
2025-10-28T12:00	10900	235	-57.7	-61.1	286	33	
2025-10-28T12:00	10950	233	-57.9	-61.6	286	33	
2025-10-28T12:00	11000	231	-58.3	-62.1	285	33	
2025-10-28T12:00	11050	229	-58.6	-62.0	284	32	
2025-10-28T12:00	11100	227	-59.0	-62.4	283	32	
2025-10-28T12:00	11150	226	-59.0	-63.1	283	32	
2025-10-28T12:00	11200	224	-59.3	-63.6	284	32	
2025-10-28T12:00	11250	222	-59.7	-64.0	284	33	
2025-10-28T12:00	11300	220	-60.0	-64.2	284	34	
2025-10-28T12:00	11350	219	-60.4	-64.2	284	34	
2025-10-28T12:00	11400	217	-60.8	-64.5	284	35	
2025-10-28T12:00	11450	215	-61.2	-65.2	284	35	
2025-10-28T12:00	11500	213	-61.5	-65.7	283	35	
2025-10-28T12:00	11550	212	-61.9	-66.4	281	35	
2025-10-28T12:00	11600	210	-61.9	-67.7	280	36	
2025-10-28T12:00	11650	208	-62.0	-68.9	281	37	
2025-10-28T12:00	11700	207	-62.3	-69.4	283	37	
2025-10-28T12:00	11750	205	-62.7	-69.8	285	37	
2025-10-28T12:00	11800	203	-63.1	-69.9	287	37	
2025-10-28T12:00	11850	202	-63.4	-70.3	288	36	
2025-10-28T12:00	11900	200	-63.8	-70.7	288	35	
2025-10-28T12:00	11950	198	-64.0	-70.9	288	35	
2025-10-28T12:00	12000	197	-64.3	-71.1	288	35	
2025-10-28T12:00	12050	195	-64.5	-71.3	288	34	
2025-10-28T12:00	12100	194	-64.7	-71.6	289	34	
2025-10-28T12:00	12150	192	-65.1	-72.1	290	33	
2025-10-28T12:00	12200	190	-65.3	-72.6	289	33	
2025-10-28T12:00	12250	189	-65.3	-73.0	287	33	
2025-10-28T12:00	12300	187	-65.2	-72.9	286	33	
2025-10-28T12:00	12350	186	-65.4	-72.8	287	34	
2025-10-28T12:00	12400	184	-65.6	-72.8	288	33	
2025-10-28T12:00	12450	183	-65.8	-72.6	289	32	
2025-10-28T12:00	12500	181	-65.7	-72.3	290	31	
2025-10-28T12:00	12550	180	-65.1	-71.8	292	30	
2025-10-28T12:00	12600	178	-65.2	-72.3	293	29	
2025-10-28T12:00	12650	177	-65.4	-72.6	293	29	
2025-10-28T12:00	12700	175	-65.7	-72.9	292	29	
2025-10-28T12:00	12750	174	-65.8	-73.0	291	29	
2025-10-28T12:00	12800	172	-66.0	-73.5	291	29	
2025-10-28T12:00	12850	171	-66.1	-73.9	292	29	
2025-10-28T12:00	12900	170	-66.2	-74.7	291	28	
2025-10-28T12:00	12950	168	-65.8	-75.1	288	26	
2025-10-28T12:00	13000	167	-65.8	-75.6	285	25	
2025-10-28T12:00	13050	166	-66.1	-75.9	282	24	
2025-10-28T12:00	13100	164	-66.3	-76.0	278	24	
2025-10-28T12:00	13150	163	-66.1	-76.1	276	25	
2025-10-28T12:00	13200	161	-66.0	-76.5	276	25	
2025-10-28T12:00	13250	160	-65.9	-76.9	277	26	
2025-10-28T12:00	13300	159	-65.6	-77.3	275	27	
2025-10-28T12:00	13350	158	-65.2	-77.6	274	27	
2025-10-28T12:00	13400	156	-64.9	-77.8	273	28	
2025-10-28T12:00	13450	155	-65.1	-78.1	273	29	
2025-10-28T12:00	13500	154	-64.7	-78.5	275	30	
2025-10-28T12:00	13550	152	-64.2	-79.2	278	31	
2025-10-28T12:00	13600	151	-64.2	-79.7	280	32	
2025-10-28T12:00	13650	150	-64.4	-79.8	283	33	
2025-10-28T12:00	13700	149	-64.6	-79.9	286	33	
2025-10-28T12:00	13750	148	-64.7	-80.1	288	32	
2025-10-28T12:00	13800	146	-64.6	-80.3	291	32	
2025-10-28T12:00	13850	145	-64.8	-80.6	294	31	
2025-10-28T12:00	13900	144	-64.9	-80.8	296	30	
2025-10-28T12:00	13950	143	-65.0	-81.1	297	28	
2025-10-28T12:00	14000	142	-65.1	-81.3	297	27	
2025-10-28T12:00	14050	140	-65.2	-81.5	296	26	
2025-10-28T12:00	14100	139	-65.3	-81.5	295	26	
2025-10-28T12:00	14150	138	-65.2	-81.6	293	26	
2025-10-28T12:00	14200	137	-65.1	-81.8	291	25	
2025-10-28T12:00	14250	136	-65.3	-82.0	290	26	
2025-10-28T12:00	14300	135	-65.5	-82.3	288	27	
2025-10-28T12:00	14350	134	-65.4	-82.5	287	29	
2025-10-28T12:00	14400	133	-65.0	-82.7	288	30	
2025-10-28T12:00	14450	131	-64.5	-82.9	290	30	
2025-10-28T12:00	14500	130	-63.7	-82.9	293	30	
2025-10-28T12:00	14550	129	-63.6	-83.2	295	29	
2025-10-28T12:00	14600	128	-63.6	-83.2	296	28	
2025-10-28T12:00	14650	127	-63.6	-83.2	297	27	
2025-10-28T12:00	14700	126	-63.8	-83.3	299	26	
2025-10-28T12:00	14750	125	-63.9	-83.4	299	24	
2025-10-28T12:00	14800	124	-63.9	-83.5	297	24	
2025-10-28T12:00	14850	123	-63.8	-83.5	294	23	
2025-10-28T12:00	14900	122	-63.6	-83.5	292	23	
2025-10-28T12:00	14950	121	-63.7	-83.7	291	23	
2025-10-28T12:00	15000	120	-63.7	-83.7	290	23	
2025-10-28T12:00	15050	119	-63.8	-83.8	291	23	
2025-10-28T12:00	15100	118	-63.5	-83.8	294	23	
2025-10-28T12:00	15150	117	-63.6	-84.0	297	22	
2025-10-28T12:00	15200	116	-63.4	-83.9	300	22	
2025-10-28T12:00	15250	115	-63.2	-83.9	301	21	
2025-10-28T12:00	15300	114	-63.2	-83.9	299	20	
2025-10-28T12:00	15350	114	-63.4	-84.0	298	20	
2025-10-28T12:00	15400	113	-63.6	-84.0	296	19	
2025-10-28T12:00	15450	112	-64.0	-84.1	293	20	
2025-10-28T12:00	15500	111	-64.2	-84.2	291	21	
2025-10-28T12:00	15550	110	-64.3	-84.3	291	22	
2025-10-28T12:00	15600	109	-64.1	-84.3	289	22	
2025-10-28T12:00	15650	108	-63.8	-84.3	287	23	
2025-10-28T12:00	15700	107	-63.7	-84.2	286	23	
2025-10-28T12:00	15750	106	-64.2	-84.4	288	24	
2025-10-28T12:00	15800	106	-64.4	-84.5	291	24	
2025-10-28T12:00	15850	105	-64.4	-84.5	295	23	
2025-10-28T12:00	15900	104	-64.4	-84.6	299	23	
2025-10-28T12:00	15950	103	-64.3	-84.6	303	23	
2025-10-28T12:00	16000	102	-64.4	-84.8	305	22	
2025-10-28T12:00	16050	101	-64.3	-84.7	307	21	
2025-10-28T12:00	16100	100	-64.1	-84.8	305	19	
2025-10-28T12:00	16150	100	-64.0	-85.0	303	18	
2025-10-28T12:00	16200	99	-63.5	-84.9	299	18	
2025-10-28T12:00	16250	98	-63.5	-84.9	298	18	
2025-10-28T12:00	16300	97	-63.7	-85.0	299	18	
2025-10-28T12:00	16350	96	-63.8	-85.1	301	18	
2025-10-28T12:00	16400	96	-63.8	-85.2	300	18	
2025-10-28T12:00	16450	95	-63.5	-85.2	299	18	
2025-10-28T12:00	16500	94	-63.7	-85.5	299	17	
2025-10-28T12:00	16550	93	-63.3	-85.5	299	15	
2025-10-28T12:00	16600	93	-62.8	-85.5	299	13	
2025-10-28T12:00	16650	92	-62.7	-85.5	297	11	
2025-10-28T12:00	16700	91	-63.0	-85.6	295	9	
2025-10-28T12:00	16750	90	-62.9	-85.7	292	8	
2025-10-28T12:00	16800	90	-62.7	-85.6	288	9	
2025-10-28T12:00	16850	89	-62.7	-85.7	286	10	
2025-10-28T12:00	16900	88	-62.5	-85.6	284	12	
2025-10-28T12:00	16950	87	-62.8	-85.7	283	13	
2025-10-28T12:00	17000	87	-63.1	-85.9	283	15	
2025-10-28T12:00	17050	86	-63.2	-86.0	285	16	
2025-10-28T12:00	17100	85	-62.9	-86.0	290	16	
2025-10-28T12:00	17150	85	-62.4	-86.0	294	15	
2025-10-28T12:00	17200	84	-62.2	-86.0	295	13	
2025-10-28T12:00	17250	83	-62.2	-86.1	295	11	
2025-10-28T12:00	17300	83	-61.7	-86.0	295	8	
2025-10-28T12:00	17350	82	-61.3	-85.9	288	6	
2025-10-28T12:00	17400	81	-61.2	-85.9	275	6	
2025-10-28T12:00	17450	81	-61.2	-85.8	265	7	
2025-10-28T12:00	17500	80	-61.3	-85.7	259	8	
2025-10-28T12:00	17550	79	-61.6	-85.7	256	8	
2025-10-28T12:00	17600	79	-61.9	-85.8	254	9	
2025-10-28T12:00	17650	78	-62.3	-85.9	251	11	
2025-10-28T12:00	17700	77	-62.6	-86.0	249	12	
2025-10-28T12:00	17750	77	-62.9	-86.1	248	13	
2025-10-28T12:00	17800	76	-63.1	-86.3	247	15	
2025-10-28T12:00	17850	76	-63.1	-86.3	247	16	
2025-10-28T12:00	17900	75	-62.9	-86.3	248	15	
2025-10-28T12:00	17950	74	-63.2	-86.3	250	14	
2025-10-28T12:00	18000	74	-63.5	-86.4	252	13	
2025-10-28T12:00	18050	73	-63.7	-86.4	254	13	
2025-10-28T12:00	18100	73	-64.0	-86.5	257	12	
2025-10-28T12:00	18150	72	-64.3	-86.6	261	13	
2025-10-28T12:00	18200	71	-64.6	-86.7	264	13	
2025-10-28T12:00	18250	71	-64.9	-86.8	264	13	
2025-10-28T12:00	18300	70	-65.2	-86.9	260	14	
2025-10-28T12:00	18350	70	-65.4	-87.0	255	15	
2025-10-28T12:00	18400	69	-65.4	-87.0	250	16	
2025-10-28T12:00	18450	69	-65.7	-87.1	248	17	
2025-10-28T12:00	18500	68	-66.1	-87.1	246	17	
2025-10-28T12:00	18550	67	-66.6	-87.2	246	18	
2025-10-28T12:00	18600	67	-67.0	-87.3	246	19	
2025-10-28T12:00	18650	66	-67.4	-87.5	246	20	
2025-10-28T12:00	18700	66	-67.6	-87.6	248	21	
2025-10-28T12:00	18750	65	-67.6	-87.8	251	20	
2025-10-28T12:00	18800	65	-67.6	-88.0	255	20	
2025-10-28T12:00	18850	64	-67.3	-88.2	260	21	
2025-10-28T12:00	18900	64	-66.3	-88.1	263	22	
2025-10-28T12:00	18950	63	-65.4	-87.9	266	22	
2025-10-28T12:00	19000	63	-65.4	-87.8	269	22	
2025-10-28T12:00	19050	62	-65.6	-87.8	273	22	
2025-10-28T12:00	19100	62	-65.6	-87.8	276	22	
2025-10-28T12:00	19150	61	-65.2	-87.6	279	21	
2025-10-28T12:00	19200	61	-65.3	-87.7	283	20	
2025-10-28T12:00	19250	60	-65.4	-87.7	288	20	
2025-10-28T12:00	19300	60	-65.4	-87.7	291	20	
2025-10-28T12:00	19350	59	-65.2	-87.6	293	19	
2025-10-28T12:00	19400	59	-65.4	-87.6	293	18	
2025-10-28T12:00	19450	58	-65.7	-87.9	293	18	
2025-10-28T12:00	19500	58	-65.6	-88.0	293	18	
2025-10-28T12:00	19550	57	-64.9	-87.9	294	18	
2025-10-28T12:00	19600	57	-64.5	-88.0	297	18	
2025-10-28T12:00	19650	56	-64.0	-88.0	300	19	
2025-10-28T12:00	19700	56	-63.4	-87.8	302	19	
2025-10-28T12:00	19750	55	-62.8	-87.7	302	19	
2025-10-28T12:00	19800	55	-62.1	-87.4	302	20	
2025-10-28T12:00	19850	54	-61.4	-87.1	303	20	
2025-10-28T12:00	19900	54	-61.1	-86.9	303	20	
2025-10-28T12:00	19950	54	-60.8	-86.8	305	20	
2025-10-28T12:00	20000	53	-60.3	-86.7	307	19	
2025-10-28T12:00	20050	53	-60.0		307	17	
2025-10-28T12:00	20100	52	-59.5		304	15	
2025-10-28T12:00	20150	52	-58.4		299	14	
2025-10-28T12:00	20200	51	-58.1		293	12	
2025-10-28T12:00	20250	51	-57.8		287	11	
2025-10-28T12:00	20300	51	-57.6		283	10	
2025-10-28T12:00	20350	50	-57.9		283	9	
2025-10-28T12:00	20400	50	-57.9		288	8	
2025-10-28T12:00	20450	49	-57.6		294	7	
2025-10-28T12:00	20500	49	-57.3		298	6	
2025-10-28T12:00	20550	49	-57.6		299	6	
2025-10-28T12:00	20600	48	-57.9		297	5	
2025-10-28T12:00	20650	48	-58.3		294	5	
2025-10-28T12:00	20700	48	-58.7		292	5	
2025-10-28T12:00	20750	47	-59.1		290	5	
2025-10-28T12:00	20800	47	-59.5		289	5	
2025-10-28T12:00	20850	46	-60.0		291	5	
2025-10-28T12:00	20900	46	-60.3		294	4	
2025-10-28T12:00	20950	46	-60.7		296	4	
2025-10-28T12:00	21000	45	-61.1		297	4	
2025-10-28T12:00	21050	45	-61.5		298	4	
2025-10-28T12:00	21100	45	-62.0		300	4	
2025-10-28T12:00	21150	44	-62.5		300	4	
2025-10-28T12:00	21200	44	-62.9		297	4	
2025-10-28T12:00	21250	44	-63.3		294	4	
2025-10-28T12:00	21300	43	-63.5		294	4	
2025-10-28T12:00	21350	43	-63.6		297	5	
2025-10-28T12:00	21400	42	-63.8		295	5	
2025-10-28T12:00	21450	42	-64.0		287	6	
2025-10-28T12:00	21500	42	-64.0		275	6	
2025-10-28T12:00	21550	41	-64.2		267	7	
2025-10-28T12:00	21600	41	-64.0		268	8	
2025-10-28T12:00	21650	41	-63.5		275	7	
2025-10-28T12:00	21700	40	-63.0		284	6	
2025-10-28T12:00	21750	40	-63.2		286	6	
2025-10-28T12:00	21800	40	-63.0		280	6	
2025-10-28T12:00	21850	39	-63.2		270	8	
2025-10-28T12:00	21900	39	-63.3		261	9	
2025-10-28T12:00	21950	39	-62.9		253	11	
2025-10-28T12:00	22000	39	-62.2		250	12	
2025-10-28T12:00	22050	38	-62.3		249	13	
2025-10-28T12:00	22100	38	-62.5		250	13	
2025-10-28T12:00	22150	38	-62.6		249	15	
2025-10-28T12:00	22200	37	-62.8		250	17	
2025-10-28T12:00	22250	37	-62.4		250	19	
2025-10-28T12:00	22300	37	-62.3		251	20	
2025-10-28T12:00	22350	36	-62.3		253	18	
2025-10-28T12:00	22400	36	-61.7		258	16	
2025-10-28T12:00	22450	36	-60.7		263	15	
2025-10-28T12:00	22500	36	-60.7		266	14	
2025-10-28T12:00	22550	35	-61.0		268	14	
2025-10-28T12:00	22600	35	-61.2		267	14	
2025-10-28T12:00	22650	35	-61.0		264	15	
2025-10-28T12:00	22700	34	-60.8		262	16	
2025-10-28T12:00	22750	34	-61.0		260	18	
2025-10-28T12:00	22800	34	-61.4		261	19	
2025-10-28T12:00	22850	34	-61.8		261	20	
2025-10-28T12:00	22900	33	-62.2		263	21	
2025-10-28T12:00	22950	33	-62.2		264	22	
2025-10-28T12:00	23000	33	-62.0		264	22	
2025-10-28T12:00	23050	33	-61.7		265	22	
2025-10-28T12:00	23100	32	-61.9		265	22	
2025-10-28T12:00	23150	32	-62.4		266	22	
2025-10-28T12:00	23200	32	-62.6		267	23	
2025-10-28T12:00	23250	31	-62.3		268	24	
2025-10-28T12:00	23300	31	-61.7		269	26	
2025-10-28T12:00	23350	31	-61.5		271	27	
2025-10-28T12:00	23400	31	-61.3		272	26	
2025-10-28T12:00	23450	30	-60.1		274	24	
2025-10-28T12:00	23500	30	-58.8		277	22	
2025-10-28T12:00	23550	30	-57.9		279	22	
2025-10-28T12:00	23600	30	-57.8		281	21	
2025-10-28T12:00	23650	30	-57.8		283	21	
2025-10-28T12:00	23700	29	-56.9		285	21	
2025-10-28T12:00	23750	29	-56.0		286	21	
2025-10-28T12:00	23800	29	-55.6		286	20	
2025-10-28T12:00	23850	29	-55.8		287	19	
2025-10-28T12:00	23900	28	-56.0		288	19	
2025-10-28T12:00	23950	28	-56.3		290	18	
2025-10-28T12:00	24000	28	-56.3		291	18	
2025-10-28T12:00	24050	28	-56.3		292	17	
2025-10-28T12:00	24100	28	-56.4		294	15	
2025-10-28T12:00	24150	27	-56.6		296	14	
2025-10-28T12:00	24200	27	-56.8		297	12	
2025-10-28T12:00	24250	27	-56.8		295	11	
2025-10-28T12:00	24300	27	-56.7		291	10	
2025-10-28T12:00	24350	26	-56.9		286	10	
2025-10-28T12:00	24400	26	-57.2		281	9	
2025-10-28T12:00	24450	26	-57.5		276	8	
2025-10-28T12:00	24500	26	-57.8		270	7	
2025-10-28T12:00	24550	26	-58.2		267	8	
2025-10-28T12:00	24600	25	-58.4		268	9	
2025-10-28T12:00	24650	25	-58.8		272	10	
2025-10-28T12:00	24700	25	-59.1		275	12	
2025-10-28T12:00	24750	25	-59.5		277	13	
2025-10-28T12:00	24800	25	-59.5		277	13	
2025-10-28T12:00	24850	24	-59.6		277	13	
2025-10-28T12:00	24900	24	-59.7		277	13	
2025-10-28T12:00	24950	24	-59.7		278	13	
2025-10-28T12:00	25000	24	-59.8		277	12	
2025-10-28T12:00	25050	24	-60.1		275	12	
2025-10-28T12:00	25100	23	-60.3		270	12	
2025-10-28T12:00	25150	23	-60.3		264	11	
2025-10-28T12:00	25200	23	-60.6		258	11	
2025-10-28T12:00	25250	23	-60.8		253	12	
2025-10-28T12:00	25300	23	-60.6		249	12	
2025-10-28T12:00	25350	23	-60.6		246	13	
2025-10-28T12:00	25400	22	-60.5		245	14	
2025-10-28T12:00	25450	22	-60.4		246	15	
2025-10-28T12:00	25500	22	-60.1		248	15	
2025-10-28T12:00	25550	22	-60.2		250	15	
2025-10-28T12:00	25600	22	-60.5		250	15	
2025-10-28T12:00	25650	21	-60.4		249	16	
2025-10-28T12:00	25700	21	-60.0		246	18	
2025-10-28T12:00	25750	21	-60.1		244	19	
2025-10-28T12:00	25800	21	-60.0		243	20	
2025-10-28T12:00	25850	21	-59.7		244	20	
2025-10-28T12:00	25900	21	-59.8		246	20	
2025-10-28T12:00	25950	20	-60.0		248	20	
2025-10-28T12:00	26000	20	-60.1		250	21	
2025-10-28T12:00	26050	20	-60.1		250	21	
2025-10-28T12:00	26100	20	-60.0		250	22	
2025-10-28T12:00	26150	20	-60.0		250	22	
2025-10-28T12:00	26200	20	-60.3		250	22	
2025-10-28T12:00	26250	19	-60.3		251	22	
2025-10-28T12:00	26300	19	-60.5		251	23	
2025-10-28T12:00	26350	19	-60.5		251	24	
2025-10-28T12:00	26400	19	-60.5		251	25	
2025-10-28T12:00	26450	19	-60.4		252	25	
2025-10-28T12:00	26500	19	-60.7		254	25	
2025-10-28T12:00	26550	19	-60.9		256	24	
2025-10-28T12:00	26600	18	-61.3		256	24	
2025-10-28T12:00	26650	18	-61.5		256	24	
2025-10-28T12:00	26700	18	-61.2		257	25	
2025-10-28T12:00	26750	18	-61.1		257	27	
2025-10-28T12:00	26800	18	-61.3		259	29	
2025-10-28T12:00	26850	18	-60.7		261	30	
2025-10-28T12:00	26900	18	-60.6		263	30	
2025-10-28T12:00	26950	17	-60.2		263	29	
2025-10-28T12:00	27000	17	-60.1		263	28	
2025-10-28T12:00	27050	17	-60.0		262	27	
2025-10-28T12:00	27100	17	-59.9		262	26	
2025-10-28T12:00	27150	17	-59.8		262	25	
2025-10-28T12:00	27200	17	-59.4		261	25	
2025-10-28T12:00	27250	17	-59.0		258	25	
2025-10-28T12:00	27300	16	-58.7		253	26	
2025-10-28T12:00	27350	16	-58.0		250	26	
2025-10-28T12:00	27400	16	-57.6		248	27	
2025-10-28T12:00	27450	16	-57.9		248	28	
2025-10-28T12:00	27500	16	-57.9		247	29	
2025-10-28T12:00	27550	16	-57.9		246	31	
2025-10-28T12:00	27600	16	-57.8		246	32	
2025-10-28T12:00	27650	16	-57.5		246	34	
2025-10-28T12:00	27700	15	-56.9		247	35	
2025-10-28T12:00	27750	15	-56.2		248	35	
2025-10-28T12:00	27800	15	-56.0		249	34	
2025-10-28T12:00	27850	15	-56.1		251	34	
2025-10-28T12:00	27900	15	-56.2		252	33	
2025-10-28T12:00	27950	15	-56.4		253	33	
2025-10-28T12:00	28000	15	-56.7		254	33	
2025-10-28T12:00	28050	15	-56.8		255	34	
2025-10-28T12:00	28100	15	-56.7		255	36	
2025-10-28T12:00	28150	14	-56.7		256	37	
2025-10-28T12:00	28200	14	-56.7		256	39	
2025-10-28T12:00	28250	14	-56.8		258	40	
2025-10-28T12:00	28300	14	-56.9		259	41	
2025-10-28T12:00	28350	14	-57.3		260	42	
2025-10-28T12:00	28400	14	-57.4		260	42	
2025-10-28T12:00	28450	14	-56.9		261	41	
2025-10-28T12:00	28500	14	-56.1		262	42	
2025-10-28T12:00	28550	14	-55.7		262	44	
2025-10-28T12:00	28600	13	-55.2		264	44	
2025-10-28T12:00	28650	13	-54.6		265	43	
2025-10-28T12:00	28700	13	-54.7		267	41	
2025-10-28T12:00	28750	13	-55.0		269	40	
2025-10-28T12:00	28800	13	-55.1		270	39	
2025-10-28T12:00	28850	13	-54.5		270	38	
2025-10-28T12:00	28900	13	-54.5		269	37	
2025-10-28T12:00	28950	13	-54.7		268	37	
2025-10-28T12:00	29000	13	-54.7		267	37	
2025-10-28T12:00	29050	13	-54.8		265	37	
2025-10-28T12:00	29100	12	-55.1		264	37	
2025-10-28T12:00	29150	12	-55.2		263	38	
2025-10-28T12:00	29200	12	-54.9		263	39	
2025-10-28T12:00	29250	12	-54.5		264	40	
2025-10-28T12:00	29300	12	-54.5		265	41	
2025-10-28T12:00	29350	12	-54.7		266	42	
2025-10-28T12:00	29400	12	-54.9		267	42	
2025-10-28T12:00	29450	12	-54.9		267	42	
2025-10-28T12:00	29500	12	-54.8		266	42	
2025-10-28T12:00	29550	12	-54.7		265	42	
2025-10-28T12:00	29600	11	-54.4		264	41	
2025-10-28T12:00	29650	11	-53.7		263	41	
2025-10-28T12:00	29700	11	-53.2		262	41	
2025-10-28T12:00	29750	11	-53.1		261	40	
2025-10-28T12:00	29800	11	-53.0		260	40	
2025-10-28T12:00	29850	11	-53.0		260	41	
2025-10-28T12:00	29900	11	-52.7		260	41	
2025-10-28T12:00	29950	11	-52.4		261	41	
2025-10-28T12:00	30000	11	-52.1		262	41	
2025-10-28T12:00	30050	11	-51.6		263	41	
2025-10-28T12:00	30100	11	-51.4		264	41	
2025-10-28T12:00	30150	11	-51.1		265	41	
2025-10-28T12:00	30200	10	-50.8		265	42	
2025-10-28T12:00	30250	10	-50.3		264	42	
2025-10-28T12:00	30300	10	-49.4		262	42	
2025-10-28T12:00	30350	10	-48.8		261	41	
2025-10-28T12:00	30400	10	-48.2		259	40	
2025-10-28T12:00	30450	10	-47.8		257	40	
2025-10-28T12:00	30500	10	-47.6		256	41	
2025-10-28T12:00	30550	10	-47.0		257	42	
2025-10-28T12:00	30600	10	-46.5		259	43	
2025-10-28T12:00	30650	10	-46.2		261	44	
2025-10-28T12:00	30700	10	-46.2		263	44	
2025-10-28T12:00	30750	10	-46.4		264	43	
2025-10-28T12:00	30800	10	-46.6		264	43	
2025-10-28T12:00	30850	9	-46.7		264	43	
2025-10-28T12:00	30900	9	-46.3		262	43	
2025-10-28T12:00	30950	9	-46.0		260	44	
2025-10-28T12:00	31000	9	-46.3		258	44	
2025-10-28T12:00	31050	9	-46.6		256	45	
2025-10-28T12:00	31100	9	-46.6		255	46	
2025-10-28T12:00	31150	9	-46.3		254	46	
2025-10-28T12:00	31200	9	-46.3		254	45	
2025-10-28T12:00	31250	9	-46.5		255	45	
2025-10-28T12:00	31300	9	-46.7		256	44	
2025-10-28T12:00	31350	9	-47.1		257	44	
2025-10-28T12:00	31400	9	-47.3		258	44	
2025-10-28T12:00	31450	9	-47.5		259	43	
2025-10-28T12:00	31500	9	-47.7		260	43	
2025-10-28T12:00	31550	9	-47.8		262	42	
2025-10-28T12:00	31600	8	-47.8		262	41	
2025-10-28T12:00	31650	8	-47.7		260	41	
2025-10-28T12:00	31700	8	-47.2		258	42	
2025-10-28T12:00	31750	8	-47.0		255	44	
2025-10-28T12:00	31800	8	-46.7		253	45	
2025-10-28T12:00	31850	8	-46.5		251	46	
2025-10-28T12:00	31900	8	-46.3		250	46	
2025-10-28T12:00	31950	8	-46.0		251	46	
2025-10-28T12:00	32000	8	-46.1		250	45	
2025-10-28T12:00	32050	8	-46.2		249	44	
2025-10-28T12:00	32100	8	-46.0		249	44	
2025-10-28T12:00	32150	8	-45.5		250	44	
2025-10-28T12:00	32200	8	-45.4		250	46	
2025-10-28T12:00	32250	8	-45.4		250	47	
2025-10-28T12:00	32300	8	-45.5		250	48	
2025-10-28T12:00	32350	8	-45.1		251	48	
2025-10-28T12:00	32400	8	-44.7		250	48	
2025-10-28T12:00	32450	7	-44.8		250	49	
2025-10-28T12:00	32500	7	-45.0		250	50	
2025-10-28T12:00	32550	7	-45.2		250	51	
2025-10-28T12:00	32600	7	-45.4		250	51	
2025-10-28T12:00	32650	7	-45.7		251	51	
2025-10-28T12:00	32700	7	-45.4		252	50	
2025-10-28T12:00	32750	7	-45.1		252	49	
2025-10-28T12:00	32800	7	-45.0		252	48	
2025-10-28T12:00	32850	7	-44.9		252	48	
2025-10-28T12:00	32900	7	-45.0		253	48	
2025-10-28T12:00	32950	7	-45.1		253	47	
2025-10-28T12:00	33000	7	-45.4		254	47	
2025-10-28T12:00	33050	7	-45.8		254	47	
2025-10-28T12:00	33100	7	-46.2		254	47	
2025-10-28T12:00	33150	7	-46.4		254	47	
2025-10-28T12:00	33200	7	-46.3		253	47	
2025-10-28T12:00	33250	7	-46.4		253	47	
2025-10-28T12:00	33300	7	-46.6		253	46	
2025-10-28T12:00	33350	7	-46.8		252	46	
2025-10-28T12:00	33400	6	-47.1		251	47	
2025-10-28T12:00	33450	6	-47.3		251	47	
2025-10-28T12:00	33500	6	-47.4		250	48	
2025-10-28T12:00	33550	6	-47.6		250	49	
2025-10-28T12:00	33600	6	-47.9		250	50	
2025-10-28T12:00	33650	6	-48.2		249	51	
2025-10-28T12:00	33700	6	-48.5		249	52	
2025-10-28T12:00	33750	6	-48.9		248	52	
2025-10-28T12:00	33800	6	-49.0		248	53	
2025-10-28T12:00	33850	6	-49.2		248	53	
2025-10-28T12:00	33900	6	-49.5		249	54	
2025-10-28T12:00	33950	6	-49.4		250	54	
2025-10-28T12:00	34000	6	-49.4		251	55	
2025-10-28T12:00	34050	6	-49.4		252	55	
2025-10-28T12:00	34100	6	-49.4		253	56	
2025-10-28T12:00	34150	6	-49.7		254	56	
2025-10-28T12:00	34200	6	-49.8		254	56	
2025-10-28T12:00	34250	6	-49.8		255	57	
2025-10-28T12:00	34300	6	-49.7		256	57	
2025-10-28T12:00	34350	6	-49.5		257	59	
2025-10-28T12:00	34400	6	-49.7		258	60	
2025-10-28T12:00	34450	6	-49.8		259	60	
2025-10-28T12:00	34500	5	-49.4		258	60	
2025-10-29T00:00	491	958	5.2	4.9	193	1	
2025-10-29T00:00	501	956	6.4	4.9	196	1	
2025-10-29T00:00	520	954	7.8	5.1	201	1	
2025-10-29T00:00	540	952	8.3	4.9	210	2	
2025-10-29T00:00	560	950	9.0	5.0	218	2	
2025-10-29T00:00	580	948	9.6	5.5	227	2	
2025-10-29T00:00	600	945	9.9	5.8	234	2	
2025-10-29T00:00	620	943	10.1	5.4	239	3	
2025-10-29T00:00	640	941	9.9	4.9	241	3	
2025-10-29T00:00	660	938	9.8	4.5	243	3	
2025-10-29T00:00	680	936	9.7	4.0	242	4	
2025-10-29T00:00	700	934	9.6	3.8	242	4	
2025-10-29T00:00	720	932	9.7	3.5	240	5	
2025-10-29T00:00	740	929	9.9	3.9	239	5	
2025-10-29T00:00	760	927	9.9	4.3	238	5	
2025-10-29T00:00	780	925	9.8	4.7	237	6	
2025-10-29T00:00	800	923	9.7	5.3	236	7	
2025-10-29T00:00	820	921	9.8	5.6	235	7	
2025-10-29T00:00	840	919	9.7	5.4	235	8	
2025-10-29T00:00	860	916	9.5	5.3	234	8	
2025-10-29T00:00	880	914	9.3	5.3	234	8	
2025-10-29T00:00	900	912	9.1	5.3	234	9	
2025-10-29T00:00	920	910	9.0	5.1	234	9	
2025-10-29T00:00	940	907	8.8	4.9	235	9	
2025-10-29T00:00	960	905	8.7	5.1	237	9	
2025-10-29T00:00	980	903	8.5	5.0	238	9	
2025-10-29T00:00	1000	901	8.3	4.9	240	8	
2025-10-29T00:00	1020	899	8.2	5.1	241	8	
2025-10-29T00:00	1040	897	8.1	5.4	241	9	
2025-10-29T00:00	1060	894	8.1	5.4	240	9	
2025-10-29T00:00	1080	892	8.2	4.8	238	9	
2025-10-29T00:00	1100	890	8.4	4.4	236	9	
2025-10-29T00:00	1120	888	8.5	3.9	234	9	
2025-10-29T00:00	1140	886	8.5	3.5	233	9	
2025-10-29T00:00	1160	884	8.4	3.4	231	9	
2025-10-29T00:00	1180	882	8.3	3.1	230	9	
2025-10-29T00:00	1200	879	8.2	3.0	230	9	
2025-10-29T00:00	1220	877	8.1	2.9	230	9	
2025-10-29T00:00	1240	875	8.1	2.5	231	9	
2025-10-29T00:00	1260	873	8.2	2.2	232	9	
2025-10-29T00:00	1280	871	8.2	1.8	232	9	
2025-10-29T00:00	1300	869	8.2	1.6	234	9	
2025-10-29T00:00	1320	867	8.1	1.4	235	10	
2025-10-29T00:00	1340	865	8.0	1.2	235	10	
2025-10-29T00:00	1360	863	8.2	0.8	236	10	
2025-10-29T00:00	1380	861	8.2	0.4	236	10	
2025-10-29T00:00	1400	858	8.2	-0.9	235	10	
2025-10-29T00:00	1420	856	8.3	-2.0	235	10	
2025-10-29T00:00	1440	854	8.4	-2.7	234	10	
2025-10-29T00:00	1460	852	8.4	-3.4	233	10	
2025-10-29T00:00	1480	850	8.6	-3.7	232	11	
2025-10-29T00:00	1500	848	8.7	-4.0	230	11	
2025-10-29T00:00	1520	846	8.7	-4.6	229	11	
2025-10-29T00:00	1540	844	8.7	-5.2	228	12	
2025-10-29T00:00	1560	842	8.5	-5.2	227	12	
2025-10-29T00:00	1580	840	8.4	-5.5	227	12	
2025-10-29T00:00	1600	838	8.2	-6.1	227	12	
2025-10-29T00:00	1620	836	8.0	-6.8	227	12	
2025-10-29T00:00	1640	834	8.0	-7.3	228	12	
2025-10-29T00:00	1660	832	7.9	-7.2	228	12	
2025-10-29T00:00	1680	830	7.7	-7.4	229	12	
2025-10-29T00:00	1700	828	7.6	-7.0	230	12	
2025-10-29T00:00	1720	826	7.5	-5.7	230	12	
2025-10-29T00:00	1740	824	7.3	-5.2	230	11	
2025-10-29T00:00	1760	822	7.2	-5.3	229	11	
2025-10-29T00:00	1780	820	7.1	-6.0	228	11	
2025-10-29T00:00	1800	818	7.0	-6.1	227	11	
2025-10-29T00:00	1820	816	6.9	-6.1	225	11	
2025-10-29T00:00	1840	814	6.9	-6.3	224	11	
2025-10-29T00:00	1860	812	6.9	-7.2	223	11	
2025-10-29T00:00	1880	810	6.8	-7.2	223	11	
2025-10-29T00:00	1900	808	6.7	-7.5	223	11	
2025-10-29T00:00	1920	806	6.7	-6.8	223	11	
2025-10-29T00:00	1940	804	6.6	-5.1	223	11	
2025-10-29T00:00	1960	802	6.4	-4.8	224	11	
2025-10-29T00:00	1980	800	6.3	-4.7	225	11	
2025-10-29T00:00	2000	798	6.1	-4.7	227	11	
2025-10-29T00:00	2020	796	5.9	-4.6	228	11	
2025-10-29T00:00	2040	794	5.7	-4.6	230	11	
2025-10-29T00:00	2060	792	5.5	-4.6	231	11	
2025-10-29T00:00	2080	790	5.3	-4.6	233	11	
2025-10-29T00:00	2100	788	5.1	-4.6	235	11	
2025-10-29T00:00	2120	786	5.0	-4.6	236	11	
2025-10-29T00:00	2140	785	4.8	-4.6	238	11	
2025-10-29T00:00	2160	783	4.6	-4.7	240	11	
2025-10-29T00:00	2180	781	4.4	-4.7	242	11	
2025-10-29T00:00	2200	779	4.2	-4.6	243	11	
2025-10-29T00:00	2220	777	4.2	-4.2	244	11	
2025-10-29T00:00	2240	775	4.2	-5.1	244	11	
2025-10-29T00:00	2260	773	4.8	-14.8	245	11	
2025-10-29T00:00	2280	771	5.2	-20.5	245	11	
2025-10-29T00:00	2300	769	5.2	-18.6	245	11	
2025-10-29T00:00	2320	767	5.2	-20.5	245	11	
2025-10-29T00:00	2340	765	5.3	-21.3	245	11	
2025-10-29T00:00	2360	763	5.2	-21.0	245	10	
2025-10-29T00:00	2380	762	5.1	-21.7	246	10	
2025-10-29T00:00	2400	760	5.0	-19.8	247	10	
2025-10-29T00:00	2420	758	4.9	-20.1	249	10	
2025-10-29T00:00	2440	756	4.7	-20.3	252	9	
2025-10-29T00:00	2460	754	4.6	-20.2	255	9	
2025-10-29T00:00	2480	752	4.6	-20.5	259	9	
2025-10-29T00:00	2500	750	4.5	-20.9	262	10	
2025-10-29T00:00	2520	749	4.5	-21.2	264	10	
2025-10-29T00:00	2540	747	4.4	-21.5	266	10	
2025-10-29T00:00	2560	745	4.3	-21.9	268	11	
2025-10-29T00:00	2580	743	4.3	-22.0	269	11	
2025-10-29T00:00	2600	741	4.1	-22.2	269	11	
2025-10-29T00:00	2620	740	4.0	-22.3	270	12	
2025-10-29T00:00	2640	737	3.9	-22.6	270	12	
2025-10-29T00:00	2660	736	3.7	-22.7	269	12	
2025-10-29T00:00	2680	734	3.6	-22.7	269	12	
2025-10-29T00:00	2700	732	3.4	-22.7	268	12	
2025-10-29T00:00	2720	730	3.2	-22.9	268	12	
2025-10-29T00:00	2740	729	3.1	-22.7	268	12	
2025-10-29T00:00	2760	727	2.9	-21.0	269	12	
2025-10-29T00:00	2780	725	2.7	-19.3	271	11	
2025-10-29T00:00	2800	723	2.5	-20.5	272	11	
2025-10-29T00:00	2820	722	2.3	-16.4	273	11	
2025-10-29T00:00	2840	720	2.0	-14.0	275	11	
2025-10-29T00:00	2860	718	1.8	-14.6	276	10	
2025-10-29T00:00	2880	716	1.6	-14.5	278	10	
2025-10-29T00:00	2900	714	1.4	-14.0	279	10	
2025-10-29T00:00	2920	712	1.2	-13.7	279	10	
2025-10-29T00:00	2940	711	1.0	-13.6	280	11	
2025-10-29T00:00	2960	709	0.9	-14.1	280	11	
2025-10-29T00:00	2980	707	0.9	-15.4	280	11	
2025-10-29T00:00	3000	706	0.8	-16.2	280	11	
2025-10-29T00:00	3020	704	0.8	-16.8	280	10	
2025-10-29T00:00	3040	702	0.6	-16.8	279	10	
2025-10-29T00:00	3060	700	0.5	-16.5	279	10	
2025-10-29T00:00	3080	699	0.3	-16.6	278	10	
2025-10-29T00:00	3100	697	0.2	-17.5	276	10	
2025-10-29T00:00	3120	695	0.1	-18.3	275	10	
2025-10-29T00:00	3140	693	-0.1	-16.2	274	10	
2025-10-29T00:00	3160	692	-0.3	-16.3	273	10	
2025-10-29T00:00	3180	690	-0.4	-16.4	272	10	
2025-10-29T00:00	3200	688	-0.6	-16.5	270	10	
2025-10-29T00:00	3220	686	-0.8	-16.8	270	11	
2025-10-29T00:00	3240	684	-0.9	-19.0	269	11	
2025-10-29T00:00	3260	683	-1.1	-19.8	269	11	
2025-10-29T00:00	3280	681	-1.2	-20.5	269	11	
2025-10-29T00:00	3300	680	-1.2	-21.9	269	11	
2025-10-29T00:00	3320	678	-1.4	-22.6	270	11	
2025-10-29T00:00	3340	676	-1.5	-24.2	270	11	
2025-10-29T00:00	3360	675	-1.7	-23.2	271	11	
2025-10-29T00:00	3380	673	-1.8	-23.9	271	11	
2025-10-29T00:00	3400	671	-1.9	-23.3	271	11	
2025-10-29T00:00	3420	669	-2.0	-24.6	271	12	
2025-10-29T00:00	3440	668	-2.1	-19.8	271	12	
2025-10-29T00:00	3460	666	-2.3	-20.3	271	11	
2025-10-29T00:00	3480	664	-2.4	-20.6	271	11	
2025-10-29T00:00	3500	663	-2.6	-20.6	270	11	
2025-10-29T00:00	3520	661	-2.8	-20.5	270	11	
2025-10-29T00:00	3540	659	-2.9	-20.6	270	11	
2025-10-29T00:00	3560	658	-3.0	-20.8	270	11	
2025-10-29T00:00	3580	656	-3.1	-21.3	270	11	
2025-10-29T00:00	3600	654	-3.2	-21.4	270	11	
2025-10-29T00:00	3620	653	-3.3	-21.9	270	11	
2025-10-29T00:00	3640	651	-3.3	-20.9	270	11	
2025-10-29T00:00	3660	649	-3.3	-22.6	270	11	
2025-10-29T00:00	3680	648	-3.3	-25.4	270	11	
2025-10-29T00:00	3700	646	-3.3	-26.0	269	11	
2025-10-29T00:00	3720	644	-3.4	-25.3	268	12	
2025-10-29T00:00	3740	643	-3.6	-23.7	267	12	
2025-10-29T00:00	3760	641	-3.7	-25.6	267	12	
2025-10-29T00:00	3780	639	-3.8	-28.3	266	12	
2025-10-29T00:00	3800	638	-3.9	-28.9	266	12	
2025-10-29T00:00	3820	636	-4.0	-29.1	266	13	
2025-10-29T00:00	3840	635	-3.9	-28.8	266	13	
2025-10-29T00:00	3860	633	-3.9	-29.0	267	13	
2025-10-29T00:00	3880	632	-3.9	-25.5	268	13	
2025-10-29T00:00	3900	630	-4.1	-25.1	269	13	
2025-10-29T00:00	3920	628	-4.2	-24.8	269	13	
2025-10-29T00:00	3940	627	-4.3	-24.7	269	13	
2025-10-29T00:00	3960	625	-4.3	-24.4	268	13	
2025-10-29T00:00	3980	624	-4.4	-23.7	268	13	
2025-10-29T00:00	4000	622	-4.6	-23.1	267	13	
2025-10-29T00:00	4020	620	-4.7	-22.5	268	14	
2025-10-29T00:00	4040	619	-4.9	-22.0	269	14	
2025-10-29T00:00	4060	617	-5.0	-22.4	270	14	
2025-10-29T00:00	4080	616	-5.1	-23.5	271	15	
2025-10-29T00:00	4100	614	-5.2	-23.9	272	15	
2025-10-29T00:00	4120	612	-5.3	-24.4	273	16	
2025-10-29T00:00	4140	611	-5.5	-24.4	273	16	
2025-10-29T00:00	4160	609	-5.6	-24.4	273	17	
2025-10-29T00:00	4180	608	-5.7	-24.5	271	17	
2025-10-29T00:00	4200	606	-5.9	-24.5	270	17	
2025-10-29T00:00	4220	605	-6.1	-24.6	268	17	
2025-10-29T00:00	4240	603	-6.3	-24.8	265	18	
2025-10-29T00:00	4260	602	-6.4	-25.1	264	18	
2025-10-29T00:00	4280	600	-6.6	-25.5	262	18	
2025-10-29T00:00	4300	599	-6.7	-26.7	261	18	
2025-10-29T00:00	4320	597	-6.6	-28.8	259	18	
2025-10-29T00:00	4340	596	-6.6	-29.4	259	19	
2025-10-29T00:00	4360	594	-6.7	-29.7	258	19	
2025-10-29T00:00	4380	593	-6.8	-29.8	259	19	
2025-10-29T00:00	4400	591	-6.8	-29.9	259	19	
2025-10-29T00:00	4420	590	-7.0	-29.5	259	19	
2025-10-29T00:00	4440	588	-7.1	-28.9	260	19	
2025-10-29T00:00	4460	586	-7.3	-29.0	261	19	
2025-10-29T00:00	4480	585	-7.5	-29.0	261	19	
2025-10-29T00:00	4500	583	-7.6	-28.6	262	19	
2025-10-29T00:00	4520	582	-7.8	-28.6	262	18	
2025-10-29T00:00	4540	580	-7.9	-29.5	262	18	
2025-10-29T00:00	4560	579	-8.0	-29.8	262	18	
2025-10-29T00:00	4580	577	-8.2	-28.7	261	18	
2025-10-29T00:00	4600	576	-8.4	-28.7	260	17	
2025-10-29T00:00	4620	574	-8.5	-28.6	260	17	
2025-10-29T00:00	4640	573	-8.6	-29.5	260	16	
2025-10-29T00:00	4660	571	-8.8	-29.5	260	16	
2025-10-29T00:00	4680	570	-8.9	-29.8	260	16	
2025-10-29T00:00	4700	569	-9.0	-28.8	262	16	
2025-10-29T00:00	4720	567	-9.1	-30.0	263	17	
2025-10-29T00:00	4740	566	-9.2	-30.3	264	17	
2025-10-29T00:00	4760	564	-9.3	-30.4	265	17	
2025-10-29T00:00	4780	563	-9.4	-31.4	265	18	
2025-10-29T00:00	4800	561	-9.5	-31.9	266	18	
2025-10-29T00:00	4820	560	-9.6	-31.5	266	19	
2025-10-29T00:00	4840	558	-9.8	-31.1	266	19	
2025-10-29T00:00	4860	557	-9.9	-31.9	266	19	
2025-10-29T00:00	4880	556	-9.9	-32.1	266	19	
2025-10-29T00:00	4900	554	-9.9	-33.1	266	19	
2025-10-29T00:00	4920	553	-10.0	-34.1	266	19	
2025-10-29T00:00	4940	551	-10.1	-36.2	267	19	
2025-10-29T00:00	4960	550	-10.2	-36.7	267	19	
2025-10-29T00:00	4980	548	-10.4	-35.9	266	19	
2025-10-29T00:00	5000	547	-10.5	-35.8	265	18	
2025-10-29T00:00	5020	545	-10.7	-34.7	264	18	
2025-10-29T00:00	5040	544	-10.8	-35.1	264	18	
2025-10-29T00:00	5060	543	-10.9	-36.1	263	18	
2025-10-29T00:00	5080	541	-11.1	-33.9	263	18	
2025-10-29T00:00	5100	540	-11.3	-33.3	264	18	
2025-10-29T00:00	5120	538	-11.5	-30.3	266	18	
2025-10-29T00:00	5140	537	-11.7	-30.0	267	18	
2025-10-29T00:00	5160	536	-11.9	-29.6	268	18	
2025-10-29T00:00	5180	534	-12.1	-28.9	269	19	
2025-10-29T00:00	5200	533	-12.3	-28.2	269	19	
2025-10-29T00:00	5220	531	-12.4	-28.4	270	19	
2025-10-29T00:00	5240	530	-12.6	-28.3	270	19	
2025-10-29T00:00	5260	529	-12.8	-28.4	270	19	
2025-10-29T00:00	5280	527	-13.0	-28.6	270	19	
2025-10-29T00:00	5300	526	-13.1	-29.5	270	19	
2025-10-29T00:00	5320	525	-13.3	-32.0	270	19	
2025-10-29T00:00	5340	523	-13.4	-31.3	270	19	
2025-10-29T00:00	5360	522	-13.6	-30.3	270	19	
2025-10-29T00:00	5380	520	-13.9	-29.3	270	19	
2025-10-29T00:00	5400	519	-14.0	-29.3	270	19	
2025-10-29T00:00	5420	518	-14.2	-29.0	270	19	
2025-10-29T00:00	5440	516	-14.3	-29.1	270	19	
2025-10-29T00:00	5460	515	-14.5	-30.2	271	19	
2025-10-29T00:00	5480	513	-14.6	-31.0	271	19	
2025-10-29T00:00	5500	512	-14.8	-31.3	271	19	
2025-10-29T00:00	5520	511	-15.0	-31.8	271	19	
2025-10-29T00:00	5540	509	-15.1	-32.0	271	19	
2025-10-29T00:00	5560	508	-15.2	-31.9	271	19	
2025-10-29T00:00	5580	507	-15.3	-31.9	271	19	
2025-10-29T00:00	5600	506	-15.5	-31.7	271	19	
2025-10-29T00:00	5620	504	-15.6	-33.2	271	18	
2025-10-29T00:00	5640	503	-15.7	-33.1	271	18	
2025-10-29T00:00	5660	501	-15.8	-30.4	271	18	
2025-10-29T00:00	5680	500	-16.0	-29.9	271	18	
2025-10-29T00:00	5700	499	-16.2	-29.7	270	18	
2025-10-29T00:00	5720	497	-16.4	-30.8	270	18	
2025-10-29T00:00	5740	496	-16.5	-32.9	270	18	
2025-10-29T00:00	5760	495	-16.6	-32.2	269	18	
2025-10-29T00:00	5780	494	-16.7	-31.8	268	18	
2025-10-29T00:00	5800	492	-16.8	-32.1	267	18	
2025-10-29T00:00	5820	491	-17.0	-31.9	265	18	
2025-10-29T00:00	5840	490	-17.1	-31.7	264	19	
2025-10-29T00:00	5860	488	-17.3	-31.8	263	19	
2025-10-29T00:00	5880	487	-17.5	-31.7	263	19	
2025-10-29T00:00	5900	486	-17.7	-31.8	263	19	
2025-10-29T00:00	5920	484	-17.8	-33.0	263	18	
2025-10-29T00:00	5940	483	-18.0	-33.1	264	18	
2025-10-29T00:00	5960	482	-18.1	-33.3	265	18	
2025-10-29T00:00	5980	480	-18.2	-34.1	266	17	
2025-10-29T00:00	6000	479	-18.2	-34.0	266	17	
2025-10-29T00:00	6020	478	-18.3	-33.9	267	16	
2025-10-29T00:00	6040	477	-18.4	-34.6	267	16	
2025-10-29T00:00	6060	475	-18.6	-34.7	267	16	
2025-10-29T00:00	6080	474	-18.7	-34.3	267	16	
2025-10-29T00:00	6100	473	-18.9	-34.1	267	16	
2025-10-29T00:00	6120	472	-19.1	-33.8	267	16	
2025-10-29T00:00	6140	470	-19.3	-33.4	268	16	
2025-10-29T00:00	6160	469	-19.5	-33.9	269	16	
2025-10-29T00:00	6180	468	-19.6	-34.4	271	16	
2025-10-29T00:00	6200	467	-19.8	-34.8	272	16	
2025-10-29T00:00	6220	465	-19.9	-33.9	273	16	
2025-10-29T00:00	6240	464	-20.1	-34.3	274	16	
2025-10-29T00:00	6260	463	-20.2	-35.2	274	17	
2025-10-29T00:00	6280	462	-20.4	-34.2	274	17	
2025-10-29T00:00	6300	460	-20.6	-33.7	273	17	
2025-10-29T00:00	6320	459	-20.8	-32.3	273	17	
2025-10-29T00:00	6340	458	-21.0	-31.6	272	17	
2025-10-29T00:00	6360	457	-21.2	-31.9	272	17	
2025-10-29T00:00	6380	455	-21.3	-32.8	271	17	
2025-10-29T00:00	6400	454	-21.5	-34.0	271	17	
2025-10-29T00:00	6420	453	-21.6	-33.9	271	17	
2025-10-29T00:00	6440	452	-21.8	-34.3	270	18	
2025-10-29T00:00	6460	450	-22.0	-34.5	270	18	
2025-10-29T00:00	6480	449	-22.2	-34.2	270	18	
2025-10-29T00:00	6500	448	-22.4	-33.9	270	18	
2025-10-29T00:00	6520	447	-22.5	-33.6	270	18	
2025-10-29T00:00	6540	445	-22.7	-33.0	270	18	
2025-10-29T00:00	6560	444	-22.9	-32.5	270	18	
2025-10-29T00:00	6580	443	-23.1	-32.5	270	18	
2025-10-29T00:00	6600	442	-23.3	-33.0	270	18	
2025-10-29T00:00	6620	441	-23.4	-33.8	271	18	
2025-10-29T00:00	6640	439	-23.6	-34.4	271	18	
2025-10-29T00:00	6660	438	-23.8	-33.4	271	18	
2025-10-29T00:00	6680	437	-24.0	-32.8	270	18	
2025-10-29T00:00	6700	436	-24.1	-32.9	270	18	
2025-10-29T00:00	6720	435	-24.3	-33.7	269	19	
2025-10-29T00:00	6740	433	-24.5	-34.2	268	19	
2025-10-29T00:00	6760	432	-24.6	-34.1	267	19	
2025-10-29T00:00	6780	431	-24.8	-34.6	266	20	
2025-10-29T00:00	6800	430	-24.9	-35.5	265	20	
2025-10-29T00:00	6820	429	-25.1	-35.5	264	20	
2025-10-29T00:00	6840	428	-25.3	-35.0	263	20	
2025-10-29T00:00	6860	426	-25.5	-34.6	262	20	
2025-10-29T00:00	6880	425	-25.7	-34.3	262	20	
2025-10-29T00:00	6900	424	-25.9	-34.5	262	20	
2025-10-29T00:00	6920	423	-26.1	-35.0	263	20	
2025-10-29T00:00	6940	422	-26.2	-35.8	264	20	
2025-10-29T00:00	6960	420	-26.3	-35.6	266	20	
2025-10-29T00:00	6980	419	-26.4	-35.8	267	19	
2025-10-29T00:00	7000	418	-26.6	-35.9	268	19	
2025-10-29T00:00	7020	417	-26.7	-35.9	268	19	
2025-10-29T00:00	7040	416	-26.9	-36.0	269	19	
2025-10-29T00:00	7060	415	-27.1	-36.0	269	19	
2025-10-29T00:00	7080	413	-27.3	-36.0	269	19	
2025-10-29T00:00	7100	412	-27.5	-36.0	270	19	
2025-10-29T00:00	7120	411	-27.7	-36.1	270	19	
2025-10-29T00:00	7140	410	-27.9	-36.1	270	19	
2025-10-29T00:00	7160	409	-28.1	-36.1	271	19	
2025-10-29T00:00	7180	408	-28.3	-36.2	271	20	
2025-10-29T00:00	7200	407	-28.5	-36.3	270	20	
2025-10-29T00:00	7220	406	-28.7	-36.3	270	20	
2025-10-29T00:00	7240	405	-28.8	-36.3	270	20	
2025-10-29T00:00	7260	403	-29.0	-36.4	269	20	
2025-10-29T00:00	7280	402	-29.2	-36.6	269	20	
2025-10-29T00:00	7300	401	-29.4	-37.3	269	20	
2025-10-29T00:00	7320	400	-29.5	-38.4	269	21	
2025-10-29T00:00	7340	399	-29.6	-39.1	269	21	
2025-10-29T00:00	7360	398	-29.7	-39.4	269	21	
2025-10-29T00:00	7380	397	-29.7	-40.5	268	22	
2025-10-29T00:00	7400	395	-29.7	-41.8	268	22	
2025-10-29T00:00	7420	394	-29.7	-43.1	267	22	
2025-10-29T00:00	7440	393	-29.7	-43.3	267	22	
2025-10-29T00:00	7460	392	-29.9	-43.2	266	22	
2025-10-29T00:00	7480	391	-30.0	-43.4	266	21	
2025-10-29T00:00	7500	390	-30.2	-43.5	265	21	
2025-10-29T00:00	7520	389	-30.3	-43.8	265	20	
2025-10-29T00:00	7540	388	-30.4	-44.0	266	20	
2025-10-29T00:00	7560	387	-30.5	-44.5	267	19	
2025-10-29T00:00	7580	386	-30.6	-45.2	268	19	
2025-10-29T00:00	7600	385	-30.6	-45.9	268	19	
2025-10-29T00:00	7620	384	-30.7	-46.9	269	19	
2025-10-29T00:00	7640	382	-30.9	-47.2	270	18	
2025-10-29T00:00	7660	381	-31.0	-46.7	270	18	
2025-10-29T00:00	7680	380	-31.2	-46.4	270	18	
2025-10-29T00:00	7700	379	-31.4	-45.5	270	18	
2025-10-29T00:00	7720	378	-31.6	-44.6	270	18	
2025-10-29T00:00	7740	377	-31.7	-45.0	270	18	
2025-10-29T00:00	7760	376	-31.9	-46.5	270	18	
2025-10-29T00:00	7780	375	-32.1	-47.1	270	18	
2025-10-29T00:00	7800	374	-32.2	-46.9	270	18	
2025-10-29T00:00	7820	373	-32.4	-46.8	270	19	
2025-10-29T00:00	7840	372	-32.5	-47.3	269	19	
2025-10-29T00:00	7860	371	-32.7	-46.8	268	19	
2025-10-29T00:00	7880	370	-32.9	-46.3	267	19	
2025-10-29T00:00	7900	369	-33.1	-46.3	266	19	
2025-10-29T00:00	7920	367	-33.3	-46.3	266	19	
2025-10-29T00:00	7940	366	-33.4	-45.9	265	19	
2025-10-29T00:00	7960	365	-33.6	-45.8	265	19	
2025-10-29T00:00	7980	364	-33.8	-45.4	265	19	
2025-10-29T00:00	8000	363	-34.0	-45.1	264	19	
2025-10-29T00:00	8020	362	-34.2	-45.3	264	19	
2025-10-29T00:00	8040	361	-34.4	-45.3	264	19	
2025-10-29T00:00	8060	360	-34.5	-45.1	263	19	
2025-10-29T00:00	8080	359	-34.7	-44.8	263	19	
2025-10-29T00:00	8100	358	-34.9	-44.9	262	19	
2025-10-29T00:00	8120	357	-35.1	-45.2	261	19	
2025-10-29T00:00	8140	356	-35.3	-45.5	261	19	
2025-10-29T00:00	8160	355	-35.5	-45.8	260	19	
2025-10-29T00:00	8180	354	-35.6	-46.0	260	19	
2025-10-29T00:00	8200	353	-35.8	-46.4	260	19	
2025-10-29T00:00	8220	352	-35.9	-47.4	260	20	
2025-10-29T00:00	8240	351	-36.0	-48.6	260	20	
2025-10-29T00:00	8260	350	-36.2	-48.9	261	20	
2025-10-29T00:00	8280	349	-36.3	-48.9	261	20	
2025-10-29T00:00	8300	348	-36.5	-48.6	260	20	
2025-10-29T00:00	8320	347	-36.7	-48.5	260	20	
2025-10-29T00:00	8340	346	-36.9	-48.4	259	20	
2025-10-29T00:00	8360	345	-37.1	-48.4	258	20	
2025-10-29T00:00	8380	344	-37.3	-48.4	257	20	
2025-10-29T00:00	8400	343	-37.4	-48.1	256	20	
2025-10-29T00:00	8420	342	-37.6	-47.8	256	20	
2025-10-29T00:00	8440	341	-37.8	-48.2	256	20	
2025-10-29T00:00	8460	340	-38.0	-48.3	256	20	
2025-10-29T00:00	8480	339	-38.2	-48.4	258	20	
2025-10-29T00:00	8500	338	-38.3	-49.0	258	20	
2025-10-29T00:00	8520	337	-38.5	-49.4	259	20	
2025-10-29T00:00	8540	336	-38.7	-49.8	260	20	
2025-10-29T00:00	8560	335	-38.8	-49.8	260	21	
2025-10-29T00:00	8580	334	-39.0	-50.2	260	21	
2025-10-29T00:00	8600	333	-39.2	-50.0	260	21	
2025-10-29T00:00	8620	332	-39.4	-49.7	260	21	
2025-10-29T00:00	8640	331	-39.6	-49.9	260	20	
2025-10-29T00:00	8660	330	-39.7	-50.0	260	20	
2025-10-29T00:00	8680	329	-40.0	-49.5	260	21	
2025-10-29T00:00	8700	328	-40.1	-49.9	260	21	
2025-10-29T00:00	8720	327	-40.3	-50.4	260	21	
2025-10-29T00:00	8740	326	-40.4	-50.8	260	21	
2025-10-29T00:00	8760	325	-40.6	-51.6	260	21	
2025-10-29T00:00	8780	325	-40.7	-51.9	260	21	
2025-10-29T00:00	8800	324	-40.9	-51.6	260	21	
2025-10-29T00:00	8820	323	-41.0	-51.4	260	21	
2025-10-29T00:00	8840	322	-41.2	-51.3	261	21	
2025-10-29T00:00	8860	321	-41.4	-51.3	261	21	
2025-10-29T00:00	8880	320	-41.6	-51.3	262	20	
2025-10-29T00:00	8900	319	-41.7	-51.4	262	20	
2025-10-29T00:00	8920	318	-41.8	-51.7	263	20	
2025-10-29T00:00	8940	317	-41.9	-52.0	263	21	
2025-10-29T00:00	8960	316	-42.1	-52.3	264	21	
2025-10-29T00:00	8980	315	-42.2	-53.1	264	21	
2025-10-29T00:00	9000	314	-42.3	-53.8	265	21	
2025-10-29T00:00	9020	313	-42.5	-54.3	266	22	
2025-10-29T00:00	9040	312	-42.7	-54.3	266	22	
2025-10-29T00:00	9060	311	-42.8	-54.7	267	22	
2025-10-29T00:00	9080	310	-43.0	-55.0	268	23	
2025-10-29T00:00	9100	310	-43.2	-55.1	268	23	
2025-10-29T00:00	9120	309	-43.3	-55.3	269	23	
2025-10-29T00:00	9140	308	-43.5	-55.4	269	23	
2025-10-29T00:00	9160	307	-43.7	-55.8	269	24	
2025-10-29T00:00	9180	306	-43.8	-56.2	269	24	
2025-10-29T00:00	9200	305	-44.0	-56.5	268	24	
2025-10-29T00:00	9220	304	-44.2	-56.8	269	24	
2025-10-29T00:00	9240	303	-44.3	-57.1	269	24	
2025-10-29T00:00	9260	302	-44.4	-57.2	269	24	
2025-10-29T00:00	9280	301	-44.6	-57.4	271	24	
2025-10-29T00:00	9300	300	-44.8	-57.6	272	24	
2025-10-29T00:00	9320	300	-44.9	-57.8	274	24	
2025-10-29T00:00	9340	299	-45.1	-58.1	275	24	
2025-10-29T00:00	9360	298	-45.3	-58.4	276	24	
2025-10-29T00:00	9380	297	-45.5	-59.1	277	25	
2025-10-29T00:00	9400	296	-45.6	-60.1	278	25	
2025-10-29T00:00	9420	295	-45.8	-60.9	278	25	
2025-10-29T00:00	9440	294	-45.9	-61.7	278	25	
2025-10-29T00:00	9460	293	-46.0	-62.0	278	26	
2025-10-29T00:00	9480	292	-46.1	-61.9	278	26	
2025-10-29T00:00	9500	292	-46.2	-62.0	277	26	
2025-10-29T00:00	9520	291	-46.2	-62.2	277	27	
2025-10-29T00:00	9540	290	-46.4	-62.4	276	27	
2025-10-29T00:00	9560	289	-46.5	-62.5	276	27	
2025-10-29T00:00	9580	288	-46.7	-62.5	276	27	
2025-10-29T00:00	9600	287	-46.8	-62.4	276	27	
2025-10-29T00:00	9620	286	-46.9	-62.2	276	27	
2025-10-29T00:00	9640	285	-47.1	-61.9	276	27	
2025-10-29T00:00	9660	285	-47.3	-61.8	276	27	
2025-10-29T00:00	9680	284	-47.4	-61.8	276	27	
2025-10-29T00:00	9700	283	-47.5	-61.1	276	26	
2025-10-29T00:00	9720	282	-47.7	-60.2	276	26	
2025-10-29T00:00	9740	281	-47.9	-59.7	276	26	
2025-10-29T00:00	9760	280	-48.1	-59.7	275	26	
2025-10-29T00:00	9780	279	-48.2	-60.2	275	26	
2025-10-29T00:00	9800	279	-48.3	-60.2	275	27	
2025-10-29T00:00	9820	278	-48.3	-59.7	275	27	
2025-10-29T00:00	9840	277	-48.5	-59.5	275	27	
2025-10-29T00:00	9860	276	-48.7	-59.6	275	27	
2025-10-29T00:00	9880	275	-48.8	-59.6	275	27	
2025-10-29T00:00	9900	274	-48.9	-59.6	275	26	
2025-10-29T00:00	9920	274	-49.0	-59.6	275	26	
2025-10-29T00:00	9940	273	-49.2	-59.5	275	26	
2025-10-29T00:00	9960	272	-49.4	-59.3	275	26	
2025-10-29T00:00	9980	271	-49.6	-59.3	275	26	
2025-10-29T00:00	10000	270	-49.7	-59.3	275	26	
2025-10-29T00:00	10018	270	-49.9	-59.1	275	26	
2025-10-29T00:00	10050	268	-50.2	-58.9	275	26	
2025-10-29T00:00	10100	266	-50.6	-59.0	276	26	
2025-10-29T00:00	10150	264	-51.0	-58.9	277	26	
2025-10-29T00:00	10200	262	-51.4	-59.0	280	26	
2025-10-29T00:00	10250	260	-51.8	-59.1	282	26	
2025-10-29T00:00	10300	258	-52.2	-59.5	283	26	
2025-10-29T00:00	10350	256	-52.6	-59.2	284	25	
2025-10-29T00:00	10400	254	-52.9	-59.4	285	25	
2025-10-29T00:00	10450	252	-53.3	-59.9	287	26	
2025-10-29T00:00	10500	250	-53.7	-60.2	289	27	
2025-10-29T00:00	10550	248	-54.0	-61.3	289	27	
2025-10-29T00:00	10600	246	-54.3	-62.3	290	27	
2025-10-29T00:00	10650	244	-54.7	-62.3	291	27	
2025-10-29T00:00	10700	242	-55.0	-62.0	294	27	
2025-10-29T00:00	10750	241	-55.3	-62.2	297	27	
2025-10-29T00:00	10800	239	-55.7	-63.1	298	28	
2025-10-29T00:00	10850	237	-56.1	-63.8	298	28	
2025-10-29T00:00	10900	235	-56.4	-63.7	299	29	
2025-10-29T00:00	10950	233	-56.8	-63.0	300	29	
2025-10-29T00:00	11000	231	-57.2	-63.1	301	30	
2025-10-29T00:00	11050	230	-57.4	-64.0	301	31	
2025-10-29T00:00	11100	228	-57.8	-64.3	301	31	
2025-10-29T00:00	11150	226	-58.3	-64.3	301	31	
2025-10-29T00:00	11200	224	-58.7	-64.6	301	31	
2025-10-29T00:00	11250	222	-59.2	-64.9	300	31	
2025-10-29T00:00	11300	220	-59.6	-65.0	300	31	
2025-10-29T00:00	11350	219	-60.0	-65.0	299	31	
2025-10-29T00:00	11400	217	-60.5	-65.3	299	30	
2025-10-29T00:00	11450	215	-60.9	-66.0	299	30	
2025-10-29T00:00	11500	214	-61.2	-66.9	299	29	
2025-10-29T00:00	11550	212	-61.4	-67.7	298	28	
2025-10-29T00:00	11600	210	-61.8	-68.3	295	27	
2025-10-29T00:00	11650	208	-62.1	-68.3	293	26	
2025-10-29T00:00	11700	207	-62.3	-68.3	290	26	
2025-10-29T00:00	11750	205	-62.6	-68.5	286	26	
2025-10-29T00:00	11800	204	-62.5	-68.7	281	27	
2025-10-29T00:00	11850	202	-62.5	-69.0	278	28	
2025-10-29T00:00	11900	200	-62.7	-69.4	276	28	
2025-10-29T00:00	11950	199	-62.8	-69.8	275	29	
2025-10-29T00:00	12000	197	-63.0	-70.1	276	30	
2025-10-29T00:00	12050	195	-63.1	-70.0	277	31	
2025-10-29T00:00	12100	194	-63.5	-69.9	279	31	
2025-10-29T00:00	12150	192	-63.8	-69.9	281	30	
2025-10-29T00:00	12200	191	-64.0	-69.9	283	29	
2025-10-29T00:00	12250	189	-64.1	-70.4	284	28	
2025-10-29T00:00	12300	188	-64.3	-71.0	285	27	
2025-10-29T00:00	12350	186	-64.5	-71.9	285	27	
2025-10-29T00:00	12400	184	-64.0	-72.8	284	26	
2025-10-29T00:00	12450	183	-63.6	-73.5	284	25	
2025-10-29T00:00	12500	181	-63.8	-74.1	284	25	
2025-10-29T00:00	12550	180	-64.0	-74.3	283	25	
2025-10-29T00:00	12600	179	-64.3	-74.6	282	25	
2025-10-29T00:00	12650	177	-64.3	-74.9	280	25	
2025-10-29T00:00	12700	176	-64.1	-75.0	278	26	
2025-10-29T00:00	12750	174	-64.2	-75.4	275	27	
2025-10-29T00:00	12800	173	-64.2	-75.8	276	28	
2025-10-29T00:00	12850	171	-63.6	-76.3	277	30	
2025-10-29T00:00	12900	170	-63.2	-76.9	278	30	
2025-10-29T00:00	12950	169	-63.4	-77.2	278	30	
2025-10-29T00:00	13000	167	-63.8	-77.2	278	30	
2025-10-29T00:00	13050	166	-63.9	-77.2	278	29	
2025-10-29T00:00	13100	165	-64.3	-77.4	278	28	
2025-10-29T00:00	13150	163	-64.5	-77.5	279	28	
2025-10-29T00:00	13200	162	-64.5	-77.7	280	27	
2025-10-29T00:00	13250	161	-64.6	-77.9	281	26	
2025-10-29T00:00	13300	159	-64.6	-78.3	281	25	
2025-10-29T00:00	13350	158	-64.1	-78.6	281	25	
2025-10-29T00:00	13400	157	-63.8	-79.0	281	24	
2025-10-29T00:00	13450	155	-64.0	-79.5	279	24	
2025-10-29T00:00	13500	154	-64.3	-79.8	276	24	
2025-10-29T00:00	13550	153	-64.2	-80.3	274	25	
2025-10-29T00:00	13600	152	-63.8	-80.9	275	26	
2025-10-29T00:00	13650	150	-63.7	-81.3	277	26	
2025-10-29T00:00	13700	149	-63.7	-81.5	278	26	
2025-10-29T00:00	13750	148	-63.7	-81.8	276	26	
2025-10-29T00:00	13800	147	-63.9	-82.1	275	26	
2025-10-29T00:00	13850	146	-63.6	-82.1	273	25	
2025-10-29T00:00	13900	144	-63.9	-82.2	272	25	
2025-10-29T00:00	13950	143	-64.0	-82.2	273	26	
2025-10-29T00:00	14000	142	-63.9	-82.3	275	27	
2025-10-29T00:00	14050	141	-63.6	-82.4	277	28	
2025-10-29T00:00	14100	140	-63.5	-82.5	277	28	
2025-10-29T00:00	14150	139	-63.6	-82.6	277	28	
2025-10-29T00:00	14200	138	-63.8	-82.7	275	28	
2025-10-29T00:00	14250	136	-64.0	-82.8	275	28	
2025-10-29T00:00	14300	135	-64.0	-82.9	277	28	
2025-10-29T00:00	14350	134	-64.2	-82.9	279	27	
2025-10-29T00:00	14400	133	-64.4	-83.1	282	27	
2025-10-29T00:00	14450	132	-64.4	-83.1	283	27	
2025-10-29T00:00	14500	131	-64.3	-83.1	284	27	
2025-10-29T00:00	14550	130	-64.4	-83.2	285	26	
2025-10-29T00:00	14600	129	-64.6	-83.1	286	26	
2025-10-29T00:00	14650	128	-64.8	-83.2	286	26	
2025-10-29T00:00	14700	127	-64.9	-83.2	286	25	
2025-10-29T00:00	14750	126	-65.1	-83.3	286	25	
2025-10-29T00:00	14800	125	-65.2	-83.4	283	24	
2025-10-29T00:00	14850	124	-65.2	-83.5	281	24	
2025-10-29T00:00	14900	123	-65.4	-83.7	282	24	
2025-10-29T00:00	14950	122	-65.3	-83.8	284	23	
2025-10-29T00:00	15000	121	-65.1	-83.9	284	23	
2025-10-29T00:00	15050	120	-64.9	-84.1	281	23	
2025-10-29T00:00	15100	119	-64.7	-84.1	280	24	
2025-10-29T00:00	15150	118	-64.6	-84.1	281	24	
2025-10-29T00:00	15200	117	-64.3	-84.2	281	23	
2025-10-29T00:00	15250	116	-63.9	-84.0	281	22	
2025-10-29T00:00	15300	115	-64.1	-84.2	281	21	
2025-10-29T00:00	15350	114	-63.8	-84.2	279	20	
2025-10-29T00:00	15400	113	-63.2	-84.3	277	21	
2025-10-29T00:00	15450	112	-63.0	-84.3	277	23	
2025-10-29T00:00	15500	111	-63.2	-84.4	278	23	
2025-10-29T00:00	15550	110	-63.2	-84.5	278	23	
2025-10-29T00:00	15600	109	-62.9	-84.3	277	23	
2025-10-29T00:00	15650	108	-63.1	-84.4	277	23	
2025-10-29T00:00	15700	108	-63.4	-84.5	275	22	
2025-10-29T00:00	15750	107	-63.6	-84.7	275	22	
2025-10-29T00:00	15800	106	-63.3	-84.7	276	22	
2025-10-29T00:00	15850	105	-63.1	-84.6	277	22	
2025-10-29T00:00	15900	104	-63.5	-84.8	277	22	
2025-10-29T00:00	15950	103	-63.6	-84.9	277	21	
2025-10-29T00:00	16000	102	-63.6	-84.8	278	21	
2025-10-29T00:00	16050	102	-63.7	-84.9	277	21	
2025-10-29T00:00	16100	101	-63.7	-84.9	273	21	
2025-10-29T00:00	16150	100	-63.8	-85.0	270	21	
2025-10-29T00:00	16200	99	-64.1	-85.0	267	21	
2025-10-29T00:00	16250	98	-64.4	-85.0	263	21	
2025-10-29T00:00	16300	98	-64.6	-85.1	259	21	
2025-10-29T00:00	16350	97	-64.7	-85.1	256	21	
2025-10-29T00:00	16400	96	-64.9	-85.2	257	22	
2025-10-29T00:00	16450	95	-65.0	-85.3	260	23	
2025-10-29T00:00	16500	94	-64.8	-85.2	264	23	
2025-10-29T00:00	16550	94	-65.1	-85.3	267	23	
2025-10-29T00:00	16600	93	-65.3	-85.5	270	23	
2025-10-29T00:00	16650	92	-65.3	-85.6	272	23	
2025-10-29T00:00	16700	91	-64.8	-85.5	272	23	
2025-10-29T00:00	16750	91	-64.8	-85.5	271	22	
2025-10-29T00:00	16800	90	-65.1	-85.7	268	22	
2025-10-29T00:00	16850	89	-65.4	-85.8	265	22	
2025-10-29T00:00	16900	88	-65.3	-85.9	264	23	
2025-10-29T00:00	16950	88	-65.0	-85.9	265	24	
2025-10-29T00:00	17000	87	-64.7	-86.0	267	24	
2025-10-29T00:00	17050	86	-64.2	-86.0	269	23	
2025-10-29T00:00	17100	86	-64.0	-86.1	271	23	
2025-10-29T00:00	17150	85	-63.8	-86.1	271	21	
2025-10-29T00:00	17200	84	-63.7	-86.1	270	20	
2025-10-29T00:00	17250	83	-63.8	-86.1	268	19	
2025-10-29T00:00	17300	83	-64.2	-86.2	266	18	
2025-10-29T00:00	17350	82	-64.3	-86.5	266	18	
2025-10-29T00:00	17400	81	-63.6	-86.5	268	19	
2025-10-29T00:00	17450	81	-63.0	-86.5	271	20	
2025-10-29T00:00	17500	80	-62.8	-86.6	276	20	
2025-10-29T00:00	17550	80	-62.5	-86.4	281	20	
2025-10-29T00:00	17600	79	-62.5	-86.3	284	19	
2025-10-29T00:00	17650	78	-62.7	-86.3	288	18	
2025-10-29T00:00	17700	78	-62.9	-86.4	291	17	
2025-10-29T00:00	17750	77	-63.1	-86.6	293	15	
2025-10-29T00:00	17800	76	-62.8	-86.4	292	14	
2025-10-29T00:00	17850	76	-63.0	-86.7	286	13	
2025-10-29T00:00	17900	75	-62.9	-86.6	279	13	
2025-10-29T00:00	17950	75	-62.8	-86.6	271	13	
2025-10-29T00:00	18000	74	-63.0	-86.7	264	14	
2025-10-29T00:00	18050	73	-63.1	-86.7	260	15	
2025-10-29T00:00	18100	73	-63.2	-86.8	261	16	
2025-10-29T00:00	18150	72	-63.2	-86.8	264	17	
2025-10-29T00:00	18200	72	-63.1	-87.0	267	18	
2025-10-29T00:00	18250	71	-62.9	-87.0	269	18	
2025-10-29T00:00	18300	70	-62.7	-87.0	269	18	
2025-10-29T00:00	18350	70	-62.6	-86.9	269	18	
2025-10-29T00:00	18400	69	-62.7	-86.9	267	18	
2025-10-29T00:00	18450	69	-62.7	-87.0	267	18	
2025-10-29T00:00	18500	68	-62.6	-87.0	269	18	
2025-10-29T00:00	18550	68	-62.6	-87.0	271	18	
2025-10-29T00:00	18600	67	-62.8	-87.0	275	18	
2025-10-29T00:00	18650	66	-63.1	-87.1	279	18	
2025-10-29T00:00	18700	66	-63.1	-87.2	285	17	
2025-10-29T00:00	18750	65	-63.0	-87.1	290	16	
2025-10-29T00:00	18800	65	-63.0	-87.1	295	16	
2025-10-29T00:00	18850	64	-63.3	-87.2	300	14	
2025-10-29T00:00	18900	64	-63.6	-87.2	305	13	
2025-10-29T00:00	18950	63	-63.8	-87.3	309	12	
2025-10-29T00:00	19000	63	-64.0	-87.3	310	11	
2025-10-29T00:00	19050	62	-64.3	-87.5	307	10	
2025-10-29T00:00	19100	62	-64.5	-87.6	300	9	
2025-10-29T00:00	19150	61	-64.5	-87.6	294	10	
2025-10-29T00:00	19200	61	-64.7	-87.6	290	10	
2025-10-29T00:00	19250	60	-64.9	-87.7	284	10	
2025-10-29T00:00	19300	60	-65.3	-87.8	279	11	
2025-10-29T00:00	19350	59	-65.5	-87.8	273	11	
2025-10-29T00:00	19400	59	-65.7	-88.0	268	12	
2025-10-29T00:00	19450	58	-65.9	-88.1	267	13	
2025-10-29T00:00	19500	58	-65.9	-88.0	267	15	
2025-10-29T00:00	19550	57	-66.1	-88.2	269	16	
2025-10-29T00:00	19600	57	-66.2	-88.4	272	18	
2025-10-29T00:00	19650	56	-65.6	-88.3	274	19	
2025-10-29T00:00	19700	56	-65.0	-88.4	276	20	
2025-10-29T00:00	19750	56	-64.4	-88.3	278	20	
2025-10-29T00:00	19800	55	-63.5	-87.9	280	19	
2025-10-29T00:00	19850	55	-63.2	-87.7	282	18	
2025-10-29T00:00	19900	54	-63.1	-87.5	283	17	
2025-10-29T00:00	19950	54	-63.3	-87.4	284	15	
2025-10-29T00:00	20000	53	-63.5	-87.5	284	15	
2025-10-29T00:00	20050	53	-63.4		281	15	
2025-10-29T00:00	20100	52	-63.3		278	16	
2025-10-29T00:00	20150	52	-63.2		277	17	
2025-10-29T00:00	20200	52	-62.9		275	17	
2025-10-29T00:00	20250	51	-62.7		273	18	
2025-10-29T00:00	20300	51	-62.2		272	19	
2025-10-29T00:00	20350	50	-61.9		272	20	
2025-10-29T00:00	20400	50	-62.0		270	20	
2025-10-29T00:00	20450	50	-61.5		270	19	
2025-10-29T00:00	20500	49	-61.6		271	19	
2025-10-29T00:00	20550	49	-61.5		273	19	
2025-10-29T00:00	20600	48	-61.8		275	18	
2025-10-29T00:00	20650	48	-61.7		274	17	
2025-10-29T00:00	20700	48	-61.3		270	17	
2025-10-29T00:00	20750	47	-61.1		265	17	
2025-10-29T00:00	20800	47	-61.2		263	18	
2025-10-29T00:00	20850	46	-61.4		263	19	
2025-10-29T00:00	20900	46	-61.7		262	19	
2025-10-29T00:00	20950	46	-61.8		261	19	
2025-10-29T00:00	21000	45	-61.7		261	18	
2025-10-29T00:00	21050	45	-61.6		261	18	
2025-10-29T00:00	21100	45	-61.6		260	18	
2025-10-29T00:00	21150	44	-61.4		260	17	
2025-10-29T00:00	21200	44	-61.3		259	17	
2025-10-29T00:00	21250	44	-61.4		259	17	
2025-10-29T00:00	21300	43	-61.6		259	17	
2025-10-29T00:00	21350	43	-61.8		260	18	
2025-10-29T00:00	21400	43	-62.0		260	18	
2025-10-29T00:00	21450	42	-62.3		260	18	
2025-10-29T00:00	21500	42	-62.5		261	19	
2025-10-29T00:00	21550	41	-62.5		264	19	
2025-10-29T00:00	21600	41	-62.5		268	20	
2025-10-29T00:00	21650	41	-62.5		271	20	
2025-10-29T00:00	21700	41	-62.5		272	21	
2025-10-29T00:00	21750	40	-62.8		272	21	
2025-10-29T00:00	21800	40	-63.1		274	21	
2025-10-29T00:00	21850	40	-63.2		278	21	
2025-10-29T00:00	21900	39	-63.3		282	21	
2025-10-29T00:00	21950	39	-63.2		285	21	
2025-10-29T00:00	22000	39	-63.0		287	20	
2025-10-29T00:00	22050	38	-62.9		285	19	
2025-10-29T00:00	22100	38	-62.9		282	18	
2025-10-29T00:00	22150	38	-63.1		279	18	
2025-10-29T00:00	22200	37	-62.9		278	17	
2025-10-29T00:00	22250	37	-62.4		281	17	
2025-10-29T00:00	22300	37	-62.0		282	16	
2025-10-29T00:00	22350	36	-61.5		282	16	
2025-10-29T00:00	22400	36	-61.2		282	16	
2025-10-29T00:00	22450	36	-61.0		281	16	
2025-10-29T00:00	22500	36	-61.0		279	16	
2025-10-29T00:00	22550	35	-60.7		275	16	
2025-10-29T00:00	22600	35	-60.9		270	15	
2025-10-29T00:00	22650	35	-60.7		265	15	
2025-10-29T00:00	22700	34	-60.6		260	15	
2025-10-29T00:00	22750	34	-59.9		257	16	
2025-10-29T00:00	22800	34	-59.8		255	17	
2025-10-29T00:00	22850	34	-60.0		254	18	
2025-10-29T00:00	22900	33	-60.1		254	19	
2025-10-29T00:00	22950	33	-60.4		252	20	
2025-10-29T00:00	23000	33	-60.6		252	21	
2025-10-29T00:00	23050	33	-60.6		253	22	
2025-10-29T00:00	23100	32	-60.1		255	22	
2025-10-29T00:00	23150	32	-59.5		260	22	
2025-10-29T00:00	23200	32	-59.2		264	23	
2025-10-29T00:00	23250	32	-59.2		268	23	
2025-10-29T00:00	23300	31	-59.1		271	22	
2025-10-29T00:00	23350	31	-58.8		275	21	
2025-10-29T00:00	23400	31	-58.7		277	20	
2025-10-29T00:00	23450	31	-58.9		281	19	
2025-10-29T00:00	23500	30	-59.1		285	18	
2025-10-29T00:00	23550	30	-59.3		288	17	
2025-10-29T00:00	23600	30	-59.4		289	15	
2025-10-29T00:00	23650	30	-59.5		287	13	
2025-10-29T00:00	23700	29	-59.6		284	12	
2025-10-29T00:00	23750	29	-59.9		278	10	
2025-10-29T00:00	23800	29	-60.2		269	9	
2025-10-29T00:00	23850	29	-60.5		257	8	
2025-10-29T00:00	23900	28	-60.8		244	8	
2025-10-29T00:00	23950	28	-60.9		237	8	
2025-10-29T00:00	24000	28	-61.0		239	8	
2025-10-29T00:00	24050	28	-61.2		247	8	
2025-10-29T00:00	24100	28	-61.5		255	9	
2025-10-29T00:00	24150	27	-61.8		261	10	
2025-10-29T00:00	24200	27	-62.1		265	11	
2025-10-29T00:00	24250	27	-62.2		267	11	
2025-10-29T00:00	24300	27	-62.5		267	12	
2025-10-29T00:00	24350	26	-62.5		266	12	
2025-10-29T00:00	24400	26	-62.8		265	12	
2025-10-29T00:00	24450	26	-63.0		264	13	
2025-10-29T00:00	24500	26	-63.1		264	14	
2025-10-29T00:00	24550	26	-63.2		265	14	
2025-10-29T00:00	24600	25	-63.2		264	15	
2025-10-29T00:00	24650	25	-63.3		263	16	
2025-10-29T00:00	24700	25	-63.4		263	17	
2025-10-29T00:00	24750	25	-63.3		264	18	
2025-10-29T00:00	24800	25	-63.2		267	18	
2025-10-29T00:00	24850	24	-63.4		271	19	
2025-10-29T00:00	24900	24	-63.4		274	20	
2025-10-29T00:00	24950	24	-63.6		277	20	
2025-10-29T00:00	25000	24	-63.7		280	20	
2025-10-29T00:00	25050	24	-64.0		282	20	
2025-10-29T00:00	25100	23	-63.8		282	19	
2025-10-29T00:00	25150	23	-63.7		281	19	
2025-10-29T00:00	25200	23	-63.6		281	20	
2025-10-29T00:00	25250	23	-62.9		282	21	
2025-10-29T00:00	25300	23	-62.2		284	21	
2025-10-29T00:00	25350	22	-61.9		284	22	
2025-10-29T00:00	25400	22	-61.9		283	22	
2025-10-29T00:00	25450	22	-61.6		283	22	
2025-10-29T00:00	25500	22	-61.5		282	21	
2025-10-29T00:00	25550	22	-61.6		279	21	
2025-10-29T00:00	25600	22	-61.4		275	20	
2025-10-29T00:00	25650	21	-60.8		268	20	
2025-10-29T00:00	25700	21	-60.4		259	20	
2025-10-29T00:00	25750	21	-60.1		251	21	
2025-10-29T00:00	25800	21	-59.2		246	22	
2025-10-29T00:00	25850	21	-58.8		245	24	
2025-10-29T00:00	25900	21	-58.8		246	26	
2025-10-29T00:00	25950	20	-57.7		247	28	
2025-10-29T00:00	26000	20	-57.2		248	28	
2025-10-29T00:00	26050	20	-56.7		250	29	
2025-10-29T00:00	26100	20	-56.8		253	29	
2025-10-29T00:00	26150	20	-57.0		256	30	
2025-10-29T00:00	26200	20	-57.0		257	30	
2025-10-29T00:00	26250	19	-57.1		259	30	
2025-10-29T00:00	26300	19	-56.8		259	30	
2025-10-29T00:00	26350	19	-56.4		260	29	
2025-10-29T00:00	26400	19	-56.4		260	28	
2025-10-29T00:00	26450	19	-56.1		260	28	
2025-10-29T00:00	26500	19	-55.5		259	27	
2025-10-29T00:00	26550	19	-55.5		257	27	
2025-10-29T00:00	26600	18	-55.7		257	28	
2025-10-29T00:00	26650	18	-55.9		257	28	
2025-10-29T00:00	26700	18	-55.9		259	29	
2025-10-29T00:00	26750	18	-55.9		261	29	
2025-10-29T00:00	26800	18	-56.1		263	29	
2025-10-29T00:00	26850	18	-56.3		265	29	
2025-10-29T00:00	26900	18	-56.1		266	29	
2025-10-29T00:00	26950	17	-56.0		266	29	
2025-10-29T00:00	27000	17	-56.1		265	29	
2025-10-29T00:00	27050	17	-56.3		264	30	
2025-10-29T00:00	27100	17	-56.5		263	30	
2025-10-29T00:00	27150	17	-56.8		264	30	
2025-10-29T00:00	27200	17	-56.9		265	30	
2025-10-29T00:00	27250	17	-57.2		266	30	
2025-10-29T00:00	27300	16	-57.4		266	29	
2025-10-29T00:00	27350	16	-57.6		266	28	
2025-10-29T00:00	27400	16	-58.0		265	28	
2025-10-29T00:00	27450	16	-58.3		264	27	
2025-10-29T00:00	27500	16	-58.6		263	28	
2025-10-29T00:00	27550	16	-58.3		262	29	
2025-10-29T00:00	27600	16	-58.3		263	30	
2025-10-29T00:00	27650	16	-58.2		264	30	
2025-10-29T00:00	27700	15	-58.1		265	30	
2025-10-29T00:00	27750	15	-57.8		265	31	
2025-10-29T00:00	27800	15	-57.8		264	31	
2025-10-29T00:00	27850	15	-57.7		264	31	
2025-10-29T00:00	27900	15	-57.5		265	31	
2025-10-29T00:00	27950	15	-57.7		266	32	
2025-10-29T00:00	28000	15	-57.6		267	32	
2025-10-29T00:00	28050	15	-57.2		268	33	
2025-10-29T00:00	28100	15	-57.0		270	33	
2025-10-29T00:00	28150	14	-56.8		271	32	
2025-10-29T00:00	28200	14	-56.6		270	32	
2025-10-29T00:00	28250	14	-56.4		269	32	
2025-10-29T00:00	28300	14	-56.2		269	32	
2025-10-29T00:00	28350	14	-55.9		269	33	
2025-10-29T00:00	28400	14	-55.6		269	34	
2025-10-29T00:00	28450	14	-55.2		268	34	
2025-10-29T00:00	28500	14	-54.8		266	34	
2025-10-29T00:00	28550	14	-54.5		264	34	
2025-10-29T00:00	28600	13	-54.2		263	34	
2025-10-29T00:00	28650	13	-54.3		261	34	
2025-10-29T00:00	28700	13	-54.3		259	34	
2025-10-29T00:00	28750	13	-54.5		256	34	
2025-10-29T00:00	28800	13	-54.5		255	34	
2025-10-29T00:00	28850	13	-54.3		254	35	
2025-10-29T00:00	28900	13	-54.1		254	35	
2025-10-29T00:00	28950	13	-54.0		255	36	
2025-10-29T00:00	29000	13	-54.0		256	36	
2025-10-29T00:00	29050	13	-54.2		257	35	
2025-10-29T00:00	29100	12	-54.4		258	35	
2025-10-29T00:00	29150	12	-54.3		258	35	
2025-10-29T00:00	29200	12	-54.0		259	36	
2025-10-29T00:00	29250	12	-53.5		259	36	
2025-10-29T00:00	29300	12	-53.1		260	36	
2025-10-29T00:00	29350	12	-53.1		260	37	
2025-10-29T00:00	29400	12	-53.1		258	37	
2025-10-29T00:00	29450	12	-52.8		256	38	
2025-10-29T00:00	29500	12	-52.3		255	38	
2025-10-29T00:00	29550	12	-51.7		254	38	
2025-10-29T00:00	29600	11	-51.4		254	39	
2025-10-29T00:00	29650	11	-51.1		255	40	
2025-10-29T00:00	29700	11	-50.9		255	41	
2025-10-29T00:00	29750	11	-51.1		256	42	
2025-10-29T00:00	29800	11	-50.9		258	42	
2025-10-29T00:00	29850	11	-51.0		260	42	
2025-10-29T00:00	29900	11	-51.3		263	42	
2025-10-29T00:00	29950	11	-51.4		265	43	
2025-10-29T00:00	30000	11	-51.1		265	44	
2025-10-29T00:00	30050	11	-51.1		266	44	
2025-10-29T00:00	30100	11	-51.1		266	43	
2025-10-29T00:00	30150	11	-51.0		266	41	
2025-10-29T00:00	30200	10	-51.3		265	41	
2025-10-29T00:00	30250	10	-51.5		263	41	
2025-10-29T00:00	30300	10	-51.5		261	41	
2025-10-29T00:00	30350	10	-51.3		259	43	
2025-10-29T00:00	30400	10	-51.4		258	44	
2025-10-29T00:00	30450	10	-50.9		258	45	
2025-10-29T00:00	30500	10	-50.6		258	47	
2025-10-29T00:00	30550	10	-50.8		258	47	
2025-10-29T00:00	30600	10	-50.9		258	46	
2025-10-29T00:00	30650	10	-51.2		258	46	
2025-10-29T00:00	30700	10	-51.4		258	45	
2025-10-29T00:00	30750	10	-51.6		257	44	
2025-10-29T00:00	30800	10	-51.6		257	44	
2025-10-29T00:00	30850	9	-51.6		256	44	
2025-10-29T00:00	30900	9	-51.6		256	45	
2025-10-29T00:00	30950	9	-51.7		255	46	
2025-10-29T00:00	31000	9	-51.4		255	48	
2025-10-29T00:00	31050	9	-51.3		255	49	
2025-10-29T00:00	31100	9	-51.2		255	50	
2025-10-29T00:00	31150	9	-51.4		256	50	
2025-10-29T00:00	31200	9	-51.2		257	50	
2025-10-29T00:00	31250	9	-51.0		258	50	
2025-10-29T00:00	31300	9	-50.7		259	50	
2025-10-29T00:00	31350	9	-50.5		259	50	
2025-10-29T00:00	31400	9	-50.1		259	50	
2025-10-29T00:00	31450	9	-50.0		258	51	
2025-10-29T00:00	31500	9	-49.9		258	51	
2025-10-29T00:00	31550	9	-49.9		258	52	
2025-10-29T00:00	31600	8	-48.8		258	53	
2025-10-29T00:00	31650	8	-48.4		259	54	
2025-10-29T00:00	31700	8	-48.6		261	55	
2025-10-29T00:00	31750	8	-48.7		262	56	
2025-10-29T00:00	31800	8	-48.5		262	57	
2025-10-29T00:00	31850	8	-48.1		263	57	
2025-10-29T00:00	31900	8	-48.1		264	58	
2025-10-29T00:00	31950	8	-47.7		265	57	
2025-10-29T00:00	32000	8	-47.3		265	56	
2025-10-29T00:00	32050	8	-46.7		265	56	
2025-10-29T00:00	32100	8	-45.8		264	57	
2025-10-29T00:00	32150	8	-45.1		265	57	
2025-10-29T00:00	32200	8	-44.8		266	57	
2025-10-29T00:00	32250	8	-44.6		267	57	
2025-10-29T00:00	32300	8	-44.4		267	55	
2025-10-29T00:00	32350	8	-44.3		267	54	
2025-10-29T00:00	32400	7	-44.2		267	52	
2025-10-29T00:00	32450	7	-44.0		267	51	
2025-10-29T00:00	32500	7	-44.1		266	51	
2025-10-29T00:00	32550	7	-44.0		266	51	
2025-10-29T00:00	32600	7	-44.0		265	52	
2025-10-29T00:00	32650	7	-44.1		265	52	
2025-10-29T00:00	32700	7	-44.0		264	53	
2025-10-29T00:00	32750	7	-43.6		264	53	
2025-10-29T00:00	32800	7	-43.4		265	54	
2025-10-29T00:00	32850	7	-43.6		266	55	
2025-10-29T00:00	32900	7	-43.3		267	55	
2025-10-29T00:00	32950	7	-43.2		268	55	
2025-10-29T00:00	33000	7	-43.2		268	55	
2025-10-29T00:00	33050	7	-42.8		269	55	
2025-10-29T00:00	33100	7	-42.5		270	55	
2025-10-29T00:00	33150	7	-42.3		270	55	
2025-10-29T00:00	33200	7	-41.9		270	55	
2025-10-29T00:00	33250	7	-41.9		271	55	
2025-10-29T00:00	33300	7	-42.4		271	54	
2025-10-29T00:00	33350	6	-42.8		271	54	
2025-10-29T00:00	33400	6	-43.3		270	54	
2025-10-29T00:00	33450	6	-43.6		269	54	
2025-10-29T00:00	33500	6	-43.4		268	55	
2025-10-29T00:00	33550	6	-43.4		268	56	
2025-10-29T00:00	33600	6	-43.3		268	56	
2025-10-29T00:00	33650	6	-43.3		268	57	
2025-10-29T00:00	33700	6	-43.2		268	56	
2025-10-29T00:00	33750	6	-43.1		268	55	
2025-10-29T00:00	33800	6	-43.1		269	53	
2025-10-29T00:00	33850	6	-43.1		269	52	
2025-10-29T00:00	33900	6	-43.2		269	52	
2025-10-29T00:00	33950	6	-43.4		269	51	
2025-10-29T00:00	34000	6	-43.6		268	51	
2025-10-29T00:00	34050	6	-43.6		268	50	
2025-10-29T00:00	34100	6	-43.6		267	49	
2025-10-29T00:00	34150	6	-43.8		266	49	
2025-10-29T00:00	34200	6	-43.9		266	50	
2025-10-29T00:00	34250	6	-44.1		265	50	
2025-10-29T00:00	34300	6	-44.0		265	52	
2025-10-29T00:00	34350	6	-44.0		265	53	
2025-10-29T00:00	34400	6	-44.0		266	55	
2025-10-29T00:00	34450	6	-44.0		266	56	
2025-10-29T00:00	34500	5	-43.9		267	57	
2025-10-29T00:00	34550	5	-43.8		267	57	
2025-10-29T00:00	34600	5	-43.4		267	57	
2025-10-29T00:00	34650	5	-42.7		266	56	
2025-10-29T00:00	34700	5	-42.4		265	54	
2025-10-29T00:00	34750	5	-42.5		264	53	
2025-10-29T00:00	34800	5	-42.7		265	53	
2025-10-29T00:00	34850	5	-42.3		265	54	
2025-10-29T00:00	34900	5	-42.1		267	55	
2025-10-29T00:00	34950	5	-42.2		268	56	
2025-10-29T00:00	35000	5	-42.1		269	57	
2025-10-29T00:00	35050	5	-41.8		269	57	
2025-10-29T00:00	35100	5	-41.7		270	57	
2025-10-29T00:00	35150	5	-41.4		271	57	
2025-10-29T00:00	35200	5	-41.4		272	56	
2025-10-29T00:00	35250	5	-41.1		272	56	
2025-10-29T00:00	35300	5	-40.6		270	54	
2025-10-29T00:00	35350	5	-40.2		267	52	
2025-10-29T00:00	35400	5	-39.6		265	52	
2025-10-29T00:00	35450	5	-39.6		263	51	
2025-10-29T00:00	35500	5	-39.6		260	51	
2025-10-29T00:00	35550	5	-39.6		257	51	
2025-10-29T00:00	35600	5	-39.0		255	52	
2025-10-29T00:00	35650	5	-37.8		254	52	
2025-10-29T00:00	35700	5	-37.8		254	52	
2025-10-29T00:00	35750	5	-37.9		254	53	
2025-10-29T00:00	35800	5	-38.1		254	53	
2025-10-29T00:00	35850	4	-38.2		255	54	
2025-10-29T00:00	35900	4	-38.1		257	55	
2025-10-29T00:00	35950	4	-38.1		257	57	
2025-10-29T00:00	36000	4	-38.0		257	58	
2025-10-29T00:00	36050	4	-38.1		257	59	
2025-10-29T00:00	36100	4	-37.9		256	59	
2025-10-29T12:00	491	954	8.7	6.0	230	1	1.4
2025-10-29T12:00	501	953	8.7	6.0	180	1	1.4
2025-10-29T12:00	520	951	8.3	5.7	181	2	1.4
2025-10-29T12:00	540	949	8.0	5.6	189	2	1.5
2025-10-29T12:00	560	946	7.9	5.5	196	2	1.6
2025-10-29T12:00	580	944	7.6	5.3	204	2	1.6
2025-10-29T12:00	600	942	7.3	5.4	210	3	1.7
2025-10-29T12:00	620	940	7.1	5.2	214	3	1.7
2025-10-29T12:00	640	937	6.9	5.3	218	3	1.8
2025-10-29T12:00	660	935	6.7	5.3	223	2	1.8
2025-10-29T12:00	680	933	6.5	5.3	228	2	1.8
2025-10-29T12:00	700	931	6.4	5.3	233	2	1.8
2025-10-29T12:00	720	928	6.2	5.2	237	1	1.9
2025-10-29T12:00	740	926	6.0	5.1	232	1	1.9
2025-10-29T12:00	760	924	5.8	5.1	216	1	1.9
2025-10-29T12:00	780	922	5.6	5.0	196	1	1.9
2025-10-29T12:00	800	919	5.7	4.4	186	2	1.9
2025-10-29T12:00	820	917	6.1	2.5	182	3	1.9
2025-10-29T12:00	840	915	6.5	2.0	182	4	2.0
2025-10-29T12:00	860	913	6.8	1.3	184	4	2.0
2025-10-29T12:00	880	910	6.9	2.0	187	5	2.1
2025-10-29T12:00	900	908	7.0	1.8	191	5	2.1
2025-10-29T12:00	920	906	7.2	0.9	194	6	2.2
2025-10-29T12:00	940	904	7.2	0.9	197	6	2.3
2025-10-29T12:00	960	901	7.1	1.1	199	6	2.3
2025-10-29T12:00	980	899	6.9	1.2	202	6	2.4
2025-10-29T12:00	1000	897	6.8	1.3	204	6	2.5
2025-10-29T12:00	1020	895	6.6	1.3	206	6	2.5
2025-10-29T12:00	1040	893	6.7	1.4	208	7	2.5
2025-10-29T12:00	1060	890	6.7	1.4	212	7	2.5
2025-10-29T12:00	1080	888	6.8	1.6	216	8	2.6
2025-10-29T12:00	1100	886	6.8	1.6	221	9	2.6
2025-10-29T12:00	1120	884	6.7	1.6	225	10	2.6
2025-10-29T12:00	1140	882	6.5	1.5	228	10	2.6
2025-10-29T12:00	1160	880	6.5	1.4	229	11	2.7
2025-10-29T12:00	1180	878	6.5	1.2	229	11	2.7
2025-10-29T12:00	1200	875	6.4	0.9	226	11	2.8
2025-10-29T12:00	1220	873	6.6	-0.1	223	11	2.9
2025-10-29T12:00	1240	871	6.7	-0.4	219	11	2.9
2025-10-29T12:00	1260	869	6.6	-0.4	214	11	3.0
2025-10-29T12:00	1280	867	6.5	-0.6	211	11	3.0
2025-10-29T12:00	1300	865	6.4	-0.9	209	12	3.1
2025-10-29T12:00	1320	863	6.4	-1.4	209	12	3.1
2025-10-29T12:00	1340	861	6.5	-2.3	211	13	3.2
2025-10-29T12:00	1360	859	7.0	-3.9	213	13	3.2
2025-10-29T12:00	1380	857	8.3	-6.4	214	13	3.3
2025-10-29T12:00	1400	854	8.8	-6.7	215	12	3.4
2025-10-29T12:00	1420	852	8.8	-6.8	216	12	3.5
2025-10-29T12:00	1440	850	8.6	-6.9	215	11	3.6
2025-10-29T12:00	1460	848	8.5	-7.2	213	10	3.7
2025-10-29T12:00	1480	846	8.5	-7.3	209	9	3.8
2025-10-29T12:00	1500	844	8.3	-7.3	206	10	3.8
2025-10-29T12:00	1520	842	8.2	-7.4	203	10	3.9
2025-10-29T12:00	1540	840	8.0	-7.5	200	10	3.9
2025-10-29T12:00	1560	838	7.9	-7.6	199	10	3.9
2025-10-29T12:00	1580	836	7.7	-7.7	198	10	3.9
2025-10-29T12:00	1600	834	7.6	-7.8	197	10	3.9
2025-10-29T12:00	1620	832	7.5	-7.9	196	10	3.9
2025-10-29T12:00	1640	830	7.4	-8.0	196	10	3.9
2025-10-29T12:00	1660	828	7.2	-8.0	195	10	3.9
2025-10-29T12:00	1680	826	7.1	-8.1	195	10	3.9
2025-10-29T12:00	1700	824	7.0	-8.3	195	10	4.0
2025-10-29T12:00	1720	822	6.9	-8.6	196	11	4.0
2025-10-29T12:00	1740	820	6.9	-8.9	196	11	4.0
2025-10-29T12:00	1760	818	6.9	-8.8	197	12	4.0
2025-10-29T12:00	1780	816	6.8	-8.8	198	12	4.0
2025-10-29T12:00	1800	814	6.7	-9.2	199	13	4.0
2025-10-29T12:00	1820	812	6.9	-10.3	198	13	4.0
2025-10-29T12:00	1840	810	6.9	-10.5	198	14	4.0
2025-10-29T12:00	1860	808	6.7	-10.5	197	14	4.0
2025-10-29T12:00	1880	806	6.6	-10.6	197	14	4.0
2025-10-29T12:00	1900	804	6.5	-10.7	197	14	4.0
2025-10-29T12:00	1920	802	6.5	-10.8	197	13	4.0
2025-10-29T12:00	1940	800	6.4	-10.9	198	13	4.1
2025-10-29T12:00	1960	798	6.5	-11.5	198	13	4.1
2025-10-29T12:00	1980	796	6.3	-11.9	199	12	4.0
2025-10-29T12:00	2000	794	6.4	-12.6	199	12	4.0
2025-10-29T12:00	2020	792	6.4	-13.5	200	12	4.0
2025-10-29T12:00	2040	790	6.5	-14.4	200	12	4.1
2025-10-29T12:00	2060	788	6.4	-14.5	200	13	4.1
2025-10-29T12:00	2080	787	6.3	-14.6	201	13	4.1
2025-10-29T12:00	2100	785	6.1	-14.7	201	13	4.1
2025-10-29T12:00	2120	783	6.0	-14.8	202	13	4.1
2025-10-29T12:00	2140	781	5.8	-14.8	202	14	4.1
2025-10-29T12:00	2160	779	5.7	-14.8	202	14	4.1
2025-10-29T12:00	2180	777	5.6	-14.8	203	14	4.1
2025-10-29T12:00	2200	775	5.5	-14.8	204	14	4.1
2025-10-29T12:00	2220	773	5.3	-14.7	204	14	4.1
2025-10-29T12:00	2240	771	5.1	-14.8	205	14	4.1
2025-10-29T12:00	2260	770	5.0	-14.9	206	14	4.1
2025-10-29T12:00	2280	768	4.8	-14.9	206	15	4.1
2025-10-29T12:00	2300	766	4.7	-14.9	207	15	4.1
2025-10-29T12:00	2320	764	4.5	-14.8	208	16	4.1
2025-10-29T12:00	2340	762	4.3	-14.9	209	16	4.1
2025-10-29T12:00	2360	760	4.2	-15.0	210	17	4.0
2025-10-29T12:00	2380	758	4.1	-15.1	210	18	4.0
2025-10-29T12:00	2400	756	4.1	-15.2	210	19	4.1
2025-10-29T12:00	2420	754	4.1	-15.3	209	19	4.1
2025-10-29T12:00	2440	753	4.1	-15.3	208	19	4.1
2025-10-29T12:00	2460	751	4.1	-15.2	207	19	4.0
2025-10-29T12:00	2480	749	4.0	-15.2	206	19	4.0
2025-10-29T12:00	2500	747	4.0	-15.3	206	19	4.0
2025-10-29T12:00	2520	745	3.9	-15.3	206	19	4.0
2025-10-29T12:00	2540	743	3.7	-15.1	207	19	4.0
2025-10-29T12:00	2560	741	3.7	-15.1	208	20	4.0
2025-10-29T12:00	2580	740	3.7	-16.1	208	20	4.0
2025-10-29T12:00	2600	738	3.8	-16.7	209	21	4.0
2025-10-29T12:00	2620	736	3.8	-16.3	209	21	4.0
2025-10-29T12:00	2640	734	3.8	-16.3	209	22	4.0
2025-10-29T12:00	2660	733	3.8	-16.6	209	22	4.0
2025-10-29T12:00	2680	731	3.8	-16.8	209	23	3.9
2025-10-29T12:00	2700	729	3.6	-16.8	209	23	3.9
2025-10-29T12:00	2720	727	3.5	-16.9	208	23	3.9
2025-10-29T12:00	2740	725	3.3	-16.9	208	22	3.9
2025-10-29T12:00	2760	723	3.1	-16.8	208	22	3.8
2025-10-29T12:00	2780	722	2.9	-16.8	209	22	3.8
2025-10-29T12:00	2800	720	2.7	-17.0	209	22	3.8
2025-10-29T12:00	2820	718	2.4	-17.2	210	22	3.8
2025-10-29T12:00	2840	716	2.4	-17.9	211	22	3.8
2025-10-29T12:00	2860	715	2.2	-18.0	211	22	3.8
2025-10-29T12:00	2880	713	2.1	-18.2	211	23	3.7
2025-10-29T12:00	2900	711	1.9	-18.6	211	23	3.7
2025-10-29T12:00	2920	709	1.8	-19.2	211	24	3.7
2025-10-29T12:00	2940	707	1.7	-19.8	211	24	3.7
2025-10-29T12:00	2960	706	1.6	-20.2	210	24	3.7
2025-10-29T12:00	2980	704	1.5	-20.5	210	25	3.6
2025-10-29T12:00	3000	702	1.4	-20.7	210	25	3.6
2025-10-29T12:00	3020	700	1.2	-21.0	210	25	3.6
2025-10-29T12:00	3040	699	1.0	-21.1	210	25	3.6
2025-10-29T12:00	3060	697	0.9	-21.3	210	25	3.6
2025-10-29T12:00	3080	695	0.7	-21.4	211	25	3.6
2025-10-29T12:00	3100	694	0.6	-21.6	211	25	3.6
2025-10-29T12:00	3120	692	0.4	-21.7	212	25	3.6
2025-10-29T12:00	3140	690	0.3	-21.8	214	24	3.6
2025-10-29T12:00	3160	688	0.0	-21.8	215	24	3.6
2025-10-29T12:00	3180	687	-0.1	-22.2	216	24	3.6
2025-10-29T12:00	3200	685	-0.2	-23.3	217	23	3.6
2025-10-29T12:00	3220	683	-0.1	-24.7	218	22	3.5
2025-10-29T12:00	3240	682	-0.1	-24.9	218	22	3.5
2025-10-29T12:00	3260	680	-0.1	-25.5	216	21	3.5
2025-10-29T12:00	3280	678	-0.1	-26.0	215	20	3.5
2025-10-29T12:00	3300	677	-0.1	-26.8	213	20	3.5
2025-10-29T12:00	3320	675	-0.2	-27.3	211	21	3.5
2025-10-29T12:00	3340	673	-0.3	-27.4	210	21	3.5
2025-10-29T12:00	3360	672	-0.5	-27.5	209	21	3.4
2025-10-29T12:00	3380	670	-0.6	-27.7	209	22	3.4
2025-10-29T12:00	3400	668	-0.7	-27.9	209	23	3.4
2025-10-29T12:00	3420	666	-0.9	-28.1	210	23	3.4
2025-10-29T12:00	3440	665	-0.9	-28.5	212	23	3.4
2025-10-29T12:00	3460	663	-1.0	-29.4	214	24	3.4
2025-10-29T12:00	3480	661	-1.0	-30.0	216	24	3.4
2025-10-29T12:00	3500	660	-1.0	-30.2	218	23	3.4
2025-10-29T12:00	3520	658	-1.2	-29.7	220	23	3.4
2025-10-29T12:00	3540	656	-1.3	-29.2	221	22	3.4
2025-10-29T12:00	3560	655	-1.5	-28.9	222	21	3.4
2025-10-29T12:00	3580	653	-1.7	-29.0	222	21	3.4
2025-10-29T12:00	3600	652	-1.9	-29.3	222	21	3.4
2025-10-29T12:00	3620	650	-2.0	-29.3	220	21	3.4
2025-10-29T12:00	3640	648	-2.2	-29.0	219	21	3.4
2025-10-29T12:00	3660	647	-2.4	-28.7	217	21	3.4
2025-10-29T12:00	3680	645	-2.5	-28.7	214	21	3.4
2025-10-29T12:00	3700	643	-2.6	-28.8	212	21	3.4
2025-10-29T12:00	3720	642	-2.9	-28.6	210	21	3.4
2025-10-29T12:00	3740	640	-3.0	-28.6	208	21	3.4
2025-10-29T12:00	3760	638	-3.1	-29.0	206	22	3.3
2025-10-29T12:00	3780	637	-3.1	-29.2	205	22	3.3
2025-10-29T12:00	3800	635	-3.0	-29.6	205	22	3.3
2025-10-29T12:00	3820	634	-3.0	-29.6	205	22	3.3
2025-10-29T12:00	3840	632	-2.9	-32.0	206	21	3.3
2025-10-29T12:00	3860	630	-2.8	-33.9	207	21	3.3
2025-10-29T12:00	3880	629	-2.9	-34.9	209	21	3.3
2025-10-29T12:00	3900	627	-3.0	-37.5	210	21	3.3
2025-10-29T12:00	3920	626	-3.0	-40.3	212	20	3.3
2025-10-29T12:00	3940	624	-3.0	-41.4	214	20	3.4
2025-10-29T12:00	3960	622	-3.2	-41.8	214	19	3.4
2025-10-29T12:00	3980	621	-3.3	-42.0	213	18	3.4
2025-10-29T12:00	4000	619	-3.5	-42.1	212	18	3.4
2025-10-29T12:00	4020	618	-3.7	-42.2	210	18	3.4
2025-10-29T12:00	4040	616	-3.9	-42.4	210	18	3.4
2025-10-29T12:00	4060	615	-4.1	-42.5	210	18	3.4
2025-10-29T12:00	4080	613	-4.2	-42.7	211	18	3.4
2025-10-29T12:00	4100	612	-4.5	-42.8	213	18	3.4
2025-10-29T12:00	4120	610	-4.7	-42.8	215	18	3.4
2025-10-29T12:00	4140	609	-4.9	-42.9	216	18	3.4
2025-10-29T12:00	4160	607	-5.1	-42.9	216	18	3.4
2025-10-29T12:00	4180	605	-5.3	-42.8	215	18	3.3
2025-10-29T12:00	4200	604	-5.5	-42.7	214	19	3.3
2025-10-29T12:00	4220	602	-5.6	-42.6	214	19	3.3
2025-10-29T12:00	4240	601	-5.8	-42.7	215	20	3.3
2025-10-29T12:00	4260	599	-6.0	-42.7	216	20	3.3
2025-10-29T12:00	4280	598	-6.3	-42.8	218	21	3.3
2025-10-29T12:00	4300	596	-6.4	-42.8	218	21	3.3
2025-10-29T12:00	4320	595	-6.6	-42.8	218	21	3.3
2025-10-29T12:00	4340	593	-6.8	-42.9	217	20	3.3
2025-10-29T12:00	4360	592	-7.0	-42.9	216	20	3.3
2025-10-29T12:00	4380	590	-7.2	-43.1	215	19	3.3
2025-10-29T12:00	4400	589	-7.3	-43.8	215	19	3.2
2025-10-29T12:00	4420	587	-7.4	-44.4	215	18	3.3
2025-10-29T12:00	4440	585	-7.6	-45.5	216	18	3.3
2025-10-29T12:00	4460	584	-7.6	-46.3	217	19	3.2
2025-10-29T12:00	4480	582	-7.8	-46.3	218	19	3.2
2025-10-29T12:00	4500	581	-8.0	-46.3	220	19	3.2
2025-10-29T12:00	4520	580	-8.1	-46.5	221	18	3.3
2025-10-29T12:00	4540	578	-8.3	-46.7	221	18	3.2
2025-10-29T12:00	4560	577	-8.5	-46.9	221	18	3.2
2025-10-29T12:00	4580	575	-8.6	-47.3	220	18	3.2
2025-10-29T12:00	4600	574	-8.6	-47.2	218	18	3.2
2025-10-29T12:00	4620	572	-8.7	-46.3	218	18	3.2
2025-10-29T12:00	4640	570	-8.8	-46.0	218	18	3.2
2025-10-29T12:00	4660	569	-9.0	-45.9	218	18	3.3
2025-10-29T12:00	4680	568	-9.1	-45.7	218	18	3.3
2025-10-29T12:00	4700	566	-9.4	-45.3	219	19	3.3
2025-10-29T12:00	4720	565	-9.5	-45.2	219	19	3.3
2025-10-29T12:00	4740	563	-9.7	-44.7	218	19	3.3
2025-10-29T12:00	4760	562	-9.8	-44.2	217	19	3.3
2025-10-29T12:00	4780	560	-10.0	-43.9	216	19	3.2
2025-10-29T12:00	4800	559	-10.1	-43.2	215	20	3.2
2025-10-29T12:00	4820	558	-10.3	-42.9	214	20	3.2
2025-10-29T12:00	4840	556	-10.5	-42.8	214	20	3.2
2025-10-29T12:00	4860	555	-10.7	-42.6	214	20	3.2
2025-10-29T12:00	4880	553	-10.8	-42.4	215	19	3.2
2025-10-29T12:00	4900	552	-11.0	-42.4	215	19	3.1
2025-10-29T12:00	4920	550	-11.2	-42.5	215	19	3.1
2025-10-29T12:00	4940	549	-11.4	-42.6	215	18	3.1
2025-10-29T12:00	4960	548	-11.6	-42.1	214	18	3.1
2025-10-29T12:00	4980	546	-11.8	-41.7	212	18	3.1
2025-10-29T12:00	5000	545	-11.9	-41.6	211	18	3.1
2025-10-29T12:00	5020	543	-12.1	-41.7	209	18	3.0
2025-10-29T12:00	5040	542	-12.2	-42.8	208	19	3.0
2025-10-29T12:00	5060	540	-12.4	-43.1	207	19	3.0
2025-10-29T12:00	5080	539	-12.6	-44.5	207	19	3.0
2025-10-29T12:00	5100	537	-12.8	-46.7	207	19	3.0
2025-10-29T12:00	5120	536	-12.9	-47.5	207	20	3.0
2025-10-29T12:00	5140	535	-13.0	-48.4	207	20	3.1
2025-10-29T12:00	5160	533	-13.2	-48.1	207	21	3.1
2025-10-29T12:00	5180	532	-13.3	-48.8	207	21	3.2
2025-10-29T12:00	5200	530	-13.5	-48.7	208	22	3.2
2025-10-29T12:00	5220	529	-13.7	-48.8	210	22	3.2
2025-10-29T12:00	5240	528	-13.8	-49.0	211	22	3.2
2025-10-29T12:00	5260	526	-14.0	-49.2	213	21	3.2
2025-10-29T12:00	5280	525	-14.2	-49.4	214	21	3.2
2025-10-29T12:00	5300	524	-14.4	-49.6	215	21	3.2
2025-10-29T12:00	5320	522	-14.6	-49.7	215	20	3.2
2025-10-29T12:00	5340	521	-14.7	-50.0	215	20	3.2
2025-10-29T12:00	5360	519	-14.9	-50.1	215	20	3.3
2025-10-29T12:00	5380	518	-15.0	-50.0	215	20	3.3
2025-10-29T12:00	5400	517	-15.1	-49.9	215	20	3.3
2025-10-29T12:00	5420	515	-15.3	-49.8	215	20	3.3
2025-10-29T12:00	5440	514	-15.4	-49.8	214	20	3.3
2025-10-29T12:00	5460	513	-15.6	-47.3	215	20	3.3
2025-10-29T12:00	5480	511	-15.6	-41.6	215	20	3.3
2025-10-29T12:00	5500	510	-15.7	-39.3	215	20	3.3
2025-10-29T12:00	5520	509	-15.8	-37.6	216	20	3.3
2025-10-29T12:00	5540	507	-16.1	-37.2	217	21	3.3
2025-10-29T12:00	5560	506	-16.2	-37.0	218	21	3.4
2025-10-29T12:00	5580	505	-16.4	-37.0	218	21	3.4
2025-10-29T12:00	5600	503	-16.6	-36.5	219	21	3.3
2025-10-29T12:00	5620	502	-16.7	-36.4	219	21	3.3
2025-10-29T12:00	5640	500	-16.8	-33.8	219	21	3.3
2025-10-29T12:00	5660	499	-16.8	-29.8	219	21	3.3
2025-10-29T12:00	5680	498	-16.9	-30.2	219	21	3.3
2025-10-29T12:00	5700	497	-17.1	-32.7	219	21	3.3
2025-10-29T12:00	5720	495	-17.2	-34.8	220	20	3.2
2025-10-29T12:00	5740	494	-17.3	-35.5	221	20	3.2
2025-10-29T12:00	5760	492	-17.5	-35.9	222	20	3.2
2025-10-29T12:00	5780	491	-17.7	-37.2	223	20	3.2
2025-10-29T12:00	5800	490	-17.8	-39.3	224	20	3.3
2025-10-29T12:00	5820	489	-17.9	-35.9	225	20	3.3
2025-10-29T12:00	5840	487	-18.0	-27.9	225	20	3.3
2025-10-29T12:00	5860	486	-18.0	-25.2	225	20	3.2
2025-10-29T12:00	5880	485	-18.2	-25.3	225	20	3.2
2025-10-29T12:00	5900	483	-18.4	-26.4	225	20	3.1
2025-10-29T12:00	5920	482	-18.6	-26.9	225	20	3.0
2025-10-29T12:00	5940	481	-18.7	-27.3	225	20	3.0
2025-10-29T12:00	5960	480	-18.8	-26.2	224	19	3.0
2025-10-29T12:00	5980	478	-19.0	-25.3	224	19	2.9
2025-10-29T12:00	6000	477	-19.1	-25.3	222	19	2.9
2025-10-29T12:00	6020	476	-19.3	-25.1	221	20	2.8
2025-10-29T12:00	6040	474	-19.4	-25.1	220	20	2.8
2025-10-29T12:00	6060	473	-19.6	-24.9	220	20	2.8
2025-10-29T12:00	6080	472	-19.6	-25.4	220	20	2.7
2025-10-29T12:00	6100	471	-19.6	-25.8	221	20	2.7
2025-10-29T12:00	6120	469	-19.8	-25.8	222	20	2.7
2025-10-29T12:00	6140	468	-19.8	-26.2	223	20	2.6
2025-10-29T12:00	6160	467	-19.9	-27.3	224	19	2.6
2025-10-29T12:00	6180	466	-19.9	-28.1	225	19	2.6
2025-10-29T12:00	6200	464	-19.9	-29.4	226	19	2.6
2025-10-29T12:00	6220	463	-19.9	-29.7	226	19	2.6
2025-10-29T12:00	6240	462	-20.0	-29.7	226	19	2.6
2025-10-29T12:00	6260	460	-20.2	-30.0	226	19	2.7
2025-10-29T12:00	6280	459	-20.3	-30.5	226	19	2.7
2025-10-29T12:00	6300	458	-20.4	-30.8	226	19	2.7
2025-10-29T12:00	6320	457	-20.5	-31.1	226	20	2.7
2025-10-29T12:00	6340	455	-20.6	-31.6	226	20	2.7
2025-10-29T12:00	6360	454	-20.7	-31.7	226	20	2.7
2025-10-29T12:00	6380	453	-20.8	-31.8	226	20	2.7
2025-10-29T12:00	6400	452	-21.0	-31.8	227	19	2.7
2025-10-29T12:00	6420	450	-21.2	-31.9	227	19	2.7
2025-10-29T12:00	6440	449	-21.3	-32.4	228	18	2.6
2025-10-29T12:00	6460	448	-21.5	-32.5	228	18	2.6
2025-10-29T12:00	6480	447	-21.6	-32.6	229	18	2.6
2025-10-29T12:00	6500	446	-21.7	-32.8	229	18	2.6
2025-10-29T12:00	6520	445	-21.9	-32.9	229	18	2.6
2025-10-29T12:00	6540	443	-22.0	-32.5	228	19	2.6
2025-10-29T12:00	6560	442	-22.1	-31.3	228	19	2.6
2025-10-29T12:00	6580	441	-22.1	-31.1	228	19	2.6
2025-10-29T12:00	6600	440	-22.1	-32.1	228	19	2.6
2025-10-29T12:00	6620	439	-22.3	-32.4	227	20	2.6
2025-10-29T12:00	6640	437	-22.4	-32.5	227	20	2.7
2025-10-29T12:00	6660	436	-22.6	-32.8	227	20	2.7
2025-10-29T12:00	6680	435	-22.7	-32.9	227	19	2.7
2025-10-29T12:00	6700	434	-22.9	-32.9	227	19	2.7
2025-10-29T12:00	6720	433	-23.1	-33.1	226	19	2.7
2025-10-29T12:00	6740	432	-23.2	-33.5	226	19	2.7
2025-10-29T12:00	6760	430	-23.4	-34.1	226	19	2.7
2025-10-29T12:00	6780	429	-23.6	-34.5	226	19	2.7
2025-10-29T12:00	6800	428	-23.8	-35.1	226	19	2.8
2025-10-29T12:00	6820	427	-24.0	-35.5	226	19	2.7
2025-10-29T12:00	6840	425	-24.0	-36.0	225	19	2.7
2025-10-29T12:00	6860	424	-24.1	-35.9	226	19	2.7
2025-10-29T12:00	6880	423	-24.2	-34.6	226	19	2.7
2025-10-29T12:00	6900	422	-24.3	-34.4	227	19	2.7
2025-10-29T12:00	6920	421	-24.5	-34.2	229	19	2.7
2025-10-29T12:00	6940	420	-24.6	-34.0	229	19	2.7
2025-10-29T12:00	6960	419	-24.5	-35.7	229	19	2.7
2025-10-29T12:00	6980	418	-24.5	-36.1	229	19	2.7
2025-10-29T12:00	7000	416	-24.4	-34.1	229	20	2.7
2025-10-29T12:00	7020	415	-24.4	-32.9	229	20	2.7
2025-10-29T12:00	7040	414	-24.4	-32.6	229	20	2.7
2025-10-29T12:00	7060	413	-24.6	-31.8	229	20	2.7
2025-10-29T12:00	7080	412	-24.7	-31.7	229	20	2.7
2025-10-29T12:00	7100	411	-24.9	-32.0	229	20	2.7
2025-10-29T12:00	7120	410	-25.1	-31.4	229	20	2.6
2025-10-29T12:00	7140	408	-25.3	-32.0	228	20	2.6
2025-10-29T12:00	7160	407	-25.5	-31.3	227	20	2.6
2025-10-29T12:00	7180	406	-25.6	-30.6	227	20	2.6
2025-10-29T12:00	7200	405	-25.8	-30.7	227	20	2.5
2025-10-29T12:00	7220	404	-26.0	-30.4	227	20	2.5
2025-10-29T12:00	7240	403	-26.2	-30.0	229	20	2.4
2025-10-29T12:00	7260	402	-26.3	-29.9	230	21	2.4
2025-10-29T12:00	7280	401	-26.5	-29.8	231	21	2.3
2025-10-29T12:00	7300	399	-26.6	-30.3	232	21	2.3
2025-10-29T12:00	7320	398	-26.8	-31.1	233	22	2.3
2025-10-29T12:00	7340	397	-26.9	-31.1	234	22	2.3
2025-10-29T12:00	7360	396	-27.0	-31.1	235	22	2.3
2025-10-29T12:00	7380	395	-27.2	-31.3	235	23	2.3
2025-10-29T12:00	7400	394	-27.4	-31.6	235	23	2.3
2025-10-29T12:00	7420	393	-27.5	-31.8	235	23	2.3
2025-10-29T12:00	7440	392	-27.7	-32.0	236	23	2.3
2025-10-29T12:00	7460	391	-27.9	-32.0	236	23	2.3
2025-10-29T12:00	7480	390	-28.0	-32.3	236	23	2.2
2025-10-29T12:00	7500	388	-28.2	-32.3	236	22	2.2
2025-10-29T12:00	7520	388	-28.4	-32.2	237	22	2.2
2025-10-29T12:00	7540	386	-28.6	-32.3	237	22	2.2
2025-10-29T12:00	7560	385	-28.8	-32.4	237	21	2.2
2025-10-29T12:00	7580	384	-29.0	-32.8	237	21	2.2
2025-10-29T12:00	7600	383	-29.1	-32.8	237	22	2.2
2025-10-29T12:00	7620	382	-29.4	-32.7	236	22	2.1
2025-10-29T12:00	7640	381	-29.5	-33.0	235	22	2.1
2025-10-29T12:00	7660	380	-29.7	-33.2	234	22	2.1
2025-10-29T12:00	7680	379	-29.9	-33.1	234	21	2.1
2025-10-29T12:00	7700	378	-30.1	-33.2	233	21	2.1
2025-10-29T12:00	7720	377	-30.3	-33.5	234	21	2.1
2025-10-29T12:00	7740	376	-30.4	-33.5	235	21	2.1
2025-10-29T12:00	7760	375	-30.6	-33.7	235	21	2.1
2025-10-29T12:00	7780	373	-30.7	-33.8	236	21	2.1
2025-10-29T12:00	7800	372	-30.9	-34.0	237	22	2.1
2025-10-29T12:00	7820	371	-31.1	-34.0	237	21	2.1
2025-10-29T12:00	7840	370	-31.3	-34.0	237	21	2.1
2025-10-29T12:00	7860	369	-31.6	-34.2	236	21	2.1
2025-10-29T12:00	7880	368	-31.7	-34.4	234	21	2.1
2025-10-29T12:00	7900	367	-31.9	-34.4	233	21	2.2
2025-10-29T12:00	7920	366	-32.1	-34.7	232	21	2.2
2025-10-29T12:00	7940	365	-32.2	-35.1	231	21	2.2
2025-10-29T12:00	7960	364	-32.3	-35.4	230	21	2.2
2025-10-29T12:00	7980	363	-32.4	-35.7	229	20	2.2
2025-10-29T12:00	8000	362	-32.6	-36.0	227	20	2.2
2025-10-29T12:00	8020	361	-32.7	-37.1	226	19	2.2
2025-10-29T12:00	8040	360	-32.7	-37.8	226	19	2.2
2025-10-29T12:00	8060	359	-32.7	-38.4	228	19	2.2
2025-10-29T12:00	8080	358	-32.8	-38.2	230	19	2.3
2025-10-29T12:00	8100	357	-32.9	-38.2	231	20	2.3
2025-10-29T12:00	8120	356	-32.9	-39.0	232	20	2.4
2025-10-29T12:00	8140	355	-32.9	-39.8	232	20	2.4
2025-10-29T12:00	8160	354	-32.9	-40.2	231	20	2.5
2025-10-29T12:00	8180	353	-33.0	-39.9	229	20	2.5
2025-10-29T12:00	8200	352	-33.3	-38.8	227	19	2.6
2025-10-29T12:00	8220	351	-33.5	-38.4	226	19	2.6
2025-10-29T12:00	8240	350	-33.6	-38.6	225	18	2.6
2025-10-29T12:00	8260	349	-33.7	-38.3	224	18	2.5
2025-10-29T12:00	8280	348	-33.8	-38.4	224	18	2.5
2025-10-29T12:00	8300	347	-34.0	-38.4	225	18	2.5
2025-10-29T12:00	8320	346	-34.1	-38.3	225	18	2.5
2025-10-29T12:00	8340	345	-34.1	-38.3	225	18	2.4
2025-10-29T12:00	8360	344	-34.2	-38.1	225	19	2.3
2025-10-29T12:00	8380	343	-34.3	-38.2	224	19	2.2
2025-10-29T12:00	8400	342	-34.5	-38.2	224	20	2.1
2025-10-29T12:00	8420	341	-34.7	-38.4	223	20	2.1
2025-10-29T12:00	8440	340	-34.8	-38.8	223	20	2.0
2025-10-29T12:00	8460	339	-34.9	-38.8	224	20	2.0
2025-10-29T12:00	8480	338	-35.1	-38.8	225	21	1.9
2025-10-29T12:00	8500	337	-35.3	-38.6	226	21	1.9
2025-10-29T12:00	8520	336	-35.4	-38.9	227	21	1.9
2025-10-29T12:00	8540	335	-35.6	-39.3	228	21	1.9
2025-10-29T12:00	8560	334	-35.8	-40.1	228	21	1.9
2025-10-29T12:00	8580	333	-35.9	-41.3	229	21	1.8
2025-10-29T12:00	8600	332	-36.1	-40.6	229	21	1.8
2025-10-29T12:00	8620	332	-36.2	-41.0	229	21	1.8
2025-10-29T12:00	8640	331	-36.4	-41.8	229	21	1.8
2025-10-29T12:00	8660	330	-36.7	-41.5	229	21	1.8
2025-10-29T12:00	8680	329	-36.8	-41.7	230	20	1.8
2025-10-29T12:00	8700	328	-37.0	-41.8	230	20	1.8
2025-10-29T12:00	8720	327	-37.2	-41.6	230	20	1.8
2025-10-29T12:00	8740	326	-37.4	-41.4	230	21	1.8
2025-10-29T12:00	8760	325	-37.4	-41.6	230	21	1.8
2025-10-29T12:00	8780	324	-37.4	-42.2	229	21	1.8
2025-10-29T12:00	8800	323	-37.4	-42.7	229	22	1.7
2025-10-29T12:00	8820	322	-37.5	-42.5	229	22	1.7
2025-10-29T12:00	8840	321	-37.8	-42.4	229	23	1.7
2025-10-29T12:00	8860	320	-37.9	-43.1	229	24	1.7
2025-10-29T12:00	8880	319	-38.0	-42.8	230	24	1.7
2025-10-29T12:00	8900	318	-38.2	-42.9	230	23	1.7
2025-10-29T12:00	8920	317	-38.4	-43.4	231	23	1.7
2025-10-29T12:00	8940	316	-38.6	-43.3	232	22	1.7
2025-10-29T12:00	8960	315	-38.8	-43.9	233	22	1.7
2025-10-29T12:00	8980	314	-38.9	-44.2	233	22	1.7
2025-10-29T12:00	9000	314	-39.2	-44.1	234	21	1.7
2025-10-29T12:00	9020	313	-39.4	-44.2	234	21	1.7
2025-10-29T12:00	9040	312	-39.6	-44.1	233	22	1.7
2025-10-29T12:00	9060	311	-39.8	-44.6	233	22	1.8
2025-10-29T12:00	9080	310	-39.9	-45.3	232	22	1.8
2025-10-29T12:00	9100	309	-40.1	-44.9	232	22	1.8
2025-10-29T12:00	9120	308	-40.2	-45.6	232	22	1.8
2025-10-29T12:00	9140	307	-40.4	-46.3	232	23	1.8
2025-10-29T12:00	9160	306	-40.7	-46.3	233	22	1.8
2025-10-29T12:00	9180	306	-40.9	-45.6	233	22	1.8
2025-10-29T12:00	9200	305	-41.1	-46.2	233	22	1.8
2025-10-29T12:00	9220	304	-41.2	-46.9	233	22	1.8
2025-10-29T12:00	9240	303	-41.4	-47.3	234	22	1.8
2025-10-29T12:00	9260	302	-41.6	-47.6	234	22	1.8
2025-10-29T12:00	9280	301	-41.7	-47.4	234	22	1.8
2025-10-29T12:00	9300	300	-41.9	-46.8	234	23	1.8
2025-10-29T12:00	9320	299	-42.1	-46.6	234	23	1.8
2025-10-29T12:00	9340	298	-42.4	-47.4	234	23	1.8
2025-10-29T12:00	9360	298	-42.5	-48.5	234	23	1.8
2025-10-29T12:00	9380	297	-42.5	-49.0	234	22	1.8
2025-10-29T12:00	9400	296	-42.8	-48.7	233	22	1.8
2025-10-29T12:00	9420	295	-43.0	-48.4	233	22	1.8
2025-10-29T12:00	9440	294	-43.2	-48.1	232	21	1.7
2025-10-29T12:00	9460	293	-43.3	-48.4	232	21	1.7
2025-10-29T12:00	9480	292	-43.5	-48.7	232	20	1.7
2025-10-29T12:00	9500	291	-43.7	-48.5	232	20	1.7
2025-10-29T12:00	9520	290	-43.9	-49.0	233	20	1.6
2025-10-29T12:00	9540	290	-44.0	-49.3	234	20	1.6
2025-10-29T12:00	9560	289	-44.2	-49.4	234	20	1.5
2025-10-29T12:00	9580	288	-44.4	-49.8	235	20	1.5
2025-10-29T12:00	9600	287	-44.6	-50.7	235	20	1.5
2025-10-29T12:00	9620	286	-44.8	-51.2	235	20	1.5
2025-10-29T12:00	9640	285	-44.9	-51.2	236	20	1.5
2025-10-29T12:00	9660	285	-45.1	-51.0	236	20	1.5
2025-10-29T12:00	9680	284	-45.2	-51.0	236	20	1.5
2025-10-29T12:00	9700	283	-45.5	-51.1	235	20	1.5
2025-10-29T12:00	9720	282	-45.7	-51.0	236	21	1.6
2025-10-29T12:00	9740	281	-45.8	-51.3	236	21	1.6
2025-10-29T12:00	9760	280	-46.0	-51.3	236	21	1.6
2025-10-29T12:00	9780	279	-46.3	-51.3	236	21	1.6
2025-10-29T12:00	9800	279	-46.5	-51.4	237	21	1.6
2025-10-29T12:00	9820	278	-46.7	-51.8	237	21	1.6
2025-10-29T12:00	9840	277	-46.8	-52.2	237	21	1.5
2025-10-29T12:00	9860	276	-47.0	-52.4	238	21	1.5
2025-10-29T12:00	9880	275	-47.2	-52.2	238	21	1.5
2025-10-29T12:00	9900	274	-47.4	-51.7	238	21	1.5
2025-10-29T12:00	9920	274	-47.6	-51.7	237	21	1.5
2025-10-29T12:00	9940	273	-47.8	-52.5	237	21	1.4
2025-10-29T12:00	9960	272	-48.1	-52.7	238	21	1.4
2025-10-29T12:00	9980	271	-48.2	-53.2	238	21	1.4
2025-10-29T12:00	10000	270	-48.3	-53.7	238	21	1.4
2025-10-29T12:00	10018	270	-48.5	-53.7	238	20	1.4
2025-10-29T12:00	10050	268	-48.7	-53.3	239	21	1.4
2025-10-29T12:00	10100	266	-49.2	-53.3	239	21	1.4
2025-10-29T12:00	10150	264	-49.7	-53.6	238	21	1.4
2025-10-29T12:00	10200	262	-50.1	-54.3	238	21	1.4
2025-10-29T12:00	10250	260	-50.6	-54.1	238	21	1.4
2025-10-29T12:00	10300	258	-51.1	-54.5	238	22	1.4
2025-10-29T12:00	10350	256	-51.5	-54.7	238	22	1.4
2025-10-29T12:00	10400	254	-52.0	-55.2	238	21	1.4
2025-10-29T12:00	10450	252	-52.4	-55.7	239	21	1.4
2025-10-29T12:00	10500	250	-52.8	-56.1	239	21	1.3
2025-10-29T12:00	10550	248	-53.3	-56.5	240	22	1.3
2025-10-29T12:00	10600	246	-53.8	-57.4	240	22	1.3
2025-10-29T12:00	10650	244	-54.2	-59.4	240	22	1.3
2025-10-29T12:00	10700	243	-54.5	-61.6	240	22	1.3
2025-10-29T12:00	10750	241	-55.0	-61.2	240	22	1.3
2025-10-29T12:00	10800	239	-55.5	-61.5	240	22	1.2
2025-10-29T12:00	10850	237	-55.9	-61.8	241	23	1.2
2025-10-29T12:00	10900	235	-56.3	-61.8	242	23	1.2
2025-10-29T12:00	10950	233	-57.0	-62.2	241	22	1.2
2025-10-29T12:00	11000	231	-57.4	-62.6	240	22	1.2
2025-10-29T12:00	11050	230	-57.8	-63.1	239	22	1.2
2025-10-29T12:00	11100	228	-58.2	-63.4	238	23	1.2
2025-10-29T12:00	11150	226	-58.7	-64.0	239	23	1.2
2025-10-29T12:00	11200	224	-59.2	-64.4	240	23	1.2
2025-10-29T12:00	11250	222	-59.6	-64.5	240	23	1.2
2025-10-29T12:00	11300	221	-60.0	-64.9	241	24	1.2
2025-10-29T12:00	11350	219	-60.5	-65.7	242	24	1.2
2025-10-29T12:00	11400	217	-60.8	-66.0	243	24	1.2
2025-10-29T12:00	11450	215	-61.3	-66.2	243	24	1.2
2025-10-29T12:00	11500	214	-61.8	-66.5	244	25	1.2
2025-10-29T12:00	11550	212	-62.2	-66.9	244	25	1.1
2025-10-29T12:00	11600	210	-62.7	-67.2	244	25	1.1
2025-10-29T12:00	11650	208	-63.1	-67.7	246	24	1.1
2025-10-29T12:00	11700	207	-63.5	-68.2	246	25	1.1
2025-10-29T12:00	11750	205	-63.7	-68.4	246	25	1.1
2025-10-29T12:00	11800	203	-64.1	-68.8	245	25	1.1
2025-10-29T12:00	11850	202	-64.5	-69.0	243	25	1.2
2025-10-29T12:00	11900	200	-64.7	-69.4	242	25	1.2
2025-10-29T12:00	11950	198	-65.0	-69.7	241	25	1.2
2025-10-29T12:00	12000	197	-65.3	-69.8	240	25	1.2
2025-10-29T12:00	12050	195	-65.8	-70.3	239	27	1.2
2025-10-29T12:00	12100	194	-65.8	-69.9	238	29	1.2
2025-10-29T12:00	12150	192	-65.9	-70.0	236	30	1.2
2025-10-29T12:00	12200	191	-65.9	-69.9	235	31	1.1
2025-10-29T12:00	12250	189	-65.9	-69.7	234	32	1.1
2025-10-29T12:00	12300	187	-66.1	-69.8	234	32	1.1
2025-10-29T12:00	12350	186	-66.0	-69.8	235	32	1.1
2025-10-29T12:00	12400	184	-66.0	-69.8	236	33	1.2
2025-10-29T12:00	12450	183	-66.2	-70.6	239	33	1.2
2025-10-29T12:00	12500	181	-66.1	-71.8	241	31	1.3
2025-10-29T12:00	12550	180	-65.9	-72.5	243	29	1.4
2025-10-29T12:00	12600	178	-65.5	-73.0	244	28	1.5
2025-10-29T12:00	12650	177	-64.8	-73.7	243	26	1.7
2025-10-29T12:00	12700	175	-64.1	-74.4	242	24	1.8
2025-10-29T12:00	12750	174	-64.0	-74.8	241	24	1.9
2025-10-29T12:00	12800	173	-63.9	-75.3	242	25	2.0
2025-10-29T12:00	12850	171	-63.9	-75.9	244	25	2.1
2025-10-29T12:00	12900	170	-63.5	-76.6	247	25	2.1
2025-10-29T12:00	12950	168	-63.3	-77.4	250	25	2.2
2025-10-29T12:00	13000	167	-62.3	-78.2	251	24	2.3
2025-10-29T12:00	13050	166	-61.3	-79.0	250	24	2.4
2025-10-29T12:00	13100	164	-61.3	-79.7	249	24	2.4
2025-10-29T12:00	13150	163	-61.6	-79.7	250	23	2.5
2025-10-29T12:00	13200	162	-62.0	-79.4	252	23	2.5
2025-10-29T12:00	13250	160	-62.3	-79.2	254	23	2.5
2025-10-29T12:00	13300	159	-62.7	-79.1	255	23	2.5
2025-10-29T12:00	13350	158	-62.9	-78.8	255	22	2.5
2025-10-29T12:00	13400	157	-63.1	-78.4	253	22	2.4
2025-10-29T12:00	13450	155	-63.2	-78.4	250	22	2.4
2025-10-29T12:00	13500	154	-63.5	-78.9	246	22	2.3
2025-10-29T12:00	13550	153	-63.6	-79.6	245	22	2.2
2025-10-29T12:00	13600	152	-63.6	-79.9	246	23	2.2
2025-10-29T12:00	13650	150	-63.6	-80.3	249	25	2.1
2025-10-29T12:00	13700	149	-62.9	-80.8	253	26	2.1
2025-10-29T12:00	13750	148	-62.2	-81.0	256	26	2.1
2025-10-29T12:00	13800	147	-62.2	-81.4	258	25	2.2
2025-10-29T12:00	13850	146	-62.1	-81.5	260	25	2.3
2025-10-29T12:00	13900	144	-62.3	-81.6	261	24	2.5
2025-10-29T12:00	13950	143	-62.6	-81.6	263	23	2.6
2025-10-29T12:00	14000	142	-62.7	-81.6	263	23	2.6
2025-10-29T12:00	14050	141	-62.8	-81.7	261	22	2.6
2025-10-29T12:00	14100	140	-63.3	-81.8	258	22	2.6
2025-10-29T12:00	14150	139	-63.4	-81.9	255	21	2.6
2025-10-29T12:00	14200	138	-63.5	-81.9	251	20	2.6
2025-10-29T12:00	14250	136	-63.5	-82.1	247	20	2.6
2025-10-29T12:00	14300	135	-63.4	-82.2	245	21	2.6
2025-10-29T12:00	14350	134	-63.5	-82.4	245	21	2.6
2025-10-29T12:00	14400	133	-63.6	-82.5	247	22	2.6
2025-10-29T12:00	14450	132	-63.5	-82.6	249	22	2.7
2025-10-29T12:00	14500	131	-63.7	-82.8	251	22	2.8
2025-10-29T12:00	14550	130	-63.9	-82.8	253	22	2.8
2025-10-29T12:00	14600	129	-63.8	-82.9	255	22	2.8
2025-10-29T12:00	14650	128	-64.0	-83.1	256	22	2.8
2025-10-29T12:00	14700	127	-63.9	-83.1	255	22	2.9
2025-10-29T12:00	14750	126	-64.1	-83.4	252	22	2.9
2025-10-29T12:00	14800	125	-64.1	-83.5	250	22	2.8
2025-10-29T12:00	14850	124	-64.0	-83.6	250	22	2.8
2025-10-29T12:00	14900	123	-63.9	-83.5	248	22	2.8
2025-10-29T12:00	14950	122	-63.8	-83.5	247	23	3.0
2025-10-29T12:00	15000	121	-63.5	-83.6	249	24	3.1
2025-10-29T12:00	15050	120	-63.1	-83.7	252	25	3.2
2025-10-29T12:00	15100	119	-63.0	-83.8	255	25	3.3
2025-10-29T12:00	15150	118	-62.7	-83.8	258	24	3.1
2025-10-29T12:00	15200	117	-62.7	-83.9	261	24	3.0
2025-10-29T12:00	15250	116	-63.0	-83.9	265	23	2.9
2025-10-29T12:00	15300	115	-63.3	-83.9	269	22	2.8
2025-10-29T12:00	15350	114	-63.6	-84.0	271	21	2.7
2025-10-29T12:00	15400	113	-63.5	-84.0	269	19	2.6
2025-10-29T12:00	15450	112	-63.7	-84.0	267	18	2.6
2025-10-29T12:00	15500	111	-64.0	-84.1	264	18	2.6
2025-10-29T12:00	15550	110	-64.1	-84.1	263	17	2.5
2025-10-29T12:00	15600	109	-64.2	-84.2	267	17	2.5
2025-10-29T12:00	15650	109	-64.2	-84.2	272	17	2.5
2025-10-29T12:00	15700	108	-64.1	-84.4	278	17	2.6
2025-10-29T12:00	15750	107	-63.6	-84.2	280	17	2.6
2025-10-29T12:00	15800	106	-63.5	-84.2	277	17	2.7
2025-10-29T12:00	15850	105	-63.8	-84.3	274	18	2.7
2025-10-29T12:00	15900	104	-63.8	-84.4	270	19	2.8
2025-10-29T12:00	15950	103	-63.9	-84.4	267	20	2.9
2025-10-29T12:00	16000	103	-64.2	-84.6	263	21	2.9
2025-10-29T12:00	16050	102	-64.3	-84.6	260	21	3.0
2025-10-29T12:00	16100	101	-64.5	-84.7	258	22	3.1
2025-10-29T12:00	16150	100	-64.5	-84.8	259	23	3.1
2025-10-29T12:00	16200	99	-64.3	-85.0	261	23	3.2
2025-10-29T12:00	16250	98	-63.9	-84.8	263	23	3.4
2025-10-29T12:00	16300	98	-64.2	-85.0	266	22	3.6
2025-10-29T12:00	16350	97	-64.5	-84.9	268	21	3.7
2025-10-29T12:00	16400	96	-64.9	-85.0	269	20	3.8
2025-10-29T12:00	16450	95	-65.1	-85.0	268	20	3.8
2025-10-29T12:00	16500	95	-65.2	-85.1	266	20	3.8
2025-10-29T12:00	16550	94	-65.0	-85.0	262	20	3.8
2025-10-29T12:00	16600	93	-65.1	-85.1	259	19	3.8
2025-10-29T12:00	16650	92	-65.3	-85.3	256	19	3.9
2025-10-29T12:00	16700	91	-65.4	-85.2	254	19	4.0
2025-10-29T12:00	16750	91	-65.5	-85.3	254	19	4.1
2025-10-29T12:00	16800	90	-65.7	-85.5	257	19	4.2
2025-10-29T12:00	16850	89	-65.4	-85.7	260	19	4.3
2025-10-29T12:00	16900	88	-64.8	-85.5	258	19	4.3
2025-10-29T12:00	16950	88	-64.7	-85.6	255	21	4.4
2025-10-29T12:00	17000	87	-64.9	-85.7	253	22	4.4
2025-10-29T12:00	17050	86	-64.8	-85.7	255	22	4.4
2025-10-29T12:00	17100	86	-64.5	-85.7	259	21	4.4
2025-10-29T12:00	17150	85	-64.4	-85.7	263	20	4.4
2025-10-29T12:00	17200	84	-64.6	-85.8	265	18	4.5
2025-10-29T12:00	17250	84	-64.7	-85.9	267	18	4.5
2025-10-29T12:00	17300	83	-64.6	-85.9	268	18	4.6
2025-10-29T12:00	17350	82	-64.4	-85.9	269	20	4.7
2025-10-29T12:00	17400	82	-64.5	-86.0	270	21	4.7
2025-10-29T12:00	17450	81	-64.5	-86.0	271	22	4.7
2025-10-29T12:00	17500	80	-64.6	-86.0	272	23	4.8
2025-10-29T12:00	17550	80	-64.6	-86.1	273	23	4.8
2025-10-29T12:00	17600	79	-64.6	-86.2	274	21	4.9
2025-10-29T12:00	17650	78	-64.5	-86.2	276	19	5.0
2025-10-29T12:00	17700	78	-64.4	-86.2	275	17	5.2
2025-10-29T12:00	17750	77	-64.6	-86.3	272	16	5.3
2025-10-29T12:00	17800	76	-64.8	-86.4	268	14	5.5
2025-10-29T12:00	17850	76	-64.7	-86.5	263	13	5.6
2025-10-29T12:00	17900	75	-64.6	-86.5	260	13	5.7
2025-10-29T12:00	17950	74	-64.4	-86.6	257	13	5.8
2025-10-29T12:00	18000	74	-64.4	-86.6	254	14	5.9
2025-10-29T12:00	18050	73	-64.3	-86.6	254	15	5.9
2025-10-29T12:00	18100	73	-64.3	-86.7	256	15	6.0
2025-10-29T12:00	18150	72	-64.2	-86.8	256	16	6.1
2025-10-29T12:00	18200	71	-63.8	-86.7	255	17	6.4
2025-10-29T12:00	18250	71	-63.9	-86.9	256	17	6.5
2025-10-29T12:00	18300	70	-63.6	-86.8	257	17	6.7
2025-10-29T12:00	18350	70	-63.3	-86.8	257	17	6.7
2025-10-29T12:00	18400	69	-63.1	-86.8	257	17	6.9
2025-10-29T12:00	18450	69	-62.8	-86.7	259	18	6.8
2025-10-29T12:00	18500	68	-62.8	-86.7	262	18	7.0
2025-10-29T12:00	18550	68	-62.8	-86.7	266	19	7.1
2025-10-29T12:00	18600	67	-62.8	-86.7	270	19	7.2
2025-10-29T12:00	18650	66	-63.0	-86.7	272	19	7.2
2025-10-29T12:00	18700	66	-63.1	-86.7	272	19	7.4
2025-10-29T12:00	18750	65	-63.3	-86.7	271	19	7.5
2025-10-29T12:00	18800	65	-63.6	-86.8	268	19	7.3
2025-10-29T12:00	18850	64	-63.8	-86.8	266	18	7.5
2025-10-29T12:00	18900	64	-64.1	-87.0	264	18	7.5
2025-10-29T12:00	18950	63	-64.3	-87.2	261	17	7.6
2025-10-29T12:00	19000	63	-64.0	-87.2	257	16	7.6
2025-10-29T12:00	19050	62	-63.7	-87.1	252	16	7.7
2025-10-29T12:00	19100	62	-64.0	-87.2	248	17	7.9
2025-10-29T12:00	19150	61	-64.1	-87.3	247	18	7.8
2025-10-29T12:00	19200	61	-63.9	-87.3	249	18	8.2
2025-10-29T12:00	19250	60	-63.8	-87.4	253	19	8.2
2025-10-29T12:00	19300	60	-63.5	-87.2	255	20	8.4
2025-10-29T12:00	19350	59	-63.4	-87.2	258	20	8.2
2025-10-29T12:00	19400	59	-63.5	-87.3	262	19	8.4
2025-10-29T12:00	19450	58	-63.3	-87.4	266	18	8.5
2025-10-29T12:00	19500	58	-62.8	-87.1	268	18	8.7
2025-10-29T12:00	19550	57	-62.9	-87.1	269	17	8.9
2025-10-29T12:00	19600	57	-63.0	-87.1	270	17	9.2
2025-10-29T12:00	19650	56	-63.2	-87.1	271	17	9.4
2025-10-29T12:00	19700	56	-63.2	-87.2	270	16	9.4
2025-10-29T12:00	19750	56	-62.9	-87.1	267	15	9.5
2025-10-29T12:00	19800	55	-62.9	-87.2	263	14	9.5
2025-10-29T12:00	19850	55	-63.2	-87.2	259	14	9.5
2025-10-29T12:00	19900	54	-63.2	-87.2	258	14	9.6
2025-10-29T12:00	19950	54	-63.1	-87.1	258	14	9.7
2025-10-29T12:00	20000	53	-63.1	-87.2	257	14	9.9
2025-10-29T12:00	20050	53	-63.0		257	15	10.2
2025-10-29T12:00	20100	52	-62.7		258	16	10.4
2025-10-29T12:00	20150	52	-62.8		259	16	10.6
2025-10-29T12:00	20200	52	-62.8		262	16	10.8
2025-10-29T12:00	20250	51	-62.6		267	16	11.0
2025-10-29T12:00	20300	51	-62.6		270	16	11.0
2025-10-29T12:00	20350	50	-62.5		270	15	11.2
2025-10-29T12:00	20400	50	-62.3		267	15	11.4
2025-10-29T12:00	20450	50	-62.4		263	16	11.6
2025-10-29T12:00	20500	49	-62.0		258	16	11.8
2025-10-29T12:00	20550	49	-62.1		255	16	12.0
2025-10-29T12:00	20600	48	-62.2		254	16	12.1
2025-10-29T12:00	20650	48	-62.2		255	17	12.2
2025-10-29T12:00	20700	48	-62.4		256	18	12.3
2025-10-29T12:00	20750	47	-62.5		256	19	12.3
2025-10-29T12:00	20800	47	-62.6		257	19	12.3
2025-10-29T12:00	20850	46	-62.3		259	19	12.3
2025-10-29T12:00	20900	46	-62.2		263	19	12.3
2025-10-29T12:00	20950	46	-62.2		265	19	12.3
2025-10-29T12:00	21000	45	-62.3		267	20	12.3
2025-10-29T12:00	21050	45	-62.5		270	21	12.3
2025-10-29T12:00	21100	45	-62.6		274	21	12.3
2025-10-29T12:00	21150	44	-62.5		277	20	12.3
2025-10-29T12:00	21200	44	-62.4		280	18	12.4
2025-10-29T12:00	21250	44	-62.6		282	16	12.4
2025-10-29T12:00	21300	43	-62.9		282	15	12.4
2025-10-29T12:00	21350	43	-63.1		280	14	12.4
2025-10-29T12:00	21400	43	-63.3		277	13	12.6
2025-10-29T12:00	21450	42	-63.4		274	14	12.5
2025-10-29T12:00	21500	42	-63.4		270	15	12.7
2025-10-29T12:00	21550	41	-63.2		267	17	12.9
2025-10-29T12:00	21600	41	-62.9		265	18	13.0
2025-10-29T12:00	21650	41	-62.6		266	19	13.0
2025-10-29T12:00	21700	40	-62.1		268	19	12.8
2025-10-29T12:00	21750	40	-61.7		269	18	13.1
2025-10-29T12:00	21800	40	-61.5		272	17	13.3
2025-10-29T12:00	21850	40	-61.8		274	17	13.4
2025-10-29T12:00	21900	39	-62.0		273	17	13.4
2025-10-29T12:00	21950	39	-62.0		271	17	13.4
2025-10-29T12:00	22000	39	-62.1		269	17	13.5
2025-10-29T12:00	22050	38	-61.9		269	17	13.5
2025-10-29T12:00	22100	38	-61.8		269	16	13.5
2025-10-29T12:00	22150	38	-61.9		269	17	13.5
2025-10-29T12:00	22200	37	-62.0		269	17	13.4
2025-10-29T12:00	22250	37	-62.1		269	16	13.3
2025-10-29T12:00	22300	37	-62.2		270	16	13.2
2025-10-29T12:00	22350	36	-62.2		270	16	13.2
2025-10-29T12:00	22400	36	-62.4		270	16	13.1
2025-10-29T12:00	22450	36	-62.7		269	16	13.1
2025-10-29T12:00	22500	36	-62.8		268	16	13.0
2025-10-29T12:00	22550	35	-63.1		266	16	12.9
2025-10-29T12:00	22600	35	-63.3		263	16	12.8
2025-10-29T12:00	22650	35	-63.7		261	16	12.7
2025-10-29T12:00	22700	34	-63.8		261	16	12.7
2025-10-29T12:00	22750	34	-63.7		261	17	12.6
2025-10-29T12:00	22800	34	-63.5		263	18	12.6
2025-10-29T12:00	22850	34	-63.4		264	20	12.6
2025-10-29T12:00	22900	33	-63.1		265	21	12.6
2025-10-29T12:00	22950	33	-62.6		266	22	12.6
2025-10-29T12:00	23000	33	-62.0		270	22	12.7
2025-10-29T12:00	23050	33	-61.5		274	21	12.8
2025-10-29T12:00	23100	32	-61.6		278	20	13.0
2025-10-29T12:00	23150	32	-61.7		281	19	13.1
2025-10-29T12:00	23200	32	-61.8		281	17	13.1
2025-10-29T12:00	23250	31	-62.1		278	16	13.2
2025-10-29T12:00	23300	31	-62.1		272	14	13.2
2025-10-29T12:00	23350	31	-61.8		265	14	13.3
2025-10-29T12:00	23400	31	-61.7		258	15	13.3
2025-10-29T12:00	23450	30	-61.4		253	15	13.4
2025-10-29T12:00	23500	30	-60.9		252	16	13.4
2025-10-29T12:00	23550	30	-60.5		254	16	13.5
2025-10-29T12:00	23600	30	-60.3		254	17	13.5
2025-10-29T12:00	23650	30	-60.1		253	18	13.5
2025-10-29T12:00	23700	29	-60.2		253	18	13.5
2025-10-29T12:00	23750	29	-60.3		253	18	13.4
2025-10-29T12:00	23800	29	-60.1		252	17	13.4
2025-10-29T12:00	23850	29	-59.9		251	17	13.3
2025-10-29T12:00	23900	28	-59.9		249	17	13.2
2025-10-29T12:00	23950	28	-59.9		248	19	13.2
2025-10-29T12:00	24000	28	-59.9		247	20	13.1
2025-10-29T12:00	24050	28	-59.9		248	22	12.9
2025-10-29T12:00	24100	27	-60.1		250	23	12.8
2025-10-29T12:00	24150	27	-60.3		251	24	12.6
2025-10-29T12:00	24200	27	-60.4		251	24	12.5
2025-10-29T12:00	24250	27	-60.4		252	24	12.3
2025-10-29T12:00	24300	27	-60.6		253	23	12.2
2025-10-29T12:00	24350	26	-60.8		256	23	12.1
2025-10-29T12:00	24400	26	-60.9		258	23	12.0
2025-10-29T12:00	24450	26	-61.0		260	22	11.9
2025-10-29T12:00	24500	26	-61.0		261	21	11.9
2025-10-29T12:00	24550	26	-61.2		261	21	11.8
2025-10-29T12:00	24600	25	-61.1		261	20	11.8
2025-10-29T12:00	24650	25	-61.2		262	20	11.8
2025-10-29T12:00	24700	25	-61.5		262	20	11.8
2025-10-29T12:00	24750	25	-61.7		262	20	11.7
2025-10-29T12:00	24800	25	-61.9		261	20	11.7
2025-10-29T12:00	24850	24	-62.0		260	21	11.6
2025-10-29T12:00	24900	24	-62.2		261	21	11.6
2025-10-29T12:00	24950	24	-62.5		263	22	11.5
2025-10-29T12:00	25000	24	-62.6		266	22	11.5
2025-10-29T12:00	25050	24	-62.4		267	22	11.4
2025-10-29T12:00	25100	23	-62.3		266	22	11.4
2025-10-29T12:00	25150	23	-62.1		265	21	11.4
2025-10-29T12:00	25200	23	-62.1		263	21	11.4
2025-10-29T12:00	25250	23	-62.2		260	21	11.4
2025-10-29T12:00	25300	23	-62.3		258	21	11.2
2025-10-29T12:00	25350	22	-62.3		257	22	11.1
2025-10-29T12:00	25400	22	-62.3		258	23	10.8
2025-10-29T12:00	25450	22	-62.2		260	24	10.7
2025-10-29T12:00	25500	22	-62.2		262	25	10.6
2025-10-29T12:00	25550	22	-62.3		264	26	10.5
2025-10-29T12:00	25600	22	-62.3		265	27	10.4
2025-10-29T12:00	25650	21	-62.1		264	26	10.3
2025-10-29T12:00	25700	21	-61.6		262	27	10.1
2025-10-29T12:00	25750	21	-61.0		262	27	10.0
2025-10-29T12:00	25800	21	-60.1		264	27	9.9
2025-10-29T12:00	25850	21	-59.2		264	27	10.1
2025-10-29T12:00	25900	21	-58.7		264	27	10.4
2025-10-29T12:00	25950	20	-58.4		264	27	10.6
2025-10-29T12:00	26000	20	-58.4		265	27	10.7
2025-10-29T12:00	26050	20	-58.2		267	28	10.7
2025-10-29T12:00	26100	20	-58.1		268	27	10.7
2025-10-29T12:00	26150	20	-57.9		267	26	10.7
2025-10-29T12:00	26200	20	-57.8		265	25	10.6
2025-10-29T12:00	26250	19	-57.9		262	25	10.6
2025-10-29T12:00	26300	19	-57.8		261	24	10.5
2025-10-29T12:00	26350	19	-57.7		259	24	10.5
2025-10-29T12:00	26400	19	-57.5		258	24	10.4
2025-10-29T12:00	26450	19	-57.4		258	24	10.3
2025-10-29T12:00	26500	19	-57.2		259	24	10.4
2025-10-29T12:00	26550	19	-57.2		260	25	10.4
2025-10-29T12:00	26600	18	-57.3		261	26	10.4
2025-10-29T12:00	26650	18	-57.3		262	27	10.4
2025-10-29T12:00	26700	18	-57.3		262	27	10.5
2025-10-29T12:00	26750	18	-57.2		262	27	10.5
2025-10-29T12:00	26800	18	-57.1		262	26	10.6
2025-10-29T12:00	26850	18	-56.7		260	26	10.6
2025-10-29T12:00	26900	18	-56.6		258	26	10.6
2025-10-29T12:00	26950	17	-56.6		258	26	10.6
2025-10-29T12:00	27000	17	-56.8		258	25	10.6
2025-10-29T12:00	27050	17	-56.8		258	25	10.5
2025-10-29T12:00	27100	17	-56.5		256	26	10.3
2025-10-29T12:00	27150	17	-56.6		254	26	10.2
2025-10-29T12:00	27200	17	-56.5		254	27	10.1
2025-10-29T12:00	27250	17	-56.3		255	28	10.0
2025-10-29T12:00	27300	16	-56.0		257	29	10.0
2025-10-29T12:00	27350	16	-56.3		260	29	9.9
2025-10-29T12:00	27400	16	-56.5		262	29	9.7
2025-10-29T12:00	27450	16	-56.3		264	28	9.6
2025-10-29T12:00	27500	16	-56.3		263	28	9.6
2025-10-29T12:00	27550	16	-56.5		262	27	9.6
2025-10-29T12:00	27600	16	-56.6		261	27	9.6
2025-10-29T12:00	27650	16	-56.7		261	28	9.6
2025-10-29T12:00	27700	15	-56.7		263	29	9.6
2025-10-29T12:00	27750	15	-56.7		264	30	9.6
2025-10-29T12:00	27800	15	-56.8		263	30	9.5
2025-10-29T12:00	27850	15	-56.7		260	31	9.5
2025-10-29T12:00	27900	15	-56.7		258	31	9.4
2025-10-29T12:00	27950	15	-56.8		258	32	9.3
2025-10-29T12:00	28000	15	-56.7		258	33	9.3
2025-10-29T12:00	28050	15	-56.8		259	34	9.2
2025-10-29T12:00	28100	15	-56.8		261	34	9.1
2025-10-29T12:00	28150	14	-56.8		262	34	9.1
2025-10-29T12:00	28200	14	-56.7		261	34	9.0
2025-10-29T12:00	28250	14	-56.1		259	35	
2025-10-29T12:00	28300	14	-55.7		257	35	
2025-10-29T12:00	28350	14	-55.6		255	37	
2025-10-29T12:00	28400	14	-55.7		254	38	
2025-10-29T12:00	28450	14	-55.8		253	38	
2025-10-29T12:00	28500	14	-55.5		253	38	
2025-10-29T12:00	28550	14	-55.6		254	37	
2025-10-29T12:00	28600	13	-56.0		254	37	
2025-10-29T12:00	28650	13	-56.4		254	36	
2025-10-29T12:00	28700	13	-56.8		256	36	
2025-10-29T12:00	28750	13	-57.2		259	35	
2025-10-29T12:00	28800	13	-57.5		261	35	
2025-10-29T12:00	28850	13	-57.7		260	35	
2025-10-29T12:00	28900	13	-57.5		258	35	
2025-10-29T12:00	28950	13	-57.3		255	36	
2025-10-29T12:00	29000	13	-56.9		255	38	
2025-10-29T12:00	29050	12	-56.2		256	39	
2025-10-29T12:00	29100	12	-55.5		257	39	
2025-10-29T12:00	29150	12	-55.3		259	39	
2025-10-29T12:00	29200	12	-55.2		261	40	
2025-10-29T12:00	29250	12	-55.0		262	40	
2025-10-29T12:00	29300	12	-54.6		262	40	
2025-10-29T12:00	29350	12	-54.3		262	39	
2025-10-29T12:00	29400	12	-54.5		263	37	
2025-10-29T12:00	29450	12	-54.4		263	36	
2025-10-29T12:00	29500	12	-54.2		264	35	
2025-10-29T12:00	29550	12	-54.2		264	35	
2025-10-29T12:00	29600	11	-54.2		264	36	
2025-10-29T12:00	29650	11	-54.0		263	37	
2025-10-29T12:00	29700	11	-53.9		262	38	
2025-10-29T12:00	29750	11	-53.3		261	40	
2025-10-29T12:00	29800	11	-52.8		261	42	
2025-10-29T12:00	29850	11	-52.6		261	44	
2025-10-29T12:00	29900	11	-52.3		261	44	
2025-10-29T12:00	29950	11	-52.2		262	45	
2025-10-29T12:00	30000	11	-52.0		264	46	
2025-10-29T12:00	30050	11	-51.8		265	46	
2025-10-29T12:00	30100	11	-51.5		265	45	
2025-10-29T12:00	30150	11	-51.2		266	44	
2025-10-29T12:00	30200	10	-51.1		268	43	
2025-10-29T12:00	30250	10	-50.9		269	42	
2025-10-29T12:00	30300	10	-50.7		270	42	
2025-10-29T12:00	30350	10	-50.8		271	42	
2025-10-29T12:00	30400	10	-50.7		270	41	
2025-10-29T12:00	30450	10	-50.6		270	40	
2025-10-29T12:00	30500	10	-50.5		268	39	
2025-10-29T12:00	30550	10	-50.5		266	39	
2025-10-29T12:00	30600	10	-50.5		264	38	
2025-10-29T12:00	30650	10	-50.5		262	38	
2025-10-29T12:00	30700	10	-50.3		261	38	
2025-10-29T12:00	30750	10	-50.1		261	39	
2025-10-29T12:00	30800	10	-49.9		261	39	
2025-10-29T12:00	30850	9	-49.6		261	40	
2025-10-29T12:00	30900	9	-49.5		260	41	
2025-10-29T12:00	30950	9	-49.3		258	42	
2025-10-29T12:00	31000	9	-49.0		257	42	
2025-10-29T12:00	31050	9	-48.8		256	42	
2025-10-29T12:00	31100	9	-48.8		256	42	
2025-10-29T12:00	31150	9	-48.8		256	43	
2025-10-29T12:00	31200	9	-48.8		256	45	
2025-10-29T12:00	31250	9	-48.8		257	46	
2025-10-29T12:00	31300	9	-48.7		257	46	
2025-10-29T12:00	31350	9	-48.8		257	46	
2025-10-29T12:00	31400	9	-48.8		255	46	
2025-10-29T12:00	31450	9	-48.3		253	47	
2025-10-29T12:00	31500	9	-48.1		253	47	
2025-10-29T12:00	31550	8	-48.0		252	47	
2025-10-29T12:00	31600	8	-48.2		252	47	
2025-10-29T12:00	31650	8	-48.3		253	46	
2025-10-29T12:00	31700	8	-48.3		255	45	
2025-10-29T12:00	31750	8	-48.4		257	44	
2025-10-29T12:00	31800	8	-48.5		259	44	
2025-10-29T12:00	31850	8	-48.7		260	43	
2025-10-29T12:00	31900	8	-48.6		260	42	
2025-10-29T12:00	31950	8	-48.6		260	41	
2025-10-29T12:00	32000	8	-48.9		259	40	
2025-10-29T12:00	32050	8	-49.0		259	41	
2025-10-29T12:00	32100	8	-48.8		258	42	
2025-10-29T12:00	32150	8	-48.8		257	42	
2025-10-29T12:00	32200	8	-48.6		257	42	
2025-10-29T12:00	32250	8	-48.3		256	42	
2025-10-29T12:00	32300	8	-48.2		256	41	
2025-10-29T12:00	32350	8	-48.0		257	42	
2025-10-29T12:00	32400	7	-47.8		256	42	
2025-10-29T12:00	32450	7	-47.9		256	44	
2025-10-29T12:00	32500	7	-47.9		256	45	
2025-10-29T12:00	32550	7	-47.9		255	46	
2025-10-29T12:00	32600	7	-48.2		255	47	
2025-10-29T12:00	32650	7	-48.5		255	48	
2025-10-29T12:00	32700	7	-48.8		255	49	
2025-10-29T12:00	32750	7	-49.1		256	50	
2025-10-29T12:00	32800	7	-49.4		257	51	
2025-10-29T12:00	32850	7	-49.6		258	52	
2025-10-29T12:00	32900	7	-49.7		258	52	
2025-10-29T12:00	32950	7	-49.8		259	52	
2025-10-29T12:00	33000	7	-50.0		259	51	
2025-10-29T12:00	33050	7	-50.3		258	51	
2025-10-29T12:00	33100	7	-50.1		259	51	
2025-10-30T00:00	491	950	9.0	8.7	260	1	
2025-10-30T00:00	501	949	9.1	8.8	239	1	
2025-10-30T00:00	520	947	9.2	8.8	238	2	
2025-10-30T00:00	540	945	9.4	8.6	240	2	
2025-10-30T00:00	560	943	9.4	8.6	242	3	
2025-10-30T00:00	580	940	9.5	8.5	243	4	
2025-10-30T00:00	600	938	9.7	8.4	243	5	
2025-10-30T00:00	620	936	9.7	8.3	243	5	
2025-10-30T00:00	640	933	9.5	8.3	241	6	
2025-10-30T00:00	660	931	9.4	8.2	238	6	
2025-10-30T00:00	680	929	9.3	8.2	236	6	
2025-10-30T00:00	700	927	9.1	8.1	233	7	
2025-10-30T00:00	720	924	9.0	8.0	230	7	
2025-10-30T00:00	740	922	8.8	8.0	227	7	
2025-10-30T00:00	760	920	8.7	7.8	224	7	
2025-10-30T00:00	780	918	8.7	7.6	220	7	
2025-10-30T00:00	800	916	8.8	7.5	217	7	
2025-10-30T00:00	820	913	8.8	7.3	214	7	
2025-10-30T00:00	840	911	8.9	7.1	212	7	
2025-10-30T00:00	860	909	8.9	6.9	209	8	
2025-10-30T00:00	880	907	8.9	6.7	207	9	
2025-10-30T00:00	900	905	8.9	6.5	205	9	
2025-10-30T00:00	920	903	8.8	6.4	203	10	
2025-10-30T00:00	940	900	8.8	6.2	202	11	
2025-10-30T00:00	960	898	8.9	5.9	200	12	
2025-10-30T00:00	980	896	9.1	5.5	199	13	
2025-10-30T00:00	1000	894	9.1	5.4	198	13	
2025-10-30T00:00	1020	892	9.1	5.0	198	14	
2025-10-30T00:00	1040	890	9.2	4.8	198	15	
2025-10-30T00:00	1060	888	9.2	4.7	198	15	
2025-10-30T00:00	1080	885	9.2	4.4	199	15	
2025-10-30T00:00	1100	883	9.1	4.4	199	15	
2025-10-30T00:00	1120	881	9.0	4.3	199	15	
2025-10-30T00:00	1140	879	8.9	4.2	200	15	
2025-10-30T00:00	1160	877	8.7	4.3	200	15	
2025-10-30T00:00	1180	875	8.5	4.2	200	15	
2025-10-30T00:00	1200	872	8.4	4.2	200	15	
2025-10-30T00:00	1220	870	8.2	4.1	201	15	
2025-10-30T00:00	1240	868	8.1	4.2	202	14	
2025-10-30T00:00	1260	866	7.9	4.1	203	14	
2025-10-30T00:00	1280	864	7.7	4.1	203	14	
2025-10-30T00:00	1300	862	7.6	4.1	204	13	
2025-10-30T00:00	1320	860	7.5	4.0	204	13	
2025-10-30T00:00	1340	858	7.3	4.4	203	12	
2025-10-30T00:00	1360	856	7.2	4.4	202	12	
2025-10-30T00:00	1380	854	7.0	4.2	201	13	
2025-10-30T00:00	1400	852	6.8	4.0	200	13	
2025-10-30T00:00	1420	850	6.7	3.8	199	13	
2025-10-30T00:00	1440	848	6.5	3.6	198	13	
2025-10-30T00:00	1460	846	6.4	3.7	198	13	
2025-10-30T00:00	1480	843	6.2	3.7	198	14	
2025-10-30T00:00	1500	841	6.1	3.8	198	14	
2025-10-30T00:00	1520	839	5.9	3.8	199	14	
2025-10-30T00:00	1540	837	5.7	3.9	200	14	
2025-10-30T00:00	1560	835	5.5	3.8	201	15	
2025-10-30T00:00	1580	833	5.4	3.7	203	15	
2025-10-30T00:00	1600	831	5.2	3.7	204	15	
2025-10-30T00:00	1620	829	5.1	3.7	205	16	
2025-10-30T00:00	1640	827	5.1	3.6	207	17	
2025-10-30T00:00	1660	825	4.9	3.5	208	17	
2025-10-30T00:00	1680	823	4.8	3.4	208	18	
2025-10-30T00:00	1700	821	4.7	3.3	209	18	
2025-10-30T00:00	1720	819	4.6	3.3	209	19	
2025-10-30T00:00	1740	817	4.4	3.2	210	19	
2025-10-30T00:00	1760	815	4.4	3.1	210	20	
2025-10-30T00:00	1780	813	4.3	3.0	210	20	
2025-10-30T00:00	1800	811	4.4	2.9	211	21	
2025-10-30T00:00	1820	809	4.3	2.9	212	21	
2025-10-30T00:00	1840	807	4.1	2.8	212	22	
2025-10-30T00:00	1860	805	4.1	2.8	213	22	
2025-10-30T00:00	1880	803	4.0	2.8	213	23	
2025-10-30T00:00	1900	801	4.0	2.8	214	23	
2025-10-30T00:00	1920	799	4.0	2.7	215	24	
2025-10-30T00:00	1940	797	3.8	2.7	215	24	
2025-10-30T00:00	1960	795	3.7	2.7	216	25	
2025-10-30T00:00	1980	793	3.6	2.7	216	25	
2025-10-30T00:00	2000	791	3.5	2.7	217	26	
2025-10-30T00:00	2020	789	3.4	2.7	218	26	
2025-10-30T00:00	2040	787	3.3	2.7	219	26	
2025-10-30T00:00	2060	786	3.4	2.7	220	26	
2025-10-30T00:00	2080	784	3.4	2.7	222	26	
2025-10-30T00:00	2100	782	3.3	2.6	223	26	
2025-10-30T00:00	2120	780	3.2	2.6	224	26	
2025-10-30T00:00	2140	778	3.1	2.3	224	26	
2025-10-30T00:00	2160	776	2.8	2.3	225	26	
2025-10-30T00:00	2180	774	2.7	2.2	225	26	
2025-10-30T00:00	2200	772	2.5	2.1	226	27	
2025-10-30T00:00	2220	770	2.4	2.0	226	27	
2025-10-30T00:00	2240	768	2.3	1.9	227	27	
2025-10-30T00:00	2260	766	2.1	1.8	227	27	
2025-10-30T00:00	2280	764	2.0	1.6	228	27	
2025-10-30T00:00	2300	763	1.9	1.5	228	27	
2025-10-30T00:00	2320	761	1.8	1.4	229	27	
2025-10-30T00:00	2340	759	1.6	1.2	230	27	
2025-10-30T00:00	2360	757	1.5	1.0	230	26	
2025-10-30T00:00	2380	755	1.4	0.7	229	26	
2025-10-30T00:00	2400	753	1.2	0.6	229	25	
2025-10-30T00:00	2420	751	1.0	0.5	228	25	
2025-10-30T00:00	2440	749	0.8	0.5	229	25	
2025-10-30T00:00	2460	748	0.6	0.4	229	26	
2025-10-30T00:00	2480	746	0.5	0.4	230	26	
2025-10-30T00:00	2500	744	0.3	0.3	231	26	
2025-10-30T00:00	2520	742	0.2	0.2	231	27	
2025-10-30T00:00	2540	740	0.1	0.1	231	26	
2025-10-30T00:00	2560	738	0.0	0.0	231	26	
2025-10-30T00:00	2580	737	0.0	0.0	233	26	
2025-10-30T00:00	2600	735	0.0	0.0	234	27	
2025-10-30T00:00	2620	733	0.4	0.0	236	27	
2025-10-30T00:00	2640	731	0.4	0.0	238	27	
2025-10-30T00:00	2660	729	0.4	0.0	239	27	
2025-10-30T00:00	2680	727	0.1	-0.1	240	26	
2025-10-30T00:00	2700	726	0.0	-0.1	241	26	
2025-10-30T00:00	2720	724	-0.1	-0.1	242	26	
2025-10-30T00:00	2740	722	-0.2	-0.2	244	26	
2025-10-30T00:00	2760	720	-0.2	-0.2	246	26	
2025-10-30T00:00	2780	718	-0.5	-0.5	248	26	
2025-10-30T00:00	2800	717	-0.5	-0.5	248	26	
2025-10-30T00:00	2820	715	-0.4	-0.4	248	26	
2025-10-30T00:00	2840	713	-0.4	-0.4	249	26	
2025-10-30T00:00	2860	711	-0.4	-0.4	249	26	
2025-10-30T00:00	2880	709	-0.5	-0.6	250	26	
2025-10-30T00:00	2900	708	-0.6	-1.0	250	26	
2025-10-30T00:00	2920	706	-0.8	-1.7	250	26	
2025-10-30T00:00	2940	704	-0.8	-1.8	251	25	
2025-10-30T00:00	2960	703	-1.0	-1.6	251	25	
2025-10-30T00:00	2980	701	-1.1	-1.4	251	25	
2025-10-30T00:00	3000	699	-1.3	-1.8	252	25	
2025-10-30T00:00	3020	697	-1.4	-2.7	253	25	
2025-10-30T00:00	3040	695	-1.5	-3.2	254	25	
2025-10-30T00:00	3060	694	-1.6	-3.3	255	25	
2025-10-30T00:00	3080	692	-1.7	-3.4	255	25	
2025-10-30T00:00	3100	690	-1.8	-3.7	256	25	
2025-10-30T00:00	3120	688	-1.9	-3.9	256	25	
2025-10-30T00:00	3140	687	-2.0	-3.9	256	26	
2025-10-30T00:00	3160	685	-2.1	-3.9	256	26	
2025-10-30T00:00	3180	683	-2.2	-3.9	256	26	
2025-10-30T00:00	3200	682	-2.3	-3.9	255	26	
2025-10-30T00:00	3220	680	-2.4	-3.9	255	26	
2025-10-30T00:00	3240	678	-2.6	-4.0	255	26	
2025-10-30T00:00	3260	677	-2.7	-4.1	255	26	
2025-10-30T00:00	3280	675	-2.9	-4.1	255	26	
2025-10-30T00:00	3300	673	-3.0	-4.2	256	26	
2025-10-30T00:00	3320	671	-3.1	-4.3	256	26	
2025-10-30T00:00	3340	670	-3.1	-4.6	256	25	
2025-10-30T00:00	3360	668	-3.3	-4.8	255	25	
2025-10-30T00:00	3380	666	-3.4	-4.8	255	25	
2025-10-30T00:00	3400	664	-3.5	-5.0	254	25	
2025-10-30T00:00	3420	663	-3.6	-5.0	253	25	
2025-10-30T00:00	3440	661	-3.7	-5.1	253	25	
2025-10-30T00:00	3460	660	-3.8	-5.1	253	25	
2025-10-30T00:00	3480	658	-4.0	-5.0	253	25	
2025-10-30T00:00	3500	656	-4.1	-5.0	253	25	
2025-10-30T00:00	3520	655	-4.2	-5.2	253	25	
2025-10-30T00:00	3540	653	-4.4	-5.3	253	25	
2025-10-30T00:00	3560	651	-4.5	-5.3	252	24	
2025-10-30T00:00	3580	650	-4.5	-5.6	251	24	
2025-10-30T00:00	3600	648	-4.7	-5.6	250	24	
2025-10-30T00:00	3620	646	-4.8	-5.6	250	24	
2025-10-30T00:00	3640	645	-5.0	-5.8	249	24	
2025-10-30T00:00	3660	643	-5.1	-5.7	249	25	
2025-10-30T00:00	3680	642	-5.3	-5.8	249	25	
2025-10-30T00:00	3700	640	-5.3	-6.0	249	25	
2025-10-30T00:00	3720	638	-5.4	-6.0	248	25	
2025-10-30T00:00	3740	637	-5.6	-6.0	248	25	
2025-10-30T00:00	3760	635	-5.7	-6.0	248	25	
2025-10-30T00:00	3780	633	-5.9	-6.1	248	25	
2025-10-30T00:00	3800	632	-6.0	-6.2	247	25	
2025-10-30T00:00	3820	630	-6.1	-6.3	247	25	
2025-10-30T00:00	3840	629	-6.2	-6.4	247	25	
2025-10-30T00:00	3860	627	-6.3	-6.5	247	25	
2025-10-30T00:00	3880	625	-6.4	-6.6	247	25	
2025-10-30T00:00	3900	624	-6.5	-6.8	247	25	
2025-10-30T00:00	3920	622	-6.6	-6.9	247	25	
2025-10-30T00:00	3940	621	-6.7	-7.0	247	25	
2025-10-30T00:00	3960	619	-6.8	-7.1	247	25	
2025-10-30T00:00	3980	617	-6.9	-7.2	247	25	
2025-10-30T00:00	4000	616	-7.0	-7.3	247	25	
2025-10-30T00:00	4020	614	-7.2	-7.4	247	24	
2025-10-30T00:00	4040	612	-7.3	-7.5	247	24	
2025-10-30T00:00	4060	611	-7.4	-7.6	247	24	
2025-10-30T00:00	4080	610	-7.5	-7.8	247	24	
2025-10-30T00:00	4100	608	-7.6	-7.9	247	23	
2025-10-30T00:00	4120	606	-7.7	-8.2	247	23	
2025-10-30T00:00	4140	605	-7.8	-8.3	247	23	
2025-10-30T00:00	4160	603	-7.9	-8.5	247	23	
2025-10-30T00:00	4180	602	-8.0	-8.6	246	23	
2025-10-30T00:00	4200	600	-8.1	-8.7	246	23	
2025-10-30T00:00	4220	598	-8.2	-8.8	246	23	
2025-10-30T00:00	4240	597	-8.4	-8.9	246	23	
2025-10-30T00:00	4260	595	-8.5	-9.0	246	23	
2025-10-30T00:00	4280	594	-8.6	-9.1	246	23	
2025-10-30T00:00	4300	592	-8.7	-9.2	246	23	
2025-10-30T00:00	4320	591	-8.8	-9.3	246	23	
2025-10-30T00:00	4340	589	-8.9	-9.4	246	23	
2025-10-30T00:00	4360	588	-9.0	-9.5	246	23	
2025-10-30T00:00	4380	586	-9.1	-9.6	245	23	
2025-10-30T00:00	4400	585	-9.2	-9.7	245	23	
2025-10-30T00:00	4420	583	-9.3	-9.8	244	23	
2025-10-30T00:00	4440	582	-9.4	-9.9	244	23	
2025-10-30T00:00	4460	580	-9.5	-10.0	244	23	
2025-10-30T00:00	4480	579	-9.7	-10.1	244	23	
2025-10-30T00:00	4500	577	-9.8	-10.3	243	24	
2025-10-30T00:00	4520	576	-9.9	-10.4	243	24	
2025-10-30T00:00	4540	574	-10.0	-10.6	243	25	
2025-10-30T00:00	4560	573	-10.1	-10.8	243	25	
2025-10-30T00:00	4580	571	-10.2	-10.8	243	25	
2025-10-30T00:00	4600	570	-10.3	-11.0	243	25	
2025-10-30T00:00	4620	568	-10.5	-11.1	242	24	
2025-10-30T00:00	4640	567	-10.6	-11.2	242	24	
2025-10-30T00:00	4660	565	-10.7	-11.3	241	24	
2025-10-30T00:00	4680	564	-10.8	-11.4	240	24	
2025-10-30T00:00	4700	563	-10.9	-11.5	239	24	
2025-10-30T00:00	4720	561	-11.0	-11.6	239	24	
2025-10-30T00:00	4740	560	-11.0	-11.7	239	24	
2025-10-30T00:00	4760	558	-11.1	-11.9	240	25	
2025-10-30T00:00	4780	557	-11.2	-12.1	240	25	
2025-10-30T00:00	4800	555	-11.3	-12.2	241	25	
2025-10-30T00:00	4820	554	-11.4	-12.3	241	25	
2025-10-30T00:00	4840	552	-11.5	-12.3	241	26	
2025-10-30T00:00	4860	551	-11.6	-12.5	241	26	
2025-10-30T00:00	4880	550	-11.7	-12.5	241	27	
2025-10-30T00:00	4900	548	-11.8	-12.6	241	27	
2025-10-30T00:00	4920	547	-11.9	-12.7	241	28	
2025-10-30T00:00	4940	545	-12.0	-12.9	241	28	
2025-10-30T00:00	4960	544	-12.1	-13.1	241	28	
2025-10-30T00:00	4980	542	-12.3	-13.2	241	28	
2025-10-30T00:00	5000	541	-12.4	-13.3	241	28	
2025-10-30T00:00	5020	539	-12.6	-13.5	241	28	
2025-10-30T00:00	5040	538	-12.7	-13.6	241	28	
2025-10-30T00:00	5060	537	-12.8	-13.8	241	29	
2025-10-30T00:00	5080	535	-12.9	-13.8	241	29	
2025-10-30T00:00	5100	534	-13.1	-14.1	241	29	
2025-10-30T00:00	5120	533	-13.2	-14.2	240	29	
2025-10-30T00:00	5140	531	-13.4	-14.4	240	29	
2025-10-30T00:00	5160	530	-13.5	-14.6	240	29	
2025-10-30T00:00	5180	528	-13.6	-14.7	240	28	
2025-10-30T00:00	5200	527	-13.7	-14.8	240	28	
2025-10-30T00:00	5220	526	-13.8	-15.0	240	28	
2025-10-30T00:00	5240	524	-14.0	-15.1	240	27	
2025-10-30T00:00	5260	523	-14.1	-15.2	239	27	
2025-10-30T00:00	5280	521	-14.3	-15.2	239	26	
2025-10-30T00:00	5300	520	-14.4	-15.3	238	26	
2025-10-30T00:00	5320	519	-14.6	-15.4	237	26	
2025-10-30T00:00	5340	517	-14.7	-15.6	236	26	
2025-10-30T00:00	5360	516	-14.7	-15.7	235	26	
2025-10-30T00:00	5380	515	-14.8	-15.9	235	27	
2025-10-30T00:00	5400	513	-15.0	-16.1	234	27	
2025-10-30T00:00	5420	512	-15.1	-16.3	234	28	
2025-10-30T00:00	5440	511	-15.3	-16.6	234	28	
2025-10-30T00:00	5460	509	-15.5	-16.7	234	28	
2025-10-30T00:00	5480	508	-15.6	-16.8	234	28	
2025-10-30T00:00	5500	506	-15.7	-16.8	233	28	
2025-10-30T00:00	5520	505	-15.8	-16.9	233	28	
2025-10-30T00:00	5540	504	-16.0	-17.0	232	28	
2025-10-30T00:00	5560	502	-16.1	-17.1	231	27	
2025-10-30T00:00	5580	501	-16.3	-17.4	231	27	
2025-10-30T00:00	5600	500	-16.4	-17.6	231	27	
2025-10-30T00:00	5620	499	-16.5	-17.6	231	27	
2025-10-30T00:00	5640	497	-16.7	-17.6	232	27	
2025-10-30T00:00	5660	496	-16.8	-17.9	232	27	
2025-10-30T00:00	5680	494	-17.0	-18.2	233	27	
2025-10-30T00:00	5700	493	-17.0	-18.1	233	28	
2025-10-30T00:00	5720	492	-17.2	-18.2	234	28	
2025-10-30T00:00	5740	491	-17.4	-18.5	234	28	
2025-10-30T00:00	5760	489	-17.5	-18.6	234	28	
2025-10-30T00:00	5780	488	-17.7	-18.8	234	28	
2025-10-30T00:00	5800	487	-17.8	-18.9	234	28	
2025-10-30T00:00	5820	485	-18.0	-19.1	234	28	
2025-10-30T00:00	5840	484	-18.1	-19.2	234	28	
2025-10-30T00:00	5860	483	-18.3	-19.4	234	28	
2025-10-30T00:00	5880	482	-18.4	-19.4	234	28	
2025-10-30T00:00	5900	480	-18.5	-19.4	234	28	
2025-10-30T00:00	5920	479	-18.6	-19.4	234	28	
2025-10-30T00:00	5940	478	-18.8	-19.6	234	29	
2025-10-30T00:00	5960	476	-19.0	-20.0	234	29	
2025-10-30T00:00	5980	475	-19.1	-20.1	234	29	
2025-10-30T00:00	6000	474	-19.2	-20.0	234	29	
2025-10-30T00:00	6020	472	-19.3	-20.1	234	29	
2025-10-30T00:00	6040	471	-19.4	-20.2	234	29	
2025-10-30T00:00	6060	470	-19.5	-20.3	234	29	
2025-10-30T00:00	6080	469	-19.6	-20.3	234	29	
2025-10-30T00:00	6100	467	-19.8	-20.5	233	29	
2025-10-30T00:00	6120	466	-19.9	-20.7	233	29	
2025-10-30T00:00	6140	465	-20.1	-20.8	233	29	
2025-10-30T00:00	6160	464	-20.2	-20.8	233	29	
2025-10-30T00:00	6180	463	-20.3	-21.0	233	29	
2025-10-30T00:00	6200	461	-20.5	-21.0	233	29	
2025-10-30T00:00	6220	460	-20.6	-21.3	233	29	
2025-10-30T00:00	6240	459	-20.8	-21.4	233	29	
2025-10-30T00:00	6260	457	-20.9	-21.5	233	28	
2025-10-30T00:00	6280	456	-21.1	-21.9	233	28	
2025-10-30T00:00	6300	455	-21.2	-21.9	233	28	
2025-10-30T00:00	6320	454	-21.4	-22.2	233	28	
2025-10-30T00:00	6340	453	-21.5	-22.2	233	28	
2025-10-30T00:00	6360	451	-21.7	-22.4	233	28	
2025-10-30T00:00	6380	450	-21.9	-22.7	233	28	
2025-10-30T00:00	6400	449	-22.1	-22.8	233	28	
2025-10-30T00:00	6420	448	-22.2	-23.2	233	28	
2025-10-30T00:00	6440	446	-22.3	-23.4	232	29	
2025-10-30T00:00	6460	445	-22.4	-23.6	232	29	
2025-10-30T00:00	6480	444	-22.5	-24.0	232	30	
2025-10-30T00:00	6500	443	-22.6	-24.4	233	30	
2025-10-30T00:00	6520	442	-22.8	-24.5	233	30	
2025-10-30T00:00	6540	440	-22.9	-24.6	233	30	
2025-10-30T00:00	6560	439	-23.0	-24.7	232	30	
2025-10-30T00:00	6580	438	-23.2	-25.0	232	30	
2025-10-30T00:00	6600	437	-23.3	-25.1	232	30	
2025-10-30T00:00	6620	436	-23.5	-25.1	232	31	
2025-10-30T00:00	6640	434	-23.6	-25.3	233	31	
2025-10-30T00:00	6660	433	-23.7	-25.5	233	31	
2025-10-30T00:00	6680	432	-23.9	-25.7	233	31	
2025-10-30T00:00	6700	431	-24.1	-25.8	233	31	
2025-10-30T00:00	6720	430	-24.2	-26.0	232	31	
2025-10-30T00:00	6740	429	-24.3	-26.1	232	31	
2025-10-30T00:00	6760	427	-24.5	-26.6	231	31	
2025-10-30T00:00	6780	426	-24.6	-27.1	231	31	
2025-10-30T00:00	6800	425	-24.8	-27.2	230	31	
2025-10-30T00:00	6820	424	-24.9	-27.3	230	31	
2025-10-30T00:00	6840	423	-25.1	-27.7	230	32	
2025-10-30T00:00	6860	421	-25.2	-27.7	229	32	
2025-10-30T00:00	6880	420	-25.3	-28.0	229	32	
2025-10-30T00:00	6900	419	-25.5	-28.2	229	33	
2025-10-30T00:00	6920	418	-25.6	-28.2	229	33	
2025-10-30T00:00	6940	417	-25.7	-28.5	229	33	
2025-10-30T00:00	6960	416	-25.9	-28.8	229	34	
2025-10-30T00:00	6980	415	-26.0	-28.8	228	34	
2025-10-30T00:00	7000	413	-26.2	-29.1	228	34	
2025-10-30T00:00	7020	412	-26.3	-29.5	227	34	
2025-10-30T00:00	7040	411	-26.5	-29.8	227	34	
2025-10-30T00:00	7060	410	-26.6	-29.9	227	34	
2025-10-30T00:00	7080	409	-26.8	-30.0	227	34	
2025-10-30T00:00	7100	408	-27.0	-30.3	227	34	
2025-10-30T00:00	7120	407	-27.1	-30.5	227	34	
2025-10-30T00:00	7140	406	-27.3	-30.8	227	34	
2025-10-30T00:00	7160	404	-27.4	-30.9	227	34	
2025-10-30T00:00	7180	403	-27.6	-31.0	226	34	
2025-10-30T00:00	7200	402	-27.7	-31.2	226	34	
2025-10-30T00:00	7220	401	-27.9	-31.3	226	34	
2025-10-30T00:00	7240	400	-28.0	-31.8	226	34	
2025-10-30T00:00	7260	399	-28.2	-32.1	226	34	
2025-10-30T00:00	7280	398	-28.4	-32.3	226	34	
2025-10-30T00:00	7300	397	-28.4	-32.4	227	34	
2025-10-30T00:00	7320	395	-28.5	-32.4	227	34	
2025-10-30T00:00	7340	394	-28.6	-32.7	227	34	
2025-10-30T00:00	7360	393	-28.8	-32.8	226	34	
2025-10-30T00:00	7380	392	-28.9	-32.8	226	34	
2025-10-30T00:00	7400	391	-29.0	-32.9	225	34	
2025-10-30T00:00	7420	390	-29.2	-33.0	225	34	
2025-10-30T00:00	7440	389	-29.3	-33.2	225	34	
2025-10-30T00:00	7460	388	-29.5	-33.2	225	34	
2025-10-30T00:00	7480	387	-29.6	-33.4	225	34	
2025-10-30T00:00	7500	385	-29.8	-33.5	225	34	
2025-10-30T00:00	7520	384	-30.0	-33.8	225	34	
2025-10-30T00:00	7540	383	-30.1	-34.2	224	34	
2025-10-30T00:00	7560	382	-30.3	-34.3	224	34	
2025-10-30T00:00	7580	381	-30.4	-34.5	223	34	
2025-10-30T00:00	7600	380	-30.6	-34.6	223	33	
2025-10-30T00:00	7620	379	-30.8	-34.7	223	33	
2025-10-30T00:00	7640	378	-31.0	-34.9	223	33	
2025-10-30T00:00	7660	377	-31.1	-35.0	223	33	
2025-10-30T00:00	7680	376	-31.3	-35.4	224	33	
2025-10-30T00:00	7700	375	-31.5	-35.5	225	34	
2025-10-30T00:00	7720	374	-31.7	-35.7	225	34	
2025-10-30T00:00	7740	373	-31.8	-36.0	225	34	
2025-10-30T00:00	7760	372	-32.0	-36.1	225	34	
2025-10-30T00:00	7780	371	-32.2	-36.1	226	34	
2025-10-30T00:00	7800	370	-32.3	-36.1	226	34	
2025-10-30T00:00	7820	369	-32.5	-36.4	226	34	
2025-10-30T00:00	7840	368	-32.6	-36.7	227	34	
2025-10-30T00:00	7860	367	-32.8	-37.4	227	35	
2025-10-30T00:00	7880	365	-33.0	-37.7	228	35	
2025-10-30T00:00	7900	364	-33.1	-37.7	228	35	
2025-10-30T00:00	7920	363	-33.3	-37.9	228	35	
2025-10-30T00:00	7940	362	-33.5	-38.0	228	35	
2025-10-30T00:00	7960	361	-33.7	-38.4	228	35	
2025-10-30T00:00	7980	360	-33.9	-38.4	229	35	
2025-10-30T00:00	8000	359	-34.0	-38.6	229	35	
2025-10-30T00:00	8020	358	-34.2	-38.6	229	35	
2025-10-30T00:00	8040	357	-34.4	-38.8	229	35	
2025-10-30T00:00	8060	356	-34.6	-39.1	229	36	
2025-10-30T00:00	8080	355	-34.7	-39.3	229	36	
2025-10-30T00:00	8100	354	-34.9	-39.5	229	36	
2025-10-30T00:00	8120	353	-35.1	-39.8	229	36	
2025-10-30T00:00	8140	352	-35.3	-39.9	229	36	
2025-10-30T00:00	8160	351	-35.5	-39.8	228	36	
2025-10-30T00:00	8180	350	-35.6	-39.8	228	36	
2025-10-30T00:00	8200	349	-35.8	-40.0	229	36	
2025-10-30T00:00	8220	348	-36.0	-40.2	229	37	
2025-10-30T00:00	8240	347	-36.2	-40.4	229	37	
2025-10-30T00:00	8260	346	-36.3	-40.9	229	37	
2025-10-30T00:00	8280	345	-36.5	-40.7	230	37	
2025-10-30T00:00	8300	344	-36.7	-41.1	230	37	
2025-10-30T00:00	8320	343	-36.9	-41.4	230	37	
2025-10-30T00:00	8340	342	-37.0	-42.0	231	37	
2025-10-30T00:00	8360	341	-37.2	-42.1	231	37	
2025-10-30T00:00	8380	340	-37.4	-42.2	231	37	
2025-10-30T00:00	8400	339	-37.5	-42.3	232	37	
2025-10-30T00:00	8420	338	-37.7	-42.4	232	37	
2025-10-30T00:00	8440	337	-37.9	-42.4	232	37	
2025-10-30T00:00	8460	336	-38.1	-42.5	232	37	
2025-10-30T00:00	8480	335	-38.2	-42.8	232	37	
2025-10-30T00:00	8500	334	-38.4	-43.1	232	37	
2025-10-30T00:00	8520	333	-38.6	-43.0	232	37	
2025-10-30T00:00	8540	332	-38.7	-43.2	233	37	
2025-10-30T00:00	8560	331	-38.9	-43.1	234	37	
2025-10-30T00:00	8580	330	-39.1	-43.6	235	37	
2025-10-30T00:00	8600	329	-39.2	-44.1	236	38	
2025-10-30T00:00	8620	329	-39.4	-44.2	236	38	
2025-10-30T00:00	8640	328	-39.5	-44.5	237	38	
2025-10-30T00:00	8660	327	-39.7	-44.7	237	38	
2025-10-30T00:00	8680	326	-39.8	-44.6	237	38	
2025-10-30T00:00	8700	325	-40.0	-44.6	236	38	
2025-10-30T00:00	8720	324	-40.2	-44.6	236	38	
2025-10-30T00:00	8740	323	-40.4	-44.7	236	38	
2025-10-30T00:00	8760	322	-40.5	-44.7	235	38	
2025-10-30T00:00	8780	321	-40.7	-44.7	235	38	
2025-10-30T00:00	8800	320	-40.9	-44.7	235	38	
2025-10-30T00:00	8820	319	-41.0	-44.8	235	39	
2025-10-30T00:00	8840	318	-41.2	-44.9	235	39	
2025-10-30T00:00	8860	317	-41.4	-44.8	234	39	
2025-10-30T00:00	8880	316	-41.6	-44.9	234	40	
2025-10-30T00:00	8900	315	-41.6	-45.3	234	40	
2025-10-30T00:00	8920	314	-41.8	-45.7	234	40	
2025-10-30T00:00	8940	313	-41.9	-45.8	234	40	
2025-10-30T00:00	8960	312	-42.1	-45.8	234	40	
2025-10-30T00:00	8980	312	-42.3	-45.9	234	40	
2025-10-30T00:00	9000	311	-42.5	-46.0	234	39	
2025-10-30T00:00	9020	310	-42.7	-46.2	235	39	
2025-10-30T00:00	9040	309	-42.9	-46.5	235	39	
2025-10-30T00:00	9060	308	-43.1	-46.7	235	39	
2025-10-30T00:00	9080	307	-43.3	-47.2	235	39	
2025-10-30T00:00	9100	306	-43.5	-47.4	235	40	
2025-10-30T00:00	9120	305	-43.7	-47.6	236	40	
2025-10-30T00:00	9140	304	-43.9	-48.0	236	40	
2025-10-30T00:00	9160	303	-44.0	-48.1	236	40	
2025-10-30T00:00	9180	303	-44.2	-48.2	236	40	
2025-10-30T00:00	9200	302	-44.4	-48.4	236	40	
2025-10-30T00:00	9220	301	-44.6	-48.5	236	40	
2025-10-30T00:00	9240	300	-44.8	-48.8	236	40	
2025-10-30T00:00	9260	299	-45.0	-48.9	236	40	
2025-10-30T00:00	9280	298	-45.2	-49.1	236	40	
2025-10-30T00:00	9300	297	-45.3	-49.3	236	39	
2025-10-30T00:00	9320	296	-45.5	-49.4	236	39	
2025-10-30T00:00	9340	295	-45.7	-49.5	236	39	
2025-10-30T00:00	9360	294	-45.9	-49.7	235	39	
2025-10-30T00:00	9380	294	-46.0	-49.8	235	40	
2025-10-30T00:00	9400	293	-46.2	-50.1	235	40	
2025-10-30T00:00	9420	292	-46.4	-50.4	235	40	
2025-10-30T00:00	9440	291	-46.5	-50.6	235	40	
2025-10-30T00:00	9460	290	-46.7	-50.9	234	40	
2025-10-30T00:00	9480	289	-46.9	-51.0	234	41	
2025-10-30T00:00	9500	288	-47.1	-51.3	234	41	
2025-10-30T00:00	9520	287	-47.2	-51.7	233	41	
2025-10-30T00:00	9540	287	-47.3	-51.9	233	41	
2025-10-30T00:00	9560	286	-47.5	-52.0	233	41	
2025-10-30T00:00	9580	285	-47.7	-52.1	232	41	
2025-10-30T00:00	9600	284	-47.8	-52.3	232	41	
2025-10-30T00:00	9620	283	-48.0	-52.6	232	41	
2025-10-30T00:00	9640	282	-48.2	-52.6	232	41	
2025-10-30T00:00	9660	281	-48.3	-52.7	232	41	
2025-10-30T00:00	9680	280	-48.5	-52.7	231	41	
2025-10-30T00:00	9700	280	-48.7	-52.7	231	41	
2025-10-30T00:00	9720	279	-48.9	-52.7	231	41	
2025-10-30T00:00	9740	278	-49.1	-52.8	231	41	
2025-10-30T00:00	9760	277	-49.2	-53.0	231	41	
2025-10-30T00:00	9780	276	-49.4	-53.2	230	41	
2025-10-30T00:00	9800	275	-49.6	-53.4	230	41	
2025-10-30T00:00	9820	275	-49.8	-53.7	230	41	
2025-10-30T00:00	9840	274	-49.9	-54.0	229	41	
2025-10-30T00:00	9860	273	-50.1	-54.3	229	41	
2025-10-30T00:00	9880	272	-50.3	-54.6	229	41	
2025-10-30T00:00	9900	271	-50.5	-54.7	228	41	
2025-10-30T00:00	9920	270	-50.7	-54.6	228	41	
2025-10-30T00:00	9940	270	-50.8	-54.7	228	41	
2025-10-30T00:00	9960	269	-51.0	-54.8	228	41	
2025-10-30T00:00	9980	268	-51.2	-55.0	227	41	
2025-10-30T00:00	10000	267	-51.4	-55.1	227	41	
2025-10-30T00:00	10018	266	-51.6	-55.3	227	41	
2025-10-30T00:00	10050	265	-51.9	-55.5	226	41	
2025-10-30T00:00	10100	263	-52.3	-55.7	226	41	
2025-10-30T00:00	10150	261	-52.7	-56.0	225	41	
2025-10-30T00:00	10200	259	-53.2	-56.1	226	41	
2025-10-30T00:00	10250	257	-53.7	-56.8	227	42	
2025-10-30T00:00	10300	255	-54.0	-57.6	227	42	
2025-10-30T00:00	10350	253	-54.4	-57.9	227	42	
2025-10-30T00:00	10400	251	-55.0	-58.6	227	42	
2025-10-30T00:00	10450	249	-55.4	-59.2	227	43	
2025-10-30T00:00	10500	247	-55.9	-59.8	227	43	
2025-10-30T00:00	10550	245	-56.4	-60.3	228	43	
2025-10-30T00:00	10600	243	-56.9	-60.8	228	44	
2025-10-30T00:00	10650	241	-57.3	-61.4	228	44	
2025-10-30T00:00	10700	239	-57.8	-61.8	228	43	
2025-10-30T00:00	10750	237	-58.3	-62.0	228	43	
2025-10-30T00:00	10800	236	-58.7	-62.4	228	42	
2025-10-30T00:00	10850	234	-59.2	-63.1	228	43	
2025-10-30T00:00	10900	232	-59.7	-63.7	228	43	
2025-10-30T00:00	10950	230	-60.1	-64.0	229	42	
2025-10-30T00:00	11000	228	-60.5	-64.2	231	42	
2025-10-30T00:00	11050	226	-60.6	-63.8	233	41	
2025-10-30T00:00	11100	225	-60.5	-63.4	235	39	
2025-10-30T00:00	11150	223	-60.5	-63.9	237	38	
2025-10-30T00:00	11200	221	-60.5	-64.7	239	37	
2025-10-30T00:00	11250	219	-60.6	-65.7	242	36	
2025-10-30T00:00	11300	218	-60.6	-66.6	243	34	
2025-10-30T00:00	11350	216	-60.6	-67.6	244	32	
2025-10-30T00:00	11400	214	-60.8	-68.0	244	31	
2025-10-30T00:00	11450	212	-60.8	-68.8	244	31	
2025-10-30T00:00	11500	211	-60.6	-69.7	244	32	
2025-10-30T00:00	11550	209	-60.6	-70.1	244	33	
2025-10-30T00:00	11600	207	-60.5	-70.0	242	33	
2025-10-30T00:00	11650	206	-60.5	-69.8	241	34	
2025-10-30T00:00	11700	204	-60.7	-70.4	241	34	
2025-10-30T00:00	11750	202	-60.2	-70.9	242	33	
2025-10-30T00:00	11800	201	-60.1	-71.2	245	31	
2025-10-30T00:00	11850	199	-60.0	-71.6	246	30	
2025-10-30T00:00	11900	197	-60.0	-71.7	246	29	
2025-10-30T00:00	11950	196	-60.4	-71.8	246	29	
2025-10-30T00:00	12000	194	-60.4	-72.1	245	29	
2025-10-30T00:00	12050	193	-60.5	-72.4	244	31	
2025-10-30T00:00	12100	191	-60.5	-73.0	244	33	
2025-10-30T00:00	12150	190	-60.1	-73.3	244	34	
2025-10-30T00:00	12200	188	-60.2	-73.7	246	33	
2025-10-30T00:00	12250	187	-59.9	-74.2	246	31	
2025-10-30T00:00	12300	185	-60.1	-74.3	246	31	
2025-10-30T00:00	12350	184	-60.1	-74.4	246	32	
2025-10-30T00:00	12400	182	-60.1	-74.6	247	33	
2025-10-30T00:00	12450	181	-60.2	-74.9	247	34	
2025-10-30T00:00	12500	179	-60.5	-75.2	248	36	
2025-10-30T00:00	12550	178	-60.3	-75.4	249	37	
2025-10-30T00:00	12600	176	-60.0	-76.2	248	36	
2025-10-30T00:00	12650	175	-59.4	-77.4	248	33	
2025-10-30T00:00	12700	174	-58.9	-77.9	248	30	
2025-10-30T00:00	12750	172	-58.5	-78.1	248	29	
2025-10-30T00:00	12800	171	-57.8	-78.2	248	28	
2025-10-30T00:00	12850	170	-57.8	-78.1	247	28	
2025-10-30T00:00	12900	168	-57.7	-78.4	244	27	
2025-10-30T00:00	12950	167	-57.9	-78.6	243	26	
2025-10-30T00:00	13000	166	-58.1	-78.7	242	24	
2025-10-30T00:00	13050	164	-58.2	-78.8	240	23	
2025-10-30T00:00	13100	163	-58.1	-78.9	237	22	
2025-10-30T00:00	13150	162	-57.8	-79.0	236	23	
2025-10-30T00:00	13200	160	-57.7	-79.2	235	23	
2025-10-30T00:00	13250	159	-57.8	-79.4	235	23	
2025-10-30T00:00	13300	158	-58.0	-79.7	235	24	
2025-10-30T00:00	13350	157	-58.0	-79.8	234	25	
2025-10-30T00:00	13400	155	-58.1	-79.7	232	26	
2025-10-30T00:00	13450	154	-58.3	-79.9	231	26	
2025-10-30T00:00	13500	153	-58.5	-80.2	232	27	
2025-10-30T00:00	13550	152	-58.4	-80.2	233	29	
2025-10-30T00:00	13600	150	-58.4	-80.4	234	29	
2025-10-30T00:00	13650	149	-58.4	-80.5	237	28	
2025-10-30T00:00	13700	148	-58.7	-80.5	239	27	
2025-10-30T00:00	13750	147	-59.0	-80.7	239	26	
2025-10-30T00:00	13800	146	-59.4	-80.9	240	25	
2025-10-30T00:00	13850	145	-59.2	-81.0	239	24	
2025-10-30T00:00	13900	144	-59.0	-80.9	237	24	
2025-10-30T00:00	13950	142	-59.3	-81.3	237	24	
2025-10-30T00:00	14000	141	-59.6	-81.1	238	24	
2025-10-30T00:00	14050	140	-59.5	-80.9	240	25	
2025-10-30T00:00	14100	139	-59.6	-81.0	245	26	
2025-10-30T00:00	14150	138	-59.6	-81.1	250	26	
2025-10-30T00:00	14200	137	-59.8	-81.4	254	25	
2025-10-30T00:00	14250	136	-60.1	-81.6	257	25	
2025-10-30T00:00	14300	135	-60.5	-82.0	258	25	
2025-10-30T00:00	14350	134	-60.6	-82.2	258	24	
2025-10-30T00:00	14400	132	-60.7	-82.2	257	24	
2025-10-30T00:00	14450	131	-61.1	-82.3	257	24	
2025-10-30T00:00	14500	130	-61.5	-82.4	257	24	
2025-10-30T00:00	14550	129	-61.8	-82.5	258	23	
2025-10-30T00:00	14600	128	-61.8	-82.7	258	23	
2025-10-30T00:00	14650	127	-61.7	-82.8	256	23	
2025-10-30T00:00	14700	126	-61.7	-82.7	258	23	
2025-10-30T00:00	14750	125	-61.6	-82.8	261	22	
2025-10-30T00:00	14800	124	-61.9	-83.0	259	23	
2025-10-30T00:00	14850	123	-62.0	-83.0	257	24	
2025-10-30T00:00	14900	122	-62.2	-83.1	255	24	
2025-10-30T00:00	14950	121	-62.4	-83.3	255	24	
2025-10-30T00:00	15000	120	-62.4	-83.5	255	24	
2025-10-30T00:00	15050	119	-62.5	-83.6	255	23	
2025-10-30T00:00	15100	118	-62.4	-83.7	254	24	
2025-10-30T00:00	15150	117	-61.9	-83.7	252	25	
2025-10-30T00:00	15200	116	-62.0	-83.9	249	26	
2025-10-30T00:00	15250	115	-61.7	-83.8	248	25	
2025-10-30T00:00	15300	115	-61.8	-83.7	249	25	
2025-10-30T00:00	15350	114	-62.1	-83.8	249	24	
2025-10-30T00:00	15400	113	-62.3	-84.1	249	23	
2025-10-30T00:00	15450	112	-61.9	-84.0	247	23	
2025-10-30T00:00	15500	111	-61.8	-84.1	247	24	
2025-10-30T00:00	15550	110	-61.4	-84.0	248	23	
2025-10-30T00:00	15600	109	-61.5	-84.1	246	22	
2025-10-30T00:00	15650	108	-61.5	-84.2	249	21	
2025-10-30T00:00	15700	107	-61.3	-84.2	250	21	
2025-10-30T00:00	15750	106	-61.2	-84.2	252	22	
2025-10-30T00:00	15800	106	-61.4	-84.2	254	22	
2025-10-30T00:00	15850	105	-61.6	-84.2	256	22	
2025-10-30T00:00	15900	104	-61.9	-84.3	256	22	
2025-10-30T00:00	15950	103	-62.2	-84.4	257	23	
2025-10-30T00:00	16000	102	-62.6	-84.3	257	23	
2025-10-30T00:00	16050	101	-62.9	-84.4	258	24	
2025-10-30T00:00	16100	101	-63.2	-84.6	260	23	
2025-10-30T00:00	16150	100	-63.1	-84.6	261	22	
2025-10-30T00:00	16200	99	-63.2	-84.6	261	21	
2025-10-30T00:00	16250	98	-63.6	-84.8	259	20	
2025-10-30T00:00	16300	97	-63.8	-84.8	255	20	
2025-10-30T00:00	16350	97	-63.9	-84.9	253	20	
2025-10-30T00:00	16400	96	-63.7	-85.1	253	20	
2025-10-30T00:00	16450	95	-62.9	-84.9	255	19	
2025-10-30T00:00	16500	94	-62.9	-85.1	259	19	
2025-10-30T00:00	16550	94	-62.8	-84.9	261	19	
2025-10-30T00:00	16600	93	-63.0	-84.9	262	18	
2025-10-30T00:00	16650	92	-63.1	-85.0	259	18	
2025-10-30T00:00	16700	91	-63.2	-85.2	256	18	
2025-10-30T00:00	16750	91	-63.3	-85.2	255	19	
2025-10-30T00:00	16800	90	-63.5	-85.3	254	19	
2025-10-30T00:00	16850	89	-63.8	-85.4	253	20	
2025-10-30T00:00	16900	88	-64.0	-85.5	253	20	
2025-10-30T00:00	16950	88	-64.1	-85.4	252	21	
2025-10-30T00:00	17000	87	-64.1	-85.4	252	21	
2025-10-30T00:00	17050	86	-64.2	-85.7	255	21	
2025-10-30T00:00	17100	85	-64.3	-85.8	257	21	
2025-10-30T00:00	17150	85	-64.0	-85.9	258	21	
2025-10-30T00:00	17200	84	-63.4	-85.9	258	20	
2025-10-30T00:00	17250	83	-63.0	-86.0	257	19	
2025-10-30T00:00	17300	83	-62.9	-86.0	255	18	
2025-10-30T00:00	17350	82	-63.0	-86.0	255	19	
2025-10-30T00:00	17400	81	-62.6	-86.0	255	20	
2025-10-30T00:00	17450	81	-61.8	-85.9	256	20	
2025-10-30T00:00	17500	80	-61.6	-85.8	259	20	
2025-10-30T00:00	17550	79	-61.2	-85.6	264	20	
2025-10-30T00:00	17600	79	-60.8	-85.6	271	20	
2025-10-30T00:00	17650	78	-60.4	-85.7	278	19	
2025-10-30T00:00	17700	78	-60.3	-85.7	282	19	
2025-10-30T00:00	17750	77	-60.1	-85.6	282	17	
2025-10-30T00:00	17800	76	-60.0	-85.5	281	16	
2025-10-30T00:00	17850	76	-60.3	-85.5	279	15	
2025-10-30T00:00	17900	75	-60.7	-85.6	277	15	
2025-10-30T00:00	17950	75	-61.0	-85.7	274	15	
2025-10-30T00:00	18000	74	-61.3	-85.8	268	14	
2025-10-30T00:00	18050	73	-61.6	-85.8	262	14	
2025-10-30T00:00	18100	73	-61.9	-86.0	256	14	
2025-10-30T00:00	18150	72	-62.2	-86.2	250	14	
2025-10-30T00:00	18200	72	-62.3	-86.1	251	14	
2025-10-30T00:00	18250	71	-62.4	-86.4	250	15	
2025-10-30T00:00	18300	70	-62.3	-86.6	245	16	
2025-10-30T00:00	18350	70	-62.0	-86.5	242	18	
2025-10-30T00:00	18400	69	-62.0	-86.5	240	20	
2025-10-30T00:00	18450	69	-61.9	-86.3	244	20	
2025-10-30T00:00	18500	68	-61.5	-86.0	250	19	
2025-10-30T00:00	18550	68	-61.2	-86.5	255	17	
2025-10-30T00:00	18600	67	-60.1	-86.5	260	17	
2025-10-30T00:00	18650	67	-59.4	-86.2	262	17	
2025-10-30T00:00	18700	66	-59.4	-86.0	263	17	
2025-10-30T00:00	18750	66	-59.5	-85.7	265	16	
2025-10-30T00:00	18800	65	-59.7	-85.2	267	16	
2025-10-30T00:00	18850	64	-60.1	-85.4	268	15	
2025-10-30T00:00	18900	64	-60.6	-86.0	269	15	
2025-10-30T00:00	18950	63	-61.1	-86.2	271	14	
2025-10-30T00:00	19000	63	-61.6	-86.3	273	14	
2025-10-30T00:00	19050	62	-62.0	-86.5	276	13	
2025-10-30T00:00	19100	62	-62.2	-86.7	280	12	
2025-10-30T00:00	19150	61	-62.5	-86.8	282	11	
2025-10-30T00:00	19200	61	-62.8	-86.8	283	10	
2025-10-30T00:00	19250	60	-62.9	-86.8	281	10	
2025-10-30T00:00	19300	60	-63.3	-86.9	277	10	
2025-10-30T00:00	19350	59	-63.6	-86.9	273	11	
2025-10-30T00:00	19400	59	-64.0	-86.8	268	11	
2025-10-30T00:00	19450	58	-63.9	-86.6	264	13	
2025-10-30T00:00	19500	58	-64.0	-86.6	262	15	
2025-10-30T00:00	19550	58	-63.9	-86.9	261	17	
2025-10-30T00:00	19600	57	-63.5	-87.3	265	17	
2025-10-30T00:00	19650	57	-63.0	-87.3	270	16	
2025-10-30T00:00	19700	56	-63.0	-87.2	273	15	
2025-10-30T00:00	19750	56	-63.2	-87.1	275	14	
2025-10-30T00:00	19800	55	-63.6	-87.2	275	14	
2025-10-30T00:00	19850	55	-63.8	-87.3	272	14	
2025-10-30T00:00	19900	54	-64.0	-87.4	269	15	
2025-10-30T00:00	19950	54	-64.1	-87.5	266	16	
2025-10-30T00:00	20000	53	-64.2	-87.6	265	16	
2025-10-30T00:00	20050	53	-64.3		264	16	
2025-10-30T00:00	20100	53	-64.5		264	15	
2025-10-30T00:00	20150	52	-64.7		263	14	
2025-10-30T00:00	20200	52	-64.9		262	14	
2025-10-30T00:00	20250	51	-65.1		261	14	
2025-10-30T00:00	20300	51	-65.5		263	14	
2025-10-30T00:00	20350	50	-65.6		267	15	
2025-10-30T00:00	20400	50	-65.5		270	17	
2025-10-30T00:00	20450	50	-65.3		272	18	
2025-10-30T00:00	20500	49	-65.2		275	20	
2025-10-30T00:00	20550	49	-64.6		279	20	
2025-10-30T00:00	20600	48	-64.2		282	19	
2025-10-30T00:00	20650	48	-64.4		281	17	
2025-10-30T00:00	20700	48	-64.7		275	14	
2025-10-30T00:00	20750	47	-64.6		264	14	
2025-10-30T00:00	20800	47	-64.1		259	14	
2025-10-30T00:00	20850	47	-64.0		256	15	
2025-10-30T00:00	20900	46	-63.7		255	15	
2025-10-30T00:00	20950	46	-63.6		255	17	
2025-10-30T00:00	21000	45	-63.3		255	18	
2025-10-30T00:00	21050	45	-62.6		256	19	
2025-10-30T00:00	21100	45	-62.7		257	20	
2025-10-30T00:00	21150	44	-62.7		258	20	
2025-10-30T00:00	21200	44	-62.6		259	20	
2025-10-30T00:00	21250	44	-62.5		261	19	
2025-10-30T00:00	21300	43	-62.6		262	19	
2025-10-30T00:00	21350	43	-62.4		261	18	
2025-10-30T00:00	21400	43	-62.1		260	18	
2025-10-30T00:00	21450	42	-61.9		258	19	
2025-10-30T00:00	21500	42	-62.0		254	19	
2025-10-30T00:00	21550	42	-61.8		250	19	
2025-10-30T00:00	21600	41	-61.5		250	19	
2025-10-30T00:00	21650	41	-61.5		253	18	
2025-10-30T00:00	21700	41	-61.3		255	18	
2025-10-30T00:00	21750	40	-61.4		257	18	
2025-10-30T00:00	21800	40	-61.6		258	18	
2025-10-30T00:00	21850	40	-61.7		259	17	
2025-10-30T00:00	21900	39	-61.7		260	17	
2025-10-30T00:00	21950	39	-61.8		261	16	
2025-10-30T00:00	22000	39	-61.9		264	15	
2025-10-30T00:00	22050	38	-62.0		268	15	
2025-10-30T00:00	22100	38	-62.2		269	15	
2025-10-30T00:00	22150	38	-62.2		266	14	
2025-10-30T00:00	22200	37	-62.3		260	14	
2025-10-30T00:00	22250	37	-62.2		257	14	
2025-10-30T00:00	22300	37	-62.3		255	14	
2025-10-30T00:00	22350	37	-62.6		256	14	
2025-10-30T00:00	22400	36	-62.7		259	16	
2025-10-30T00:00	22450	36	-62.8		261	17	
2025-10-30T00:00	22500	36	-62.6		265	17	
2025-10-30T00:00	22550	35	-62.2		267	17	
2025-10-30T00:00	22600	35	-61.8		269	17	
2025-10-30T00:00	22650	35	-61.9		271	17	
2025-10-30T00:00	22700	34	-61.7		272	17	
2025-10-30T00:00	22750	34	-61.1		273	18	
2025-10-30T00:00	22800	34	-61.4		273	19	
2025-10-30T00:00	22850	34	-61.7		273	21	
2025-10-30T00:00	22900	33	-61.6		274	23	
2025-10-30T00:00	22950	33	-61.4		275	24	
2025-10-30T00:00	23000	33	-61.5		277	25	
2025-10-30T00:00	23050	33	-61.7		279	25	
2025-10-30T00:00	23100	32	-61.5		280	24	
2025-10-30T00:00	23150	32	-61.6		281	23	
2025-10-30T00:00	23200	32	-61.9		283	22	
2025-10-30T00:00	23250	32	-62.3		284	22	
2025-10-30T00:00	23300	31	-62.6		283	21	
2025-10-30T00:00	23350	31	-62.8		280	21	
2025-10-30T00:00	23400	31	-62.8		278	21	
2025-10-30T00:00	23450	31	-62.8		278	21	
2025-10-30T00:00	23500	30	-62.8		277	20	
2025-10-30T00:00	23550	30	-62.8		275	19	
2025-10-30T00:00	23600	30	-62.5		274	18	
2025-10-30T00:00	23650	30	-62.5		274	17	
2025-10-30T00:00	23700	29	-62.7		275	16	
2025-10-30T00:00	23750	29	-63.0		277	16	
2025-10-30T00:00	23800	29	-63.3		274	16	
2025-10-30T00:00	23850	29	-63.2		269	17	
2025-10-30T00:00	23900	28	-63.2		266	18	
2025-10-30T00:00	23950	28	-63.1		264	19	
2025-10-30T00:00	24000	28	-62.8		264	20	
2025-10-30T00:00	24050	28	-62.8		266	20	
2025-10-30T00:00	24100	27	-62.9		268	21	
2025-10-30T00:00	24150	27	-63.0		270	21	
2025-10-30T12:00	491	957	13.5	9.4	60	2	
2025-10-30T12:00	501	955	13.1	9.0	30	1	
2025-10-30T12:00	520	953	12.8	8.6	26	1	
2025-10-30T12:00	540	951	12.4	8.1	29	2	
2025-10-30T12:00	560	949	12.1	7.9	33	2	
2025-10-30T12:00	580	947	11.9	8.0	36	2	
2025-10-30T12:00	600	944	11.9	8.1	39	2	
2025-10-30T12:00	620	942	11.6	8.1	41	3	
2025-10-30T12:00	640	940	11.4	7.9	42	3	
2025-10-30T12:00	660	938	11.2	7.9	43	2	
2025-10-30T12:00	680	935	11.0	8.1	44	2	
2025-10-30T12:00	700	933	10.8	8.1	44	2	
2025-10-30T12:00	720	931	10.7	7.8	46	2	
2025-10-30T12:00	740	929	10.5	7.8	48	2	
2025-10-30T12:00	760	927	10.4	7.7	51	1	
2025-10-30T12:00	780	925	10.2	7.6	56	1	
2025-10-30T12:00	800	922	10.0	7.7	61	1	
2025-10-30T12:00	820	920	9.8	7.6	65	1	
2025-10-30T12:00	840	918	9.6	7.5	68	1	
2025-10-30T12:00	860	915	9.4	7.5	70	1	
2025-10-30T12:00	880	913	9.2	7.4	69	1	
2025-10-30T12:00	900	911	9.0	7.4	65	1	
2025-10-30T12:00	920	909	8.9	7.3	59	1	
2025-10-30T12:00	940	907	8.8	7.2	48	1	
2025-10-30T12:00	960	905	8.7	7.1	36	1	
2025-10-30T12:00	980	903	8.4	7.2	17	0	
2025-10-30T12:00	1000	900	8.2	7.2	330	0	
2025-10-30T12:00	1020	898	8.0	7.0	275	0	
2025-10-30T12:00	1040	896	7.9	6.9	256	1	
2025-10-30T12:00	1060	893	7.8	6.6	250	1	
2025-10-30T12:00	1080	892	7.7	6.5	249	1	
2025-10-30T12:00	1100	889	7.6	6.3	250	1	
2025-10-30T12:00	1120	887	7.3	6.3	252	1	
2025-10-30T12:00	1140	885	7.1	6.4	254	1	
2025-10-30T12:00	1160	883	7.0	6.2	257	1	
2025-10-30T12:00	1180	881	6.8	6.3	263	1	
2025-10-30T12:00	1200	879	6.5	6.5	271	1	
2025-10-30T12:00	1220	876	6.4	6.4	284	1	
2025-10-30T12:00	1240	874	6.3	6.3	297	0	
2025-10-30T12:00	1260	872	6.2	6.2	310	0	
2025-10-30T12:00	1280	870	6.1	6.1	318	0	
2025-10-30T12:00	1300	868	6.0	6.0	160	0	
2025-10-30T12:00	1320	866	5.9	5.9	163	0	
2025-10-30T12:00	1340	864	5.8	5.8	167	1	
2025-10-30T12:00	1360	862	5.7	5.7	171	1	
2025-10-30T12:00	1380	860	5.5	5.5	176	2	
2025-10-30T12:00	1400	857	5.4	5.4	179	2	
2025-10-30T12:00	1420	855	5.5	5.4	182	3	
2025-10-30T12:00	1440	853	5.5	5.5	185	3	
2025-10-30T12:00	1460	851	5.5	4.9	187	3	
2025-10-30T12:00	1480	849	5.3	4.5	189	4	
2025-10-30T12:00	1500	847	5.6	5.2	191	4	
2025-10-30T12:00	1520	845	5.5	4.9	192	4	
2025-10-30T12:00	1540	843	5.5	4.8	193	4	
2025-10-30T12:00	1560	841	5.4	4.7	195	5	
2025-10-30T12:00	1580	839	5.3	4.6	196	5	
2025-10-30T12:00	1600	837	5.2	4.6	196	5	
2025-10-30T12:00	1620	835	5.0	4.4	196	5	
2025-10-30T12:00	1640	833	4.9	4.1	195	5	
2025-10-30T12:00	1660	831	4.8	4.0	194	5	
2025-10-30T12:00	1680	828	4.6	3.8	191	5	
2025-10-30T12:00	1700	827	4.6	3.5	189	5	
2025-10-30T12:00	1720	825	4.7	3.7	187	5	
2025-10-30T12:00	1740	823	4.7	4.1	184	5	
2025-10-30T12:00	1760	821	4.7	4.1	183	5	
2025-10-30T12:00	1780	819	4.6	4.0	184	5	
2025-10-30T12:00	1800	817	4.6	3.7	186	5	
2025-10-30T12:00	1820	814	4.5	3.4	190	5	
2025-10-30T12:00	1840	812	4.9	2.8	194	5	
2025-10-30T12:00	1860	810	5.2	2.5	199	5	
2025-10-30T12:00	1880	809	5.2	2.3	203	5	
2025-10-30T12:00	1900	807	5.1	2.1	206	5	
2025-10-30T12:00	1920	805	5.1	1.8	207	5	
2025-10-30T12:00	1940	803	5.0	1.5	208	5	
2025-10-30T12:00	1960	801	5.0	0.4	207	5	
2025-10-30T12:00	1980	799	5.2	-1.6	206	4	
2025-10-30T12:00	2000	797	5.2	-3.1	204	4	
2025-10-30T12:00	2020	795	5.2	-4.5	203	4	
2025-10-30T12:00	2040	793	5.2	-6.0	202	3	
2025-10-30T12:00	2060	791	5.1	-8.2	202	3	
2025-10-30T12:00	2080	789	5.1	-13.5	203	3	
2025-10-30T12:00	2100	787	5.0	-15.3	205	3	
2025-10-30T12:00	2120	785	4.9	-16.5	208	2	
2025-10-30T12:00	2140	783	4.7	-17.1	214	2	
2025-10-30T12:00	2160	781	4.6	-17.7	219	2	
2025-10-30T12:00	2180	779	4.4	-18.0	228	2	
2025-10-30T12:00	2200	777	4.3	-20.0	238	2	
2025-10-30T12:00	2220	775	4.1	-19.2	249	2	
2025-10-30T12:00	2240	773	4.0	-22.6	258	2	
2025-10-30T12:00	2260	772	4.0	-23.8	267	3	
2025-10-30T12:00	2280	770	3.8	-25.2	274	3	
2025-10-30T12:00	2300	768	3.8	-27.0	280	3	
2025-10-30T12:00	2320	766	3.7	-27.9	286	3	
2025-10-30T12:00	2340	764	3.6	-28.0	292	4	
2025-10-30T12:00	2360	762	3.5	-28.2	298	4	
2025-10-30T12:00	2380	760	3.3	-28.3	302	5	
2025-10-30T12:00	2400	758	3.3	-29.1	306	6	
2025-10-30T12:00	2420	757	3.2	-29.3	308	6	
2025-10-30T12:00	2440	755	3.0	-29.7	310	7	
2025-10-30T12:00	2460	753	3.0	-30.7	312	7	
2025-10-30T12:00	2480	751	2.9	-30.8	312	7	
2025-10-30T12:00	2500	749	2.9	-30.7	312	7	
2025-10-30T12:00	2520	747	2.7	-30.3	312	7	
2025-10-30T12:00	2540	745	2.6	-29.3	311	7	
2025-10-30T12:00	2560	744	2.5	-29.4	310	7	
2025-10-30T12:00	2580	742	2.3	-29.5	309	7	
2025-10-30T12:00	2600	740	2.2	-30.0	308	7	
2025-10-30T12:00	2620	738	2.1	-30.1	308	7	
2025-10-30T12:00	2640	736	2.0	-30.2	307	8	
2025-10-30T12:00	2660	734	1.9	-30.5	306	8	
2025-10-30T12:00	2680	733	1.9	-33.1	306	8	
2025-10-30T12:00	2700	731	2.0	-36.1	305	7	
2025-10-30T12:00	2720	729	1.9	-36.0	305	7	
2025-10-30T12:00	2740	727	1.8	-36.3	304	7	
2025-10-30T12:00	2760	725	1.7	-36.4	302	7	
2025-10-30T12:00	2780	724	1.6	-35.9	301	7	
2025-10-30T12:00	2800	722	1.4	-35.5	299	7	
2025-10-30T12:00	2820	720	1.2	-35.2	297	7	
2025-10-30T12:00	2840	718	1.0	-34.9	295	6	
2025-10-30T12:00	2860	716	1.0	-34.5	293	6	
2025-10-30T12:00	2880	714	1.0	-33.6	290	6	
2025-10-30T12:00	2900	713	0.9	-33.3	288	6	
2025-10-30T12:00	2920	711	0.8	-33.2	286	6	
2025-10-30T12:00	2940	709	0.6	-33.2	285	6	
2025-10-30T12:00	2960	707	0.4	-33.2	284	6	
2025-10-30T12:00	2980	706	0.2	-33.3	284	5	
2025-10-30T12:00	3000	704	0.1	-33.4	286	5	
2025-10-30T12:00	3020	702	-0.1	-33.6	287	5	
2025-10-30T12:00	3040	701	-0.2	-34.3	290	5	
2025-10-30T12:00	3060	699	-0.3	-35.3	292	6	
2025-10-30T12:00	3080	697	-0.3	-37.1	293	6	
2025-10-30T12:00	3100	695	-0.3	-37.5	294	6	
2025-10-30T12:00	3120	694	-0.4	-36.5	295	6	
2025-10-30T12:00	3140	692	-0.6	-35.6	295	5	
2025-10-30T12:00	3160	690	-0.8	-35.1	296	5	
2025-10-30T12:00	3180	688	-1.0	-34.5	297	5	
2025-10-30T12:00	3200	687	-1.1	-34.6	300	5	
2025-10-30T12:00	3220	685	-1.2	-35.5	302	5	
2025-10-30T12:00	3240	683	-1.4	-36.1	306	5	
2025-10-30T12:00	3260	681	-1.5	-36.3	310	5	
2025-10-30T12:00	3280	680	-1.7	-36.3	314	5	
2025-10-30T12:00	3300	678	-1.9	-36.5	316	5	
2025-10-30T12:00	3320	676	-2.1	-36.6	319	6	
2025-10-30T12:00	3340	675	-2.2	-36.4	320	6	
2025-10-30T12:00	3360	673	-2.3	-36.0	320	6	
2025-10-30T12:00	3380	671	-2.4	-35.0	318	6	
2025-10-30T12:00	3400	669	-2.5	-35.3	316	6	
2025-10-30T12:00	3420	668	-2.5	-35.9	314	6	
2025-10-30T12:00	3440	666	-2.5	-36.2	312	5	
2025-10-30T12:00	3460	664	-2.4	-36.9	309	5	
2025-10-30T12:00	3480	663	-2.3	-36.5	306	5	
2025-10-30T12:00	3500	661	-2.4	-35.9	303	5	
2025-10-30T12:00	3520	660	-2.5	-35.7	301	5	
2025-10-30T12:00	3540	658	-2.7	-36.0	299	5	
2025-10-30T12:00	3560	656	-2.8	-36.6	297	5	
2025-10-30T12:00	3580	654	-2.9	-36.5	295	5	
2025-10-30T12:00	3600	653	-3.1	-36.3	294	5	
2025-10-30T12:00	3620	651	-3.2	-36.1	293	5	
2025-10-30T12:00	3640	649	-3.4	-36.0	293	5	
2025-10-30T12:00	3660	648	-3.5	-36.1	293	5	
2025-10-30T12:00	3680	646	-3.7	-36.1	294	5	
2025-10-30T12:00	3700	645	-3.8	-36.1	295	5	
2025-10-30T12:00	3720	643	-3.9	-36.4	296	6	
2025-10-30T12:00	3740	641	-4.0	-37.1	297	6	
2025-10-30T12:00	3760	640	-4.0	-37.9	298	6	
2025-10-30T12:00	3780	638	-4.0	-38.0	298	7	
2025-10-30T12:00	3800	637	-4.1	-37.9	299	7	
2025-10-30T12:00	3820	635	-4.1	-38.1	299	7	
2025-10-30T12:00	3840	633	-4.2	-38.2	299	7	
2025-10-30T12:00	3860	632	-4.3	-37.8	299	7	
2025-10-30T12:00	3880	630	-4.4	-37.7	299	7	
2025-10-30T12:00	3900	628	-4.6	-37.8	299	7	
2025-10-30T12:00	3920	627	-4.8	-37.6	299	7	
2025-10-30T12:00	3940	625	-4.9	-37.5	300	8	
2025-10-30T12:00	3960	624	-5.0	-37.8	301	8	
2025-10-30T12:00	3980	622	-5.1	-38.6	302	8	
2025-10-30T12:00	4000	621	-5.3	-39.2	303	8	
2025-10-30T12:00	4020	619	-5.4	-39.3	305	9	
2025-10-30T12:00	4040	618	-5.5	-39.4	306	9	
2025-10-30T12:00	4060	616	-5.7	-39.4	308	9	
2025-10-30T12:00	4080	614	-5.8	-39.6	310	9	
2025-10-30T12:00	4100	612	-6.0	-39.8	311	9	
2025-10-30T12:00	4120	611	-6.0	-40.6	312	9	
2025-10-30T12:00	4140	609	-6.1	-41.0	312	9	
2025-10-30T12:00	4160	608	-6.2	-40.9	311	9	
2025-10-30T12:00	4180	606	-6.4	-40.9	309	9	
2025-10-30T12:00	4200	605	-6.5	-40.5	307	8	
2025-10-30T12:00	4220	603	-6.6	-40.4	305	8	
2025-10-30T12:00	4240	602	-6.7	-40.5	303	8	
2025-10-30T12:00	4260	600	-6.8	-40.7	302	8	
2025-10-30T12:00	4280	599	-7.0	-40.5	301	8	
2025-10-30T12:00	4300	597	-7.1	-39.8	301	9	
2025-10-30T12:00	4320	596	-7.2	-39.7	300	9	
2025-10-30T12:00	4340	594	-7.4	-39.6	300	9	
2025-10-30T12:00	4360	593	-7.5	-39.5	300	10	
2025-10-30T12:00	4380	591	-7.6	-39.6	300	10	
2025-10-30T12:00	4400	589	-7.7	-40.1	300	10	
2025-10-30T12:00	4420	588	-7.8	-40.1	300	10	
2025-10-30T12:00	4440	586	-8.0	-41.9	299	10	
2025-10-30T12:00	4460	585	-8.1	-42.8	299	10	
2025-10-30T12:00	4480	583	-8.3	-43.2	299	10	
2025-10-30T12:00	4500	582	-8.5	-43.6	299	10	
2025-10-30T12:00	4520	581	-8.7	-44.3	298	11	
2025-10-30T12:00	4540	579	-8.8	-45.3	298	10	
2025-10-30T12:00	4560	577	-9.0	-46.0	297	10	
2025-10-30T12:00	4580	576	-9.2	-46.6	296	11	
2025-10-30T12:00	4600	575	-9.3	-47.2	295	11	
2025-10-30T12:00	4620	573	-9.4	-47.5	295	11	
2025-10-30T12:00	4640	571	-9.5	-46.4	296	11	
2025-10-30T12:00	4660	570	-9.5	-43.3	296	11	
2025-10-30T12:00	4680	569	-9.7	-41.6	297	11	
2025-10-30T12:00	4700	567	-9.8	-44.2	298	11	
2025-10-30T12:00	4720	566	-9.9	-47.5	299	11	
2025-10-30T12:00	4740	564	-10.0	-48.8	300	11	
2025-10-30T12:00	4760	563	-10.1	-47.1	301	11	
2025-10-30T12:00	4780	561	-10.3	-45.4	301	11	
2025-10-30T12:00	4800	560	-10.4	-46.1	301	11	
2025-10-30T12:00	4820	558	-10.6	-45.4	300	11	
2025-10-30T12:00	4840	557	-10.7	-45.2	300	12	
2025-10-30T12:00	4860	555	-10.8	-45.0	299	12	
2025-10-30T12:00	4880	554	-10.9	-45.1	298	12	
2025-10-30T12:00	4900	553	-10.9	-46.3	298	12	
2025-10-30T12:00	4920	551	-11.0	-46.7	297	11	
2025-10-30T12:00	4940	550	-11.1	-47.7	296	11	
2025-10-30T12:00	4960	548	-11.2	-49.1	295	11	
2025-10-30T12:00	4980	547	-11.3	-50.2	295	11	
2025-10-30T12:00	5000	545	-11.3	-51.9	293	10	
2025-10-30T12:00	5020	544	-11.4	-52.1	293	10	
2025-10-30T12:00	5040	543	-11.4	-48.2	293	10	
2025-10-30T12:00	5060	541	-11.5	-44.6	293	10	
2025-10-30T12:00	5080	540	-11.6	-40.0	295	10	
2025-10-30T12:00	5100	538	-11.6	-34.5	297	9	
2025-10-30T12:00	5120	537	-11.7	-32.8	300	9	
2025-10-30T12:00	5140	535	-11.8	-32.6	302	9	
2025-10-30T12:00	5160	534	-12.0	-32.9	304	9	
2025-10-30T12:00	5180	533	-12.1	-31.9	306	9	
2025-10-30T12:00	5200	531	-12.0	-26.8	306	9	
2025-10-30T12:00	5220	530	-12.1	-25.7	306	9	
2025-10-30T12:00	5240	529	-12.0	-26.5	305	9	
2025-10-30T12:00	5260	527	-11.8	-27.3	304	9	
2025-10-30T12:00	5280	526	-11.8	-27.8	303	9	
2025-10-30T12:00	5300	524	-11.9	-28.0	301	9	
2025-10-30T12:00	5320	523	-12.0	-28.3	300	9	
2025-10-30T12:00	5340	522	-12.1	-28.7	299	9	
2025-10-30T12:00	5360	520	-12.2	-28.9	298	9	
2025-10-30T12:00	5380	519	-12.3	-28.9	298	9	
2025-10-30T12:00	5400	518	-12.4	-29.2	297	9	
2025-10-30T12:00	5420	516	-12.5	-29.6	297	9	
2025-10-30T12:00	5440	515	-12.7	-29.9	298	8	
2025-10-30T12:00	5460	514	-12.7	-30.2	298	8	
2025-10-30T12:00	5480	512	-12.8	-30.1	299	8	
2025-10-30T12:00	5500	511	-12.9	-30.1	300	8	
2025-10-30T12:00	5520	510	-13.0	-30.3	301	8	
2025-10-30T12:00	5540	508	-13.1	-30.7	302	9	
2025-10-30T12:00	5560	507	-13.3	-30.8	303	9	
2025-10-30T12:00	5580	505	-13.4	-31.0	304	9	
2025-10-30T12:00	5600	504	-13.5	-31.6	306	9	
2025-10-30T12:00	5620	503	-13.6	-32.1	307	9	
2025-10-30T12:00	5640	502	-13.7	-32.1	308	9	
2025-10-30T12:00	5660	500	-13.9	-32.0	308	9	
2025-10-30T12:00	5680	499	-14.0	-31.8	309	9	
2025-10-30T12:00	5700	498	-14.2	-31.8	309	9	
2025-10-30T12:00	5720	496	-14.4	-31.8	308	9	
2025-10-30T12:00	5740	495	-14.6	-31.7	308	9	
2025-10-30T12:00	5760	494	-14.8	-31.7	307	9	
2025-10-30T12:00	5780	492	-14.9	-31.9	306	9	
2025-10-30T12:00	5800	491	-15.0	-32.3	306	9	
2025-10-30T12:00	5820	490	-15.1	-32.7	306	9	
2025-10-30T12:00	5840	488	-15.1	-33.4	307	9	
2025-10-30T12:00	5860	487	-15.2	-33.5	307	9	
2025-10-30T12:00	5880	486	-15.4	-33.4	307	10	
2025-10-30T12:00	5900	484	-15.6	-33.5	307	10	
2025-10-30T12:00	5920	483	-15.7	-33.9	307	10	
2025-10-30T12:00	5940	482	-15.7	-34.7	307	10	
2025-10-30T12:00	5960	481	-15.8	-35.1	307	10	
2025-10-30T12:00	5980	480	-15.9	-35.4	307	10	
2025-10-30T12:00	6000	478	-16.1	-35.8	307	10	
2025-10-30T12:00	6020	477	-16.2	-35.8	308	10	
2025-10-30T12:00	6040	476	-16.4	-35.8	308	10	
2025-10-30T12:00	6060	474	-16.5	-36.0	308	10	
2025-10-30T12:00	6080	473	-16.7	-36.0	308	10	
2025-10-30T12:00	6100	472	-16.9	-36.2	308	11	
2025-10-30T12:00	6120	470	-17.0	-36.5	308	11	
2025-10-30T12:00	6140	469	-17.1	-36.9	307	11	
2025-10-30T12:00	6160	468	-17.2	-37.2	307	11	
2025-10-30T12:00	6180	467	-17.4	-37.4	307	11	
2025-10-30T12:00	6200	466	-17.5	-37.6	307	11	
2025-10-30T12:00	6220	464	-17.6	-37.9	306	11	
2025-10-30T12:00	6240	463	-17.7	-38.6	306	11	
2025-10-30T12:00	6260	462	-17.8	-39.2	306	11	
2025-10-30T12:00	6280	461	-17.9	-39.7	305	11	
2025-10-30T12:00	6300	459	-18.1	-39.5	305	11	
2025-10-30T12:00	6320	458	-18.3	-39.5	305	11	
2025-10-30T12:00	6340	457	-18.4	-39.9	306	11	
2025-10-30T12:00	6360	456	-18.5	-40.9	306	11	
2025-10-30T12:00	6380	454	-18.6	-41.5	307	11	
2025-10-30T12:00	6400	453	-18.7	-41.3	308	11	
2025-10-30T12:00	6420	452	-18.8	-41.2	308	11	
2025-10-30T12:00	6440	451	-19.0	-41.2	309	11	
2025-10-30T12:00	6460	450	-19.2	-41.2	309	11	
2025-10-30T12:00	6480	449	-19.3	-41.1	309	11	
2025-10-30T12:00	6500	447	-19.5	-41.2	309	11	
2025-10-30T12:00	6520	446	-19.7	-41.6	308	10	
2025-10-30T12:00	6540	445	-19.9	-41.7	307	10	
2025-10-30T12:00	6560	444	-20.0	-41.8	306	10	
2025-10-30T12:00	6580	443	-20.2	-41.8	306	10	
2025-10-30T12:00	6600	441	-20.4	-41.9	306	10	
2025-10-30T12:00	6620	440	-20.6	-42.0	305	10	
2025-10-30T12:00	6640	439	-20.8	-42.2	305	10	
2025-10-30T12:00	6660	438	-21.0	-42.2	304	10	
2025-10-30T12:00	6680	437	-21.1	-42.3	304	10	
2025-10-30T12:00	6700	435	-21.3	-42.3	303	10	
2025-10-30T12:00	6720	434	-21.5	-42.4	302	10	
2025-10-30T12:00	6740	433	-21.7	-42.4	301	10	
2025-10-30T12:00	6760	432	-21.9	-42.5	301	11	
2025-10-30T12:00	6780	431	-22.1	-42.5	301	11	
2025-10-30T12:00	6800	429	-22.3	-42.6	301	11	
2025-10-30T12:00	6820	428	-22.5	-42.7	302	11	
2025-10-30T12:00	6840	427	-22.7	-42.9	303	11	
2025-10-30T12:00	6860	426	-22.9	-42.9	304	11	
2025-10-30T12:00	6880	425	-23.1	-43.0	305	11	
2025-10-30T12:00	6900	424	-23.2	-43.2	307	10	
2025-10-30T12:00	6920	423	-23.4	-43.3	308	10	
2025-10-30T12:00	6940	421	-23.5	-43.9	308	10	
2025-10-30T12:00	6960	420	-23.7	-44.5	309	10	
2025-10-30T12:00	6980	419	-23.8	-45.1	309	10	
2025-10-30T12:00	7000	418	-23.9	-45.5	308	10	
2025-10-30T12:00	7020	417	-24.1	-45.5	307	10	
2025-10-30T12:00	7040	416	-24.3	-45.6	307	10	
2025-10-30T12:00	7060	414	-24.4	-45.8	307	10	
2025-10-30T12:00	7080	413	-24.6	-45.9	307	10	
2025-10-30T12:00	7100	412	-24.8	-46.1	308	10	
2025-10-30T12:00	7120	411	-24.9	-46.2	310	11	
2025-10-30T12:00	7140	410	-25.1	-46.5	311	11	
2025-10-30T12:00	7160	409	-25.3	-46.7	312	11	
2025-10-30T12:00	7180	408	-25.5	-46.8	313	11	
2025-10-30T12:00	7200	407	-25.6	-47.2	314	11	
2025-10-30T12:00	7220	405	-25.8	-47.3	315	11	
2025-10-30T12:00	7240	404	-26.0	-47.3	316	12	
2025-10-30T12:00	7260	403	-26.1	-47.5	317	12	
2025-10-30T12:00	7280	402	-26.3	-47.5	317	12	
2025-10-30T12:00	7300	401	-26.4	-47.3	316	12	
2025-10-30T12:00	7320	400	-26.6	-47.1	316	12	
2025-10-30T12:00	7340	399	-26.8	-47.0	315	12	
2025-10-30T12:00	7360	398	-27.0	-47.2	315	12	
2025-10-30T12:00	7380	396	-27.2	-47.2	314	13	
2025-10-30T12:00	7400	395	-27.4	-47.2	314	13	
2025-10-30T12:00	7420	394	-27.5	-47.0	314	13	
2025-10-30T12:00	7440	393	-27.7	-47.2	315	13	
2025-10-30T12:00	7460	392	-27.9	-47.5	315	13	
2025-10-30T12:00	7480	391	-28.1	-47.6	316	13	
2025-10-30T12:00	7500	390	-28.3	-47.6	317	13	
2025-10-30T12:00	7520	389	-28.5	-47.6	317	13	
2025-10-30T12:00	7540	388	-28.7	-47.7	316	13	
2025-10-30T12:00	7560	387	-28.8	-47.8	315	12	
2025-10-30T12:00	7580	386	-29.0	-47.7	314	12	
2025-10-30T12:00	7600	385	-29.2	-47.3	313	12	
2025-10-30T12:00	7620	383	-29.3	-47.6	312	12	
2025-10-30T12:00	7640	382	-29.4	-48.1	312	12	
2025-10-30T12:00	7660	381	-29.5	-48.4	312	12	
2025-10-30T12:00	7680	380	-29.7	-48.7	311	12	
2025-10-30T12:00	7700	379	-29.9	-48.6	311	11	
2025-10-30T12:00	7720	378	-30.0	-48.6	311	11	
2025-10-30T12:00	7740	377	-30.2	-48.7	311	11	
2025-10-30T12:00	7760	376	-30.4	-48.8	311	11	
2025-10-30T12:00	7780	375	-30.6	-48.8	311	11	
2025-10-30T12:00	7800	374	-30.8	-49.1	311	11	
2025-10-30T12:00	7820	373	-31.0	-49.3	311	11	
2025-10-30T12:00	7840	372	-31.1	-49.8	311	11	
2025-10-30T12:00	7860	371	-31.3	-49.6	312	11	
2025-10-30T12:00	7880	370	-31.5	-49.1	312	11	
2025-10-30T12:00	7900	369	-31.7	-48.8	312	11	
2025-10-30T12:00	7920	368	-31.9	-48.3	312	11	
2025-10-30T12:00	7940	366	-32.1	-48.4	312	11	
2025-10-30T12:00	7960	365	-32.2	-48.7	312	11	
2025-10-30T12:00	7980	365	-32.4	-48.9	312	11	
2025-10-30T12:00	8000	364	-32.5	-49.0	312	11	
2025-10-30T12:00	8020	362	-32.7	-49.3	312	11	
2025-10-30T12:00	8040	361	-32.8	-49.3	312	11	
2025-10-30T12:00	8060	360	-33.0	-50.3	312	11	
2025-10-30T12:00	8080	359	-33.1	-50.8	312	11	
2025-10-30T12:00	8100	358	-33.3	-51.2	312	11	
2025-10-30T12:00	8120	357	-33.5	-52.0	312	11	
2025-10-30T12:00	8140	356	-33.6	-52.5	312	12	
2025-10-30T12:00	8160	355	-33.8	-52.1	311	12	
2025-10-30T12:00	8180	354	-34.0	-51.7	311	12	
2025-10-30T12:00	8200	353	-34.2	-50.9	311	12	
2025-10-30T12:00	8220	352	-34.3	-50.8	311	12	
2025-10-30T12:00	8240	351	-34.5	-51.3	311	12	
2025-10-30T12:00	8260	350	-34.7	-52.0	311	12	
2025-10-30T12:00	8280	349	-34.8	-52.2	312	12	
2025-10-30T12:00	8300	348	-35.0	-52.5	312	12	
2025-10-30T12:00	8320	347	-35.2	-52.4	313	12	
2025-10-30T12:00	8340	346	-35.4	-52.3	314	12	
2025-10-30T12:00	8360	345	-35.6	-52.6	315	12	
2025-10-30T12:00	8380	344	-35.7	-53.0	315	13	
2025-10-30T12:00	8400	343	-35.9	-53.2	317	13	
2025-10-30T12:00	8420	342	-36.1	-53.3	318	13	
2025-10-30T12:00	8440	341	-36.3	-53.1	319	13	
2025-10-30T12:00	8460	340	-36.4	-53.2	321	13	
2025-10-30T12:00	8480	339	-36.7	-53.1	322	13	
2025-10-30T12:00	8500	338	-36.9	-53.3	322	13	
2025-10-30T12:00	8520	337	-37.0	-53.3	322	13	
2025-10-30T12:00	8540	336	-37.2	-53.3	322	13	
2025-10-30T12:00	8560	336	-37.4	-53.4	322	13	
2025-10-30T12:00	8580	335	-37.6	-53.4	322	13	
2025-10-30T12:00	8600	333	-37.8	-53.5	322	13	
2025-10-30T12:00	8620	332	-38.0	-53.6	323	13	
2025-10-30T12:00	8640	332	-38.2	-53.8	323	13	
2025-10-30T12:00	8660	331	-38.4	-53.8	324	13	
2025-10-30T12:00	8680	330	-38.6	-54.0	324	13	
2025-10-30T12:00	8700	329	-38.8	-54.2	324	13	
2025-10-30T12:00	8720	328	-39.0	-54.2	324	14	
2025-10-30T12:00	8740	327	-39.2	-54.4	324	14	
2025-10-30T12:00	8760	326	-39.4	-54.5	324	13	
2025-10-30T12:00	8780	325	-39.5	-54.5	324	13	
2025-10-30T12:00	8800	324	-39.7	-54.4	325	13	
2025-10-30T12:00	8820	323	-39.9	-54.6	325	13	
2025-10-30T12:00	8840	322	-40.1	-55.0	326	13	
2025-10-30T12:00	8860	321	-40.3	-55.4	327	13	
2025-10-30T12:00	8880	320	-40.4	-55.0	328	13	
2025-10-30T12:00	8900	319	-40.6	-55.2	329	13	
2025-10-30T12:00	8920	318	-40.8	-55.9	330	13	
2025-10-30T12:00	8940	317	-41.0	-56.0	331	13	
2025-10-30T12:00	8960	316	-41.2	-55.6	332	13	
2025-10-30T12:00	8980	315	-41.4	-55.7	332	13	
2025-10-30T12:00	9000	315	-41.5	-56.0	333	13	
2025-10-30T12:00	9020	314	-41.7	-56.4	333	13	
2025-10-30T12:00	9040	313	-41.9	-57.6	333	13	
2025-10-30T12:00	9060	312	-42.1	-58.2	333	14	
2025-10-30T12:00	9080	311	-42.3	-58.1	333	14	
2025-10-30T12:00	9100	310	-42.5	-58.4	334	14	
2025-10-30T12:00	9120	309	-42.6	-58.6	334	14	
2025-10-30T12:00	9140	308	-42.8	-58.6	334	14	
2025-10-30T12:00	9160	307	-43.0	-58.5	334	14	
2025-10-30T12:00	9180	306	-43.2	-58.5	335	14	
2025-10-30T12:00	9200	305	-43.3	-58.7	335	14	
2025-10-30T12:00	9220	304	-43.5	-58.8	336	14	
2025-10-30T12:00	9240	304	-43.6	-58.8	336	14	
2025-10-30T12:00	9260	303	-43.8	-58.6	336	14	
2025-10-30T12:00	9280	302	-44.0	-58.2	336	14	
2025-10-30T12:00	9300	301	-44.3	-58.2	336	14	
2025-10-30T12:00	9320	300	-44.4	-59.0	335	14	
2025-10-30T12:00	9340	299	-44.6	-59.2	335	14	
2025-10-30T12:00	9360	298	-44.7	-58.8	335	14	
2025-10-30T12:00	9380	297	-44.9	-58.9	335	14	
2025-10-30T12:00	9400	296	-45.1	-59.6	335	14	
2025-10-30T12:00	9420	295	-45.3	-60.5	335	14	
2025-10-30T12:00	9440	295	-45.5	-60.0	336	14	
2025-10-30T12:00	9460	294	-45.6	-59.3	337	14	
2025-10-30T12:00	9480	293	-45.9	-58.9	337	14	
2025-10-30T12:00	9500	292	-46.0	-59.1	337	14	
2025-10-30T12:00	9520	291	-46.2	-60.2	337	14	
2025-10-30T12:00	9540	290	-46.3	-60.2	337	14	
2025-10-30T12:00	9560	289	-46.5	-59.2	336	14	
2025-10-30T12:00	9580	289	-46.7	-58.5	336	15	
2025-10-30T12:00	9600	288	-46.9	-58.7	336	15	
2025-10-30T12:00	9620	287	-47.1	-58.9	336	15	
2025-10-30T12:00	9640	286	-47.2	-58.9	336	15	
2025-10-30T12:00	9660	285	-47.4	-60.8	336	15	
2025-10-30T12:00	9680	284	-47.5	-63.2	336	15	
2025-10-30T12:00	9700	283	-47.6	-62.9	336	15	
2025-10-30T12:00	9720	282	-47.8	-62.5	336	16	
2025-10-30T12:00	9740	282	-48.0	-62.3	337	16	
2025-10-30T12:00	9760	281	-48.2	-62.3	337	16	
2025-10-30T12:00	9780	280	-48.4	-62.6	337	16	
2025-10-30T12:00	9800	279	-48.5	-63.4	337	16	
2025-10-30T12:00	9820	278	-48.7	-63.8	337	16	
2025-10-30T12:00	9840	277	-48.8	-64.0	337	16	
2025-10-30T12:00	9860	276	-49.0	-64.3	337	16	
2025-10-30T12:00	9880	276	-49.1	-64.5	337	16	
2025-10-30T12:00	9900	275	-49.3	-64.5	336	16	
2025-10-30T12:00	9920	274	-49.5	-64.5	336	16	
2025-10-30T12:00	9940	273	-49.8	-64.6	336	15	
2025-10-30T12:00	9960	272	-50.0	-64.7	336	15	
2025-10-30T12:00	9980	271	-50.2	-65.1	337	15	
2025-10-30T12:00	10000	271	-50.3	-65.5	337	15	
2025-10-30T12:00	10018	270	-50.5	-65.7	337	16	
2025-10-30T12:00	10050	269	-50.7	-66.3	338	16	
2025-10-30T12:00	10100	267	-51.1	-66.6	340	16	
2025-10-30T12:00	10150	264	-51.6	-66.7	343	16	
2025-10-30T12:00	10200	262	-52.0	-67.1	345	17	
2025-10-30T12:00	10250	260	-52.4	-66.8	345	17	
2025-10-30T12:00	10300	258	-52.8	-67.6	343	17	
2025-10-30T12:00	10350	256	-53.0	-69.3	342	17	
2025-10-30T12:00	10400	254	-53.2	-69.5	342	17	
2025-10-30T12:00	10450	252	-53.7	-69.0	342	17	
2025-10-30T12:00	10500	250	-54.2	-68.8	342	16	
2025-10-30T12:00	10550	248	-54.6	-68.7	342	16	
2025-10-30T12:00	10600	247	-55.1	-68.7	341	15	
2025-10-30T12:00	10650	245	-55.5	-68.6	340	14	
2025-10-30T12:00	10700	243	-55.9	-68.7	341	13	
2025-10-30T12:00	10750	241	-56.4	-68.6	342	13	
2025-10-30T12:00	10800	239	-56.8	-68.6	342	12	
2025-10-30T12:00	10850	237	-57.3	-68.8	339	11	
2025-10-30T12:00	10900	235	-57.7	-68.6	335	11	
2025-10-30T12:00	10950	233	-58.2	-68.5	331	10	
2025-10-30T12:00	11000	232	-58.7	-68.4	328	11	
2025-10-30T12:00	11050	230	-59.1	-68.3	326	11	
2025-10-30T12:00	11100	228	-59.6	-68.2	324	11	
2025-10-30T12:00	11150	226	-60.0	-68.1	321	11	
2025-10-30T12:00	11200	224	-60.4	-68.2	319	11	
2025-10-30T12:00	11250	222	-60.9	-68.1	319	11	
2025-10-30T12:00	11300	221	-61.3	-68.1	317	11	
2025-10-30T12:00	11350	219	-61.7	-68.3	315	12	
2025-10-30T12:00	11400	217	-62.2	-68.3	314	12	
2025-10-30T12:00	11450	215	-62.6	-68.2	313	12	
2025-10-30T12:00	11500	214	-63.1	-68.2	312	12	
2025-10-30T12:00	11550	212	-63.6	-68.2	310	12	
2025-10-30T12:00	11600	210	-64.1	-68.1	309	12	
2025-10-30T12:00	11650	208	-64.5	-68.1	307	12	
2025-10-30T12:00	11700	207	-65.0	-68.1	307	13	
2025-10-30T12:00	11750	205	-65.4	-68.3	307	14	
2025-10-30T12:00	11800	203	-65.7	-68.6	305	15	
2025-10-30T12:00	11850	202	-66.0	-68.9	302	15	
2025-10-30T12:00	11900	200	-66.3	-69.3	300	16	
2025-10-30T12:00	11950	198	-66.6	-70.1	300	16	
2025-10-30T12:00	12000	197	-66.9	-71.3	300	17	
2025-10-30T12:00	12050	195	-67.2	-71.8	300	17	
2025-10-30T12:00	12100	194	-67.5	-72.0	300	18	
2025-10-30T12:00	12150	192	-67.8	-72.9	301	19	
2025-10-30T12:00	12200	190	-67.6	-73.1	301	21	
2025-10-30T12:00	12250	189	-66.7	-72.8	303	23	
2025-10-30T12:00	12300	187	-66.5	-73.9	305	23	
2025-10-30T12:00	12350	186	-66.4	-75.2	306	22	
2025-10-30T12:00	12400	184	-65.9	-76.7	308	19	
2025-10-30T12:00	12450	183	-64.7	-77.2	308	16	
2025-10-30T12:00	12500	181	-64.7	-78.7	308	13	
2025-10-30T12:00	12550	180	-64.9	-79.3	307	10	
2025-10-30T12:00	12600	178	-64.7	-79.2	305	9	
2025-10-30T12:00	12650	177	-64.8	-79.4	297	7	
2025-10-30T12:00	12700	175	-65.0	-79.4	282	6	
2025-10-30T12:00	12750	174	-65.0	-78.8	264	5	
2025-10-30T12:00	12800	172	-65.5	-78.9	244	5	
2025-10-30T12:00	12850	171	-65.9	-78.8	230	6	
2025-10-30T12:00	12900	170	-66.3	-78.6	224	6	
2025-10-30T12:00	12950	168	-66.7	-78.5	228	7	
2025-10-30T12:00	13000	167	-67.1	-78.4	243	7	
2025-10-30T12:00	13050	166	-67.2	-78.7	254	8	
2025-10-30T12:00	13100	164	-67.3	-78.7	259	9	
2025-10-30T12:00	13150	163	-67.4	-78.9	261	11	
2025-10-30T12:00	13200	161	-66.8	-79.1	262	13	
2025-10-30T12:00	13250	160	-66.0	-79.2	264	15	
2025-10-30T12:00	13300	159	-65.8	-79.6	267	16	
2025-10-30T12:00	13350	157	-66.0	-80.1	268	17	
2025-10-30T12:00	13400	156	-66.1	-80.6	270	18	
2025-10-30T12:00	13450	155	-65.8	-81.4	270	19	
2025-10-30T12:00	13500	154	-64.7	-82.0	268	18	
2025-10-30T12:00	13550	152	-63.9	-82.7	264	18	
2025-10-30T12:00	13600	151	-63.7	-83.5	256	17	
2025-10-30T12:00	13650	150	-62.9	-83.4	249	17	
2025-10-30T12:00	13700	149	-62.9	-83.5	244	18	
2025-10-30T12:00	13750	147	-63.2	-83.3	242	18	
2025-10-30T12:00	13800	146	-63.7	-83.2	239	19	
2025-10-30T12:00	13850	145	-64.1	-83.0	238	20	
2025-10-30T12:00	13900	144	-64.6	-82.8	238	21	
2025-10-30T12:00	13950	143	-65.0	-82.9	241	21	
2025-10-30T12:00	14000	142	-64.7	-83.1	244	22	
2025-10-30T12:00	14050	140	-63.9	-83.2	246	21	
2025-10-30T12:00	14100	139	-64.1	-83.4	249	21	
2025-10-30T12:00	14150	138	-64.3	-83.5	252	22	
2025-10-30T12:00	14200	137	-64.2	-83.6	255	23	
2025-10-30T12:00	14250	136	-63.8	-83.7	258	24	
2025-10-30T12:00	14300	135	-63.2	-83.8	261	25	
2025-10-30T12:00	14350	134	-62.3	-83.8	264	24	
2025-10-30T12:00	14400	133	-62.0	-84.0	267	24	
2025-10-30T12:00	14450	132	-61.7	-83.9	270	23	
2025-10-30T12:00	14500	131	-61.7	-83.9	272	22	
2025-10-30T12:00	14550	129	-61.5	-84.0	272	20	
2025-10-30T12:00	14600	128	-60.9	-83.8	271	19	
2025-10-30T12:00	14650	127	-60.6	-83.6	269	18	
2025-10-30T12:00	14700	126	-60.8	-83.7	265	17	
2025-10-30T12:00	14750	125	-60.7	-83.7	259	17	
2025-10-30T12:00	14800	124	-60.5	-83.7	255	17	
2025-10-30T12:00	14850	123	-60.2	-83.5	252	18	
2025-10-30T12:00	14900	122	-60.6	-83.6	251	18	
2025-10-30T12:00	14950	121	-61.1	-83.7	250	19	
2025-10-30T12:00	15000	120	-61.4	-83.7	250	19	
2025-10-30T12:00	15050	119	-61.8	-83.7	250	19	
2025-10-30T12:00	15100	118	-62.3	-83.8	252	20	
2025-10-30T12:00	15150	117	-62.6	-84.1	255	20	
2025-10-30T12:00	15200	117	-62.1	-84.1	261	20	
2025-10-30T12:00	15250	116	-61.9	-84.2	264	20	
2025-10-30T12:00	15300	115	-61.9	-84.2	267	20	
2025-10-30T12:00	15350	114	-61.9	-84.5	267	19	
2025-10-30T12:00	15400	113	-61.1	-84.3	264	18	
2025-10-30T12:00	15450	112	-61.1	-84.3	260	18	
2025-10-30T12:00	15500	111	-61.3	-84.3	257	19	
2025-10-30T12:00	15550	110	-61.6	-84.4	255	20	
2025-10-30T12:00	15600	109	-61.7	-84.4	256	21	
2025-10-30T12:00	15650	108	-61.6	-84.4	259	21	
2025-10-30T12:00	15700	107	-61.6	-84.5	261	22	
2025-10-30T12:00	15750	107	-61.4	-84.5	263	22	
2025-10-30T12:00	15800	106	-61.4	-84.5	264	22	
2025-10-30T12:00	15850	105	-61.4	-84.5	264	21	
2025-10-30T12:00	15900	104	-61.4	-84.4	262	20	
2025-10-30T12:00	15950	103	-61.6	-84.5	261	20	
2025-10-30T12:00	16000	102	-62.0	-84.7	259	20	
2025-10-30T12:00	16050	102	-62.2	-84.6	258	20	
2025-10-30T12:00	16100	101	-62.4	-84.7	258	21	
2025-10-30T12:00	16150	100	-62.6	-84.7	259	21	
2025-10-30T12:00	16200	99	-62.9	-84.8	260	22	
2025-10-30T12:00	16250	98	-63.1	-85.0	262	22	
2025-10-30T12:00	16300	98	-63.0	-85.0	264	21	
2025-10-30T12:00	16350	97	-62.8	-85.2	266	20	
2025-10-30T12:00	16400	96	-62.7	-85.3	266	18	
2025-10-30T12:00	16450	95	-62.7	-85.4	264	17	
2025-10-30T12:00	16500	94	-62.8	-85.5	260	15	
2025-10-30T12:00	16550	94	-62.8	-85.7	254	14	
2025-10-30T12:00	16600	93	-62.4	-85.8	249	14	
2025-10-30T12:00	16650	92	-61.7	-85.7	245	15	
2025-10-30T12:00	16700	91	-61.9	-85.8	244	16	
2025-10-30T12:00	16750	91	-62.1	-85.8	245	16	
2025-10-30T12:00	16800	90	-61.9	-85.6	246	17	
2025-10-30T12:00	16850	89	-62.0	-85.6	247	17	
2025-10-30T12:00	16900	89	-62.4	-85.7	251	18	
2025-10-30T12:00	16950	88	-62.4	-85.8	255	18	
2025-10-30T12:00	17000	87	-61.9	-85.7	258	18	
2025-10-30T12:00	17050	86	-61.9	-85.8	259	18	
2025-10-30T12:00	17100	86	-62.1	-85.8	259	18	
2025-10-30T12:00	17150	85	-62.4	-85.9	258	18	
2025-10-30T12:00	17200	84	-62.4	-85.8	258	18	
2025-10-30T12:00	17250	84	-62.7	-85.9	260	17	
2025-10-30T12:00	17300	83	-62.9	-86.1	263	16	
2025-10-30T12:00	17350	82	-62.9	-86.1	264	14	
2025-10-30T12:00	17400	82	-62.8	-86.2	262	12	
2025-10-30T12:00	17450	81	-62.9	-86.2	257	11	
2025-10-30T12:00	17500	80	-63.2	-86.2	251	11	
2025-10-30T12:00	17550	80	-63.3	-86.2	244	10	
2025-10-30T12:00	17600	79	-63.5	-86.5	239	10	
2025-10-30T12:00	17650	78	-63.3	-86.5	238	10	
2025-10-30T12:00	17700	78	-63.2	-86.5	242	11	
2025-10-30T12:00	17750	77	-63.6	-86.6	249	12	
2025-10-30T12:00	17800	76	-63.7	-86.7	254	13	
2025-10-30T12:00	17850	76	-63.7	-86.8	257	14	
2025-10-30T12:00	17900	75	-63.4	-86.8	259	14	
2025-10-30T12:00	17950	75	-63.2	-86.8	260	14	
2025-10-30T12:00	18000	74	-63.1	-86.8	262	13	
2025-10-30T12:00	18050	73	-63.0	-86.7	262	12	
2025-10-30T12:00	18100	73	-63.2	-86.8	260	11	
2025-10-30T12:00	18150	72	-63.1	-86.7	258	11	
2025-10-30T12:00	18200	72	-63.2	-86.8	259	12	
2025-10-30T12:00	18250	71	-63.4	-86.9	261	14	
2025-10-30T12:00	18300	71	-63.3	-87.1	262	16	
2025-10-30T12:00	18350	70	-62.5	-87.0	264	16	
2025-10-30T12:00	18400	69	-61.9	-86.8	267	16	
2025-10-30T12:00	18450	69	-62.3	-87.0	272	15	
2025-10-30T12:00	18500	68	-62.3	-87.0	275	14	
2025-10-30T12:00	18550	68	-61.8	-86.9	275	14	
2025-10-30T12:00	18600	67	-61.4	-86.9	271	13	
2025-10-30T12:00	18650	67	-61.1	-86.8	265	14	
2025-10-30T12:00	18700	66	-61.2	-86.7	261	15	
2025-10-30T12:00	18750	66	-61.5	-86.7	260	15	
2025-10-30T12:00	18800	65	-61.7	-86.7	258	16	
2025-10-30T12:00	18850	65	-62.0	-86.8	258	17	
2025-10-30T12:00	18900	64	-62.3	-87.0	258	18	
2025-10-30T12:00	18950	63	-61.8	-86.9	261	19	
2025-10-30T12:00	19000	63	-61.6	-87.0	264	20	
2025-10-30T12:00	19050	62	-61.5	-87.0	265	20	
2025-10-30T12:00	19100	62	-61.5	-87.1	266	20	
2025-10-30T12:00	19150	61	-61.3	-87.0	267	19	
2025-10-30T12:00	19200	61	-61.1	-86.9	268	18	
2025-10-30T12:00	19250	60	-61.0	-86.9	268	16	
2025-10-30T12:00	19300	60	-60.9	-86.9	267	16	
2025-10-30T12:00	19350	60	-60.8	-86.9	265	16	
2025-10-30T12:00	19400	59	-60.4	-86.7	262	16	
2025-10-30T12:00	19450	59	-60.5	-86.7	259	16	
2025-10-30T12:00	19500	58	-60.6	-86.5	256	16	
2025-10-30T12:00	19550	58	-60.9	-86.7	254	16	
2025-10-30T12:00	19600	57	-61.1	-86.8	257	16	
2025-10-30T12:00	19650	57	-60.9	-86.6	263	16	
2025-10-30T12:00	19700	56	-61.0	-86.7	269	16	
2025-10-30T12:00	19750	56	-61.2	-86.9	272	16	
2025-10-30T12:00	19800	55	-61.1	-86.9	274	15	
2025-10-30T12:00	19850	55	-61.0	-86.8	275	14	
2025-10-30T12:00	19900	54	-61.2	-86.8	276	14	
2025-10-30T12:00	19950	54	-61.3	-86.8	275	15	
2025-10-30T12:00	20000	54	-61.5	-86.8	274	16	
2025-10-30T12:00	20050	53	-61.7		273	17	
2025-10-30T12:00	20100	53	-61.7		271	17	
2025-10-30T12:00	20150	52	-61.7		269	16	
2025-10-30T12:00	20200	52	-61.8		265	15	
2025-10-30T12:00	20250	51	-62.0		262	14	
2025-10-30T12:00	20300	51	-62.3		259	13	
2025-10-30T12:00	20350	51	-62.5		256	13	
2025-10-30T12:00	20400	50	-62.9		253	14	
2025-10-30T12:00	20450	50	-63.1		252	14	
2025-10-30T12:00	20500	49	-63.2		252	15	
2025-10-30T12:00	20550	49	-63.4		253	16	
2025-10-30T12:00	20600	49	-63.3		256	17	
2025-10-30T12:00	20650	48	-63.3		259	18	
2025-10-30T12:00	20700	48	-63.4		261	19	
2025-10-30T12:00	20750	47	-63.4		261	19	
2025-10-30T12:00	20800	47	-63.4		261	20	
2025-10-30T12:00	20850	47	-63.6		261	19	
2025-10-30T12:00	20900	46	-63.6		261	19	
2025-10-30T12:00	20950	46	-63.8		261	18	
2025-10-30T12:00	21000	46	-63.9		263	17	
2025-10-30T12:00	21050	45	-63.9		265	17	
2025-10-30T12:00	21100	45	-63.6		266	17	
2025-10-30T12:00	21150	44	-63.5		267	17	
2025-10-30T12:00	21200	44	-63.4		268	17	
2025-10-30T12:00	21250	44	-63.4		268	17	
2025-10-30T12:00	21300	43	-63.4		271	17	
2025-10-30T12:00	21350	43	-63.1		273	17	
2025-10-30T12:00	21400	43	-63.2		273	16	
2025-10-30T12:00	21450	42	-63.0		272	15	
2025-10-30T12:00	21500	42	-62.7		272	15	
2025-10-30T12:00	21550	42	-62.6		272	15	
2025-10-30T12:00	21600	41	-62.6		269	14	
2025-10-30T12:00	21650	41	-62.5		266	13	
2025-10-30T12:00	21700	41	-62.7		263	13	
2025-10-30T12:00	21750	40	-62.8		261	14	
2025-10-30T12:00	21800	40	-62.7		259	14	
2025-10-30T12:00	21850	40	-62.9		256	14	
2025-10-30T12:00	21900	39	-63.0		253	14	
2025-10-30T12:00	21950	39	-62.9		250	14	
2025-10-30T12:00	22000	39	-62.9		249	14	
2025-10-30T12:00	22050	38	-62.9		248	14	
2025-10-30T12:00	22100	38	-62.9		248	15	
2025-10-30T12:00	22150	38	-63.3		248	15	
2025-10-30T12:00	22200	37	-63.4		249	15	
2025-10-30T12:00	22250	37	-63.5		251	16	
2025-10-30T12:00	22300	37	-63.7		253	16	
2025-10-30T12:00	22350	37	-63.7		254	16	
2025-10-30T12:00	22400	36	-63.8		254	16	
2025-10-30T12:00	22450	36	-63.8		255	16	
2025-10-30T12:00	22500	36	-63.8		256	17	
2025-10-30T12:00	22550	35	-63.7		258	17	
2025-10-30T12:00	22600	35	-63.7		260	18	
2025-10-30T12:00	22650	35	-63.7		260	20	
2025-10-30T12:00	22700	35	-63.9		259	21	
2025-10-30T12:00	22750	34	-64.1		259	21	
2025-10-30T12:00	22800	34	-64.0		260	21	
2025-10-30T12:00	22850	34	-63.7		263	20	
2025-10-30T12:00	22900	33	-63.6		265	19	
2025-10-30T12:00	22950	33	-63.5		268	19	
2025-10-30T12:00	23000	33	-63.5		270	19	
2025-10-30T12:00	23050	33	-63.4		270	18	
2025-10-30T12:00	23100	32	-63.3		269	18	
2025-10-30T12:00	23150	32	-63.5		267	18	
2025-10-30T12:00	23200	32	-63.5		263	18	
2025-10-30T12:00	23250	32	-63.3		260	19	
2025-10-30T12:00	23300	31	-62.8		259	19	
2025-10-30T12:00	23350	31	-62.7		259	18	
2025-10-30T12:00	23400	31	-62.7		260	18	
2025-10-30T12:00	23450	31	-62.7		259	19	
2025-10-30T12:00	23500	30	-62.7		259	19	
2025-10-30T12:00	23550	30	-62.7		259	20	
2025-10-30T12:00	23600	30	-62.5		261	20	
2025-10-30T12:00	23650	30	-62.3		263	21	
2025-10-30T12:00	23700	29	-62.6		264	21	
2025-10-30T12:00	23750	29	-62.8		261	20	
2025-10-30T12:00	23800	29	-62.8		257	20	
2025-10-30T12:00	23850	29	-62.9		252	20	
2025-10-30T12:00	23900	28	-62.8		249	20	
2025-10-30T12:00	23950	28	-62.6		249	20	
2025-10-30T12:00	24000	28	-62.6		251	21	
2025-10-30T12:00	24050	28	-62.5		253	21	
2025-10-30T12:00	24100	28	-62.6		255	22	
2025-10-30T12:00	24150	27	-62.6		257	22	
2025-10-30T12:00	24200	27	-62.4		258	22	
2025-10-30T12:00	24250	27	-62.5		257	22	
2025-10-30T12:00	24300	27	-62.5		256	22	
2025-10-30T12:00	24350	26	-62.8		256	21	
2025-10-30T12:00	24400	26	-62.8		256	21	
2025-10-30T12:00	24450	26	-63.1		257	21	
2025-10-30T12:00	24500	26	-63.2		257	22	
2025-10-30T12:00	24550	26	-63.3		256	23	
2025-10-30T12:00	24600	25	-63.6		255	24	
2025-10-30T12:00	24650	25	-63.7		255	25	
2025-10-30T12:00	24700	25	-63.8		256	25	
2025-10-30T12:00	24750	25	-63.5		257	24	
2025-10-30T12:00	24800	25	-63.4		259	23	
2025-10-30T12:00	24850	24	-63.4		260	22	
2025-10-30T12:00	24900	24	-62.7		261	23	
2025-10-30T12:00	24950	24	-62.3		260	25	
2025-10-30T12:00	25000	24	-62.1		258	27	
2025-10-30T12:00	25050	24	-61.9		258	27	
2025-10-30T12:00	25100	23	-61.5		259	27	
2025-10-30T12:00	25150	23	-61.6		260	26	
2025-10-30T12:00	25200	23	-61.7		259	25	
2025-10-30T12:00	25250	23	-61.8		259	26	
2025-10-30T12:00	25300	23	-61.6		260	27	
2025-10-30T12:00	25350	22	-61.6		261	28	
2025-10-30T12:00	25400	22	-61.3		263	29	
2025-10-30T12:00	25450	22	-61.2		265	29	
2025-10-30T12:00	25500	22	-61.3		266	29	
2025-10-30T12:00	25550	22	-61.6		267	28	
2025-10-30T12:00	25600	22	-61.9		268	27	
2025-10-30T12:00	25650	21	-61.8		269	27	
2025-10-30T12:00	25700	21	-61.5		270	28	
2025-10-30T12:00	25750	21	-61.4		270	28	
2025-10-30T12:00	25800	21	-61.6		270	28	
2025-10-30T12:00	25850	21	-61.8		269	28	
2025-10-30T12:00	25900	21	-61.8		267	29	
2025-10-30T12:00	25950	20	-61.6		264	29	
2025-10-30T12:00	26000	20	-61.3		261	30	
2025-10-30T12:00	26050	20	-61.3		259	31	
2025-10-30T12:00	26100	20	-61.4		258	32	
2025-10-30T12:00	26150	20	-61.5		258	32	
2025-10-30T12:00	26200	20	-61.3		259	32	
2025-10-30T12:00	26250	19	-61.3		260	32	
2025-10-30T12:00	26300	19	-61.5		261	32	
2025-10-30T12:00	26350	19	-61.2		262	32	
2025-10-30T12:00	26400	19	-61.2		262	33	
2025-10-30T12:00	26450	19	-60.9		262	33	
2025-10-30T12:00	26500	19	-60.7		262	34	
2025-10-30T12:00	26550	19	-60.7		262	34	
2025-10-30T12:00	26600	18	-60.5		263	34	
2025-10-30T12:00	26650	18	-60.3		263	34	
2025-10-30T12:00	26700	18	-60.4		263	33	
2025-10-30T12:00	26750	18	-60.6		265	32	
2025-10-30T12:00	26800	18	-60.7		266	31	
2025-10-30T12:00	26850	18	-60.7		266	31	
2025-10-30T12:00	26900	17	-60.5		265	31	
2025-10-30T12:00	26950	17	-60.4		265	32	
2025-10-30T12:00	27000	17	-60.2		265	33	
2025-10-30T12:00	27050	17	-59.9		264	34	
2025-10-30T12:00	27100	17	-60.0		263	35	
2025-10-30T12:00	27150	17	-60.3		262	36	
2025-10-30T12:00	27200	17	-60.4		262	36	
2025-10-30T12:00	27250	17	-60.4		262	36	
2025-10-30T12:00	27300	16	-60.5		263	36	
2025-10-30T12:00	27350	16	-60.7		264	36	
2025-10-30T12:00	27400	16	-60.9		264	36	
2025-10-30T12:00	27450	16	-61.0		264	36	
2025-10-30T12:00	27500	16	-61.0		263	36	
2025-10-30T12:00	27550	16	-60.9		264	36	
2025-10-30T12:00	27600	16	-60.6		264	35	
2025-10-30T12:00	27650	16	-60.8		263	35	
2025-10-30T12:00	27700	15	-60.7		262	34	
2025-10-30T12:00	27750	15	-60.6		262	35	
2025-10-30T12:00	27800	15	-60.6		262	36	
2025-10-30T12:00	27850	15	-60.5		262	37	
2025-10-30T12:00	27900	15	-60.4		263	38	
2025-10-30T12:00	27950	15	-60.5		264	39	
2025-10-30T12:00	28000	15	-60.5		264	40	
2025-10-30T12:00	28050	15	-60.4		265	41	
2025-10-30T12:00	28100	14	-60.3		265	41	
2025-10-30T12:00	28150	14	-60.3		265	41	
2025-10-30T12:00	28200	14	-60.6		265	41	
2025-10-30T12:00	28250	14	-60.7		265	40	
2025-10-30T12:00	28300	14	-60.7		265	40	
2025-10-30T12:00	28350	14	-60.7		266	40	
2025-10-30T12:00	28400	14	-60.7		267	40	
2025-10-30T12:00	28450	14	-60.7		267	41	
2025-10-30T12:00	28500	14	-60.6		267	42	
2025-10-30T12:00	28550	13	-60.2		267	43	
2025-10-30T12:00	28600	13	-59.9		267	44	
2025-10-30T12:00	28650	13	-59.6		267	45	
2025-10-30T12:00	28700	13	-59.4		267	46	
2025-10-30T12:00	28750	13	-58.9		267	46	
2025-10-30T12:00	28800	13	-58.9		268	46	
2025-10-30T12:00	28850	13	-58.8		268	46	
2025-10-30T12:00	28900	13	-58.2		269	46	
2025-10-30T12:00	28950	13	-57.8		270	46	
2025-10-30T12:00	29000	12	-57.3		270	46	
2025-10-30T12:00	29050	12	-56.6		270	46	
2025-10-30T12:00	29100	12	-56.0		269	46	
2025-10-30T12:00	29150	12	-55.4		270	47	
2025-10-30T12:00	29200	12	-55.3		270	47	
2025-10-30T12:00	29250	12	-55.4		269	46	
2025-10-30T12:00	29300	12	-55.3		268	46	
2025-10-30T12:00	29350	12	-55.3		266	46	
2025-10-30T12:00	29400	12	-55.0		265	46	
2025-10-30T12:00	29450	12	-55.0		264	47	
2025-10-30T12:00	29500	12	-54.8		264	47	
2025-10-30T12:00	29550	11	-54.5		264	47	
2025-10-30T12:00	29600	11	-54.3		264	46	
2025-10-30T12:00	29650	11	-54.2		264	46	
2025-10-30T12:00	29700	11	-53.9		264	47	
2025-10-30T12:00	29750	11	-53.8		264	47	
2025-10-30T12:00	29800	11	-54.1		265	47	
2025-10-30T12:00	29850	11	-54.2		265	46	
2025-10-30T12:00	29900	11	-54.2		266	45	
2025-10-30T12:00	29950	11	-54.1		266	44	
2025-10-30T12:00	30000	11	-53.8		265	44	
2025-10-30T12:00	30050	11	-53.7		264	45	
2025-10-30T12:00	30100	11	-53.6		262	45	
2025-10-30T12:00	30150	10	-53.5		262	46	
2025-10-30T12:00	30200	10	-53.3		263	46	
2025-10-30T12:00	30250	10	-53.2		264	47	
2025-10-30T12:00	30300	10	-53.3		265	48	
2025-10-30T12:00	30350	10	-53.4		265	49	
2025-10-30T12:00	30400	10	-53.0		266	51	
2025-10-30T12:00	30450	10	-52.4		266	52	
2025-10-30T12:00	30500	10	-51.9		267	53	
2025-10-30T12:00	30550	10	-52.0		267	53	
2025-10-30T12:00	30600	10	-52.2		268	53	
2025-10-30T12:00	30650	10	-52.3		269	53	
2025-10-30T12:00	30700	10	-52.6		269	53	
2025-10-30T12:00	30750	10	-52.8		269	53	
2025-10-30T12:00	30800	9	-52.7		268	52	
2025-10-30T12:00	30850	9	-52.6		267	52	
2025-10-30T12:00	30900	9	-52.6		266	51	
2025-10-30T12:00	30950	9	-51.9		264	51	
2025-10-30T12:00	31000	9	-51.2		264	52	
2025-10-30T12:00	31050	9	-50.5		264	52	
2025-10-30T12:00	31100	9	-50.2		265	52	
2025-10-30T12:00	31150	9	-50.4		266	52	
2025-10-30T12:00	31200	9	-50.6		266	53	
2025-10-30T12:00	31250	9	-50.6		266	53	
2025-10-30T12:00	31300	9	-50.5		266	53	
2025-10-30T12:00	31350	9	-50.2		266	52	
2025-10-31T00:00	491	958	10.4	9.3	201	1	
2025-10-31T00:00	501	956	10.4	9.5	202	1	
2025-10-31T00:00	520	955	10.2	9.3	206	2	
2025-10-31T00:00	540	952	10.1	9.0	213	2	
2025-10-31T00:00	560	950	10.3	8.8	219	2	
2025-10-31T00:00	580	948	10.4	8.9	222	2	
2025-10-31T00:00	600	946	10.3	9.0	226	2	
2025-10-31T00:00	620	943	10.1	9.0	227	2	
2025-10-31T00:00	640	941	9.9	9.0	229	2	
2025-10-31T00:00	660	939	9.9	8.8	232	1	
2025-10-31T00:00	680	936	10.0	8.1	238	1	
2025-10-31T00:00	700	934	10.0	7.8	265	0	
2025-10-31T00:00	720	932	9.9	7.6	345	0	
2025-10-31T00:00	740	930	9.7	7.3	15	0	
2025-10-31T00:00	760	928	9.6	7.2	20	1	
2025-10-31T00:00	780	925	9.4	7.2	22	1	
2025-10-31T00:00	800	923	9.4	6.9	20	1	
2025-10-31T00:00	820	921	9.3	6.7	11	1	
2025-10-31T00:00	840	919	9.1	6.7	348	0	
2025-10-31T00:00	860	916	9.0	6.6	313	1	
2025-10-31T00:00	880	914	8.8	6.6	285	1	
2025-10-31T00:00	900	912	8.7	6.6	273	1	
2025-10-31T00:00	920	910	8.5	6.6	267	2	
2025-10-31T00:00	940	908	8.5	6.6	262	2	
2025-10-31T00:00	960	905	8.4	6.7	259	3	
2025-10-31T00:00	980	903	8.3	6.8	257	3	
2025-10-31T00:00	1000	901	8.2	6.7	255	3	
2025-10-31T00:00	1020	899	8.0	6.8	252	4	
2025-10-31T00:00	1040	897	7.9	6.8	249	5	
2025-10-31T00:00	1060	894	7.9	7.0	246	6	
2025-10-31T00:00	1080	892	7.7	6.9	244	6	
2025-10-31T00:00	1100	890	7.5	6.9	243	7	
2025-10-31T00:00	1120	888	7.4	6.9	241	7	
2025-10-31T00:00	1140	886	7.3	6.9	239	7	
2025-10-31T00:00	1160	884	7.2	6.9	238	7	
2025-10-31T00:00	1180	882	7.2	6.9	236	8	
2025-10-31T00:00	1200	880	7.1	6.9	235	8	
2025-10-31T00:00	1220	877	6.9	6.8	232	8	
2025-10-31T00:00	1240	875	6.8	6.6	230	8	
2025-10-31T00:00	1260	873	6.6	6.5	229	8	
2025-10-31T00:00	1280	871	6.4	6.4	228	8	
2025-10-31T00:00	1300	869	6.3	6.3	227	8	
2025-10-31T00:00	1320	867	6.2	6.2	227	8	
2025-10-31T00:00	1340	864	6.1	6.1	226	8	
2025-10-31T00:00	1360	862	6.0	6.0	225	8	
2025-10-31T00:00	1380	860	5.8	5.8	223	8	
2025-10-31T00:00	1400	858	5.8	5.8	221	8	
2025-10-31T00:00	1420	856	5.6	5.6	219	9	
2025-10-31T00:00	1440	854	5.5	5.5	218	10	
2025-10-31T00:00	1460	852	5.4	5.3	218	10	
2025-10-31T00:00	1480	850	5.7	4.8	219	11	
2025-10-31T00:00	1500	848	7.0	3.1	220	12	
2025-10-31T00:00	1520	846	7.8	3.1	221	12	
2025-10-31T00:00	1540	844	8.5	3.4	223	13	
2025-10-31T00:00	1560	842	8.8	3.5	225	13	
2025-10-31T00:00	1580	840	8.8	3.5	227	12	
2025-10-31T00:00	1600	838	9.0	3.1	229	12	
2025-10-31T00:00	1620	836	9.0	3.0	231	12	
2025-10-31T00:00	1640	834	9.0	2.6	233	12	
2025-10-31T00:00	1660	832	9.1	1.9	235	11	
2025-10-31T00:00	1680	830	9.3	1.3	236	11	
2025-10-31T00:00	1700	828	9.3	0.7	237	11	
2025-10-31T00:00	1720	826	9.5	-0.5	238	11	
2025-10-31T00:00	1740	824	9.5	-0.7	237	11	
2025-10-31T00:00	1760	822	9.3	-0.8	236	11	
2025-10-31T00:00	1780	820	9.2	-0.8	235	11	
2025-10-31T00:00	1800	818	9.0	-0.9	235	11	
2025-10-31T00:00	1820	816	9.0	-1.0	235	11	
2025-10-31T00:00	1840	814	8.9	-1.2	235	11	
2025-10-31T00:00	1860	812	9.0	-2.0	235	11	
2025-10-31T00:00	1880	810	8.9	-2.1	235	10	
2025-10-31T00:00	1900	808	8.9	-2.3	235	10	
2025-10-31T00:00	1920	806	8.8	-2.3	236	10	
2025-10-31T00:00	1940	804	8.6	-2.4	237	10	
2025-10-31T00:00	1960	802	8.5	-2.4	238	10	
2025-10-31T00:00	1980	800	8.4	-2.4	239	10	
2025-10-31T00:00	2000	798	8.3	-2.8	240	10	
2025-10-31T00:00	2020	796	8.2	-3.0	241	10	
2025-10-31T00:00	2040	794	8.1	-3.0	240	9	
2025-10-31T00:00	2060	792	7.9	-3.2	238	9	
2025-10-31T00:00	2080	791	7.9	-3.5	234	9	
2025-10-31T00:00	2100	788	7.7	-3.3	231	9	
2025-10-31T00:00	2120	787	7.7	-3.3	229	9	
2025-10-31T00:00	2140	785	7.7	-3.6	226	9	
2025-10-31T00:00	2160	783	7.6	-3.8	224	9	
2025-10-31T00:00	2180	781	7.6	-4.2	224	9	
2025-10-31T00:00	2200	779	7.5	-4.1	223	8	
2025-10-31T00:00	2220	777	7.3	-4.4	223	8	
2025-10-31T00:00	2240	775	7.3	-5.0	224	8	
2025-10-31T00:00	2260	773	7.3	-5.4	224	7	
2025-10-31T00:00	2280	771	7.2	-5.5	225	7	
2025-10-31T00:00	2300	770	7.0	-5.6	225	7	
2025-10-31T00:00	2320	768	6.9	-5.8	225	7	
2025-10-31T00:00	2340	766	6.7	-5.9	225	7	
2025-10-31T00:00	2360	764	6.5	-6.0	226	7	
2025-10-31T00:00	2380	762	6.4	-6.1	226	7	
2025-10-31T00:00	2400	760	6.2	-6.1	227	7	
2025-10-31T00:00	2420	758	6.0	-6.5	228	7	
2025-10-31T00:00	2440	756	5.9	-6.6	229	7	
2025-10-31T00:00	2460	755	5.8	-6.8	229	7	
2025-10-31T00:00	2480	753	5.6	-6.9	230	7	
2025-10-31T00:00	2500	751	5.4	-6.9	230	7	
2025-10-31T00:00	2520	749	5.2	-7.0	230	7	
2025-10-31T00:00	2540	748	5.1	-7.0	228	7	
2025-10-31T00:00	2560	746	4.9	-7.1	227	7	
2025-10-31T00:00	2580	744	4.7	-7.2	226	7	
2025-10-31T00:00	2600	742	4.5	-7.3	223	7	
2025-10-31T00:00	2620	740	4.4	-7.8	221	7	
2025-10-31T00:00	2640	738	4.4	-10.1	219	7	
2025-10-31T00:00	2660	737	4.4	-12.9	217	7	
2025-10-31T00:00	2680	735	4.4	-16.4	215	6	
2025-10-31T00:00	2700	733	4.3	-18.2	214	6	
2025-10-31T00:00	2720	731	4.5	-22.3	213	6	
2025-10-31T00:00	2740	729	4.7	-22.3	212	5	
2025-10-31T00:00	2760	727	4.5	-20.1	210	5	
2025-10-31T00:00	2780	726	4.5	-20.4	207	5	
2025-10-31T00:00	2800	724	4.5	-22.6	203	4	
2025-10-31T00:00	2820	722	4.7	-32.1	196	4	
2025-10-31T00:00	2840	720	4.7	-29.8	189	4	
2025-10-31T00:00	2860	719	4.7	-25.6	182	4	
2025-10-31T00:00	2880	717	4.6	-25.5	178	5	
2025-10-31T00:00	2900	715	4.6	-26.2	176	5	
2025-10-31T00:00	2920	713	4.4	-25.7	173	5	
2025-10-31T00:00	2940	711	4.2	-25.2	170	5	
2025-10-31T00:00	2960	710	4.0	-25.2	166	5	
2025-10-31T00:00	2980	708	4.0	-25.9	162	4	
2025-10-31T00:00	3000	706	4.0	-28.3	158	4	
2025-10-31T00:00	3020	705	4.1	-36.0	155	3	
2025-10-31T00:00	3040	703	4.0	-37.9	154	3	
2025-10-31T00:00	3060	701	3.9	-38.1	158	2	
2025-10-31T00:00	3080	700	3.8	-38.6	168	2	
2025-10-31T00:00	3100	698	3.6	-39.0	191	1	
2025-10-31T00:00	3120	696	3.5	-39.8	232	1	
2025-10-31T00:00	3140	694	3.5	-41.3	267	1	
2025-10-31T00:00	3160	693	3.5	-42.4	281	1	
2025-10-31T00:00	3180	691	3.4	-42.8	285	1	
2025-10-31T00:00	3200	689	3.3	-42.7	278	1	
2025-10-31T00:00	3220	687	3.2	-42.6	265	1	
2025-10-31T00:00	3240	686	3.0	-42.0	252	2	
2025-10-31T00:00	3260	684	2.8	-41.9	243	2	
2025-10-31T00:00	3280	682	2.7	-41.5	240	3	
2025-10-31T00:00	3300	680	2.5	-40.5	240	3	
2025-10-31T00:00	3320	679	2.4	-40.5	241	4	
2025-10-31T00:00	3340	677	2.2	-40.6	242	4	
2025-10-31T00:00	3360	675	2.2	-39.5	244	5	
2025-10-31T00:00	3380	674	2.1	-39.4	244	5	
2025-10-31T00:00	3400	672	2.1	-40.5	245	5	
2025-10-31T00:00	3420	671	2.0	-42.1	245	5	
2025-10-31T00:00	3440	669	1.9	-39.5	244	5	
2025-10-31T00:00	3460	667	1.8	-39.7	242	5	
2025-10-31T00:00	3480	665	1.7	-40.4	239	5	
2025-10-31T00:00	3500	664	1.6	-40.8	235	5	
2025-10-31T00:00	3520	662	1.4	-41.1	231	5	
2025-10-31T00:00	3540	661	1.3	-41.4	228	5	
2025-10-31T00:00	3560	659	1.2	-42.5	225	5	
2025-10-31T00:00	3580	657	1.2	-43.8	224	5	
2025-10-31T00:00	3600	656	1.1	-45.2	224	4	
2025-10-31T00:00	3620	654	0.9	-45.9	225	4	
2025-10-31T00:00	3640	652	0.8	-46.3	228	4	
2025-10-31T00:00	3660	651	0.6	-47.0	230	4	
2025-10-31T00:00	3680	649	0.5	-48.2	232	4	
2025-10-31T00:00	3700	648	0.4	-48.9	234	4	
2025-10-31T00:00	3720	646	0.3	-49.6	236	5	
2025-10-31T00:00	3740	644	0.2	-50.0	238	5	
2025-10-31T00:00	3760	643	0.1	-48.8	240	5	
2025-10-31T00:00	3780	641	-0.1	-48.1	242	6	
2025-10-31T00:00	3800	640	-0.2	-48.3	244	6	
2025-10-31T00:00	3820	638	-0.4	-48.1	245	6	
2025-10-31T00:00	3840	636	-0.6	-48.0	245	6	
2025-10-31T00:00	3860	635	-0.7	-48.1	244	6	
2025-10-31T00:00	3880	633	-0.9	-48.4	243	6	
2025-10-31T00:00	3900	631	-1.1	-48.8	241	6	
2025-10-31T00:00	3920	630	-1.2	-49.0	239	6	
2025-10-31T00:00	3940	628	-1.4	-49.1	237	7	
2025-10-31T00:00	3960	627	-1.5	-48.0	235	7	
2025-10-31T00:00	3980	625	-1.5	-44.3	234	7	
2025-10-31T00:00	4000	624	-1.4	-40.9	233	7	
2025-10-31T00:00	4020	622	-1.5	-40.8	232	7	
2025-10-31T00:00	4040	621	-1.6	-41.2	232	7	
2025-10-31T00:00	4060	619	-1.7	-40.6	233	7	
2025-10-31T00:00	4080	618	-1.6	-31.2	234	7	
2025-10-31T00:00	4100	616	-1.6	-26.0	235	6	
2025-10-31T00:00	4120	614	-1.7	-22.6	236	6	
2025-10-31T00:00	4140	613	-1.9	-20.8	237	6	
2025-10-31T00:00	4160	611	-2.0	-20.1	238	6	
2025-10-31T00:00	4180	610	-2.2	-19.5	238	6	
2025-10-31T00:00	4200	608	-2.5	-19.5	238	6	
2025-10-31T00:00	4220	607	-2.6	-19.4	236	6	
2025-10-31T00:00	4240	605	-2.8	-19.4	234	6	
2025-10-31T00:00	4260	604	-3.0	-19.4	232	6	
2025-10-31T00:00	4280	602	-3.2	-19.5	230	6	
2025-10-31T00:00	4300	601	-3.4	-19.5	230	5	
2025-10-31T00:00	4320	599	-3.6	-19.5	232	5	
2025-10-31T00:00	4340	597	-3.8	-19.6	237	5	
2025-10-31T00:00	4360	596	-3.9	-19.8	246	5	
2025-10-31T00:00	4380	594	-4.1	-19.9	255	5	
2025-10-31T00:00	4400	593	-4.2	-20.0	260	5	
2025-10-31T00:00	4420	591	-4.4	-20.5	263	5	
2025-10-31T00:00	4440	590	-4.5	-20.9	264	6	
2025-10-31T00:00	4460	589	-4.6	-21.0	266	6	
2025-10-31T00:00	4480	587	-4.7	-21.1	267	5	
2025-10-31T00:00	4500	585	-4.9	-21.3	267	5	
2025-10-31T00:00	4520	584	-5.1	-21.3	266	5	
2025-10-31T00:00	4540	583	-5.2	-21.4	263	4	
2025-10-31T00:00	4560	581	-5.4	-21.7	257	4	
2025-10-31T00:00	4580	579	-5.5	-22.0	250	4	
2025-10-31T00:00	4600	578	-5.6	-22.1	246	5	
2025-10-31T00:00	4620	577	-5.7	-22.4	243	5	
2025-10-31T00:00	4640	575	-5.9	-22.6	242	5	
2025-10-31T00:00	4660	574	-6.0	-22.8	242	5	
2025-10-31T00:00	4680	572	-6.2	-22.8	243	5	
2025-10-31T00:00	4700	571	-6.4	-22.9	243	5	
2025-10-31T00:00	4720	569	-6.5	-23.1	243	5	
2025-10-31T00:00	4740	568	-6.6	-23.2	243	5	
2025-10-31T00:00	4760	566	-6.8	-23.3	243	5	
2025-10-31T00:00	4780	565	-7.0	-23.4	244	5	
2025-10-31T00:00	4800	564	-7.1	-23.5	245	5	
2025-10-31T00:00	4820	562	-7.3	-23.8	247	5	
2025-10-31T00:00	4840	561	-7.5	-23.9	249	5	
2025-10-31T00:00	4860	559	-7.6	-23.7	250	6	
2025-10-31T00:00	4880	558	-7.8	-23.7	251	6	
2025-10-31T00:00	4900	556	-8.0	-23.7	250	6	
2025-10-31T00:00	4920	555	-8.2	-23.9	247	6	
2025-10-31T00:00	4940	553	-8.3	-23.9	244	6	
2025-10-31T00:00	4960	552	-8.5	-24.0	241	6	
2025-10-31T00:00	4980	550	-8.7	-24.3	238	6	
2025-10-31T00:00	5000	549	-8.8	-24.5	236	6	
2025-10-31T00:00	5020	548	-9.0	-24.8	235	6	
2025-10-31T00:00	5040	546	-9.1	-24.9	235	6	
2025-10-31T00:00	5060	545	-9.3	-24.9	236	6	
2025-10-31T00:00	5080	544	-9.5	-25.1	239	5	
2025-10-31T00:00	5100	542	-9.6	-24.9	244	5	
2025-10-31T00:00	5120	541	-9.8	-25.3	248	5	
2025-10-31T00:00	5140	539	-10.0	-25.4	253	6	
2025-10-31T00:00	5160	538	-10.1	-25.5	257	6	
2025-10-31T00:00	5180	536	-10.3	-25.4	259	6	
2025-10-31T00:00	5200	535	-10.4	-25.5	260	6	
2025-10-31T00:00	5220	534	-10.6	-25.3	258	7	
2025-10-31T00:00	5240	532	-10.7	-25.6	256	7	
2025-10-31T00:00	5260	531	-10.9	-25.5	253	7	
2025-10-31T00:00	5280	529	-11.0	-25.4	249	7	
2025-10-31T00:00	5300	528	-11.2	-25.3	247	7	
2025-10-31T00:00	5320	527	-11.4	-25.2	246	7	
2025-10-31T00:00	5340	526	-11.6	-25.1	248	7	
2025-10-31T00:00	5360	524	-11.7	-25.3	250	7	
2025-10-31T00:00	5380	523	-11.9	-25.5	253	8	
2025-10-31T00:00	5400	521	-12.0	-25.6	255	8	
2025-10-31T00:00	5420	520	-12.1	-25.9	256	8	
2025-10-31T00:00	5440	519	-12.2	-26.2	255	8	
2025-10-31T00:00	5460	517	-12.4	-26.4	254	8	
2025-10-31T00:00	5480	516	-12.5	-26.7	253	8	
2025-10-31T00:00	5500	515	-12.6	-27.3	253	8	
2025-10-31T00:00	5520	513	-12.8	-27.6	255	8	
2025-10-31T00:00	5540	512	-13.0	-27.7	257	8	
2025-10-31T00:00	5560	511	-13.1	-27.7	260	9	
2025-10-31T00:00	5580	509	-13.4	-27.8	261	9	
2025-10-31T00:00	5600	508	-13.5	-28.2	262	9	
2025-10-31T00:00	5620	507	-13.6	-28.7	262	9	
2025-10-31T00:00	5640	505	-13.6	-29.2	260	10	
2025-10-31T00:00	5660	504	-13.7	-29.2	259	10	
2025-10-31T00:00	5680	503	-13.8	-29.4	257	10	
2025-10-31T00:00	5700	501	-13.9	-29.8	256	10	
2025-10-31T00:00	5720	500	-14.0	-30.1	255	10	
2025-10-31T00:00	5740	498	-14.2	-29.9	255	10	
2025-10-31T00:00	5760	497	-14.4	-29.6	255	10	
2025-10-31T00:00	5780	496	-14.5	-30.2	256	10	
2025-10-31T00:00	5800	495	-14.6	-30.6	257	10	
2025-10-31T00:00	5820	493	-14.8	-30.8	258	10	
2025-10-31T00:00	5840	492	-14.8	-31.3	261	10	
2025-10-31T00:00	5860	491	-14.9	-32.0	264	10	
2025-10-31T00:00	5880	489	-14.9	-32.3	265	10	
2025-10-31T00:00	5900	488	-15.1	-32.5	266	10	
2025-10-31T00:00	5920	487	-15.3	-32.6	266	11	
2025-10-31T00:00	5940	485	-15.4	-32.7	265	11	
2025-10-31T00:00	5960	484	-15.5	-32.8	262	11	
2025-10-31T00:00	5980	483	-15.7	-32.7	259	10	
2025-10-31T00:00	6000	482	-15.8	-32.9	256	10	
2025-10-31T00:00	6020	480	-16.0	-33.3	252	11	
2025-10-31T00:00	6040	479	-16.1	-33.4	247	11	
2025-10-31T00:00	6060	478	-16.3	-33.3	243	11	
2025-10-31T00:00	6080	477	-16.3	-33.8	240	11	
2025-10-31T00:00	6100	475	-16.2	-34.6	238	11	
2025-10-31T00:00	6120	474	-16.3	-34.8	237	11	
2025-10-31T00:00	6140	473	-16.4	-34.7	236	11	
2025-10-31T00:00	6160	471	-16.6	-34.7	237	11	
2025-10-31T00:00	6180	470	-16.7	-34.9	238	12	
2025-10-31T00:00	6200	469	-16.9	-34.9	239	11	
2025-10-31T00:00	6220	468	-17.0	-35.2	241	11	
2025-10-31T00:00	6240	467	-17.2	-36.0	243	11	
2025-10-31T00:00	6260	465	-17.3	-36.0	245	11	
2025-10-31T00:00	6280	464	-17.4	-36.0	246	11	
2025-10-31T00:00	6300	463	-17.5	-36.7	248	11	
2025-10-31T00:00	6320	462	-17.5	-37.8	249	11	
2025-10-31T00:00	6340	460	-17.7	-37.9	251	11	
2025-10-31T00:00	6360	459	-17.8	-38.3	252	12	
2025-10-31T00:00	6380	458	-17.9	-39.1	252	12	
2025-10-31T00:00	6400	457	-18.0	-39.9	252	12	
2025-10-31T00:00	6420	456	-18.1	-40.0	252	12	
2025-10-31T00:00	6440	454	-18.2	-40.3	251	11	
2025-10-31T00:00	6460	453	-18.4	-40.5	250	11	
2025-10-31T00:00	6480	452	-18.5	-40.6	249	11	
2025-10-31T00:00	6500	451	-18.7	-41.0	248	11	
2025-10-31T00:00	6520	449	-18.8	-41.2	247	11	
2025-10-31T00:00	6540	448	-19.0	-41.5	246	11	
2025-10-31T00:00	6560	447	-19.1	-41.8	246	11	
2025-10-31T00:00	6580	446	-19.3	-41.9	244	11	
2025-10-31T00:00	6600	445	-19.5	-42.0	243	11	
2025-10-31T00:00	6620	443	-19.6	-42.2	242	11	
2025-10-31T00:00	6640	442	-19.7	-42.3	240	11	
2025-10-31T00:00	6660	441	-19.9	-42.4	238	11	
2025-10-31T00:00	6680	440	-20.0	-42.3	235	11	
2025-10-31T00:00	6700	439	-20.2	-42.3	232	11	
2025-10-31T00:00	6720	438	-20.3	-42.3	229	12	
2025-10-31T00:00	6740	436	-20.4	-42.5	227	12	
2025-10-31T00:00	6760	435	-20.6	-42.6	225	12	
2025-10-31T00:00	6780	434	-20.7	-42.6	223	12	
2025-10-31T00:00	6800	433	-20.8	-42.2	222	12	
2025-10-31T00:00	6820	432	-20.8	-41.6	223	12	
2025-10-31T00:00	6840	430	-21.0	-41.8	223	12	
2025-10-31T00:00	6860	429	-21.2	-42.0	224	12	
2025-10-31T00:00	6880	428	-21.3	-42.2	226	12	
2025-10-31T00:00	6900	427	-21.5	-42.7	227	12	
2025-10-31T00:00	6920	426	-21.6	-42.8	228	12	
2025-10-31T00:00	6940	425	-21.8	-43.2	230	12	
2025-10-31T00:00	6960	423	-21.9	-43.6	231	12	
2025-10-31T00:00	6980	422	-22.1	-43.9	232	12	
2025-10-31T00:00	7000	421	-22.3	-44.1	233	12	
2025-10-31T00:00	7020	420	-22.5	-44.0	235	12	
2025-10-31T00:00	7040	419	-22.6	-44.4	236	11	
2025-10-31T00:00	7060	418	-22.7	-45.2	237	11	
2025-10-31T00:00	7080	416	-22.9	-45.5	238	11	
2025-10-31T00:00	7100	416	-23.0	-45.9	238	11	
2025-10-31T00:00	7120	414	-23.2	-45.9	239	12	
2025-10-31T00:00	7140	413	-23.4	-46.3	239	12	
2025-10-31T00:00	7160	412	-23.5	-46.5	238	12	
2025-10-31T00:00	7180	411	-23.7	-46.7	238	12	
2025-10-31T00:00	7200	410	-23.9	-46.8	238	12	
2025-10-31T00:00	7220	409	-24.0	-46.9	238	12	
2025-10-31T00:00	7240	408	-24.2	-46.9	238	12	
2025-10-31T00:00	7260	406	-24.4	-47.0	238	12	
2025-10-31T00:00	7280	405	-24.6	-46.8	238	12	
2025-10-31T00:00	7300	404	-24.8	-46.9	239	12	
2025-10-31T00:00	7320	403	-25.0	-47.1	239	13	
2025-10-31T00:00	7340	402	-25.2	-47.1	240	13	
2025-10-31T00:00	7360	401	-25.3	-47.2	240	13	
2025-10-31T00:00	7380	400	-25.5	-47.3	241	13	
2025-10-31T00:00	7400	399	-25.7	-47.4	242	13	
2025-10-31T00:00	7420	398	-25.9	-47.6	243	13	
2025-10-31T00:00	7440	397	-26.1	-47.9	244	13	
2025-10-31T00:00	7460	395	-26.2	-48.2	245	13	
2025-10-31T00:00	7480	394	-26.4	-48.6	245	12	
2025-10-31T00:00	7500	393	-26.6	-49.2	246	12	
2025-10-31T00:00	7520	392	-26.8	-48.9	247	12	
2025-10-31T00:00	7540	391	-27.0	-49.1	247	12	
2025-10-31T00:00	7560	390	-27.1	-49.3	247	11	
2025-10-31T00:00	7580	389	-27.3	-48.8	247	11	
2025-10-31T00:00	7600	388	-27.5	-48.6	247	12	
2025-10-31T00:00	7620	387	-27.7	-48.2	246	12	
2025-10-31T00:00	7640	386	-27.9	-48.2	246	12	
2025-10-31T00:00	7660	385	-28.1	-48.3	246	13	
2025-10-31T00:00	7680	383	-28.2	-48.1	246	13	
2025-10-31T00:00	7700	382	-28.4	-48.1	245	13	
2025-10-31T00:00	7720	381	-28.6	-48.2	245	13	
2025-10-31T00:00	7740	380	-28.8	-48.2	244	13	
2025-10-31T00:00	7760	379	-29.0	-47.8	244	13	
2025-10-31T00:00	7780	378	-29.2	-47.4	243	13	
2025-10-31T00:00	7800	377	-29.3	-47.3	242	13	
2025-10-31T00:00	7820	376	-29.5	-47.2	241	12	
2025-10-31T00:00	7840	375	-29.7	-47.1	241	12	
2025-10-31T00:00	7860	374	-29.8	-47.1	240	12	
2025-10-31T00:00	7880	373	-30.0	-46.8	240	12	
2025-10-31T00:00	7900	372	-30.2	-46.4	241	12	
2025-10-31T00:00	7920	371	-30.4	-46.6	241	12	
2025-10-31T00:00	7940	370	-30.6	-46.7	242	12	
2025-10-31T00:00	7960	369	-30.7	-46.6	243	12	
2025-10-31T00:00	7980	368	-30.9	-46.6	243	12	
2025-10-31T00:00	8000	367	-31.1	-46.8	243	12	
2025-10-31T00:00	8020	366	-31.2	-47.3	243	12	
2025-10-31T00:00	8040	364	-31.4	-47.8	243	12	
2025-10-31T00:00	8060	363	-31.6	-48.3	242	12	
2025-10-31T00:00	8080	362	-31.7	-49.7	242	12	
2025-10-31T00:00	8100	361	-31.8	-52.7	241	12	
2025-10-31T00:00	8120	360	-31.9	-53.2	241	12	
2025-10-31T00:00	8140	359	-32.0	-53.8	241	12	
2025-10-31T00:00	8160	358	-32.2	-54.1	241	12	
2025-10-31T00:00	8180	357	-32.3	-53.7	241	12	
2025-10-31T00:00	8200	356	-32.5	-54.1	241	12	
2025-10-31T00:00	8220	355	-32.6	-54.2	242	12	
2025-10-31T00:00	8240	354	-32.8	-54.1	244	12	
2025-10-31T00:00	8260	353	-32.9	-54.2	246	12	
2025-10-31T00:00	8280	352	-33.1	-53.8	247	12	
2025-10-31T00:00	8300	351	-33.3	-53.8	248	12	
2025-10-31T00:00	8320	350	-33.5	-53.4	250	12	
2025-10-31T00:00	8340	349	-33.6	-52.8	251	12	
2025-10-31T00:00	8360	348	-33.8	-52.4	252	11	
2025-10-31T00:00	8380	347	-34.0	-52.8	253	11	
2025-10-31T00:00	8400	346	-34.2	-52.6	253	11	
2025-10-31T00:00	8420	345	-34.4	-52.4	254	11	
2025-10-31T00:00	8440	344	-34.6	-52.3	255	11	
2025-10-31T00:00	8460	344	-34.7	-52.4	255	11	
2025-10-31T00:00	8480	342	-35.0	-52.4	255	11	
2025-10-31T00:00	8500	341	-35.2	-52.2	256	11	
2025-10-31T00:00	8520	340	-35.3	-52.7	255	11	
2025-10-31T00:00	8540	340	-35.5	-53.7	255	11	
2025-10-31T00:00	8560	339	-35.6	-53.9	255	11	
2025-10-31T00:00	8580	338	-35.8	-53.8	255	11	
2025-10-31T00:00	8600	337	-36.0	-53.9	255	11	
2025-10-31T00:00	8620	336	-36.2	-54.2	255	11	
2025-10-31T00:00	8640	335	-36.4	-53.8	256	10	
2025-10-31T00:00	8660	334	-36.6	-53.1	256	10	
2025-10-31T00:00	8680	333	-36.8	-53.0	257	10	
2025-10-31T00:00	8700	332	-37.0	-52.9	258	10	
2025-10-31T00:00	8720	331	-37.2	-53.0	258	10	
2025-10-31T00:00	8740	330	-37.3	-53.9	258	9	
2025-10-31T00:00	8760	329	-37.4	-54.7	257	9	
2025-10-31T00:00	8780	328	-37.6	-54.4	256	9	
2025-10-31T00:00	8800	327	-37.7	-55.9	255	8	
2025-10-31T00:00	8820	326	-37.8	-59.2	255	8	
2025-10-31T00:00	8840	325	-37.9	-60.3	254	8	
2025-10-31T00:00	8860	324	-38.1	-58.4	254	8	
2025-10-31T00:00	8880	323	-38.2	-56.3	253	8	
2025-10-31T00:00	8900	322	-38.4	-55.3	253	8	
2025-10-31T00:00	8920	321	-38.6	-54.6	254	8	
2025-10-31T00:00	8940	320	-38.8	-54.6	254	8	
2025-10-31T00:00	8960	320	-39.0	-54.9	253	8	
2025-10-31T00:00	8980	319	-39.2	-55.1	253	8	
2025-10-31T00:00	9000	318	-39.4	-55.5	253	7	
2025-10-31T00:00	9020	317	-39.6	-55.8	252	7	
2025-10-31T00:00	9040	316	-39.7	-55.9	252	7	
2025-10-31T00:00	9060	315	-39.9	-56.0	252	7	
2025-10-31T00:00	9080	314	-40.1	-56.2	252	7	
2025-10-31T00:00	9100	313	-40.3	-56.4	252	7	
2025-10-31T00:00	9120	312	-40.5	-56.6	252	7	
2025-10-31T00:00	9140	311	-40.7	-56.7	252	7	
2025-10-31T00:00	9160	310	-40.9	-56.6	252	7	
2025-10-31T00:00	9180	309	-41.1	-56.1	251	7	
2025-10-31T00:00	9200	308	-41.3	-55.4	250	7	
2025-10-31T00:00	9220	308	-41.4	-55.6	249	7	
2025-10-31T00:00	9240	307	-41.6	-56.3	247	7	
2025-10-31T00:00	9260	306	-41.7	-58.2	246	6	
2025-10-31T00:00	9280	305	-41.8	-60.2	245	6	
2025-10-31T00:00	9300	304	-41.9	-61.3	244	6	
2025-10-31T00:00	9320	303	-42.1	-61.1	242	6	
2025-10-31T00:00	9340	302	-42.3	-60.1	240	6	
2025-10-31T00:00	9360	301	-42.5	-59.4	239	5	
2025-10-31T00:00	9380	300	-42.7	-58.6	238	5	
2025-10-31T00:00	9400	300	-42.8	-57.8	238	5	
2025-10-31T00:00	9420	299	-43.0	-57.2	239	5	
2025-10-31T00:00	9440	298	-43.2	-57.0	240	5	
2025-10-31T00:00	9460	297	-43.4	-56.7	241	5	
2025-10-31T00:00	9480	296	-43.5	-56.6	242	5	
2025-10-31T00:00	9500	295	-43.7	-56.8	243	6	
2025-10-31T00:00	9520	294	-43.9	-57.1	244	6	
2025-10-31T00:00	9540	293	-44.1	-57.2	245	6	
2025-10-31T00:00	9560	292	-44.3	-57.3	245	6	
2025-10-31T00:00	9580	292	-44.5	-57.5	246	7	
2025-10-31T00:00	9600	291	-44.7	-57.8	246	7	
2025-10-31T00:00	9620	290	-44.9	-58.2	246	7	
2025-10-31T00:00	9640	289	-45.1	-58.4	245	7	
2025-10-31T00:00	9660	288	-45.3	-58.7	244	7	
2025-10-31T00:00	9680	287	-45.5	-58.8	243	7	
2025-10-31T00:00	9700	286	-45.7	-58.6	243	7	
2025-10-31T00:00	9720	286	-45.8	-58.3	243	7	
2025-10-31T00:00	9740	285	-46.1	-58.0	243	6	
2025-10-31T00:00	9760	284	-46.2	-57.6	243	7	
2025-10-31T00:00	9780	283	-46.4	-57.4	244	7	
2025-10-31T00:00	9800	282	-46.6	-57.4	245	7	
2025-10-31T00:00	9820	281	-46.8	-57.3	245	7	
2025-10-31T00:00	9840	280	-47.0	-57.3	245	7	
2025-10-31T00:00	9860	280	-47.2	-57.3	245	7	
2025-10-31T00:00	9880	279	-47.4	-57.4	244	7	
2025-10-31T00:00	9900	278	-47.6	-57.4	241	7	
2025-10-31T00:00	9920	277	-47.8	-57.4	239	6	
2025-10-31T00:00	9940	276	-48.0	-57.4	235	6	
2025-10-31T00:00	9960	275	-48.2	-57.2	232	6	
2025-10-31T00:00	9980	275	-48.3	-56.8	227	6	
2025-10-31T00:00	10000	274	-48.5	-56.9	223	6	
2025-10-31T00:00	10018	273	-48.6	-57.4	221	6	
2025-10-31T00:00	10050	272	-48.6	-58.6	218	5	
2025-10-31T00:00	10100	270	-49.0	-58.8	217	5	
2025-10-31T00:00	10150	268	-49.3	-59.5	214	5	
2025-10-31T00:00	10200	265	-49.6	-62.1	213	5	
2025-10-31T00:00	10250	263	-50.0	-61.9	212	5	
2025-10-31T00:00	10300	262	-50.4	-58.1	212	4	
2025-10-31T00:00	10350	260	-50.8	-57.3	214	4	
2025-10-31T00:00	10400	257	-51.2	-58.8	218	4	
2025-10-31T00:00	10450	255	-51.7	-59.4	225	4	
2025-10-31T00:00	10500	253	-52.1	-59.1	231	3	
2025-10-31T00:00	10550	252	-52.5	-57.9	235	3	
2025-10-31T00:00	10600	250	-52.8	-61.5	239	3	
2025-10-31T00:00	10650	248	-53.2	-66.1	241	3	
2025-10-31T00:00	10700	246	-53.5	-65.1	243	4	
2025-10-31T00:00	10750	244	-53.9	-64.8	246	4	
2025-10-31T00:00	10800	242	-54.3	-64.0	252	4	
2025-10-31T00:00	10850	240	-54.7	-62.7	256	4	
2025-10-31T00:00	10900	238	-55.2	-61.9	259	4	
2025-10-31T00:00	10950	236	-55.6	-61.8	260	3	
2025-10-31T00:00	11000	234	-56.0	-62.9	264	3	
2025-10-31T00:00	11050	233	-56.4	-65.6	274	3	
2025-10-31T00:00	11100	231	-56.5	-69.0	285	3	
2025-10-31T00:00	11150	229	-56.9	-69.6	291	4	
2025-10-31T00:00	11200	227	-57.3	-69.8	294	5	
2025-10-31T00:00	11250	225	-57.6	-69.5	296	6	
2025-10-31T00:00	11300	224	-57.9	-69.1	298	6	
2025-10-31T00:00	11350	222	-58.4	-69.0	299	7	
2025-10-31T00:00	11400	220	-58.8	-70.6	296	8	
2025-10-31T00:00	11450	218	-59.2	-71.1	294	8	
2025-10-31T00:00	11500	217	-59.7	-71.1	292	8	
2025-10-31T00:00	11550	215	-60.1	-71.5	292	8	
2025-10-31T00:00	11600	213	-60.6	-71.7	293	8	
2025-10-31T00:00	11650	211	-61.1	-71.8	294	9	
2025-10-31T00:00	11700	210	-61.5	-72.0	294	9	
2025-10-31T00:00	11750	208	-62.0	-71.3	296	8	
2025-10-31T00:00	11800	206	-62.4	-69.7	298	8	
2025-10-31T00:00	11850	205	-62.8	-68.9	298	8	
2025-10-31T00:00	11900	203	-63.2	-69.1	296	9	
2025-10-31T00:00	11950	201	-63.7	-71.6	294	9	
2025-10-31T00:00	12000	200	-64.1	-75.7	291	9	
2025-10-31T00:00	12050	198	-64.5	-77.1	289	9	
2025-10-31T00:00	12100	197	-64.9	-76.7	289	9	
2025-10-31T00:00	12150	195	-65.4	-76.2	289	10	
2025-10-31T00:00	12200	193	-65.8	-75.9	287	10	
2025-10-31T00:00	12250	192	-66.3	-75.9	285	11	
2025-10-31T00:00	12300	190	-66.8	-75.8	284	11	
2025-10-31T00:00	12350	189	-67.2	-75.7	284	11	
2025-10-31T00:00	12400	187	-67.7	-75.7	286	11	
2025-10-31T00:00	12450	185	-68.2	-75.7	287	11	
2025-10-31T00:00	12500	184	-68.7	-75.7	285	10	
2025-10-31T00:00	12550	182	-69.2	-75.8	282	10	
2025-10-31T00:00	12600	181	-69.6	-76.1	276	10	
2025-10-31T00:00	12650	179	-69.8	-76.3	268	9	
2025-10-31T00:00	12700	178	-70.0	-76.4	262	10	
2025-10-31T00:00	12750	176	-70.4	-76.5	256	10	
2025-10-31T00:00	12800	175	-70.8	-76.6	252	10	
2025-10-31T00:00	12850	173	-71.3	-76.7	252	11	
2025-10-31T00:00	12900	172	-71.6	-76.9	256	12	
2025-10-31T00:00	12950	171	-71.8	-77.1	261	13	
2025-10-31T00:00	13000	169	-71.8	-77.3	265	14	
2025-10-31T00:00	13050	168	-72.1	-77.5	269	15	
2025-10-31T00:00	13100	166	-72.6	-77.9	273	15	
2025-10-31T00:00	13150	165	-72.9	-78.2	277	15	
2025-10-31T00:00	13200	163	-73.2	-78.3	281	16	
2025-10-31T00:00	13250	162	-73.6	-78.3	283	16	
2025-10-31T00:00	13300	161	-73.8	-78.5	285	16	
2025-10-31T00:00	13350	159	-73.9	-79.1	287	14	
2025-10-31T00:00	13400	158	-71.2	-77.8	286	12	
2025-10-31T00:00	13450	157	-69.4	-77.4	281	10	
2025-10-31T00:00	13500	155	-69.3	-78.5	276	10	
2025-10-31T00:00	13550	154	-69.3	-80.2	274	11	
2025-10-31T00:00	13600	153	-69.7	-82.0	275	12	
2025-10-31T00:00	13650	151	-69.9	-82.8	278	12	
2025-10-31T00:00	13700	150	-69.2	-82.9	280	11	
2025-10-31T00:00	13750	149	-67.9	-82.6	277	10	
2025-10-31T00:00	13800	148	-67.2	-82.5	270	10	
2025-10-31T00:00	13850	146	-67.1	-82.6	265	10	
2025-10-31T00:00	13900	145	-67.1	-82.8	264	11	
2025-10-31T00:00	13950	144	-67.1	-83.3	263	13	
2025-10-31T00:00	14000	143	-66.6	-83.5	259	13	
2025-10-31T00:00	14050	142	-65.4	-83.3	252	13	
2025-10-31T00:00	14100	141	-64.4	-83.3	246	14	
2025-10-31T00:00	14150	139	-64.1	-83.7	243	14	
2025-10-31T00:00	14200	138	-64.0	-83.9	244	15	
2025-10-31T00:00	14250	137	-63.6	-83.8	247	15	
2025-10-31T00:00	14300	136	-63.8	-83.8	251	15	
2025-10-31T00:00	14350	135	-63.9	-83.8	253	15	
2025-10-31T00:00	14400	134	-63.7	-83.7	255	15	
2025-10-31T00:00	14450	133	-63.7	-83.7	256	15	
2025-10-31T00:00	14500	132	-63.6	-83.7	257	15	
2025-10-31T00:00	14550	131	-63.4	-83.6	257	15	
2025-10-31T00:00	14600	130	-63.4	-83.7	255	15	
2025-10-31T00:00	14650	128	-63.6	-83.8	254	16	
2025-10-31T00:00	14700	127	-63.6	-83.8	255	17	
2025-10-31T00:00	14750	126	-63.4	-83.8	258	17	
2025-10-31T00:00	14800	125	-63.4	-83.9	261	18	
2025-10-31T00:00	14850	124	-63.3	-83.9	262	19	
2025-10-31T00:00	14900	123	-63.5	-84.0	260	19	
2025-10-31T00:00	14950	122	-63.4	-84.0	258	20	
2025-10-31T00:00	15000	121	-63.4	-84.1	256	19	
2025-10-31T00:00	15050	120	-63.4	-84.2	254	19	
2025-10-31T00:00	15100	119	-63.7	-84.2	254	18	
2025-10-31T00:00	15150	118	-64.1	-84.2	255	18	
2025-10-31T00:00	15200	117	-64.6	-84.3	258	18	
2025-10-31T00:00	15250	117	-65.0	-84.4	260	18	
2025-10-31T00:00	15300	116	-65.2	-84.5	260	18	
2025-10-31T00:00	15350	115	-65.3	-84.6	258	18	
2025-10-31T00:00	15400	114	-65.1	-84.7	258	18	
2025-10-31T00:00	15450	113	-65.2	-85.0	260	18	
2025-10-31T00:00	15500	112	-64.8	-84.9	263	19	
2025-10-31T00:00	15550	111	-64.7	-85.0	266	19	
2025-10-31T00:00	15600	110	-64.6	-85.1	268	19	
2025-10-31T00:00	15650	109	-64.3	-85.2	271	18	
2025-10-31T00:00	15700	108	-63.8	-85.0	273	17	
2025-10-31T00:00	15750	107	-64.0	-85.1	276	16	
2025-10-31T00:00	15800	106	-64.0	-85.1	279	15	
2025-10-31T00:00	15850	106	-64.2	-85.1	281	14	
2025-10-31T00:00	15900	105	-64.4	-85.2	283	13	
2025-10-31T00:00	15950	104	-64.4	-85.2	282	13	
2025-10-31T00:00	16000	103	-64.4	-85.2	280	12	
2025-10-31T00:00	16050	102	-64.5	-85.3	277	11	
2025-10-31T00:00	16100	101	-64.6	-85.4	274	11	
2025-10-31T00:00	16150	101	-64.4	-85.3	269	11	
2025-10-31T00:00	16200	100	-64.7	-85.6	265	12	
2025-10-31T00:00	16250	99	-64.3	-85.4	266	12	
2025-10-31T00:00	16300	98	-64.3	-85.5	267	12	
2025-10-31T00:00	16350	97	-64.4	-85.5	264	12	
2025-10-31T00:00	16400	97	-64.4	-85.5	259	12	
2025-10-31T00:00	16450	96	-64.4	-85.6	258	13	
2025-10-31T00:00	16500	95	-64.3	-85.8	260	14	
2025-10-31T00:00	16550	94	-63.3	-85.8	260	14	
2025-10-31T00:00	16600	93	-62.2	-85.6	257	15	
2025-10-31T00:00	16650	93	-62.1	-85.6	255	15	
2025-10-31T00:00	16700	92	-62.1	-85.6	257	15	
2025-10-31T00:00	16750	91	-62.2	-85.6	259	14	
2025-10-31T00:00	16800	90	-62.2	-85.7	258	13	
2025-10-31T00:00	16850	90	-62.0	-85.9	256	13	
2025-10-31T00:00	16900	89	-61.6	-86.0	255	15	
2025-10-31T00:00	16950	88	-61.0	-86.0	257	15	
2025-10-31T00:00	17000	88	-60.8	-86.1	259	15	
2025-10-31T00:00	17050	87	-60.4	-86.0	262	14	
2025-10-31T00:00	17100	86	-60.0	-85.9	262	13	
2025-10-31T00:00	17150	85	-60.0	-85.8	259	13	
2025-10-31T00:00	17200	85	-60.1	-85.7	257	13	
2025-10-31T00:00	17250	84	-60.4	-85.7	253	13	
2025-10-31T00:00	17300	83	-60.7	-85.8	249	13	
2025-10-31T00:00	17350	83	-61.0	-85.9	246	12	
2025-10-31T00:00	17400	82	-61.2	-85.8	246	12	
2025-10-31T00:00	17450	81	-61.7	-86.0	245	12	
2025-10-31T00:00	17500	81	-62.0	-86.1	243	12	
2025-10-31T00:00	17550	80	-62.3	-86.2	244	12	
2025-10-31T00:00	17600	79	-62.7	-86.4	248	13	
2025-10-31T00:00	17650	79	-62.8	-86.4	253	14	
2025-10-31T00:00	17700	78	-62.9	-86.5	257	15	
2025-10-31T00:00	17750	78	-63.0	-86.6	260	16	
2025-10-31T00:00	17800	77	-62.9	-86.7	265	17	
2025-10-31T00:00	17850	76	-62.7	-86.7	269	18	
2025-10-31T00:00	17900	76	-62.6	-86.6	272	18	
2025-10-31T00:00	17950	75	-62.5	-86.7	275	17	
2025-10-31T00:00	18000	75	-62.3	-86.7	276	15	
2025-10-31T00:00	18050	74	-62.3	-86.7	273	13	
2025-10-31T00:00	18100	73	-62.2	-86.7	270	12	
2025-10-31T00:00	18150	73	-62.1	-86.6	266	11	
2025-10-31T00:00	18200	72	-62.2	-86.6	262	11	
2025-10-31T00:00	18250	72	-62.4	-86.7	257	11	
2025-10-31T00:00	18300	71	-62.4	-86.7	253	12	
2025-10-31T00:00	18350	70	-62.4	-86.8	252	13	
2025-10-31T00:00	18400	70	-62.3	-86.9	255	13	
2025-10-31T00:00	18450	69	-62.0	-86.7	258	14	
2025-10-31T00:00	18500	69	-62.1	-86.7	257	14	
2025-10-31T00:00	18550	68	-62.4	-86.8	255	14	
2025-10-31T00:00	18600	68	-62.7	-86.9	255	13	
2025-10-31T00:00	18650	67	-62.5	-86.9	257	13	
2025-10-31T00:00	18700	67	-62.5	-87.0	260	13	
2025-10-31T00:00	18750	66	-62.5	-87.0	262	13	
2025-10-31T00:00	18800	65	-62.4	-87.0	262	14	
2025-10-31T00:00	18850	65	-62.4	-87.0	260	13	
2025-10-31T00:00	18900	64	-62.6	-87.0	259	13	
2025-10-31T00:00	18950	64	-62.8	-87.0	258	13	
2025-10-31T00:00	19000	63	-62.9	-87.1	259	14	
2025-10-31T00:00	19050	63	-63.1	-87.1	260	14	
2025-10-31T00:00	19100	62	-63.2	-87.1	260	14	
2025-10-31T00:00	19150	62	-63.3	-87.2	259	14	
2025-10-31T00:00	19200	61	-63.5	-87.3	257	14	
2025-10-31T00:00	19250	61	-63.6	-87.4	253	14	
2025-10-31T00:00	19300	60	-63.7	-87.4	250	15	
2025-10-31T00:00	19350	60	-64.0	-87.5	248	15	
2025-10-31T00:00	19400	59	-64.1	-87.6	248	15	
2025-10-31T00:00	19450	59	-64.1	-87.6	249	15	
2025-10-31T00:00	19500	58	-64.1	-87.7	251	15	
2025-10-31T00:00	19550	58	-64.2	-87.7	253	15	
2025-10-31T00:00	19600	57	-64.3	-87.7	255	15	
2025-10-31T00:00	19650	57	-64.4	-87.8	257	16	
2025-10-31T00:00	19700	57	-64.6	-87.8	255	16	
2025-10-31T00:00	19750	56	-64.7	-87.9	253	16	
2025-10-31T00:00	19800	56	-64.8	-88.0	254	17	
2025-10-31T00:00	19850	55	-64.8	-88.2	258	18	
2025-10-31T00:00	19900	55	-64.5	-88.1	262	19	
2025-10-31T00:00	19950	54	-64.3	-88.1	266	19	
2025-10-31T00:00	20000	54	-64.2	-88.2	270	18	
2025-10-31T00:00	20050	53	-64.0		273	16	
2025-10-31T00:00	20100	53	-64.0		274	15	
2025-10-31T00:00	20150	52	-63.8		273	14	
2025-10-31T00:00	20200	52	-63.8		272	13	
2025-10-31T00:00	20250	52	-63.9		272	13	
2025-10-31T00:00	20300	51	-63.9		270	14	
2025-10-31T00:00	20350	51	-63.9		268	14	
2025-10-31T00:00	20400	50	-63.9		267	14	
2025-10-31T00:00	20450	50	-63.3		269	14	
2025-10-31T00:00	20500	50	-63.3		267	14	
2025-10-31T00:00	20550	49	-63.0		264	14	
2025-10-31T00:00	20600	49	-62.8		262	14	
2025-10-31T00:00	20650	48	-63.0		260	14	
2025-10-31T00:00	20700	48	-63.2		258	14	
2025-10-31T00:00	20750	48	-63.4		255	15	
2025-10-31T00:00	20800	47	-63.5		253	17	
2025-10-31T00:00	20850	47	-63.5		253	19	
2025-10-31T00:00	20900	46	-63.3		254	20	
2025-10-31T00:00	20950	46	-63.2		255	21	
2025-10-31T00:00	21000	46	-63.3		258	22	
2025-10-31T00:00	21050	45	-63.1		260	22	
2025-10-31T00:00	21100	45	-63.1		262	22	
2025-10-31T00:00	21150	45	-63.0		264	22	
2025-10-31T00:00	21200	44	-63.2		265	21	
2025-10-31T00:00	21250	44	-63.5		266	21	
2025-10-31T00:00	21300	44	-63.6		265	21	
2025-10-31T00:00	21350	43	-63.6		264	21	
2025-10-31T00:00	21400	43	-63.6		264	21	
2025-10-31T00:00	21450	42	-63.6		265	21	
2025-10-31T00:00	21500	42	-63.5		266	21	
2025-10-31T00:00	21550	42	-63.2		267	21	
2025-10-31T00:00	21600	41	-63.1		267	22	
2025-10-31T00:00	21650	41	-63.2		266	22	
2025-10-31T00:00	21700	41	-63.0		266	22	
2025-10-31T00:00	21750	40	-62.9		263	22	
2025-10-31T00:00	21800	40	-62.8		261	22	
2025-10-31T00:00	21850	40	-62.9		259	22	
2025-10-31T00:00	21900	39	-62.8		259	22	
2025-10-31T00:00	21950	39	-62.8		261	22	
2025-10-31T00:00	22000	39	-62.7		264	22	
2025-10-31T00:00	22050	39	-62.7		267	23	
2025-10-31T00:00	22100	38	-62.6		269	24	
2025-10-31T00:00	22150	38	-62.4		270	24	
2025-10-31T00:00	22200	38	-62.4		273	24	
2025-10-31T00:00	22250	37	-62.4		274	23	
2025-10-31T00:00	22300	37	-62.5		274	22	
2025-10-31T00:00	22350	37	-62.5		272	21	
2025-10-31T00:00	22400	36	-62.6		270	20	
2025-10-31T00:00	22450	36	-62.9		268	19	
2025-10-31T00:00	22500	36	-63.1		264	18	
2025-10-31T00:00	22550	36	-63.3		260	18	
2025-10-31T00:00	22600	35	-63.4		256	18	
2025-10-31T00:00	22650	35	-63.6		253	18	
2025-10-31T00:00	22700	35	-63.7		251	18	
2025-10-31T00:00	22750	34	-63.8		251	19	
2025-10-31T00:00	22800	34	-63.7		253	20	
2025-10-31T00:00	22850	34	-63.9		257	21	
2025-10-31T00:00	22900	34	-64.0		260	22	
2025-10-31T00:00	22950	33	-64.0		262	22	
2025-10-31T00:00	23000	33	-63.6		263	23	
2025-10-31T00:00	23050	33	-63.4		264	23	
2025-10-31T00:00	23100	32	-63.4		264	23	
2025-10-31T00:00	23150	32	-63.3		264	23	
2025-10-31T00:00	23200	32	-63.3		263	23	
2025-10-31T00:00	23250	32	-63.5		262	23	
2025-10-31T00:00	23300	31	-63.9		261	23	
2025-10-31T00:00	23350	31	-64.3		261	23	
2025-10-31T00:00	23400	31	-64.6		260	23	
2025-10-31T00:00	23450	31	-64.8		261	23	
2025-10-31T00:00	23500	30	-65.0		262	24	
2025-10-31T00:00	23550	30	-64.8		265	24	
2025-10-31T00:00	23600	30	-64.6		268	25	
2025-10-31T00:00	23650	30	-64.7		271	26	
2025-10-31T00:00	23700	29	-64.3		272	25	
2025-10-31T00:00	23750	29	-64.2		274	25	
2025-10-31T00:00	23800	29	-64.3		275	24	
2025-10-31T00:00	23850	29	-64.4		275	24	
2025-10-31T00:00	23900	29	-64.4		275	24	
2025-10-31T00:00	23950	28	-64.2		274	24	
2025-10-31T00:00	24000	28	-63.9		273	24	
2025-10-31T00:00	24050	28	-63.7		273	25	
2025-10-31T00:00	24100	28	-63.2		273	26	
2025-10-31T00:00	24150	27	-62.9		272	27	
2025-10-31T00:00	24200	27	-62.6		272	27	
2025-10-31T00:00	24250	27	-62.7		273	27	
2025-10-31T00:00	24300	27	-63.0		273	26	
2025-10-31T00:00	24350	26	-63.2		272	26	
2025-10-31T00:00	24400	26	-63.2		271	26	
2025-10-31T00:00	24450	26	-63.3		271	26	
2025-10-31T00:00	24500	26	-63.6		270	26	
2025-10-31T00:00	24550	26	-63.7		269	26	
2025-10-31T00:00	24600	25	-63.7		270	26	
2025-10-31T00:00	24650	25	-63.4		272	25	
2025-10-31T00:00	24700	25	-63.6		274	25	
2025-10-31T00:00	24750	25	-63.5		276	25	
2025-10-31T00:00	24800	25	-62.5		277	25	
2025-10-31T00:00	24850	24	-62.0		277	25	
2025-10-31T00:00	24900	24	-62.3		277	26	
2025-10-31T00:00	24950	24	-62.7		276	26	
2025-10-31T00:00	25000	24	-62.8		275	27	
2025-10-31T00:00	25050	24	-62.8		274	27	
2025-10-31T00:00	25100	23	-62.5		273	27	
2025-10-31T00:00	25150	23	-62.3		271	26	
2025-10-31T00:00	25200	23	-62.6		270	25	
2025-10-31T00:00	25250	23	-63.0		269	24	
2025-10-31T00:00	25300	23	-63.4		266	24	
2025-10-31T00:00	25350	23	-63.2		264	24	
2025-10-31T00:00	25400	22	-63.1		262	25	
2025-10-31T00:00	25450	22	-63.2		263	25	
2025-10-31T00:00	25500	22	-63.1		265	27	
2025-10-31T00:00	25550	22	-63.0		267	28	
2025-10-31T00:00	25600	22	-63.1		268	28	
2025-10-31T00:00	25650	21	-62.6		268	28	
2025-10-31T00:00	25700	21	-62.1		266	29	
2025-10-31T00:00	25750	21	-62.1		266	30	
2025-10-31T00:00	25800	21	-62.3		266	31	
2025-10-31T00:00	25850	21	-62.4		268	32	
2025-10-31T00:00	25900	21	-62.2		270	33	
2025-10-31T00:00	25950	20	-62.0		272	33	
2025-10-31T00:00	26000	20	-62.0		272	34	
2025-10-31T00:00	26050	20	-61.9		273	33	
2025-10-31T00:00	26100	20	-61.8		274	33	
2025-10-31T00:00	26150	20	-61.8		274	32	
2025-10-31T00:00	26200	20	-61.4		274	32	
2025-10-31T00:00	26250	19	-61.2		273	33	
2025-10-31T00:00	26300	19	-60.9		273	34	
2025-10-31T00:00	26350	19	-60.5		275	34	
2025-10-31T00:00	26400	19	-60.3		277	34	
2025-10-31T00:00	26450	19	-60.5		279	34	
2025-10-31T00:00	26500	19	-60.7		278	33	
2025-10-31T00:00	26550	19	-60.7		277	33	
2025-10-31T00:00	26600	18	-60.8		276	33	
2025-10-31T00:00	26650	18	-61.0		276	32	
2025-10-31T00:00	26700	18	-61.2		276	32	
2025-10-31T00:00	26750	18	-61.4		277	31	
2025-10-31T00:00	26800	18	-61.6		278	31	
2025-10-31T00:00	26850	18	-61.2		280	31	
2025-10-31T00:00	26900	18	-61.2		281	32	
2025-10-31T00:00	26950	17	-61.1		281	33	
2025-10-31T00:00	27000	17	-60.8		280	34	
2025-10-31T00:00	27050	17	-60.7		278	33	
2025-10-31T00:00	27100	17	-60.5		275	33	
2025-10-31T00:00	27150	17	-60.4		271	33	
2025-10-31T00:00	27200	17	-60.0		268	32	
2025-10-31T00:00	27250	17	-60.0		265	32	
2025-10-31T00:00	27300	16	-60.1		263	33	
2025-10-31T00:00	27350	16	-60.2		262	33	
2025-10-31T00:00	27400	16	-60.0		261	34	
2025-10-31T00:00	27450	16	-59.5		262	35	
2025-10-31T00:00	27500	16	-59.0		264	35	
2025-10-31T00:00	27550	16	-59.1		267	34	
2025-10-31T00:00	27600	16	-59.1		270	34	
2025-10-31T00:00	27650	16	-59.4		272	33	
2025-10-31T00:00	27700	15	-59.3		273	33	
2025-10-31T00:00	27750	15	-59.4		272	33	
2025-10-31T00:00	27800	15	-59.3		271	34	
2025-10-31T00:00	27850	15	-59.3		270	34	
2025-10-31T00:00	27900	15	-59.2		270	34	
2025-10-31T00:00	27950	15	-58.9		271	34	
2025-10-31T00:00	28000	15	-58.7		272	33	
2025-10-31T00:00	28050	15	-58.8		273	33	
2025-10-31T00:00	28100	14	-59.0		273	32	
2025-10-31T00:00	28150	14	-59.4		273	32	
2025-10-31T00:00	28200	14	-59.7		272	32	
2025-10-31T00:00	28250	14	-60.1		270	32	
2025-10-31T00:00	28300	14	-60.5		268	32	
2025-10-31T00:00	28350	14	-60.7		265	32	
2025-10-31T00:00	28400	14	-60.6		262	33	
2025-10-31T00:00	28450	14	-59.9		261	34	
2025-10-31T00:00	28500	14	-59.7		259	35	
2025-10-31T00:00	28550	13	-59.4		258	36	
2025-10-31T00:00	28600	13	-59.0		256	35	
2025-10-31T00:00	28650	13	-59.1		254	35	
2025-10-31T00:00	28700	13	-59.1		254	36	
2025-10-31T00:00	28750	13	-58.6		255	37	
2025-10-31T00:00	28800	13	-58.3		257	39	
2025-10-31T00:00	28850	13	-58.3		259	40	
2025-10-31T00:00	28900	13	-58.4		261	40	
2025-10-31T00:00	28950	13	-58.4		262	40	
2025-10-31T00:00	29000	13	-58.3		263	40	
2025-10-31T00:00	29050	12	-58.6		264	39	
2025-10-31T00:00	29100	12	-58.7		264	39	
2025-10-31T00:00	29150	12	-58.8		266	39	
2025-10-31T00:00	29200	12	-58.8		267	39	
2025-10-31T00:00	29250	12	-58.7		267	39	
2025-10-31T00:00	29300	12	-58.7		267	40	
2025-10-31T00:00	29350	12	-58.8		267	40	
2025-10-31T00:00	29400	12	-59.3		266	40	
2025-10-31T00:00	29450	12	-59.8		266	41	
2025-10-31T00:00	29500	12	-60.1		265	42	
2025-10-31T00:00	29550	11	-60.4		266	42	
2025-10-31T00:00	29600	11	-60.6		267	42	
2025-10-31T00:00	29650	11	-60.8		268	42	
2025-10-31T00:00	29700	11	-60.8		268	42	
2025-10-31T00:00	29750	11	-60.6		268	42	
2025-10-31T00:00	29800	11	-60.3		267	42	
2025-10-31T00:00	29850	11	-60.3		266	41	
2025-10-31T00:00	29900	11	-60.5		265	41	
2025-10-31T00:00	29950	11	-60.4		263	41	
2025-10-31T00:00	30000	11	-60.3		261	41	
2025-10-31T00:00	30050	11	-59.9		261	42	
2025-10-31T00:00	30100	10	-59.5		261	42	
2025-10-31T00:00	30150	10	-59.2		261	43	
2025-10-31T00:00	30200	10	-58.9		259	42	
2025-10-31T00:00	30250	10	-58.6		257	42	
2025-10-31T00:00	30300	10	-58.7		255	43	
2025-10-31T00:00	30350	10	-58.7		254	44	
2025-10-31T00:00	30400	10	-58.6		254	46	
2025-10-31T00:00	30450	10	-58.3		253	48	
2025-10-31T00:00	30500	10	-58.3		253	49	
2025-10-31T00:00	30550	10	-58.1		253	51	
2025-10-31T00:00	30600	10	-58.1		253	52	
2025-10-31T00:00	30650	10	-58.3		252	53	
2025-10-31T00:00	30700	10	-58.6		252	54	
2025-10-31T00:00	30750	9	-58.7		253	55	
2025-10-31T00:00	30800	9	-58.6		254	55	
2025-10-31T00:00	30850	9	-58.2		255	55	
2025-10-31T00:00	30900	9	-58.2		256	55	
2025-10-31T00:00	30950	9	-58.1		258	54	
2025-10-31T00:00	31000	9	-58.2		258	53	
2025-10-31T00:00	31050	9	-58.5		259	53	
2025-10-31T00:00	31100	9	-58.7		260	53	
2025-10-31T00:00	31150	9	-58.7		261	53	
2025-10-31T00:00	31200	9	-58.8		262	54	
2025-10-31T00:00	31250	9	-59.0		264	54	
2025-10-31T00:00	31300	9	-59.0		266	54	
2025-10-31T00:00	31350	9	-59.1		268	55	
2025-10-31T00:00	31400	9	-59.2		269	55	
2025-10-31T00:00	31450	8	-58.7		269	57	
2025-10-31T00:00	31500	8	-58.8		269	58	
2025-10-31T00:00	31550	8	-59.1		268	59	
2025-10-31T00:00	31600	8	-58.8		269	59	
2025-10-31T00:00	31650	8	-58.1		269	58	
2025-10-31T00:00	31700	8	-58.0		268	58	
2025-10-31T00:00	31750	8	-58.2		267	57	
2025-10-31T00:00	31800	8	-58.4		265	57	
2025-10-31T00:00	31850	8	-58.4		263	58	
2025-10-31T00:00	31900	8	-57.3		264	58	
2025-10-31T00:00	31950	8	-56.8		264	59	
2025-10-31T00:00	32000	8	-56.5		265	59	
2025-10-31T00:00	32050	8	-56.5		265	60	
2025-10-31T00:00	32100	8	-56.0		265	60	
2025-10-31T00:00	32150	8	-55.6		266	60	
2025-10-31T00:00	32200	8	-55.0		267	60	
2025-10-31T00:00	32250	7	-54.4		269	60	
2025-10-31T00:00	32300	7	-54.4		271	60	
2025-10-31T00:00	32350	7	-54.4		272	61	
2025-10-31T00:00	32400	7	-54.4		273	61	
2025-10-31T00:00	32450	7	-54.2		273	62	
2025-10-31T00:00	32500	7	-54.0		272	62	
2025-10-31T00:00	32550	7	-53.9		272	62	
2025-10-31T00:00	32600	7	-53.9		271	62	
2025-10-31T00:00	32650	7	-53.9		271	62	
2025-10-31T00:00	32700	7	-53.8		270	63	
2025-10-31T00:00	32750	7	-53.7		269	64	
2025-10-31T00:00	32800	7	-53.9		269	65	
2025-10-31T00:00	32850	7	-53.8		268	65	
2025-10-31T00:00	32900	7	-53.9		267	64	
2025-10-31T00:00	32950	7	-54.0		266	64	
2025-10-31T00:00	33000	7	-54.1		266	64	
2025-10-31T00:00	33050	7	-53.8		266	65	
2025-10-31T00:00	33100	7	-53.2		266	65	
2025-10-31T00:00	33150	6	-52.9		267	66	
2025-10-31T00:00	33200	6	-52.8		268	67	
2025-10-31T00:00	33250	6	-52.4		268	68	
2025-10-31T00:00	33300	6	-51.5		267	68	
2025-10-31T00:00	33350	6	-51.3		267	67	
2025-10-31T00:00	33400	6	-51.2		267	66	
2025-10-31T00:00	33450	6	-51.3		267	65	
2025-10-31T00:00	33500	6	-50.6		267	66	
2025-10-31T00:00	33550	6	-49.4		266	67	
2025-10-31T00:00	33600	6	-48.8		265	69	
2025-10-31T00:00	33650	6	-48.2		266	69	
2025-10-31T00:00	33700	6	-47.1		267	69	
2025-10-31T00:00	33750	6	-46.6		268	68	
2025-10-31T00:00	33800	6	-46.8		269	68	
2025-10-31T00:00	33850	6	-46.4		269	68	
2025-10-31T00:00	33900	6	-45.0		269	69	
2025-10-31T00:00	33950	6	-44.4		268	70	
2025-10-31T00:00	34000	6	-44.8		267	71	
2025-10-31T00:00	34050	6	-45.1		266	72	
2025-10-31T00:00	34100	6	-45.5		266	73	
2025-10-31T00:00	34150	6	-45.7		265	74	
2025-10-31T00:00	34200	6	-45.7		266	74	
2025-10-31T00:00	34250	5	-45.3		267	74	
2025-10-31T00:00	34300	5	-45.5		269	73	
2025-10-31T00:00	34350	5	-45.6		270	72	
2025-10-31T00:00	34400	5	-45.5		271	71	
2025-10-31T00:00	34450	5	-45.7		271	71	
2025-10-31T00:00	34500	5	-46.1		271	70	
2025-10-31T00:00	34550	5	-46.2		270	69	
2025-10-31T00:00	34600	5	-45.7		269	69	
2025-10-31T00:00	34650	5	-45.4		269	69	
2025-10-31T12:00	491	959	12.5	9.5	332	1	0.9
2025-10-31T12:00	501	958	12.2	9.4	356	1	0.9
2025-10-31T12:00	520	956	12.0	9.4	349	2	0.9
2025-10-31T12:00	540	954	11.9	9.3	344	2	1.0
2025-10-31T12:00	560	951	11.6	9.0	341	2	1.0
2025-10-31T12:00	580	949	11.4	9.1	339	2	1.0
2025-10-31T12:00	600	947	11.2	9.0	337	2	1.0
2025-10-31T12:00	620	945	11.0	9.0	334	2	1.1
2025-10-31T12:00	640	942	10.9	9.0	330	2	1.1
2025-10-31T12:00	660	940	10.7	8.9	322	2	1.1
2025-10-31T12:00	680	938	10.4	8.9	311	2	1.1
2025-10-31T12:00	700	935	10.3	8.8	297	2	1.1
2025-10-31T12:00	720	933	10.1	8.8	282	2	1.1
2025-10-31T12:00	740	931	9.9	8.8	268	2	1.1
2025-10-31T12:00	760	928	10.0	8.3	257	2	1.1
2025-10-31T12:00	780	926	10.2	8.4	251	2	1.2
2025-10-31T12:00	800	924	10.1	8.4	248	2	1.3
2025-10-31T12:00	820	922	10.0	8.4	246	2	1.5
2025-10-31T12:00	840	920	9.8	8.6	244	2	1.6
2025-10-31T12:00	860	918	9.7	8.5	242	2	1.8
2025-10-31T12:00	880	915	9.5	8.5	240	2	1.8
2025-10-31T12:00	900	913	9.3	8.5	238	2	1.9
2025-10-31T12:00	920	911	9.2	8.5	235	3	1.9
2025-10-31T12:00	940	909	9.0	8.4	231	3	2.0
2025-10-31T12:00	960	907	8.9	8.4	227	3	2.0
2025-10-31T12:00	980	904	8.7	8.3	224	3	2.1
2025-10-31T12:00	1000	902	8.7	8.3	220	3	2.1
2025-10-31T12:00	1020	900	8.6	8.2	217	3	2.1
2025-10-31T12:00	1040	898	8.4	8.2	214	3	2.2
2025-10-31T12:00	1060	896	8.3	8.2	211	4	2.2
2025-10-31T12:00	1080	894	8.2	8.2	209	4	2.2
2025-10-31T12:00	1100	891	8.0	8.0	209	4	2.3
2025-10-31T12:00	1120	889	7.9	7.9	209	5	2.3
2025-10-31T12:00	1140	887	7.8	7.8	210	5	2.3
2025-10-31T12:00	1160	885	7.7	7.7	212	5	2.4
2025-10-31T12:00	1180	883	7.7	7.7	214	6	2.4
2025-10-31T12:00	1200	881	7.6	7.6	217	6	2.5
2025-10-31T12:00	1220	879	7.6	7.6	219	7	2.5
2025-10-31T12:00	1240	876	7.6	7.6	221	8	2.6
2025-10-31T12:00	1260	874	7.6	7.6	222	8	2.6
2025-10-31T12:00	1280	872	7.5	7.5	223	9	2.7
2025-10-31T12:00	1300	870	7.4	7.4	222	9	2.7
2025-10-31T12:00	1320	868	7.4	7.4	221	10	2.8
2025-10-31T12:00	1340	866	7.4	7.4	220	10	2.8
2025-10-31T12:00	1360	864	7.6	7.1	218	10	2.9
2025-10-31T12:00	1380	862	8.0	6.5	216	10	2.9
2025-10-31T12:00	1400	860	8.6	5.5	213	10	3.0
2025-10-31T12:00	1420	858	8.8	5.0	211	9	3.1
2025-10-31T12:00	1440	856	8.7	4.6	209	9	3.1
2025-10-31T12:00	1460	853	8.6	4.3	207	9	3.2
2025-10-31T12:00	1480	851	8.5	3.9	206	8	3.2
2025-10-31T12:00	1500	849	8.4	3.7	206	8	3.2
2025-10-31T12:00	1520	847	8.4	3.1	206	8	3.2
2025-10-31T12:00	1540	845	8.7	1.4	206	8	3.3
2025-10-31T12:00	1560	843	9.6	-0.2	207	8	3.3
2025-10-31T12:00	1580	841	9.7	-0.3	208	8	3.3
2025-10-31T12:00	1600	839	10.0	-0.7	209	8	3.4
2025-10-31T12:00	1620	837	10.3	-0.6	209	9	3.5
2025-10-31T12:00	1640	835	10.3	-0.6	210	9	3.5
2025-10-31T12:00	1660	833	10.1	-0.5	210	9	3.6
2025-10-31T12:00	1680	831	9.9	-0.6	210	9	3.7
2025-10-31T12:00	1700	829	9.8	-0.6	211	10	3.7
2025-10-31T12:00	1720	827	9.7	-0.7	211	10	3.7
2025-10-31T12:00	1740	825	9.6	-1.0	211	10	3.7
2025-10-31T12:00	1760	823	9.5	-1.1	210	9	3.8
2025-10-31T12:00	1780	821	9.4	-1.2	209	9	3.8
2025-10-31T12:00	1800	819	9.2	-1.3	208	9	3.8
2025-10-31T12:00	1820	817	9.0	-1.3	206	9	3.8
2025-10-31T12:00	1840	815	8.8	-1.3	204	9	3.8
2025-10-31T12:00	1860	813	8.7	-1.3	202	9	3.8
2025-10-31T12:00	1880	811	8.6	-1.3	200	10	3.8
2025-10-31T12:00	1900	809	8.4	-1.3	200	10	3.8
2025-10-31T12:00	1920	807	8.3	-1.3	199	10	3.8
2025-10-31T12:00	1940	805	8.1	-1.3	199	11	3.8
2025-10-31T12:00	1960	804	8.0	-1.3	200	11	3.8
2025-10-31T12:00	1980	802	7.9	-1.2	200	11	3.8
2025-10-31T12:00	2000	800	7.6	-1.2	200	12	3.8
2025-10-31T12:00	2020	798	7.4	-1.3	200	12	3.7
2025-10-31T12:00	2040	796	7.3	-1.3	199	12	3.7
2025-10-31T12:00	2060	794	7.1	-1.4	198	12	3.8
2025-10-31T12:00	2080	792	6.9	-1.4	198	12	3.8
2025-10-31T12:00	2100	790	6.7	-1.5	197	12	3.8
2025-10-31T12:00	2120	788	6.6	-1.5	196	12	3.8
2025-10-31T12:00	2140	786	6.8	-1.6	196	12	3.7
2025-10-31T12:00	2160	784	7.1	-1.8	195	12	3.7
2025-10-31T12:00	2180	782	7.0	-1.9	195	11	3.7
2025-10-31T12:00	2200	780	7.1	-2.2	195	11	3.7
2025-10-31T12:00	2220	779	7.0	-2.4	194	11	3.7
2025-10-31T12:00	2240	777	7.0	-2.7	195	11	3.7
2025-10-31T12:00	2260	775	6.9	-2.7	195	11	3.8
2025-10-31T12:00	2280	773	6.7	-2.8	196	11	3.8
2025-10-31T12:00	2300	771	6.5	-2.8	197	11	3.8
2025-10-31T12:00	2320	769	6.3	-2.9	199	11	3.8
2025-10-31T12:00	2340	767	6.1	-3.1	201	11	3.7
2025-10-31T12:00	2360	765	6.0	-3.1	203	11	3.7
2025-10-31T12:00	2380	763	5.9	-3.3	205	11	3.7
2025-10-31T12:00	2400	761	5.9	-3.6	207	11	3.7
2025-10-31T12:00	2420	760	6.0	-4.1	209	12	3.8
2025-10-31T12:00	2440	758	6.0	-4.5	211	12	3.8
2025-10-31T12:00	2460	756	5.8	-5.2	212	12	3.8
2025-10-31T12:00	2480	754	5.7	-5.7	214	12	3.8
2025-10-31T12:00	2500	752	5.6	-6.9	215	12	3.8
2025-10-31T12:00	2520	750	5.4	-6.8	215	13	3.8
2025-10-31T12:00	2540	749	5.3	-7.3	216	13	3.8
2025-10-31T12:00	2560	747	5.1	-7.7	216	13	3.8
2025-10-31T12:00	2580	745	4.9	-8.2	216	13	3.9
2025-10-31T12:00	2600	743	4.8	-8.2	216	13	3.9
2025-10-31T12:00	2620	742	4.7	-8.5	216	13	3.9
2025-10-31T12:00	2640	740	4.6	-9.0	217	13	3.9
2025-10-31T12:00	2660	737	4.6	-10.3	217	13	3.9
2025-10-31T12:00	2680	736	4.9	-15.2	217	13	3.9
2025-10-31T12:00	2700	734	5.3	-22.0	217	13	3.9
2025-10-31T12:00	2720	732	5.3	-25.3	217	13	3.9
2025-10-31T12:00	2740	730	5.2	-25.6	217	13	3.9
2025-10-31T12:00	2760	729	5.1	-25.0	217	13	3.9
2025-10-31T12:00	2780	727	4.9	-24.0	216	13	4.0
2025-10-31T12:00	2800	725	4.8	-22.9	216	13	4.0
2025-10-31T12:00	2820	723	4.7	-22.3	216	13	4.0
2025-10-31T12:00	2840	722	4.6	-22.7	216	13	4.0
2025-10-31T12:00	2860	720	4.6	-22.7	215	13	3.9
2025-10-31T12:00	2880	718	4.5	-22.0	215	13	3.9
2025-10-31T12:00	2900	716	4.4	-22.0	215	13	3.9
2025-10-31T12:00	2920	715	4.3	-22.1	215	13	3.9
2025-10-31T12:00	2940	713	4.2	-20.1	215	13	3.9
2025-10-31T12:00	2960	711	4.0	-17.9	215	13	3.9
2025-10-31T12:00	2980	709	3.9	-16.6	215	12	3.9
2025-10-31T12:00	3000	708	3.9	-16.5	216	12	3.9
2025-10-31T12:00	3020	706	3.8	-16.8	216	12	3.9
2025-10-31T12:00	3040	704	3.8	-18.5	216	12	3.9
2025-10-31T12:00	3060	703	3.7	-19.9	216	11	4.0
2025-10-31T12:00	3080	701	3.6	-23.3	216	11	4.0
2025-10-31T12:00	3100	699	3.7	-28.6	215	11	4.0
2025-10-31T12:00	3120	697	3.8	-31.7	215	11	4.0
2025-10-31T12:00	3140	695	4.1	-35.5	215	11	4.0
2025-10-31T12:00	3160	694	4.2	-37.5	215	10	4.0
2025-10-31T12:00	3180	692	4.1	-38.4	215	10	4.0
2025-10-31T12:00	3200	690	4.1	-38.6	215	10	4.0
2025-10-31T12:00	3220	689	4.0	-38.7	215	11	4.0
2025-10-31T12:00	3240	687	4.0	-38.5	215	11	4.0
2025-10-31T12:00	3260	685	3.9	-38.7	215	11	3.9
2025-10-31T12:00	3280	683	3.7	-38.7	216	11	4.0
2025-10-31T12:00	3300	682	3.5	-38.8	216	11	4.0
2025-10-31T12:00	3320	680	3.3	-38.9	216	10	4.0
2025-10-31T12:00	3340	678	3.1	-39.2	217	10	4.0
2025-10-31T12:00	3360	677	3.0	-39.4	218	10	4.0
2025-10-31T12:00	3380	675	2.8	-39.8	219	10	4.0
2025-10-31T12:00	3400	673	2.6	-40.3	220	10	3.9
2025-10-31T12:00	3420	672	2.5	-40.7	221	11	3.9
2025-10-31T12:00	3440	670	2.3	-41.3	223	11	3.9
2025-10-31T12:00	3460	669	2.3	-41.8	224	11	3.9
2025-10-31T12:00	3480	667	2.2	-41.8	226	11	3.9
2025-10-31T12:00	3500	665	2.0	-41.9	227	11	3.9
2025-10-31T12:00	3520	664	1.9	-42.0	228	11	3.9
2025-10-31T12:00	3540	662	1.8	-42.1	230	11	3.9
2025-10-31T12:00	3560	660	1.7	-42.4	231	11	3.9
2025-10-31T12:00	3580	659	1.5	-42.5	232	11	3.9
2025-10-31T12:00	3600	657	1.4	-42.7	232	11	3.9
2025-10-31T12:00	3620	655	1.4	-43.0	233	11	3.9
2025-10-31T12:00	3640	654	1.3	-43.3	233	11	3.9
2025-10-31T12:00	3660	652	1.2	-43.6	234	11	3.9
2025-10-31T12:00	3680	651	1.0	-43.8	234	11	3.9
2025-10-31T12:00	3700	649	0.8	-44.3	234	11	3.9
2025-10-31T12:00	3720	647	0.7	-44.9	234	11	3.9
2025-10-31T12:00	3740	646	0.5	-45.6	234	11	3.8
2025-10-31T12:00	3760	644	0.4	-45.9	233	11	3.8
2025-10-31T12:00	3780	642	0.2	-46.2	233	11	3.8
2025-10-31T12:00	3800	641	0.1	-46.3	232	11	3.8
2025-10-31T12:00	3820	639	-0.1	-46.2	231	11	3.8
2025-10-31T12:00	3840	637	-0.2	-46.5	230	11	3.8
2025-10-31T12:00	3860	636	-0.3	-46.7	230	11	3.8
2025-10-31T12:00	3880	634	-0.5	-46.8	229	11	3.8
2025-10-31T12:00	3900	633	-0.6	-47.3	228	11	3.7
2025-10-31T12:00	3920	631	-0.8	-47.8	227	11	3.7
2025-10-31T12:00	3940	630	-0.9	-48.0	227	11	3.7
2025-10-31T12:00	3960	628	-1.0	-48.5	227	11	3.7
2025-10-31T12:00	3980	626	-1.1	-48.4	228	11	3.7
2025-10-31T12:00	4000	625	-1.1	-47.1	228	11	3.8
2025-10-31T12:00	4020	623	-1.2	-42.2	229	11	3.8
2025-10-31T12:00	4040	622	-1.2	-30.7	230	12	3.8
2025-10-31T12:00	4060	620	-1.4	-22.5	231	12	3.8
2025-10-31T12:00	4080	618	-1.5	-22.9	231	12	3.7
2025-10-31T12:00	4100	617	-1.7	-22.3	232	12	3.6
2025-10-31T12:00	4120	616	-1.8	-22.4	232	13	3.5
2025-10-31T12:00	4140	614	-1.9	-22.5	232	13	3.4
2025-10-31T12:00	4160	613	-2.0	-22.7	232	13	3.4
2025-10-31T12:00	4180	611	-2.2	-23.2	232	13	3.3
2025-10-31T12:00	4200	610	-2.3	-23.1	232	13	3.3
2025-10-31T12:00	4220	608	-2.5	-23.2	231	13	3.3
2025-10-31T12:00	4240	606	-2.7	-23.5	230	13	3.2
2025-10-31T12:00	4260	605	-2.8	-23.7	230	13	3.2
2025-10-31T12:00	4280	603	-3.0	-24.2	229	13	3.1
2025-10-31T12:00	4300	602	-3.2	-24.9	229	13	3.1
2025-10-31T12:00	4320	600	-3.4	-26.4	228	13	3.1
2025-10-31T12:00	4340	599	-3.5	-27.6	228	13	3.2
2025-10-31T12:00	4360	597	-3.7	-28.1	227	13	3.2
2025-10-31T12:00	4380	596	-3.8	-30.0	227	13	3.2
2025-10-31T12:00	4400	594	-4.0	-30.9	227	13	3.2
2025-10-31T12:00	4420	593	-4.2	-32.3	227	13	3.2
2025-10-31T12:00	4440	591	-4.4	-33.1	227	13	3.3
2025-10-31T12:00	4460	590	-4.6	-32.8	227	13	3.3
2025-10-31T12:00	4480	588	-4.8	-34.4	228	13	3.3
2025-10-31T12:00	4500	586	-5.0	-34.2	228	13	3.3
2025-10-31T12:00	4520	585	-5.1	-32.6	228	13	3.4
2025-10-31T12:00	4540	584	-5.3	-31.8	229	13	3.4
2025-10-31T12:00	4560	582	-5.5	-31.4	229	13	3.4
2025-10-31T12:00	4580	581	-5.7	-31.1	229	13	3.4
2025-10-31T12:00	4600	579	-5.8	-29.4	229	13	3.3
2025-10-31T12:00	4620	578	-6.0	-26.7	229	13	3.3
2025-10-31T12:00	4640	576	-6.2	-26.2	229	13	3.3
2025-10-31T12:00	4660	575	-6.4	-26.4	229	14	3.3
2025-10-31T12:00	4680	573	-6.6	-25.6	228	14	3.2
2025-10-31T12:00	4700	572	-6.8	-24.9	229	14	3.2
2025-10-31T12:00	4720	570	-6.9	-25.2	229	15	3.2
2025-10-31T12:00	4740	569	-6.9	-27.0	229	15	3.1
2025-10-31T12:00	4760	567	-7.1	-27.8	229	15	3.1
2025-10-31T12:00	4780	566	-7.2	-27.4	230	15	3.1
2025-10-31T12:00	4800	565	-7.3	-26.8	230	16	3.1
2025-10-31T12:00	4820	563	-7.4	-26.3	230	16	3.0
2025-10-31T12:00	4840	562	-7.6	-26.5	230	16	3.0
2025-10-31T12:00	4860	560	-7.8	-26.8	230	16	3.0
2025-10-31T12:00	4880	559	-7.9	-27.0	230	16	2.9
2025-10-31T12:00	4900	557	-8.1	-27.3	229	16	2.9
2025-10-31T12:00	4920	556	-8.1	-27.6	229	16	2.9
2025-10-31T12:00	4940	554	-8.3	-27.8	229	16	2.9
2025-10-31T12:00	4960	553	-8.5	-27.8	228	16	2.8
2025-10-31T12:00	4980	552	-8.6	-27.9	228	16	2.8
2025-10-31T12:00	5000	550	-8.7	-28.1	227	16	2.8
2025-10-31T12:00	5020	549	-8.9	-28.3	227	16	2.8
2025-10-31T12:00	5040	547	-9.1	-28.5	226	16	2.8
2025-10-31T12:00	5060	546	-9.2	-28.6	226	16	2.7
2025-10-31T12:00	5080	544	-9.3	-28.7	225	16	2.7
2025-10-31T12:00	5100	543	-9.5	-28.7	225	16	2.7
2025-10-31T12:00	5120	542	-9.6	-28.8	225	16	2.7
2025-10-31T12:00	5140	540	-9.7	-28.9	225	16	2.7
2025-10-31T12:00	5160	539	-9.9	-29.2	224	16	2.7
2025-10-31T12:00	5180	537	-10.1	-29.2	224	15	2.7
2025-10-31T12:00	5200	536	-10.2	-29.1	224	15	2.7
2025-10-31T12:00	5220	535	-10.4	-29.2	224	15	2.7
2025-10-31T12:00	5240	533	-10.6	-29.4	224	15	2.7
2025-10-31T12:00	5260	532	-10.7	-29.1	225	15	2.7
2025-10-31T12:00	5280	531	-10.8	-28.0	225	15	2.7
2025-10-31T12:00	5300	529	-10.8	-26.7	225	15	2.7
2025-10-31T12:00	5320	528	-10.9	-26.2	225	15	2.8
2025-10-31T12:00	5340	526	-11.1	-26.8	226	15	2.9
2025-10-31T12:00	5360	525	-11.2	-26.9	227	15	2.9
2025-10-31T12:00	5380	524	-11.4	-27.1	227	15	3.0
2025-10-31T12:00	5400	522	-11.6	-27.1	228	14	3.0
2025-10-31T12:00	5420	521	-11.7	-27.0	228	14	3.0
2025-10-31T12:00	5440	520	-11.9	-26.8	229	14	3.0
2025-10-31T12:00	5460	518	-12.1	-26.7	229	14	3.1
2025-10-31T12:00	5480	517	-12.3	-26.1	229	14	3.1
2025-10-31T12:00	5500	516	-12.5	-25.6	229	14	3.2
2025-10-31T12:00	5520	514	-12.7	-25.5	230	14	3.2
2025-10-31T12:00	5540	513	-12.9	-25.8	230	14	3.2
2025-10-31T12:00	5560	512	-13.0	-25.6	231	14	3.2
2025-10-31T12:00	5580	510	-13.1	-25.8	231	14	3.2
2025-10-31T12:00	5600	509	-13.3	-25.9	232	14	3.2
2025-10-31T12:00	5620	507	-13.5	-26.0	232	14	3.2
2025-10-31T12:00	5640	506	-13.7	-25.9	233	14	3.1
2025-10-31T12:00	5660	505	-13.8	-25.9	233	14	3.1
2025-10-31T12:00	5680	503	-14.0	-25.8	233	14	3.1
2025-10-31T12:00	5700	502	-14.1	-25.7	233	14	3.2
2025-10-31T12:00	5720	501	-14.3	-25.8	233	14	3.2
2025-10-31T12:00	5740	500	-14.4	-25.9	233	14	3.2
2025-10-31T12:00	5760	498	-14.6	-26.1	233	14	3.1
2025-10-31T12:00	5780	497	-14.8	-26.1	233	14	3.1
2025-10-31T12:00	5800	496	-14.9	-26.1	233	14	3.1
2025-10-31T12:00	5820	494	-15.1	-26.5	233	14	3.1
2025-10-31T12:00	5840	493	-15.3	-26.1	234	14	3.1
2025-10-31T12:00	5860	492	-15.4	-25.8	234	14	3.1
2025-10-31T12:00	5880	490	-15.6	-25.6	235	14	3.1
2025-10-31T12:00	5900	489	-15.7	-25.3	236	14	3.1
2025-10-31T12:00	5920	488	-15.9	-24.7	236	14	3.1
2025-10-31T12:00	5940	486	-16.0	-24.5	237	14	3.0
2025-10-31T12:00	5960	485	-16.1	-24.4	238	15	2.9
2025-10-31T12:00	5980	484	-16.3	-24.4	239	15	2.9
2025-10-31T12:00	6000	483	-16.4	-24.5	239	15	2.9
2025-10-31T12:00	6020	481	-16.6	-24.6	240	15	2.9
2025-10-31T12:00	6040	480	-16.8	-24.7	240	15	2.9
2025-10-31T12:00	6060	479	-16.9	-24.7	240	15	2.8
2025-10-31T12:00	6080	478	-17.1	-24.7	240	15	2.8
2025-10-31T12:00	6100	476	-17.3	-24.9	240	16	2.8
2025-10-31T12:00	6120	475	-17.4	-25.1	240	16	2.8
2025-10-31T12:00	6140	474	-17.5	-25.5	239	16	2.7
2025-10-31T12:00	6160	472	-17.5	-26.6	239	16	2.7
2025-10-31T12:00	6180	471	-17.5	-28.2	238	15	2.7
2025-10-31T12:00	6200	470	-17.6	-29.7	238	15	2.7
2025-10-31T12:00	6220	469	-17.8	-30.1	237	15	2.7
2025-10-31T12:00	6240	467	-18.0	-30.3	237	15	2.7
2025-10-31T12:00	6260	466	-18.1	-30.4	236	15	2.7
2025-10-31T12:00	6280	465	-18.3	-30.7	236	15	2.7
2025-10-31T12:00	6300	464	-18.4	-31.0	236	15	2.7
2025-10-31T12:00	6320	462	-18.7	-31.1	236	15	2.7
2025-10-31T12:00	6340	461	-18.9	-31.3	236	15	2.8
2025-10-31T12:00	6360	460	-19.1	-31.6	235	15	2.8
2025-10-31T12:00	6380	459	-19.2	-31.8	235	15	2.8
2025-10-31T12:00	6400	458	-19.3	-31.8	235	15	2.8
2025-10-31T12:00	6420	456	-19.5	-31.5	234	15	2.8
2025-10-31T12:00	6440	455	-19.7	-31.3	234	15	2.8
2025-10-31T12:00	6460	454	-19.9	-31.1	234	15	2.8
2025-10-31T12:00	6480	453	-20.1	-30.8	233	15	2.7
2025-10-31T12:00	6500	451	-20.2	-30.1	233	15	2.7
2025-10-31T12:00	6520	450	-20.3	-29.6	233	15	2.7
2025-10-31T12:00	6540	449	-20.5	-29.1	233	15	2.7
2025-10-31T12:00	6560	448	-20.6	-28.6	233	15	2.7
2025-10-31T12:00	6580	447	-20.7	-28.0	233	16	2.7
2025-10-31T12:00	6600	445	-20.8	-27.0	233	16	2.7
2025-10-31T12:00	6620	444	-20.9	-26.2	233	16	2.6
2025-10-31T12:00	6640	443	-21.0	-25.9	232	16	2.6
2025-10-31T12:00	6660	442	-21.1	-25.9	232	16	2.6
2025-10-31T12:00	6680	440	-21.3	-26.5	232	16	2.6
2025-10-31T12:00	6700	439	-21.4	-26.9	232	16	2.6
2025-10-31T12:00	6720	438	-21.5	-27.3	232	17	2.6
2025-10-31T12:00	6740	437	-21.8	-27.7	232	17	2.6
2025-10-31T12:00	6760	436	-21.9	-27.9	232	17	2.6
2025-10-31T12:00	6780	435	-22.0	-27.6	232	17	2.6
2025-10-31T12:00	6800	434	-22.2	-27.4	233	18	2.6
2025-10-31T12:00	6820	432	-22.4	-27.5	233	18	2.6
2025-10-31T12:00	6840	431	-22.4	-27.9	234	18	2.6
2025-10-31T12:00	6860	430	-22.5	-27.3	235	18	2.6
2025-10-31T12:00	6880	429	-22.6	-27.5	236	19	2.5
2025-10-31T12:00	6900	427	-22.8	-28.1	237	19	2.5
2025-10-31T12:00	6920	426	-22.9	-28.4	238	19	2.5
2025-10-31T12:00	6940	425	-23.1	-28.6	238	19	2.5
2025-10-31T12:00	6960	424	-23.1	-27.9	240	19	2.5
2025-10-31T12:00	6980	423	-23.2	-26.3	240	19	2.5
2025-10-31T12:00	7000	422	-23.2	-25.5	241	19	2.5
2025-10-31T12:00	7020	421	-23.2	-25.2	242	19	2.5
2025-10-31T12:00	7040	419	-23.2	-25.3	242	19	2.5
2025-10-31T12:00	7060	418	-23.2	-25.6	243	18	2.5
2025-10-31T12:00	7080	417	-23.4	-25.7	243	18	2.5
2025-10-31T12:00	7100	416	-23.6	-25.9	244	18	2.5
2025-10-31T12:00	7120	415	-23.7	-26.0	244	18	2.5
2025-10-31T12:00	7140	414	-23.9	-26.1	244	18	2.5
2025-10-31T12:00	7160	413	-24.0	-26.3	245	18	2.5
2025-10-31T12:00	7180	412	-24.1	-26.4	245	18	2.5
2025-10-31T12:00	7200	410	-24.1	-26.4	245	18	2.4
2025-10-31T12:00	7220	409	-24.2	-26.6	245	18	2.4
2025-10-31T12:00	7240	408	-24.3	-26.7	245	18	2.3
2025-10-31T12:00	7260	407	-24.5	-26.8	246	18	2.3
2025-10-31T12:00	7280	406	-24.7	-26.8	246	18	2.2
2025-10-31T12:00	7300	405	-24.8	-26.9	246	18	2.2
2025-10-31T12:00	7320	404	-25.0	-27.1	246	18	2.2
2025-10-31T12:00	7340	402	-25.1	-27.4	246	18	2.2
2025-10-31T12:00	7360	401	-25.2	-27.7	247	18	2.1
2025-10-31T12:00	7380	400	-25.3	-27.6	247	18	2.1
2025-10-31T12:00	7400	399	-25.5	-27.5	246	18	2.0
2025-10-31T12:00	7420	398	-25.6	-27.7	246	18	2.0
2025-10-31T12:00	7440	397	-25.8	-27.9	246	18	2.0
2025-10-31T12:00	7460	396	-25.9	-28.2	246	18	2.0
2025-10-31T12:00	7480	395	-26.1	-28.5	246	18	2.0
2025-10-31T12:00	7500	394	-26.3	-28.5	245	18	1.9
2025-10-31T12:00	7520	393	-26.4	-28.7	245	18	1.9
2025-10-31T12:00	7540	392	-26.4	-29.2	245	18	1.9
2025-10-31T12:00	7560	391	-26.6	-29.2	245	18	1.9
2025-10-31T12:00	7580	389	-26.8	-29.1	244	18	1.9
2025-10-31T12:00	7600	388	-27.0	-29.4	244	18	1.9
2025-10-31T12:00	7620	387	-27.1	-29.9	244	18	1.9
2025-10-31T12:00	7640	386	-27.3	-30.1	244	18	1.9
2025-10-31T12:00	7660	385	-27.5	-30.4	243	18	1.9
2025-10-31T12:00	7680	384	-27.6	-30.5	243	18	1.9
2025-10-31T12:00	7700	383	-27.7	-30.7	243	18	1.9
2025-10-31T12:00	7720	382	-27.8	-30.8	243	18	1.9
2025-10-31T12:00	7740	381	-28.0	-30.9	242	18	1.9
2025-10-31T12:00	7760	380	-28.2	-31.1	242	18	1.9
2025-10-31T12:00	7780	379	-28.3	-31.3	242	18	1.8
2025-10-31T12:00	7800	378	-28.5	-31.5	242	18	1.9
2025-10-31T12:00	7820	377	-28.7	-31.7	241	18	1.9
2025-10-31T12:00	7840	376	-28.8	-31.7	241	18	1.8
2025-10-31T12:00	7860	375	-28.9	-31.7	241	18	1.8
2025-10-31T12:00	7880	374	-29.1	-31.7	241	19	1.8
2025-10-31T12:00	7900	373	-29.3	-31.8	240	19	1.8
2025-10-31T12:00	7920	371	-29.5	-32.2	240	19	1.8
2025-10-31T12:00	7940	370	-29.6	-32.2	240	19	1.8
2025-10-31T12:00	7960	369	-29.8	-32.0	239	19	1.8
2025-10-31T12:00	7980	368	-29.9	-33.0	239	19	1.8
2025-10-31T12:00	8000	367	-30.1	-33.2	238	19	1.8
2025-10-31T12:00	8020	366	-30.3	-33.0	238	19	1.8
2025-10-31T12:00	8040	365	-30.3	-33.3	238	19	1.8
2025-10-31T12:00	8060	364	-30.5	-33.3	238	19	1.8
2025-10-31T12:00	8080	363	-30.7	-33.7	238	19	1.7
2025-10-31T12:00	8100	362	-30.9	-34.2	238	19	1.7
2025-10-31T12:00	8120	361	-31.0	-34.5	238	19	1.7
2025-10-31T12:00	8140	360	-31.2	-34.8	238	19	1.7
2025-10-31T12:00	8160	359	-31.3	-34.6	238	19	1.7
2025-10-31T12:00	8180	358	-31.4	-34.7	238	19	1.7
2025-10-31T12:00	8200	357	-31.6	-34.9	237	19	1.7
2025-10-31T12:00	8220	356	-31.8	-34.9	237	19	1.7
2025-10-31T12:00	8240	355	-31.9	-35.1	237	19	1.7
2025-10-31T12:00	8260	354	-32.1	-35.4	237	19	1.7
2025-10-31T12:00	8280	353	-32.2	-35.9	236	19	1.7
2025-10-31T12:00	8300	352	-32.4	-36.0	236	19	1.7
2025-10-31T12:00	8320	351	-32.6	-36.0	236	19	1.7
2025-10-31T12:00	8340	350	-32.7	-36.4	236	19	1.7
2025-10-31T12:00	8360	349	-32.8	-36.9	235	19	1.7
2025-10-31T12:00	8380	348	-33.0	-36.9	235	19	1.7
2025-10-31T12:00	8400	347	-33.1	-36.9	234	18	1.7
2025-10-31T12:00	8420	346	-33.3	-37.1	233	18	1.7
2025-10-31T12:00	8440	345	-33.6	-37.4	232	18	1.7
2025-10-31T12:00	8460	344	-33.7	-38.0	232	18	1.7
2025-10-31T12:00	8480	343	-33.8	-38.1	231	18	1.7
2025-10-31T12:00	8500	342	-34.0	-38.1	231	18	1.6
2025-10-31T12:00	8520	341	-34.2	-38.1	231	18	1.6
2025-10-31T12:00	8540	340	-34.4	-38.2	231	18	1.6
2025-10-31T12:00	8560	339	-34.6	-39.0	231	18	1.6
2025-10-31T12:00	8580	338	-34.7	-39.4	231	18	1.6
2025-10-31T12:00	8600	337	-34.9	-39.4	231	18	1.6
2025-10-31T12:00	8620	336	-35.1	-39.3	231	18	1.6
2025-10-31T12:00	8640	335	-35.3	-39.1	231	18	1.6
2025-10-31T12:00	8660	334	-35.5	-39.2	231	19	1.6
2025-10-31T12:00	8680	333	-35.6	-39.4	231	19	1.6
2025-10-31T12:00	8700	332	-35.8	-39.2	231	19	1.6
2025-10-31T12:00	8720	331	-36.0	-40.0	231	19	1.6
2025-10-31T12:00	8740	331	-36.1	-40.7	231	19	1.6
2025-10-31T12:00	8760	330	-36.2	-41.0	232	19	1.6
2025-10-31T12:00	8780	329	-36.4	-41.0	233	19	1.6
2025-10-31T12:00	8800	328	-36.6	-40.9	234	19	1.6
2025-10-31T12:00	8820	327	-36.8	-40.9	234	19	1.6
2025-10-31T12:00	8840	326	-37.0	-40.9	235	19	1.6
2025-10-31T12:00	8860	325	-37.2	-40.7	235	19	1.6
2025-10-31T12:00	8880	324	-37.3	-40.7	236	19	1.5
2025-10-31T12:00	8900	323	-37.4	-41.0	236	19	1.5
2025-10-31T12:00	8920	322	-37.6	-40.9	236	19	1.5
2025-10-31T12:00	8940	321	-37.7	-40.9	236	19	1.5
2025-10-31T12:00	8960	320	-37.9	-40.7	236	20	1.5
2025-10-31T12:00	8980	319	-38.1	-40.6	236	20	1.5
2025-10-31T12:00	9000	318	-38.2	-40.6	236	20	1.5
2025-10-31T12:00	9020	317	-38.4	-40.7	236	20	1.5
2025-10-31T12:00	9040	317	-38.5	-41.0	237	20	1.5
2025-10-31T12:00	9060	316	-38.7	-41.1	237	20	1.5
2025-10-31T12:00	9080	315	-38.9	-41.1	237	20	1.4
2025-10-31T12:00	9100	314	-39.1	-41.1	238	20	1.4
2025-10-31T12:00	9120	313	-39.3	-41.2	238	20	1.4
2025-10-31T12:00	9140	312	-39.5	-41.5	238	20	1.4
2025-10-31T12:00	9160	311	-39.6	-41.7	238	20	1.4
2025-10-31T12:00	9180	310	-39.8	-41.8	238	20	1.4
2025-10-31T12:00	9200	309	-40.0	-41.8	239	20	1.4
2025-10-31T12:00	9220	308	-40.2	-41.9	239	20	1.4
2025-10-31T12:00	9240	307	-40.4	-42.2	239	20	1.4
2025-10-31T12:00	9260	307	-40.6	-42.4	239	21	1.4
2025-10-31T12:00	9280	306	-40.7	-42.3	239	21	1.4
2025-10-31T12:00	9300	305	-40.9	-42.4	240	21	1.4
2025-10-31T12:00	9320	304	-41.1	-42.6	240	21	1.4
2025-10-31T12:00	9340	303	-41.3	-42.8	241	21	1.4
2025-10-31T12:00	9360	302	-41.4	-43.3	241	21	1.4
2025-10-31T12:00	9380	301	-41.6	-43.7	242	22	1.4
2025-10-31T12:00	9400	300	-41.8	-44.1	242	22	1.4
2025-10-31T12:00	9420	299	-42.0	-44.8	243	22	1.3
2025-10-31T12:00	9440	298	-42.2	-45.4	243	22	1.3
2025-10-31T12:00	9460	298	-42.4	-45.3	244	22	1.3
2025-10-31T12:00	9480	297	-42.5	-45.4	244	22	1.3
2025-10-31T12:00	9500	296	-42.8	-45.4	245	23	1.3
2025-10-31T12:00	9520	295	-42.9	-45.4	245	23	1.3
2025-10-31T12:00	9540	294	-43.1	-45.4	245	23	1.3
2025-10-31T12:00	9560	293	-43.3	-45.4	245	23	1.3
2025-10-31T12:00	9580	292	-43.5	-46.5	245	23	1.3
2025-10-31T12:00	9600	291	-43.6	-47.7	246	23	1.3
2025-10-31T12:00	9620	291	-43.8	-47.3	246	23	1.3
2025-10-31T12:00	9640	290	-43.9	-48.6	246	23	1.3
2025-10-31T12:00	9660	289	-44.1	-48.5	246	23	1.3
2025-10-31T12:00	9680	288	-44.3	-48.0	246	23	1.3
2025-10-31T12:00	9700	287	-44.3	-48.2	247	23	1.3
2025-10-31T12:00	9720	286	-44.5	-48.7	247	23	1.3
2025-10-31T12:00	9740	285	-44.8	-48.9	247	23	1.3
2025-10-31T12:00	9760	285	-44.9	-49.1	247	23	1.3
2025-10-31T12:00	9780	284	-45.1	-49.1	247	23	1.3
2025-10-31T12:00	9800	283	-45.2	-48.9	248	23	1.3
2025-10-31T12:00	9820	282	-45.5	-48.6	248	23	1.3
2025-10-31T12:00	9840	281	-45.7	-48.5	248	23	1.3
2025-10-31T12:00	9860	280	-45.9	-48.5	249	23	1.3
2025-10-31T12:00	9880	280	-46.0	-48.9	249	23	1.3
2025-10-31T12:00	9900	279	-46.2	-49.5	250	23	1.2
2025-10-31T12:00	9920	278	-46.4	-49.7	250	23	1.2
2025-10-31T12:00	9940	277	-46.6	-49.6	250	23	1.2
2025-10-31T12:00	9960	276	-46.8	-49.8	250	23	1.2
2025-10-31T12:00	9980	275	-47.0	-50.1	250	23	1.2
2025-10-31T12:00	10000	274	-47.1	-50.5	250	23	1.2
2025-10-31T12:00	10018	274	-47.3	-50.7	250	23	1.2
2025-10-31T12:00	10050	272	-47.6	-51.2	250	23	1.2
2025-10-31T12:00	10100	270	-48.0	-52.4	250	23	1.2
2025-10-31T12:00	10150	268	-48.4	-52.2	250	23	1.2
2025-10-31T12:00	10200	266	-48.8	-52.4	249	23	1.2
2025-10-31T12:00	10250	264	-49.1	-53.6	249	23	1.2
2025-10-31T12:00	10300	262	-49.6	-54.0	248	23	1.2
2025-10-31T12:00	10350	260	-50.0	-52.7	247	23	1.2
2025-10-31T12:00	10400	258	-50.4	-53.2	247	23	1.2
2025-10-31T12:00	10450	256	-50.9	-55.2	246	23	1.2
2025-10-31T12:00	10500	254	-51.3	-57.2	246	23	1.2
2025-10-31T12:00	10550	252	-51.7	-57.4	245	23	1.2
2025-10-31T12:00	10600	250	-52.1	-57.5	244	22	1.2
2025-10-31T12:00	10650	248	-52.5	-56.0	243	22	1.2
2025-10-31T12:00	10700	247	-53.0	-55.9	243	22	1.3
2025-10-31T12:00	10750	245	-53.4	-56.3	242	22	1.3
2025-10-31T12:00	10800	243	-53.9	-56.9	241	22	1.2
2025-10-31T12:00	10850	241	-54.3	-57.8	241	22	1.2
2025-10-31T12:00	10900	239	-54.8	-58.9	241	22	1.2
2025-10-31T12:00	10950	237	-55.3	-59.6	241	22	1.2
2025-10-31T12:00	11000	235	-55.7	-59.7	242	22	1.2
2025-10-31T12:00	11050	233	-56.1	-60.0	242	23	1.2
2025-10-31T12:00	11100	232	-56.5	-60.5	242	23	1.2
2025-10-31T12:00	11150	230	-57.0	-61.4	242	23	1.2
2025-10-31T12:00	11200	228	-57.4	-62.0	242	23	1.2
2025-10-31T12:00	11250	226	-57.8	-62.4	242	23	1.2
2025-10-31T12:00	11300	224	-58.2	-63.0	242	23	1.2
2025-10-31T12:00	11350	223	-58.6	-63.5	243	23	1.2
2025-10-31T12:00	11400	221	-59.1	-64.0	244	23	1.2
2025-10-31T12:00	11450	219	-59.5	-64.3	245	23	1.3
2025-10-31T12:00	11500	217	-59.9	-64.9	246	23	1.3
2025-10-31T12:00	11550	216	-60.3	-65.1	246	22	1.3
2025-10-31T12:00	11600	214	-60.7	-65.4	246	22	1.4
2025-10-31T12:00	11650	212	-61.3	-65.9	247	22	1.4
2025-10-31T12:00	11700	210	-61.7	-66.4	248	22	1.4
2025-10-31T12:00	11750	209	-62.2	-67.1	249	22	1.4
2025-10-31T12:00	11800	207	-62.6	-67.8	250	22	1.4
2025-10-31T12:00	11850	205	-63.0	-68.0	250	22	1.4
2025-10-31T12:00	11900	204	-63.2	-68.2	250	22	1.4
2025-10-31T12:00	11950	202	-63.7	-68.8	250	22	1.4
2025-10-31T12:00	12000	200	-64.2	-69.2	251	21	1.4
2025-10-31T12:00	12050	199	-64.5	-69.7	252	22	1.5
2025-10-31T12:00	12100	197	-64.8	-70.1	252	22	1.5
2025-10-31T12:00	12150	196	-65.2	-70.3	252	22	1.5
2025-10-31T12:00	12200	194	-65.8	-70.6	252	22	1.5
2025-10-31T12:00	12250	192	-66.2	-71.0	253	22	1.6
2025-10-31T12:00	12300	191	-66.6	-71.5	255	22	1.5
2025-10-31T12:00	12350	189	-67.1	-72.0	257	22	1.5
2025-10-31T12:00	12400	188	-67.5	-72.5	257	22	1.5
2025-10-31T12:00	12450	186	-68.0	-72.8	257	22	1.4
2025-10-31T12:00	12500	185	-68.4	-73.3	256	22	1.4
2025-10-31T12:00	12550	183	-68.7	-73.5	254	22	1.4
2025-10-31T12:00	12600	182	-68.7	-73.4	253	21	1.5
2025-10-31T12:00	12650	180	-69.1	-73.9	252	21	1.6
2025-10-31T12:00	12700	179	-69.2	-74.0	252	21	1.6
2025-10-31T12:00	12750	177	-69.0	-73.9	252	21	1.7
2025-10-31T12:00	12800	176	-68.6	-73.7	252	22	1.9
2025-10-31T12:00	12850	174	-68.5	-73.4	253	22	2.0
2025-10-31T12:00	12900	173	-68.6	-73.2	254	22	2.2
2025-10-31T12:00	12950	171	-68.5	-72.9	255	23	2.3
2025-10-31T12:00	13000	170	-68.6	-72.9	255	23	2.3
2025-10-31T12:00	13050	168	-68.4	-72.7	256	24	2.4
2025-10-31T12:00	13100	167	-68.0	-72.6	257	24	2.4
2025-10-31T12:00	13150	166	-68.2	-73.2	258	23	2.3
2025-10-31T12:00	13200	164	-67.9	-74.0	259	22	2.3
2025-10-31T12:00	13250	163	-67.9	-75.2	259	21	2.3
2025-10-31T12:00	13300	161	-67.4	-76.0	258	21	2.3
2025-10-31T12:00	13350	160	-67.3	-76.9	256	20	2.3
2025-10-31T12:00	13400	159	-67.6	-77.4	254	20	2.3
2025-10-31T12:00	13450	158	-67.2	-77.1	252	20	2.2
2025-10-31T12:00	13500	156	-67.2	-77.0	251	19	2.2
2025-10-31T12:00	13550	155	-67.6	-77.3	251	19	2.1
2025-10-31T12:00	13600	154	-68.1	-77.5	251	19	2.1
2025-10-31T12:00	13650	152	-68.5	-77.6	252	19	2.1
2025-10-31T12:00	13700	151	-68.5	-77.6	252	19	2.1
2025-10-31T12:00	13750	150	-68.6	-77.8	252	19	2.0
2025-10-31T12:00	13800	149	-68.9	-78.2	253	19	2.0
2025-10-31T12:00	13850	147	-69.2	-78.5	253	18	2.0
2025-10-31T12:00	13900	146	-69.4	-78.6	253	18	2.0
2025-10-31T12:00	13950	145	-69.7	-79.0	252	19	2.1
2025-10-31T12:00	14000	144	-69.9	-79.4	252	20	2.1
2025-10-31T12:00	14050	143	-70.1	-79.9	253	21	2.2
2025-10-31T12:00	14100	141	-70.1	-80.5	256	22	2.3
2025-10-31T12:00	14150	140	-69.6	-81.1	259	23	2.5
2025-10-31T12:00	14200	139	-69.2	-81.6	261	23	2.7
2025-10-31T12:00	14250	138	-68.7	-82.3	262	22	2.8
2025-10-31T12:00	14300	137	-67.4	-82.5	263	20	3.0
2025-10-31T12:00	14350	136	-65.9	-82.5	263	19	3.1
2025-10-31T12:00	14400	134	-66.1	-83.1	262	18	3.2
2025-10-31T12:00	14450	133	-66.3	-83.2	260	17	3.4
2025-10-31T12:00	14500	132	-66.7	-83.4	258	16	3.4
2025-10-31T12:00	14550	131	-67.2	-83.6	256	15	3.5
2025-10-31T12:00	14600	130	-67.5	-83.6	253	15	3.5
2025-10-31T12:00	14650	129	-67.6	-83.4	252	15	3.5
2025-10-31T12:00	14700	128	-67.6	-83.3	250	17	3.6
2025-10-31T12:00	14750	127	-67.7	-83.3	249	18	3.6
2025-10-31T12:00	14800	126	-68.0	-83.4	249	19	3.6
2025-10-31T12:00	14850	125	-68.1	-83.4	249	19	3.6
2025-10-31T12:00	14900	124	-68.3	-83.6	250	19	3.7
2025-10-31T12:00	14950	123	-68.5	-83.9	252	19	3.8
2025-10-31T12:00	15000	122	-67.9	-83.8	255	18	4.0
2025-10-31T12:00	15050	121	-67.6	-83.9	258	18	4.2
2025-10-31T12:00	15100	120	-67.5	-84.1	260	17	4.4
2025-10-31T12:00	15150	119	-66.8	-84.2	260	17	4.5
2025-10-31T12:00	15200	118	-66.1	-84.1	257	16	4.6
2025-10-31T12:00	15250	117	-65.6	-84.0	254	16	4.8
2025-10-31T12:00	15300	116	-66.0	-84.4	251	16	5.0
2025-10-31T12:00	15350	115	-66.3	-84.6	248	16	5.3
2025-10-31T12:00	15400	114	-66.6	-84.8	246	16	5.6
2025-10-31T12:00	15450	113	-66.6	-84.9	245	16	5.8
2025-10-31T12:00	15500	112	-66.3	-84.8	246	17	6.0
2025-10-31T12:00	15550	111	-66.1	-84.7	248	17	6.2
2025-10-31T12:00	15600	110	-65.9	-84.8	252	18	6.3
2025-10-31T12:00	15650	109	-65.4	-84.6	256	19	6.2
2025-10-31T12:00	15700	108	-65.3	-84.8	259	19	6.1
2025-10-31T12:00	15750	107	-64.9	-84.8	261	19	6.2
2025-10-31T12:00	15800	107	-64.1	-84.7	263	20	6.2
2025-10-31T12:00	15850	106	-63.7	-85.0	262	19	6.3
2025-10-31T12:00	15900	105	-62.6	-84.8	261	17	6.5
2025-10-31T12:00	15950	104	-61.8	-84.6	261	16	6.5
2025-10-31T12:00	16000	103	-62.0	-84.7	259	15	6.4
2025-10-31T12:00	16050	102	-62.3	-84.6	257	14	6.4
2025-10-31T12:00	16100	102	-62.5	-84.5	256	13	6.3
2025-10-31T12:00	16150	101	-62.9	-84.6	255	12	6.2
2025-10-31T12:00	16200	100	-62.9	-84.8	255	12	6.1
2025-10-31T12:00	16250	99	-62.6	-84.7	257	12	6.0
2025-10-31T12:00	16300	98	-62.4	-84.8	257	12	6.0
2025-10-31T12:00	16350	98	-62.2	-84.8	256	12	5.9
2025-10-31T12:00	16400	97	-62.1	-84.7	255	13	5.8
2025-10-31T12:00	16450	96	-62.3	-84.7	254	14	5.7
2025-10-31T12:00	16500	95	-62.6	-84.8	252	15	5.7
2025-10-31T12:00	16550	94	-63.1	-84.9	251	15	5.6
2025-10-31T12:00	16600	94	-63.6	-84.9	251	16	5.6
2025-10-31T12:00	16650	93	-64.0	-85.1	251	17	5.6
2025-10-31T12:00	16700	92	-64.2	-85.3	251	17	5.6
2025-10-31T12:00	16750	91	-64.0	-85.4	252	17	5.6
2025-10-31T12:00	16800	91	-63.4	-85.4	253	17	5.4
2025-10-31T12:00	16850	90	-63.0	-85.4	255	15	5.3
2025-10-31T12:00	16900	89	-62.6	-85.4	257	14	5.4
2025-10-31T12:00	16950	88	-62.3	-85.4	257	14	5.5
2025-10-31T12:00	17000	88	-61.9	-85.3	255	15	5.8
2025-10-31T12:00	17050	87	-61.9	-85.4	253	15	6.1
2025-10-31T12:00	17100	86	-62.0	-85.4	254	16	6.4
2025-10-31T12:00	17150	86	-62.2	-85.4	256	17	6.5
2025-10-31T12:00	17200	85	-62.4	-85.4	259	18	6.6
2025-10-31T12:00	17250	84	-62.6	-85.6	261	17	6.7
2025-10-31T12:00	17300	84	-62.4	-85.6	264	17	6.8
2025-10-31T12:00	17350	83	-62.4	-85.7	266	17	6.8
2025-10-31T12:00	17400	82	-62.3	-85.8	267	16	6.9
2025-10-31T12:00	17450	82	-62.1	-85.7	267	15	7.0
2025-10-31T12:00	17500	81	-62.2	-85.7	265	13	7.0
2025-10-31T12:00	17550	80	-62.4	-85.8	260	12	7.1
2025-10-31T12:00	17600	80	-62.3	-85.8	252	12	7.2
2025-10-31T12:00	17650	79	-62.5	-85.9	244	12	7.3
2025-10-31T12:00	17700	78	-62.6	-85.9	238	13	7.5
2025-10-31T12:00	17750	78	-62.7	-86.0	234	14	7.6
2025-10-31T12:00	17800	77	-62.8	-86.0	236	15	7.7
2025-10-31T12:00	17850	76	-63.0	-86.1	241	16	7.8
2025-10-31T12:00	17900	76	-63.1	-86.2	247	17	8.0
2025-10-31T12:00	17950	75	-63.0	-86.2	251	19	8.1
2025-10-31T12:00	18000	75	-63.0	-86.3	254	20	8.3
2025-10-31T12:00	18050	74	-63.0	-86.4	258	21	8.5
2025-10-31T12:00	18100	73	-62.5	-86.3	261	20	8.8
2025-10-31T12:00	18150	73	-62.4	-86.3	263	19	9.2
2025-10-31T12:00	18200	72	-62.5	-86.3	262	18	9.5
2025-10-31T12:00	18250	72	-62.6	-86.4	260	17	9.7
2025-10-31T12:00	18300	71	-62.6	-86.4	260	16	9.9
2025-10-31T12:00	18350	70	-62.4	-86.4	260	15	10.3
2025-10-31T12:00	18400	70	-62.3	-86.3	258	15	10.4
2025-10-31T12:00	18450	69	-62.6	-86.4	256	15	10.5
2025-10-31T12:00	18500	69	-62.6	-86.4	257	15	10.6
2025-10-31T12:00	18550	68	-62.6	-86.4	259	15	10.6
2025-10-31T12:00	18600	68	-62.7	-86.5	262	15	10.5
2025-10-31T12:00	18650	67	-62.8	-86.5	263	14	10.1
2025-10-31T12:00	18700	67	-63.1	-86.6	260	15	9.9
2025-10-31T12:00	18750	66	-63.0	-86.6	256	15	9.8
2025-10-31T12:00	18800	66	-63.1	-86.6	253	15	9.7
2025-10-31T12:00	18850	65	-63.3	-86.7	251	15	9.6
2025-10-31T12:00	18900	64	-63.7	-86.8	250	16	9.6
2025-10-31T12:00	18950	64	-63.8	-86.8	249	16	9.5
2025-10-31T12:00	19000	63	-64.0	-86.9	250	16	9.5
2025-10-31T12:00	19050	63	-64.1	-87.0	252	17	9.5
2025-10-31T12:00	19100	62	-64.2	-87.2	253	17	9.5
2025-10-31T12:00	19150	62	-64.0	-87.2	254	18	9.5
2025-10-31T12:00	19200	61	-63.7	-87.1	255	19	9.7
2025-10-31T12:00	19250	61	-63.6	-87.1	257	19	9.9
2025-10-31T12:00	19300	60	-63.7	-87.1	259	19	10.1
2025-10-31T12:00	19350	60	-63.8	-87.1	262	19	10.2
2025-10-31T12:00	19400	59	-63.8	-87.2	263	18	10.1
2025-10-31T12:00	19450	59	-63.5	-87.2	264	18	10.1
2025-10-31T12:00	19500	58	-63.0	-87.0	267	17	10.2
2025-10-31T12:00	19550	58	-63.2	-87.1	273	17	10.3
2025-10-31T12:00	19600	57	-63.2	-87.0	280	16	10.2
2025-10-31T12:00	19650	57	-63.5	-87.1	284	16	10.2
2025-10-31T12:00	19700	57	-63.6	-87.1	285	15	10.0
2025-10-31T12:00	19750	56	-63.6	-87.2	286	14	9.9
2025-10-31T12:00	19800	56	-63.5	-87.3	285	14	9.9
2025-10-31T12:00	19850	55	-63.3	-87.2	281	14	10.1
2025-10-31T12:00	19900	55	-63.4	-87.2	274	14	10.1
2025-10-31T12:00	19950	54	-63.6	-87.2	270	14	10.2
2025-10-31T12:00	20000	54	-63.6	-87.2	266	13	10.4
2025-10-31T12:00	20050	53	-63.5		260	13	10.4
2025-10-31T12:00	20100	53	-63.3		254	14	10.5
2025-10-31T12:00	20150	53	-63.3		252	16	10.6
2025-10-31T12:00	20200	52	-63.0		254	17	10.7
2025-10-31T12:00	20250	52	-62.9		259	17	10.8
2025-10-31T12:00	20300	51	-62.9		263	17	10.9
2025-10-31T12:00	20350	51	-62.7		265	16	10.8
2025-10-31T12:00	20400	50	-62.5		267	14	10.8
2025-10-31T12:00	20450	50	-62.6		269	13	10.9
2025-10-31T12:00	20500	50	-62.9		270	12	11.0
2025-10-31T12:00	20550	49	-63.0		269	11	11.1
2025-10-31T12:00	20600	49	-63.0		264	11	11.1
2025-10-31T12:00	20650	48	-63.0		260	11	11.1
2025-10-31T12:00	20700	48	-63.2		256	12	11.2
2025-10-31T12:00	20750	48	-63.3		255	12	11.2
2025-10-31T12:00	20800	47	-63.4		254	13	11.2
2025-10-31T12:00	20850	47	-63.4		255	14	11.2
2025-10-31T12:00	20900	47	-63.4		256	16	11.2
2025-10-31T12:00	20950	46	-63.7		258	17	11.3
2025-10-31T12:00	21000	46	-64.0		261	18	11.2
2025-10-31T12:00	21050	45	-64.2		264	19	11.2
2025-10-31T12:00	21100	45	-64.1		266	20	11.1
2025-10-31T12:00	21150	45	-64.3		267	20	11.1
2025-10-31T12:00	21200	44	-64.5		267	20	11.1
2025-10-31T12:00	21250	44	-64.6		269	18	11.0
2025-10-31T12:00	21300	44	-64.4		270	16	11.0
2025-10-31T12:00	21350	43	-64.5		271	15	10.9
2025-10-31T12:00	21400	43	-64.9		273	14	10.8
2025-10-31T12:00	21450	43	-65.2		276	14	10.7
2025-10-31T12:00	21500	42	-65.4		276	13	10.7
2025-10-31T12:00	21550	42	-65.3		270	13	10.7
2025-10-31T12:00	21600	41	-65.3		262	14	10.7
2025-10-31T12:00	21650	41	-65.1		255	14	10.7
2025-10-31T12:00	21700	41	-65.1		250	15	10.6
2025-10-31T12:00	21750	40	-65.1		248	16	10.6
2025-10-31T12:00	21800	40	-65.0		249	16	10.6
2025-10-31T12:00	21850	40	-65.0		249	16	10.7
2025-10-31T12:00	21900	40	-64.9		245	17	10.7
2025-10-31T12:00	21950	39	-64.8		241	18	10.6
2025-10-31T12:00	22000	39	-64.8		239	19	10.7
2025-10-31T12:00	22050	39	-64.6		235	19	10.7
2025-10-31T12:00	22100	38	-64.5		234	19	10.7
2025-10-31T12:00	22150	38	-64.4		237	18	10.6
2025-10-31T12:00	22200	38	-64.3		243	18	10.7
2025-10-31T12:00	22250	37	-64.1		249	19	10.7
2025-10-31T12:00	22300	37	-63.9		252	19	10.7
2025-10-31T12:00	22350	37	-64.0		253	20	10.7
2025-10-31T12:00	22400	36	-64.2		254	21	10.7
2025-10-31T12:00	22450	36	-64.4		255	22	10.7
2025-10-31T12:00	22500	36	-64.2		257	23	10.7
2025-10-31T12:00	22550	36	-64.3		259	22	10.7
2025-10-31T12:00	22600	35	-64.4		261	20	10.7
2025-10-31T12:00	22650	35	-64.5		264	20	10.7
2025-10-31T12:00	22700	35	-64.6		267	20	10.8
2025-10-31T12:00	22750	34	-64.6		268	21	10.9
2025-10-31T12:00	22800	34	-64.5		269	21	10.9
2025-10-31T12:00	22850	34	-64.4		271	22	10.9
2025-10-31T12:00	22900	34	-63.9		273	22	11.0
2025-10-31T12:00	22950	33	-63.5		275	22	11.0
2025-10-31T12:00	23000	33	-63.5		277	21	11.1
2025-10-31T12:00	23050	33	-63.7		278	22	11.1
2025-10-31T12:00	23100	32	-63.9		275	22	11.0
2025-10-31T12:00	23150	32	-63.7		272	22	11.0
2025-10-31T12:00	23200	32	-63.7		269	21	11.0
2025-10-31T12:00	23250	32	-64.0		267	21	10.9
2025-10-31T12:00	23300	31	-64.1		266	20	10.9
2025-10-31T12:00	23350	31	-64.4		264	20	10.9
2025-10-31T12:00	23400	31	-64.7		262	21	10.8
2025-10-31T12:00	23450	31	-64.4		261	22	10.7
2025-10-31T12:00	23500	30	-64.3		261	22	10.7
2025-10-31T12:00	23550	30	-64.4		262	22	10.7
2025-10-31T12:00	23600	30	-64.3		264	22	10.6
2025-10-31T12:00	23650	30	-64.3		265	23	10.5
2025-10-31T12:00	23700	29	-64.3		267	23	10.5
2025-10-31T12:00	23750	29	-64.3		268	23	10.5
2025-10-31T12:00	23800	29	-64.2		268	23	10.3
2025-10-31T12:00	23850	29	-64.4		267	23	10.3
2025-10-31T12:00	23900	28	-64.5		264	24	10.2
2025-10-31T12:00	23950	28	-64.6		263	24	10.2
2025-10-31T12:00	24000	28	-64.6		262	25	10.2
2025-10-31T12:00	24050	28	-64.4		261	26	10.1
2025-10-31T12:00	24100	28	-64.5		259	28	10.1
2025-10-31T12:00	24150	27	-64.5		257	29	10.1
2025-10-31T12:00	24200	27	-64.4		257	29	10.1
2025-10-31T12:00	24250	27	-64.1		258	29	10.1
2025-10-31T12:00	24300	27	-63.5		261	29	10.1
2025-10-31T12:00	24350	26	-63.4		263	28	10.3
2025-10-31T12:00	24400	26	-63.7		266	28	10.6
2025-10-31T12:00	24450	26	-63.7		268	28	10.7
2025-10-31T12:00	24500	26	-63.4		267	28	10.9
2025-10-31T12:00	24550	26	-63.2		265	27	11.1
2025-10-31T12:00	24600	25	-62.9		266	27	11.2
2025-10-31T12:00	24650	25	-62.7		270	27	11.2
2025-10-31T12:00	24700	25	-62.6		274	26	11.3
2025-10-31T12:00	24750	25	-62.5		277	26	11.3
2025-10-31T12:00	24800	25	-62.5		277	25	11.3
2025-10-31T12:00	24850	24	-62.2		277	25	11.4
2025-10-31T12:00	24900	24	-62.2		275	24	11.4
2025-10-31T12:00	24950	24	-62.4		273	25	11.3
2025-10-31T12:00	25000	24	-62.4		271	25	11.2
2025-10-31T12:00	25050	24	-62.5		269	26	11.1
2025-10-31T12:00	25100	23	-62.5		268	26	11.1
2025-10-31T12:00	25150	23	-62.6		266	26	11.0
2025-10-31T12:00	25200	23	-62.9		266	26	10.9
2025-10-31T12:00	25250	23	-63.2		266	26	10.9
2025-10-31T12:00	25300	23	-63.3		266	27	10.8
2025-10-31T12:00	25350	22	-63.4		266	27	10.7
2025-10-31T12:00	25400	22	-63.5		266	27	10.7
2025-10-31T12:00	25450	22	-63.5		266	26	10.6
2025-10-31T12:00	25500	22	-63.5		266	26	10.5
2025-10-31T12:00	25550	22	-63.6		266	27	10.5
2025-10-31T12:00	25600	22	-63.5		265	28	10.5
2025-10-31T12:00	25650	21	-63.6		264	28	10.4
2025-10-31T12:00	25700	21	-63.7		262	29	10.4
2025-10-31T12:00	25750	21	-63.9		262	30	10.3
2025-10-31T12:00	25800	21	-63.7		262	30	10.2
2025-10-31T12:00	25850	21	-63.7		262	30	10.2
2025-10-31T12:00	25900	21	-63.6		262	30	10.2
2025-10-31T12:00	25950	20	-63.6		263	30	10.1
2025-10-31T12:00	26000	20	-63.4		264	30	10.1
2025-10-31T12:00	26050	20	-63.6		264	30	10.0
2025-10-31T12:00	26100	20	-63.5		264	30	10.1
2025-10-31T12:00	26150	20	-63.1		263	30	10.0
2025-10-31T12:00	26200	20	-62.8		263	30	10.1
2025-10-31T12:00	26250	19	-62.5		263	30	10.1
2025-10-31T12:00	26300	19	-62.1		264	29	10.1
2025-10-31T12:00	26350	19	-62.4		264	29	10.1
2025-10-31T12:00	26400	19	-62.7		263	29	10.0
2025-10-31T12:00	26450	19	-62.5		262	30	10.0
2025-10-31T12:00	26500	19	-62.3		263	31	9.9
2025-10-31T12:00	26550	19	-62.1		264	33	9.9
2025-10-31T12:00	26600	18	-62.1		266	34	9.9
2025-10-31T12:00	26650	18	-62.3		267	35	9.8
2025-10-31T12:00	26700	18	-62.7		267	37	9.7
2025-10-31T12:00	26750	18	-63.1		267	38	9.7
2025-10-31T12:00	26800	18	-63.5		267	39	9.6
2025-10-31T12:00	26850	18	-63.8		267	40	9.5
2025-10-31T12:00	26900	17	-64.0		268	41	9.3
2025-10-31T12:00	26950	17	-63.8		268	41	9.2
2025-10-31T12:00	27000	17	-63.7		268	41	9.1
2025-10-31T12:00	27050	17	-63.8		268	40	9.1
2025-10-31T12:00	27100	17	-63.7		268	39	9.1
2025-10-31T12:00	27150	17	-63.7		267	38	9.0
2025-10-31T12:00	27200	17	-63.8		265	38	9.0
2025-10-31T12:00	27250	17	-63.7		264	38	9.0
2025-10-31T12:00	27300	16	-63.4		263	38	8.9
2025-10-31T12:00	27350	16	-63.3		264	37	8.8
2025-10-31T12:00	27400	16	-63.2		264	37	8.7
2025-10-31T12:00	27450	16	-63.2		264	37	8.7
2025-10-31T12:00	27500	16	-63.1		264	37	8.6
2025-10-31T12:00	27550	16	-63.0		263	37	8.5
2025-10-31T12:00	27600	16	-62.7		264	37	8.4
2025-10-31T12:00	27650	15	-62.3		265	36	8.5
2025-10-31T12:00	27700	15	-62.0		266	36	8.4
2025-10-31T12:00	27750	15	-61.7		267	37	8.5
2025-10-31T12:00	27800	15	-61.3		269	37	8.6
2025-10-31T12:00	27850	15	-61.0		270	38	8.6
2025-10-31T12:00	27900	15	-61.0		271	39	8.6
2025-10-31T12:00	27950	15	-61.0		270	40	8.6
2025-10-31T12:00	28000	15	-61.1		270	41	8.5
2025-10-31T12:00	28050	15	-61.2		271	41	8.5
2025-10-31T12:00	28100	14	-61.2		271	41	8.4
2025-10-31T12:00	28150	14	-61.2		271	41	8.4
2025-10-31T12:00	28200	14	-61.3		271	41	8.3
2025-10-31T12:00	28250	14	-61.2		272	41	8.3
2025-10-31T12:00	28300	14	-61.0		273	42	8.3
2025-10-31T12:00	28350	14	-60.7		274	42	8.3
2025-10-31T12:00	28400	14	-60.2		273	41	8.3
2025-10-31T12:00	28450	14	-59.5		273	41	8.2
2025-10-31T12:00	28500	13	-59.2		272	41	8.1
2025-10-31T12:00	28550	13	-58.8		270	42	7.9
2025-10-31T12:00	28600	13	-58.0		269	43	7.7
2025-10-31T12:00	28650	13	-57.9		269	45	7.5
2025-10-31T12:00	28700	13	-58.0		269	46	7.4
2025-10-31T12:00	28750	13	-57.9		270	47	7.4
2025-10-31T12:00	28800	13	-57.6		270	48	7.5
2025-10-31T12:00	28850	13	-56.8		272	48	7.6
2025-10-31T12:00	28900	13	-56.5		273	48	7.6
2025-10-31T12:00	28950	13	-56.7		273	47	7.4
2025-10-31T12:00	29000	12	-56.9		273	46	7.2
2025-10-31T12:00	29050	12	-57.3		274	45	7.1
2025-10-31T12:00	29100	12	-57.7		274	44	7.0
2025-10-31T12:00	29150	12	-58.1		274	44	6.9
2025-10-31T12:00	29200	12	-58.5		274	43	6.7
2025-10-31T12:00	29250	12	-58.6		274	43	6.6
2025-10-31T12:00	29300	12	-58.4		274	43	6.5
2025-10-31T12:00	29350	12	-58.3		273	43	6.5
2025-10-31T12:00	29400	12	-58.3		273	43	6.4
2025-10-31T12:00	29450	12	-58.5		272	43	6.3
2025-10-31T12:00	29500	12	-58.7		272	43	6.3
2025-10-31T12:00	29550	11	-58.8		272	42	6.2
2025-10-31T12:00	29600	11	-59.0		272	42	6.2
2025-10-31T12:00	29650	11	-59.1		273	42	6.1
2025-10-31T12:00	29700	11	-59.1		274	42	6.1
2025-10-31T12:00	29750	11	-59.0		275	43	6.1
2025-10-31T12:00	29800	11	-59.0		276	44	6.0
2025-10-31T12:00	29850	11	-59.2		276	45	6.0
2025-10-31T12:00	29900	11	-59.2		277	46	6.0
2025-10-31T12:00	29950	11	-59.4		277	46	5.9
2025-10-31T12:00	30000	11	-59.6		277	46	5.9
2025-10-31T12:00	30050	11	-59.8		277	46	5.9
2025-10-31T12:00	30100	10	-60.1		277	46	5.8
2025-10-31T12:00	30150	10	-60.2		276	47	5.7
2025-10-31T12:00	30200	10	-60.4		275	47	5.7
2025-10-31T12:00	30250	10	-60.5		273	47	5.6
2025-10-31T12:00	30300	10	-60.3		271	47	5.5
2025-10-31T12:00	30350	10	-59.5		271	47	5.5
2025-10-31T12:00	30400	10	-59.0		271	48	5.4
2025-10-31T12:00	30450	10	-57.5		271	49	5.4
2025-10-31T12:00	30500	10	-56.2		273	47	5.4
2025-10-31T12:00	30550	10	-55.2		274	45	5.3
2025-10-31T12:00	30600	10	-53.8		274	45	5.3
2025-10-31T12:00	30650	10	-52.7		275	44	5.3
2025-10-31T12:00	30700	10	-52.3		276	44	5.3
2025-10-31T12:00	30750	9	-52.1		276	44	5.2
2025-10-31T12:00	30800	9	-51.9		277	44	5.2
2025-10-31T12:00	30850	9	-52.0		277	45	5.2
2025-10-31T12:00	30900	9	-52.2		276	45	5.2
2025-10-31T12:00	30950	9	-52.3		276	45	5.2
2025-10-31T12:00	31000	9	-52.6		275	45	5.2
2025-10-31T12:00	31050	9	-52.8		274	44	5.2
2025-10-31T12:00	31100	9	-53.0		273	44	5.2
2025-10-31T12:00	31150	9	-53.2		272	43	5.2
2025-10-31T12:00	31200	9	-53.3		271	43	5.2
2025-10-31T12:00	31250	9	-53.5		271	43	5.2
2025-10-31T12:00	31300	9	-53.5		270	42	5.1
2025-10-31T12:00	31350	9	-53.6		270	42	5.1
2025-10-31T12:00	31400	9	-53.7		270	42	5.0
2025-10-31T12:00	31450	8	-53.9		270	43	5.0
2025-10-31T12:00	31500	8	-54.1		270	43	4.9
2025-10-31T12:00	31550	8	-54.2		270	43	4.8
2025-10-31T12:00	31600	8	-54.1		269	43	4.8
2025-10-31T12:00	31650	8	-54.1		269	43	4.7
2025-10-31T12:00	31700	8	-54.3		269	43	4.7
2025-10-31T12:00	31750	8	-54.4		268	44	4.7
2025-10-31T12:00	31800	8	-54.6		268	45	4.6
2025-10-31T12:00	31850	8	-54.8		267	46	4.7
2025-10-31T12:00	31900	8	-55.0		267	47	4.7
2025-10-31T12:00	31950	8	-55.1		267	48	4.7
2025-10-31T12:00	32000	8	-54.7		267	48	4.6
2025-10-31T12:00	32050	8	-54.2		267	49	4.4
2025-10-31T12:00	32100	8	-53.7		266	48	4.4
2025-10-31T12:00	32150	8	-53.2		265	49	4.3
2025-10-31T12:00	32200	8	-52.5		264	50	4.3
2025-10-31T12:00	32250	7	-51.9		264	52	4.2
2025-10-31T12:00	32300	7	-51.6		265	54	4.2
2025-10-31T12:00	32350	7	-51.1		265	55	4.1
2025-10-31T12:00	32400	7	-50.6		265	55	4.2
2025-10-31T12:00	32450	7	-50.3		264	54	4.2
2025-10-31T12:00	32500	7	-50.4		264	54	4.2
2025-10-31T12:00	32550	7	-50.6		263	53	4.1
2025-10-31T12:00	32600	7	-50.7		263	53	4.1
2025-10-31T12:00	32650	7	-50.8		263	52	
2025-10-31T12:00	32700	7	-50.9		263	52	
2025-10-31T12:00	32750	7	-50.9		262	52	
2025-10-31T12:00	32800	7	-50.5		262	52	
2025-10-31T12:00	32850	7	-50.2		261	54	
2025-10-31T12:00	32900	7	-49.9		262	56	
2025-10-31T12:00	32950	7	-49.9		262	58	
2025-10-31T12:00	33000	7	-50.1		262	59	
2025-10-31T12:00	33050	7	-50.2		262	59	
2025-10-31T12:00	33100	7	-50.2		261	59	
2025-10-31T12:00	33150	7	-50.3		261	59	
2025-10-31T12:00	33200	6	-50.3		261	59	
2025-10-31T12:00	33250	6	-50.4		260	59	
2025-10-31T12:00	33300	6	-50.5		260	58	
2025-10-31T12:00	33350	6	-50.5		260	58	
2025-10-31T12:00	33400	6	-50.5		260	58	
2025-10-31T12:00	33450	6	-50.9		259	57	
2025-10-31T12:00	33500	6	-51.1		259	58	
2025-10-31T12:00	33550	6	-50.8		258	58	
2025-10-31T12:00	33600	6	-50.2		257	59	
2025-10-31T12:00	33650	6	-49.3		257	61	
2025-10-31T12:00	33700	6	-48.6		257	62	
2025-10-31T12:00	33750	6	-48.5		258	63	
2025-10-31T12:00	33800	6	-48.2		259	64	
2025-10-31T12:00	33850	6	-47.7		259	64	
2025-10-31T12:00	33900	6	-47.3		259	65	
2025-10-31T12:00	33950	6	-47.1		260	65	
2025-10-31T12:00	34000	6	-47.2		261	66	
2025-10-31T12:00	34050	6	-47.0		262	66	
2025-10-31T12:00	34100	6	-47.0		263	66	
2025-10-31T12:00	34150	6	-46.8		264	66	
2025-10-31T12:00	34200	6	-46.5		264	67	
2025-10-31T12:00	34250	6	-46.4		265	67	
2025-10-31T12:00	34300	5	-46.4		265	67	
2025-10-31T12:00	34350	5	-46.5		264	68	
2025-10-31T12:00	34400	5	-46.7		263	68	
2025-10-31T12:00	34450	5	-47.1		263	68	
2025-10-31T12:00	34500	5	-47.5		262	68	
2025-10-31T12:00	34550	5	-47.9		261	68	
2025-10-31T12:00	34600	5	-48.3		260	68	
2025-10-31T12:00	34650	5	-48.5		260	68	
2025-10-31T12:00	34700	5	-48.0		261	68	
2025-10-31T12:00	34750	5	-47.5		262	68	
2025-10-31T12:00	34800	5	-47.5		262	68	
2025-10-31T12:00	34850	5	-47.5		263	67	
2025-10-31T12:00	34900	5	-47.5		263	67	
2025-10-31T12:00	34950	5	-47.3		263	67	
2025-10-31T12:00	35000	5	-47.0		264	67	
2025-10-31T12:00	35050	5	-46.8		265	66	
2025-10-31T12:00	35100	5	-46.7		265	67	
2025-10-31T12:00	35150	5	-46.5		264	67	
2025-10-31T12:00	35200	5	-46.0		264	67	
2025-10-31T12:00	35250	5	-45.2		263	68	
2025-10-31T12:00	35300	5	-44.8		262	68	
2025-10-31T12:00	35350	5	-44.5		262	69	
2025-10-31T12:00	35400	5	-44.4		263	69	
2025-10-31T12:00	35450	5	-44.3		265	69	
2025-10-31T12:00	35500	5	-44.3		266	69	
2025-10-31T12:00	35550	5	-44.3		267	69	
2025-10-31T12:00	35600	4	-44.1		267	69	
2025-10-31T12:00	35650	4	-43.7		267	70	
2025-10-31T12:00	35700	4	-43.7		267	70	
2025-10-31T12:00	35750	4	-43.6		266	71	
2025-10-31T12:00	35800	4	-43.5		266	73	
2025-10-31T12:00	35850	4	-43.4		265	74	
2025-10-31T12:00	35900	4	-43.3		265	75	
2025-10-31T12:00	35950	4	-43.5		265	76	
2025-10-31T12:00	36000	4	-43.5		265	76	
2025-10-31T12:00	36050	4	-43.3		266	75	
2025-10-31T12:00	36100	4	-43.1		266	75	
2025-10-31T12:00	36150	4	-42.9		265	74	
2025-10-31T12:00	36200	4	-42.7		265	74	
2025-10-31T12:00	36250	4	-42.8		265	74	
2025-10-31T12:00	36300	4	-42.8		265	75	
2025-10-31T12:00	36350	4	-42.6		265	77	
2025-10-31T12:00	36400	4	-42.4		264	77	
2025-10-31T12:00	36450	4	-42.4		264	78	
2025-10-31T12:00	36500	4	-42.4		263	78	
2025-10-31T12:00	36550	4	-42.3		263	78	
2025-10-31T12:00	36600	4	-42.3		263	78	
2025-10-31T12:00	36650	4	-42.4		263	77	
2025-10-31T12:00	36700	4	-42.6		262	77	
2025-10-31T12:00	36750	4	-42.8		261	77	
2025-10-31T12:00	36800	4	-42.9		261	77	
2025-10-31T12:00	36850	4	-42.7		261	76	
